<?xml version="1.0" encoding="UTF-8" standalone="no" ?>
<gpx xmlns="http://www.topografix.com/GPX/1/1" xmlns:xsi="http://www.w3.org/2001/XMLSchema-instance" xsi:schemaLocation="http://www.topografix.com/GPX/1/1 http://www.topografix.com/GPX/1/1/gpx.xsd" version="1.1" creator="VisuGPX - https://www.visugpx.com">
  <metadata>
    <name>Vacances 2021</name>
  </metadata>
  <trk>
    <name><![CDATA[Journal actif: 2021-07-18 11:01]]></name>
    <trkseg>
      <trkpt lat="46.32724" lon="2.60907">
        <ele>210.19</ele>
        <time>2021-07-18T13:01:09Z</time>
      </trkpt>
      <trkpt lat="46.32724" lon="2.60905">
        <ele>210.19</ele>
        <time>2021-07-18T13:02:09Z</time>
      </trkpt>
      <trkpt lat="46.32726" lon="2.60891">
        <ele>210.19</ele>
        <time>2021-07-18T13:02:26Z</time>
      </trkpt>
      <trkpt lat="46.32725" lon="2.60888">
        <ele>210.19</ele>
        <time>2021-07-18T13:04:01Z</time>
      </trkpt>
      <trkpt lat="46.32725" lon="2.60887">
        <ele>210.19</ele>
        <time>2021-07-18T13:04:02Z</time>
      </trkpt>
      <trkpt lat="46.32712" lon="2.60881">
        <ele>209.7</ele>
        <time>2021-07-18T13:04:20Z</time>
      </trkpt>
      <trkpt lat="46.3268" lon="2.60882">
        <ele>206.34</ele>
        <time>2021-07-18T13:04:36Z</time>
      </trkpt>
      <trkpt lat="46.32668" lon="2.60866">
        <ele>204.42</ele>
        <time>2021-07-18T13:04:48Z</time>
      </trkpt>
      <trkpt lat="46.32668" lon="2.60866">
        <ele>204.42</ele>
        <time>2021-07-18T13:04:49Z</time>
      </trkpt>
      <trkpt lat="46.32664" lon="2.60866">
        <ele>205.38</ele>
        <time>2021-07-18T13:05:05Z</time>
      </trkpt>
      <trkpt lat="46.32664" lon="2.60866">
        <ele>207.78</ele>
        <time>2021-07-18T13:05:12Z</time>
      </trkpt>
      <trkpt lat="46.32667" lon="2.60866">
        <ele>209.22</ele>
        <time>2021-07-18T13:05:14Z</time>
      </trkpt>
      <trkpt lat="46.32669" lon="2.60866">
        <ele>208.74</ele>
        <time>2021-07-18T13:05:15Z</time>
      </trkpt>
      <trkpt lat="46.32672" lon="2.60866">
        <ele>209.22</ele>
        <time>2021-07-18T13:05:17Z</time>
      </trkpt>
      <trkpt lat="46.32675" lon="2.60866">
        <ele>208.74</ele>
        <time>2021-07-18T13:05:18Z</time>
      </trkpt>
      <trkpt lat="46.32679" lon="2.60865">
        <ele>208.74</ele>
        <time>2021-07-18T13:05:19Z</time>
      </trkpt>
      <trkpt lat="46.3277" lon="2.60865">
        <ele>209.22</ele>
        <time>2021-07-18T13:05:34Z</time>
      </trkpt>
      <trkpt lat="46.32905" lon="2.60873">
        <ele>209.22</ele>
        <time>2021-07-18T13:05:50Z</time>
      </trkpt>
      <trkpt lat="46.33056" lon="2.60878">
        <ele>210.19</ele>
        <time>2021-07-18T13:06:08Z</time>
      </trkpt>
      <trkpt lat="46.33248" lon="2.60887">
        <ele>213.07</ele>
        <time>2021-07-18T13:06:28Z</time>
      </trkpt>
      <trkpt lat="46.33331" lon="2.60892">
        <ele>214.03</ele>
        <time>2021-07-18T13:06:39Z</time>
      </trkpt>
      <trkpt lat="46.33413" lon="2.60896">
        <ele>210.67</ele>
        <time>2021-07-18T13:06:51Z</time>
      </trkpt>
      <trkpt lat="46.33474" lon="2.609">
        <ele>209.7</ele>
        <time>2021-07-18T13:07:00Z</time>
      </trkpt>
      <trkpt lat="46.33479" lon="2.609">
        <ele>209.22</ele>
        <time>2021-07-18T13:07:03Z</time>
      </trkpt>
      <trkpt lat="46.33491" lon="2.60798">
        <ele>206.34</ele>
        <time>2021-07-18T13:07:14Z</time>
      </trkpt>
      <trkpt lat="46.33537" lon="2.60589">
        <ele>202.01</ele>
        <time>2021-07-18T13:07:33Z</time>
      </trkpt>
      <trkpt lat="46.33563" lon="2.60477">
        <ele>203.94</ele>
        <time>2021-07-18T13:07:44Z</time>
      </trkpt>
      <trkpt lat="46.33564" lon="2.60473">
        <ele>203.94</ele>
        <time>2021-07-18T13:07:59Z</time>
      </trkpt>
      <trkpt lat="46.33565" lon="2.60465">
        <ele>203.94</ele>
        <time>2021-07-18T13:08:03Z</time>
      </trkpt>
      <trkpt lat="46.33566" lon="2.60462">
        <ele>203.94</ele>
        <time>2021-07-18T13:08:04Z</time>
      </trkpt>
      <trkpt lat="46.33563" lon="2.60454">
        <ele>203.46</ele>
        <time>2021-07-18T13:08:05Z</time>
      </trkpt>
      <trkpt lat="46.33559" lon="2.60453">
        <ele>203.46</ele>
        <time>2021-07-18T13:08:06Z</time>
      </trkpt>
      <trkpt lat="46.33555" lon="2.60452">
        <ele>203.46</ele>
        <time>2021-07-18T13:08:07Z</time>
      </trkpt>
      <trkpt lat="46.3355" lon="2.6045">
        <ele>203.46</ele>
        <time>2021-07-18T13:08:08Z</time>
      </trkpt>
      <trkpt lat="46.33545" lon="2.60449">
        <ele>203.46</ele>
        <time>2021-07-18T13:08:09Z</time>
      </trkpt>
      <trkpt lat="46.33474" lon="2.60427">
        <ele>202.49</ele>
        <time>2021-07-18T13:08:19Z</time>
      </trkpt>
      <trkpt lat="46.3338" lon="2.60403">
        <ele>201.53</ele>
        <time>2021-07-18T13:08:30Z</time>
      </trkpt>
      <trkpt lat="46.33318" lon="2.60396">
        <ele>200.57</ele>
        <time>2021-07-18T13:08:39Z</time>
      </trkpt>
      <trkpt lat="46.33277" lon="2.60375">
        <ele>202.98</ele>
        <time>2021-07-18T13:08:43Z</time>
      </trkpt>
      <trkpt lat="46.33269" lon="2.6037">
        <ele>202.98</ele>
        <time>2021-07-18T13:08:44Z</time>
      </trkpt>
      <trkpt lat="46.33258" lon="2.60351">
        <ele>202.49</ele>
        <time>2021-07-18T13:08:45Z</time>
      </trkpt>
      <trkpt lat="46.33197" lon="2.60218">
        <ele>201.53</ele>
        <time>2021-07-18T13:09:00Z</time>
      </trkpt>
      <trkpt lat="46.33168" lon="2.60148">
        <ele>202.01</ele>
        <time>2021-07-18T13:09:11Z</time>
      </trkpt>
      <trkpt lat="46.33167" lon="2.60146">
        <ele>202.01</ele>
        <time>2021-07-18T13:09:12Z</time>
      </trkpt>
      <trkpt lat="46.33166" lon="2.60143">
        <ele>201.53</ele>
        <time>2021-07-18T13:09:14Z</time>
      </trkpt>
      <trkpt lat="46.3316" lon="2.60129">
        <ele>202.98</ele>
        <time>2021-07-18T13:09:28Z</time>
      </trkpt>
      <trkpt lat="46.33195" lon="2.601">
        <ele>202.98</ele>
        <time>2021-07-18T13:09:42Z</time>
      </trkpt>
      <trkpt lat="46.33196" lon="2.60075">
        <ele>202.98</ele>
        <time>2021-07-18T13:09:55Z</time>
      </trkpt>
      <trkpt lat="46.33197" lon="2.60063">
        <ele>203.46</ele>
        <time>2021-07-18T13:10:09Z</time>
      </trkpt>
      <trkpt lat="46.33198" lon="2.60062">
        <ele>203.94</ele>
        <time>2021-07-18T13:11:56Z</time>
      </trkpt>
      <trkpt lat="46.33198" lon="2.60061">
        <ele>204.42</ele>
        <time>2021-07-18T13:14:26Z</time>
      </trkpt>
      <trkpt lat="46.33199" lon="2.60057">
        <ele>204.42</ele>
        <time>2021-07-18T13:15:42Z</time>
      </trkpt>
      <trkpt lat="46.3319" lon="2.6004">
        <ele>204.9</ele>
        <time>2021-07-18T13:15:54Z</time>
      </trkpt>
      <trkpt lat="46.33167" lon="2.60014">
        <ele>205.86</ele>
        <time>2021-07-18T13:16:07Z</time>
      </trkpt>
      <trkpt lat="46.3312" lon="2.60013">
        <ele>205.86</ele>
        <time>2021-07-18T13:16:19Z</time>
      </trkpt>
      <trkpt lat="46.33113" lon="2.60011">
        <ele>206.82</ele>
        <time>2021-07-18T13:16:23Z</time>
      </trkpt>
      <trkpt lat="46.33108" lon="2.6001">
        <ele>207.3</ele>
        <time>2021-07-18T13:16:24Z</time>
      </trkpt>
      <trkpt lat="46.33104" lon="2.60011">
        <ele>206.82</ele>
        <time>2021-07-18T13:16:25Z</time>
      </trkpt>
      <trkpt lat="46.33096" lon="2.60019">
        <ele>206.82</ele>
        <time>2021-07-18T13:16:26Z</time>
      </trkpt>
      <trkpt lat="46.3306" lon="2.60116">
        <ele>205.86</ele>
        <time>2021-07-18T13:16:37Z</time>
      </trkpt>
      <trkpt lat="46.32986" lon="2.60283">
        <ele>204.42</ele>
        <time>2021-07-18T13:16:51Z</time>
      </trkpt>
      <trkpt lat="46.32921" lon="2.60477">
        <ele>205.86</ele>
        <time>2021-07-18T13:17:06Z</time>
      </trkpt>
      <trkpt lat="46.32909" lon="2.60524">
        <ele>206.82</ele>
        <time>2021-07-18T13:17:13Z</time>
      </trkpt>
      <trkpt lat="46.32904" lon="2.60545">
        <ele>207.3</ele>
        <time>2021-07-18T13:17:28Z</time>
      </trkpt>
      <trkpt lat="46.32872" lon="2.60652">
        <ele>208.26</ele>
        <time>2021-07-18T13:17:39Z</time>
      </trkpt>
      <trkpt lat="46.32829" lon="2.60808">
        <ele>209.7</ele>
        <time>2021-07-18T13:17:53Z</time>
      </trkpt>
      <trkpt lat="46.32822" lon="2.60843">
        <ele>210.67</ele>
        <time>2021-07-18T13:18:01Z</time>
      </trkpt>
      <trkpt lat="46.32819" lon="2.60866">
        <ele>210.19</ele>
        <time>2021-07-18T13:18:47Z</time>
      </trkpt>
      <trkpt lat="46.32826" lon="2.60868">
        <ele>210.19</ele>
        <time>2021-07-18T13:18:48Z</time>
      </trkpt>
      <trkpt lat="46.32831" lon="2.60868">
        <ele>209.7</ele>
        <time>2021-07-18T13:18:49Z</time>
      </trkpt>
      <trkpt lat="46.32831" lon="2.60868">
        <ele>209.7</ele>
        <time>2021-07-18T13:18:50Z</time>
      </trkpt>
      <trkpt lat="46.32859" lon="2.6087">
        <ele>209.22</ele>
        <time>2021-07-18T13:18:57Z</time>
      </trkpt>
      <trkpt lat="46.32888" lon="2.60872">
        <ele>208.74</ele>
        <time>2021-07-18T13:19:19Z</time>
      </trkpt>
      <trkpt lat="46.32969" lon="2.60876">
        <ele>210.67</ele>
        <time>2021-07-18T13:19:30Z</time>
      </trkpt>
      <trkpt lat="46.33107" lon="2.60881">
        <ele>213.55</ele>
        <time>2021-07-18T13:19:43Z</time>
      </trkpt>
      <trkpt lat="46.33214" lon="2.60887">
        <ele>214.03</ele>
        <time>2021-07-18T13:19:54Z</time>
      </trkpt>
      <trkpt lat="46.3325" lon="2.60888">
        <ele>214.99</ele>
        <time>2021-07-18T13:20:01Z</time>
      </trkpt>
      <trkpt lat="46.33323" lon="2.60892">
        <ele>217.4</ele>
        <time>2021-07-18T13:20:10Z</time>
      </trkpt>
      <trkpt lat="46.3346" lon="2.60899">
        <ele>207.78</ele>
        <time>2021-07-18T13:20:22Z</time>
      </trkpt>
      <trkpt lat="46.33577" lon="2.60904">
        <ele>210.67</ele>
        <time>2021-07-18T13:20:34Z</time>
      </trkpt>
      <trkpt lat="46.33644" lon="2.60906">
        <ele>211.63</ele>
        <time>2021-07-18T13:20:41Z</time>
      </trkpt>
      <trkpt lat="46.3365" lon="2.60906">
        <ele>210.19</ele>
        <time>2021-07-18T13:20:48Z</time>
      </trkpt>
      <trkpt lat="46.3365" lon="2.60906">
        <ele>208.26</ele>
        <time>2021-07-18T13:21:21Z</time>
      </trkpt>
      <trkpt lat="46.3365" lon="2.60906">
        <ele>208.26</ele>
        <time>2021-07-18T13:21:24Z</time>
      </trkpt>
      <trkpt lat="46.33653" lon="2.60906">
        <ele>208.74</ele>
        <time>2021-07-18T13:21:25Z</time>
      </trkpt>
      <trkpt lat="46.33688" lon="2.60905">
        <ele>208.26</ele>
        <time>2021-07-18T13:21:31Z</time>
      </trkpt>
      <trkpt lat="46.33739" lon="2.60912">
        <ele>207.78</ele>
        <time>2021-07-18T13:21:36Z</time>
      </trkpt>
      <trkpt lat="46.33844" lon="2.60961">
        <ele>208.74</ele>
        <time>2021-07-18T13:21:50Z</time>
      </trkpt>
      <trkpt lat="46.33887" lon="2.60978">
        <ele>210.19</ele>
        <time>2021-07-18T13:21:57Z</time>
      </trkpt>
      <trkpt lat="46.33892" lon="2.60983">
        <ele>210.19</ele>
        <time>2021-07-18T13:21:59Z</time>
      </trkpt>
      <trkpt lat="46.33897" lon="2.6099">
        <ele>210.19</ele>
        <time>2021-07-18T13:22:00Z</time>
      </trkpt>
      <trkpt lat="46.339" lon="2.61006">
        <ele>209.7</ele>
        <time>2021-07-18T13:22:01Z</time>
      </trkpt>
      <trkpt lat="46.339" lon="2.61011">
        <ele>210.19</ele>
        <time>2021-07-18T13:22:02Z</time>
      </trkpt>
      <trkpt lat="46.33894" lon="2.61065">
        <ele>210.19</ele>
        <time>2021-07-18T13:22:07Z</time>
      </trkpt>
      <trkpt lat="46.33896" lon="2.61073">
        <ele>209.7</ele>
        <time>2021-07-18T13:22:08Z</time>
      </trkpt>
      <trkpt lat="46.33898" lon="2.6108">
        <ele>209.7</ele>
        <time>2021-07-18T13:22:09Z</time>
      </trkpt>
      <trkpt lat="46.339" lon="2.61088">
        <ele>209.7</ele>
        <time>2021-07-18T13:22:10Z</time>
      </trkpt>
      <trkpt lat="46.33906" lon="2.61092">
        <ele>209.7</ele>
        <time>2021-07-18T13:22:11Z</time>
      </trkpt>
      <trkpt lat="46.33906" lon="2.61092">
        <ele>209.7</ele>
        <time>2021-07-18T13:22:12Z</time>
      </trkpt>
      <trkpt lat="46.33911" lon="2.61095">
        <ele>209.7</ele>
        <time>2021-07-18T13:22:13Z</time>
      </trkpt>
      <trkpt lat="46.33923" lon="2.61102">
        <ele>209.7</ele>
        <time>2021-07-18T13:22:14Z</time>
      </trkpt>
      <trkpt lat="46.33923" lon="2.61102">
        <ele>209.7</ele>
        <time>2021-07-18T13:22:15Z</time>
      </trkpt>
      <trkpt lat="46.3393" lon="2.61105">
        <ele>209.7</ele>
        <time>2021-07-18T13:22:16Z</time>
      </trkpt>
      <trkpt lat="46.33974" lon="2.61118">
        <ele>208.74</ele>
        <time>2021-07-18T13:22:22Z</time>
      </trkpt>
      <trkpt lat="46.3402" lon="2.61118">
        <ele>210.19</ele>
        <time>2021-07-18T13:22:27Z</time>
      </trkpt>
      <trkpt lat="46.34054" lon="2.61124">
        <ele>211.63</ele>
        <time>2021-07-18T13:22:34Z</time>
      </trkpt>
      <trkpt lat="46.34051" lon="2.61123">
        <ele>211.15</ele>
        <time>2021-07-18T13:22:36Z</time>
      </trkpt>
      <trkpt lat="46.34035" lon="2.61121">
        <ele>209.22</ele>
        <time>2021-07-18T13:22:43Z</time>
      </trkpt>
      <trkpt lat="46.34064" lon="2.61125">
        <ele>208.74</ele>
        <time>2021-07-18T13:22:56Z</time>
      </trkpt>
      <trkpt lat="46.34064" lon="2.61125">
        <ele>208.74</ele>
        <time>2021-07-18T13:22:57Z</time>
      </trkpt>
      <trkpt lat="46.34064" lon="2.61124">
        <ele>208.74</ele>
        <time>2021-07-18T13:22:58Z</time>
      </trkpt>
      <trkpt lat="46.34125" lon="2.61139">
        <ele>210.67</ele>
        <time>2021-07-18T13:23:07Z</time>
      </trkpt>
      <trkpt lat="46.34156" lon="2.61143">
        <ele>213.55</ele>
        <time>2021-07-18T13:23:11Z</time>
      </trkpt>
      <trkpt lat="46.34175" lon="2.61142">
        <ele>214.03</ele>
        <time>2021-07-18T13:23:12Z</time>
      </trkpt>
      <trkpt lat="46.34292" lon="2.61116">
        <ele>230.37</ele>
        <time>2021-07-18T13:23:24Z</time>
      </trkpt>
      <trkpt lat="46.34337" lon="2.61103">
        <ele>234.7</ele>
        <time>2021-07-18T13:23:32Z</time>
      </trkpt>
      <trkpt lat="46.34342" lon="2.61101">
        <ele>235.18</ele>
        <time>2021-07-18T13:23:33Z</time>
      </trkpt>
      <trkpt lat="46.34345" lon="2.61107">
        <ele>235.18</ele>
        <time>2021-07-18T13:23:34Z</time>
      </trkpt>
      <trkpt lat="46.34348" lon="2.61113">
        <ele>234.7</ele>
        <time>2021-07-18T13:23:35Z</time>
      </trkpt>
      <trkpt lat="46.34351" lon="2.61119">
        <ele>234.22</ele>
        <time>2021-07-18T13:23:36Z</time>
      </trkpt>
      <trkpt lat="46.34354" lon="2.61126">
        <ele>234.22</ele>
        <time>2021-07-18T13:23:37Z</time>
      </trkpt>
      <trkpt lat="46.34356" lon="2.61133">
        <ele>233.74</ele>
        <time>2021-07-18T13:23:38Z</time>
      </trkpt>
      <trkpt lat="46.34359" lon="2.61142">
        <ele>233.74</ele>
        <time>2021-07-18T13:23:39Z</time>
      </trkpt>
      <trkpt lat="46.34401" lon="2.61287">
        <ele>238.06</ele>
        <time>2021-07-18T13:23:55Z</time>
      </trkpt>
      <trkpt lat="46.34427" lon="2.61373">
        <ele>240.95</ele>
        <time>2021-07-18T13:24:08Z</time>
      </trkpt>
      <trkpt lat="46.34468" lon="2.61517">
        <ele>244.79</ele>
        <time>2021-07-18T13:24:21Z</time>
      </trkpt>
      <trkpt lat="46.34499" lon="2.61668">
        <ele>249.12</ele>
        <time>2021-07-18T13:24:32Z</time>
      </trkpt>
      <trkpt lat="46.3453" lon="2.61975">
        <ele>253.93</ele>
        <time>2021-07-18T13:24:52Z</time>
      </trkpt>
      <trkpt lat="46.3456" lon="2.62289">
        <ele>259.21</ele>
        <time>2021-07-18T13:25:12Z</time>
      </trkpt>
      <trkpt lat="46.34562" lon="2.6231">
        <ele>260.17</ele>
        <time>2021-07-18T13:25:18Z</time>
      </trkpt>
      <trkpt lat="46.34564" lon="2.62337">
        <ele>260.65</ele>
        <time>2021-07-18T13:25:56Z</time>
      </trkpt>
      <trkpt lat="46.34571" lon="2.62441">
        <ele>262.58</ele>
        <time>2021-07-18T13:26:05Z</time>
      </trkpt>
      <trkpt lat="46.34571" lon="2.62453">
        <ele>263.06</ele>
        <time>2021-07-18T13:26:06Z</time>
      </trkpt>
      <trkpt lat="46.34567" lon="2.62476">
        <ele>263.06</ele>
        <time>2021-07-18T13:26:07Z</time>
      </trkpt>
      <trkpt lat="46.34567" lon="2.62476">
        <ele>263.54</ele>
        <time>2021-07-18T13:26:08Z</time>
      </trkpt>
      <trkpt lat="46.34563" lon="2.62487">
        <ele>264.02</ele>
        <time>2021-07-18T13:26:09Z</time>
      </trkpt>
      <trkpt lat="46.34558" lon="2.62498">
        <ele>264.02</ele>
        <time>2021-07-18T13:26:10Z</time>
      </trkpt>
      <trkpt lat="46.34545" lon="2.62519">
        <ele>266.42</ele>
        <time>2021-07-18T13:26:11Z</time>
      </trkpt>
      <trkpt lat="46.34545" lon="2.62519">
        <ele>267.38</ele>
        <time>2021-07-18T13:26:12Z</time>
      </trkpt>
      <trkpt lat="46.34537" lon="2.62528">
        <ele>267.86</ele>
        <time>2021-07-18T13:26:13Z</time>
      </trkpt>
      <trkpt lat="46.34528" lon="2.62535">
        <ele>268.35</ele>
        <time>2021-07-18T13:26:14Z</time>
      </trkpt>
      <trkpt lat="46.3451" lon="2.6255">
        <ele>269.31</ele>
        <time>2021-07-18T13:26:15Z</time>
      </trkpt>
      <trkpt lat="46.3451" lon="2.6255">
        <ele>269.31</ele>
        <time>2021-07-18T13:26:16Z</time>
      </trkpt>
      <trkpt lat="46.34387" lon="2.62599">
        <ele>271.71</ele>
        <time>2021-07-18T13:26:26Z</time>
      </trkpt>
      <trkpt lat="46.34376" lon="2.62607">
        <ele>271.71</ele>
        <time>2021-07-18T13:26:27Z</time>
      </trkpt>
      <trkpt lat="46.34355" lon="2.62625">
        <ele>272.19</ele>
        <time>2021-07-18T13:26:28Z</time>
      </trkpt>
      <trkpt lat="46.34347" lon="2.6264">
        <ele>272.67</ele>
        <time>2021-07-18T13:26:29Z</time>
      </trkpt>
      <trkpt lat="46.34347" lon="2.6264">
        <ele>272.19</ele>
        <time>2021-07-18T13:26:30Z</time>
      </trkpt>
      <trkpt lat="46.3434" lon="2.62656">
        <ele>272.19</ele>
        <time>2021-07-18T13:26:31Z</time>
      </trkpt>
      <trkpt lat="46.34333" lon="2.6267">
        <ele>273.15</ele>
        <time>2021-07-18T13:26:32Z</time>
      </trkpt>
      <trkpt lat="46.34326" lon="2.62685">
        <ele>272.19</ele>
        <time>2021-07-18T13:26:33Z</time>
      </trkpt>
      <trkpt lat="46.34322" lon="2.62703">
        <ele>272.19</ele>
        <time>2021-07-18T13:26:34Z</time>
      </trkpt>
      <trkpt lat="46.34318" lon="2.62721">
        <ele>272.19</ele>
        <time>2021-07-18T13:26:35Z</time>
      </trkpt>
      <trkpt lat="46.34317" lon="2.62739">
        <ele>272.67</ele>
        <time>2021-07-18T13:26:36Z</time>
      </trkpt>
      <trkpt lat="46.34316" lon="2.62758">
        <ele>273.15</ele>
        <time>2021-07-18T13:26:37Z</time>
      </trkpt>
      <trkpt lat="46.34311" lon="2.62939">
        <ele>276.52</ele>
        <time>2021-07-18T13:26:46Z</time>
      </trkpt>
      <trkpt lat="46.34314" lon="2.62958">
        <ele>277</ele>
        <time>2021-07-18T13:26:47Z</time>
      </trkpt>
      <trkpt lat="46.3432" lon="2.62975">
        <ele>277</ele>
        <time>2021-07-18T13:26:48Z</time>
      </trkpt>
      <trkpt lat="46.34327" lon="2.62992">
        <ele>277.48</ele>
        <time>2021-07-18T13:26:49Z</time>
      </trkpt>
      <trkpt lat="46.34335" lon="2.63007">
        <ele>277.96</ele>
        <time>2021-07-18T13:26:50Z</time>
      </trkpt>
      <trkpt lat="46.34344" lon="2.63022">
        <ele>278.44</ele>
        <time>2021-07-18T13:26:51Z</time>
      </trkpt>
      <trkpt lat="46.34386" lon="2.63092">
        <ele>281.32</ele>
        <time>2021-07-18T13:26:56Z</time>
      </trkpt>
      <trkpt lat="46.34392" lon="2.63105">
        <ele>281.32</ele>
        <time>2021-07-18T13:26:57Z</time>
      </trkpt>
      <trkpt lat="46.34393" lon="2.63122">
        <ele>282.28</ele>
        <time>2021-07-18T13:26:58Z</time>
      </trkpt>
      <trkpt lat="46.34394" lon="2.63137">
        <ele>282.77</ele>
        <time>2021-07-18T13:26:59Z</time>
      </trkpt>
      <trkpt lat="46.34391" lon="2.63148">
        <ele>283.73</ele>
        <time>2021-07-18T13:27:00Z</time>
      </trkpt>
      <trkpt lat="46.34385" lon="2.6316">
        <ele>284.21</ele>
        <time>2021-07-18T13:27:01Z</time>
      </trkpt>
      <trkpt lat="46.34376" lon="2.63171">
        <ele>285.17</ele>
        <time>2021-07-18T13:27:02Z</time>
      </trkpt>
      <trkpt lat="46.34367" lon="2.63178">
        <ele>285.65</ele>
        <time>2021-07-18T13:27:03Z</time>
      </trkpt>
      <trkpt lat="46.34356" lon="2.63184">
        <ele>286.13</ele>
        <time>2021-07-18T13:27:04Z</time>
      </trkpt>
      <trkpt lat="46.34331" lon="2.63192">
        <ele>286.61</ele>
        <time>2021-07-18T13:27:05Z</time>
      </trkpt>
      <trkpt lat="46.34201" lon="2.63204">
        <ele>294.78</ele>
        <time>2021-07-18T13:27:15Z</time>
      </trkpt>
      <trkpt lat="46.34044" lon="2.63189">
        <ele>298.63</ele>
        <time>2021-07-18T13:27:24Z</time>
      </trkpt>
      <trkpt lat="46.33996" lon="2.63187">
        <ele>300.55</ele>
        <time>2021-07-18T13:27:28Z</time>
      </trkpt>
      <trkpt lat="46.33965" lon="2.63179">
        <ele>300.55</ele>
        <time>2021-07-18T13:27:29Z</time>
      </trkpt>
      <trkpt lat="46.33965" lon="2.63179">
        <ele>301.03</ele>
        <time>2021-07-18T13:27:31Z</time>
      </trkpt>
      <trkpt lat="46.33859" lon="2.63146">
        <ele>305.36</ele>
        <time>2021-07-18T13:27:37Z</time>
      </trkpt>
      <trkpt lat="46.33844" lon="2.6315">
        <ele>304.88</ele>
        <time>2021-07-18T13:27:38Z</time>
      </trkpt>
      <trkpt lat="46.33828" lon="2.63154">
        <ele>303.91</ele>
        <time>2021-07-18T13:27:39Z</time>
      </trkpt>
      <trkpt lat="46.33814" lon="2.63161">
        <ele>304.39</ele>
        <time>2021-07-18T13:27:40Z</time>
      </trkpt>
      <trkpt lat="46.33801" lon="2.6317">
        <ele>305.36</ele>
        <time>2021-07-18T13:27:41Z</time>
      </trkpt>
      <trkpt lat="46.3379" lon="2.63184">
        <ele>305.36</ele>
        <time>2021-07-18T13:27:42Z</time>
      </trkpt>
      <trkpt lat="46.33779" lon="2.63202">
        <ele>305.36</ele>
        <time>2021-07-18T13:27:43Z</time>
      </trkpt>
      <trkpt lat="46.33771" lon="2.6322">
        <ele>304.88</ele>
        <time>2021-07-18T13:27:44Z</time>
      </trkpt>
      <trkpt lat="46.33765" lon="2.63241">
        <ele>305.36</ele>
        <time>2021-07-18T13:27:45Z</time>
      </trkpt>
      <trkpt lat="46.33761" lon="2.63263">
        <ele>305.36</ele>
        <time>2021-07-18T13:27:46Z</time>
      </trkpt>
      <trkpt lat="46.3371" lon="2.63501">
        <ele>315.45</ele>
        <time>2021-07-18T13:27:57Z</time>
      </trkpt>
      <trkpt lat="46.33708" lon="2.63523">
        <ele>315.93</ele>
        <time>2021-07-18T13:27:58Z</time>
      </trkpt>
      <trkpt lat="46.3371" lon="2.63544">
        <ele>316.89</ele>
        <time>2021-07-18T13:27:59Z</time>
      </trkpt>
      <trkpt lat="46.33713" lon="2.63564">
        <ele>317.85</ele>
        <time>2021-07-18T13:28:00Z</time>
      </trkpt>
      <trkpt lat="46.33717" lon="2.63583">
        <ele>318.33</ele>
        <time>2021-07-18T13:28:01Z</time>
      </trkpt>
      <trkpt lat="46.33725" lon="2.636">
        <ele>318.81</ele>
        <time>2021-07-18T13:28:02Z</time>
      </trkpt>
      <trkpt lat="46.33733" lon="2.63617">
        <ele>319.78</ele>
        <time>2021-07-18T13:28:03Z</time>
      </trkpt>
      <trkpt lat="46.33742" lon="2.63634">
        <ele>320.26</ele>
        <time>2021-07-18T13:28:04Z</time>
      </trkpt>
      <trkpt lat="46.33874" lon="2.63866">
        <ele>328.91</ele>
        <time>2021-07-18T13:28:19Z</time>
      </trkpt>
      <trkpt lat="46.33883" lon="2.63898">
        <ele>329.39</ele>
        <time>2021-07-18T13:28:20Z</time>
      </trkpt>
      <trkpt lat="46.33883" lon="2.63916">
        <ele>329.39</ele>
        <time>2021-07-18T13:28:21Z</time>
      </trkpt>
      <trkpt lat="46.33874" lon="2.63949">
        <ele>329.39</ele>
        <time>2021-07-18T13:28:22Z</time>
      </trkpt>
      <trkpt lat="46.33866" lon="2.63963">
        <ele>329.87</ele>
        <time>2021-07-18T13:28:23Z</time>
      </trkpt>
      <trkpt lat="46.33855" lon="2.63972">
        <ele>330.83</ele>
        <time>2021-07-18T13:28:24Z</time>
      </trkpt>
      <trkpt lat="46.33843" lon="2.63982">
        <ele>331.79</ele>
        <time>2021-07-18T13:28:25Z</time>
      </trkpt>
      <trkpt lat="46.33832" lon="2.63991">
        <ele>332.27</ele>
        <time>2021-07-18T13:28:26Z</time>
      </trkpt>
      <trkpt lat="46.33832" lon="2.63991">
        <ele>333.23</ele>
        <time>2021-07-18T13:28:27Z</time>
      </trkpt>
      <trkpt lat="46.33809" lon="2.64012">
        <ele>333.71</ele>
        <time>2021-07-18T13:28:28Z</time>
      </trkpt>
      <trkpt lat="46.33809" lon="2.64012">
        <ele>333.23</ele>
        <time>2021-07-18T13:28:29Z</time>
      </trkpt>
      <trkpt lat="46.33792" lon="2.64044">
        <ele>333.71</ele>
        <time>2021-07-18T13:28:30Z</time>
      </trkpt>
      <trkpt lat="46.33787" lon="2.64061">
        <ele>333.23</ele>
        <time>2021-07-18T13:28:31Z</time>
      </trkpt>
      <trkpt lat="46.33787" lon="2.64081">
        <ele>334.2</ele>
        <time>2021-07-18T13:28:32Z</time>
      </trkpt>
      <trkpt lat="46.33787" lon="2.64081">
        <ele>334.68</ele>
        <time>2021-07-18T13:28:33Z</time>
      </trkpt>
      <trkpt lat="46.3379" lon="2.64122">
        <ele>335.16</ele>
        <time>2021-07-18T13:28:34Z</time>
      </trkpt>
      <trkpt lat="46.33794" lon="2.64143">
        <ele>335.64</ele>
        <time>2021-07-18T13:28:35Z</time>
      </trkpt>
      <trkpt lat="46.33794" lon="2.64143">
        <ele>336.12</ele>
        <time>2021-07-18T13:28:36Z</time>
      </trkpt>
      <trkpt lat="46.33808" lon="2.64203">
        <ele>337.56</ele>
        <time>2021-07-18T13:28:39Z</time>
      </trkpt>
      <trkpt lat="46.3381" lon="2.64224">
        <ele>338.04</ele>
        <time>2021-07-18T13:28:40Z</time>
      </trkpt>
      <trkpt lat="46.33809" lon="2.64244">
        <ele>338.52</ele>
        <time>2021-07-18T13:28:41Z</time>
      </trkpt>
      <trkpt lat="46.33805" lon="2.64263">
        <ele>339</ele>
        <time>2021-07-18T13:28:42Z</time>
      </trkpt>
      <trkpt lat="46.33799" lon="2.64281">
        <ele>339.48</ele>
        <time>2021-07-18T13:28:43Z</time>
      </trkpt>
      <trkpt lat="46.33789" lon="2.64295">
        <ele>340.44</ele>
        <time>2021-07-18T13:28:44Z</time>
      </trkpt>
      <trkpt lat="46.33766" lon="2.6432">
        <ele>341.41</ele>
        <time>2021-07-18T13:28:45Z</time>
      </trkpt>
      <trkpt lat="46.33766" lon="2.6432">
        <ele>342.85</ele>
        <time>2021-07-18T13:28:46Z</time>
      </trkpt>
      <trkpt lat="46.33751" lon="2.64327">
        <ele>342.85</ele>
        <time>2021-07-18T13:28:47Z</time>
      </trkpt>
      <trkpt lat="46.33695" lon="2.64358">
        <ele>344.77</ele>
        <time>2021-07-18T13:28:51Z</time>
      </trkpt>
      <trkpt lat="46.33673" lon="2.64383">
        <ele>345.73</ele>
        <time>2021-07-18T13:28:52Z</time>
      </trkpt>
      <trkpt lat="46.3366" lon="2.64396">
        <ele>345.73</ele>
        <time>2021-07-18T13:28:53Z</time>
      </trkpt>
      <trkpt lat="46.3366" lon="2.64396">
        <ele>345.73</ele>
        <time>2021-07-18T13:28:54Z</time>
      </trkpt>
      <trkpt lat="46.33642" lon="2.64434">
        <ele>345.25</ele>
        <time>2021-07-18T13:28:55Z</time>
      </trkpt>
      <trkpt lat="46.33638" lon="2.64455">
        <ele>345.73</ele>
        <time>2021-07-18T13:28:56Z</time>
      </trkpt>
      <trkpt lat="46.33634" lon="2.64477">
        <ele>345.73</ele>
        <time>2021-07-18T13:28:57Z</time>
      </trkpt>
      <trkpt lat="46.33634" lon="2.64477">
        <ele>346.21</ele>
        <time>2021-07-18T13:28:58Z</time>
      </trkpt>
      <trkpt lat="46.33634" lon="2.64523">
        <ele>347.17</ele>
        <time>2021-07-18T13:28:59Z</time>
      </trkpt>
      <trkpt lat="46.33636" lon="2.64545">
        <ele>348.13</ele>
        <time>2021-07-18T13:29:00Z</time>
      </trkpt>
      <trkpt lat="46.33642" lon="2.64565">
        <ele>349.1</ele>
        <time>2021-07-18T13:29:01Z</time>
      </trkpt>
      <trkpt lat="46.33642" lon="2.64565">
        <ele>349.58</ele>
        <time>2021-07-18T13:29:02Z</time>
      </trkpt>
      <trkpt lat="46.3365" lon="2.64584">
        <ele>350.06</ele>
        <time>2021-07-18T13:29:03Z</time>
      </trkpt>
      <trkpt lat="46.3366" lon="2.64603">
        <ele>351.02</ele>
        <time>2021-07-18T13:29:04Z</time>
      </trkpt>
      <trkpt lat="46.33671" lon="2.64618">
        <ele>351.5</ele>
        <time>2021-07-18T13:29:05Z</time>
      </trkpt>
      <trkpt lat="46.33685" lon="2.64631">
        <ele>351.98</ele>
        <time>2021-07-18T13:29:06Z</time>
      </trkpt>
      <trkpt lat="46.33699" lon="2.64644">
        <ele>352.94</ele>
        <time>2021-07-18T13:29:07Z</time>
      </trkpt>
      <trkpt lat="46.33712" lon="2.64655">
        <ele>353.42</ele>
        <time>2021-07-18T13:29:08Z</time>
      </trkpt>
      <trkpt lat="46.33895" lon="2.64742">
        <ele>360.63</ele>
        <time>2021-07-18T13:29:19Z</time>
      </trkpt>
      <trkpt lat="46.33908" lon="2.64752">
        <ele>363.52</ele>
        <time>2021-07-18T13:29:21Z</time>
      </trkpt>
      <trkpt lat="46.3392" lon="2.64765">
        <ele>363.04</ele>
        <time>2021-07-18T13:29:22Z</time>
      </trkpt>
      <trkpt lat="46.33933" lon="2.64778">
        <ele>362.55</ele>
        <time>2021-07-18T13:29:23Z</time>
      </trkpt>
      <trkpt lat="46.33943" lon="2.64793">
        <ele>362.55</ele>
        <time>2021-07-18T13:29:24Z</time>
      </trkpt>
      <trkpt lat="46.33952" lon="2.64811">
        <ele>363.04</ele>
        <time>2021-07-18T13:29:25Z</time>
      </trkpt>
      <trkpt lat="46.33962" lon="2.64831">
        <ele>364</ele>
        <time>2021-07-18T13:29:26Z</time>
      </trkpt>
      <trkpt lat="46.33967" lon="2.64851">
        <ele>364</ele>
        <time>2021-07-18T13:29:27Z</time>
      </trkpt>
      <trkpt lat="46.33979" lon="2.64896">
        <ele>364</ele>
        <time>2021-07-18T13:29:28Z</time>
      </trkpt>
      <trkpt lat="46.34052" lon="2.65228">
        <ele>368.32</ele>
        <time>2021-07-18T13:29:43Z</time>
      </trkpt>
      <trkpt lat="46.3408" lon="2.65437">
        <ele>367.84</ele>
        <time>2021-07-18T13:29:50Z</time>
      </trkpt>
      <trkpt lat="46.3408" lon="2.65437">
        <ele>368.32</ele>
        <time>2021-07-18T13:29:51Z</time>
      </trkpt>
      <trkpt lat="46.34078" lon="2.65463">
        <ele>369.28</ele>
        <time>2021-07-18T13:29:52Z</time>
      </trkpt>
      <trkpt lat="46.34073" lon="2.65486">
        <ele>369.76</ele>
        <time>2021-07-18T13:29:53Z</time>
      </trkpt>
      <trkpt lat="46.34068" lon="2.65511">
        <ele>370.24</ele>
        <time>2021-07-18T13:29:54Z</time>
      </trkpt>
      <trkpt lat="46.3396" lon="2.65884">
        <ele>372.17</ele>
        <time>2021-07-18T13:30:09Z</time>
      </trkpt>
      <trkpt lat="46.33884" lon="2.66212">
        <ele>377.94</ele>
        <time>2021-07-18T13:30:21Z</time>
      </trkpt>
      <trkpt lat="46.33807" lon="2.66753">
        <ele>383.7</ele>
        <time>2021-07-18T13:30:39Z</time>
      </trkpt>
      <trkpt lat="46.33733" lon="2.6728">
        <ele>388.03</ele>
        <time>2021-07-18T13:30:56Z</time>
      </trkpt>
      <trkpt lat="46.33666" lon="2.67768">
        <ele>386.59</ele>
        <time>2021-07-18T13:31:14Z</time>
      </trkpt>
      <trkpt lat="46.33589" lon="2.68319">
        <ele>379.86</ele>
        <time>2021-07-18T13:31:32Z</time>
      </trkpt>
      <trkpt lat="46.33506" lon="2.68893">
        <ele>383.22</ele>
        <time>2021-07-18T13:31:52Z</time>
      </trkpt>
      <trkpt lat="46.33458" lon="2.69238">
        <ele>372.17</ele>
        <time>2021-07-18T13:32:04Z</time>
      </trkpt>
      <trkpt lat="46.3342" lon="2.69508">
        <ele>363.04</ele>
        <time>2021-07-18T13:32:14Z</time>
      </trkpt>
      <trkpt lat="46.33379" lon="2.69794">
        <ele>355.83</ele>
        <time>2021-07-18T13:32:27Z</time>
      </trkpt>
      <trkpt lat="46.33343" lon="2.70056">
        <ele>353.9</ele>
        <time>2021-07-18T13:32:42Z</time>
      </trkpt>
      <trkpt lat="46.33328" lon="2.70149">
        <ele>351.02</ele>
        <time>2021-07-18T13:32:50Z</time>
      </trkpt>
      <trkpt lat="46.33327" lon="2.70156">
        <ele>350.54</ele>
        <time>2021-07-18T13:32:51Z</time>
      </trkpt>
      <trkpt lat="46.33325" lon="2.7016">
        <ele>350.54</ele>
        <time>2021-07-18T13:32:52Z</time>
      </trkpt>
      <trkpt lat="46.33323" lon="2.70169">
        <ele>350.54</ele>
        <time>2021-07-18T13:32:53Z</time>
      </trkpt>
      <trkpt lat="46.33323" lon="2.70171">
        <ele>350.54</ele>
        <time>2021-07-18T13:32:54Z</time>
      </trkpt>
      <trkpt lat="46.33328" lon="2.70182">
        <ele>350.54</ele>
        <time>2021-07-18T13:32:55Z</time>
      </trkpt>
      <trkpt lat="46.33328" lon="2.7019">
        <ele>349.58</ele>
        <time>2021-07-18T13:32:57Z</time>
      </trkpt>
      <trkpt lat="46.33339" lon="2.70348">
        <ele>348.62</ele>
        <time>2021-07-18T13:33:08Z</time>
      </trkpt>
      <trkpt lat="46.33324" lon="2.70582">
        <ele>347.17</ele>
        <time>2021-07-18T13:33:20Z</time>
      </trkpt>
      <trkpt lat="46.33299" lon="2.70858">
        <ele>341.89</ele>
        <time>2021-07-18T13:33:34Z</time>
      </trkpt>
      <trkpt lat="46.33258" lon="2.71308">
        <ele>336.6</ele>
        <time>2021-07-18T13:33:50Z</time>
      </trkpt>
      <trkpt lat="46.33236" lon="2.7156">
        <ele>338.04</ele>
        <time>2021-07-18T13:34:01Z</time>
      </trkpt>
      <trkpt lat="46.33233" lon="2.71596">
        <ele>338.52</ele>
        <time>2021-07-18T13:34:04Z</time>
      </trkpt>
      <trkpt lat="46.33233" lon="2.71603">
        <ele>338.04</ele>
        <time>2021-07-18T13:34:05Z</time>
      </trkpt>
      <trkpt lat="46.33216" lon="2.71615">
        <ele>339</ele>
        <time>2021-07-18T13:34:07Z</time>
      </trkpt>
      <trkpt lat="46.33212" lon="2.71621">
        <ele>339.48</ele>
        <time>2021-07-18T13:34:08Z</time>
      </trkpt>
      <trkpt lat="46.33213" lon="2.71634">
        <ele>339.48</ele>
        <time>2021-07-18T13:34:09Z</time>
      </trkpt>
      <trkpt lat="46.33214" lon="2.71639">
        <ele>339.48</ele>
        <time>2021-07-18T13:34:10Z</time>
      </trkpt>
      <trkpt lat="46.33226" lon="2.71661">
        <ele>339.48</ele>
        <time>2021-07-18T13:34:11Z</time>
      </trkpt>
      <trkpt lat="46.33226" lon="2.71661">
        <ele>339.48</ele>
        <time>2021-07-18T13:34:12Z</time>
      </trkpt>
      <trkpt lat="46.33225" lon="2.71686">
        <ele>339.48</ele>
        <time>2021-07-18T13:34:13Z</time>
      </trkpt>
      <trkpt lat="46.33225" lon="2.71686">
        <ele>339.48</ele>
        <time>2021-07-18T13:34:14Z</time>
      </trkpt>
      <trkpt lat="46.33208" lon="2.71861">
        <ele>339</ele>
        <time>2021-07-18T13:34:24Z</time>
      </trkpt>
      <trkpt lat="46.3318" lon="2.7215">
        <ele>333.71</ele>
        <time>2021-07-18T13:34:37Z</time>
      </trkpt>
      <trkpt lat="46.33136" lon="2.72635">
        <ele>344.29</ele>
        <time>2021-07-18T13:34:54Z</time>
      </trkpt>
      <trkpt lat="46.33092" lon="2.73127">
        <ele>355.83</ele>
        <time>2021-07-18T13:35:12Z</time>
      </trkpt>
      <trkpt lat="46.33039" lon="2.73714">
        <ele>368.8</ele>
        <time>2021-07-18T13:35:32Z</time>
      </trkpt>
      <trkpt lat="46.33012" lon="2.74157">
        <ele>364.96</ele>
        <time>2021-07-18T13:35:48Z</time>
      </trkpt>
      <trkpt lat="46.33048" lon="2.74363">
        <ele>358.71</ele>
        <time>2021-07-18T13:35:55Z</time>
      </trkpt>
      <trkpt lat="46.33118" lon="2.74666">
        <ele>343.33</ele>
        <time>2021-07-18T13:36:05Z</time>
      </trkpt>
      <trkpt lat="46.33121" lon="2.74939">
        <ele>328.43</ele>
        <time>2021-07-18T13:36:13Z</time>
      </trkpt>
      <trkpt lat="46.33111" lon="2.75517">
        <ele>327.95</ele>
        <time>2021-07-18T13:36:30Z</time>
      </trkpt>
      <trkpt lat="46.3308" lon="2.75733">
        <ele>334.2</ele>
        <time>2021-07-18T13:36:37Z</time>
      </trkpt>
      <trkpt lat="46.33066" lon="2.75939">
        <ele>341.89</ele>
        <time>2021-07-18T13:36:44Z</time>
      </trkpt>
      <trkpt lat="46.3312" lon="2.76196">
        <ele>349.1</ele>
        <time>2021-07-18T13:36:52Z</time>
      </trkpt>
      <trkpt lat="46.33229" lon="2.76658">
        <ele>353.9</ele>
        <time>2021-07-18T13:37:09Z</time>
      </trkpt>
      <trkpt lat="46.33277" lon="2.77049">
        <ele>347.65</ele>
        <time>2021-07-18T13:37:21Z</time>
      </trkpt>
      <trkpt lat="46.33331" lon="2.77512">
        <ele>337.56</ele>
        <time>2021-07-18T13:37:35Z</time>
      </trkpt>
      <trkpt lat="46.33381" lon="2.77938">
        <ele>331.31</ele>
        <time>2021-07-18T13:37:50Z</time>
      </trkpt>
      <trkpt lat="46.33428" lon="2.7834">
        <ele>328.43</ele>
        <time>2021-07-18T13:38:06Z</time>
      </trkpt>
      <trkpt lat="46.33475" lon="2.78744">
        <ele>327.95</ele>
        <time>2021-07-18T13:38:23Z</time>
      </trkpt>
      <trkpt lat="46.33519" lon="2.79112">
        <ele>326.5</ele>
        <time>2021-07-18T13:38:40Z</time>
      </trkpt>
      <trkpt lat="46.33574" lon="2.79578">
        <ele>320.26</ele>
        <time>2021-07-18T13:39:06Z</time>
      </trkpt>
      <trkpt lat="46.33598" lon="2.79792">
        <ele>317.85</ele>
        <time>2021-07-18T13:39:20Z</time>
      </trkpt>
      <trkpt lat="46.336" lon="2.79959">
        <ele>314.97</ele>
        <time>2021-07-18T13:39:31Z</time>
      </trkpt>
      <trkpt lat="46.33583" lon="2.80226">
        <ele>311.6</ele>
        <time>2021-07-18T13:39:45Z</time>
      </trkpt>
      <trkpt lat="46.33554" lon="2.80664">
        <ele>303.43</ele>
        <time>2021-07-18T13:40:05Z</time>
      </trkpt>
      <trkpt lat="46.33551" lon="2.80685">
        <ele>302.47</ele>
        <time>2021-07-18T13:40:06Z</time>
      </trkpt>
      <trkpt lat="46.33547" lon="2.80705">
        <ele>301.99</ele>
        <time>2021-07-18T13:40:07Z</time>
      </trkpt>
      <trkpt lat="46.33542" lon="2.80724">
        <ele>301.03</ele>
        <time>2021-07-18T13:40:08Z</time>
      </trkpt>
      <trkpt lat="46.33535" lon="2.80743">
        <ele>299.59</ele>
        <time>2021-07-18T13:40:09Z</time>
      </trkpt>
      <trkpt lat="46.33527" lon="2.80762">
        <ele>298.63</ele>
        <time>2021-07-18T13:40:10Z</time>
      </trkpt>
      <trkpt lat="46.3352" lon="2.80781">
        <ele>297.67</ele>
        <time>2021-07-18T13:40:11Z</time>
      </trkpt>
      <trkpt lat="46.33515" lon="2.808">
        <ele>297.18</ele>
        <time>2021-07-18T13:40:12Z</time>
      </trkpt>
      <trkpt lat="46.3351" lon="2.80821">
        <ele>296.22</ele>
        <time>2021-07-18T13:40:13Z</time>
      </trkpt>
      <trkpt lat="46.33506" lon="2.80841">
        <ele>295.74</ele>
        <time>2021-07-18T13:40:14Z</time>
      </trkpt>
      <trkpt lat="46.33502" lon="2.80862">
        <ele>295.26</ele>
        <time>2021-07-18T13:40:15Z</time>
      </trkpt>
      <trkpt lat="46.33469" lon="2.81133">
        <ele>289.01</ele>
        <time>2021-07-18T13:40:27Z</time>
      </trkpt>
      <trkpt lat="46.33402" lon="2.81411">
        <ele>281.8</ele>
        <time>2021-07-18T13:40:38Z</time>
      </trkpt>
      <trkpt lat="46.33372" lon="2.81573">
        <ele>287.57</ele>
        <time>2021-07-18T13:40:45Z</time>
      </trkpt>
      <trkpt lat="46.33371" lon="2.81597">
        <ele>289.01</ele>
        <time>2021-07-18T13:40:46Z</time>
      </trkpt>
      <trkpt lat="46.33372" lon="2.81643">
        <ele>289.97</ele>
        <time>2021-07-18T13:40:47Z</time>
      </trkpt>
      <trkpt lat="46.33377" lon="2.81664">
        <ele>289.97</ele>
        <time>2021-07-18T13:40:48Z</time>
      </trkpt>
      <trkpt lat="46.33377" lon="2.81664">
        <ele>290.94</ele>
        <time>2021-07-18T13:40:49Z</time>
      </trkpt>
      <trkpt lat="46.33382" lon="2.81687">
        <ele>291.42</ele>
        <time>2021-07-18T13:40:50Z</time>
      </trkpt>
      <trkpt lat="46.33387" lon="2.81709">
        <ele>292.38</ele>
        <time>2021-07-18T13:40:51Z</time>
      </trkpt>
      <trkpt lat="46.33503" lon="2.82045">
        <ele>304.39</ele>
        <time>2021-07-18T13:41:05Z</time>
      </trkpt>
      <trkpt lat="46.33613" lon="2.82332">
        <ele>315.93</ele>
        <time>2021-07-18T13:41:19Z</time>
      </trkpt>
      <trkpt lat="46.33719" lon="2.82605">
        <ele>323.14</ele>
        <time>2021-07-18T13:41:33Z</time>
      </trkpt>
      <trkpt lat="46.33735" lon="2.82779">
        <ele>323.62</ele>
        <time>2021-07-18T13:41:41Z</time>
      </trkpt>
      <trkpt lat="46.33703" lon="2.82928">
        <ele>324.1</ele>
        <time>2021-07-18T13:41:48Z</time>
      </trkpt>
      <trkpt lat="46.33596" lon="2.83159">
        <ele>326.5</ele>
        <time>2021-07-18T13:42:01Z</time>
      </trkpt>
      <trkpt lat="46.33426" lon="2.8351">
        <ele>333.71</ele>
        <time>2021-07-18T13:42:20Z</time>
      </trkpt>
      <trkpt lat="46.33307" lon="2.83755">
        <ele>331.79</ele>
        <time>2021-07-18T13:42:35Z</time>
      </trkpt>
      <trkpt lat="46.33198" lon="2.83982">
        <ele>330.35</ele>
        <time>2021-07-18T13:42:50Z</time>
      </trkpt>
      <trkpt lat="46.32981" lon="2.84433">
        <ele>316.41</ele>
        <time>2021-07-18T13:43:19Z</time>
      </trkpt>
      <trkpt lat="46.32898" lon="2.84606">
        <ele>305.84</ele>
        <time>2021-07-18T13:43:31Z</time>
      </trkpt>
      <trkpt lat="46.32776" lon="2.84858">
        <ele>295.74</ele>
        <time>2021-07-18T13:43:47Z</time>
      </trkpt>
      <trkpt lat="46.32714" lon="2.84992">
        <ele>289.97</ele>
        <time>2021-07-18T13:43:57Z</time>
      </trkpt>
      <trkpt lat="46.32711" lon="2.85008">
        <ele>289.97</ele>
        <time>2021-07-18T13:43:58Z</time>
      </trkpt>
      <trkpt lat="46.32709" lon="2.85022">
        <ele>290.94</ele>
        <time>2021-07-18T13:43:59Z</time>
      </trkpt>
      <trkpt lat="46.32706" lon="2.85036">
        <ele>291.9</ele>
        <time>2021-07-18T13:44:00Z</time>
      </trkpt>
      <trkpt lat="46.32705" lon="2.85051">
        <ele>292.86</ele>
        <time>2021-07-18T13:44:01Z</time>
      </trkpt>
      <trkpt lat="46.32705" lon="2.85066">
        <ele>293.82</ele>
        <time>2021-07-18T13:44:02Z</time>
      </trkpt>
      <trkpt lat="46.32708" lon="2.85084">
        <ele>294.3</ele>
        <time>2021-07-18T13:44:03Z</time>
      </trkpt>
      <trkpt lat="46.3272" lon="2.85225">
        <ele>293.34</ele>
        <time>2021-07-18T13:44:10Z</time>
      </trkpt>
      <trkpt lat="46.32719" lon="2.85245">
        <ele>293.82</ele>
        <time>2021-07-18T13:44:11Z</time>
      </trkpt>
      <trkpt lat="46.32717" lon="2.85264">
        <ele>294.3</ele>
        <time>2021-07-18T13:44:12Z</time>
      </trkpt>
      <trkpt lat="46.32711" lon="2.85283">
        <ele>293.34</ele>
        <time>2021-07-18T13:44:13Z</time>
      </trkpt>
      <trkpt lat="46.32705" lon="2.85303">
        <ele>291.9</ele>
        <time>2021-07-18T13:44:14Z</time>
      </trkpt>
      <trkpt lat="46.32697" lon="2.85321">
        <ele>291.9</ele>
        <time>2021-07-18T13:44:15Z</time>
      </trkpt>
      <trkpt lat="46.32598" lon="2.85484">
        <ele>291.9</ele>
        <time>2021-07-18T13:44:24Z</time>
      </trkpt>
      <trkpt lat="46.32389" lon="2.85711">
        <ele>295.74</ele>
        <time>2021-07-18T13:44:38Z</time>
      </trkpt>
      <trkpt lat="46.32271" lon="2.85871">
        <ele>297.67</ele>
        <time>2021-07-18T13:44:48Z</time>
      </trkpt>
      <trkpt lat="46.3225" lon="2.85937">
        <ele>299.59</ele>
        <time>2021-07-18T13:44:51Z</time>
      </trkpt>
      <trkpt lat="46.32247" lon="2.85959">
        <ele>301.99</ele>
        <time>2021-07-18T13:44:52Z</time>
      </trkpt>
      <trkpt lat="46.32238" lon="2.86175">
        <ele>311.6</ele>
        <time>2021-07-18T13:45:01Z</time>
      </trkpt>
      <trkpt lat="46.32235" lon="2.86478">
        <ele>316.41</ele>
        <time>2021-07-18T13:45:12Z</time>
      </trkpt>
      <trkpt lat="46.32205" lon="2.86714">
        <ele>314.97</ele>
        <time>2021-07-18T13:45:20Z</time>
      </trkpt>
      <trkpt lat="46.32111" lon="2.873">
        <ele>319.78</ele>
        <time>2021-07-18T13:45:40Z</time>
      </trkpt>
      <trkpt lat="46.32034" lon="2.87796">
        <ele>329.39</ele>
        <time>2021-07-18T13:45:56Z</time>
      </trkpt>
      <trkpt lat="46.32018" lon="2.88026">
        <ele>336.12</ele>
        <time>2021-07-18T13:46:04Z</time>
      </trkpt>
      <trkpt lat="46.3206" lon="2.88217">
        <ele>342.85</ele>
        <time>2021-07-18T13:46:11Z</time>
      </trkpt>
      <trkpt lat="46.32193" lon="2.88642">
        <ele>354.38</ele>
        <time>2021-07-18T13:46:28Z</time>
      </trkpt>
      <trkpt lat="46.32382" lon="2.89245">
        <ele>354.86</ele>
        <time>2021-07-18T13:46:50Z</time>
      </trkpt>
      <trkpt lat="46.32575" lon="2.89869">
        <ele>344.77</ele>
        <time>2021-07-18T13:47:11Z</time>
      </trkpt>
      <trkpt lat="46.32676" lon="2.90198">
        <ele>360.63</ele>
        <time>2021-07-18T13:47:23Z</time>
      </trkpt>
      <trkpt lat="46.3271" lon="2.90417">
        <ele>365.44</ele>
        <time>2021-07-18T13:47:31Z</time>
      </trkpt>
      <trkpt lat="46.32688" lon="2.90644">
        <ele>370.73</ele>
        <time>2021-07-18T13:47:39Z</time>
      </trkpt>
      <trkpt lat="46.32599" lon="2.90927">
        <ele>369.76</ele>
        <time>2021-07-18T13:47:49Z</time>
      </trkpt>
      <trkpt lat="46.32405" lon="2.91522">
        <ele>384.18</ele>
        <time>2021-07-18T13:48:09Z</time>
      </trkpt>
      <trkpt lat="46.32242" lon="2.92023">
        <ele>402.45</ele>
        <time>2021-07-18T13:48:29Z</time>
      </trkpt>
      <trkpt lat="46.32073" lon="2.92541">
        <ele>419.75</ele>
        <time>2021-07-18T13:48:49Z</time>
      </trkpt>
      <trkpt lat="46.31918" lon="2.93014">
        <ele>433.69</ele>
        <time>2021-07-18T13:49:06Z</time>
      </trkpt>
      <trkpt lat="46.31854" lon="2.93205">
        <ele>445.71</ele>
        <time>2021-07-18T13:49:15Z</time>
      </trkpt>
      <trkpt lat="46.31796" lon="2.93432">
        <ele>454.84</ele>
        <time>2021-07-18T13:49:26Z</time>
      </trkpt>
      <trkpt lat="46.3181" lon="2.93609">
        <ele>458.69</ele>
        <time>2021-07-18T13:49:33Z</time>
      </trkpt>
      <trkpt lat="46.31852" lon="2.93921">
        <ele>463.97</ele>
        <time>2021-07-18T13:49:45Z</time>
      </trkpt>
      <trkpt lat="46.31838" lon="2.94155">
        <ele>468.78</ele>
        <time>2021-07-18T13:49:55Z</time>
      </trkpt>
      <trkpt lat="46.31827" lon="2.94357">
        <ele>472.63</ele>
        <time>2021-07-18T13:50:06Z</time>
      </trkpt>
      <trkpt lat="46.31815" lon="2.94558">
        <ele>476.47</ele>
        <time>2021-07-18T13:50:20Z</time>
      </trkpt>
      <trkpt lat="46.31808" lon="2.94661">
        <ele>477.91</ele>
        <time>2021-07-18T13:50:30Z</time>
      </trkpt>
      <trkpt lat="46.31805" lon="2.94737">
        <ele>477.91</ele>
        <time>2021-07-18T13:50:39Z</time>
      </trkpt>
      <trkpt lat="46.31791" lon="2.94939">
        <ele>477.43</ele>
        <time>2021-07-18T13:50:55Z</time>
      </trkpt>
      <trkpt lat="46.31791" lon="2.94946">
        <ele>477.43</ele>
        <time>2021-07-18T13:50:57Z</time>
      </trkpt>
      <trkpt lat="46.31783" lon="2.95066">
        <ele>476.47</ele>
        <time>2021-07-18T13:51:07Z</time>
      </trkpt>
      <trkpt lat="46.3178" lon="2.95119">
        <ele>475.99</ele>
        <time>2021-07-18T13:51:15Z</time>
      </trkpt>
      <trkpt lat="46.31773" lon="2.95203">
        <ele>475.51</ele>
        <time>2021-07-18T13:51:25Z</time>
      </trkpt>
      <trkpt lat="46.31772" lon="2.95266">
        <ele>475.99</ele>
        <time>2021-07-18T13:51:34Z</time>
      </trkpt>
      <trkpt lat="46.31785" lon="2.95283">
        <ele>476.47</ele>
        <time>2021-07-18T13:51:37Z</time>
      </trkpt>
      <trkpt lat="46.3183" lon="2.95309">
        <ele>475.99</ele>
        <time>2021-07-18T13:51:44Z</time>
      </trkpt>
      <trkpt lat="46.31836" lon="2.95312">
        <ele>475.51</ele>
        <time>2021-07-18T13:51:46Z</time>
      </trkpt>
      <trkpt lat="46.3187" lon="2.95322">
        <ele>473.59</ele>
        <time>2021-07-18T13:51:50Z</time>
      </trkpt>
      <trkpt lat="46.31876" lon="2.95324">
        <ele>473.59</ele>
        <time>2021-07-18T13:51:51Z</time>
      </trkpt>
      <trkpt lat="46.31881" lon="2.95326">
        <ele>473.11</ele>
        <time>2021-07-18T13:51:52Z</time>
      </trkpt>
      <trkpt lat="46.31887" lon="2.95335">
        <ele>473.11</ele>
        <time>2021-07-18T13:51:53Z</time>
      </trkpt>
      <trkpt lat="46.31888" lon="2.95344">
        <ele>473.59</ele>
        <time>2021-07-18T13:51:54Z</time>
      </trkpt>
      <trkpt lat="46.31888" lon="2.95353">
        <ele>473.59</ele>
        <time>2021-07-18T13:51:55Z</time>
      </trkpt>
      <trkpt lat="46.31892" lon="2.95419">
        <ele>475.99</ele>
        <time>2021-07-18T13:52:04Z</time>
      </trkpt>
      <trkpt lat="46.31898" lon="2.95524">
        <ele>478.39</ele>
        <time>2021-07-18T13:52:13Z</time>
      </trkpt>
      <trkpt lat="46.31903" lon="2.95621">
        <ele>480.8</ele>
        <time>2021-07-18T13:52:23Z</time>
      </trkpt>
      <trkpt lat="46.31907" lon="2.95654">
        <ele>483.2</ele>
        <time>2021-07-18T13:52:32Z</time>
      </trkpt>
      <trkpt lat="46.31914" lon="2.9575">
        <ele>486.56</ele>
        <time>2021-07-18T13:52:40Z</time>
      </trkpt>
      <trkpt lat="46.31933" lon="2.95919">
        <ele>492.81</ele>
        <time>2021-07-18T13:52:53Z</time>
      </trkpt>
      <trkpt lat="46.31943" lon="2.95926">
        <ele>492.81</ele>
        <time>2021-07-18T13:52:54Z</time>
      </trkpt>
      <trkpt lat="46.31943" lon="2.95926">
        <ele>492.81</ele>
        <time>2021-07-18T13:52:55Z</time>
      </trkpt>
      <trkpt lat="46.32044" lon="2.96065">
        <ele>491.85</ele>
        <time>2021-07-18T13:53:10Z</time>
      </trkpt>
      <trkpt lat="46.32091" lon="2.96121">
        <ele>491.85</ele>
        <time>2021-07-18T13:53:19Z</time>
      </trkpt>
      <trkpt lat="46.32159" lon="2.96205">
        <ele>491.37</ele>
        <time>2021-07-18T13:53:29Z</time>
      </trkpt>
      <trkpt lat="46.32279" lon="2.96353">
        <ele>490.41</ele>
        <time>2021-07-18T13:53:41Z</time>
      </trkpt>
      <trkpt lat="46.32395" lon="2.96494">
        <ele>490.41</ele>
        <time>2021-07-18T13:53:52Z</time>
      </trkpt>
      <trkpt lat="46.32508" lon="2.96654">
        <ele>489.93</ele>
        <time>2021-07-18T13:54:04Z</time>
      </trkpt>
      <trkpt lat="46.3254" lon="2.96737">
        <ele>491.37</ele>
        <time>2021-07-18T13:54:12Z</time>
      </trkpt>
      <trkpt lat="46.32544" lon="2.96748">
        <ele>491.85</ele>
        <time>2021-07-18T13:54:19Z</time>
      </trkpt>
      <trkpt lat="46.32544" lon="2.9675">
        <ele>491.85</ele>
        <time>2021-07-18T13:54:20Z</time>
      </trkpt>
      <trkpt lat="46.32543" lon="2.96755">
        <ele>491.85</ele>
        <time>2021-07-18T13:54:21Z</time>
      </trkpt>
      <trkpt lat="46.32539" lon="2.9677">
        <ele>491.85</ele>
        <time>2021-07-18T13:54:23Z</time>
      </trkpt>
      <trkpt lat="46.32537" lon="2.96778">
        <ele>491.85</ele>
        <time>2021-07-18T13:54:24Z</time>
      </trkpt>
      <trkpt lat="46.32538" lon="2.96793">
        <ele>491.85</ele>
        <time>2021-07-18T13:54:25Z</time>
      </trkpt>
      <trkpt lat="46.32541" lon="2.96803">
        <ele>491.85</ele>
        <time>2021-07-18T13:54:26Z</time>
      </trkpt>
      <trkpt lat="46.32543" lon="2.96813">
        <ele>492.33</ele>
        <time>2021-07-18T13:54:28Z</time>
      </trkpt>
      <trkpt lat="46.32555" lon="2.96828">
        <ele>492.33</ele>
        <time>2021-07-18T13:54:29Z</time>
      </trkpt>
      <trkpt lat="46.32561" lon="2.96832">
        <ele>491.85</ele>
        <time>2021-07-18T13:54:30Z</time>
      </trkpt>
      <trkpt lat="46.32569" lon="2.96835">
        <ele>491.37</ele>
        <time>2021-07-18T13:54:31Z</time>
      </trkpt>
      <trkpt lat="46.32576" lon="2.96837">
        <ele>490.89</ele>
        <time>2021-07-18T13:54:32Z</time>
      </trkpt>
      <trkpt lat="46.32584" lon="2.96835">
        <ele>490.41</ele>
        <time>2021-07-18T13:54:33Z</time>
      </trkpt>
      <trkpt lat="46.32592" lon="2.96834">
        <ele>490.41</ele>
        <time>2021-07-18T13:54:34Z</time>
      </trkpt>
      <trkpt lat="46.3261" lon="2.96831">
        <ele>490.41</ele>
        <time>2021-07-18T13:54:35Z</time>
      </trkpt>
      <trkpt lat="46.3261" lon="2.96831">
        <ele>489.93</ele>
        <time>2021-07-18T13:54:36Z</time>
      </trkpt>
      <trkpt lat="46.32617" lon="2.96835">
        <ele>489.45</ele>
        <time>2021-07-18T13:54:37Z</time>
      </trkpt>
      <trkpt lat="46.32625" lon="2.96839">
        <ele>489.45</ele>
        <time>2021-07-18T13:54:38Z</time>
      </trkpt>
      <trkpt lat="46.32634" lon="2.96843">
        <ele>488.01</ele>
        <time>2021-07-18T13:54:39Z</time>
      </trkpt>
      <trkpt lat="46.32644" lon="2.96848">
        <ele>487.53</ele>
        <time>2021-07-18T13:54:40Z</time>
      </trkpt>
      <trkpt lat="46.3278" lon="2.96972">
        <ele>490.89</ele>
        <time>2021-07-18T13:54:53Z</time>
      </trkpt>
      <trkpt lat="46.32936" lon="2.9715">
        <ele>491.37</ele>
        <time>2021-07-18T13:55:08Z</time>
      </trkpt>
      <trkpt lat="46.33032" lon="2.97268">
        <ele>491.37</ele>
        <time>2021-07-18T13:55:18Z</time>
      </trkpt>
      <trkpt lat="46.33041" lon="2.9728">
        <ele>490.41</ele>
        <time>2021-07-18T13:55:19Z</time>
      </trkpt>
      <trkpt lat="46.33059" lon="2.97301">
        <ele>489.93</ele>
        <time>2021-07-18T13:55:20Z</time>
      </trkpt>
      <trkpt lat="46.33083" lon="2.97331">
        <ele>490.89</ele>
        <time>2021-07-18T13:55:24Z</time>
      </trkpt>
      <trkpt lat="46.33091" lon="2.97341">
        <ele>490.41</ele>
        <time>2021-07-18T13:55:25Z</time>
      </trkpt>
      <trkpt lat="46.33101" lon="2.97352">
        <ele>491.37</ele>
        <time>2021-07-18T13:55:26Z</time>
      </trkpt>
      <trkpt lat="46.33109" lon="2.97363">
        <ele>490.89</ele>
        <time>2021-07-18T13:55:27Z</time>
      </trkpt>
      <trkpt lat="46.33119" lon="2.97374">
        <ele>491.37</ele>
        <time>2021-07-18T13:55:28Z</time>
      </trkpt>
      <trkpt lat="46.33269" lon="2.97557">
        <ele>489.93</ele>
        <time>2021-07-18T13:55:42Z</time>
      </trkpt>
      <trkpt lat="46.33395" lon="2.9771">
        <ele>488.01</ele>
        <time>2021-07-18T13:55:54Z</time>
      </trkpt>
      <trkpt lat="46.3359" lon="2.97949">
        <ele>483.2</ele>
        <time>2021-07-18T13:56:11Z</time>
      </trkpt>
      <trkpt lat="46.33802" lon="2.982">
        <ele>468.3</ele>
        <time>2021-07-18T13:56:29Z</time>
      </trkpt>
      <trkpt lat="46.34056" lon="2.98462">
        <ele>460.61</ele>
        <time>2021-07-18T13:56:49Z</time>
      </trkpt>
      <trkpt lat="46.3418" lon="2.98601">
        <ele>465.42</ele>
        <time>2021-07-18T13:57:00Z</time>
      </trkpt>
      <trkpt lat="46.34436" lon="2.98914">
        <ele>478.87</ele>
        <time>2021-07-18T13:57:23Z</time>
      </trkpt>
      <trkpt lat="46.34684" lon="2.99217">
        <ele>485.12</ele>
        <time>2021-07-18T13:57:44Z</time>
      </trkpt>
      <trkpt lat="46.3494" lon="2.99531">
        <ele>483.2</ele>
        <time>2021-07-18T13:58:05Z</time>
      </trkpt>
      <trkpt lat="46.35051" lon="2.9967">
        <ele>479.84</ele>
        <time>2021-07-18T13:58:15Z</time>
      </trkpt>
      <trkpt lat="46.35061" lon="2.99684">
        <ele>479.35</ele>
        <time>2021-07-18T13:58:16Z</time>
      </trkpt>
      <trkpt lat="46.3517" lon="2.99847">
        <ele>475.51</ele>
        <time>2021-07-18T13:58:26Z</time>
      </trkpt>
      <trkpt lat="46.35437" lon="3.00207">
        <ele>460.61</ele>
        <time>2021-07-18T13:58:46Z</time>
      </trkpt>
      <trkpt lat="46.35635" lon="3.00449">
        <ele>469.74</ele>
        <time>2021-07-18T13:59:01Z</time>
      </trkpt>
      <trkpt lat="46.35894" lon="3.00778">
        <ele>486.08</ele>
        <time>2021-07-18T13:59:21Z</time>
      </trkpt>
      <trkpt lat="46.3598" lon="3.00973">
        <ele>488.49</ele>
        <time>2021-07-18T13:59:30Z</time>
      </trkpt>
      <trkpt lat="46.36036" lon="3.0122">
        <ele>480.8</ele>
        <time>2021-07-18T13:59:40Z</time>
      </trkpt>
      <trkpt lat="46.36115" lon="3.01578">
        <ele>482.72</ele>
        <time>2021-07-18T13:59:54Z</time>
      </trkpt>
      <trkpt lat="46.36154" lon="3.01774">
        <ele>487.05</ele>
        <time>2021-07-18T14:00:05Z</time>
      </trkpt>
      <trkpt lat="46.36228" lon="3.01985">
        <ele>489.45</ele>
        <time>2021-07-18T14:00:16Z</time>
      </trkpt>
      <trkpt lat="46.36331" lon="3.02147">
        <ele>488.01</ele>
        <time>2021-07-18T14:00:26Z</time>
      </trkpt>
      <trkpt lat="46.36458" lon="3.02309">
        <ele>486.08</ele>
        <time>2021-07-18T14:00:38Z</time>
      </trkpt>
      <trkpt lat="46.36681" lon="3.02556">
        <ele>482.24</ele>
        <time>2021-07-18T14:00:58Z</time>
      </trkpt>
      <trkpt lat="46.36836" lon="3.02667">
        <ele>477.91</ele>
        <time>2021-07-18T14:01:10Z</time>
      </trkpt>
      <trkpt lat="46.36875" lon="3.02779">
        <ele>476.47</ele>
        <time>2021-07-18T14:01:14Z</time>
      </trkpt>
      <trkpt lat="46.36922" lon="3.02832">
        <ele>473.59</ele>
        <time>2021-07-18T14:01:18Z</time>
      </trkpt>
      <trkpt lat="46.37091" lon="3.02895">
        <ele>467.82</ele>
        <time>2021-07-18T14:01:30Z</time>
      </trkpt>
      <trkpt lat="46.37293" lon="3.02903">
        <ele>466.86</ele>
        <time>2021-07-18T14:01:44Z</time>
      </trkpt>
      <trkpt lat="46.37421" lon="3.0287">
        <ele>469.26</ele>
        <time>2021-07-18T14:01:54Z</time>
      </trkpt>
      <trkpt lat="46.37559" lon="3.0291">
        <ele>469.26</ele>
        <time>2021-07-18T14:02:03Z</time>
      </trkpt>
      <trkpt lat="46.37901" lon="3.03011">
        <ele>469.74</ele>
        <time>2021-07-18T14:02:23Z</time>
      </trkpt>
      <trkpt lat="46.38296" lon="3.03127">
        <ele>466.38</ele>
        <time>2021-07-18T14:02:46Z</time>
      </trkpt>
      <trkpt lat="46.38782" lon="3.03268">
        <ele>463.01</ele>
        <time>2021-07-18T14:03:14Z</time>
      </trkpt>
      <trkpt lat="46.39214" lon="3.03417">
        <ele>459.65</ele>
        <time>2021-07-18T14:03:39Z</time>
      </trkpt>
      <trkpt lat="46.39428" lon="3.0357">
        <ele>455.32</ele>
        <time>2021-07-18T14:03:52Z</time>
      </trkpt>
      <trkpt lat="46.39621" lon="3.03777">
        <ele>449.55</ele>
        <time>2021-07-18T14:04:05Z</time>
      </trkpt>
      <trkpt lat="46.39759" lon="3.04004">
        <ele>449.07</ele>
        <time>2021-07-18T14:04:16Z</time>
      </trkpt>
      <trkpt lat="46.39877" lon="3.04292">
        <ele>450.03</ele>
        <time>2021-07-18T14:04:29Z</time>
      </trkpt>
      <trkpt lat="46.39956" lon="3.04622">
        <ele>452.44</ele>
        <time>2021-07-18T14:04:42Z</time>
      </trkpt>
      <trkpt lat="46.39985" lon="3.04905">
        <ele>453.88</ele>
        <time>2021-07-18T14:04:54Z</time>
      </trkpt>
      <trkpt lat="46.39988" lon="3.05336">
        <ele>447.63</ele>
        <time>2021-07-18T14:05:10Z</time>
      </trkpt>
      <trkpt lat="46.40006" lon="3.05709">
        <ele>436.1</ele>
        <time>2021-07-18T14:05:24Z</time>
      </trkpt>
      <trkpt lat="46.40062" lon="3.06071">
        <ele>428.89</ele>
        <time>2021-07-18T14:05:38Z</time>
      </trkpt>
      <trkpt lat="46.40151" lon="3.06417">
        <ele>429.85</ele>
        <time>2021-07-18T14:05:53Z</time>
      </trkpt>
      <trkpt lat="46.40265" lon="3.0671">
        <ele>431.77</ele>
        <time>2021-07-18T14:06:06Z</time>
      </trkpt>
      <trkpt lat="46.40479" lon="3.07191">
        <ele>432.25</ele>
        <time>2021-07-18T14:06:28Z</time>
      </trkpt>
      <trkpt lat="46.40602" lon="3.0757">
        <ele>433.21</ele>
        <time>2021-07-18T14:06:44Z</time>
      </trkpt>
      <trkpt lat="46.40747" lon="3.08109">
        <ele>432.73</ele>
        <time>2021-07-18T14:07:06Z</time>
      </trkpt>
      <trkpt lat="46.40905" lon="3.0866">
        <ele>429.85</ele>
        <time>2021-07-18T14:07:29Z</time>
      </trkpt>
      <trkpt lat="46.41063" lon="3.09212">
        <ele>428.4</ele>
        <time>2021-07-18T14:07:51Z</time>
      </trkpt>
      <trkpt lat="46.41238" lon="3.09783">
        <ele>430.33</ele>
        <time>2021-07-18T14:08:15Z</time>
      </trkpt>
      <trkpt lat="46.41385" lon="3.10118">
        <ele>434.17</ele>
        <time>2021-07-18T14:08:31Z</time>
      </trkpt>
      <trkpt lat="46.41636" lon="3.10559">
        <ele>438.5</ele>
        <time>2021-07-18T14:08:52Z</time>
      </trkpt>
      <trkpt lat="46.42057" lon="3.11294">
        <ele>447.15</ele>
        <time>2021-07-18T14:09:26Z</time>
      </trkpt>
      <trkpt lat="46.42262" lon="3.11652">
        <ele>448.11</ele>
        <time>2021-07-18T14:09:44Z</time>
      </trkpt>
      <trkpt lat="46.42458" lon="3.11992">
        <ele>447.63</ele>
        <time>2021-07-18T14:10:02Z</time>
      </trkpt>
      <trkpt lat="46.42709" lon="3.12429">
        <ele>449.07</ele>
        <time>2021-07-18T14:10:26Z</time>
      </trkpt>
      <trkpt lat="46.4292" lon="3.128">
        <ele>451.96</ele>
        <time>2021-07-18T14:10:46Z</time>
      </trkpt>
      <trkpt lat="46.43135" lon="3.13186">
        <ele>453.88</ele>
        <time>2021-07-18T14:11:04Z</time>
      </trkpt>
      <trkpt lat="46.43293" lon="3.13484">
        <ele>449.07</ele>
        <time>2021-07-18T14:11:18Z</time>
      </trkpt>
      <trkpt lat="46.43599" lon="3.14051">
        <ele>439.46</ele>
        <time>2021-07-18T14:11:45Z</time>
      </trkpt>
      <trkpt lat="46.43811" lon="3.14374">
        <ele>434.65</ele>
        <time>2021-07-18T14:12:01Z</time>
      </trkpt>
      <trkpt lat="46.43975" lon="3.14664">
        <ele>433.21</ele>
        <time>2021-07-18T14:12:14Z</time>
      </trkpt>
      <trkpt lat="46.44075" lon="3.14945">
        <ele>428.4</ele>
        <time>2021-07-18T14:12:25Z</time>
      </trkpt>
      <trkpt lat="46.44139" lon="3.15273">
        <ele>426.48</ele>
        <time>2021-07-18T14:12:37Z</time>
      </trkpt>
      <trkpt lat="46.44152" lon="3.15557">
        <ele>423.6</ele>
        <time>2021-07-18T14:12:50Z</time>
      </trkpt>
      <trkpt lat="46.44138" lon="3.15871">
        <ele>418.31</ele>
        <time>2021-07-18T14:13:03Z</time>
      </trkpt>
      <trkpt lat="46.44086" lon="3.16483">
        <ele>404.37</ele>
        <time>2021-07-18T14:13:27Z</time>
      </trkpt>
      <trkpt lat="46.4406" lon="3.16877">
        <ele>394.76</ele>
        <time>2021-07-18T14:13:43Z</time>
      </trkpt>
      <trkpt lat="46.44021" lon="3.17408">
        <ele>380.82</ele>
        <time>2021-07-18T14:14:04Z</time>
      </trkpt>
      <trkpt lat="46.4399" lon="3.1782">
        <ele>370.24</ele>
        <time>2021-07-18T14:14:20Z</time>
      </trkpt>
      <trkpt lat="46.43947" lon="3.18406">
        <ele>369.28</ele>
        <time>2021-07-18T14:14:43Z</time>
      </trkpt>
      <trkpt lat="46.43918" lon="3.18823">
        <ele>371.21</ele>
        <time>2021-07-18T14:14:59Z</time>
      </trkpt>
      <trkpt lat="46.43911" lon="3.19111">
        <ele>371.21</ele>
        <time>2021-07-18T14:15:10Z</time>
      </trkpt>
      <trkpt lat="46.43934" lon="3.19422">
        <ele>369.76</ele>
        <time>2021-07-18T14:15:27Z</time>
      </trkpt>
      <trkpt lat="46.43994" lon="3.19747">
        <ele>364.96</ele>
        <time>2021-07-18T14:15:42Z</time>
      </trkpt>
      <trkpt lat="46.44079" lon="3.20022">
        <ele>358.71</ele>
        <time>2021-07-18T14:15:54Z</time>
      </trkpt>
      <trkpt lat="46.44229" lon="3.20422">
        <ele>351.5</ele>
        <time>2021-07-18T14:16:11Z</time>
      </trkpt>
      <trkpt lat="46.44436" lon="3.20975">
        <ele>339.48</ele>
        <time>2021-07-18T14:16:36Z</time>
      </trkpt>
      <trkpt lat="46.446" lon="3.21408">
        <ele>333.71</ele>
        <time>2021-07-18T14:16:57Z</time>
      </trkpt>
      <trkpt lat="46.44736" lon="3.21767">
        <ele>330.35</ele>
        <time>2021-07-18T14:17:13Z</time>
      </trkpt>
      <trkpt lat="46.4491" lon="3.22224">
        <ele>326.5</ele>
        <time>2021-07-18T14:17:32Z</time>
      </trkpt>
      <trkpt lat="46.45052" lon="3.22596">
        <ele>321.7</ele>
        <time>2021-07-18T14:17:49Z</time>
      </trkpt>
      <trkpt lat="46.45172" lon="3.2292">
        <ele>317.85</ele>
        <time>2021-07-18T14:18:05Z</time>
      </trkpt>
      <trkpt lat="46.45319" lon="3.23286">
        <ele>313.05</ele>
        <time>2021-07-18T14:18:23Z</time>
      </trkpt>
      <trkpt lat="46.45483" lon="3.23614">
        <ele>306.8</ele>
        <time>2021-07-18T14:18:39Z</time>
      </trkpt>
      <trkpt lat="46.45635" lon="3.2393">
        <ele>301.51</ele>
        <time>2021-07-18T14:18:55Z</time>
      </trkpt>
      <trkpt lat="46.45748" lon="3.24282">
        <ele>295.74</ele>
        <time>2021-07-18T14:19:11Z</time>
      </trkpt>
      <trkpt lat="46.45807" lon="3.2459">
        <ele>291.42</ele>
        <time>2021-07-18T14:19:24Z</time>
      </trkpt>
      <trkpt lat="46.45833" lon="3.24976">
        <ele>285.65</ele>
        <time>2021-07-18T14:19:40Z</time>
      </trkpt>
      <trkpt lat="46.45825" lon="3.25467">
        <ele>283.25</ele>
        <time>2021-07-18T14:20:00Z</time>
      </trkpt>
      <trkpt lat="46.45812" lon="3.2601">
        <ele>280.36</ele>
        <time>2021-07-18T14:20:22Z</time>
      </trkpt>
      <trkpt lat="46.45807" lon="3.26382">
        <ele>278.44</ele>
        <time>2021-07-18T14:20:39Z</time>
      </trkpt>
      <trkpt lat="46.45806" lon="3.26429">
        <ele>278.92</ele>
        <time>2021-07-18T14:20:46Z</time>
      </trkpt>
      <trkpt lat="46.45806" lon="3.26483">
        <ele>279.4</ele>
        <time>2021-07-18T14:21:04Z</time>
      </trkpt>
      <trkpt lat="46.45805" lon="3.26536">
        <ele>279.4</ele>
        <time>2021-07-18T14:21:12Z</time>
      </trkpt>
      <trkpt lat="46.45804" lon="3.26615">
        <ele>279.4</ele>
        <time>2021-07-18T14:21:22Z</time>
      </trkpt>
      <trkpt lat="46.45803" lon="3.26636">
        <ele>278.92</ele>
        <time>2021-07-18T14:21:24Z</time>
      </trkpt>
      <trkpt lat="46.45803" lon="3.26643">
        <ele>278.92</ele>
        <time>2021-07-18T14:21:25Z</time>
      </trkpt>
      <trkpt lat="46.45803" lon="3.26649">
        <ele>279.4</ele>
        <time>2021-07-18T14:21:27Z</time>
      </trkpt>
      <trkpt lat="46.45805" lon="3.26731">
        <ele>278.44</ele>
        <time>2021-07-18T14:21:35Z</time>
      </trkpt>
      <trkpt lat="46.45813" lon="3.26891">
        <ele>278.44</ele>
        <time>2021-07-18T14:21:44Z</time>
      </trkpt>
      <trkpt lat="46.45843" lon="3.27124">
        <ele>280.84</ele>
        <time>2021-07-18T14:21:54Z</time>
      </trkpt>
      <trkpt lat="46.45926" lon="3.27473">
        <ele>279.4</ele>
        <time>2021-07-18T14:22:07Z</time>
      </trkpt>
      <trkpt lat="46.46054" lon="3.27805">
        <ele>276.04</ele>
        <time>2021-07-18T14:22:20Z</time>
      </trkpt>
      <trkpt lat="46.4637" lon="3.28491">
        <ele>270.75</ele>
        <time>2021-07-18T14:22:49Z</time>
      </trkpt>
      <trkpt lat="46.46687" lon="3.29171">
        <ele>260.65</ele>
        <time>2021-07-18T14:23:18Z</time>
      </trkpt>
      <trkpt lat="46.46961" lon="3.29758">
        <ele>246.72</ele>
        <time>2021-07-18T14:23:43Z</time>
      </trkpt>
      <trkpt lat="46.47071" lon="3.29996">
        <ele>240.47</ele>
        <time>2021-07-18T14:23:56Z</time>
      </trkpt>
      <trkpt lat="46.47195" lon="3.30223">
        <ele>233.74</ele>
        <time>2021-07-18T14:24:08Z</time>
      </trkpt>
      <trkpt lat="46.47379" lon="3.3052">
        <ele>227.97</ele>
        <time>2021-07-18T14:24:23Z</time>
      </trkpt>
      <trkpt lat="46.47485" lon="3.30758">
        <ele>225.09</ele>
        <time>2021-07-18T14:24:33Z</time>
      </trkpt>
      <trkpt lat="46.47553" lon="3.31028">
        <ele>226.53</ele>
        <time>2021-07-18T14:24:43Z</time>
      </trkpt>
      <trkpt lat="46.47576" lon="3.31265">
        <ele>222.2</ele>
        <time>2021-07-18T14:24:52Z</time>
      </trkpt>
      <trkpt lat="46.47587" lon="3.31547">
        <ele>221.24</ele>
        <time>2021-07-18T14:25:05Z</time>
      </trkpt>
      <trkpt lat="46.47609" lon="3.31822">
        <ele>222.2</ele>
        <time>2021-07-18T14:25:17Z</time>
      </trkpt>
      <trkpt lat="46.4766" lon="3.32097">
        <ele>222.68</ele>
        <time>2021-07-18T14:25:28Z</time>
      </trkpt>
      <trkpt lat="46.47751" lon="3.32408">
        <ele>219.8</ele>
        <time>2021-07-18T14:25:41Z</time>
      </trkpt>
      <trkpt lat="46.47875" lon="3.32691">
        <ele>221.24</ele>
        <time>2021-07-18T14:25:56Z</time>
      </trkpt>
      <trkpt lat="46.4801" lon="3.32957">
        <ele>220.76</ele>
        <time>2021-07-18T14:26:10Z</time>
      </trkpt>
      <trkpt lat="46.48186" lon="3.33294">
        <ele>218.36</ele>
        <time>2021-07-18T14:26:28Z</time>
      </trkpt>
      <trkpt lat="46.48434" lon="3.33763">
        <ele>215.95</ele>
        <time>2021-07-18T14:26:50Z</time>
      </trkpt>
      <trkpt lat="46.48642" lon="3.34159">
        <ele>212.59</ele>
        <time>2021-07-18T14:27:09Z</time>
      </trkpt>
      <trkpt lat="46.48809" lon="3.3448">
        <ele>213.55</ele>
        <time>2021-07-18T14:27:26Z</time>
      </trkpt>
      <trkpt lat="46.48966" lon="3.34807">
        <ele>213.07</ele>
        <time>2021-07-18T14:27:43Z</time>
      </trkpt>
      <trkpt lat="46.48991" lon="3.3486">
        <ele>214.03</ele>
        <time>2021-07-18T14:27:46Z</time>
      </trkpt>
      <trkpt lat="46.49079" lon="3.3506">
        <ele>214.03</ele>
        <time>2021-07-18T14:27:57Z</time>
      </trkpt>
      <trkpt lat="46.4914" lon="3.35203">
        <ele>213.55</ele>
        <time>2021-07-18T14:28:05Z</time>
      </trkpt>
      <trkpt lat="46.49205" lon="3.3536">
        <ele>214.03</ele>
        <time>2021-07-18T14:28:14Z</time>
      </trkpt>
      <trkpt lat="46.49274" lon="3.35539">
        <ele>216.91</ele>
        <time>2021-07-18T14:28:26Z</time>
      </trkpt>
      <trkpt lat="46.49363" lon="3.3578">
        <ele>216.91</ele>
        <time>2021-07-18T14:28:40Z</time>
      </trkpt>
      <trkpt lat="46.49485" lon="3.36125">
        <ele>221.72</ele>
        <time>2021-07-18T14:28:56Z</time>
      </trkpt>
      <trkpt lat="46.49583" lon="3.36436">
        <ele>224.61</ele>
        <time>2021-07-18T14:29:12Z</time>
      </trkpt>
      <trkpt lat="46.49671" lon="3.36736">
        <ele>223.16</ele>
        <time>2021-07-18T14:29:25Z</time>
      </trkpt>
      <trkpt lat="46.49776" lon="3.37165">
        <ele>223.64</ele>
        <time>2021-07-18T14:29:42Z</time>
      </trkpt>
      <trkpt lat="46.49844" lon="3.37596">
        <ele>221.72</ele>
        <time>2021-07-18T14:29:58Z</time>
      </trkpt>
      <trkpt lat="46.49873" lon="3.38047">
        <ele>227.49</ele>
        <time>2021-07-18T14:30:15Z</time>
      </trkpt>
      <trkpt lat="46.49858" lon="3.38518">
        <ele>237.1</ele>
        <time>2021-07-18T14:30:33Z</time>
      </trkpt>
      <trkpt lat="46.49833" lon="3.39125">
        <ele>244.31</ele>
        <time>2021-07-18T14:30:56Z</time>
      </trkpt>
      <trkpt lat="46.49856" lon="3.39532">
        <ele>246.72</ele>
        <time>2021-07-18T14:31:11Z</time>
      </trkpt>
      <trkpt lat="46.49928" lon="3.39976">
        <ele>252.48</ele>
        <time>2021-07-18T14:31:27Z</time>
      </trkpt>
      <trkpt lat="46.50063" lon="3.40683">
        <ele>258.25</ele>
        <time>2021-07-18T14:31:52Z</time>
      </trkpt>
      <trkpt lat="46.50152" lon="3.41154">
        <ele>261.62</ele>
        <time>2021-07-18T14:32:10Z</time>
      </trkpt>
      <trkpt lat="46.5022" lon="3.4151">
        <ele>264.98</ele>
        <time>2021-07-18T14:32:26Z</time>
      </trkpt>
      <trkpt lat="46.50277" lon="3.41808">
        <ele>268.83</ele>
        <time>2021-07-18T14:32:40Z</time>
      </trkpt>
      <trkpt lat="46.50354" lon="3.42215">
        <ele>273.63</ele>
        <time>2021-07-18T14:32:57Z</time>
      </trkpt>
      <trkpt lat="46.50456" lon="3.4273">
        <ele>278.44</ele>
        <time>2021-07-18T14:33:17Z</time>
      </trkpt>
      <trkpt lat="46.50582" lon="3.43314">
        <ele>278.92</ele>
        <time>2021-07-18T14:33:38Z</time>
      </trkpt>
      <trkpt lat="46.50683" lon="3.43733">
        <ele>280.84</ele>
        <time>2021-07-18T14:33:54Z</time>
      </trkpt>
      <trkpt lat="46.50766" lon="3.44061">
        <ele>277.96</ele>
        <time>2021-07-18T14:34:09Z</time>
      </trkpt>
      <trkpt lat="46.50848" lon="3.44366">
        <ele>277.48</ele>
        <time>2021-07-18T14:34:23Z</time>
      </trkpt>
      <trkpt lat="46.50966" lon="3.44784">
        <ele>276.04</ele>
        <time>2021-07-18T14:34:41Z</time>
      </trkpt>
      <trkpt lat="46.51121" lon="3.45296">
        <ele>274.11</ele>
        <time>2021-07-18T14:35:03Z</time>
      </trkpt>
      <trkpt lat="46.51253" lon="3.4571">
        <ele>271.23</ele>
        <time>2021-07-18T14:35:21Z</time>
      </trkpt>
      <trkpt lat="46.51361" lon="3.46049">
        <ele>269.31</ele>
        <time>2021-07-18T14:35:37Z</time>
      </trkpt>
      <trkpt lat="46.5146" lon="3.46359">
        <ele>266.9</ele>
        <time>2021-07-18T14:35:52Z</time>
      </trkpt>
      <trkpt lat="46.51575" lon="3.46719">
        <ele>263.54</ele>
        <time>2021-07-18T14:36:09Z</time>
      </trkpt>
      <trkpt lat="46.51698" lon="3.47106">
        <ele>258.73</ele>
        <time>2021-07-18T14:36:26Z</time>
      </trkpt>
      <trkpt lat="46.51807" lon="3.47445">
        <ele>254.89</ele>
        <time>2021-07-18T14:36:41Z</time>
      </trkpt>
      <trkpt lat="46.51921" lon="3.47803">
        <ele>252</ele>
        <time>2021-07-18T14:36:55Z</time>
      </trkpt>
      <trkpt lat="46.52039" lon="3.48169">
        <ele>253.44</ele>
        <time>2021-07-18T14:37:11Z</time>
      </trkpt>
      <trkpt lat="46.52119" lon="3.48415">
        <ele>255.37</ele>
        <time>2021-07-18T14:37:24Z</time>
      </trkpt>
      <trkpt lat="46.52283" lon="3.4887">
        <ele>264.98</ele>
        <time>2021-07-18T14:37:46Z</time>
      </trkpt>
      <trkpt lat="46.52452" lon="3.49272">
        <ele>267.86</ele>
        <time>2021-07-18T14:38:05Z</time>
      </trkpt>
      <trkpt lat="46.52614" lon="3.49602">
        <ele>268.35</ele>
        <time>2021-07-18T14:38:21Z</time>
      </trkpt>
      <trkpt lat="46.52845" lon="3.50048">
        <ele>266.9</ele>
        <time>2021-07-18T14:38:42Z</time>
      </trkpt>
      <trkpt lat="46.52945" lon="3.50317">
        <ele>264.02</ele>
        <time>2021-07-18T14:38:55Z</time>
      </trkpt>
      <trkpt lat="46.53024" lon="3.50646">
        <ele>259.69</ele>
        <time>2021-07-18T14:39:09Z</time>
      </trkpt>
      <trkpt lat="46.53076" lon="3.51014">
        <ele>262.1</ele>
        <time>2021-07-18T14:39:24Z</time>
      </trkpt>
      <trkpt lat="46.53117" lon="3.51355">
        <ele>264.98</ele>
        <time>2021-07-18T14:39:37Z</time>
      </trkpt>
      <trkpt lat="46.53162" lon="3.51746">
        <ele>263.54</ele>
        <time>2021-07-18T14:39:53Z</time>
      </trkpt>
      <trkpt lat="46.53197" lon="3.52045">
        <ele>261.62</ele>
        <time>2021-07-18T14:40:06Z</time>
      </trkpt>
      <trkpt lat="46.53235" lon="3.52333">
        <ele>258.25</ele>
        <time>2021-07-18T14:40:18Z</time>
      </trkpt>
      <trkpt lat="46.53307" lon="3.52669">
        <ele>259.21</ele>
        <time>2021-07-18T14:40:31Z</time>
      </trkpt>
      <trkpt lat="46.53405" lon="3.52978">
        <ele>261.14</ele>
        <time>2021-07-18T14:40:44Z</time>
      </trkpt>
      <trkpt lat="46.53501" lon="3.53297">
        <ele>260.65</ele>
        <time>2021-07-18T14:40:59Z</time>
      </trkpt>
      <trkpt lat="46.53585" lon="3.53636">
        <ele>257.29</ele>
        <time>2021-07-18T14:41:13Z</time>
      </trkpt>
      <trkpt lat="46.53651" lon="3.5403">
        <ele>252.96</ele>
        <time>2021-07-18T14:41:31Z</time>
      </trkpt>
      <trkpt lat="46.53693" lon="3.54461">
        <ele>249.12</ele>
        <time>2021-07-18T14:41:47Z</time>
      </trkpt>
      <trkpt lat="46.53711" lon="3.54844">
        <ele>245.27</ele>
        <time>2021-07-18T14:42:03Z</time>
      </trkpt>
      <trkpt lat="46.53697" lon="3.55219">
        <ele>241.91</ele>
        <time>2021-07-18T14:42:17Z</time>
      </trkpt>
      <trkpt lat="46.53674" lon="3.55449">
        <ele>241.91</ele>
        <time>2021-07-18T14:42:27Z</time>
      </trkpt>
      <trkpt lat="46.53644" lon="3.55753">
        <ele>243.83</ele>
        <time>2021-07-18T14:42:41Z</time>
      </trkpt>
      <trkpt lat="46.5361" lon="3.56097">
        <ele>244.79</ele>
        <time>2021-07-18T14:42:54Z</time>
      </trkpt>
      <trkpt lat="46.53564" lon="3.56558">
        <ele>239.99</ele>
        <time>2021-07-18T14:43:10Z</time>
      </trkpt>
      <trkpt lat="46.5353" lon="3.56946">
        <ele>235.66</ele>
        <time>2021-07-18T14:43:27Z</time>
      </trkpt>
      <trkpt lat="46.53499" lon="3.57397">
        <ele>233.74</ele>
        <time>2021-07-18T14:43:48Z</time>
      </trkpt>
      <trkpt lat="46.53485" lon="3.57683">
        <ele>236.14</ele>
        <time>2021-07-18T14:44:01Z</time>
      </trkpt>
      <trkpt lat="46.53469" lon="3.58029">
        <ele>240.95</ele>
        <time>2021-07-18T14:44:14Z</time>
      </trkpt>
      <trkpt lat="46.53455" lon="3.5846">
        <ele>246.72</ele>
        <time>2021-07-18T14:44:31Z</time>
      </trkpt>
      <trkpt lat="46.53452" lon="3.58973">
        <ele>254.89</ele>
        <time>2021-07-18T14:44:52Z</time>
      </trkpt>
      <trkpt lat="46.53439" lon="3.59401">
        <ele>250.56</ele>
        <time>2021-07-18T14:45:08Z</time>
      </trkpt>
      <trkpt lat="46.53415" lon="3.59764">
        <ele>251.52</ele>
        <time>2021-07-18T14:45:22Z</time>
      </trkpt>
      <trkpt lat="46.53383" lon="3.60166">
        <ele>253.44</ele>
        <time>2021-07-18T14:45:37Z</time>
      </trkpt>
      <trkpt lat="46.53362" lon="3.60436">
        <ele>253.93</ele>
        <time>2021-07-18T14:45:47Z</time>
      </trkpt>
      <trkpt lat="46.5332" lon="3.60898">
        <ele>253.44</ele>
        <time>2021-07-18T14:46:07Z</time>
      </trkpt>
      <trkpt lat="46.53264" lon="3.61302">
        <ele>255.85</ele>
        <time>2021-07-18T14:46:24Z</time>
      </trkpt>
      <trkpt lat="46.53181" lon="3.61837">
        <ele>258.25</ele>
        <time>2021-07-18T14:46:45Z</time>
      </trkpt>
      <trkpt lat="46.53135" lon="3.6224">
        <ele>263.54</ele>
        <time>2021-07-18T14:47:01Z</time>
      </trkpt>
      <trkpt lat="46.53128" lon="3.62604">
        <ele>265.94</ele>
        <time>2021-07-18T14:47:15Z</time>
      </trkpt>
      <trkpt lat="46.53159" lon="3.6295">
        <ele>266.42</ele>
        <time>2021-07-18T14:47:28Z</time>
      </trkpt>
      <trkpt lat="46.53224" lon="3.63282">
        <ele>258.25</ele>
        <time>2021-07-18T14:47:42Z</time>
      </trkpt>
      <trkpt lat="46.53327" lon="3.63621">
        <ele>261.14</ele>
        <time>2021-07-18T14:47:57Z</time>
      </trkpt>
      <trkpt lat="46.53454" lon="3.64035">
        <ele>260.17</ele>
        <time>2021-07-18T14:48:16Z</time>
      </trkpt>
      <trkpt lat="46.53556" lon="3.6436">
        <ele>258.25</ele>
        <time>2021-07-18T14:48:29Z</time>
      </trkpt>
      <trkpt lat="46.53665" lon="3.6471">
        <ele>255.85</ele>
        <time>2021-07-18T14:48:43Z</time>
      </trkpt>
      <trkpt lat="46.53799" lon="3.65143">
        <ele>251.52</ele>
        <time>2021-07-18T14:49:03Z</time>
      </trkpt>
      <trkpt lat="46.53924" lon="3.65542">
        <ele>248.16</ele>
        <time>2021-07-18T14:49:20Z</time>
      </trkpt>
      <trkpt lat="46.53998" lon="3.65837">
        <ele>244.31</ele>
        <time>2021-07-18T14:49:32Z</time>
      </trkpt>
      <trkpt lat="46.54038" lon="3.66182">
        <ele>241.43</ele>
        <time>2021-07-18T14:49:45Z</time>
      </trkpt>
      <trkpt lat="46.5406" lon="3.66613">
        <ele>235.66</ele>
        <time>2021-07-18T14:50:02Z</time>
      </trkpt>
      <trkpt lat="46.5408" lon="3.67006">
        <ele>230.85</ele>
        <time>2021-07-18T14:50:18Z</time>
      </trkpt>
      <trkpt lat="46.541" lon="3.67441">
        <ele>227.01</ele>
        <time>2021-07-18T14:50:35Z</time>
      </trkpt>
      <trkpt lat="46.54082" lon="3.67805">
        <ele>221.72</ele>
        <time>2021-07-18T14:50:49Z</time>
      </trkpt>
      <trkpt lat="46.54026" lon="3.68139">
        <ele>218.84</ele>
        <time>2021-07-18T14:51:03Z</time>
      </trkpt>
      <trkpt lat="46.53955" lon="3.68527">
        <ele>218.36</ele>
        <time>2021-07-18T14:51:21Z</time>
      </trkpt>
      <trkpt lat="46.53892" lon="3.68862">
        <ele>220.28</ele>
        <time>2021-07-18T14:51:35Z</time>
      </trkpt>
      <trkpt lat="46.53805" lon="3.69337">
        <ele>219.32</ele>
        <time>2021-07-18T14:51:53Z</time>
      </trkpt>
      <trkpt lat="46.53722" lon="3.69794">
        <ele>219.8</ele>
        <time>2021-07-18T14:52:12Z</time>
      </trkpt>
      <trkpt lat="46.53635" lon="3.70278">
        <ele>221.72</ele>
        <time>2021-07-18T14:52:31Z</time>
      </trkpt>
      <trkpt lat="46.53576" lon="3.70587">
        <ele>226.53</ele>
        <time>2021-07-18T14:52:44Z</time>
      </trkpt>
      <trkpt lat="46.53502" lon="3.70833">
        <ele>231.33</ele>
        <time>2021-07-18T14:52:55Z</time>
      </trkpt>
      <trkpt lat="46.53382" lon="3.71095">
        <ele>236.14</ele>
        <time>2021-07-18T14:53:07Z</time>
      </trkpt>
      <trkpt lat="46.53263" lon="3.71335">
        <ele>238.06</ele>
        <time>2021-07-18T14:53:19Z</time>
      </trkpt>
      <trkpt lat="46.53119" lon="3.71623">
        <ele>237.1</ele>
        <time>2021-07-18T14:53:33Z</time>
      </trkpt>
      <trkpt lat="46.52948" lon="3.71967">
        <ele>234.22</ele>
        <time>2021-07-18T14:53:49Z</time>
      </trkpt>
      <trkpt lat="46.52794" lon="3.72281">
        <ele>231.33</ele>
        <time>2021-07-18T14:54:05Z</time>
      </trkpt>
      <trkpt lat="46.52663" lon="3.72545">
        <ele>229.41</ele>
        <time>2021-07-18T14:54:19Z</time>
      </trkpt>
      <trkpt lat="46.52587" lon="3.72715">
        <ele>231.33</ele>
        <time>2021-07-18T14:54:29Z</time>
      </trkpt>
      <trkpt lat="46.52442" lon="3.72985">
        <ele>230.85</ele>
        <time>2021-07-18T14:54:44Z</time>
      </trkpt>
      <trkpt lat="46.52218" lon="3.73313">
        <ele>241.91</ele>
        <time>2021-07-18T14:55:02Z</time>
      </trkpt>
      <trkpt lat="46.5201" lon="3.73617">
        <ele>253.44</ele>
        <time>2021-07-18T14:55:20Z</time>
      </trkpt>
      <trkpt lat="46.5185" lon="3.7386">
        <ele>256.81</ele>
        <time>2021-07-18T14:55:34Z</time>
      </trkpt>
      <trkpt lat="46.51738" lon="3.74099">
        <ele>256.81</ele>
        <time>2021-07-18T14:55:46Z</time>
      </trkpt>
      <trkpt lat="46.51643" lon="3.74349">
        <ele>256.81</ele>
        <time>2021-07-18T14:55:58Z</time>
      </trkpt>
      <trkpt lat="46.51503" lon="3.7476">
        <ele>261.14</ele>
        <time>2021-07-18T14:56:15Z</time>
      </trkpt>
      <trkpt lat="46.51401" lon="3.75071">
        <ele>261.62</ele>
        <time>2021-07-18T14:56:28Z</time>
      </trkpt>
      <trkpt lat="46.51272" lon="3.75403">
        <ele>259.69</ele>
        <time>2021-07-18T14:56:43Z</time>
      </trkpt>
      <trkpt lat="46.5112" lon="3.75753">
        <ele>251.52</ele>
        <time>2021-07-18T14:56:59Z</time>
      </trkpt>
      <trkpt lat="46.50935" lon="3.76225">
        <ele>242.39</ele>
        <time>2021-07-18T14:57:20Z</time>
      </trkpt>
      <trkpt lat="46.50823" lon="3.76553">
        <ele>237.1</ele>
        <time>2021-07-18T14:57:34Z</time>
      </trkpt>
      <trkpt lat="46.50709" lon="3.76995">
        <ele>238.06</ele>
        <time>2021-07-18T14:57:52Z</time>
      </trkpt>
      <trkpt lat="46.50632" lon="3.77296">
        <ele>240.47</ele>
        <time>2021-07-18T14:58:05Z</time>
      </trkpt>
      <trkpt lat="46.50574" lon="3.77521">
        <ele>240.95</ele>
        <time>2021-07-18T14:58:16Z</time>
      </trkpt>
      <trkpt lat="46.50471" lon="3.77901">
        <ele>242.87</ele>
        <time>2021-07-18T14:58:33Z</time>
      </trkpt>
      <trkpt lat="46.50359" lon="3.78171">
        <ele>243.83</ele>
        <time>2021-07-18T14:58:46Z</time>
      </trkpt>
      <trkpt lat="46.50167" lon="3.78574">
        <ele>236.14</ele>
        <time>2021-07-18T14:59:05Z</time>
      </trkpt>
      <trkpt lat="46.49982" lon="3.78958">
        <ele>242.39</ele>
        <time>2021-07-18T14:59:23Z</time>
      </trkpt>
      <trkpt lat="46.49763" lon="3.79415">
        <ele>252.96</ele>
        <time>2021-07-18T14:59:45Z</time>
      </trkpt>
      <trkpt lat="46.49519" lon="3.79926">
        <ele>263.54</ele>
        <time>2021-07-18T15:00:08Z</time>
      </trkpt>
      <trkpt lat="46.49376" lon="3.80269">
        <ele>262.58</ele>
        <time>2021-07-18T15:00:23Z</time>
      </trkpt>
      <trkpt lat="46.49315" lon="3.80488">
        <ele>262.58</ele>
        <time>2021-07-18T15:00:33Z</time>
      </trkpt>
      <trkpt lat="46.49232" lon="3.80787">
        <ele>259.69</ele>
        <time>2021-07-18T15:00:47Z</time>
      </trkpt>
      <trkpt lat="46.49104" lon="3.81218">
        <ele>257.77</ele>
        <time>2021-07-18T15:01:06Z</time>
      </trkpt>
      <trkpt lat="46.48971" lon="3.81675">
        <ele>260.65</ele>
        <time>2021-07-18T15:01:26Z</time>
      </trkpt>
      <trkpt lat="46.48852" lon="3.81962">
        <ele>264.02</ele>
        <time>2021-07-18T15:01:38Z</time>
      </trkpt>
      <trkpt lat="46.48704" lon="3.82197">
        <ele>257.77</ele>
        <time>2021-07-18T15:01:49Z</time>
      </trkpt>
      <trkpt lat="46.4848" lon="3.82471">
        <ele>249.12</ele>
        <time>2021-07-18T15:02:05Z</time>
      </trkpt>
      <trkpt lat="46.48318" lon="3.82667">
        <ele>242.87</ele>
        <time>2021-07-18T15:02:17Z</time>
      </trkpt>
      <trkpt lat="46.48077" lon="3.82974">
        <ele>234.7</ele>
        <time>2021-07-18T15:02:36Z</time>
      </trkpt>
      <trkpt lat="46.47904" lon="3.83195">
        <ele>240.95</ele>
        <time>2021-07-18T15:02:49Z</time>
      </trkpt>
      <trkpt lat="46.47769" lon="3.83425">
        <ele>247.68</ele>
        <time>2021-07-18T15:03:02Z</time>
      </trkpt>
      <trkpt lat="46.47651" lon="3.83731">
        <ele>251.04</ele>
        <time>2021-07-18T15:03:16Z</time>
      </trkpt>
      <trkpt lat="46.47559" lon="3.83994">
        <ele>255.37</ele>
        <time>2021-07-18T15:03:29Z</time>
      </trkpt>
      <trkpt lat="46.47476" lon="3.84229">
        <ele>259.21</ele>
        <time>2021-07-18T15:03:42Z</time>
      </trkpt>
      <trkpt lat="46.4734" lon="3.84639">
        <ele>264.02</ele>
        <time>2021-07-18T15:04:01Z</time>
      </trkpt>
      <trkpt lat="46.47281" lon="3.84963">
        <ele>265.46</ele>
        <time>2021-07-18T15:04:15Z</time>
      </trkpt>
      <trkpt lat="46.47266" lon="3.85211">
        <ele>264.02</ele>
        <time>2021-07-18T15:04:26Z</time>
      </trkpt>
      <trkpt lat="46.47265" lon="3.85547">
        <ele>263.54</ele>
        <time>2021-07-18T15:04:41Z</time>
      </trkpt>
      <trkpt lat="46.47264" lon="3.85925">
        <ele>259.21</ele>
        <time>2021-07-18T15:05:00Z</time>
      </trkpt>
      <trkpt lat="46.47264" lon="3.86289">
        <ele>254.89</ele>
        <time>2021-07-18T15:05:17Z</time>
      </trkpt>
      <trkpt lat="46.47245" lon="3.86621">
        <ele>253.44</ele>
        <time>2021-07-18T15:05:31Z</time>
      </trkpt>
      <trkpt lat="46.47179" lon="3.86956">
        <ele>248.64</ele>
        <time>2021-07-18T15:05:44Z</time>
      </trkpt>
      <trkpt lat="46.47072" lon="3.87252">
        <ele>241.91</ele>
        <time>2021-07-18T15:05:56Z</time>
      </trkpt>
      <trkpt lat="46.46888" lon="3.87645">
        <ele>252.48</ele>
        <time>2021-07-18T15:06:14Z</time>
      </trkpt>
      <trkpt lat="46.46639" lon="3.88137">
        <ele>265.46</ele>
        <time>2021-07-18T15:06:37Z</time>
      </trkpt>
      <trkpt lat="46.46449" lon="3.88477">
        <ele>265.46</ele>
        <time>2021-07-18T15:06:53Z</time>
      </trkpt>
      <trkpt lat="46.46115" lon="3.8899">
        <ele>271.71</ele>
        <time>2021-07-18T15:07:19Z</time>
      </trkpt>
      <trkpt lat="46.45836" lon="3.89448">
        <ele>280.36</ele>
        <time>2021-07-18T15:07:41Z</time>
      </trkpt>
      <trkpt lat="46.45743" lon="3.89702">
        <ele>280.36</ele>
        <time>2021-07-18T15:07:52Z</time>
      </trkpt>
      <trkpt lat="46.45677" lon="3.89981">
        <ele>277.96</ele>
        <time>2021-07-18T15:08:05Z</time>
      </trkpt>
      <trkpt lat="46.45641" lon="3.90286">
        <ele>276.04</ele>
        <time>2021-07-18T15:08:17Z</time>
      </trkpt>
      <trkpt lat="46.45629" lon="3.90633">
        <ele>275.56</ele>
        <time>2021-07-18T15:08:31Z</time>
      </trkpt>
      <trkpt lat="46.45619" lon="3.9107">
        <ele>268.35</ele>
        <time>2021-07-18T15:08:49Z</time>
      </trkpt>
      <trkpt lat="46.45612" lon="3.91445">
        <ele>266.9</ele>
        <time>2021-07-18T15:09:05Z</time>
      </trkpt>
      <trkpt lat="46.45602" lon="3.91786">
        <ele>263.06</ele>
        <time>2021-07-18T15:09:17Z</time>
      </trkpt>
      <trkpt lat="46.45591" lon="3.92239">
        <ele>258.25</ele>
        <time>2021-07-18T15:09:32Z</time>
      </trkpt>
      <trkpt lat="46.45606" lon="3.92542">
        <ele>253.93</ele>
        <time>2021-07-18T15:09:43Z</time>
      </trkpt>
      <trkpt lat="46.45663" lon="3.92854">
        <ele>245.75</ele>
        <time>2021-07-18T15:09:55Z</time>
      </trkpt>
      <trkpt lat="46.45785" lon="3.93388">
        <ele>238.54</ele>
        <time>2021-07-18T15:10:17Z</time>
      </trkpt>
      <trkpt lat="46.45894" lon="3.93864">
        <ele>239.51</ele>
        <time>2021-07-18T15:10:36Z</time>
      </trkpt>
      <trkpt lat="46.45981" lon="3.94243">
        <ele>241.91</ele>
        <time>2021-07-18T15:10:51Z</time>
      </trkpt>
      <trkpt lat="46.46024" lon="3.9455">
        <ele>239.99</ele>
        <time>2021-07-18T15:11:03Z</time>
      </trkpt>
      <trkpt lat="46.46035" lon="3.94859">
        <ele>237.1</ele>
        <time>2021-07-18T15:11:16Z</time>
      </trkpt>
      <trkpt lat="46.46046" lon="3.95197">
        <ele>234.22</ele>
        <time>2021-07-18T15:11:31Z</time>
      </trkpt>
      <trkpt lat="46.46061" lon="3.95725">
        <ele>235.66</ele>
        <time>2021-07-18T15:11:52Z</time>
      </trkpt>
      <trkpt lat="46.46087" lon="3.96313">
        <ele>238.54</ele>
        <time>2021-07-18T15:12:14Z</time>
      </trkpt>
      <trkpt lat="46.46136" lon="3.96632">
        <ele>239.02</ele>
        <time>2021-07-18T15:12:29Z</time>
      </trkpt>
      <trkpt lat="46.4619" lon="3.96985">
        <ele>237.58</ele>
        <time>2021-07-18T15:12:46Z</time>
      </trkpt>
      <trkpt lat="46.46257" lon="3.97401">
        <ele>236.62</ele>
        <time>2021-07-18T15:13:05Z</time>
      </trkpt>
      <trkpt lat="46.46327" lon="3.97773">
        <ele>236.62</ele>
        <time>2021-07-18T15:13:21Z</time>
      </trkpt>
      <trkpt lat="46.46454" lon="3.98396">
        <ele>238.54</ele>
        <time>2021-07-18T15:13:46Z</time>
      </trkpt>
      <trkpt lat="46.46563" lon="3.98933">
        <ele>239.99</ele>
        <time>2021-07-18T15:14:10Z</time>
      </trkpt>
      <trkpt lat="46.46629" lon="3.99259">
        <ele>241.43</ele>
        <time>2021-07-18T15:14:26Z</time>
      </trkpt>
      <trkpt lat="46.46716" lon="3.99688">
        <ele>250.08</ele>
        <time>2021-07-18T15:14:45Z</time>
      </trkpt>
      <trkpt lat="46.46834" lon="4.00262">
        <ele>256.81</ele>
        <time>2021-07-18T15:15:09Z</time>
      </trkpt>
      <trkpt lat="46.46925" lon="4.00717">
        <ele>259.21</ele>
        <time>2021-07-18T15:15:26Z</time>
      </trkpt>
      <trkpt lat="46.46973" lon="4.00953">
        <ele>257.77</ele>
        <time>2021-07-18T15:15:35Z</time>
      </trkpt>
      <trkpt lat="46.47011" lon="4.01167">
        <ele>258.73</ele>
        <time>2021-07-18T15:15:49Z</time>
      </trkpt>
      <trkpt lat="46.47017" lon="4.01213">
        <ele>258.73</ele>
        <time>2021-07-18T15:15:52Z</time>
      </trkpt>
      <trkpt lat="46.47041" lon="4.01396">
        <ele>257.77</ele>
        <time>2021-07-18T15:16:01Z</time>
      </trkpt>
      <trkpt lat="46.47068" lon="4.01684">
        <ele>257.77</ele>
        <time>2021-07-18T15:16:11Z</time>
      </trkpt>
      <trkpt lat="46.47087" lon="4.02096">
        <ele>257.77</ele>
        <time>2021-07-18T15:16:23Z</time>
      </trkpt>
      <trkpt lat="46.47071" lon="4.02611">
        <ele>259.21</ele>
        <time>2021-07-18T15:16:37Z</time>
      </trkpt>
      <trkpt lat="46.47019" lon="4.03115">
        <ele>261.62</ele>
        <time>2021-07-18T15:16:51Z</time>
      </trkpt>
      <trkpt lat="46.46914" lon="4.0367">
        <ele>262.58</ele>
        <time>2021-07-18T15:17:07Z</time>
      </trkpt>
      <trkpt lat="46.46789" lon="4.04297">
        <ele>261.62</ele>
        <time>2021-07-18T15:17:25Z</time>
      </trkpt>
      <trkpt lat="46.46669" lon="4.05045">
        <ele>260.65</ele>
        <time>2021-07-18T15:17:46Z</time>
      </trkpt>
      <trkpt lat="46.46586" lon="4.05629">
        <ele>258.73</ele>
        <time>2021-07-18T15:18:02Z</time>
      </trkpt>
      <trkpt lat="46.46559" lon="4.06131">
        <ele>256.33</ele>
        <time>2021-07-18T15:18:16Z</time>
      </trkpt>
      <trkpt lat="46.46537" lon="4.06945">
        <ele>250.56</ele>
        <time>2021-07-18T15:18:38Z</time>
      </trkpt>
      <trkpt lat="46.465" lon="4.07279">
        <ele>252.48</ele>
        <time>2021-07-18T15:18:47Z</time>
      </trkpt>
      <trkpt lat="46.46407" lon="4.07744">
        <ele>256.33</ele>
        <time>2021-07-18T15:19:00Z</time>
      </trkpt>
      <trkpt lat="46.46386" lon="4.08045">
        <ele>258.25</ele>
        <time>2021-07-18T15:19:08Z</time>
      </trkpt>
      <trkpt lat="46.46419" lon="4.08338">
        <ele>258.73</ele>
        <time>2021-07-18T15:19:16Z</time>
      </trkpt>
      <trkpt lat="46.46511" lon="4.08633">
        <ele>255.37</ele>
        <time>2021-07-18T15:19:25Z</time>
      </trkpt>
      <trkpt lat="46.46704" lon="4.09069">
        <ele>246.23</ele>
        <time>2021-07-18T15:19:39Z</time>
      </trkpt>
      <trkpt lat="46.46801" lon="4.09406">
        <ele>241.43</ele>
        <time>2021-07-18T15:19:49Z</time>
      </trkpt>
      <trkpt lat="46.46845" lon="4.09753">
        <ele>240.95</ele>
        <time>2021-07-18T15:19:59Z</time>
      </trkpt>
      <trkpt lat="46.46852" lon="4.10131">
        <ele>245.75</ele>
        <time>2021-07-18T15:20:10Z</time>
      </trkpt>
      <trkpt lat="46.46839" lon="4.10927">
        <ele>259.21</ele>
        <time>2021-07-18T15:20:33Z</time>
      </trkpt>
      <trkpt lat="46.46874" lon="4.11494">
        <ele>268.35</ele>
        <time>2021-07-18T15:20:49Z</time>
      </trkpt>
      <trkpt lat="46.46942" lon="4.12008">
        <ele>273.15</ele>
        <time>2021-07-18T15:21:03Z</time>
      </trkpt>
      <trkpt lat="46.47057" lon="4.12557">
        <ele>278.92</ele>
        <time>2021-07-18T15:21:19Z</time>
      </trkpt>
      <trkpt lat="46.47212" lon="4.1307">
        <ele>284.69</ele>
        <time>2021-07-18T15:21:35Z</time>
      </trkpt>
      <trkpt lat="46.47409" lon="4.13566">
        <ele>288.05</ele>
        <time>2021-07-18T15:21:51Z</time>
      </trkpt>
      <trkpt lat="46.47608" lon="4.13952">
        <ele>288.05</ele>
        <time>2021-07-18T15:22:04Z</time>
      </trkpt>
      <trkpt lat="46.47858" lon="4.14335">
        <ele>285.65</ele>
        <time>2021-07-18T15:22:18Z</time>
      </trkpt>
      <trkpt lat="46.48134" lon="4.1467">
        <ele>283.25</ele>
        <time>2021-07-18T15:22:32Z</time>
      </trkpt>
      <trkpt lat="46.48514" lon="4.15039">
        <ele>280.36</ele>
        <time>2021-07-18T15:22:50Z</time>
      </trkpt>
      <trkpt lat="46.48767" lon="4.15253">
        <ele>279.88</ele>
        <time>2021-07-18T15:23:01Z</time>
      </trkpt>
      <trkpt lat="46.49129" lon="4.15513">
        <ele>278.92</ele>
        <time>2021-07-18T15:23:16Z</time>
      </trkpt>
      <trkpt lat="46.49475" lon="4.15722">
        <ele>278.44</ele>
        <time>2021-07-18T15:23:33Z</time>
      </trkpt>
      <trkpt lat="46.49828" lon="4.15889">
        <ele>278.44</ele>
        <time>2021-07-18T15:23:49Z</time>
      </trkpt>
      <trkpt lat="46.50198" lon="4.16029">
        <ele>280.84</ele>
        <time>2021-07-18T15:24:04Z</time>
      </trkpt>
      <trkpt lat="46.5064" lon="4.16138">
        <ele>282.77</ele>
        <time>2021-07-18T15:24:21Z</time>
      </trkpt>
      <trkpt lat="46.51032" lon="4.16216">
        <ele>281.8</ele>
        <time>2021-07-18T15:24:36Z</time>
      </trkpt>
      <trkpt lat="46.5127" lon="4.16259">
        <ele>280.36</ele>
        <time>2021-07-18T15:24:46Z</time>
      </trkpt>
      <trkpt lat="46.51752" lon="4.16354">
        <ele>278.44</ele>
        <time>2021-07-18T15:25:08Z</time>
      </trkpt>
      <trkpt lat="46.52136" lon="4.16423">
        <ele>277</ele>
        <time>2021-07-18T15:25:26Z</time>
      </trkpt>
      <trkpt lat="46.52414" lon="4.16496">
        <ele>276.52</ele>
        <time>2021-07-18T15:25:40Z</time>
      </trkpt>
      <trkpt lat="46.52815" lon="4.16631">
        <ele>278.44</ele>
        <time>2021-07-18T15:25:59Z</time>
      </trkpt>
      <trkpt lat="46.53242" lon="4.16803">
        <ele>280.36</ele>
        <time>2021-07-18T15:26:21Z</time>
      </trkpt>
      <trkpt lat="46.53711" lon="4.17033">
        <ele>283.25</ele>
        <time>2021-07-18T15:26:46Z</time>
      </trkpt>
      <trkpt lat="46.54118" lon="4.17268">
        <ele>283.25</ele>
        <time>2021-07-18T15:27:07Z</time>
      </trkpt>
      <trkpt lat="46.54482" lon="4.17503">
        <ele>278.92</ele>
        <time>2021-07-18T15:27:27Z</time>
      </trkpt>
      <trkpt lat="46.54827" lon="4.17755">
        <ele>273.15</ele>
        <time>2021-07-18T15:27:46Z</time>
      </trkpt>
      <trkpt lat="46.55181" lon="4.18041">
        <ele>266.42</ele>
        <time>2021-07-18T15:28:06Z</time>
      </trkpt>
      <trkpt lat="46.55557" lon="4.18365">
        <ele>263.54</ele>
        <time>2021-07-18T15:28:28Z</time>
      </trkpt>
      <trkpt lat="46.55781" lon="4.18583">
        <ele>267.38</ele>
        <time>2021-07-18T15:28:42Z</time>
      </trkpt>
      <trkpt lat="46.55987" lon="4.1878">
        <ele>269.79</ele>
        <time>2021-07-18T15:28:54Z</time>
      </trkpt>
      <trkpt lat="46.56263" lon="4.19038">
        <ele>271.23</ele>
        <time>2021-07-18T15:29:08Z</time>
      </trkpt>
      <trkpt lat="46.56622" lon="4.1938">
        <ele>276.52</ele>
        <time>2021-07-18T15:29:25Z</time>
      </trkpt>
      <trkpt lat="46.56987" lon="4.19782">
        <ele>278.44</ele>
        <time>2021-07-18T15:29:42Z</time>
      </trkpt>
      <trkpt lat="46.57254" lon="4.20155">
        <ele>282.77</ele>
        <time>2021-07-18T15:29:56Z</time>
      </trkpt>
      <trkpt lat="46.57479" lon="4.20572">
        <ele>285.65</ele>
        <time>2021-07-18T15:30:10Z</time>
      </trkpt>
      <trkpt lat="46.57732" lon="4.21074">
        <ele>284.21</ele>
        <time>2021-07-18T15:30:26Z</time>
      </trkpt>
      <trkpt lat="46.57989" lon="4.21482">
        <ele>277.48</ele>
        <time>2021-07-18T15:30:39Z</time>
      </trkpt>
      <trkpt lat="46.58265" lon="4.21817">
        <ele>266.9</ele>
        <time>2021-07-18T15:30:52Z</time>
      </trkpt>
      <trkpt lat="46.58561" lon="4.22127">
        <ele>260.65</ele>
        <time>2021-07-18T15:31:07Z</time>
      </trkpt>
      <trkpt lat="46.58837" lon="4.22454">
        <ele>261.14</ele>
        <time>2021-07-18T15:31:21Z</time>
      </trkpt>
      <trkpt lat="46.59053" lon="4.2279">
        <ele>264.02</ele>
        <time>2021-07-18T15:31:34Z</time>
      </trkpt>
      <trkpt lat="46.59228" lon="4.23097">
        <ele>270.75</ele>
        <time>2021-07-18T15:31:46Z</time>
      </trkpt>
      <trkpt lat="46.59465" lon="4.23533">
        <ele>280.36</ele>
        <time>2021-07-18T15:32:02Z</time>
      </trkpt>
      <trkpt lat="46.59679" lon="4.23837">
        <ele>282.77</ele>
        <time>2021-07-18T15:32:14Z</time>
      </trkpt>
      <trkpt lat="46.59913" lon="4.24128">
        <ele>282.28</ele>
        <time>2021-07-18T15:32:28Z</time>
      </trkpt>
      <trkpt lat="46.6013" lon="4.24383">
        <ele>283.25</ele>
        <time>2021-07-18T15:32:42Z</time>
      </trkpt>
      <trkpt lat="46.60375" lon="4.24766">
        <ele>284.21</ele>
        <time>2021-07-18T15:33:00Z</time>
      </trkpt>
      <trkpt lat="46.60573" lon="4.2517">
        <ele>282.77</ele>
        <time>2021-07-18T15:33:17Z</time>
      </trkpt>
      <trkpt lat="46.60732" lon="4.25591">
        <ele>279.88</ele>
        <time>2021-07-18T15:33:33Z</time>
      </trkpt>
      <trkpt lat="46.60775" lon="4.25722">
        <ele>278.92</ele>
        <time>2021-07-18T15:33:39Z</time>
      </trkpt>
      <trkpt lat="46.60783" lon="4.25748">
        <ele>278.92</ele>
        <time>2021-07-18T15:33:40Z</time>
      </trkpt>
      <trkpt lat="46.60783" lon="4.25748">
        <ele>279.4</ele>
        <time>2021-07-18T15:33:41Z</time>
      </trkpt>
      <trkpt lat="46.60786" lon="4.25756">
        <ele>279.4</ele>
        <time>2021-07-18T15:33:42Z</time>
      </trkpt>
      <trkpt lat="46.60767" lon="4.25789">
        <ele>279.88</ele>
        <time>2021-07-18T15:33:45Z</time>
      </trkpt>
      <trkpt lat="46.60767" lon="4.25797">
        <ele>280.36</ele>
        <time>2021-07-18T15:33:46Z</time>
      </trkpt>
      <trkpt lat="46.60767" lon="4.25802">
        <ele>280.36</ele>
        <time>2021-07-18T15:33:47Z</time>
      </trkpt>
      <trkpt lat="46.60773" lon="4.25823">
        <ele>281.8</ele>
        <time>2021-07-18T15:33:56Z</time>
      </trkpt>
      <trkpt lat="46.60776" lon="4.25833">
        <ele>282.28</ele>
        <time>2021-07-18T15:34:04Z</time>
      </trkpt>
      <trkpt lat="46.6078" lon="4.25844">
        <ele>282.28</ele>
        <time>2021-07-18T15:34:17Z</time>
      </trkpt>
      <trkpt lat="46.6078" lon="4.25844">
        <ele>282.28</ele>
        <time>2021-07-18T15:34:32Z</time>
      </trkpt>
      <trkpt lat="46.6078" lon="4.25844">
        <ele>282.28</ele>
        <time>2021-07-18T15:37:18Z</time>
      </trkpt>
      <trkpt lat="46.6078" lon="4.25844">
        <ele>281.32</ele>
        <time>2021-07-18T15:40:55Z</time>
      </trkpt>
      <trkpt lat="46.6078" lon="4.25844">
        <ele>280.84</ele>
        <time>2021-07-18T15:47:03Z</time>
      </trkpt>
      <trkpt lat="46.6078" lon="4.25844">
        <ele>281.32</ele>
        <time>2021-07-18T15:57:26Z</time>
      </trkpt>
      <trkpt lat="46.6078" lon="4.25844">
        <ele>281.8</ele>
        <time>2021-07-18T16:06:09Z</time>
      </trkpt>
      <trkpt lat="46.6078" lon="4.25844">
        <ele>281.8</ele>
        <time>2021-07-18T16:14:23Z</time>
      </trkpt>
      <trkpt lat="46.6078" lon="4.25844">
        <ele>281.8</ele>
        <time>2021-07-18T16:21:20Z</time>
      </trkpt>
      <trkpt lat="46.6078" lon="4.25844">
        <ele>281.8</ele>
        <time>2021-07-18T16:21:21Z</time>
      </trkpt>
      <trkpt lat="46.60785" lon="4.25858">
        <ele>281.8</ele>
        <time>2021-07-18T16:21:23Z</time>
      </trkpt>
      <trkpt lat="46.60786" lon="4.2586">
        <ele>281.8</ele>
        <time>2021-07-18T16:21:24Z</time>
      </trkpt>
      <trkpt lat="46.60802" lon="4.25907">
        <ele>280.84</ele>
        <time>2021-07-18T16:21:36Z</time>
      </trkpt>
      <trkpt lat="46.60825" lon="4.25976">
        <ele>280.84</ele>
        <time>2021-07-18T16:21:47Z</time>
      </trkpt>
      <trkpt lat="46.60876" lon="4.26038">
        <ele>280.36</ele>
        <time>2021-07-18T16:21:59Z</time>
      </trkpt>
      <trkpt lat="46.60879" lon="4.26047">
        <ele>279.4</ele>
        <time>2021-07-18T16:22:00Z</time>
      </trkpt>
      <trkpt lat="46.60941" lon="4.26214">
        <ele>280.84</ele>
        <time>2021-07-18T16:22:08Z</time>
      </trkpt>
      <trkpt lat="46.61041" lon="4.26468">
        <ele>282.28</ele>
        <time>2021-07-18T16:22:21Z</time>
      </trkpt>
      <trkpt lat="46.61178" lon="4.26752">
        <ele>284.21</ele>
        <time>2021-07-18T16:22:33Z</time>
      </trkpt>
      <trkpt lat="46.61356" lon="4.2706">
        <ele>281.32</ele>
        <time>2021-07-18T16:22:47Z</time>
      </trkpt>
      <trkpt lat="46.6158" lon="4.27447">
        <ele>275.56</ele>
        <time>2021-07-18T16:23:04Z</time>
      </trkpt>
      <trkpt lat="46.61725" lon="4.27777">
        <ele>274.11</ele>
        <time>2021-07-18T16:23:18Z</time>
      </trkpt>
      <trkpt lat="46.6184" lon="4.28151">
        <ele>275.56</ele>
        <time>2021-07-18T16:23:32Z</time>
      </trkpt>
      <trkpt lat="46.61973" lon="4.28664">
        <ele>283.73</ele>
        <time>2021-07-18T16:23:51Z</time>
      </trkpt>
      <trkpt lat="46.62107" lon="4.29052">
        <ele>294.78</ele>
        <time>2021-07-18T16:24:05Z</time>
      </trkpt>
      <trkpt lat="46.62326" lon="4.29533">
        <ele>303.91</ele>
        <time>2021-07-18T16:24:23Z</time>
      </trkpt>
      <trkpt lat="46.62463" lon="4.29925">
        <ele>304.39</ele>
        <time>2021-07-18T16:24:36Z</time>
      </trkpt>
      <trkpt lat="46.62591" lon="4.30326">
        <ele>299.59</ele>
        <time>2021-07-18T16:24:48Z</time>
      </trkpt>
      <trkpt lat="46.62751" lon="4.30677">
        <ele>295.26</ele>
        <time>2021-07-18T16:24:59Z</time>
      </trkpt>
      <trkpt lat="46.63001" lon="4.31192">
        <ele>298.15</ele>
        <time>2021-07-18T16:25:15Z</time>
      </trkpt>
      <trkpt lat="46.63141" lon="4.31584">
        <ele>301.03</ele>
        <time>2021-07-18T16:25:28Z</time>
      </trkpt>
      <trkpt lat="46.63307" lon="4.31995">
        <ele>301.03</ele>
        <time>2021-07-18T16:25:41Z</time>
      </trkpt>
      <trkpt lat="46.63492" lon="4.32309">
        <ele>293.34</ele>
        <time>2021-07-18T16:25:52Z</time>
      </trkpt>
      <trkpt lat="46.63718" lon="4.3259">
        <ele>284.69</ele>
        <time>2021-07-18T16:26:03Z</time>
      </trkpt>
      <trkpt lat="46.6395" lon="4.32785">
        <ele>280.36</ele>
        <time>2021-07-18T16:26:13Z</time>
      </trkpt>
      <trkpt lat="46.64189" lon="4.32906">
        <ele>279.88</ele>
        <time>2021-07-18T16:26:23Z</time>
      </trkpt>
      <trkpt lat="46.64406" lon="4.32954">
        <ele>281.32</ele>
        <time>2021-07-18T16:26:32Z</time>
      </trkpt>
      <trkpt lat="46.64665" lon="4.32952">
        <ele>290.94</ele>
        <time>2021-07-18T16:26:43Z</time>
      </trkpt>
      <trkpt lat="46.65016" lon="4.32922">
        <ele>295.74</ele>
        <time>2021-07-18T16:26:58Z</time>
      </trkpt>
      <trkpt lat="46.65224" lon="4.3297">
        <ele>298.15</ele>
        <time>2021-07-18T16:27:07Z</time>
      </trkpt>
      <trkpt lat="46.6549" lon="4.33043">
        <ele>297.67</ele>
        <time>2021-07-18T16:27:19Z</time>
      </trkpt>
      <trkpt lat="46.65757" lon="4.33087">
        <ele>291.42</ele>
        <time>2021-07-18T16:27:30Z</time>
      </trkpt>
      <trkpt lat="46.65979" lon="4.33184">
        <ele>284.21</ele>
        <time>2021-07-18T16:27:39Z</time>
      </trkpt>
      <trkpt lat="46.66227" lon="4.33374">
        <ele>279.88</ele>
        <time>2021-07-18T16:27:50Z</time>
      </trkpt>
      <trkpt lat="46.66395" lon="4.33584">
        <ele>278.92</ele>
        <time>2021-07-18T16:27:59Z</time>
      </trkpt>
      <trkpt lat="46.66547" lon="4.3386">
        <ele>279.4</ele>
        <time>2021-07-18T16:28:09Z</time>
      </trkpt>
      <trkpt lat="46.66683" lon="4.34055">
        <ele>278.44</ele>
        <time>2021-07-18T16:28:17Z</time>
      </trkpt>
      <trkpt lat="46.66873" lon="4.34213">
        <ele>276.52</ele>
        <time>2021-07-18T16:28:26Z</time>
      </trkpt>
      <trkpt lat="46.67278" lon="4.34463">
        <ele>277.96</ele>
        <time>2021-07-18T16:28:44Z</time>
      </trkpt>
      <trkpt lat="46.67493" lon="4.34533">
        <ele>276.04</ele>
        <time>2021-07-18T16:28:53Z</time>
      </trkpt>
      <trkpt lat="46.67825" lon="4.34593">
        <ele>274.59</ele>
        <time>2021-07-18T16:29:06Z</time>
      </trkpt>
      <trkpt lat="46.68025" lon="4.34681">
        <ele>272.19</ele>
        <time>2021-07-18T16:29:14Z</time>
      </trkpt>
      <trkpt lat="46.682" lon="4.34828">
        <ele>277.48</ele>
        <time>2021-07-18T16:29:22Z</time>
      </trkpt>
      <trkpt lat="46.68345" lon="4.35023">
        <ele>280.84</ele>
        <time>2021-07-18T16:29:30Z</time>
      </trkpt>
      <trkpt lat="46.68484" lon="4.35318">
        <ele>282.77</ele>
        <time>2021-07-18T16:29:40Z</time>
      </trkpt>
      <trkpt lat="46.68667" lon="4.3584">
        <ele>278.44</ele>
        <time>2021-07-18T16:29:55Z</time>
      </trkpt>
      <trkpt lat="46.68875" lon="4.36436">
        <ele>273.63</ele>
        <time>2021-07-18T16:30:14Z</time>
      </trkpt>
      <trkpt lat="46.69096" lon="4.37067">
        <ele>275.07</ele>
        <time>2021-07-18T16:30:33Z</time>
      </trkpt>
      <trkpt lat="46.69194" lon="4.3741">
        <ele>273.63</ele>
        <time>2021-07-18T16:30:43Z</time>
      </trkpt>
      <trkpt lat="46.69201" lon="4.3763">
        <ele>276.52</ele>
        <time>2021-07-18T16:30:49Z</time>
      </trkpt>
      <trkpt lat="46.69174" lon="4.37906">
        <ele>281.32</ele>
        <time>2021-07-18T16:30:57Z</time>
      </trkpt>
      <trkpt lat="46.692" lon="4.38112">
        <ele>280.84</ele>
        <time>2021-07-18T16:31:03Z</time>
      </trkpt>
      <trkpt lat="46.69271" lon="4.38272">
        <ele>279.4</ele>
        <time>2021-07-18T16:31:09Z</time>
      </trkpt>
      <trkpt lat="46.69387" lon="4.38393">
        <ele>277</ele>
        <time>2021-07-18T16:31:16Z</time>
      </trkpt>
      <trkpt lat="46.69531" lon="4.3846">
        <ele>276.04</ele>
        <time>2021-07-18T16:31:24Z</time>
      </trkpt>
      <trkpt lat="46.69711" lon="4.38554">
        <ele>282.77</ele>
        <time>2021-07-18T16:31:35Z</time>
      </trkpt>
      <trkpt lat="46.6983" lon="4.38709">
        <ele>287.57</ele>
        <time>2021-07-18T16:31:43Z</time>
      </trkpt>
      <trkpt lat="46.69958" lon="4.38968">
        <ele>287.09</ele>
        <time>2021-07-18T16:31:56Z</time>
      </trkpt>
      <trkpt lat="46.70071" lon="4.39233">
        <ele>289.01</ele>
        <time>2021-07-18T16:32:08Z</time>
      </trkpt>
      <trkpt lat="46.70106" lon="4.39433">
        <ele>284.21</ele>
        <time>2021-07-18T16:32:16Z</time>
      </trkpt>
      <trkpt lat="46.70092" lon="4.3966">
        <ele>288.05</ele>
        <time>2021-07-18T16:32:25Z</time>
      </trkpt>
      <trkpt lat="46.70038" lon="4.40044">
        <ele>290.46</ele>
        <time>2021-07-18T16:32:41Z</time>
      </trkpt>
      <trkpt lat="46.70027" lon="4.4012">
        <ele>289.97</ele>
        <time>2021-07-18T16:32:45Z</time>
      </trkpt>
      <trkpt lat="46.70015" lon="4.40215">
        <ele>289.49</ele>
        <time>2021-07-18T16:32:50Z</time>
      </trkpt>
      <trkpt lat="46.70005" lon="4.40408">
        <ele>290.46</ele>
        <time>2021-07-18T16:33:00Z</time>
      </trkpt>
      <trkpt lat="46.70019" lon="4.40626">
        <ele>290.94</ele>
        <time>2021-07-18T16:33:13Z</time>
      </trkpt>
      <trkpt lat="46.70058" lon="4.40832">
        <ele>290.46</ele>
        <time>2021-07-18T16:33:26Z</time>
      </trkpt>
      <trkpt lat="46.70128" lon="4.41052">
        <ele>289.01</ele>
        <time>2021-07-18T16:33:39Z</time>
      </trkpt>
      <trkpt lat="46.70221" lon="4.41248">
        <ele>287.57</ele>
        <time>2021-07-18T16:33:52Z</time>
      </trkpt>
      <trkpt lat="46.70319" lon="4.41425">
        <ele>285.65</ele>
        <time>2021-07-18T16:34:07Z</time>
      </trkpt>
      <trkpt lat="46.70446" lon="4.41654">
        <ele>283.73</ele>
        <time>2021-07-18T16:34:24Z</time>
      </trkpt>
      <trkpt lat="46.7056" lon="4.41866">
        <ele>285.17</ele>
        <time>2021-07-18T16:34:38Z</time>
      </trkpt>
      <trkpt lat="46.7067" lon="4.42065">
        <ele>286.13</ele>
        <time>2021-07-18T16:34:52Z</time>
      </trkpt>
      <trkpt lat="46.70808" lon="4.42334">
        <ele>289.01</ele>
        <time>2021-07-18T16:35:10Z</time>
      </trkpt>
      <trkpt lat="46.70901" lon="4.425">
        <ele>289.49</ele>
        <time>2021-07-18T16:35:21Z</time>
      </trkpt>
      <trkpt lat="46.71053" lon="4.42774">
        <ele>291.9</ele>
        <time>2021-07-18T16:35:39Z</time>
      </trkpt>
      <trkpt lat="46.71171" lon="4.42986">
        <ele>291.9</ele>
        <time>2021-07-18T16:35:54Z</time>
      </trkpt>
      <trkpt lat="46.71285" lon="4.43192">
        <ele>293.34</ele>
        <time>2021-07-18T16:36:06Z</time>
      </trkpt>
      <trkpt lat="46.71427" lon="4.4345">
        <ele>294.78</ele>
        <time>2021-07-18T16:36:17Z</time>
      </trkpt>
      <trkpt lat="46.71576" lon="4.43658">
        <ele>296.22</ele>
        <time>2021-07-18T16:36:26Z</time>
      </trkpt>
      <trkpt lat="46.71869" lon="4.43977">
        <ele>297.67</ele>
        <time>2021-07-18T16:36:41Z</time>
      </trkpt>
      <trkpt lat="46.72198" lon="4.44366">
        <ele>298.63</ele>
        <time>2021-07-18T16:36:58Z</time>
      </trkpt>
      <trkpt lat="46.72316" lon="4.44603">
        <ele>297.67</ele>
        <time>2021-07-18T16:37:06Z</time>
      </trkpt>
      <trkpt lat="46.72512" lon="4.45174">
        <ele>296.22</ele>
        <time>2021-07-18T16:37:23Z</time>
      </trkpt>
      <trkpt lat="46.72735" lon="4.45827">
        <ele>296.22</ele>
        <time>2021-07-18T16:37:43Z</time>
      </trkpt>
      <trkpt lat="46.72915" lon="4.46353">
        <ele>296.22</ele>
        <time>2021-07-18T16:37:59Z</time>
      </trkpt>
      <trkpt lat="46.73089" lon="4.46809">
        <ele>297.67</ele>
        <time>2021-07-18T16:38:14Z</time>
      </trkpt>
      <trkpt lat="46.73316" lon="4.4728">
        <ele>300.55</ele>
        <time>2021-07-18T16:38:30Z</time>
      </trkpt>
      <trkpt lat="46.73644" lon="4.47923">
        <ele>300.07</ele>
        <time>2021-07-18T16:38:53Z</time>
      </trkpt>
      <trkpt lat="46.73825" lon="4.48239">
        <ele>301.51</ele>
        <time>2021-07-18T16:39:05Z</time>
      </trkpt>
      <trkpt lat="46.74009" lon="4.48442">
        <ele>301.99</ele>
        <time>2021-07-18T16:39:15Z</time>
      </trkpt>
      <trkpt lat="46.74339" lon="4.48739">
        <ele>302.47</ele>
        <time>2021-07-18T16:39:32Z</time>
      </trkpt>
      <trkpt lat="46.74542" lon="4.48925">
        <ele>302.95</ele>
        <time>2021-07-18T16:39:42Z</time>
      </trkpt>
      <trkpt lat="46.74646" lon="4.49018">
        <ele>305.36</ele>
        <time>2021-07-18T16:39:50Z</time>
      </trkpt>
      <trkpt lat="46.74793" lon="4.49154">
        <ele>308.72</ele>
        <time>2021-07-18T16:40:03Z</time>
      </trkpt>
      <trkpt lat="46.74802" lon="4.49167">
        <ele>309.2</ele>
        <time>2021-07-18T16:40:04Z</time>
      </trkpt>
      <trkpt lat="46.7481" lon="4.49179">
        <ele>310.16</ele>
        <time>2021-07-18T16:40:05Z</time>
      </trkpt>
      <trkpt lat="46.74831" lon="4.49225">
        <ele>311.12</ele>
        <time>2021-07-18T16:40:11Z</time>
      </trkpt>
      <trkpt lat="46.74834" lon="4.49232">
        <ele>311.12</ele>
        <time>2021-07-18T16:40:14Z</time>
      </trkpt>
      <trkpt lat="46.74836" lon="4.49238">
        <ele>311.12</ele>
        <time>2021-07-18T16:40:15Z</time>
      </trkpt>
      <trkpt lat="46.74837" lon="4.49242">
        <ele>311.6</ele>
        <time>2021-07-18T16:40:16Z</time>
      </trkpt>
      <trkpt lat="46.74837" lon="4.49273">
        <ele>312.09</ele>
        <time>2021-07-18T16:40:18Z</time>
      </trkpt>
      <trkpt lat="46.74841" lon="4.49287">
        <ele>312.09</ele>
        <time>2021-07-18T16:40:19Z</time>
      </trkpt>
      <trkpt lat="46.74841" lon="4.49287">
        <ele>313.05</ele>
        <time>2021-07-18T16:40:20Z</time>
      </trkpt>
      <trkpt lat="46.74846" lon="4.493">
        <ele>312.09</ele>
        <time>2021-07-18T16:40:21Z</time>
      </trkpt>
      <trkpt lat="46.74853" lon="4.49312">
        <ele>312.09</ele>
        <time>2021-07-18T16:40:22Z</time>
      </trkpt>
      <trkpt lat="46.7486" lon="4.49322">
        <ele>312.09</ele>
        <time>2021-07-18T16:40:23Z</time>
      </trkpt>
      <trkpt lat="46.74874" lon="4.49342">
        <ele>313.05</ele>
        <time>2021-07-18T16:40:24Z</time>
      </trkpt>
      <trkpt lat="46.74874" lon="4.49342">
        <ele>312.57</ele>
        <time>2021-07-18T16:40:25Z</time>
      </trkpt>
      <trkpt lat="46.74879" lon="4.49354">
        <ele>312.09</ele>
        <time>2021-07-18T16:40:26Z</time>
      </trkpt>
      <trkpt lat="46.74882" lon="4.49368">
        <ele>312.09</ele>
        <time>2021-07-18T16:40:27Z</time>
      </trkpt>
      <trkpt lat="46.74885" lon="4.49384">
        <ele>311.12</ele>
        <time>2021-07-18T16:40:28Z</time>
      </trkpt>
      <trkpt lat="46.74905" lon="4.49548">
        <ele>308.72</ele>
        <time>2021-07-18T16:40:36Z</time>
      </trkpt>
      <trkpt lat="46.74926" lon="4.49887">
        <ele>304.88</ele>
        <time>2021-07-18T16:40:48Z</time>
      </trkpt>
      <trkpt lat="46.7494" lon="4.50366">
        <ele>316.41</ele>
        <time>2021-07-18T16:41:03Z</time>
      </trkpt>
      <trkpt lat="46.74903" lon="4.50659">
        <ele>316.41</ele>
        <time>2021-07-18T16:41:12Z</time>
      </trkpt>
      <trkpt lat="46.74769" lon="4.51293">
        <ele>314.01</ele>
        <time>2021-07-18T16:41:30Z</time>
      </trkpt>
      <trkpt lat="46.74622" lon="4.52004">
        <ele>325.06</ele>
        <time>2021-07-18T16:41:53Z</time>
      </trkpt>
      <trkpt lat="46.74494" lon="4.52661">
        <ele>343.81</ele>
        <time>2021-07-18T16:42:13Z</time>
      </trkpt>
      <trkpt lat="46.74406" lon="4.53229">
        <ele>357.75</ele>
        <time>2021-07-18T16:42:30Z</time>
      </trkpt>
      <trkpt lat="46.74393" lon="4.53935">
        <ele>373.61</ele>
        <time>2021-07-18T16:42:50Z</time>
      </trkpt>
      <trkpt lat="46.7437" lon="4.54565">
        <ele>388.99</ele>
        <time>2021-07-18T16:43:08Z</time>
      </trkpt>
      <trkpt lat="46.74298" lon="4.54832">
        <ele>394.28</ele>
        <time>2021-07-18T16:43:16Z</time>
      </trkpt>
      <trkpt lat="46.74169" lon="4.5509">
        <ele>401.01</ele>
        <time>2021-07-18T16:43:25Z</time>
      </trkpt>
      <trkpt lat="46.74058" lon="4.5536">
        <ele>407.74</ele>
        <time>2021-07-18T16:43:34Z</time>
      </trkpt>
      <trkpt lat="46.73967" lon="4.55748">
        <ele>418.79</ele>
        <time>2021-07-18T16:43:46Z</time>
      </trkpt>
      <trkpt lat="46.73869" lon="4.56268">
        <ele>418.31</ele>
        <time>2021-07-18T16:44:00Z</time>
      </trkpt>
      <trkpt lat="46.73861" lon="4.5661">
        <ele>418.31</ele>
        <time>2021-07-18T16:44:09Z</time>
      </trkpt>
      <trkpt lat="46.73903" lon="4.56903">
        <ele>414.47</ele>
        <time>2021-07-18T16:44:18Z</time>
      </trkpt>
      <trkpt lat="46.74018" lon="4.57365">
        <ele>408.7</ele>
        <time>2021-07-18T16:44:31Z</time>
      </trkpt>
      <trkpt lat="46.74053" lon="4.57625">
        <ele>406.29</ele>
        <time>2021-07-18T16:44:38Z</time>
      </trkpt>
      <trkpt lat="46.74026" lon="4.5789">
        <ele>400.53</ele>
        <time>2021-07-18T16:44:45Z</time>
      </trkpt>
      <trkpt lat="46.7395" lon="4.58094">
        <ele>394.76</ele>
        <time>2021-07-18T16:44:51Z</time>
      </trkpt>
      <trkpt lat="46.73822" lon="4.58278">
        <ele>389.95</ele>
        <time>2021-07-18T16:44:58Z</time>
      </trkpt>
      <trkpt lat="46.73605" lon="4.5856">
        <ele>381.78</ele>
        <time>2021-07-18T16:45:10Z</time>
      </trkpt>
      <trkpt lat="46.73538" lon="4.58758">
        <ele>378.9</ele>
        <time>2021-07-18T16:45:16Z</time>
      </trkpt>
      <trkpt lat="46.7352" lon="4.58981">
        <ele>375.53</ele>
        <time>2021-07-18T16:45:22Z</time>
      </trkpt>
      <trkpt lat="46.7356" lon="4.59197">
        <ele>367.36</ele>
        <time>2021-07-18T16:45:28Z</time>
      </trkpt>
      <trkpt lat="46.73707" lon="4.5965">
        <ele>353.42</ele>
        <time>2021-07-18T16:45:41Z</time>
      </trkpt>
      <trkpt lat="46.73772" lon="4.59937">
        <ele>347.65</ele>
        <time>2021-07-18T16:45:49Z</time>
      </trkpt>
      <trkpt lat="46.73777" lon="4.6021">
        <ele>341.89</ele>
        <time>2021-07-18T16:45:56Z</time>
      </trkpt>
      <trkpt lat="46.73736" lon="4.6085">
        <ele>336.12</ele>
        <time>2021-07-18T16:46:12Z</time>
      </trkpt>
      <trkpt lat="46.73694" lon="4.61527">
        <ele>326.5</ele>
        <time>2021-07-18T16:46:31Z</time>
      </trkpt>
      <trkpt lat="46.7368" lon="4.61956">
        <ele>315.93</ele>
        <time>2021-07-18T16:46:42Z</time>
      </trkpt>
      <trkpt lat="46.73721" lon="4.62222">
        <ele>310.16</ele>
        <time>2021-07-18T16:46:49Z</time>
      </trkpt>
      <trkpt lat="46.7381" lon="4.62501">
        <ele>301.03</ele>
        <time>2021-07-18T16:46:57Z</time>
      </trkpt>
      <trkpt lat="46.74015" lon="4.63092">
        <ele>304.39</ele>
        <time>2021-07-18T16:47:15Z</time>
      </trkpt>
      <trkpt lat="46.74237" lon="4.63737">
        <ele>302.95</ele>
        <time>2021-07-18T16:47:34Z</time>
      </trkpt>
      <trkpt lat="46.74426" lon="4.64205">
        <ele>297.18</ele>
        <time>2021-07-18T16:47:48Z</time>
      </trkpt>
      <trkpt lat="46.74644" lon="4.64764">
        <ele>295.26</ele>
        <time>2021-07-18T16:48:05Z</time>
      </trkpt>
      <trkpt lat="46.74916" lon="4.65456">
        <ele>298.15</ele>
        <time>2021-07-18T16:48:25Z</time>
      </trkpt>
      <trkpt lat="46.75114" lon="4.65817">
        <ele>300.07</ele>
        <time>2021-07-18T16:48:38Z</time>
      </trkpt>
      <trkpt lat="46.75243" lon="4.66108">
        <ele>303.91</ele>
        <time>2021-07-18T16:48:47Z</time>
      </trkpt>
      <trkpt lat="46.75311" lon="4.66392">
        <ele>308.72</ele>
        <time>2021-07-18T16:48:55Z</time>
      </trkpt>
      <trkpt lat="46.75346" lon="4.66828">
        <ele>314.97</ele>
        <time>2021-07-18T16:49:07Z</time>
      </trkpt>
      <trkpt lat="46.75384" lon="4.6741">
        <ele>306.8</ele>
        <time>2021-07-18T16:49:22Z</time>
      </trkpt>
      <trkpt lat="46.75419" lon="4.67971">
        <ele>292.38</ele>
        <time>2021-07-18T16:49:36Z</time>
      </trkpt>
      <trkpt lat="46.75464" lon="4.68717">
        <ele>277</ele>
        <time>2021-07-18T16:49:56Z</time>
      </trkpt>
      <trkpt lat="46.75524" lon="4.69355">
        <ele>265.94</ele>
        <time>2021-07-18T16:50:13Z</time>
      </trkpt>
      <trkpt lat="46.75615" lon="4.69699">
        <ele>256.81</ele>
        <time>2021-07-18T16:50:23Z</time>
      </trkpt>
      <trkpt lat="46.75656" lon="4.70028">
        <ele>248.64</ele>
        <time>2021-07-18T16:50:31Z</time>
      </trkpt>
      <trkpt lat="46.75678" lon="4.70482">
        <ele>241.43</ele>
        <time>2021-07-18T16:50:44Z</time>
      </trkpt>
      <trkpt lat="46.75675" lon="4.71062">
        <ele>237.58</ele>
        <time>2021-07-18T16:51:00Z</time>
      </trkpt>
      <trkpt lat="46.75711" lon="4.71562">
        <ele>232.78</ele>
        <time>2021-07-18T16:51:14Z</time>
      </trkpt>
      <trkpt lat="46.75784" lon="4.72275">
        <ele>225.57</ele>
        <time>2021-07-18T16:51:33Z</time>
      </trkpt>
      <trkpt lat="46.75859" lon="4.7299">
        <ele>227.49</ele>
        <time>2021-07-18T16:51:52Z</time>
      </trkpt>
      <trkpt lat="46.75923" lon="4.73605">
        <ele>229.89</ele>
        <time>2021-07-18T16:52:10Z</time>
      </trkpt>
      <trkpt lat="46.75984" lon="4.74217">
        <ele>225.57</ele>
        <time>2021-07-18T16:52:27Z</time>
      </trkpt>
      <trkpt lat="46.76028" lon="4.74746">
        <ele>220.28</ele>
        <time>2021-07-18T16:52:41Z</time>
      </trkpt>
      <trkpt lat="46.76011" lon="4.75054">
        <ele>215.95</ele>
        <time>2021-07-18T16:52:49Z</time>
      </trkpt>
      <trkpt lat="46.75927" lon="4.7584">
        <ele>209.7</ele>
        <time>2021-07-18T16:53:09Z</time>
      </trkpt>
      <trkpt lat="46.75862" lon="4.76516">
        <ele>209.7</ele>
        <time>2021-07-18T16:53:26Z</time>
      </trkpt>
      <trkpt lat="46.758" lon="4.77296">
        <ele>204.9</ele>
        <time>2021-07-18T16:53:46Z</time>
      </trkpt>
      <trkpt lat="46.75736" lon="4.78077">
        <ele>201.53</ele>
        <time>2021-07-18T16:54:06Z</time>
      </trkpt>
      <trkpt lat="46.75692" lon="4.78722">
        <ele>205.86</ele>
        <time>2021-07-18T16:54:23Z</time>
      </trkpt>
      <trkpt lat="46.75629" lon="4.79694">
        <ele>204.9</ele>
        <time>2021-07-18T16:54:48Z</time>
      </trkpt>
      <trkpt lat="46.75578" lon="4.80453">
        <ele>203.94</ele>
        <time>2021-07-18T16:55:08Z</time>
      </trkpt>
      <trkpt lat="46.75549" lon="4.81047">
        <ele>194.8</ele>
        <time>2021-07-18T16:55:23Z</time>
      </trkpt>
      <trkpt lat="46.75541" lon="4.81652">
        <ele>182.31</ele>
        <time>2021-07-18T16:55:39Z</time>
      </trkpt>
      <trkpt lat="46.75535" lon="4.82035">
        <ele>183.75</ele>
        <time>2021-07-18T16:55:50Z</time>
      </trkpt>
      <trkpt lat="46.75531" lon="4.82388">
        <ele>184.23</ele>
        <time>2021-07-18T16:56:02Z</time>
      </trkpt>
      <trkpt lat="46.75529" lon="4.82466">
        <ele>182.79</ele>
        <time>2021-07-18T16:56:06Z</time>
      </trkpt>
      <trkpt lat="46.75528" lon="4.82477">
        <ele>182.79</ele>
        <time>2021-07-18T16:56:07Z</time>
      </trkpt>
      <trkpt lat="46.75523" lon="4.82492">
        <ele>182.79</ele>
        <time>2021-07-18T16:56:08Z</time>
      </trkpt>
      <trkpt lat="46.75517" lon="4.825">
        <ele>182.79</ele>
        <time>2021-07-18T16:56:09Z</time>
      </trkpt>
      <trkpt lat="46.75514" lon="4.82511">
        <ele>182.79</ele>
        <time>2021-07-18T16:56:10Z</time>
      </trkpt>
      <trkpt lat="46.75512" lon="4.82524">
        <ele>182.79</ele>
        <time>2021-07-18T16:56:11Z</time>
      </trkpt>
      <trkpt lat="46.75514" lon="4.82533">
        <ele>182.31</ele>
        <time>2021-07-18T16:56:12Z</time>
      </trkpt>
      <trkpt lat="46.75517" lon="4.82543">
        <ele>182.31</ele>
        <time>2021-07-18T16:56:13Z</time>
      </trkpt>
      <trkpt lat="46.75533" lon="4.82556">
        <ele>182.31</ele>
        <time>2021-07-18T16:56:14Z</time>
      </trkpt>
      <trkpt lat="46.75533" lon="4.82556">
        <ele>181.83</ele>
        <time>2021-07-18T16:56:15Z</time>
      </trkpt>
      <trkpt lat="46.75539" lon="4.82567">
        <ele>181.83</ele>
        <time>2021-07-18T16:56:16Z</time>
      </trkpt>
      <trkpt lat="46.75545" lon="4.82579">
        <ele>181.83</ele>
        <time>2021-07-18T16:56:17Z</time>
      </trkpt>
      <trkpt lat="46.75552" lon="4.82592">
        <ele>181.83</ele>
        <time>2021-07-18T16:56:18Z</time>
      </trkpt>
      <trkpt lat="46.75556" lon="4.82608">
        <ele>182.31</ele>
        <time>2021-07-18T16:56:19Z</time>
      </trkpt>
      <trkpt lat="46.75607" lon="4.82809">
        <ele>186.63</ele>
        <time>2021-07-18T16:56:29Z</time>
      </trkpt>
      <trkpt lat="46.75656" lon="4.83045">
        <ele>187.59</ele>
        <time>2021-07-18T16:56:40Z</time>
      </trkpt>
      <trkpt lat="46.75656" lon="4.8306">
        <ele>187.11</ele>
        <time>2021-07-18T16:56:41Z</time>
      </trkpt>
      <trkpt lat="46.75654" lon="4.83086">
        <ele>187.11</ele>
        <time>2021-07-18T16:56:42Z</time>
      </trkpt>
      <trkpt lat="46.75654" lon="4.83086">
        <ele>185.67</ele>
        <time>2021-07-18T16:56:43Z</time>
      </trkpt>
      <trkpt lat="46.75649" lon="4.83098">
        <ele>185.67</ele>
        <time>2021-07-18T16:56:44Z</time>
      </trkpt>
      <trkpt lat="46.75643" lon="4.83109">
        <ele>186.15</ele>
        <time>2021-07-18T16:56:45Z</time>
      </trkpt>
      <trkpt lat="46.75633" lon="4.83115">
        <ele>186.15</ele>
        <time>2021-07-18T16:56:46Z</time>
      </trkpt>
      <trkpt lat="46.75621" lon="4.83121">
        <ele>185.67</ele>
        <time>2021-07-18T16:56:47Z</time>
      </trkpt>
      <trkpt lat="46.75591" lon="4.83139">
        <ele>183.75</ele>
        <time>2021-07-18T16:56:50Z</time>
      </trkpt>
      <trkpt lat="46.75582" lon="4.83145">
        <ele>182.31</ele>
        <time>2021-07-18T16:56:51Z</time>
      </trkpt>
      <trkpt lat="46.75574" lon="4.83154">
        <ele>181.35</ele>
        <time>2021-07-18T16:56:52Z</time>
      </trkpt>
      <trkpt lat="46.75567" lon="4.83164">
        <ele>180.87</ele>
        <time>2021-07-18T16:56:53Z</time>
      </trkpt>
      <trkpt lat="46.75562" lon="4.83179">
        <ele>180.38</ele>
        <time>2021-07-18T16:56:54Z</time>
      </trkpt>
      <trkpt lat="46.75556" lon="4.83194">
        <ele>180.38</ele>
        <time>2021-07-18T16:56:55Z</time>
      </trkpt>
      <trkpt lat="46.7555" lon="4.83209">
        <ele>180.87</ele>
        <time>2021-07-18T16:56:56Z</time>
      </trkpt>
      <trkpt lat="46.75542" lon="4.83243">
        <ele>179.42</ele>
        <time>2021-07-18T16:56:58Z</time>
      </trkpt>
      <trkpt lat="46.75528" lon="4.8327">
        <ele>178.46</ele>
        <time>2021-07-18T16:56:59Z</time>
      </trkpt>
      <trkpt lat="46.75528" lon="4.8327">
        <ele>177.5</ele>
        <time>2021-07-18T16:57:00Z</time>
      </trkpt>
      <trkpt lat="46.75507" lon="4.8329">
        <ele>177.98</ele>
        <time>2021-07-18T16:57:01Z</time>
      </trkpt>
      <trkpt lat="46.75498" lon="4.833">
        <ele>179.42</ele>
        <time>2021-07-18T16:57:02Z</time>
      </trkpt>
      <trkpt lat="46.75498" lon="4.833">
        <ele>180.38</ele>
        <time>2021-07-18T16:57:03Z</time>
      </trkpt>
      <trkpt lat="46.75485" lon="4.83313">
        <ele>179.9</ele>
        <time>2021-07-18T16:57:04Z</time>
      </trkpt>
      <trkpt lat="46.75472" lon="4.83314">
        <ele>179.42</ele>
        <time>2021-07-18T16:57:05Z</time>
      </trkpt>
      <trkpt lat="46.75385" lon="4.83326">
        <ele>178.94</ele>
        <time>2021-07-18T16:57:14Z</time>
      </trkpt>
      <trkpt lat="46.75371" lon="4.83327">
        <ele>180.38</ele>
        <time>2021-07-18T16:57:22Z</time>
      </trkpt>
      <trkpt lat="46.75364" lon="4.83328">
        <ele>180.87</ele>
        <time>2021-07-18T16:57:32Z</time>
      </trkpt>
      <trkpt lat="46.75338" lon="4.8333">
        <ele>180.38</ele>
        <time>2021-07-18T16:57:42Z</time>
      </trkpt>
      <trkpt lat="46.75258" lon="4.83316">
        <ele>180.38</ele>
        <time>2021-07-18T16:57:52Z</time>
      </trkpt>
      <trkpt lat="46.7525" lon="4.83313">
        <ele>180.38</ele>
        <time>2021-07-18T16:57:53Z</time>
      </trkpt>
      <trkpt lat="46.75242" lon="4.83309">
        <ele>180.87</ele>
        <time>2021-07-18T16:57:54Z</time>
      </trkpt>
      <trkpt lat="46.75233" lon="4.83305">
        <ele>181.83</ele>
        <time>2021-07-18T16:57:55Z</time>
      </trkpt>
      <trkpt lat="46.75226" lon="4.83301">
        <ele>181.83</ele>
        <time>2021-07-18T16:57:56Z</time>
      </trkpt>
      <trkpt lat="46.75218" lon="4.83295">
        <ele>181.83</ele>
        <time>2021-07-18T16:57:57Z</time>
      </trkpt>
      <trkpt lat="46.75212" lon="4.8329">
        <ele>181.83</ele>
        <time>2021-07-18T16:57:58Z</time>
      </trkpt>
      <trkpt lat="46.75207" lon="4.83277">
        <ele>181.35</ele>
        <time>2021-07-18T16:57:59Z</time>
      </trkpt>
      <trkpt lat="46.75202" lon="4.83263">
        <ele>181.35</ele>
        <time>2021-07-18T16:58:00Z</time>
      </trkpt>
      <trkpt lat="46.75201" lon="4.83248">
        <ele>182.31</ele>
        <time>2021-07-18T16:58:01Z</time>
      </trkpt>
      <trkpt lat="46.75202" lon="4.83233">
        <ele>181.35</ele>
        <time>2021-07-18T16:58:02Z</time>
      </trkpt>
      <trkpt lat="46.75204" lon="4.83219">
        <ele>180.38</ele>
        <time>2021-07-18T16:58:03Z</time>
      </trkpt>
      <trkpt lat="46.75213" lon="4.83205">
        <ele>180.38</ele>
        <time>2021-07-18T16:58:04Z</time>
      </trkpt>
      <trkpt lat="46.75222" lon="4.83195">
        <ele>180.38</ele>
        <time>2021-07-18T16:58:05Z</time>
      </trkpt>
      <trkpt lat="46.75234" lon="4.83184">
        <ele>179.42</ele>
        <time>2021-07-18T16:58:06Z</time>
      </trkpt>
      <trkpt lat="46.75246" lon="4.83178">
        <ele>178.46</ele>
        <time>2021-07-18T16:58:07Z</time>
      </trkpt>
      <trkpt lat="46.75397" lon="4.83098">
        <ele>180.87</ele>
        <time>2021-07-18T16:58:17Z</time>
      </trkpt>
      <trkpt lat="46.7569" lon="4.82962">
        <ele>179.9</ele>
        <time>2021-07-18T16:58:33Z</time>
      </trkpt>
      <trkpt lat="46.75922" lon="4.82825">
        <ele>184.23</ele>
        <time>2021-07-18T16:58:45Z</time>
      </trkpt>
      <trkpt lat="46.76291" lon="4.82589">
        <ele>188.56</ele>
        <time>2021-07-18T16:59:02Z</time>
      </trkpt>
      <trkpt lat="46.76692" lon="4.82333">
        <ele>194.32</ele>
        <time>2021-07-18T16:59:20Z</time>
      </trkpt>
      <trkpt lat="46.76923" lon="4.82184">
        <ele>196.25</ele>
        <time>2021-07-18T16:59:31Z</time>
      </trkpt>
      <trkpt lat="46.77211" lon="4.82009">
        <ele>195.28</ele>
        <time>2021-07-18T16:59:43Z</time>
      </trkpt>
      <trkpt lat="46.77447" lon="4.81949">
        <ele>193.36</ele>
        <time>2021-07-18T16:59:51Z</time>
      </trkpt>
      <trkpt lat="46.77771" lon="4.81956">
        <ele>193.84</ele>
        <time>2021-07-18T17:00:03Z</time>
      </trkpt>
      <trkpt lat="46.78161" lon="4.81975">
        <ele>185.19</ele>
        <time>2021-07-18T17:00:19Z</time>
      </trkpt>
      <trkpt lat="46.78685" lon="4.82001">
        <ele>181.83</ele>
        <time>2021-07-18T17:00:39Z</time>
      </trkpt>
      <trkpt lat="46.78936" lon="4.82051">
        <ele>180.87</ele>
        <time>2021-07-18T17:00:49Z</time>
      </trkpt>
      <trkpt lat="46.79207" lon="4.82157">
        <ele>185.67</ele>
        <time>2021-07-18T17:01:01Z</time>
      </trkpt>
      <trkpt lat="46.79652" lon="4.82338">
        <ele>187.59</ele>
        <time>2021-07-18T17:01:22Z</time>
      </trkpt>
      <trkpt lat="46.80032" lon="4.82479">
        <ele>186.63</ele>
        <time>2021-07-18T17:01:39Z</time>
      </trkpt>
      <trkpt lat="46.80458" lon="4.82575">
        <ele>178.46</ele>
        <time>2021-07-18T17:01:57Z</time>
      </trkpt>
      <trkpt lat="46.80959" lon="4.82686">
        <ele>180.38</ele>
        <time>2021-07-18T17:02:18Z</time>
      </trkpt>
      <trkpt lat="46.81503" lon="4.82822">
        <ele>182.79</ele>
        <time>2021-07-18T17:02:41Z</time>
      </trkpt>
      <trkpt lat="46.8189" lon="4.82919">
        <ele>184.71</ele>
        <time>2021-07-18T17:02:57Z</time>
      </trkpt>
      <trkpt lat="46.82443" lon="4.83058">
        <ele>184.23</ele>
        <time>2021-07-18T17:03:19Z</time>
      </trkpt>
      <trkpt lat="46.82867" lon="4.83151">
        <ele>186.63</ele>
        <time>2021-07-18T17:03:36Z</time>
      </trkpt>
      <trkpt lat="46.83343" lon="4.83215">
        <ele>188.56</ele>
        <time>2021-07-18T17:03:55Z</time>
      </trkpt>
      <trkpt lat="46.83785" lon="4.83205">
        <ele>189.04</ele>
        <time>2021-07-18T17:04:12Z</time>
      </trkpt>
      <trkpt lat="46.84236" lon="4.83134">
        <ele>191.92</ele>
        <time>2021-07-18T17:04:29Z</time>
      </trkpt>
      <trkpt lat="46.84685" lon="4.82993">
        <ele>196.25</ele>
        <time>2021-07-18T17:04:46Z</time>
      </trkpt>
      <trkpt lat="46.85201" lon="4.82756">
        <ele>198.65</ele>
        <time>2021-07-18T17:05:06Z</time>
      </trkpt>
      <trkpt lat="46.85733" lon="4.82478">
        <ele>202.49</ele>
        <time>2021-07-18T17:05:27Z</time>
      </trkpt>
      <trkpt lat="46.86236" lon="4.82229">
        <ele>209.22</ele>
        <time>2021-07-18T17:05:48Z</time>
      </trkpt>
      <trkpt lat="46.86725" lon="4.82035">
        <ele>211.63</ele>
        <time>2021-07-18T17:06:08Z</time>
      </trkpt>
      <trkpt lat="46.87139" lon="4.81933">
        <ele>213.55</ele>
        <time>2021-07-18T17:06:24Z</time>
      </trkpt>
      <trkpt lat="46.87573" lon="4.8189">
        <ele>219.32</ele>
        <time>2021-07-18T17:06:41Z</time>
      </trkpt>
      <trkpt lat="46.88015" lon="4.81905">
        <ele>222.68</ele>
        <time>2021-07-18T17:06:59Z</time>
      </trkpt>
      <trkpt lat="46.88456" lon="4.81978">
        <ele>224.12</ele>
        <time>2021-07-18T17:07:17Z</time>
      </trkpt>
      <trkpt lat="46.88789" lon="4.82059">
        <ele>221.72</ele>
        <time>2021-07-18T17:07:30Z</time>
      </trkpt>
      <trkpt lat="46.8929" lon="4.82191">
        <ele>213.55</ele>
        <time>2021-07-18T17:07:49Z</time>
      </trkpt>
      <trkpt lat="46.89701" lon="4.82255">
        <ele>212.59</ele>
        <time>2021-07-18T17:08:04Z</time>
      </trkpt>
      <trkpt lat="46.90077" lon="4.8224">
        <ele>218.36</ele>
        <time>2021-07-18T17:08:17Z</time>
      </trkpt>
      <trkpt lat="46.90465" lon="4.8216">
        <ele>230.37</ele>
        <time>2021-07-18T17:08:33Z</time>
      </trkpt>
      <trkpt lat="46.90862" lon="4.82058">
        <ele>233.74</ele>
        <time>2021-07-18T17:08:48Z</time>
      </trkpt>
      <trkpt lat="46.9132" lon="4.81958">
        <ele>230.85</ele>
        <time>2021-07-18T17:09:05Z</time>
      </trkpt>
      <trkpt lat="46.91771" lon="4.81901">
        <ele>223.16</ele>
        <time>2021-07-18T17:09:22Z</time>
      </trkpt>
      <trkpt lat="46.9219" lon="4.81906">
        <ele>210.19</ele>
        <time>2021-07-18T17:09:37Z</time>
      </trkpt>
      <trkpt lat="46.9255" lon="4.8196">
        <ele>204.42</ele>
        <time>2021-07-18T17:09:50Z</time>
      </trkpt>
      <trkpt lat="46.92969" lon="4.82074">
        <ele>202.01</ele>
        <time>2021-07-18T17:10:06Z</time>
      </trkpt>
      <trkpt lat="46.93435" lon="4.82266">
        <ele>202.01</ele>
        <time>2021-07-18T17:10:24Z</time>
      </trkpt>
      <trkpt lat="46.93948" lon="4.82528">
        <ele>199.13</ele>
        <time>2021-07-18T17:10:46Z</time>
      </trkpt>
      <trkpt lat="46.94543" lon="4.82853">
        <ele>199.13</ele>
        <time>2021-07-18T17:11:12Z</time>
      </trkpt>
      <trkpt lat="46.95042" lon="4.83124">
        <ele>201.05</ele>
        <time>2021-07-18T17:11:34Z</time>
      </trkpt>
      <trkpt lat="46.95443" lon="4.83341">
        <ele>201.53</ele>
        <time>2021-07-18T17:11:53Z</time>
      </trkpt>
      <trkpt lat="46.95797" lon="4.83521">
        <ele>202.49</ele>
        <time>2021-07-18T17:12:09Z</time>
      </trkpt>
      <trkpt lat="46.95924" lon="4.83604">
        <ele>204.42</ele>
        <time>2021-07-18T17:12:18Z</time>
      </trkpt>
      <trkpt lat="46.95943" lon="4.83626">
        <ele>204.9</ele>
        <time>2021-07-18T17:12:19Z</time>
      </trkpt>
      <trkpt lat="46.95943" lon="4.83626">
        <ele>205.38</ele>
        <time>2021-07-18T17:12:20Z</time>
      </trkpt>
      <trkpt lat="46.95957" lon="4.8365">
        <ele>204.9</ele>
        <time>2021-07-18T17:12:25Z</time>
      </trkpt>
      <trkpt lat="46.9597" lon="4.83671">
        <ele>204.42</ele>
        <time>2021-07-18T17:12:37Z</time>
      </trkpt>
      <trkpt lat="46.95975" lon="4.83679">
        <ele>204.42</ele>
        <time>2021-07-18T17:12:40Z</time>
      </trkpt>
      <trkpt lat="46.95978" lon="4.83684">
        <ele>203.94</ele>
        <time>2021-07-18T17:12:41Z</time>
      </trkpt>
      <trkpt lat="46.95984" lon="4.83692">
        <ele>203.94</ele>
        <time>2021-07-18T17:12:42Z</time>
      </trkpt>
      <trkpt lat="46.95996" lon="4.83697">
        <ele>204.42</ele>
        <time>2021-07-18T17:12:43Z</time>
      </trkpt>
      <trkpt lat="46.96003" lon="4.837">
        <ele>204.42</ele>
        <time>2021-07-18T17:12:44Z</time>
      </trkpt>
      <trkpt lat="46.96119" lon="4.83743">
        <ele>205.86</ele>
        <time>2021-07-18T17:13:03Z</time>
      </trkpt>
      <trkpt lat="46.96124" lon="4.83745">
        <ele>205.86</ele>
        <time>2021-07-18T17:13:04Z</time>
      </trkpt>
      <trkpt lat="46.96128" lon="4.83746">
        <ele>205.86</ele>
        <time>2021-07-18T17:13:05Z</time>
      </trkpt>
      <trkpt lat="46.96143" lon="4.83753">
        <ele>206.82</ele>
        <time>2021-07-18T17:13:10Z</time>
      </trkpt>
      <trkpt lat="46.96146" lon="4.83756">
        <ele>206.34</ele>
        <time>2021-07-18T17:13:11Z</time>
      </trkpt>
      <trkpt lat="46.96155" lon="4.83765">
        <ele>205.86</ele>
        <time>2021-07-18T17:13:14Z</time>
      </trkpt>
      <trkpt lat="46.96155" lon="4.83765">
        <ele>206.34</ele>
        <time>2021-07-18T17:13:15Z</time>
      </trkpt>
      <trkpt lat="46.96155" lon="4.83765">
        <ele>205.86</ele>
        <time>2021-07-18T17:13:16Z</time>
      </trkpt>
      <trkpt lat="46.96155" lon="4.83765">
        <ele>205.86</ele>
        <time>2021-07-18T17:13:17Z</time>
      </trkpt>
      <trkpt lat="46.96163" lon="4.83798">
        <ele>205.86</ele>
        <time>2021-07-18T17:13:18Z</time>
      </trkpt>
      <trkpt lat="46.96163" lon="4.83798">
        <ele>205.86</ele>
        <time>2021-07-18T17:13:19Z</time>
      </trkpt>
      <trkpt lat="46.96166" lon="4.83801">
        <ele>205.86</ele>
        <time>2021-07-18T17:13:20Z</time>
      </trkpt>
      <trkpt lat="46.96196" lon="4.83795">
        <ele>205.86</ele>
        <time>2021-07-18T17:13:30Z</time>
      </trkpt>
      <trkpt lat="46.96217" lon="4.83802">
        <ele>206.34</ele>
        <time>2021-07-18T17:13:40Z</time>
      </trkpt>
      <trkpt lat="46.9622" lon="4.83803">
        <ele>206.82</ele>
        <time>2021-07-18T17:18:01Z</time>
      </trkpt>
      <trkpt lat="46.9622" lon="4.83803">
        <ele>206.82</ele>
        <time>2021-07-18T17:20:26Z</time>
      </trkpt>
      <trkpt lat="46.9622" lon="4.83803">
        <ele>206.34</ele>
        <time>2021-07-18T17:20:42Z</time>
      </trkpt>
      <trkpt lat="46.9622" lon="4.83803">
        <ele>205.38</ele>
        <time>2021-07-18T17:21:36Z</time>
      </trkpt>
      <trkpt lat="46.9622" lon="4.83803">
        <ele>204.9</ele>
        <time>2021-07-18T17:22:30Z</time>
      </trkpt>
      <trkpt lat="46.9622" lon="4.83803">
        <ele>204.42</ele>
        <time>2021-07-18T17:23:46Z</time>
      </trkpt>
      <trkpt lat="46.96236" lon="4.83808">
        <ele>203.94</ele>
        <time>2021-07-18T17:24:28Z</time>
      </trkpt>
      <trkpt lat="46.96256" lon="4.83764">
        <ele>205.86</ele>
        <time>2021-07-18T17:24:42Z</time>
      </trkpt>
      <trkpt lat="46.96262" lon="4.83734">
        <ele>206.82</ele>
        <time>2021-07-18T17:24:53Z</time>
      </trkpt>
      <trkpt lat="46.96273" lon="4.83732">
        <ele>206.82</ele>
        <time>2021-07-18T17:24:58Z</time>
      </trkpt>
      <trkpt lat="46.96328" lon="4.83754">
        <ele>206.34</ele>
        <time>2021-07-18T17:25:10Z</time>
      </trkpt>
      <trkpt lat="46.96339" lon="4.83758">
        <ele>206.34</ele>
        <time>2021-07-18T17:25:12Z</time>
      </trkpt>
      <trkpt lat="46.9636" lon="4.83791">
        <ele>206.82</ele>
        <time>2021-07-18T17:25:20Z</time>
      </trkpt>
      <trkpt lat="46.96363" lon="4.83793">
        <ele>206.34</ele>
        <time>2021-07-18T17:25:22Z</time>
      </trkpt>
      <trkpt lat="46.96394" lon="4.83785">
        <ele>205.86</ele>
        <time>2021-07-18T17:25:30Z</time>
      </trkpt>
      <trkpt lat="46.965" lon="4.83793">
        <ele>204.42</ele>
        <time>2021-07-18T17:25:39Z</time>
      </trkpt>
      <trkpt lat="46.96632" lon="4.83825">
        <ele>203.94</ele>
        <time>2021-07-18T17:25:48Z</time>
      </trkpt>
      <trkpt lat="46.96802" lon="4.8389">
        <ele>206.34</ele>
        <time>2021-07-18T17:25:57Z</time>
      </trkpt>
      <trkpt lat="46.97121" lon="4.84035">
        <ele>207.78</ele>
        <time>2021-07-18T17:26:12Z</time>
      </trkpt>
      <trkpt lat="46.97544" lon="4.84287">
        <ele>206.82</ele>
        <time>2021-07-18T17:26:30Z</time>
      </trkpt>
      <trkpt lat="46.97917" lon="4.84554">
        <ele>207.78</ele>
        <time>2021-07-18T17:26:48Z</time>
      </trkpt>
      <trkpt lat="46.98398" lon="4.8491">
        <ele>210.19</ele>
        <time>2021-07-18T17:27:10Z</time>
      </trkpt>
      <trkpt lat="46.9886" lon="4.85252">
        <ele>210.67</ele>
        <time>2021-07-18T17:27:31Z</time>
      </trkpt>
      <trkpt lat="46.99313" lon="4.8556">
        <ele>208.26</ele>
        <time>2021-07-18T17:27:51Z</time>
      </trkpt>
      <trkpt lat="46.99889" lon="4.85899">
        <ele>206.34</ele>
        <time>2021-07-18T17:28:15Z</time>
      </trkpt>
      <trkpt lat="47.00372" lon="4.86161">
        <ele>206.34</ele>
        <time>2021-07-18T17:28:35Z</time>
      </trkpt>
      <trkpt lat="47.00792" lon="4.86386">
        <ele>208.26</ele>
        <time>2021-07-18T17:28:53Z</time>
      </trkpt>
      <trkpt lat="47.01277" lon="4.86646">
        <ele>208.26</ele>
        <time>2021-07-18T17:29:15Z</time>
      </trkpt>
      <trkpt lat="47.01699" lon="4.86867">
        <ele>209.22</ele>
        <time>2021-07-18T17:29:33Z</time>
      </trkpt>
      <trkpt lat="47.02232" lon="4.8715">
        <ele>209.22</ele>
        <time>2021-07-18T17:29:55Z</time>
      </trkpt>
      <trkpt lat="47.02787" lon="4.87491">
        <ele>210.19</ele>
        <time>2021-07-18T17:30:18Z</time>
      </trkpt>
      <trkpt lat="47.03253" lon="4.87845">
        <ele>210.67</ele>
        <time>2021-07-18T17:30:38Z</time>
      </trkpt>
      <trkpt lat="47.03608" lon="4.88156">
        <ele>210.67</ele>
        <time>2021-07-18T17:30:54Z</time>
      </trkpt>
      <trkpt lat="47.04028" lon="4.88577">
        <ele>209.7</ele>
        <time>2021-07-18T17:31:14Z</time>
      </trkpt>
      <trkpt lat="47.04469" lon="4.89099">
        <ele>208.26</ele>
        <time>2021-07-18T17:31:36Z</time>
      </trkpt>
      <trkpt lat="47.04933" lon="4.89721">
        <ele>208.26</ele>
        <time>2021-07-18T17:31:59Z</time>
      </trkpt>
      <trkpt lat="47.05367" lon="4.90317">
        <ele>207.78</ele>
        <time>2021-07-18T17:32:23Z</time>
      </trkpt>
      <trkpt lat="47.05641" lon="4.90662">
        <ele>210.67</ele>
        <time>2021-07-18T17:32:38Z</time>
      </trkpt>
      <trkpt lat="47.0588" lon="4.91006">
        <ele>218.84</ele>
        <time>2021-07-18T17:32:53Z</time>
      </trkpt>
      <trkpt lat="47.0597" lon="4.91212">
        <ele>223.16</ele>
        <time>2021-07-18T17:33:01Z</time>
      </trkpt>
      <trkpt lat="47.06017" lon="4.91459">
        <ele>223.64</ele>
        <time>2021-07-18T17:33:09Z</time>
      </trkpt>
      <trkpt lat="47.06011" lon="4.91731">
        <ele>224.12</ele>
        <time>2021-07-18T17:33:17Z</time>
      </trkpt>
      <trkpt lat="47.05953" lon="4.91978">
        <ele>221.72</ele>
        <time>2021-07-18T17:33:24Z</time>
      </trkpt>
      <trkpt lat="47.05774" lon="4.92495">
        <ele>218.36</ele>
        <time>2021-07-18T17:33:38Z</time>
      </trkpt>
      <trkpt lat="47.05557" lon="4.93117">
        <ele>215.47</ele>
        <time>2021-07-18T17:33:54Z</time>
      </trkpt>
      <trkpt lat="47.05328" lon="4.93776">
        <ele>215.95</ele>
        <time>2021-07-18T17:34:12Z</time>
      </trkpt>
      <trkpt lat="47.05008" lon="4.94723">
        <ele>211.63</ele>
        <time>2021-07-18T17:34:38Z</time>
      </trkpt>
      <trkpt lat="47.0485" lon="4.95329">
        <ele>207.78</ele>
        <time>2021-07-18T17:34:54Z</time>
      </trkpt>
      <trkpt lat="47.04738" lon="4.9594">
        <ele>208.26</ele>
        <time>2021-07-18T17:35:10Z</time>
      </trkpt>
      <trkpt lat="47.04669" lon="4.96517">
        <ele>206.82</ele>
        <time>2021-07-18T17:35:25Z</time>
      </trkpt>
      <trkpt lat="47.04636" lon="4.97167">
        <ele>203.94</ele>
        <time>2021-07-18T17:35:42Z</time>
      </trkpt>
      <trkpt lat="47.04613" lon="4.98019">
        <ele>199.13</ele>
        <time>2021-07-18T17:36:04Z</time>
      </trkpt>
      <trkpt lat="47.04554" lon="4.98725">
        <ele>197.21</ele>
        <time>2021-07-18T17:36:22Z</time>
      </trkpt>
      <trkpt lat="47.04497" lon="4.99423">
        <ele>194.8</ele>
        <time>2021-07-18T17:36:40Z</time>
      </trkpt>
      <trkpt lat="47.04487" lon="4.99988">
        <ele>193.84</ele>
        <time>2021-07-18T17:36:55Z</time>
      </trkpt>
      <trkpt lat="47.04512" lon="5.00566">
        <ele>198.17</ele>
        <time>2021-07-18T17:37:11Z</time>
      </trkpt>
      <trkpt lat="47.04565" lon="5.01342">
        <ele>203.94</ele>
        <time>2021-07-18T17:37:32Z</time>
      </trkpt>
      <trkpt lat="47.04602" lon="5.02074">
        <ele>207.3</ele>
        <time>2021-07-18T17:37:51Z</time>
      </trkpt>
      <trkpt lat="47.04588" lon="5.02751">
        <ele>208.26</ele>
        <time>2021-07-18T17:38:07Z</time>
      </trkpt>
      <trkpt lat="47.04537" lon="5.03355">
        <ele>205.86</ele>
        <time>2021-07-18T17:38:23Z</time>
      </trkpt>
      <trkpt lat="47.04429" lon="5.04042">
        <ele>201.05</ele>
        <time>2021-07-18T17:38:40Z</time>
      </trkpt>
      <trkpt lat="47.04297" lon="5.04623">
        <ele>195.28</ele>
        <time>2021-07-18T17:38:55Z</time>
      </trkpt>
      <trkpt lat="47.04136" lon="5.05158">
        <ele>198.17</ele>
        <time>2021-07-18T17:39:10Z</time>
      </trkpt>
      <trkpt lat="47.03933" lon="5.05689">
        <ele>202.49</ele>
        <time>2021-07-18T17:39:26Z</time>
      </trkpt>
      <trkpt lat="47.0361" lon="5.06439">
        <ele>206.82</ele>
        <time>2021-07-18T17:39:49Z</time>
      </trkpt>
      <trkpt lat="47.03413" lon="5.06958">
        <ele>208.26</ele>
        <time>2021-07-18T17:40:04Z</time>
      </trkpt>
      <trkpt lat="47.03253" lon="5.07507">
        <ele>207.78</ele>
        <time>2021-07-18T17:40:19Z</time>
      </trkpt>
      <trkpt lat="47.03143" lon="5.08045">
        <ele>205.86</ele>
        <time>2021-07-18T17:40:33Z</time>
      </trkpt>
      <trkpt lat="47.03068" lon="5.08695">
        <ele>203.46</ele>
        <time>2021-07-18T17:40:49Z</time>
      </trkpt>
      <trkpt lat="47.03045" lon="5.09213">
        <ele>207.3</ele>
        <time>2021-07-18T17:41:02Z</time>
      </trkpt>
      <trkpt lat="47.03057" lon="5.09786">
        <ele>206.34</ele>
        <time>2021-07-18T17:41:17Z</time>
      </trkpt>
      <trkpt lat="47.03103" lon="5.10474">
        <ele>200.57</ele>
        <time>2021-07-18T17:41:35Z</time>
      </trkpt>
      <trkpt lat="47.03119" lon="5.11078">
        <ele>193.36</ele>
        <time>2021-07-18T17:41:50Z</time>
      </trkpt>
      <trkpt lat="47.03101" lon="5.11903">
        <ele>183.27</ele>
        <time>2021-07-18T17:42:10Z</time>
      </trkpt>
      <trkpt lat="47.0309" lon="5.12578">
        <ele>181.83</ele>
        <time>2021-07-18T17:42:27Z</time>
      </trkpt>
      <trkpt lat="47.03095" lon="5.13287">
        <ele>181.35</ele>
        <time>2021-07-18T17:42:46Z</time>
      </trkpt>
      <trkpt lat="47.03124" lon="5.14163">
        <ele>184.23</ele>
        <time>2021-07-18T17:43:09Z</time>
      </trkpt>
      <trkpt lat="47.03161" lon="5.14822">
        <ele>188.08</ele>
        <time>2021-07-18T17:43:28Z</time>
      </trkpt>
      <trkpt lat="47.03204" lon="5.15565">
        <ele>190.96</ele>
        <time>2021-07-18T17:43:48Z</time>
      </trkpt>
      <trkpt lat="47.03229" lon="5.16306">
        <ele>187.11</ele>
        <time>2021-07-18T17:44:08Z</time>
      </trkpt>
      <trkpt lat="47.03239" lon="5.17034">
        <ele>182.79</ele>
        <time>2021-07-18T17:44:28Z</time>
      </trkpt>
      <trkpt lat="47.03241" lon="5.17766">
        <ele>186.15</ele>
        <time>2021-07-18T17:44:45Z</time>
      </trkpt>
      <trkpt lat="47.0328" lon="5.18375">
        <ele>189.52</ele>
        <time>2021-07-18T17:45:01Z</time>
      </trkpt>
      <trkpt lat="47.03342" lon="5.18854">
        <ele>189.52</ele>
        <time>2021-07-18T17:45:15Z</time>
      </trkpt>
      <trkpt lat="47.03457" lon="5.19416">
        <ele>188.08</ele>
        <time>2021-07-18T17:45:30Z</time>
      </trkpt>
      <trkpt lat="47.03607" lon="5.19929">
        <ele>188.56</ele>
        <time>2021-07-18T17:45:44Z</time>
      </trkpt>
      <trkpt lat="47.03795" lon="5.20428">
        <ele>190.48</ele>
        <time>2021-07-18T17:45:58Z</time>
      </trkpt>
      <trkpt lat="47.04015" lon="5.20881">
        <ele>189.04</ele>
        <time>2021-07-18T17:46:12Z</time>
      </trkpt>
      <trkpt lat="47.04262" lon="5.21303">
        <ele>191.92</ele>
        <time>2021-07-18T17:46:26Z</time>
      </trkpt>
      <trkpt lat="47.04633" lon="5.21929">
        <ele>190.48</ele>
        <time>2021-07-18T17:46:46Z</time>
      </trkpt>
      <trkpt lat="47.04836" lon="5.22343">
        <ele>190.48</ele>
        <time>2021-07-18T17:47:00Z</time>
      </trkpt>
      <trkpt lat="47.05017" lon="5.22804">
        <ele>185.19</ele>
        <time>2021-07-18T17:47:14Z</time>
      </trkpt>
      <trkpt lat="47.05188" lon="5.23363">
        <ele>185.67</ele>
        <time>2021-07-18T17:47:30Z</time>
      </trkpt>
      <trkpt lat="47.05412" lon="5.24172">
        <ele>184.71</ele>
        <time>2021-07-18T17:47:53Z</time>
      </trkpt>
      <trkpt lat="47.05579" lon="5.2467">
        <ele>187.59</ele>
        <time>2021-07-18T17:48:08Z</time>
      </trkpt>
      <trkpt lat="47.05811" lon="5.25281">
        <ele>185.67</ele>
        <time>2021-07-18T17:48:27Z</time>
      </trkpt>
      <trkpt lat="47.06045" lon="5.25998">
        <ele>186.15</ele>
        <time>2021-07-18T17:48:48Z</time>
      </trkpt>
      <trkpt lat="47.06167" lon="5.26483">
        <ele>186.63</ele>
        <time>2021-07-18T17:49:03Z</time>
      </trkpt>
      <trkpt lat="47.06279" lon="5.27086">
        <ele>189.04</ele>
        <time>2021-07-18T17:49:20Z</time>
      </trkpt>
      <trkpt lat="47.06361" lon="5.27806">
        <ele>192.88</ele>
        <time>2021-07-18T17:49:39Z</time>
      </trkpt>
      <trkpt lat="47.06395" lon="5.28381">
        <ele>191.44</ele>
        <time>2021-07-18T17:49:55Z</time>
      </trkpt>
      <trkpt lat="47.06438" lon="5.2915">
        <ele>190.48</ele>
        <time>2021-07-18T17:50:14Z</time>
      </trkpt>
      <trkpt lat="47.06501" lon="5.29811">
        <ele>187.59</ele>
        <time>2021-07-18T17:50:29Z</time>
      </trkpt>
      <trkpt lat="47.06592" lon="5.30383">
        <ele>189.52</ele>
        <time>2021-07-18T17:50:44Z</time>
      </trkpt>
      <trkpt lat="47.06711" lon="5.30927">
        <ele>188.08</ele>
        <time>2021-07-18T17:50:58Z</time>
      </trkpt>
      <trkpt lat="47.0688" lon="5.31499">
        <ele>188.56</ele>
        <time>2021-07-18T17:51:14Z</time>
      </trkpt>
      <trkpt lat="47.07097" lon="5.32074">
        <ele>188.56</ele>
        <time>2021-07-18T17:51:31Z</time>
      </trkpt>
      <trkpt lat="47.07345" lon="5.32604">
        <ele>189.04</ele>
        <time>2021-07-18T17:51:48Z</time>
      </trkpt>
      <trkpt lat="47.07591" lon="5.33038">
        <ele>190</ele>
        <time>2021-07-18T17:52:03Z</time>
      </trkpt>
      <trkpt lat="47.0787" lon="5.33449">
        <ele>193.36</ele>
        <time>2021-07-18T17:52:18Z</time>
      </trkpt>
      <trkpt lat="47.08195" lon="5.33846">
        <ele>192.4</ele>
        <time>2021-07-18T17:52:33Z</time>
      </trkpt>
      <trkpt lat="47.086" lon="5.34275">
        <ele>195.77</ele>
        <time>2021-07-18T17:52:52Z</time>
      </trkpt>
      <trkpt lat="47.09025" lon="5.34721">
        <ele>199.61</ele>
        <time>2021-07-18T17:53:13Z</time>
      </trkpt>
      <trkpt lat="47.09363" lon="5.35125">
        <ele>201.05</ele>
        <time>2021-07-18T17:53:30Z</time>
      </trkpt>
      <trkpt lat="47.09646" lon="5.35562">
        <ele>202.98</ele>
        <time>2021-07-18T17:53:46Z</time>
      </trkpt>
      <trkpt lat="47.09973" lon="5.36144">
        <ele>204.9</ele>
        <time>2021-07-18T17:54:05Z</time>
      </trkpt>
      <trkpt lat="47.10279" lon="5.36657">
        <ele>205.38</ele>
        <time>2021-07-18T17:54:22Z</time>
      </trkpt>
      <trkpt lat="47.10563" lon="5.37038">
        <ele>206.34</ele>
        <time>2021-07-18T17:54:36Z</time>
      </trkpt>
      <trkpt lat="47.10919" lon="5.3744">
        <ele>200.09</ele>
        <time>2021-07-18T17:54:52Z</time>
      </trkpt>
      <trkpt lat="47.11357" lon="5.37918">
        <ele>194.8</ele>
        <time>2021-07-18T17:55:11Z</time>
      </trkpt>
      <trkpt lat="47.11699" lon="5.38313">
        <ele>198.65</ele>
        <time>2021-07-18T17:55:29Z</time>
      </trkpt>
      <trkpt lat="47.11978" lon="5.38697">
        <ele>201.53</ele>
        <time>2021-07-18T17:55:44Z</time>
      </trkpt>
      <trkpt lat="47.12248" lon="5.39171">
        <ele>203.46</ele>
        <time>2021-07-18T17:56:00Z</time>
      </trkpt>
      <trkpt lat="47.12456" lon="5.39621">
        <ele>204.9</ele>
        <time>2021-07-18T17:56:14Z</time>
      </trkpt>
      <trkpt lat="47.12658" lon="5.40168">
        <ele>205.86</ele>
        <time>2021-07-18T17:56:30Z</time>
      </trkpt>
      <trkpt lat="47.12805" lon="5.40727">
        <ele>206.82</ele>
        <time>2021-07-18T17:56:45Z</time>
      </trkpt>
      <trkpt lat="47.12908" lon="5.41322">
        <ele>203.46</ele>
        <time>2021-07-18T17:57:00Z</time>
      </trkpt>
      <trkpt lat="47.12962" lon="5.41906">
        <ele>199.61</ele>
        <time>2021-07-18T17:57:14Z</time>
      </trkpt>
      <trkpt lat="47.12996" lon="5.4267">
        <ele>206.82</ele>
        <time>2021-07-18T17:57:32Z</time>
      </trkpt>
      <trkpt lat="47.13024" lon="5.43411">
        <ele>211.15</ele>
        <time>2021-07-18T17:57:50Z</time>
      </trkpt>
      <trkpt lat="47.13077" lon="5.4414">
        <ele>208.26</ele>
        <time>2021-07-18T17:58:08Z</time>
      </trkpt>
      <trkpt lat="47.13146" lon="5.44613">
        <ele>207.3</ele>
        <time>2021-07-18T17:58:20Z</time>
      </trkpt>
      <trkpt lat="47.1327" lon="5.45177">
        <ele>212.11</ele>
        <time>2021-07-18T17:58:35Z</time>
      </trkpt>
      <trkpt lat="47.13431" lon="5.45823">
        <ele>217.88</ele>
        <time>2021-07-18T17:58:53Z</time>
      </trkpt>
      <trkpt lat="47.13535" lon="5.46317">
        <ele>222.2</ele>
        <time>2021-07-18T17:59:06Z</time>
      </trkpt>
      <trkpt lat="47.13589" lon="5.46767">
        <ele>223.16</ele>
        <time>2021-07-18T17:59:17Z</time>
      </trkpt>
      <trkpt lat="47.13608" lon="5.47284">
        <ele>219.8</ele>
        <time>2021-07-18T17:59:29Z</time>
      </trkpt>
      <trkpt lat="47.13583" lon="5.47782">
        <ele>220.76</ele>
        <time>2021-07-18T17:59:41Z</time>
      </trkpt>
      <trkpt lat="47.13544" lon="5.48268">
        <ele>232.78</ele>
        <time>2021-07-18T17:59:54Z</time>
      </trkpt>
      <trkpt lat="47.13553" lon="5.48735">
        <ele>247.2</ele>
        <time>2021-07-18T18:00:07Z</time>
      </trkpt>
      <trkpt lat="47.13612" lon="5.49165">
        <ele>258.73</ele>
        <time>2021-07-18T18:00:19Z</time>
      </trkpt>
      <trkpt lat="47.13733" lon="5.49717">
        <ele>259.69</ele>
        <time>2021-07-18T18:00:34Z</time>
      </trkpt>
      <trkpt lat="47.13817" lon="5.50214">
        <ele>259.21</ele>
        <time>2021-07-18T18:00:47Z</time>
      </trkpt>
      <trkpt lat="47.13849" lon="5.5068">
        <ele>259.21</ele>
        <time>2021-07-18T18:00:59Z</time>
      </trkpt>
      <trkpt lat="47.1383" lon="5.5117">
        <ele>253.93</ele>
        <time>2021-07-18T18:01:11Z</time>
      </trkpt>
      <trkpt lat="47.13755" lon="5.5177">
        <ele>251.04</ele>
        <time>2021-07-18T18:01:26Z</time>
      </trkpt>
      <trkpt lat="47.13661" lon="5.52459">
        <ele>245.75</ele>
        <time>2021-07-18T18:01:43Z</time>
      </trkpt>
      <trkpt lat="47.13628" lon="5.53024">
        <ele>239.99</ele>
        <time>2021-07-18T18:01:57Z</time>
      </trkpt>
      <trkpt lat="47.13644" lon="5.53545">
        <ele>234.7</ele>
        <time>2021-07-18T18:02:10Z</time>
      </trkpt>
      <trkpt lat="47.13705" lon="5.54029">
        <ele>228.93</ele>
        <time>2021-07-18T18:02:22Z</time>
      </trkpt>
      <trkpt lat="47.13813" lon="5.5454">
        <ele>222.68</ele>
        <time>2021-07-18T18:02:35Z</time>
      </trkpt>
      <trkpt lat="47.13976" lon="5.55107">
        <ele>217.4</ele>
        <time>2021-07-18T18:02:50Z</time>
      </trkpt>
      <trkpt lat="47.14217" lon="5.55833">
        <ele>216.91</ele>
        <time>2021-07-18T18:03:10Z</time>
      </trkpt>
      <trkpt lat="47.14434" lon="5.56502">
        <ele>223.64</ele>
        <time>2021-07-18T18:03:29Z</time>
      </trkpt>
      <trkpt lat="47.14607" lon="5.57107">
        <ele>231.81</ele>
        <time>2021-07-18T18:03:47Z</time>
      </trkpt>
      <trkpt lat="47.14757" lon="5.57799">
        <ele>241.43</ele>
        <time>2021-07-18T18:04:07Z</time>
      </trkpt>
      <trkpt lat="47.14835" lon="5.58388">
        <ele>245.75</ele>
        <time>2021-07-18T18:04:23Z</time>
      </trkpt>
      <trkpt lat="47.149" lon="5.59089">
        <ele>244.79</ele>
        <time>2021-07-18T18:04:41Z</time>
      </trkpt>
      <trkpt lat="47.14978" lon="5.59532">
        <ele>235.66</ele>
        <time>2021-07-18T18:04:52Z</time>
      </trkpt>
      <trkpt lat="47.15096" lon="5.5992">
        <ele>228.45</ele>
        <time>2021-07-18T18:05:02Z</time>
      </trkpt>
      <trkpt lat="47.15244" lon="5.60253">
        <ele>224.12</ele>
        <time>2021-07-18T18:05:11Z</time>
      </trkpt>
      <trkpt lat="47.15439" lon="5.60578">
        <ele>220.28</ele>
        <time>2021-07-18T18:05:21Z</time>
      </trkpt>
      <trkpt lat="47.15697" lon="5.60885">
        <ele>224.12</ele>
        <time>2021-07-18T18:05:33Z</time>
      </trkpt>
      <trkpt lat="47.15981" lon="5.61205">
        <ele>230.37</ele>
        <time>2021-07-18T18:05:47Z</time>
      </trkpt>
      <trkpt lat="47.16184" lon="5.61529">
        <ele>237.1</ele>
        <time>2021-07-18T18:05:59Z</time>
      </trkpt>
      <trkpt lat="47.1634" lon="5.61876">
        <ele>237.58</ele>
        <time>2021-07-18T18:06:10Z</time>
      </trkpt>
      <trkpt lat="47.16454" lon="5.62246">
        <ele>232.3</ele>
        <time>2021-07-18T18:06:20Z</time>
      </trkpt>
      <trkpt lat="47.16529" lon="5.62652">
        <ele>230.37</ele>
        <time>2021-07-18T18:06:30Z</time>
      </trkpt>
      <trkpt lat="47.16571" lon="5.63166">
        <ele>226.05</ele>
        <time>2021-07-18T18:06:42Z</time>
      </trkpt>
      <trkpt lat="47.16589" lon="5.63782">
        <ele>231.81</ele>
        <time>2021-07-18T18:06:57Z</time>
      </trkpt>
      <trkpt lat="47.16624" lon="5.64367">
        <ele>240.95</ele>
        <time>2021-07-18T18:07:12Z</time>
      </trkpt>
      <trkpt lat="47.16696" lon="5.64771">
        <ele>247.68</ele>
        <time>2021-07-18T18:07:23Z</time>
      </trkpt>
      <trkpt lat="47.16809" lon="5.65125">
        <ele>246.72</ele>
        <time>2021-07-18T18:07:33Z</time>
      </trkpt>
      <trkpt lat="47.17021" lon="5.65581">
        <ele>237.58</ele>
        <time>2021-07-18T18:07:46Z</time>
      </trkpt>
      <trkpt lat="47.17352" lon="5.66265">
        <ele>228.45</ele>
        <time>2021-07-18T18:08:05Z</time>
      </trkpt>
      <trkpt lat="47.17534" lon="5.66702">
        <ele>229.41</ele>
        <time>2021-07-18T18:08:17Z</time>
      </trkpt>
      <trkpt lat="47.17607" lon="5.67026">
        <ele>231.33</ele>
        <time>2021-07-18T18:08:25Z</time>
      </trkpt>
      <trkpt lat="47.17695" lon="5.67519">
        <ele>235.18</ele>
        <time>2021-07-18T18:08:37Z</time>
      </trkpt>
      <trkpt lat="47.17793" lon="5.67818">
        <ele>237.1</ele>
        <time>2021-07-18T18:08:45Z</time>
      </trkpt>
      <trkpt lat="47.17945" lon="5.68112">
        <ele>238.54</ele>
        <time>2021-07-18T18:08:54Z</time>
      </trkpt>
      <trkpt lat="47.18203" lon="5.68591">
        <ele>239.51</ele>
        <time>2021-07-18T18:09:08Z</time>
      </trkpt>
      <trkpt lat="47.18289" lon="5.68889">
        <ele>239.02</ele>
        <time>2021-07-18T18:09:17Z</time>
      </trkpt>
      <trkpt lat="47.18353" lon="5.69281">
        <ele>242.87</ele>
        <time>2021-07-18T18:09:26Z</time>
      </trkpt>
      <trkpt lat="47.18421" lon="5.69673">
        <ele>246.72</ele>
        <time>2021-07-18T18:09:37Z</time>
      </trkpt>
      <trkpt lat="47.18559" lon="5.70114">
        <ele>248.16</ele>
        <time>2021-07-18T18:09:49Z</time>
      </trkpt>
      <trkpt lat="47.18617" lon="5.70396">
        <ele>246.72</ele>
        <time>2021-07-18T18:09:56Z</time>
      </trkpt>
      <trkpt lat="47.18633" lon="5.70732">
        <ele>245.75</ele>
        <time>2021-07-18T18:10:04Z</time>
      </trkpt>
      <trkpt lat="47.18593" lon="5.71253">
        <ele>243.83</ele>
        <time>2021-07-18T18:10:16Z</time>
      </trkpt>
      <trkpt lat="47.18608" lon="5.71595">
        <ele>244.31</ele>
        <time>2021-07-18T18:10:24Z</time>
      </trkpt>
      <trkpt lat="47.18674" lon="5.71953">
        <ele>247.68</ele>
        <time>2021-07-18T18:10:33Z</time>
      </trkpt>
      <trkpt lat="47.18734" lon="5.72329">
        <ele>253.93</ele>
        <time>2021-07-18T18:10:43Z</time>
      </trkpt>
      <trkpt lat="47.18737" lon="5.72696">
        <ele>259.21</ele>
        <time>2021-07-18T18:10:52Z</time>
      </trkpt>
      <trkpt lat="47.1869" lon="5.73094">
        <ele>264.98</ele>
        <time>2021-07-18T18:11:04Z</time>
      </trkpt>
      <trkpt lat="47.18629" lon="5.73595">
        <ele>261.14</ele>
        <time>2021-07-18T18:11:17Z</time>
      </trkpt>
      <trkpt lat="47.18631" lon="5.73928">
        <ele>255.85</ele>
        <time>2021-07-18T18:11:25Z</time>
      </trkpt>
      <trkpt lat="47.18686" lon="5.74263">
        <ele>252.96</ele>
        <time>2021-07-18T18:11:33Z</time>
      </trkpt>
      <trkpt lat="47.18784" lon="5.74576">
        <ele>255.37</ele>
        <time>2021-07-18T18:11:41Z</time>
      </trkpt>
      <trkpt lat="47.1902" lon="5.75144">
        <ele>263.54</ele>
        <time>2021-07-18T18:11:57Z</time>
      </trkpt>
      <trkpt lat="47.19189" lon="5.75625">
        <ele>265.46</ele>
        <time>2021-07-18T18:12:10Z</time>
      </trkpt>
      <trkpt lat="47.19302" lon="5.76142">
        <ele>263.54</ele>
        <time>2021-07-18T18:12:23Z</time>
      </trkpt>
      <trkpt lat="47.19356" lon="5.76621">
        <ele>262.58</ele>
        <time>2021-07-18T18:12:35Z</time>
      </trkpt>
      <trkpt lat="47.19365" lon="5.77138">
        <ele>265.46</ele>
        <time>2021-07-18T18:12:48Z</time>
      </trkpt>
      <trkpt lat="47.19335" lon="5.77746">
        <ele>265.94</ele>
        <time>2021-07-18T18:13:03Z</time>
      </trkpt>
      <trkpt lat="47.19267" lon="5.78474">
        <ele>271.23</ele>
        <time>2021-07-18T18:13:21Z</time>
      </trkpt>
      <trkpt lat="47.19242" lon="5.78994">
        <ele>277</ele>
        <time>2021-07-18T18:13:34Z</time>
      </trkpt>
      <trkpt lat="47.19269" lon="5.79352">
        <ele>279.4</ele>
        <time>2021-07-18T18:13:43Z</time>
      </trkpt>
      <trkpt lat="47.1935" lon="5.79691">
        <ele>282.28</ele>
        <time>2021-07-18T18:13:52Z</time>
      </trkpt>
      <trkpt lat="47.19478" lon="5.79996">
        <ele>284.69</ele>
        <time>2021-07-18T18:14:01Z</time>
      </trkpt>
      <trkpt lat="47.19729" lon="5.80469">
        <ele>286.13</ele>
        <time>2021-07-18T18:14:16Z</time>
      </trkpt>
      <trkpt lat="47.19825" lon="5.80759">
        <ele>284.69</ele>
        <time>2021-07-18T18:14:24Z</time>
      </trkpt>
      <trkpt lat="47.19868" lon="5.81048">
        <ele>281.8</ele>
        <time>2021-07-18T18:14:31Z</time>
      </trkpt>
      <trkpt lat="47.1987" lon="5.81437">
        <ele>277</ele>
        <time>2021-07-18T18:14:40Z</time>
      </trkpt>
      <trkpt lat="47.19879" lon="5.81855">
        <ele>272.67</ele>
        <time>2021-07-18T18:14:50Z</time>
      </trkpt>
      <trkpt lat="47.19936" lon="5.82156">
        <ele>271.71</ele>
        <time>2021-07-18T18:14:58Z</time>
      </trkpt>
      <trkpt lat="47.20036" lon="5.82414">
        <ele>268.83</ele>
        <time>2021-07-18T18:15:06Z</time>
      </trkpt>
      <trkpt lat="47.20205" lon="5.82697">
        <ele>267.38</ele>
        <time>2021-07-18T18:15:16Z</time>
      </trkpt>
      <trkpt lat="47.20469" lon="5.83011">
        <ele>264.5</ele>
        <time>2021-07-18T18:15:29Z</time>
      </trkpt>
      <trkpt lat="47.20723" lon="5.83286">
        <ele>265.94</ele>
        <time>2021-07-18T18:15:41Z</time>
      </trkpt>
      <trkpt lat="47.21022" lon="5.83663">
        <ele>271.71</ele>
        <time>2021-07-18T18:15:55Z</time>
      </trkpt>
      <trkpt lat="47.21173" lon="5.83929">
        <ele>271.71</ele>
        <time>2021-07-18T18:16:05Z</time>
      </trkpt>
      <trkpt lat="47.21286" lon="5.84229">
        <ele>271.23</ele>
        <time>2021-07-18T18:16:14Z</time>
      </trkpt>
      <trkpt lat="47.21348" lon="5.84563">
        <ele>270.75</ele>
        <time>2021-07-18T18:16:23Z</time>
      </trkpt>
      <trkpt lat="47.21374" lon="5.84845">
        <ele>271.23</ele>
        <time>2021-07-18T18:16:31Z</time>
      </trkpt>
      <trkpt lat="47.21383" lon="5.85199">
        <ele>274.11</ele>
        <time>2021-07-18T18:16:42Z</time>
      </trkpt>
      <trkpt lat="47.21386" lon="5.85244">
        <ele>274.59</ele>
        <time>2021-07-18T18:16:46Z</time>
      </trkpt>
      <trkpt lat="47.2139" lon="5.85278">
        <ele>275.07</ele>
        <time>2021-07-18T18:16:54Z</time>
      </trkpt>
      <trkpt lat="47.21398" lon="5.85361">
        <ele>274.59</ele>
        <time>2021-07-18T18:17:03Z</time>
      </trkpt>
      <trkpt lat="47.21404" lon="5.85415">
        <ele>274.59</ele>
        <time>2021-07-18T18:17:08Z</time>
      </trkpt>
      <trkpt lat="47.21405" lon="5.85421">
        <ele>275.07</ele>
        <time>2021-07-18T18:17:10Z</time>
      </trkpt>
      <trkpt lat="47.21401" lon="5.85429">
        <ele>275.07</ele>
        <time>2021-07-18T18:17:11Z</time>
      </trkpt>
      <trkpt lat="47.21391" lon="5.85451">
        <ele>276.04</ele>
        <time>2021-07-18T18:17:19Z</time>
      </trkpt>
      <trkpt lat="47.21391" lon="5.85451">
        <ele>277.96</ele>
        <time>2021-07-18T18:21:33Z</time>
      </trkpt>
      <trkpt lat="47.21391" lon="5.85451">
        <ele>277.48</ele>
        <time>2021-07-18T18:21:42Z</time>
      </trkpt>
      <trkpt lat="47.21391" lon="5.85451">
        <ele>277.48</ele>
        <time>2021-07-18T18:21:43Z</time>
      </trkpt>
      <trkpt lat="47.2139" lon="5.85452">
        <ele>277</ele>
        <time>2021-07-18T18:21:44Z</time>
      </trkpt>
      <trkpt lat="47.21389" lon="5.85454">
        <ele>277</ele>
        <time>2021-07-18T18:21:45Z</time>
      </trkpt>
      <trkpt lat="47.21389" lon="5.85456">
        <ele>277</ele>
        <time>2021-07-18T18:21:46Z</time>
      </trkpt>
      <trkpt lat="47.21388" lon="5.85458">
        <ele>277</ele>
        <time>2021-07-18T18:21:47Z</time>
      </trkpt>
      <trkpt lat="47.21386" lon="5.85461">
        <ele>276.52</ele>
        <time>2021-07-18T18:21:48Z</time>
      </trkpt>
      <trkpt lat="47.21385" lon="5.85464">
        <ele>276.52</ele>
        <time>2021-07-18T18:21:49Z</time>
      </trkpt>
      <trkpt lat="47.21383" lon="5.85467">
        <ele>276.04</ele>
        <time>2021-07-18T18:21:50Z</time>
      </trkpt>
      <trkpt lat="47.21352" lon="5.85534">
        <ele>275.07</ele>
        <time>2021-07-18T18:22:02Z</time>
      </trkpt>
      <trkpt lat="47.21337" lon="5.85567">
        <ele>273.63</ele>
        <time>2021-07-18T18:22:08Z</time>
      </trkpt>
      <trkpt lat="47.21335" lon="5.85573">
        <ele>273.63</ele>
        <time>2021-07-18T18:22:09Z</time>
      </trkpt>
      <trkpt lat="47.21334" lon="5.8558">
        <ele>273.63</ele>
        <time>2021-07-18T18:22:10Z</time>
      </trkpt>
      <trkpt lat="47.21332" lon="5.85588">
        <ele>273.15</ele>
        <time>2021-07-18T18:22:11Z</time>
      </trkpt>
      <trkpt lat="47.21333" lon="5.85595">
        <ele>273.15</ele>
        <time>2021-07-18T18:22:12Z</time>
      </trkpt>
      <trkpt lat="47.21334" lon="5.85601">
        <ele>272.67</ele>
        <time>2021-07-18T18:22:13Z</time>
      </trkpt>
      <trkpt lat="47.21339" lon="5.85607">
        <ele>272.19</ele>
        <time>2021-07-18T18:22:15Z</time>
      </trkpt>
      <trkpt lat="47.21349" lon="5.85616">
        <ele>272.19</ele>
        <time>2021-07-18T18:22:16Z</time>
      </trkpt>
      <trkpt lat="47.21353" lon="5.85615">
        <ele>272.19</ele>
        <time>2021-07-18T18:22:17Z</time>
      </trkpt>
      <trkpt lat="47.21359" lon="5.85614">
        <ele>272.19</ele>
        <time>2021-07-18T18:22:18Z</time>
      </trkpt>
      <trkpt lat="47.21365" lon="5.85612">
        <ele>271.71</ele>
        <time>2021-07-18T18:22:19Z</time>
      </trkpt>
      <trkpt lat="47.2137" lon="5.85605">
        <ele>272.19</ele>
        <time>2021-07-18T18:22:20Z</time>
      </trkpt>
      <trkpt lat="47.21373" lon="5.85597">
        <ele>272.19</ele>
        <time>2021-07-18T18:22:21Z</time>
      </trkpt>
      <trkpt lat="47.21377" lon="5.8559">
        <ele>272.19</ele>
        <time>2021-07-18T18:22:22Z</time>
      </trkpt>
      <trkpt lat="47.21407" lon="5.85528">
        <ele>271.71</ele>
        <time>2021-07-18T18:22:33Z</time>
      </trkpt>
      <trkpt lat="47.2141" lon="5.85521">
        <ele>272.67</ele>
        <time>2021-07-18T18:22:34Z</time>
      </trkpt>
      <trkpt lat="47.21415" lon="5.85514">
        <ele>273.63</ele>
        <time>2021-07-18T18:22:35Z</time>
      </trkpt>
      <trkpt lat="47.21421" lon="5.8551">
        <ele>273.63</ele>
        <time>2021-07-18T18:22:36Z</time>
      </trkpt>
      <trkpt lat="47.21428" lon="5.85509">
        <ele>273.63</ele>
        <time>2021-07-18T18:22:37Z</time>
      </trkpt>
      <trkpt lat="47.21435" lon="5.85509">
        <ele>273.63</ele>
        <time>2021-07-18T18:22:38Z</time>
      </trkpt>
      <trkpt lat="47.21441" lon="5.85514">
        <ele>274.11</ele>
        <time>2021-07-18T18:22:39Z</time>
      </trkpt>
      <trkpt lat="47.21446" lon="5.8552">
        <ele>274.59</ele>
        <time>2021-07-18T18:22:40Z</time>
      </trkpt>
      <trkpt lat="47.21451" lon="5.85529">
        <ele>274.59</ele>
        <time>2021-07-18T18:22:41Z</time>
      </trkpt>
      <trkpt lat="47.21455" lon="5.8554">
        <ele>275.07</ele>
        <time>2021-07-18T18:22:42Z</time>
      </trkpt>
      <trkpt lat="47.21501" lon="5.85677">
        <ele>274.59</ele>
        <time>2021-07-18T18:22:51Z</time>
      </trkpt>
      <trkpt lat="47.21589" lon="5.85855">
        <ele>271.23</ele>
        <time>2021-07-18T18:22:59Z</time>
      </trkpt>
      <trkpt lat="47.21699" lon="5.86091">
        <ele>265.46</ele>
        <time>2021-07-18T18:23:09Z</time>
      </trkpt>
      <trkpt lat="47.21835" lon="5.86424">
        <ele>255.85</ele>
        <time>2021-07-18T18:23:20Z</time>
      </trkpt>
      <trkpt lat="47.21911" lon="5.8675">
        <ele>247.68</ele>
        <time>2021-07-18T18:23:29Z</time>
      </trkpt>
      <trkpt lat="47.22009" lon="5.87289">
        <ele>237.1</ele>
        <time>2021-07-18T18:23:43Z</time>
      </trkpt>
      <trkpt lat="47.22127" lon="5.87684">
        <ele>240.95</ele>
        <time>2021-07-18T18:23:54Z</time>
      </trkpt>
      <trkpt lat="47.22278" lon="5.8801">
        <ele>250.08</ele>
        <time>2021-07-18T18:24:04Z</time>
      </trkpt>
      <trkpt lat="47.22416" lon="5.88193">
        <ele>259.21</ele>
        <time>2021-07-18T18:24:13Z</time>
      </trkpt>
      <trkpt lat="47.22619" lon="5.88366">
        <ele>270.27</ele>
        <time>2021-07-18T18:24:23Z</time>
      </trkpt>
      <trkpt lat="47.22831" lon="5.88556">
        <ele>274.59</ele>
        <time>2021-07-18T18:24:33Z</time>
      </trkpt>
      <trkpt lat="47.22985" lon="5.88769">
        <ele>270.27</ele>
        <time>2021-07-18T18:24:41Z</time>
      </trkpt>
      <trkpt lat="47.232" lon="5.89128">
        <ele>263.54</ele>
        <time>2021-07-18T18:24:53Z</time>
      </trkpt>
      <trkpt lat="47.23409" lon="5.89325">
        <ele>261.14</ele>
        <time>2021-07-18T18:25:01Z</time>
      </trkpt>
      <trkpt lat="47.23585" lon="5.89414">
        <ele>258.73</ele>
        <time>2021-07-18T18:25:09Z</time>
      </trkpt>
      <trkpt lat="47.23796" lon="5.8945">
        <ele>261.62</ele>
        <time>2021-07-18T18:25:17Z</time>
      </trkpt>
      <trkpt lat="47.24104" lon="5.8944">
        <ele>267.38</ele>
        <time>2021-07-18T18:25:29Z</time>
      </trkpt>
      <trkpt lat="47.24303" lon="5.89493">
        <ele>280.84</ele>
        <time>2021-07-18T18:25:37Z</time>
      </trkpt>
      <trkpt lat="47.24493" lon="5.89614">
        <ele>285.65</ele>
        <time>2021-07-18T18:25:45Z</time>
      </trkpt>
      <trkpt lat="47.24664" lon="5.89808">
        <ele>282.28</ele>
        <time>2021-07-18T18:25:53Z</time>
      </trkpt>
      <trkpt lat="47.24806" lon="5.90065">
        <ele>278.92</ele>
        <time>2021-07-18T18:26:01Z</time>
      </trkpt>
      <trkpt lat="47.24967" lon="5.9042">
        <ele>267.38</ele>
        <time>2021-07-18T18:26:11Z</time>
      </trkpt>
      <trkpt lat="47.25128" lon="5.90644">
        <ele>257.77</ele>
        <time>2021-07-18T18:26:19Z</time>
      </trkpt>
      <trkpt lat="47.25384" lon="5.90882">
        <ele>245.75</ele>
        <time>2021-07-18T18:26:30Z</time>
      </trkpt>
      <trkpt lat="47.25592" lon="5.91131">
        <ele>239.99</ele>
        <time>2021-07-18T18:26:40Z</time>
      </trkpt>
      <trkpt lat="47.25782" lon="5.91453">
        <ele>237.1</ele>
        <time>2021-07-18T18:26:51Z</time>
      </trkpt>
      <trkpt lat="47.26046" lon="5.91923">
        <ele>235.66</ele>
        <time>2021-07-18T18:27:07Z</time>
      </trkpt>
      <trkpt lat="47.26211" lon="5.92104">
        <ele>235.18</ele>
        <time>2021-07-18T18:27:15Z</time>
      </trkpt>
      <trkpt lat="47.26475" lon="5.92294">
        <ele>233.26</ele>
        <time>2021-07-18T18:27:26Z</time>
      </trkpt>
      <trkpt lat="47.26763" lon="5.92527">
        <ele>237.1</ele>
        <time>2021-07-18T18:27:39Z</time>
      </trkpt>
      <trkpt lat="47.26993" lon="5.92798">
        <ele>244.79</ele>
        <time>2021-07-18T18:27:51Z</time>
      </trkpt>
      <trkpt lat="47.27158" lon="5.9308">
        <ele>249.6</ele>
        <time>2021-07-18T18:28:01Z</time>
      </trkpt>
      <trkpt lat="47.27259" lon="5.93357">
        <ele>245.75</ele>
        <time>2021-07-18T18:28:09Z</time>
      </trkpt>
      <trkpt lat="47.27399" lon="5.93927">
        <ele>248.64</ele>
        <time>2021-07-18T18:28:23Z</time>
      </trkpt>
      <trkpt lat="47.27523" lon="5.94285">
        <ele>257.77</ele>
        <time>2021-07-18T18:28:33Z</time>
      </trkpt>
      <trkpt lat="47.27697" lon="5.94725">
        <ele>265.94</ele>
        <time>2021-07-18T18:28:47Z</time>
      </trkpt>
      <trkpt lat="47.27762" lon="5.95052">
        <ele>269.79</ele>
        <time>2021-07-18T18:28:56Z</time>
      </trkpt>
      <trkpt lat="47.27769" lon="5.95383">
        <ele>279.4</ele>
        <time>2021-07-18T18:29:05Z</time>
      </trkpt>
      <trkpt lat="47.27724" lon="5.95704">
        <ele>289.97</ele>
        <time>2021-07-18T18:29:14Z</time>
      </trkpt>
      <trkpt lat="47.27589" lon="5.96283">
        <ele>305.36</ele>
        <time>2021-07-18T18:29:31Z</time>
      </trkpt>
      <trkpt lat="47.27505" lon="5.96708">
        <ele>312.57</ele>
        <time>2021-07-18T18:29:43Z</time>
      </trkpt>
      <trkpt lat="47.27493" lon="5.97016">
        <ele>312.57</ele>
        <time>2021-07-18T18:29:51Z</time>
      </trkpt>
      <trkpt lat="47.27532" lon="5.97336">
        <ele>310.64</ele>
        <time>2021-07-18T18:29:59Z</time>
      </trkpt>
      <trkpt lat="47.27623" lon="5.97631">
        <ele>312.09</ele>
        <time>2021-07-18T18:30:07Z</time>
      </trkpt>
      <trkpt lat="47.27773" lon="5.98086">
        <ele>319.3</ele>
        <time>2021-07-18T18:30:19Z</time>
      </trkpt>
      <trkpt lat="47.27828" lon="5.98411">
        <ele>323.14</ele>
        <time>2021-07-18T18:30:29Z</time>
      </trkpt>
      <trkpt lat="47.27922" lon="5.99">
        <ele>330.83</ele>
        <time>2021-07-18T18:30:46Z</time>
      </trkpt>
      <trkpt lat="47.28021" lon="5.9945">
        <ele>338.04</ele>
        <time>2021-07-18T18:30:58Z</time>
      </trkpt>
      <trkpt lat="47.28133" lon="5.99744">
        <ele>343.81</ele>
        <time>2021-07-18T18:31:08Z</time>
      </trkpt>
      <trkpt lat="47.28287" lon="6.00012">
        <ele>349.1</ele>
        <time>2021-07-18T18:31:16Z</time>
      </trkpt>
      <trkpt lat="47.28482" lon="6.00302">
        <ele>353.42</ele>
        <time>2021-07-18T18:31:27Z</time>
      </trkpt>
      <trkpt lat="47.28597" lon="6.00576">
        <ele>356.31</ele>
        <time>2021-07-18T18:31:35Z</time>
      </trkpt>
      <trkpt lat="47.28721" lon="6.00976">
        <ele>360.63</ele>
        <time>2021-07-18T18:31:46Z</time>
      </trkpt>
      <trkpt lat="47.28857" lon="6.01243">
        <ele>362.55</ele>
        <time>2021-07-18T18:31:54Z</time>
      </trkpt>
      <trkpt lat="47.29054" lon="6.01485">
        <ele>358.71</ele>
        <time>2021-07-18T18:32:03Z</time>
      </trkpt>
      <trkpt lat="47.2941" lon="6.01875">
        <ele>358.23</ele>
        <time>2021-07-18T18:32:18Z</time>
      </trkpt>
      <trkpt lat="47.29607" lon="6.02129">
        <ele>364.96</ele>
        <time>2021-07-18T18:32:29Z</time>
      </trkpt>
      <trkpt lat="47.29724" lon="6.02374">
        <ele>372.65</ele>
        <time>2021-07-18T18:32:37Z</time>
      </trkpt>
      <trkpt lat="47.29821" lon="6.02716">
        <ele>382.74</ele>
        <time>2021-07-18T18:32:47Z</time>
      </trkpt>
      <trkpt lat="47.29927" lon="6.03007">
        <ele>392.84</ele>
        <time>2021-07-18T18:32:56Z</time>
      </trkpt>
      <trkpt lat="47.30079" lon="6.0326">
        <ele>393.32</ele>
        <time>2021-07-18T18:33:05Z</time>
      </trkpt>
      <trkpt lat="47.30294" lon="6.0357">
        <ele>393.32</ele>
        <time>2021-07-18T18:33:16Z</time>
      </trkpt>
      <trkpt lat="47.30412" lon="6.03858">
        <ele>395.72</ele>
        <time>2021-07-18T18:33:23Z</time>
      </trkpt>
      <trkpt lat="47.30481" lon="6.04138">
        <ele>396.2</ele>
        <time>2021-07-18T18:33:31Z</time>
      </trkpt>
      <trkpt lat="47.30519" lon="6.04482">
        <ele>388.51</ele>
        <time>2021-07-18T18:33:39Z</time>
      </trkpt>
      <trkpt lat="47.30533" lon="6.04933">
        <ele>383.7</ele>
        <time>2021-07-18T18:33:50Z</time>
      </trkpt>
      <trkpt lat="47.3056" lon="6.05408">
        <ele>383.22</ele>
        <time>2021-07-18T18:34:02Z</time>
      </trkpt>
      <trkpt lat="47.30632" lon="6.05703">
        <ele>380.82</ele>
        <time>2021-07-18T18:34:10Z</time>
      </trkpt>
      <trkpt lat="47.30758" lon="6.06014">
        <ele>381.3</ele>
        <time>2021-07-18T18:34:19Z</time>
      </trkpt>
      <trkpt lat="47.31088" lon="6.06714">
        <ele>376.97</ele>
        <time>2021-07-18T18:34:38Z</time>
      </trkpt>
      <trkpt lat="47.31343" lon="6.07338">
        <ele>375.53</ele>
        <time>2021-07-18T18:34:56Z</time>
      </trkpt>
      <trkpt lat="47.31538" lon="6.07931">
        <ele>377.45</ele>
        <time>2021-07-18T18:35:12Z</time>
      </trkpt>
      <trkpt lat="47.31713" lon="6.08587">
        <ele>378.42</ele>
        <time>2021-07-18T18:35:29Z</time>
      </trkpt>
      <trkpt lat="47.31866" lon="6.09317">
        <ele>382.26</ele>
        <time>2021-07-18T18:35:48Z</time>
      </trkpt>
      <trkpt lat="47.32018" lon="6.10009">
        <ele>384.18</ele>
        <time>2021-07-18T18:36:06Z</time>
      </trkpt>
      <trkpt lat="47.32162" lon="6.10455">
        <ele>375.53</ele>
        <time>2021-07-18T18:36:18Z</time>
      </trkpt>
      <trkpt lat="47.32336" lon="6.10938">
        <ele>362.07</ele>
        <time>2021-07-18T18:36:31Z</time>
      </trkpt>
      <trkpt lat="47.32456" lon="6.11346">
        <ele>351.02</ele>
        <time>2021-07-18T18:36:42Z</time>
      </trkpt>
      <trkpt lat="47.32579" lon="6.1193">
        <ele>340.44</ele>
        <time>2021-07-18T18:36:57Z</time>
      </trkpt>
      <trkpt lat="47.3271" lon="6.1236">
        <ele>336.6</ele>
        <time>2021-07-18T18:37:08Z</time>
      </trkpt>
      <trkpt lat="47.329" lon="6.12892">
        <ele>328.43</ele>
        <time>2021-07-18T18:37:24Z</time>
      </trkpt>
      <trkpt lat="47.33003" lon="6.13313">
        <ele>322.18</ele>
        <time>2021-07-18T18:37:35Z</time>
      </trkpt>
      <trkpt lat="47.33116" lon="6.13945">
        <ele>315.93</ele>
        <time>2021-07-18T18:37:51Z</time>
      </trkpt>
      <trkpt lat="47.33231" lon="6.14358">
        <ele>311.6</ele>
        <time>2021-07-18T18:38:02Z</time>
      </trkpt>
      <trkpt lat="47.33455" lon="6.14965">
        <ele>302.47</ele>
        <time>2021-07-18T18:38:19Z</time>
      </trkpt>
      <trkpt lat="47.33604" lon="6.15444">
        <ele>298.15</ele>
        <time>2021-07-18T18:38:32Z</time>
      </trkpt>
      <trkpt lat="47.337" lon="6.15904">
        <ele>297.18</ele>
        <time>2021-07-18T18:38:44Z</time>
      </trkpt>
      <trkpt lat="47.3376" lon="6.16397">
        <ele>293.82</ele>
        <time>2021-07-18T18:38:56Z</time>
      </trkpt>
      <trkpt lat="47.33779" lon="6.16895">
        <ele>288.53</ele>
        <time>2021-07-18T18:39:08Z</time>
      </trkpt>
      <trkpt lat="47.33751" lon="6.175">
        <ele>283.25</ele>
        <time>2021-07-18T18:39:22Z</time>
      </trkpt>
      <trkpt lat="47.33717" lon="6.18281">
        <ele>281.32</ele>
        <time>2021-07-18T18:39:40Z</time>
      </trkpt>
      <trkpt lat="47.33738" lon="6.18777">
        <ele>289.49</ele>
        <time>2021-07-18T18:39:52Z</time>
      </trkpt>
      <trkpt lat="47.33788" lon="6.19557">
        <ele>304.88</ele>
        <time>2021-07-18T18:40:12Z</time>
      </trkpt>
      <trkpt lat="47.33829" lon="6.20274">
        <ele>309.68</ele>
        <time>2021-07-18T18:40:30Z</time>
      </trkpt>
      <trkpt lat="47.33818" lon="6.20842">
        <ele>313.53</ele>
        <time>2021-07-18T18:40:44Z</time>
      </trkpt>
      <trkpt lat="47.33784" lon="6.2164">
        <ele>319.3</ele>
        <time>2021-07-18T18:41:04Z</time>
      </trkpt>
      <trkpt lat="47.33801" lon="6.22174">
        <ele>317.37</ele>
        <time>2021-07-18T18:41:17Z</time>
      </trkpt>
      <trkpt lat="47.3386" lon="6.22674">
        <ele>313.53</ele>
        <time>2021-07-18T18:41:29Z</time>
      </trkpt>
      <trkpt lat="47.33961" lon="6.23155">
        <ele>316.41</ele>
        <time>2021-07-18T18:41:41Z</time>
      </trkpt>
      <trkpt lat="47.34104" lon="6.23658">
        <ele>325.54</ele>
        <time>2021-07-18T18:41:55Z</time>
      </trkpt>
      <trkpt lat="47.34305" lon="6.24341">
        <ele>338.04</ele>
        <time>2021-07-18T18:42:15Z</time>
      </trkpt>
      <trkpt lat="47.34404" lon="6.24818">
        <ele>350.54</ele>
        <time>2021-07-18T18:42:29Z</time>
      </trkpt>
      <trkpt lat="47.34467" lon="6.25354">
        <ele>360.15</ele>
        <time>2021-07-18T18:42:44Z</time>
      </trkpt>
      <trkpt lat="47.34479" lon="6.25838">
        <ele>361.59</ele>
        <time>2021-07-18T18:42:57Z</time>
      </trkpt>
      <trkpt lat="47.34445" lon="6.26386">
        <ele>364</ele>
        <time>2021-07-18T18:43:11Z</time>
      </trkpt>
      <trkpt lat="47.34377" lon="6.26796">
        <ele>364.96</ele>
        <time>2021-07-18T18:43:23Z</time>
      </trkpt>
      <trkpt lat="47.34267" lon="6.27188">
        <ele>366.88</ele>
        <time>2021-07-18T18:43:34Z</time>
      </trkpt>
      <trkpt lat="47.34059" lon="6.27748">
        <ele>371.21</ele>
        <time>2021-07-18T18:43:50Z</time>
      </trkpt>
      <trkpt lat="47.33981" lon="6.28118">
        <ele>372.65</ele>
        <time>2021-07-18T18:43:59Z</time>
      </trkpt>
      <trkpt lat="47.33962" lon="6.28425">
        <ele>370.24</ele>
        <time>2021-07-18T18:44:08Z</time>
      </trkpt>
      <trkpt lat="47.33986" lon="6.28751">
        <ele>363.04</ele>
        <time>2021-07-18T18:44:16Z</time>
      </trkpt>
      <trkpt lat="47.34069" lon="6.29117">
        <ele>351.5</ele>
        <time>2021-07-18T18:44:25Z</time>
      </trkpt>
      <trkpt lat="47.34207" lon="6.29505">
        <ele>343.33</ele>
        <time>2021-07-18T18:44:35Z</time>
      </trkpt>
      <trkpt lat="47.34393" lon="6.29897">
        <ele>341.89</ele>
        <time>2021-07-18T18:44:46Z</time>
      </trkpt>
      <trkpt lat="47.34638" lon="6.30303">
        <ele>350.06</ele>
        <time>2021-07-18T18:44:59Z</time>
      </trkpt>
      <trkpt lat="47.3477" lon="6.30558">
        <ele>358.23</ele>
        <time>2021-07-18T18:45:07Z</time>
      </trkpt>
      <trkpt lat="47.3485" lon="6.30803">
        <ele>364.96</ele>
        <time>2021-07-18T18:45:14Z</time>
      </trkpt>
      <trkpt lat="47.34948" lon="6.31153">
        <ele>377.94</ele>
        <time>2021-07-18T18:45:24Z</time>
      </trkpt>
      <trkpt lat="47.35064" lon="6.31384">
        <ele>390.43</ele>
        <time>2021-07-18T18:45:32Z</time>
      </trkpt>
      <trkpt lat="47.35216" lon="6.31556">
        <ele>402.45</ele>
        <time>2021-07-18T18:45:40Z</time>
      </trkpt>
      <trkpt lat="47.35391" lon="6.31656">
        <ele>414.95</ele>
        <time>2021-07-18T18:45:48Z</time>
      </trkpt>
      <trkpt lat="47.35619" lon="6.31721">
        <ele>421.68</ele>
        <time>2021-07-18T18:45:58Z</time>
      </trkpt>
      <trkpt lat="47.35821" lon="6.31815">
        <ele>428.89</ele>
        <time>2021-07-18T18:46:07Z</time>
      </trkpt>
      <trkpt lat="47.36004" lon="6.31978">
        <ele>435.61</ele>
        <time>2021-07-18T18:46:16Z</time>
      </trkpt>
      <trkpt lat="47.36196" lon="6.32244">
        <ele>447.63</ele>
        <time>2021-07-18T18:46:27Z</time>
      </trkpt>
      <trkpt lat="47.36464" lon="6.32621">
        <ele>456.76</ele>
        <time>2021-07-18T18:46:42Z</time>
      </trkpt>
      <trkpt lat="47.36721" lon="6.32952">
        <ele>453.4</ele>
        <time>2021-07-18T18:46:55Z</time>
      </trkpt>
      <trkpt lat="47.36842" lon="6.33192">
        <ele>446.19</ele>
        <time>2021-07-18T18:47:02Z</time>
      </trkpt>
      <trkpt lat="47.36985" lon="6.33543">
        <ele>437.54</ele>
        <time>2021-07-18T18:47:12Z</time>
      </trkpt>
      <trkpt lat="47.37188" lon="6.33938">
        <ele>429.85</ele>
        <time>2021-07-18T18:47:23Z</time>
      </trkpt>
      <trkpt lat="47.3727" lon="6.34202">
        <ele>425.04</ele>
        <time>2021-07-18T18:47:31Z</time>
      </trkpt>
      <trkpt lat="47.37364" lon="6.34665">
        <ele>427.44</ele>
        <time>2021-07-18T18:47:43Z</time>
      </trkpt>
      <trkpt lat="47.37417" lon="6.35133">
        <ele>433.69</ele>
        <time>2021-07-18T18:47:55Z</time>
      </trkpt>
      <trkpt lat="47.37429" lon="6.35721">
        <ele>441.86</ele>
        <time>2021-07-18T18:48:09Z</time>
      </trkpt>
      <trkpt lat="47.37397" lon="6.36314">
        <ele>444.75</ele>
        <time>2021-07-18T18:48:25Z</time>
      </trkpt>
      <trkpt lat="47.37378" lon="6.36875">
        <ele>430.81</ele>
        <time>2021-07-18T18:48:39Z</time>
      </trkpt>
      <trkpt lat="47.37404" lon="6.37399">
        <ele>425.04</ele>
        <time>2021-07-18T18:48:51Z</time>
      </trkpt>
      <trkpt lat="47.3744" lon="6.3788">
        <ele>429.85</ele>
        <time>2021-07-18T18:49:04Z</time>
      </trkpt>
      <trkpt lat="47.37449" lon="6.38446">
        <ele>437.54</ele>
        <time>2021-07-18T18:49:18Z</time>
      </trkpt>
      <trkpt lat="47.37467" lon="6.38915">
        <ele>439.46</ele>
        <time>2021-07-18T18:49:30Z</time>
      </trkpt>
      <trkpt lat="47.37538" lon="6.39263">
        <ele>441.38</ele>
        <time>2021-07-18T18:49:39Z</time>
      </trkpt>
      <trkpt lat="47.37659" lon="6.39572">
        <ele>444.75</ele>
        <time>2021-07-18T18:49:48Z</time>
      </trkpt>
      <trkpt lat="47.37881" lon="6.39963">
        <ele>444.75</ele>
        <time>2021-07-18T18:50:00Z</time>
      </trkpt>
      <trkpt lat="47.38068" lon="6.40349">
        <ele>435.61</ele>
        <time>2021-07-18T18:50:12Z</time>
      </trkpt>
      <trkpt lat="47.38185" lon="6.40715">
        <ele>426</ele>
        <time>2021-07-18T18:50:23Z</time>
      </trkpt>
      <trkpt lat="47.38277" lon="6.41182">
        <ele>416.87</ele>
        <time>2021-07-18T18:50:34Z</time>
      </trkpt>
      <trkpt lat="47.38306" lon="6.41582">
        <ele>403.89</ele>
        <time>2021-07-18T18:50:45Z</time>
      </trkpt>
      <trkpt lat="47.38324" lon="6.42083">
        <ele>393.32</ele>
        <time>2021-07-18T18:50:57Z</time>
      </trkpt>
      <trkpt lat="47.38392" lon="6.42383">
        <ele>400.05</ele>
        <time>2021-07-18T18:51:04Z</time>
      </trkpt>
      <trkpt lat="47.38488" lon="6.42596">
        <ele>411.1</ele>
        <time>2021-07-18T18:51:12Z</time>
      </trkpt>
      <trkpt lat="47.38654" lon="6.42806">
        <ele>420.23</ele>
        <time>2021-07-18T18:51:20Z</time>
      </trkpt>
      <trkpt lat="47.38814" lon="6.42916">
        <ele>423.12</ele>
        <time>2021-07-18T18:51:28Z</time>
      </trkpt>
      <trkpt lat="47.39047" lon="6.42976">
        <ele>420.71</ele>
        <time>2021-07-18T18:51:36Z</time>
      </trkpt>
      <trkpt lat="47.39234" lon="6.43034">
        <ele>421.68</ele>
        <time>2021-07-18T18:51:44Z</time>
      </trkpt>
      <trkpt lat="47.39398" lon="6.4317">
        <ele>424.56</ele>
        <time>2021-07-18T18:51:51Z</time>
      </trkpt>
      <trkpt lat="47.39556" lon="6.43393">
        <ele>428.89</ele>
        <time>2021-07-18T18:51:59Z</time>
      </trkpt>
      <trkpt lat="47.39697" lon="6.43577">
        <ele>433.21</ele>
        <time>2021-07-18T18:52:06Z</time>
      </trkpt>
      <trkpt lat="47.39901" lon="6.43723">
        <ele>429.85</ele>
        <time>2021-07-18T18:52:14Z</time>
      </trkpt>
      <trkpt lat="47.4007" lon="6.4387">
        <ele>427.44</ele>
        <time>2021-07-18T18:52:21Z</time>
      </trkpt>
      <trkpt lat="47.40205" lon="6.44082">
        <ele>426.48</ele>
        <time>2021-07-18T18:52:28Z</time>
      </trkpt>
      <trkpt lat="47.40369" lon="6.44344">
        <ele>428.4</ele>
        <time>2021-07-18T18:52:37Z</time>
      </trkpt>
      <trkpt lat="47.40591" lon="6.44675">
        <ele>427.92</ele>
        <time>2021-07-18T18:52:49Z</time>
      </trkpt>
      <trkpt lat="47.40699" lon="6.44946">
        <ele>419.75</ele>
        <time>2021-07-18T18:52:57Z</time>
      </trkpt>
      <trkpt lat="47.40758" lon="6.45245">
        <ele>411.1</ele>
        <time>2021-07-18T18:53:05Z</time>
      </trkpt>
      <trkpt lat="47.4077" lon="6.45538">
        <ele>401.97</ele>
        <time>2021-07-18T18:53:13Z</time>
      </trkpt>
      <trkpt lat="47.40729" lon="6.45887">
        <ele>395.24</ele>
        <time>2021-07-18T18:53:23Z</time>
      </trkpt>
      <trkpt lat="47.40648" lon="6.4627">
        <ele>387.07</ele>
        <time>2021-07-18T18:53:34Z</time>
      </trkpt>
      <trkpt lat="47.40581" lon="6.46681">
        <ele>369.76</ele>
        <time>2021-07-18T18:53:45Z</time>
      </trkpt>
      <trkpt lat="47.40578" lon="6.4698">
        <ele>358.23</ele>
        <time>2021-07-18T18:53:53Z</time>
      </trkpt>
      <trkpt lat="47.40626" lon="6.47282">
        <ele>347.17</ele>
        <time>2021-07-18T18:54:01Z</time>
      </trkpt>
      <trkpt lat="47.40724" lon="6.47595">
        <ele>335.64</ele>
        <time>2021-07-18T18:54:10Z</time>
      </trkpt>
      <trkpt lat="47.40787" lon="6.47892">
        <ele>326.02</ele>
        <time>2021-07-18T18:54:18Z</time>
      </trkpt>
      <trkpt lat="47.40788" lon="6.48163">
        <ele>316.41</ele>
        <time>2021-07-18T18:54:25Z</time>
      </trkpt>
      <trkpt lat="47.40735" lon="6.48423">
        <ele>314.49</ele>
        <time>2021-07-18T18:54:32Z</time>
      </trkpt>
      <trkpt lat="47.40617" lon="6.4875">
        <ele>317.85</ele>
        <time>2021-07-18T18:54:42Z</time>
      </trkpt>
      <trkpt lat="47.40571" lon="6.48996">
        <ele>322.66</ele>
        <time>2021-07-18T18:54:49Z</time>
      </trkpt>
      <trkpt lat="47.40574" lon="6.49286">
        <ele>326.02</ele>
        <time>2021-07-18T18:54:56Z</time>
      </trkpt>
      <trkpt lat="47.4062" lon="6.49506">
        <ele>325.54</ele>
        <time>2021-07-18T18:55:03Z</time>
      </trkpt>
      <trkpt lat="47.40715" lon="6.49733">
        <ele>324.58</ele>
        <time>2021-07-18T18:55:10Z</time>
      </trkpt>
      <trkpt lat="47.41034" lon="6.50353">
        <ele>317.37</ele>
        <time>2021-07-18T18:55:30Z</time>
      </trkpt>
      <trkpt lat="47.41143" lon="6.50634">
        <ele>309.2</ele>
        <time>2021-07-18T18:55:38Z</time>
      </trkpt>
      <trkpt lat="47.41203" lon="6.50948">
        <ele>297.67</ele>
        <time>2021-07-18T18:55:46Z</time>
      </trkpt>
      <trkpt lat="47.41219" lon="6.51336">
        <ele>291.9</ele>
        <time>2021-07-18T18:55:56Z</time>
      </trkpt>
      <trkpt lat="47.41183" lon="6.51889">
        <ele>291.9</ele>
        <time>2021-07-18T18:56:09Z</time>
      </trkpt>
      <trkpt lat="47.41107" lon="6.52424">
        <ele>301.99</ele>
        <time>2021-07-18T18:56:24Z</time>
      </trkpt>
      <trkpt lat="47.41015" lon="6.53046">
        <ele>301.03</ele>
        <time>2021-07-18T18:56:40Z</time>
      </trkpt>
      <trkpt lat="47.40982" lon="6.53592">
        <ele>305.84</ele>
        <time>2021-07-18T18:56:53Z</time>
      </trkpt>
      <trkpt lat="47.41001" lon="6.54168">
        <ele>312.09</ele>
        <time>2021-07-18T18:57:06Z</time>
      </trkpt>
      <trkpt lat="47.4105" lon="6.54596">
        <ele>326.5</ele>
        <time>2021-07-18T18:57:18Z</time>
      </trkpt>
      <trkpt lat="47.41156" lon="6.55258">
        <ele>348.13</ele>
        <time>2021-07-18T18:57:36Z</time>
      </trkpt>
      <trkpt lat="47.41204" lon="6.55713">
        <ele>361.11</ele>
        <time>2021-07-18T18:57:49Z</time>
      </trkpt>
      <trkpt lat="47.41208" lon="6.56256">
        <ele>367.36</ele>
        <time>2021-07-18T18:58:04Z</time>
      </trkpt>
      <trkpt lat="47.41209" lon="6.56772">
        <ele>372.17</ele>
        <time>2021-07-18T18:58:17Z</time>
      </trkpt>
      <trkpt lat="47.4126" lon="6.57144">
        <ele>371.21</ele>
        <time>2021-07-18T18:58:26Z</time>
      </trkpt>
      <trkpt lat="47.41365" lon="6.5751">
        <ele>362.55</ele>
        <time>2021-07-18T18:58:35Z</time>
      </trkpt>
      <trkpt lat="47.41571" lon="6.58033">
        <ele>351.98</ele>
        <time>2021-07-18T18:58:48Z</time>
      </trkpt>
      <trkpt lat="47.41799" lon="6.58598">
        <ele>351.02</ele>
        <time>2021-07-18T18:59:05Z</time>
      </trkpt>
      <trkpt lat="47.41921" lon="6.58973">
        <ele>361.11</ele>
        <time>2021-07-18T18:59:15Z</time>
      </trkpt>
      <trkpt lat="47.41961" lon="6.59255">
        <ele>364.96</ele>
        <time>2021-07-18T18:59:24Z</time>
      </trkpt>
      <trkpt lat="47.41955" lon="6.59567">
        <ele>359.67</ele>
        <time>2021-07-18T18:59:32Z</time>
      </trkpt>
      <trkpt lat="47.41883" lon="6.60171">
        <ele>343.81</ele>
        <time>2021-07-18T18:59:47Z</time>
      </trkpt>
      <trkpt lat="47.41775" lon="6.61056">
        <ele>329.87</ele>
        <time>2021-07-18T19:00:09Z</time>
      </trkpt>
      <trkpt lat="47.41695" lon="6.61735">
        <ele>344.77</ele>
        <time>2021-07-18T19:00:26Z</time>
      </trkpt>
      <trkpt lat="47.41676" lon="6.62117">
        <ele>361.11</ele>
        <time>2021-07-18T19:00:38Z</time>
      </trkpt>
      <trkpt lat="47.41691" lon="6.62443">
        <ele>372.17</ele>
        <time>2021-07-18T19:00:48Z</time>
      </trkpt>
      <trkpt lat="47.41746" lon="6.62846">
        <ele>384.18</ele>
        <time>2021-07-18T19:01:01Z</time>
      </trkpt>
      <trkpt lat="47.41854" lon="6.63271">
        <ele>392.36</ele>
        <time>2021-07-18T19:01:14Z</time>
      </trkpt>
      <trkpt lat="47.41987" lon="6.63606">
        <ele>400.05</ele>
        <time>2021-07-18T19:01:26Z</time>
      </trkpt>
      <trkpt lat="47.42176" lon="6.63973">
        <ele>400.53</ele>
        <time>2021-07-18T19:01:38Z</time>
      </trkpt>
      <trkpt lat="47.42445" lon="6.6444">
        <ele>378.9</ele>
        <time>2021-07-18T19:01:53Z</time>
      </trkpt>
      <trkpt lat="47.42634" lon="6.64857">
        <ele>359.67</ele>
        <time>2021-07-18T19:02:05Z</time>
      </trkpt>
      <trkpt lat="47.42769" lon="6.65265">
        <ele>348.13</ele>
        <time>2021-07-18T19:02:16Z</time>
      </trkpt>
      <trkpt lat="47.42851" lon="6.6569">
        <ele>336.12</ele>
        <time>2021-07-18T19:02:27Z</time>
      </trkpt>
      <trkpt lat="47.42882" lon="6.66074">
        <ele>330.83</ele>
        <time>2021-07-18T19:02:37Z</time>
      </trkpt>
      <trkpt lat="47.42847" lon="6.66323">
        <ele>330.83</ele>
        <time>2021-07-18T19:02:44Z</time>
      </trkpt>
      <trkpt lat="47.42779" lon="6.66545">
        <ele>331.31</ele>
        <time>2021-07-18T19:02:51Z</time>
      </trkpt>
      <trkpt lat="47.42682" lon="6.6676">
        <ele>330.35</ele>
        <time>2021-07-18T19:03:00Z</time>
      </trkpt>
      <trkpt lat="47.42611" lon="6.66914">
        <ele>331.31</ele>
        <time>2021-07-18T19:03:09Z</time>
      </trkpt>
      <trkpt lat="47.42571" lon="6.67003">
        <ele>331.79</ele>
        <time>2021-07-18T19:03:17Z</time>
      </trkpt>
      <trkpt lat="47.42568" lon="6.6701">
        <ele>331.79</ele>
        <time>2021-07-18T19:03:18Z</time>
      </trkpt>
      <trkpt lat="47.42564" lon="6.67017">
        <ele>331.79</ele>
        <time>2021-07-18T19:03:19Z</time>
      </trkpt>
      <trkpt lat="47.4254" lon="6.67067">
        <ele>330.83</ele>
        <time>2021-07-18T19:03:30Z</time>
      </trkpt>
      <trkpt lat="47.42538" lon="6.67071">
        <ele>330.35</ele>
        <time>2021-07-18T19:03:42Z</time>
      </trkpt>
      <trkpt lat="47.42532" lon="6.67085">
        <ele>330.83</ele>
        <time>2021-07-18T19:04:20Z</time>
      </trkpt>
      <trkpt lat="47.42529" lon="6.67093">
        <ele>330.83</ele>
        <time>2021-07-18T19:04:32Z</time>
      </trkpt>
      <trkpt lat="47.42523" lon="6.67104">
        <ele>330.35</ele>
        <time>2021-07-18T19:04:53Z</time>
      </trkpt>
      <trkpt lat="47.42483" lon="6.6719">
        <ele>332.75</ele>
        <time>2021-07-18T19:05:01Z</time>
      </trkpt>
      <trkpt lat="47.42387" lon="6.67408">
        <ele>333.71</ele>
        <time>2021-07-18T19:05:12Z</time>
      </trkpt>
      <trkpt lat="47.42312" lon="6.67665">
        <ele>334.2</ele>
        <time>2021-07-18T19:05:22Z</time>
      </trkpt>
      <trkpt lat="47.42272" lon="6.6797">
        <ele>336.12</ele>
        <time>2021-07-18T19:05:32Z</time>
      </trkpt>
      <trkpt lat="47.4228" lon="6.6827">
        <ele>338.04</ele>
        <time>2021-07-18T19:05:41Z</time>
      </trkpt>
      <trkpt lat="47.42339" lon="6.68577">
        <ele>342.85</ele>
        <time>2021-07-18T19:05:50Z</time>
      </trkpt>
      <trkpt lat="47.42436" lon="6.68786">
        <ele>345.73</ele>
        <time>2021-07-18T19:05:57Z</time>
      </trkpt>
      <trkpt lat="47.42553" lon="6.68921">
        <ele>350.06</ele>
        <time>2021-07-18T19:06:03Z</time>
      </trkpt>
      <trkpt lat="47.42767" lon="6.69048">
        <ele>356.79</ele>
        <time>2021-07-18T19:06:12Z</time>
      </trkpt>
      <trkpt lat="47.42911" lon="6.69176">
        <ele>365.44</ele>
        <time>2021-07-18T19:06:19Z</time>
      </trkpt>
      <trkpt lat="47.43008" lon="6.6933">
        <ele>373.61</ele>
        <time>2021-07-18T19:06:25Z</time>
      </trkpt>
      <trkpt lat="47.43071" lon="6.69547">
        <ele>380.34</ele>
        <time>2021-07-18T19:06:32Z</time>
      </trkpt>
      <trkpt lat="47.43164" lon="6.69905">
        <ele>392.36</ele>
        <time>2021-07-18T19:06:44Z</time>
      </trkpt>
      <trkpt lat="47.43276" lon="6.70087">
        <ele>401.97</ele>
        <time>2021-07-18T19:06:52Z</time>
      </trkpt>
      <trkpt lat="47.43459" lon="6.70379">
        <ele>412.54</ele>
        <time>2021-07-18T19:07:04Z</time>
      </trkpt>
      <trkpt lat="47.43512" lon="6.70589">
        <ele>418.79</ele>
        <time>2021-07-18T19:07:11Z</time>
      </trkpt>
      <trkpt lat="47.43515" lon="6.70815">
        <ele>424.08</ele>
        <time>2021-07-18T19:07:18Z</time>
      </trkpt>
      <trkpt lat="47.43466" lon="6.71209">
        <ele>431.77</ele>
        <time>2021-07-18T19:07:30Z</time>
      </trkpt>
      <trkpt lat="47.4345" lon="6.7155">
        <ele>438.98</ele>
        <time>2021-07-18T19:07:40Z</time>
      </trkpt>
      <trkpt lat="47.43486" lon="6.71823">
        <ele>442.82</ele>
        <time>2021-07-18T19:07:48Z</time>
      </trkpt>
      <trkpt lat="47.43577" lon="6.72109">
        <ele>450.03</ele>
        <time>2021-07-18T19:07:57Z</time>
      </trkpt>
      <trkpt lat="47.43719" lon="6.72356">
        <ele>456.76</ele>
        <time>2021-07-18T19:08:05Z</time>
      </trkpt>
      <trkpt lat="47.43862" lon="6.7251">
        <ele>460.13</ele>
        <time>2021-07-18T19:08:13Z</time>
      </trkpt>
      <trkpt lat="47.44142" lon="6.72805">
        <ele>460.61</ele>
        <time>2021-07-18T19:08:26Z</time>
      </trkpt>
      <trkpt lat="47.44289" lon="6.73054">
        <ele>456.28</ele>
        <time>2021-07-18T19:08:34Z</time>
      </trkpt>
      <trkpt lat="47.44391" lon="6.73363">
        <ele>448.59</ele>
        <time>2021-07-18T19:08:42Z</time>
      </trkpt>
      <trkpt lat="47.44456" lon="6.73727">
        <ele>435.61</ele>
        <time>2021-07-18T19:08:51Z</time>
      </trkpt>
      <trkpt lat="47.44548" lon="6.74078">
        <ele>421.19</ele>
        <time>2021-07-18T19:09:00Z</time>
      </trkpt>
      <trkpt lat="47.44681" lon="6.74347">
        <ele>409.66</ele>
        <time>2021-07-18T19:09:08Z</time>
      </trkpt>
      <trkpt lat="47.44847" lon="6.74558">
        <ele>399.08</ele>
        <time>2021-07-18T19:09:16Z</time>
      </trkpt>
      <trkpt lat="47.45078" lon="6.74823">
        <ele>388.03</ele>
        <time>2021-07-18T19:09:27Z</time>
      </trkpt>
      <trkpt lat="47.45215" lon="6.75078">
        <ele>373.61</ele>
        <time>2021-07-18T19:09:35Z</time>
      </trkpt>
      <trkpt lat="47.4539" lon="6.75432">
        <ele>355.34</ele>
        <time>2021-07-18T19:09:46Z</time>
      </trkpt>
      <trkpt lat="47.45544" lon="6.75593">
        <ele>351.5</ele>
        <time>2021-07-18T19:09:53Z</time>
      </trkpt>
      <trkpt lat="47.45832" lon="6.75835">
        <ele>347.17</ele>
        <time>2021-07-18T19:10:05Z</time>
      </trkpt>
      <trkpt lat="47.45971" lon="6.76035">
        <ele>344.29</ele>
        <time>2021-07-18T19:10:12Z</time>
      </trkpt>
      <trkpt lat="47.46122" lon="6.76319">
        <ele>345.73</ele>
        <time>2021-07-18T19:10:21Z</time>
      </trkpt>
      <trkpt lat="47.46257" lon="6.7649">
        <ele>349.58</ele>
        <time>2021-07-18T19:10:28Z</time>
      </trkpt>
      <trkpt lat="47.46472" lon="6.76642">
        <ele>356.31</ele>
        <time>2021-07-18T19:10:37Z</time>
      </trkpt>
      <trkpt lat="47.46681" lon="6.76821">
        <ele>362.55</ele>
        <time>2021-07-18T19:10:46Z</time>
      </trkpt>
      <trkpt lat="47.46791" lon="6.77006">
        <ele>361.11</ele>
        <time>2021-07-18T19:10:52Z</time>
      </trkpt>
      <trkpt lat="47.46917" lon="6.77322">
        <ele>351.02</ele>
        <time>2021-07-18T19:11:01Z</time>
      </trkpt>
      <trkpt lat="47.47033" lon="6.77536">
        <ele>351.02</ele>
        <time>2021-07-18T19:11:08Z</time>
      </trkpt>
      <trkpt lat="47.47263" lon="6.77819">
        <ele>350.54</ele>
        <time>2021-07-18T19:11:19Z</time>
      </trkpt>
      <trkpt lat="47.47537" lon="6.78169">
        <ele>349.58</ele>
        <time>2021-07-18T19:11:32Z</time>
      </trkpt>
      <trkpt lat="47.47696" lon="6.78463">
        <ele>350.54</ele>
        <time>2021-07-18T19:11:41Z</time>
      </trkpt>
      <trkpt lat="47.47847" lon="6.7886">
        <ele>351.98</ele>
        <time>2021-07-18T19:11:52Z</time>
      </trkpt>
      <trkpt lat="47.48065" lon="6.79495">
        <ele>348.62</ele>
        <time>2021-07-18T19:12:09Z</time>
      </trkpt>
      <trkpt lat="47.48292" lon="6.80139">
        <ele>336.12</ele>
        <time>2021-07-18T19:12:27Z</time>
      </trkpt>
      <trkpt lat="47.48415" lon="6.80478">
        <ele>332.27</ele>
        <time>2021-07-18T19:12:38Z</time>
      </trkpt>
      <trkpt lat="47.48571" lon="6.80895">
        <ele>326.02</ele>
        <time>2021-07-18T19:12:51Z</time>
      </trkpt>
      <trkpt lat="47.48698" lon="6.81113">
        <ele>329.39</ele>
        <time>2021-07-18T19:12:59Z</time>
      </trkpt>
      <trkpt lat="47.48856" lon="6.81288">
        <ele>338.52</ele>
        <time>2021-07-18T19:13:07Z</time>
      </trkpt>
      <trkpt lat="47.49056" lon="6.8142">
        <ele>348.62</ele>
        <time>2021-07-18T19:13:16Z</time>
      </trkpt>
      <trkpt lat="47.49314" lon="6.81514">
        <ele>356.79</ele>
        <time>2021-07-18T19:13:27Z</time>
      </trkpt>
      <trkpt lat="47.4955" lon="6.81591">
        <ele>356.79</ele>
        <time>2021-07-18T19:13:37Z</time>
      </trkpt>
      <trkpt lat="47.49797" lon="6.81733">
        <ele>349.1</ele>
        <time>2021-07-18T19:13:48Z</time>
      </trkpt>
      <trkpt lat="47.50005" lon="6.81924">
        <ele>339.48</ele>
        <time>2021-07-18T19:13:59Z</time>
      </trkpt>
      <trkpt lat="47.50226" lon="6.82239">
        <ele>328.43</ele>
        <time>2021-07-18T19:14:09Z</time>
      </trkpt>
      <trkpt lat="47.50409" lon="6.82595">
        <ele>326.99</ele>
        <time>2021-07-18T19:14:22Z</time>
      </trkpt>
      <trkpt lat="47.50534" lon="6.82908">
        <ele>322.66</ele>
        <time>2021-07-18T19:14:32Z</time>
      </trkpt>
      <trkpt lat="47.50603" lon="6.83106">
        <ele>323.14</ele>
        <time>2021-07-18T19:14:39Z</time>
      </trkpt>
      <trkpt lat="47.50752" lon="6.83527">
        <ele>320.74</ele>
        <time>2021-07-18T19:14:52Z</time>
      </trkpt>
      <trkpt lat="47.50919" lon="6.83995">
        <ele>322.18</ele>
        <time>2021-07-18T19:15:08Z</time>
      </trkpt>
      <trkpt lat="47.51097" lon="6.84387">
        <ele>322.66</ele>
        <time>2021-07-18T19:15:21Z</time>
      </trkpt>
      <trkpt lat="47.51312" lon="6.84722">
        <ele>324.58</ele>
        <time>2021-07-18T19:15:33Z</time>
      </trkpt>
      <trkpt lat="47.51481" lon="6.84923">
        <ele>325.54</ele>
        <time>2021-07-18T19:15:44Z</time>
      </trkpt>
      <trkpt lat="47.51714" lon="6.85142">
        <ele>323.62</ele>
        <time>2021-07-18T19:15:57Z</time>
      </trkpt>
      <trkpt lat="47.52002" lon="6.85352">
        <ele>324.58</ele>
        <time>2021-07-18T19:16:11Z</time>
      </trkpt>
      <trkpt lat="47.5235" lon="6.85567">
        <ele>325.54</ele>
        <time>2021-07-18T19:16:25Z</time>
      </trkpt>
      <trkpt lat="47.52647" lon="6.8573">
        <ele>326.99</ele>
        <time>2021-07-18T19:16:38Z</time>
      </trkpt>
      <trkpt lat="47.53027" lon="6.85913">
        <ele>326.5</ele>
        <time>2021-07-18T19:16:53Z</time>
      </trkpt>
      <trkpt lat="47.53521" lon="6.86109">
        <ele>327.95</ele>
        <time>2021-07-18T19:17:13Z</time>
      </trkpt>
      <trkpt lat="47.54045" lon="6.86272">
        <ele>328.43</ele>
        <time>2021-07-18T19:17:34Z</time>
      </trkpt>
      <trkpt lat="47.54584" lon="6.86389">
        <ele>330.35</ele>
        <time>2021-07-18T19:17:55Z</time>
      </trkpt>
      <trkpt lat="47.55053" lon="6.86449">
        <ele>335.64</ele>
        <time>2021-07-18T19:18:13Z</time>
      </trkpt>
      <trkpt lat="47.55457" lon="6.86447">
        <ele>335.64</ele>
        <time>2021-07-18T19:18:28Z</time>
      </trkpt>
      <trkpt lat="47.55778" lon="6.86394">
        <ele>335.16</ele>
        <time>2021-07-18T19:18:40Z</time>
      </trkpt>
      <trkpt lat="47.56089" lon="6.86274">
        <ele>336.6</ele>
        <time>2021-07-18T19:18:51Z</time>
      </trkpt>
      <trkpt lat="47.56388" lon="6.8609">
        <ele>336.6</ele>
        <time>2021-07-18T19:19:04Z</time>
      </trkpt>
      <trkpt lat="47.56772" lon="6.85814">
        <ele>337.56</ele>
        <time>2021-07-18T19:19:20Z</time>
      </trkpt>
      <trkpt lat="47.5698" lon="6.85731">
        <ele>338.52</ele>
        <time>2021-07-18T19:19:28Z</time>
      </trkpt>
      <trkpt lat="47.57226" lon="6.85709">
        <ele>339.96</ele>
        <time>2021-07-18T19:19:37Z</time>
      </trkpt>
      <trkpt lat="47.57471" lon="6.85769">
        <ele>339</ele>
        <time>2021-07-18T19:19:46Z</time>
      </trkpt>
      <trkpt lat="47.57736" lon="6.85817">
        <ele>340.44</ele>
        <time>2021-07-18T19:19:56Z</time>
      </trkpt>
      <trkpt lat="47.57951" lon="6.85777">
        <ele>338.04</ele>
        <time>2021-07-18T19:20:04Z</time>
      </trkpt>
      <trkpt lat="47.58175" lon="6.85667">
        <ele>340.92</ele>
        <time>2021-07-18T19:20:13Z</time>
      </trkpt>
      <trkpt lat="47.58382" lon="6.85604">
        <ele>340.92</ele>
        <time>2021-07-18T19:20:21Z</time>
      </trkpt>
      <trkpt lat="47.58586" lon="6.85609">
        <ele>342.37</ele>
        <time>2021-07-18T19:20:29Z</time>
      </trkpt>
      <trkpt lat="47.58814" lon="6.85684">
        <ele>343.81</ele>
        <time>2021-07-18T19:20:38Z</time>
      </trkpt>
      <trkpt lat="47.59059" lon="6.85752">
        <ele>349.58</ele>
        <time>2021-07-18T19:20:48Z</time>
      </trkpt>
      <trkpt lat="47.59295" lon="6.85744">
        <ele>348.62</ele>
        <time>2021-07-18T19:20:57Z</time>
      </trkpt>
      <trkpt lat="47.59556" lon="6.85651">
        <ele>352.94</ele>
        <time>2021-07-18T19:21:07Z</time>
      </trkpt>
      <trkpt lat="47.59793" lon="6.85578">
        <ele>356.79</ele>
        <time>2021-07-18T19:21:16Z</time>
      </trkpt>
      <trkpt lat="47.59994" lon="6.85588">
        <ele>359.67</ele>
        <time>2021-07-18T19:21:24Z</time>
      </trkpt>
      <trkpt lat="47.60205" lon="6.85643">
        <ele>364.48</ele>
        <time>2021-07-18T19:21:34Z</time>
      </trkpt>
      <trkpt lat="47.60486" lon="6.85695">
        <ele>369.28</ele>
        <time>2021-07-18T19:21:47Z</time>
      </trkpt>
      <trkpt lat="47.60595" lon="6.85693">
        <ele>364</ele>
        <time>2021-07-18T19:21:54Z</time>
      </trkpt>
      <trkpt lat="47.60819" lon="6.85663">
        <ele>364.96</ele>
        <time>2021-07-18T19:22:07Z</time>
      </trkpt>
      <trkpt lat="47.61075" lon="6.85637">
        <ele>373.13</ele>
        <time>2021-07-18T19:22:21Z</time>
      </trkpt>
      <trkpt lat="47.61339" lon="6.8565">
        <ele>366.88</ele>
        <time>2021-07-18T19:22:35Z</time>
      </trkpt>
      <trkpt lat="47.61656" lon="6.8573">
        <ele>359.67</ele>
        <time>2021-07-18T19:22:50Z</time>
      </trkpt>
      <trkpt lat="47.61849" lon="6.85817">
        <ele>353.9</ele>
        <time>2021-07-18T19:23:02Z</time>
      </trkpt>
      <trkpt lat="47.62079" lon="6.85962">
        <ele>348.62</ele>
        <time>2021-07-18T19:23:17Z</time>
      </trkpt>
      <trkpt lat="47.62277" lon="6.86119">
        <ele>349.58</ele>
        <time>2021-07-18T19:23:29Z</time>
      </trkpt>
      <trkpt lat="47.62588" lon="6.86384">
        <ele>360.63</ele>
        <time>2021-07-18T19:23:44Z</time>
      </trkpt>
      <trkpt lat="47.62792" lon="6.86592">
        <ele>372.17</ele>
        <time>2021-07-18T19:23:55Z</time>
      </trkpt>
      <trkpt lat="47.62956" lon="6.8685">
        <ele>377.45</ele>
        <time>2021-07-18T19:24:05Z</time>
      </trkpt>
      <trkpt lat="47.63082" lon="6.87146">
        <ele>383.22</ele>
        <time>2021-07-18T19:24:15Z</time>
      </trkpt>
      <trkpt lat="47.6322" lon="6.8751">
        <ele>387.55</ele>
        <time>2021-07-18T19:24:28Z</time>
      </trkpt>
      <trkpt lat="47.63357" lon="6.87747">
        <ele>389.95</ele>
        <time>2021-07-18T19:24:37Z</time>
      </trkpt>
      <trkpt lat="47.63598" lon="6.88078">
        <ele>390.91</ele>
        <time>2021-07-18T19:24:51Z</time>
      </trkpt>
      <trkpt lat="47.6384" lon="6.88316">
        <ele>390.91</ele>
        <time>2021-07-18T19:25:01Z</time>
      </trkpt>
      <trkpt lat="47.64052" lon="6.88549">
        <ele>394.28</ele>
        <time>2021-07-18T19:25:11Z</time>
      </trkpt>
      <trkpt lat="47.64188" lon="6.88789">
        <ele>394.28</ele>
        <time>2021-07-18T19:25:19Z</time>
      </trkpt>
      <trkpt lat="47.6428" lon="6.89066">
        <ele>391.87</ele>
        <time>2021-07-18T19:25:27Z</time>
      </trkpt>
      <trkpt lat="47.64326" lon="6.8939">
        <ele>386.59</ele>
        <time>2021-07-18T19:25:34Z</time>
      </trkpt>
      <trkpt lat="47.64364" lon="6.89863">
        <ele>377.94</ele>
        <time>2021-07-18T19:25:45Z</time>
      </trkpt>
      <trkpt lat="47.64419" lon="6.90294">
        <ele>370.73</ele>
        <time>2021-07-18T19:25:57Z</time>
      </trkpt>
      <trkpt lat="47.6452" lon="6.90744">
        <ele>365.92</ele>
        <time>2021-07-18T19:26:09Z</time>
      </trkpt>
      <trkpt lat="47.64701" lon="6.91302">
        <ele>363.52</ele>
        <time>2021-07-18T19:26:24Z</time>
      </trkpt>
      <trkpt lat="47.64883" lon="6.91832">
        <ele>358.71</ele>
        <time>2021-07-18T19:26:39Z</time>
      </trkpt>
      <trkpt lat="47.65054" lon="6.92323">
        <ele>355.83</ele>
        <time>2021-07-18T19:26:53Z</time>
      </trkpt>
      <trkpt lat="47.6527" lon="6.9294">
        <ele>349.58</ele>
        <time>2021-07-18T19:27:09Z</time>
      </trkpt>
      <trkpt lat="47.655" lon="6.93588">
        <ele>348.62</ele>
        <time>2021-07-18T19:27:28Z</time>
      </trkpt>
      <trkpt lat="47.65735" lon="6.94167">
        <ele>356.31</ele>
        <time>2021-07-18T19:27:45Z</time>
      </trkpt>
      <trkpt lat="47.65906" lon="6.94519">
        <ele>361.11</ele>
        <time>2021-07-18T19:27:57Z</time>
      </trkpt>
      <trkpt lat="47.66099" lon="6.94854">
        <ele>370.73</ele>
        <time>2021-07-18T19:28:09Z</time>
      </trkpt>
      <trkpt lat="47.66311" lon="6.95185">
        <ele>373.13</ele>
        <time>2021-07-18T19:28:21Z</time>
      </trkpt>
      <trkpt lat="47.66396" lon="6.95315">
        <ele>372.17</ele>
        <time>2021-07-18T19:28:27Z</time>
      </trkpt>
      <trkpt lat="47.66415" lon="6.95344">
        <ele>371.69</ele>
        <time>2021-07-18T19:28:29Z</time>
      </trkpt>
      <trkpt lat="47.66421" lon="6.95354">
        <ele>370.24</ele>
        <time>2021-07-18T19:28:30Z</time>
      </trkpt>
      <trkpt lat="47.66418" lon="6.95377">
        <ele>369.28</ele>
        <time>2021-07-18T19:28:31Z</time>
      </trkpt>
      <trkpt lat="47.66422" lon="6.95389">
        <ele>368.8</ele>
        <time>2021-07-18T19:28:32Z</time>
      </trkpt>
      <trkpt lat="47.66424" lon="6.95403">
        <ele>367.84</ele>
        <time>2021-07-18T19:28:33Z</time>
      </trkpt>
      <trkpt lat="47.66425" lon="6.95415">
        <ele>367.36</ele>
        <time>2021-07-18T19:28:34Z</time>
      </trkpt>
      <trkpt lat="47.66428" lon="6.95439">
        <ele>365.44</ele>
        <time>2021-07-18T19:28:36Z</time>
      </trkpt>
      <trkpt lat="47.66431" lon="6.95452">
        <ele>364.96</ele>
        <time>2021-07-18T19:28:37Z</time>
      </trkpt>
      <trkpt lat="47.66435" lon="6.9546">
        <ele>364</ele>
        <time>2021-07-18T19:28:39Z</time>
      </trkpt>
      <trkpt lat="47.66475" lon="6.95524">
        <ele>360.63</ele>
        <time>2021-07-18T19:28:51Z</time>
      </trkpt>
      <trkpt lat="47.66505" lon="6.9557">
        <ele>359.67</ele>
        <time>2021-07-18T19:29:04Z</time>
      </trkpt>
      <trkpt lat="47.66536" lon="6.956">
        <ele>362.07</ele>
        <time>2021-07-18T19:29:16Z</time>
      </trkpt>
      <trkpt lat="47.66562" lon="6.95608">
        <ele>363.04</ele>
        <time>2021-07-18T19:29:26Z</time>
      </trkpt>
      <trkpt lat="47.66601" lon="6.9567">
        <ele>366.4</ele>
        <time>2021-07-18T19:29:33Z</time>
      </trkpt>
      <trkpt lat="47.66676" lon="6.95787">
        <ele>366.88</ele>
        <time>2021-07-18T19:29:41Z</time>
      </trkpt>
      <trkpt lat="47.66783" lon="6.95991">
        <ele>364.96</ele>
        <time>2021-07-18T19:29:50Z</time>
      </trkpt>
      <trkpt lat="47.66935" lon="6.96339">
        <ele>365.92</ele>
        <time>2021-07-18T19:30:02Z</time>
      </trkpt>
      <trkpt lat="47.67177" lon="6.96977">
        <ele>367.84</ele>
        <time>2021-07-18T19:30:22Z</time>
      </trkpt>
      <trkpt lat="47.67363" lon="6.97483">
        <ele>369.28</ele>
        <time>2021-07-18T19:30:39Z</time>
      </trkpt>
      <trkpt lat="47.67451" lon="6.97737">
        <ele>367.84</ele>
        <time>2021-07-18T19:30:49Z</time>
      </trkpt>
      <trkpt lat="47.67527" lon="6.97972">
        <ele>366.88</ele>
        <time>2021-07-18T19:31:00Z</time>
      </trkpt>
      <trkpt lat="47.67582" lon="6.98152">
        <ele>366.4</ele>
        <time>2021-07-18T19:31:13Z</time>
      </trkpt>
      <trkpt lat="47.67591" lon="6.98181">
        <ele>365.44</ele>
        <time>2021-07-18T19:31:19Z</time>
      </trkpt>
      <trkpt lat="47.67594" lon="6.98192">
        <ele>364.96</ele>
        <time>2021-07-18T19:31:20Z</time>
      </trkpt>
      <trkpt lat="47.676" lon="6.98208">
        <ele>364.48</ele>
        <time>2021-07-18T19:31:21Z</time>
      </trkpt>
      <trkpt lat="47.67622" lon="6.98281">
        <ele>363.52</ele>
        <time>2021-07-18T19:31:27Z</time>
      </trkpt>
      <trkpt lat="47.67669" lon="6.98449">
        <ele>364</ele>
        <time>2021-07-18T19:31:35Z</time>
      </trkpt>
      <trkpt lat="47.67761" lon="6.98755">
        <ele>364.48</ele>
        <time>2021-07-18T19:31:45Z</time>
      </trkpt>
      <trkpt lat="47.67882" lon="6.99139">
        <ele>367.84</ele>
        <time>2021-07-18T19:31:58Z</time>
      </trkpt>
      <trkpt lat="47.68059" lon="6.99674">
        <ele>369.28</ele>
        <time>2021-07-18T19:32:13Z</time>
      </trkpt>
      <trkpt lat="47.68342" lon="7.00451">
        <ele>370.73</ele>
        <time>2021-07-18T19:32:34Z</time>
      </trkpt>
      <trkpt lat="47.68533" lon="7.00851">
        <ele>367.36</ele>
        <time>2021-07-18T19:32:46Z</time>
      </trkpt>
      <trkpt lat="47.68766" lon="7.01232">
        <ele>365.92</ele>
        <time>2021-07-18T19:32:59Z</time>
      </trkpt>
      <trkpt lat="47.6901" lon="7.01543">
        <ele>367.36</ele>
        <time>2021-07-18T19:33:11Z</time>
      </trkpt>
      <trkpt lat="47.69354" lon="7.01905">
        <ele>369.76</ele>
        <time>2021-07-18T19:33:26Z</time>
      </trkpt>
      <trkpt lat="47.69747" lon="7.023">
        <ele>375.53</ele>
        <time>2021-07-18T19:33:43Z</time>
      </trkpt>
      <trkpt lat="47.70034" lon="7.0263">
        <ele>381.78</ele>
        <time>2021-07-18T19:33:57Z</time>
      </trkpt>
      <trkpt lat="47.70303" lon="7.03012">
        <ele>387.07</ele>
        <time>2021-07-18T19:34:12Z</time>
      </trkpt>
      <trkpt lat="47.70517" lon="7.0338">
        <ele>397.16</ele>
        <time>2021-07-18T19:34:25Z</time>
      </trkpt>
      <trkpt lat="47.70751" lon="7.03846">
        <ele>399.57</ele>
        <time>2021-07-18T19:34:40Z</time>
      </trkpt>
      <trkpt lat="47.71012" lon="7.04436">
        <ele>396.68</ele>
        <time>2021-07-18T19:34:58Z</time>
      </trkpt>
      <trkpt lat="47.71133" lon="7.04832">
        <ele>392.36</ele>
        <time>2021-07-18T19:35:09Z</time>
      </trkpt>
      <trkpt lat="47.71213" lon="7.05256">
        <ele>388.03</ele>
        <time>2021-07-18T19:35:20Z</time>
      </trkpt>
      <trkpt lat="47.71253" lon="7.05699">
        <ele>382.74</ele>
        <time>2021-07-18T19:35:31Z</time>
      </trkpt>
      <trkpt lat="47.71243" lon="7.06156">
        <ele>379.86</ele>
        <time>2021-07-18T19:35:42Z</time>
      </trkpt>
      <trkpt lat="47.71189" lon="7.06741">
        <ele>375.53</ele>
        <time>2021-07-18T19:35:56Z</time>
      </trkpt>
      <trkpt lat="47.71089" lon="7.07673">
        <ele>362.07</ele>
        <time>2021-07-18T19:36:18Z</time>
      </trkpt>
      <trkpt lat="47.71025" lon="7.08309">
        <ele>350.06</ele>
        <time>2021-07-18T19:36:33Z</time>
      </trkpt>
      <trkpt lat="47.70992" lon="7.08939">
        <ele>330.35</ele>
        <time>2021-07-18T19:36:48Z</time>
      </trkpt>
      <trkpt lat="47.70986" lon="7.09619">
        <ele>316.41</ele>
        <time>2021-07-18T19:37:04Z</time>
      </trkpt>
      <trkpt lat="47.71012" lon="7.10265">
        <ele>309.2</ele>
        <time>2021-07-18T19:37:19Z</time>
      </trkpt>
      <trkpt lat="47.71066" lon="7.10877">
        <ele>306.8</ele>
        <time>2021-07-18T19:37:36Z</time>
      </trkpt>
      <trkpt lat="47.71169" lon="7.11677">
        <ele>310.16</ele>
        <time>2021-07-18T19:37:57Z</time>
      </trkpt>
      <trkpt lat="47.71289" lon="7.12359">
        <ele>313.53</ele>
        <time>2021-07-18T19:38:15Z</time>
      </trkpt>
      <trkpt lat="47.71412" lon="7.1291">
        <ele>315.45</ele>
        <time>2021-07-18T19:38:30Z</time>
      </trkpt>
      <trkpt lat="47.71559" lon="7.13469">
        <ele>315.45</ele>
        <time>2021-07-18T19:38:45Z</time>
      </trkpt>
      <trkpt lat="47.71788" lon="7.14199">
        <ele>312.09</ele>
        <time>2021-07-18T19:39:05Z</time>
      </trkpt>
      <trkpt lat="47.72018" lon="7.14901">
        <ele>308.24</ele>
        <time>2021-07-18T19:39:24Z</time>
      </trkpt>
      <trkpt lat="47.72269" lon="7.15583">
        <ele>303.43</ele>
        <time>2021-07-18T19:39:43Z</time>
      </trkpt>
      <trkpt lat="47.72473" lon="7.16194">
        <ele>299.59</ele>
        <time>2021-07-18T19:40:00Z</time>
      </trkpt>
      <trkpt lat="47.72644" lon="7.16844">
        <ele>294.78</ele>
        <time>2021-07-18T19:40:17Z</time>
      </trkpt>
      <trkpt lat="47.72668" lon="7.16991">
        <ele>293.82</ele>
        <time>2021-07-18T19:40:23Z</time>
      </trkpt>
      <trkpt lat="47.72673" lon="7.17049">
        <ele>293.34</ele>
        <time>2021-07-18T19:40:25Z</time>
      </trkpt>
      <trkpt lat="47.72673" lon="7.17049">
        <ele>293.34</ele>
        <time>2021-07-18T19:40:26Z</time>
      </trkpt>
      <trkpt lat="47.72673" lon="7.17062">
        <ele>293.34</ele>
        <time>2021-07-18T19:40:27Z</time>
      </trkpt>
      <trkpt lat="47.7267" lon="7.17078">
        <ele>293.34</ele>
        <time>2021-07-18T19:40:28Z</time>
      </trkpt>
      <trkpt lat="47.72668" lon="7.17095">
        <ele>293.34</ele>
        <time>2021-07-18T19:40:29Z</time>
      </trkpt>
      <trkpt lat="47.72654" lon="7.17118">
        <ele>293.82</ele>
        <time>2021-07-18T19:40:30Z</time>
      </trkpt>
      <trkpt lat="47.72654" lon="7.17118">
        <ele>293.34</ele>
        <time>2021-07-18T19:40:31Z</time>
      </trkpt>
      <trkpt lat="47.72635" lon="7.17137">
        <ele>292.38</ele>
        <time>2021-07-18T19:40:32Z</time>
      </trkpt>
      <trkpt lat="47.72635" lon="7.17137">
        <ele>292.38</ele>
        <time>2021-07-18T19:40:34Z</time>
      </trkpt>
      <trkpt lat="47.72611" lon="7.17135">
        <ele>292.38</ele>
        <time>2021-07-18T19:40:35Z</time>
      </trkpt>
      <trkpt lat="47.72601" lon="7.17132">
        <ele>291.42</ele>
        <time>2021-07-18T19:40:36Z</time>
      </trkpt>
      <trkpt lat="47.72591" lon="7.17123">
        <ele>291.9</ele>
        <time>2021-07-18T19:40:37Z</time>
      </trkpt>
      <trkpt lat="47.72581" lon="7.17114">
        <ele>291.9</ele>
        <time>2021-07-18T19:40:38Z</time>
      </trkpt>
      <trkpt lat="47.72573" lon="7.17103">
        <ele>291.9</ele>
        <time>2021-07-18T19:40:39Z</time>
      </trkpt>
      <trkpt lat="47.72564" lon="7.17068">
        <ele>291.9</ele>
        <time>2021-07-18T19:40:40Z</time>
      </trkpt>
      <trkpt lat="47.72564" lon="7.17068">
        <ele>292.38</ele>
        <time>2021-07-18T19:40:41Z</time>
      </trkpt>
      <trkpt lat="47.72562" lon="7.1705">
        <ele>292.86</ele>
        <time>2021-07-18T19:40:42Z</time>
      </trkpt>
      <trkpt lat="47.72563" lon="7.17031">
        <ele>293.34</ele>
        <time>2021-07-18T19:40:43Z</time>
      </trkpt>
      <trkpt lat="47.72564" lon="7.17011">
        <ele>293.34</ele>
        <time>2021-07-18T19:40:44Z</time>
      </trkpt>
      <trkpt lat="47.72568" lon="7.16992">
        <ele>293.82</ele>
        <time>2021-07-18T19:40:45Z</time>
      </trkpt>
      <trkpt lat="47.72572" lon="7.16972">
        <ele>293.82</ele>
        <time>2021-07-18T19:40:46Z</time>
      </trkpt>
      <trkpt lat="47.72576" lon="7.16951">
        <ele>294.3</ele>
        <time>2021-07-18T19:40:47Z</time>
      </trkpt>
      <trkpt lat="47.72592" lon="7.16913">
        <ele>294.78</ele>
        <time>2021-07-18T19:40:48Z</time>
      </trkpt>
      <trkpt lat="47.72601" lon="7.16895">
        <ele>294.78</ele>
        <time>2021-07-18T19:40:49Z</time>
      </trkpt>
      <trkpt lat="47.72685" lon="7.16755">
        <ele>295.74</ele>
        <time>2021-07-18T19:40:58Z</time>
      </trkpt>
      <trkpt lat="47.7283" lon="7.16518">
        <ele>291.9</ele>
        <time>2021-07-18T19:41:10Z</time>
      </trkpt>
      <trkpt lat="47.7298" lon="7.16262">
        <ele>294.3</ele>
        <time>2021-07-18T19:41:21Z</time>
      </trkpt>
      <trkpt lat="47.73217" lon="7.15969">
        <ele>297.18</ele>
        <time>2021-07-18T19:41:34Z</time>
      </trkpt>
      <trkpt lat="47.7359" lon="7.15535">
        <ele>299.59</ele>
        <time>2021-07-18T19:41:53Z</time>
      </trkpt>
      <trkpt lat="47.73847" lon="7.1532">
        <ele>301.03</ele>
        <time>2021-07-18T19:42:05Z</time>
      </trkpt>
      <trkpt lat="47.74147" lon="7.15161">
        <ele>302.95</ele>
        <time>2021-07-18T19:42:18Z</time>
      </trkpt>
      <trkpt lat="47.74408" lon="7.15091">
        <ele>303.91</ele>
        <time>2021-07-18T19:42:29Z</time>
      </trkpt>
      <trkpt lat="47.74748" lon="7.1505">
        <ele>313.53</ele>
        <time>2021-07-18T19:42:43Z</time>
      </trkpt>
      <trkpt lat="47.7497" lon="7.15088">
        <ele>316.89</ele>
        <time>2021-07-18T19:42:52Z</time>
      </trkpt>
      <trkpt lat="47.75183" lon="7.15187">
        <ele>315.93</ele>
        <time>2021-07-18T19:43:01Z</time>
      </trkpt>
      <trkpt lat="47.75412" lon="7.15381">
        <ele>312.09</ele>
        <time>2021-07-18T19:43:10Z</time>
      </trkpt>
      <trkpt lat="47.7558" lon="7.15576">
        <ele>308.24</ele>
        <time>2021-07-18T19:43:19Z</time>
      </trkpt>
      <trkpt lat="47.75784" lon="7.15759">
        <ele>301.51</ele>
        <time>2021-07-18T19:43:28Z</time>
      </trkpt>
      <trkpt lat="47.76015" lon="7.15877">
        <ele>300.07</ele>
        <time>2021-07-18T19:43:37Z</time>
      </trkpt>
      <trkpt lat="47.7638" lon="7.15977">
        <ele>306.8</ele>
        <time>2021-07-18T19:43:50Z</time>
      </trkpt>
      <trkpt lat="47.76818" lon="7.16101">
        <ele>306.8</ele>
        <time>2021-07-18T19:44:08Z</time>
      </trkpt>
      <trkpt lat="47.77182" lon="7.16217">
        <ele>303.91</ele>
        <time>2021-07-18T19:44:23Z</time>
      </trkpt>
      <trkpt lat="47.77485" lon="7.16255">
        <ele>303.91</ele>
        <time>2021-07-18T19:44:35Z</time>
      </trkpt>
      <trkpt lat="47.77735" lon="7.16364">
        <ele>304.39</ele>
        <time>2021-07-18T19:44:45Z</time>
      </trkpt>
      <trkpt lat="47.78084" lon="7.16567">
        <ele>302.47</ele>
        <time>2021-07-18T19:45:00Z</time>
      </trkpt>
      <trkpt lat="47.78245" lon="7.16746">
        <ele>303.43</ele>
        <time>2021-07-18T19:45:08Z</time>
      </trkpt>
      <trkpt lat="47.78382" lon="7.16982">
        <ele>304.39</ele>
        <time>2021-07-18T19:45:16Z</time>
      </trkpt>
      <trkpt lat="47.78512" lon="7.17323">
        <ele>300.55</ele>
        <time>2021-07-18T19:45:26Z</time>
      </trkpt>
      <trkpt lat="47.7869" lon="7.17654">
        <ele>305.84</ele>
        <time>2021-07-18T19:45:36Z</time>
      </trkpt>
      <trkpt lat="47.78873" lon="7.17888">
        <ele>307.28</ele>
        <time>2021-07-18T19:45:47Z</time>
      </trkpt>
      <trkpt lat="47.79185" lon="7.18259">
        <ele>301.99</ele>
        <time>2021-07-18T19:46:04Z</time>
      </trkpt>
      <trkpt lat="47.79462" lon="7.18588">
        <ele>301.99</ele>
        <time>2021-07-18T19:46:18Z</time>
      </trkpt>
      <trkpt lat="47.79718" lon="7.18853">
        <ele>301.99</ele>
        <time>2021-07-18T19:46:30Z</time>
      </trkpt>
      <trkpt lat="47.79943" lon="7.18988">
        <ele>298.15</ele>
        <time>2021-07-18T19:46:39Z</time>
      </trkpt>
      <trkpt lat="47.80276" lon="7.19112">
        <ele>295.74</ele>
        <time>2021-07-18T19:46:52Z</time>
      </trkpt>
      <trkpt lat="47.80699" lon="7.19268">
        <ele>294.78</ele>
        <time>2021-07-18T19:47:09Z</time>
      </trkpt>
      <trkpt lat="47.81152" lon="7.19472">
        <ele>290.46</ele>
        <time>2021-07-18T19:47:28Z</time>
      </trkpt>
      <trkpt lat="47.81599" lon="7.19696">
        <ele>286.61</ele>
        <time>2021-07-18T19:47:48Z</time>
      </trkpt>
      <trkpt lat="47.8182" lon="7.19865">
        <ele>285.17</ele>
        <time>2021-07-18T19:47:58Z</time>
      </trkpt>
      <trkpt lat="47.82005" lon="7.20091">
        <ele>285.17</ele>
        <time>2021-07-18T19:48:07Z</time>
      </trkpt>
      <trkpt lat="47.82158" lon="7.20368">
        <ele>284.69</ele>
        <time>2021-07-18T19:48:16Z</time>
      </trkpt>
      <trkpt lat="47.82439" lon="7.20989">
        <ele>280.84</ele>
        <time>2021-07-18T19:48:35Z</time>
      </trkpt>
      <trkpt lat="47.82661" lon="7.21422">
        <ele>277</ele>
        <time>2021-07-18T19:48:49Z</time>
      </trkpt>
      <trkpt lat="47.82837" lon="7.21648">
        <ele>273.63</ele>
        <time>2021-07-18T19:48:58Z</time>
      </trkpt>
      <trkpt lat="47.83267" lon="7.22138">
        <ele>268.83</ele>
        <time>2021-07-18T19:49:19Z</time>
      </trkpt>
      <trkpt lat="47.83683" lon="7.22618">
        <ele>264.98</ele>
        <time>2021-07-18T19:49:39Z</time>
      </trkpt>
      <trkpt lat="47.84058" lon="7.23049">
        <ele>258.25</ele>
        <time>2021-07-18T19:49:56Z</time>
      </trkpt>
      <trkpt lat="47.84474" lon="7.23526">
        <ele>254.89</ele>
        <time>2021-07-18T19:50:15Z</time>
      </trkpt>
      <trkpt lat="47.84722" lon="7.23775">
        <ele>250.56</ele>
        <time>2021-07-18T19:50:26Z</time>
      </trkpt>
      <trkpt lat="47.84974" lon="7.23924">
        <ele>250.08</ele>
        <time>2021-07-18T19:50:36Z</time>
      </trkpt>
      <trkpt lat="47.85447" lon="7.2415">
        <ele>247.2</ele>
        <time>2021-07-18T19:50:55Z</time>
      </trkpt>
      <trkpt lat="47.8579" lon="7.24287">
        <ele>247.68</ele>
        <time>2021-07-18T19:51:09Z</time>
      </trkpt>
      <trkpt lat="47.86331" lon="7.24409">
        <ele>251.04</ele>
        <time>2021-07-18T19:51:31Z</time>
      </trkpt>
      <trkpt lat="47.86752" lon="7.24523">
        <ele>253.44</ele>
        <time>2021-07-18T19:51:49Z</time>
      </trkpt>
      <trkpt lat="47.87021" lon="7.24622">
        <ele>254.41</ele>
        <time>2021-07-18T19:52:02Z</time>
      </trkpt>
      <trkpt lat="47.87185" lon="7.24686">
        <ele>254.41</ele>
        <time>2021-07-18T19:52:12Z</time>
      </trkpt>
      <trkpt lat="47.87221" lon="7.247">
        <ele>252.96</ele>
        <time>2021-07-18T19:52:15Z</time>
      </trkpt>
      <trkpt lat="47.87231" lon="7.24709">
        <ele>252.96</ele>
        <time>2021-07-18T19:52:16Z</time>
      </trkpt>
      <trkpt lat="47.87241" lon="7.24717">
        <ele>253.93</ele>
        <time>2021-07-18T19:52:17Z</time>
      </trkpt>
      <trkpt lat="47.87251" lon="7.24726">
        <ele>253.93</ele>
        <time>2021-07-18T19:52:18Z</time>
      </trkpt>
      <trkpt lat="47.87256" lon="7.24746">
        <ele>253.93</ele>
        <time>2021-07-18T19:52:19Z</time>
      </trkpt>
      <trkpt lat="47.87266" lon="7.24771">
        <ele>253.93</ele>
        <time>2021-07-18T19:52:21Z</time>
      </trkpt>
      <trkpt lat="47.87276" lon="7.24781">
        <ele>253.44</ele>
        <time>2021-07-18T19:52:22Z</time>
      </trkpt>
      <trkpt lat="47.87295" lon="7.24795">
        <ele>253.44</ele>
        <time>2021-07-18T19:52:23Z</time>
      </trkpt>
      <trkpt lat="47.87295" lon="7.24795">
        <ele>253.44</ele>
        <time>2021-07-18T19:52:24Z</time>
      </trkpt>
      <trkpt lat="47.87304" lon="7.24793">
        <ele>253.44</ele>
        <time>2021-07-18T19:52:25Z</time>
      </trkpt>
      <trkpt lat="47.87314" lon="7.24792">
        <ele>253.93</ele>
        <time>2021-07-18T19:52:26Z</time>
      </trkpt>
      <trkpt lat="47.87324" lon="7.24788">
        <ele>253.93</ele>
        <time>2021-07-18T19:52:27Z</time>
      </trkpt>
      <trkpt lat="47.87331" lon="7.24784">
        <ele>253.44</ele>
        <time>2021-07-18T19:52:28Z</time>
      </trkpt>
      <trkpt lat="47.87348" lon="7.24777">
        <ele>252.48</ele>
        <time>2021-07-18T19:52:29Z</time>
      </trkpt>
      <trkpt lat="47.87357" lon="7.2478">
        <ele>252.96</ele>
        <time>2021-07-18T19:52:30Z</time>
      </trkpt>
      <trkpt lat="47.87368" lon="7.24784">
        <ele>253.44</ele>
        <time>2021-07-18T19:52:31Z</time>
      </trkpt>
      <trkpt lat="47.87381" lon="7.24788">
        <ele>252.96</ele>
        <time>2021-07-18T19:52:32Z</time>
      </trkpt>
      <trkpt lat="47.87396" lon="7.24793">
        <ele>253.44</ele>
        <time>2021-07-18T19:52:33Z</time>
      </trkpt>
      <trkpt lat="47.87567" lon="7.24887">
        <ele>252.48</ele>
        <time>2021-07-18T19:52:44Z</time>
      </trkpt>
      <trkpt lat="47.8785" lon="7.25044">
        <ele>250.56</ele>
        <time>2021-07-18T19:52:59Z</time>
      </trkpt>
      <trkpt lat="47.88203" lon="7.25258">
        <ele>250.08</ele>
        <time>2021-07-18T19:53:16Z</time>
      </trkpt>
      <trkpt lat="47.885" lon="7.25457">
        <ele>248.16</ele>
        <time>2021-07-18T19:53:31Z</time>
      </trkpt>
      <trkpt lat="47.88737" lon="7.25591">
        <ele>248.64</ele>
        <time>2021-07-18T19:53:43Z</time>
      </trkpt>
      <trkpt lat="47.88978" lon="7.25634">
        <ele>247.2</ele>
        <time>2021-07-18T19:53:54Z</time>
      </trkpt>
      <trkpt lat="47.89339" lon="7.2568">
        <ele>249.12</ele>
        <time>2021-07-18T19:54:10Z</time>
      </trkpt>
      <trkpt lat="47.89546" lon="7.25746">
        <ele>247.2</ele>
        <time>2021-07-18T19:54:19Z</time>
      </trkpt>
      <trkpt lat="47.9004" lon="7.25942">
        <ele>247.2</ele>
        <time>2021-07-18T19:54:40Z</time>
      </trkpt>
      <trkpt lat="47.90435" lon="7.26021">
        <ele>246.72</ele>
        <time>2021-07-18T19:54:56Z</time>
      </trkpt>
      <trkpt lat="47.90744" lon="7.26101">
        <ele>243.83</ele>
        <time>2021-07-18T19:55:09Z</time>
      </trkpt>
      <trkpt lat="47.91045" lon="7.26245">
        <ele>241.43</ele>
        <time>2021-07-18T19:55:21Z</time>
      </trkpt>
      <trkpt lat="47.91507" lon="7.26473">
        <ele>236.62</ele>
        <time>2021-07-18T19:55:41Z</time>
      </trkpt>
      <trkpt lat="47.91992" lon="7.26705">
        <ele>231.81</ele>
        <time>2021-07-18T19:56:00Z</time>
      </trkpt>
      <trkpt lat="47.92298" lon="7.26824">
        <ele>229.89</ele>
        <time>2021-07-18T19:56:12Z</time>
      </trkpt>
      <trkpt lat="47.92614" lon="7.27015">
        <ele>227.49</ele>
        <time>2021-07-18T19:56:25Z</time>
      </trkpt>
      <trkpt lat="47.92947" lon="7.27256">
        <ele>220.28</ele>
        <time>2021-07-18T19:56:39Z</time>
      </trkpt>
      <trkpt lat="47.9331" lon="7.2758">
        <ele>217.4</ele>
        <time>2021-07-18T19:56:55Z</time>
      </trkpt>
      <trkpt lat="47.93617" lon="7.27855">
        <ele>214.99</ele>
        <time>2021-07-18T19:57:08Z</time>
      </trkpt>
      <trkpt lat="47.93932" lon="7.28135">
        <ele>215.47</ele>
        <time>2021-07-18T19:57:24Z</time>
      </trkpt>
      <trkpt lat="47.94266" lon="7.28516">
        <ele>214.03</ele>
        <time>2021-07-18T19:57:41Z</time>
      </trkpt>
      <trkpt lat="47.94468" lon="7.28797">
        <ele>212.59</ele>
        <time>2021-07-18T19:57:52Z</time>
      </trkpt>
      <trkpt lat="47.94591" lon="7.291">
        <ele>209.7</ele>
        <time>2021-07-18T19:58:00Z</time>
      </trkpt>
      <trkpt lat="47.94664" lon="7.29436">
        <ele>206.34</ele>
        <time>2021-07-18T19:58:09Z</time>
      </trkpt>
      <trkpt lat="47.9478" lon="7.29943">
        <ele>207.78</ele>
        <time>2021-07-18T19:58:24Z</time>
      </trkpt>
      <trkpt lat="47.94897" lon="7.30231">
        <ele>207.3</ele>
        <time>2021-07-18T19:58:33Z</time>
      </trkpt>
      <trkpt lat="47.95036" lon="7.30447">
        <ele>206.82</ele>
        <time>2021-07-18T19:58:41Z</time>
      </trkpt>
      <trkpt lat="47.95229" lon="7.30626">
        <ele>206.82</ele>
        <time>2021-07-18T19:58:49Z</time>
      </trkpt>
      <trkpt lat="47.9542" lon="7.30722">
        <ele>205.86</ele>
        <time>2021-07-18T19:58:58Z</time>
      </trkpt>
      <trkpt lat="47.95827" lon="7.30833">
        <ele>209.7</ele>
        <time>2021-07-18T19:59:14Z</time>
      </trkpt>
      <trkpt lat="47.96062" lon="7.30876">
        <ele>210.19</ele>
        <time>2021-07-18T19:59:24Z</time>
      </trkpt>
      <trkpt lat="47.96247" lon="7.30855">
        <ele>207.3</ele>
        <time>2021-07-18T19:59:32Z</time>
      </trkpt>
      <trkpt lat="47.96426" lon="7.30761">
        <ele>206.82</ele>
        <time>2021-07-18T19:59:40Z</time>
      </trkpt>
      <trkpt lat="47.96636" lon="7.30568">
        <ele>206.34</ele>
        <time>2021-07-18T19:59:50Z</time>
      </trkpt>
      <trkpt lat="47.9704" lon="7.30157">
        <ele>206.82</ele>
        <time>2021-07-18T20:00:10Z</time>
      </trkpt>
      <trkpt lat="47.97312" lon="7.29875">
        <ele>205.86</ele>
        <time>2021-07-18T20:00:22Z</time>
      </trkpt>
      <trkpt lat="47.97519" lon="7.29647">
        <ele>206.34</ele>
        <time>2021-07-18T20:00:33Z</time>
      </trkpt>
      <trkpt lat="47.97675" lon="7.29518">
        <ele>206.34</ele>
        <time>2021-07-18T20:00:40Z</time>
      </trkpt>
      <trkpt lat="47.97893" lon="7.29449">
        <ele>209.22</ele>
        <time>2021-07-18T20:00:48Z</time>
      </trkpt>
      <trkpt lat="47.98245" lon="7.29361">
        <ele>223.16</ele>
        <time>2021-07-18T20:01:04Z</time>
      </trkpt>
      <trkpt lat="47.98583" lon="7.29298">
        <ele>221.72</ele>
        <time>2021-07-18T20:01:18Z</time>
      </trkpt>
      <trkpt lat="47.9881" lon="7.29349">
        <ele>212.59</ele>
        <time>2021-07-18T20:01:27Z</time>
      </trkpt>
      <trkpt lat="47.99084" lon="7.29393">
        <ele>204.9</ele>
        <time>2021-07-18T20:01:37Z</time>
      </trkpt>
      <trkpt lat="47.99429" lon="7.29387">
        <ele>200.57</ele>
        <time>2021-07-18T20:01:50Z</time>
      </trkpt>
      <trkpt lat="47.99765" lon="7.29434">
        <ele>200.09</ele>
        <time>2021-07-18T20:02:03Z</time>
      </trkpt>
      <trkpt lat="48.0016" lon="7.29512">
        <ele>200.09</ele>
        <time>2021-07-18T20:02:19Z</time>
      </trkpt>
      <trkpt lat="48.00371" lon="7.29631">
        <ele>197.69</ele>
        <time>2021-07-18T20:02:28Z</time>
      </trkpt>
      <trkpt lat="48.00538" lon="7.29802">
        <ele>197.69</ele>
        <time>2021-07-18T20:02:36Z</time>
      </trkpt>
      <trkpt lat="48.00917" lon="7.30279">
        <ele>197.21</ele>
        <time>2021-07-18T20:02:55Z</time>
      </trkpt>
      <trkpt lat="48.01207" lon="7.30655">
        <ele>204.42</ele>
        <time>2021-07-18T20:03:10Z</time>
      </trkpt>
      <trkpt lat="48.01454" lon="7.30961">
        <ele>208.26</ele>
        <time>2021-07-18T20:03:23Z</time>
      </trkpt>
      <trkpt lat="48.01789" lon="7.31309">
        <ele>209.7</ele>
        <time>2021-07-18T20:03:39Z</time>
      </trkpt>
      <trkpt lat="48.02013" lon="7.31517">
        <ele>211.15</ele>
        <time>2021-07-18T20:03:50Z</time>
      </trkpt>
      <trkpt lat="48.02176" lon="7.31567">
        <ele>213.07</ele>
        <time>2021-07-18T20:03:57Z</time>
      </trkpt>
      <trkpt lat="48.02316" lon="7.31533">
        <ele>212.11</ele>
        <time>2021-07-18T20:04:03Z</time>
      </trkpt>
      <trkpt lat="48.02494" lon="7.31412">
        <ele>206.82</ele>
        <time>2021-07-18T20:04:11Z</time>
      </trkpt>
      <trkpt lat="48.02637" lon="7.31346">
        <ele>202.98</ele>
        <time>2021-07-18T20:04:17Z</time>
      </trkpt>
      <trkpt lat="48.02776" lon="7.31364">
        <ele>199.61</ele>
        <time>2021-07-18T20:04:22Z</time>
      </trkpt>
      <trkpt lat="48.02816" lon="7.31394">
        <ele>197.69</ele>
        <time>2021-07-18T20:04:26Z</time>
      </trkpt>
      <trkpt lat="48.02824" lon="7.31405">
        <ele>197.21</ele>
        <time>2021-07-18T20:04:27Z</time>
      </trkpt>
      <trkpt lat="48.02831" lon="7.31416">
        <ele>197.69</ele>
        <time>2021-07-18T20:04:28Z</time>
      </trkpt>
      <trkpt lat="48.02836" lon="7.31436">
        <ele>197.21</ele>
        <time>2021-07-18T20:04:29Z</time>
      </trkpt>
      <trkpt lat="48.02836" lon="7.31436">
        <ele>196.25</ele>
        <time>2021-07-18T20:04:30Z</time>
      </trkpt>
      <trkpt lat="48.02837" lon="7.31449">
        <ele>195.28</ele>
        <time>2021-07-18T20:04:31Z</time>
      </trkpt>
      <trkpt lat="48.02833" lon="7.3146">
        <ele>194.32</ele>
        <time>2021-07-18T20:04:32Z</time>
      </trkpt>
      <trkpt lat="48.02829" lon="7.31474">
        <ele>193.84</ele>
        <time>2021-07-18T20:04:33Z</time>
      </trkpt>
      <trkpt lat="48.02822" lon="7.31496">
        <ele>192.88</ele>
        <time>2021-07-18T20:04:35Z</time>
      </trkpt>
      <trkpt lat="48.02822" lon="7.31503">
        <ele>192.4</ele>
        <time>2021-07-18T20:04:36Z</time>
      </trkpt>
      <trkpt lat="48.02823" lon="7.31509">
        <ele>191.92</ele>
        <time>2021-07-18T20:04:37Z</time>
      </trkpt>
      <trkpt lat="48.02823" lon="7.31515">
        <ele>191.92</ele>
        <time>2021-07-18T20:04:38Z</time>
      </trkpt>
      <trkpt lat="48.02824" lon="7.3152">
        <ele>191.44</ele>
        <time>2021-07-18T20:04:39Z</time>
      </trkpt>
      <trkpt lat="48.02829" lon="7.31533">
        <ele>191.44</ele>
        <time>2021-07-18T20:04:40Z</time>
      </trkpt>
      <trkpt lat="48.02829" lon="7.31533">
        <ele>191.44</ele>
        <time>2021-07-18T20:04:41Z</time>
      </trkpt>
      <trkpt lat="48.0283" lon="7.31538">
        <ele>191.44</ele>
        <time>2021-07-18T20:04:42Z</time>
      </trkpt>
      <trkpt lat="48.02831" lon="7.31541">
        <ele>191.92</ele>
        <time>2021-07-18T20:04:44Z</time>
      </trkpt>
      <trkpt lat="48.0284" lon="7.31535">
        <ele>192.4</ele>
        <time>2021-07-18T20:04:45Z</time>
      </trkpt>
      <trkpt lat="48.02851" lon="7.31523">
        <ele>192.88</ele>
        <time>2021-07-18T20:04:46Z</time>
      </trkpt>
      <trkpt lat="48.02912" lon="7.31464">
        <ele>188.56</ele>
        <time>2021-07-18T20:04:54Z</time>
      </trkpt>
      <trkpt lat="48.02999" lon="7.31378">
        <ele>198.65</ele>
        <time>2021-07-18T20:05:03Z</time>
      </trkpt>
      <trkpt lat="48.03074" lon="7.31286">
        <ele>199.61</ele>
        <time>2021-07-18T20:05:12Z</time>
      </trkpt>
      <trkpt lat="48.03148" lon="7.312">
        <ele>202.01</ele>
        <time>2021-07-18T20:05:19Z</time>
      </trkpt>
      <trkpt lat="48.0316" lon="7.31189">
        <ele>202.49</ele>
        <time>2021-07-18T20:05:20Z</time>
      </trkpt>
      <trkpt lat="48.03187" lon="7.31178">
        <ele>202.49</ele>
        <time>2021-07-18T20:05:21Z</time>
      </trkpt>
      <trkpt lat="48.032" lon="7.31175">
        <ele>202.01</ele>
        <time>2021-07-18T20:05:22Z</time>
      </trkpt>
      <trkpt lat="48.03212" lon="7.31173">
        <ele>201.53</ele>
        <time>2021-07-18T20:05:23Z</time>
      </trkpt>
      <trkpt lat="48.03225" lon="7.31172">
        <ele>202.49</ele>
        <time>2021-07-18T20:05:25Z</time>
      </trkpt>
      <trkpt lat="48.03238" lon="7.31173">
        <ele>202.98</ele>
        <time>2021-07-18T20:05:26Z</time>
      </trkpt>
      <trkpt lat="48.03397" lon="7.31184">
        <ele>204.42</ele>
        <time>2021-07-18T20:05:36Z</time>
      </trkpt>
      <trkpt lat="48.03629" lon="7.31151">
        <ele>205.38</ele>
        <time>2021-07-18T20:05:48Z</time>
      </trkpt>
      <trkpt lat="48.03867" lon="7.31119">
        <ele>211.15</ele>
        <time>2021-07-18T20:06:00Z</time>
      </trkpt>
      <trkpt lat="48.04041" lon="7.31132">
        <ele>204.9</ele>
        <time>2021-07-18T20:06:10Z</time>
      </trkpt>
      <trkpt lat="48.04136" lon="7.31137">
        <ele>203.94</ele>
        <time>2021-07-18T20:06:18Z</time>
      </trkpt>
      <trkpt lat="48.04143" lon="7.31138">
        <ele>203.46</ele>
        <time>2021-07-18T20:06:20Z</time>
      </trkpt>
      <trkpt lat="48.04149" lon="7.31138">
        <ele>202.98</ele>
        <time>2021-07-18T20:06:21Z</time>
      </trkpt>
      <trkpt lat="48.04153" lon="7.31138">
        <ele>202.01</ele>
        <time>2021-07-18T20:06:23Z</time>
      </trkpt>
      <trkpt lat="48.04156" lon="7.31145">
        <ele>202.01</ele>
        <time>2021-07-18T20:06:24Z</time>
      </trkpt>
      <trkpt lat="48.04163" lon="7.3114">
        <ele>202.01</ele>
        <time>2021-07-18T20:06:26Z</time>
      </trkpt>
      <trkpt lat="48.0416" lon="7.31134">
        <ele>201.53</ele>
        <time>2021-07-18T20:06:27Z</time>
      </trkpt>
      <trkpt lat="48.04162" lon="7.31129">
        <ele>201.53</ele>
        <time>2021-07-18T20:06:28Z</time>
      </trkpt>
      <trkpt lat="48.04162" lon="7.31129">
        <ele>202.49</ele>
        <time>2021-07-18T20:06:29Z</time>
      </trkpt>
      <trkpt lat="48.04164" lon="7.31123">
        <ele>202.49</ele>
        <time>2021-07-18T20:06:30Z</time>
      </trkpt>
      <trkpt lat="48.04166" lon="7.31116">
        <ele>202.49</ele>
        <time>2021-07-18T20:06:31Z</time>
      </trkpt>
      <trkpt lat="48.04171" lon="7.31101">
        <ele>202.01</ele>
        <time>2021-07-18T20:06:32Z</time>
      </trkpt>
      <trkpt lat="48.04198" lon="7.31019">
        <ele>205.38</ele>
        <time>2021-07-18T20:06:46Z</time>
      </trkpt>
      <trkpt lat="48.04202" lon="7.31008">
        <ele>205.86</ele>
        <time>2021-07-18T20:06:51Z</time>
      </trkpt>
      <trkpt lat="48.04202" lon="7.31008">
        <ele>205.86</ele>
        <time>2021-07-18T20:06:52Z</time>
      </trkpt>
      <trkpt lat="48.04203" lon="7.31003">
        <ele>205.86</ele>
        <time>2021-07-18T20:06:53Z</time>
      </trkpt>
      <trkpt lat="48.04203" lon="7.31003">
        <ele>205.86</ele>
        <time>2021-07-18T20:06:55Z</time>
      </trkpt>
      <trkpt lat="48.04159" lon="7.30982">
        <ele>207.3</ele>
        <time>2021-07-18T20:07:07Z</time>
      </trkpt>
      <trkpt lat="48.0414" lon="7.3098">
        <ele>208.26</ele>
        <time>2021-07-18T20:07:11Z</time>
      </trkpt>
      <trkpt lat="48.04113" lon="7.3097">
        <ele>210.67</ele>
        <time>2021-07-18T20:07:21Z</time>
      </trkpt>
      <trkpt lat="48.04089" lon="7.30962">
        <ele>212.11</ele>
        <time>2021-07-18T20:07:49Z</time>
      </trkpt>
      <trkpt lat="48.04079" lon="7.30951">
        <ele>213.07</ele>
        <time>2021-07-18T20:07:57Z</time>
      </trkpt>
      <trkpt lat="48.04079" lon="7.30943">
        <ele>213.07</ele>
        <time>2021-07-18T20:11:09Z</time>
      </trkpt>
      <trkpt lat="48.04079" lon="7.30942">
        <ele>213.07</ele>
        <time>2021-07-18T20:13:04Z</time>
      </trkpt>
      <trkpt lat="48.0408" lon="7.3093">
        <ele>213.55</ele>
        <time>2021-07-18T20:13:23Z</time>
      </trkpt>
      <trkpt lat="48.0408" lon="7.30927">
        <ele>213.55</ele>
        <time>2021-07-18T20:13:41Z</time>
      </trkpt>
      <trkpt lat="48.04083" lon="7.30896">
        <ele>214.03</ele>
        <time>2021-07-18T20:14:00Z</time>
      </trkpt>
      <trkpt lat="48.04082" lon="7.30868">
        <ele>214.03</ele>
        <time>2021-07-18T20:14:11Z</time>
      </trkpt>
      <trkpt lat="48.0408" lon="7.30865">
        <ele>214.03</ele>
        <time>2021-07-18T20:14:16Z</time>
      </trkpt>
      <trkpt lat="48.04076" lon="7.30848">
        <ele>214.51</ele>
        <time>2021-07-18T20:14:25Z</time>
      </trkpt>
      <trkpt lat="48.04076" lon="7.30847">
        <ele>214.03</ele>
        <time>2021-07-18T20:18:08Z</time>
      </trkpt>
    </trkseg>
  </trk>
  <trk>
    <name><![CDATA[Journal actif: 2021-07-19 10:21]]></name>
    <trkseg>
      <trkpt lat="48.04097" lon="7.30843">
        <ele>204.9</ele>
        <time>2021-07-19T12:21:06Z</time>
      </trkpt>
      <trkpt lat="48.04083" lon="7.30843">
        <ele>214.51</ele>
        <time>2021-07-19T12:21:28Z</time>
      </trkpt>
      <trkpt lat="48.04076" lon="7.30852">
        <ele>218.84</ele>
        <time>2021-07-19T12:22:24Z</time>
      </trkpt>
      <trkpt lat="48.04078" lon="7.3086">
        <ele>217.88</ele>
        <time>2021-07-19T12:22:45Z</time>
      </trkpt>
      <trkpt lat="48.04078" lon="7.3086">
        <ele>217.88</ele>
        <time>2021-07-19T12:22:47Z</time>
      </trkpt>
      <trkpt lat="48.04081" lon="7.30891">
        <ele>216.43</ele>
        <time>2021-07-19T12:22:59Z</time>
      </trkpt>
      <trkpt lat="48.04075" lon="7.30936">
        <ele>213.55</ele>
        <time>2021-07-19T12:23:14Z</time>
      </trkpt>
      <trkpt lat="48.04074" lon="7.30942">
        <ele>212.11</ele>
        <time>2021-07-19T12:23:32Z</time>
      </trkpt>
      <trkpt lat="48.04074" lon="7.30942">
        <ele>211.63</ele>
        <time>2021-07-19T12:24:42Z</time>
      </trkpt>
      <trkpt lat="48.04073" lon="7.30953">
        <ele>210.67</ele>
        <time>2021-07-19T12:26:37Z</time>
      </trkpt>
      <trkpt lat="48.04066" lon="7.30956">
        <ele>210.19</ele>
        <time>2021-07-19T12:26:42Z</time>
      </trkpt>
      <trkpt lat="48.04061" lon="7.30957">
        <ele>210.19</ele>
        <time>2021-07-19T12:26:45Z</time>
      </trkpt>
      <trkpt lat="48.04068" lon="7.30974">
        <ele>208.74</ele>
        <time>2021-07-19T12:26:53Z</time>
      </trkpt>
      <trkpt lat="48.0407" lon="7.30971">
        <ele>209.22</ele>
        <time>2021-07-19T12:27:05Z</time>
      </trkpt>
      <trkpt lat="48.0407" lon="7.30971">
        <ele>209.22</ele>
        <time>2021-07-19T12:31:18Z</time>
      </trkpt>
      <trkpt lat="48.04072" lon="7.30971">
        <ele>208.74</ele>
        <time>2021-07-19T12:34:56Z</time>
      </trkpt>
      <trkpt lat="48.04072" lon="7.3097">
        <ele>208.26</ele>
        <time>2021-07-19T12:36:58Z</time>
      </trkpt>
      <trkpt lat="48.04072" lon="7.3097">
        <ele>208.26</ele>
        <time>2021-07-19T12:40:20Z</time>
      </trkpt>
      <trkpt lat="48.04072" lon="7.3097">
        <ele>208.74</ele>
        <time>2021-07-19T12:43:27Z</time>
      </trkpt>
      <trkpt lat="48.04073" lon="7.30965">
        <ele>208.74</ele>
        <time>2021-07-19T12:44:21Z</time>
      </trkpt>
      <trkpt lat="48.04073" lon="7.30965">
        <ele>208.74</ele>
        <time>2021-07-19T12:46:27Z</time>
      </trkpt>
      <trkpt lat="48.04083" lon="7.30959">
        <ele>208.26</ele>
        <time>2021-07-19T12:46:53Z</time>
      </trkpt>
      <trkpt lat="48.04123" lon="7.30978">
        <ele>205.86</ele>
        <time>2021-07-19T12:47:06Z</time>
      </trkpt>
      <trkpt lat="48.04132" lon="7.30982">
        <ele>205.38</ele>
        <time>2021-07-19T12:47:17Z</time>
      </trkpt>
      <trkpt lat="48.04145" lon="7.30985">
        <ele>205.86</ele>
        <time>2021-07-19T12:47:33Z</time>
      </trkpt>
      <trkpt lat="48.04157" lon="7.30981">
        <ele>205.86</ele>
        <time>2021-07-19T12:47:46Z</time>
      </trkpt>
      <trkpt lat="48.04188" lon="7.31002">
        <ele>204.42</ele>
        <time>2021-07-19T12:47:59Z</time>
      </trkpt>
      <trkpt lat="48.04196" lon="7.31005">
        <ele>205.38</ele>
        <time>2021-07-19T12:48:14Z</time>
      </trkpt>
      <trkpt lat="48.042" lon="7.3101">
        <ele>204.9</ele>
        <time>2021-07-19T12:48:26Z</time>
      </trkpt>
      <trkpt lat="48.042" lon="7.31013">
        <ele>204.9</ele>
        <time>2021-07-19T12:48:28Z</time>
      </trkpt>
      <trkpt lat="48.04199" lon="7.31016">
        <ele>204.9</ele>
        <time>2021-07-19T12:48:29Z</time>
      </trkpt>
      <trkpt lat="48.04198" lon="7.3102">
        <ele>204.9</ele>
        <time>2021-07-19T12:48:30Z</time>
      </trkpt>
      <trkpt lat="48.04196" lon="7.31024">
        <ele>204.9</ele>
        <time>2021-07-19T12:48:31Z</time>
      </trkpt>
      <trkpt lat="48.0417" lon="7.31106">
        <ele>204.42</ele>
        <time>2021-07-19T12:48:45Z</time>
      </trkpt>
      <trkpt lat="48.04154" lon="7.31138">
        <ele>204.42</ele>
        <time>2021-07-19T12:48:55Z</time>
      </trkpt>
      <trkpt lat="48.04154" lon="7.31138">
        <ele>203.94</ele>
        <time>2021-07-19T12:48:56Z</time>
      </trkpt>
      <trkpt lat="48.04146" lon="7.31138">
        <ele>203.46</ele>
        <time>2021-07-19T12:48:58Z</time>
      </trkpt>
      <trkpt lat="48.04141" lon="7.31138">
        <ele>203.46</ele>
        <time>2021-07-19T12:48:59Z</time>
      </trkpt>
      <trkpt lat="48.04094" lon="7.31136">
        <ele>201.53</ele>
        <time>2021-07-19T12:49:09Z</time>
      </trkpt>
      <trkpt lat="48.04092" lon="7.31136">
        <ele>201.53</ele>
        <time>2021-07-19T12:49:11Z</time>
      </trkpt>
      <trkpt lat="48.0409" lon="7.31136">
        <ele>201.53</ele>
        <time>2021-07-19T12:49:12Z</time>
      </trkpt>
      <trkpt lat="48.04082" lon="7.31136">
        <ele>201.53</ele>
        <time>2021-07-19T12:49:16Z</time>
      </trkpt>
      <trkpt lat="48.04082" lon="7.31136">
        <ele>201.53</ele>
        <time>2021-07-19T12:49:17Z</time>
      </trkpt>
      <trkpt lat="48.04079" lon="7.31136">
        <ele>201.05</ele>
        <time>2021-07-19T12:49:30Z</time>
      </trkpt>
      <trkpt lat="48.04073" lon="7.31135">
        <ele>200.57</ele>
        <time>2021-07-19T12:51:06Z</time>
      </trkpt>
      <trkpt lat="48.04019" lon="7.31129">
        <ele>203.94</ele>
        <time>2021-07-19T12:51:14Z</time>
      </trkpt>
      <trkpt lat="48.03865" lon="7.31119">
        <ele>209.22</ele>
        <time>2021-07-19T12:51:30Z</time>
      </trkpt>
      <trkpt lat="48.03721" lon="7.31134">
        <ele>200.57</ele>
        <time>2021-07-19T12:51:42Z</time>
      </trkpt>
      <trkpt lat="48.03433" lon="7.31179">
        <ele>198.65</ele>
        <time>2021-07-19T12:52:02Z</time>
      </trkpt>
      <trkpt lat="48.03246" lon="7.31174">
        <ele>196.73</ele>
        <time>2021-07-19T12:52:15Z</time>
      </trkpt>
      <trkpt lat="48.03183" lon="7.31178">
        <ele>195.28</ele>
        <time>2021-07-19T12:52:20Z</time>
      </trkpt>
      <trkpt lat="48.03171" lon="7.31181">
        <ele>195.28</ele>
        <time>2021-07-19T12:52:21Z</time>
      </trkpt>
      <trkpt lat="48.03161" lon="7.31188">
        <ele>194.8</ele>
        <time>2021-07-19T12:52:22Z</time>
      </trkpt>
      <trkpt lat="48.03151" lon="7.31197">
        <ele>194.32</ele>
        <time>2021-07-19T12:52:23Z</time>
      </trkpt>
      <trkpt lat="48.0314" lon="7.31207">
        <ele>193.84</ele>
        <time>2021-07-19T12:52:24Z</time>
      </trkpt>
      <trkpt lat="48.02997" lon="7.3138">
        <ele>191.92</ele>
        <time>2021-07-19T12:52:39Z</time>
      </trkpt>
      <trkpt lat="48.02885" lon="7.31487">
        <ele>190</ele>
        <time>2021-07-19T12:52:49Z</time>
      </trkpt>
      <trkpt lat="48.02787" lon="7.31605">
        <ele>191.44</ele>
        <time>2021-07-19T12:52:58Z</time>
      </trkpt>
      <trkpt lat="48.02637" lon="7.31812">
        <ele>191.92</ele>
        <time>2021-07-19T12:53:11Z</time>
      </trkpt>
      <trkpt lat="48.02473" lon="7.32069">
        <ele>200.09</ele>
        <time>2021-07-19T12:53:27Z</time>
      </trkpt>
      <trkpt lat="48.02367" lon="7.32346">
        <ele>198.17</ele>
        <time>2021-07-19T12:53:39Z</time>
      </trkpt>
      <trkpt lat="48.02269" lon="7.32686">
        <ele>193.36</ele>
        <time>2021-07-19T12:53:56Z</time>
      </trkpt>
      <trkpt lat="48.02253" lon="7.32743">
        <ele>193.36</ele>
        <time>2021-07-19T12:54:01Z</time>
      </trkpt>
      <trkpt lat="48.02251" lon="7.32751">
        <ele>193.36</ele>
        <time>2021-07-19T12:54:02Z</time>
      </trkpt>
      <trkpt lat="48.02237" lon="7.3276">
        <ele>192.88</ele>
        <time>2021-07-19T12:54:04Z</time>
      </trkpt>
      <trkpt lat="48.02231" lon="7.32766">
        <ele>192.88</ele>
        <time>2021-07-19T12:54:05Z</time>
      </trkpt>
      <trkpt lat="48.02229" lon="7.32774">
        <ele>192.88</ele>
        <time>2021-07-19T12:54:06Z</time>
      </trkpt>
      <trkpt lat="48.02227" lon="7.3278">
        <ele>192.88</ele>
        <time>2021-07-19T12:54:07Z</time>
      </trkpt>
      <trkpt lat="48.02231" lon="7.32787">
        <ele>192.88</ele>
        <time>2021-07-19T12:54:08Z</time>
      </trkpt>
      <trkpt lat="48.02235" lon="7.32809">
        <ele>193.36</ele>
        <time>2021-07-19T12:54:09Z</time>
      </trkpt>
      <trkpt lat="48.02232" lon="7.32818">
        <ele>193.36</ele>
        <time>2021-07-19T12:54:10Z</time>
      </trkpt>
      <trkpt lat="48.02228" lon="7.32828">
        <ele>193.36</ele>
        <time>2021-07-19T12:54:11Z</time>
      </trkpt>
      <trkpt lat="48.02165" lon="7.33008">
        <ele>194.8</ele>
        <time>2021-07-19T12:54:26Z</time>
      </trkpt>
      <trkpt lat="48.02158" lon="7.33029">
        <ele>195.28</ele>
        <time>2021-07-19T12:54:30Z</time>
      </trkpt>
      <trkpt lat="48.02156" lon="7.33033">
        <ele>194.8</ele>
        <time>2021-07-19T12:54:31Z</time>
      </trkpt>
      <trkpt lat="48.0216" lon="7.33031">
        <ele>194.8</ele>
        <time>2021-07-19T12:54:32Z</time>
      </trkpt>
      <trkpt lat="48.02166" lon="7.33028">
        <ele>195.28</ele>
        <time>2021-07-19T12:54:37Z</time>
      </trkpt>
      <trkpt lat="48.0218" lon="7.33014">
        <ele>195.77</ele>
        <time>2021-07-19T12:54:48Z</time>
      </trkpt>
      <trkpt lat="48.0218" lon="7.33014">
        <ele>195.77</ele>
        <time>2021-07-19T12:58:17Z</time>
      </trkpt>
      <trkpt lat="48.02182" lon="7.33007">
        <ele>195.77</ele>
        <time>2021-07-19T12:59:07Z</time>
      </trkpt>
      <trkpt lat="48.02183" lon="7.32989">
        <ele>195.77</ele>
        <time>2021-07-19T12:59:18Z</time>
      </trkpt>
      <trkpt lat="48.02183" lon="7.32989">
        <ele>196.25</ele>
        <time>2021-07-19T12:59:38Z</time>
      </trkpt>
      <trkpt lat="48.02183" lon="7.32989">
        <ele>196.25</ele>
        <time>2021-07-19T12:59:39Z</time>
      </trkpt>
      <trkpt lat="48.02174" lon="7.32983">
        <ele>196.25</ele>
        <time>2021-07-19T12:59:40Z</time>
      </trkpt>
      <trkpt lat="48.02173" lon="7.32986">
        <ele>196.25</ele>
        <time>2021-07-19T12:59:41Z</time>
      </trkpt>
      <trkpt lat="48.02172" lon="7.32991">
        <ele>196.25</ele>
        <time>2021-07-19T12:59:42Z</time>
      </trkpt>
      <trkpt lat="48.02167" lon="7.33004">
        <ele>196.25</ele>
        <time>2021-07-19T12:59:43Z</time>
      </trkpt>
      <trkpt lat="48.02167" lon="7.33004">
        <ele>196.25</ele>
        <time>2021-07-19T12:59:44Z</time>
      </trkpt>
      <trkpt lat="48.02132" lon="7.33095">
        <ele>195.28</ele>
        <time>2021-07-19T12:59:52Z</time>
      </trkpt>
      <trkpt lat="48.02049" lon="7.33253">
        <ele>194.32</ele>
        <time>2021-07-19T13:00:02Z</time>
      </trkpt>
      <trkpt lat="48.01896" lon="7.33446">
        <ele>196.73</ele>
        <time>2021-07-19T13:00:15Z</time>
      </trkpt>
      <trkpt lat="48.01753" lon="7.33551">
        <ele>198.65</ele>
        <time>2021-07-19T13:00:27Z</time>
      </trkpt>
      <trkpt lat="48.01571" lon="7.33623">
        <ele>193.84</ele>
        <time>2021-07-19T13:00:38Z</time>
      </trkpt>
      <trkpt lat="48.01395" lon="7.33638">
        <ele>197.21</ele>
        <time>2021-07-19T13:00:49Z</time>
      </trkpt>
      <trkpt lat="48.01121" lon="7.33668">
        <ele>194.32</ele>
        <time>2021-07-19T13:01:04Z</time>
      </trkpt>
      <trkpt lat="48.00907" lon="7.33774">
        <ele>192.88</ele>
        <time>2021-07-19T13:01:16Z</time>
      </trkpt>
      <trkpt lat="48.00692" lon="7.3393">
        <ele>192.4</ele>
        <time>2021-07-19T13:01:28Z</time>
      </trkpt>
      <trkpt lat="48.00432" lon="7.34163">
        <ele>194.8</ele>
        <time>2021-07-19T13:01:45Z</time>
      </trkpt>
      <trkpt lat="48.00274" lon="7.34267">
        <ele>196.73</ele>
        <time>2021-07-19T13:01:54Z</time>
      </trkpt>
      <trkpt lat="48.00198" lon="7.34391">
        <ele>200.57</ele>
        <time>2021-07-19T13:02:00Z</time>
      </trkpt>
      <trkpt lat="48.00144" lon="7.346">
        <ele>202.01</ele>
        <time>2021-07-19T13:02:08Z</time>
      </trkpt>
      <trkpt lat="48.00053" lon="7.35028">
        <ele>202.98</ele>
        <time>2021-07-19T13:02:23Z</time>
      </trkpt>
      <trkpt lat="48.00033" lon="7.35333">
        <ele>201.53</ele>
        <time>2021-07-19T13:02:33Z</time>
      </trkpt>
      <trkpt lat="48.00019" lon="7.35853">
        <ele>201.53</ele>
        <time>2021-07-19T13:02:50Z</time>
      </trkpt>
      <trkpt lat="47.9997" lon="7.36048">
        <ele>201.53</ele>
        <time>2021-07-19T13:02:57Z</time>
      </trkpt>
      <trkpt lat="47.9986" lon="7.36296">
        <ele>201.05</ele>
        <time>2021-07-19T13:03:07Z</time>
      </trkpt>
      <trkpt lat="47.9977" lon="7.36567">
        <ele>204.42</ele>
        <time>2021-07-19T13:03:17Z</time>
      </trkpt>
      <trkpt lat="47.99559" lon="7.3702">
        <ele>206.34</ele>
        <time>2021-07-19T13:03:35Z</time>
      </trkpt>
      <trkpt lat="47.99493" lon="7.37242">
        <ele>207.3</ele>
        <time>2021-07-19T13:03:43Z</time>
      </trkpt>
      <trkpt lat="47.99438" lon="7.37446">
        <ele>207.3</ele>
        <time>2021-07-19T13:03:53Z</time>
      </trkpt>
      <trkpt lat="47.99359" lon="7.37644">
        <ele>203.46</ele>
        <time>2021-07-19T13:04:03Z</time>
      </trkpt>
      <trkpt lat="47.9935" lon="7.37661">
        <ele>202.98</ele>
        <time>2021-07-19T13:04:07Z</time>
      </trkpt>
      <trkpt lat="47.99334" lon="7.37663">
        <ele>202.98</ele>
        <time>2021-07-19T13:04:08Z</time>
      </trkpt>
      <trkpt lat="47.99329" lon="7.37667">
        <ele>202.49</ele>
        <time>2021-07-19T13:04:09Z</time>
      </trkpt>
      <trkpt lat="47.99332" lon="7.37702">
        <ele>202.49</ele>
        <time>2021-07-19T13:04:10Z</time>
      </trkpt>
      <trkpt lat="47.99332" lon="7.37702">
        <ele>203.46</ele>
        <time>2021-07-19T13:04:11Z</time>
      </trkpt>
      <trkpt lat="47.99328" lon="7.37715">
        <ele>204.42</ele>
        <time>2021-07-19T13:04:12Z</time>
      </trkpt>
      <trkpt lat="47.99325" lon="7.37724">
        <ele>204.9</ele>
        <time>2021-07-19T13:04:13Z</time>
      </trkpt>
      <trkpt lat="47.99325" lon="7.37724">
        <ele>205.38</ele>
        <time>2021-07-19T13:04:14Z</time>
      </trkpt>
      <trkpt lat="47.99318" lon="7.37745">
        <ele>205.38</ele>
        <time>2021-07-19T13:04:15Z</time>
      </trkpt>
      <trkpt lat="47.99318" lon="7.37745">
        <ele>205.86</ele>
        <time>2021-07-19T13:04:16Z</time>
      </trkpt>
      <trkpt lat="47.99314" lon="7.37758">
        <ele>205.86</ele>
        <time>2021-07-19T13:04:17Z</time>
      </trkpt>
      <trkpt lat="47.99309" lon="7.37772">
        <ele>205.86</ele>
        <time>2021-07-19T13:04:18Z</time>
      </trkpt>
      <trkpt lat="47.99251" lon="7.37935">
        <ele>207.3</ele>
        <time>2021-07-19T13:04:27Z</time>
      </trkpt>
      <trkpt lat="47.99211" lon="7.38065">
        <ele>201.05</ele>
        <time>2021-07-19T13:04:35Z</time>
      </trkpt>
      <trkpt lat="47.99209" lon="7.38073">
        <ele>201.53</ele>
        <time>2021-07-19T13:04:36Z</time>
      </trkpt>
      <trkpt lat="47.99207" lon="7.3808">
        <ele>202.49</ele>
        <time>2021-07-19T13:04:37Z</time>
      </trkpt>
      <trkpt lat="47.99188" lon="7.38094">
        <ele>203.94</ele>
        <time>2021-07-19T13:04:40Z</time>
      </trkpt>
      <trkpt lat="47.99185" lon="7.38103">
        <ele>204.42</ele>
        <time>2021-07-19T13:04:41Z</time>
      </trkpt>
      <trkpt lat="47.99184" lon="7.38105">
        <ele>204.42</ele>
        <time>2021-07-19T13:04:42Z</time>
      </trkpt>
      <trkpt lat="47.99184" lon="7.38105">
        <ele>203.94</ele>
        <time>2021-07-19T13:04:43Z</time>
      </trkpt>
      <trkpt lat="47.99192" lon="7.38124">
        <ele>203.94</ele>
        <time>2021-07-19T13:04:44Z</time>
      </trkpt>
      <trkpt lat="47.99193" lon="7.38127">
        <ele>203.46</ele>
        <time>2021-07-19T13:04:45Z</time>
      </trkpt>
      <trkpt lat="47.99199" lon="7.38127">
        <ele>203.46</ele>
        <time>2021-07-19T13:04:46Z</time>
      </trkpt>
      <trkpt lat="47.99207" lon="7.38127">
        <ele>203.46</ele>
        <time>2021-07-19T13:04:47Z</time>
      </trkpt>
      <trkpt lat="47.9921" lon="7.38127">
        <ele>203.94</ele>
        <time>2021-07-19T13:04:48Z</time>
      </trkpt>
      <trkpt lat="47.9921" lon="7.38127">
        <ele>204.42</ele>
        <time>2021-07-19T13:04:49Z</time>
      </trkpt>
      <trkpt lat="47.99234" lon="7.38116">
        <ele>204.42</ele>
        <time>2021-07-19T13:04:50Z</time>
      </trkpt>
      <trkpt lat="47.99338" lon="7.38138">
        <ele>206.82</ele>
        <time>2021-07-19T13:04:59Z</time>
      </trkpt>
      <trkpt lat="47.99414" lon="7.3815">
        <ele>203.94</ele>
        <time>2021-07-19T13:05:04Z</time>
      </trkpt>
      <trkpt lat="47.99427" lon="7.38153">
        <ele>203.94</ele>
        <time>2021-07-19T13:05:05Z</time>
      </trkpt>
      <trkpt lat="47.99442" lon="7.38147">
        <ele>203.46</ele>
        <time>2021-07-19T13:05:06Z</time>
      </trkpt>
      <trkpt lat="47.99572" lon="7.38087">
        <ele>203.94</ele>
        <time>2021-07-19T13:05:16Z</time>
      </trkpt>
      <trkpt lat="47.99591" lon="7.38069">
        <ele>203.94</ele>
        <time>2021-07-19T13:05:17Z</time>
      </trkpt>
      <trkpt lat="47.99591" lon="7.38069">
        <ele>203.94</ele>
        <time>2021-07-19T13:05:18Z</time>
      </trkpt>
      <trkpt lat="47.99661" lon="7.37985">
        <ele>204.9</ele>
        <time>2021-07-19T13:05:25Z</time>
      </trkpt>
      <trkpt lat="47.99677" lon="7.3798">
        <ele>204.9</ele>
        <time>2021-07-19T13:05:26Z</time>
      </trkpt>
      <trkpt lat="47.9969" lon="7.37975">
        <ele>204.42</ele>
        <time>2021-07-19T13:05:27Z</time>
      </trkpt>
      <trkpt lat="47.99702" lon="7.37975">
        <ele>204.9</ele>
        <time>2021-07-19T13:05:28Z</time>
      </trkpt>
      <trkpt lat="47.99716" lon="7.37976">
        <ele>206.34</ele>
        <time>2021-07-19T13:05:29Z</time>
      </trkpt>
      <trkpt lat="47.99866" lon="7.37966">
        <ele>201.05</ele>
        <time>2021-07-19T13:05:37Z</time>
      </trkpt>
      <trkpt lat="48.00115" lon="7.37925">
        <ele>199.61</ele>
        <time>2021-07-19T13:05:50Z</time>
      </trkpt>
      <trkpt lat="48.00452" lon="7.37823">
        <ele>198.17</ele>
        <time>2021-07-19T13:06:06Z</time>
      </trkpt>
      <trkpt lat="48.00788" lon="7.37724">
        <ele>199.13</ele>
        <time>2021-07-19T13:06:22Z</time>
      </trkpt>
      <trkpt lat="48.01254" lon="7.37587">
        <ele>199.13</ele>
        <time>2021-07-19T13:06:42Z</time>
      </trkpt>
      <trkpt lat="48.01654" lon="7.37466">
        <ele>198.65</ele>
        <time>2021-07-19T13:06:59Z</time>
      </trkpt>
      <trkpt lat="48.02042" lon="7.37358">
        <ele>197.69</ele>
        <time>2021-07-19T13:07:15Z</time>
      </trkpt>
      <trkpt lat="48.02439" lon="7.37271">
        <ele>196.73</ele>
        <time>2021-07-19T13:07:31Z</time>
      </trkpt>
      <trkpt lat="48.02916" lon="7.37203">
        <ele>197.21</ele>
        <time>2021-07-19T13:07:48Z</time>
      </trkpt>
      <trkpt lat="48.03564" lon="7.37135">
        <ele>200.57</ele>
        <time>2021-07-19T13:08:13Z</time>
      </trkpt>
      <trkpt lat="48.03994" lon="7.3709">
        <ele>198.17</ele>
        <time>2021-07-19T13:08:29Z</time>
      </trkpt>
      <trkpt lat="48.0446" lon="7.37054">
        <ele>195.28</ele>
        <time>2021-07-19T13:08:46Z</time>
      </trkpt>
      <trkpt lat="48.04724" lon="7.37093">
        <ele>197.69</ele>
        <time>2021-07-19T13:08:56Z</time>
      </trkpt>
      <trkpt lat="48.04993" lon="7.37187">
        <ele>198.17</ele>
        <time>2021-07-19T13:09:07Z</time>
      </trkpt>
      <trkpt lat="48.05278" lon="7.37359">
        <ele>197.69</ele>
        <time>2021-07-19T13:09:19Z</time>
      </trkpt>
      <trkpt lat="48.05627" lon="7.37647">
        <ele>200.09</ele>
        <time>2021-07-19T13:09:34Z</time>
      </trkpt>
      <trkpt lat="48.06099" lon="7.38053">
        <ele>193.36</ele>
        <time>2021-07-19T13:09:54Z</time>
      </trkpt>
      <trkpt lat="48.06419" lon="7.38275">
        <ele>191.92</ele>
        <time>2021-07-19T13:10:07Z</time>
      </trkpt>
      <trkpt lat="48.06799" lon="7.38449">
        <ele>191.92</ele>
        <time>2021-07-19T13:10:21Z</time>
      </trkpt>
      <trkpt lat="48.07054" lon="7.38514">
        <ele>195.77</ele>
        <time>2021-07-19T13:10:32Z</time>
      </trkpt>
      <trkpt lat="48.0741" lon="7.38547">
        <ele>196.73</ele>
        <time>2021-07-19T13:10:46Z</time>
      </trkpt>
      <trkpt lat="48.07747" lon="7.38515">
        <ele>193.84</ele>
        <time>2021-07-19T13:10:58Z</time>
      </trkpt>
      <trkpt lat="48.08144" lon="7.38446">
        <ele>186.63</ele>
        <time>2021-07-19T13:11:14Z</time>
      </trkpt>
      <trkpt lat="48.08589" lon="7.38368">
        <ele>190.48</ele>
        <time>2021-07-19T13:11:31Z</time>
      </trkpt>
      <trkpt lat="48.08907" lon="7.38313">
        <ele>191.92</ele>
        <time>2021-07-19T13:11:44Z</time>
      </trkpt>
      <trkpt lat="48.09292" lon="7.38264">
        <ele>192.88</ele>
        <time>2021-07-19T13:12:00Z</time>
      </trkpt>
      <trkpt lat="48.09753" lon="7.3824">
        <ele>191.92</ele>
        <time>2021-07-19T13:12:18Z</time>
      </trkpt>
      <trkpt lat="48.10169" lon="7.38247">
        <ele>191.92</ele>
        <time>2021-07-19T13:12:34Z</time>
      </trkpt>
      <trkpt lat="48.10727" lon="7.38292">
        <ele>190.48</ele>
        <time>2021-07-19T13:12:56Z</time>
      </trkpt>
      <trkpt lat="48.10982" lon="7.38293">
        <ele>188.56</ele>
        <time>2021-07-19T13:13:06Z</time>
      </trkpt>
      <trkpt lat="48.11185" lon="7.38227">
        <ele>186.63</ele>
        <time>2021-07-19T13:13:14Z</time>
      </trkpt>
      <trkpt lat="48.11375" lon="7.38095">
        <ele>187.11</ele>
        <time>2021-07-19T13:13:22Z</time>
      </trkpt>
      <trkpt lat="48.11537" lon="7.37899">
        <ele>185.19</ele>
        <time>2021-07-19T13:13:30Z</time>
      </trkpt>
      <trkpt lat="48.11664" lon="7.37652">
        <ele>185.67</ele>
        <time>2021-07-19T13:13:38Z</time>
      </trkpt>
      <trkpt lat="48.11779" lon="7.37311">
        <ele>185.19</ele>
        <time>2021-07-19T13:13:48Z</time>
      </trkpt>
      <trkpt lat="48.11915" lon="7.36897">
        <ele>185.19</ele>
        <time>2021-07-19T13:14:00Z</time>
      </trkpt>
      <trkpt lat="48.12056" lon="7.36686">
        <ele>185.67</ele>
        <time>2021-07-19T13:14:07Z</time>
      </trkpt>
      <trkpt lat="48.12187" lon="7.36578">
        <ele>184.71</ele>
        <time>2021-07-19T13:14:14Z</time>
      </trkpt>
      <trkpt lat="48.12353" lon="7.36516">
        <ele>186.63</ele>
        <time>2021-07-19T13:14:22Z</time>
      </trkpt>
      <trkpt lat="48.12555" lon="7.36524">
        <ele>190.96</ele>
        <time>2021-07-19T13:14:31Z</time>
      </trkpt>
      <trkpt lat="48.12875" lon="7.3658">
        <ele>189.52</ele>
        <time>2021-07-19T13:14:44Z</time>
      </trkpt>
      <trkpt lat="48.1317" lon="7.36606">
        <ele>186.15</ele>
        <time>2021-07-19T13:14:56Z</time>
      </trkpt>
      <trkpt lat="48.13372" lon="7.36558">
        <ele>187.11</ele>
        <time>2021-07-19T13:15:04Z</time>
      </trkpt>
      <trkpt lat="48.1369" lon="7.36485">
        <ele>192.4</ele>
        <time>2021-07-19T13:15:16Z</time>
      </trkpt>
      <trkpt lat="48.13903" lon="7.36523">
        <ele>194.8</ele>
        <time>2021-07-19T13:15:24Z</time>
      </trkpt>
      <trkpt lat="48.14055" lon="7.36596">
        <ele>190</ele>
        <time>2021-07-19T13:15:30Z</time>
      </trkpt>
      <trkpt lat="48.14264" lon="7.36742">
        <ele>189.04</ele>
        <time>2021-07-19T13:15:39Z</time>
      </trkpt>
      <trkpt lat="48.1448" lon="7.36827">
        <ele>187.59</ele>
        <time>2021-07-19T13:15:48Z</time>
      </trkpt>
      <trkpt lat="48.14712" lon="7.36905">
        <ele>188.56</ele>
        <time>2021-07-19T13:16:00Z</time>
      </trkpt>
      <trkpt lat="48.14957" lon="7.36989">
        <ele>187.11</ele>
        <time>2021-07-19T13:16:12Z</time>
      </trkpt>
      <trkpt lat="48.15119" lon="7.37095">
        <ele>186.63</ele>
        <time>2021-07-19T13:16:20Z</time>
      </trkpt>
      <trkpt lat="48.15256" lon="7.37268">
        <ele>186.63</ele>
        <time>2021-07-19T13:16:28Z</time>
      </trkpt>
      <trkpt lat="48.15354" lon="7.3747">
        <ele>187.11</ele>
        <time>2021-07-19T13:16:35Z</time>
      </trkpt>
      <trkpt lat="48.15472" lon="7.37672">
        <ele>187.11</ele>
        <time>2021-07-19T13:16:42Z</time>
      </trkpt>
      <trkpt lat="48.15618" lon="7.37813">
        <ele>186.63</ele>
        <time>2021-07-19T13:16:49Z</time>
      </trkpt>
      <trkpt lat="48.15789" lon="7.37895">
        <ele>180.87</ele>
        <time>2021-07-19T13:16:56Z</time>
      </trkpt>
      <trkpt lat="48.15966" lon="7.37906">
        <ele>178.46</ele>
        <time>2021-07-19T13:17:03Z</time>
      </trkpt>
      <trkpt lat="48.16122" lon="7.37853">
        <ele>178.94</ele>
        <time>2021-07-19T13:17:09Z</time>
      </trkpt>
      <trkpt lat="48.16342" lon="7.37692">
        <ele>180.38</ele>
        <time>2021-07-19T13:17:17Z</time>
      </trkpt>
      <trkpt lat="48.16537" lon="7.37568">
        <ele>179.42</ele>
        <time>2021-07-19T13:17:26Z</time>
      </trkpt>
      <trkpt lat="48.16746" lon="7.37513">
        <ele>179.9</ele>
        <time>2021-07-19T13:17:34Z</time>
      </trkpt>
      <trkpt lat="48.16956" lon="7.3753">
        <ele>180.87</ele>
        <time>2021-07-19T13:17:42Z</time>
      </trkpt>
      <trkpt lat="48.17158" lon="7.37611">
        <ele>185.67</ele>
        <time>2021-07-19T13:17:50Z</time>
      </trkpt>
      <trkpt lat="48.17379" lon="7.37779">
        <ele>187.59</ele>
        <time>2021-07-19T13:17:59Z</time>
      </trkpt>
      <trkpt lat="48.17671" lon="7.38008">
        <ele>184.23</ele>
        <time>2021-07-19T13:18:11Z</time>
      </trkpt>
      <trkpt lat="48.17906" lon="7.3829">
        <ele>185.19</ele>
        <time>2021-07-19T13:18:22Z</time>
      </trkpt>
      <trkpt lat="48.18154" lon="7.38523">
        <ele>184.71</ele>
        <time>2021-07-19T13:18:33Z</time>
      </trkpt>
      <trkpt lat="48.1848" lon="7.38807">
        <ele>184.71</ele>
        <time>2021-07-19T13:18:46Z</time>
      </trkpt>
      <trkpt lat="48.18569" lon="7.38956">
        <ele>184.71</ele>
        <time>2021-07-19T13:18:52Z</time>
      </trkpt>
      <trkpt lat="48.18685" lon="7.39116">
        <ele>185.19</ele>
        <time>2021-07-19T13:18:58Z</time>
      </trkpt>
      <trkpt lat="48.18847" lon="7.39239">
        <ele>181.35</ele>
        <time>2021-07-19T13:19:05Z</time>
      </trkpt>
      <trkpt lat="48.19252" lon="7.3949">
        <ele>179.42</ele>
        <time>2021-07-19T13:19:22Z</time>
      </trkpt>
      <trkpt lat="48.19567" lon="7.39671">
        <ele>177.98</ele>
        <time>2021-07-19T13:19:35Z</time>
      </trkpt>
      <trkpt lat="48.19834" lon="7.39737">
        <ele>175.1</ele>
        <time>2021-07-19T13:19:44Z</time>
      </trkpt>
      <trkpt lat="48.20124" lon="7.39808">
        <ele>178.94</ele>
        <time>2021-07-19T13:19:56Z</time>
      </trkpt>
      <trkpt lat="48.20487" lon="7.39971">
        <ele>177.5</ele>
        <time>2021-07-19T13:20:10Z</time>
      </trkpt>
      <trkpt lat="48.20831" lon="7.40119">
        <ele>177.02</ele>
        <time>2021-07-19T13:20:23Z</time>
      </trkpt>
      <trkpt lat="48.21127" lon="7.40179">
        <ele>175.1</ele>
        <time>2021-07-19T13:20:34Z</time>
      </trkpt>
      <trkpt lat="48.21326" lon="7.40185">
        <ele>179.42</ele>
        <time>2021-07-19T13:20:42Z</time>
      </trkpt>
      <trkpt lat="48.21575" lon="7.40146">
        <ele>181.83</ele>
        <time>2021-07-19T13:20:52Z</time>
      </trkpt>
      <trkpt lat="48.21755" lon="7.40195">
        <ele>186.15</ele>
        <time>2021-07-19T13:20:59Z</time>
      </trkpt>
      <trkpt lat="48.21992" lon="7.40319">
        <ele>188.56</ele>
        <time>2021-07-19T13:21:09Z</time>
      </trkpt>
      <trkpt lat="48.22347" lon="7.4048">
        <ele>187.59</ele>
        <time>2021-07-19T13:21:23Z</time>
      </trkpt>
      <trkpt lat="48.22597" lon="7.40568">
        <ele>184.71</ele>
        <time>2021-07-19T13:21:33Z</time>
      </trkpt>
      <trkpt lat="48.22726" lon="7.40604">
        <ele>183.75</ele>
        <time>2021-07-19T13:21:41Z</time>
      </trkpt>
      <trkpt lat="48.22814" lon="7.40629">
        <ele>181.83</ele>
        <time>2021-07-19T13:21:49Z</time>
      </trkpt>
      <trkpt lat="48.22867" lon="7.40641">
        <ele>178.94</ele>
        <time>2021-07-19T13:22:02Z</time>
      </trkpt>
      <trkpt lat="48.22975" lon="7.40666">
        <ele>177.5</ele>
        <time>2021-07-19T13:22:25Z</time>
      </trkpt>
      <trkpt lat="48.23085" lon="7.40689">
        <ele>175.58</ele>
        <time>2021-07-19T13:22:46Z</time>
      </trkpt>
      <trkpt lat="48.23184" lon="7.40711">
        <ele>177.98</ele>
        <time>2021-07-19T13:23:03Z</time>
      </trkpt>
      <trkpt lat="48.23295" lon="7.4073">
        <ele>177.98</ele>
        <time>2021-07-19T13:23:22Z</time>
      </trkpt>
      <trkpt lat="48.23398" lon="7.40747">
        <ele>176.06</ele>
        <time>2021-07-19T13:23:39Z</time>
      </trkpt>
      <trkpt lat="48.23462" lon="7.40759">
        <ele>176.54</ele>
        <time>2021-07-19T13:23:53Z</time>
      </trkpt>
      <trkpt lat="48.23495" lon="7.40764">
        <ele>177.02</ele>
        <time>2021-07-19T13:24:06Z</time>
      </trkpt>
      <trkpt lat="48.23542" lon="7.40772">
        <ele>177.5</ele>
        <time>2021-07-19T13:24:19Z</time>
      </trkpt>
      <trkpt lat="48.23654" lon="7.4079">
        <ele>177.98</ele>
        <time>2021-07-19T13:24:37Z</time>
      </trkpt>
      <trkpt lat="48.23779" lon="7.40811">
        <ele>178.94</ele>
        <time>2021-07-19T13:24:49Z</time>
      </trkpt>
      <trkpt lat="48.23947" lon="7.40838">
        <ele>177.98</ele>
        <time>2021-07-19T13:25:02Z</time>
      </trkpt>
      <trkpt lat="48.24161" lon="7.4088">
        <ele>178.94</ele>
        <time>2021-07-19T13:25:14Z</time>
      </trkpt>
      <trkpt lat="48.24437" lon="7.40942">
        <ele>178.94</ele>
        <time>2021-07-19T13:25:27Z</time>
      </trkpt>
      <trkpt lat="48.247" lon="7.41014">
        <ele>180.87</ele>
        <time>2021-07-19T13:25:41Z</time>
      </trkpt>
      <trkpt lat="48.24943" lon="7.41096">
        <ele>179.9</ele>
        <time>2021-07-19T13:25:54Z</time>
      </trkpt>
      <trkpt lat="48.25218" lon="7.41214">
        <ele>178.94</ele>
        <time>2021-07-19T13:26:06Z</time>
      </trkpt>
      <trkpt lat="48.25592" lon="7.41412">
        <ele>180.87</ele>
        <time>2021-07-19T13:26:21Z</time>
      </trkpt>
      <trkpt lat="48.2605" lon="7.41703">
        <ele>180.87</ele>
        <time>2021-07-19T13:26:40Z</time>
      </trkpt>
      <trkpt lat="48.26429" lon="7.42019">
        <ele>181.83</ele>
        <time>2021-07-19T13:26:57Z</time>
      </trkpt>
      <trkpt lat="48.26753" lon="7.42353">
        <ele>183.27</ele>
        <time>2021-07-19T13:27:12Z</time>
      </trkpt>
      <trkpt lat="48.27036" lon="7.42707">
        <ele>184.71</ele>
        <time>2021-07-19T13:27:27Z</time>
      </trkpt>
      <trkpt lat="48.27305" lon="7.4311">
        <ele>190.48</ele>
        <time>2021-07-19T13:27:42Z</time>
      </trkpt>
      <trkpt lat="48.27515" lon="7.43484">
        <ele>190.96</ele>
        <time>2021-07-19T13:27:55Z</time>
      </trkpt>
      <trkpt lat="48.27679" lon="7.43822">
        <ele>190</ele>
        <time>2021-07-19T13:28:06Z</time>
      </trkpt>
      <trkpt lat="48.27828" lon="7.44176">
        <ele>187.11</ele>
        <time>2021-07-19T13:28:19Z</time>
      </trkpt>
      <trkpt lat="48.28039" lon="7.44691">
        <ele>183.75</ele>
        <time>2021-07-19T13:28:37Z</time>
      </trkpt>
      <trkpt lat="48.28133" lon="7.44891">
        <ele>183.27</ele>
        <time>2021-07-19T13:28:45Z</time>
      </trkpt>
      <trkpt lat="48.2827" lon="7.45166">
        <ele>181.83</ele>
        <time>2021-07-19T13:28:59Z</time>
      </trkpt>
      <trkpt lat="48.284" lon="7.45399">
        <ele>182.31</ele>
        <time>2021-07-19T13:29:14Z</time>
      </trkpt>
      <trkpt lat="48.28513" lon="7.45579">
        <ele>181.35</ele>
        <time>2021-07-19T13:29:26Z</time>
      </trkpt>
      <trkpt lat="48.2869" lon="7.45841">
        <ele>178.46</ele>
        <time>2021-07-19T13:29:41Z</time>
      </trkpt>
      <trkpt lat="48.28855" lon="7.46054">
        <ele>177.5</ele>
        <time>2021-07-19T13:29:52Z</time>
      </trkpt>
      <trkpt lat="48.29085" lon="7.46318">
        <ele>180.87</ele>
        <time>2021-07-19T13:30:06Z</time>
      </trkpt>
      <trkpt lat="48.29232" lon="7.46466">
        <ele>178.94</ele>
        <time>2021-07-19T13:30:18Z</time>
      </trkpt>
      <trkpt lat="48.29432" lon="7.46651">
        <ele>177.5</ele>
        <time>2021-07-19T13:30:33Z</time>
      </trkpt>
      <trkpt lat="48.29685" lon="7.46852">
        <ele>175.1</ele>
        <time>2021-07-19T13:30:53Z</time>
      </trkpt>
      <trkpt lat="48.29883" lon="7.46993">
        <ele>173.17</ele>
        <time>2021-07-19T13:31:07Z</time>
      </trkpt>
      <trkpt lat="48.30131" lon="7.47158">
        <ele>170.77</ele>
        <time>2021-07-19T13:31:23Z</time>
      </trkpt>
      <trkpt lat="48.30429" lon="7.47348">
        <ele>171.25</ele>
        <time>2021-07-19T13:31:41Z</time>
      </trkpt>
      <trkpt lat="48.30752" lon="7.4755">
        <ele>171.25</ele>
        <time>2021-07-19T13:32:02Z</time>
      </trkpt>
      <trkpt lat="48.31097" lon="7.47765">
        <ele>170.77</ele>
        <time>2021-07-19T13:32:25Z</time>
      </trkpt>
      <trkpt lat="48.31334" lon="7.47912">
        <ele>171.25</ele>
        <time>2021-07-19T13:32:40Z</time>
      </trkpt>
      <trkpt lat="48.31459" lon="7.47997">
        <ele>171.25</ele>
        <time>2021-07-19T13:32:49Z</time>
      </trkpt>
      <trkpt lat="48.31632" lon="7.48145">
        <ele>170.77</ele>
        <time>2021-07-19T13:32:59Z</time>
      </trkpt>
      <trkpt lat="48.31821" lon="7.48367">
        <ele>167.89</ele>
        <time>2021-07-19T13:33:09Z</time>
      </trkpt>
      <trkpt lat="48.3198" lon="7.4861">
        <ele>168.37</ele>
        <time>2021-07-19T13:33:19Z</time>
      </trkpt>
      <trkpt lat="48.32201" lon="7.49002">
        <ele>168.85</ele>
        <time>2021-07-19T13:33:33Z</time>
      </trkpt>
      <trkpt lat="48.32409" lon="7.49293">
        <ele>168.85</ele>
        <time>2021-07-19T13:33:44Z</time>
      </trkpt>
      <trkpt lat="48.32651" lon="7.49542">
        <ele>168.85</ele>
        <time>2021-07-19T13:33:55Z</time>
      </trkpt>
      <trkpt lat="48.32923" lon="7.49733">
        <ele>167.41</ele>
        <time>2021-07-19T13:34:06Z</time>
      </trkpt>
      <trkpt lat="48.33225" lon="7.49856">
        <ele>166.93</ele>
        <time>2021-07-19T13:34:16Z</time>
      </trkpt>
      <trkpt lat="48.33536" lon="7.49933">
        <ele>165.48</ele>
        <time>2021-07-19T13:34:28Z</time>
      </trkpt>
      <trkpt lat="48.34082" lon="7.5006">
        <ele>164.52</ele>
        <time>2021-07-19T13:34:47Z</time>
      </trkpt>
      <trkpt lat="48.34445" lon="7.50142">
        <ele>163.08</ele>
        <time>2021-07-19T13:35:02Z</time>
      </trkpt>
      <trkpt lat="48.34821" lon="7.50176">
        <ele>161.64</ele>
        <time>2021-07-19T13:35:16Z</time>
      </trkpt>
      <trkpt lat="48.35149" lon="7.50136">
        <ele>163.08</ele>
        <time>2021-07-19T13:35:28Z</time>
      </trkpt>
      <trkpt lat="48.35502" lon="7.5001">
        <ele>163.56</ele>
        <time>2021-07-19T13:35:41Z</time>
      </trkpt>
      <trkpt lat="48.35761" lon="7.49868">
        <ele>165.96</ele>
        <time>2021-07-19T13:35:51Z</time>
      </trkpt>
      <trkpt lat="48.36055" lon="7.49636">
        <ele>166.93</ele>
        <time>2021-07-19T13:36:03Z</time>
      </trkpt>
      <trkpt lat="48.36344" lon="7.49323">
        <ele>168.37</ele>
        <time>2021-07-19T13:36:16Z</time>
      </trkpt>
      <trkpt lat="48.366" lon="7.48955">
        <ele>170.29</ele>
        <time>2021-07-19T13:36:29Z</time>
      </trkpt>
      <trkpt lat="48.36855" lon="7.48592">
        <ele>170.77</ele>
        <time>2021-07-19T13:36:42Z</time>
      </trkpt>
      <trkpt lat="48.37107" lon="7.48335">
        <ele>173.66</ele>
        <time>2021-07-19T13:36:53Z</time>
      </trkpt>
      <trkpt lat="48.37348" lon="7.48167">
        <ele>175.58</ele>
        <time>2021-07-19T13:37:03Z</time>
      </trkpt>
      <trkpt lat="48.37614" lon="7.48051">
        <ele>177.5</ele>
        <time>2021-07-19T13:37:14Z</time>
      </trkpt>
      <trkpt lat="48.37982" lon="7.47947">
        <ele>180.87</ele>
        <time>2021-07-19T13:37:29Z</time>
      </trkpt>
      <trkpt lat="48.38223" lon="7.47883">
        <ele>180.38</ele>
        <time>2021-07-19T13:37:40Z</time>
      </trkpt>
      <trkpt lat="48.38592" lon="7.47784">
        <ele>177.98</ele>
        <time>2021-07-19T13:37:55Z</time>
      </trkpt>
      <trkpt lat="48.38953" lon="7.47687">
        <ele>182.31</ele>
        <time>2021-07-19T13:38:10Z</time>
      </trkpt>
      <trkpt lat="48.3943" lon="7.47584">
        <ele>182.79</ele>
        <time>2021-07-19T13:38:27Z</time>
      </trkpt>
      <trkpt lat="48.39706" lon="7.47604">
        <ele>181.83</ele>
        <time>2021-07-19T13:38:38Z</time>
      </trkpt>
      <trkpt lat="48.39979" lon="7.47683">
        <ele>179.9</ele>
        <time>2021-07-19T13:38:48Z</time>
      </trkpt>
      <trkpt lat="48.40305" lon="7.47858">
        <ele>178.46</ele>
        <time>2021-07-19T13:39:00Z</time>
      </trkpt>
      <trkpt lat="48.40611" lon="7.48028">
        <ele>180.87</ele>
        <time>2021-07-19T13:39:12Z</time>
      </trkpt>
      <trkpt lat="48.4091" lon="7.48154">
        <ele>182.31</ele>
        <time>2021-07-19T13:39:24Z</time>
      </trkpt>
      <trkpt lat="48.41264" lon="7.48247">
        <ele>177.98</ele>
        <time>2021-07-19T13:39:37Z</time>
      </trkpt>
      <trkpt lat="48.41603" lon="7.48349">
        <ele>175.1</ele>
        <time>2021-07-19T13:39:49Z</time>
      </trkpt>
      <trkpt lat="48.41927" lon="7.48512">
        <ele>174.62</ele>
        <time>2021-07-19T13:40:01Z</time>
      </trkpt>
      <trkpt lat="48.42255" lon="7.48756">
        <ele>170.77</ele>
        <time>2021-07-19T13:40:14Z</time>
      </trkpt>
      <trkpt lat="48.42565" lon="7.49044">
        <ele>166.93</ele>
        <time>2021-07-19T13:40:27Z</time>
      </trkpt>
      <trkpt lat="48.43104" lon="7.49496">
        <ele>165.96</ele>
        <time>2021-07-19T13:40:49Z</time>
      </trkpt>
      <trkpt lat="48.4349" lon="7.49777">
        <ele>167.89</ele>
        <time>2021-07-19T13:41:05Z</time>
      </trkpt>
      <trkpt lat="48.43847" lon="7.50008">
        <ele>167.89</ele>
        <time>2021-07-19T13:41:20Z</time>
      </trkpt>
      <trkpt lat="48.4428" lon="7.50253">
        <ele>169.81</ele>
        <time>2021-07-19T13:41:37Z</time>
      </trkpt>
      <trkpt lat="48.44782" lon="7.5051">
        <ele>172.21</ele>
        <time>2021-07-19T13:41:56Z</time>
      </trkpt>
      <trkpt lat="48.452" lon="7.50749">
        <ele>173.66</ele>
        <time>2021-07-19T13:42:12Z</time>
      </trkpt>
      <trkpt lat="48.45414" lon="7.50948">
        <ele>174.62</ele>
        <time>2021-07-19T13:42:21Z</time>
      </trkpt>
      <trkpt lat="48.45598" lon="7.51208">
        <ele>174.62</ele>
        <time>2021-07-19T13:42:30Z</time>
      </trkpt>
      <trkpt lat="48.45744" lon="7.51506">
        <ele>174.62</ele>
        <time>2021-07-19T13:42:39Z</time>
      </trkpt>
      <trkpt lat="48.45848" lon="7.51821">
        <ele>171.73</ele>
        <time>2021-07-19T13:42:48Z</time>
      </trkpt>
      <trkpt lat="48.45975" lon="7.5224">
        <ele>165.96</ele>
        <time>2021-07-19T13:42:59Z</time>
      </trkpt>
      <trkpt lat="48.46126" lon="7.52578">
        <ele>161.64</ele>
        <time>2021-07-19T13:43:10Z</time>
      </trkpt>
      <trkpt lat="48.4628" lon="7.52826">
        <ele>162.6</ele>
        <time>2021-07-19T13:43:19Z</time>
      </trkpt>
      <trkpt lat="48.46536" lon="7.53151">
        <ele>163.08</ele>
        <time>2021-07-19T13:43:33Z</time>
      </trkpt>
      <trkpt lat="48.46862" lon="7.53541">
        <ele>160.2</ele>
        <time>2021-07-19T13:43:50Z</time>
      </trkpt>
      <trkpt lat="48.47147" lon="7.53874">
        <ele>158.75</ele>
        <time>2021-07-19T13:44:03Z</time>
      </trkpt>
      <trkpt lat="48.47554" lon="7.54316">
        <ele>154.91</ele>
        <time>2021-07-19T13:44:21Z</time>
      </trkpt>
      <trkpt lat="48.48103" lon="7.54814">
        <ele>153.47</ele>
        <time>2021-07-19T13:44:44Z</time>
      </trkpt>
      <trkpt lat="48.48523" lon="7.55194">
        <ele>152.51</ele>
        <time>2021-07-19T13:45:01Z</time>
      </trkpt>
      <trkpt lat="48.48917" lon="7.55531">
        <ele>155.87</ele>
        <time>2021-07-19T13:45:17Z</time>
      </trkpt>
      <trkpt lat="48.4931" lon="7.55782">
        <ele>161.16</ele>
        <time>2021-07-19T13:45:33Z</time>
      </trkpt>
      <trkpt lat="48.49585" lon="7.55997">
        <ele>155.87</ele>
        <time>2021-07-19T13:45:44Z</time>
      </trkpt>
      <trkpt lat="48.49805" lon="7.56255">
        <ele>157.31</ele>
        <time>2021-07-19T13:45:54Z</time>
      </trkpt>
      <trkpt lat="48.50003" lon="7.56582">
        <ele>157.79</ele>
        <time>2021-07-19T13:46:04Z</time>
      </trkpt>
      <trkpt lat="48.50112" lon="7.56829">
        <ele>163.56</ele>
        <time>2021-07-19T13:46:13Z</time>
      </trkpt>
      <trkpt lat="48.50241" lon="7.57149">
        <ele>170.77</ele>
        <time>2021-07-19T13:46:24Z</time>
      </trkpt>
      <trkpt lat="48.50325" lon="7.57356">
        <ele>174.62</ele>
        <time>2021-07-19T13:46:32Z</time>
      </trkpt>
      <trkpt lat="48.50453" lon="7.57607">
        <ele>176.54</ele>
        <time>2021-07-19T13:46:44Z</time>
      </trkpt>
      <trkpt lat="48.50601" lon="7.57827">
        <ele>176.06</ele>
        <time>2021-07-19T13:46:56Z</time>
      </trkpt>
      <trkpt lat="48.50811" lon="7.5804">
        <ele>171.25</ele>
        <time>2021-07-19T13:47:11Z</time>
      </trkpt>
      <trkpt lat="48.51015" lon="7.58175">
        <ele>169.81</ele>
        <time>2021-07-19T13:47:24Z</time>
      </trkpt>
      <trkpt lat="48.51258" lon="7.58271">
        <ele>166.93</ele>
        <time>2021-07-19T13:47:39Z</time>
      </trkpt>
      <trkpt lat="48.51527" lon="7.58381">
        <ele>164.04</ele>
        <time>2021-07-19T13:47:55Z</time>
      </trkpt>
      <trkpt lat="48.51658" lon="7.58477">
        <ele>159.24</ele>
        <time>2021-07-19T13:48:02Z</time>
      </trkpt>
      <trkpt lat="48.51933" lon="7.58764">
        <ele>158.75</ele>
        <time>2021-07-19T13:48:18Z</time>
      </trkpt>
      <trkpt lat="48.52076" lon="7.59">
        <ele>157.31</ele>
        <time>2021-07-19T13:48:29Z</time>
      </trkpt>
      <trkpt lat="48.52207" lon="7.5925">
        <ele>157.79</ele>
        <time>2021-07-19T13:48:41Z</time>
      </trkpt>
      <trkpt lat="48.52306" lon="7.59499">
        <ele>159.72</ele>
        <time>2021-07-19T13:48:50Z</time>
      </trkpt>
      <trkpt lat="48.52396" lon="7.5985">
        <ele>159.72</ele>
        <time>2021-07-19T13:49:00Z</time>
      </trkpt>
      <trkpt lat="48.52456" lon="7.60257">
        <ele>157.79</ele>
        <time>2021-07-19T13:49:10Z</time>
      </trkpt>
      <trkpt lat="48.5247" lon="7.60647">
        <ele>155.87</ele>
        <time>2021-07-19T13:49:19Z</time>
      </trkpt>
      <trkpt lat="48.5244" lon="7.61078">
        <ele>156.83</ele>
        <time>2021-07-19T13:49:29Z</time>
      </trkpt>
      <trkpt lat="48.52339" lon="7.61718">
        <ele>157.79</ele>
        <time>2021-07-19T13:49:44Z</time>
      </trkpt>
      <trkpt lat="48.52237" lon="7.62341">
        <ele>152.51</ele>
        <time>2021-07-19T13:49:59Z</time>
      </trkpt>
      <trkpt lat="48.52187" lon="7.62775">
        <ele>150.58</ele>
        <time>2021-07-19T13:50:10Z</time>
      </trkpt>
      <trkpt lat="48.52185" lon="7.63367">
        <ele>150.1</ele>
        <time>2021-07-19T13:50:25Z</time>
      </trkpt>
      <trkpt lat="48.52209" lon="7.63792">
        <ele>152.03</ele>
        <time>2021-07-19T13:50:36Z</time>
      </trkpt>
      <trkpt lat="48.52289" lon="7.6428">
        <ele>151.06</ele>
        <time>2021-07-19T13:50:49Z</time>
      </trkpt>
      <trkpt lat="48.52391" lon="7.64889">
        <ele>150.58</ele>
        <time>2021-07-19T13:51:07Z</time>
      </trkpt>
      <trkpt lat="48.52439" lon="7.65345">
        <ele>149.62</ele>
        <time>2021-07-19T13:51:21Z</time>
      </trkpt>
      <trkpt lat="48.52453" lon="7.65672">
        <ele>146.26</ele>
        <time>2021-07-19T13:51:32Z</time>
      </trkpt>
      <trkpt lat="48.52457" lon="7.65821">
        <ele>146.26</ele>
        <time>2021-07-19T13:51:39Z</time>
      </trkpt>
      <trkpt lat="48.52464" lon="7.66093">
        <ele>146.26</ele>
        <time>2021-07-19T13:51:53Z</time>
      </trkpt>
      <trkpt lat="48.52478" lon="7.66364">
        <ele>148.66</ele>
        <time>2021-07-19T13:52:03Z</time>
      </trkpt>
      <trkpt lat="48.52512" lon="7.6673">
        <ele>149.14</ele>
        <time>2021-07-19T13:52:15Z</time>
      </trkpt>
      <trkpt lat="48.52577" lon="7.67147">
        <ele>152.03</ele>
        <time>2021-07-19T13:52:28Z</time>
      </trkpt>
      <trkpt lat="48.5266" lon="7.67669">
        <ele>149.62</ele>
        <time>2021-07-19T13:52:44Z</time>
      </trkpt>
      <trkpt lat="48.52709" lon="7.68308">
        <ele>148.66</ele>
        <time>2021-07-19T13:53:03Z</time>
      </trkpt>
      <trkpt lat="48.52755" lon="7.68741">
        <ele>153.47</ele>
        <time>2021-07-19T13:53:16Z</time>
      </trkpt>
      <trkpt lat="48.52839" lon="7.69025">
        <ele>151.54</ele>
        <time>2021-07-19T13:53:25Z</time>
      </trkpt>
      <trkpt lat="48.52958" lon="7.69274">
        <ele>145.78</ele>
        <time>2021-07-19T13:53:34Z</time>
      </trkpt>
      <trkpt lat="48.53174" lon="7.69612">
        <ele>146.74</ele>
        <time>2021-07-19T13:53:48Z</time>
      </trkpt>
      <trkpt lat="48.53416" lon="7.70004">
        <ele>149.14</ele>
        <time>2021-07-19T13:54:04Z</time>
      </trkpt>
      <trkpt lat="48.5352" lon="7.70275">
        <ele>146.26</ele>
        <time>2021-07-19T13:54:13Z</time>
      </trkpt>
      <trkpt lat="48.5358" lon="7.70561">
        <ele>144.82</ele>
        <time>2021-07-19T13:54:22Z</time>
      </trkpt>
      <trkpt lat="48.536" lon="7.7095">
        <ele>147.7</ele>
        <time>2021-07-19T13:54:34Z</time>
      </trkpt>
      <trkpt lat="48.53636" lon="7.71275">
        <ele>145.3</ele>
        <time>2021-07-19T13:54:44Z</time>
      </trkpt>
      <trkpt lat="48.53716" lon="7.71556">
        <ele>146.26</ele>
        <time>2021-07-19T13:54:53Z</time>
      </trkpt>
      <trkpt lat="48.53847" lon="7.71826">
        <ele>145.3</ele>
        <time>2021-07-19T13:55:03Z</time>
      </trkpt>
      <trkpt lat="48.54066" lon="7.72107">
        <ele>142.41</ele>
        <time>2021-07-19T13:55:16Z</time>
      </trkpt>
      <trkpt lat="48.54433" lon="7.72551">
        <ele>140.97</ele>
        <time>2021-07-19T13:55:36Z</time>
      </trkpt>
      <trkpt lat="48.54784" lon="7.72952">
        <ele>140.97</ele>
        <time>2021-07-19T13:55:56Z</time>
      </trkpt>
      <trkpt lat="48.55032" lon="7.73134">
        <ele>139.05</ele>
        <time>2021-07-19T13:56:07Z</time>
      </trkpt>
      <trkpt lat="48.55259" lon="7.73225">
        <ele>140.01</ele>
        <time>2021-07-19T13:56:19Z</time>
      </trkpt>
      <trkpt lat="48.55528" lon="7.73274">
        <ele>138.09</ele>
        <time>2021-07-19T13:56:32Z</time>
      </trkpt>
      <trkpt lat="48.55913" lon="7.73322">
        <ele>138.09</ele>
        <time>2021-07-19T13:56:52Z</time>
      </trkpt>
      <trkpt lat="48.5626" lon="7.73345">
        <ele>138.57</ele>
        <time>2021-07-19T13:57:08Z</time>
      </trkpt>
      <trkpt lat="48.56461" lon="7.73311">
        <ele>138.57</ele>
        <time>2021-07-19T13:57:20Z</time>
      </trkpt>
      <trkpt lat="48.5676" lon="7.73216">
        <ele>136.64</ele>
        <time>2021-07-19T13:57:35Z</time>
      </trkpt>
      <trkpt lat="48.57108" lon="7.73102">
        <ele>141.45</ele>
        <time>2021-07-19T13:57:54Z</time>
      </trkpt>
      <trkpt lat="48.57391" lon="7.72989">
        <ele>142.89</ele>
        <time>2021-07-19T13:58:09Z</time>
      </trkpt>
      <trkpt lat="48.57552" lon="7.72845">
        <ele>143.37</ele>
        <time>2021-07-19T13:58:18Z</time>
      </trkpt>
      <trkpt lat="48.57722" lon="7.72669">
        <ele>146.74</ele>
        <time>2021-07-19T13:58:30Z</time>
      </trkpt>
      <trkpt lat="48.57866" lon="7.72522">
        <ele>146.74</ele>
        <time>2021-07-19T13:58:41Z</time>
      </trkpt>
      <trkpt lat="48.58027" lon="7.72426">
        <ele>146.26</ele>
        <time>2021-07-19T13:58:50Z</time>
      </trkpt>
      <trkpt lat="48.58225" lon="7.72397">
        <ele>145.3</ele>
        <time>2021-07-19T13:58:59Z</time>
      </trkpt>
      <trkpt lat="48.58388" lon="7.72439">
        <ele>144.82</ele>
        <time>2021-07-19T13:59:09Z</time>
      </trkpt>
      <trkpt lat="48.58554" lon="7.72556">
        <ele>145.3</ele>
        <time>2021-07-19T13:59:19Z</time>
      </trkpt>
      <trkpt lat="48.58702" lon="7.72742">
        <ele>144.82</ele>
        <time>2021-07-19T13:59:29Z</time>
      </trkpt>
      <trkpt lat="48.58915" lon="7.73084">
        <ele>143.37</ele>
        <time>2021-07-19T13:59:46Z</time>
      </trkpt>
      <trkpt lat="48.59078" lon="7.73375">
        <ele>144.82</ele>
        <time>2021-07-19T14:00:00Z</time>
      </trkpt>
      <trkpt lat="48.59172" lon="7.73622">
        <ele>147.7</ele>
        <time>2021-07-19T14:00:10Z</time>
      </trkpt>
      <trkpt lat="48.59273" lon="7.73849">
        <ele>147.7</ele>
        <time>2021-07-19T14:00:21Z</time>
      </trkpt>
      <trkpt lat="48.5939" lon="7.73965">
        <ele>147.7</ele>
        <time>2021-07-19T14:00:29Z</time>
      </trkpt>
      <trkpt lat="48.59538" lon="7.74021">
        <ele>148.66</ele>
        <time>2021-07-19T14:00:37Z</time>
      </trkpt>
      <trkpt lat="48.59705" lon="7.74009">
        <ele>150.58</ele>
        <time>2021-07-19T14:00:45Z</time>
      </trkpt>
      <trkpt lat="48.59843" lon="7.73921">
        <ele>152.03</ele>
        <time>2021-07-19T14:00:52Z</time>
      </trkpt>
      <trkpt lat="48.59946" lon="7.73762">
        <ele>148.66</ele>
        <time>2021-07-19T14:00:59Z</time>
      </trkpt>
      <trkpt lat="48.60138" lon="7.73368">
        <ele>148.66</ele>
        <time>2021-07-19T14:01:15Z</time>
      </trkpt>
      <trkpt lat="48.6031" lon="7.73048">
        <ele>144.34</ele>
        <time>2021-07-19T14:01:28Z</time>
      </trkpt>
      <trkpt lat="48.60463" lon="7.7287">
        <ele>142.41</ele>
        <time>2021-07-19T14:01:36Z</time>
      </trkpt>
      <trkpt lat="48.60633" lon="7.72764">
        <ele>142.41</ele>
        <time>2021-07-19T14:01:44Z</time>
      </trkpt>
      <trkpt lat="48.60815" lon="7.72727">
        <ele>143.37</ele>
        <time>2021-07-19T14:01:52Z</time>
      </trkpt>
      <trkpt lat="48.60996" lon="7.72706">
        <ele>144.34</ele>
        <time>2021-07-19T14:02:01Z</time>
      </trkpt>
      <trkpt lat="48.61248" lon="7.72678">
        <ele>144.34</ele>
        <time>2021-07-19T14:02:14Z</time>
      </trkpt>
      <trkpt lat="48.6154" lon="7.72663">
        <ele>142.89</ele>
        <time>2021-07-19T14:02:27Z</time>
      </trkpt>
      <trkpt lat="48.62024" lon="7.72647">
        <ele>145.3</ele>
        <time>2021-07-19T14:02:48Z</time>
      </trkpt>
      <trkpt lat="48.62358" lon="7.72602">
        <ele>146.26</ele>
        <time>2021-07-19T14:03:03Z</time>
      </trkpt>
      <trkpt lat="48.62696" lon="7.72473">
        <ele>145.78</ele>
        <time>2021-07-19T14:03:18Z</time>
      </trkpt>
      <trkpt lat="48.6296" lon="7.7239">
        <ele>145.3</ele>
        <time>2021-07-19T14:03:30Z</time>
      </trkpt>
      <trkpt lat="48.63178" lon="7.72394">
        <ele>145.78</ele>
        <time>2021-07-19T14:03:40Z</time>
      </trkpt>
      <trkpt lat="48.63397" lon="7.72462">
        <ele>142.89</ele>
        <time>2021-07-19T14:03:50Z</time>
      </trkpt>
      <trkpt lat="48.63594" lon="7.72594">
        <ele>144.34</ele>
        <time>2021-07-19T14:04:00Z</time>
      </trkpt>
      <trkpt lat="48.6384" lon="7.72826">
        <ele>146.74</ele>
        <time>2021-07-19T14:04:12Z</time>
      </trkpt>
      <trkpt lat="48.64097" lon="7.73052">
        <ele>143.37</ele>
        <time>2021-07-19T14:04:27Z</time>
      </trkpt>
      <trkpt lat="48.64354" lon="7.73209">
        <ele>141.45</ele>
        <time>2021-07-19T14:04:41Z</time>
      </trkpt>
      <trkpt lat="48.64654" lon="7.73335">
        <ele>142.41</ele>
        <time>2021-07-19T14:04:57Z</time>
      </trkpt>
      <trkpt lat="48.64944" lon="7.73449">
        <ele>146.26</ele>
        <time>2021-07-19T14:05:13Z</time>
      </trkpt>
      <trkpt lat="48.65305" lon="7.73589">
        <ele>148.18</ele>
        <time>2021-07-19T14:05:31Z</time>
      </trkpt>
      <trkpt lat="48.65654" lon="7.73698">
        <ele>144.82</ele>
        <time>2021-07-19T14:05:47Z</time>
      </trkpt>
      <trkpt lat="48.65928" lon="7.73729">
        <ele>141.45</ele>
        <time>2021-07-19T14:05:59Z</time>
      </trkpt>
      <trkpt lat="48.66129" lon="7.73726">
        <ele>140.01</ele>
        <time>2021-07-19T14:06:08Z</time>
      </trkpt>
      <trkpt lat="48.66552" lon="7.73696">
        <ele>137.61</ele>
        <time>2021-07-19T14:06:25Z</time>
      </trkpt>
      <trkpt lat="48.66859" lon="7.73671">
        <ele>137.61</ele>
        <time>2021-07-19T14:06:38Z</time>
      </trkpt>
      <trkpt lat="48.67252" lon="7.73626">
        <ele>137.13</ele>
        <time>2021-07-19T14:06:55Z</time>
      </trkpt>
      <trkpt lat="48.6756" lon="7.73544">
        <ele>138.09</ele>
        <time>2021-07-19T14:07:08Z</time>
      </trkpt>
      <trkpt lat="48.67902" lon="7.73388">
        <ele>136.16</ele>
        <time>2021-07-19T14:07:22Z</time>
      </trkpt>
      <trkpt lat="48.68266" lon="7.73172">
        <ele>135.68</ele>
        <time>2021-07-19T14:07:37Z</time>
      </trkpt>
      <trkpt lat="48.68542" lon="7.73006">
        <ele>138.57</ele>
        <time>2021-07-19T14:07:51Z</time>
      </trkpt>
      <trkpt lat="48.68951" lon="7.72758">
        <ele>141.45</ele>
        <time>2021-07-19T14:08:10Z</time>
      </trkpt>
      <trkpt lat="48.69202" lon="7.72601">
        <ele>139.05</ele>
        <time>2021-07-19T14:08:23Z</time>
      </trkpt>
      <trkpt lat="48.69454" lon="7.72401">
        <ele>135.68</ele>
        <time>2021-07-19T14:08:35Z</time>
      </trkpt>
      <trkpt lat="48.69696" lon="7.72168">
        <ele>137.13</ele>
        <time>2021-07-19T14:08:47Z</time>
      </trkpt>
      <trkpt lat="48.69909" lon="7.71908">
        <ele>139.05</ele>
        <time>2021-07-19T14:08:58Z</time>
      </trkpt>
      <trkpt lat="48.70163" lon="7.71537">
        <ele>140.97</ele>
        <time>2021-07-19T14:09:12Z</time>
      </trkpt>
      <trkpt lat="48.70489" lon="7.71031">
        <ele>146.74</ele>
        <time>2021-07-19T14:09:31Z</time>
      </trkpt>
      <trkpt lat="48.70845" lon="7.70477">
        <ele>145.3</ele>
        <time>2021-07-19T14:09:52Z</time>
      </trkpt>
      <trkpt lat="48.71057" lon="7.70204">
        <ele>140.49</ele>
        <time>2021-07-19T14:10:04Z</time>
      </trkpt>
      <trkpt lat="48.71286" lon="7.6999">
        <ele>140.01</ele>
        <time>2021-07-19T14:10:15Z</time>
      </trkpt>
      <trkpt lat="48.7152" lon="7.69828">
        <ele>140.49</ele>
        <time>2021-07-19T14:10:26Z</time>
      </trkpt>
      <trkpt lat="48.7195" lon="7.69553">
        <ele>140.49</ele>
        <time>2021-07-19T14:10:43Z</time>
      </trkpt>
      <trkpt lat="48.72538" lon="7.69187">
        <ele>140.49</ele>
        <time>2021-07-19T14:11:06Z</time>
      </trkpt>
      <trkpt lat="48.72931" lon="7.69005">
        <ele>141.45</ele>
        <time>2021-07-19T14:11:21Z</time>
      </trkpt>
      <trkpt lat="48.73303" lon="7.68907">
        <ele>142.89</ele>
        <time>2021-07-19T14:11:35Z</time>
      </trkpt>
      <trkpt lat="48.73566" lon="7.68869">
        <ele>143.37</ele>
        <time>2021-07-19T14:11:46Z</time>
      </trkpt>
      <trkpt lat="48.73954" lon="7.68815">
        <ele>147.22</ele>
        <time>2021-07-19T14:12:04Z</time>
      </trkpt>
      <trkpt lat="48.7431" lon="7.68728">
        <ele>150.1</ele>
        <time>2021-07-19T14:12:21Z</time>
      </trkpt>
      <trkpt lat="48.74538" lon="7.68634">
        <ele>152.03</ele>
        <time>2021-07-19T14:12:33Z</time>
      </trkpt>
      <trkpt lat="48.74707" lon="7.68558">
        <ele>152.99</ele>
        <time>2021-07-19T14:12:43Z</time>
      </trkpt>
      <trkpt lat="48.74707" lon="7.68558">
        <ele>153.95</ele>
        <time>2021-07-19T14:12:44Z</time>
      </trkpt>
      <trkpt lat="48.74722" lon="7.68558">
        <ele>154.91</ele>
        <time>2021-07-19T14:12:45Z</time>
      </trkpt>
      <trkpt lat="48.74736" lon="7.68562">
        <ele>155.39</ele>
        <time>2021-07-19T14:12:46Z</time>
      </trkpt>
      <trkpt lat="48.7475" lon="7.68566">
        <ele>156.35</ele>
        <time>2021-07-19T14:12:47Z</time>
      </trkpt>
      <trkpt lat="48.74864" lon="7.68605">
        <ele>162.12</ele>
        <time>2021-07-19T14:12:56Z</time>
      </trkpt>
      <trkpt lat="48.74876" lon="7.68611">
        <ele>162.6</ele>
        <time>2021-07-19T14:12:57Z</time>
      </trkpt>
      <trkpt lat="48.74886" lon="7.68622">
        <ele>163.08</ele>
        <time>2021-07-19T14:12:58Z</time>
      </trkpt>
      <trkpt lat="48.74895" lon="7.68637">
        <ele>164.52</ele>
        <time>2021-07-19T14:12:59Z</time>
      </trkpt>
      <trkpt lat="48.74913" lon="7.68667">
        <ele>165.48</ele>
        <time>2021-07-19T14:13:00Z</time>
      </trkpt>
      <trkpt lat="48.74913" lon="7.68667">
        <ele>165.96</ele>
        <time>2021-07-19T14:13:01Z</time>
      </trkpt>
      <trkpt lat="48.74988" lon="7.68859">
        <ele>169.81</ele>
        <time>2021-07-19T14:13:10Z</time>
      </trkpt>
      <trkpt lat="48.75113" lon="7.6911">
        <ele>172.21</ele>
        <time>2021-07-19T14:13:20Z</time>
      </trkpt>
      <trkpt lat="48.7528" lon="7.69348">
        <ele>176.54</ele>
        <time>2021-07-19T14:13:30Z</time>
      </trkpt>
      <trkpt lat="48.75494" lon="7.6956">
        <ele>179.9</ele>
        <time>2021-07-19T14:13:41Z</time>
      </trkpt>
      <trkpt lat="48.75729" lon="7.69728">
        <ele>178.94</ele>
        <time>2021-07-19T14:13:52Z</time>
      </trkpt>
      <trkpt lat="48.75995" lon="7.69956">
        <ele>177.98</ele>
        <time>2021-07-19T14:14:04Z</time>
      </trkpt>
      <trkpt lat="48.76383" lon="7.70374">
        <ele>173.17</ele>
        <time>2021-07-19T14:14:22Z</time>
      </trkpt>
      <trkpt lat="48.76737" lon="7.70764">
        <ele>178.46</ele>
        <time>2021-07-19T14:14:39Z</time>
      </trkpt>
      <trkpt lat="48.77073" lon="7.7113">
        <ele>190</ele>
        <time>2021-07-19T14:14:56Z</time>
      </trkpt>
      <trkpt lat="48.77428" lon="7.71531">
        <ele>195.77</ele>
        <time>2021-07-19T14:15:14Z</time>
      </trkpt>
      <trkpt lat="48.77824" lon="7.71995">
        <ele>196.25</ele>
        <time>2021-07-19T14:15:33Z</time>
      </trkpt>
      <trkpt lat="48.78216" lon="7.72481">
        <ele>190.96</ele>
        <time>2021-07-19T14:15:52Z</time>
      </trkpt>
      <trkpt lat="48.78436" lon="7.72834">
        <ele>190.48</ele>
        <time>2021-07-19T14:16:03Z</time>
      </trkpt>
      <trkpt lat="48.786" lon="7.73195">
        <ele>188.08</ele>
        <time>2021-07-19T14:16:15Z</time>
      </trkpt>
      <trkpt lat="48.78734" lon="7.73503">
        <ele>183.75</ele>
        <time>2021-07-19T14:16:25Z</time>
      </trkpt>
      <trkpt lat="48.78897" lon="7.739">
        <ele>175.58</ele>
        <time>2021-07-19T14:16:40Z</time>
      </trkpt>
      <trkpt lat="48.7904" lon="7.74303">
        <ele>170.77</ele>
        <time>2021-07-19T14:16:55Z</time>
      </trkpt>
      <trkpt lat="48.79158" lon="7.7463">
        <ele>169.81</ele>
        <time>2021-07-19T14:17:10Z</time>
      </trkpt>
      <trkpt lat="48.79196" lon="7.74735">
        <ele>167.41</ele>
        <time>2021-07-19T14:17:15Z</time>
      </trkpt>
      <trkpt lat="48.792" lon="7.74756">
        <ele>165</ele>
        <time>2021-07-19T14:17:16Z</time>
      </trkpt>
      <trkpt lat="48.79203" lon="7.74772">
        <ele>163.08</ele>
        <time>2021-07-19T14:17:17Z</time>
      </trkpt>
      <trkpt lat="48.79204" lon="7.74788">
        <ele>162.12</ele>
        <time>2021-07-19T14:17:18Z</time>
      </trkpt>
      <trkpt lat="48.79202" lon="7.74801">
        <ele>161.64</ele>
        <time>2021-07-19T14:17:19Z</time>
      </trkpt>
      <trkpt lat="48.79198" lon="7.74816">
        <ele>161.64</ele>
        <time>2021-07-19T14:17:20Z</time>
      </trkpt>
      <trkpt lat="48.79194" lon="7.74828">
        <ele>161.16</ele>
        <time>2021-07-19T14:17:21Z</time>
      </trkpt>
      <trkpt lat="48.79186" lon="7.74837">
        <ele>161.64</ele>
        <time>2021-07-19T14:17:22Z</time>
      </trkpt>
      <trkpt lat="48.79178" lon="7.74847">
        <ele>160.68</ele>
        <time>2021-07-19T14:17:23Z</time>
      </trkpt>
      <trkpt lat="48.79171" lon="7.74851">
        <ele>161.64</ele>
        <time>2021-07-19T14:17:24Z</time>
      </trkpt>
      <trkpt lat="48.79162" lon="7.74854">
        <ele>161.64</ele>
        <time>2021-07-19T14:17:25Z</time>
      </trkpt>
      <trkpt lat="48.79153" lon="7.74855">
        <ele>162.6</ele>
        <time>2021-07-19T14:17:26Z</time>
      </trkpt>
      <trkpt lat="48.79145" lon="7.74851">
        <ele>162.12</ele>
        <time>2021-07-19T14:17:27Z</time>
      </trkpt>
      <trkpt lat="48.79136" lon="7.74847">
        <ele>161.64</ele>
        <time>2021-07-19T14:17:28Z</time>
      </trkpt>
      <trkpt lat="48.79126" lon="7.74841">
        <ele>162.12</ele>
        <time>2021-07-19T14:17:29Z</time>
      </trkpt>
      <trkpt lat="48.79118" lon="7.74829">
        <ele>161.64</ele>
        <time>2021-07-19T14:17:30Z</time>
      </trkpt>
      <trkpt lat="48.79114" lon="7.74815">
        <ele>161.64</ele>
        <time>2021-07-19T14:17:31Z</time>
      </trkpt>
      <trkpt lat="48.79111" lon="7.74799">
        <ele>161.64</ele>
        <time>2021-07-19T14:17:32Z</time>
      </trkpt>
      <trkpt lat="48.7911" lon="7.74785">
        <ele>160.68</ele>
        <time>2021-07-19T14:17:33Z</time>
      </trkpt>
      <trkpt lat="48.79111" lon="7.74768">
        <ele>161.16</ele>
        <time>2021-07-19T14:17:34Z</time>
      </trkpt>
      <trkpt lat="48.79113" lon="7.74755">
        <ele>160.68</ele>
        <time>2021-07-19T14:17:35Z</time>
      </trkpt>
      <trkpt lat="48.79119" lon="7.74744">
        <ele>160.2</ele>
        <time>2021-07-19T14:17:36Z</time>
      </trkpt>
      <trkpt lat="48.79127" lon="7.74734">
        <ele>159.72</ele>
        <time>2021-07-19T14:17:37Z</time>
      </trkpt>
      <trkpt lat="48.79134" lon="7.74723">
        <ele>159.24</ele>
        <time>2021-07-19T14:17:38Z</time>
      </trkpt>
      <trkpt lat="48.79142" lon="7.74713">
        <ele>159.72</ele>
        <time>2021-07-19T14:17:39Z</time>
      </trkpt>
      <trkpt lat="48.79259" lon="7.7464">
        <ele>162.12</ele>
        <time>2021-07-19T14:17:49Z</time>
      </trkpt>
      <trkpt lat="48.79446" lon="7.74552">
        <ele>157.31</ele>
        <time>2021-07-19T14:17:59Z</time>
      </trkpt>
      <trkpt lat="48.79655" lon="7.74443">
        <ele>156.35</ele>
        <time>2021-07-19T14:18:11Z</time>
      </trkpt>
      <trkpt lat="48.79897" lon="7.74304">
        <ele>154.91</ele>
        <time>2021-07-19T14:18:22Z</time>
      </trkpt>
      <trkpt lat="48.80073" lon="7.74271">
        <ele>155.39</ele>
        <time>2021-07-19T14:18:29Z</time>
      </trkpt>
      <trkpt lat="48.80254" lon="7.74324">
        <ele>157.79</ele>
        <time>2021-07-19T14:18:36Z</time>
      </trkpt>
      <trkpt lat="48.80398" lon="7.7444">
        <ele>159.24</ele>
        <time>2021-07-19T14:18:42Z</time>
      </trkpt>
      <trkpt lat="48.80534" lon="7.74654">
        <ele>162.6</ele>
        <time>2021-07-19T14:18:49Z</time>
      </trkpt>
      <trkpt lat="48.80639" lon="7.74954">
        <ele>161.64</ele>
        <time>2021-07-19T14:18:57Z</time>
      </trkpt>
      <trkpt lat="48.80764" lon="7.75229">
        <ele>163.08</ele>
        <time>2021-07-19T14:19:05Z</time>
      </trkpt>
      <trkpt lat="48.80904" lon="7.75426">
        <ele>161.64</ele>
        <time>2021-07-19T14:19:12Z</time>
      </trkpt>
      <trkpt lat="48.81098" lon="7.75591">
        <ele>158.27</ele>
        <time>2021-07-19T14:19:20Z</time>
      </trkpt>
      <trkpt lat="48.81314" lon="7.7568">
        <ele>154.91</ele>
        <time>2021-07-19T14:19:28Z</time>
      </trkpt>
      <trkpt lat="48.81514" lon="7.75689">
        <ele>147.7</ele>
        <time>2021-07-19T14:19:35Z</time>
      </trkpt>
      <trkpt lat="48.81924" lon="7.75635">
        <ele>143.85</ele>
        <time>2021-07-19T14:19:50Z</time>
      </trkpt>
      <trkpt lat="48.82133" lon="7.75653">
        <ele>148.18</ele>
        <time>2021-07-19T14:19:58Z</time>
      </trkpt>
      <trkpt lat="48.82377" lon="7.7577">
        <ele>153.47</ele>
        <time>2021-07-19T14:20:08Z</time>
      </trkpt>
      <trkpt lat="48.82711" lon="7.75971">
        <ele>155.39</ele>
        <time>2021-07-19T14:20:22Z</time>
      </trkpt>
      <trkpt lat="48.83215" lon="7.76342">
        <ele>152.99</ele>
        <time>2021-07-19T14:20:44Z</time>
      </trkpt>
      <trkpt lat="48.83586" lon="7.7668">
        <ele>155.87</ele>
        <time>2021-07-19T14:21:01Z</time>
      </trkpt>
      <trkpt lat="48.83708" lon="7.7688">
        <ele>157.79</ele>
        <time>2021-07-19T14:21:08Z</time>
      </trkpt>
      <trkpt lat="48.83786" lon="7.7713">
        <ele>157.31</ele>
        <time>2021-07-19T14:21:15Z</time>
      </trkpt>
      <trkpt lat="48.83818" lon="7.77406">
        <ele>154.43</ele>
        <time>2021-07-19T14:21:22Z</time>
      </trkpt>
      <trkpt lat="48.83794" lon="7.77665">
        <ele>152.51</ele>
        <time>2021-07-19T14:21:29Z</time>
      </trkpt>
      <trkpt lat="48.83719" lon="7.77921">
        <ele>153.95</ele>
        <time>2021-07-19T14:21:37Z</time>
      </trkpt>
      <trkpt lat="48.83545" lon="7.78347">
        <ele>157.79</ele>
        <time>2021-07-19T14:21:52Z</time>
      </trkpt>
      <trkpt lat="48.83446" lon="7.78674">
        <ele>160.2</ele>
        <time>2021-07-19T14:22:03Z</time>
      </trkpt>
      <trkpt lat="48.83394" lon="7.79023">
        <ele>149.14</ele>
        <time>2021-07-19T14:22:14Z</time>
      </trkpt>
      <trkpt lat="48.83337" lon="7.79708">
        <ele>147.7</ele>
        <time>2021-07-19T14:22:34Z</time>
      </trkpt>
      <trkpt lat="48.83304" lon="7.80013">
        <ele>148.66</ele>
        <time>2021-07-19T14:22:45Z</time>
      </trkpt>
      <trkpt lat="48.83301" lon="7.80034">
        <ele>149.14</ele>
        <time>2021-07-19T14:22:46Z</time>
      </trkpt>
      <trkpt lat="48.83286" lon="7.80066">
        <ele>149.14</ele>
        <time>2021-07-19T14:22:47Z</time>
      </trkpt>
      <trkpt lat="48.83286" lon="7.80066">
        <ele>149.62</ele>
        <time>2021-07-19T14:22:48Z</time>
      </trkpt>
      <trkpt lat="48.83277" lon="7.80078">
        <ele>148.66</ele>
        <time>2021-07-19T14:22:49Z</time>
      </trkpt>
      <trkpt lat="48.83267" lon="7.80084">
        <ele>148.18</ele>
        <time>2021-07-19T14:22:50Z</time>
      </trkpt>
      <trkpt lat="48.83255" lon="7.80087">
        <ele>148.18</ele>
        <time>2021-07-19T14:22:51Z</time>
      </trkpt>
      <trkpt lat="48.83246" lon="7.80083">
        <ele>148.18</ele>
        <time>2021-07-19T14:22:52Z</time>
      </trkpt>
      <trkpt lat="48.83235" lon="7.80075">
        <ele>148.18</ele>
        <time>2021-07-19T14:22:53Z</time>
      </trkpt>
      <trkpt lat="48.83229" lon="7.80064">
        <ele>148.18</ele>
        <time>2021-07-19T14:22:54Z</time>
      </trkpt>
      <trkpt lat="48.83223" lon="7.80049">
        <ele>149.14</ele>
        <time>2021-07-19T14:22:55Z</time>
      </trkpt>
      <trkpt lat="48.8322" lon="7.80032">
        <ele>148.66</ele>
        <time>2021-07-19T14:22:56Z</time>
      </trkpt>
      <trkpt lat="48.83221" lon="7.80014">
        <ele>149.62</ele>
        <time>2021-07-19T14:22:57Z</time>
      </trkpt>
      <trkpt lat="48.83225" lon="7.79997">
        <ele>150.1</ele>
        <time>2021-07-19T14:22:58Z</time>
      </trkpt>
      <trkpt lat="48.8323" lon="7.79982">
        <ele>150.58</ele>
        <time>2021-07-19T14:22:59Z</time>
      </trkpt>
      <trkpt lat="48.83234" lon="7.7997">
        <ele>149.62</ele>
        <time>2021-07-19T14:23:00Z</time>
      </trkpt>
      <trkpt lat="48.83237" lon="7.79962">
        <ele>150.1</ele>
        <time>2021-07-19T14:23:01Z</time>
      </trkpt>
      <trkpt lat="48.83244" lon="7.79957">
        <ele>150.58</ele>
        <time>2021-07-19T14:23:02Z</time>
      </trkpt>
      <trkpt lat="48.83261" lon="7.79948">
        <ele>150.1</ele>
        <time>2021-07-19T14:23:03Z</time>
      </trkpt>
      <trkpt lat="48.83261" lon="7.79948">
        <ele>151.06</ele>
        <time>2021-07-19T14:23:04Z</time>
      </trkpt>
      <trkpt lat="48.83271" lon="7.79946">
        <ele>152.51</ele>
        <time>2021-07-19T14:23:05Z</time>
      </trkpt>
      <trkpt lat="48.83283" lon="7.79949">
        <ele>152.99</ele>
        <time>2021-07-19T14:23:06Z</time>
      </trkpt>
      <trkpt lat="48.83409" lon="7.80002">
        <ele>151.54</ele>
        <time>2021-07-19T14:23:17Z</time>
      </trkpt>
      <trkpt lat="48.83569" lon="7.80141">
        <ele>145.3</ele>
        <time>2021-07-19T14:23:28Z</time>
      </trkpt>
      <trkpt lat="48.83796" lon="7.80347">
        <ele>149.14</ele>
        <time>2021-07-19T14:23:42Z</time>
      </trkpt>
      <trkpt lat="48.83978" lon="7.80478">
        <ele>153.47</ele>
        <time>2021-07-19T14:23:52Z</time>
      </trkpt>
      <trkpt lat="48.84194" lon="7.80553">
        <ele>154.43</ele>
        <time>2021-07-19T14:24:03Z</time>
      </trkpt>
      <trkpt lat="48.84456" lon="7.8067">
        <ele>153.95</ele>
        <time>2021-07-19T14:24:17Z</time>
      </trkpt>
      <trkpt lat="48.84626" lon="7.80827">
        <ele>153.95</ele>
        <time>2021-07-19T14:24:27Z</time>
      </trkpt>
      <trkpt lat="48.84874" lon="7.81107">
        <ele>152.51</ele>
        <time>2021-07-19T14:24:42Z</time>
      </trkpt>
      <trkpt lat="48.85067" lon="7.81234">
        <ele>151.06</ele>
        <time>2021-07-19T14:24:52Z</time>
      </trkpt>
      <trkpt lat="48.85471" lon="7.81435">
        <ele>150.1</ele>
        <time>2021-07-19T14:25:12Z</time>
      </trkpt>
      <trkpt lat="48.85707" lon="7.81584">
        <ele>149.62</ele>
        <time>2021-07-19T14:25:24Z</time>
      </trkpt>
      <trkpt lat="48.85888" lon="7.81787">
        <ele>150.1</ele>
        <time>2021-07-19T14:25:35Z</time>
      </trkpt>
      <trkpt lat="48.86224" lon="7.82213">
        <ele>149.14</ele>
        <time>2021-07-19T14:25:56Z</time>
      </trkpt>
      <trkpt lat="48.86467" lon="7.82494">
        <ele>147.7</ele>
        <time>2021-07-19T14:26:11Z</time>
      </trkpt>
      <trkpt lat="48.86622" lon="7.82567">
        <ele>144.82</ele>
        <time>2021-07-19T14:26:19Z</time>
      </trkpt>
      <trkpt lat="48.86991" lon="7.82686">
        <ele>148.18</ele>
        <time>2021-07-19T14:26:38Z</time>
      </trkpt>
      <trkpt lat="48.87304" lon="7.82739">
        <ele>145.78</ele>
        <time>2021-07-19T14:26:54Z</time>
      </trkpt>
      <trkpt lat="48.8745" lon="7.8268">
        <ele>150.58</ele>
        <time>2021-07-19T14:27:02Z</time>
      </trkpt>
      <trkpt lat="48.87711" lon="7.82537">
        <ele>156.35</ele>
        <time>2021-07-19T14:27:16Z</time>
      </trkpt>
      <trkpt lat="48.87849" lon="7.82503">
        <ele>154.43</ele>
        <time>2021-07-19T14:27:23Z</time>
      </trkpt>
      <trkpt lat="48.87951" lon="7.82514">
        <ele>158.75</ele>
        <time>2021-07-19T14:27:29Z</time>
      </trkpt>
      <trkpt lat="48.87963" lon="7.82516">
        <ele>160.2</ele>
        <time>2021-07-19T14:27:30Z</time>
      </trkpt>
      <trkpt lat="48.87976" lon="7.82518">
        <ele>160.2</ele>
        <time>2021-07-19T14:27:31Z</time>
      </trkpt>
      <trkpt lat="48.87976" lon="7.82518">
        <ele>160.68</ele>
        <time>2021-07-19T14:27:32Z</time>
      </trkpt>
      <trkpt lat="48.87986" lon="7.82534">
        <ele>160.68</ele>
        <time>2021-07-19T14:27:33Z</time>
      </trkpt>
      <trkpt lat="48.87989" lon="7.82536">
        <ele>160.2</ele>
        <time>2021-07-19T14:27:34Z</time>
      </trkpt>
      <trkpt lat="48.88005" lon="7.82523">
        <ele>160.2</ele>
        <time>2021-07-19T14:27:35Z</time>
      </trkpt>
      <trkpt lat="48.88013" lon="7.82525">
        <ele>160.2</ele>
        <time>2021-07-19T14:27:36Z</time>
      </trkpt>
      <trkpt lat="48.88023" lon="7.82528">
        <ele>161.16</ele>
        <time>2021-07-19T14:27:37Z</time>
      </trkpt>
      <trkpt lat="48.88123" lon="7.82556">
        <ele>160.2</ele>
        <time>2021-07-19T14:27:44Z</time>
      </trkpt>
      <trkpt lat="48.88277" lon="7.82638">
        <ele>157.31</ele>
        <time>2021-07-19T14:27:53Z</time>
      </trkpt>
      <trkpt lat="48.88535" lon="7.82804">
        <ele>150.1</ele>
        <time>2021-07-19T14:28:05Z</time>
      </trkpt>
      <trkpt lat="48.88817" lon="7.83011">
        <ele>149.14</ele>
        <time>2021-07-19T14:28:21Z</time>
      </trkpt>
      <trkpt lat="48.89083" lon="7.83254">
        <ele>150.58</ele>
        <time>2021-07-19T14:28:35Z</time>
      </trkpt>
      <trkpt lat="48.89267" lon="7.83487">
        <ele>152.51</ele>
        <time>2021-07-19T14:28:47Z</time>
      </trkpt>
      <trkpt lat="48.8942" lon="7.83792">
        <ele>151.54</ele>
        <time>2021-07-19T14:28:58Z</time>
      </trkpt>
      <trkpt lat="48.89517" lon="7.84103">
        <ele>151.54</ele>
        <time>2021-07-19T14:29:08Z</time>
      </trkpt>
      <trkpt lat="48.89625" lon="7.84516">
        <ele>149.14</ele>
        <time>2021-07-19T14:29:21Z</time>
      </trkpt>
      <trkpt lat="48.89764" lon="7.84832">
        <ele>151.54</ele>
        <time>2021-07-19T14:29:32Z</time>
      </trkpt>
      <trkpt lat="48.89928" lon="7.85089">
        <ele>157.79</ele>
        <time>2021-07-19T14:29:43Z</time>
      </trkpt>
      <trkpt lat="48.90112" lon="7.85408">
        <ele>166.45</ele>
        <time>2021-07-19T14:29:56Z</time>
      </trkpt>
      <trkpt lat="48.90361" lon="7.85902">
        <ele>173.17</ele>
        <time>2021-07-19T14:30:15Z</time>
      </trkpt>
      <trkpt lat="48.90487" lon="7.86158">
        <ele>175.58</ele>
        <time>2021-07-19T14:30:26Z</time>
      </trkpt>
      <trkpt lat="48.90503" lon="7.86193">
        <ele>175.58</ele>
        <time>2021-07-19T14:30:28Z</time>
      </trkpt>
      <trkpt lat="48.90508" lon="7.86205">
        <ele>175.1</ele>
        <time>2021-07-19T14:30:29Z</time>
      </trkpt>
      <trkpt lat="48.905" lon="7.86241">
        <ele>173.17</ele>
        <time>2021-07-19T14:30:31Z</time>
      </trkpt>
      <trkpt lat="48.90505" lon="7.86257">
        <ele>174.14</ele>
        <time>2021-07-19T14:30:32Z</time>
      </trkpt>
      <trkpt lat="48.90509" lon="7.86269">
        <ele>174.62</ele>
        <time>2021-07-19T14:30:33Z</time>
      </trkpt>
      <trkpt lat="48.90516" lon="7.86276">
        <ele>176.06</ele>
        <time>2021-07-19T14:30:34Z</time>
      </trkpt>
      <trkpt lat="48.90532" lon="7.86284">
        <ele>177.5</ele>
        <time>2021-07-19T14:30:35Z</time>
      </trkpt>
      <trkpt lat="48.90532" lon="7.86284">
        <ele>177.98</ele>
        <time>2021-07-19T14:30:36Z</time>
      </trkpt>
      <trkpt lat="48.90532" lon="7.86284">
        <ele>177.98</ele>
        <time>2021-07-19T14:30:37Z</time>
      </trkpt>
      <trkpt lat="48.90558" lon="7.86292">
        <ele>178.46</ele>
        <time>2021-07-19T14:30:38Z</time>
      </trkpt>
      <trkpt lat="48.90565" lon="7.86307">
        <ele>178.94</ele>
        <time>2021-07-19T14:30:39Z</time>
      </trkpt>
      <trkpt lat="48.90573" lon="7.86324">
        <ele>178.94</ele>
        <time>2021-07-19T14:30:40Z</time>
      </trkpt>
      <trkpt lat="48.90666" lon="7.8651">
        <ele>178.94</ele>
        <time>2021-07-19T14:30:49Z</time>
      </trkpt>
      <trkpt lat="48.90843" lon="7.86859">
        <ele>181.35</ele>
        <time>2021-07-19T14:31:03Z</time>
      </trkpt>
      <trkpt lat="48.91031" lon="7.87183">
        <ele>189.04</ele>
        <time>2021-07-19T14:31:17Z</time>
      </trkpt>
      <trkpt lat="48.91294" lon="7.87549">
        <ele>191.44</ele>
        <time>2021-07-19T14:31:34Z</time>
      </trkpt>
      <trkpt lat="48.91579" lon="7.87941">
        <ele>183.27</ele>
        <time>2021-07-19T14:31:52Z</time>
      </trkpt>
      <trkpt lat="48.91703" lon="7.88131">
        <ele>185.19</ele>
        <time>2021-07-19T14:32:02Z</time>
      </trkpt>
      <trkpt lat="48.91867" lon="7.88435">
        <ele>188.56</ele>
        <time>2021-07-19T14:32:17Z</time>
      </trkpt>
      <trkpt lat="48.92029" lon="7.88752">
        <ele>195.28</ele>
        <time>2021-07-19T14:32:32Z</time>
      </trkpt>
      <trkpt lat="48.92182" lon="7.89059">
        <ele>200.09</ele>
        <time>2021-07-19T14:32:48Z</time>
      </trkpt>
      <trkpt lat="48.92319" lon="7.89332">
        <ele>197.69</ele>
        <time>2021-07-19T14:32:58Z</time>
      </trkpt>
      <trkpt lat="48.92427" lon="7.89518">
        <ele>194.8</ele>
        <time>2021-07-19T14:33:06Z</time>
      </trkpt>
      <trkpt lat="48.92543" lon="7.89685">
        <ele>187.59</ele>
        <time>2021-07-19T14:33:15Z</time>
      </trkpt>
      <trkpt lat="48.92705" lon="7.89906">
        <ele>177.5</ele>
        <time>2021-07-19T14:33:25Z</time>
      </trkpt>
      <trkpt lat="48.92844" lon="7.90167">
        <ele>164.52</ele>
        <time>2021-07-19T14:33:35Z</time>
      </trkpt>
      <trkpt lat="48.9293" lon="7.90465">
        <ele>157.31</ele>
        <time>2021-07-19T14:33:44Z</time>
      </trkpt>
      <trkpt lat="48.9299" lon="7.90746">
        <ele>152.03</ele>
        <time>2021-07-19T14:33:53Z</time>
      </trkpt>
      <trkpt lat="48.93073" lon="7.91025">
        <ele>148.66</ele>
        <time>2021-07-19T14:34:03Z</time>
      </trkpt>
      <trkpt lat="48.93184" lon="7.91267">
        <ele>152.51</ele>
        <time>2021-07-19T14:34:14Z</time>
      </trkpt>
      <trkpt lat="48.93286" lon="7.91492">
        <ele>154.91</ele>
        <time>2021-07-19T14:34:25Z</time>
      </trkpt>
      <trkpt lat="48.93324" lon="7.91618">
        <ele>155.87</ele>
        <time>2021-07-19T14:34:32Z</time>
      </trkpt>
      <trkpt lat="48.93356" lon="7.91802">
        <ele>155.87</ele>
        <time>2021-07-19T14:34:42Z</time>
      </trkpt>
      <trkpt lat="48.93359" lon="7.92042">
        <ele>154.43</ele>
        <time>2021-07-19T14:34:50Z</time>
      </trkpt>
      <trkpt lat="48.93318" lon="7.92305">
        <ele>156.83</ele>
        <time>2021-07-19T14:35:00Z</time>
      </trkpt>
      <trkpt lat="48.93236" lon="7.92696">
        <ele>154.43</ele>
        <time>2021-07-19T14:35:13Z</time>
      </trkpt>
      <trkpt lat="48.93191" lon="7.9313">
        <ele>149.62</ele>
        <time>2021-07-19T14:35:26Z</time>
      </trkpt>
      <trkpt lat="48.93198" lon="7.93425">
        <ele>152.51</ele>
        <time>2021-07-19T14:35:37Z</time>
      </trkpt>
      <trkpt lat="48.93215" lon="7.93596">
        <ele>152.51</ele>
        <time>2021-07-19T14:35:45Z</time>
      </trkpt>
      <trkpt lat="48.93218" lon="7.93617">
        <ele>152.51</ele>
        <time>2021-07-19T14:35:47Z</time>
      </trkpt>
      <trkpt lat="48.9322" lon="7.93634">
        <ele>152.51</ele>
        <time>2021-07-19T14:35:48Z</time>
      </trkpt>
      <trkpt lat="48.9322" lon="7.93634">
        <ele>152.99</ele>
        <time>2021-07-19T14:35:49Z</time>
      </trkpt>
      <trkpt lat="48.93214" lon="7.93646">
        <ele>152.99</ele>
        <time>2021-07-19T14:35:50Z</time>
      </trkpt>
      <trkpt lat="48.93217" lon="7.93663">
        <ele>152.51</ele>
        <time>2021-07-19T14:35:51Z</time>
      </trkpt>
      <trkpt lat="48.93217" lon="7.93663">
        <ele>152.51</ele>
        <time>2021-07-19T14:35:52Z</time>
      </trkpt>
      <trkpt lat="48.93221" lon="7.9367">
        <ele>152.51</ele>
        <time>2021-07-19T14:35:53Z</time>
      </trkpt>
      <trkpt lat="48.93221" lon="7.9367">
        <ele>152.51</ele>
        <time>2021-07-19T14:35:54Z</time>
      </trkpt>
      <trkpt lat="48.93232" lon="7.93693">
        <ele>152.03</ele>
        <time>2021-07-19T14:35:55Z</time>
      </trkpt>
      <trkpt lat="48.93234" lon="7.93706">
        <ele>152.03</ele>
        <time>2021-07-19T14:35:56Z</time>
      </trkpt>
      <trkpt lat="48.93236" lon="7.93721">
        <ele>151.54</ele>
        <time>2021-07-19T14:35:57Z</time>
      </trkpt>
      <trkpt lat="48.93269" lon="7.93869">
        <ele>148.18</ele>
        <time>2021-07-19T14:36:05Z</time>
      </trkpt>
      <trkpt lat="48.93328" lon="7.94059">
        <ele>144.82</ele>
        <time>2021-07-19T14:36:13Z</time>
      </trkpt>
      <trkpt lat="48.93429" lon="7.94301">
        <ele>142.41</ele>
        <time>2021-07-19T14:36:22Z</time>
      </trkpt>
      <trkpt lat="48.93577" lon="7.94559">
        <ele>141.93</ele>
        <time>2021-07-19T14:36:32Z</time>
      </trkpt>
      <trkpt lat="48.93754" lon="7.94765">
        <ele>142.41</ele>
        <time>2021-07-19T14:36:42Z</time>
      </trkpt>
      <trkpt lat="48.93976" lon="7.94937">
        <ele>142.41</ele>
        <time>2021-07-19T14:36:54Z</time>
      </trkpt>
      <trkpt lat="48.94459" lon="7.95236">
        <ele>145.3</ele>
        <time>2021-07-19T14:37:19Z</time>
      </trkpt>
      <trkpt lat="48.94796" lon="7.95443">
        <ele>149.14</ele>
        <time>2021-07-19T14:37:36Z</time>
      </trkpt>
      <trkpt lat="48.95033" lon="7.95554">
        <ele>149.62</ele>
        <time>2021-07-19T14:37:48Z</time>
      </trkpt>
      <trkpt lat="48.95266" lon="7.95591">
        <ele>149.62</ele>
        <time>2021-07-19T14:37:59Z</time>
      </trkpt>
      <trkpt lat="48.95494" lon="7.95558">
        <ele>148.18</ele>
        <time>2021-07-19T14:38:10Z</time>
      </trkpt>
      <trkpt lat="48.95877" lon="7.95427">
        <ele>147.22</ele>
        <time>2021-07-19T14:38:29Z</time>
      </trkpt>
      <trkpt lat="48.96092" lon="7.95345">
        <ele>146.74</ele>
        <time>2021-07-19T14:38:41Z</time>
      </trkpt>
      <trkpt lat="48.96154" lon="7.95324">
        <ele>147.22</ele>
        <time>2021-07-19T14:38:47Z</time>
      </trkpt>
      <trkpt lat="48.9616" lon="7.95324">
        <ele>146.74</ele>
        <time>2021-07-19T14:38:48Z</time>
      </trkpt>
      <trkpt lat="48.96167" lon="7.95323">
        <ele>147.22</ele>
        <time>2021-07-19T14:38:49Z</time>
      </trkpt>
      <trkpt lat="48.96169" lon="7.95322">
        <ele>147.22</ele>
        <time>2021-07-19T14:38:50Z</time>
      </trkpt>
      <trkpt lat="48.96165" lon="7.95307">
        <ele>147.7</ele>
        <time>2021-07-19T14:38:51Z</time>
      </trkpt>
      <trkpt lat="48.96162" lon="7.95299">
        <ele>147.7</ele>
        <time>2021-07-19T14:38:52Z</time>
      </trkpt>
      <trkpt lat="48.9616" lon="7.95292">
        <ele>148.18</ele>
        <time>2021-07-19T14:38:53Z</time>
      </trkpt>
      <trkpt lat="48.96157" lon="7.9529">
        <ele>147.7</ele>
        <time>2021-07-19T14:38:54Z</time>
      </trkpt>
      <trkpt lat="48.9615" lon="7.95285">
        <ele>148.18</ele>
        <time>2021-07-19T14:38:55Z</time>
      </trkpt>
      <trkpt lat="48.96133" lon="7.95271">
        <ele>147.7</ele>
        <time>2021-07-19T14:38:57Z</time>
      </trkpt>
      <trkpt lat="48.96117" lon="7.95251">
        <ele>147.7</ele>
        <time>2021-07-19T14:38:58Z</time>
      </trkpt>
      <trkpt lat="48.96117" lon="7.95251">
        <ele>147.22</ele>
        <time>2021-07-19T14:38:59Z</time>
      </trkpt>
      <trkpt lat="48.96038" lon="7.95125">
        <ele>148.18</ele>
        <time>2021-07-19T14:39:08Z</time>
      </trkpt>
      <trkpt lat="48.95943" lon="7.94942">
        <ele>149.62</ele>
        <time>2021-07-19T14:39:17Z</time>
      </trkpt>
      <trkpt lat="48.95932" lon="7.94921">
        <ele>151.06</ele>
        <time>2021-07-19T14:39:18Z</time>
      </trkpt>
      <trkpt lat="48.95919" lon="7.94901">
        <ele>152.03</ele>
        <time>2021-07-19T14:39:19Z</time>
      </trkpt>
      <trkpt lat="48.95789" lon="7.94734">
        <ele>156.35</ele>
        <time>2021-07-19T14:39:28Z</time>
      </trkpt>
      <trkpt lat="48.95606" lon="7.94458">
        <ele>170.77</ele>
        <time>2021-07-19T14:39:42Z</time>
      </trkpt>
      <trkpt lat="48.95527" lon="7.94369">
        <ele>174.14</ele>
        <time>2021-07-19T14:39:49Z</time>
      </trkpt>
      <trkpt lat="48.95494" lon="7.94335">
        <ele>174.14</ele>
        <time>2021-07-19T14:39:56Z</time>
      </trkpt>
      <trkpt lat="48.95487" lon="7.94334">
        <ele>173.66</ele>
        <time>2021-07-19T14:40:07Z</time>
      </trkpt>
      <trkpt lat="48.95425" lon="7.94334">
        <ele>170.29</ele>
        <time>2021-07-19T14:40:23Z</time>
      </trkpt>
      <trkpt lat="48.95378" lon="7.94336">
        <ele>167.89</ele>
        <time>2021-07-19T14:40:32Z</time>
      </trkpt>
      <trkpt lat="48.95374" lon="7.94334">
        <ele>167.89</ele>
        <time>2021-07-19T14:40:33Z</time>
      </trkpt>
      <trkpt lat="48.9537" lon="7.94332">
        <ele>167.89</ele>
        <time>2021-07-19T14:40:34Z</time>
      </trkpt>
      <trkpt lat="48.95367" lon="7.9433">
        <ele>168.37</ele>
        <time>2021-07-19T14:40:35Z</time>
      </trkpt>
      <trkpt lat="48.95364" lon="7.94329">
        <ele>168.37</ele>
        <time>2021-07-19T14:40:36Z</time>
      </trkpt>
      <trkpt lat="48.95364" lon="7.94329">
        <ele>168.37</ele>
        <time>2021-07-19T14:40:55Z</time>
      </trkpt>
      <trkpt lat="48.95364" lon="7.94323">
        <ele>168.37</ele>
        <time>2021-07-19T14:41:09Z</time>
      </trkpt>
      <trkpt lat="48.95364" lon="7.9432">
        <ele>167.89</ele>
        <time>2021-07-19T14:41:10Z</time>
      </trkpt>
      <trkpt lat="48.95364" lon="7.94295">
        <ele>167.41</ele>
        <time>2021-07-19T14:41:14Z</time>
      </trkpt>
    </trkseg>
  </trk>
  <trk>
    <name><![CDATA[Journal actif: 2021-07-19 12:41]]></name>
    <trkseg>
      <trkpt lat="48.95363" lon="7.94264">
        <ele>165.48</ele>
        <time>2021-07-19T14:41:19Z</time>
      </trkpt>
      <trkpt lat="48.95363" lon="7.94239">
        <ele>163.08</ele>
        <time>2021-07-19T14:41:22Z</time>
      </trkpt>
      <trkpt lat="48.95362" lon="7.9423">
        <ele>162.6</ele>
        <time>2021-07-19T14:41:23Z</time>
      </trkpt>
      <trkpt lat="48.95362" lon="7.94221">
        <ele>161.64</ele>
        <time>2021-07-19T14:41:24Z</time>
      </trkpt>
      <trkpt lat="48.95349" lon="7.94165">
        <ele>161.16</ele>
        <time>2021-07-19T14:41:35Z</time>
      </trkpt>
      <trkpt lat="48.95337" lon="7.94121">
        <ele>158.27</ele>
        <time>2021-07-19T14:41:49Z</time>
      </trkpt>
      <trkpt lat="48.95328" lon="7.941">
        <ele>157.79</ele>
        <time>2021-07-19T14:41:54Z</time>
      </trkpt>
      <trkpt lat="48.95318" lon="7.94087">
        <ele>157.31</ele>
        <time>2021-07-19T14:41:57Z</time>
      </trkpt>
      <trkpt lat="48.95314" lon="7.94083">
        <ele>156.83</ele>
        <time>2021-07-19T14:41:58Z</time>
      </trkpt>
      <trkpt lat="48.95311" lon="7.94078">
        <ele>156.83</ele>
        <time>2021-07-19T14:41:59Z</time>
      </trkpt>
      <trkpt lat="48.95308" lon="7.94074">
        <ele>155.39</ele>
        <time>2021-07-19T14:42:00Z</time>
      </trkpt>
      <trkpt lat="48.95305" lon="7.94071">
        <ele>153.95</ele>
        <time>2021-07-19T14:42:01Z</time>
      </trkpt>
      <trkpt lat="48.95307" lon="7.94058">
        <ele>153.47</ele>
        <time>2021-07-19T14:42:02Z</time>
      </trkpt>
      <trkpt lat="48.95309" lon="7.94052">
        <ele>152.99</ele>
        <time>2021-07-19T14:42:03Z</time>
      </trkpt>
      <trkpt lat="48.95311" lon="7.94044">
        <ele>152.99</ele>
        <time>2021-07-19T14:42:04Z</time>
      </trkpt>
      <trkpt lat="48.95314" lon="7.94035">
        <ele>153.95</ele>
        <time>2021-07-19T14:42:05Z</time>
      </trkpt>
      <trkpt lat="48.95349" lon="7.93928">
        <ele>153.95</ele>
        <time>2021-07-19T14:42:16Z</time>
      </trkpt>
      <trkpt lat="48.95408" lon="7.93808">
        <ele>154.91</ele>
        <time>2021-07-19T14:42:30Z</time>
      </trkpt>
      <trkpt lat="48.95481" lon="7.93733">
        <ele>156.83</ele>
        <time>2021-07-19T14:42:42Z</time>
      </trkpt>
      <trkpt lat="48.95513" lon="7.93715">
        <ele>157.31</ele>
        <time>2021-07-19T14:42:50Z</time>
      </trkpt>
      <trkpt lat="48.9552" lon="7.93711">
        <ele>157.31</ele>
        <time>2021-07-19T14:43:52Z</time>
      </trkpt>
      <trkpt lat="48.95523" lon="7.9371">
        <ele>157.31</ele>
        <time>2021-07-19T14:43:53Z</time>
      </trkpt>
      <trkpt lat="48.95531" lon="7.93711">
        <ele>157.79</ele>
        <time>2021-07-19T14:43:54Z</time>
      </trkpt>
      <trkpt lat="48.95533" lon="7.93716">
        <ele>157.79</ele>
        <time>2021-07-19T14:43:55Z</time>
      </trkpt>
      <trkpt lat="48.95535" lon="7.93721">
        <ele>157.79</ele>
        <time>2021-07-19T14:43:56Z</time>
      </trkpt>
      <trkpt lat="48.95579" lon="7.93763">
        <ele>159.24</ele>
        <time>2021-07-19T14:44:05Z</time>
      </trkpt>
      <trkpt lat="48.95586" lon="7.93767">
        <ele>159.72</ele>
        <time>2021-07-19T14:44:06Z</time>
      </trkpt>
      <trkpt lat="48.95659" lon="7.93785">
        <ele>166.45</ele>
        <time>2021-07-19T14:44:17Z</time>
      </trkpt>
      <trkpt lat="48.95698" lon="7.93794">
        <ele>170.29</ele>
        <time>2021-07-19T14:44:25Z</time>
      </trkpt>
      <trkpt lat="48.95786" lon="7.93812">
        <ele>176.06</ele>
        <time>2021-07-19T14:44:35Z</time>
      </trkpt>
      <trkpt lat="48.95794" lon="7.93812">
        <ele>176.54</ele>
        <time>2021-07-19T14:44:36Z</time>
      </trkpt>
      <trkpt lat="48.95851" lon="7.93814">
        <ele>179.9</ele>
        <time>2021-07-19T14:44:43Z</time>
      </trkpt>
      <trkpt lat="48.95861" lon="7.93814">
        <ele>179.9</ele>
        <time>2021-07-19T14:44:47Z</time>
      </trkpt>
      <trkpt lat="48.95862" lon="7.93814">
        <ele>179.9</ele>
        <time>2021-07-19T14:44:48Z</time>
      </trkpt>
      <trkpt lat="48.95859" lon="7.93819">
        <ele>179.9</ele>
        <time>2021-07-19T14:44:49Z</time>
      </trkpt>
      <trkpt lat="48.95859" lon="7.93819">
        <ele>179.42</ele>
        <time>2021-07-19T14:44:50Z</time>
      </trkpt>
      <trkpt lat="48.95856" lon="7.93823">
        <ele>179.42</ele>
        <time>2021-07-19T14:44:51Z</time>
      </trkpt>
      <trkpt lat="48.95852" lon="7.93829">
        <ele>178.94</ele>
        <time>2021-07-19T14:44:52Z</time>
      </trkpt>
      <trkpt lat="48.9581" lon="7.93888">
        <ele>174.62</ele>
        <time>2021-07-19T14:44:59Z</time>
      </trkpt>
      <trkpt lat="48.95709" lon="7.93992">
        <ele>171.25</ele>
        <time>2021-07-19T14:45:08Z</time>
      </trkpt>
      <trkpt lat="48.95575" lon="7.94141">
        <ele>170.77</ele>
        <time>2021-07-19T14:45:19Z</time>
      </trkpt>
      <trkpt lat="48.95519" lon="7.94265">
        <ele>169.81</ele>
        <time>2021-07-19T14:45:27Z</time>
      </trkpt>
      <trkpt lat="48.955" lon="7.94321">
        <ele>165.48</ele>
        <time>2021-07-19T14:45:34Z</time>
      </trkpt>
      <trkpt lat="48.95495" lon="7.94336">
        <ele>166.93</ele>
        <time>2021-07-19T14:45:40Z</time>
      </trkpt>
      <trkpt lat="48.95495" lon="7.94336">
        <ele>166.93</ele>
        <time>2021-07-19T14:45:41Z</time>
      </trkpt>
      <trkpt lat="48.95499" lon="7.94339">
        <ele>166.45</ele>
        <time>2021-07-19T14:45:42Z</time>
      </trkpt>
      <trkpt lat="48.95503" lon="7.94343">
        <ele>166.45</ele>
        <time>2021-07-19T14:45:43Z</time>
      </trkpt>
      <trkpt lat="48.95507" lon="7.94348">
        <ele>166.93</ele>
        <time>2021-07-19T14:45:44Z</time>
      </trkpt>
      <trkpt lat="48.95556" lon="7.94401">
        <ele>169.33</ele>
        <time>2021-07-19T14:45:51Z</time>
      </trkpt>
      <trkpt lat="48.95634" lon="7.945">
        <ele>162.6</ele>
        <time>2021-07-19T14:45:59Z</time>
      </trkpt>
      <trkpt lat="48.95759" lon="7.94688">
        <ele>153.47</ele>
        <time>2021-07-19T14:46:09Z</time>
      </trkpt>
      <trkpt lat="48.95931" lon="7.94919">
        <ele>148.66</ele>
        <time>2021-07-19T14:46:20Z</time>
      </trkpt>
      <trkpt lat="48.9602" lon="7.9509">
        <ele>147.7</ele>
        <time>2021-07-19T14:46:28Z</time>
      </trkpt>
      <trkpt lat="48.9612" lon="7.95255">
        <ele>146.26</ele>
        <time>2021-07-19T14:46:36Z</time>
      </trkpt>
      <trkpt lat="48.96147" lon="7.95284">
        <ele>151.06</ele>
        <time>2021-07-19T14:46:39Z</time>
      </trkpt>
      <trkpt lat="48.96152" lon="7.95302">
        <ele>151.06</ele>
        <time>2021-07-19T14:46:40Z</time>
      </trkpt>
      <trkpt lat="48.96152" lon="7.95302">
        <ele>149.62</ele>
        <time>2021-07-19T14:46:41Z</time>
      </trkpt>
      <trkpt lat="48.96169" lon="7.95333">
        <ele>149.62</ele>
        <time>2021-07-19T14:46:47Z</time>
      </trkpt>
      <trkpt lat="48.96204" lon="7.95409">
        <ele>146.74</ele>
        <time>2021-07-19T14:46:54Z</time>
      </trkpt>
      <trkpt lat="48.96261" lon="7.95521">
        <ele>143.37</ele>
        <time>2021-07-19T14:47:02Z</time>
      </trkpt>
      <trkpt lat="48.96336" lon="7.95716">
        <ele>141.93</ele>
        <time>2021-07-19T14:47:12Z</time>
      </trkpt>
      <trkpt lat="48.96405" lon="7.95934">
        <ele>143.85</ele>
        <time>2021-07-19T14:47:22Z</time>
      </trkpt>
      <trkpt lat="48.96408" lon="7.95952">
        <ele>144.34</ele>
        <time>2021-07-19T14:47:23Z</time>
      </trkpt>
      <trkpt lat="48.96411" lon="7.95969">
        <ele>145.78</ele>
        <time>2021-07-19T14:47:24Z</time>
      </trkpt>
      <trkpt lat="48.96409" lon="7.9601">
        <ele>148.18</ele>
        <time>2021-07-19T14:47:25Z</time>
      </trkpt>
      <trkpt lat="48.96409" lon="7.9601">
        <ele>148.66</ele>
        <time>2021-07-19T14:47:26Z</time>
      </trkpt>
      <trkpt lat="48.96407" lon="7.96031">
        <ele>149.14</ele>
        <time>2021-07-19T14:47:27Z</time>
      </trkpt>
      <trkpt lat="48.96381" lon="7.96225">
        <ele>156.35</ele>
        <time>2021-07-19T14:47:36Z</time>
      </trkpt>
      <trkpt lat="48.96382" lon="7.96247">
        <ele>154.43</ele>
        <time>2021-07-19T14:47:37Z</time>
      </trkpt>
      <trkpt lat="48.96383" lon="7.96269">
        <ele>155.39</ele>
        <time>2021-07-19T14:47:38Z</time>
      </trkpt>
      <trkpt lat="48.9644" lon="7.96595">
        <ele>163.56</ele>
        <time>2021-07-19T14:47:52Z</time>
      </trkpt>
      <trkpt lat="48.96514" lon="7.96857">
        <ele>174.62</ele>
        <time>2021-07-19T14:48:04Z</time>
      </trkpt>
      <trkpt lat="48.96527" lon="7.9688">
        <ele>178.94</ele>
        <time>2021-07-19T14:48:06Z</time>
      </trkpt>
      <trkpt lat="48.96537" lon="7.96895">
        <ele>179.9</ele>
        <time>2021-07-19T14:48:07Z</time>
      </trkpt>
      <trkpt lat="48.96544" lon="7.969">
        <ele>180.38</ele>
        <time>2021-07-19T14:48:08Z</time>
      </trkpt>
      <trkpt lat="48.96544" lon="7.969">
        <ele>180.38</ele>
        <time>2021-07-19T14:48:09Z</time>
      </trkpt>
      <trkpt lat="48.96551" lon="7.96905">
        <ele>180.87</ele>
        <time>2021-07-19T14:48:10Z</time>
      </trkpt>
      <trkpt lat="48.96632" lon="7.9694">
        <ele>180.87</ele>
        <time>2021-07-19T14:48:18Z</time>
      </trkpt>
      <trkpt lat="48.9677" lon="7.97009">
        <ele>178.46</ele>
        <time>2021-07-19T14:48:27Z</time>
      </trkpt>
      <trkpt lat="48.96933" lon="7.97091">
        <ele>175.1</ele>
        <time>2021-07-19T14:48:36Z</time>
      </trkpt>
      <trkpt lat="48.97142" lon="7.97177">
        <ele>169.81</ele>
        <time>2021-07-19T14:48:47Z</time>
      </trkpt>
      <trkpt lat="48.97226" lon="7.97226">
        <ele>175.58</ele>
        <time>2021-07-19T14:48:52Z</time>
      </trkpt>
      <trkpt lat="48.9724" lon="7.97239">
        <ele>175.58</ele>
        <time>2021-07-19T14:48:53Z</time>
      </trkpt>
      <trkpt lat="48.97253" lon="7.97257">
        <ele>175.58</ele>
        <time>2021-07-19T14:48:54Z</time>
      </trkpt>
      <trkpt lat="48.97368" lon="7.97433">
        <ele>171.73</ele>
        <time>2021-07-19T14:49:03Z</time>
      </trkpt>
      <trkpt lat="48.97378" lon="7.97453">
        <ele>171.25</ele>
        <time>2021-07-19T14:49:04Z</time>
      </trkpt>
      <trkpt lat="48.97384" lon="7.97474">
        <ele>170.77</ele>
        <time>2021-07-19T14:49:05Z</time>
      </trkpt>
      <trkpt lat="48.97389" lon="7.97498">
        <ele>171.73</ele>
        <time>2021-07-19T14:49:06Z</time>
      </trkpt>
      <trkpt lat="48.97392" lon="7.97522">
        <ele>174.62</ele>
        <time>2021-07-19T14:49:07Z</time>
      </trkpt>
      <trkpt lat="48.97396" lon="7.97548">
        <ele>174.62</ele>
        <time>2021-07-19T14:49:08Z</time>
      </trkpt>
      <trkpt lat="48.97396" lon="7.97575">
        <ele>174.14</ele>
        <time>2021-07-19T14:49:09Z</time>
      </trkpt>
      <trkpt lat="48.9738" lon="7.97837">
        <ele>172.69</ele>
        <time>2021-07-19T14:49:19Z</time>
      </trkpt>
      <trkpt lat="48.97378" lon="7.9786">
        <ele>173.17</ele>
        <time>2021-07-19T14:49:20Z</time>
      </trkpt>
      <trkpt lat="48.97378" lon="7.9788">
        <ele>173.17</ele>
        <time>2021-07-19T14:49:21Z</time>
      </trkpt>
      <trkpt lat="48.9738" lon="7.97901">
        <ele>173.17</ele>
        <time>2021-07-19T14:49:22Z</time>
      </trkpt>
      <trkpt lat="48.97387" lon="7.97955">
        <ele>171.73</ele>
        <time>2021-07-19T14:49:25Z</time>
      </trkpt>
      <trkpt lat="48.97389" lon="7.97972">
        <ele>171.73</ele>
        <time>2021-07-19T14:49:26Z</time>
      </trkpt>
      <trkpt lat="48.97386" lon="7.98118">
        <ele>171.25</ele>
        <time>2021-07-19T14:49:36Z</time>
      </trkpt>
      <trkpt lat="48.97393" lon="7.9837">
        <ele>162.6</ele>
        <time>2021-07-19T14:49:56Z</time>
      </trkpt>
      <trkpt lat="48.97391" lon="7.98418">
        <ele>162.6</ele>
        <time>2021-07-19T14:50:00Z</time>
      </trkpt>
      <trkpt lat="48.9739" lon="7.98437">
        <ele>163.08</ele>
        <time>2021-07-19T14:50:07Z</time>
      </trkpt>
      <trkpt lat="48.97393" lon="7.98471">
        <ele>163.08</ele>
        <time>2021-07-19T14:50:20Z</time>
      </trkpt>
      <trkpt lat="48.97397" lon="7.98507">
        <ele>163.08</ele>
        <time>2021-07-19T14:50:29Z</time>
      </trkpt>
      <trkpt lat="48.974" lon="7.98538">
        <ele>163.08</ele>
        <time>2021-07-19T14:50:47Z</time>
      </trkpt>
      <trkpt lat="48.97429" lon="7.98639">
        <ele>162.6</ele>
        <time>2021-07-19T14:50:57Z</time>
      </trkpt>
      <trkpt lat="48.97458" lon="7.98756">
        <ele>162.6</ele>
        <time>2021-07-19T14:51:08Z</time>
      </trkpt>
      <trkpt lat="48.97457" lon="7.98765">
        <ele>162.6</ele>
        <time>2021-07-19T14:51:09Z</time>
      </trkpt>
      <trkpt lat="48.97456" lon="7.98773">
        <ele>162.6</ele>
        <time>2021-07-19T14:51:10Z</time>
      </trkpt>
      <trkpt lat="48.97455" lon="7.98778">
        <ele>163.56</ele>
        <time>2021-07-19T14:51:13Z</time>
      </trkpt>
      <trkpt lat="48.97454" lon="7.98784">
        <ele>163.56</ele>
        <time>2021-07-19T14:51:14Z</time>
      </trkpt>
      <trkpt lat="48.97453" lon="7.98785">
        <ele>163.56</ele>
        <time>2021-07-19T14:51:15Z</time>
      </trkpt>
      <trkpt lat="48.97446" lon="7.98783">
        <ele>164.04</ele>
        <time>2021-07-19T14:51:16Z</time>
      </trkpt>
      <trkpt lat="48.97446" lon="7.98783">
        <ele>164.04</ele>
        <time>2021-07-19T14:51:17Z</time>
      </trkpt>
      <trkpt lat="48.97441" lon="7.98782">
        <ele>163.56</ele>
        <time>2021-07-19T14:51:18Z</time>
      </trkpt>
      <trkpt lat="48.97431" lon="7.9878">
        <ele>163.56</ele>
        <time>2021-07-19T14:51:20Z</time>
      </trkpt>
      <trkpt lat="48.97364" lon="7.98767">
        <ele>158.27</ele>
        <time>2021-07-19T14:51:28Z</time>
      </trkpt>
      <trkpt lat="48.97353" lon="7.98767">
        <ele>157.31</ele>
        <time>2021-07-19T14:51:29Z</time>
      </trkpt>
      <trkpt lat="48.9734" lon="7.98768">
        <ele>158.27</ele>
        <time>2021-07-19T14:51:30Z</time>
      </trkpt>
      <trkpt lat="48.97329" lon="7.98772">
        <ele>157.79</ele>
        <time>2021-07-19T14:51:31Z</time>
      </trkpt>
      <trkpt lat="48.97305" lon="7.98781">
        <ele>158.27</ele>
        <time>2021-07-19T14:51:32Z</time>
      </trkpt>
      <trkpt lat="48.97305" lon="7.98781">
        <ele>158.75</ele>
        <time>2021-07-19T14:51:33Z</time>
      </trkpt>
      <trkpt lat="48.97191" lon="7.98823">
        <ele>156.83</ele>
        <time>2021-07-19T14:51:44Z</time>
      </trkpt>
      <trkpt lat="48.97111" lon="7.98836">
        <ele>157.31</ele>
        <time>2021-07-19T14:51:55Z</time>
      </trkpt>
      <trkpt lat="48.97083" lon="7.98839">
        <ele>157.79</ele>
        <time>2021-07-19T14:52:01Z</time>
      </trkpt>
      <trkpt lat="48.97066" lon="7.98835">
        <ele>158.75</ele>
        <time>2021-07-19T14:52:13Z</time>
      </trkpt>
      <trkpt lat="48.97061" lon="7.98848">
        <ele>158.75</ele>
        <time>2021-07-19T14:52:28Z</time>
      </trkpt>
      <trkpt lat="48.97061" lon="7.98848">
        <ele>158.75</ele>
        <time>2021-07-19T14:52:30Z</time>
      </trkpt>
      <trkpt lat="48.97066" lon="7.98846">
        <ele>158.75</ele>
        <time>2021-07-19T14:52:31Z</time>
      </trkpt>
      <trkpt lat="48.97066" lon="7.98846">
        <ele>158.75</ele>
        <time>2021-07-19T14:52:32Z</time>
      </trkpt>
      <trkpt lat="48.97066" lon="7.98846">
        <ele>158.75</ele>
        <time>2021-07-19T14:52:33Z</time>
      </trkpt>
      <trkpt lat="48.97067" lon="7.98847">
        <ele>158.75</ele>
        <time>2021-07-19T14:52:34Z</time>
      </trkpt>
      <trkpt lat="48.9707" lon="7.9885">
        <ele>158.75</ele>
        <time>2021-07-19T14:52:35Z</time>
      </trkpt>
      <trkpt lat="48.97072" lon="7.98852">
        <ele>158.75</ele>
        <time>2021-07-19T14:52:36Z</time>
      </trkpt>
      <trkpt lat="48.97075" lon="7.98863">
        <ele>158.75</ele>
        <time>2021-07-19T14:52:37Z</time>
      </trkpt>
      <trkpt lat="48.97076" lon="7.98869">
        <ele>158.75</ele>
        <time>2021-07-19T14:52:38Z</time>
      </trkpt>
      <trkpt lat="48.9708" lon="7.98883">
        <ele>159.24</ele>
        <time>2021-07-19T14:52:40Z</time>
      </trkpt>
      <trkpt lat="48.97098" lon="7.98962">
        <ele>160.68</ele>
        <time>2021-07-19T14:52:52Z</time>
      </trkpt>
      <trkpt lat="48.97117" lon="7.99031">
        <ele>160.68</ele>
        <time>2021-07-19T14:53:00Z</time>
      </trkpt>
      <trkpt lat="48.97119" lon="7.99037">
        <ele>160.68</ele>
        <time>2021-07-19T14:53:01Z</time>
      </trkpt>
      <trkpt lat="48.9712" lon="7.99042">
        <ele>160.68</ele>
        <time>2021-07-19T14:53:02Z</time>
      </trkpt>
      <trkpt lat="48.97122" lon="7.99045">
        <ele>161.16</ele>
        <time>2021-07-19T14:53:03Z</time>
      </trkpt>
      <trkpt lat="48.97122" lon="7.99048">
        <ele>161.16</ele>
        <time>2021-07-19T14:53:04Z</time>
      </trkpt>
      <trkpt lat="48.97123" lon="7.99049">
        <ele>161.16</ele>
        <time>2021-07-19T14:53:05Z</time>
      </trkpt>
      <trkpt lat="48.97115" lon="7.99057">
        <ele>161.16</ele>
        <time>2021-07-19T14:53:06Z</time>
      </trkpt>
      <trkpt lat="48.97104" lon="7.99062">
        <ele>160.68</ele>
        <time>2021-07-19T14:53:18Z</time>
      </trkpt>
      <trkpt lat="48.97086" lon="7.99075">
        <ele>160.2</ele>
        <time>2021-07-19T14:53:23Z</time>
      </trkpt>
      <trkpt lat="48.97086" lon="7.99091">
        <ele>160.68</ele>
        <time>2021-07-19T14:53:29Z</time>
      </trkpt>
      <trkpt lat="48.97104" lon="7.99092">
        <ele>160.68</ele>
        <time>2021-07-19T14:53:35Z</time>
      </trkpt>
      <trkpt lat="48.97127" lon="7.99061">
        <ele>160.68</ele>
        <time>2021-07-19T14:53:40Z</time>
      </trkpt>
      <trkpt lat="48.97127" lon="7.99061">
        <ele>160.68</ele>
        <time>2021-07-19T14:53:41Z</time>
      </trkpt>
      <trkpt lat="48.97125" lon="7.99056">
        <ele>160.2</ele>
        <time>2021-07-19T14:53:42Z</time>
      </trkpt>
      <trkpt lat="48.97122" lon="7.99046">
        <ele>160.2</ele>
        <time>2021-07-19T14:53:45Z</time>
      </trkpt>
      <trkpt lat="48.97121" lon="7.99044">
        <ele>161.16</ele>
        <time>2021-07-19T14:53:52Z</time>
      </trkpt>
      <trkpt lat="48.9712" lon="7.9904">
        <ele>161.16</ele>
        <time>2021-07-19T14:53:53Z</time>
      </trkpt>
      <trkpt lat="48.97119" lon="7.99037">
        <ele>161.16</ele>
        <time>2021-07-19T14:53:54Z</time>
      </trkpt>
      <trkpt lat="48.97117" lon="7.99031">
        <ele>161.16</ele>
        <time>2021-07-19T14:53:55Z</time>
      </trkpt>
      <trkpt lat="48.97115" lon="7.99025">
        <ele>160.68</ele>
        <time>2021-07-19T14:53:56Z</time>
      </trkpt>
      <trkpt lat="48.97092" lon="7.98935">
        <ele>161.64</ele>
        <time>2021-07-19T14:54:05Z</time>
      </trkpt>
      <trkpt lat="48.97075" lon="7.98866">
        <ele>161.16</ele>
        <time>2021-07-19T14:54:12Z</time>
      </trkpt>
      <trkpt lat="48.97074" lon="7.98859">
        <ele>161.16</ele>
        <time>2021-07-19T14:54:13Z</time>
      </trkpt>
      <trkpt lat="48.9707" lon="7.98828">
        <ele>161.16</ele>
        <time>2021-07-19T14:54:16Z</time>
      </trkpt>
      <trkpt lat="48.9707" lon="7.98828">
        <ele>161.16</ele>
        <time>2021-07-19T14:54:17Z</time>
      </trkpt>
      <trkpt lat="48.97067" lon="7.9881">
        <ele>160.2</ele>
        <time>2021-07-19T14:54:19Z</time>
      </trkpt>
      <trkpt lat="48.97067" lon="7.9881">
        <ele>159.72</ele>
        <time>2021-07-19T14:54:20Z</time>
      </trkpt>
      <trkpt lat="48.97057" lon="7.98739">
        <ele>158.27</ele>
        <time>2021-07-19T14:54:30Z</time>
      </trkpt>
      <trkpt lat="48.97053" lon="7.98721">
        <ele>158.75</ele>
        <time>2021-07-19T14:54:35Z</time>
      </trkpt>
      <trkpt lat="48.97055" lon="7.98723">
        <ele>158.75</ele>
        <time>2021-07-19T14:54:36Z</time>
      </trkpt>
      <trkpt lat="48.97053" lon="7.98721">
        <ele>158.75</ele>
        <time>2021-07-19T14:54:37Z</time>
      </trkpt>
      <trkpt lat="48.97053" lon="7.98721">
        <ele>158.27</ele>
        <time>2021-07-19T14:54:38Z</time>
      </trkpt>
      <trkpt lat="48.97053" lon="7.98721">
        <ele>158.27</ele>
        <time>2021-07-19T14:54:39Z</time>
      </trkpt>
      <trkpt lat="48.97046" lon="7.98732">
        <ele>158.27</ele>
        <time>2021-07-19T14:54:40Z</time>
      </trkpt>
      <trkpt lat="48.97001" lon="7.98739">
        <ele>155.87</ele>
        <time>2021-07-19T14:54:50Z</time>
      </trkpt>
      <trkpt lat="48.96898" lon="7.98746">
        <ele>154.43</ele>
        <time>2021-07-19T14:55:03Z</time>
      </trkpt>
      <trkpt lat="48.96793" lon="7.9875">
        <ele>155.39</ele>
        <time>2021-07-19T14:55:15Z</time>
      </trkpt>
      <trkpt lat="48.96772" lon="7.98751">
        <ele>154.91</ele>
        <time>2021-07-19T14:55:17Z</time>
      </trkpt>
      <trkpt lat="48.96772" lon="7.98751">
        <ele>154.91</ele>
        <time>2021-07-19T14:55:18Z</time>
      </trkpt>
      <trkpt lat="48.96764" lon="7.98756">
        <ele>154.91</ele>
        <time>2021-07-19T14:55:19Z</time>
      </trkpt>
      <trkpt lat="48.96683" lon="7.98793">
        <ele>156.35</ele>
        <time>2021-07-19T14:55:29Z</time>
      </trkpt>
      <trkpt lat="48.96675" lon="7.98804">
        <ele>156.35</ele>
        <time>2021-07-19T14:55:32Z</time>
      </trkpt>
      <trkpt lat="48.96675" lon="7.98804">
        <ele>155.87</ele>
        <time>2021-07-19T14:55:33Z</time>
      </trkpt>
      <trkpt lat="48.96675" lon="7.98808">
        <ele>155.87</ele>
        <time>2021-07-19T14:55:34Z</time>
      </trkpt>
      <trkpt lat="48.96675" lon="7.98815">
        <ele>157.31</ele>
        <time>2021-07-19T14:55:44Z</time>
      </trkpt>
      <trkpt lat="48.96675" lon="7.98828">
        <ele>156.83</ele>
        <time>2021-07-19T14:55:47Z</time>
      </trkpt>
      <trkpt lat="48.96675" lon="7.98843">
        <ele>156.83</ele>
        <time>2021-07-19T14:55:48Z</time>
      </trkpt>
      <trkpt lat="48.96675" lon="7.98865">
        <ele>156.35</ele>
        <time>2021-07-19T14:55:53Z</time>
      </trkpt>
      <trkpt lat="48.96675" lon="7.98868">
        <ele>156.35</ele>
        <time>2021-07-19T14:55:54Z</time>
      </trkpt>
      <trkpt lat="48.96675" lon="7.9887">
        <ele>156.35</ele>
        <time>2021-07-19T14:55:55Z</time>
      </trkpt>
      <trkpt lat="48.96668" lon="7.98866">
        <ele>155.87</ele>
        <time>2021-07-19T14:55:56Z</time>
      </trkpt>
      <trkpt lat="48.9667" lon="7.98867">
        <ele>155.39</ele>
        <time>2021-07-19T14:56:08Z</time>
      </trkpt>
      <trkpt lat="48.96675" lon="7.98864">
        <ele>155.87</ele>
        <time>2021-07-19T14:56:10Z</time>
      </trkpt>
      <trkpt lat="48.96675" lon="7.98859">
        <ele>155.87</ele>
        <time>2021-07-19T14:56:11Z</time>
      </trkpt>
      <trkpt lat="48.96675" lon="7.98853">
        <ele>155.87</ele>
        <time>2021-07-19T14:56:12Z</time>
      </trkpt>
      <trkpt lat="48.96675" lon="7.98845">
        <ele>155.87</ele>
        <time>2021-07-19T14:56:13Z</time>
      </trkpt>
      <trkpt lat="48.96675" lon="7.98838">
        <ele>155.39</ele>
        <time>2021-07-19T14:56:14Z</time>
      </trkpt>
      <trkpt lat="48.96675" lon="7.98804">
        <ele>155.39</ele>
        <time>2021-07-19T14:56:23Z</time>
      </trkpt>
      <trkpt lat="48.96676" lon="7.98796">
        <ele>155.39</ele>
        <time>2021-07-19T14:56:24Z</time>
      </trkpt>
      <trkpt lat="48.96678" lon="7.98795">
        <ele>155.39</ele>
        <time>2021-07-19T14:56:25Z</time>
      </trkpt>
      <trkpt lat="48.96681" lon="7.98794">
        <ele>154.91</ele>
        <time>2021-07-19T14:56:26Z</time>
      </trkpt>
      <trkpt lat="48.96685" lon="7.98793">
        <ele>155.39</ele>
        <time>2021-07-19T14:56:27Z</time>
      </trkpt>
      <trkpt lat="48.96689" lon="7.98791">
        <ele>155.39</ele>
        <time>2021-07-19T14:56:28Z</time>
      </trkpt>
      <trkpt lat="48.96693" lon="7.98789">
        <ele>155.39</ele>
        <time>2021-07-19T14:56:29Z</time>
      </trkpt>
      <trkpt lat="48.96698" lon="7.98787">
        <ele>155.39</ele>
        <time>2021-07-19T14:56:30Z</time>
      </trkpt>
      <trkpt lat="48.96705" lon="7.98785">
        <ele>154.91</ele>
        <time>2021-07-19T14:56:31Z</time>
      </trkpt>
      <trkpt lat="48.9672" lon="7.98779">
        <ele>154.91</ele>
        <time>2021-07-19T14:56:32Z</time>
      </trkpt>
      <trkpt lat="48.96792" lon="7.9875">
        <ele>156.35</ele>
        <time>2021-07-19T14:56:41Z</time>
      </trkpt>
      <trkpt lat="48.96877" lon="7.98747">
        <ele>154.91</ele>
        <time>2021-07-19T14:56:49Z</time>
      </trkpt>
      <trkpt lat="48.9701" lon="7.98737">
        <ele>153.95</ele>
        <time>2021-07-19T14:57:01Z</time>
      </trkpt>
      <trkpt lat="48.97033" lon="7.98734">
        <ele>156.35</ele>
        <time>2021-07-19T14:57:04Z</time>
      </trkpt>
      <trkpt lat="48.97039" lon="7.98733">
        <ele>156.83</ele>
        <time>2021-07-19T14:57:05Z</time>
      </trkpt>
      <trkpt lat="48.97045" lon="7.98732">
        <ele>156.83</ele>
        <time>2021-07-19T14:57:06Z</time>
      </trkpt>
      <trkpt lat="48.97051" lon="7.98733">
        <ele>155.87</ele>
        <time>2021-07-19T14:57:07Z</time>
      </trkpt>
      <trkpt lat="48.97056" lon="7.98737">
        <ele>155.87</ele>
        <time>2021-07-19T14:57:08Z</time>
      </trkpt>
      <trkpt lat="48.97058" lon="7.98746">
        <ele>156.35</ele>
        <time>2021-07-19T14:57:09Z</time>
      </trkpt>
      <trkpt lat="48.9706" lon="7.98757">
        <ele>156.35</ele>
        <time>2021-07-19T14:57:10Z</time>
      </trkpt>
      <trkpt lat="48.97061" lon="7.98768">
        <ele>156.35</ele>
        <time>2021-07-19T14:57:11Z</time>
      </trkpt>
      <trkpt lat="48.97069" lon="7.98819">
        <ele>157.31</ele>
        <time>2021-07-19T14:57:16Z</time>
      </trkpt>
      <trkpt lat="48.9707" lon="7.98827">
        <ele>157.79</ele>
        <time>2021-07-19T14:57:17Z</time>
      </trkpt>
      <trkpt lat="48.97067" lon="7.98833">
        <ele>157.79</ele>
        <time>2021-07-19T14:57:18Z</time>
      </trkpt>
      <trkpt lat="48.97066" lon="7.98839">
        <ele>157.79</ele>
        <time>2021-07-19T14:57:19Z</time>
      </trkpt>
      <trkpt lat="48.97066" lon="7.98835">
        <ele>157.79</ele>
        <time>2021-07-19T14:57:20Z</time>
      </trkpt>
      <trkpt lat="48.9706" lon="7.98848">
        <ele>157.31</ele>
        <time>2021-07-19T14:57:21Z</time>
      </trkpt>
      <trkpt lat="48.97056" lon="7.9885">
        <ele>156.83</ele>
        <time>2021-07-19T14:57:22Z</time>
      </trkpt>
      <trkpt lat="48.97052" lon="7.98852">
        <ele>156.83</ele>
        <time>2021-07-19T14:57:23Z</time>
      </trkpt>
      <trkpt lat="48.96987" lon="7.98891">
        <ele>156.35</ele>
        <time>2021-07-19T14:57:38Z</time>
      </trkpt>
      <trkpt lat="48.96982" lon="7.98894">
        <ele>156.83</ele>
        <time>2021-07-19T14:57:50Z</time>
      </trkpt>
      <trkpt lat="48.96979" lon="7.98896">
        <ele>156.83</ele>
        <time>2021-07-19T14:57:51Z</time>
      </trkpt>
      <trkpt lat="48.96976" lon="7.98898">
        <ele>156.83</ele>
        <time>2021-07-19T14:57:52Z</time>
      </trkpt>
      <trkpt lat="48.9695" lon="7.98906">
        <ele>156.35</ele>
        <time>2021-07-19T14:58:02Z</time>
      </trkpt>
      <trkpt lat="48.96904" lon="7.98936">
        <ele>155.39</ele>
        <time>2021-07-19T14:58:08Z</time>
      </trkpt>
      <trkpt lat="48.96874" lon="7.98961">
        <ele>153.95</ele>
        <time>2021-07-19T14:58:12Z</time>
      </trkpt>
      <trkpt lat="48.96868" lon="7.98967">
        <ele>153.47</ele>
        <time>2021-07-19T14:58:13Z</time>
      </trkpt>
      <trkpt lat="48.96837" lon="7.99013">
        <ele>150.58</ele>
        <time>2021-07-19T14:58:20Z</time>
      </trkpt>
      <trkpt lat="48.96835" lon="7.99021">
        <ele>150.58</ele>
        <time>2021-07-19T14:58:21Z</time>
      </trkpt>
      <trkpt lat="48.96835" lon="7.99028">
        <ele>151.06</ele>
        <time>2021-07-19T14:58:22Z</time>
      </trkpt>
      <trkpt lat="48.96832" lon="7.99047">
        <ele>150.58</ele>
        <time>2021-07-19T14:58:24Z</time>
      </trkpt>
      <trkpt lat="48.96831" lon="7.9906">
        <ele>151.06</ele>
        <time>2021-07-19T14:58:25Z</time>
      </trkpt>
      <trkpt lat="48.96829" lon="7.99074">
        <ele>150.58</ele>
        <time>2021-07-19T14:58:26Z</time>
      </trkpt>
      <trkpt lat="48.96795" lon="7.99174">
        <ele>155.87</ele>
        <time>2021-07-19T14:58:34Z</time>
      </trkpt>
      <trkpt lat="48.96792" lon="7.99179">
        <ele>156.35</ele>
        <time>2021-07-19T14:58:35Z</time>
      </trkpt>
      <trkpt lat="48.96798" lon="7.99172">
        <ele>155.87</ele>
        <time>2021-07-19T14:58:36Z</time>
      </trkpt>
      <trkpt lat="48.96798" lon="7.99172">
        <ele>156.35</ele>
        <time>2021-07-19T14:58:37Z</time>
      </trkpt>
      <trkpt lat="48.96798" lon="7.99172">
        <ele>156.35</ele>
        <time>2021-07-19T14:58:38Z</time>
      </trkpt>
      <trkpt lat="48.96798" lon="7.99172">
        <ele>154.91</ele>
        <time>2021-07-19T14:58:51Z</time>
      </trkpt>
      <trkpt lat="48.96796" lon="7.99174">
        <ele>154.91</ele>
        <time>2021-07-19T14:58:52Z</time>
      </trkpt>
      <trkpt lat="48.96798" lon="7.99171">
        <ele>154.43</ele>
        <time>2021-07-19T14:58:53Z</time>
      </trkpt>
      <trkpt lat="48.96799" lon="7.99167">
        <ele>154.43</ele>
        <time>2021-07-19T14:58:54Z</time>
      </trkpt>
      <trkpt lat="48.96801" lon="7.99162">
        <ele>154.43</ele>
        <time>2021-07-19T14:58:55Z</time>
      </trkpt>
      <trkpt lat="48.96803" lon="7.99156">
        <ele>154.43</ele>
        <time>2021-07-19T14:58:56Z</time>
      </trkpt>
      <trkpt lat="48.96805" lon="7.9915">
        <ele>153.95</ele>
        <time>2021-07-19T14:58:57Z</time>
      </trkpt>
      <trkpt lat="48.96808" lon="7.99142">
        <ele>153.47</ele>
        <time>2021-07-19T14:58:58Z</time>
      </trkpt>
      <trkpt lat="48.96811" lon="7.99133">
        <ele>152.51</ele>
        <time>2021-07-19T14:58:59Z</time>
      </trkpt>
      <trkpt lat="48.96829" lon="7.99075">
        <ele>151.06</ele>
        <time>2021-07-19T14:59:04Z</time>
      </trkpt>
      <trkpt lat="48.9683" lon="7.99062">
        <ele>151.06</ele>
        <time>2021-07-19T14:59:05Z</time>
      </trkpt>
      <trkpt lat="48.96835" lon="7.99024">
        <ele>151.54</ele>
        <time>2021-07-19T14:59:08Z</time>
      </trkpt>
      <trkpt lat="48.96839" lon="7.9901">
        <ele>152.03</ele>
        <time>2021-07-19T14:59:09Z</time>
      </trkpt>
      <trkpt lat="48.96844" lon="7.99001">
        <ele>152.51</ele>
        <time>2021-07-19T14:59:10Z</time>
      </trkpt>
      <trkpt lat="48.96849" lon="7.98991">
        <ele>152.99</ele>
        <time>2021-07-19T14:59:11Z</time>
      </trkpt>
      <trkpt lat="48.96855" lon="7.98981">
        <ele>153.47</ele>
        <time>2021-07-19T14:59:12Z</time>
      </trkpt>
      <trkpt lat="48.96862" lon="7.98974">
        <ele>153.47</ele>
        <time>2021-07-19T14:59:13Z</time>
      </trkpt>
      <trkpt lat="48.96868" lon="7.98967">
        <ele>153.95</ele>
        <time>2021-07-19T14:59:14Z</time>
      </trkpt>
      <trkpt lat="48.96929" lon="7.98916">
        <ele>154.91</ele>
        <time>2021-07-19T14:59:22Z</time>
      </trkpt>
      <trkpt lat="48.96936" lon="7.98911">
        <ele>154.91</ele>
        <time>2021-07-19T14:59:23Z</time>
      </trkpt>
      <trkpt lat="48.96972" lon="7.98899">
        <ele>154.43</ele>
        <time>2021-07-19T14:59:32Z</time>
      </trkpt>
      <trkpt lat="48.96977" lon="7.98897">
        <ele>154.91</ele>
        <time>2021-07-19T14:59:46Z</time>
      </trkpt>
      <trkpt lat="48.96977" lon="7.98897">
        <ele>156.35</ele>
        <time>2021-07-19T15:00:05Z</time>
      </trkpt>
      <trkpt lat="48.96977" lon="7.98897">
        <ele>156.83</ele>
        <time>2021-07-19T15:01:02Z</time>
      </trkpt>
      <trkpt lat="48.96977" lon="7.98897">
        <ele>157.31</ele>
        <time>2021-07-19T15:01:48Z</time>
      </trkpt>
      <trkpt lat="48.96977" lon="7.98897">
        <ele>157.31</ele>
        <time>2021-07-19T15:02:20Z</time>
      </trkpt>
      <trkpt lat="48.96977" lon="7.98897">
        <ele>157.31</ele>
        <time>2021-07-19T15:03:15Z</time>
      </trkpt>
      <trkpt lat="48.96977" lon="7.98897">
        <ele>157.31</ele>
        <time>2021-07-19T15:04:13Z</time>
      </trkpt>
      <trkpt lat="48.96977" lon="7.98897">
        <ele>158.27</ele>
        <time>2021-07-19T15:04:58Z</time>
      </trkpt>
      <trkpt lat="48.96977" lon="7.98897">
        <ele>158.27</ele>
        <time>2021-07-19T15:05:21Z</time>
      </trkpt>
      <trkpt lat="48.96977" lon="7.98897">
        <ele>158.27</ele>
        <time>2021-07-19T15:05:22Z</time>
      </trkpt>
      <trkpt lat="48.96992" lon="7.98887">
        <ele>158.27</ele>
        <time>2021-07-19T15:05:23Z</time>
      </trkpt>
      <trkpt lat="48.97031" lon="7.98862">
        <ele>158.75</ele>
        <time>2021-07-19T15:05:37Z</time>
      </trkpt>
      <trkpt lat="48.97066" lon="7.98846">
        <ele>157.31</ele>
        <time>2021-07-19T15:05:51Z</time>
      </trkpt>
      <trkpt lat="48.97083" lon="7.98839">
        <ele>156.83</ele>
        <time>2021-07-19T15:05:55Z</time>
      </trkpt>
      <trkpt lat="48.97143" lon="7.98832">
        <ele>156.83</ele>
        <time>2021-07-19T15:06:07Z</time>
      </trkpt>
      <trkpt lat="48.97222" lon="7.98812">
        <ele>156.35</ele>
        <time>2021-07-19T15:06:24Z</time>
      </trkpt>
      <trkpt lat="48.97276" lon="7.98791">
        <ele>155.87</ele>
        <time>2021-07-19T15:06:38Z</time>
      </trkpt>
      <trkpt lat="48.97297" lon="7.98784">
        <ele>156.35</ele>
        <time>2021-07-19T15:06:43Z</time>
      </trkpt>
      <trkpt lat="48.97302" lon="7.98782">
        <ele>156.35</ele>
        <time>2021-07-19T15:06:44Z</time>
      </trkpt>
      <trkpt lat="48.97375" lon="7.98766">
        <ele>154.91</ele>
        <time>2021-07-19T15:07:00Z</time>
      </trkpt>
      <trkpt lat="48.97433" lon="7.9878">
        <ele>153.47</ele>
        <time>2021-07-19T15:07:16Z</time>
      </trkpt>
      <trkpt lat="48.97459" lon="7.9879">
        <ele>154.91</ele>
        <time>2021-07-19T15:07:24Z</time>
      </trkpt>
      <trkpt lat="48.97455" lon="7.98781">
        <ele>154.91</ele>
        <time>2021-07-19T15:07:25Z</time>
      </trkpt>
      <trkpt lat="48.97455" lon="7.98777">
        <ele>154.43</ele>
        <time>2021-07-19T15:07:26Z</time>
      </trkpt>
      <trkpt lat="48.97456" lon="7.98773">
        <ele>154.43</ele>
        <time>2021-07-19T15:07:27Z</time>
      </trkpt>
      <trkpt lat="48.97456" lon="7.9877">
        <ele>154.43</ele>
        <time>2021-07-19T15:07:28Z</time>
      </trkpt>
      <trkpt lat="48.97449" lon="7.98705">
        <ele>153.95</ele>
        <time>2021-07-19T15:07:40Z</time>
      </trkpt>
      <trkpt lat="48.97429" lon="7.98642">
        <ele>155.87</ele>
        <time>2021-07-19T15:07:53Z</time>
      </trkpt>
      <trkpt lat="48.97404" lon="7.98563">
        <ele>156.83</ele>
        <time>2021-07-19T15:08:11Z</time>
      </trkpt>
      <trkpt lat="48.97394" lon="7.98476">
        <ele>157.31</ele>
        <time>2021-07-19T15:08:27Z</time>
      </trkpt>
      <trkpt lat="48.97392" lon="7.98403">
        <ele>158.27</ele>
        <time>2021-07-19T15:08:40Z</time>
      </trkpt>
      <trkpt lat="48.97394" lon="7.98336">
        <ele>159.24</ele>
        <time>2021-07-19T15:08:53Z</time>
      </trkpt>
      <trkpt lat="48.97393" lon="7.98291">
        <ele>160.68</ele>
        <time>2021-07-19T15:09:01Z</time>
      </trkpt>
      <trkpt lat="48.97393" lon="7.98283">
        <ele>161.16</ele>
        <time>2021-07-19T15:09:02Z</time>
      </trkpt>
      <trkpt lat="48.9739" lon="7.98214">
        <ele>164.04</ele>
        <time>2021-07-19T15:09:12Z</time>
      </trkpt>
      <trkpt lat="48.97387" lon="7.98074">
        <ele>168.37</ele>
        <time>2021-07-19T15:09:28Z</time>
      </trkpt>
      <trkpt lat="48.9739" lon="7.97985">
        <ele>168.37</ele>
        <time>2021-07-19T15:09:42Z</time>
      </trkpt>
      <trkpt lat="48.97388" lon="7.97961">
        <ele>168.85</ele>
        <time>2021-07-19T15:09:45Z</time>
      </trkpt>
      <trkpt lat="48.97386" lon="7.97951">
        <ele>168.85</ele>
        <time>2021-07-19T15:09:46Z</time>
      </trkpt>
      <trkpt lat="48.97385" lon="7.97941">
        <ele>168.85</ele>
        <time>2021-07-19T15:09:47Z</time>
      </trkpt>
      <trkpt lat="48.97382" lon="7.97918">
        <ele>169.33</ele>
        <time>2021-07-19T15:09:49Z</time>
      </trkpt>
      <trkpt lat="48.97381" lon="7.97907">
        <ele>169.33</ele>
        <time>2021-07-19T15:09:50Z</time>
      </trkpt>
      <trkpt lat="48.9738" lon="7.97894">
        <ele>169.33</ele>
        <time>2021-07-19T15:09:51Z</time>
      </trkpt>
      <trkpt lat="48.97378" lon="7.97881">
        <ele>168.85</ele>
        <time>2021-07-19T15:09:52Z</time>
      </trkpt>
      <trkpt lat="48.97378" lon="7.97864">
        <ele>169.33</ele>
        <time>2021-07-19T15:09:53Z</time>
      </trkpt>
      <trkpt lat="48.97395" lon="7.97634">
        <ele>170.77</ele>
        <time>2021-07-19T15:10:06Z</time>
      </trkpt>
      <trkpt lat="48.97383" lon="7.9747">
        <ele>174.14</ele>
        <time>2021-07-19T15:10:15Z</time>
      </trkpt>
      <trkpt lat="48.97378" lon="7.97453">
        <ele>173.66</ele>
        <time>2021-07-19T15:10:16Z</time>
      </trkpt>
      <trkpt lat="48.9737" lon="7.97438">
        <ele>173.17</ele>
        <time>2021-07-19T15:10:17Z</time>
      </trkpt>
      <trkpt lat="48.97282" lon="7.97298">
        <ele>170.77</ele>
        <time>2021-07-19T15:10:25Z</time>
      </trkpt>
      <trkpt lat="48.97234" lon="7.97231">
        <ele>170.29</ele>
        <time>2021-07-19T15:10:29Z</time>
      </trkpt>
      <trkpt lat="48.97219" lon="7.97221">
        <ele>169.81</ele>
        <time>2021-07-19T15:10:30Z</time>
      </trkpt>
      <trkpt lat="48.97205" lon="7.9721">
        <ele>169.81</ele>
        <time>2021-07-19T15:10:31Z</time>
      </trkpt>
      <trkpt lat="48.96991" lon="7.97108">
        <ele>172.21</ele>
        <time>2021-07-19T15:10:44Z</time>
      </trkpt>
      <trkpt lat="48.96827" lon="7.97046">
        <ele>174.62</ele>
        <time>2021-07-19T15:10:53Z</time>
      </trkpt>
      <trkpt lat="48.96645" lon="7.96945">
        <ele>180.87</ele>
        <time>2021-07-19T15:11:03Z</time>
      </trkpt>
      <trkpt lat="48.96547" lon="7.96903">
        <ele>179.42</ele>
        <time>2021-07-19T15:11:09Z</time>
      </trkpt>
      <trkpt lat="48.96538" lon="7.96896">
        <ele>179.42</ele>
        <time>2021-07-19T15:11:10Z</time>
      </trkpt>
      <trkpt lat="48.96531" lon="7.96888">
        <ele>179.42</ele>
        <time>2021-07-19T15:11:11Z</time>
      </trkpt>
      <trkpt lat="48.96517" lon="7.96862">
        <ele>178.94</ele>
        <time>2021-07-19T15:11:12Z</time>
      </trkpt>
      <trkpt lat="48.9651" lon="7.96849">
        <ele>178.46</ele>
        <time>2021-07-19T15:11:13Z</time>
      </trkpt>
      <trkpt lat="48.96503" lon="7.96835">
        <ele>177.02</ele>
        <time>2021-07-19T15:11:14Z</time>
      </trkpt>
      <trkpt lat="48.96459" lon="7.96682">
        <ele>169.81</ele>
        <time>2021-07-19T15:11:22Z</time>
      </trkpt>
      <trkpt lat="48.96405" lon="7.96406">
        <ele>157.31</ele>
        <time>2021-07-19T15:11:35Z</time>
      </trkpt>
      <trkpt lat="48.96383" lon="7.9626">
        <ele>153.47</ele>
        <time>2021-07-19T15:11:41Z</time>
      </trkpt>
      <trkpt lat="48.96382" lon="7.96236">
        <ele>152.03</ele>
        <time>2021-07-19T15:11:42Z</time>
      </trkpt>
      <trkpt lat="48.96382" lon="7.96211">
        <ele>150.58</ele>
        <time>2021-07-19T15:11:43Z</time>
      </trkpt>
      <trkpt lat="48.96383" lon="7.96187">
        <ele>149.62</ele>
        <time>2021-07-19T15:11:44Z</time>
      </trkpt>
      <trkpt lat="48.96385" lon="7.96163">
        <ele>148.66</ele>
        <time>2021-07-19T15:11:45Z</time>
      </trkpt>
      <trkpt lat="48.9641" lon="7.95994">
        <ele>143.37</ele>
        <time>2021-07-19T15:11:52Z</time>
      </trkpt>
      <trkpt lat="48.96411" lon="7.95975">
        <ele>142.89</ele>
        <time>2021-07-19T15:11:53Z</time>
      </trkpt>
      <trkpt lat="48.96409" lon="7.95957">
        <ele>143.37</ele>
        <time>2021-07-19T15:11:54Z</time>
      </trkpt>
      <trkpt lat="48.96406" lon="7.95937">
        <ele>142.89</ele>
        <time>2021-07-19T15:11:55Z</time>
      </trkpt>
      <trkpt lat="48.96402" lon="7.95917">
        <ele>143.37</ele>
        <time>2021-07-19T15:11:56Z</time>
      </trkpt>
      <trkpt lat="48.96327" lon="7.95687">
        <ele>142.41</ele>
        <time>2021-07-19T15:12:06Z</time>
      </trkpt>
      <trkpt lat="48.96255" lon="7.95511">
        <ele>143.37</ele>
        <time>2021-07-19T15:12:14Z</time>
      </trkpt>
      <trkpt lat="48.9619" lon="7.95377">
        <ele>149.14</ele>
        <time>2021-07-19T15:12:22Z</time>
      </trkpt>
      <trkpt lat="48.96188" lon="7.95368">
        <ele>149.14</ele>
        <time>2021-07-19T15:12:23Z</time>
      </trkpt>
      <trkpt lat="48.96187" lon="7.95358">
        <ele>149.14</ele>
        <time>2021-07-19T15:12:24Z</time>
      </trkpt>
      <trkpt lat="48.96186" lon="7.95349">
        <ele>149.62</ele>
        <time>2021-07-19T15:12:25Z</time>
      </trkpt>
      <trkpt lat="48.96185" lon="7.95334">
        <ele>149.62</ele>
        <time>2021-07-19T15:12:26Z</time>
      </trkpt>
      <trkpt lat="48.96185" lon="7.95334">
        <ele>149.62</ele>
        <time>2021-07-19T15:12:27Z</time>
      </trkpt>
      <trkpt lat="48.96185" lon="7.95328">
        <ele>149.62</ele>
        <time>2021-07-19T15:12:28Z</time>
      </trkpt>
      <trkpt lat="48.96184" lon="7.95321">
        <ele>149.62</ele>
        <time>2021-07-19T15:12:31Z</time>
      </trkpt>
      <trkpt lat="48.96184" lon="7.9532">
        <ele>149.62</ele>
        <time>2021-07-19T15:12:32Z</time>
      </trkpt>
      <trkpt lat="48.96167" lon="7.95317">
        <ele>149.62</ele>
        <time>2021-07-19T15:12:33Z</time>
      </trkpt>
      <trkpt lat="48.96165" lon="7.9531">
        <ele>149.62</ele>
        <time>2021-07-19T15:12:34Z</time>
      </trkpt>
      <trkpt lat="48.96163" lon="7.95301">
        <ele>150.1</ele>
        <time>2021-07-19T15:12:35Z</time>
      </trkpt>
      <trkpt lat="48.9616" lon="7.95292">
        <ele>150.1</ele>
        <time>2021-07-19T15:12:36Z</time>
      </trkpt>
      <trkpt lat="48.96142" lon="7.95279">
        <ele>150.58</ele>
        <time>2021-07-19T15:12:37Z</time>
      </trkpt>
      <trkpt lat="48.96133" lon="7.9527">
        <ele>151.54</ele>
        <time>2021-07-19T15:12:39Z</time>
      </trkpt>
      <trkpt lat="48.96123" lon="7.9526">
        <ele>152.03</ele>
        <time>2021-07-19T15:12:40Z</time>
      </trkpt>
      <trkpt lat="48.96114" lon="7.95247">
        <ele>152.03</ele>
        <time>2021-07-19T15:12:41Z</time>
      </trkpt>
      <trkpt lat="48.96022" lon="7.95094">
        <ele>152.99</ele>
        <time>2021-07-19T15:12:50Z</time>
      </trkpt>
      <trkpt lat="48.95907" lon="7.94885">
        <ele>155.39</ele>
        <time>2021-07-19T15:12:59Z</time>
      </trkpt>
      <trkpt lat="48.9576" lon="7.94689">
        <ele>160.68</ele>
        <time>2021-07-19T15:13:08Z</time>
      </trkpt>
      <trkpt lat="48.95615" lon="7.94471">
        <ele>170.29</ele>
        <time>2021-07-19T15:13:18Z</time>
      </trkpt>
      <trkpt lat="48.95529" lon="7.94371">
        <ele>172.69</ele>
        <time>2021-07-19T15:13:25Z</time>
      </trkpt>
      <trkpt lat="48.95502" lon="7.94342">
        <ele>171.25</ele>
        <time>2021-07-19T15:13:29Z</time>
      </trkpt>
      <trkpt lat="48.95498" lon="7.94338">
        <ele>170.77</ele>
        <time>2021-07-19T15:13:30Z</time>
      </trkpt>
      <trkpt lat="48.95493" lon="7.94335">
        <ele>170.77</ele>
        <time>2021-07-19T15:13:31Z</time>
      </trkpt>
      <trkpt lat="48.95489" lon="7.94334">
        <ele>170.77</ele>
        <time>2021-07-19T15:13:32Z</time>
      </trkpt>
      <trkpt lat="48.95484" lon="7.94333">
        <ele>169.81</ele>
        <time>2021-07-19T15:13:33Z</time>
      </trkpt>
      <trkpt lat="48.9548" lon="7.94333">
        <ele>169.33</ele>
        <time>2021-07-19T15:13:34Z</time>
      </trkpt>
      <trkpt lat="48.95476" lon="7.94332">
        <ele>168.85</ele>
        <time>2021-07-19T15:13:35Z</time>
      </trkpt>
      <trkpt lat="48.95447" lon="7.94333">
        <ele>164.04</ele>
        <time>2021-07-19T15:13:44Z</time>
      </trkpt>
      <trkpt lat="48.95393" lon="7.94336">
        <ele>155.39</ele>
        <time>2021-07-19T15:13:56Z</time>
      </trkpt>
      <trkpt lat="48.95384" lon="7.94337">
        <ele>153.95</ele>
        <time>2021-07-19T15:13:58Z</time>
      </trkpt>
      <trkpt lat="48.95381" lon="7.94337">
        <ele>152.99</ele>
        <time>2021-07-19T15:13:59Z</time>
      </trkpt>
      <trkpt lat="48.95377" lon="7.94335">
        <ele>152.51</ele>
        <time>2021-07-19T15:14:00Z</time>
      </trkpt>
      <trkpt lat="48.95374" lon="7.94334">
        <ele>152.51</ele>
        <time>2021-07-19T15:14:01Z</time>
      </trkpt>
      <trkpt lat="48.95371" lon="7.94332">
        <ele>152.51</ele>
        <time>2021-07-19T15:14:02Z</time>
      </trkpt>
      <trkpt lat="48.95368" lon="7.94331">
        <ele>152.51</ele>
        <time>2021-07-19T15:14:03Z</time>
      </trkpt>
      <trkpt lat="48.95366" lon="7.94329">
        <ele>153.47</ele>
        <time>2021-07-19T15:14:04Z</time>
      </trkpt>
      <trkpt lat="48.95364" lon="7.94326">
        <ele>153.47</ele>
        <time>2021-07-19T15:14:05Z</time>
      </trkpt>
      <trkpt lat="48.95364" lon="7.94321">
        <ele>153.47</ele>
        <time>2021-07-19T15:14:06Z</time>
      </trkpt>
      <trkpt lat="48.95364" lon="7.94314">
        <ele>152.99</ele>
        <time>2021-07-19T15:14:07Z</time>
      </trkpt>
      <trkpt lat="48.95362" lon="7.94218">
        <ele>151.06</ele>
        <time>2021-07-19T15:14:18Z</time>
      </trkpt>
      <trkpt lat="48.9536" lon="7.9421">
        <ele>150.58</ele>
        <time>2021-07-19T15:14:19Z</time>
      </trkpt>
      <trkpt lat="48.95341" lon="7.94135">
        <ele>151.06</ele>
        <time>2021-07-19T15:14:32Z</time>
      </trkpt>
      <trkpt lat="48.95315" lon="7.94084">
        <ele>150.58</ele>
        <time>2021-07-19T15:14:45Z</time>
      </trkpt>
      <trkpt lat="48.95307" lon="7.94059">
        <ele>151.54</ele>
        <time>2021-07-19T15:14:53Z</time>
      </trkpt>
      <trkpt lat="48.95308" lon="7.94054">
        <ele>151.54</ele>
        <time>2021-07-19T15:14:54Z</time>
      </trkpt>
      <trkpt lat="48.9531" lon="7.94048">
        <ele>151.06</ele>
        <time>2021-07-19T15:14:55Z</time>
      </trkpt>
      <trkpt lat="48.95336" lon="7.9396">
        <ele>150.58</ele>
        <time>2021-07-19T15:15:06Z</time>
      </trkpt>
      <trkpt lat="48.95359" lon="7.93903">
        <ele>150.58</ele>
        <time>2021-07-19T15:15:16Z</time>
      </trkpt>
      <trkpt lat="48.95398" lon="7.93818">
        <ele>150.58</ele>
        <time>2021-07-19T15:15:31Z</time>
      </trkpt>
      <trkpt lat="48.95453" lon="7.93759">
        <ele>149.62</ele>
        <time>2021-07-19T15:15:43Z</time>
      </trkpt>
      <trkpt lat="48.95487" lon="7.93729">
        <ele>149.62</ele>
        <time>2021-07-19T15:15:50Z</time>
      </trkpt>
      <trkpt lat="48.95517" lon="7.93713">
        <ele>148.18</ele>
        <time>2021-07-19T15:16:00Z</time>
      </trkpt>
      <trkpt lat="48.95542" lon="7.93697">
        <ele>149.14</ele>
        <time>2021-07-19T15:16:07Z</time>
      </trkpt>
      <trkpt lat="48.95546" lon="7.93694">
        <ele>149.14</ele>
        <time>2021-07-19T15:16:08Z</time>
      </trkpt>
      <trkpt lat="48.95551" lon="7.93691">
        <ele>149.14</ele>
        <time>2021-07-19T15:16:09Z</time>
      </trkpt>
      <trkpt lat="48.95576" lon="7.93669">
        <ele>146.74</ele>
        <time>2021-07-19T15:16:14Z</time>
      </trkpt>
      <trkpt lat="48.9558" lon="7.93664">
        <ele>146.74</ele>
        <time>2021-07-19T15:16:15Z</time>
      </trkpt>
      <trkpt lat="48.9559" lon="7.93654">
        <ele>146.74</ele>
        <time>2021-07-19T15:16:17Z</time>
      </trkpt>
      <trkpt lat="48.95649" lon="7.93561">
        <ele>152.99</ele>
        <time>2021-07-19T15:16:31Z</time>
      </trkpt>
      <trkpt lat="48.95714" lon="7.93431">
        <ele>154.43</ele>
        <time>2021-07-19T15:16:48Z</time>
      </trkpt>
      <trkpt lat="48.95718" lon="7.934">
        <ele>153.95</ele>
        <time>2021-07-19T15:16:54Z</time>
      </trkpt>
      <trkpt lat="48.95716" lon="7.93386">
        <ele>154.43</ele>
        <time>2021-07-19T15:16:55Z</time>
      </trkpt>
      <trkpt lat="48.95715" lon="7.93379">
        <ele>154.43</ele>
        <time>2021-07-19T15:16:56Z</time>
      </trkpt>
      <trkpt lat="48.95689" lon="7.93286">
        <ele>157.79</ele>
        <time>2021-07-19T15:17:05Z</time>
      </trkpt>
      <trkpt lat="48.95682" lon="7.93235">
        <ele>158.75</ele>
        <time>2021-07-19T15:17:07Z</time>
      </trkpt>
      <trkpt lat="48.9568" lon="7.93216">
        <ele>160.2</ele>
        <time>2021-07-19T15:17:08Z</time>
      </trkpt>
      <trkpt lat="48.9568" lon="7.93216">
        <ele>161.16</ele>
        <time>2021-07-19T15:17:09Z</time>
      </trkpt>
      <trkpt lat="48.95682" lon="7.93197">
        <ele>162.6</ele>
        <time>2021-07-19T15:17:10Z</time>
      </trkpt>
      <trkpt lat="48.95684" lon="7.93177">
        <ele>163.08</ele>
        <time>2021-07-19T15:17:11Z</time>
      </trkpt>
      <trkpt lat="48.95709" lon="7.92967">
        <ele>172.69</ele>
        <time>2021-07-19T15:17:21Z</time>
      </trkpt>
      <trkpt lat="48.95746" lon="7.92649">
        <ele>184.71</ele>
        <time>2021-07-19T15:17:34Z</time>
      </trkpt>
      <trkpt lat="48.95754" lon="7.92457">
        <ele>186.63</ele>
        <time>2021-07-19T15:17:42Z</time>
      </trkpt>
      <trkpt lat="48.95754" lon="7.92439">
        <ele>186.15</ele>
        <time>2021-07-19T15:17:43Z</time>
      </trkpt>
      <trkpt lat="48.95756" lon="7.92424">
        <ele>186.15</ele>
        <time>2021-07-19T15:17:44Z</time>
      </trkpt>
      <trkpt lat="48.9576" lon="7.92408">
        <ele>186.63</ele>
        <time>2021-07-19T15:17:45Z</time>
      </trkpt>
      <trkpt lat="48.95764" lon="7.92393">
        <ele>186.15</ele>
        <time>2021-07-19T15:17:46Z</time>
      </trkpt>
      <trkpt lat="48.95769" lon="7.92378">
        <ele>186.63</ele>
        <time>2021-07-19T15:17:47Z</time>
      </trkpt>
      <trkpt lat="48.95776" lon="7.92366">
        <ele>187.11</ele>
        <time>2021-07-19T15:17:48Z</time>
      </trkpt>
      <trkpt lat="48.95848" lon="7.92253">
        <ele>188.56</ele>
        <time>2021-07-19T15:17:59Z</time>
      </trkpt>
      <trkpt lat="48.95866" lon="7.92248">
        <ele>189.04</ele>
        <time>2021-07-19T15:18:03Z</time>
      </trkpt>
      <trkpt lat="48.95868" lon="7.92245">
        <ele>189.04</ele>
        <time>2021-07-19T15:18:04Z</time>
      </trkpt>
      <trkpt lat="48.95871" lon="7.92224">
        <ele>189.04</ele>
        <time>2021-07-19T15:18:05Z</time>
      </trkpt>
      <trkpt lat="48.95871" lon="7.92224">
        <ele>189.04</ele>
        <time>2021-07-19T15:18:06Z</time>
      </trkpt>
      <trkpt lat="48.95876" lon="7.92218">
        <ele>189.04</ele>
        <time>2021-07-19T15:18:07Z</time>
      </trkpt>
      <trkpt lat="48.95886" lon="7.92203">
        <ele>189.04</ele>
        <time>2021-07-19T15:18:08Z</time>
      </trkpt>
      <trkpt lat="48.95886" lon="7.92203">
        <ele>189.04</ele>
        <time>2021-07-19T15:18:09Z</time>
      </trkpt>
      <trkpt lat="48.95892" lon="7.92194">
        <ele>189.04</ele>
        <time>2021-07-19T15:18:10Z</time>
      </trkpt>
      <trkpt lat="48.9595" lon="7.92111">
        <ele>191.44</ele>
        <time>2021-07-19T15:18:22Z</time>
      </trkpt>
      <trkpt lat="48.9596" lon="7.92097">
        <ele>191.44</ele>
        <time>2021-07-19T15:18:25Z</time>
      </trkpt>
      <trkpt lat="48.95964" lon="7.92092">
        <ele>191.44</ele>
        <time>2021-07-19T15:18:26Z</time>
      </trkpt>
      <trkpt lat="48.95973" lon="7.92087">
        <ele>190</ele>
        <time>2021-07-19T15:18:28Z</time>
      </trkpt>
      <trkpt lat="48.96075" lon="7.92038">
        <ele>188.08</ele>
        <time>2021-07-19T15:18:39Z</time>
      </trkpt>
      <trkpt lat="48.96174" lon="7.91973">
        <ele>186.15</ele>
        <time>2021-07-19T15:18:50Z</time>
      </trkpt>
      <trkpt lat="48.96253" lon="7.91946">
        <ele>184.71</ele>
        <time>2021-07-19T15:18:57Z</time>
      </trkpt>
      <trkpt lat="48.96264" lon="7.91943">
        <ele>184.71</ele>
        <time>2021-07-19T15:18:58Z</time>
      </trkpt>
      <trkpt lat="48.96274" lon="7.9194">
        <ele>184.71</ele>
        <time>2021-07-19T15:18:59Z</time>
      </trkpt>
      <trkpt lat="48.96284" lon="7.91933">
        <ele>184.23</ele>
        <time>2021-07-19T15:19:00Z</time>
      </trkpt>
      <trkpt lat="48.96294" lon="7.91924">
        <ele>184.71</ele>
        <time>2021-07-19T15:19:01Z</time>
      </trkpt>
      <trkpt lat="48.96303" lon="7.91915">
        <ele>184.23</ele>
        <time>2021-07-19T15:19:02Z</time>
      </trkpt>
      <trkpt lat="48.96313" lon="7.91906">
        <ele>183.75</ele>
        <time>2021-07-19T15:19:03Z</time>
      </trkpt>
      <trkpt lat="48.96321" lon="7.91895">
        <ele>183.75</ele>
        <time>2021-07-19T15:19:04Z</time>
      </trkpt>
      <trkpt lat="48.964" lon="7.91756">
        <ele>191.44</ele>
        <time>2021-07-19T15:19:15Z</time>
      </trkpt>
      <trkpt lat="48.96469" lon="7.91608">
        <ele>195.28</ele>
        <time>2021-07-19T15:19:25Z</time>
      </trkpt>
      <trkpt lat="48.96471" lon="7.9158">
        <ele>196.25</ele>
        <time>2021-07-19T15:19:27Z</time>
      </trkpt>
      <trkpt lat="48.96471" lon="7.91567">
        <ele>196.25</ele>
        <time>2021-07-19T15:19:28Z</time>
      </trkpt>
      <trkpt lat="48.9647" lon="7.91549">
        <ele>195.77</ele>
        <time>2021-07-19T15:19:29Z</time>
      </trkpt>
      <trkpt lat="48.96469" lon="7.91531">
        <ele>195.77</ele>
        <time>2021-07-19T15:19:30Z</time>
      </trkpt>
      <trkpt lat="48.96467" lon="7.91515">
        <ele>195.77</ele>
        <time>2021-07-19T15:19:31Z</time>
      </trkpt>
      <trkpt lat="48.96457" lon="7.91444">
        <ele>195.77</ele>
        <time>2021-07-19T15:19:35Z</time>
      </trkpt>
      <trkpt lat="48.96457" lon="7.91426">
        <ele>195.77</ele>
        <time>2021-07-19T15:19:36Z</time>
      </trkpt>
      <trkpt lat="48.96458" lon="7.91411">
        <ele>195.77</ele>
        <time>2021-07-19T15:19:37Z</time>
      </trkpt>
      <trkpt lat="48.96464" lon="7.91394">
        <ele>195.28</ele>
        <time>2021-07-19T15:19:38Z</time>
      </trkpt>
      <trkpt lat="48.9647" lon="7.91382">
        <ele>194.8</ele>
        <time>2021-07-19T15:19:39Z</time>
      </trkpt>
      <trkpt lat="48.96477" lon="7.9137">
        <ele>194.32</ele>
        <time>2021-07-19T15:19:40Z</time>
      </trkpt>
      <trkpt lat="48.96483" lon="7.91363">
        <ele>193.36</ele>
        <time>2021-07-19T15:19:41Z</time>
      </trkpt>
      <trkpt lat="48.96493" lon="7.91355">
        <ele>192.88</ele>
        <time>2021-07-19T15:19:42Z</time>
      </trkpt>
      <trkpt lat="48.96503" lon="7.91346">
        <ele>192.88</ele>
        <time>2021-07-19T15:19:43Z</time>
      </trkpt>
      <trkpt lat="48.96514" lon="7.91338">
        <ele>191.92</ele>
        <time>2021-07-19T15:19:44Z</time>
      </trkpt>
      <trkpt lat="48.96558" lon="7.91301">
        <ele>188.08</ele>
        <time>2021-07-19T15:19:51Z</time>
      </trkpt>
      <trkpt lat="48.96574" lon="7.91265">
        <ele>186.63</ele>
        <time>2021-07-19T15:20:01Z</time>
      </trkpt>
      <trkpt lat="48.96582" lon="7.9124">
        <ele>186.63</ele>
        <time>2021-07-19T15:20:11Z</time>
      </trkpt>
      <trkpt lat="48.96582" lon="7.9124">
        <ele>187.59</ele>
        <time>2021-07-19T15:20:18Z</time>
      </trkpt>
      <trkpt lat="48.96598" lon="7.91191">
        <ele>189.04</ele>
        <time>2021-07-19T15:20:30Z</time>
      </trkpt>
      <trkpt lat="48.96615" lon="7.91146">
        <ele>192.88</ele>
        <time>2021-07-19T15:20:44Z</time>
      </trkpt>
      <trkpt lat="48.96621" lon="7.91135">
        <ele>194.32</ele>
        <time>2021-07-19T15:20:49Z</time>
      </trkpt>
      <trkpt lat="48.96623" lon="7.91132">
        <ele>194.32</ele>
        <time>2021-07-19T15:20:50Z</time>
      </trkpt>
      <trkpt lat="48.96624" lon="7.9113">
        <ele>194.8</ele>
        <time>2021-07-19T15:20:51Z</time>
      </trkpt>
      <trkpt lat="48.96625" lon="7.91129">
        <ele>196.25</ele>
        <time>2021-07-19T15:21:07Z</time>
      </trkpt>
      <trkpt lat="48.96625" lon="7.91129">
        <ele>196.25</ele>
        <time>2021-07-19T15:21:28Z</time>
      </trkpt>
      <trkpt lat="48.96625" lon="7.91129">
        <ele>196.25</ele>
        <time>2021-07-19T15:21:50Z</time>
      </trkpt>
      <trkpt lat="48.96625" lon="7.91129">
        <ele>198.17</ele>
        <time>2021-07-19T15:23:00Z</time>
      </trkpt>
      <trkpt lat="48.96625" lon="7.91129">
        <ele>198.17</ele>
        <time>2021-07-19T15:24:05Z</time>
      </trkpt>
      <trkpt lat="48.96625" lon="7.91129">
        <ele>198.65</ele>
        <time>2021-07-19T15:25:52Z</time>
      </trkpt>
      <trkpt lat="48.96625" lon="7.91129">
        <ele>198.65</ele>
        <time>2021-07-19T15:29:11Z</time>
      </trkpt>
      <trkpt lat="48.96625" lon="7.91129">
        <ele>199.13</ele>
        <time>2021-07-19T15:30:50Z</time>
      </trkpt>
      <trkpt lat="48.96625" lon="7.91129">
        <ele>199.13</ele>
        <time>2021-07-19T15:33:27Z</time>
      </trkpt>
      <trkpt lat="48.96625" lon="7.91129">
        <ele>198.65</ele>
        <time>2021-07-19T15:36:11Z</time>
      </trkpt>
      <trkpt lat="48.96625" lon="7.91129">
        <ele>198.65</ele>
        <time>2021-07-19T15:38:24Z</time>
      </trkpt>
      <trkpt lat="48.96625" lon="7.91129">
        <ele>198.65</ele>
        <time>2021-07-19T15:40:53Z</time>
      </trkpt>
      <trkpt lat="48.96625" lon="7.91129">
        <ele>198.65</ele>
        <time>2021-07-19T15:43:16Z</time>
      </trkpt>
      <trkpt lat="48.96625" lon="7.91129">
        <ele>198.17</ele>
        <time>2021-07-19T15:44:26Z</time>
      </trkpt>
      <trkpt lat="48.96625" lon="7.91129">
        <ele>197.69</ele>
        <time>2021-07-19T15:49:01Z</time>
      </trkpt>
      <trkpt lat="48.96625" lon="7.91129">
        <ele>197.69</ele>
        <time>2021-07-19T15:51:40Z</time>
      </trkpt>
      <trkpt lat="48.96625" lon="7.91129">
        <ele>198.17</ele>
        <time>2021-07-19T15:53:28Z</time>
      </trkpt>
      <trkpt lat="48.96625" lon="7.91129">
        <ele>198.17</ele>
        <time>2021-07-19T15:54:41Z</time>
      </trkpt>
      <trkpt lat="48.96625" lon="7.91129">
        <ele>198.65</ele>
        <time>2021-07-19T15:55:45Z</time>
      </trkpt>
      <trkpt lat="48.96625" lon="7.91129">
        <ele>198.65</ele>
        <time>2021-07-19T15:57:03Z</time>
      </trkpt>
      <trkpt lat="48.96625" lon="7.91129">
        <ele>198.65</ele>
        <time>2021-07-19T15:59:27Z</time>
      </trkpt>
      <trkpt lat="48.96625" lon="7.91129">
        <ele>199.13</ele>
        <time>2021-07-19T16:00:29Z</time>
      </trkpt>
      <trkpt lat="48.96625" lon="7.91129">
        <ele>199.13</ele>
        <time>2021-07-19T16:01:20Z</time>
      </trkpt>
      <trkpt lat="48.96625" lon="7.91129">
        <ele>200.09</ele>
        <time>2021-07-19T16:02:26Z</time>
      </trkpt>
      <trkpt lat="48.96625" lon="7.91129">
        <ele>200.09</ele>
        <time>2021-07-19T16:04:25Z</time>
      </trkpt>
      <trkpt lat="48.96647" lon="7.91041">
        <ele>209.22</ele>
        <time>2021-07-19T19:18:02Z</time>
      </trkpt>
      <trkpt lat="48.96648" lon="7.91043">
        <ele>207.3</ele>
        <time>2021-07-19T19:18:03Z</time>
      </trkpt>
      <trkpt lat="48.96648" lon="7.91043">
        <ele>211.63</ele>
        <time>2021-07-19T19:18:04Z</time>
      </trkpt>
      <trkpt lat="48.96647" lon="7.91041">
        <ele>213.07</ele>
        <time>2021-07-19T19:18:05Z</time>
      </trkpt>
      <trkpt lat="48.96647" lon="7.91041">
        <ele>220.76</ele>
        <time>2021-07-19T19:18:06Z</time>
      </trkpt>
      <trkpt lat="48.96641" lon="7.91025">
        <ele>219.32</ele>
        <time>2021-07-19T19:18:07Z</time>
      </trkpt>
      <trkpt lat="48.96641" lon="7.91025">
        <ele>211.63</ele>
        <time>2021-07-19T19:18:08Z</time>
      </trkpt>
      <trkpt lat="48.96637" lon="7.91014">
        <ele>205.38</ele>
        <time>2021-07-19T19:18:10Z</time>
      </trkpt>
      <trkpt lat="48.96592" lon="7.90939">
        <ele>184.71</ele>
        <time>2021-07-19T19:18:22Z</time>
      </trkpt>
      <trkpt lat="48.96533" lon="7.90831">
        <ele>178.94</ele>
        <time>2021-07-19T19:18:34Z</time>
      </trkpt>
      <trkpt lat="48.96463" lon="7.90715">
        <ele>184.71</ele>
        <time>2021-07-19T19:18:47Z</time>
      </trkpt>
      <trkpt lat="48.96399" lon="7.90612">
        <ele>181.83</ele>
        <time>2021-07-19T19:18:57Z</time>
      </trkpt>
      <trkpt lat="48.9632" lon="7.90472">
        <ele>171.73</ele>
        <time>2021-07-19T19:19:10Z</time>
      </trkpt>
      <trkpt lat="48.96308" lon="7.90453">
        <ele>171.25</ele>
        <time>2021-07-19T19:19:12Z</time>
      </trkpt>
      <trkpt lat="48.96302" lon="7.90443">
        <ele>170.77</ele>
        <time>2021-07-19T19:19:13Z</time>
      </trkpt>
      <trkpt lat="48.96295" lon="7.90437">
        <ele>170.29</ele>
        <time>2021-07-19T19:19:14Z</time>
      </trkpt>
      <trkpt lat="48.96288" lon="7.9043">
        <ele>169.81</ele>
        <time>2021-07-19T19:19:15Z</time>
      </trkpt>
      <trkpt lat="48.96281" lon="7.90423">
        <ele>169.81</ele>
        <time>2021-07-19T19:19:16Z</time>
      </trkpt>
      <trkpt lat="48.96274" lon="7.90417">
        <ele>169.33</ele>
        <time>2021-07-19T19:19:17Z</time>
      </trkpt>
      <trkpt lat="48.96268" lon="7.90412">
        <ele>168.85</ele>
        <time>2021-07-19T19:19:18Z</time>
      </trkpt>
      <trkpt lat="48.96262" lon="7.90408">
        <ele>168.37</ele>
        <time>2021-07-19T19:19:19Z</time>
      </trkpt>
      <trkpt lat="48.96256" lon="7.90405">
        <ele>168.37</ele>
        <time>2021-07-19T19:19:20Z</time>
      </trkpt>
      <trkpt lat="48.96245" lon="7.90399">
        <ele>167.89</ele>
        <time>2021-07-19T19:19:21Z</time>
      </trkpt>
      <trkpt lat="48.96245" lon="7.90399">
        <ele>167.41</ele>
        <time>2021-07-19T19:19:22Z</time>
      </trkpt>
      <trkpt lat="48.9624" lon="7.90399">
        <ele>167.41</ele>
        <time>2021-07-19T19:19:23Z</time>
      </trkpt>
      <trkpt lat="48.96225" lon="7.90401">
        <ele>167.41</ele>
        <time>2021-07-19T19:19:24Z</time>
      </trkpt>
      <trkpt lat="48.96225" lon="7.90401">
        <ele>167.89</ele>
        <time>2021-07-19T19:19:25Z</time>
      </trkpt>
      <trkpt lat="48.9622" lon="7.90404">
        <ele>167.89</ele>
        <time>2021-07-19T19:19:26Z</time>
      </trkpt>
      <trkpt lat="48.96139" lon="7.90454">
        <ele>181.83</ele>
        <time>2021-07-19T19:19:37Z</time>
      </trkpt>
      <trkpt lat="48.96027" lon="7.9052">
        <ele>178.94</ele>
        <time>2021-07-19T19:19:50Z</time>
      </trkpt>
      <trkpt lat="48.9602" lon="7.90522">
        <ele>177.98</ele>
        <time>2021-07-19T19:19:51Z</time>
      </trkpt>
      <trkpt lat="48.9602" lon="7.90522">
        <ele>177.02</ele>
        <time>2021-07-19T19:19:52Z</time>
      </trkpt>
      <trkpt lat="48.96012" lon="7.9052">
        <ele>176.06</ele>
        <time>2021-07-19T19:19:53Z</time>
      </trkpt>
      <trkpt lat="48.96004" lon="7.90516">
        <ele>175.58</ele>
        <time>2021-07-19T19:19:54Z</time>
      </trkpt>
      <trkpt lat="48.95997" lon="7.90507">
        <ele>174.62</ele>
        <time>2021-07-19T19:19:55Z</time>
      </trkpt>
      <trkpt lat="48.9599" lon="7.90499">
        <ele>175.1</ele>
        <time>2021-07-19T19:19:56Z</time>
      </trkpt>
      <trkpt lat="48.95983" lon="7.90489">
        <ele>175.58</ele>
        <time>2021-07-19T19:19:57Z</time>
      </trkpt>
      <trkpt lat="48.95912" lon="7.90337">
        <ele>170.29</ele>
        <time>2021-07-19T19:20:09Z</time>
      </trkpt>
      <trkpt lat="48.95866" lon="7.90252">
        <ele>162.6</ele>
        <time>2021-07-19T19:20:16Z</time>
      </trkpt>
      <trkpt lat="48.95859" lon="7.90244">
        <ele>161.64</ele>
        <time>2021-07-19T19:20:17Z</time>
      </trkpt>
      <trkpt lat="48.9585" lon="7.90235">
        <ele>160.2</ele>
        <time>2021-07-19T19:20:18Z</time>
      </trkpt>
      <trkpt lat="48.95841" lon="7.90226">
        <ele>161.64</ele>
        <time>2021-07-19T19:20:19Z</time>
      </trkpt>
      <trkpt lat="48.95832" lon="7.90216">
        <ele>160.68</ele>
        <time>2021-07-19T19:20:20Z</time>
      </trkpt>
      <trkpt lat="48.95797" lon="7.90189">
        <ele>155.39</ele>
        <time>2021-07-19T19:20:24Z</time>
      </trkpt>
      <trkpt lat="48.95789" lon="7.90184">
        <ele>153.95</ele>
        <time>2021-07-19T19:20:25Z</time>
      </trkpt>
      <trkpt lat="48.95781" lon="7.90181">
        <ele>152.03</ele>
        <time>2021-07-19T19:20:26Z</time>
      </trkpt>
      <trkpt lat="48.95774" lon="7.90181">
        <ele>151.06</ele>
        <time>2021-07-19T19:20:27Z</time>
      </trkpt>
      <trkpt lat="48.95766" lon="7.90183">
        <ele>149.62</ele>
        <time>2021-07-19T19:20:28Z</time>
      </trkpt>
      <trkpt lat="48.95759" lon="7.90188">
        <ele>148.18</ele>
        <time>2021-07-19T19:20:29Z</time>
      </trkpt>
      <trkpt lat="48.95752" lon="7.90193">
        <ele>148.18</ele>
        <time>2021-07-19T19:20:30Z</time>
      </trkpt>
      <trkpt lat="48.95745" lon="7.902">
        <ele>146.74</ele>
        <time>2021-07-19T19:20:31Z</time>
      </trkpt>
      <trkpt lat="48.95739" lon="7.90207">
        <ele>145.3</ele>
        <time>2021-07-19T19:20:32Z</time>
      </trkpt>
      <trkpt lat="48.95725" lon="7.90223">
        <ele>143.37</ele>
        <time>2021-07-19T19:20:34Z</time>
      </trkpt>
      <trkpt lat="48.95718" lon="7.90231">
        <ele>145.78</ele>
        <time>2021-07-19T19:20:35Z</time>
      </trkpt>
      <trkpt lat="48.95711" lon="7.9024">
        <ele>147.7</ele>
        <time>2021-07-19T19:20:36Z</time>
      </trkpt>
      <trkpt lat="48.95702" lon="7.90244">
        <ele>148.66</ele>
        <time>2021-07-19T19:20:37Z</time>
      </trkpt>
      <trkpt lat="48.95694" lon="7.90247">
        <ele>149.14</ele>
        <time>2021-07-19T19:20:38Z</time>
      </trkpt>
      <trkpt lat="48.95686" lon="7.90245">
        <ele>150.1</ele>
        <time>2021-07-19T19:20:39Z</time>
      </trkpt>
      <trkpt lat="48.95677" lon="7.90241">
        <ele>153.95</ele>
        <time>2021-07-19T19:20:40Z</time>
      </trkpt>
      <trkpt lat="48.95635" lon="7.90221">
        <ele>157.31</ele>
        <time>2021-07-19T19:20:45Z</time>
      </trkpt>
      <trkpt lat="48.95631" lon="7.90217">
        <ele>157.31</ele>
        <time>2021-07-19T19:20:46Z</time>
      </trkpt>
      <trkpt lat="48.95627" lon="7.90212">
        <ele>157.31</ele>
        <time>2021-07-19T19:20:47Z</time>
      </trkpt>
      <trkpt lat="48.95624" lon="7.90207">
        <ele>156.83</ele>
        <time>2021-07-19T19:20:48Z</time>
      </trkpt>
      <trkpt lat="48.95622" lon="7.90204">
        <ele>156.35</ele>
        <time>2021-07-19T19:20:49Z</time>
      </trkpt>
      <trkpt lat="48.9562" lon="7.90202">
        <ele>156.35</ele>
        <time>2021-07-19T19:20:50Z</time>
      </trkpt>
      <trkpt lat="48.9562" lon="7.902">
        <ele>156.35</ele>
        <time>2021-07-19T19:21:08Z</time>
      </trkpt>
      <trkpt lat="48.9562" lon="7.902">
        <ele>156.35</ele>
        <time>2021-07-19T19:21:22Z</time>
      </trkpt>
      <trkpt lat="48.95615" lon="7.90193">
        <ele>155.87</ele>
        <time>2021-07-19T19:21:23Z</time>
      </trkpt>
      <trkpt lat="48.95618" lon="7.9019">
        <ele>155.39</ele>
        <time>2021-07-19T19:21:24Z</time>
      </trkpt>
      <trkpt lat="48.9562" lon="7.90185">
        <ele>155.39</ele>
        <time>2021-07-19T19:21:25Z</time>
      </trkpt>
      <trkpt lat="48.95624" lon="7.9018">
        <ele>154.91</ele>
        <time>2021-07-19T19:21:26Z</time>
      </trkpt>
      <trkpt lat="48.95627" lon="7.90173">
        <ele>154.43</ele>
        <time>2021-07-19T19:21:27Z</time>
      </trkpt>
      <trkpt lat="48.95651" lon="7.90128">
        <ele>153.47</ele>
        <time>2021-07-19T19:21:32Z</time>
      </trkpt>
      <trkpt lat="48.9566" lon="7.90101">
        <ele>152.99</ele>
        <time>2021-07-19T19:21:33Z</time>
      </trkpt>
      <trkpt lat="48.9566" lon="7.90101">
        <ele>152.51</ele>
        <time>2021-07-19T19:21:34Z</time>
      </trkpt>
      <trkpt lat="48.95685" lon="7.89946">
        <ele>150.58</ele>
        <time>2021-07-19T19:21:43Z</time>
      </trkpt>
      <trkpt lat="48.95687" lon="7.89929">
        <ele>150.58</ele>
        <time>2021-07-19T19:21:44Z</time>
      </trkpt>
      <trkpt lat="48.95693" lon="7.89914">
        <ele>150.58</ele>
        <time>2021-07-19T19:21:45Z</time>
      </trkpt>
      <trkpt lat="48.957" lon="7.89899">
        <ele>150.58</ele>
        <time>2021-07-19T19:21:46Z</time>
      </trkpt>
      <trkpt lat="48.95708" lon="7.89885">
        <ele>150.1</ele>
        <time>2021-07-19T19:21:47Z</time>
      </trkpt>
      <trkpt lat="48.95717" lon="7.89873">
        <ele>149.62</ele>
        <time>2021-07-19T19:21:48Z</time>
      </trkpt>
      <trkpt lat="48.95804" lon="7.89742">
        <ele>145.3</ele>
        <time>2021-07-19T19:21:58Z</time>
      </trkpt>
      <trkpt lat="48.95871" lon="7.8964">
        <ele>143.37</ele>
        <time>2021-07-19T19:22:06Z</time>
      </trkpt>
      <trkpt lat="48.95916" lon="7.89517">
        <ele>144.34</ele>
        <time>2021-07-19T19:22:15Z</time>
      </trkpt>
      <trkpt lat="48.9594" lon="7.89389">
        <ele>145.3</ele>
        <time>2021-07-19T19:22:23Z</time>
      </trkpt>
      <trkpt lat="48.95941" lon="7.89373">
        <ele>145.3</ele>
        <time>2021-07-19T19:22:24Z</time>
      </trkpt>
      <trkpt lat="48.95945" lon="7.89294">
        <ele>146.74</ele>
        <time>2021-07-19T19:22:29Z</time>
      </trkpt>
      <trkpt lat="48.95947" lon="7.8928">
        <ele>146.74</ele>
        <time>2021-07-19T19:22:30Z</time>
      </trkpt>
      <trkpt lat="48.95951" lon="7.89266">
        <ele>147.22</ele>
        <time>2021-07-19T19:22:31Z</time>
      </trkpt>
      <trkpt lat="48.95961" lon="7.89239">
        <ele>147.22</ele>
        <time>2021-07-19T19:22:32Z</time>
      </trkpt>
      <trkpt lat="48.95961" lon="7.89239">
        <ele>147.7</ele>
        <time>2021-07-19T19:22:33Z</time>
      </trkpt>
      <trkpt lat="48.95968" lon="7.89228">
        <ele>147.7</ele>
        <time>2021-07-19T19:22:34Z</time>
      </trkpt>
      <trkpt lat="48.95975" lon="7.89219">
        <ele>147.7</ele>
        <time>2021-07-19T19:22:35Z</time>
      </trkpt>
      <trkpt lat="48.95983" lon="7.89211">
        <ele>148.18</ele>
        <time>2021-07-19T19:22:36Z</time>
      </trkpt>
      <trkpt lat="48.95991" lon="7.89203">
        <ele>148.66</ele>
        <time>2021-07-19T19:22:37Z</time>
      </trkpt>
      <trkpt lat="48.96" lon="7.892">
        <ele>148.66</ele>
        <time>2021-07-19T19:22:38Z</time>
      </trkpt>
      <trkpt lat="48.96009" lon="7.89198">
        <ele>148.66</ele>
        <time>2021-07-19T19:22:39Z</time>
      </trkpt>
      <trkpt lat="48.96125" lon="7.8917">
        <ele>152.99</ele>
        <time>2021-07-19T19:22:49Z</time>
      </trkpt>
      <trkpt lat="48.96234" lon="7.89128">
        <ele>158.27</ele>
        <time>2021-07-19T19:22:59Z</time>
      </trkpt>
      <trkpt lat="48.96316" lon="7.89021">
        <ele>161.16</ele>
        <time>2021-07-19T19:23:09Z</time>
      </trkpt>
      <trkpt lat="48.96408" lon="7.88888">
        <ele>164.52</ele>
        <time>2021-07-19T19:23:21Z</time>
      </trkpt>
      <trkpt lat="48.96529" lon="7.88705">
        <ele>174.62</ele>
        <time>2021-07-19T19:23:36Z</time>
      </trkpt>
      <trkpt lat="48.96577" lon="7.88623">
        <ele>179.9</ele>
        <time>2021-07-19T19:23:46Z</time>
      </trkpt>
      <trkpt lat="48.96589" lon="7.88604">
        <ele>180.87</ele>
        <time>2021-07-19T19:23:52Z</time>
      </trkpt>
      <trkpt lat="48.9659" lon="7.88603">
        <ele>180.87</ele>
        <time>2021-07-19T19:23:53Z</time>
      </trkpt>
      <trkpt lat="48.96583" lon="7.88606">
        <ele>181.35</ele>
        <time>2021-07-19T19:23:54Z</time>
      </trkpt>
      <trkpt lat="48.96582" lon="7.88603">
        <ele>181.35</ele>
        <time>2021-07-19T19:23:55Z</time>
      </trkpt>
      <trkpt lat="48.96581" lon="7.88601">
        <ele>181.35</ele>
        <time>2021-07-19T19:23:56Z</time>
      </trkpt>
      <trkpt lat="48.9658" lon="7.88599">
        <ele>181.35</ele>
        <time>2021-07-19T19:23:57Z</time>
      </trkpt>
      <trkpt lat="48.9658" lon="7.88597">
        <ele>181.35</ele>
        <time>2021-07-19T19:24:02Z</time>
      </trkpt>
      <trkpt lat="48.96577" lon="7.88591">
        <ele>181.35</ele>
        <time>2021-07-19T19:24:03Z</time>
      </trkpt>
      <trkpt lat="48.96576" lon="7.88589">
        <ele>181.35</ele>
        <time>2021-07-19T19:24:04Z</time>
      </trkpt>
      <trkpt lat="48.96553" lon="7.88526">
        <ele>180.87</ele>
        <time>2021-07-19T19:24:13Z</time>
      </trkpt>
      <trkpt lat="48.96514" lon="7.88355">
        <ele>175.58</ele>
        <time>2021-07-19T19:24:30Z</time>
      </trkpt>
      <trkpt lat="48.96502" lon="7.88294">
        <ele>174.14</ele>
        <time>2021-07-19T19:24:38Z</time>
      </trkpt>
      <trkpt lat="48.965" lon="7.88286">
        <ele>179.42</ele>
        <time>2021-07-19T19:24:50Z</time>
      </trkpt>
      <trkpt lat="48.96499" lon="7.88279">
        <ele>179.9</ele>
        <time>2021-07-19T19:24:51Z</time>
      </trkpt>
      <trkpt lat="48.96499" lon="7.88277">
        <ele>179.9</ele>
        <time>2021-07-19T19:24:52Z</time>
      </trkpt>
      <trkpt lat="48.96499" lon="7.88276">
        <ele>180.38</ele>
        <time>2021-07-19T19:24:57Z</time>
      </trkpt>
      <trkpt lat="48.96499" lon="7.88276">
        <ele>180.38</ele>
        <time>2021-07-19T19:24:58Z</time>
      </trkpt>
      <trkpt lat="48.96499" lon="7.88279">
        <ele>180.38</ele>
        <time>2021-07-19T19:24:59Z</time>
      </trkpt>
      <trkpt lat="48.965" lon="7.88281">
        <ele>180.38</ele>
        <time>2021-07-19T19:25:00Z</time>
      </trkpt>
      <trkpt lat="48.965" lon="7.88284">
        <ele>179.9</ele>
        <time>2021-07-19T19:25:01Z</time>
      </trkpt>
      <trkpt lat="48.96501" lon="7.88289">
        <ele>179.9</ele>
        <time>2021-07-19T19:25:02Z</time>
      </trkpt>
      <trkpt lat="48.96501" lon="7.88289">
        <ele>179.9</ele>
        <time>2021-07-19T19:25:03Z</time>
      </trkpt>
      <trkpt lat="48.96502" lon="7.88292">
        <ele>179.9</ele>
        <time>2021-07-19T19:25:04Z</time>
      </trkpt>
      <trkpt lat="48.96515" lon="7.88361">
        <ele>177.98</ele>
        <time>2021-07-19T19:25:14Z</time>
      </trkpt>
      <trkpt lat="48.96542" lon="7.8849">
        <ele>177.98</ele>
        <time>2021-07-19T19:25:25Z</time>
      </trkpt>
      <trkpt lat="48.96575" lon="7.88586">
        <ele>177.5</ele>
        <time>2021-07-19T19:25:33Z</time>
      </trkpt>
      <trkpt lat="48.96578" lon="7.88594">
        <ele>177.5</ele>
        <time>2021-07-19T19:25:34Z</time>
      </trkpt>
      <trkpt lat="48.96581" lon="7.886">
        <ele>177.98</ele>
        <time>2021-07-19T19:25:35Z</time>
      </trkpt>
      <trkpt lat="48.9658" lon="7.88618">
        <ele>178.46</ele>
        <time>2021-07-19T19:25:36Z</time>
      </trkpt>
      <trkpt lat="48.96577" lon="7.88624">
        <ele>178.46</ele>
        <time>2021-07-19T19:25:37Z</time>
      </trkpt>
      <trkpt lat="48.96572" lon="7.88632">
        <ele>178.94</ele>
        <time>2021-07-19T19:25:38Z</time>
      </trkpt>
      <trkpt lat="48.96567" lon="7.88641">
        <ele>178.94</ele>
        <time>2021-07-19T19:25:39Z</time>
      </trkpt>
      <trkpt lat="48.96507" lon="7.88739">
        <ele>173.66</ele>
        <time>2021-07-19T19:25:46Z</time>
      </trkpt>
      <trkpt lat="48.96371" lon="7.88936">
        <ele>164.52</ele>
        <time>2021-07-19T19:25:57Z</time>
      </trkpt>
      <trkpt lat="48.96276" lon="7.89084">
        <ele>160.2</ele>
        <time>2021-07-19T19:26:05Z</time>
      </trkpt>
      <trkpt lat="48.96263" lon="7.89101">
        <ele>159.72</ele>
        <time>2021-07-19T19:26:06Z</time>
      </trkpt>
      <trkpt lat="48.96249" lon="7.89116">
        <ele>159.24</ele>
        <time>2021-07-19T19:26:07Z</time>
      </trkpt>
      <trkpt lat="48.96234" lon="7.89128">
        <ele>157.79</ele>
        <time>2021-07-19T19:26:08Z</time>
      </trkpt>
      <trkpt lat="48.96219" lon="7.8914">
        <ele>156.83</ele>
        <time>2021-07-19T19:26:09Z</time>
      </trkpt>
      <trkpt lat="48.96203" lon="7.8915">
        <ele>156.35</ele>
        <time>2021-07-19T19:26:10Z</time>
      </trkpt>
      <trkpt lat="48.96187" lon="7.89155">
        <ele>155.39</ele>
        <time>2021-07-19T19:26:11Z</time>
      </trkpt>
      <trkpt lat="48.95996" lon="7.89201">
        <ele>149.14</ele>
        <time>2021-07-19T19:26:22Z</time>
      </trkpt>
      <trkpt lat="48.95984" lon="7.89209">
        <ele>149.14</ele>
        <time>2021-07-19T19:26:23Z</time>
      </trkpt>
      <trkpt lat="48.95974" lon="7.8922">
        <ele>148.66</ele>
        <time>2021-07-19T19:26:24Z</time>
      </trkpt>
      <trkpt lat="48.95965" lon="7.89232">
        <ele>149.14</ele>
        <time>2021-07-19T19:26:25Z</time>
      </trkpt>
      <trkpt lat="48.95957" lon="7.89245">
        <ele>149.62</ele>
        <time>2021-07-19T19:26:26Z</time>
      </trkpt>
      <trkpt lat="48.95952" lon="7.89261">
        <ele>149.62</ele>
        <time>2021-07-19T19:26:27Z</time>
      </trkpt>
      <trkpt lat="48.95948" lon="7.89278">
        <ele>150.1</ele>
        <time>2021-07-19T19:26:28Z</time>
      </trkpt>
      <trkpt lat="48.95945" lon="7.89295">
        <ele>149.14</ele>
        <time>2021-07-19T19:26:29Z</time>
      </trkpt>
      <trkpt lat="48.95944" lon="7.89314">
        <ele>148.18</ele>
        <time>2021-07-19T19:26:30Z</time>
      </trkpt>
      <trkpt lat="48.95943" lon="7.89333">
        <ele>147.7</ele>
        <time>2021-07-19T19:26:31Z</time>
      </trkpt>
      <trkpt lat="48.9594" lon="7.89395">
        <ele>149.62</ele>
        <time>2021-07-19T19:26:34Z</time>
      </trkpt>
      <trkpt lat="48.95937" lon="7.89415">
        <ele>150.1</ele>
        <time>2021-07-19T19:26:35Z</time>
      </trkpt>
      <trkpt lat="48.95904" lon="7.89563">
        <ele>149.62</ele>
        <time>2021-07-19T19:26:42Z</time>
      </trkpt>
      <trkpt lat="48.95891" lon="7.89601">
        <ele>150.1</ele>
        <time>2021-07-19T19:26:43Z</time>
      </trkpt>
      <trkpt lat="48.95891" lon="7.89601">
        <ele>149.62</ele>
        <time>2021-07-19T19:26:44Z</time>
      </trkpt>
      <trkpt lat="48.95872" lon="7.89638">
        <ele>149.62</ele>
        <time>2021-07-19T19:26:45Z</time>
      </trkpt>
      <trkpt lat="48.95872" lon="7.89638">
        <ele>149.14</ele>
        <time>2021-07-19T19:26:46Z</time>
      </trkpt>
      <trkpt lat="48.95861" lon="7.89654">
        <ele>149.14</ele>
        <time>2021-07-19T19:26:47Z</time>
      </trkpt>
      <trkpt lat="48.95766" lon="7.8981">
        <ele>152.99</ele>
        <time>2021-07-19T19:26:56Z</time>
      </trkpt>
      <trkpt lat="48.95755" lon="7.89824">
        <ele>152.99</ele>
        <time>2021-07-19T19:26:57Z</time>
      </trkpt>
      <trkpt lat="48.95702" lon="7.89895">
        <ele>154.43</ele>
        <time>2021-07-19T19:27:02Z</time>
      </trkpt>
      <trkpt lat="48.95695" lon="7.8991">
        <ele>153.95</ele>
        <time>2021-07-19T19:27:03Z</time>
      </trkpt>
      <trkpt lat="48.95685" lon="7.89942">
        <ele>154.43</ele>
        <time>2021-07-19T19:27:04Z</time>
      </trkpt>
      <trkpt lat="48.95682" lon="7.8996">
        <ele>154.91</ele>
        <time>2021-07-19T19:27:05Z</time>
      </trkpt>
      <trkpt lat="48.95679" lon="7.89978">
        <ele>155.87</ele>
        <time>2021-07-19T19:27:06Z</time>
      </trkpt>
      <trkpt lat="48.95676" lon="7.89996">
        <ele>156.83</ele>
        <time>2021-07-19T19:27:07Z</time>
      </trkpt>
      <trkpt lat="48.95659" lon="7.90108">
        <ele>161.64</ele>
        <time>2021-07-19T19:27:14Z</time>
      </trkpt>
      <trkpt lat="48.95653" lon="7.90122">
        <ele>161.64</ele>
        <time>2021-07-19T19:27:15Z</time>
      </trkpt>
      <trkpt lat="48.95648" lon="7.90134">
        <ele>161.64</ele>
        <time>2021-07-19T19:27:16Z</time>
      </trkpt>
      <trkpt lat="48.95643" lon="7.90147">
        <ele>161.16</ele>
        <time>2021-07-19T19:27:17Z</time>
      </trkpt>
      <trkpt lat="48.95637" lon="7.90157">
        <ele>161.16</ele>
        <time>2021-07-19T19:27:18Z</time>
      </trkpt>
      <trkpt lat="48.95632" lon="7.90166">
        <ele>161.16</ele>
        <time>2021-07-19T19:27:19Z</time>
      </trkpt>
      <trkpt lat="48.95627" lon="7.90174">
        <ele>161.64</ele>
        <time>2021-07-19T19:27:20Z</time>
      </trkpt>
      <trkpt lat="48.95622" lon="7.90182">
        <ele>162.12</ele>
        <time>2021-07-19T19:27:21Z</time>
      </trkpt>
      <trkpt lat="48.95619" lon="7.90188">
        <ele>162.12</ele>
        <time>2021-07-19T19:27:22Z</time>
      </trkpt>
      <trkpt lat="48.95619" lon="7.902">
        <ele>162.6</ele>
        <time>2021-07-19T19:27:23Z</time>
      </trkpt>
      <trkpt lat="48.95626" lon="7.9021">
        <ele>163.08</ele>
        <time>2021-07-19T19:27:24Z</time>
      </trkpt>
      <trkpt lat="48.95626" lon="7.9021">
        <ele>163.56</ele>
        <time>2021-07-19T19:27:25Z</time>
      </trkpt>
      <trkpt lat="48.9563" lon="7.90216">
        <ele>163.56</ele>
        <time>2021-07-19T19:27:26Z</time>
      </trkpt>
      <trkpt lat="48.95635" lon="7.90221">
        <ele>163.56</ele>
        <time>2021-07-19T19:27:27Z</time>
      </trkpt>
      <trkpt lat="48.95642" lon="7.90224">
        <ele>163.56</ele>
        <time>2021-07-19T19:27:28Z</time>
      </trkpt>
      <trkpt lat="48.95684" lon="7.90245">
        <ele>165.48</ele>
        <time>2021-07-19T19:27:33Z</time>
      </trkpt>
      <trkpt lat="48.95695" lon="7.90246">
        <ele>165</ele>
        <time>2021-07-19T19:27:34Z</time>
      </trkpt>
      <trkpt lat="48.95705" lon="7.90244">
        <ele>165.96</ele>
        <time>2021-07-19T19:27:35Z</time>
      </trkpt>
      <trkpt lat="48.95707" lon="7.90243">
        <ele>165.96</ele>
        <time>2021-07-19T19:27:36Z</time>
      </trkpt>
      <trkpt lat="48.95718" lon="7.90232">
        <ele>166.45</ele>
        <time>2021-07-19T19:27:37Z</time>
      </trkpt>
      <trkpt lat="48.95724" lon="7.90224">
        <ele>166.45</ele>
        <time>2021-07-19T19:27:38Z</time>
      </trkpt>
      <trkpt lat="48.9573" lon="7.90217">
        <ele>166.45</ele>
        <time>2021-07-19T19:27:39Z</time>
      </trkpt>
      <trkpt lat="48.95764" lon="7.90185">
        <ele>168.37</ele>
        <time>2021-07-19T19:27:44Z</time>
      </trkpt>
      <trkpt lat="48.9577" lon="7.90181">
        <ele>168.85</ele>
        <time>2021-07-19T19:27:45Z</time>
      </trkpt>
      <trkpt lat="48.95776" lon="7.90181">
        <ele>169.81</ele>
        <time>2021-07-19T19:27:46Z</time>
      </trkpt>
      <trkpt lat="48.95782" lon="7.90181">
        <ele>170.29</ele>
        <time>2021-07-19T19:27:47Z</time>
      </trkpt>
      <trkpt lat="48.95788" lon="7.90183">
        <ele>170.77</ele>
        <time>2021-07-19T19:27:48Z</time>
      </trkpt>
      <trkpt lat="48.95795" lon="7.90187">
        <ele>171.25</ele>
        <time>2021-07-19T19:27:49Z</time>
      </trkpt>
      <trkpt lat="48.95801" lon="7.90192">
        <ele>171.73</ele>
        <time>2021-07-19T19:27:50Z</time>
      </trkpt>
      <trkpt lat="48.9587" lon="7.90257">
        <ele>177.02</ele>
        <time>2021-07-19T19:28:02Z</time>
      </trkpt>
      <trkpt lat="48.95889" lon="7.90286">
        <ele>177.5</ele>
        <time>2021-07-19T19:28:05Z</time>
      </trkpt>
      <trkpt lat="48.95951" lon="7.9042">
        <ele>178.46</ele>
        <time>2021-07-19T19:28:16Z</time>
      </trkpt>
      <trkpt lat="48.95982" lon="7.90486">
        <ele>182.31</ele>
        <time>2021-07-19T19:28:21Z</time>
      </trkpt>
      <trkpt lat="48.95987" lon="7.90495">
        <ele>182.79</ele>
        <time>2021-07-19T19:28:22Z</time>
      </trkpt>
      <trkpt lat="48.95994" lon="7.90504">
        <ele>183.27</ele>
        <time>2021-07-19T19:28:23Z</time>
      </trkpt>
      <trkpt lat="48.96001" lon="7.90512">
        <ele>183.75</ele>
        <time>2021-07-19T19:28:24Z</time>
      </trkpt>
      <trkpt lat="48.96008" lon="7.90518">
        <ele>183.75</ele>
        <time>2021-07-19T19:28:25Z</time>
      </trkpt>
      <trkpt lat="48.96016" lon="7.90521">
        <ele>183.75</ele>
        <time>2021-07-19T19:28:26Z</time>
      </trkpt>
      <trkpt lat="48.96025" lon="7.90521">
        <ele>185.19</ele>
        <time>2021-07-19T19:28:27Z</time>
      </trkpt>
      <trkpt lat="48.96034" lon="7.90519">
        <ele>186.15</ele>
        <time>2021-07-19T19:28:28Z</time>
      </trkpt>
      <trkpt lat="48.96044" lon="7.90516">
        <ele>186.63</ele>
        <time>2021-07-19T19:28:29Z</time>
      </trkpt>
      <trkpt lat="48.96169" lon="7.90435">
        <ele>189.52</ele>
        <time>2021-07-19T19:28:41Z</time>
      </trkpt>
      <trkpt lat="48.96239" lon="7.90399">
        <ele>191.44</ele>
        <time>2021-07-19T19:28:48Z</time>
      </trkpt>
      <trkpt lat="48.96248" lon="7.904">
        <ele>191.92</ele>
        <time>2021-07-19T19:28:49Z</time>
      </trkpt>
      <trkpt lat="48.96248" lon="7.904">
        <ele>192.88</ele>
        <time>2021-07-19T19:28:50Z</time>
      </trkpt>
      <trkpt lat="48.96256" lon="7.90404">
        <ele>192.4</ele>
        <time>2021-07-19T19:28:51Z</time>
      </trkpt>
      <trkpt lat="48.96264" lon="7.90409">
        <ele>191.92</ele>
        <time>2021-07-19T19:28:52Z</time>
      </trkpt>
      <trkpt lat="48.96272" lon="7.90415">
        <ele>190.96</ele>
        <time>2021-07-19T19:28:53Z</time>
      </trkpt>
      <trkpt lat="48.96281" lon="7.90423">
        <ele>190.48</ele>
        <time>2021-07-19T19:28:54Z</time>
      </trkpt>
      <trkpt lat="48.9629" lon="7.90431">
        <ele>190.48</ele>
        <time>2021-07-19T19:28:55Z</time>
      </trkpt>
      <trkpt lat="48.96299" lon="7.9044">
        <ele>190.48</ele>
        <time>2021-07-19T19:28:56Z</time>
      </trkpt>
      <trkpt lat="48.96305" lon="7.90447">
        <ele>190.96</ele>
        <time>2021-07-19T19:28:57Z</time>
      </trkpt>
      <trkpt lat="48.96312" lon="7.90458">
        <ele>190.48</ele>
        <time>2021-07-19T19:28:58Z</time>
      </trkpt>
      <trkpt lat="48.96319" lon="7.9047">
        <ele>191.44</ele>
        <time>2021-07-19T19:28:59Z</time>
      </trkpt>
      <trkpt lat="48.9641" lon="7.90631">
        <ele>188.56</ele>
        <time>2021-07-19T19:29:13Z</time>
      </trkpt>
      <trkpt lat="48.96473" lon="7.9073">
        <ele>184.71</ele>
        <time>2021-07-19T19:29:22Z</time>
      </trkpt>
      <trkpt lat="48.96547" lon="7.90859">
        <ele>181.83</ele>
        <time>2021-07-19T19:29:33Z</time>
      </trkpt>
      <trkpt lat="48.96584" lon="7.90927">
        <ele>182.31</ele>
        <time>2021-07-19T19:29:41Z</time>
      </trkpt>
      <trkpt lat="48.96638" lon="7.91018">
        <ele>182.79</ele>
        <time>2021-07-19T19:29:51Z</time>
      </trkpt>
      <trkpt lat="48.96642" lon="7.91027">
        <ele>181.83</ele>
        <time>2021-07-19T19:29:52Z</time>
      </trkpt>
      <trkpt lat="48.96645" lon="7.91035">
        <ele>181.35</ele>
        <time>2021-07-19T19:29:53Z</time>
      </trkpt>
      <trkpt lat="48.96648" lon="7.91043">
        <ele>181.35</ele>
        <time>2021-07-19T19:29:54Z</time>
      </trkpt>
      <trkpt lat="48.96649" lon="7.9105">
        <ele>181.35</ele>
        <time>2021-07-19T19:29:55Z</time>
      </trkpt>
      <trkpt lat="48.9665" lon="7.91056">
        <ele>181.35</ele>
        <time>2021-07-19T19:29:56Z</time>
      </trkpt>
      <trkpt lat="48.96651" lon="7.9106">
        <ele>187.11</ele>
        <time>2021-07-19T19:30:02Z</time>
      </trkpt>
      <trkpt lat="48.96654" lon="7.91076">
        <ele>187.11</ele>
        <time>2021-07-19T19:30:03Z</time>
      </trkpt>
      <trkpt lat="48.96654" lon="7.91081">
        <ele>187.11</ele>
        <time>2021-07-19T19:30:04Z</time>
      </trkpt>
      <trkpt lat="48.96655" lon="7.91086">
        <ele>187.11</ele>
        <time>2021-07-19T19:30:05Z</time>
      </trkpt>
      <trkpt lat="48.96645" lon="7.91112">
        <ele>187.11</ele>
        <time>2021-07-19T19:30:06Z</time>
      </trkpt>
      <trkpt lat="48.96641" lon="7.91115">
        <ele>187.11</ele>
        <time>2021-07-19T19:30:07Z</time>
      </trkpt>
      <trkpt lat="48.96624" lon="7.91131">
        <ele>188.08</ele>
        <time>2021-07-19T19:30:13Z</time>
      </trkpt>
      <trkpt lat="48.96622" lon="7.91133">
        <ele>188.56</ele>
        <time>2021-07-19T19:30:14Z</time>
      </trkpt>
      <trkpt lat="48.96621" lon="7.91136">
        <ele>190.96</ele>
        <time>2021-07-19T19:30:30Z</time>
      </trkpt>
      <trkpt lat="48.96621" lon="7.91136">
        <ele>190.96</ele>
        <time>2021-07-19T19:31:52Z</time>
      </trkpt>
      <trkpt lat="48.96621" lon="7.91136">
        <ele>189.52</ele>
        <time>2021-07-19T19:32:48Z</time>
      </trkpt>
      <trkpt lat="48.96621" lon="7.91136">
        <ele>189.04</ele>
        <time>2021-07-19T19:33:52Z</time>
      </trkpt>
      <trkpt lat="48.96621" lon="7.91136">
        <ele>189.52</ele>
        <time>2021-07-19T19:33:56Z</time>
      </trkpt>
      <trkpt lat="48.96639" lon="7.91117">
        <ele>189.04</ele>
        <time>2021-07-19T19:33:58Z</time>
      </trkpt>
      <trkpt lat="48.96641" lon="7.91116">
        <ele>189.04</ele>
        <time>2021-07-19T19:33:59Z</time>
      </trkpt>
      <trkpt lat="48.96641" lon="7.91116">
        <ele>189.04</ele>
        <time>2021-07-19T19:34:00Z</time>
      </trkpt>
      <trkpt lat="48.96642" lon="7.91114">
        <ele>189.04</ele>
        <time>2021-07-19T19:34:01Z</time>
      </trkpt>
      <trkpt lat="48.96656" lon="7.91104">
        <ele>190</ele>
        <time>2021-07-19T19:34:14Z</time>
      </trkpt>
      <trkpt lat="48.96693" lon="7.91103">
        <ele>191.92</ele>
        <time>2021-07-19T19:34:25Z</time>
      </trkpt>
      <trkpt lat="48.96716" lon="7.91133">
        <ele>192.4</ele>
        <time>2021-07-19T19:34:39Z</time>
      </trkpt>
      <trkpt lat="48.96732" lon="7.91167">
        <ele>193.84</ele>
        <time>2021-07-19T19:34:56Z</time>
      </trkpt>
      <trkpt lat="48.96743" lon="7.91197">
        <ele>190.96</ele>
        <time>2021-07-19T19:35:09Z</time>
      </trkpt>
      <trkpt lat="48.96756" lon="7.91235">
        <ele>189.52</ele>
        <time>2021-07-19T19:35:24Z</time>
      </trkpt>
      <trkpt lat="48.96764" lon="7.91264">
        <ele>191.44</ele>
        <time>2021-07-19T19:35:38Z</time>
      </trkpt>
      <trkpt lat="48.96783" lon="7.91277">
        <ele>191.92</ele>
        <time>2021-07-19T19:35:51Z</time>
      </trkpt>
      <trkpt lat="48.96818" lon="7.91285">
        <ele>190.48</ele>
        <time>2021-07-19T19:36:04Z</time>
      </trkpt>
      <trkpt lat="48.96858" lon="7.913">
        <ele>192.88</ele>
        <time>2021-07-19T19:36:18Z</time>
      </trkpt>
      <trkpt lat="48.96875" lon="7.91334">
        <ele>195.77</ele>
        <time>2021-07-19T19:36:28Z</time>
      </trkpt>
      <trkpt lat="48.96888" lon="7.91361">
        <ele>197.69</ele>
        <time>2021-07-19T19:36:38Z</time>
      </trkpt>
      <trkpt lat="48.96887" lon="7.91365">
        <ele>198.65</ele>
        <time>2021-07-19T19:37:32Z</time>
      </trkpt>
      <trkpt lat="48.96887" lon="7.91366">
        <ele>198.65</ele>
        <time>2021-07-19T19:41:34Z</time>
      </trkpt>
      <trkpt lat="48.96888" lon="7.91366">
        <ele>198.65</ele>
        <time>2021-07-19T19:42:46Z</time>
      </trkpt>
      <trkpt lat="48.96887" lon="7.91367">
        <ele>199.13</ele>
        <time>2021-07-19T19:44:07Z</time>
      </trkpt>
      <trkpt lat="48.96888" lon="7.91368">
        <ele>199.61</ele>
        <time>2021-07-19T19:44:57Z</time>
      </trkpt>
      <trkpt lat="48.96888" lon="7.91368">
        <ele>199.61</ele>
        <time>2021-07-19T19:46:24Z</time>
      </trkpt>
      <trkpt lat="48.96888" lon="7.91369">
        <ele>200.09</ele>
        <time>2021-07-19T19:47:49Z</time>
      </trkpt>
      <trkpt lat="48.96889" lon="7.91369">
        <ele>200.09</ele>
        <time>2021-07-19T19:49:06Z</time>
      </trkpt>
      <trkpt lat="48.96889" lon="7.9137">
        <ele>200.57</ele>
        <time>2021-07-19T19:50:30Z</time>
      </trkpt>
      <trkpt lat="48.96889" lon="7.91371">
        <ele>200.09</ele>
        <time>2021-07-19T19:51:57Z</time>
      </trkpt>
      <trkpt lat="48.96889" lon="7.91371">
        <ele>200.09</ele>
        <time>2021-07-19T19:53:09Z</time>
      </trkpt>
      <trkpt lat="48.96888" lon="7.91369">
        <ele>200.57</ele>
        <time>2021-07-19T19:53:50Z</time>
      </trkpt>
      <trkpt lat="48.96888" lon="7.91369">
        <ele>201.05</ele>
        <time>2021-07-19T19:54:11Z</time>
      </trkpt>
      <trkpt lat="48.96888" lon="7.9137">
        <ele>201.05</ele>
        <time>2021-07-19T19:55:36Z</time>
      </trkpt>
      <trkpt lat="48.96888" lon="7.9137">
        <ele>201.05</ele>
        <time>2021-07-19T19:57:06Z</time>
      </trkpt>
      <trkpt lat="48.96887" lon="7.91369">
        <ele>201.05</ele>
        <time>2021-07-19T19:57:24Z</time>
      </trkpt>
      <trkpt lat="48.96887" lon="7.91369">
        <ele>201.05</ele>
        <time>2021-07-19T19:58:44Z</time>
      </trkpt>
      <trkpt lat="48.96887" lon="7.9137">
        <ele>201.53</ele>
        <time>2021-07-19T20:00:52Z</time>
      </trkpt>
      <trkpt lat="48.96887" lon="7.91369">
        <ele>202.01</ele>
        <time>2021-07-19T20:02:46Z</time>
      </trkpt>
      <trkpt lat="48.96887" lon="7.91368">
        <ele>202.01</ele>
        <time>2021-07-19T20:04:08Z</time>
      </trkpt>
      <trkpt lat="48.96887" lon="7.91369">
        <ele>202.01</ele>
        <time>2021-07-19T20:04:53Z</time>
      </trkpt>
      <trkpt lat="48.96887" lon="7.91369">
        <ele>202.49</ele>
        <time>2021-07-19T20:06:16Z</time>
      </trkpt>
      <trkpt lat="48.96888" lon="7.91369">
        <ele>202.49</ele>
        <time>2021-07-19T20:07:44Z</time>
      </trkpt>
      <trkpt lat="48.96888" lon="7.91368">
        <ele>202.49</ele>
        <time>2021-07-19T20:08:46Z</time>
      </trkpt>
      <trkpt lat="48.96888" lon="7.91367">
        <ele>202.98</ele>
        <time>2021-07-19T20:09:17Z</time>
      </trkpt>
      <trkpt lat="48.96888" lon="7.91367">
        <ele>203.46</ele>
        <time>2021-07-19T20:10:04Z</time>
      </trkpt>
      <trkpt lat="48.96887" lon="7.91367">
        <ele>203.46</ele>
        <time>2021-07-19T20:10:46Z</time>
      </trkpt>
      <trkpt lat="48.96888" lon="7.91368">
        <ele>202.98</ele>
        <time>2021-07-19T20:11:46Z</time>
      </trkpt>
      <trkpt lat="48.96888" lon="7.91366">
        <ele>202.98</ele>
        <time>2021-07-19T20:12:16Z</time>
      </trkpt>
      <trkpt lat="48.96888" lon="7.91365">
        <ele>202.98</ele>
        <time>2021-07-19T20:13:03Z</time>
      </trkpt>
      <trkpt lat="48.96888" lon="7.91363">
        <ele>203.46</ele>
        <time>2021-07-19T20:13:42Z</time>
      </trkpt>
      <trkpt lat="48.96888" lon="7.91362">
        <ele>205.38</ele>
        <time>2021-07-19T20:14:31Z</time>
      </trkpt>
      <trkpt lat="48.96887" lon="7.91362">
        <ele>205.38</ele>
        <time>2021-07-19T20:15:21Z</time>
      </trkpt>
      <trkpt lat="48.96887" lon="7.91362">
        <ele>205.38</ele>
        <time>2021-07-19T20:15:56Z</time>
      </trkpt>
      <trkpt lat="48.96887" lon="7.91362">
        <ele>205.38</ele>
        <time>2021-07-19T20:16:54Z</time>
      </trkpt>
      <trkpt lat="48.96886" lon="7.91362">
        <ele>205.38</ele>
        <time>2021-07-19T20:17:43Z</time>
      </trkpt>
      <trkpt lat="48.96886" lon="7.91363">
        <ele>205.86</ele>
        <time>2021-07-19T20:18:24Z</time>
      </trkpt>
      <trkpt lat="48.96886" lon="7.91364">
        <ele>205.86</ele>
        <time>2021-07-19T20:19:26Z</time>
      </trkpt>
      <trkpt lat="48.96886" lon="7.91362">
        <ele>206.34</ele>
        <time>2021-07-19T20:20:20Z</time>
      </trkpt>
      <trkpt lat="48.96886" lon="7.91362">
        <ele>206.82</ele>
        <time>2021-07-19T20:20:44Z</time>
      </trkpt>
      <trkpt lat="48.96886" lon="7.91363">
        <ele>206.82</ele>
        <time>2021-07-19T20:21:08Z</time>
      </trkpt>
      <trkpt lat="48.96886" lon="7.91363">
        <ele>206.82</ele>
        <time>2021-07-19T20:22:07Z</time>
      </trkpt>
      <trkpt lat="48.96886" lon="7.91364">
        <ele>207.3</ele>
        <time>2021-07-19T20:22:57Z</time>
      </trkpt>
      <trkpt lat="48.96886" lon="7.91364">
        <ele>207.78</ele>
        <time>2021-07-19T20:24:08Z</time>
      </trkpt>
      <trkpt lat="48.96885" lon="7.91364">
        <ele>207.3</ele>
        <time>2021-07-19T20:24:55Z</time>
      </trkpt>
      <trkpt lat="48.96885" lon="7.91364">
        <ele>207.3</ele>
        <time>2021-07-19T20:25:50Z</time>
      </trkpt>
      <trkpt lat="48.96885" lon="7.91364">
        <ele>207.78</ele>
        <time>2021-07-19T20:27:05Z</time>
      </trkpt>
      <trkpt lat="48.96885" lon="7.91364">
        <ele>207.78</ele>
        <time>2021-07-19T20:28:03Z</time>
      </trkpt>
      <trkpt lat="48.96885" lon="7.91364">
        <ele>207.78</ele>
        <time>2021-07-19T20:29:11Z</time>
      </trkpt>
      <trkpt lat="48.96885" lon="7.91364">
        <ele>207.78</ele>
        <time>2021-07-19T20:30:28Z</time>
      </trkpt>
      <trkpt lat="48.96886" lon="7.91364">
        <ele>208.26</ele>
        <time>2021-07-19T20:31:10Z</time>
      </trkpt>
      <trkpt lat="48.96887" lon="7.91364">
        <ele>207.78</ele>
        <time>2021-07-19T20:31:56Z</time>
      </trkpt>
      <trkpt lat="48.96886" lon="7.91365">
        <ele>207.78</ele>
        <time>2021-07-19T20:32:55Z</time>
      </trkpt>
      <trkpt lat="48.96887" lon="7.91364">
        <ele>207.78</ele>
        <time>2021-07-19T20:33:29Z</time>
      </trkpt>
      <trkpt lat="48.96887" lon="7.91364">
        <ele>208.26</ele>
        <time>2021-07-19T20:34:16Z</time>
      </trkpt>
      <trkpt lat="48.96888" lon="7.91363">
        <ele>209.22</ele>
        <time>2021-07-19T20:34:46Z</time>
      </trkpt>
      <trkpt lat="48.96888" lon="7.91364">
        <ele>208.74</ele>
        <time>2021-07-19T20:36:32Z</time>
      </trkpt>
      <trkpt lat="48.96888" lon="7.91364">
        <ele>209.22</ele>
        <time>2021-07-19T20:37:06Z</time>
      </trkpt>
      <trkpt lat="48.96888" lon="7.91365">
        <ele>210.67</ele>
        <time>2021-07-19T20:38:00Z</time>
      </trkpt>
      <trkpt lat="48.96888" lon="7.91367">
        <ele>211.15</ele>
        <time>2021-07-19T20:39:25Z</time>
      </trkpt>
      <trkpt lat="48.96888" lon="7.91367">
        <ele>211.15</ele>
        <time>2021-07-19T20:40:22Z</time>
      </trkpt>
      <trkpt lat="48.96888" lon="7.91367">
        <ele>211.63</ele>
        <time>2021-07-19T20:41:48Z</time>
      </trkpt>
      <trkpt lat="48.96888" lon="7.91367">
        <ele>211.15</ele>
        <time>2021-07-19T20:43:05Z</time>
      </trkpt>
      <trkpt lat="48.96888" lon="7.91368">
        <ele>211.15</ele>
        <time>2021-07-19T20:43:40Z</time>
      </trkpt>
      <trkpt lat="48.96888" lon="7.91368">
        <ele>211.63</ele>
        <time>2021-07-19T20:45:02Z</time>
      </trkpt>
      <trkpt lat="48.96888" lon="7.91368">
        <ele>211.15</ele>
        <time>2021-07-19T20:46:06Z</time>
      </trkpt>
      <trkpt lat="48.96889" lon="7.91367">
        <ele>211.15</ele>
        <time>2021-07-19T20:47:01Z</time>
      </trkpt>
      <trkpt lat="48.96886" lon="7.91363">
        <ele>212.11</ele>
        <time>2021-07-19T20:47:15Z</time>
      </trkpt>
      <trkpt lat="48.96886" lon="7.91363">
        <ele>212.59</ele>
        <time>2021-07-19T20:47:55Z</time>
      </trkpt>
      <trkpt lat="48.96886" lon="7.91365">
        <ele>211.63</ele>
        <time>2021-07-19T20:48:36Z</time>
      </trkpt>
      <trkpt lat="48.96883" lon="7.91357">
        <ele>212.11</ele>
        <time>2021-07-19T20:49:00Z</time>
      </trkpt>
      <trkpt lat="48.96873" lon="7.91336">
        <ele>214.99</ele>
        <time>2021-07-19T20:49:24Z</time>
      </trkpt>
      <trkpt lat="48.96863" lon="7.91318">
        <ele>216.43</ele>
        <time>2021-07-19T20:49:50Z</time>
      </trkpt>
      <trkpt lat="48.9686" lon="7.91311">
        <ele>217.4</ele>
        <time>2021-07-19T20:50:14Z</time>
      </trkpt>
      <trkpt lat="48.96861" lon="7.9131">
        <ele>216.91</ele>
        <time>2021-07-19T20:50:42Z</time>
      </trkpt>
      <trkpt lat="48.96867" lon="7.91307">
        <ele>216.91</ele>
        <time>2021-07-19T20:51:04Z</time>
      </trkpt>
      <trkpt lat="48.96867" lon="7.91307">
        <ele>216.91</ele>
        <time>2021-07-19T20:51:40Z</time>
      </trkpt>
      <trkpt lat="48.96867" lon="7.91305">
        <ele>216.91</ele>
        <time>2021-07-19T20:52:28Z</time>
      </trkpt>
      <trkpt lat="48.96866" lon="7.91305">
        <ele>216.91</ele>
        <time>2021-07-19T20:53:05Z</time>
      </trkpt>
      <trkpt lat="48.96868" lon="7.91304">
        <ele>216.91</ele>
        <time>2021-07-19T20:53:47Z</time>
      </trkpt>
      <trkpt lat="48.96863" lon="7.91304">
        <ele>216.91</ele>
        <time>2021-07-19T20:54:18Z</time>
      </trkpt>
      <trkpt lat="48.96858" lon="7.91303">
        <ele>216.91</ele>
        <time>2021-07-19T20:54:41Z</time>
      </trkpt>
      <trkpt lat="48.96858" lon="7.91302">
        <ele>217.4</ele>
        <time>2021-07-19T20:55:25Z</time>
      </trkpt>
      <trkpt lat="48.96858" lon="7.91301">
        <ele>217.88</ele>
        <time>2021-07-19T20:55:59Z</time>
      </trkpt>
      <trkpt lat="48.96853" lon="7.91299">
        <ele>217.4</ele>
        <time>2021-07-19T20:56:54Z</time>
      </trkpt>
      <trkpt lat="48.9684" lon="7.91295">
        <ele>220.76</ele>
        <time>2021-07-19T20:57:18Z</time>
      </trkpt>
      <trkpt lat="48.96835" lon="7.91294">
        <ele>222.68</ele>
        <time>2021-07-19T20:57:56Z</time>
      </trkpt>
      <trkpt lat="48.96835" lon="7.91293">
        <ele>222.68</ele>
        <time>2021-07-19T20:58:45Z</time>
      </trkpt>
      <trkpt lat="48.96835" lon="7.91293">
        <ele>222.68</ele>
        <time>2021-07-19T20:59:46Z</time>
      </trkpt>
      <trkpt lat="48.96835" lon="7.91292">
        <ele>222.2</ele>
        <time>2021-07-19T21:00:26Z</time>
      </trkpt>
      <trkpt lat="48.96835" lon="7.91292">
        <ele>222.2</ele>
        <time>2021-07-19T21:01:27Z</time>
      </trkpt>
      <trkpt lat="48.96835" lon="7.91292">
        <ele>221.72</ele>
        <time>2021-07-19T21:02:10Z</time>
      </trkpt>
      <trkpt lat="48.96833" lon="7.91291">
        <ele>221.24</ele>
        <time>2021-07-19T21:03:00Z</time>
      </trkpt>
      <trkpt lat="48.96832" lon="7.91291">
        <ele>220.76</ele>
        <time>2021-07-19T21:03:31Z</time>
      </trkpt>
      <trkpt lat="48.96833" lon="7.9129">
        <ele>220.76</ele>
        <time>2021-07-19T21:04:14Z</time>
      </trkpt>
      <trkpt lat="48.96832" lon="7.91289">
        <ele>221.24</ele>
        <time>2021-07-19T21:04:42Z</time>
      </trkpt>
      <trkpt lat="48.96823" lon="7.91286">
        <ele>222.68</ele>
        <time>2021-07-19T21:05:06Z</time>
      </trkpt>
      <trkpt lat="48.96822" lon="7.91286">
        <ele>222.68</ele>
        <time>2021-07-19T21:05:40Z</time>
      </trkpt>
      <trkpt lat="48.96819" lon="7.91285">
        <ele>222.68</ele>
        <time>2021-07-19T21:06:22Z</time>
      </trkpt>
      <trkpt lat="48.96817" lon="7.91284">
        <ele>222.2</ele>
        <time>2021-07-19T21:06:34Z</time>
      </trkpt>
      <trkpt lat="48.96811" lon="7.91285">
        <ele>222.68</ele>
        <time>2021-07-19T21:06:53Z</time>
      </trkpt>
      <trkpt lat="48.9681" lon="7.91285">
        <ele>222.2</ele>
        <time>2021-07-19T21:07:44Z</time>
      </trkpt>
      <trkpt lat="48.9681" lon="7.91285">
        <ele>222.68</ele>
        <time>2021-07-19T21:08:30Z</time>
      </trkpt>
      <trkpt lat="48.96811" lon="7.91285">
        <ele>222.2</ele>
        <time>2021-07-19T21:09:08Z</time>
      </trkpt>
      <trkpt lat="48.96811" lon="7.91285">
        <ele>222.2</ele>
        <time>2021-07-19T21:09:55Z</time>
      </trkpt>
      <trkpt lat="48.96811" lon="7.91285">
        <ele>222.2</ele>
        <time>2021-07-19T21:10:42Z</time>
      </trkpt>
      <trkpt lat="48.96811" lon="7.91286">
        <ele>222.2</ele>
        <time>2021-07-19T21:11:24Z</time>
      </trkpt>
      <trkpt lat="48.96811" lon="7.91286">
        <ele>221.72</ele>
        <time>2021-07-19T21:12:00Z</time>
      </trkpt>
      <trkpt lat="48.96811" lon="7.91286">
        <ele>221.72</ele>
        <time>2021-07-19T21:12:52Z</time>
      </trkpt>
      <trkpt lat="48.96811" lon="7.91286">
        <ele>222.2</ele>
        <time>2021-07-19T21:13:38Z</time>
      </trkpt>
      <trkpt lat="48.9681" lon="7.91286">
        <ele>221.72</ele>
        <time>2021-07-19T21:14:40Z</time>
      </trkpt>
      <trkpt lat="48.96811" lon="7.91286">
        <ele>219.8</ele>
        <time>2021-07-19T21:15:30Z</time>
      </trkpt>
      <trkpt lat="48.96811" lon="7.91285">
        <ele>219.32</ele>
        <time>2021-07-19T21:16:20Z</time>
      </trkpt>
      <trkpt lat="48.96809" lon="7.91284">
        <ele>221.72</ele>
        <time>2021-07-19T21:16:55Z</time>
      </trkpt>
      <trkpt lat="48.96803" lon="7.91282">
        <ele>224.12</ele>
        <time>2021-07-19T21:17:24Z</time>
      </trkpt>
      <trkpt lat="48.96799" lon="7.91281">
        <ele>226.05</ele>
        <time>2021-07-19T21:17:50Z</time>
      </trkpt>
      <trkpt lat="48.96792" lon="7.91279">
        <ele>227.49</ele>
        <time>2021-07-19T21:18:26Z</time>
      </trkpt>
      <trkpt lat="48.96785" lon="7.91275">
        <ele>227.49</ele>
        <time>2021-07-19T21:18:58Z</time>
      </trkpt>
      <trkpt lat="48.96772" lon="7.91266">
        <ele>227.97</ele>
        <time>2021-07-19T21:19:30Z</time>
      </trkpt>
      <trkpt lat="48.96765" lon="7.91252">
        <ele>230.37</ele>
        <time>2021-07-19T21:20:06Z</time>
      </trkpt>
      <trkpt lat="48.96764" lon="7.91246">
        <ele>228.93</ele>
        <time>2021-07-19T21:20:38Z</time>
      </trkpt>
      <trkpt lat="48.96758" lon="7.91238">
        <ele>228.93</ele>
        <time>2021-07-19T21:21:10Z</time>
      </trkpt>
      <trkpt lat="48.96751" lon="7.91227">
        <ele>228.45</ele>
        <time>2021-07-19T21:21:46Z</time>
      </trkpt>
      <trkpt lat="48.96743" lon="7.91211">
        <ele>232.78</ele>
        <time>2021-07-19T21:22:12Z</time>
      </trkpt>
      <trkpt lat="48.96733" lon="7.91193">
        <ele>229.89</ele>
        <time>2021-07-19T21:22:39Z</time>
      </trkpt>
      <trkpt lat="48.96729" lon="7.91179">
        <ele>226.05</ele>
        <time>2021-07-19T21:23:00Z</time>
      </trkpt>
      <trkpt lat="48.96726" lon="7.91174">
        <ele>227.01</ele>
        <time>2021-07-19T21:23:26Z</time>
      </trkpt>
      <trkpt lat="48.96726" lon="7.91173">
        <ele>226.53</ele>
        <time>2021-07-19T21:24:07Z</time>
      </trkpt>
      <trkpt lat="48.96726" lon="7.91174">
        <ele>226.53</ele>
        <time>2021-07-19T21:24:44Z</time>
      </trkpt>
      <trkpt lat="48.96723" lon="7.91163">
        <ele>226.05</ele>
        <time>2021-07-19T21:25:10Z</time>
      </trkpt>
      <trkpt lat="48.96719" lon="7.91151">
        <ele>225.57</ele>
        <time>2021-07-19T21:25:30Z</time>
      </trkpt>
      <trkpt lat="48.96719" lon="7.91149">
        <ele>225.09</ele>
        <time>2021-07-19T21:25:48Z</time>
      </trkpt>
      <trkpt lat="48.96716" lon="7.91136">
        <ele>225.09</ele>
        <time>2021-07-19T21:26:09Z</time>
      </trkpt>
      <trkpt lat="48.96717" lon="7.91134">
        <ele>224.12</ele>
        <time>2021-07-19T21:28:23Z</time>
      </trkpt>
      <trkpt lat="48.96708" lon="7.9112">
        <ele>223.16</ele>
        <time>2021-07-19T21:29:28Z</time>
      </trkpt>
      <trkpt lat="48.96676" lon="7.91096">
        <ele>214.51</ele>
        <time>2021-07-19T21:29:42Z</time>
      </trkpt>
      <trkpt lat="48.96672" lon="7.91093">
        <ele>213.07</ele>
        <time>2021-07-19T21:29:44Z</time>
      </trkpt>
      <trkpt lat="48.96654" lon="7.91082">
        <ele>209.7</ele>
        <time>2021-07-19T21:29:49Z</time>
      </trkpt>
      <trkpt lat="48.96654" lon="7.91082">
        <ele>208.74</ele>
        <time>2021-07-19T21:29:50Z</time>
      </trkpt>
      <trkpt lat="48.96654" lon="7.91076">
        <ele>207.78</ele>
        <time>2021-07-19T21:29:51Z</time>
      </trkpt>
      <trkpt lat="48.96654" lon="7.91071">
        <ele>207.3</ele>
        <time>2021-07-19T21:29:52Z</time>
      </trkpt>
      <trkpt lat="48.96652" lon="7.91065">
        <ele>206.34</ele>
        <time>2021-07-19T21:29:53Z</time>
      </trkpt>
      <trkpt lat="48.96651" lon="7.91057">
        <ele>205.86</ele>
        <time>2021-07-19T21:29:54Z</time>
      </trkpt>
      <trkpt lat="48.96649" lon="7.91048">
        <ele>205.86</ele>
        <time>2021-07-19T21:29:55Z</time>
      </trkpt>
      <trkpt lat="48.96646" lon="7.91038">
        <ele>205.38</ele>
        <time>2021-07-19T21:29:56Z</time>
      </trkpt>
      <trkpt lat="48.96642" lon="7.91027">
        <ele>205.86</ele>
        <time>2021-07-19T21:29:57Z</time>
      </trkpt>
      <trkpt lat="48.96637" lon="7.91015">
        <ele>205.38</ele>
        <time>2021-07-19T21:29:58Z</time>
      </trkpt>
      <trkpt lat="48.9657" lon="7.909">
        <ele>199.61</ele>
        <time>2021-07-19T21:30:07Z</time>
      </trkpt>
      <trkpt lat="48.9648" lon="7.9074">
        <ele>189.04</ele>
        <time>2021-07-19T21:30:19Z</time>
      </trkpt>
      <trkpt lat="48.96377" lon="7.90572">
        <ele>184.23</ele>
        <time>2021-07-19T21:30:32Z</time>
      </trkpt>
      <trkpt lat="48.96296" lon="7.90438">
        <ele>180.38</ele>
        <time>2021-07-19T21:30:42Z</time>
      </trkpt>
      <trkpt lat="48.96287" lon="7.90429">
        <ele>179.9</ele>
        <time>2021-07-19T21:30:43Z</time>
      </trkpt>
      <trkpt lat="48.96277" lon="7.9042">
        <ele>179.9</ele>
        <time>2021-07-19T21:30:44Z</time>
      </trkpt>
      <trkpt lat="48.96268" lon="7.90412">
        <ele>179.9</ele>
        <time>2021-07-19T21:30:45Z</time>
      </trkpt>
      <trkpt lat="48.96259" lon="7.90406">
        <ele>180.38</ele>
        <time>2021-07-19T21:30:46Z</time>
      </trkpt>
      <trkpt lat="48.96251" lon="7.90401">
        <ele>180.38</ele>
        <time>2021-07-19T21:30:47Z</time>
      </trkpt>
      <trkpt lat="48.96241" lon="7.90399">
        <ele>180.87</ele>
        <time>2021-07-19T21:30:48Z</time>
      </trkpt>
      <trkpt lat="48.96229" lon="7.90399">
        <ele>180.87</ele>
        <time>2021-07-19T21:30:49Z</time>
      </trkpt>
      <trkpt lat="48.96209" lon="7.9041">
        <ele>181.35</ele>
        <time>2021-07-19T21:30:50Z</time>
      </trkpt>
      <trkpt lat="48.96199" lon="7.90416">
        <ele>180.38</ele>
        <time>2021-07-19T21:30:51Z</time>
      </trkpt>
      <trkpt lat="48.96199" lon="7.90416">
        <ele>179.42</ele>
        <time>2021-07-19T21:30:52Z</time>
      </trkpt>
      <trkpt lat="48.96055" lon="7.90509">
        <ele>178.94</ele>
        <time>2021-07-19T21:31:05Z</time>
      </trkpt>
      <trkpt lat="48.96037" lon="7.90518">
        <ele>179.42</ele>
        <time>2021-07-19T21:31:07Z</time>
      </trkpt>
      <trkpt lat="48.96029" lon="7.9052">
        <ele>179.9</ele>
        <time>2021-07-19T21:31:08Z</time>
      </trkpt>
      <trkpt lat="48.96021" lon="7.90522">
        <ele>179.9</ele>
        <time>2021-07-19T21:31:09Z</time>
      </trkpt>
      <trkpt lat="48.96014" lon="7.9052">
        <ele>180.38</ele>
        <time>2021-07-19T21:31:10Z</time>
      </trkpt>
      <trkpt lat="48.96006" lon="7.90518">
        <ele>179.9</ele>
        <time>2021-07-19T21:31:11Z</time>
      </trkpt>
      <trkpt lat="48.96002" lon="7.90513">
        <ele>179.42</ele>
        <time>2021-07-19T21:31:12Z</time>
      </trkpt>
      <trkpt lat="48.95995" lon="7.90505">
        <ele>178.94</ele>
        <time>2021-07-19T21:31:13Z</time>
      </trkpt>
      <trkpt lat="48.95987" lon="7.90496">
        <ele>178.46</ele>
        <time>2021-07-19T21:31:14Z</time>
      </trkpt>
      <trkpt lat="48.95981" lon="7.90486">
        <ele>178.46</ele>
        <time>2021-07-19T21:31:15Z</time>
      </trkpt>
      <trkpt lat="48.95921" lon="7.90355">
        <ele>177.02</ele>
        <time>2021-07-19T21:31:24Z</time>
      </trkpt>
      <trkpt lat="48.95891" lon="7.90292">
        <ele>172.21</ele>
        <time>2021-07-19T21:31:32Z</time>
      </trkpt>
      <trkpt lat="48.95877" lon="7.90267">
        <ele>170.77</ele>
        <time>2021-07-19T21:31:44Z</time>
      </trkpt>
      <trkpt lat="48.95849" lon="7.90234">
        <ele>170.29</ele>
        <time>2021-07-19T21:31:55Z</time>
      </trkpt>
      <trkpt lat="48.95803" lon="7.90193">
        <ele>167.89</ele>
        <time>2021-07-19T21:32:09Z</time>
      </trkpt>
      <trkpt lat="48.95771" lon="7.90181">
        <ele>167.89</ele>
        <time>2021-07-19T21:32:15Z</time>
      </trkpt>
      <trkpt lat="48.95766" lon="7.90184">
        <ele>167.89</ele>
        <time>2021-07-19T21:32:17Z</time>
      </trkpt>
      <trkpt lat="48.95761" lon="7.90187">
        <ele>167.89</ele>
        <time>2021-07-19T21:32:18Z</time>
      </trkpt>
      <trkpt lat="48.95755" lon="7.90191">
        <ele>167.89</ele>
        <time>2021-07-19T21:32:19Z</time>
      </trkpt>
      <trkpt lat="48.95724" lon="7.90224">
        <ele>166.45</ele>
        <time>2021-07-19T21:32:25Z</time>
      </trkpt>
      <trkpt lat="48.95718" lon="7.90231">
        <ele>165.96</ele>
        <time>2021-07-19T21:32:26Z</time>
      </trkpt>
      <trkpt lat="48.95712" lon="7.90238">
        <ele>165.48</ele>
        <time>2021-07-19T21:32:27Z</time>
      </trkpt>
      <trkpt lat="48.95696" lon="7.90246">
        <ele>165</ele>
        <time>2021-07-19T21:32:28Z</time>
      </trkpt>
      <trkpt lat="48.95696" lon="7.90246">
        <ele>163.56</ele>
        <time>2021-07-19T21:32:29Z</time>
      </trkpt>
      <trkpt lat="48.95687" lon="7.90246">
        <ele>162.6</ele>
        <time>2021-07-19T21:32:30Z</time>
      </trkpt>
      <trkpt lat="48.9568" lon="7.90243">
        <ele>162.12</ele>
        <time>2021-07-19T21:32:31Z</time>
      </trkpt>
      <trkpt lat="48.95672" lon="7.90239">
        <ele>161.64</ele>
        <time>2021-07-19T21:32:32Z</time>
      </trkpt>
      <trkpt lat="48.95623" lon="7.90206">
        <ele>161.16</ele>
        <time>2021-07-19T21:32:41Z</time>
      </trkpt>
      <trkpt lat="48.9562" lon="7.90202">
        <ele>161.16</ele>
        <time>2021-07-19T21:32:52Z</time>
      </trkpt>
      <trkpt lat="48.95618" lon="7.90199">
        <ele>161.16</ele>
        <time>2021-07-19T21:33:13Z</time>
      </trkpt>
      <trkpt lat="48.95618" lon="7.90199">
        <ele>161.16</ele>
        <time>2021-07-19T21:33:14Z</time>
      </trkpt>
      <trkpt lat="48.95612" lon="7.90199">
        <ele>161.16</ele>
        <time>2021-07-19T21:33:15Z</time>
      </trkpt>
      <trkpt lat="48.95612" lon="7.90199">
        <ele>161.16</ele>
        <time>2021-07-19T21:33:16Z</time>
      </trkpt>
      <trkpt lat="48.95609" lon="7.90203">
        <ele>161.64</ele>
        <time>2021-07-19T21:33:17Z</time>
      </trkpt>
      <trkpt lat="48.95606" lon="7.90208">
        <ele>161.64</ele>
        <time>2021-07-19T21:33:18Z</time>
      </trkpt>
      <trkpt lat="48.95602" lon="7.90214">
        <ele>161.64</ele>
        <time>2021-07-19T21:33:19Z</time>
      </trkpt>
      <trkpt lat="48.95565" lon="7.90267">
        <ele>163.56</ele>
        <time>2021-07-19T21:33:28Z</time>
      </trkpt>
      <trkpt lat="48.95558" lon="7.90278">
        <ele>163.56</ele>
        <time>2021-07-19T21:33:40Z</time>
      </trkpt>
      <trkpt lat="48.95543" lon="7.90299">
        <ele>164.04</ele>
        <time>2021-07-19T21:34:21Z</time>
      </trkpt>
      <trkpt lat="48.95506" lon="7.90363">
        <ele>164.52</ele>
        <time>2021-07-19T21:34:30Z</time>
      </trkpt>
      <trkpt lat="48.95452" lon="7.90513">
        <ele>163.08</ele>
        <time>2021-07-19T21:34:42Z</time>
      </trkpt>
      <trkpt lat="48.95429" lon="7.90566">
        <ele>163.56</ele>
        <time>2021-07-19T21:34:50Z</time>
      </trkpt>
      <trkpt lat="48.95426" lon="7.90574">
        <ele>164.04</ele>
        <time>2021-07-19T21:34:56Z</time>
      </trkpt>
      <trkpt lat="48.95426" lon="7.90579">
        <ele>164.52</ele>
        <time>2021-07-19T21:34:57Z</time>
      </trkpt>
      <trkpt lat="48.95426" lon="7.90586">
        <ele>164.52</ele>
        <time>2021-07-19T21:34:58Z</time>
      </trkpt>
      <trkpt lat="48.95424" lon="7.90621">
        <ele>167.41</ele>
        <time>2021-07-19T21:35:02Z</time>
      </trkpt>
      <trkpt lat="48.95422" lon="7.90633">
        <ele>168.37</ele>
        <time>2021-07-19T21:35:03Z</time>
      </trkpt>
      <trkpt lat="48.95419" lon="7.90645">
        <ele>169.33</ele>
        <time>2021-07-19T21:35:04Z</time>
      </trkpt>
      <trkpt lat="48.95412" lon="7.90669">
        <ele>169.81</ele>
        <time>2021-07-19T21:35:05Z</time>
      </trkpt>
      <trkpt lat="48.95412" lon="7.90669">
        <ele>170.77</ele>
        <time>2021-07-19T21:35:06Z</time>
      </trkpt>
      <trkpt lat="48.95407" lon="7.9068">
        <ele>171.25</ele>
        <time>2021-07-19T21:35:07Z</time>
      </trkpt>
      <trkpt lat="48.95402" lon="7.9069">
        <ele>171.73</ele>
        <time>2021-07-19T21:35:08Z</time>
      </trkpt>
      <trkpt lat="48.95327" lon="7.90851">
        <ele>172.21</ele>
        <time>2021-07-19T21:35:22Z</time>
      </trkpt>
      <trkpt lat="48.95269" lon="7.91032">
        <ele>174.14</ele>
        <time>2021-07-19T21:35:33Z</time>
      </trkpt>
      <trkpt lat="48.95226" lon="7.91281">
        <ele>172.69</ele>
        <time>2021-07-19T21:35:48Z</time>
      </trkpt>
      <trkpt lat="48.95187" lon="7.91375">
        <ele>169.81</ele>
        <time>2021-07-19T21:35:56Z</time>
      </trkpt>
      <trkpt lat="48.95183" lon="7.91391">
        <ele>168.85</ele>
        <time>2021-07-19T21:36:02Z</time>
      </trkpt>
      <trkpt lat="48.95184" lon="7.91397">
        <ele>168.37</ele>
        <time>2021-07-19T21:36:03Z</time>
      </trkpt>
      <trkpt lat="48.95186" lon="7.91404">
        <ele>167.89</ele>
        <time>2021-07-19T21:36:04Z</time>
      </trkpt>
      <trkpt lat="48.95188" lon="7.91413">
        <ele>167.41</ele>
        <time>2021-07-19T21:36:05Z</time>
      </trkpt>
      <trkpt lat="48.95192" lon="7.91418">
        <ele>166.93</ele>
        <time>2021-07-19T21:36:06Z</time>
      </trkpt>
      <trkpt lat="48.95196" lon="7.91426">
        <ele>166.45</ele>
        <time>2021-07-19T21:36:07Z</time>
      </trkpt>
      <trkpt lat="48.95201" lon="7.91434">
        <ele>165.96</ele>
        <time>2021-07-19T21:36:08Z</time>
      </trkpt>
      <trkpt lat="48.95295" lon="7.91566">
        <ele>153.95</ele>
        <time>2021-07-19T21:36:21Z</time>
      </trkpt>
      <trkpt lat="48.95378" lon="7.91706">
        <ele>146.26</ele>
        <time>2021-07-19T21:36:32Z</time>
      </trkpt>
      <trkpt lat="48.95431" lon="7.91753">
        <ele>151.54</ele>
        <time>2021-07-19T21:36:38Z</time>
      </trkpt>
      <trkpt lat="48.9544" lon="7.91758">
        <ele>152.03</ele>
        <time>2021-07-19T21:36:39Z</time>
      </trkpt>
      <trkpt lat="48.95502" lon="7.91783">
        <ele>157.31</ele>
        <time>2021-07-19T21:36:45Z</time>
      </trkpt>
      <trkpt lat="48.9551" lon="7.9179">
        <ele>157.79</ele>
        <time>2021-07-19T21:36:46Z</time>
      </trkpt>
      <trkpt lat="48.95518" lon="7.91798">
        <ele>158.27</ele>
        <time>2021-07-19T21:36:47Z</time>
      </trkpt>
      <trkpt lat="48.95526" lon="7.91805">
        <ele>159.24</ele>
        <time>2021-07-19T21:36:48Z</time>
      </trkpt>
      <trkpt lat="48.95533" lon="7.91812">
        <ele>159.72</ele>
        <time>2021-07-19T21:36:49Z</time>
      </trkpt>
      <trkpt lat="48.95571" lon="7.91862">
        <ele>164.04</ele>
        <time>2021-07-19T21:36:56Z</time>
      </trkpt>
      <trkpt lat="48.95575" lon="7.91867">
        <ele>164.52</ele>
        <time>2021-07-19T21:36:57Z</time>
      </trkpt>
      <trkpt lat="48.95578" lon="7.91872">
        <ele>164.52</ele>
        <time>2021-07-19T21:36:58Z</time>
      </trkpt>
      <trkpt lat="48.956" lon="7.91901">
        <ele>166.93</ele>
        <time>2021-07-19T21:37:07Z</time>
      </trkpt>
      <trkpt lat="48.95646" lon="7.91964">
        <ele>168.37</ele>
        <time>2021-07-19T21:37:14Z</time>
      </trkpt>
      <trkpt lat="48.95754" lon="7.92118">
        <ele>176.54</ele>
        <time>2021-07-19T21:37:25Z</time>
      </trkpt>
      <trkpt lat="48.95822" lon="7.92196">
        <ele>182.79</ele>
        <time>2021-07-19T21:37:32Z</time>
      </trkpt>
      <trkpt lat="48.95844" lon="7.92217">
        <ele>184.23</ele>
        <time>2021-07-19T21:37:36Z</time>
      </trkpt>
      <trkpt lat="48.95848" lon="7.92221">
        <ele>184.23</ele>
        <time>2021-07-19T21:37:37Z</time>
      </trkpt>
      <trkpt lat="48.95851" lon="7.92223">
        <ele>184.23</ele>
        <time>2021-07-19T21:37:38Z</time>
      </trkpt>
      <trkpt lat="48.9586" lon="7.92254">
        <ele>183.75</ele>
        <time>2021-07-19T21:37:45Z</time>
      </trkpt>
      <trkpt lat="48.95865" lon="7.92248">
        <ele>183.75</ele>
        <time>2021-07-19T21:37:46Z</time>
      </trkpt>
      <trkpt lat="48.95868" lon="7.92246">
        <ele>183.75</ele>
        <time>2021-07-19T21:37:47Z</time>
      </trkpt>
      <trkpt lat="48.95868" lon="7.92241">
        <ele>183.27</ele>
        <time>2021-07-19T21:37:48Z</time>
      </trkpt>
      <trkpt lat="48.95868" lon="7.92241">
        <ele>183.27</ele>
        <time>2021-07-19T21:37:49Z</time>
      </trkpt>
      <trkpt lat="48.95868" lon="7.92237">
        <ele>183.75</ele>
        <time>2021-07-19T21:37:50Z</time>
      </trkpt>
      <trkpt lat="48.95867" lon="7.92226">
        <ele>184.23</ele>
        <time>2021-07-19T21:37:56Z</time>
      </trkpt>
      <trkpt lat="48.95867" lon="7.92226">
        <ele>184.71</ele>
        <time>2021-07-19T21:37:57Z</time>
      </trkpt>
      <trkpt lat="48.95864" lon="7.92222">
        <ele>184.71</ele>
        <time>2021-07-19T21:37:58Z</time>
      </trkpt>
      <trkpt lat="48.9586" lon="7.92217">
        <ele>184.23</ele>
        <time>2021-07-19T21:38:00Z</time>
      </trkpt>
      <trkpt lat="48.95847" lon="7.9222">
        <ele>184.23</ele>
        <time>2021-07-19T21:38:01Z</time>
      </trkpt>
      <trkpt lat="48.95841" lon="7.92214">
        <ele>183.75</ele>
        <time>2021-07-19T21:38:02Z</time>
      </trkpt>
      <trkpt lat="48.95765" lon="7.92132">
        <ele>179.42</ele>
        <time>2021-07-19T21:38:10Z</time>
      </trkpt>
      <trkpt lat="48.95659" lon="7.91983">
        <ele>171.73</ele>
        <time>2021-07-19T21:38:20Z</time>
      </trkpt>
      <trkpt lat="48.95575" lon="7.91868">
        <ele>166.93</ele>
        <time>2021-07-19T21:38:29Z</time>
      </trkpt>
      <trkpt lat="48.95568" lon="7.91858">
        <ele>166.45</ele>
        <time>2021-07-19T21:38:30Z</time>
      </trkpt>
      <trkpt lat="48.95518" lon="7.91797">
        <ele>159.24</ele>
        <time>2021-07-19T21:38:36Z</time>
      </trkpt>
      <trkpt lat="48.95508" lon="7.91788">
        <ele>157.79</ele>
        <time>2021-07-19T21:38:37Z</time>
      </trkpt>
      <trkpt lat="48.95482" lon="7.91775">
        <ele>154.91</ele>
        <time>2021-07-19T21:38:38Z</time>
      </trkpt>
      <trkpt lat="48.9543" lon="7.91752">
        <ele>153.47</ele>
        <time>2021-07-19T21:38:43Z</time>
      </trkpt>
      <trkpt lat="48.95418" lon="7.91744">
        <ele>152.99</ele>
        <time>2021-07-19T21:38:44Z</time>
      </trkpt>
      <trkpt lat="48.95407" lon="7.91737">
        <ele>152.51</ele>
        <time>2021-07-19T21:38:45Z</time>
      </trkpt>
      <trkpt lat="48.95396" lon="7.91726">
        <ele>151.54</ele>
        <time>2021-07-19T21:38:46Z</time>
      </trkpt>
      <trkpt lat="48.95385" lon="7.91715">
        <ele>151.06</ele>
        <time>2021-07-19T21:38:47Z</time>
      </trkpt>
      <trkpt lat="48.95375" lon="7.91701">
        <ele>150.58</ele>
        <time>2021-07-19T21:38:48Z</time>
      </trkpt>
      <trkpt lat="48.95365" lon="7.91688">
        <ele>151.06</ele>
        <time>2021-07-19T21:38:49Z</time>
      </trkpt>
      <trkpt lat="48.95356" lon="7.91675">
        <ele>152.03</ele>
        <time>2021-07-19T21:38:50Z</time>
      </trkpt>
      <trkpt lat="48.95259" lon="7.91518">
        <ele>161.64</ele>
        <time>2021-07-19T21:39:01Z</time>
      </trkpt>
      <trkpt lat="48.95187" lon="7.91406">
        <ele>171.73</ele>
        <time>2021-07-19T21:39:12Z</time>
      </trkpt>
      <trkpt lat="48.95177" lon="7.91381">
        <ele>172.69</ele>
        <time>2021-07-19T21:39:20Z</time>
      </trkpt>
      <trkpt lat="48.95174" lon="7.91377">
        <ele>173.66</ele>
        <time>2021-07-19T21:39:32Z</time>
      </trkpt>
      <trkpt lat="48.95176" lon="7.9138">
        <ele>173.17</ele>
        <time>2021-07-19T21:39:37Z</time>
      </trkpt>
      <trkpt lat="48.95176" lon="7.9138">
        <ele>173.17</ele>
        <time>2021-07-19T21:39:38Z</time>
      </trkpt>
      <trkpt lat="48.95184" lon="7.91382">
        <ele>173.17</ele>
        <time>2021-07-19T21:39:39Z</time>
      </trkpt>
      <trkpt lat="48.95186" lon="7.91377">
        <ele>173.66</ele>
        <time>2021-07-19T21:39:40Z</time>
      </trkpt>
      <trkpt lat="48.95189" lon="7.91372">
        <ele>173.66</ele>
        <time>2021-07-19T21:39:41Z</time>
      </trkpt>
      <trkpt lat="48.95192" lon="7.91366">
        <ele>174.14</ele>
        <time>2021-07-19T21:39:42Z</time>
      </trkpt>
      <trkpt lat="48.95195" lon="7.91359">
        <ele>174.14</ele>
        <time>2021-07-19T21:39:43Z</time>
      </trkpt>
      <trkpt lat="48.95198" lon="7.91351">
        <ele>174.62</ele>
        <time>2021-07-19T21:39:44Z</time>
      </trkpt>
      <trkpt lat="48.95202" lon="7.91343">
        <ele>174.62</ele>
        <time>2021-07-19T21:39:45Z</time>
      </trkpt>
      <trkpt lat="48.95206" lon="7.91333">
        <ele>175.1</ele>
        <time>2021-07-19T21:39:46Z</time>
      </trkpt>
      <trkpt lat="48.95211" lon="7.91322">
        <ele>175.1</ele>
        <time>2021-07-19T21:39:47Z</time>
      </trkpt>
      <trkpt lat="48.95246" lon="7.91169">
        <ele>176.54</ele>
        <time>2021-07-19T21:39:57Z</time>
      </trkpt>
      <trkpt lat="48.95262" lon="7.91074">
        <ele>177.02</ele>
        <time>2021-07-19T21:40:05Z</time>
      </trkpt>
      <trkpt lat="48.95283" lon="7.90972">
        <ele>175.58</ele>
        <time>2021-07-19T21:40:20Z</time>
      </trkpt>
      <trkpt lat="48.95305" lon="7.90911">
        <ele>175.58</ele>
        <time>2021-07-19T21:40:33Z</time>
      </trkpt>
      <trkpt lat="48.95331" lon="7.90841">
        <ele>175.58</ele>
        <time>2021-07-19T21:40:42Z</time>
      </trkpt>
      <trkpt lat="48.95405" lon="7.90683">
        <ele>172.21</ele>
        <time>2021-07-19T21:40:57Z</time>
      </trkpt>
      <trkpt lat="48.95425" lon="7.90607">
        <ele>167.89</ele>
        <time>2021-07-19T21:41:05Z</time>
      </trkpt>
      <trkpt lat="48.95416" lon="7.90521">
        <ele>163.56</ele>
        <time>2021-07-19T21:41:12Z</time>
      </trkpt>
      <trkpt lat="48.95361" lon="7.90363">
        <ele>153.47</ele>
        <time>2021-07-19T21:41:20Z</time>
      </trkpt>
      <trkpt lat="48.95269" lon="7.90182">
        <ele>144.82</ele>
        <time>2021-07-19T21:41:28Z</time>
      </trkpt>
      <trkpt lat="48.95255" lon="7.90164">
        <ele>144.82</ele>
        <time>2021-07-19T21:41:29Z</time>
      </trkpt>
      <trkpt lat="48.9524" lon="7.90146">
        <ele>144.82</ele>
        <time>2021-07-19T21:41:30Z</time>
      </trkpt>
      <trkpt lat="48.95056" lon="7.90025">
        <ele>145.78</ele>
        <time>2021-07-19T21:41:40Z</time>
      </trkpt>
      <trkpt lat="48.95042" lon="7.9001">
        <ele>146.26</ele>
        <time>2021-07-19T21:41:41Z</time>
      </trkpt>
      <trkpt lat="48.95029" lon="7.8999">
        <ele>146.74</ele>
        <time>2021-07-19T21:41:42Z</time>
      </trkpt>
      <trkpt lat="48.95029" lon="7.8999">
        <ele>147.7</ele>
        <time>2021-07-19T21:41:43Z</time>
      </trkpt>
      <trkpt lat="48.94892" lon="7.89716">
        <ele>155.87</ele>
        <time>2021-07-19T21:41:55Z</time>
      </trkpt>
      <trkpt lat="48.94858" lon="7.89648">
        <ele>157.79</ele>
        <time>2021-07-19T21:41:57Z</time>
      </trkpt>
      <trkpt lat="48.94844" lon="7.8963">
        <ele>158.75</ele>
        <time>2021-07-19T21:41:58Z</time>
      </trkpt>
      <trkpt lat="48.9483" lon="7.89611">
        <ele>159.24</ele>
        <time>2021-07-19T21:41:59Z</time>
      </trkpt>
      <trkpt lat="48.94699" lon="7.8947">
        <ele>168.85</ele>
        <time>2021-07-19T21:42:09Z</time>
      </trkpt>
      <trkpt lat="48.94658" lon="7.89427">
        <ele>172.21</ele>
        <time>2021-07-19T21:42:14Z</time>
      </trkpt>
      <trkpt lat="48.94653" lon="7.89422">
        <ele>172.69</ele>
        <time>2021-07-19T21:42:22Z</time>
      </trkpt>
      <trkpt lat="48.94646" lon="7.89415">
        <ele>173.17</ele>
        <time>2021-07-19T21:42:57Z</time>
      </trkpt>
      <trkpt lat="48.94642" lon="7.8941">
        <ele>173.66</ele>
        <time>2021-07-19T21:42:58Z</time>
      </trkpt>
      <trkpt lat="48.94595" lon="7.89348">
        <ele>177.98</ele>
        <time>2021-07-19T21:43:06Z</time>
      </trkpt>
      <trkpt lat="48.94523" lon="7.89228">
        <ele>178.46</ele>
        <time>2021-07-19T21:43:18Z</time>
      </trkpt>
      <trkpt lat="48.94519" lon="7.89221">
        <ele>178.46</ele>
        <time>2021-07-19T21:43:19Z</time>
      </trkpt>
      <trkpt lat="48.94516" lon="7.89215">
        <ele>177.98</ele>
        <time>2021-07-19T21:43:20Z</time>
      </trkpt>
      <trkpt lat="48.94512" lon="7.89208">
        <ele>177.98</ele>
        <time>2021-07-19T21:43:21Z</time>
      </trkpt>
      <trkpt lat="48.94509" lon="7.89203">
        <ele>177.98</ele>
        <time>2021-07-19T21:43:22Z</time>
      </trkpt>
      <trkpt lat="48.94506" lon="7.89197">
        <ele>177.98</ele>
        <time>2021-07-19T21:43:23Z</time>
      </trkpt>
      <trkpt lat="48.94502" lon="7.89192">
        <ele>178.46</ele>
        <time>2021-07-19T21:43:24Z</time>
      </trkpt>
      <trkpt lat="48.94498" lon="7.89186">
        <ele>178.46</ele>
        <time>2021-07-19T21:43:25Z</time>
      </trkpt>
      <trkpt lat="48.94494" lon="7.89179">
        <ele>178.46</ele>
        <time>2021-07-19T21:43:26Z</time>
      </trkpt>
      <trkpt lat="48.94489" lon="7.89171">
        <ele>177.98</ele>
        <time>2021-07-19T21:43:27Z</time>
      </trkpt>
      <trkpt lat="48.94415" lon="7.8906">
        <ele>174.14</ele>
        <time>2021-07-19T21:43:37Z</time>
      </trkpt>
      <trkpt lat="48.94293" lon="7.88866">
        <ele>167.89</ele>
        <time>2021-07-19T21:43:49Z</time>
      </trkpt>
      <trkpt lat="48.94286" lon="7.88845">
        <ele>166.93</ele>
        <time>2021-07-19T21:43:50Z</time>
      </trkpt>
      <trkpt lat="48.9424" lon="7.88697">
        <ele>165.48</ele>
        <time>2021-07-19T21:43:57Z</time>
      </trkpt>
      <trkpt lat="48.94235" lon="7.88678">
        <ele>165.48</ele>
        <time>2021-07-19T21:43:58Z</time>
      </trkpt>
      <trkpt lat="48.94217" lon="7.88644">
        <ele>164.52</ele>
        <time>2021-07-19T21:43:59Z</time>
      </trkpt>
      <trkpt lat="48.94217" lon="7.88644">
        <ele>164.52</ele>
        <time>2021-07-19T21:44:00Z</time>
      </trkpt>
      <trkpt lat="48.94208" lon="7.88629">
        <ele>165</ele>
        <time>2021-07-19T21:44:01Z</time>
      </trkpt>
      <trkpt lat="48.94198" lon="7.88615">
        <ele>163.56</ele>
        <time>2021-07-19T21:44:02Z</time>
      </trkpt>
      <trkpt lat="48.94178" lon="7.88594">
        <ele>163.08</ele>
        <time>2021-07-19T21:44:03Z</time>
      </trkpt>
      <trkpt lat="48.94178" lon="7.88594">
        <ele>163.08</ele>
        <time>2021-07-19T21:44:04Z</time>
      </trkpt>
      <trkpt lat="48.9408" lon="7.88526">
        <ele>158.27</ele>
        <time>2021-07-19T21:44:15Z</time>
      </trkpt>
      <trkpt lat="48.93955" lon="7.88467">
        <ele>149.14</ele>
        <time>2021-07-19T21:44:30Z</time>
      </trkpt>
      <trkpt lat="48.93889" lon="7.88456">
        <ele>149.14</ele>
        <time>2021-07-19T21:44:39Z</time>
      </trkpt>
      <trkpt lat="48.9378" lon="7.88438">
        <ele>150.1</ele>
        <time>2021-07-19T21:44:54Z</time>
      </trkpt>
      <trkpt lat="48.93766" lon="7.88436">
        <ele>151.54</ele>
        <time>2021-07-19T21:45:01Z</time>
      </trkpt>
      <trkpt lat="48.93745" lon="7.88433">
        <ele>152.03</ele>
        <time>2021-07-19T21:45:15Z</time>
      </trkpt>
      <trkpt lat="48.937" lon="7.88423">
        <ele>152.03</ele>
        <time>2021-07-19T21:45:25Z</time>
      </trkpt>
      <trkpt lat="48.93644" lon="7.8842">
        <ele>150.58</ele>
        <time>2021-07-19T21:45:32Z</time>
      </trkpt>
      <trkpt lat="48.93637" lon="7.88419">
        <ele>150.1</ele>
        <time>2021-07-19T21:45:33Z</time>
      </trkpt>
      <trkpt lat="48.93577" lon="7.88415">
        <ele>148.66</ele>
        <time>2021-07-19T21:45:42Z</time>
      </trkpt>
      <trkpt lat="48.93561" lon="7.88386">
        <ele>145.78</ele>
        <time>2021-07-19T21:45:55Z</time>
      </trkpt>
      <trkpt lat="48.93571" lon="7.88369">
        <ele>144.82</ele>
        <time>2021-07-19T21:46:07Z</time>
      </trkpt>
      <trkpt lat="48.93582" lon="7.88371">
        <ele>143.37</ele>
        <time>2021-07-19T21:46:12Z</time>
      </trkpt>
      <trkpt lat="48.93583" lon="7.88415">
        <ele>142.89</ele>
        <time>2021-07-19T21:46:18Z</time>
      </trkpt>
      <trkpt lat="48.9358" lon="7.88415">
        <ele>142.89</ele>
        <time>2021-07-19T21:46:19Z</time>
      </trkpt>
      <trkpt lat="48.93576" lon="7.88415">
        <ele>142.89</ele>
        <time>2021-07-19T21:46:20Z</time>
      </trkpt>
      <trkpt lat="48.93573" lon="7.88415">
        <ele>142.89</ele>
        <time>2021-07-19T21:46:21Z</time>
      </trkpt>
      <trkpt lat="48.93558" lon="7.88414">
        <ele>143.85</ele>
        <time>2021-07-19T21:46:25Z</time>
      </trkpt>
      <trkpt lat="48.93554" lon="7.88413">
        <ele>144.34</ele>
        <time>2021-07-19T21:46:26Z</time>
      </trkpt>
      <trkpt lat="48.9355" lon="7.88413">
        <ele>144.34</ele>
        <time>2021-07-19T21:46:27Z</time>
      </trkpt>
      <trkpt lat="48.93545" lon="7.88413">
        <ele>143.85</ele>
        <time>2021-07-19T21:46:28Z</time>
      </trkpt>
      <trkpt lat="48.93541" lon="7.88412">
        <ele>143.85</ele>
        <time>2021-07-19T21:46:29Z</time>
      </trkpt>
      <trkpt lat="48.93537" lon="7.88411">
        <ele>144.34</ele>
        <time>2021-07-19T21:46:30Z</time>
      </trkpt>
      <trkpt lat="48.93521" lon="7.88407">
        <ele>145.78</ele>
        <time>2021-07-19T21:46:40Z</time>
      </trkpt>
      <trkpt lat="48.935" lon="7.88396">
        <ele>147.22</ele>
        <time>2021-07-19T21:47:05Z</time>
      </trkpt>
      <trkpt lat="48.93469" lon="7.8838">
        <ele>149.14</ele>
        <time>2021-07-19T21:47:13Z</time>
      </trkpt>
      <trkpt lat="48.93465" lon="7.88378">
        <ele>149.14</ele>
        <time>2021-07-19T21:47:14Z</time>
      </trkpt>
      <trkpt lat="48.93461" lon="7.88377">
        <ele>149.62</ele>
        <time>2021-07-19T21:47:15Z</time>
      </trkpt>
      <trkpt lat="48.93431" lon="7.88376">
        <ele>150.58</ele>
        <time>2021-07-19T21:47:26Z</time>
      </trkpt>
      <trkpt lat="48.93428" lon="7.88379">
        <ele>150.58</ele>
        <time>2021-07-19T21:47:27Z</time>
      </trkpt>
      <trkpt lat="48.93424" lon="7.88382">
        <ele>150.58</ele>
        <time>2021-07-19T21:47:28Z</time>
      </trkpt>
      <trkpt lat="48.93419" lon="7.88386">
        <ele>150.58</ele>
        <time>2021-07-19T21:47:29Z</time>
      </trkpt>
      <trkpt lat="48.93414" lon="7.8839">
        <ele>150.58</ele>
        <time>2021-07-19T21:47:30Z</time>
      </trkpt>
      <trkpt lat="48.93337" lon="7.8848">
        <ele>148.66</ele>
        <time>2021-07-19T21:47:40Z</time>
      </trkpt>
      <trkpt lat="48.93225" lon="7.88637">
        <ele>150.1</ele>
        <time>2021-07-19T21:47:52Z</time>
      </trkpt>
      <trkpt lat="48.93218" lon="7.88654">
        <ele>151.06</ele>
        <time>2021-07-19T21:47:53Z</time>
      </trkpt>
      <trkpt lat="48.93212" lon="7.8867">
        <ele>151.54</ele>
        <time>2021-07-19T21:47:54Z</time>
      </trkpt>
      <trkpt lat="48.93177" lon="7.88833">
        <ele>153.95</ele>
        <time>2021-07-19T21:48:04Z</time>
      </trkpt>
      <trkpt lat="48.93128" lon="7.89077">
        <ele>155.87</ele>
        <time>2021-07-19T21:48:17Z</time>
      </trkpt>
      <trkpt lat="48.93087" lon="7.8929">
        <ele>158.75</ele>
        <time>2021-07-19T21:48:30Z</time>
      </trkpt>
      <trkpt lat="48.93046" lon="7.89503">
        <ele>160.68</ele>
        <time>2021-07-19T21:48:44Z</time>
      </trkpt>
      <trkpt lat="48.93036" lon="7.89527">
        <ele>160.2</ele>
        <time>2021-07-19T21:48:45Z</time>
      </trkpt>
      <trkpt lat="48.93036" lon="7.89527">
        <ele>160.68</ele>
        <time>2021-07-19T21:48:46Z</time>
      </trkpt>
      <trkpt lat="48.93023" lon="7.89548">
        <ele>160.2</ele>
        <time>2021-07-19T21:48:47Z</time>
      </trkpt>
      <trkpt lat="48.93023" lon="7.89548">
        <ele>159.24</ele>
        <time>2021-07-19T21:48:48Z</time>
      </trkpt>
      <trkpt lat="48.93017" lon="7.89554">
        <ele>158.27</ele>
        <time>2021-07-19T21:48:49Z</time>
      </trkpt>
      <trkpt lat="48.9301" lon="7.89562">
        <ele>158.27</ele>
        <time>2021-07-19T21:48:50Z</time>
      </trkpt>
      <trkpt lat="48.93002" lon="7.89569">
        <ele>157.31</ele>
        <time>2021-07-19T21:48:51Z</time>
      </trkpt>
      <trkpt lat="48.92962" lon="7.896">
        <ele>156.35</ele>
        <time>2021-07-19T21:48:58Z</time>
      </trkpt>
      <trkpt lat="48.92928" lon="7.89594">
        <ele>158.75</ele>
        <time>2021-07-19T21:49:10Z</time>
      </trkpt>
      <trkpt lat="48.92912" lon="7.89592">
        <ele>159.72</ele>
        <time>2021-07-19T21:49:13Z</time>
      </trkpt>
      <trkpt lat="48.92907" lon="7.8959">
        <ele>159.72</ele>
        <time>2021-07-19T21:49:14Z</time>
      </trkpt>
      <trkpt lat="48.92902" lon="7.89588">
        <ele>159.72</ele>
        <time>2021-07-19T21:49:15Z</time>
      </trkpt>
      <trkpt lat="48.92898" lon="7.89586">
        <ele>160.2</ele>
        <time>2021-07-19T21:49:16Z</time>
      </trkpt>
      <trkpt lat="48.92894" lon="7.89582">
        <ele>160.2</ele>
        <time>2021-07-19T21:49:17Z</time>
      </trkpt>
      <trkpt lat="48.92892" lon="7.89577">
        <ele>160.2</ele>
        <time>2021-07-19T21:49:18Z</time>
      </trkpt>
      <trkpt lat="48.92889" lon="7.89571">
        <ele>160.2</ele>
        <time>2021-07-19T21:49:19Z</time>
      </trkpt>
      <trkpt lat="48.92869" lon="7.89535">
        <ele>160.68</ele>
        <time>2021-07-19T21:49:31Z</time>
      </trkpt>
      <trkpt lat="48.92869" lon="7.89535">
        <ele>159.24</ele>
        <time>2021-07-19T21:49:44Z</time>
      </trkpt>
      <trkpt lat="48.92875" lon="7.89546">
        <ele>158.75</ele>
        <time>2021-07-19T21:49:55Z</time>
      </trkpt>
      <trkpt lat="48.92875" lon="7.89546">
        <ele>159.24</ele>
        <time>2021-07-19T21:56:39Z</time>
      </trkpt>
      <trkpt lat="48.92875" lon="7.89546">
        <ele>159.24</ele>
        <time>2021-07-19T21:58:20Z</time>
      </trkpt>
      <trkpt lat="48.92875" lon="7.89546">
        <ele>159.24</ele>
        <time>2021-07-19T21:59:38Z</time>
      </trkpt>
      <trkpt lat="48.92875" lon="7.89546">
        <ele>159.72</ele>
        <time>2021-07-19T22:00:30Z</time>
      </trkpt>
      <trkpt lat="48.92875" lon="7.89546">
        <ele>160.2</ele>
        <time>2021-07-19T22:02:10Z</time>
      </trkpt>
      <trkpt lat="48.92875" lon="7.89546">
        <ele>160.2</ele>
        <time>2021-07-19T22:05:31Z</time>
      </trkpt>
      <trkpt lat="48.92878" lon="7.89579">
        <ele>159.24</ele>
        <time>2021-07-19T22:06:26Z</time>
      </trkpt>
      <trkpt lat="48.92873" lon="7.89543">
        <ele>160.2</ele>
        <time>2021-07-19T22:06:36Z</time>
      </trkpt>
      <trkpt lat="48.92869" lon="7.89535">
        <ele>161.64</ele>
        <time>2021-07-19T22:06:46Z</time>
      </trkpt>
      <trkpt lat="48.9284" lon="7.89521">
        <ele>163.56</ele>
        <time>2021-07-19T22:06:58Z</time>
      </trkpt>
      <trkpt lat="48.92845" lon="7.89558">
        <ele>165.96</ele>
        <time>2021-07-19T22:16:26Z</time>
      </trkpt>
      <trkpt lat="48.92844" lon="7.8956">
        <ele>177.98</ele>
        <time>2021-07-19T22:16:49Z</time>
      </trkpt>
      <trkpt lat="48.92846" lon="7.89557">
        <ele>176.54</ele>
        <time>2021-07-19T22:17:47Z</time>
      </trkpt>
      <trkpt lat="48.92845" lon="7.89558">
        <ele>176.54</ele>
        <time>2021-07-19T22:18:13Z</time>
      </trkpt>
      <trkpt lat="48.92847" lon="7.89567">
        <ele>177.02</ele>
        <time>2021-07-19T22:18:18Z</time>
      </trkpt>
      <trkpt lat="48.92875" lon="7.89582">
        <ele>176.06</ele>
        <time>2021-07-19T22:18:33Z</time>
      </trkpt>
      <trkpt lat="48.92891" lon="7.89577">
        <ele>174.62</ele>
        <time>2021-07-19T22:18:38Z</time>
      </trkpt>
      <trkpt lat="48.92894" lon="7.89581">
        <ele>173.66</ele>
        <time>2021-07-19T22:18:39Z</time>
      </trkpt>
      <trkpt lat="48.92901" lon="7.89592">
        <ele>173.66</ele>
        <time>2021-07-19T22:18:40Z</time>
      </trkpt>
      <trkpt lat="48.92906" lon="7.89606">
        <ele>173.17</ele>
        <time>2021-07-19T22:18:43Z</time>
      </trkpt>
      <trkpt lat="48.92909" lon="7.89613">
        <ele>173.17</ele>
        <time>2021-07-19T22:18:44Z</time>
      </trkpt>
      <trkpt lat="48.92916" lon="7.89633">
        <ele>173.17</ele>
        <time>2021-07-19T22:18:47Z</time>
      </trkpt>
      <trkpt lat="48.92921" lon="7.89646">
        <ele>173.17</ele>
        <time>2021-07-19T22:18:48Z</time>
      </trkpt>
      <trkpt lat="48.92921" lon="7.89646">
        <ele>173.17</ele>
        <time>2021-07-19T22:18:49Z</time>
      </trkpt>
      <trkpt lat="48.92925" lon="7.8965">
        <ele>172.69</ele>
        <time>2021-07-19T22:18:50Z</time>
      </trkpt>
      <trkpt lat="48.9293" lon="7.89652">
        <ele>172.69</ele>
        <time>2021-07-19T22:18:51Z</time>
      </trkpt>
      <trkpt lat="48.92935" lon="7.89653">
        <ele>172.21</ele>
        <time>2021-07-19T22:18:52Z</time>
      </trkpt>
      <trkpt lat="48.9294" lon="7.89652">
        <ele>172.21</ele>
        <time>2021-07-19T22:18:53Z</time>
      </trkpt>
      <trkpt lat="48.92945" lon="7.89651">
        <ele>171.73</ele>
        <time>2021-07-19T22:18:54Z</time>
      </trkpt>
      <trkpt lat="48.92949" lon="7.89645">
        <ele>171.73</ele>
        <time>2021-07-19T22:18:55Z</time>
      </trkpt>
      <trkpt lat="48.92953" lon="7.89638">
        <ele>171.73</ele>
        <time>2021-07-19T22:18:56Z</time>
      </trkpt>
      <trkpt lat="48.92957" lon="7.89632">
        <ele>171.73</ele>
        <time>2021-07-19T22:18:57Z</time>
      </trkpt>
      <trkpt lat="48.92957" lon="7.89632">
        <ele>171.73</ele>
        <time>2021-07-19T22:18:58Z</time>
      </trkpt>
      <trkpt lat="48.92961" lon="7.89601">
        <ele>171.73</ele>
        <time>2021-07-19T22:18:59Z</time>
      </trkpt>
      <trkpt lat="48.92967" lon="7.89596">
        <ele>171.73</ele>
        <time>2021-07-19T22:19:00Z</time>
      </trkpt>
      <trkpt lat="48.92974" lon="7.89591">
        <ele>172.21</ele>
        <time>2021-07-19T22:19:01Z</time>
      </trkpt>
      <trkpt lat="48.93038" lon="7.89523">
        <ele>176.54</ele>
        <time>2021-07-19T22:19:12Z</time>
      </trkpt>
      <trkpt lat="48.93041" lon="7.89517">
        <ele>177.02</ele>
        <time>2021-07-19T22:19:13Z</time>
      </trkpt>
      <trkpt lat="48.93044" lon="7.89509">
        <ele>177.02</ele>
        <time>2021-07-19T22:19:14Z</time>
      </trkpt>
      <trkpt lat="48.93068" lon="7.89397">
        <ele>176.54</ele>
        <time>2021-07-19T22:19:27Z</time>
      </trkpt>
      <trkpt lat="48.93095" lon="7.89251">
        <ele>172.69</ele>
        <time>2021-07-19T22:19:41Z</time>
      </trkpt>
      <trkpt lat="48.93126" lon="7.8909">
        <ele>167.41</ele>
        <time>2021-07-19T22:19:57Z</time>
      </trkpt>
      <trkpt lat="48.93152" lon="7.88953">
        <ele>165</ele>
        <time>2021-07-19T22:20:11Z</time>
      </trkpt>
      <trkpt lat="48.93171" lon="7.88859">
        <ele>165</ele>
        <time>2021-07-19T22:20:22Z</time>
      </trkpt>
      <trkpt lat="48.93222" lon="7.88644">
        <ele>161.64</ele>
        <time>2021-07-19T22:20:39Z</time>
      </trkpt>
      <trkpt lat="48.93305" lon="7.88518">
        <ele>159.24</ele>
        <time>2021-07-19T22:20:50Z</time>
      </trkpt>
      <trkpt lat="48.93387" lon="7.88419">
        <ele>155.87</ele>
        <time>2021-07-19T22:21:03Z</time>
      </trkpt>
      <trkpt lat="48.93423" lon="7.88383">
        <ele>153.95</ele>
        <time>2021-07-19T22:21:11Z</time>
      </trkpt>
      <trkpt lat="48.93428" lon="7.88379">
        <ele>153.47</ele>
        <time>2021-07-19T22:21:12Z</time>
      </trkpt>
      <trkpt lat="48.93431" lon="7.88376">
        <ele>153.95</ele>
        <time>2021-07-19T22:21:13Z</time>
      </trkpt>
      <trkpt lat="48.93434" lon="7.88374">
        <ele>155.39</ele>
        <time>2021-07-19T22:21:26Z</time>
      </trkpt>
      <trkpt lat="48.93439" lon="7.88374">
        <ele>154.91</ele>
        <time>2021-07-19T22:21:34Z</time>
      </trkpt>
      <trkpt lat="48.93443" lon="7.88374">
        <ele>154.91</ele>
        <time>2021-07-19T22:21:35Z</time>
      </trkpt>
      <trkpt lat="48.93447" lon="7.88374">
        <ele>154.91</ele>
        <time>2021-07-19T22:21:36Z</time>
      </trkpt>
      <trkpt lat="48.93474" lon="7.88382">
        <ele>153.47</ele>
        <time>2021-07-19T22:21:42Z</time>
      </trkpt>
      <trkpt lat="48.93478" lon="7.88384">
        <ele>153.47</ele>
        <time>2021-07-19T22:21:43Z</time>
      </trkpt>
      <trkpt lat="48.9355" lon="7.88413">
        <ele>150.1</ele>
        <time>2021-07-19T22:21:55Z</time>
      </trkpt>
      <trkpt lat="48.93643" lon="7.88419">
        <ele>149.62</ele>
        <time>2021-07-19T22:22:07Z</time>
      </trkpt>
      <trkpt lat="48.9371" lon="7.88426">
        <ele>150.58</ele>
        <time>2021-07-19T22:22:15Z</time>
      </trkpt>
      <trkpt lat="48.9373" lon="7.8843">
        <ele>152.03</ele>
        <time>2021-07-19T22:22:19Z</time>
      </trkpt>
      <trkpt lat="48.93734" lon="7.88431">
        <ele>152.51</ele>
        <time>2021-07-19T22:22:20Z</time>
      </trkpt>
      <trkpt lat="48.93761" lon="7.88435">
        <ele>152.51</ele>
        <time>2021-07-19T22:22:28Z</time>
      </trkpt>
      <trkpt lat="48.9384" lon="7.88447">
        <ele>151.06</ele>
        <time>2021-07-19T22:22:39Z</time>
      </trkpt>
      <trkpt lat="48.93949" lon="7.88466">
        <ele>150.1</ele>
        <time>2021-07-19T22:22:50Z</time>
      </trkpt>
      <trkpt lat="48.94046" lon="7.88506">
        <ele>159.24</ele>
        <time>2021-07-19T22:23:00Z</time>
      </trkpt>
      <trkpt lat="48.94106" lon="7.88542">
        <ele>162.6</ele>
        <time>2021-07-19T22:23:10Z</time>
      </trkpt>
      <trkpt lat="48.94111" lon="7.88546">
        <ele>163.08</ele>
        <time>2021-07-19T22:23:20Z</time>
      </trkpt>
      <trkpt lat="48.94131" lon="7.8856">
        <ele>164.52</ele>
        <time>2021-07-19T22:27:07Z</time>
      </trkpt>
      <trkpt lat="48.9414" lon="7.88565">
        <ele>165.48</ele>
        <time>2021-07-19T22:27:10Z</time>
      </trkpt>
      <trkpt lat="48.94142" lon="7.88566">
        <ele>165.48</ele>
        <time>2021-07-19T22:27:11Z</time>
      </trkpt>
      <trkpt lat="48.94143" lon="7.88567">
        <ele>165.48</ele>
        <time>2021-07-19T22:27:12Z</time>
      </trkpt>
      <trkpt lat="48.94146" lon="7.88554">
        <ele>165.96</ele>
        <time>2021-07-19T22:27:22Z</time>
      </trkpt>
      <trkpt lat="48.94144" lon="7.88555">
        <ele>166.45</ele>
        <time>2021-07-19T22:27:26Z</time>
      </trkpt>
      <trkpt lat="48.94132" lon="7.8856">
        <ele>165.96</ele>
        <time>2021-07-19T22:27:30Z</time>
      </trkpt>
      <trkpt lat="48.94065" lon="7.88517">
        <ele>160.68</ele>
        <time>2021-07-19T22:27:40Z</time>
      </trkpt>
      <trkpt lat="48.93946" lon="7.88465">
        <ele>152.51</ele>
        <time>2021-07-19T22:27:56Z</time>
      </trkpt>
      <trkpt lat="48.93853" lon="7.88449">
        <ele>151.54</ele>
        <time>2021-07-19T22:28:09Z</time>
      </trkpt>
      <trkpt lat="48.93774" lon="7.88437">
        <ele>153.95</ele>
        <time>2021-07-19T22:28:21Z</time>
      </trkpt>
      <trkpt lat="48.93768" lon="7.88436">
        <ele>154.43</ele>
        <time>2021-07-19T22:28:32Z</time>
      </trkpt>
      <trkpt lat="48.93715" lon="7.88427">
        <ele>154.91</ele>
        <time>2021-07-19T22:28:41Z</time>
      </trkpt>
      <trkpt lat="48.93608" lon="7.88417">
        <ele>152.99</ele>
        <time>2021-07-19T22:28:54Z</time>
      </trkpt>
      <trkpt lat="48.93551" lon="7.88413">
        <ele>152.99</ele>
        <time>2021-07-19T22:29:07Z</time>
      </trkpt>
      <trkpt lat="48.93538" lon="7.88411">
        <ele>153.47</ele>
        <time>2021-07-19T22:29:10Z</time>
      </trkpt>
      <trkpt lat="48.93533" lon="7.8841">
        <ele>153.47</ele>
        <time>2021-07-19T22:29:11Z</time>
      </trkpt>
      <trkpt lat="48.93528" lon="7.88409">
        <ele>153.95</ele>
        <time>2021-07-19T22:29:12Z</time>
      </trkpt>
      <trkpt lat="48.93523" lon="7.88407">
        <ele>153.95</ele>
        <time>2021-07-19T22:29:13Z</time>
      </trkpt>
      <trkpt lat="48.93518" lon="7.88406">
        <ele>154.43</ele>
        <time>2021-07-19T22:29:14Z</time>
      </trkpt>
      <trkpt lat="48.93503" lon="7.88398">
        <ele>153.95</ele>
        <time>2021-07-19T22:29:22Z</time>
      </trkpt>
      <trkpt lat="48.93487" lon="7.88389">
        <ele>154.43</ele>
        <time>2021-07-19T22:29:55Z</time>
      </trkpt>
      <trkpt lat="48.93484" lon="7.88388">
        <ele>154.43</ele>
        <time>2021-07-19T22:29:58Z</time>
      </trkpt>
      <trkpt lat="48.93481" lon="7.88386">
        <ele>154.91</ele>
        <time>2021-07-19T22:29:59Z</time>
      </trkpt>
      <trkpt lat="48.93447" lon="7.88374">
        <ele>155.87</ele>
        <time>2021-07-19T22:30:09Z</time>
      </trkpt>
      <trkpt lat="48.93431" lon="7.88338">
        <ele>156.83</ele>
        <time>2021-07-19T22:30:18Z</time>
      </trkpt>
      <trkpt lat="48.93428" lon="7.88306">
        <ele>158.75</ele>
        <time>2021-07-19T22:30:22Z</time>
      </trkpt>
      <trkpt lat="48.93426" lon="7.88296">
        <ele>159.24</ele>
        <time>2021-07-19T22:30:23Z</time>
      </trkpt>
      <trkpt lat="48.93424" lon="7.88285">
        <ele>160.2</ele>
        <time>2021-07-19T22:30:24Z</time>
      </trkpt>
      <trkpt lat="48.93421" lon="7.88274">
        <ele>160.68</ele>
        <time>2021-07-19T22:30:25Z</time>
      </trkpt>
      <trkpt lat="48.93416" lon="7.88263">
        <ele>161.64</ele>
        <time>2021-07-19T22:30:26Z</time>
      </trkpt>
      <trkpt lat="48.93391" lon="7.8821">
        <ele>162.6</ele>
        <time>2021-07-19T22:30:32Z</time>
      </trkpt>
      <trkpt lat="48.93393" lon="7.88208">
        <ele>162.6</ele>
        <time>2021-07-19T22:30:35Z</time>
      </trkpt>
      <trkpt lat="48.93393" lon="7.88208">
        <ele>162.6</ele>
        <time>2021-07-19T22:30:36Z</time>
      </trkpt>
      <trkpt lat="48.93394" lon="7.88204">
        <ele>162.6</ele>
        <time>2021-07-19T22:30:37Z</time>
      </trkpt>
      <trkpt lat="48.93398" lon="7.88187">
        <ele>162.12</ele>
        <time>2021-07-19T22:30:40Z</time>
      </trkpt>
      <trkpt lat="48.93399" lon="7.8818">
        <ele>161.16</ele>
        <time>2021-07-19T22:30:41Z</time>
      </trkpt>
      <trkpt lat="48.9342" lon="7.88067">
        <ele>152.03</ele>
        <time>2021-07-19T22:30:55Z</time>
      </trkpt>
      <trkpt lat="48.93433" lon="7.87926">
        <ele>146.74</ele>
        <time>2021-07-19T22:31:08Z</time>
      </trkpt>
      <trkpt lat="48.93436" lon="7.87901">
        <ele>150.1</ele>
        <time>2021-07-19T22:31:17Z</time>
      </trkpt>
      <trkpt lat="48.93457" lon="7.87801">
        <ele>152.99</ele>
        <time>2021-07-19T22:31:30Z</time>
      </trkpt>
      <trkpt lat="48.93458" lon="7.87752">
        <ele>153.47</ele>
        <time>2021-07-19T22:31:39Z</time>
      </trkpt>
      <trkpt lat="48.93421" lon="7.87737">
        <ele>155.87</ele>
        <time>2021-07-19T22:31:48Z</time>
      </trkpt>
      <trkpt lat="48.93412" lon="7.87704">
        <ele>156.83</ele>
        <time>2021-07-19T22:31:57Z</time>
      </trkpt>
      <trkpt lat="48.93413" lon="7.87659">
        <ele>157.79</ele>
        <time>2021-07-19T22:32:02Z</time>
      </trkpt>
      <trkpt lat="48.93414" lon="7.87646">
        <ele>157.31</ele>
        <time>2021-07-19T22:32:03Z</time>
      </trkpt>
      <trkpt lat="48.93414" lon="7.87646">
        <ele>157.31</ele>
        <time>2021-07-19T22:32:04Z</time>
      </trkpt>
      <trkpt lat="48.9341" lon="7.87642">
        <ele>157.31</ele>
        <time>2021-07-19T22:32:05Z</time>
      </trkpt>
      <trkpt lat="48.93407" lon="7.87639">
        <ele>158.27</ele>
        <time>2021-07-19T22:32:06Z</time>
      </trkpt>
      <trkpt lat="48.93403" lon="7.87636">
        <ele>158.27</ele>
        <time>2021-07-19T22:32:07Z</time>
      </trkpt>
      <trkpt lat="48.93366" lon="7.87613">
        <ele>159.24</ele>
        <time>2021-07-19T22:32:16Z</time>
      </trkpt>
      <trkpt lat="48.93366" lon="7.87613">
        <ele>159.72</ele>
        <time>2021-07-19T22:32:23Z</time>
      </trkpt>
      <trkpt lat="48.93363" lon="7.87611">
        <ele>159.72</ele>
        <time>2021-07-19T22:32:24Z</time>
      </trkpt>
      <trkpt lat="48.93361" lon="7.87605">
        <ele>160.2</ele>
        <time>2021-07-19T22:32:25Z</time>
      </trkpt>
      <trkpt lat="48.9336" lon="7.87608">
        <ele>160.2</ele>
        <time>2021-07-19T22:32:26Z</time>
      </trkpt>
      <trkpt lat="48.9336" lon="7.87612">
        <ele>160.2</ele>
        <time>2021-07-19T22:32:27Z</time>
      </trkpt>
      <trkpt lat="48.9336" lon="7.87618">
        <ele>160.2</ele>
        <time>2021-07-19T22:32:28Z</time>
      </trkpt>
      <trkpt lat="48.93358" lon="7.87681">
        <ele>158.27</ele>
        <time>2021-07-19T22:32:35Z</time>
      </trkpt>
      <trkpt lat="48.93358" lon="7.8769">
        <ele>158.75</ele>
        <time>2021-07-19T22:32:36Z</time>
      </trkpt>
      <trkpt lat="48.93358" lon="7.87697">
        <ele>158.75</ele>
        <time>2021-07-19T22:32:37Z</time>
      </trkpt>
      <trkpt lat="48.93358" lon="7.87702">
        <ele>158.27</ele>
        <time>2021-07-19T22:32:38Z</time>
      </trkpt>
      <trkpt lat="48.9336" lon="7.8771">
        <ele>158.27</ele>
        <time>2021-07-19T22:32:39Z</time>
      </trkpt>
      <trkpt lat="48.93363" lon="7.87711">
        <ele>158.27</ele>
        <time>2021-07-19T22:32:40Z</time>
      </trkpt>
      <trkpt lat="48.93367" lon="7.87713">
        <ele>157.79</ele>
        <time>2021-07-19T22:32:41Z</time>
      </trkpt>
      <trkpt lat="48.93419" lon="7.87736">
        <ele>154.43</ele>
        <time>2021-07-19T22:32:51Z</time>
      </trkpt>
      <trkpt lat="48.93457" lon="7.87752">
        <ele>152.99</ele>
        <time>2021-07-19T22:32:59Z</time>
      </trkpt>
      <trkpt lat="48.93463" lon="7.87757">
        <ele>152.99</ele>
        <time>2021-07-19T22:33:00Z</time>
      </trkpt>
      <trkpt lat="48.93462" lon="7.87763">
        <ele>152.51</ele>
        <time>2021-07-19T22:33:01Z</time>
      </trkpt>
      <trkpt lat="48.93461" lon="7.87771">
        <ele>152.51</ele>
        <time>2021-07-19T22:33:02Z</time>
      </trkpt>
      <trkpt lat="48.9346" lon="7.87782">
        <ele>152.51</ele>
        <time>2021-07-19T22:33:03Z</time>
      </trkpt>
      <trkpt lat="48.93439" lon="7.87882">
        <ele>153.95</ele>
        <time>2021-07-19T22:33:14Z</time>
      </trkpt>
      <trkpt lat="48.93438" lon="7.87883">
        <ele>153.95</ele>
        <time>2021-07-19T22:33:22Z</time>
      </trkpt>
      <trkpt lat="48.93438" lon="7.87883">
        <ele>153.95</ele>
        <time>2021-07-19T22:33:23Z</time>
      </trkpt>
      <trkpt lat="48.93439" lon="7.87876">
        <ele>154.43</ele>
        <time>2021-07-19T22:33:30Z</time>
      </trkpt>
      <trkpt lat="48.93438" lon="7.87876">
        <ele>154.43</ele>
        <time>2021-07-19T22:33:31Z</time>
      </trkpt>
      <trkpt lat="48.93434" lon="7.87875">
        <ele>154.91</ele>
        <time>2021-07-19T22:33:32Z</time>
      </trkpt>
      <trkpt lat="48.93371" lon="7.87858">
        <ele>160.68</ele>
        <time>2021-07-19T22:33:40Z</time>
      </trkpt>
      <trkpt lat="48.93349" lon="7.87853">
        <ele>161.64</ele>
        <time>2021-07-19T22:33:41Z</time>
      </trkpt>
      <trkpt lat="48.93349" lon="7.87853">
        <ele>162.6</ele>
        <time>2021-07-19T22:33:42Z</time>
      </trkpt>
      <trkpt lat="48.9334" lon="7.87857">
        <ele>163.56</ele>
        <time>2021-07-19T22:33:43Z</time>
      </trkpt>
      <trkpt lat="48.9333" lon="7.87861">
        <ele>164.52</ele>
        <time>2021-07-19T22:33:44Z</time>
      </trkpt>
      <trkpt lat="48.93322" lon="7.87866">
        <ele>165.48</ele>
        <time>2021-07-19T22:33:45Z</time>
      </trkpt>
      <trkpt lat="48.93314" lon="7.87876">
        <ele>165.96</ele>
        <time>2021-07-19T22:33:46Z</time>
      </trkpt>
      <trkpt lat="48.93265" lon="7.87939">
        <ele>170.29</ele>
        <time>2021-07-19T22:33:51Z</time>
      </trkpt>
      <trkpt lat="48.93265" lon="7.87939">
        <ele>172.69</ele>
        <time>2021-07-19T22:33:52Z</time>
      </trkpt>
      <trkpt lat="48.93259" lon="7.87947">
        <ele>174.14</ele>
        <time>2021-07-19T22:33:55Z</time>
      </trkpt>
      <trkpt lat="48.93259" lon="7.87947">
        <ele>174.14</ele>
        <time>2021-07-19T22:33:56Z</time>
      </trkpt>
      <trkpt lat="48.93258" lon="7.87952">
        <ele>173.66</ele>
        <time>2021-07-19T22:33:57Z</time>
      </trkpt>
      <trkpt lat="48.93262" lon="7.87958">
        <ele>173.17</ele>
        <time>2021-07-19T22:33:58Z</time>
      </trkpt>
      <trkpt lat="48.93266" lon="7.87967">
        <ele>172.21</ele>
        <time>2021-07-19T22:33:59Z</time>
      </trkpt>
      <trkpt lat="48.93321" lon="7.88075">
        <ele>169.33</ele>
        <time>2021-07-19T22:34:06Z</time>
      </trkpt>
      <trkpt lat="48.93412" lon="7.88254">
        <ele>158.75</ele>
        <time>2021-07-19T22:34:17Z</time>
      </trkpt>
      <trkpt lat="48.93419" lon="7.88269">
        <ele>158.75</ele>
        <time>2021-07-19T22:34:18Z</time>
      </trkpt>
      <trkpt lat="48.93423" lon="7.88283">
        <ele>156.35</ele>
        <time>2021-07-19T22:34:19Z</time>
      </trkpt>
      <trkpt lat="48.93427" lon="7.88299">
        <ele>153.95</ele>
        <time>2021-07-19T22:34:20Z</time>
      </trkpt>
      <trkpt lat="48.93429" lon="7.88315">
        <ele>153.95</ele>
        <time>2021-07-19T22:34:21Z</time>
      </trkpt>
      <trkpt lat="48.93431" lon="7.88325">
        <ele>153.47</ele>
        <time>2021-07-19T22:34:22Z</time>
      </trkpt>
      <trkpt lat="48.93431" lon="7.88336">
        <ele>152.99</ele>
        <time>2021-07-19T22:34:23Z</time>
      </trkpt>
      <trkpt lat="48.93432" lon="7.88344">
        <ele>152.99</ele>
        <time>2021-07-19T22:34:24Z</time>
      </trkpt>
      <trkpt lat="48.93432" lon="7.88353">
        <ele>152.51</ele>
        <time>2021-07-19T22:34:32Z</time>
      </trkpt>
      <trkpt lat="48.9344" lon="7.88374">
        <ele>152.99</ele>
        <time>2021-07-19T22:34:45Z</time>
      </trkpt>
      <trkpt lat="48.93479" lon="7.88385">
        <ele>151.54</ele>
        <time>2021-07-19T22:34:57Z</time>
      </trkpt>
      <trkpt lat="48.93483" lon="7.88387">
        <ele>151.54</ele>
        <time>2021-07-19T22:34:58Z</time>
      </trkpt>
      <trkpt lat="48.93493" lon="7.88392">
        <ele>151.06</ele>
        <time>2021-07-19T22:34:59Z</time>
      </trkpt>
      <trkpt lat="48.93533" lon="7.8841">
        <ele>149.62</ele>
        <time>2021-07-19T22:35:06Z</time>
      </trkpt>
      <trkpt lat="48.9354" lon="7.88411">
        <ele>149.62</ele>
        <time>2021-07-19T22:35:07Z</time>
      </trkpt>
      <trkpt lat="48.93604" lon="7.88417">
        <ele>150.58</ele>
        <time>2021-07-19T22:35:19Z</time>
      </trkpt>
      <trkpt lat="48.93652" lon="7.8842">
        <ele>151.54</ele>
        <time>2021-07-19T22:35:28Z</time>
      </trkpt>
      <trkpt lat="48.93705" lon="7.88424">
        <ele>153.47</ele>
        <time>2021-07-19T22:35:35Z</time>
      </trkpt>
      <trkpt lat="48.93726" lon="7.8843">
        <ele>152.99</ele>
        <time>2021-07-19T22:35:43Z</time>
      </trkpt>
      <trkpt lat="48.9373" lon="7.8843">
        <ele>151.54</ele>
        <time>2021-07-19T22:36:04Z</time>
      </trkpt>
      <trkpt lat="48.93733" lon="7.88431">
        <ele>151.06</ele>
        <time>2021-07-19T22:36:05Z</time>
      </trkpt>
      <trkpt lat="48.93736" lon="7.88443">
        <ele>151.06</ele>
        <time>2021-07-19T22:36:06Z</time>
      </trkpt>
      <trkpt lat="48.9371" lon="7.8853">
        <ele>148.66</ele>
        <time>2021-07-19T22:36:15Z</time>
      </trkpt>
      <trkpt lat="48.93657" lon="7.88698">
        <ele>148.66</ele>
        <time>2021-07-19T22:36:25Z</time>
      </trkpt>
      <trkpt lat="48.93639" lon="7.88751">
        <ele>148.66</ele>
        <time>2021-07-19T22:36:29Z</time>
      </trkpt>
      <trkpt lat="48.93634" lon="7.88764">
        <ele>148.66</ele>
        <time>2021-07-19T22:36:30Z</time>
      </trkpt>
      <trkpt lat="48.93567" lon="7.88903">
        <ele>149.14</ele>
        <time>2021-07-19T22:36:40Z</time>
      </trkpt>
      <trkpt lat="48.93492" lon="7.89034">
        <ele>149.62</ele>
        <time>2021-07-19T22:36:51Z</time>
      </trkpt>
      <trkpt lat="48.93478" lon="7.89058">
        <ele>151.06</ele>
        <time>2021-07-19T22:36:54Z</time>
      </trkpt>
      <trkpt lat="48.93466" lon="7.89065">
        <ele>151.54</ele>
        <time>2021-07-19T22:36:56Z</time>
      </trkpt>
      <trkpt lat="48.93461" lon="7.89065">
        <ele>152.03</ele>
        <time>2021-07-19T22:36:57Z</time>
      </trkpt>
      <trkpt lat="48.93457" lon="7.89075">
        <ele>152.03</ele>
        <time>2021-07-19T22:36:58Z</time>
      </trkpt>
      <trkpt lat="48.93457" lon="7.89078">
        <ele>152.51</ele>
        <time>2021-07-19T22:36:59Z</time>
      </trkpt>
      <trkpt lat="48.93459" lon="7.89083">
        <ele>152.03</ele>
        <time>2021-07-19T22:37:00Z</time>
      </trkpt>
      <trkpt lat="48.9346" lon="7.89088">
        <ele>152.03</ele>
        <time>2021-07-19T22:37:01Z</time>
      </trkpt>
      <trkpt lat="48.93462" lon="7.8909">
        <ele>151.54</ele>
        <time>2021-07-19T22:37:02Z</time>
      </trkpt>
      <trkpt lat="48.93466" lon="7.89092">
        <ele>150.58</ele>
        <time>2021-07-19T22:37:03Z</time>
      </trkpt>
      <trkpt lat="48.93471" lon="7.89091">
        <ele>150.1</ele>
        <time>2021-07-19T22:37:04Z</time>
      </trkpt>
      <trkpt lat="48.93475" lon="7.89084">
        <ele>149.14</ele>
        <time>2021-07-19T22:37:05Z</time>
      </trkpt>
      <trkpt lat="48.93478" lon="7.89076">
        <ele>148.66</ele>
        <time>2021-07-19T22:37:06Z</time>
      </trkpt>
      <trkpt lat="48.93478" lon="7.89076">
        <ele>148.18</ele>
        <time>2021-07-19T22:37:07Z</time>
      </trkpt>
      <trkpt lat="48.93479" lon="7.89056">
        <ele>147.7</ele>
        <time>2021-07-19T22:37:08Z</time>
      </trkpt>
      <trkpt lat="48.93489" lon="7.89039">
        <ele>147.7</ele>
        <time>2021-07-19T22:37:09Z</time>
      </trkpt>
      <trkpt lat="48.93557" lon="7.8892">
        <ele>147.7</ele>
        <time>2021-07-19T22:37:20Z</time>
      </trkpt>
      <trkpt lat="48.93627" lon="7.88784">
        <ele>148.66</ele>
        <time>2021-07-19T22:37:31Z</time>
      </trkpt>
      <trkpt lat="48.93636" lon="7.8876">
        <ele>149.14</ele>
        <time>2021-07-19T22:37:33Z</time>
      </trkpt>
      <trkpt lat="48.93684" lon="7.88614">
        <ele>148.66</ele>
        <time>2021-07-19T22:37:43Z</time>
      </trkpt>
      <trkpt lat="48.9373" lon="7.88464">
        <ele>150.1</ele>
        <time>2021-07-19T22:37:55Z</time>
      </trkpt>
      <trkpt lat="48.93734" lon="7.88452">
        <ele>149.62</ele>
        <time>2021-07-19T22:38:02Z</time>
      </trkpt>
      <trkpt lat="48.93737" lon="7.8844">
        <ele>149.62</ele>
        <time>2021-07-19T22:38:07Z</time>
      </trkpt>
      <trkpt lat="48.93739" lon="7.88436">
        <ele>149.14</ele>
        <time>2021-07-19T22:38:08Z</time>
      </trkpt>
      <trkpt lat="48.93734" lon="7.88431">
        <ele>149.14</ele>
        <time>2021-07-19T22:38:09Z</time>
      </trkpt>
      <trkpt lat="48.9373" lon="7.8843">
        <ele>149.62</ele>
        <time>2021-07-19T22:38:10Z</time>
      </trkpt>
      <trkpt lat="48.93725" lon="7.88429">
        <ele>149.62</ele>
        <time>2021-07-19T22:38:11Z</time>
      </trkpt>
      <trkpt lat="48.9372" lon="7.88428">
        <ele>149.14</ele>
        <time>2021-07-19T22:38:12Z</time>
      </trkpt>
      <trkpt lat="48.93714" lon="7.88427">
        <ele>149.14</ele>
        <time>2021-07-19T22:38:13Z</time>
      </trkpt>
      <trkpt lat="48.93708" lon="7.88425">
        <ele>149.14</ele>
        <time>2021-07-19T22:38:14Z</time>
      </trkpt>
      <trkpt lat="48.9361" lon="7.88417">
        <ele>148.18</ele>
        <time>2021-07-19T22:38:30Z</time>
      </trkpt>
      <trkpt lat="48.93576" lon="7.88415">
        <ele>148.18</ele>
        <time>2021-07-19T22:38:38Z</time>
      </trkpt>
      <trkpt lat="48.93572" lon="7.88415">
        <ele>148.18</ele>
        <time>2021-07-19T22:38:39Z</time>
      </trkpt>
      <trkpt lat="48.93568" lon="7.88414">
        <ele>148.18</ele>
        <time>2021-07-19T22:38:40Z</time>
      </trkpt>
      <trkpt lat="48.93566" lon="7.88414">
        <ele>147.7</ele>
        <time>2021-07-19T22:38:41Z</time>
      </trkpt>
      <trkpt lat="48.93564" lon="7.88414">
        <ele>148.18</ele>
        <time>2021-07-19T22:38:42Z</time>
      </trkpt>
      <trkpt lat="48.93565" lon="7.88381">
        <ele>149.14</ele>
        <time>2021-07-19T22:38:44Z</time>
      </trkpt>
      <trkpt lat="48.93576" lon="7.88344">
        <ele>148.66</ele>
        <time>2021-07-19T22:38:53Z</time>
      </trkpt>
      <trkpt lat="48.93586" lon="7.88278">
        <ele>148.18</ele>
        <time>2021-07-19T22:39:05Z</time>
      </trkpt>
      <trkpt lat="48.93589" lon="7.88251">
        <ele>148.66</ele>
        <time>2021-07-19T22:39:14Z</time>
      </trkpt>
      <trkpt lat="48.936" lon="7.88248">
        <ele>147.7</ele>
        <time>2021-07-19T22:39:23Z</time>
      </trkpt>
      <trkpt lat="48.93601" lon="7.88248">
        <ele>147.22</ele>
        <time>2021-07-19T22:39:27Z</time>
      </trkpt>
      <trkpt lat="48.93606" lon="7.88239">
        <ele>147.7</ele>
        <time>2021-07-19T22:39:31Z</time>
      </trkpt>
      <trkpt lat="48.93608" lon="7.88224">
        <ele>148.66</ele>
        <time>2021-07-19T22:39:42Z</time>
      </trkpt>
      <trkpt lat="48.93603" lon="7.88218">
        <ele>149.14</ele>
        <time>2021-07-19T22:39:53Z</time>
      </trkpt>
      <trkpt lat="48.93603" lon="7.88219">
        <ele>149.14</ele>
        <time>2021-07-19T22:40:06Z</time>
      </trkpt>
      <trkpt lat="48.93602" lon="7.88218">
        <ele>149.14</ele>
        <time>2021-07-19T22:42:09Z</time>
      </trkpt>
      <trkpt lat="48.93602" lon="7.88217">
        <ele>149.14</ele>
        <time>2021-07-19T22:45:13Z</time>
      </trkpt>
      <trkpt lat="48.93602" lon="7.88218">
        <ele>149.14</ele>
        <time>2021-07-19T22:47:22Z</time>
      </trkpt>
      <trkpt lat="48.93602" lon="7.88217">
        <ele>149.14</ele>
        <time>2021-07-19T22:50:18Z</time>
      </trkpt>
      <trkpt lat="48.93601" lon="7.88217">
        <ele>149.14</ele>
        <time>2021-07-19T22:55:42Z</time>
      </trkpt>
      <trkpt lat="48.936" lon="7.88217">
        <ele>149.14</ele>
        <time>2021-07-19T23:01:29Z</time>
      </trkpt>
      <trkpt lat="48.936" lon="7.88216">
        <ele>149.62</ele>
        <time>2021-07-19T23:07:56Z</time>
      </trkpt>
      <trkpt lat="48.93601" lon="7.88217">
        <ele>150.1</ele>
        <time>2021-07-19T23:14:09Z</time>
      </trkpt>
      <trkpt lat="48.93601" lon="7.88217">
        <ele>150.58</ele>
        <time>2021-07-19T23:16:40Z</time>
      </trkpt>
      <trkpt lat="48.93602" lon="7.88217">
        <ele>151.06</ele>
        <time>2021-07-19T23:19:09Z</time>
      </trkpt>
      <trkpt lat="48.93603" lon="7.88219">
        <ele>151.06</ele>
        <time>2021-07-19T23:23:10Z</time>
      </trkpt>
      <trkpt lat="48.93603" lon="7.88218">
        <ele>151.54</ele>
        <time>2021-07-19T23:26:20Z</time>
      </trkpt>
    </trkseg>
  </trk>
  <trk>
    <name><![CDATA[Journal actif: 2021-07-20 08:45]]></name>
    <trkseg>
      <trkpt lat="48.93601" lon="7.88224">
        <ele>139.05</ele>
        <time>2021-07-20T10:45:15Z</time>
      </trkpt>
      <trkpt lat="48.936" lon="7.88224">
        <ele>136.64</ele>
        <time>2021-07-20T10:45:44Z</time>
      </trkpt>
      <trkpt lat="48.93598" lon="7.88221">
        <ele>136.16</ele>
        <time>2021-07-20T10:45:48Z</time>
      </trkpt>
      <trkpt lat="48.93593" lon="7.88215">
        <ele>133.76</ele>
        <time>2021-07-20T10:45:52Z</time>
      </trkpt>
      <trkpt lat="48.93595" lon="7.88216">
        <ele>132.8</ele>
        <time>2021-07-20T10:46:04Z</time>
      </trkpt>
      <trkpt lat="48.93595" lon="7.88216">
        <ele>132.32</ele>
        <time>2021-07-20T10:47:01Z</time>
      </trkpt>
      <trkpt lat="48.93595" lon="7.88217">
        <ele>132.32</ele>
        <time>2021-07-20T10:49:31Z</time>
      </trkpt>
      <trkpt lat="48.93595" lon="7.88218">
        <ele>132.8</ele>
        <time>2021-07-20T10:51:36Z</time>
      </trkpt>
      <trkpt lat="48.93595" lon="7.88219">
        <ele>132.8</ele>
        <time>2021-07-20T10:53:54Z</time>
      </trkpt>
      <trkpt lat="48.93595" lon="7.8822">
        <ele>133.28</ele>
        <time>2021-07-20T10:56:10Z</time>
      </trkpt>
      <trkpt lat="48.93595" lon="7.88219">
        <ele>133.76</ele>
        <time>2021-07-20T10:58:33Z</time>
      </trkpt>
      <trkpt lat="48.93595" lon="7.88219">
        <ele>134.24</ele>
        <time>2021-07-20T11:02:13Z</time>
      </trkpt>
      <trkpt lat="48.93595" lon="7.8822">
        <ele>134.72</ele>
        <time>2021-07-20T11:05:59Z</time>
      </trkpt>
      <trkpt lat="48.93595" lon="7.88219">
        <ele>135.68</ele>
        <time>2021-07-20T11:10:26Z</time>
      </trkpt>
      <trkpt lat="48.93595" lon="7.88219">
        <ele>136.16</ele>
        <time>2021-07-20T11:12:44Z</time>
      </trkpt>
      <trkpt lat="48.93595" lon="7.88219">
        <ele>136.64</ele>
        <time>2021-07-20T11:15:18Z</time>
      </trkpt>
      <trkpt lat="48.93595" lon="7.88219">
        <ele>137.13</ele>
        <time>2021-07-20T11:18:10Z</time>
      </trkpt>
      <trkpt lat="48.93596" lon="7.88219">
        <ele>138.09</ele>
        <time>2021-07-20T11:21:03Z</time>
      </trkpt>
      <trkpt lat="48.93596" lon="7.88219">
        <ele>138.57</ele>
        <time>2021-07-20T11:23:10Z</time>
      </trkpt>
      <trkpt lat="48.93601" lon="7.88221">
        <ele>139.53</ele>
        <time>2021-07-20T11:25:07Z</time>
      </trkpt>
      <trkpt lat="48.93602" lon="7.8822">
        <ele>139.53</ele>
        <time>2021-07-20T11:25:17Z</time>
      </trkpt>
      <trkpt lat="48.93626" lon="7.88183">
        <ele>140.01</ele>
        <time>2021-07-20T11:25:33Z</time>
      </trkpt>
      <trkpt lat="48.93595" lon="7.88184">
        <ele>138.57</ele>
        <time>2021-07-20T11:25:42Z</time>
      </trkpt>
      <trkpt lat="48.93589" lon="7.88216">
        <ele>139.05</ele>
        <time>2021-07-20T11:25:55Z</time>
      </trkpt>
      <trkpt lat="48.93578" lon="7.88264">
        <ele>140.01</ele>
        <time>2021-07-20T11:26:09Z</time>
      </trkpt>
      <trkpt lat="48.93578" lon="7.88275">
        <ele>140.49</ele>
        <time>2021-07-20T11:26:36Z</time>
      </trkpt>
      <trkpt lat="48.93584" lon="7.88299">
        <ele>140.49</ele>
        <time>2021-07-20T11:26:50Z</time>
      </trkpt>
      <trkpt lat="48.93572" lon="7.88362">
        <ele>141.45</ele>
        <time>2021-07-20T11:27:04Z</time>
      </trkpt>
      <trkpt lat="48.93557" lon="7.88405">
        <ele>142.41</ele>
        <time>2021-07-20T11:27:17Z</time>
      </trkpt>
      <trkpt lat="48.93555" lon="7.88413">
        <ele>142.41</ele>
        <time>2021-07-20T11:27:22Z</time>
      </trkpt>
      <trkpt lat="48.93518" lon="7.88406">
        <ele>143.37</ele>
        <time>2021-07-20T11:27:31Z</time>
      </trkpt>
      <trkpt lat="48.93493" lon="7.88392">
        <ele>145.3</ele>
        <time>2021-07-20T11:27:37Z</time>
      </trkpt>
      <trkpt lat="48.93489" lon="7.8839">
        <ele>145.3</ele>
        <time>2021-07-20T11:27:38Z</time>
      </trkpt>
      <trkpt lat="48.93485" lon="7.88388">
        <ele>145.3</ele>
        <time>2021-07-20T11:27:39Z</time>
      </trkpt>
      <trkpt lat="48.93465" lon="7.88379">
        <ele>146.74</ele>
        <time>2021-07-20T11:27:43Z</time>
      </trkpt>
      <trkpt lat="48.93456" lon="7.88376">
        <ele>147.22</ele>
        <time>2021-07-20T11:27:45Z</time>
      </trkpt>
      <trkpt lat="48.93439" lon="7.88374">
        <ele>147.7</ele>
        <time>2021-07-20T11:27:48Z</time>
      </trkpt>
      <trkpt lat="48.93433" lon="7.88374">
        <ele>147.7</ele>
        <time>2021-07-20T11:27:49Z</time>
      </trkpt>
      <trkpt lat="48.93433" lon="7.88374">
        <ele>147.22</ele>
        <time>2021-07-20T11:27:50Z</time>
      </trkpt>
      <trkpt lat="48.93428" lon="7.88379">
        <ele>147.22</ele>
        <time>2021-07-20T11:27:51Z</time>
      </trkpt>
      <trkpt lat="48.93422" lon="7.88384">
        <ele>147.22</ele>
        <time>2021-07-20T11:27:52Z</time>
      </trkpt>
      <trkpt lat="48.93416" lon="7.88389">
        <ele>146.74</ele>
        <time>2021-07-20T11:27:53Z</time>
      </trkpt>
      <trkpt lat="48.9341" lon="7.88394">
        <ele>146.74</ele>
        <time>2021-07-20T11:27:54Z</time>
      </trkpt>
      <trkpt lat="48.93404" lon="7.88399">
        <ele>147.22</ele>
        <time>2021-07-20T11:27:55Z</time>
      </trkpt>
      <trkpt lat="48.93312" lon="7.8851">
        <ele>147.7</ele>
        <time>2021-07-20T11:28:09Z</time>
      </trkpt>
      <trkpt lat="48.93219" lon="7.88652">
        <ele>149.62</ele>
        <time>2021-07-20T11:28:21Z</time>
      </trkpt>
      <trkpt lat="48.93205" lon="7.88695">
        <ele>151.06</ele>
        <time>2021-07-20T11:28:23Z</time>
      </trkpt>
      <trkpt lat="48.93202" lon="7.88709">
        <ele>152.03</ele>
        <time>2021-07-20T11:28:24Z</time>
      </trkpt>
      <trkpt lat="48.93173" lon="7.8885">
        <ele>153.47</ele>
        <time>2021-07-20T11:28:35Z</time>
      </trkpt>
      <trkpt lat="48.93155" lon="7.88938">
        <ele>153.47</ele>
        <time>2021-07-20T11:28:43Z</time>
      </trkpt>
      <trkpt lat="48.93154" lon="7.88941">
        <ele>153.47</ele>
        <time>2021-07-20T11:29:01Z</time>
      </trkpt>
      <trkpt lat="48.9314" lon="7.89016">
        <ele>154.43</ele>
        <time>2021-07-20T11:29:10Z</time>
      </trkpt>
      <trkpt lat="48.93101" lon="7.89224">
        <ele>157.79</ele>
        <time>2021-07-20T11:29:24Z</time>
      </trkpt>
      <trkpt lat="48.93055" lon="7.89472">
        <ele>159.72</ele>
        <time>2021-07-20T11:29:37Z</time>
      </trkpt>
      <trkpt lat="48.93043" lon="7.89511">
        <ele>157.79</ele>
        <time>2021-07-20T11:29:41Z</time>
      </trkpt>
      <trkpt lat="48.93038" lon="7.89524">
        <ele>157.31</ele>
        <time>2021-07-20T11:29:42Z</time>
      </trkpt>
      <trkpt lat="48.93031" lon="7.89536">
        <ele>156.35</ele>
        <time>2021-07-20T11:29:43Z</time>
      </trkpt>
      <trkpt lat="48.93025" lon="7.89546">
        <ele>156.83</ele>
        <time>2021-07-20T11:29:44Z</time>
      </trkpt>
      <trkpt lat="48.93008" lon="7.89563">
        <ele>157.31</ele>
        <time>2021-07-20T11:29:45Z</time>
      </trkpt>
      <trkpt lat="48.93008" lon="7.89563">
        <ele>156.83</ele>
        <time>2021-07-20T11:29:46Z</time>
      </trkpt>
      <trkpt lat="48.92964" lon="7.89599">
        <ele>156.83</ele>
        <time>2021-07-20T11:29:52Z</time>
      </trkpt>
      <trkpt lat="48.92959" lon="7.89603">
        <ele>156.83</ele>
        <time>2021-07-20T11:29:53Z</time>
      </trkpt>
      <trkpt lat="48.92955" lon="7.89605">
        <ele>156.83</ele>
        <time>2021-07-20T11:29:54Z</time>
      </trkpt>
      <trkpt lat="48.92918" lon="7.89593">
        <ele>157.31</ele>
        <time>2021-07-20T11:30:00Z</time>
      </trkpt>
      <trkpt lat="48.92912" lon="7.89592">
        <ele>157.31</ele>
        <time>2021-07-20T11:30:01Z</time>
      </trkpt>
      <trkpt lat="48.92907" lon="7.8959">
        <ele>157.79</ele>
        <time>2021-07-20T11:30:02Z</time>
      </trkpt>
      <trkpt lat="48.92897" lon="7.89585">
        <ele>157.79</ele>
        <time>2021-07-20T11:30:03Z</time>
      </trkpt>
      <trkpt lat="48.92897" lon="7.89585">
        <ele>157.79</ele>
        <time>2021-07-20T11:30:04Z</time>
      </trkpt>
      <trkpt lat="48.92893" lon="7.8958">
        <ele>158.27</ele>
        <time>2021-07-20T11:30:05Z</time>
      </trkpt>
      <trkpt lat="48.92888" lon="7.8957">
        <ele>158.27</ele>
        <time>2021-07-20T11:30:06Z</time>
      </trkpt>
      <trkpt lat="48.92888" lon="7.8957">
        <ele>158.27</ele>
        <time>2021-07-20T11:30:07Z</time>
      </trkpt>
      <trkpt lat="48.92883" lon="7.89574">
        <ele>158.75</ele>
        <time>2021-07-20T11:30:08Z</time>
      </trkpt>
      <trkpt lat="48.9288" lon="7.89577">
        <ele>158.75</ele>
        <time>2021-07-20T11:30:09Z</time>
      </trkpt>
      <trkpt lat="48.92876" lon="7.89581">
        <ele>158.75</ele>
        <time>2021-07-20T11:30:10Z</time>
      </trkpt>
      <trkpt lat="48.92871" lon="7.89585">
        <ele>159.24</ele>
        <time>2021-07-20T11:30:11Z</time>
      </trkpt>
      <trkpt lat="48.92867" lon="7.89589">
        <ele>159.72</ele>
        <time>2021-07-20T11:30:12Z</time>
      </trkpt>
      <trkpt lat="48.92863" lon="7.89594">
        <ele>160.2</ele>
        <time>2021-07-20T11:30:13Z</time>
      </trkpt>
      <trkpt lat="48.9285" lon="7.89606">
        <ele>160.68</ele>
        <time>2021-07-20T11:30:16Z</time>
      </trkpt>
      <trkpt lat="48.92847" lon="7.89608">
        <ele>160.68</ele>
        <time>2021-07-20T11:30:17Z</time>
      </trkpt>
      <trkpt lat="48.92846" lon="7.89609">
        <ele>160.68</ele>
        <time>2021-07-20T11:30:18Z</time>
      </trkpt>
      <trkpt lat="48.92847" lon="7.89618">
        <ele>160.68</ele>
        <time>2021-07-20T11:30:19Z</time>
      </trkpt>
      <trkpt lat="48.92849" lon="7.8962">
        <ele>160.68</ele>
        <time>2021-07-20T11:30:20Z</time>
      </trkpt>
      <trkpt lat="48.92862" lon="7.89636">
        <ele>159.72</ele>
        <time>2021-07-20T11:30:32Z</time>
      </trkpt>
      <trkpt lat="48.92862" lon="7.89636">
        <ele>159.72</ele>
        <time>2021-07-20T11:35:31Z</time>
      </trkpt>
      <trkpt lat="48.92862" lon="7.89636">
        <ele>159.24</ele>
        <time>2021-07-20T11:39:36Z</time>
      </trkpt>
      <trkpt lat="48.92862" lon="7.89636">
        <ele>158.75</ele>
        <time>2021-07-20T11:42:11Z</time>
      </trkpt>
      <trkpt lat="48.92862" lon="7.89636">
        <ele>158.27</ele>
        <time>2021-07-20T11:45:50Z</time>
      </trkpt>
      <trkpt lat="48.92862" lon="7.89636">
        <ele>158.27</ele>
        <time>2021-07-20T11:48:15Z</time>
      </trkpt>
      <trkpt lat="48.92862" lon="7.89636">
        <ele>158.27</ele>
        <time>2021-07-20T11:50:47Z</time>
      </trkpt>
      <trkpt lat="48.92862" lon="7.89636">
        <ele>158.27</ele>
        <time>2021-07-20T11:53:45Z</time>
      </trkpt>
      <trkpt lat="48.92862" lon="7.89636">
        <ele>158.75</ele>
        <time>2021-07-20T11:56:10Z</time>
      </trkpt>
      <trkpt lat="48.92868" lon="7.89639">
        <ele>158.27</ele>
        <time>2021-07-20T11:56:24Z</time>
      </trkpt>
      <trkpt lat="48.92888" lon="7.89594">
        <ele>158.27</ele>
        <time>2021-07-20T11:56:40Z</time>
      </trkpt>
      <trkpt lat="48.92891" lon="7.89588">
        <ele>157.79</ele>
        <time>2021-07-20T11:56:51Z</time>
      </trkpt>
      <trkpt lat="48.92898" lon="7.89586">
        <ele>157.79</ele>
        <time>2021-07-20T11:56:52Z</time>
      </trkpt>
      <trkpt lat="48.92898" lon="7.89586">
        <ele>157.79</ele>
        <time>2021-07-20T11:56:53Z</time>
      </trkpt>
      <trkpt lat="48.92902" lon="7.89594">
        <ele>157.79</ele>
        <time>2021-07-20T11:56:54Z</time>
      </trkpt>
      <trkpt lat="48.92902" lon="7.89594">
        <ele>157.79</ele>
        <time>2021-07-20T11:56:55Z</time>
      </trkpt>
      <trkpt lat="48.92903" lon="7.89598">
        <ele>157.79</ele>
        <time>2021-07-20T11:56:56Z</time>
      </trkpt>
      <trkpt lat="48.92905" lon="7.89602">
        <ele>157.79</ele>
        <time>2021-07-20T11:56:57Z</time>
      </trkpt>
      <trkpt lat="48.9291" lon="7.89615">
        <ele>157.79</ele>
        <time>2021-07-20T11:57:00Z</time>
      </trkpt>
      <trkpt lat="48.92912" lon="7.8962">
        <ele>157.79</ele>
        <time>2021-07-20T11:57:01Z</time>
      </trkpt>
      <trkpt lat="48.92918" lon="7.89636">
        <ele>158.27</ele>
        <time>2021-07-20T11:57:04Z</time>
      </trkpt>
      <trkpt lat="48.9292" lon="7.89641">
        <ele>158.27</ele>
        <time>2021-07-20T11:57:05Z</time>
      </trkpt>
      <trkpt lat="48.92922" lon="7.89647">
        <ele>158.27</ele>
        <time>2021-07-20T11:57:06Z</time>
      </trkpt>
      <trkpt lat="48.92925" lon="7.8965">
        <ele>158.27</ele>
        <time>2021-07-20T11:57:07Z</time>
      </trkpt>
      <trkpt lat="48.92929" lon="7.89651">
        <ele>157.79</ele>
        <time>2021-07-20T11:57:08Z</time>
      </trkpt>
      <trkpt lat="48.92933" lon="7.89653">
        <ele>157.79</ele>
        <time>2021-07-20T11:57:09Z</time>
      </trkpt>
      <trkpt lat="48.92936" lon="7.89653">
        <ele>157.79</ele>
        <time>2021-07-20T11:57:10Z</time>
      </trkpt>
      <trkpt lat="48.9294" lon="7.89652">
        <ele>157.79</ele>
        <time>2021-07-20T11:57:11Z</time>
      </trkpt>
      <trkpt lat="48.92944" lon="7.89651">
        <ele>157.31</ele>
        <time>2021-07-20T11:57:12Z</time>
      </trkpt>
      <trkpt lat="48.92951" lon="7.89663">
        <ele>156.83</ele>
        <time>2021-07-20T11:57:13Z</time>
      </trkpt>
      <trkpt lat="48.92953" lon="7.89669">
        <ele>156.83</ele>
        <time>2021-07-20T11:57:14Z</time>
      </trkpt>
      <trkpt lat="48.92955" lon="7.89675">
        <ele>156.35</ele>
        <time>2021-07-20T11:57:15Z</time>
      </trkpt>
      <trkpt lat="48.92999" lon="7.8979">
        <ele>150.58</ele>
        <time>2021-07-20T11:57:29Z</time>
      </trkpt>
      <trkpt lat="48.93021" lon="7.89864">
        <ele>149.14</ele>
        <time>2021-07-20T11:57:39Z</time>
      </trkpt>
      <trkpt lat="48.92994" lon="7.89898">
        <ele>150.1</ele>
        <time>2021-07-20T11:57:50Z</time>
      </trkpt>
      <trkpt lat="48.92961" lon="7.89897">
        <ele>151.54</ele>
        <time>2021-07-20T11:58:04Z</time>
      </trkpt>
      <trkpt lat="48.92963" lon="7.89918">
        <ele>151.06</ele>
        <time>2021-07-20T11:58:15Z</time>
      </trkpt>
      <trkpt lat="48.92967" lon="7.89916">
        <ele>151.06</ele>
        <time>2021-07-20T11:58:18Z</time>
      </trkpt>
      <trkpt lat="48.92977" lon="7.89919">
        <ele>151.06</ele>
        <time>2021-07-20T11:58:23Z</time>
      </trkpt>
      <trkpt lat="48.9299" lon="7.89908">
        <ele>151.54</ele>
        <time>2021-07-20T11:58:38Z</time>
      </trkpt>
      <trkpt lat="48.9299" lon="7.89906">
        <ele>151.54</ele>
        <time>2021-07-20T12:05:10Z</time>
      </trkpt>
      <trkpt lat="48.9299" lon="7.89904">
        <ele>152.51</ele>
        <time>2021-07-20T12:14:07Z</time>
      </trkpt>
      <trkpt lat="48.9299" lon="7.89903">
        <ele>152.99</ele>
        <time>2021-07-20T12:19:21Z</time>
      </trkpt>
      <trkpt lat="48.92991" lon="7.89903">
        <ele>152.03</ele>
        <time>2021-07-20T12:26:35Z</time>
      </trkpt>
      <trkpt lat="48.92992" lon="7.89903">
        <ele>152.03</ele>
        <time>2021-07-20T12:30:41Z</time>
      </trkpt>
      <trkpt lat="48.92992" lon="7.89903">
        <ele>152.03</ele>
        <time>2021-07-20T12:33:24Z</time>
      </trkpt>
      <trkpt lat="48.92993" lon="7.89903">
        <ele>152.03</ele>
        <time>2021-07-20T12:36:07Z</time>
      </trkpt>
      <trkpt lat="48.92993" lon="7.89904">
        <ele>151.54</ele>
        <time>2021-07-20T12:38:54Z</time>
      </trkpt>
      <trkpt lat="48.92994" lon="7.89896">
        <ele>151.54</ele>
        <time>2021-07-20T12:39:51Z</time>
      </trkpt>
      <trkpt lat="48.92996" lon="7.89882">
        <ele>151.54</ele>
        <time>2021-07-20T12:39:58Z</time>
      </trkpt>
      <trkpt lat="48.93002" lon="7.89882">
        <ele>151.54</ele>
        <time>2021-07-20T12:40:12Z</time>
      </trkpt>
      <trkpt lat="48.93" lon="7.89883">
        <ele>151.54</ele>
        <time>2021-07-20T12:40:20Z</time>
      </trkpt>
      <trkpt lat="48.93004" lon="7.89896">
        <ele>151.54</ele>
        <time>2021-07-20T12:40:26Z</time>
      </trkpt>
      <trkpt lat="48.93015" lon="7.8989">
        <ele>151.06</ele>
        <time>2021-07-20T12:40:31Z</time>
      </trkpt>
      <trkpt lat="48.93019" lon="7.8986">
        <ele>151.06</ele>
        <time>2021-07-20T12:40:44Z</time>
      </trkpt>
      <trkpt lat="48.92994" lon="7.89776">
        <ele>153.47</ele>
        <time>2021-07-20T12:40:56Z</time>
      </trkpt>
      <trkpt lat="48.92955" lon="7.89674">
        <ele>158.75</ele>
        <time>2021-07-20T12:41:10Z</time>
      </trkpt>
      <trkpt lat="48.9295" lon="7.89662">
        <ele>158.75</ele>
        <time>2021-07-20T12:41:20Z</time>
      </trkpt>
      <trkpt lat="48.92947" lon="7.89654">
        <ele>158.75</ele>
        <time>2021-07-20T12:41:24Z</time>
      </trkpt>
      <trkpt lat="48.9295" lon="7.89643">
        <ele>158.75</ele>
        <time>2021-07-20T12:41:25Z</time>
      </trkpt>
      <trkpt lat="48.92953" lon="7.89638">
        <ele>158.75</ele>
        <time>2021-07-20T12:41:26Z</time>
      </trkpt>
      <trkpt lat="48.92956" lon="7.89632">
        <ele>159.24</ele>
        <time>2021-07-20T12:41:27Z</time>
      </trkpt>
      <trkpt lat="48.92957" lon="7.89632">
        <ele>159.24</ele>
        <time>2021-07-20T12:41:28Z</time>
      </trkpt>
      <trkpt lat="48.92958" lon="7.89603">
        <ele>159.72</ele>
        <time>2021-07-20T12:41:29Z</time>
      </trkpt>
      <trkpt lat="48.92963" lon="7.89599">
        <ele>159.72</ele>
        <time>2021-07-20T12:41:30Z</time>
      </trkpt>
      <trkpt lat="48.9297" lon="7.89594">
        <ele>159.72</ele>
        <time>2021-07-20T12:41:31Z</time>
      </trkpt>
      <trkpt lat="48.92984" lon="7.89583">
        <ele>160.2</ele>
        <time>2021-07-20T12:41:32Z</time>
      </trkpt>
      <trkpt lat="48.93026" lon="7.89545">
        <ele>164.04</ele>
        <time>2021-07-20T12:41:39Z</time>
      </trkpt>
      <trkpt lat="48.93031" lon="7.89535">
        <ele>164.04</ele>
        <time>2021-07-20T12:41:40Z</time>
      </trkpt>
      <trkpt lat="48.93037" lon="7.89526">
        <ele>164.52</ele>
        <time>2021-07-20T12:41:41Z</time>
      </trkpt>
      <trkpt lat="48.93042" lon="7.89516">
        <ele>164.52</ele>
        <time>2021-07-20T12:41:42Z</time>
      </trkpt>
      <trkpt lat="48.93045" lon="7.89504">
        <ele>165</ele>
        <time>2021-07-20T12:41:43Z</time>
      </trkpt>
      <trkpt lat="48.93049" lon="7.89492">
        <ele>165</ele>
        <time>2021-07-20T12:41:44Z</time>
      </trkpt>
      <trkpt lat="48.93096" lon="7.89247">
        <ele>161.64</ele>
        <time>2021-07-20T12:42:01Z</time>
      </trkpt>
      <trkpt lat="48.93151" lon="7.88956">
        <ele>157.31</ele>
        <time>2021-07-20T12:42:21Z</time>
      </trkpt>
      <trkpt lat="48.93214" lon="7.88664">
        <ele>153.95</ele>
        <time>2021-07-20T12:42:42Z</time>
      </trkpt>
      <trkpt lat="48.9328" lon="7.88553">
        <ele>154.43</ele>
        <time>2021-07-20T12:42:52Z</time>
      </trkpt>
      <trkpt lat="48.93333" lon="7.88484">
        <ele>152.99</ele>
        <time>2021-07-20T12:43:02Z</time>
      </trkpt>
      <trkpt lat="48.93349" lon="7.88465">
        <ele>152.99</ele>
        <time>2021-07-20T12:43:15Z</time>
      </trkpt>
      <trkpt lat="48.93364" lon="7.88448">
        <ele>152.99</ele>
        <time>2021-07-20T12:43:25Z</time>
      </trkpt>
      <trkpt lat="48.93379" lon="7.88429">
        <ele>152.99</ele>
        <time>2021-07-20T12:43:38Z</time>
      </trkpt>
      <trkpt lat="48.93394" lon="7.8841">
        <ele>152.03</ele>
        <time>2021-07-20T12:43:52Z</time>
      </trkpt>
      <trkpt lat="48.93411" lon="7.88393">
        <ele>151.54</ele>
        <time>2021-07-20T12:45:01Z</time>
      </trkpt>
      <trkpt lat="48.93435" lon="7.88374">
        <ele>150.58</ele>
        <time>2021-07-20T12:45:07Z</time>
      </trkpt>
      <trkpt lat="48.9344" lon="7.88374">
        <ele>150.58</ele>
        <time>2021-07-20T12:45:08Z</time>
      </trkpt>
      <trkpt lat="48.93445" lon="7.88374">
        <ele>150.58</ele>
        <time>2021-07-20T12:45:09Z</time>
      </trkpt>
      <trkpt lat="48.93449" lon="7.88374">
        <ele>150.1</ele>
        <time>2021-07-20T12:45:10Z</time>
      </trkpt>
      <trkpt lat="48.93454" lon="7.88375">
        <ele>150.1</ele>
        <time>2021-07-20T12:45:11Z</time>
      </trkpt>
      <trkpt lat="48.93462" lon="7.88377">
        <ele>149.62</ele>
        <time>2021-07-20T12:45:13Z</time>
      </trkpt>
      <trkpt lat="48.93475" lon="7.88383">
        <ele>149.14</ele>
        <time>2021-07-20T12:45:16Z</time>
      </trkpt>
      <trkpt lat="48.9348" lon="7.88385">
        <ele>148.66</ele>
        <time>2021-07-20T12:45:17Z</time>
      </trkpt>
      <trkpt lat="48.93551" lon="7.88413">
        <ele>147.22</ele>
        <time>2021-07-20T12:45:29Z</time>
      </trkpt>
      <trkpt lat="48.9366" lon="7.88421">
        <ele>149.14</ele>
        <time>2021-07-20T12:45:48Z</time>
      </trkpt>
      <trkpt lat="48.937" lon="7.88423">
        <ele>149.14</ele>
        <time>2021-07-20T12:45:56Z</time>
      </trkpt>
      <trkpt lat="48.93705" lon="7.88424">
        <ele>150.1</ele>
        <time>2021-07-20T12:45:57Z</time>
      </trkpt>
      <trkpt lat="48.93709" lon="7.88425">
        <ele>150.58</ele>
        <time>2021-07-20T12:45:58Z</time>
      </trkpt>
      <trkpt lat="48.93713" lon="7.88426">
        <ele>151.06</ele>
        <time>2021-07-20T12:45:59Z</time>
      </trkpt>
      <trkpt lat="48.93718" lon="7.88428">
        <ele>151.06</ele>
        <time>2021-07-20T12:46:00Z</time>
      </trkpt>
      <trkpt lat="48.93733" lon="7.88431">
        <ele>150.58</ele>
        <time>2021-07-20T12:46:03Z</time>
      </trkpt>
      <trkpt lat="48.93738" lon="7.88432">
        <ele>150.58</ele>
        <time>2021-07-20T12:46:04Z</time>
      </trkpt>
      <trkpt lat="48.93813" lon="7.88443">
        <ele>146.74</ele>
        <time>2021-07-20T12:46:16Z</time>
      </trkpt>
      <trkpt lat="48.93914" lon="7.8846">
        <ele>147.7</ele>
        <time>2021-07-20T12:46:27Z</time>
      </trkpt>
      <trkpt lat="48.94042" lon="7.88504">
        <ele>155.87</ele>
        <time>2021-07-20T12:46:41Z</time>
      </trkpt>
      <trkpt lat="48.94171" lon="7.88587">
        <ele>165.96</ele>
        <time>2021-07-20T12:46:56Z</time>
      </trkpt>
      <trkpt lat="48.94221" lon="7.8865">
        <ele>168.85</ele>
        <time>2021-07-20T12:47:02Z</time>
      </trkpt>
      <trkpt lat="48.94267" lon="7.88792">
        <ele>169.33</ele>
        <time>2021-07-20T12:47:11Z</time>
      </trkpt>
      <trkpt lat="48.94299" lon="7.88881">
        <ele>170.77</ele>
        <time>2021-07-20T12:47:15Z</time>
      </trkpt>
      <trkpt lat="48.94299" lon="7.88881">
        <ele>171.25</ele>
        <time>2021-07-20T12:47:16Z</time>
      </trkpt>
      <trkpt lat="48.94315" lon="7.88911">
        <ele>171.73</ele>
        <time>2021-07-20T12:47:17Z</time>
      </trkpt>
      <trkpt lat="48.94403" lon="7.89042">
        <ele>179.42</ele>
        <time>2021-07-20T12:47:28Z</time>
      </trkpt>
      <trkpt lat="48.94415" lon="7.8906">
        <ele>180.87</ele>
        <time>2021-07-20T12:47:34Z</time>
      </trkpt>
      <trkpt lat="48.94429" lon="7.8908">
        <ele>182.31</ele>
        <time>2021-07-20T12:48:03Z</time>
      </trkpt>
      <trkpt lat="48.94476" lon="7.89151">
        <ele>184.23</ele>
        <time>2021-07-20T12:48:14Z</time>
      </trkpt>
      <trkpt lat="48.945" lon="7.89189">
        <ele>184.71</ele>
        <time>2021-07-20T12:48:20Z</time>
      </trkpt>
      <trkpt lat="48.94503" lon="7.89194">
        <ele>184.71</ele>
        <time>2021-07-20T12:48:21Z</time>
      </trkpt>
      <trkpt lat="48.94516" lon="7.89216">
        <ele>184.71</ele>
        <time>2021-07-20T12:48:26Z</time>
      </trkpt>
      <trkpt lat="48.94522" lon="7.89225">
        <ele>185.19</ele>
        <time>2021-07-20T12:48:28Z</time>
      </trkpt>
      <trkpt lat="48.94525" lon="7.89231">
        <ele>185.67</ele>
        <time>2021-07-20T12:48:29Z</time>
      </trkpt>
      <trkpt lat="48.94529" lon="7.89237">
        <ele>185.67</ele>
        <time>2021-07-20T12:48:30Z</time>
      </trkpt>
      <trkpt lat="48.94584" lon="7.89331">
        <ele>185.19</ele>
        <time>2021-07-20T12:48:41Z</time>
      </trkpt>
      <trkpt lat="48.94662" lon="7.89432">
        <ele>178.94</ele>
        <time>2021-07-20T12:48:54Z</time>
      </trkpt>
      <trkpt lat="48.94732" lon="7.89506">
        <ele>172.69</ele>
        <time>2021-07-20T12:49:03Z</time>
      </trkpt>
      <trkpt lat="48.94867" lon="7.89663">
        <ele>162.6</ele>
        <time>2021-07-20T12:49:16Z</time>
      </trkpt>
      <trkpt lat="48.94968" lon="7.89881">
        <ele>154.43</ele>
        <time>2021-07-20T12:49:28Z</time>
      </trkpt>
      <trkpt lat="48.95054" lon="7.90023">
        <ele>149.62</ele>
        <time>2021-07-20T12:49:36Z</time>
      </trkpt>
      <trkpt lat="48.95068" lon="7.90037">
        <ele>149.62</ele>
        <time>2021-07-20T12:49:37Z</time>
      </trkpt>
      <trkpt lat="48.95081" lon="7.9005">
        <ele>150.1</ele>
        <time>2021-07-20T12:49:38Z</time>
      </trkpt>
      <trkpt lat="48.95097" lon="7.90058">
        <ele>150.58</ele>
        <time>2021-07-20T12:49:39Z</time>
      </trkpt>
      <trkpt lat="48.95113" lon="7.90067">
        <ele>150.58</ele>
        <time>2021-07-20T12:49:40Z</time>
      </trkpt>
      <trkpt lat="48.95242" lon="7.90148">
        <ele>149.14</ele>
        <time>2021-07-20T12:49:48Z</time>
      </trkpt>
      <trkpt lat="48.95254" lon="7.90163">
        <ele>149.62</ele>
        <time>2021-07-20T12:49:49Z</time>
      </trkpt>
      <trkpt lat="48.95267" lon="7.90179">
        <ele>151.06</ele>
        <time>2021-07-20T12:49:50Z</time>
      </trkpt>
      <trkpt lat="48.9528" lon="7.90195">
        <ele>152.51</ele>
        <time>2021-07-20T12:49:51Z</time>
      </trkpt>
      <trkpt lat="48.9529" lon="7.90215">
        <ele>152.99</ele>
        <time>2021-07-20T12:49:52Z</time>
      </trkpt>
      <trkpt lat="48.95403" lon="7.90476">
        <ele>164.52</ele>
        <time>2021-07-20T12:50:06Z</time>
      </trkpt>
      <trkpt lat="48.95426" lon="7.90592">
        <ele>173.66</ele>
        <time>2021-07-20T12:50:12Z</time>
      </trkpt>
      <trkpt lat="48.95426" lon="7.90592">
        <ele>174.62</ele>
        <time>2021-07-20T12:50:13Z</time>
      </trkpt>
      <trkpt lat="48.95424" lon="7.90625">
        <ele>174.14</ele>
        <time>2021-07-20T12:50:14Z</time>
      </trkpt>
      <trkpt lat="48.95424" lon="7.90625">
        <ele>175.1</ele>
        <time>2021-07-20T12:50:15Z</time>
      </trkpt>
      <trkpt lat="48.95421" lon="7.90639">
        <ele>175.58</ele>
        <time>2021-07-20T12:50:16Z</time>
      </trkpt>
      <trkpt lat="48.95417" lon="7.90654">
        <ele>176.54</ele>
        <time>2021-07-20T12:50:17Z</time>
      </trkpt>
      <trkpt lat="48.95412" lon="7.90669">
        <ele>177.98</ele>
        <time>2021-07-20T12:50:18Z</time>
      </trkpt>
      <trkpt lat="48.95405" lon="7.90684">
        <ele>178.46</ele>
        <time>2021-07-20T12:50:19Z</time>
      </trkpt>
      <trkpt lat="48.95304" lon="7.90913">
        <ele>178.94</ele>
        <time>2021-07-20T12:50:33Z</time>
      </trkpt>
      <trkpt lat="48.95259" lon="7.9109">
        <ele>179.9</ele>
        <time>2021-07-20T12:50:44Z</time>
      </trkpt>
      <trkpt lat="48.95227" lon="7.91276">
        <ele>179.9</ele>
        <time>2021-07-20T12:50:56Z</time>
      </trkpt>
      <trkpt lat="48.95193" lon="7.91362">
        <ele>178.46</ele>
        <time>2021-07-20T12:51:05Z</time>
      </trkpt>
      <trkpt lat="48.95182" lon="7.91386">
        <ele>177.5</ele>
        <time>2021-07-20T12:51:07Z</time>
      </trkpt>
      <trkpt lat="48.95182" lon="7.91386">
        <ele>177.5</ele>
        <time>2021-07-20T12:51:08Z</time>
      </trkpt>
      <trkpt lat="48.95183" lon="7.91392">
        <ele>176.54</ele>
        <time>2021-07-20T12:51:09Z</time>
      </trkpt>
      <trkpt lat="48.95185" lon="7.914">
        <ele>176.06</ele>
        <time>2021-07-20T12:51:10Z</time>
      </trkpt>
      <trkpt lat="48.95187" lon="7.91409">
        <ele>175.58</ele>
        <time>2021-07-20T12:51:11Z</time>
      </trkpt>
      <trkpt lat="48.9519" lon="7.91415">
        <ele>174.62</ele>
        <time>2021-07-20T12:51:12Z</time>
      </trkpt>
      <trkpt lat="48.95194" lon="7.91423">
        <ele>174.14</ele>
        <time>2021-07-20T12:51:13Z</time>
      </trkpt>
      <trkpt lat="48.95262" lon="7.91521">
        <ele>163.56</ele>
        <time>2021-07-20T12:51:24Z</time>
      </trkpt>
      <trkpt lat="48.95338" lon="7.91643">
        <ele>156.83</ele>
        <time>2021-07-20T12:51:33Z</time>
      </trkpt>
      <trkpt lat="48.95365" lon="7.91688">
        <ele>157.31</ele>
        <time>2021-07-20T12:51:36Z</time>
      </trkpt>
      <trkpt lat="48.95374" lon="7.917">
        <ele>156.35</ele>
        <time>2021-07-20T12:51:37Z</time>
      </trkpt>
      <trkpt lat="48.95383" lon="7.91712">
        <ele>157.79</ele>
        <time>2021-07-20T12:51:38Z</time>
      </trkpt>
      <trkpt lat="48.95471" lon="7.91771">
        <ele>162.12</ele>
        <time>2021-07-20T12:51:46Z</time>
      </trkpt>
      <trkpt lat="48.95506" lon="7.91786">
        <ele>163.08</ele>
        <time>2021-07-20T12:51:49Z</time>
      </trkpt>
      <trkpt lat="48.95517" lon="7.91797">
        <ele>165.48</ele>
        <time>2021-07-20T12:51:50Z</time>
      </trkpt>
      <trkpt lat="48.95527" lon="7.91806">
        <ele>167.89</ele>
        <time>2021-07-20T12:51:51Z</time>
      </trkpt>
      <trkpt lat="48.95538" lon="7.91816">
        <ele>169.33</ele>
        <time>2021-07-20T12:51:52Z</time>
      </trkpt>
      <trkpt lat="48.95545" lon="7.91826">
        <ele>171.25</ele>
        <time>2021-07-20T12:51:53Z</time>
      </trkpt>
      <trkpt lat="48.95553" lon="7.91837">
        <ele>172.21</ele>
        <time>2021-07-20T12:51:54Z</time>
      </trkpt>
      <trkpt lat="48.95571" lon="7.91861">
        <ele>175.1</ele>
        <time>2021-07-20T12:51:57Z</time>
      </trkpt>
      <trkpt lat="48.95577" lon="7.9187">
        <ele>175.58</ele>
        <time>2021-07-20T12:51:58Z</time>
      </trkpt>
      <trkpt lat="48.95651" lon="7.91971">
        <ele>181.35</ele>
        <time>2021-07-20T12:52:08Z</time>
      </trkpt>
      <trkpt lat="48.95769" lon="7.92136">
        <ele>190.96</ele>
        <time>2021-07-20T12:52:20Z</time>
      </trkpt>
      <trkpt lat="48.95848" lon="7.9222">
        <ele>196.73</ele>
        <time>2021-07-20T12:52:29Z</time>
      </trkpt>
      <trkpt lat="48.95851" lon="7.92224">
        <ele>197.21</ele>
        <time>2021-07-20T12:52:30Z</time>
      </trkpt>
      <trkpt lat="48.9585" lon="7.92247">
        <ele>197.69</ele>
        <time>2021-07-20T12:52:32Z</time>
      </trkpt>
      <trkpt lat="48.95857" lon="7.92252">
        <ele>197.69</ele>
        <time>2021-07-20T12:52:33Z</time>
      </trkpt>
      <trkpt lat="48.9586" lon="7.92254">
        <ele>197.69</ele>
        <time>2021-07-20T12:52:34Z</time>
      </trkpt>
      <trkpt lat="48.95874" lon="7.92249">
        <ele>197.69</ele>
        <time>2021-07-20T12:52:36Z</time>
      </trkpt>
      <trkpt lat="48.95951" lon="7.92298">
        <ele>194.32</ele>
        <time>2021-07-20T12:52:46Z</time>
      </trkpt>
      <trkpt lat="48.96085" lon="7.92381">
        <ele>184.71</ele>
        <time>2021-07-20T12:52:57Z</time>
      </trkpt>
      <trkpt lat="48.96185" lon="7.92493">
        <ele>180.38</ele>
        <time>2021-07-20T12:53:05Z</time>
      </trkpt>
      <trkpt lat="48.96334" lon="7.92683">
        <ele>177.98</ele>
        <time>2021-07-20T12:53:16Z</time>
      </trkpt>
      <trkpt lat="48.96531" lon="7.92824">
        <ele>187.59</ele>
        <time>2021-07-20T12:53:28Z</time>
      </trkpt>
      <trkpt lat="48.96628" lon="7.9289">
        <ele>190</ele>
        <time>2021-07-20T12:53:36Z</time>
      </trkpt>
      <trkpt lat="48.9664" lon="7.92898">
        <ele>190</ele>
        <time>2021-07-20T12:53:38Z</time>
      </trkpt>
      <trkpt lat="48.96643" lon="7.929">
        <ele>190</ele>
        <time>2021-07-20T12:53:39Z</time>
      </trkpt>
      <trkpt lat="48.96656" lon="7.92921">
        <ele>190</ele>
        <time>2021-07-20T12:53:44Z</time>
      </trkpt>
      <trkpt lat="48.96658" lon="7.92917">
        <ele>189.52</ele>
        <time>2021-07-20T12:53:45Z</time>
      </trkpt>
      <trkpt lat="48.9666" lon="7.92913">
        <ele>189.52</ele>
        <time>2021-07-20T12:53:46Z</time>
      </trkpt>
      <trkpt lat="48.96662" lon="7.92908">
        <ele>189.52</ele>
        <time>2021-07-20T12:53:47Z</time>
      </trkpt>
      <trkpt lat="48.96662" lon="7.92907">
        <ele>190</ele>
        <time>2021-07-20T12:53:48Z</time>
      </trkpt>
      <trkpt lat="48.9666" lon="7.92889">
        <ele>190</ele>
        <time>2021-07-20T12:53:49Z</time>
      </trkpt>
      <trkpt lat="48.96663" lon="7.92883">
        <ele>190</ele>
        <time>2021-07-20T12:53:50Z</time>
      </trkpt>
      <trkpt lat="48.96667" lon="7.92876">
        <ele>190</ele>
        <time>2021-07-20T12:53:51Z</time>
      </trkpt>
      <trkpt lat="48.96671" lon="7.92869">
        <ele>190</ele>
        <time>2021-07-20T12:53:52Z</time>
      </trkpt>
      <trkpt lat="48.96676" lon="7.9286">
        <ele>190</ele>
        <time>2021-07-20T12:53:53Z</time>
      </trkpt>
      <trkpt lat="48.9668" lon="7.92851">
        <ele>190</ele>
        <time>2021-07-20T12:53:54Z</time>
      </trkpt>
      <trkpt lat="48.96773" lon="7.92735">
        <ele>190.48</ele>
        <time>2021-07-20T12:54:06Z</time>
      </trkpt>
      <trkpt lat="48.9687" lon="7.92629">
        <ele>189.04</ele>
        <time>2021-07-20T12:54:18Z</time>
      </trkpt>
      <trkpt lat="48.96893" lon="7.92605">
        <ele>188.56</ele>
        <time>2021-07-20T12:54:22Z</time>
      </trkpt>
      <trkpt lat="48.96899" lon="7.92601">
        <ele>188.56</ele>
        <time>2021-07-20T12:54:23Z</time>
      </trkpt>
      <trkpt lat="48.96906" lon="7.92597">
        <ele>188.08</ele>
        <time>2021-07-20T12:54:24Z</time>
      </trkpt>
      <trkpt lat="48.96913" lon="7.92592">
        <ele>188.08</ele>
        <time>2021-07-20T12:54:25Z</time>
      </trkpt>
      <trkpt lat="48.9692" lon="7.9259">
        <ele>188.08</ele>
        <time>2021-07-20T12:54:26Z</time>
      </trkpt>
      <trkpt lat="48.97015" lon="7.92565">
        <ele>188.08</ele>
        <time>2021-07-20T12:54:36Z</time>
      </trkpt>
      <trkpt lat="48.97108" lon="7.92539">
        <ele>183.75</ele>
        <time>2021-07-20T12:54:45Z</time>
      </trkpt>
      <trkpt lat="48.9712" lon="7.92543">
        <ele>183.27</ele>
        <time>2021-07-20T12:54:46Z</time>
      </trkpt>
      <trkpt lat="48.97131" lon="7.92547">
        <ele>182.79</ele>
        <time>2021-07-20T12:54:47Z</time>
      </trkpt>
      <trkpt lat="48.97141" lon="7.9255">
        <ele>181.83</ele>
        <time>2021-07-20T12:54:48Z</time>
      </trkpt>
      <trkpt lat="48.97153" lon="7.92556">
        <ele>181.83</ele>
        <time>2021-07-20T12:54:49Z</time>
      </trkpt>
      <trkpt lat="48.97164" lon="7.92563">
        <ele>181.83</ele>
        <time>2021-07-20T12:54:50Z</time>
      </trkpt>
      <trkpt lat="48.97239" lon="7.92609">
        <ele>187.11</ele>
        <time>2021-07-20T12:54:57Z</time>
      </trkpt>
      <trkpt lat="48.97258" lon="7.92611">
        <ele>188.56</ele>
        <time>2021-07-20T12:54:58Z</time>
      </trkpt>
      <trkpt lat="48.97268" lon="7.92611">
        <ele>189.52</ele>
        <time>2021-07-20T12:54:59Z</time>
      </trkpt>
      <trkpt lat="48.97278" lon="7.9261">
        <ele>190</ele>
        <time>2021-07-20T12:55:00Z</time>
      </trkpt>
      <trkpt lat="48.97286" lon="7.92606">
        <ele>190</ele>
        <time>2021-07-20T12:55:01Z</time>
      </trkpt>
      <trkpt lat="48.97294" lon="7.92599">
        <ele>189.52</ele>
        <time>2021-07-20T12:55:02Z</time>
      </trkpt>
      <trkpt lat="48.97302" lon="7.92592">
        <ele>189.52</ele>
        <time>2021-07-20T12:55:03Z</time>
      </trkpt>
      <trkpt lat="48.9731" lon="7.92585">
        <ele>188.56</ele>
        <time>2021-07-20T12:55:04Z</time>
      </trkpt>
      <trkpt lat="48.9731" lon="7.92585">
        <ele>187.59</ele>
        <time>2021-07-20T12:55:05Z</time>
      </trkpt>
      <trkpt lat="48.97324" lon="7.92568">
        <ele>187.11</ele>
        <time>2021-07-20T12:55:06Z</time>
      </trkpt>
      <trkpt lat="48.9733" lon="7.92557">
        <ele>187.11</ele>
        <time>2021-07-20T12:55:07Z</time>
      </trkpt>
      <trkpt lat="48.9733" lon="7.92557">
        <ele>187.11</ele>
        <time>2021-07-20T12:55:08Z</time>
      </trkpt>
      <trkpt lat="48.97335" lon="7.92546">
        <ele>187.11</ele>
        <time>2021-07-20T12:55:09Z</time>
      </trkpt>
      <trkpt lat="48.97338" lon="7.92534">
        <ele>186.63</ele>
        <time>2021-07-20T12:55:10Z</time>
      </trkpt>
      <trkpt lat="48.97341" lon="7.9252">
        <ele>186.15</ele>
        <time>2021-07-20T12:55:11Z</time>
      </trkpt>
      <trkpt lat="48.97344" lon="7.92505">
        <ele>185.67</ele>
        <time>2021-07-20T12:55:12Z</time>
      </trkpt>
      <trkpt lat="48.97347" lon="7.92492">
        <ele>185.19</ele>
        <time>2021-07-20T12:55:13Z</time>
      </trkpt>
      <trkpt lat="48.97347" lon="7.92476">
        <ele>184.23</ele>
        <time>2021-07-20T12:55:14Z</time>
      </trkpt>
      <trkpt lat="48.97347" lon="7.9246">
        <ele>183.75</ele>
        <time>2021-07-20T12:55:15Z</time>
      </trkpt>
      <trkpt lat="48.97346" lon="7.92307">
        <ele>184.71</ele>
        <time>2021-07-20T12:55:26Z</time>
      </trkpt>
      <trkpt lat="48.97346" lon="7.92283">
        <ele>184.71</ele>
        <time>2021-07-20T12:55:33Z</time>
      </trkpt>
      <trkpt lat="48.97346" lon="7.92276">
        <ele>184.71</ele>
        <time>2021-07-20T12:55:34Z</time>
      </trkpt>
      <trkpt lat="48.97345" lon="7.92176">
        <ele>185.67</ele>
        <time>2021-07-20T12:55:42Z</time>
      </trkpt>
      <trkpt lat="48.97348" lon="7.92105">
        <ele>187.59</ele>
        <time>2021-07-20T12:55:47Z</time>
      </trkpt>
      <trkpt lat="48.9735" lon="7.92092">
        <ele>187.59</ele>
        <time>2021-07-20T12:55:48Z</time>
      </trkpt>
      <trkpt lat="48.97357" lon="7.92064">
        <ele>187.59</ele>
        <time>2021-07-20T12:55:49Z</time>
      </trkpt>
      <trkpt lat="48.97357" lon="7.92064">
        <ele>188.08</ele>
        <time>2021-07-20T12:55:50Z</time>
      </trkpt>
      <trkpt lat="48.97361" lon="7.92052">
        <ele>188.56</ele>
        <time>2021-07-20T12:55:51Z</time>
      </trkpt>
      <trkpt lat="48.97368" lon="7.92041">
        <ele>189.04</ele>
        <time>2021-07-20T12:55:52Z</time>
      </trkpt>
      <trkpt lat="48.97375" lon="7.9203">
        <ele>189.04</ele>
        <time>2021-07-20T12:55:53Z</time>
      </trkpt>
      <trkpt lat="48.97425" lon="7.91944">
        <ele>193.36</ele>
        <time>2021-07-20T12:56:00Z</time>
      </trkpt>
      <trkpt lat="48.97431" lon="7.9193">
        <ele>193.84</ele>
        <time>2021-07-20T12:56:01Z</time>
      </trkpt>
      <trkpt lat="48.97436" lon="7.91915">
        <ele>192.88</ele>
        <time>2021-07-20T12:56:02Z</time>
      </trkpt>
      <trkpt lat="48.97455" lon="7.91827">
        <ele>192.88</ele>
        <time>2021-07-20T12:56:09Z</time>
      </trkpt>
      <trkpt lat="48.97458" lon="7.91809">
        <ele>192.4</ele>
        <time>2021-07-20T12:56:13Z</time>
      </trkpt>
      <trkpt lat="48.97459" lon="7.91807">
        <ele>192.4</ele>
        <time>2021-07-20T12:56:14Z</time>
      </trkpt>
      <trkpt lat="48.97454" lon="7.9181">
        <ele>192.88</ele>
        <time>2021-07-20T12:56:25Z</time>
      </trkpt>
      <trkpt lat="48.97457" lon="7.91813">
        <ele>193.36</ele>
        <time>2021-07-20T12:56:39Z</time>
      </trkpt>
      <trkpt lat="48.97457" lon="7.91815">
        <ele>192.88</ele>
        <time>2021-07-20T12:56:41Z</time>
      </trkpt>
      <trkpt lat="48.97456" lon="7.9182">
        <ele>192.88</ele>
        <time>2021-07-20T12:56:42Z</time>
      </trkpt>
      <trkpt lat="48.97455" lon="7.91826">
        <ele>192.88</ele>
        <time>2021-07-20T12:56:43Z</time>
      </trkpt>
      <trkpt lat="48.97453" lon="7.91833">
        <ele>192.88</ele>
        <time>2021-07-20T12:56:44Z</time>
      </trkpt>
      <trkpt lat="48.9743" lon="7.91931">
        <ele>192.4</ele>
        <time>2021-07-20T12:56:52Z</time>
      </trkpt>
      <trkpt lat="48.97424" lon="7.91944">
        <ele>190.96</ele>
        <time>2021-07-20T12:56:53Z</time>
      </trkpt>
      <trkpt lat="48.97419" lon="7.91958">
        <ele>190.48</ele>
        <time>2021-07-20T12:56:54Z</time>
      </trkpt>
      <trkpt lat="48.97365" lon="7.92046">
        <ele>185.67</ele>
        <time>2021-07-20T12:57:02Z</time>
      </trkpt>
      <trkpt lat="48.97358" lon="7.92059">
        <ele>185.67</ele>
        <time>2021-07-20T12:57:03Z</time>
      </trkpt>
      <trkpt lat="48.97354" lon="7.92076">
        <ele>187.59</ele>
        <time>2021-07-20T12:57:04Z</time>
      </trkpt>
      <trkpt lat="48.97351" lon="7.92091">
        <ele>186.63</ele>
        <time>2021-07-20T12:57:05Z</time>
      </trkpt>
      <trkpt lat="48.97347" lon="7.92109">
        <ele>185.67</ele>
        <time>2021-07-20T12:57:06Z</time>
      </trkpt>
      <trkpt lat="48.97345" lon="7.92128">
        <ele>185.19</ele>
        <time>2021-07-20T12:57:07Z</time>
      </trkpt>
      <trkpt lat="48.97345" lon="7.92149">
        <ele>187.11</ele>
        <time>2021-07-20T12:57:08Z</time>
      </trkpt>
      <trkpt lat="48.97347" lon="7.9245">
        <ele>183.75</ele>
        <time>2021-07-20T12:57:21Z</time>
      </trkpt>
      <trkpt lat="48.97347" lon="7.92493">
        <ele>183.75</ele>
        <time>2021-07-20T12:57:23Z</time>
      </trkpt>
      <trkpt lat="48.97343" lon="7.92514">
        <ele>184.23</ele>
        <time>2021-07-20T12:57:24Z</time>
      </trkpt>
      <trkpt lat="48.97338" lon="7.92533">
        <ele>185.67</ele>
        <time>2021-07-20T12:57:25Z</time>
      </trkpt>
      <trkpt lat="48.97333" lon="7.92549">
        <ele>186.63</ele>
        <time>2021-07-20T12:57:26Z</time>
      </trkpt>
      <trkpt lat="48.97327" lon="7.92564">
        <ele>186.63</ele>
        <time>2021-07-20T12:57:27Z</time>
      </trkpt>
      <trkpt lat="48.97319" lon="7.92578">
        <ele>186.63</ele>
        <time>2021-07-20T12:57:28Z</time>
      </trkpt>
      <trkpt lat="48.97308" lon="7.92587">
        <ele>187.59</ele>
        <time>2021-07-20T12:57:29Z</time>
      </trkpt>
      <trkpt lat="48.97298" lon="7.92595">
        <ele>187.59</ele>
        <time>2021-07-20T12:57:30Z</time>
      </trkpt>
      <trkpt lat="48.97288" lon="7.92604">
        <ele>186.63</ele>
        <time>2021-07-20T12:57:31Z</time>
      </trkpt>
      <trkpt lat="48.97277" lon="7.9261">
        <ele>187.59</ele>
        <time>2021-07-20T12:57:32Z</time>
      </trkpt>
      <trkpt lat="48.97264" lon="7.92611">
        <ele>188.56</ele>
        <time>2021-07-20T12:57:33Z</time>
      </trkpt>
      <trkpt lat="48.9724" lon="7.92609">
        <ele>187.59</ele>
        <time>2021-07-20T12:57:34Z</time>
      </trkpt>
      <trkpt lat="48.97228" lon="7.92604">
        <ele>188.56</ele>
        <time>2021-07-20T12:57:35Z</time>
      </trkpt>
      <trkpt lat="48.97228" lon="7.92604">
        <ele>188.08</ele>
        <time>2021-07-20T12:57:36Z</time>
      </trkpt>
      <trkpt lat="48.97217" lon="7.92599">
        <ele>187.11</ele>
        <time>2021-07-20T12:57:37Z</time>
      </trkpt>
      <trkpt lat="48.97206" lon="7.92592">
        <ele>187.59</ele>
        <time>2021-07-20T12:57:38Z</time>
      </trkpt>
      <trkpt lat="48.9713" lon="7.92546">
        <ele>186.63</ele>
        <time>2021-07-20T12:57:44Z</time>
      </trkpt>
      <trkpt lat="48.97118" lon="7.92542">
        <ele>187.59</ele>
        <time>2021-07-20T12:57:45Z</time>
      </trkpt>
      <trkpt lat="48.97093" lon="7.92543">
        <ele>189.04</ele>
        <time>2021-07-20T12:57:46Z</time>
      </trkpt>
      <trkpt lat="48.97093" lon="7.92543">
        <ele>189.04</ele>
        <time>2021-07-20T12:57:47Z</time>
      </trkpt>
      <trkpt lat="48.9708" lon="7.92547">
        <ele>189.04</ele>
        <time>2021-07-20T12:57:48Z</time>
      </trkpt>
      <trkpt lat="48.96917" lon="7.92591">
        <ele>191.44</ele>
        <time>2021-07-20T12:58:02Z</time>
      </trkpt>
      <trkpt lat="48.96912" lon="7.92593">
        <ele>191.44</ele>
        <time>2021-07-20T12:58:04Z</time>
      </trkpt>
      <trkpt lat="48.96907" lon="7.92596">
        <ele>191.44</ele>
        <time>2021-07-20T12:58:05Z</time>
      </trkpt>
      <trkpt lat="48.96904" lon="7.92574">
        <ele>192.4</ele>
        <time>2021-07-20T12:58:11Z</time>
      </trkpt>
      <trkpt lat="48.96939" lon="7.92585">
        <ele>190</ele>
        <time>2021-07-20T12:58:23Z</time>
      </trkpt>
      <trkpt lat="48.96935" lon="7.9253">
        <ele>190</ele>
        <time>2021-07-20T12:58:31Z</time>
      </trkpt>
      <trkpt lat="48.96933" lon="7.92532">
        <ele>190</ele>
        <time>2021-07-20T12:58:45Z</time>
      </trkpt>
      <trkpt lat="48.96923" lon="7.92548">
        <ele>189.52</ele>
        <time>2021-07-20T12:58:56Z</time>
      </trkpt>
      <trkpt lat="48.96924" lon="7.92546">
        <ele>189.52</ele>
        <time>2021-07-20T12:59:01Z</time>
      </trkpt>
      <trkpt lat="48.96928" lon="7.92544">
        <ele>189.52</ele>
        <time>2021-07-20T12:59:16Z</time>
      </trkpt>
      <trkpt lat="48.96927" lon="7.92545">
        <ele>188.56</ele>
        <time>2021-07-20T13:05:41Z</time>
      </trkpt>
      <trkpt lat="48.96928" lon="7.92546">
        <ele>188.08</ele>
        <time>2021-07-20T13:14:09Z</time>
      </trkpt>
      <trkpt lat="48.9693" lon="7.92547">
        <ele>188.08</ele>
        <time>2021-07-20T13:22:56Z</time>
      </trkpt>
    </trkseg>
  </trk>
  <trk>
    <name><![CDATA[Journal actif: 2021-07-20 11:32]]></name>
    <trkseg>
      <trkpt lat="48.9693" lon="7.92546">
        <ele>189.04</ele>
        <time>2021-07-20T13:32:45Z</time>
      </trkpt>
      <trkpt lat="48.96927" lon="7.92548">
        <ele>189.04</ele>
        <time>2021-07-20T13:33:01Z</time>
      </trkpt>
      <trkpt lat="48.96917" lon="7.92559">
        <ele>189.04</ele>
        <time>2021-07-20T13:33:07Z</time>
      </trkpt>
      <trkpt lat="48.96889" lon="7.92608">
        <ele>189.52</ele>
        <time>2021-07-20T13:33:20Z</time>
      </trkpt>
      <trkpt lat="48.96828" lon="7.92681">
        <ele>191.92</ele>
        <time>2021-07-20T13:33:30Z</time>
      </trkpt>
      <trkpt lat="48.96736" lon="7.92772">
        <ele>189.52</ele>
        <time>2021-07-20T13:33:41Z</time>
      </trkpt>
      <trkpt lat="48.96669" lon="7.92873">
        <ele>187.11</ele>
        <time>2021-07-20T13:33:52Z</time>
      </trkpt>
      <trkpt lat="48.96651" lon="7.92892">
        <ele>187.59</ele>
        <time>2021-07-20T13:33:57Z</time>
      </trkpt>
      <trkpt lat="48.96651" lon="7.92892">
        <ele>188.08</ele>
        <time>2021-07-20T13:33:58Z</time>
      </trkpt>
      <trkpt lat="48.96649" lon="7.92891">
        <ele>188.08</ele>
        <time>2021-07-20T13:33:59Z</time>
      </trkpt>
      <trkpt lat="48.9664" lon="7.92898">
        <ele>188.08</ele>
        <time>2021-07-20T13:34:00Z</time>
      </trkpt>
      <trkpt lat="48.96635" lon="7.92894">
        <ele>188.08</ele>
        <time>2021-07-20T13:34:01Z</time>
      </trkpt>
      <trkpt lat="48.96628" lon="7.9289">
        <ele>188.08</ele>
        <time>2021-07-20T13:34:02Z</time>
      </trkpt>
      <trkpt lat="48.96535" lon="7.92827">
        <ele>185.67</ele>
        <time>2021-07-20T13:34:12Z</time>
      </trkpt>
      <trkpt lat="48.96347" lon="7.92694">
        <ele>176.06</ele>
        <time>2021-07-20T13:34:27Z</time>
      </trkpt>
      <trkpt lat="48.96233" lon="7.92567">
        <ele>177.5</ele>
        <time>2021-07-20T13:34:36Z</time>
      </trkpt>
      <trkpt lat="48.96109" lon="7.92399">
        <ele>183.75</ele>
        <time>2021-07-20T13:34:47Z</time>
      </trkpt>
      <trkpt lat="48.96025" lon="7.92343">
        <ele>190.48</ele>
        <time>2021-07-20T13:34:55Z</time>
      </trkpt>
      <trkpt lat="48.95903" lon="7.92268">
        <ele>195.77</ele>
        <time>2021-07-20T13:35:09Z</time>
      </trkpt>
      <trkpt lat="48.95868" lon="7.92228">
        <ele>196.25</ele>
        <time>2021-07-20T13:35:16Z</time>
      </trkpt>
      <trkpt lat="48.95868" lon="7.92228">
        <ele>195.77</ele>
        <time>2021-07-20T13:35:17Z</time>
      </trkpt>
      <trkpt lat="48.95864" lon="7.92223">
        <ele>195.77</ele>
        <time>2021-07-20T13:35:18Z</time>
      </trkpt>
      <trkpt lat="48.95804" lon="7.92178">
        <ele>192.88</ele>
        <time>2021-07-20T13:35:26Z</time>
      </trkpt>
      <trkpt lat="48.95698" lon="7.9204">
        <ele>188.08</ele>
        <time>2021-07-20T13:35:39Z</time>
      </trkpt>
      <trkpt lat="48.95583" lon="7.91879">
        <ele>177.98</ele>
        <time>2021-07-20T13:35:53Z</time>
      </trkpt>
      <trkpt lat="48.95578" lon="7.91871">
        <ele>177.02</ele>
        <time>2021-07-20T13:35:54Z</time>
      </trkpt>
      <trkpt lat="48.95566" lon="7.91855">
        <ele>176.54</ele>
        <time>2021-07-20T13:35:55Z</time>
      </trkpt>
      <trkpt lat="48.9556" lon="7.91847">
        <ele>176.06</ele>
        <time>2021-07-20T13:35:56Z</time>
      </trkpt>
      <trkpt lat="48.95554" lon="7.91838">
        <ele>175.1</ele>
        <time>2021-07-20T13:35:57Z</time>
      </trkpt>
      <trkpt lat="48.95554" lon="7.91838">
        <ele>174.14</ele>
        <time>2021-07-20T13:35:58Z</time>
      </trkpt>
      <trkpt lat="48.95547" lon="7.91829">
        <ele>173.66</ele>
        <time>2021-07-20T13:35:59Z</time>
      </trkpt>
      <trkpt lat="48.95522" lon="7.91801">
        <ele>170.29</ele>
        <time>2021-07-20T13:36:02Z</time>
      </trkpt>
      <trkpt lat="48.95505" lon="7.91785">
        <ele>169.81</ele>
        <time>2021-07-20T13:36:03Z</time>
      </trkpt>
      <trkpt lat="48.95494" lon="7.9178">
        <ele>168.37</ele>
        <time>2021-07-20T13:36:04Z</time>
      </trkpt>
      <trkpt lat="48.95483" lon="7.91776">
        <ele>166.93</ele>
        <time>2021-07-20T13:36:05Z</time>
      </trkpt>
      <trkpt lat="48.95483" lon="7.91776">
        <ele>165.96</ele>
        <time>2021-07-20T13:36:06Z</time>
      </trkpt>
      <trkpt lat="48.954" lon="7.91729">
        <ele>160.2</ele>
        <time>2021-07-20T13:36:15Z</time>
      </trkpt>
      <trkpt lat="48.95327" lon="7.91622">
        <ele>161.16</ele>
        <time>2021-07-20T13:36:24Z</time>
      </trkpt>
      <trkpt lat="48.95224" lon="7.91472">
        <ele>173.66</ele>
        <time>2021-07-20T13:36:35Z</time>
      </trkpt>
      <trkpt lat="48.95192" lon="7.91419">
        <ele>177.02</ele>
        <time>2021-07-20T13:36:42Z</time>
      </trkpt>
      <trkpt lat="48.95188" lon="7.91413">
        <ele>177.98</ele>
        <time>2021-07-20T13:36:43Z</time>
      </trkpt>
      <trkpt lat="48.95186" lon="7.91404">
        <ele>178.94</ele>
        <time>2021-07-20T13:36:44Z</time>
      </trkpt>
      <trkpt lat="48.95184" lon="7.91395">
        <ele>179.9</ele>
        <time>2021-07-20T13:36:45Z</time>
      </trkpt>
      <trkpt lat="48.95183" lon="7.91385">
        <ele>180.38</ele>
        <time>2021-07-20T13:36:46Z</time>
      </trkpt>
      <trkpt lat="48.95186" lon="7.91377">
        <ele>180.87</ele>
        <time>2021-07-20T13:36:47Z</time>
      </trkpt>
      <trkpt lat="48.9519" lon="7.9137">
        <ele>181.35</ele>
        <time>2021-07-20T13:36:48Z</time>
      </trkpt>
      <trkpt lat="48.9523" lon="7.91266">
        <ele>184.71</ele>
        <time>2021-07-20T13:36:58Z</time>
      </trkpt>
      <trkpt lat="48.95262" lon="7.91073">
        <ele>187.11</ele>
        <time>2021-07-20T13:37:10Z</time>
      </trkpt>
      <trkpt lat="48.95318" lon="7.90874">
        <ele>187.59</ele>
        <time>2021-07-20T13:37:22Z</time>
      </trkpt>
      <trkpt lat="48.95396" lon="7.90702">
        <ele>185.67</ele>
        <time>2021-07-20T13:37:34Z</time>
      </trkpt>
      <trkpt lat="48.95419" lon="7.90647">
        <ele>181.83</ele>
        <time>2021-07-20T13:37:40Z</time>
      </trkpt>
      <trkpt lat="48.95422" lon="7.90634">
        <ele>180.87</ele>
        <time>2021-07-20T13:37:41Z</time>
      </trkpt>
      <trkpt lat="48.95424" lon="7.90623">
        <ele>179.42</ele>
        <time>2021-07-20T13:37:42Z</time>
      </trkpt>
      <trkpt lat="48.95426" lon="7.90588">
        <ele>177.5</ele>
        <time>2021-07-20T13:37:45Z</time>
      </trkpt>
      <trkpt lat="48.95426" lon="7.90578">
        <ele>177.5</ele>
        <time>2021-07-20T13:37:46Z</time>
      </trkpt>
      <trkpt lat="48.9543" lon="7.90564">
        <ele>177.5</ele>
        <time>2021-07-20T13:37:47Z</time>
      </trkpt>
      <trkpt lat="48.95481" lon="7.90433">
        <ele>176.06</ele>
        <time>2021-07-20T13:37:58Z</time>
      </trkpt>
      <trkpt lat="48.95548" lon="7.90293">
        <ele>176.06</ele>
        <time>2021-07-20T13:38:09Z</time>
      </trkpt>
      <trkpt lat="48.95631" lon="7.90167">
        <ele>172.69</ele>
        <time>2021-07-20T13:38:21Z</time>
      </trkpt>
      <trkpt lat="48.95638" lon="7.90155">
        <ele>172.69</ele>
        <time>2021-07-20T13:38:22Z</time>
      </trkpt>
      <trkpt lat="48.9565" lon="7.90129">
        <ele>172.69</ele>
        <time>2021-07-20T13:38:23Z</time>
      </trkpt>
      <trkpt lat="48.9565" lon="7.90129">
        <ele>173.17</ele>
        <time>2021-07-20T13:38:24Z</time>
      </trkpt>
      <trkpt lat="48.95657" lon="7.90114">
        <ele>173.17</ele>
        <time>2021-07-20T13:38:25Z</time>
      </trkpt>
      <trkpt lat="48.9566" lon="7.90099">
        <ele>172.69</ele>
        <time>2021-07-20T13:38:26Z</time>
      </trkpt>
      <trkpt lat="48.95663" lon="7.9008">
        <ele>172.21</ele>
        <time>2021-07-20T13:38:27Z</time>
      </trkpt>
      <trkpt lat="48.95685" lon="7.8994">
        <ele>170.29</ele>
        <time>2021-07-20T13:38:34Z</time>
      </trkpt>
      <trkpt lat="48.95691" lon="7.89918">
        <ele>169.33</ele>
        <time>2021-07-20T13:38:35Z</time>
      </trkpt>
      <trkpt lat="48.95698" lon="7.89905">
        <ele>168.85</ele>
        <time>2021-07-20T13:38:36Z</time>
      </trkpt>
      <trkpt lat="48.95705" lon="7.89889">
        <ele>168.85</ele>
        <time>2021-07-20T13:38:37Z</time>
      </trkpt>
      <trkpt lat="48.95714" lon="7.89876">
        <ele>168.37</ele>
        <time>2021-07-20T13:38:38Z</time>
      </trkpt>
      <trkpt lat="48.95725" lon="7.89863">
        <ele>167.89</ele>
        <time>2021-07-20T13:38:39Z</time>
      </trkpt>
      <trkpt lat="48.95813" lon="7.89727">
        <ele>164.52</ele>
        <time>2021-07-20T13:38:48Z</time>
      </trkpt>
      <trkpt lat="48.95878" lon="7.8963">
        <ele>165.48</ele>
        <time>2021-07-20T13:38:54Z</time>
      </trkpt>
      <trkpt lat="48.95886" lon="7.89611">
        <ele>165.48</ele>
        <time>2021-07-20T13:38:55Z</time>
      </trkpt>
      <trkpt lat="48.95895" lon="7.89593">
        <ele>165.48</ele>
        <time>2021-07-20T13:38:56Z</time>
      </trkpt>
      <trkpt lat="48.95901" lon="7.89573">
        <ele>166.45</ele>
        <time>2021-07-20T13:38:57Z</time>
      </trkpt>
      <trkpt lat="48.95907" lon="7.89551">
        <ele>166.45</ele>
        <time>2021-07-20T13:38:58Z</time>
      </trkpt>
      <trkpt lat="48.95913" lon="7.89529">
        <ele>166.45</ele>
        <time>2021-07-20T13:38:59Z</time>
      </trkpt>
      <trkpt lat="48.9594" lon="7.89395">
        <ele>164.52</ele>
        <time>2021-07-20T13:39:05Z</time>
      </trkpt>
      <trkpt lat="48.95941" lon="7.89371">
        <ele>165</ele>
        <time>2021-07-20T13:39:06Z</time>
      </trkpt>
      <trkpt lat="48.95946" lon="7.89286">
        <ele>163.56</ele>
        <time>2021-07-20T13:39:10Z</time>
      </trkpt>
      <trkpt lat="48.9595" lon="7.89268">
        <ele>165.48</ele>
        <time>2021-07-20T13:39:11Z</time>
      </trkpt>
      <trkpt lat="48.95955" lon="7.8925">
        <ele>166.45</ele>
        <time>2021-07-20T13:39:12Z</time>
      </trkpt>
      <trkpt lat="48.95962" lon="7.89237">
        <ele>167.41</ele>
        <time>2021-07-20T13:39:13Z</time>
      </trkpt>
      <trkpt lat="48.9597" lon="7.89223">
        <ele>168.37</ele>
        <time>2021-07-20T13:39:14Z</time>
      </trkpt>
      <trkpt lat="48.95982" lon="7.89212">
        <ele>168.85</ele>
        <time>2021-07-20T13:39:15Z</time>
      </trkpt>
      <trkpt lat="48.95991" lon="7.89203">
        <ele>168.37</ele>
        <time>2021-07-20T13:39:16Z</time>
      </trkpt>
      <trkpt lat="48.96005" lon="7.89199">
        <ele>167.89</ele>
        <time>2021-07-20T13:39:17Z</time>
      </trkpt>
      <trkpt lat="48.96018" lon="7.89196">
        <ele>167.41</ele>
        <time>2021-07-20T13:39:18Z</time>
      </trkpt>
      <trkpt lat="48.96188" lon="7.89155">
        <ele>172.69</ele>
        <time>2021-07-20T13:39:30Z</time>
      </trkpt>
      <trkpt lat="48.96228" lon="7.89133">
        <ele>176.54</ele>
        <time>2021-07-20T13:39:33Z</time>
      </trkpt>
      <trkpt lat="48.96241" lon="7.89122">
        <ele>177.5</ele>
        <time>2021-07-20T13:39:34Z</time>
      </trkpt>
      <trkpt lat="48.96255" lon="7.89112">
        <ele>177.98</ele>
        <time>2021-07-20T13:39:35Z</time>
      </trkpt>
      <trkpt lat="48.96266" lon="7.89097">
        <ele>178.94</ele>
        <time>2021-07-20T13:39:36Z</time>
      </trkpt>
      <trkpt lat="48.96278" lon="7.89081">
        <ele>180.38</ele>
        <time>2021-07-20T13:39:37Z</time>
      </trkpt>
      <trkpt lat="48.96289" lon="7.89065">
        <ele>181.35</ele>
        <time>2021-07-20T13:39:38Z</time>
      </trkpt>
      <trkpt lat="48.96301" lon="7.89048">
        <ele>181.83</ele>
        <time>2021-07-20T13:39:39Z</time>
      </trkpt>
      <trkpt lat="48.96311" lon="7.8903">
        <ele>182.31</ele>
        <time>2021-07-20T13:39:40Z</time>
      </trkpt>
      <trkpt lat="48.96412" lon="7.88882">
        <ele>188.08</ele>
        <time>2021-07-20T13:39:49Z</time>
      </trkpt>
      <trkpt lat="48.96569" lon="7.88638">
        <ele>204.9</ele>
        <time>2021-07-20T13:40:04Z</time>
      </trkpt>
      <trkpt lat="48.96703" lon="7.88452">
        <ele>203.94</ele>
        <time>2021-07-20T13:40:16Z</time>
      </trkpt>
      <trkpt lat="48.96913" lon="7.88187">
        <ele>209.7</ele>
        <time>2021-07-20T13:40:32Z</time>
      </trkpt>
      <trkpt lat="48.96989" lon="7.88024">
        <ele>213.55</ele>
        <time>2021-07-20T13:40:40Z</time>
      </trkpt>
      <trkpt lat="48.97078" lon="7.87719">
        <ele>215.47</ele>
        <time>2021-07-20T13:40:53Z</time>
      </trkpt>
      <trkpt lat="48.97121" lon="7.87488">
        <ele>217.4</ele>
        <time>2021-07-20T13:41:03Z</time>
      </trkpt>
      <trkpt lat="48.97184" lon="7.87262">
        <ele>226.53</ele>
        <time>2021-07-20T13:41:14Z</time>
      </trkpt>
      <trkpt lat="48.97203" lon="7.87198">
        <ele>229.89</ele>
        <time>2021-07-20T13:41:17Z</time>
      </trkpt>
      <trkpt lat="48.97211" lon="7.87179">
        <ele>230.85</ele>
        <time>2021-07-20T13:41:18Z</time>
      </trkpt>
      <trkpt lat="48.97296" lon="7.87026">
        <ele>248.16</ele>
        <time>2021-07-20T13:41:27Z</time>
      </trkpt>
      <trkpt lat="48.97377" lon="7.86897">
        <ele>261.14</ele>
        <time>2021-07-20T13:41:36Z</time>
      </trkpt>
      <trkpt lat="48.97487" lon="7.86736">
        <ele>266.42</ele>
        <time>2021-07-20T13:41:46Z</time>
      </trkpt>
      <trkpt lat="48.97587" lon="7.86639">
        <ele>261.62</ele>
        <time>2021-07-20T13:41:54Z</time>
      </trkpt>
      <trkpt lat="48.9777" lon="7.8651">
        <ele>265.94</ele>
        <time>2021-07-20T13:42:06Z</time>
      </trkpt>
      <trkpt lat="48.97884" lon="7.86455">
        <ele>257.29</ele>
        <time>2021-07-20T13:42:14Z</time>
      </trkpt>
      <trkpt lat="48.97999" lon="7.86433">
        <ele>252</ele>
        <time>2021-07-20T13:42:22Z</time>
      </trkpt>
      <trkpt lat="48.98023" lon="7.86431">
        <ele>252.48</ele>
        <time>2021-07-20T13:42:24Z</time>
      </trkpt>
      <trkpt lat="48.98033" lon="7.86431">
        <ele>251.52</ele>
        <time>2021-07-20T13:42:25Z</time>
      </trkpt>
      <trkpt lat="48.98045" lon="7.8643">
        <ele>252</ele>
        <time>2021-07-20T13:42:26Z</time>
      </trkpt>
      <trkpt lat="48.98057" lon="7.86423">
        <ele>251.52</ele>
        <time>2021-07-20T13:42:27Z</time>
      </trkpt>
      <trkpt lat="48.9807" lon="7.86415">
        <ele>251.52</ele>
        <time>2021-07-20T13:42:28Z</time>
      </trkpt>
      <trkpt lat="48.9808" lon="7.864">
        <ele>252.48</ele>
        <time>2021-07-20T13:42:29Z</time>
      </trkpt>
      <trkpt lat="48.9809" lon="7.86387">
        <ele>252.96</ele>
        <time>2021-07-20T13:42:30Z</time>
      </trkpt>
      <trkpt lat="48.981" lon="7.86373">
        <ele>253.44</ele>
        <time>2021-07-20T13:42:31Z</time>
      </trkpt>
      <trkpt lat="48.98215" lon="7.86153">
        <ele>264.5</ele>
        <time>2021-07-20T13:42:42Z</time>
      </trkpt>
      <trkpt lat="48.98281" lon="7.86039">
        <ele>272.67</ele>
        <time>2021-07-20T13:42:50Z</time>
      </trkpt>
      <trkpt lat="48.98292" lon="7.8603">
        <ele>273.63</ele>
        <time>2021-07-20T13:42:51Z</time>
      </trkpt>
      <trkpt lat="48.98303" lon="7.86021">
        <ele>275.07</ele>
        <time>2021-07-20T13:42:52Z</time>
      </trkpt>
      <trkpt lat="48.98438" lon="7.85918">
        <ele>282.77</ele>
        <time>2021-07-20T13:43:03Z</time>
      </trkpt>
      <trkpt lat="48.98569" lon="7.85812">
        <ele>281.32</ele>
        <time>2021-07-20T13:43:14Z</time>
      </trkpt>
      <trkpt lat="48.98654" lon="7.85722">
        <ele>283.73</ele>
        <time>2021-07-20T13:43:25Z</time>
      </trkpt>
      <trkpt lat="48.98688" lon="7.85674">
        <ele>288.53</ele>
        <time>2021-07-20T13:43:35Z</time>
      </trkpt>
      <trkpt lat="48.98695" lon="7.85662">
        <ele>289.49</ele>
        <time>2021-07-20T13:43:39Z</time>
      </trkpt>
      <trkpt lat="48.98692" lon="7.85666">
        <ele>289.49</ele>
        <time>2021-07-20T13:43:40Z</time>
      </trkpt>
      <trkpt lat="48.98691" lon="7.85662">
        <ele>289.01</ele>
        <time>2021-07-20T13:43:41Z</time>
      </trkpt>
      <trkpt lat="48.9869" lon="7.85659">
        <ele>289.01</ele>
        <time>2021-07-20T13:43:42Z</time>
      </trkpt>
      <trkpt lat="48.98692" lon="7.85666">
        <ele>288.53</ele>
        <time>2021-07-20T13:43:43Z</time>
      </trkpt>
      <trkpt lat="48.98692" lon="7.85667">
        <ele>288.05</ele>
        <time>2021-07-20T13:43:44Z</time>
      </trkpt>
      <trkpt lat="48.98689" lon="7.85671">
        <ele>287.57</ele>
        <time>2021-07-20T13:43:45Z</time>
      </trkpt>
      <trkpt lat="48.98686" lon="7.85676">
        <ele>287.09</ele>
        <time>2021-07-20T13:43:46Z</time>
      </trkpt>
      <trkpt lat="48.98684" lon="7.8568">
        <ele>286.13</ele>
        <time>2021-07-20T13:43:47Z</time>
      </trkpt>
      <trkpt lat="48.98681" lon="7.85684">
        <ele>285.17</ele>
        <time>2021-07-20T13:43:48Z</time>
      </trkpt>
      <trkpt lat="48.98678" lon="7.85689">
        <ele>284.69</ele>
        <time>2021-07-20T13:43:49Z</time>
      </trkpt>
      <trkpt lat="48.98675" lon="7.85695">
        <ele>283.73</ele>
        <time>2021-07-20T13:43:50Z</time>
      </trkpt>
      <trkpt lat="48.98671" lon="7.85702">
        <ele>282.77</ele>
        <time>2021-07-20T13:43:51Z</time>
      </trkpt>
      <trkpt lat="48.98598" lon="7.85785">
        <ele>276.04</ele>
        <time>2021-07-20T13:44:07Z</time>
      </trkpt>
      <trkpt lat="48.98562" lon="7.85819">
        <ele>273.15</ele>
        <time>2021-07-20T13:44:16Z</time>
      </trkpt>
      <trkpt lat="48.98554" lon="7.85826">
        <ele>272.19</ele>
        <time>2021-07-20T13:44:19Z</time>
      </trkpt>
      <trkpt lat="48.98552" lon="7.85807">
        <ele>271.71</ele>
        <time>2021-07-20T13:44:23Z</time>
      </trkpt>
      <trkpt lat="48.98552" lon="7.85799">
        <ele>271.71</ele>
        <time>2021-07-20T13:44:25Z</time>
      </trkpt>
      <trkpt lat="48.98544" lon="7.85794">
        <ele>271.23</ele>
        <time>2021-07-20T13:44:30Z</time>
      </trkpt>
      <trkpt lat="48.98548" lon="7.85791">
        <ele>271.71</ele>
        <time>2021-07-20T13:44:42Z</time>
      </trkpt>
      <trkpt lat="48.98554" lon="7.85821">
        <ele>270.75</ele>
        <time>2021-07-20T13:44:54Z</time>
      </trkpt>
      <trkpt lat="48.98556" lon="7.85825">
        <ele>270.75</ele>
        <time>2021-07-20T13:44:57Z</time>
      </trkpt>
      <trkpt lat="48.98556" lon="7.85825">
        <ele>270.75</ele>
        <time>2021-07-20T13:44:58Z</time>
      </trkpt>
      <trkpt lat="48.98558" lon="7.85823">
        <ele>270.75</ele>
        <time>2021-07-20T13:44:59Z</time>
      </trkpt>
      <trkpt lat="48.9856" lon="7.85821">
        <ele>270.75</ele>
        <time>2021-07-20T13:45:00Z</time>
      </trkpt>
      <trkpt lat="48.98565" lon="7.85817">
        <ele>270.75</ele>
        <time>2021-07-20T13:45:01Z</time>
      </trkpt>
      <trkpt lat="48.98569" lon="7.85813">
        <ele>270.75</ele>
        <time>2021-07-20T13:45:02Z</time>
      </trkpt>
      <trkpt lat="48.98573" lon="7.85808">
        <ele>270.75</ele>
        <time>2021-07-20T13:45:03Z</time>
      </trkpt>
      <trkpt lat="48.98633" lon="7.85748">
        <ele>275.56</ele>
        <time>2021-07-20T13:45:15Z</time>
      </trkpt>
      <trkpt lat="48.98683" lon="7.85682">
        <ele>282.28</ele>
        <time>2021-07-20T13:45:27Z</time>
      </trkpt>
      <trkpt lat="48.98709" lon="7.85638">
        <ele>288.05</ele>
        <time>2021-07-20T13:45:36Z</time>
      </trkpt>
      <trkpt lat="48.98769" lon="7.85549">
        <ele>299.11</ele>
        <time>2021-07-20T13:45:45Z</time>
      </trkpt>
      <trkpt lat="48.98838" lon="7.85458">
        <ele>311.12</ele>
        <time>2021-07-20T13:45:54Z</time>
      </trkpt>
      <trkpt lat="48.98842" lon="7.85443">
        <ele>312.57</ele>
        <time>2021-07-20T13:45:55Z</time>
      </trkpt>
      <trkpt lat="48.98846" lon="7.8543">
        <ele>314.01</ele>
        <time>2021-07-20T13:45:56Z</time>
      </trkpt>
      <trkpt lat="48.9885" lon="7.85416">
        <ele>313.53</ele>
        <time>2021-07-20T13:45:57Z</time>
      </trkpt>
      <trkpt lat="48.98853" lon="7.85405">
        <ele>314.97</ele>
        <time>2021-07-20T13:45:58Z</time>
      </trkpt>
      <trkpt lat="48.98853" lon="7.8539">
        <ele>315.93</ele>
        <time>2021-07-20T13:45:59Z</time>
      </trkpt>
      <trkpt lat="48.98853" lon="7.85375">
        <ele>316.41</ele>
        <time>2021-07-20T13:46:00Z</time>
      </trkpt>
      <trkpt lat="48.98852" lon="7.85357">
        <ele>317.37</ele>
        <time>2021-07-20T13:46:01Z</time>
      </trkpt>
      <trkpt lat="48.98852" lon="7.85339">
        <ele>316.89</ele>
        <time>2021-07-20T13:46:02Z</time>
      </trkpt>
      <trkpt lat="48.98839" lon="7.85197">
        <ele>323.62</ele>
        <time>2021-07-20T13:46:10Z</time>
      </trkpt>
      <trkpt lat="48.98828" lon="7.8515">
        <ele>326.5</ele>
        <time>2021-07-20T13:46:13Z</time>
      </trkpt>
      <trkpt lat="48.98825" lon="7.85141">
        <ele>327.47</ele>
        <time>2021-07-20T13:46:14Z</time>
      </trkpt>
      <trkpt lat="48.98828" lon="7.85125">
        <ele>328.91</ele>
        <time>2021-07-20T13:46:15Z</time>
      </trkpt>
      <trkpt lat="48.98831" lon="7.85113">
        <ele>329.39</ele>
        <time>2021-07-20T13:46:16Z</time>
      </trkpt>
      <trkpt lat="48.98833" lon="7.85101">
        <ele>329.87</ele>
        <time>2021-07-20T13:46:17Z</time>
      </trkpt>
      <trkpt lat="48.98835" lon="7.85088">
        <ele>331.31</ele>
        <time>2021-07-20T13:46:18Z</time>
      </trkpt>
      <trkpt lat="48.98842" lon="7.85062">
        <ele>333.71</ele>
        <time>2021-07-20T13:46:20Z</time>
      </trkpt>
      <trkpt lat="48.98846" lon="7.85049">
        <ele>334.68</ele>
        <time>2021-07-20T13:46:21Z</time>
      </trkpt>
      <trkpt lat="48.98861" lon="7.85017">
        <ele>336.12</ele>
        <time>2021-07-20T13:46:24Z</time>
      </trkpt>
      <trkpt lat="48.98867" lon="7.85006">
        <ele>337.56</ele>
        <time>2021-07-20T13:46:25Z</time>
      </trkpt>
      <trkpt lat="48.98946" lon="7.84886">
        <ele>344.29</ele>
        <time>2021-07-20T13:46:35Z</time>
      </trkpt>
      <trkpt lat="48.99032" lon="7.84768">
        <ele>357.27</ele>
        <time>2021-07-20T13:46:45Z</time>
      </trkpt>
      <trkpt lat="48.99076" lon="7.84694">
        <ele>365.92</ele>
        <time>2021-07-20T13:46:51Z</time>
      </trkpt>
      <trkpt lat="48.99076" lon="7.84694">
        <ele>366.88</ele>
        <time>2021-07-20T13:46:52Z</time>
      </trkpt>
      <trkpt lat="48.9908" lon="7.84683">
        <ele>367.84</ele>
        <time>2021-07-20T13:46:53Z</time>
      </trkpt>
      <trkpt lat="48.991" lon="7.84633">
        <ele>374.57</ele>
        <time>2021-07-20T13:47:00Z</time>
      </trkpt>
      <trkpt lat="48.99104" lon="7.84622">
        <ele>376.97</ele>
        <time>2021-07-20T13:47:04Z</time>
      </trkpt>
      <trkpt lat="48.9911" lon="7.84609">
        <ele>377.45</ele>
        <time>2021-07-20T13:47:06Z</time>
      </trkpt>
      <trkpt lat="48.99113" lon="7.84604">
        <ele>377.94</ele>
        <time>2021-07-20T13:47:07Z</time>
      </trkpt>
      <trkpt lat="48.99132" lon="7.8458">
        <ele>381.3</ele>
        <time>2021-07-20T13:47:12Z</time>
      </trkpt>
      <trkpt lat="48.9914" lon="7.84571">
        <ele>381.78</ele>
        <time>2021-07-20T13:47:14Z</time>
      </trkpt>
      <trkpt lat="48.99144" lon="7.84567">
        <ele>382.74</ele>
        <time>2021-07-20T13:47:15Z</time>
      </trkpt>
      <trkpt lat="48.99149" lon="7.84562">
        <ele>383.22</ele>
        <time>2021-07-20T13:47:16Z</time>
      </trkpt>
      <trkpt lat="48.99151" lon="7.84559">
        <ele>383.7</ele>
        <time>2021-07-20T13:47:17Z</time>
      </trkpt>
      <trkpt lat="48.99152" lon="7.84554">
        <ele>384.18</ele>
        <time>2021-07-20T13:47:18Z</time>
      </trkpt>
      <trkpt lat="48.99153" lon="7.84549">
        <ele>384.66</ele>
        <time>2021-07-20T13:47:19Z</time>
      </trkpt>
      <trkpt lat="48.99156" lon="7.84537">
        <ele>384.66</ele>
        <time>2021-07-20T13:47:20Z</time>
      </trkpt>
      <trkpt lat="48.99156" lon="7.84537">
        <ele>384.66</ele>
        <time>2021-07-20T13:47:21Z</time>
      </trkpt>
      <trkpt lat="48.99158" lon="7.84526">
        <ele>384.66</ele>
        <time>2021-07-20T13:47:22Z</time>
      </trkpt>
      <trkpt lat="48.99166" lon="7.84482">
        <ele>385.15</ele>
        <time>2021-07-20T13:47:35Z</time>
      </trkpt>
      <trkpt lat="48.99167" lon="7.84478">
        <ele>385.63</ele>
        <time>2021-07-20T13:47:36Z</time>
      </trkpt>
      <trkpt lat="48.99167" lon="7.84478">
        <ele>385.63</ele>
        <time>2021-07-20T13:47:37Z</time>
      </trkpt>
      <trkpt lat="48.9918" lon="7.84418">
        <ele>385.15</ele>
        <time>2021-07-20T13:47:43Z</time>
      </trkpt>
      <trkpt lat="48.99184" lon="7.84405">
        <ele>383.7</ele>
        <time>2021-07-20T13:47:44Z</time>
      </trkpt>
      <trkpt lat="48.99189" lon="7.84392">
        <ele>383.22</ele>
        <time>2021-07-20T13:47:45Z</time>
      </trkpt>
      <trkpt lat="48.99255" lon="7.84275">
        <ele>381.78</ele>
        <time>2021-07-20T13:47:54Z</time>
      </trkpt>
      <trkpt lat="48.99315" lon="7.84174">
        <ele>380.82</ele>
        <time>2021-07-20T13:48:01Z</time>
      </trkpt>
      <trkpt lat="48.99315" lon="7.84174">
        <ele>380.82</ele>
        <time>2021-07-20T13:48:02Z</time>
      </trkpt>
      <trkpt lat="48.99318" lon="7.84158">
        <ele>381.3</ele>
        <time>2021-07-20T13:48:03Z</time>
      </trkpt>
      <trkpt lat="48.9932" lon="7.84143">
        <ele>380.34</ele>
        <time>2021-07-20T13:48:04Z</time>
      </trkpt>
      <trkpt lat="48.99322" lon="7.84127">
        <ele>380.34</ele>
        <time>2021-07-20T13:48:05Z</time>
      </trkpt>
      <trkpt lat="48.99324" lon="7.84111">
        <ele>379.86</ele>
        <time>2021-07-20T13:48:06Z</time>
      </trkpt>
      <trkpt lat="48.99325" lon="7.84095">
        <ele>379.38</ele>
        <time>2021-07-20T13:48:07Z</time>
      </trkpt>
      <trkpt lat="48.99327" lon="7.83911">
        <ele>373.61</ele>
        <time>2021-07-20T13:48:18Z</time>
      </trkpt>
      <trkpt lat="48.9933" lon="7.83894">
        <ele>374.09</ele>
        <time>2021-07-20T13:48:19Z</time>
      </trkpt>
      <trkpt lat="48.99334" lon="7.83879">
        <ele>374.09</ele>
        <time>2021-07-20T13:48:20Z</time>
      </trkpt>
      <trkpt lat="48.99338" lon="7.83861">
        <ele>374.57</ele>
        <time>2021-07-20T13:48:21Z</time>
      </trkpt>
      <trkpt lat="48.99343" lon="7.83844">
        <ele>375.05</ele>
        <time>2021-07-20T13:48:22Z</time>
      </trkpt>
      <trkpt lat="48.99417" lon="7.83629">
        <ele>362.55</ele>
        <time>2021-07-20T13:48:33Z</time>
      </trkpt>
      <trkpt lat="48.99455" lon="7.83503">
        <ele>345.25</ele>
        <time>2021-07-20T13:48:42Z</time>
      </trkpt>
      <trkpt lat="48.99458" lon="7.83471">
        <ele>342.37</ele>
        <time>2021-07-20T13:48:43Z</time>
      </trkpt>
      <trkpt lat="48.99458" lon="7.83471">
        <ele>341.89</ele>
        <time>2021-07-20T13:48:44Z</time>
      </trkpt>
      <trkpt lat="48.99458" lon="7.83455">
        <ele>341.41</ele>
        <time>2021-07-20T13:48:45Z</time>
      </trkpt>
      <trkpt lat="48.99457" lon="7.83436">
        <ele>340.44</ele>
        <time>2021-07-20T13:48:46Z</time>
      </trkpt>
      <trkpt lat="48.99423" lon="7.83239">
        <ele>335.16</ele>
        <time>2021-07-20T13:48:58Z</time>
      </trkpt>
      <trkpt lat="48.99418" lon="7.83225">
        <ele>334.68</ele>
        <time>2021-07-20T13:48:59Z</time>
      </trkpt>
      <trkpt lat="48.99412" lon="7.83212">
        <ele>333.71</ele>
        <time>2021-07-20T13:49:00Z</time>
      </trkpt>
      <trkpt lat="48.99407" lon="7.83201">
        <ele>332.75</ele>
        <time>2021-07-20T13:49:01Z</time>
      </trkpt>
      <trkpt lat="48.99401" lon="7.83192">
        <ele>331.79</ele>
        <time>2021-07-20T13:49:02Z</time>
      </trkpt>
      <trkpt lat="48.99396" lon="7.83183">
        <ele>332.27</ele>
        <time>2021-07-20T13:49:03Z</time>
      </trkpt>
      <trkpt lat="48.9934" lon="7.83076">
        <ele>326.5</ele>
        <time>2021-07-20T13:49:14Z</time>
      </trkpt>
      <trkpt lat="48.99299" lon="7.82946">
        <ele>327.95</ele>
        <time>2021-07-20T13:49:24Z</time>
      </trkpt>
      <trkpt lat="48.99235" lon="7.82771">
        <ele>332.27</ele>
        <time>2021-07-20T13:49:39Z</time>
      </trkpt>
      <trkpt lat="48.9923" lon="7.8276">
        <ele>331.79</ele>
        <time>2021-07-20T13:49:40Z</time>
      </trkpt>
      <trkpt lat="48.99228" lon="7.82748">
        <ele>330.83</ele>
        <time>2021-07-20T13:49:41Z</time>
      </trkpt>
      <trkpt lat="48.99227" lon="7.82734">
        <ele>329.87</ele>
        <time>2021-07-20T13:49:42Z</time>
      </trkpt>
      <trkpt lat="48.99224" lon="7.82705">
        <ele>329.87</ele>
        <time>2021-07-20T13:49:43Z</time>
      </trkpt>
      <trkpt lat="48.99224" lon="7.82705">
        <ele>329.87</ele>
        <time>2021-07-20T13:49:44Z</time>
      </trkpt>
      <trkpt lat="48.99228" lon="7.8269">
        <ele>330.35</ele>
        <time>2021-07-20T13:49:45Z</time>
      </trkpt>
      <trkpt lat="48.99232" lon="7.82673">
        <ele>330.83</ele>
        <time>2021-07-20T13:49:46Z</time>
      </trkpt>
      <trkpt lat="48.99267" lon="7.82588">
        <ele>333.23</ele>
        <time>2021-07-20T13:49:53Z</time>
      </trkpt>
      <trkpt lat="48.99274" lon="7.8258">
        <ele>332.27</ele>
        <time>2021-07-20T13:49:54Z</time>
      </trkpt>
      <trkpt lat="48.99282" lon="7.82573">
        <ele>331.31</ele>
        <time>2021-07-20T13:49:55Z</time>
      </trkpt>
      <trkpt lat="48.9929" lon="7.82564">
        <ele>329.87</ele>
        <time>2021-07-20T13:49:56Z</time>
      </trkpt>
      <trkpt lat="48.99299" lon="7.82557">
        <ele>329.39</ele>
        <time>2021-07-20T13:49:57Z</time>
      </trkpt>
      <trkpt lat="48.99307" lon="7.82556">
        <ele>328.91</ele>
        <time>2021-07-20T13:49:58Z</time>
      </trkpt>
      <trkpt lat="48.99316" lon="7.82555">
        <ele>327.47</ele>
        <time>2021-07-20T13:49:59Z</time>
      </trkpt>
      <trkpt lat="48.99323" lon="7.82554">
        <ele>326.5</ele>
        <time>2021-07-20T13:50:00Z</time>
      </trkpt>
      <trkpt lat="48.99331" lon="7.82553">
        <ele>325.54</ele>
        <time>2021-07-20T13:50:01Z</time>
      </trkpt>
      <trkpt lat="48.99408" lon="7.8253">
        <ele>318.33</ele>
        <time>2021-07-20T13:50:13Z</time>
      </trkpt>
      <trkpt lat="48.99441" lon="7.82514">
        <ele>314.97</ele>
        <time>2021-07-20T13:50:18Z</time>
      </trkpt>
      <trkpt lat="48.99448" lon="7.82508">
        <ele>314.49</ele>
        <time>2021-07-20T13:50:19Z</time>
      </trkpt>
      <trkpt lat="48.9953" lon="7.82394">
        <ele>304.88</ele>
        <time>2021-07-20T13:50:32Z</time>
      </trkpt>
      <trkpt lat="48.99613" lon="7.82242">
        <ele>296.22</ele>
        <time>2021-07-20T13:50:45Z</time>
      </trkpt>
      <trkpt lat="48.99644" lon="7.82109">
        <ele>286.13</ele>
        <time>2021-07-20T13:50:53Z</time>
      </trkpt>
      <trkpt lat="48.99647" lon="7.82092">
        <ele>285.17</ele>
        <time>2021-07-20T13:50:54Z</time>
      </trkpt>
      <trkpt lat="48.99654" lon="7.82078">
        <ele>285.65</ele>
        <time>2021-07-20T13:50:55Z</time>
      </trkpt>
      <trkpt lat="48.99702" lon="7.81975">
        <ele>281.8</ele>
        <time>2021-07-20T13:51:02Z</time>
      </trkpt>
      <trkpt lat="48.9971" lon="7.81941">
        <ele>279.4</ele>
        <time>2021-07-20T13:51:04Z</time>
      </trkpt>
      <trkpt lat="48.99714" lon="7.81925">
        <ele>278.44</ele>
        <time>2021-07-20T13:51:05Z</time>
      </trkpt>
      <trkpt lat="48.99747" lon="7.81708">
        <ele>270.75</ele>
        <time>2021-07-20T13:51:17Z</time>
      </trkpt>
      <trkpt lat="48.99752" lon="7.81693">
        <ele>270.27</ele>
        <time>2021-07-20T13:51:18Z</time>
      </trkpt>
      <trkpt lat="48.99759" lon="7.81678">
        <ele>269.31</ele>
        <time>2021-07-20T13:51:19Z</time>
      </trkpt>
      <trkpt lat="48.99765" lon="7.81663">
        <ele>268.35</ele>
        <time>2021-07-20T13:51:20Z</time>
      </trkpt>
      <trkpt lat="48.99772" lon="7.81649">
        <ele>267.86</ele>
        <time>2021-07-20T13:51:21Z</time>
      </trkpt>
      <trkpt lat="48.99861" lon="7.81486">
        <ele>257.77</ele>
        <time>2021-07-20T13:51:31Z</time>
      </trkpt>
      <trkpt lat="48.99868" lon="7.81467">
        <ele>256.33</ele>
        <time>2021-07-20T13:51:32Z</time>
      </trkpt>
      <trkpt lat="48.99868" lon="7.81467">
        <ele>254.89</ele>
        <time>2021-07-20T13:51:33Z</time>
      </trkpt>
      <trkpt lat="48.99876" lon="7.81426">
        <ele>252</ele>
        <time>2021-07-20T13:51:35Z</time>
      </trkpt>
      <trkpt lat="48.99876" lon="7.81407">
        <ele>250.56</ele>
        <time>2021-07-20T13:51:36Z</time>
      </trkpt>
      <trkpt lat="48.99875" lon="7.81388">
        <ele>249.6</ele>
        <time>2021-07-20T13:51:37Z</time>
      </trkpt>
      <trkpt lat="48.99873" lon="7.81373">
        <ele>248.16</ele>
        <time>2021-07-20T13:51:38Z</time>
      </trkpt>
      <trkpt lat="48.99868" lon="7.8136">
        <ele>247.68</ele>
        <time>2021-07-20T13:51:39Z</time>
      </trkpt>
      <trkpt lat="48.99863" lon="7.81348">
        <ele>246.23</ele>
        <time>2021-07-20T13:51:40Z</time>
      </trkpt>
      <trkpt lat="48.99858" lon="7.81337">
        <ele>244.31</ele>
        <time>2021-07-20T13:51:41Z</time>
      </trkpt>
      <trkpt lat="48.99844" lon="7.81323">
        <ele>242.87</ele>
        <time>2021-07-20T13:51:42Z</time>
      </trkpt>
      <trkpt lat="48.99836" lon="7.81319">
        <ele>241.43</ele>
        <time>2021-07-20T13:51:43Z</time>
      </trkpt>
      <trkpt lat="48.99827" lon="7.81317">
        <ele>239.51</ele>
        <time>2021-07-20T13:51:44Z</time>
      </trkpt>
      <trkpt lat="48.9982" lon="7.81314">
        <ele>238.06</ele>
        <time>2021-07-20T13:51:45Z</time>
      </trkpt>
      <trkpt lat="48.99813" lon="7.81313">
        <ele>237.1</ele>
        <time>2021-07-20T13:51:47Z</time>
      </trkpt>
      <trkpt lat="48.99808" lon="7.81311">
        <ele>236.14</ele>
        <time>2021-07-20T13:51:48Z</time>
      </trkpt>
      <trkpt lat="48.99804" lon="7.81304">
        <ele>235.18</ele>
        <time>2021-07-20T13:51:49Z</time>
      </trkpt>
      <trkpt lat="48.99802" lon="7.813">
        <ele>234.22</ele>
        <time>2021-07-20T13:51:50Z</time>
      </trkpt>
      <trkpt lat="48.99801" lon="7.81295">
        <ele>233.26</ele>
        <time>2021-07-20T13:51:51Z</time>
      </trkpt>
      <trkpt lat="48.99804" lon="7.81284">
        <ele>232.78</ele>
        <time>2021-07-20T13:51:52Z</time>
      </trkpt>
      <trkpt lat="48.99808" lon="7.81278">
        <ele>231.81</ele>
        <time>2021-07-20T13:51:53Z</time>
      </trkpt>
      <trkpt lat="48.99814" lon="7.81277">
        <ele>230.85</ele>
        <time>2021-07-20T13:51:54Z</time>
      </trkpt>
      <trkpt lat="48.99829" lon="7.81273">
        <ele>230.37</ele>
        <time>2021-07-20T13:51:55Z</time>
      </trkpt>
      <trkpt lat="48.99852" lon="7.81267">
        <ele>227.01</ele>
        <time>2021-07-20T13:51:59Z</time>
      </trkpt>
      <trkpt lat="48.9986" lon="7.81263">
        <ele>225.57</ele>
        <time>2021-07-20T13:52:00Z</time>
      </trkpt>
      <trkpt lat="48.99867" lon="7.81257">
        <ele>224.61</ele>
        <time>2021-07-20T13:52:01Z</time>
      </trkpt>
      <trkpt lat="48.99875" lon="7.8125">
        <ele>223.64</ele>
        <time>2021-07-20T13:52:02Z</time>
      </trkpt>
      <trkpt lat="48.99878" lon="7.81237">
        <ele>223.16</ele>
        <time>2021-07-20T13:52:03Z</time>
      </trkpt>
      <trkpt lat="48.99881" lon="7.81224">
        <ele>222.2</ele>
        <time>2021-07-20T13:52:04Z</time>
      </trkpt>
      <trkpt lat="48.99884" lon="7.81211">
        <ele>220.76</ele>
        <time>2021-07-20T13:52:05Z</time>
      </trkpt>
      <trkpt lat="48.99886" lon="7.81196">
        <ele>218.84</ele>
        <time>2021-07-20T13:52:06Z</time>
      </trkpt>
      <trkpt lat="48.99889" lon="7.81137">
        <ele>216.91</ele>
        <time>2021-07-20T13:52:10Z</time>
      </trkpt>
      <trkpt lat="48.99889" lon="7.81121">
        <ele>217.4</ele>
        <time>2021-07-20T13:52:11Z</time>
      </trkpt>
      <trkpt lat="48.99886" lon="7.81106">
        <ele>217.88</ele>
        <time>2021-07-20T13:52:12Z</time>
      </trkpt>
      <trkpt lat="48.99846" lon="7.81009">
        <ele>221.24</ele>
        <time>2021-07-20T13:52:19Z</time>
      </trkpt>
      <trkpt lat="48.99838" lon="7.80996">
        <ele>222.2</ele>
        <time>2021-07-20T13:52:20Z</time>
      </trkpt>
      <trkpt lat="48.99758" lon="7.80865">
        <ele>227.49</ele>
        <time>2021-07-20T13:52:29Z</time>
      </trkpt>
      <trkpt lat="48.99689" lon="7.8074">
        <ele>226.05</ele>
        <time>2021-07-20T13:52:36Z</time>
      </trkpt>
      <trkpt lat="48.99682" lon="7.80718">
        <ele>225.09</ele>
        <time>2021-07-20T13:52:37Z</time>
      </trkpt>
      <trkpt lat="48.99662" lon="7.80656">
        <ele>223.16</ele>
        <time>2021-07-20T13:52:40Z</time>
      </trkpt>
      <trkpt lat="48.99656" lon="7.80635">
        <ele>223.16</ele>
        <time>2021-07-20T13:52:41Z</time>
      </trkpt>
      <trkpt lat="48.99604" lon="7.80519">
        <ele>223.64</ele>
        <time>2021-07-20T13:52:47Z</time>
      </trkpt>
      <trkpt lat="48.99597" lon="7.80499">
        <ele>223.64</ele>
        <time>2021-07-20T13:52:48Z</time>
      </trkpt>
      <trkpt lat="48.99565" lon="7.80385">
        <ele>222.68</ele>
        <time>2021-07-20T13:52:53Z</time>
      </trkpt>
      <trkpt lat="48.99557" lon="7.80366">
        <ele>222.2</ele>
        <time>2021-07-20T13:52:54Z</time>
      </trkpt>
      <trkpt lat="48.99468" lon="7.80189">
        <ele>219.8</ele>
        <time>2021-07-20T13:53:03Z</time>
      </trkpt>
      <trkpt lat="48.99449" lon="7.80149">
        <ele>220.28</ele>
        <time>2021-07-20T13:53:05Z</time>
      </trkpt>
      <trkpt lat="48.99442" lon="7.80127">
        <ele>218.84</ele>
        <time>2021-07-20T13:53:06Z</time>
      </trkpt>
      <trkpt lat="48.99437" lon="7.80103">
        <ele>217.88</ele>
        <time>2021-07-20T13:53:07Z</time>
      </trkpt>
      <trkpt lat="48.99434" lon="7.80079">
        <ele>216.91</ele>
        <time>2021-07-20T13:53:08Z</time>
      </trkpt>
      <trkpt lat="48.99431" lon="7.80055">
        <ele>215.47</ele>
        <time>2021-07-20T13:53:09Z</time>
      </trkpt>
      <trkpt lat="48.994" lon="7.79879">
        <ele>211.15</ele>
        <time>2021-07-20T13:53:17Z</time>
      </trkpt>
      <trkpt lat="48.99341" lon="7.7976">
        <ele>212.11</ele>
        <time>2021-07-20T13:53:24Z</time>
      </trkpt>
      <trkpt lat="48.99336" lon="7.79742">
        <ele>211.63</ele>
        <time>2021-07-20T13:53:25Z</time>
      </trkpt>
      <trkpt lat="48.99332" lon="7.79727">
        <ele>211.15</ele>
        <time>2021-07-20T13:53:26Z</time>
      </trkpt>
      <trkpt lat="48.99332" lon="7.79707">
        <ele>210.67</ele>
        <time>2021-07-20T13:53:27Z</time>
      </trkpt>
      <trkpt lat="48.99332" lon="7.79687">
        <ele>209.7</ele>
        <time>2021-07-20T13:53:28Z</time>
      </trkpt>
      <trkpt lat="48.99332" lon="7.79667">
        <ele>208.26</ele>
        <time>2021-07-20T13:53:29Z</time>
      </trkpt>
      <trkpt lat="48.99337" lon="7.79652">
        <ele>207.3</ele>
        <time>2021-07-20T13:53:30Z</time>
      </trkpt>
      <trkpt lat="48.99344" lon="7.79632">
        <ele>207.3</ele>
        <time>2021-07-20T13:53:31Z</time>
      </trkpt>
      <trkpt lat="48.9935" lon="7.79614">
        <ele>207.3</ele>
        <time>2021-07-20T13:53:32Z</time>
      </trkpt>
      <trkpt lat="48.99356" lon="7.79596">
        <ele>206.82</ele>
        <time>2021-07-20T13:53:33Z</time>
      </trkpt>
      <trkpt lat="48.99367" lon="7.7956">
        <ele>205.86</ele>
        <time>2021-07-20T13:53:35Z</time>
      </trkpt>
      <trkpt lat="48.99371" lon="7.79545">
        <ele>206.82</ele>
        <time>2021-07-20T13:53:36Z</time>
      </trkpt>
      <trkpt lat="48.99372" lon="7.7953">
        <ele>207.3</ele>
        <time>2021-07-20T13:53:37Z</time>
      </trkpt>
      <trkpt lat="48.9937" lon="7.79514">
        <ele>208.74</ele>
        <time>2021-07-20T13:53:38Z</time>
      </trkpt>
      <trkpt lat="48.99369" lon="7.79498">
        <ele>208.74</ele>
        <time>2021-07-20T13:53:39Z</time>
      </trkpt>
      <trkpt lat="48.99367" lon="7.79483">
        <ele>209.7</ele>
        <time>2021-07-20T13:53:40Z</time>
      </trkpt>
      <trkpt lat="48.99363" lon="7.79471">
        <ele>209.7</ele>
        <time>2021-07-20T13:53:41Z</time>
      </trkpt>
      <trkpt lat="48.99359" lon="7.79458">
        <ele>209.22</ele>
        <time>2021-07-20T13:53:42Z</time>
      </trkpt>
      <trkpt lat="48.99355" lon="7.79447">
        <ele>209.7</ele>
        <time>2021-07-20T13:53:43Z</time>
      </trkpt>
      <trkpt lat="48.9933" lon="7.79394">
        <ele>208.74</ele>
        <time>2021-07-20T13:53:50Z</time>
      </trkpt>
      <trkpt lat="48.99327" lon="7.79389">
        <ele>208.74</ele>
        <time>2021-07-20T13:53:51Z</time>
      </trkpt>
      <trkpt lat="48.99325" lon="7.79384">
        <ele>208.74</ele>
        <time>2021-07-20T13:53:52Z</time>
      </trkpt>
      <trkpt lat="48.99324" lon="7.79381">
        <ele>207.78</ele>
        <time>2021-07-20T13:53:53Z</time>
      </trkpt>
      <trkpt lat="48.99323" lon="7.79379">
        <ele>205.86</ele>
        <time>2021-07-20T13:54:08Z</time>
      </trkpt>
      <trkpt lat="48.9931" lon="7.79353">
        <ele>206.34</ele>
        <time>2021-07-20T13:54:15Z</time>
      </trkpt>
      <trkpt lat="48.9931" lon="7.79351">
        <ele>206.34</ele>
        <time>2021-07-20T13:54:16Z</time>
      </trkpt>
      <trkpt lat="48.99309" lon="7.7935">
        <ele>206.34</ele>
        <time>2021-07-20T13:54:17Z</time>
      </trkpt>
      <trkpt lat="48.99308" lon="7.79348">
        <ele>206.34</ele>
        <time>2021-07-20T13:54:18Z</time>
      </trkpt>
      <trkpt lat="48.99307" lon="7.79347">
        <ele>206.34</ele>
        <time>2021-07-20T13:54:19Z</time>
      </trkpt>
      <trkpt lat="48.99305" lon="7.79354">
        <ele>206.34</ele>
        <time>2021-07-20T13:54:30Z</time>
      </trkpt>
      <trkpt lat="48.99306" lon="7.79357">
        <ele>206.82</ele>
        <time>2021-07-20T13:54:48Z</time>
      </trkpt>
      <trkpt lat="48.99306" lon="7.79359">
        <ele>207.3</ele>
        <time>2021-07-20T13:55:05Z</time>
      </trkpt>
      <trkpt lat="48.99311" lon="7.79358">
        <ele>209.22</ele>
        <time>2021-07-20T13:56:04Z</time>
      </trkpt>
      <trkpt lat="48.99315" lon="7.7936">
        <ele>210.67</ele>
        <time>2021-07-20T13:56:52Z</time>
      </trkpt>
      <trkpt lat="48.99314" lon="7.7936">
        <ele>210.67</ele>
        <time>2021-07-20T13:57:43Z</time>
      </trkpt>
      <trkpt lat="48.99314" lon="7.7936">
        <ele>211.15</ele>
        <time>2021-07-20T13:58:22Z</time>
      </trkpt>
    </trkseg>
  </trk>
  <trk>
    <name><![CDATA[Journal actif: 2021-07-20 16:15]]></name>
    <trkseg>
      <trkpt lat="48.99323" lon="7.7936">
        <ele>234.7</ele>
        <time>2021-07-20T18:15:45Z</time>
      </trkpt>
      <trkpt lat="48.99314" lon="7.79361">
        <ele>234.7</ele>
        <time>2021-07-20T18:17:02Z</time>
      </trkpt>
      <trkpt lat="48.99311" lon="7.79355">
        <ele>234.7</ele>
        <time>2021-07-20T18:17:04Z</time>
      </trkpt>
      <trkpt lat="48.99309" lon="7.7935">
        <ele>234.22</ele>
        <time>2021-07-20T18:17:05Z</time>
      </trkpt>
      <trkpt lat="48.99306" lon="7.79344">
        <ele>234.22</ele>
        <time>2021-07-20T18:17:06Z</time>
      </trkpt>
      <trkpt lat="48.99295" lon="7.79314">
        <ele>232.78</ele>
        <time>2021-07-20T18:17:10Z</time>
      </trkpt>
      <trkpt lat="48.99292" lon="7.79306">
        <ele>232.3</ele>
        <time>2021-07-20T18:17:11Z</time>
      </trkpt>
      <trkpt lat="48.99282" lon="7.79159">
        <ele>221.72</ele>
        <time>2021-07-20T18:17:23Z</time>
      </trkpt>
      <trkpt lat="48.99283" lon="7.79091">
        <ele>210.67</ele>
        <time>2021-07-20T18:17:33Z</time>
      </trkpt>
      <trkpt lat="48.99288" lon="7.78983">
        <ele>197.69</ele>
        <time>2021-07-20T18:17:49Z</time>
      </trkpt>
      <trkpt lat="48.99274" lon="7.78912">
        <ele>190.48</ele>
        <time>2021-07-20T18:18:00Z</time>
      </trkpt>
      <trkpt lat="48.99249" lon="7.78772">
        <ele>186.15</ele>
        <time>2021-07-20T18:18:10Z</time>
      </trkpt>
      <trkpt lat="48.99236" lon="7.78628">
        <ele>185.19</ele>
        <time>2021-07-20T18:18:19Z</time>
      </trkpt>
      <trkpt lat="48.99238" lon="7.78611">
        <ele>186.15</ele>
        <time>2021-07-20T18:18:20Z</time>
      </trkpt>
      <trkpt lat="48.99267" lon="7.7845">
        <ele>187.59</ele>
        <time>2021-07-20T18:18:31Z</time>
      </trkpt>
      <trkpt lat="48.99288" lon="7.78368">
        <ele>188.56</ele>
        <time>2021-07-20T18:18:39Z</time>
      </trkpt>
      <trkpt lat="48.99292" lon="7.78362">
        <ele>190</ele>
        <time>2021-07-20T18:18:40Z</time>
      </trkpt>
      <trkpt lat="48.99295" lon="7.78355">
        <ele>190.48</ele>
        <time>2021-07-20T18:18:41Z</time>
      </trkpt>
      <trkpt lat="48.99299" lon="7.78349">
        <ele>191.44</ele>
        <time>2021-07-20T18:18:42Z</time>
      </trkpt>
      <trkpt lat="48.99303" lon="7.78343">
        <ele>191.92</ele>
        <time>2021-07-20T18:18:43Z</time>
      </trkpt>
      <trkpt lat="48.99307" lon="7.78338">
        <ele>191.92</ele>
        <time>2021-07-20T18:18:44Z</time>
      </trkpt>
      <trkpt lat="48.99347" lon="7.78308">
        <ele>191.92</ele>
        <time>2021-07-20T18:18:55Z</time>
      </trkpt>
      <trkpt lat="48.99359" lon="7.78312">
        <ele>192.4</ele>
        <time>2021-07-20T18:19:04Z</time>
      </trkpt>
      <trkpt lat="48.99361" lon="7.78315">
        <ele>192.4</ele>
        <time>2021-07-20T18:19:05Z</time>
      </trkpt>
      <trkpt lat="48.99365" lon="7.7832">
        <ele>192.4</ele>
        <time>2021-07-20T18:19:06Z</time>
      </trkpt>
      <trkpt lat="48.99416" lon="7.78391">
        <ele>194.32</ele>
        <time>2021-07-20T18:19:17Z</time>
      </trkpt>
      <trkpt lat="48.9949" lon="7.7848">
        <ele>194.8</ele>
        <time>2021-07-20T18:19:29Z</time>
      </trkpt>
      <trkpt lat="48.99597" lon="7.78561">
        <ele>195.77</ele>
        <time>2021-07-20T18:19:41Z</time>
      </trkpt>
      <trkpt lat="48.99728" lon="7.78584">
        <ele>196.25</ele>
        <time>2021-07-20T18:19:54Z</time>
      </trkpt>
      <trkpt lat="48.99885" lon="7.78635">
        <ele>201.05</ele>
        <time>2021-07-20T18:20:08Z</time>
      </trkpt>
      <trkpt lat="49.0001" lon="7.78726">
        <ele>195.77</ele>
        <time>2021-07-20T18:20:20Z</time>
      </trkpt>
      <trkpt lat="49.00095" lon="7.78795">
        <ele>196.73</ele>
        <time>2021-07-20T18:20:29Z</time>
      </trkpt>
      <trkpt lat="49.00179" lon="7.78905">
        <ele>197.69</ele>
        <time>2021-07-20T18:20:41Z</time>
      </trkpt>
      <trkpt lat="49.00188" lon="7.78915">
        <ele>198.17</ele>
        <time>2021-07-20T18:20:42Z</time>
      </trkpt>
      <trkpt lat="49.00188" lon="7.78915">
        <ele>198.65</ele>
        <time>2021-07-20T18:20:43Z</time>
      </trkpt>
      <trkpt lat="49.00194" lon="7.78919">
        <ele>198.65</ele>
        <time>2021-07-20T18:20:44Z</time>
      </trkpt>
      <trkpt lat="49.00272" lon="7.78963">
        <ele>197.69</ele>
        <time>2021-07-20T18:20:56Z</time>
      </trkpt>
      <trkpt lat="49.00348" lon="7.78992">
        <ele>196.73</ele>
        <time>2021-07-20T18:21:08Z</time>
      </trkpt>
      <trkpt lat="49.0036" lon="7.79008">
        <ele>201.05</ele>
        <time>2021-07-20T18:21:16Z</time>
      </trkpt>
      <trkpt lat="49.00363" lon="7.79008">
        <ele>201.05</ele>
        <time>2021-07-20T18:21:17Z</time>
      </trkpt>
      <trkpt lat="49.00366" lon="7.79008">
        <ele>201.05</ele>
        <time>2021-07-20T18:21:18Z</time>
      </trkpt>
      <trkpt lat="49.00378" lon="7.78999">
        <ele>200.57</ele>
        <time>2021-07-20T18:21:20Z</time>
      </trkpt>
      <trkpt lat="49.00383" lon="7.79">
        <ele>200.09</ele>
        <time>2021-07-20T18:21:21Z</time>
      </trkpt>
      <trkpt lat="49.00459" lon="7.79016">
        <ele>200.09</ele>
        <time>2021-07-20T18:21:32Z</time>
      </trkpt>
      <trkpt lat="49.00576" lon="7.78984">
        <ele>204.42</ele>
        <time>2021-07-20T18:21:47Z</time>
      </trkpt>
      <trkpt lat="49.00719" lon="7.78939">
        <ele>200.57</ele>
        <time>2021-07-20T18:22:04Z</time>
      </trkpt>
      <trkpt lat="49.00839" lon="7.78901">
        <ele>199.13</ele>
        <time>2021-07-20T18:22:17Z</time>
      </trkpt>
      <trkpt lat="49.00983" lon="7.78851">
        <ele>203.94</ele>
        <time>2021-07-20T18:22:32Z</time>
      </trkpt>
      <trkpt lat="49.00991" lon="7.78846">
        <ele>204.42</ele>
        <time>2021-07-20T18:22:33Z</time>
      </trkpt>
      <trkpt lat="49.00999" lon="7.78837">
        <ele>205.38</ele>
        <time>2021-07-20T18:22:34Z</time>
      </trkpt>
      <trkpt lat="49.01012" lon="7.78819">
        <ele>205.86</ele>
        <time>2021-07-20T18:22:35Z</time>
      </trkpt>
      <trkpt lat="49.01012" lon="7.78819">
        <ele>205.38</ele>
        <time>2021-07-20T18:22:36Z</time>
      </trkpt>
      <trkpt lat="49.01018" lon="7.78806">
        <ele>205.86</ele>
        <time>2021-07-20T18:22:37Z</time>
      </trkpt>
      <trkpt lat="49.01091" lon="7.78698">
        <ele>205.38</ele>
        <time>2021-07-20T18:22:47Z</time>
      </trkpt>
      <trkpt lat="49.01208" lon="7.78543">
        <ele>205.86</ele>
        <time>2021-07-20T18:23:00Z</time>
      </trkpt>
      <trkpt lat="49.01331" lon="7.78366">
        <ele>207.3</ele>
        <time>2021-07-20T18:23:13Z</time>
      </trkpt>
      <trkpt lat="49.01331" lon="7.78366">
        <ele>206.82</ele>
        <time>2021-07-20T18:23:14Z</time>
      </trkpt>
      <trkpt lat="49.01343" lon="7.78335">
        <ele>206.82</ele>
        <time>2021-07-20T18:23:15Z</time>
      </trkpt>
      <trkpt lat="49.01347" lon="7.78317">
        <ele>206.82</ele>
        <time>2021-07-20T18:23:16Z</time>
      </trkpt>
      <trkpt lat="49.01347" lon="7.78317">
        <ele>206.82</ele>
        <time>2021-07-20T18:23:17Z</time>
      </trkpt>
      <trkpt lat="49.0135" lon="7.78298">
        <ele>206.82</ele>
        <time>2021-07-20T18:23:18Z</time>
      </trkpt>
      <trkpt lat="49.01354" lon="7.78279">
        <ele>206.82</ele>
        <time>2021-07-20T18:23:19Z</time>
      </trkpt>
      <trkpt lat="49.01356" lon="7.78261">
        <ele>206.82</ele>
        <time>2021-07-20T18:23:20Z</time>
      </trkpt>
      <trkpt lat="49.01373" lon="7.78054">
        <ele>208.74</ele>
        <time>2021-07-20T18:23:30Z</time>
      </trkpt>
      <trkpt lat="49.01386" lon="7.77985">
        <ele>210.67</ele>
        <time>2021-07-20T18:23:34Z</time>
      </trkpt>
      <trkpt lat="49.01389" lon="7.77969">
        <ele>210.67</ele>
        <time>2021-07-20T18:23:35Z</time>
      </trkpt>
      <trkpt lat="49.01394" lon="7.77957">
        <ele>210.67</ele>
        <time>2021-07-20T18:23:36Z</time>
      </trkpt>
      <trkpt lat="49.014" lon="7.77946">
        <ele>210.19</ele>
        <time>2021-07-20T18:23:37Z</time>
      </trkpt>
      <trkpt lat="49.01408" lon="7.77941">
        <ele>210.67</ele>
        <time>2021-07-20T18:23:38Z</time>
      </trkpt>
      <trkpt lat="49.01415" lon="7.77937">
        <ele>210.67</ele>
        <time>2021-07-20T18:23:39Z</time>
      </trkpt>
      <trkpt lat="49.01425" lon="7.77937">
        <ele>210.19</ele>
        <time>2021-07-20T18:23:40Z</time>
      </trkpt>
      <trkpt lat="49.01432" lon="7.77937">
        <ele>210.19</ele>
        <time>2021-07-20T18:23:41Z</time>
      </trkpt>
      <trkpt lat="49.01441" lon="7.77945">
        <ele>209.7</ele>
        <time>2021-07-20T18:23:42Z</time>
      </trkpt>
      <trkpt lat="49.01447" lon="7.7795">
        <ele>209.7</ele>
        <time>2021-07-20T18:23:43Z</time>
      </trkpt>
      <trkpt lat="49.01452" lon="7.77963">
        <ele>209.22</ele>
        <time>2021-07-20T18:23:44Z</time>
      </trkpt>
      <trkpt lat="49.01457" lon="7.77976">
        <ele>209.22</ele>
        <time>2021-07-20T18:23:45Z</time>
      </trkpt>
      <trkpt lat="49.0146" lon="7.77993">
        <ele>209.22</ele>
        <time>2021-07-20T18:23:46Z</time>
      </trkpt>
      <trkpt lat="49.01474" lon="7.78064">
        <ele>208.74</ele>
        <time>2021-07-20T18:23:50Z</time>
      </trkpt>
      <trkpt lat="49.01478" lon="7.78083">
        <ele>208.26</ele>
        <time>2021-07-20T18:23:51Z</time>
      </trkpt>
      <trkpt lat="49.01484" lon="7.78103">
        <ele>208.26</ele>
        <time>2021-07-20T18:23:52Z</time>
      </trkpt>
      <trkpt lat="49.01492" lon="7.7812">
        <ele>208.26</ele>
        <time>2021-07-20T18:23:53Z</time>
      </trkpt>
      <trkpt lat="49.01499" lon="7.78137">
        <ele>208.26</ele>
        <time>2021-07-20T18:23:54Z</time>
      </trkpt>
      <trkpt lat="49.01509" lon="7.7815">
        <ele>208.26</ele>
        <time>2021-07-20T18:23:55Z</time>
      </trkpt>
      <trkpt lat="49.01519" lon="7.78162">
        <ele>207.78</ele>
        <time>2021-07-20T18:23:56Z</time>
      </trkpt>
      <trkpt lat="49.01529" lon="7.78173">
        <ele>207.78</ele>
        <time>2021-07-20T18:23:57Z</time>
      </trkpt>
      <trkpt lat="49.01539" lon="7.78181">
        <ele>207.78</ele>
        <time>2021-07-20T18:23:58Z</time>
      </trkpt>
      <trkpt lat="49.01548" lon="7.78184">
        <ele>207.78</ele>
        <time>2021-07-20T18:23:59Z</time>
      </trkpt>
      <trkpt lat="49.01556" lon="7.78187">
        <ele>207.78</ele>
        <time>2021-07-20T18:24:00Z</time>
      </trkpt>
      <trkpt lat="49.01572" lon="7.78192">
        <ele>211.63</ele>
        <time>2021-07-20T18:24:06Z</time>
      </trkpt>
      <trkpt lat="49.01571" lon="7.78192">
        <ele>213.55</ele>
        <time>2021-07-20T18:24:18Z</time>
      </trkpt>
      <trkpt lat="49.01572" lon="7.78193">
        <ele>213.55</ele>
        <time>2021-07-20T18:24:19Z</time>
      </trkpt>
      <trkpt lat="49.01574" lon="7.78192">
        <ele>213.55</ele>
        <time>2021-07-20T18:24:20Z</time>
      </trkpt>
      <trkpt lat="49.01595" lon="7.78181">
        <ele>213.07</ele>
        <time>2021-07-20T18:24:28Z</time>
      </trkpt>
      <trkpt lat="49.01607" lon="7.78174">
        <ele>213.07</ele>
        <time>2021-07-20T18:24:29Z</time>
      </trkpt>
      <trkpt lat="49.01613" lon="7.78166">
        <ele>213.07</ele>
        <time>2021-07-20T18:24:30Z</time>
      </trkpt>
      <trkpt lat="49.01613" lon="7.78166">
        <ele>213.07</ele>
        <time>2021-07-20T18:24:31Z</time>
      </trkpt>
      <trkpt lat="49.0162" lon="7.78157">
        <ele>213.07</ele>
        <time>2021-07-20T18:24:32Z</time>
      </trkpt>
      <trkpt lat="49.01627" lon="7.78148">
        <ele>213.55</ele>
        <time>2021-07-20T18:24:33Z</time>
      </trkpt>
      <trkpt lat="49.01674" lon="7.78023">
        <ele>214.99</ele>
        <time>2021-07-20T18:24:41Z</time>
      </trkpt>
      <trkpt lat="49.01696" lon="7.77943">
        <ele>215.47</ele>
        <time>2021-07-20T18:24:45Z</time>
      </trkpt>
      <trkpt lat="49.01703" lon="7.77923">
        <ele>215.95</ele>
        <time>2021-07-20T18:24:46Z</time>
      </trkpt>
      <trkpt lat="49.01711" lon="7.77909">
        <ele>215.95</ele>
        <time>2021-07-20T18:24:47Z</time>
      </trkpt>
      <trkpt lat="49.01721" lon="7.77895">
        <ele>215.95</ele>
        <time>2021-07-20T18:24:48Z</time>
      </trkpt>
      <trkpt lat="49.01731" lon="7.77887">
        <ele>215.95</ele>
        <time>2021-07-20T18:24:49Z</time>
      </trkpt>
      <trkpt lat="49.01743" lon="7.77882">
        <ele>215.95</ele>
        <time>2021-07-20T18:24:50Z</time>
      </trkpt>
      <trkpt lat="49.01757" lon="7.77882">
        <ele>215.95</ele>
        <time>2021-07-20T18:24:51Z</time>
      </trkpt>
      <trkpt lat="49.01771" lon="7.77883">
        <ele>215.95</ele>
        <time>2021-07-20T18:24:52Z</time>
      </trkpt>
      <trkpt lat="49.01839" lon="7.77881">
        <ele>215.95</ele>
        <time>2021-07-20T18:24:57Z</time>
      </trkpt>
      <trkpt lat="49.01852" lon="7.77874">
        <ele>215.95</ele>
        <time>2021-07-20T18:24:58Z</time>
      </trkpt>
      <trkpt lat="49.01866" lon="7.77868">
        <ele>216.43</ele>
        <time>2021-07-20T18:24:59Z</time>
      </trkpt>
      <trkpt lat="49.01878" lon="7.77857">
        <ele>216.43</ele>
        <time>2021-07-20T18:25:00Z</time>
      </trkpt>
      <trkpt lat="49.01889" lon="7.77845">
        <ele>216.43</ele>
        <time>2021-07-20T18:25:01Z</time>
      </trkpt>
      <trkpt lat="49.01901" lon="7.77833">
        <ele>216.43</ele>
        <time>2021-07-20T18:25:02Z</time>
      </trkpt>
      <trkpt lat="49.01914" lon="7.77821">
        <ele>216.43</ele>
        <time>2021-07-20T18:25:03Z</time>
      </trkpt>
      <trkpt lat="49.01933" lon="7.77787">
        <ele>216.43</ele>
        <time>2021-07-20T18:25:04Z</time>
      </trkpt>
      <trkpt lat="49.01933" lon="7.77787">
        <ele>216.43</ele>
        <time>2021-07-20T18:25:05Z</time>
      </trkpt>
      <trkpt lat="49.01942" lon="7.7777">
        <ele>216.91</ele>
        <time>2021-07-20T18:25:06Z</time>
      </trkpt>
      <trkpt lat="49.02017" lon="7.77541">
        <ele>218.84</ele>
        <time>2021-07-20T18:25:17Z</time>
      </trkpt>
      <trkpt lat="49.02047" lon="7.77426">
        <ele>218.36</ele>
        <time>2021-07-20T18:25:22Z</time>
      </trkpt>
      <trkpt lat="49.02056" lon="7.77406">
        <ele>220.28</ele>
        <time>2021-07-20T18:25:23Z</time>
      </trkpt>
      <trkpt lat="49.02065" lon="7.77387">
        <ele>222.68</ele>
        <time>2021-07-20T18:25:24Z</time>
      </trkpt>
      <trkpt lat="49.02076" lon="7.7737">
        <ele>223.64</ele>
        <time>2021-07-20T18:25:25Z</time>
      </trkpt>
      <trkpt lat="49.02087" lon="7.77352">
        <ele>224.12</ele>
        <time>2021-07-20T18:25:26Z</time>
      </trkpt>
      <trkpt lat="49.02099" lon="7.77333">
        <ele>224.61</ele>
        <time>2021-07-20T18:25:27Z</time>
      </trkpt>
      <trkpt lat="49.02181" lon="7.77237">
        <ele>226.05</ele>
        <time>2021-07-20T18:25:33Z</time>
      </trkpt>
      <trkpt lat="49.02194" lon="7.77218">
        <ele>226.05</ele>
        <time>2021-07-20T18:25:34Z</time>
      </trkpt>
      <trkpt lat="49.02277" lon="7.77062">
        <ele>231.81</ele>
        <time>2021-07-20T18:25:42Z</time>
      </trkpt>
      <trkpt lat="49.02289" lon="7.77049">
        <ele>230.85</ele>
        <time>2021-07-20T18:25:43Z</time>
      </trkpt>
      <trkpt lat="49.02301" lon="7.77037">
        <ele>230.85</ele>
        <time>2021-07-20T18:25:44Z</time>
      </trkpt>
      <trkpt lat="49.02313" lon="7.77026">
        <ele>230.85</ele>
        <time>2021-07-20T18:25:45Z</time>
      </trkpt>
      <trkpt lat="49.02326" lon="7.7702">
        <ele>230.37</ele>
        <time>2021-07-20T18:25:46Z</time>
      </trkpt>
      <trkpt lat="49.0234" lon="7.77013">
        <ele>230.37</ele>
        <time>2021-07-20T18:25:47Z</time>
      </trkpt>
      <trkpt lat="49.02353" lon="7.77007">
        <ele>229.89</ele>
        <time>2021-07-20T18:25:48Z</time>
      </trkpt>
      <trkpt lat="49.02365" lon="7.77005">
        <ele>229.89</ele>
        <time>2021-07-20T18:25:49Z</time>
      </trkpt>
      <trkpt lat="49.02378" lon="7.77007">
        <ele>229.41</ele>
        <time>2021-07-20T18:25:50Z</time>
      </trkpt>
      <trkpt lat="49.0239" lon="7.77011">
        <ele>229.41</ele>
        <time>2021-07-20T18:25:51Z</time>
      </trkpt>
      <trkpt lat="49.02403" lon="7.77017">
        <ele>228.93</ele>
        <time>2021-07-20T18:25:52Z</time>
      </trkpt>
      <trkpt lat="49.0252" lon="7.77064">
        <ele>228.45</ele>
        <time>2021-07-20T18:26:01Z</time>
      </trkpt>
      <trkpt lat="49.02564" lon="7.77075">
        <ele>229.41</ele>
        <time>2021-07-20T18:26:05Z</time>
      </trkpt>
      <trkpt lat="49.02573" lon="7.77075">
        <ele>229.41</ele>
        <time>2021-07-20T18:26:06Z</time>
      </trkpt>
      <trkpt lat="49.02581" lon="7.77075">
        <ele>229.41</ele>
        <time>2021-07-20T18:26:07Z</time>
      </trkpt>
      <trkpt lat="49.02682" lon="7.77081">
        <ele>225.09</ele>
        <time>2021-07-20T18:26:17Z</time>
      </trkpt>
      <trkpt lat="49.02706" lon="7.77071">
        <ele>223.16</ele>
        <time>2021-07-20T18:26:19Z</time>
      </trkpt>
      <trkpt lat="49.02718" lon="7.77064">
        <ele>222.68</ele>
        <time>2021-07-20T18:26:20Z</time>
      </trkpt>
      <trkpt lat="49.0273" lon="7.77058">
        <ele>222.2</ele>
        <time>2021-07-20T18:26:21Z</time>
      </trkpt>
      <trkpt lat="49.02739" lon="7.77048">
        <ele>221.72</ele>
        <time>2021-07-20T18:26:22Z</time>
      </trkpt>
      <trkpt lat="49.02749" lon="7.77037">
        <ele>221.24</ele>
        <time>2021-07-20T18:26:23Z</time>
      </trkpt>
      <trkpt lat="49.02839" lon="7.76949">
        <ele>216.91</ele>
        <time>2021-07-20T18:26:31Z</time>
      </trkpt>
      <trkpt lat="49.02852" lon="7.76943">
        <ele>216.43</ele>
        <time>2021-07-20T18:26:32Z</time>
      </trkpt>
      <trkpt lat="49.02996" lon="7.76912">
        <ele>216.91</ele>
        <time>2021-07-20T18:26:42Z</time>
      </trkpt>
      <trkpt lat="49.03086" lon="7.76904">
        <ele>216.91</ele>
        <time>2021-07-20T18:26:50Z</time>
      </trkpt>
      <trkpt lat="49.03134" lon="7.76924">
        <ele>214.03</ele>
        <time>2021-07-20T18:26:58Z</time>
      </trkpt>
    </trkseg>
  </trk>
  <trk>
    <name><![CDATA[Journal actif: 2021-07-21 09:26]]></name>
    <trkseg>
      <trkpt lat="49.04374" lon="7.7751">
        <ele>277.96</ele>
        <time>2021-07-21T11:26:50Z</time>
      </trkpt>
      <trkpt lat="49.04478" lon="7.77569">
        <ele>281.32</ele>
        <time>2021-07-21T11:27:03Z</time>
      </trkpt>
      <trkpt lat="49.04581" lon="7.77688">
        <ele>288.05</ele>
        <time>2021-07-21T11:27:15Z</time>
      </trkpt>
      <trkpt lat="49.04686" lon="7.77827">
        <ele>296.7</ele>
        <time>2021-07-21T11:27:28Z</time>
      </trkpt>
      <trkpt lat="49.04723" lon="7.77868">
        <ele>298.15</ele>
        <time>2021-07-21T11:27:36Z</time>
      </trkpt>
      <trkpt lat="49.04736" lon="7.77899">
        <ele>297.18</ele>
        <time>2021-07-21T11:27:49Z</time>
      </trkpt>
      <trkpt lat="49.04736" lon="7.77899">
        <ele>297.18</ele>
        <time>2021-07-21T11:28:08Z</time>
      </trkpt>
      <trkpt lat="49.04743" lon="7.77933">
        <ele>295.74</ele>
        <time>2021-07-21T11:28:14Z</time>
      </trkpt>
      <trkpt lat="49.04785" lon="7.78023">
        <ele>291.9</ele>
        <time>2021-07-21T11:28:24Z</time>
      </trkpt>
      <trkpt lat="49.04785" lon="7.78023">
        <ele>290.94</ele>
        <time>2021-07-21T11:28:25Z</time>
      </trkpt>
      <trkpt lat="49.0479" lon="7.78028">
        <ele>290.46</ele>
        <time>2021-07-21T11:28:26Z</time>
      </trkpt>
      <trkpt lat="49.04795" lon="7.78032">
        <ele>289.97</ele>
        <time>2021-07-21T11:28:27Z</time>
      </trkpt>
      <trkpt lat="49.048" lon="7.78036">
        <ele>289.49</ele>
        <time>2021-07-21T11:28:28Z</time>
      </trkpt>
      <trkpt lat="49.04864" lon="7.78084">
        <ele>281.8</ele>
        <time>2021-07-21T11:28:40Z</time>
      </trkpt>
      <trkpt lat="49.04908" lon="7.78111">
        <ele>273.63</ele>
        <time>2021-07-21T11:28:50Z</time>
      </trkpt>
      <trkpt lat="49.0492" lon="7.78119">
        <ele>268.35</ele>
        <time>2021-07-21T11:28:58Z</time>
      </trkpt>
      <trkpt lat="49.04922" lon="7.7812">
        <ele>267.38</ele>
        <time>2021-07-21T11:28:59Z</time>
      </trkpt>
      <trkpt lat="49.04924" lon="7.78121">
        <ele>266.9</ele>
        <time>2021-07-21T11:29:00Z</time>
      </trkpt>
      <trkpt lat="49.04924" lon="7.78121">
        <ele>265.94</ele>
        <time>2021-07-21T11:29:01Z</time>
      </trkpt>
      <trkpt lat="49.04924" lon="7.78121">
        <ele>264.98</ele>
        <time>2021-07-21T11:29:02Z</time>
      </trkpt>
      <trkpt lat="49.04915" lon="7.78094">
        <ele>259.21</ele>
        <time>2021-07-21T11:29:09Z</time>
      </trkpt>
      <trkpt lat="49.04908" lon="7.78088">
        <ele>257.77</ele>
        <time>2021-07-21T11:29:11Z</time>
      </trkpt>
      <trkpt lat="49.04871" lon="7.78052">
        <ele>250.08</ele>
        <time>2021-07-21T11:29:20Z</time>
      </trkpt>
      <trkpt lat="49.04874" lon="7.77997">
        <ele>244.31</ele>
        <time>2021-07-21T11:29:26Z</time>
      </trkpt>
      <trkpt lat="49.04877" lon="7.77997">
        <ele>243.35</ele>
        <time>2021-07-21T11:29:27Z</time>
      </trkpt>
      <trkpt lat="49.04879" lon="7.77997">
        <ele>242.87</ele>
        <time>2021-07-21T11:29:28Z</time>
      </trkpt>
      <trkpt lat="49.04881" lon="7.77997">
        <ele>242.39</ele>
        <time>2021-07-21T11:29:29Z</time>
      </trkpt>
      <trkpt lat="49.04882" lon="7.77997">
        <ele>241.91</ele>
        <time>2021-07-21T11:29:30Z</time>
      </trkpt>
      <trkpt lat="49.04884" lon="7.77997">
        <ele>240.95</ele>
        <time>2021-07-21T11:29:31Z</time>
      </trkpt>
      <trkpt lat="49.04887" lon="7.77997">
        <ele>239.99</ele>
        <time>2021-07-21T11:29:32Z</time>
      </trkpt>
      <trkpt lat="49.04889" lon="7.77997">
        <ele>240.47</ele>
        <time>2021-07-21T11:29:33Z</time>
      </trkpt>
      <trkpt lat="49.04935" lon="7.78036">
        <ele>236.14</ele>
        <time>2021-07-21T11:29:41Z</time>
      </trkpt>
      <trkpt lat="49.04939" lon="7.78043">
        <ele>235.66</ele>
        <time>2021-07-21T11:29:42Z</time>
      </trkpt>
      <trkpt lat="49.04943" lon="7.78049">
        <ele>235.18</ele>
        <time>2021-07-21T11:29:43Z</time>
      </trkpt>
      <trkpt lat="49.04955" lon="7.78069">
        <ele>233.74</ele>
        <time>2021-07-21T11:29:46Z</time>
      </trkpt>
      <trkpt lat="49.04963" lon="7.78081">
        <ele>231.81</ele>
        <time>2021-07-21T11:29:48Z</time>
      </trkpt>
      <trkpt lat="49.04975" lon="7.78106">
        <ele>227.97</ele>
        <time>2021-07-21T11:29:52Z</time>
      </trkpt>
      <trkpt lat="49.04976" lon="7.78109">
        <ele>227.01</ele>
        <time>2021-07-21T11:29:53Z</time>
      </trkpt>
      <trkpt lat="49.04971" lon="7.78094">
        <ele>226.05</ele>
        <time>2021-07-21T11:29:54Z</time>
      </trkpt>
      <trkpt lat="49.04975" lon="7.78171">
        <ele>224.12</ele>
        <time>2021-07-21T11:29:56Z</time>
      </trkpt>
      <trkpt lat="49.04981" lon="7.78143">
        <ele>223.16</ele>
        <time>2021-07-21T11:29:57Z</time>
      </trkpt>
      <trkpt lat="49.04981" lon="7.78138">
        <ele>222.2</ele>
        <time>2021-07-21T11:29:58Z</time>
      </trkpt>
      <trkpt lat="49.04981" lon="7.78133">
        <ele>220.76</ele>
        <time>2021-07-21T11:29:59Z</time>
      </trkpt>
      <trkpt lat="49.04978" lon="7.78118">
        <ele>219.8</ele>
        <time>2021-07-21T11:30:00Z</time>
      </trkpt>
      <trkpt lat="49.04958" lon="7.78074">
        <ele>213.55</ele>
        <time>2021-07-21T11:30:10Z</time>
      </trkpt>
      <trkpt lat="49.04948" lon="7.78056">
        <ele>214.03</ele>
        <time>2021-07-21T11:30:22Z</time>
      </trkpt>
      <trkpt lat="49.04936" lon="7.78038">
        <ele>212.59</ele>
        <time>2021-07-21T11:30:36Z</time>
      </trkpt>
      <trkpt lat="49.04925" lon="7.78019">
        <ele>214.99</ele>
        <time>2021-07-21T11:30:47Z</time>
      </trkpt>
      <trkpt lat="49.04921" lon="7.78014">
        <ele>221.72</ele>
        <time>2021-07-21T11:31:00Z</time>
      </trkpt>
    </trkseg>
  </trk>
  <trk>
    <name><![CDATA[Journal actif: 2021-07-21 10:49]]></name>
    <trkseg>
      <trkpt lat="49.04923" lon="7.78021">
        <ele>345.73</ele>
        <time>2021-07-21T12:49:25Z</time>
      </trkpt>
      <trkpt lat="49.04922" lon="7.78018">
        <ele>343.81</ele>
        <time>2021-07-21T12:49:55Z</time>
      </trkpt>
      <trkpt lat="49.04921" lon="7.78015">
        <ele>340.92</ele>
        <time>2021-07-21T12:50:19Z</time>
      </trkpt>
      <trkpt lat="49.0492" lon="7.78012">
        <ele>339</ele>
        <time>2021-07-21T12:50:56Z</time>
      </trkpt>
      <trkpt lat="49.04921" lon="7.78019">
        <ele>338.04</ele>
        <time>2021-07-21T12:51:21Z</time>
      </trkpt>
      <trkpt lat="49.04914" lon="7.78014">
        <ele>336.6</ele>
        <time>2021-07-21T12:51:44Z</time>
      </trkpt>
      <trkpt lat="49.04902" lon="7.77992">
        <ele>334.2</ele>
        <time>2021-07-21T12:51:57Z</time>
      </trkpt>
      <trkpt lat="49.0488" lon="7.77997">
        <ele>325.54</ele>
        <time>2021-07-21T12:52:12Z</time>
      </trkpt>
      <trkpt lat="49.04873" lon="7.77997">
        <ele>324.58</ele>
        <time>2021-07-21T12:52:14Z</time>
      </trkpt>
      <trkpt lat="49.04868" lon="7.77997">
        <ele>323.62</ele>
        <time>2021-07-21T12:52:15Z</time>
      </trkpt>
      <trkpt lat="49.04865" lon="7.77995">
        <ele>323.14</ele>
        <time>2021-07-21T12:52:16Z</time>
      </trkpt>
      <trkpt lat="49.04819" lon="7.77954">
        <ele>313.53</ele>
        <time>2021-07-21T12:52:28Z</time>
      </trkpt>
      <trkpt lat="49.04757" lon="7.77899">
        <ele>303.91</ele>
        <time>2021-07-21T12:52:40Z</time>
      </trkpt>
      <trkpt lat="49.04665" lon="7.77802">
        <ele>296.7</ele>
        <time>2021-07-21T12:52:55Z</time>
      </trkpt>
      <trkpt lat="49.04576" lon="7.77682">
        <ele>293.34</ele>
        <time>2021-07-21T12:53:07Z</time>
      </trkpt>
      <trkpt lat="49.04472" lon="7.77562">
        <ele>287.57</ele>
        <time>2021-07-21T12:53:19Z</time>
      </trkpt>
      <trkpt lat="49.04352" lon="7.77511">
        <ele>283.73</ele>
        <time>2021-07-21T12:53:30Z</time>
      </trkpt>
      <trkpt lat="49.04233" lon="7.7746">
        <ele>274.59</ele>
        <time>2021-07-21T12:53:40Z</time>
      </trkpt>
      <trkpt lat="49.0411" lon="7.77342">
        <ele>254.89</ele>
        <time>2021-07-21T12:53:51Z</time>
      </trkpt>
      <trkpt lat="49.04004" lon="7.77224">
        <ele>238.54</ele>
        <time>2021-07-21T12:54:00Z</time>
      </trkpt>
      <trkpt lat="49.03954" lon="7.77157">
        <ele>231.81</ele>
        <time>2021-07-21T12:54:05Z</time>
      </trkpt>
      <trkpt lat="49.03943" lon="7.77146">
        <ele>230.37</ele>
        <time>2021-07-21T12:54:06Z</time>
      </trkpt>
      <trkpt lat="49.03917" lon="7.7712">
        <ele>226.05</ele>
        <time>2021-07-21T12:54:09Z</time>
      </trkpt>
      <trkpt lat="49.03907" lon="7.77111">
        <ele>224.61</ele>
        <time>2021-07-21T12:54:10Z</time>
      </trkpt>
      <trkpt lat="49.03897" lon="7.77102">
        <ele>225.57</ele>
        <time>2021-07-21T12:54:11Z</time>
      </trkpt>
      <trkpt lat="49.03888" lon="7.77092">
        <ele>224.61</ele>
        <time>2021-07-21T12:54:12Z</time>
      </trkpt>
      <trkpt lat="49.03879" lon="7.77076">
        <ele>223.64</ele>
        <time>2021-07-21T12:54:13Z</time>
      </trkpt>
      <trkpt lat="49.03873" lon="7.7706">
        <ele>222.68</ele>
        <time>2021-07-21T12:54:14Z</time>
      </trkpt>
      <trkpt lat="49.03866" lon="7.77023">
        <ele>221.72</ele>
        <time>2021-07-21T12:54:15Z</time>
      </trkpt>
      <trkpt lat="49.03836" lon="7.76909">
        <ele>211.15</ele>
        <time>2021-07-21T12:54:24Z</time>
      </trkpt>
      <trkpt lat="49.03818" lon="7.76879">
        <ele>208.74</ele>
        <time>2021-07-21T12:54:27Z</time>
      </trkpt>
      <trkpt lat="49.03793" lon="7.76771">
        <ele>200.09</ele>
        <time>2021-07-21T12:54:36Z</time>
      </trkpt>
      <trkpt lat="49.03781" lon="7.76738">
        <ele>203.46</ele>
        <time>2021-07-21T12:54:43Z</time>
      </trkpt>
      <trkpt lat="49.03781" lon="7.76738">
        <ele>204.42</ele>
        <time>2021-07-21T12:54:46Z</time>
      </trkpt>
      <trkpt lat="49.03773" lon="7.76729">
        <ele>204.42</ele>
        <time>2021-07-21T12:54:47Z</time>
      </trkpt>
      <trkpt lat="49.03773" lon="7.76729">
        <ele>204.42</ele>
        <time>2021-07-21T12:54:48Z</time>
      </trkpt>
      <trkpt lat="49.03763" lon="7.76734">
        <ele>204.42</ele>
        <time>2021-07-21T12:54:50Z</time>
      </trkpt>
      <trkpt lat="49.03698" lon="7.76762">
        <ele>201.05</ele>
        <time>2021-07-21T12:54:58Z</time>
      </trkpt>
      <trkpt lat="49.036" lon="7.76822">
        <ele>195.77</ele>
        <time>2021-07-21T12:55:07Z</time>
      </trkpt>
      <trkpt lat="49.03442" lon="7.76906">
        <ele>197.21</ele>
        <time>2021-07-21T12:55:20Z</time>
      </trkpt>
      <trkpt lat="49.03284" lon="7.76968">
        <ele>202.01</ele>
        <time>2021-07-21T12:55:34Z</time>
      </trkpt>
      <trkpt lat="49.03223" lon="7.76966">
        <ele>203.94</ele>
        <time>2021-07-21T12:55:40Z</time>
      </trkpt>
      <trkpt lat="49.03124" lon="7.76919">
        <ele>207.3</ele>
        <time>2021-07-21T12:55:51Z</time>
      </trkpt>
      <trkpt lat="49.03076" lon="7.76901">
        <ele>206.34</ele>
        <time>2021-07-21T12:55:57Z</time>
      </trkpt>
      <trkpt lat="49.03066" lon="7.76902">
        <ele>206.82</ele>
        <time>2021-07-21T12:55:58Z</time>
      </trkpt>
      <trkpt lat="49.03066" lon="7.76902">
        <ele>206.34</ele>
        <time>2021-07-21T12:55:59Z</time>
      </trkpt>
      <trkpt lat="49.02935" lon="7.76922">
        <ele>200.57</ele>
        <time>2021-07-21T12:56:09Z</time>
      </trkpt>
      <trkpt lat="49.02797" lon="7.76985">
        <ele>195.77</ele>
        <time>2021-07-21T12:56:18Z</time>
      </trkpt>
      <trkpt lat="49.02741" lon="7.77046">
        <ele>193.36</ele>
        <time>2021-07-21T12:56:24Z</time>
      </trkpt>
      <trkpt lat="49.0273" lon="7.77058">
        <ele>192.88</ele>
        <time>2021-07-21T12:56:25Z</time>
      </trkpt>
      <trkpt lat="49.02718" lon="7.77065">
        <ele>192.88</ele>
        <time>2021-07-21T12:56:26Z</time>
      </trkpt>
      <trkpt lat="49.0263" lon="7.77089">
        <ele>194.8</ele>
        <time>2021-07-21T12:56:34Z</time>
      </trkpt>
      <trkpt lat="49.02601" lon="7.77083">
        <ele>195.28</ele>
        <time>2021-07-21T12:56:41Z</time>
      </trkpt>
      <trkpt lat="49.0259" lon="7.77078">
        <ele>195.28</ele>
        <time>2021-07-21T12:56:46Z</time>
      </trkpt>
      <trkpt lat="49.0259" lon="7.77078">
        <ele>195.28</ele>
        <time>2021-07-21T12:56:47Z</time>
      </trkpt>
      <trkpt lat="49.02579" lon="7.77075">
        <ele>194.8</ele>
        <time>2021-07-21T12:56:49Z</time>
      </trkpt>
      <trkpt lat="49.02563" lon="7.77075">
        <ele>194.8</ele>
        <time>2021-07-21T12:56:50Z</time>
      </trkpt>
      <trkpt lat="49.02474" lon="7.7705">
        <ele>194.32</ele>
        <time>2021-07-21T12:56:58Z</time>
      </trkpt>
      <trkpt lat="49.02388" lon="7.77009">
        <ele>195.28</ele>
        <time>2021-07-21T12:57:06Z</time>
      </trkpt>
      <trkpt lat="49.02377" lon="7.77007">
        <ele>195.28</ele>
        <time>2021-07-21T12:57:07Z</time>
      </trkpt>
      <trkpt lat="49.02364" lon="7.77005">
        <ele>195.77</ele>
        <time>2021-07-21T12:57:08Z</time>
      </trkpt>
      <trkpt lat="49.02341" lon="7.77012">
        <ele>195.28</ele>
        <time>2021-07-21T12:57:09Z</time>
      </trkpt>
      <trkpt lat="49.02341" lon="7.77012">
        <ele>193.84</ele>
        <time>2021-07-21T12:57:10Z</time>
      </trkpt>
      <trkpt lat="49.02329" lon="7.77018">
        <ele>193.36</ele>
        <time>2021-07-21T12:57:11Z</time>
      </trkpt>
      <trkpt lat="49.02316" lon="7.77024">
        <ele>192.88</ele>
        <time>2021-07-21T12:57:12Z</time>
      </trkpt>
      <trkpt lat="49.02294" lon="7.77044">
        <ele>191.92</ele>
        <time>2021-07-21T12:57:13Z</time>
      </trkpt>
      <trkpt lat="49.02294" lon="7.77044">
        <ele>191.92</ele>
        <time>2021-07-21T12:57:14Z</time>
      </trkpt>
      <trkpt lat="49.02283" lon="7.77055">
        <ele>191.92</ele>
        <time>2021-07-21T12:57:15Z</time>
      </trkpt>
      <trkpt lat="49.02273" lon="7.77069">
        <ele>191.44</ele>
        <time>2021-07-21T12:57:16Z</time>
      </trkpt>
      <trkpt lat="49.02264" lon="7.77085">
        <ele>191.44</ele>
        <time>2021-07-21T12:57:17Z</time>
      </trkpt>
      <trkpt lat="49.0216" lon="7.77262">
        <ele>192.88</ele>
        <time>2021-07-21T12:57:28Z</time>
      </trkpt>
      <trkpt lat="49.0205" lon="7.77421">
        <ele>195.28</ele>
        <time>2021-07-21T12:57:38Z</time>
      </trkpt>
      <trkpt lat="49.02041" lon="7.7744">
        <ele>195.28</ele>
        <time>2021-07-21T12:57:39Z</time>
      </trkpt>
      <trkpt lat="49.01974" lon="7.77691">
        <ele>198.17</ele>
        <time>2021-07-21T12:57:49Z</time>
      </trkpt>
      <trkpt lat="49.01923" lon="7.77807">
        <ele>200.57</ele>
        <time>2021-07-21T12:57:56Z</time>
      </trkpt>
      <trkpt lat="49.01914" lon="7.77821">
        <ele>200.57</ele>
        <time>2021-07-21T12:57:57Z</time>
      </trkpt>
      <trkpt lat="49.01902" lon="7.77832">
        <ele>200.09</ele>
        <time>2021-07-21T12:57:58Z</time>
      </trkpt>
      <trkpt lat="49.01879" lon="7.77856">
        <ele>199.61</ele>
        <time>2021-07-21T12:57:59Z</time>
      </trkpt>
      <trkpt lat="49.01867" lon="7.77867">
        <ele>199.61</ele>
        <time>2021-07-21T12:58:00Z</time>
      </trkpt>
      <trkpt lat="49.01842" lon="7.7788">
        <ele>199.61</ele>
        <time>2021-07-21T12:58:02Z</time>
      </trkpt>
      <trkpt lat="49.01842" lon="7.7788">
        <ele>200.09</ele>
        <time>2021-07-21T12:58:03Z</time>
      </trkpt>
      <trkpt lat="49.01829" lon="7.77882">
        <ele>201.05</ele>
        <time>2021-07-21T12:58:04Z</time>
      </trkpt>
      <trkpt lat="49.01815" lon="7.77882">
        <ele>201.53</ele>
        <time>2021-07-21T12:58:05Z</time>
      </trkpt>
      <trkpt lat="49.01801" lon="7.77883">
        <ele>201.53</ele>
        <time>2021-07-21T12:58:06Z</time>
      </trkpt>
      <trkpt lat="49.01737" lon="7.77884">
        <ele>202.49</ele>
        <time>2021-07-21T12:58:10Z</time>
      </trkpt>
      <trkpt lat="49.01737" lon="7.77884">
        <ele>202.49</ele>
        <time>2021-07-21T12:58:11Z</time>
      </trkpt>
      <trkpt lat="49.01725" lon="7.77889">
        <ele>202.49</ele>
        <time>2021-07-21T12:58:12Z</time>
      </trkpt>
      <trkpt lat="49.01707" lon="7.77915">
        <ele>202.01</ele>
        <time>2021-07-21T12:58:13Z</time>
      </trkpt>
      <trkpt lat="49.017" lon="7.7793">
        <ele>201.53</ele>
        <time>2021-07-21T12:58:14Z</time>
      </trkpt>
      <trkpt lat="49.017" lon="7.7793">
        <ele>201.05</ele>
        <time>2021-07-21T12:58:15Z</time>
      </trkpt>
      <trkpt lat="49.01688" lon="7.77965">
        <ele>200.57</ele>
        <time>2021-07-21T12:58:16Z</time>
      </trkpt>
      <trkpt lat="49.01688" lon="7.77965">
        <ele>200.57</ele>
        <time>2021-07-21T12:58:17Z</time>
      </trkpt>
      <trkpt lat="49.01641" lon="7.78127">
        <ele>198.17</ele>
        <time>2021-07-21T12:58:25Z</time>
      </trkpt>
      <trkpt lat="49.01631" lon="7.78142">
        <ele>197.69</ele>
        <time>2021-07-21T12:58:26Z</time>
      </trkpt>
      <trkpt lat="49.01631" lon="7.78142">
        <ele>197.21</ele>
        <time>2021-07-21T12:58:27Z</time>
      </trkpt>
      <trkpt lat="49.01621" lon="7.78156">
        <ele>197.21</ele>
        <time>2021-07-21T12:58:28Z</time>
      </trkpt>
      <trkpt lat="49.01611" lon="7.78169">
        <ele>197.21</ele>
        <time>2021-07-21T12:58:29Z</time>
      </trkpt>
      <trkpt lat="49.016" lon="7.78179">
        <ele>197.21</ele>
        <time>2021-07-21T12:58:30Z</time>
      </trkpt>
      <trkpt lat="49.01588" lon="7.78185">
        <ele>197.69</ele>
        <time>2021-07-21T12:58:31Z</time>
      </trkpt>
      <trkpt lat="49.01575" lon="7.78191">
        <ele>197.69</ele>
        <time>2021-07-21T12:58:32Z</time>
      </trkpt>
      <trkpt lat="49.01564" lon="7.7819">
        <ele>197.69</ele>
        <time>2021-07-21T12:58:33Z</time>
      </trkpt>
      <trkpt lat="49.01551" lon="7.78185">
        <ele>197.69</ele>
        <time>2021-07-21T12:58:34Z</time>
      </trkpt>
      <trkpt lat="49.01538" lon="7.7818">
        <ele>197.69</ele>
        <time>2021-07-21T12:58:35Z</time>
      </trkpt>
      <trkpt lat="49.01526" lon="7.7817">
        <ele>197.69</ele>
        <time>2021-07-21T12:58:36Z</time>
      </trkpt>
      <trkpt lat="49.01515" lon="7.78156">
        <ele>197.21</ele>
        <time>2021-07-21T12:58:37Z</time>
      </trkpt>
      <trkpt lat="49.01503" lon="7.78143">
        <ele>197.21</ele>
        <time>2021-07-21T12:58:38Z</time>
      </trkpt>
      <trkpt lat="49.01494" lon="7.78126">
        <ele>196.73</ele>
        <time>2021-07-21T12:58:39Z</time>
      </trkpt>
      <trkpt lat="49.01486" lon="7.78108">
        <ele>196.25</ele>
        <time>2021-07-21T12:58:40Z</time>
      </trkpt>
      <trkpt lat="49.0148" lon="7.78088">
        <ele>196.25</ele>
        <time>2021-07-21T12:58:41Z</time>
      </trkpt>
      <trkpt lat="49.01475" lon="7.78068">
        <ele>195.77</ele>
        <time>2021-07-21T12:58:42Z</time>
      </trkpt>
      <trkpt lat="49.0147" lon="7.78046">
        <ele>195.77</ele>
        <time>2021-07-21T12:58:43Z</time>
      </trkpt>
      <trkpt lat="49.01448" lon="7.7795">
        <ele>195.28</ele>
        <time>2021-07-21T12:58:47Z</time>
      </trkpt>
      <trkpt lat="49.01448" lon="7.7795">
        <ele>195.28</ele>
        <time>2021-07-21T12:58:48Z</time>
      </trkpt>
      <trkpt lat="49.01438" lon="7.77942">
        <ele>194.32</ele>
        <time>2021-07-21T12:58:49Z</time>
      </trkpt>
      <trkpt lat="49.01432" lon="7.77937">
        <ele>193.36</ele>
        <time>2021-07-21T12:58:50Z</time>
      </trkpt>
      <trkpt lat="49.0142" lon="7.77937">
        <ele>193.36</ele>
        <time>2021-07-21T12:58:51Z</time>
      </trkpt>
      <trkpt lat="49.01415" lon="7.77937">
        <ele>193.36</ele>
        <time>2021-07-21T12:58:52Z</time>
      </trkpt>
      <trkpt lat="49.01406" lon="7.77943">
        <ele>192.4</ele>
        <time>2021-07-21T12:58:53Z</time>
      </trkpt>
      <trkpt lat="49.014" lon="7.77946">
        <ele>191.92</ele>
        <time>2021-07-21T12:58:54Z</time>
      </trkpt>
      <trkpt lat="49.01389" lon="7.77969">
        <ele>191.92</ele>
        <time>2021-07-21T12:58:55Z</time>
      </trkpt>
      <trkpt lat="49.01389" lon="7.77969">
        <ele>191.92</ele>
        <time>2021-07-21T12:58:56Z</time>
      </trkpt>
      <trkpt lat="49.01385" lon="7.77988">
        <ele>191.92</ele>
        <time>2021-07-21T12:58:57Z</time>
      </trkpt>
      <trkpt lat="49.01381" lon="7.78008">
        <ele>191.44</ele>
        <time>2021-07-21T12:58:58Z</time>
      </trkpt>
      <trkpt lat="49.01356" lon="7.78259">
        <ele>185.67</ele>
        <time>2021-07-21T12:59:10Z</time>
      </trkpt>
      <trkpt lat="49.01354" lon="7.78278">
        <ele>186.63</ele>
        <time>2021-07-21T12:59:11Z</time>
      </trkpt>
      <trkpt lat="49.01351" lon="7.78296">
        <ele>186.15</ele>
        <time>2021-07-21T12:59:12Z</time>
      </trkpt>
      <trkpt lat="49.01346" lon="7.78318">
        <ele>186.63</ele>
        <time>2021-07-21T12:59:13Z</time>
      </trkpt>
      <trkpt lat="49.01343" lon="7.78337">
        <ele>187.11</ele>
        <time>2021-07-21T12:59:14Z</time>
      </trkpt>
      <trkpt lat="49.01339" lon="7.78352">
        <ele>187.59</ele>
        <time>2021-07-21T12:59:15Z</time>
      </trkpt>
      <trkpt lat="49.01331" lon="7.78368">
        <ele>188.08</ele>
        <time>2021-07-21T12:59:16Z</time>
      </trkpt>
      <trkpt lat="49.01323" lon="7.78383">
        <ele>189.04</ele>
        <time>2021-07-21T12:59:17Z</time>
      </trkpt>
      <trkpt lat="49.01315" lon="7.78398">
        <ele>189.04</ele>
        <time>2021-07-21T12:59:18Z</time>
      </trkpt>
      <trkpt lat="49.01203" lon="7.78551">
        <ele>190.48</ele>
        <time>2021-07-21T12:59:28Z</time>
      </trkpt>
      <trkpt lat="49.01122" lon="7.78664">
        <ele>191.92</ele>
        <time>2021-07-21T12:59:36Z</time>
      </trkpt>
      <trkpt lat="49.01053" lon="7.78744">
        <ele>196.25</ele>
        <time>2021-07-21T12:59:44Z</time>
      </trkpt>
      <trkpt lat="49.01046" lon="7.78756">
        <ele>196.25</ele>
        <time>2021-07-21T12:59:45Z</time>
      </trkpt>
      <trkpt lat="49.01038" lon="7.78767">
        <ele>196.73</ele>
        <time>2021-07-21T12:59:46Z</time>
      </trkpt>
      <trkpt lat="49.01005" lon="7.7883">
        <ele>198.17</ele>
        <time>2021-07-21T12:59:52Z</time>
      </trkpt>
      <trkpt lat="49.00999" lon="7.78837">
        <ele>198.17</ele>
        <time>2021-07-21T12:59:53Z</time>
      </trkpt>
      <trkpt lat="49.00994" lon="7.78843">
        <ele>198.17</ele>
        <time>2021-07-21T12:59:54Z</time>
      </trkpt>
      <trkpt lat="49.00988" lon="7.78849">
        <ele>197.69</ele>
        <time>2021-07-21T12:59:55Z</time>
      </trkpt>
      <trkpt lat="49.00982" lon="7.78852">
        <ele>197.69</ele>
        <time>2021-07-21T12:59:56Z</time>
      </trkpt>
      <trkpt lat="49.00974" lon="7.78855">
        <ele>197.69</ele>
        <time>2021-07-21T12:59:57Z</time>
      </trkpt>
      <trkpt lat="49.00966" lon="7.78859">
        <ele>197.69</ele>
        <time>2021-07-21T12:59:58Z</time>
      </trkpt>
      <trkpt lat="49.00824" lon="7.78906">
        <ele>198.17</ele>
        <time>2021-07-21T13:00:17Z</time>
      </trkpt>
      <trkpt lat="49.00713" lon="7.78941">
        <ele>202.01</ele>
        <time>2021-07-21T13:00:30Z</time>
      </trkpt>
      <trkpt lat="49.00626" lon="7.78968">
        <ele>205.38</ele>
        <time>2021-07-21T13:00:42Z</time>
      </trkpt>
      <trkpt lat="49.00513" lon="7.79005">
        <ele>205.38</ele>
        <time>2021-07-21T13:00:59Z</time>
      </trkpt>
      <trkpt lat="49.00484" lon="7.79011">
        <ele>203.94</ele>
        <time>2021-07-21T13:01:05Z</time>
      </trkpt>
      <trkpt lat="49.00474" lon="7.79013">
        <ele>202.49</ele>
        <time>2021-07-21T13:01:12Z</time>
      </trkpt>
      <trkpt lat="49.0047" lon="7.79014">
        <ele>202.01</ele>
        <time>2021-07-21T13:01:13Z</time>
      </trkpt>
      <trkpt lat="49.00466" lon="7.79015">
        <ele>201.05</ele>
        <time>2021-07-21T13:01:14Z</time>
      </trkpt>
      <trkpt lat="49.00461" lon="7.79016">
        <ele>200.57</ele>
        <time>2021-07-21T13:01:15Z</time>
      </trkpt>
      <trkpt lat="49.00457" lon="7.79016">
        <ele>199.61</ele>
        <time>2021-07-21T13:01:16Z</time>
      </trkpt>
      <trkpt lat="49.00397" lon="7.79004">
        <ele>193.84</ele>
        <time>2021-07-21T13:01:28Z</time>
      </trkpt>
      <trkpt lat="49.00386" lon="7.79001">
        <ele>194.8</ele>
        <time>2021-07-21T13:01:38Z</time>
      </trkpt>
      <trkpt lat="49.00386" lon="7.79001">
        <ele>194.32</ele>
        <time>2021-07-21T13:07:56Z</time>
      </trkpt>
      <trkpt lat="49.00386" lon="7.79001">
        <ele>194.32</ele>
        <time>2021-07-21T13:08:55Z</time>
      </trkpt>
      <trkpt lat="49.00366" lon="7.78987">
        <ele>193.84</ele>
        <time>2021-07-21T13:09:06Z</time>
      </trkpt>
      <trkpt lat="49.00361" lon="7.78991">
        <ele>192.88</ele>
        <time>2021-07-21T13:09:08Z</time>
      </trkpt>
      <trkpt lat="49.00355" lon="7.78995">
        <ele>192.88</ele>
        <time>2021-07-21T13:09:09Z</time>
      </trkpt>
      <trkpt lat="49.00356" lon="7.78996">
        <ele>192.4</ele>
        <time>2021-07-21T13:09:10Z</time>
      </trkpt>
      <trkpt lat="49.00356" lon="7.78996">
        <ele>192.4</ele>
        <time>2021-07-21T13:09:11Z</time>
      </trkpt>
      <trkpt lat="49.00358" lon="7.79005">
        <ele>191.92</ele>
        <time>2021-07-21T13:09:12Z</time>
      </trkpt>
      <trkpt lat="49.00358" lon="7.79005">
        <ele>191.44</ele>
        <time>2021-07-21T13:09:13Z</time>
      </trkpt>
      <trkpt lat="49.00363" lon="7.79008">
        <ele>191.44</ele>
        <time>2021-07-21T13:09:14Z</time>
      </trkpt>
      <trkpt lat="49.00363" lon="7.79008">
        <ele>190.96</ele>
        <time>2021-07-21T13:09:15Z</time>
      </trkpt>
      <trkpt lat="49.00366" lon="7.79008">
        <ele>190.96</ele>
        <time>2021-07-21T13:09:16Z</time>
      </trkpt>
      <trkpt lat="49.00374" lon="7.78998">
        <ele>191.44</ele>
        <time>2021-07-21T13:09:18Z</time>
      </trkpt>
      <trkpt lat="49.00379" lon="7.78999">
        <ele>191.92</ele>
        <time>2021-07-21T13:09:19Z</time>
      </trkpt>
      <trkpt lat="49.0046" lon="7.79016">
        <ele>191.44</ele>
        <time>2021-07-21T13:09:32Z</time>
      </trkpt>
      <trkpt lat="49.00466" lon="7.79015">
        <ele>191.44</ele>
        <time>2021-07-21T13:09:33Z</time>
      </trkpt>
      <trkpt lat="49.00472" lon="7.79014">
        <ele>191.44</ele>
        <time>2021-07-21T13:09:34Z</time>
      </trkpt>
      <trkpt lat="49.00483" lon="7.79011">
        <ele>191.92</ele>
        <time>2021-07-21T13:09:36Z</time>
      </trkpt>
      <trkpt lat="49.00561" lon="7.78989">
        <ele>199.13</ele>
        <time>2021-07-21T13:09:48Z</time>
      </trkpt>
      <trkpt lat="49.00689" lon="7.78948">
        <ele>199.13</ele>
        <time>2021-07-21T13:10:03Z</time>
      </trkpt>
      <trkpt lat="49.00824" lon="7.78906">
        <ele>197.69</ele>
        <time>2021-07-21T13:10:17Z</time>
      </trkpt>
      <trkpt lat="49.00936" lon="7.78871">
        <ele>202.01</ele>
        <time>2021-07-21T13:10:31Z</time>
      </trkpt>
      <trkpt lat="49.00982" lon="7.78852">
        <ele>203.94</ele>
        <time>2021-07-21T13:10:38Z</time>
      </trkpt>
      <trkpt lat="49.00989" lon="7.78848">
        <ele>203.94</ele>
        <time>2021-07-21T13:10:39Z</time>
      </trkpt>
      <trkpt lat="49.00996" lon="7.78841">
        <ele>204.42</ele>
        <time>2021-07-21T13:10:40Z</time>
      </trkpt>
      <trkpt lat="49.01003" lon="7.78833">
        <ele>204.42</ele>
        <time>2021-07-21T13:10:41Z</time>
      </trkpt>
      <trkpt lat="49.01009" lon="7.78825">
        <ele>204.9</ele>
        <time>2021-07-21T13:10:42Z</time>
      </trkpt>
      <trkpt lat="49.01045" lon="7.78757">
        <ele>204.42</ele>
        <time>2021-07-21T13:10:48Z</time>
      </trkpt>
      <trkpt lat="49.0106" lon="7.78733">
        <ele>204.42</ele>
        <time>2021-07-21T13:10:49Z</time>
      </trkpt>
      <trkpt lat="49.0106" lon="7.78733">
        <ele>203.94</ele>
        <time>2021-07-21T13:10:50Z</time>
      </trkpt>
      <trkpt lat="49.01186" lon="7.78577">
        <ele>200.09</ele>
        <time>2021-07-21T13:11:04Z</time>
      </trkpt>
      <trkpt lat="49.01303" lon="7.78416">
        <ele>194.8</ele>
        <time>2021-07-21T13:11:18Z</time>
      </trkpt>
      <trkpt lat="49.01326" lon="7.78377">
        <ele>194.8</ele>
        <time>2021-07-21T13:11:21Z</time>
      </trkpt>
      <trkpt lat="49.01334" lon="7.7836">
        <ele>194.32</ele>
        <time>2021-07-21T13:11:22Z</time>
      </trkpt>
      <trkpt lat="49.01341" lon="7.78346">
        <ele>194.32</ele>
        <time>2021-07-21T13:11:23Z</time>
      </trkpt>
      <trkpt lat="49.01345" lon="7.78326">
        <ele>194.32</ele>
        <time>2021-07-21T13:11:24Z</time>
      </trkpt>
      <trkpt lat="49.01349" lon="7.78306">
        <ele>194.32</ele>
        <time>2021-07-21T13:11:25Z</time>
      </trkpt>
      <trkpt lat="49.01353" lon="7.78285">
        <ele>194.8</ele>
        <time>2021-07-21T13:11:26Z</time>
      </trkpt>
      <trkpt lat="49.01356" lon="7.78264">
        <ele>194.8</ele>
        <time>2021-07-21T13:11:27Z</time>
      </trkpt>
      <trkpt lat="49.01357" lon="7.78241">
        <ele>194.8</ele>
        <time>2021-07-21T13:11:28Z</time>
      </trkpt>
      <trkpt lat="49.01358" lon="7.78218">
        <ele>194.8</ele>
        <time>2021-07-21T13:11:29Z</time>
      </trkpt>
      <trkpt lat="49.0138" lon="7.78014">
        <ele>197.21</ele>
        <time>2021-07-21T13:11:39Z</time>
      </trkpt>
      <trkpt lat="49.01389" lon="7.77966">
        <ele>197.69</ele>
        <time>2021-07-21T13:11:42Z</time>
      </trkpt>
      <trkpt lat="49.01395" lon="7.77956">
        <ele>197.69</ele>
        <time>2021-07-21T13:11:43Z</time>
      </trkpt>
      <trkpt lat="49.014" lon="7.77946">
        <ele>197.69</ele>
        <time>2021-07-21T13:11:44Z</time>
      </trkpt>
      <trkpt lat="49.01409" lon="7.77941">
        <ele>197.69</ele>
        <time>2021-07-21T13:11:45Z</time>
      </trkpt>
      <trkpt lat="49.01416" lon="7.77937">
        <ele>197.69</ele>
        <time>2021-07-21T13:11:46Z</time>
      </trkpt>
      <trkpt lat="49.01427" lon="7.77937">
        <ele>197.21</ele>
        <time>2021-07-21T13:11:47Z</time>
      </trkpt>
      <trkpt lat="49.01435" lon="7.7794">
        <ele>197.21</ele>
        <time>2021-07-21T13:11:48Z</time>
      </trkpt>
      <trkpt lat="49.01445" lon="7.77948">
        <ele>196.73</ele>
        <time>2021-07-21T13:11:49Z</time>
      </trkpt>
      <trkpt lat="49.01451" lon="7.77959">
        <ele>196.73</ele>
        <time>2021-07-21T13:11:50Z</time>
      </trkpt>
      <trkpt lat="49.01456" lon="7.77972">
        <ele>196.25</ele>
        <time>2021-07-21T13:11:51Z</time>
      </trkpt>
      <trkpt lat="49.01459" lon="7.77989">
        <ele>195.77</ele>
        <time>2021-07-21T13:11:52Z</time>
      </trkpt>
      <trkpt lat="49.01463" lon="7.78009">
        <ele>195.77</ele>
        <time>2021-07-21T13:11:53Z</time>
      </trkpt>
      <trkpt lat="49.01479" lon="7.78086">
        <ele>194.8</ele>
        <time>2021-07-21T13:11:57Z</time>
      </trkpt>
      <trkpt lat="49.01486" lon="7.78107">
        <ele>194.8</ele>
        <time>2021-07-21T13:11:58Z</time>
      </trkpt>
      <trkpt lat="49.01493" lon="7.78124">
        <ele>194.8</ele>
        <time>2021-07-21T13:11:59Z</time>
      </trkpt>
      <trkpt lat="49.01502" lon="7.78142">
        <ele>194.8</ele>
        <time>2021-07-21T13:12:00Z</time>
      </trkpt>
      <trkpt lat="49.01513" lon="7.78155">
        <ele>194.8</ele>
        <time>2021-07-21T13:12:01Z</time>
      </trkpt>
      <trkpt lat="49.01525" lon="7.78168">
        <ele>194.8</ele>
        <time>2021-07-21T13:12:02Z</time>
      </trkpt>
      <trkpt lat="49.01536" lon="7.7818">
        <ele>194.8</ele>
        <time>2021-07-21T13:12:03Z</time>
      </trkpt>
      <trkpt lat="49.0155" lon="7.78185">
        <ele>195.28</ele>
        <time>2021-07-21T13:12:04Z</time>
      </trkpt>
      <trkpt lat="49.01575" lon="7.78191">
        <ele>195.28</ele>
        <time>2021-07-21T13:12:05Z</time>
      </trkpt>
      <trkpt lat="49.01586" lon="7.78185">
        <ele>195.28</ele>
        <time>2021-07-21T13:12:06Z</time>
      </trkpt>
      <trkpt lat="49.01586" lon="7.78185">
        <ele>195.28</ele>
        <time>2021-07-21T13:12:07Z</time>
      </trkpt>
      <trkpt lat="49.01598" lon="7.78179">
        <ele>195.77</ele>
        <time>2021-07-21T13:12:08Z</time>
      </trkpt>
      <trkpt lat="49.01609" lon="7.78171">
        <ele>196.25</ele>
        <time>2021-07-21T13:12:09Z</time>
      </trkpt>
      <trkpt lat="49.01619" lon="7.78158">
        <ele>196.25</ele>
        <time>2021-07-21T13:12:10Z</time>
      </trkpt>
      <trkpt lat="49.01629" lon="7.78145">
        <ele>196.73</ele>
        <time>2021-07-21T13:12:11Z</time>
      </trkpt>
      <trkpt lat="49.01638" lon="7.78132">
        <ele>197.21</ele>
        <time>2021-07-21T13:12:12Z</time>
      </trkpt>
      <trkpt lat="49.01645" lon="7.78116">
        <ele>197.21</ele>
        <time>2021-07-21T13:12:13Z</time>
      </trkpt>
      <trkpt lat="49.01652" lon="7.78097">
        <ele>196.73</ele>
        <time>2021-07-21T13:12:14Z</time>
      </trkpt>
      <trkpt lat="49.01659" lon="7.78079">
        <ele>196.73</ele>
        <time>2021-07-21T13:12:15Z</time>
      </trkpt>
      <trkpt lat="49.01666" lon="7.7806">
        <ele>196.73</ele>
        <time>2021-07-21T13:12:16Z</time>
      </trkpt>
      <trkpt lat="49.01705" lon="7.77918">
        <ele>198.17</ele>
        <time>2021-07-21T13:12:22Z</time>
      </trkpt>
      <trkpt lat="49.01705" lon="7.77918">
        <ele>198.17</ele>
        <time>2021-07-21T13:12:23Z</time>
      </trkpt>
      <trkpt lat="49.01714" lon="7.77904">
        <ele>198.17</ele>
        <time>2021-07-21T13:12:24Z</time>
      </trkpt>
      <trkpt lat="49.01723" lon="7.77891">
        <ele>198.17</ele>
        <time>2021-07-21T13:12:25Z</time>
      </trkpt>
      <trkpt lat="49.01744" lon="7.77882">
        <ele>198.17</ele>
        <time>2021-07-21T13:12:26Z</time>
      </trkpt>
      <trkpt lat="49.01744" lon="7.77882">
        <ele>197.69</ele>
        <time>2021-07-21T13:12:27Z</time>
      </trkpt>
      <trkpt lat="49.0177" lon="7.77883">
        <ele>197.21</ele>
        <time>2021-07-21T13:12:28Z</time>
      </trkpt>
      <trkpt lat="49.0177" lon="7.77883">
        <ele>197.21</ele>
        <time>2021-07-21T13:12:29Z</time>
      </trkpt>
      <trkpt lat="49.01824" lon="7.77882">
        <ele>196.25</ele>
        <time>2021-07-21T13:12:33Z</time>
      </trkpt>
      <trkpt lat="49.01838" lon="7.77881">
        <ele>196.25</ele>
        <time>2021-07-21T13:12:34Z</time>
      </trkpt>
      <trkpt lat="49.01851" lon="7.77875">
        <ele>196.25</ele>
        <time>2021-07-21T13:12:35Z</time>
      </trkpt>
      <trkpt lat="49.01864" lon="7.77868">
        <ele>196.73</ele>
        <time>2021-07-21T13:12:36Z</time>
      </trkpt>
      <trkpt lat="49.01888" lon="7.77846">
        <ele>196.73</ele>
        <time>2021-07-21T13:12:37Z</time>
      </trkpt>
      <trkpt lat="49.01888" lon="7.77846">
        <ele>197.21</ele>
        <time>2021-07-21T13:12:38Z</time>
      </trkpt>
      <trkpt lat="49.01931" lon="7.77791">
        <ele>198.65</ele>
        <time>2021-07-21T13:12:41Z</time>
      </trkpt>
      <trkpt lat="49.01941" lon="7.77773">
        <ele>199.13</ele>
        <time>2021-07-21T13:12:42Z</time>
      </trkpt>
      <trkpt lat="49.01951" lon="7.77754">
        <ele>200.09</ele>
        <time>2021-07-21T13:12:43Z</time>
      </trkpt>
      <trkpt lat="49.0201" lon="7.77574">
        <ele>201.05</ele>
        <time>2021-07-21T13:12:52Z</time>
      </trkpt>
      <trkpt lat="49.02035" lon="7.77452">
        <ele>201.53</ele>
        <time>2021-07-21T13:12:57Z</time>
      </trkpt>
      <trkpt lat="49.02045" lon="7.77432">
        <ele>201.53</ele>
        <time>2021-07-21T13:12:58Z</time>
      </trkpt>
      <trkpt lat="49.02054" lon="7.77411">
        <ele>201.53</ele>
        <time>2021-07-21T13:12:59Z</time>
      </trkpt>
      <trkpt lat="49.02149" lon="7.77274">
        <ele>202.98</ele>
        <time>2021-07-21T13:13:07Z</time>
      </trkpt>
      <trkpt lat="49.02189" lon="7.77227">
        <ele>202.98</ele>
        <time>2021-07-21T13:13:10Z</time>
      </trkpt>
      <trkpt lat="49.02289" lon="7.77048">
        <ele>204.42</ele>
        <time>2021-07-21T13:13:20Z</time>
      </trkpt>
      <trkpt lat="49.02299" lon="7.77039">
        <ele>204.42</ele>
        <time>2021-07-21T13:13:21Z</time>
      </trkpt>
      <trkpt lat="49.02308" lon="7.77029">
        <ele>203.94</ele>
        <time>2021-07-21T13:13:22Z</time>
      </trkpt>
      <trkpt lat="49.02336" lon="7.77015">
        <ele>203.46</ele>
        <time>2021-07-21T13:13:26Z</time>
      </trkpt>
      <trkpt lat="49.02341" lon="7.77013">
        <ele>203.46</ele>
        <time>2021-07-21T13:13:27Z</time>
      </trkpt>
      <trkpt lat="49.02347" lon="7.7701">
        <ele>203.46</ele>
        <time>2021-07-21T13:13:28Z</time>
      </trkpt>
      <trkpt lat="49.02354" lon="7.77007">
        <ele>203.46</ele>
        <time>2021-07-21T13:13:29Z</time>
      </trkpt>
      <trkpt lat="49.02359" lon="7.77004">
        <ele>203.46</ele>
        <time>2021-07-21T13:13:30Z</time>
      </trkpt>
      <trkpt lat="49.02367" lon="7.77005">
        <ele>202.98</ele>
        <time>2021-07-21T13:13:31Z</time>
      </trkpt>
      <trkpt lat="49.02374" lon="7.77006">
        <ele>202.98</ele>
        <time>2021-07-21T13:13:32Z</time>
      </trkpt>
      <trkpt lat="49.02381" lon="7.77007">
        <ele>202.98</ele>
        <time>2021-07-21T13:13:33Z</time>
      </trkpt>
      <trkpt lat="49.02388" lon="7.7701">
        <ele>202.98</ele>
        <time>2021-07-21T13:13:34Z</time>
      </trkpt>
      <trkpt lat="49.02444" lon="7.77037">
        <ele>202.01</ele>
        <time>2021-07-21T13:13:46Z</time>
      </trkpt>
      <trkpt lat="49.0251" lon="7.77061">
        <ele>201.05</ele>
        <time>2021-07-21T13:14:01Z</time>
      </trkpt>
      <trkpt lat="49.02575" lon="7.77075">
        <ele>200.09</ele>
        <time>2021-07-21T13:14:11Z</time>
      </trkpt>
      <trkpt lat="49.02575" lon="7.77075">
        <ele>200.09</ele>
        <time>2021-07-21T13:14:12Z</time>
      </trkpt>
      <trkpt lat="49.02582" lon="7.77075">
        <ele>200.09</ele>
        <time>2021-07-21T13:14:13Z</time>
      </trkpt>
      <trkpt lat="49.02587" lon="7.7707">
        <ele>200.09</ele>
        <time>2021-07-21T13:14:14Z</time>
      </trkpt>
      <trkpt lat="49.02594" lon="7.77063">
        <ele>200.57</ele>
        <time>2021-07-21T13:14:15Z</time>
      </trkpt>
      <trkpt lat="49.02601" lon="7.77056">
        <ele>200.57</ele>
        <time>2021-07-21T13:14:16Z</time>
      </trkpt>
      <trkpt lat="49.02607" lon="7.77047">
        <ele>201.05</ele>
        <time>2021-07-21T13:14:17Z</time>
      </trkpt>
      <trkpt lat="49.02614" lon="7.77037">
        <ele>201.05</ele>
        <time>2021-07-21T13:14:18Z</time>
      </trkpt>
      <trkpt lat="49.02684" lon="7.76943">
        <ele>201.53</ele>
        <time>2021-07-21T13:14:26Z</time>
      </trkpt>
      <trkpt lat="49.02694" lon="7.7693">
        <ele>201.53</ele>
        <time>2021-07-21T13:14:27Z</time>
      </trkpt>
      <trkpt lat="49.02821" lon="7.76728">
        <ele>202.98</ele>
        <time>2021-07-21T13:14:38Z</time>
      </trkpt>
      <trkpt lat="49.02821" lon="7.76728">
        <ele>202.98</ele>
        <time>2021-07-21T13:14:39Z</time>
      </trkpt>
      <trkpt lat="49.0293" lon="7.7664">
        <ele>205.86</ele>
        <time>2021-07-21T13:14:47Z</time>
      </trkpt>
      <trkpt lat="49.02942" lon="7.76631">
        <ele>206.34</ele>
        <time>2021-07-21T13:14:48Z</time>
      </trkpt>
      <trkpt lat="49.02953" lon="7.76619">
        <ele>206.34</ele>
        <time>2021-07-21T13:14:49Z</time>
      </trkpt>
      <trkpt lat="49.0296" lon="7.76604">
        <ele>206.82</ele>
        <time>2021-07-21T13:14:50Z</time>
      </trkpt>
      <trkpt lat="49.02968" lon="7.76588">
        <ele>206.82</ele>
        <time>2021-07-21T13:14:51Z</time>
      </trkpt>
      <trkpt lat="49.02975" lon="7.76571">
        <ele>207.3</ele>
        <time>2021-07-21T13:14:52Z</time>
      </trkpt>
      <trkpt lat="49.03076" lon="7.76345">
        <ele>210.19</ele>
        <time>2021-07-21T13:15:04Z</time>
      </trkpt>
      <trkpt lat="49.03139" lon="7.76138">
        <ele>214.03</ele>
        <time>2021-07-21T13:15:13Z</time>
      </trkpt>
      <trkpt lat="49.0315" lon="7.7592">
        <ele>214.03</ele>
        <time>2021-07-21T13:15:21Z</time>
      </trkpt>
      <trkpt lat="49.03167" lon="7.75678">
        <ele>217.4</ele>
        <time>2021-07-21T13:15:30Z</time>
      </trkpt>
      <trkpt lat="49.03221" lon="7.75374">
        <ele>218.84</ele>
        <time>2021-07-21T13:15:41Z</time>
      </trkpt>
      <trkpt lat="49.03234" lon="7.75301">
        <ele>220.28</ele>
        <time>2021-07-21T13:15:44Z</time>
      </trkpt>
      <trkpt lat="49.03235" lon="7.75254">
        <ele>220.76</ele>
        <time>2021-07-21T13:15:45Z</time>
      </trkpt>
      <trkpt lat="49.03235" lon="7.75254">
        <ele>221.24</ele>
        <time>2021-07-21T13:15:46Z</time>
      </trkpt>
      <trkpt lat="49.03234" lon="7.75229">
        <ele>221.24</ele>
        <time>2021-07-21T13:15:47Z</time>
      </trkpt>
      <trkpt lat="49.03233" lon="7.75204">
        <ele>221.24</ele>
        <time>2021-07-21T13:15:48Z</time>
      </trkpt>
      <trkpt lat="49.03208" lon="7.74982">
        <ele>224.61</ele>
        <time>2021-07-21T13:15:57Z</time>
      </trkpt>
      <trkpt lat="49.03199" lon="7.74941">
        <ele>225.09</ele>
        <time>2021-07-21T13:15:59Z</time>
      </trkpt>
      <trkpt lat="49.03182" lon="7.74909">
        <ele>225.09</ele>
        <time>2021-07-21T13:16:00Z</time>
      </trkpt>
      <trkpt lat="49.03182" lon="7.74909">
        <ele>225.09</ele>
        <time>2021-07-21T13:16:01Z</time>
      </trkpt>
      <trkpt lat="49.03094" lon="7.74746">
        <ele>227.49</ele>
        <time>2021-07-21T13:16:10Z</time>
      </trkpt>
      <trkpt lat="49.02991" lon="7.74495">
        <ele>229.89</ele>
        <time>2021-07-21T13:16:20Z</time>
      </trkpt>
      <trkpt lat="49.02974" lon="7.74428">
        <ele>228.45</ele>
        <time>2021-07-21T13:16:23Z</time>
      </trkpt>
      <trkpt lat="49.02974" lon="7.74428">
        <ele>227.49</ele>
        <time>2021-07-21T13:16:24Z</time>
      </trkpt>
      <trkpt lat="49.02971" lon="7.74407">
        <ele>227.01</ele>
        <time>2021-07-21T13:16:25Z</time>
      </trkpt>
      <trkpt lat="49.02974" lon="7.74363">
        <ele>226.53</ele>
        <time>2021-07-21T13:16:26Z</time>
      </trkpt>
      <trkpt lat="49.02974" lon="7.74363">
        <ele>226.05</ele>
        <time>2021-07-21T13:16:27Z</time>
      </trkpt>
      <trkpt lat="49.02981" lon="7.74316">
        <ele>226.05</ele>
        <time>2021-07-21T13:16:28Z</time>
      </trkpt>
      <trkpt lat="49.03018" lon="7.74098">
        <ele>224.61</ele>
        <time>2021-07-21T13:16:38Z</time>
      </trkpt>
      <trkpt lat="49.03019" lon="7.74074">
        <ele>224.12</ele>
        <time>2021-07-21T13:16:39Z</time>
      </trkpt>
      <trkpt lat="49.0302" lon="7.7405">
        <ele>224.61</ele>
        <time>2021-07-21T13:16:40Z</time>
      </trkpt>
      <trkpt lat="49.03017" lon="7.74028">
        <ele>224.12</ele>
        <time>2021-07-21T13:16:41Z</time>
      </trkpt>
      <trkpt lat="49.03012" lon="7.74007">
        <ele>224.12</ele>
        <time>2021-07-21T13:16:42Z</time>
      </trkpt>
      <trkpt lat="49.03004" lon="7.73985">
        <ele>223.64</ele>
        <time>2021-07-21T13:16:43Z</time>
      </trkpt>
      <trkpt lat="49.02881" lon="7.73719">
        <ele>220.76</ele>
        <time>2021-07-21T13:16:55Z</time>
      </trkpt>
      <trkpt lat="49.02768" lon="7.73451">
        <ele>224.12</ele>
        <time>2021-07-21T13:17:06Z</time>
      </trkpt>
      <trkpt lat="49.02723" lon="7.7332">
        <ele>225.57</ele>
        <time>2021-07-21T13:17:12Z</time>
      </trkpt>
      <trkpt lat="49.02719" lon="7.733">
        <ele>225.57</ele>
        <time>2021-07-21T13:17:13Z</time>
      </trkpt>
      <trkpt lat="49.02717" lon="7.73279">
        <ele>225.57</ele>
        <time>2021-07-21T13:17:14Z</time>
      </trkpt>
      <trkpt lat="49.02717" lon="7.7326">
        <ele>226.05</ele>
        <time>2021-07-21T13:17:15Z</time>
      </trkpt>
      <trkpt lat="49.02719" lon="7.73241">
        <ele>225.09</ele>
        <time>2021-07-21T13:17:16Z</time>
      </trkpt>
      <trkpt lat="49.02724" lon="7.73224">
        <ele>225.09</ele>
        <time>2021-07-21T13:17:17Z</time>
      </trkpt>
      <trkpt lat="49.02731" lon="7.73207">
        <ele>225.09</ele>
        <time>2021-07-21T13:17:18Z</time>
      </trkpt>
      <trkpt lat="49.02762" lon="7.73131">
        <ele>225.09</ele>
        <time>2021-07-21T13:17:22Z</time>
      </trkpt>
      <trkpt lat="49.02767" lon="7.7311">
        <ele>225.09</ele>
        <time>2021-07-21T13:17:23Z</time>
      </trkpt>
      <trkpt lat="49.02769" lon="7.73088">
        <ele>224.61</ele>
        <time>2021-07-21T13:17:24Z</time>
      </trkpt>
      <trkpt lat="49.02767" lon="7.73044">
        <ele>223.64</ele>
        <time>2021-07-21T13:17:25Z</time>
      </trkpt>
      <trkpt lat="49.02767" lon="7.73044">
        <ele>223.16</ele>
        <time>2021-07-21T13:17:26Z</time>
      </trkpt>
      <trkpt lat="49.02746" lon="7.72742">
        <ele>221.72</ele>
        <time>2021-07-21T13:17:38Z</time>
      </trkpt>
      <trkpt lat="49.02749" lon="7.7267">
        <ele>222.68</ele>
        <time>2021-07-21T13:17:40Z</time>
      </trkpt>
      <trkpt lat="49.02752" lon="7.72646">
        <ele>223.16</ele>
        <time>2021-07-21T13:17:41Z</time>
      </trkpt>
      <trkpt lat="49.02795" lon="7.7244">
        <ele>222.68</ele>
        <time>2021-07-21T13:17:50Z</time>
      </trkpt>
      <trkpt lat="49.02877" lon="7.72245">
        <ele>225.57</ele>
        <time>2021-07-21T13:17:58Z</time>
      </trkpt>
      <trkpt lat="49.0295" lon="7.7208">
        <ele>228.93</ele>
        <time>2021-07-21T13:18:05Z</time>
      </trkpt>
      <trkpt lat="49.02959" lon="7.72061">
        <ele>228.45</ele>
        <time>2021-07-21T13:18:06Z</time>
      </trkpt>
      <trkpt lat="49.02965" lon="7.72041">
        <ele>227.49</ele>
        <time>2021-07-21T13:18:07Z</time>
      </trkpt>
      <trkpt lat="49.02971" lon="7.71997">
        <ele>226.53</ele>
        <time>2021-07-21T13:18:08Z</time>
      </trkpt>
      <trkpt lat="49.02971" lon="7.71997">
        <ele>226.05</ele>
        <time>2021-07-21T13:18:09Z</time>
      </trkpt>
      <trkpt lat="49.02977" lon="7.71817">
        <ele>228.93</ele>
        <time>2021-07-21T13:18:18Z</time>
      </trkpt>
      <trkpt lat="49.02965" lon="7.71652">
        <ele>229.41</ele>
        <time>2021-07-21T13:18:29Z</time>
      </trkpt>
      <trkpt lat="49.02953" lon="7.71468">
        <ele>230.85</ele>
        <time>2021-07-21T13:18:41Z</time>
      </trkpt>
      <trkpt lat="49.02979" lon="7.71328">
        <ele>230.85</ele>
        <time>2021-07-21T13:18:51Z</time>
      </trkpt>
      <trkpt lat="49.03023" lon="7.7118">
        <ele>231.81</ele>
        <time>2021-07-21T13:19:02Z</time>
      </trkpt>
      <trkpt lat="49.03026" lon="7.71167">
        <ele>232.3</ele>
        <time>2021-07-21T13:19:03Z</time>
      </trkpt>
      <trkpt lat="49.0303" lon="7.71155">
        <ele>232.3</ele>
        <time>2021-07-21T13:19:04Z</time>
      </trkpt>
      <trkpt lat="49.03036" lon="7.71144">
        <ele>232.3</ele>
        <time>2021-07-21T13:19:05Z</time>
      </trkpt>
      <trkpt lat="49.03043" lon="7.71134">
        <ele>232.78</ele>
        <time>2021-07-21T13:19:06Z</time>
      </trkpt>
      <trkpt lat="49.0305" lon="7.71123">
        <ele>232.78</ele>
        <time>2021-07-21T13:19:07Z</time>
      </trkpt>
      <trkpt lat="49.03057" lon="7.71112">
        <ele>232.78</ele>
        <time>2021-07-21T13:19:08Z</time>
      </trkpt>
      <trkpt lat="49.03063" lon="7.71102">
        <ele>233.26</ele>
        <time>2021-07-21T13:19:09Z</time>
      </trkpt>
      <trkpt lat="49.03071" lon="7.71094">
        <ele>233.74</ele>
        <time>2021-07-21T13:19:10Z</time>
      </trkpt>
      <trkpt lat="49.0308" lon="7.71088">
        <ele>233.74</ele>
        <time>2021-07-21T13:19:11Z</time>
      </trkpt>
      <trkpt lat="49.0309" lon="7.71082">
        <ele>233.74</ele>
        <time>2021-07-21T13:19:12Z</time>
      </trkpt>
      <trkpt lat="49.031" lon="7.71078">
        <ele>234.22</ele>
        <time>2021-07-21T13:19:13Z</time>
      </trkpt>
      <trkpt lat="49.03163" lon="7.71051">
        <ele>234.7</ele>
        <time>2021-07-21T13:19:19Z</time>
      </trkpt>
      <trkpt lat="49.03173" lon="7.71047">
        <ele>235.18</ele>
        <time>2021-07-21T13:19:20Z</time>
      </trkpt>
      <trkpt lat="49.03181" lon="7.71037">
        <ele>235.18</ele>
        <time>2021-07-21T13:19:21Z</time>
      </trkpt>
      <trkpt lat="49.0319" lon="7.71026">
        <ele>235.18</ele>
        <time>2021-07-21T13:19:22Z</time>
      </trkpt>
      <trkpt lat="49.03199" lon="7.71015">
        <ele>235.66</ele>
        <time>2021-07-21T13:19:23Z</time>
      </trkpt>
      <trkpt lat="49.03206" lon="7.71003">
        <ele>235.66</ele>
        <time>2021-07-21T13:19:24Z</time>
      </trkpt>
      <trkpt lat="49.03214" lon="7.70988">
        <ele>236.14</ele>
        <time>2021-07-21T13:19:25Z</time>
      </trkpt>
      <trkpt lat="49.03267" lon="7.7083">
        <ele>237.1</ele>
        <time>2021-07-21T13:19:34Z</time>
      </trkpt>
      <trkpt lat="49.03301" lon="7.70638">
        <ele>239.99</ele>
        <time>2021-07-21T13:19:43Z</time>
      </trkpt>
      <trkpt lat="49.03386" lon="7.70436">
        <ele>239.51</ele>
        <time>2021-07-21T13:19:52Z</time>
      </trkpt>
      <trkpt lat="49.03386" lon="7.70436">
        <ele>239.51</ele>
        <time>2021-07-21T13:19:53Z</time>
      </trkpt>
      <trkpt lat="49.03388" lon="7.70412">
        <ele>239.99</ele>
        <time>2021-07-21T13:19:54Z</time>
      </trkpt>
      <trkpt lat="49.03391" lon="7.70175">
        <ele>241.91</ele>
        <time>2021-07-21T13:20:03Z</time>
      </trkpt>
      <trkpt lat="49.03394" lon="7.70097">
        <ele>242.87</ele>
        <time>2021-07-21T13:20:06Z</time>
      </trkpt>
      <trkpt lat="49.034" lon="7.70046">
        <ele>242.87</ele>
        <time>2021-07-21T13:20:07Z</time>
      </trkpt>
      <trkpt lat="49.034" lon="7.70046">
        <ele>242.87</ele>
        <time>2021-07-21T13:20:08Z</time>
      </trkpt>
      <trkpt lat="49.0341" lon="7.69994">
        <ele>242.87</ele>
        <time>2021-07-21T13:20:09Z</time>
      </trkpt>
      <trkpt lat="49.0341" lon="7.69994">
        <ele>242.87</ele>
        <time>2021-07-21T13:20:10Z</time>
      </trkpt>
      <trkpt lat="49.03418" lon="7.6997">
        <ele>242.87</ele>
        <time>2021-07-21T13:20:11Z</time>
      </trkpt>
      <trkpt lat="49.03427" lon="7.69947">
        <ele>242.39</ele>
        <time>2021-07-21T13:20:12Z</time>
      </trkpt>
      <trkpt lat="49.03466" lon="7.69846">
        <ele>243.35</ele>
        <time>2021-07-21T13:20:18Z</time>
      </trkpt>
      <trkpt lat="49.03483" lon="7.69789">
        <ele>244.31</ele>
        <time>2021-07-21T13:20:22Z</time>
      </trkpt>
      <trkpt lat="49.03483" lon="7.69789">
        <ele>244.31</ele>
        <time>2021-07-21T13:20:23Z</time>
      </trkpt>
      <trkpt lat="49.03487" lon="7.69778">
        <ele>244.79</ele>
        <time>2021-07-21T13:20:24Z</time>
      </trkpt>
      <trkpt lat="49.03495" lon="7.69604">
        <ele>243.35</ele>
        <time>2021-07-21T13:20:36Z</time>
      </trkpt>
      <trkpt lat="49.03496" lon="7.6959">
        <ele>243.35</ele>
        <time>2021-07-21T13:20:37Z</time>
      </trkpt>
      <trkpt lat="49.03498" lon="7.69576">
        <ele>243.35</ele>
        <time>2021-07-21T13:20:38Z</time>
      </trkpt>
      <trkpt lat="49.035" lon="7.69565">
        <ele>243.35</ele>
        <time>2021-07-21T13:20:39Z</time>
      </trkpt>
      <trkpt lat="49.03505" lon="7.69552">
        <ele>243.35</ele>
        <time>2021-07-21T13:20:40Z</time>
      </trkpt>
      <trkpt lat="49.0351" lon="7.6954">
        <ele>243.35</ele>
        <time>2021-07-21T13:20:41Z</time>
      </trkpt>
      <trkpt lat="49.03515" lon="7.69528">
        <ele>243.35</ele>
        <time>2021-07-21T13:20:42Z</time>
      </trkpt>
      <trkpt lat="49.0352" lon="7.69515">
        <ele>243.83</ele>
        <time>2021-07-21T13:20:43Z</time>
      </trkpt>
      <trkpt lat="49.03541" lon="7.69456">
        <ele>244.31</ele>
        <time>2021-07-21T13:20:48Z</time>
      </trkpt>
      <trkpt lat="49.03545" lon="7.69443">
        <ele>244.31</ele>
        <time>2021-07-21T13:20:49Z</time>
      </trkpt>
      <trkpt lat="49.03548" lon="7.6943">
        <ele>244.31</ele>
        <time>2021-07-21T13:20:50Z</time>
      </trkpt>
      <trkpt lat="49.03567" lon="7.69196">
        <ele>246.72</ele>
        <time>2021-07-21T13:21:06Z</time>
      </trkpt>
      <trkpt lat="49.03586" lon="7.68988">
        <ele>247.68</ele>
        <time>2021-07-21T13:21:19Z</time>
      </trkpt>
      <trkpt lat="49.03589" lon="7.68945">
        <ele>248.16</ele>
        <time>2021-07-21T13:21:23Z</time>
      </trkpt>
      <trkpt lat="49.03588" lon="7.68933">
        <ele>248.16</ele>
        <time>2021-07-21T13:21:24Z</time>
      </trkpt>
      <trkpt lat="49.03582" lon="7.68872">
        <ele>248.16</ele>
        <time>2021-07-21T13:21:29Z</time>
      </trkpt>
      <trkpt lat="49.0358" lon="7.6886">
        <ele>247.68</ele>
        <time>2021-07-21T13:21:30Z</time>
      </trkpt>
      <trkpt lat="49.03582" lon="7.6885">
        <ele>247.68</ele>
        <time>2021-07-21T13:21:31Z</time>
      </trkpt>
      <trkpt lat="49.03585" lon="7.68838">
        <ele>247.2</ele>
        <time>2021-07-21T13:21:32Z</time>
      </trkpt>
      <trkpt lat="49.03588" lon="7.68827">
        <ele>247.68</ele>
        <time>2021-07-21T13:21:33Z</time>
      </trkpt>
      <trkpt lat="49.03593" lon="7.68802">
        <ele>247.68</ele>
        <time>2021-07-21T13:21:35Z</time>
      </trkpt>
      <trkpt lat="49.03596" lon="7.6879">
        <ele>247.68</ele>
        <time>2021-07-21T13:21:36Z</time>
      </trkpt>
      <trkpt lat="49.0361" lon="7.68673">
        <ele>247.68</ele>
        <time>2021-07-21T13:21:45Z</time>
      </trkpt>
      <trkpt lat="49.03612" lon="7.6866">
        <ele>247.68</ele>
        <time>2021-07-21T13:21:46Z</time>
      </trkpt>
      <trkpt lat="49.03662" lon="7.68428">
        <ele>251.04</ele>
        <time>2021-07-21T13:22:03Z</time>
      </trkpt>
      <trkpt lat="49.03703" lon="7.68252">
        <ele>252</ele>
        <time>2021-07-21T13:22:16Z</time>
      </trkpt>
      <trkpt lat="49.03714" lon="7.68211">
        <ele>251.52</ele>
        <time>2021-07-21T13:22:20Z</time>
      </trkpt>
      <trkpt lat="49.03715" lon="7.68197">
        <ele>251.04</ele>
        <time>2021-07-21T13:22:21Z</time>
      </trkpt>
      <trkpt lat="49.03715" lon="7.68183">
        <ele>251.04</ele>
        <time>2021-07-21T13:22:22Z</time>
      </trkpt>
      <trkpt lat="49.03713" lon="7.68169">
        <ele>251.04</ele>
        <time>2021-07-21T13:22:23Z</time>
      </trkpt>
      <trkpt lat="49.03712" lon="7.68154">
        <ele>251.04</ele>
        <time>2021-07-21T13:22:24Z</time>
      </trkpt>
      <trkpt lat="49.037" lon="7.68">
        <ele>253.93</ele>
        <time>2021-07-21T13:22:34Z</time>
      </trkpt>
      <trkpt lat="49.03701" lon="7.67984">
        <ele>253.44</ele>
        <time>2021-07-21T13:22:35Z</time>
      </trkpt>
      <trkpt lat="49.03711" lon="7.67798">
        <ele>252.96</ele>
        <time>2021-07-21T13:22:46Z</time>
      </trkpt>
      <trkpt lat="49.0371" lon="7.67772">
        <ele>252.48</ele>
        <time>2021-07-21T13:22:48Z</time>
      </trkpt>
      <trkpt lat="49.03709" lon="7.6776">
        <ele>252.48</ele>
        <time>2021-07-21T13:22:49Z</time>
      </trkpt>
      <trkpt lat="49.03705" lon="7.67737">
        <ele>252</ele>
        <time>2021-07-21T13:22:50Z</time>
      </trkpt>
      <trkpt lat="49.037" lon="7.67715">
        <ele>252</ele>
        <time>2021-07-21T13:22:55Z</time>
      </trkpt>
      <trkpt lat="49.03699" lon="7.67711">
        <ele>251.52</ele>
        <time>2021-07-21T13:23:05Z</time>
      </trkpt>
      <trkpt lat="49.03699" lon="7.67711">
        <ele>251.52</ele>
        <time>2021-07-21T13:23:06Z</time>
      </trkpt>
      <trkpt lat="49.03647" lon="7.67712">
        <ele>250.08</ele>
        <time>2021-07-21T13:23:15Z</time>
      </trkpt>
      <trkpt lat="49.03605" lon="7.67699">
        <ele>250.08</ele>
        <time>2021-07-21T13:23:23Z</time>
      </trkpt>
      <trkpt lat="49.03598" lon="7.67693">
        <ele>250.08</ele>
        <time>2021-07-21T13:23:27Z</time>
      </trkpt>
      <trkpt lat="49.03594" lon="7.67682">
        <ele>250.08</ele>
        <time>2021-07-21T13:23:28Z</time>
      </trkpt>
      <trkpt lat="49.03592" lon="7.67676">
        <ele>250.08</ele>
        <time>2021-07-21T13:23:29Z</time>
      </trkpt>
      <trkpt lat="49.0359" lon="7.67671">
        <ele>249.6</ele>
        <time>2021-07-21T13:23:30Z</time>
      </trkpt>
      <trkpt lat="49.0359" lon="7.67671">
        <ele>250.08</ele>
        <time>2021-07-21T13:23:31Z</time>
      </trkpt>
      <trkpt lat="49.03587" lon="7.67663">
        <ele>250.08</ele>
        <time>2021-07-21T13:23:32Z</time>
      </trkpt>
      <trkpt lat="49.03587" lon="7.67659">
        <ele>250.56</ele>
        <time>2021-07-21T13:23:33Z</time>
      </trkpt>
      <trkpt lat="49.03588" lon="7.67654">
        <ele>250.56</ele>
        <time>2021-07-21T13:23:34Z</time>
      </trkpt>
      <trkpt lat="49.0359" lon="7.67645">
        <ele>251.04</ele>
        <time>2021-07-21T13:23:35Z</time>
      </trkpt>
      <trkpt lat="49.0359" lon="7.67645">
        <ele>251.04</ele>
        <time>2021-07-21T13:23:36Z</time>
      </trkpt>
      <trkpt lat="49.0359" lon="7.67642">
        <ele>251.52</ele>
        <time>2021-07-21T13:23:37Z</time>
      </trkpt>
      <trkpt lat="49.03587" lon="7.67663">
        <ele>251.52</ele>
        <time>2021-07-21T13:23:38Z</time>
      </trkpt>
      <trkpt lat="49.0359" lon="7.67644">
        <ele>251.52</ele>
        <time>2021-07-21T13:23:39Z</time>
      </trkpt>
      <trkpt lat="49.0359" lon="7.67646">
        <ele>251.52</ele>
        <time>2021-07-21T13:23:40Z</time>
      </trkpt>
      <trkpt lat="49.03589" lon="7.67648">
        <ele>251.04</ele>
        <time>2021-07-21T13:23:52Z</time>
      </trkpt>
      <trkpt lat="49.03589" lon="7.6765">
        <ele>251.04</ele>
        <time>2021-07-21T13:23:53Z</time>
      </trkpt>
      <trkpt lat="49.03588" lon="7.67653">
        <ele>250.56</ele>
        <time>2021-07-21T13:23:54Z</time>
      </trkpt>
      <trkpt lat="49.03591" lon="7.67674">
        <ele>249.6</ele>
        <time>2021-07-21T13:23:58Z</time>
      </trkpt>
      <trkpt lat="49.03593" lon="7.67679">
        <ele>249.12</ele>
        <time>2021-07-21T13:23:59Z</time>
      </trkpt>
      <trkpt lat="49.03596" lon="7.67685">
        <ele>248.64</ele>
        <time>2021-07-21T13:24:00Z</time>
      </trkpt>
      <trkpt lat="49.03602" lon="7.67697">
        <ele>248.64</ele>
        <time>2021-07-21T13:24:01Z</time>
      </trkpt>
      <trkpt lat="49.03602" lon="7.67697">
        <ele>248.64</ele>
        <time>2021-07-21T13:24:02Z</time>
      </trkpt>
      <trkpt lat="49.03606" lon="7.67699">
        <ele>249.12</ele>
        <time>2021-07-21T13:24:03Z</time>
      </trkpt>
      <trkpt lat="49.0361" lon="7.67702">
        <ele>249.6</ele>
        <time>2021-07-21T13:24:04Z</time>
      </trkpt>
      <trkpt lat="49.03615" lon="7.67705">
        <ele>250.08</ele>
        <time>2021-07-21T13:24:05Z</time>
      </trkpt>
      <trkpt lat="49.03689" lon="7.67717">
        <ele>251.52</ele>
        <time>2021-07-21T13:24:18Z</time>
      </trkpt>
      <trkpt lat="49.03699" lon="7.67719">
        <ele>251.52</ele>
        <time>2021-07-21T13:24:23Z</time>
      </trkpt>
      <trkpt lat="49.037" lon="7.67715">
        <ele>252</ele>
        <time>2021-07-21T13:24:24Z</time>
      </trkpt>
      <trkpt lat="49.03699" lon="7.67711">
        <ele>252</ele>
        <time>2021-07-21T13:24:25Z</time>
      </trkpt>
      <trkpt lat="49.03698" lon="7.67705">
        <ele>251.52</ele>
        <time>2021-07-21T13:24:26Z</time>
      </trkpt>
      <trkpt lat="49.03697" lon="7.67698">
        <ele>251.04</ele>
        <time>2021-07-21T13:24:27Z</time>
      </trkpt>
      <trkpt lat="49.03695" lon="7.6769">
        <ele>250.56</ele>
        <time>2021-07-21T13:24:28Z</time>
      </trkpt>
      <trkpt lat="49.0367" lon="7.67572">
        <ele>250.08</ele>
        <time>2021-07-21T13:24:38Z</time>
      </trkpt>
      <trkpt lat="49.03648" lon="7.67488">
        <ele>252.96</ele>
        <time>2021-07-21T13:24:48Z</time>
      </trkpt>
      <trkpt lat="49.03647" lon="7.67482">
        <ele>252.96</ele>
        <time>2021-07-21T13:24:49Z</time>
      </trkpt>
      <trkpt lat="49.03638" lon="7.67388">
        <ele>254.41</ele>
        <time>2021-07-21T13:24:58Z</time>
      </trkpt>
      <trkpt lat="49.03622" lon="7.67224">
        <ele>257.77</ele>
        <time>2021-07-21T13:25:09Z</time>
      </trkpt>
      <trkpt lat="49.03569" lon="7.67072">
        <ele>258.73</ele>
        <time>2021-07-21T13:25:18Z</time>
      </trkpt>
      <trkpt lat="49.03536" lon="7.67002">
        <ele>258.25</ele>
        <time>2021-07-21T13:25:22Z</time>
      </trkpt>
      <trkpt lat="49.03526" lon="7.66986">
        <ele>257.29</ele>
        <time>2021-07-21T13:25:23Z</time>
      </trkpt>
      <trkpt lat="49.03515" lon="7.6697">
        <ele>255.85</ele>
        <time>2021-07-21T13:25:24Z</time>
      </trkpt>
      <trkpt lat="49.03503" lon="7.66958">
        <ele>255.85</ele>
        <time>2021-07-21T13:25:25Z</time>
      </trkpt>
      <trkpt lat="49.03477" lon="7.66935">
        <ele>255.37</ele>
        <time>2021-07-21T13:25:26Z</time>
      </trkpt>
      <trkpt lat="49.03309" lon="7.66813">
        <ele>253.93</ele>
        <time>2021-07-21T13:25:38Z</time>
      </trkpt>
      <trkpt lat="49.03256" lon="7.66779">
        <ele>253.93</ele>
        <time>2021-07-21T13:25:43Z</time>
      </trkpt>
      <trkpt lat="49.03154" lon="7.66769">
        <ele>254.41</ele>
        <time>2021-07-21T13:25:50Z</time>
      </trkpt>
      <trkpt lat="49.02975" lon="7.66829">
        <ele>258.73</ele>
        <time>2021-07-21T13:26:02Z</time>
      </trkpt>
      <trkpt lat="49.02961" lon="7.66834">
        <ele>259.21</ele>
        <time>2021-07-21T13:26:03Z</time>
      </trkpt>
      <trkpt lat="49.02948" lon="7.66835">
        <ele>259.69</ele>
        <time>2021-07-21T13:26:04Z</time>
      </trkpt>
      <trkpt lat="49.02934" lon="7.66834">
        <ele>260.17</ele>
        <time>2021-07-21T13:26:05Z</time>
      </trkpt>
      <trkpt lat="49.02893" lon="7.66821">
        <ele>261.14</ele>
        <time>2021-07-21T13:26:07Z</time>
      </trkpt>
      <trkpt lat="49.02734" lon="7.66728">
        <ele>268.83</ele>
        <time>2021-07-21T13:26:19Z</time>
      </trkpt>
      <trkpt lat="49.02631" lon="7.66702">
        <ele>273.15</ele>
        <time>2021-07-21T13:26:26Z</time>
      </trkpt>
      <trkpt lat="49.02599" lon="7.66693">
        <ele>277</ele>
        <time>2021-07-21T13:26:31Z</time>
      </trkpt>
      <trkpt lat="49.02578" lon="7.66688">
        <ele>283.73</ele>
        <time>2021-07-21T13:26:42Z</time>
      </trkpt>
      <trkpt lat="49.02513" lon="7.66665">
        <ele>288.05</ele>
        <time>2021-07-21T13:26:51Z</time>
      </trkpt>
      <trkpt lat="49.02415" lon="7.66626">
        <ele>289.97</ele>
        <time>2021-07-21T13:26:59Z</time>
      </trkpt>
      <trkpt lat="49.02333" lon="7.66603">
        <ele>290.94</ele>
        <time>2021-07-21T13:27:07Z</time>
      </trkpt>
      <trkpt lat="49.02246" lon="7.66579">
        <ele>291.42</ele>
        <time>2021-07-21T13:27:16Z</time>
      </trkpt>
      <trkpt lat="49.02099" lon="7.66516">
        <ele>292.38</ele>
        <time>2021-07-21T13:27:27Z</time>
      </trkpt>
      <trkpt lat="49.01955" lon="7.66393">
        <ele>292.86</ele>
        <time>2021-07-21T13:27:39Z</time>
      </trkpt>
      <trkpt lat="49.01806" lon="7.66242">
        <ele>293.34</ele>
        <time>2021-07-21T13:27:50Z</time>
      </trkpt>
      <trkpt lat="49.0166" lon="7.6608">
        <ele>292.86</ele>
        <time>2021-07-21T13:28:01Z</time>
      </trkpt>
      <trkpt lat="49.01557" lon="7.65963">
        <ele>290.46</ele>
        <time>2021-07-21T13:28:10Z</time>
      </trkpt>
      <trkpt lat="49.01476" lon="7.65892">
        <ele>288.05</ele>
        <time>2021-07-21T13:28:18Z</time>
      </trkpt>
      <trkpt lat="49.01416" lon="7.65856">
        <ele>280.84</ele>
        <time>2021-07-21T13:28:27Z</time>
      </trkpt>
      <trkpt lat="49.01351" lon="7.65827">
        <ele>274.59</ele>
        <time>2021-07-21T13:28:35Z</time>
      </trkpt>
      <trkpt lat="49.01342" lon="7.65826">
        <ele>273.63</ele>
        <time>2021-07-21T13:28:36Z</time>
      </trkpt>
      <trkpt lat="49.01332" lon="7.65824">
        <ele>272.19</ele>
        <time>2021-07-21T13:28:37Z</time>
      </trkpt>
      <trkpt lat="49.0131" lon="7.65828">
        <ele>271.23</ele>
        <time>2021-07-21T13:28:39Z</time>
      </trkpt>
      <trkpt lat="49.01209" lon="7.65897">
        <ele>267.86</ele>
        <time>2021-07-21T13:28:48Z</time>
      </trkpt>
      <trkpt lat="49.01133" lon="7.66028">
        <ele>263.54</ele>
        <time>2021-07-21T13:28:57Z</time>
      </trkpt>
      <trkpt lat="49.01093" lon="7.66148">
        <ele>259.69</ele>
        <time>2021-07-21T13:29:04Z</time>
      </trkpt>
      <trkpt lat="49.01085" lon="7.66185">
        <ele>259.21</ele>
        <time>2021-07-21T13:29:05Z</time>
      </trkpt>
      <trkpt lat="49.01085" lon="7.66185">
        <ele>258.73</ele>
        <time>2021-07-21T13:29:06Z</time>
      </trkpt>
      <trkpt lat="49.01083" lon="7.66205">
        <ele>258.25</ele>
        <time>2021-07-21T13:29:07Z</time>
      </trkpt>
      <trkpt lat="49.01081" lon="7.66225">
        <ele>258.25</ele>
        <time>2021-07-21T13:29:08Z</time>
      </trkpt>
      <trkpt lat="49.01066" lon="7.66364">
        <ele>254.41</ele>
        <time>2021-07-21T13:29:15Z</time>
      </trkpt>
      <trkpt lat="49.01064" lon="7.66382">
        <ele>252.96</ele>
        <time>2021-07-21T13:29:16Z</time>
      </trkpt>
      <trkpt lat="49.01058" lon="7.66397">
        <ele>252</ele>
        <time>2021-07-21T13:29:17Z</time>
      </trkpt>
      <trkpt lat="49.01052" lon="7.66412">
        <ele>250.56</ele>
        <time>2021-07-21T13:29:18Z</time>
      </trkpt>
      <trkpt lat="49.01043" lon="7.66424">
        <ele>249.6</ele>
        <time>2021-07-21T13:29:19Z</time>
      </trkpt>
      <trkpt lat="49.01033" lon="7.66434">
        <ele>248.64</ele>
        <time>2021-07-21T13:29:20Z</time>
      </trkpt>
      <trkpt lat="49.01022" lon="7.66445">
        <ele>248.16</ele>
        <time>2021-07-21T13:29:21Z</time>
      </trkpt>
      <trkpt lat="49.01009" lon="7.66448">
        <ele>247.68</ele>
        <time>2021-07-21T13:29:22Z</time>
      </trkpt>
      <trkpt lat="49.00996" lon="7.6645">
        <ele>247.2</ele>
        <time>2021-07-21T13:29:23Z</time>
      </trkpt>
      <trkpt lat="49.00982" lon="7.66451">
        <ele>246.72</ele>
        <time>2021-07-21T13:29:24Z</time>
      </trkpt>
      <trkpt lat="49.00898" lon="7.66467">
        <ele>248.64</ele>
        <time>2021-07-21T13:29:30Z</time>
      </trkpt>
      <trkpt lat="49.00884" lon="7.66471">
        <ele>249.12</ele>
        <time>2021-07-21T13:29:31Z</time>
      </trkpt>
      <trkpt lat="49.00768" lon="7.66546">
        <ele>253.44</ele>
        <time>2021-07-21T13:29:41Z</time>
      </trkpt>
      <trkpt lat="49.00728" lon="7.66556">
        <ele>254.89</ele>
        <time>2021-07-21T13:29:45Z</time>
      </trkpt>
      <trkpt lat="49.00718" lon="7.66555">
        <ele>254.89</ele>
        <time>2021-07-21T13:29:46Z</time>
      </trkpt>
      <trkpt lat="49.00594" lon="7.66524">
        <ele>253.93</ele>
        <time>2021-07-21T13:29:56Z</time>
      </trkpt>
      <trkpt lat="49.00468" lon="7.66513">
        <ele>256.33</ele>
        <time>2021-07-21T13:30:05Z</time>
      </trkpt>
      <trkpt lat="49.00455" lon="7.66513">
        <ele>256.33</ele>
        <time>2021-07-21T13:30:06Z</time>
      </trkpt>
      <trkpt lat="49.00385" lon="7.66493">
        <ele>256.33</ele>
        <time>2021-07-21T13:30:12Z</time>
      </trkpt>
      <trkpt lat="49.00269" lon="7.66472">
        <ele>255.37</ele>
        <time>2021-07-21T13:30:23Z</time>
      </trkpt>
      <trkpt lat="49.00186" lon="7.66424">
        <ele>250.56</ele>
        <time>2021-07-21T13:30:32Z</time>
      </trkpt>
      <trkpt lat="49.00129" lon="7.6635">
        <ele>245.75</ele>
        <time>2021-07-21T13:30:39Z</time>
      </trkpt>
      <trkpt lat="49.00082" lon="7.66298">
        <ele>243.83</ele>
        <time>2021-07-21T13:30:47Z</time>
      </trkpt>
      <trkpt lat="48.9996" lon="7.6622">
        <ele>242.87</ele>
        <time>2021-07-21T13:31:02Z</time>
      </trkpt>
      <trkpt lat="48.99862" lon="7.66126">
        <ele>237.58</ele>
        <time>2021-07-21T13:31:13Z</time>
      </trkpt>
      <trkpt lat="48.99853" lon="7.66122">
        <ele>237.1</ele>
        <time>2021-07-21T13:31:14Z</time>
      </trkpt>
      <trkpt lat="48.99844" lon="7.66119">
        <ele>236.14</ele>
        <time>2021-07-21T13:31:15Z</time>
      </trkpt>
      <trkpt lat="48.99835" lon="7.66116">
        <ele>235.66</ele>
        <time>2021-07-21T13:31:16Z</time>
      </trkpt>
      <trkpt lat="48.99825" lon="7.66115">
        <ele>235.66</ele>
        <time>2021-07-21T13:31:17Z</time>
      </trkpt>
      <trkpt lat="48.99793" lon="7.66112">
        <ele>233.74</ele>
        <time>2021-07-21T13:31:20Z</time>
      </trkpt>
      <trkpt lat="48.99782" lon="7.66112">
        <ele>233.74</ele>
        <time>2021-07-21T13:31:21Z</time>
      </trkpt>
      <trkpt lat="48.99632" lon="7.66052">
        <ele>231.81</ele>
        <time>2021-07-21T13:31:34Z</time>
      </trkpt>
      <trkpt lat="48.99515" lon="7.66013">
        <ele>228.93</ele>
        <time>2021-07-21T13:31:45Z</time>
      </trkpt>
      <trkpt lat="48.99505" lon="7.66012">
        <ele>228.45</ele>
        <time>2021-07-21T13:31:46Z</time>
      </trkpt>
      <trkpt lat="48.99494" lon="7.66011">
        <ele>227.97</ele>
        <time>2021-07-21T13:31:47Z</time>
      </trkpt>
      <trkpt lat="48.99484" lon="7.66013">
        <ele>227.49</ele>
        <time>2021-07-21T13:31:48Z</time>
      </trkpt>
      <trkpt lat="48.99473" lon="7.66016">
        <ele>227.01</ele>
        <time>2021-07-21T13:31:49Z</time>
      </trkpt>
      <trkpt lat="48.99432" lon="7.66033">
        <ele>226.05</ele>
        <time>2021-07-21T13:31:52Z</time>
      </trkpt>
      <trkpt lat="48.99423" lon="7.66041">
        <ele>226.05</ele>
        <time>2021-07-21T13:31:53Z</time>
      </trkpt>
      <trkpt lat="48.99321" lon="7.6614">
        <ele>225.57</ele>
        <time>2021-07-21T13:32:05Z</time>
      </trkpt>
      <trkpt lat="48.99262" lon="7.66225">
        <ele>226.05</ele>
        <time>2021-07-21T13:32:15Z</time>
      </trkpt>
      <trkpt lat="48.99248" lon="7.66264">
        <ele>225.57</ele>
        <time>2021-07-21T13:32:18Z</time>
      </trkpt>
      <trkpt lat="48.99203" lon="7.66437">
        <ele>225.57</ele>
        <time>2021-07-21T13:32:28Z</time>
      </trkpt>
      <trkpt lat="48.99171" lon="7.66674">
        <ele>224.12</ele>
        <time>2021-07-21T13:32:40Z</time>
      </trkpt>
      <trkpt lat="48.99157" lon="7.66879">
        <ele>227.01</ele>
        <time>2021-07-21T13:32:51Z</time>
      </trkpt>
      <trkpt lat="48.99161" lon="7.67145">
        <ele>226.53</ele>
        <time>2021-07-21T13:33:04Z</time>
      </trkpt>
      <trkpt lat="48.9916" lon="7.6722">
        <ele>226.53</ele>
        <time>2021-07-21T13:33:08Z</time>
      </trkpt>
      <trkpt lat="48.99157" lon="7.67238">
        <ele>226.53</ele>
        <time>2021-07-21T13:33:09Z</time>
      </trkpt>
      <trkpt lat="48.99154" lon="7.67257">
        <ele>226.53</ele>
        <time>2021-07-21T13:33:10Z</time>
      </trkpt>
      <trkpt lat="48.99141" lon="7.67314">
        <ele>225.09</ele>
        <time>2021-07-21T13:33:13Z</time>
      </trkpt>
      <trkpt lat="48.99134" lon="7.67332">
        <ele>224.61</ele>
        <time>2021-07-21T13:33:14Z</time>
      </trkpt>
      <trkpt lat="48.99126" lon="7.67348">
        <ele>224.61</ele>
        <time>2021-07-21T13:33:15Z</time>
      </trkpt>
      <trkpt lat="48.99116" lon="7.67363">
        <ele>224.12</ele>
        <time>2021-07-21T13:33:16Z</time>
      </trkpt>
      <trkpt lat="48.99095" lon="7.67389">
        <ele>223.64</ele>
        <time>2021-07-21T13:33:17Z</time>
      </trkpt>
      <trkpt lat="48.99095" lon="7.67389">
        <ele>223.16</ele>
        <time>2021-07-21T13:33:18Z</time>
      </trkpt>
      <trkpt lat="48.99072" lon="7.67411">
        <ele>224.12</ele>
        <time>2021-07-21T13:33:19Z</time>
      </trkpt>
      <trkpt lat="48.99058" lon="7.67418">
        <ele>224.12</ele>
        <time>2021-07-21T13:33:20Z</time>
      </trkpt>
      <trkpt lat="48.99046" lon="7.67422">
        <ele>224.12</ele>
        <time>2021-07-21T13:33:21Z</time>
      </trkpt>
      <trkpt lat="48.99032" lon="7.67424">
        <ele>224.61</ele>
        <time>2021-07-21T13:33:22Z</time>
      </trkpt>
      <trkpt lat="48.9902" lon="7.67426">
        <ele>224.61</ele>
        <time>2021-07-21T13:33:23Z</time>
      </trkpt>
      <trkpt lat="48.9901" lon="7.67428">
        <ele>224.61</ele>
        <time>2021-07-21T13:33:24Z</time>
      </trkpt>
      <trkpt lat="48.98992" lon="7.67434">
        <ele>224.61</ele>
        <time>2021-07-21T13:33:29Z</time>
      </trkpt>
      <trkpt lat="48.98988" lon="7.67428">
        <ele>221.24</ele>
        <time>2021-07-21T13:33:34Z</time>
      </trkpt>
      <trkpt lat="48.98989" lon="7.67425">
        <ele>220.76</ele>
        <time>2021-07-21T13:33:35Z</time>
      </trkpt>
      <trkpt lat="48.99009" lon="7.67345">
        <ele>220.76</ele>
        <time>2021-07-21T13:33:44Z</time>
      </trkpt>
      <trkpt lat="48.99049" lon="7.67202">
        <ele>223.64</ele>
        <time>2021-07-21T13:33:55Z</time>
      </trkpt>
      <trkpt lat="48.99058" lon="7.67025">
        <ele>223.64</ele>
        <time>2021-07-21T13:34:05Z</time>
      </trkpt>
      <trkpt lat="48.99038" lon="7.66805">
        <ele>221.24</ele>
        <time>2021-07-21T13:34:16Z</time>
      </trkpt>
      <trkpt lat="48.99042" lon="7.6662">
        <ele>220.76</ele>
        <time>2021-07-21T13:34:24Z</time>
      </trkpt>
      <trkpt lat="48.9909" lon="7.66356">
        <ele>223.64</ele>
        <time>2021-07-21T13:34:35Z</time>
      </trkpt>
      <trkpt lat="48.99107" lon="7.66257">
        <ele>224.12</ele>
        <time>2021-07-21T13:34:39Z</time>
      </trkpt>
      <trkpt lat="48.99114" lon="7.66233">
        <ele>224.61</ele>
        <time>2021-07-21T13:34:40Z</time>
      </trkpt>
      <trkpt lat="48.99121" lon="7.66209">
        <ele>224.61</ele>
        <time>2021-07-21T13:34:41Z</time>
      </trkpt>
      <trkpt lat="48.99212" lon="7.65988">
        <ele>226.05</ele>
        <time>2021-07-21T13:34:51Z</time>
      </trkpt>
      <trkpt lat="48.99272" lon="7.65822">
        <ele>229.41</ele>
        <time>2021-07-21T13:34:59Z</time>
      </trkpt>
      <trkpt lat="48.99315" lon="7.65607">
        <ele>231.81</ele>
        <time>2021-07-21T13:35:08Z</time>
      </trkpt>
      <trkpt lat="48.99316" lon="7.65583">
        <ele>232.3</ele>
        <time>2021-07-21T13:35:09Z</time>
      </trkpt>
      <trkpt lat="48.99313" lon="7.65464">
        <ele>232.3</ele>
        <time>2021-07-21T13:35:14Z</time>
      </trkpt>
      <trkpt lat="48.99314" lon="7.6544">
        <ele>233.26</ele>
        <time>2021-07-21T13:35:15Z</time>
      </trkpt>
      <trkpt lat="48.99318" lon="7.65417">
        <ele>234.7</ele>
        <time>2021-07-21T13:35:16Z</time>
      </trkpt>
      <trkpt lat="48.99324" lon="7.65396">
        <ele>236.62</ele>
        <time>2021-07-21T13:35:17Z</time>
      </trkpt>
      <trkpt lat="48.99331" lon="7.65373">
        <ele>238.06</ele>
        <time>2021-07-21T13:35:18Z</time>
      </trkpt>
      <trkpt lat="48.99423" lon="7.65131">
        <ele>241.91</ele>
        <time>2021-07-21T13:35:29Z</time>
      </trkpt>
      <trkpt lat="48.99458" lon="7.65044">
        <ele>241.43</ele>
        <time>2021-07-21T13:35:33Z</time>
      </trkpt>
      <trkpt lat="48.99468" lon="7.65023">
        <ele>241.43</ele>
        <time>2021-07-21T13:35:34Z</time>
      </trkpt>
      <trkpt lat="48.99585" lon="7.64826">
        <ele>245.75</ele>
        <time>2021-07-21T13:35:44Z</time>
      </trkpt>
      <trkpt lat="48.99703" lon="7.64612">
        <ele>247.2</ele>
        <time>2021-07-21T13:35:54Z</time>
      </trkpt>
      <trkpt lat="48.99755" lon="7.64507">
        <ele>248.16</ele>
        <time>2021-07-21T13:35:59Z</time>
      </trkpt>
      <trkpt lat="48.99761" lon="7.6449">
        <ele>248.16</ele>
        <time>2021-07-21T13:36:00Z</time>
      </trkpt>
      <trkpt lat="48.99766" lon="7.64471">
        <ele>248.16</ele>
        <time>2021-07-21T13:36:01Z</time>
      </trkpt>
      <trkpt lat="48.99771" lon="7.64451">
        <ele>248.16</ele>
        <time>2021-07-21T13:36:02Z</time>
      </trkpt>
      <trkpt lat="48.99774" lon="7.64432">
        <ele>248.16</ele>
        <time>2021-07-21T13:36:03Z</time>
      </trkpt>
      <trkpt lat="48.99774" lon="7.6441">
        <ele>247.68</ele>
        <time>2021-07-21T13:36:04Z</time>
      </trkpt>
      <trkpt lat="48.99775" lon="7.64389">
        <ele>247.2</ele>
        <time>2021-07-21T13:36:05Z</time>
      </trkpt>
      <trkpt lat="48.99775" lon="7.64348">
        <ele>246.72</ele>
        <time>2021-07-21T13:36:07Z</time>
      </trkpt>
      <trkpt lat="48.99776" lon="7.64328">
        <ele>245.75</ele>
        <time>2021-07-21T13:36:08Z</time>
      </trkpt>
      <trkpt lat="48.99779" lon="7.64307">
        <ele>247.2</ele>
        <time>2021-07-21T13:36:09Z</time>
      </trkpt>
      <trkpt lat="48.99784" lon="7.64289">
        <ele>247.68</ele>
        <time>2021-07-21T13:36:10Z</time>
      </trkpt>
      <trkpt lat="48.99794" lon="7.64274">
        <ele>248.16</ele>
        <time>2021-07-21T13:36:11Z</time>
      </trkpt>
      <trkpt lat="48.99803" lon="7.64258">
        <ele>248.16</ele>
        <time>2021-07-21T13:36:12Z</time>
      </trkpt>
      <trkpt lat="48.99813" lon="7.64241">
        <ele>248.64</ele>
        <time>2021-07-21T13:36:13Z</time>
      </trkpt>
      <trkpt lat="48.99821" lon="7.64223">
        <ele>248.16</ele>
        <time>2021-07-21T13:36:14Z</time>
      </trkpt>
      <trkpt lat="48.99829" lon="7.64205">
        <ele>248.16</ele>
        <time>2021-07-21T13:36:15Z</time>
      </trkpt>
      <trkpt lat="48.99876" lon="7.64034">
        <ele>247.2</ele>
        <time>2021-07-21T13:36:23Z</time>
      </trkpt>
      <trkpt lat="48.9988" lon="7.64012">
        <ele>246.72</ele>
        <time>2021-07-21T13:36:24Z</time>
      </trkpt>
      <trkpt lat="48.99883" lon="7.6399">
        <ele>245.75</ele>
        <time>2021-07-21T13:36:25Z</time>
      </trkpt>
      <trkpt lat="48.99883" lon="7.63967">
        <ele>244.31</ele>
        <time>2021-07-21T13:36:26Z</time>
      </trkpt>
      <trkpt lat="48.99882" lon="7.63872">
        <ele>242.39</ele>
        <time>2021-07-21T13:36:30Z</time>
      </trkpt>
      <trkpt lat="48.99883" lon="7.63848">
        <ele>242.39</ele>
        <time>2021-07-21T13:36:31Z</time>
      </trkpt>
      <trkpt lat="48.99888" lon="7.6383">
        <ele>242.39</ele>
        <time>2021-07-21T13:36:32Z</time>
      </trkpt>
      <trkpt lat="48.999" lon="7.6379">
        <ele>242.39</ele>
        <time>2021-07-21T13:36:33Z</time>
      </trkpt>
      <trkpt lat="48.999" lon="7.6379">
        <ele>241.91</ele>
        <time>2021-07-21T13:36:34Z</time>
      </trkpt>
      <trkpt lat="48.99909" lon="7.63771">
        <ele>241.91</ele>
        <time>2021-07-21T13:36:35Z</time>
      </trkpt>
      <trkpt lat="48.99935" lon="7.63709">
        <ele>241.43</ele>
        <time>2021-07-21T13:36:38Z</time>
      </trkpt>
      <trkpt lat="49.00012" lon="7.63494">
        <ele>240.95</ele>
        <time>2021-07-21T13:36:46Z</time>
      </trkpt>
      <trkpt lat="49.00021" lon="7.63478">
        <ele>240.95</ele>
        <time>2021-07-21T13:36:47Z</time>
      </trkpt>
      <trkpt lat="49.00029" lon="7.63464">
        <ele>240.95</ele>
        <time>2021-07-21T13:36:48Z</time>
      </trkpt>
      <trkpt lat="49.00089" lon="7.63385">
        <ele>238.54</ele>
        <time>2021-07-21T13:36:56Z</time>
      </trkpt>
      <trkpt lat="49.0017" lon="7.63296">
        <ele>235.66</ele>
        <time>2021-07-21T13:37:09Z</time>
      </trkpt>
      <trkpt lat="49.00207" lon="7.63258">
        <ele>234.7</ele>
        <time>2021-07-21T13:37:16Z</time>
      </trkpt>
      <trkpt lat="49.00262" lon="7.63177">
        <ele>237.58</ele>
        <time>2021-07-21T13:37:30Z</time>
      </trkpt>
      <trkpt lat="49.00307" lon="7.63122">
        <ele>235.66</ele>
        <time>2021-07-21T13:37:44Z</time>
      </trkpt>
      <trkpt lat="49.00362" lon="7.63069">
        <ele>234.22</ele>
        <time>2021-07-21T13:37:56Z</time>
      </trkpt>
      <trkpt lat="49.00367" lon="7.63062">
        <ele>234.22</ele>
        <time>2021-07-21T13:37:57Z</time>
      </trkpt>
      <trkpt lat="49.00372" lon="7.63054">
        <ele>234.22</ele>
        <time>2021-07-21T13:37:58Z</time>
      </trkpt>
      <trkpt lat="49.00376" lon="7.63047">
        <ele>234.22</ele>
        <time>2021-07-21T13:37:59Z</time>
      </trkpt>
      <trkpt lat="49.00432" lon="7.62923">
        <ele>235.18</ele>
        <time>2021-07-21T13:38:12Z</time>
      </trkpt>
      <trkpt lat="49.00495" lon="7.62853">
        <ele>235.18</ele>
        <time>2021-07-21T13:38:21Z</time>
      </trkpt>
      <trkpt lat="49.00501" lon="7.62842">
        <ele>235.18</ele>
        <time>2021-07-21T13:38:22Z</time>
      </trkpt>
      <trkpt lat="49.00508" lon="7.62831">
        <ele>235.18</ele>
        <time>2021-07-21T13:38:23Z</time>
      </trkpt>
      <trkpt lat="49.00552" lon="7.62769">
        <ele>235.66</ele>
        <time>2021-07-21T13:38:28Z</time>
      </trkpt>
      <trkpt lat="49.00552" lon="7.62769">
        <ele>234.7</ele>
        <time>2021-07-21T13:38:29Z</time>
      </trkpt>
      <trkpt lat="49.0056" lon="7.62762">
        <ele>235.18</ele>
        <time>2021-07-21T13:38:30Z</time>
      </trkpt>
      <trkpt lat="49.0057" lon="7.62755">
        <ele>235.66</ele>
        <time>2021-07-21T13:38:31Z</time>
      </trkpt>
      <trkpt lat="49.00578" lon="7.62749">
        <ele>236.14</ele>
        <time>2021-07-21T13:38:32Z</time>
      </trkpt>
      <trkpt lat="49.00662" lon="7.62731">
        <ele>235.18</ele>
        <time>2021-07-21T13:38:40Z</time>
      </trkpt>
      <trkpt lat="49.00702" lon="7.6273">
        <ele>234.22</ele>
        <time>2021-07-21T13:38:44Z</time>
      </trkpt>
      <trkpt lat="49.00712" lon="7.62727">
        <ele>234.22</ele>
        <time>2021-07-21T13:38:45Z</time>
      </trkpt>
      <trkpt lat="49.00853" lon="7.62648">
        <ele>237.58</ele>
        <time>2021-07-21T13:38:58Z</time>
      </trkpt>
      <trkpt lat="49.01032" lon="7.62544">
        <ele>234.22</ele>
        <time>2021-07-21T13:39:16Z</time>
      </trkpt>
      <trkpt lat="49.01081" lon="7.62521">
        <ele>235.18</ele>
        <time>2021-07-21T13:39:20Z</time>
      </trkpt>
      <trkpt lat="49.01092" lon="7.62515">
        <ele>236.14</ele>
        <time>2021-07-21T13:39:21Z</time>
      </trkpt>
      <trkpt lat="49.01101" lon="7.62503">
        <ele>236.62</ele>
        <time>2021-07-21T13:39:22Z</time>
      </trkpt>
      <trkpt lat="49.01203" lon="7.62389">
        <ele>237.1</ele>
        <time>2021-07-21T13:39:32Z</time>
      </trkpt>
      <trkpt lat="49.01321" lon="7.62257">
        <ele>235.18</ele>
        <time>2021-07-21T13:39:42Z</time>
      </trkpt>
      <trkpt lat="49.01407" lon="7.62179">
        <ele>238.06</ele>
        <time>2021-07-21T13:39:51Z</time>
      </trkpt>
      <trkpt lat="49.01491" lon="7.62101">
        <ele>238.06</ele>
        <time>2021-07-21T13:40:01Z</time>
      </trkpt>
      <trkpt lat="49.015" lon="7.62084">
        <ele>238.54</ele>
        <time>2021-07-21T13:40:02Z</time>
      </trkpt>
      <trkpt lat="49.01505" lon="7.62074">
        <ele>238.54</ele>
        <time>2021-07-21T13:40:03Z</time>
      </trkpt>
      <trkpt lat="49.01531" lon="7.61995">
        <ele>238.06</ele>
        <time>2021-07-21T13:40:11Z</time>
      </trkpt>
      <trkpt lat="49.01533" lon="7.61982">
        <ele>238.06</ele>
        <time>2021-07-21T13:40:12Z</time>
      </trkpt>
      <trkpt lat="49.01534" lon="7.61969">
        <ele>238.06</ele>
        <time>2021-07-21T13:40:13Z</time>
      </trkpt>
      <trkpt lat="49.01535" lon="7.61957">
        <ele>238.06</ele>
        <time>2021-07-21T13:40:14Z</time>
      </trkpt>
      <trkpt lat="49.01535" lon="7.61943">
        <ele>238.06</ele>
        <time>2021-07-21T13:40:15Z</time>
      </trkpt>
      <trkpt lat="49.01534" lon="7.61929">
        <ele>237.58</ele>
        <time>2021-07-21T13:40:16Z</time>
      </trkpt>
      <trkpt lat="49.01533" lon="7.61915">
        <ele>237.58</ele>
        <time>2021-07-21T13:40:17Z</time>
      </trkpt>
      <trkpt lat="49.0153" lon="7.61903">
        <ele>237.1</ele>
        <time>2021-07-21T13:40:18Z</time>
      </trkpt>
      <trkpt lat="49.01526" lon="7.61888">
        <ele>237.1</ele>
        <time>2021-07-21T13:40:19Z</time>
      </trkpt>
      <trkpt lat="49.01522" lon="7.61874">
        <ele>237.1</ele>
        <time>2021-07-21T13:40:20Z</time>
      </trkpt>
      <trkpt lat="49.01518" lon="7.6186">
        <ele>237.1</ele>
        <time>2021-07-21T13:40:21Z</time>
      </trkpt>
      <trkpt lat="49.01445" lon="7.61653">
        <ele>239.51</ele>
        <time>2021-07-21T13:40:34Z</time>
      </trkpt>
      <trkpt lat="49.0138" lon="7.6147">
        <ele>241.43</ele>
        <time>2021-07-21T13:40:44Z</time>
      </trkpt>
      <trkpt lat="49.01275" lon="7.61209">
        <ele>246.23</ele>
        <time>2021-07-21T13:40:57Z</time>
      </trkpt>
      <trkpt lat="49.01213" lon="7.61067">
        <ele>246.23</ele>
        <time>2021-07-21T13:41:06Z</time>
      </trkpt>
      <trkpt lat="49.0117" lon="7.60937">
        <ele>245.27</ele>
        <time>2021-07-21T13:41:16Z</time>
      </trkpt>
      <trkpt lat="49.01163" lon="7.60901">
        <ele>243.83</ele>
        <time>2021-07-21T13:41:18Z</time>
      </trkpt>
      <trkpt lat="49.01125" lon="7.60672">
        <ele>241.43</ele>
        <time>2021-07-21T13:41:28Z</time>
      </trkpt>
      <trkpt lat="49.01119" lon="7.60651">
        <ele>241.43</ele>
        <time>2021-07-21T13:41:29Z</time>
      </trkpt>
      <trkpt lat="49.01112" lon="7.60631">
        <ele>241.43</ele>
        <time>2021-07-21T13:41:30Z</time>
      </trkpt>
      <trkpt lat="49.01026" lon="7.60437">
        <ele>241.91</ele>
        <time>2021-07-21T13:41:40Z</time>
      </trkpt>
      <trkpt lat="49.00908" lon="7.60211">
        <ele>244.31</ele>
        <time>2021-07-21T13:41:53Z</time>
      </trkpt>
      <trkpt lat="49.00826" lon="7.60063">
        <ele>245.75</ele>
        <time>2021-07-21T13:42:02Z</time>
      </trkpt>
      <trkpt lat="49.00759" lon="7.59915">
        <ele>248.64</ele>
        <time>2021-07-21T13:42:11Z</time>
      </trkpt>
      <trkpt lat="49.00653" lon="7.59664">
        <ele>252.96</ele>
        <time>2021-07-21T13:42:25Z</time>
      </trkpt>
      <trkpt lat="49.00571" lon="7.59501">
        <ele>253.93</ele>
        <time>2021-07-21T13:42:35Z</time>
      </trkpt>
      <trkpt lat="49.00445" lon="7.59285">
        <ele>257.29</ele>
        <time>2021-07-21T13:42:47Z</time>
      </trkpt>
      <trkpt lat="49.00319" lon="7.59074">
        <ele>264.5</ele>
        <time>2021-07-21T13:42:59Z</time>
      </trkpt>
      <trkpt lat="49.00242" lon="7.58933">
        <ele>269.31</ele>
        <time>2021-07-21T13:43:07Z</time>
      </trkpt>
      <trkpt lat="49.00175" lon="7.5878">
        <ele>269.31</ele>
        <time>2021-07-21T13:43:15Z</time>
      </trkpt>
      <trkpt lat="49.00056" lon="7.58518">
        <ele>262.1</ele>
        <time>2021-07-21T13:43:28Z</time>
      </trkpt>
      <trkpt lat="48.99941" lon="7.58335">
        <ele>256.81</ele>
        <time>2021-07-21T13:43:39Z</time>
      </trkpt>
      <trkpt lat="48.99812" lon="7.58158">
        <ele>253.93</ele>
        <time>2021-07-21T13:43:49Z</time>
      </trkpt>
      <trkpt lat="48.99674" lon="7.57978">
        <ele>246.72</ele>
        <time>2021-07-21T13:44:01Z</time>
      </trkpt>
      <trkpt lat="48.99557" lon="7.57806">
        <ele>240.47</ele>
        <time>2021-07-21T13:44:10Z</time>
      </trkpt>
      <trkpt lat="48.99433" lon="7.57602">
        <ele>234.22</ele>
        <time>2021-07-21T13:44:21Z</time>
      </trkpt>
      <trkpt lat="48.99391" lon="7.5754">
        <ele>233.26</ele>
        <time>2021-07-21T13:44:25Z</time>
      </trkpt>
      <trkpt lat="48.99375" lon="7.57524">
        <ele>233.74</ele>
        <time>2021-07-21T13:44:26Z</time>
      </trkpt>
      <trkpt lat="48.99375" lon="7.57524">
        <ele>233.26</ele>
        <time>2021-07-21T13:44:27Z</time>
      </trkpt>
      <trkpt lat="48.99368" lon="7.57521">
        <ele>233.26</ele>
        <time>2021-07-21T13:44:28Z</time>
      </trkpt>
      <trkpt lat="48.99362" lon="7.57517">
        <ele>233.26</ele>
        <time>2021-07-21T13:44:29Z</time>
      </trkpt>
      <trkpt lat="48.99349" lon="7.57517">
        <ele>232.78</ele>
        <time>2021-07-21T13:44:30Z</time>
      </trkpt>
      <trkpt lat="48.99339" lon="7.57519">
        <ele>232.3</ele>
        <time>2021-07-21T13:44:31Z</time>
      </trkpt>
      <trkpt lat="48.99339" lon="7.57519">
        <ele>231.81</ele>
        <time>2021-07-21T13:44:32Z</time>
      </trkpt>
      <trkpt lat="48.9932" lon="7.57526">
        <ele>231.33</ele>
        <time>2021-07-21T13:44:33Z</time>
      </trkpt>
      <trkpt lat="48.9932" lon="7.57526">
        <ele>230.85</ele>
        <time>2021-07-21T13:44:34Z</time>
      </trkpt>
      <trkpt lat="48.99309" lon="7.57535">
        <ele>230.85</ele>
        <time>2021-07-21T13:44:35Z</time>
      </trkpt>
      <trkpt lat="48.99204" lon="7.57609">
        <ele>231.33</ele>
        <time>2021-07-21T13:44:44Z</time>
      </trkpt>
      <trkpt lat="48.99182" lon="7.57618">
        <ele>231.33</ele>
        <time>2021-07-21T13:44:46Z</time>
      </trkpt>
      <trkpt lat="48.99172" lon="7.57618">
        <ele>231.33</ele>
        <time>2021-07-21T13:44:47Z</time>
      </trkpt>
      <trkpt lat="48.99163" lon="7.57617">
        <ele>230.37</ele>
        <time>2021-07-21T13:44:48Z</time>
      </trkpt>
      <trkpt lat="48.99155" lon="7.57614">
        <ele>230.37</ele>
        <time>2021-07-21T13:44:49Z</time>
      </trkpt>
      <trkpt lat="48.99147" lon="7.57606">
        <ele>229.89</ele>
        <time>2021-07-21T13:44:50Z</time>
      </trkpt>
      <trkpt lat="48.99138" lon="7.57596">
        <ele>229.89</ele>
        <time>2021-07-21T13:44:51Z</time>
      </trkpt>
      <trkpt lat="48.99045" lon="7.57495">
        <ele>228.93</ele>
        <time>2021-07-21T13:45:03Z</time>
      </trkpt>
      <trkpt lat="48.9903" lon="7.57479">
        <ele>228.93</ele>
        <time>2021-07-21T13:45:05Z</time>
      </trkpt>
      <trkpt lat="48.99022" lon="7.57475">
        <ele>228.45</ele>
        <time>2021-07-21T13:45:06Z</time>
      </trkpt>
      <trkpt lat="48.98933" lon="7.57427">
        <ele>227.01</ele>
        <time>2021-07-21T13:45:17Z</time>
      </trkpt>
      <trkpt lat="48.98924" lon="7.57419">
        <ele>227.01</ele>
        <time>2021-07-21T13:45:18Z</time>
      </trkpt>
      <trkpt lat="48.98817" lon="7.57326">
        <ele>227.49</ele>
        <time>2021-07-21T13:45:29Z</time>
      </trkpt>
      <trkpt lat="48.98796" lon="7.57308">
        <ele>227.01</ele>
        <time>2021-07-21T13:45:31Z</time>
      </trkpt>
      <trkpt lat="48.98786" lon="7.57296">
        <ele>227.01</ele>
        <time>2021-07-21T13:45:32Z</time>
      </trkpt>
      <trkpt lat="48.9877" lon="7.5727">
        <ele>227.49</ele>
        <time>2021-07-21T13:45:33Z</time>
      </trkpt>
      <trkpt lat="48.98744" lon="7.57208">
        <ele>227.01</ele>
        <time>2021-07-21T13:45:38Z</time>
      </trkpt>
      <trkpt lat="48.98639" lon="7.57048">
        <ele>226.53</ele>
        <time>2021-07-21T13:45:52Z</time>
      </trkpt>
      <trkpt lat="48.98563" lon="7.56916">
        <ele>223.16</ele>
        <time>2021-07-21T13:46:02Z</time>
      </trkpt>
      <trkpt lat="48.98483" lon="7.5678">
        <ele>221.72</ele>
        <time>2021-07-21T13:46:14Z</time>
      </trkpt>
      <trkpt lat="48.98469" lon="7.56766">
        <ele>222.2</ele>
        <time>2021-07-21T13:46:15Z</time>
      </trkpt>
      <trkpt lat="48.98462" lon="7.56762">
        <ele>222.2</ele>
        <time>2021-07-21T13:46:16Z</time>
      </trkpt>
      <trkpt lat="48.98462" lon="7.56762">
        <ele>222.68</ele>
        <time>2021-07-21T13:46:17Z</time>
      </trkpt>
      <trkpt lat="48.98455" lon="7.56759">
        <ele>222.2</ele>
        <time>2021-07-21T13:46:18Z</time>
      </trkpt>
      <trkpt lat="48.98449" lon="7.56756">
        <ele>222.2</ele>
        <time>2021-07-21T13:46:19Z</time>
      </trkpt>
      <trkpt lat="48.98441" lon="7.56751">
        <ele>221.24</ele>
        <time>2021-07-21T13:46:22Z</time>
      </trkpt>
      <trkpt lat="48.98439" lon="7.56749">
        <ele>221.24</ele>
        <time>2021-07-21T13:46:23Z</time>
      </trkpt>
      <trkpt lat="48.98438" lon="7.56748">
        <ele>221.24</ele>
        <time>2021-07-21T13:46:24Z</time>
      </trkpt>
      <trkpt lat="48.98435" lon="7.56731">
        <ele>221.24</ele>
        <time>2021-07-21T13:46:30Z</time>
      </trkpt>
      <trkpt lat="48.98435" lon="7.56731">
        <ele>221.24</ele>
        <time>2021-07-21T13:46:31Z</time>
      </trkpt>
      <trkpt lat="48.98438" lon="7.56729">
        <ele>221.24</ele>
        <time>2021-07-21T13:46:32Z</time>
      </trkpt>
      <trkpt lat="48.98442" lon="7.56726">
        <ele>221.24</ele>
        <time>2021-07-21T13:46:33Z</time>
      </trkpt>
      <trkpt lat="48.98446" lon="7.56722">
        <ele>221.24</ele>
        <time>2021-07-21T13:46:34Z</time>
      </trkpt>
      <trkpt lat="48.98451" lon="7.56718">
        <ele>221.24</ele>
        <time>2021-07-21T13:46:35Z</time>
      </trkpt>
      <trkpt lat="48.98532" lon="7.56656">
        <ele>220.28</ele>
        <time>2021-07-21T13:46:46Z</time>
      </trkpt>
      <trkpt lat="48.9863" lon="7.56581">
        <ele>223.16</ele>
        <time>2021-07-21T13:47:00Z</time>
      </trkpt>
      <trkpt lat="48.98724" lon="7.56531">
        <ele>221.72</ele>
        <time>2021-07-21T13:47:09Z</time>
      </trkpt>
      <trkpt lat="48.98844" lon="7.56489">
        <ele>222.68</ele>
        <time>2021-07-21T13:47:17Z</time>
      </trkpt>
      <trkpt lat="48.98844" lon="7.56489">
        <ele>223.64</ele>
        <time>2021-07-21T13:47:18Z</time>
      </trkpt>
      <trkpt lat="48.98858" lon="7.56473">
        <ele>223.16</ele>
        <time>2021-07-21T13:47:19Z</time>
      </trkpt>
      <trkpt lat="48.98979" lon="7.56262">
        <ele>223.64</ele>
        <time>2021-07-21T13:47:31Z</time>
      </trkpt>
      <trkpt lat="48.99008" lon="7.56213">
        <ele>223.64</ele>
        <time>2021-07-21T13:47:34Z</time>
      </trkpt>
      <trkpt lat="48.99016" lon="7.56193">
        <ele>224.12</ele>
        <time>2021-07-21T13:47:35Z</time>
      </trkpt>
      <trkpt lat="48.99023" lon="7.56172">
        <ele>223.64</ele>
        <time>2021-07-21T13:47:36Z</time>
      </trkpt>
      <trkpt lat="48.99027" lon="7.56152">
        <ele>223.16</ele>
        <time>2021-07-21T13:47:37Z</time>
      </trkpt>
      <trkpt lat="48.99031" lon="7.56128">
        <ele>222.68</ele>
        <time>2021-07-21T13:47:38Z</time>
      </trkpt>
      <trkpt lat="48.99035" lon="7.56104">
        <ele>222.68</ele>
        <time>2021-07-21T13:47:39Z</time>
      </trkpt>
      <trkpt lat="48.99057" lon="7.55957">
        <ele>221.24</ele>
        <time>2021-07-21T13:47:45Z</time>
      </trkpt>
      <trkpt lat="48.99064" lon="7.55935">
        <ele>220.76</ele>
        <time>2021-07-21T13:47:46Z</time>
      </trkpt>
      <trkpt lat="48.9907" lon="7.55913">
        <ele>220.76</ele>
        <time>2021-07-21T13:47:47Z</time>
      </trkpt>
      <trkpt lat="48.9908" lon="7.55895">
        <ele>221.24</ele>
        <time>2021-07-21T13:47:48Z</time>
      </trkpt>
      <trkpt lat="48.99091" lon="7.55878">
        <ele>221.72</ele>
        <time>2021-07-21T13:47:49Z</time>
      </trkpt>
      <trkpt lat="48.99117" lon="7.55849">
        <ele>221.72</ele>
        <time>2021-07-21T13:47:50Z</time>
      </trkpt>
      <trkpt lat="48.9927" lon="7.55641">
        <ele>223.64</ele>
        <time>2021-07-21T13:48:03Z</time>
      </trkpt>
      <trkpt lat="48.99357" lon="7.55473">
        <ele>223.16</ele>
        <time>2021-07-21T13:48:11Z</time>
      </trkpt>
      <trkpt lat="48.99365" lon="7.55449">
        <ele>222.68</ele>
        <time>2021-07-21T13:48:12Z</time>
      </trkpt>
      <trkpt lat="48.99372" lon="7.55424">
        <ele>222.2</ele>
        <time>2021-07-21T13:48:13Z</time>
      </trkpt>
      <trkpt lat="48.99377" lon="7.55398">
        <ele>222.2</ele>
        <time>2021-07-21T13:48:14Z</time>
      </trkpt>
      <trkpt lat="48.99396" lon="7.55266">
        <ele>220.76</ele>
        <time>2021-07-21T13:48:19Z</time>
      </trkpt>
      <trkpt lat="48.99402" lon="7.55241">
        <ele>220.76</ele>
        <time>2021-07-21T13:48:20Z</time>
      </trkpt>
      <trkpt lat="48.99426" lon="7.55169">
        <ele>220.76</ele>
        <time>2021-07-21T13:48:23Z</time>
      </trkpt>
      <trkpt lat="48.99438" lon="7.55149">
        <ele>221.24</ele>
        <time>2021-07-21T13:48:24Z</time>
      </trkpt>
      <trkpt lat="48.99547" lon="7.54949">
        <ele>221.24</ele>
        <time>2021-07-21T13:48:33Z</time>
      </trkpt>
      <trkpt lat="48.99598" lon="7.54753">
        <ele>219.8</ele>
        <time>2021-07-21T13:48:40Z</time>
      </trkpt>
      <trkpt lat="48.99679" lon="7.54355">
        <ele>220.28</ele>
        <time>2021-07-21T13:48:54Z</time>
      </trkpt>
      <trkpt lat="48.99696" lon="7.54222">
        <ele>220.76</ele>
        <time>2021-07-21T13:48:58Z</time>
      </trkpt>
      <trkpt lat="48.99696" lon="7.54222">
        <ele>221.24</ele>
        <time>2021-07-21T13:48:59Z</time>
      </trkpt>
      <trkpt lat="48.99699" lon="7.54026">
        <ele>223.16</ele>
        <time>2021-07-21T13:49:06Z</time>
      </trkpt>
      <trkpt lat="48.99709" lon="7.53974">
        <ele>223.16</ele>
        <time>2021-07-21T13:49:07Z</time>
      </trkpt>
      <trkpt lat="48.99709" lon="7.53974">
        <ele>223.64</ele>
        <time>2021-07-21T13:49:08Z</time>
      </trkpt>
      <trkpt lat="48.99733" lon="7.53876">
        <ele>223.64</ele>
        <time>2021-07-21T13:49:12Z</time>
      </trkpt>
      <trkpt lat="48.99739" lon="7.53853">
        <ele>224.61</ele>
        <time>2021-07-21T13:49:13Z</time>
      </trkpt>
      <trkpt lat="48.99748" lon="7.53762">
        <ele>224.61</ele>
        <time>2021-07-21T13:49:19Z</time>
      </trkpt>
      <trkpt lat="48.99749" lon="7.53755">
        <ele>225.09</ele>
        <time>2021-07-21T13:49:31Z</time>
      </trkpt>
      <trkpt lat="48.99749" lon="7.53725">
        <ele>225.09</ele>
        <time>2021-07-21T13:50:12Z</time>
      </trkpt>
      <trkpt lat="48.9975" lon="7.53629">
        <ele>225.09</ele>
        <time>2021-07-21T13:50:20Z</time>
      </trkpt>
      <trkpt lat="48.99752" lon="7.53373">
        <ele>225.57</ele>
        <time>2021-07-21T13:50:33Z</time>
      </trkpt>
      <trkpt lat="48.99757" lon="7.53127">
        <ele>227.01</ele>
        <time>2021-07-21T13:50:44Z</time>
      </trkpt>
      <trkpt lat="48.99751" lon="7.52861">
        <ele>228.93</ele>
        <time>2021-07-21T13:50:54Z</time>
      </trkpt>
      <trkpt lat="48.99713" lon="7.52604">
        <ele>227.49</ele>
        <time>2021-07-21T13:51:03Z</time>
      </trkpt>
      <trkpt lat="48.99641" lon="7.52236">
        <ele>226.05</ele>
        <time>2021-07-21T13:51:15Z</time>
      </trkpt>
      <trkpt lat="48.99593" lon="7.5197">
        <ele>225.57</ele>
        <time>2021-07-21T13:51:24Z</time>
      </trkpt>
      <trkpt lat="48.99592" lon="7.5194">
        <ele>225.57</ele>
        <time>2021-07-21T13:51:25Z</time>
      </trkpt>
      <trkpt lat="48.99618" lon="7.51707">
        <ele>226.05</ele>
        <time>2021-07-21T13:51:33Z</time>
      </trkpt>
      <trkpt lat="48.99674" lon="7.51455">
        <ele>224.61</ele>
        <time>2021-07-21T13:51:42Z</time>
      </trkpt>
      <trkpt lat="48.99676" lon="7.51427">
        <ele>224.12</ele>
        <time>2021-07-21T13:51:43Z</time>
      </trkpt>
      <trkpt lat="48.99684" lon="7.51066">
        <ele>223.16</ele>
        <time>2021-07-21T13:51:56Z</time>
      </trkpt>
      <trkpt lat="48.9975" lon="7.508">
        <ele>228.45</ele>
        <time>2021-07-21T13:52:07Z</time>
      </trkpt>
      <trkpt lat="48.99849" lon="7.50657">
        <ele>234.22</ele>
        <time>2021-07-21T13:52:15Z</time>
      </trkpt>
      <trkpt lat="48.99902" lon="7.50596">
        <ele>235.66</ele>
        <time>2021-07-21T13:52:19Z</time>
      </trkpt>
      <trkpt lat="48.99915" lon="7.50583">
        <ele>236.14</ele>
        <time>2021-07-21T13:52:20Z</time>
      </trkpt>
      <trkpt lat="48.9993" lon="7.5057">
        <ele>237.1</ele>
        <time>2021-07-21T13:52:21Z</time>
      </trkpt>
      <trkpt lat="48.99945" lon="7.50558">
        <ele>237.1</ele>
        <time>2021-07-21T13:52:22Z</time>
      </trkpt>
      <trkpt lat="48.99963" lon="7.5055">
        <ele>237.1</ele>
        <time>2021-07-21T13:52:23Z</time>
      </trkpt>
      <trkpt lat="49.00011" lon="7.50535">
        <ele>237.58</ele>
        <time>2021-07-21T13:52:25Z</time>
      </trkpt>
      <trkpt lat="49.00011" lon="7.50535">
        <ele>237.1</ele>
        <time>2021-07-21T13:52:26Z</time>
      </trkpt>
      <trkpt lat="49.0004" lon="7.50534">
        <ele>238.06</ele>
        <time>2021-07-21T13:52:27Z</time>
      </trkpt>
      <trkpt lat="49.00199" lon="7.50547">
        <ele>239.51</ele>
        <time>2021-07-21T13:52:38Z</time>
      </trkpt>
      <trkpt lat="49.00227" lon="7.50541">
        <ele>240.95</ele>
        <time>2021-07-21T13:52:40Z</time>
      </trkpt>
      <trkpt lat="49.00239" lon="7.50534">
        <ele>240.95</ele>
        <time>2021-07-21T13:52:41Z</time>
      </trkpt>
      <trkpt lat="49.00252" lon="7.50524">
        <ele>241.43</ele>
        <time>2021-07-21T13:52:42Z</time>
      </trkpt>
      <trkpt lat="49.00267" lon="7.50513">
        <ele>242.87</ele>
        <time>2021-07-21T13:52:43Z</time>
      </trkpt>
      <trkpt lat="49.00279" lon="7.50501">
        <ele>242.87</ele>
        <time>2021-07-21T13:52:44Z</time>
      </trkpt>
      <trkpt lat="49.00291" lon="7.50485">
        <ele>241.91</ele>
        <time>2021-07-21T13:52:45Z</time>
      </trkpt>
      <trkpt lat="49.00427" lon="7.50334">
        <ele>239.99</ele>
        <time>2021-07-21T13:52:54Z</time>
      </trkpt>
      <trkpt lat="49.00652" lon="7.50112">
        <ele>240.95</ele>
        <time>2021-07-21T13:53:10Z</time>
      </trkpt>
      <trkpt lat="49.00666" lon="7.50095">
        <ele>240.95</ele>
        <time>2021-07-21T13:53:11Z</time>
      </trkpt>
      <trkpt lat="49.00677" lon="7.50078">
        <ele>241.91</ele>
        <time>2021-07-21T13:53:12Z</time>
      </trkpt>
      <trkpt lat="49.00686" lon="7.50056">
        <ele>241.91</ele>
        <time>2021-07-21T13:53:13Z</time>
      </trkpt>
      <trkpt lat="49.00724" lon="7.49967">
        <ele>241.43</ele>
        <time>2021-07-21T13:53:17Z</time>
      </trkpt>
      <trkpt lat="49.00735" lon="7.49947">
        <ele>240.95</ele>
        <time>2021-07-21T13:53:18Z</time>
      </trkpt>
      <trkpt lat="49.00877" lon="7.49768">
        <ele>242.39</ele>
        <time>2021-07-21T13:53:28Z</time>
      </trkpt>
      <trkpt lat="49.00991" lon="7.4969">
        <ele>243.35</ele>
        <time>2021-07-21T13:53:35Z</time>
      </trkpt>
      <trkpt lat="49.01005" lon="7.49688">
        <ele>243.35</ele>
        <time>2021-07-21T13:53:36Z</time>
      </trkpt>
      <trkpt lat="49.0102" lon="7.49687">
        <ele>242.87</ele>
        <time>2021-07-21T13:53:37Z</time>
      </trkpt>
      <trkpt lat="49.01034" lon="7.49689">
        <ele>242.87</ele>
        <time>2021-07-21T13:53:38Z</time>
      </trkpt>
      <trkpt lat="49.01048" lon="7.49695">
        <ele>242.87</ele>
        <time>2021-07-21T13:53:39Z</time>
      </trkpt>
      <trkpt lat="49.01061" lon="7.49705">
        <ele>242.39</ele>
        <time>2021-07-21T13:53:40Z</time>
      </trkpt>
      <trkpt lat="49.01074" lon="7.49716">
        <ele>242.39</ele>
        <time>2021-07-21T13:53:41Z</time>
      </trkpt>
      <trkpt lat="49.01111" lon="7.49752">
        <ele>240.95</ele>
        <time>2021-07-21T13:53:44Z</time>
      </trkpt>
      <trkpt lat="49.01124" lon="7.49763">
        <ele>240.47</ele>
        <time>2021-07-21T13:53:45Z</time>
      </trkpt>
      <trkpt lat="49.01151" lon="7.49777">
        <ele>239.51</ele>
        <time>2021-07-21T13:53:46Z</time>
      </trkpt>
      <trkpt lat="49.01151" lon="7.49777">
        <ele>239.99</ele>
        <time>2021-07-21T13:53:47Z</time>
      </trkpt>
      <trkpt lat="49.01165" lon="7.49778">
        <ele>238.54</ele>
        <time>2021-07-21T13:53:48Z</time>
      </trkpt>
      <trkpt lat="49.01179" lon="7.49779">
        <ele>238.54</ele>
        <time>2021-07-21T13:53:49Z</time>
      </trkpt>
      <trkpt lat="49.01192" lon="7.4978">
        <ele>239.02</ele>
        <time>2021-07-21T13:53:50Z</time>
      </trkpt>
      <trkpt lat="49.01206" lon="7.49774">
        <ele>238.54</ele>
        <time>2021-07-21T13:53:51Z</time>
      </trkpt>
      <trkpt lat="49.01219" lon="7.49768">
        <ele>239.02</ele>
        <time>2021-07-21T13:53:52Z</time>
      </trkpt>
      <trkpt lat="49.01246" lon="7.4975">
        <ele>238.54</ele>
        <time>2021-07-21T13:53:53Z</time>
      </trkpt>
      <trkpt lat="49.01246" lon="7.4975">
        <ele>239.51</ele>
        <time>2021-07-21T13:53:54Z</time>
      </trkpt>
      <trkpt lat="49.01257" lon="7.49736">
        <ele>239.51</ele>
        <time>2021-07-21T13:53:55Z</time>
      </trkpt>
      <trkpt lat="49.01269" lon="7.49719">
        <ele>239.99</ele>
        <time>2021-07-21T13:53:56Z</time>
      </trkpt>
      <trkpt lat="49.0128" lon="7.49703">
        <ele>240.47</ele>
        <time>2021-07-21T13:53:57Z</time>
      </trkpt>
      <trkpt lat="49.01331" lon="7.49606">
        <ele>240.95</ele>
        <time>2021-07-21T13:54:02Z</time>
      </trkpt>
      <trkpt lat="49.01453" lon="7.49482">
        <ele>241.43</ele>
        <time>2021-07-21T13:54:10Z</time>
      </trkpt>
      <trkpt lat="49.01552" lon="7.49419">
        <ele>242.87</ele>
        <time>2021-07-21T13:54:16Z</time>
      </trkpt>
      <trkpt lat="49.01671" lon="7.49289">
        <ele>248.16</ele>
        <time>2021-07-21T13:54:26Z</time>
      </trkpt>
      <trkpt lat="49.01745" lon="7.49222">
        <ele>249.12</ele>
        <time>2021-07-21T13:54:31Z</time>
      </trkpt>
      <trkpt lat="49.01758" lon="7.49215">
        <ele>249.12</ele>
        <time>2021-07-21T13:54:32Z</time>
      </trkpt>
      <trkpt lat="49.01939" lon="7.49127">
        <ele>252.48</ele>
        <time>2021-07-21T13:54:46Z</time>
      </trkpt>
      <trkpt lat="49.02061" lon="7.49107">
        <ele>254.89</ele>
        <time>2021-07-21T13:54:54Z</time>
      </trkpt>
      <trkpt lat="49.02157" lon="7.49102">
        <ele>260.17</ele>
        <time>2021-07-21T13:55:01Z</time>
      </trkpt>
      <trkpt lat="49.02167" lon="7.49097">
        <ele>259.69</ele>
        <time>2021-07-21T13:55:02Z</time>
      </trkpt>
      <trkpt lat="49.02176" lon="7.4909">
        <ele>260.17</ele>
        <time>2021-07-21T13:55:03Z</time>
      </trkpt>
      <trkpt lat="49.02186" lon="7.49079">
        <ele>260.65</ele>
        <time>2021-07-21T13:55:04Z</time>
      </trkpt>
      <trkpt lat="49.02195" lon="7.49068">
        <ele>260.65</ele>
        <time>2021-07-21T13:55:05Z</time>
      </trkpt>
      <trkpt lat="49.02203" lon="7.49054">
        <ele>260.17</ele>
        <time>2021-07-21T13:55:06Z</time>
      </trkpt>
      <trkpt lat="49.0221" lon="7.4904">
        <ele>259.69</ele>
        <time>2021-07-21T13:55:07Z</time>
      </trkpt>
      <trkpt lat="49.02219" lon="7.49023">
        <ele>259.21</ele>
        <time>2021-07-21T13:55:08Z</time>
      </trkpt>
      <trkpt lat="49.023" lon="7.48786">
        <ele>252.96</ele>
        <time>2021-07-21T13:55:19Z</time>
      </trkpt>
      <trkpt lat="49.02349" lon="7.48633">
        <ele>252.48</ele>
        <time>2021-07-21T13:55:27Z</time>
      </trkpt>
      <trkpt lat="49.02375" lon="7.48522">
        <ele>252.96</ele>
        <time>2021-07-21T13:55:34Z</time>
      </trkpt>
      <trkpt lat="49.02376" lon="7.48506">
        <ele>252.96</ele>
        <time>2021-07-21T13:55:35Z</time>
      </trkpt>
      <trkpt lat="49.02377" lon="7.48489">
        <ele>252.48</ele>
        <time>2021-07-21T13:55:36Z</time>
      </trkpt>
      <trkpt lat="49.02377" lon="7.48456">
        <ele>251.52</ele>
        <time>2021-07-21T13:55:37Z</time>
      </trkpt>
      <trkpt lat="49.02377" lon="7.48456">
        <ele>251.52</ele>
        <time>2021-07-21T13:55:38Z</time>
      </trkpt>
      <trkpt lat="49.02378" lon="7.48444">
        <ele>251.04</ele>
        <time>2021-07-21T13:55:39Z</time>
      </trkpt>
      <trkpt lat="49.02378" lon="7.48434">
        <ele>251.04</ele>
        <time>2021-07-21T13:55:40Z</time>
      </trkpt>
      <trkpt lat="49.02379" lon="7.48404">
        <ele>251.04</ele>
        <time>2021-07-21T13:55:43Z</time>
      </trkpt>
      <trkpt lat="49.0238" lon="7.48396">
        <ele>251.04</ele>
        <time>2021-07-21T13:55:44Z</time>
      </trkpt>
      <trkpt lat="49.02382" lon="7.48389">
        <ele>250.56</ele>
        <time>2021-07-21T13:55:45Z</time>
      </trkpt>
      <trkpt lat="49.02385" lon="7.48371">
        <ele>254.89</ele>
        <time>2021-07-21T13:55:56Z</time>
      </trkpt>
      <trkpt lat="49.02395" lon="7.48354">
        <ele>254.89</ele>
        <time>2021-07-21T13:56:37Z</time>
      </trkpt>
      <trkpt lat="49.02398" lon="7.4835">
        <ele>254.89</ele>
        <time>2021-07-21T13:56:38Z</time>
      </trkpt>
      <trkpt lat="49.02402" lon="7.48345">
        <ele>254.89</ele>
        <time>2021-07-21T13:56:39Z</time>
      </trkpt>
      <trkpt lat="49.02408" lon="7.48341">
        <ele>254.89</ele>
        <time>2021-07-21T13:56:40Z</time>
      </trkpt>
      <trkpt lat="49.02414" lon="7.48335">
        <ele>254.89</ele>
        <time>2021-07-21T13:56:41Z</time>
      </trkpt>
      <trkpt lat="49.02525" lon="7.48274">
        <ele>254.89</ele>
        <time>2021-07-21T13:56:52Z</time>
      </trkpt>
      <trkpt lat="49.02578" lon="7.48271">
        <ele>254.41</ele>
        <time>2021-07-21T13:56:56Z</time>
      </trkpt>
      <trkpt lat="49.02591" lon="7.4827">
        <ele>254.41</ele>
        <time>2021-07-21T13:56:57Z</time>
      </trkpt>
      <trkpt lat="49.02604" lon="7.48267">
        <ele>254.41</ele>
        <time>2021-07-21T13:56:58Z</time>
      </trkpt>
      <trkpt lat="49.02617" lon="7.4826">
        <ele>254.41</ele>
        <time>2021-07-21T13:56:59Z</time>
      </trkpt>
      <trkpt lat="49.02626" lon="7.48249">
        <ele>253.93</ele>
        <time>2021-07-21T13:57:00Z</time>
      </trkpt>
      <trkpt lat="49.02635" lon="7.48234">
        <ele>253.44</ele>
        <time>2021-07-21T13:57:01Z</time>
      </trkpt>
      <trkpt lat="49.02641" lon="7.48221">
        <ele>252.48</ele>
        <time>2021-07-21T13:57:02Z</time>
      </trkpt>
      <trkpt lat="49.02644" lon="7.48201">
        <ele>251.52</ele>
        <time>2021-07-21T13:57:03Z</time>
      </trkpt>
      <trkpt lat="49.02647" lon="7.48183">
        <ele>252.48</ele>
        <time>2021-07-21T13:57:04Z</time>
      </trkpt>
      <trkpt lat="49.02646" lon="7.48158">
        <ele>252</ele>
        <time>2021-07-21T13:57:05Z</time>
      </trkpt>
      <trkpt lat="49.02644" lon="7.48136">
        <ele>252.48</ele>
        <time>2021-07-21T13:57:06Z</time>
      </trkpt>
      <trkpt lat="49.02639" lon="7.48113">
        <ele>253.44</ele>
        <time>2021-07-21T13:57:07Z</time>
      </trkpt>
      <trkpt lat="49.02612" lon="7.47963">
        <ele>255.37</ele>
        <time>2021-07-21T13:57:14Z</time>
      </trkpt>
      <trkpt lat="49.02611" lon="7.47942">
        <ele>254.89</ele>
        <time>2021-07-21T13:57:15Z</time>
      </trkpt>
      <trkpt lat="49.02611" lon="7.4792">
        <ele>254.41</ele>
        <time>2021-07-21T13:57:16Z</time>
      </trkpt>
      <trkpt lat="49.02617" lon="7.47812">
        <ele>252.48</ele>
        <time>2021-07-21T13:57:21Z</time>
      </trkpt>
      <trkpt lat="49.02621" lon="7.47792">
        <ele>253.93</ele>
        <time>2021-07-21T13:57:22Z</time>
      </trkpt>
      <trkpt lat="49.02625" lon="7.47772">
        <ele>254.89</ele>
        <time>2021-07-21T13:57:23Z</time>
      </trkpt>
      <trkpt lat="49.02632" lon="7.47759">
        <ele>254.89</ele>
        <time>2021-07-21T13:57:24Z</time>
      </trkpt>
      <trkpt lat="49.02641" lon="7.47744">
        <ele>254.89</ele>
        <time>2021-07-21T13:57:25Z</time>
      </trkpt>
      <trkpt lat="49.02699" lon="7.47655">
        <ele>257.77</ele>
        <time>2021-07-21T13:57:31Z</time>
      </trkpt>
      <trkpt lat="49.02709" lon="7.47641">
        <ele>258.73</ele>
        <time>2021-07-21T13:57:32Z</time>
      </trkpt>
      <trkpt lat="49.0272" lon="7.4763">
        <ele>258.73</ele>
        <time>2021-07-21T13:57:33Z</time>
      </trkpt>
      <trkpt lat="49.02735" lon="7.47622">
        <ele>258.73</ele>
        <time>2021-07-21T13:57:34Z</time>
      </trkpt>
      <trkpt lat="49.02748" lon="7.47616">
        <ele>258.73</ele>
        <time>2021-07-21T13:57:35Z</time>
      </trkpt>
      <trkpt lat="49.0291" lon="7.47522">
        <ele>264.5</ele>
        <time>2021-07-21T13:57:47Z</time>
      </trkpt>
      <trkpt lat="49.02994" lon="7.47433">
        <ele>269.79</ele>
        <time>2021-07-21T13:57:54Z</time>
      </trkpt>
      <trkpt lat="49.03007" lon="7.47425">
        <ele>271.23</ele>
        <time>2021-07-21T13:57:55Z</time>
      </trkpt>
      <trkpt lat="49.03019" lon="7.47417">
        <ele>272.67</ele>
        <time>2021-07-21T13:57:56Z</time>
      </trkpt>
      <trkpt lat="49.03033" lon="7.47412">
        <ele>274.11</ele>
        <time>2021-07-21T13:57:57Z</time>
      </trkpt>
      <trkpt lat="49.03047" lon="7.47413">
        <ele>275.56</ele>
        <time>2021-07-21T13:57:58Z</time>
      </trkpt>
      <trkpt lat="49.03061" lon="7.47417">
        <ele>276.52</ele>
        <time>2021-07-21T13:57:59Z</time>
      </trkpt>
      <trkpt lat="49.03074" lon="7.47424">
        <ele>277.48</ele>
        <time>2021-07-21T13:58:00Z</time>
      </trkpt>
      <trkpt lat="49.03086" lon="7.47436">
        <ele>278.44</ele>
        <time>2021-07-21T13:58:01Z</time>
      </trkpt>
      <trkpt lat="49.03097" lon="7.47448">
        <ele>279.88</ele>
        <time>2021-07-21T13:58:02Z</time>
      </trkpt>
      <trkpt lat="49.03108" lon="7.47461">
        <ele>280.84</ele>
        <time>2021-07-21T13:58:03Z</time>
      </trkpt>
      <trkpt lat="49.03119" lon="7.47476">
        <ele>282.28</ele>
        <time>2021-07-21T13:58:04Z</time>
      </trkpt>
      <trkpt lat="49.03261" lon="7.47685">
        <ele>300.07</ele>
        <time>2021-07-21T13:58:17Z</time>
      </trkpt>
      <trkpt lat="49.03271" lon="7.47698">
        <ele>300.55</ele>
        <time>2021-07-21T13:58:18Z</time>
      </trkpt>
      <trkpt lat="49.03283" lon="7.47705">
        <ele>301.51</ele>
        <time>2021-07-21T13:58:19Z</time>
      </trkpt>
      <trkpt lat="49.03294" lon="7.4771">
        <ele>301.51</ele>
        <time>2021-07-21T13:58:20Z</time>
      </trkpt>
      <trkpt lat="49.03308" lon="7.47708">
        <ele>302.47</ele>
        <time>2021-07-21T13:58:21Z</time>
      </trkpt>
      <trkpt lat="49.03317" lon="7.47703">
        <ele>302.95</ele>
        <time>2021-07-21T13:58:22Z</time>
      </trkpt>
      <trkpt lat="49.03331" lon="7.47693">
        <ele>304.39</ele>
        <time>2021-07-21T13:58:23Z</time>
      </trkpt>
      <trkpt lat="49.03339" lon="7.47681">
        <ele>305.36</ele>
        <time>2021-07-21T13:58:24Z</time>
      </trkpt>
      <trkpt lat="49.03348" lon="7.47665">
        <ele>306.32</ele>
        <time>2021-07-21T13:58:25Z</time>
      </trkpt>
      <trkpt lat="49.03357" lon="7.4765">
        <ele>307.28</ele>
        <time>2021-07-21T13:58:26Z</time>
      </trkpt>
      <trkpt lat="49.03392" lon="7.47582">
        <ele>312.09</ele>
        <time>2021-07-21T13:58:30Z</time>
      </trkpt>
      <trkpt lat="49.03404" lon="7.47569">
        <ele>313.05</ele>
        <time>2021-07-21T13:58:31Z</time>
      </trkpt>
      <trkpt lat="49.03417" lon="7.47558">
        <ele>314.49</ele>
        <time>2021-07-21T13:58:32Z</time>
      </trkpt>
      <trkpt lat="49.03431" lon="7.47553">
        <ele>315.93</ele>
        <time>2021-07-21T13:58:33Z</time>
      </trkpt>
      <trkpt lat="49.03445" lon="7.47549">
        <ele>316.89</ele>
        <time>2021-07-21T13:58:34Z</time>
      </trkpt>
      <trkpt lat="49.0346" lon="7.47551">
        <ele>317.85</ele>
        <time>2021-07-21T13:58:35Z</time>
      </trkpt>
      <trkpt lat="49.03473" lon="7.47556">
        <ele>318.81</ele>
        <time>2021-07-21T13:58:36Z</time>
      </trkpt>
      <trkpt lat="49.03487" lon="7.47563">
        <ele>319.78</ele>
        <time>2021-07-21T13:58:37Z</time>
      </trkpt>
      <trkpt lat="49.03498" lon="7.47576">
        <ele>320.74</ele>
        <time>2021-07-21T13:58:38Z</time>
      </trkpt>
      <trkpt lat="49.03511" lon="7.47593">
        <ele>322.18</ele>
        <time>2021-07-21T13:58:39Z</time>
      </trkpt>
      <trkpt lat="49.03558" lon="7.47661">
        <ele>326.99</ele>
        <time>2021-07-21T13:58:43Z</time>
      </trkpt>
      <trkpt lat="49.0357" lon="7.47671">
        <ele>327.95</ele>
        <time>2021-07-21T13:58:44Z</time>
      </trkpt>
      <trkpt lat="49.03595" lon="7.47688">
        <ele>328.43</ele>
        <time>2021-07-21T13:58:45Z</time>
      </trkpt>
      <trkpt lat="49.03609" lon="7.47688">
        <ele>329.39</ele>
        <time>2021-07-21T13:58:46Z</time>
      </trkpt>
      <trkpt lat="49.03609" lon="7.47688">
        <ele>330.83</ele>
        <time>2021-07-21T13:58:47Z</time>
      </trkpt>
      <trkpt lat="49.03623" lon="7.47688">
        <ele>331.31</ele>
        <time>2021-07-21T13:58:48Z</time>
      </trkpt>
      <trkpt lat="49.03636" lon="7.47686">
        <ele>332.27</ele>
        <time>2021-07-21T13:58:49Z</time>
      </trkpt>
      <trkpt lat="49.03651" lon="7.47681">
        <ele>333.23</ele>
        <time>2021-07-21T13:58:50Z</time>
      </trkpt>
      <trkpt lat="49.03852" lon="7.47588">
        <ele>336.6</ele>
        <time>2021-07-21T13:59:03Z</time>
      </trkpt>
      <trkpt lat="49.04025" lon="7.47498">
        <ele>333.71</ele>
        <time>2021-07-21T13:59:13Z</time>
      </trkpt>
      <trkpt lat="49.04042" lon="7.47485">
        <ele>333.71</ele>
        <time>2021-07-21T13:59:14Z</time>
      </trkpt>
      <trkpt lat="49.04058" lon="7.47467">
        <ele>333.23</ele>
        <time>2021-07-21T13:59:15Z</time>
      </trkpt>
      <trkpt lat="49.04073" lon="7.47448">
        <ele>332.75</ele>
        <time>2021-07-21T13:59:16Z</time>
      </trkpt>
      <trkpt lat="49.04104" lon="7.47408">
        <ele>332.27</ele>
        <time>2021-07-21T13:59:17Z</time>
      </trkpt>
      <trkpt lat="49.04104" lon="7.47408">
        <ele>331.79</ele>
        <time>2021-07-21T13:59:18Z</time>
      </trkpt>
      <trkpt lat="49.04117" lon="7.47384">
        <ele>331.31</ele>
        <time>2021-07-21T13:59:19Z</time>
      </trkpt>
      <trkpt lat="49.04131" lon="7.4736">
        <ele>330.35</ele>
        <time>2021-07-21T13:59:20Z</time>
      </trkpt>
      <trkpt lat="49.04155" lon="7.47305">
        <ele>329.39</ele>
        <time>2021-07-21T13:59:21Z</time>
      </trkpt>
      <trkpt lat="49.04301" lon="7.46951">
        <ele>319.3</ele>
        <time>2021-07-21T13:59:34Z</time>
      </trkpt>
      <trkpt lat="49.04434" lon="7.46586">
        <ele>311.6</ele>
        <time>2021-07-21T13:59:46Z</time>
      </trkpt>
      <trkpt lat="49.04547" lon="7.46162">
        <ele>301.51</ele>
        <time>2021-07-21T14:00:01Z</time>
      </trkpt>
      <trkpt lat="49.04628" lon="7.45833">
        <ele>295.26</ele>
        <time>2021-07-21T14:00:13Z</time>
      </trkpt>
      <trkpt lat="49.04654" lon="7.45593">
        <ele>295.74</ele>
        <time>2021-07-21T14:00:22Z</time>
      </trkpt>
      <trkpt lat="49.04676" lon="7.45326">
        <ele>294.78</ele>
        <time>2021-07-21T14:00:35Z</time>
      </trkpt>
      <trkpt lat="49.04683" lon="7.45243">
        <ele>294.78</ele>
        <time>2021-07-21T14:00:43Z</time>
      </trkpt>
      <trkpt lat="49.04699" lon="7.4507">
        <ele>293.34</ele>
        <time>2021-07-21T14:00:53Z</time>
      </trkpt>
      <trkpt lat="49.04713" lon="7.44842">
        <ele>292.86</ele>
        <time>2021-07-21T14:01:04Z</time>
      </trkpt>
      <trkpt lat="49.0471" lon="7.44737">
        <ele>292.38</ele>
        <time>2021-07-21T14:01:12Z</time>
      </trkpt>
      <trkpt lat="49.04709" lon="7.44709">
        <ele>292.38</ele>
        <time>2021-07-21T14:01:19Z</time>
      </trkpt>
      <trkpt lat="49.04737" lon="7.44628">
        <ele>293.82</ele>
        <time>2021-07-21T14:01:26Z</time>
      </trkpt>
      <trkpt lat="49.04737" lon="7.44628">
        <ele>293.82</ele>
        <time>2021-07-21T14:01:27Z</time>
      </trkpt>
      <trkpt lat="49.04785" lon="7.44433">
        <ele>294.78</ele>
        <time>2021-07-21T14:01:38Z</time>
      </trkpt>
      <trkpt lat="49.0481" lon="7.44258">
        <ele>298.15</ele>
        <time>2021-07-21T14:01:48Z</time>
      </trkpt>
      <trkpt lat="49.04796" lon="7.44083">
        <ele>302.95</ele>
        <time>2021-07-21T14:01:59Z</time>
      </trkpt>
      <trkpt lat="49.04757" lon="7.43779">
        <ele>309.2</ele>
        <time>2021-07-21T14:02:16Z</time>
      </trkpt>
      <trkpt lat="49.04737" lon="7.43472">
        <ele>313.05</ele>
        <time>2021-07-21T14:02:32Z</time>
      </trkpt>
      <trkpt lat="49.04734" lon="7.43385">
        <ele>312.09</ele>
        <time>2021-07-21T14:02:38Z</time>
      </trkpt>
      <trkpt lat="49.04736" lon="7.43369">
        <ele>311.12</ele>
        <time>2021-07-21T14:02:39Z</time>
      </trkpt>
      <trkpt lat="49.04739" lon="7.43354">
        <ele>310.64</ele>
        <time>2021-07-21T14:02:40Z</time>
      </trkpt>
      <trkpt lat="49.04743" lon="7.43339">
        <ele>309.68</ele>
        <time>2021-07-21T14:02:41Z</time>
      </trkpt>
      <trkpt lat="49.04749" lon="7.43327">
        <ele>308.72</ele>
        <time>2021-07-21T14:02:42Z</time>
      </trkpt>
      <trkpt lat="49.04756" lon="7.43315">
        <ele>307.76</ele>
        <time>2021-07-21T14:02:43Z</time>
      </trkpt>
      <trkpt lat="49.04761" lon="7.43305">
        <ele>307.76</ele>
        <time>2021-07-21T14:02:44Z</time>
      </trkpt>
      <trkpt lat="49.04794" lon="7.43241">
        <ele>307.28</ele>
        <time>2021-07-21T14:02:52Z</time>
      </trkpt>
      <trkpt lat="49.04847" lon="7.43146">
        <ele>305.36</ele>
        <time>2021-07-21T14:03:04Z</time>
      </trkpt>
      <trkpt lat="49.04924" lon="7.4301">
        <ele>299.59</ele>
        <time>2021-07-21T14:03:18Z</time>
      </trkpt>
      <trkpt lat="49.04952" lon="7.4296">
        <ele>297.18</ele>
        <time>2021-07-21T14:03:25Z</time>
      </trkpt>
      <trkpt lat="49.04955" lon="7.42954">
        <ele>297.18</ele>
        <time>2021-07-21T14:03:26Z</time>
      </trkpt>
      <trkpt lat="49.04957" lon="7.42949">
        <ele>297.18</ele>
        <time>2021-07-21T14:03:27Z</time>
      </trkpt>
      <trkpt lat="49.04959" lon="7.42946">
        <ele>297.18</ele>
        <time>2021-07-21T14:03:28Z</time>
      </trkpt>
      <trkpt lat="49.04968" lon="7.42944">
        <ele>297.18</ele>
        <time>2021-07-21T14:03:29Z</time>
      </trkpt>
      <trkpt lat="49.0497" lon="7.42946">
        <ele>297.18</ele>
        <time>2021-07-21T14:03:30Z</time>
      </trkpt>
      <trkpt lat="49.04975" lon="7.4295">
        <ele>297.18</ele>
        <time>2021-07-21T14:03:31Z</time>
      </trkpt>
      <trkpt lat="49.05023" lon="7.42927">
        <ele>299.59</ele>
        <time>2021-07-21T14:03:40Z</time>
      </trkpt>
      <trkpt lat="49.05027" lon="7.42925">
        <ele>299.59</ele>
        <time>2021-07-21T14:03:41Z</time>
      </trkpt>
      <trkpt lat="49.05027" lon="7.42925">
        <ele>300.07</ele>
        <time>2021-07-21T14:03:42Z</time>
      </trkpt>
      <trkpt lat="49.0503" lon="7.4293">
        <ele>299.59</ele>
        <time>2021-07-21T14:03:43Z</time>
      </trkpt>
      <trkpt lat="49.05037" lon="7.42943">
        <ele>300.07</ele>
        <time>2021-07-21T14:03:44Z</time>
      </trkpt>
      <trkpt lat="49.05041" lon="7.4295">
        <ele>299.59</ele>
        <time>2021-07-21T14:03:45Z</time>
      </trkpt>
      <trkpt lat="49.0509" lon="7.43055">
        <ele>302.95</ele>
        <time>2021-07-21T14:03:56Z</time>
      </trkpt>
      <trkpt lat="49.05154" lon="7.43193">
        <ele>305.36</ele>
        <time>2021-07-21T14:04:09Z</time>
      </trkpt>
      <trkpt lat="49.05207" lon="7.43314">
        <ele>306.8</ele>
        <time>2021-07-21T14:04:20Z</time>
      </trkpt>
      <trkpt lat="49.05218" lon="7.4335">
        <ele>307.28</ele>
        <time>2021-07-21T14:04:28Z</time>
      </trkpt>
      <trkpt lat="49.0522" lon="7.43351">
        <ele>307.28</ele>
        <time>2021-07-21T14:04:29Z</time>
      </trkpt>
      <trkpt lat="49.05224" lon="7.43352">
        <ele>307.28</ele>
        <time>2021-07-21T14:04:30Z</time>
      </trkpt>
      <trkpt lat="49.05235" lon="7.43343">
        <ele>307.76</ele>
        <time>2021-07-21T14:04:33Z</time>
      </trkpt>
      <trkpt lat="49.05239" lon="7.43345">
        <ele>307.28</ele>
        <time>2021-07-21T14:04:34Z</time>
      </trkpt>
      <trkpt lat="49.05243" lon="7.43347">
        <ele>307.28</ele>
        <time>2021-07-21T14:04:35Z</time>
      </trkpt>
      <trkpt lat="49.05246" lon="7.43351">
        <ele>307.28</ele>
        <time>2021-07-21T14:04:36Z</time>
      </trkpt>
      <trkpt lat="49.05249" lon="7.43355">
        <ele>307.28</ele>
        <time>2021-07-21T14:04:37Z</time>
      </trkpt>
      <trkpt lat="49.05291" lon="7.43406">
        <ele>308.72</ele>
        <time>2021-07-21T14:04:48Z</time>
      </trkpt>
      <trkpt lat="49.05324" lon="7.43447">
        <ele>310.64</ele>
        <time>2021-07-21T14:04:54Z</time>
      </trkpt>
      <trkpt lat="49.0533" lon="7.43451">
        <ele>311.12</ele>
        <time>2021-07-21T14:04:55Z</time>
      </trkpt>
      <trkpt lat="49.05341" lon="7.43459">
        <ele>311.6</ele>
        <time>2021-07-21T14:04:56Z</time>
      </trkpt>
      <trkpt lat="49.05347" lon="7.4346">
        <ele>312.57</ele>
        <time>2021-07-21T14:04:58Z</time>
      </trkpt>
      <trkpt lat="49.05361" lon="7.4346">
        <ele>313.05</ele>
        <time>2021-07-21T14:04:59Z</time>
      </trkpt>
      <trkpt lat="49.05361" lon="7.4346">
        <ele>313.05</ele>
        <time>2021-07-21T14:05:00Z</time>
      </trkpt>
      <trkpt lat="49.05373" lon="7.43454">
        <ele>313.53</ele>
        <time>2021-07-21T14:05:01Z</time>
      </trkpt>
      <trkpt lat="49.05373" lon="7.43454">
        <ele>314.01</ele>
        <time>2021-07-21T14:05:02Z</time>
      </trkpt>
      <trkpt lat="49.05387" lon="7.43447">
        <ele>314.49</ele>
        <time>2021-07-21T14:05:03Z</time>
      </trkpt>
      <trkpt lat="49.05405" lon="7.4343">
        <ele>316.89</ele>
        <time>2021-07-21T14:05:07Z</time>
      </trkpt>
      <trkpt lat="49.0545" lon="7.43366">
        <ele>321.22</ele>
        <time>2021-07-21T14:05:17Z</time>
      </trkpt>
      <trkpt lat="49.05454" lon="7.43358">
        <ele>322.18</ele>
        <time>2021-07-21T14:05:28Z</time>
      </trkpt>
      <trkpt lat="49.05454" lon="7.43358">
        <ele>322.18</ele>
        <time>2021-07-21T14:05:33Z</time>
      </trkpt>
      <trkpt lat="49.05454" lon="7.43358">
        <ele>322.18</ele>
        <time>2021-07-21T14:05:34Z</time>
      </trkpt>
      <trkpt lat="49.05454" lon="7.43358">
        <ele>322.18</ele>
        <time>2021-07-21T14:05:35Z</time>
      </trkpt>
      <trkpt lat="49.05467" lon="7.4338">
        <ele>321.7</ele>
        <time>2021-07-21T14:05:42Z</time>
      </trkpt>
      <trkpt lat="49.05466" lon="7.43385">
        <ele>322.18</ele>
        <time>2021-07-21T14:05:57Z</time>
      </trkpt>
      <trkpt lat="49.05463" lon="7.4339">
        <ele>322.18</ele>
        <time>2021-07-21T14:06:27Z</time>
      </trkpt>
      <trkpt lat="49.05463" lon="7.43409">
        <ele>322.18</ele>
        <time>2021-07-21T14:06:38Z</time>
      </trkpt>
      <trkpt lat="49.05465" lon="7.43414">
        <ele>322.18</ele>
        <time>2021-07-21T14:06:45Z</time>
      </trkpt>
      <trkpt lat="49.05463" lon="7.4341">
        <ele>322.18</ele>
        <time>2021-07-21T14:06:51Z</time>
      </trkpt>
      <trkpt lat="49.0546" lon="7.43417">
        <ele>321.7</ele>
        <time>2021-07-21T14:06:55Z</time>
      </trkpt>
      <trkpt lat="49.05434" lon="7.4345">
        <ele>321.7</ele>
        <time>2021-07-21T14:07:11Z</time>
      </trkpt>
      <trkpt lat="49.05414" lon="7.43457">
        <ele>320.74</ele>
        <time>2021-07-21T14:07:23Z</time>
      </trkpt>
      <trkpt lat="49.05413" lon="7.43452">
        <ele>320.26</ele>
        <time>2021-07-21T14:07:43Z</time>
      </trkpt>
      <trkpt lat="49.05413" lon="7.43452">
        <ele>320.74</ele>
        <time>2021-07-21T14:09:33Z</time>
      </trkpt>
      <trkpt lat="49.05413" lon="7.4345">
        <ele>320.74</ele>
        <time>2021-07-21T14:12:40Z</time>
      </trkpt>
      <trkpt lat="49.05412" lon="7.4345">
        <ele>321.22</ele>
        <time>2021-07-21T14:13:48Z</time>
      </trkpt>
      <trkpt lat="49.05412" lon="7.43449">
        <ele>321.22</ele>
        <time>2021-07-21T14:14:59Z</time>
      </trkpt>
      <trkpt lat="49.05411" lon="7.43449">
        <ele>321.22</ele>
        <time>2021-07-21T14:18:40Z</time>
      </trkpt>
      <trkpt lat="49.05412" lon="7.43452">
        <ele>321.7</ele>
        <time>2021-07-21T14:21:44Z</time>
      </trkpt>
      <trkpt lat="49.05416" lon="7.43459">
        <ele>321.7</ele>
        <time>2021-07-21T14:22:02Z</time>
      </trkpt>
      <trkpt lat="49.0542" lon="7.43462">
        <ele>321.7</ele>
        <time>2021-07-21T14:22:32Z</time>
      </trkpt>
      <trkpt lat="49.05424" lon="7.43458">
        <ele>321.7</ele>
        <time>2021-07-21T14:22:53Z</time>
      </trkpt>
      <trkpt lat="49.05424" lon="7.43458">
        <ele>322.18</ele>
        <time>2021-07-21T14:23:00Z</time>
      </trkpt>
      <trkpt lat="49.05421" lon="7.43467">
        <ele>322.18</ele>
        <time>2021-07-21T14:23:12Z</time>
      </trkpt>
      <trkpt lat="49.05421" lon="7.43456">
        <ele>323.14</ele>
        <time>2021-07-21T14:23:33Z</time>
      </trkpt>
      <trkpt lat="49.0542" lon="7.43455">
        <ele>323.14</ele>
        <time>2021-07-21T14:23:57Z</time>
      </trkpt>
      <trkpt lat="49.0542" lon="7.43453">
        <ele>323.62</ele>
        <time>2021-07-21T14:24:10Z</time>
      </trkpt>
      <trkpt lat="49.05419" lon="7.43449">
        <ele>324.1</ele>
        <time>2021-07-21T14:24:35Z</time>
      </trkpt>
      <trkpt lat="49.05419" lon="7.43449">
        <ele>324.1</ele>
        <time>2021-07-21T14:26:41Z</time>
      </trkpt>
      <trkpt lat="49.05419" lon="7.4345">
        <ele>324.1</ele>
        <time>2021-07-21T14:28:54Z</time>
      </trkpt>
      <trkpt lat="49.05419" lon="7.43449">
        <ele>323.62</ele>
        <time>2021-07-21T14:31:45Z</time>
      </trkpt>
      <trkpt lat="49.05419" lon="7.43448">
        <ele>324.1</ele>
        <time>2021-07-21T14:35:52Z</time>
      </trkpt>
      <trkpt lat="49.05419" lon="7.43449">
        <ele>324.58</ele>
        <time>2021-07-21T14:39:28Z</time>
      </trkpt>
      <trkpt lat="49.05419" lon="7.4345">
        <ele>325.54</ele>
        <time>2021-07-21T14:45:05Z</time>
      </trkpt>
      <trkpt lat="49.05418" lon="7.43449">
        <ele>325.54</ele>
        <time>2021-07-21T14:47:37Z</time>
      </trkpt>
      <trkpt lat="49.05418" lon="7.43449">
        <ele>326.02</ele>
        <time>2021-07-21T14:50:12Z</time>
      </trkpt>
      <trkpt lat="49.05418" lon="7.43448">
        <ele>326.02</ele>
        <time>2021-07-21T14:52:58Z</time>
      </trkpt>
      <trkpt lat="49.05418" lon="7.43448">
        <ele>326.02</ele>
        <time>2021-07-21T14:54:49Z</time>
      </trkpt>
      <trkpt lat="49.05418" lon="7.43448">
        <ele>326.02</ele>
        <time>2021-07-21T14:55:56Z</time>
      </trkpt>
      <trkpt lat="49.05419" lon="7.43448">
        <ele>326.02</ele>
        <time>2021-07-21T14:57:17Z</time>
      </trkpt>
      <trkpt lat="49.05418" lon="7.43448">
        <ele>325.54</ele>
        <time>2021-07-21T14:58:30Z</time>
      </trkpt>
      <trkpt lat="49.05418" lon="7.43447">
        <ele>325.54</ele>
        <time>2021-07-21T15:00:56Z</time>
      </trkpt>
      <trkpt lat="49.05419" lon="7.43447">
        <ele>325.54</ele>
        <time>2021-07-21T15:03:14Z</time>
      </trkpt>
      <trkpt lat="49.05419" lon="7.43447">
        <ele>325.54</ele>
        <time>2021-07-21T15:05:46Z</time>
      </trkpt>
      <trkpt lat="49.0542" lon="7.43448">
        <ele>325.54</ele>
        <time>2021-07-21T15:07:32Z</time>
      </trkpt>
      <trkpt lat="49.0542" lon="7.43448">
        <ele>325.54</ele>
        <time>2021-07-21T15:09:05Z</time>
      </trkpt>
      <trkpt lat="49.05423" lon="7.43446">
        <ele>325.54</ele>
        <time>2021-07-21T15:10:11Z</time>
      </trkpt>
      <trkpt lat="49.05423" lon="7.43446">
        <ele>325.06</ele>
        <time>2021-07-21T15:11:33Z</time>
      </trkpt>
      <trkpt lat="49.05423" lon="7.43445">
        <ele>325.06</ele>
        <time>2021-07-21T15:14:46Z</time>
      </trkpt>
      <trkpt lat="49.05422" lon="7.43446">
        <ele>325.06</ele>
        <time>2021-07-21T15:17:07Z</time>
      </trkpt>
      <trkpt lat="49.05422" lon="7.43446">
        <ele>324.58</ele>
        <time>2021-07-21T15:18:52Z</time>
      </trkpt>
      <trkpt lat="49.05422" lon="7.43447">
        <ele>324.58</ele>
        <time>2021-07-21T15:20:52Z</time>
      </trkpt>
      <trkpt lat="49.05422" lon="7.43448">
        <ele>324.58</ele>
        <time>2021-07-21T15:22:56Z</time>
      </trkpt>
      <trkpt lat="49.05422" lon="7.43448">
        <ele>324.58</ele>
        <time>2021-07-21T15:24:48Z</time>
      </trkpt>
      <trkpt lat="49.05422" lon="7.43448">
        <ele>324.58</ele>
        <time>2021-07-21T15:26:30Z</time>
      </trkpt>
      <trkpt lat="49.05421" lon="7.43448">
        <ele>325.06</ele>
        <time>2021-07-21T15:27:46Z</time>
      </trkpt>
    </trkseg>
  </trk>
  <trk>
    <name><![CDATA[Journal actif: 2021-07-21 14:44]]></name>
    <trkseg>
      <trkpt lat="49.05409" lon="7.43439">
        <ele>250.08</ele>
        <time>2021-07-21T16:44:00Z</time>
      </trkpt>
      <trkpt lat="49.05409" lon="7.43447">
        <ele>297.18</ele>
        <time>2021-07-21T16:44:25Z</time>
      </trkpt>
      <trkpt lat="49.05413" lon="7.43447">
        <ele>312.09</ele>
        <time>2021-07-21T16:45:20Z</time>
      </trkpt>
      <trkpt lat="49.05413" lon="7.43447">
        <ele>311.6</ele>
        <time>2021-07-21T16:47:19Z</time>
      </trkpt>
      <trkpt lat="49.05425" lon="7.43449">
        <ele>312.09</ele>
        <time>2021-07-21T16:47:43Z</time>
      </trkpt>
      <trkpt lat="49.05459" lon="7.43411">
        <ele>314.97</ele>
        <time>2021-07-21T16:48:04Z</time>
      </trkpt>
      <trkpt lat="49.05455" lon="7.43379">
        <ele>317.85</ele>
        <time>2021-07-21T16:48:16Z</time>
      </trkpt>
      <trkpt lat="49.05448" lon="7.43371">
        <ele>317.85</ele>
        <time>2021-07-21T16:48:21Z</time>
      </trkpt>
      <trkpt lat="49.05442" lon="7.43384">
        <ele>317.37</ele>
        <time>2021-07-21T16:48:29Z</time>
      </trkpt>
      <trkpt lat="49.05441" lon="7.43387">
        <ele>316.89</ele>
        <time>2021-07-21T16:48:30Z</time>
      </trkpt>
      <trkpt lat="49.05439" lon="7.4339">
        <ele>316.89</ele>
        <time>2021-07-21T16:48:31Z</time>
      </trkpt>
      <trkpt lat="49.05402" lon="7.43433">
        <ele>312.57</ele>
        <time>2021-07-21T16:48:49Z</time>
      </trkpt>
      <trkpt lat="49.05361" lon="7.4346">
        <ele>308.72</ele>
        <time>2021-07-21T16:49:03Z</time>
      </trkpt>
      <trkpt lat="49.05356" lon="7.43461">
        <ele>308.72</ele>
        <time>2021-07-21T16:49:04Z</time>
      </trkpt>
      <trkpt lat="49.05351" lon="7.4346">
        <ele>308.72</ele>
        <time>2021-07-21T16:49:05Z</time>
      </trkpt>
      <trkpt lat="49.05346" lon="7.4346">
        <ele>308.24</ele>
        <time>2021-07-21T16:49:06Z</time>
      </trkpt>
      <trkpt lat="49.05341" lon="7.43459">
        <ele>308.24</ele>
        <time>2021-07-21T16:49:07Z</time>
      </trkpt>
      <trkpt lat="49.05336" lon="7.43456">
        <ele>308.24</ele>
        <time>2021-07-21T16:49:08Z</time>
      </trkpt>
      <trkpt lat="49.05322" lon="7.43446">
        <ele>307.76</ele>
        <time>2021-07-21T16:49:11Z</time>
      </trkpt>
      <trkpt lat="49.05318" lon="7.43441">
        <ele>307.28</ele>
        <time>2021-07-21T16:49:12Z</time>
      </trkpt>
      <trkpt lat="49.05246" lon="7.4335">
        <ele>306.32</ele>
        <time>2021-07-21T16:49:29Z</time>
      </trkpt>
      <trkpt lat="49.05228" lon="7.43339">
        <ele>306.8</ele>
        <time>2021-07-21T16:49:39Z</time>
      </trkpt>
      <trkpt lat="49.05211" lon="7.43323">
        <ele>306.8</ele>
        <time>2021-07-21T16:49:47Z</time>
      </trkpt>
      <trkpt lat="49.05209" lon="7.43318">
        <ele>306.8</ele>
        <time>2021-07-21T16:49:48Z</time>
      </trkpt>
      <trkpt lat="49.05162" lon="7.4321">
        <ele>307.28</ele>
        <time>2021-07-21T16:50:04Z</time>
      </trkpt>
      <trkpt lat="49.05102" lon="7.4308">
        <ele>305.84</ele>
        <time>2021-07-21T16:50:24Z</time>
      </trkpt>
      <trkpt lat="49.05045" lon="7.42957">
        <ele>303.43</ele>
        <time>2021-07-21T16:50:41Z</time>
      </trkpt>
      <trkpt lat="49.05026" lon="7.42925">
        <ele>302.47</ele>
        <time>2021-07-21T16:50:50Z</time>
      </trkpt>
      <trkpt lat="49.05023" lon="7.42927">
        <ele>302.47</ele>
        <time>2021-07-21T16:50:51Z</time>
      </trkpt>
      <trkpt lat="49.05019" lon="7.42929">
        <ele>302.47</ele>
        <time>2021-07-21T16:50:52Z</time>
      </trkpt>
      <trkpt lat="49.04971" lon="7.42947">
        <ele>298.63</ele>
        <time>2021-07-21T16:51:05Z</time>
      </trkpt>
      <trkpt lat="49.04966" lon="7.42941">
        <ele>298.15</ele>
        <time>2021-07-21T16:51:08Z</time>
      </trkpt>
      <trkpt lat="49.04962" lon="7.42938">
        <ele>297.67</ele>
        <time>2021-07-21T16:51:09Z</time>
      </trkpt>
      <trkpt lat="49.04962" lon="7.42938">
        <ele>297.67</ele>
        <time>2021-07-21T16:51:10Z</time>
      </trkpt>
      <trkpt lat="49.04963" lon="7.42935">
        <ele>297.18</ele>
        <time>2021-07-21T16:51:11Z</time>
      </trkpt>
      <trkpt lat="49.04964" lon="7.42929">
        <ele>297.18</ele>
        <time>2021-07-21T16:51:12Z</time>
      </trkpt>
      <trkpt lat="49.04967" lon="7.42917">
        <ele>297.18</ele>
        <time>2021-07-21T16:51:14Z</time>
      </trkpt>
      <trkpt lat="49.04968" lon="7.4291">
        <ele>296.7</ele>
        <time>2021-07-21T16:51:15Z</time>
      </trkpt>
      <trkpt lat="49.04968" lon="7.42905">
        <ele>296.7</ele>
        <time>2021-07-21T16:51:16Z</time>
      </trkpt>
      <trkpt lat="49.04967" lon="7.42899">
        <ele>296.22</ele>
        <time>2021-07-21T16:51:17Z</time>
      </trkpt>
      <trkpt lat="49.04965" lon="7.42892">
        <ele>296.22</ele>
        <time>2021-07-21T16:51:18Z</time>
      </trkpt>
      <trkpt lat="49.04964" lon="7.42885">
        <ele>295.74</ele>
        <time>2021-07-21T16:51:19Z</time>
      </trkpt>
      <trkpt lat="49.04963" lon="7.42878">
        <ele>295.26</ele>
        <time>2021-07-21T16:51:20Z</time>
      </trkpt>
      <trkpt lat="49.04961" lon="7.42873">
        <ele>295.26</ele>
        <time>2021-07-21T16:51:21Z</time>
      </trkpt>
      <trkpt lat="49.04956" lon="7.4287">
        <ele>294.78</ele>
        <time>2021-07-21T16:51:22Z</time>
      </trkpt>
      <trkpt lat="49.04951" lon="7.42867">
        <ele>294.3</ele>
        <time>2021-07-21T16:51:23Z</time>
      </trkpt>
      <trkpt lat="49.04945" lon="7.42864">
        <ele>294.3</ele>
        <time>2021-07-21T16:51:24Z</time>
      </trkpt>
      <trkpt lat="49.04905" lon="7.42844">
        <ele>291.9</ele>
        <time>2021-07-21T16:51:30Z</time>
      </trkpt>
      <trkpt lat="49.04898" lon="7.42837">
        <ele>291.42</ele>
        <time>2021-07-21T16:51:31Z</time>
      </trkpt>
      <trkpt lat="49.04891" lon="7.4283">
        <ele>291.42</ele>
        <time>2021-07-21T16:51:32Z</time>
      </trkpt>
      <trkpt lat="49.04787" lon="7.42691">
        <ele>291.42</ele>
        <time>2021-07-21T16:51:45Z</time>
      </trkpt>
      <trkpt lat="49.04752" lon="7.42644">
        <ele>293.82</ele>
        <time>2021-07-21T16:51:51Z</time>
      </trkpt>
      <trkpt lat="49.04748" lon="7.4264">
        <ele>293.82</ele>
        <time>2021-07-21T16:51:52Z</time>
      </trkpt>
      <trkpt lat="49.04744" lon="7.42636">
        <ele>294.3</ele>
        <time>2021-07-21T16:51:53Z</time>
      </trkpt>
      <trkpt lat="49.04742" lon="7.42635">
        <ele>294.3</ele>
        <time>2021-07-21T16:51:54Z</time>
      </trkpt>
      <trkpt lat="49.04737" lon="7.42634">
        <ele>294.3</ele>
        <time>2021-07-21T16:51:55Z</time>
      </trkpt>
      <trkpt lat="49.04731" lon="7.42634">
        <ele>294.78</ele>
        <time>2021-07-21T16:51:56Z</time>
      </trkpt>
      <trkpt lat="49.04724" lon="7.42633">
        <ele>294.78</ele>
        <time>2021-07-21T16:51:57Z</time>
      </trkpt>
      <trkpt lat="49.04718" lon="7.42633">
        <ele>295.26</ele>
        <time>2021-07-21T16:51:58Z</time>
      </trkpt>
      <trkpt lat="49.04615" lon="7.42664">
        <ele>299.59</ele>
        <time>2021-07-21T16:52:09Z</time>
      </trkpt>
      <trkpt lat="49.04485" lon="7.42717">
        <ele>299.59</ele>
        <time>2021-07-21T16:52:20Z</time>
      </trkpt>
      <trkpt lat="49.04276" lon="7.42818">
        <ele>304.88</ele>
        <time>2021-07-21T16:52:37Z</time>
      </trkpt>
      <trkpt lat="49.04164" lon="7.42866">
        <ele>306.32</ele>
        <time>2021-07-21T16:52:46Z</time>
      </trkpt>
      <trkpt lat="49.04152" lon="7.42868">
        <ele>306.8</ele>
        <time>2021-07-21T16:52:47Z</time>
      </trkpt>
      <trkpt lat="49.04139" lon="7.42871">
        <ele>307.76</ele>
        <time>2021-07-21T16:52:48Z</time>
      </trkpt>
      <trkpt lat="49.04127" lon="7.42867">
        <ele>307.76</ele>
        <time>2021-07-21T16:52:49Z</time>
      </trkpt>
      <trkpt lat="49.04116" lon="7.42862">
        <ele>309.2</ele>
        <time>2021-07-21T16:52:50Z</time>
      </trkpt>
      <trkpt lat="49.04106" lon="7.42858">
        <ele>309.68</ele>
        <time>2021-07-21T16:52:51Z</time>
      </trkpt>
      <trkpt lat="49.04094" lon="7.4285">
        <ele>310.16</ele>
        <time>2021-07-21T16:52:52Z</time>
      </trkpt>
      <trkpt lat="49.04082" lon="7.42841">
        <ele>309.2</ele>
        <time>2021-07-21T16:52:53Z</time>
      </trkpt>
      <trkpt lat="49.04071" lon="7.42826">
        <ele>307.76</ele>
        <time>2021-07-21T16:52:54Z</time>
      </trkpt>
      <trkpt lat="49.0393" lon="7.42619">
        <ele>312.57</ele>
        <time>2021-07-21T16:53:07Z</time>
      </trkpt>
      <trkpt lat="49.0374" lon="7.42333">
        <ele>321.7</ele>
        <time>2021-07-21T16:53:26Z</time>
      </trkpt>
      <trkpt lat="49.03579" lon="7.42098">
        <ele>333.23</ele>
        <time>2021-07-21T16:53:42Z</time>
      </trkpt>
      <trkpt lat="49.03497" lon="7.41991">
        <ele>332.27</ele>
        <time>2021-07-21T16:53:50Z</time>
      </trkpt>
      <trkpt lat="49.03477" lon="7.41963">
        <ele>331.31</ele>
        <time>2021-07-21T16:53:52Z</time>
      </trkpt>
      <trkpt lat="49.03469" lon="7.41946">
        <ele>330.35</ele>
        <time>2021-07-21T16:53:53Z</time>
      </trkpt>
      <trkpt lat="49.03462" lon="7.41928">
        <ele>328.91</ele>
        <time>2021-07-21T16:53:54Z</time>
      </trkpt>
      <trkpt lat="49.03454" lon="7.4191">
        <ele>328.91</ele>
        <time>2021-07-21T16:53:55Z</time>
      </trkpt>
      <trkpt lat="49.03448" lon="7.41891">
        <ele>327.95</ele>
        <time>2021-07-21T16:53:56Z</time>
      </trkpt>
      <trkpt lat="49.03444" lon="7.41868">
        <ele>326.99</ele>
        <time>2021-07-21T16:53:57Z</time>
      </trkpt>
      <trkpt lat="49.03442" lon="7.41846">
        <ele>325.54</ele>
        <time>2021-07-21T16:53:58Z</time>
      </trkpt>
      <trkpt lat="49.03442" lon="7.41822">
        <ele>323.62</ele>
        <time>2021-07-21T16:53:59Z</time>
      </trkpt>
      <trkpt lat="49.03441" lon="7.41795">
        <ele>323.62</ele>
        <time>2021-07-21T16:54:00Z</time>
      </trkpt>
      <trkpt lat="49.03449" lon="7.41742">
        <ele>321.7</ele>
        <time>2021-07-21T16:54:01Z</time>
      </trkpt>
      <trkpt lat="49.03449" lon="7.41742">
        <ele>320.26</ele>
        <time>2021-07-21T16:54:02Z</time>
      </trkpt>
      <trkpt lat="49.03468" lon="7.41617">
        <ele>316.41</ele>
        <time>2021-07-21T16:54:07Z</time>
      </trkpt>
      <trkpt lat="49.03471" lon="7.41595">
        <ele>314.97</ele>
        <time>2021-07-21T16:54:08Z</time>
      </trkpt>
      <trkpt lat="49.03469" lon="7.41544">
        <ele>314.97</ele>
        <time>2021-07-21T16:54:09Z</time>
      </trkpt>
      <trkpt lat="49.03469" lon="7.41544">
        <ele>313.05</ele>
        <time>2021-07-21T16:54:10Z</time>
      </trkpt>
      <trkpt lat="49.03465" lon="7.41519">
        <ele>311.12</ele>
        <time>2021-07-21T16:54:11Z</time>
      </trkpt>
      <trkpt lat="49.03451" lon="7.41474">
        <ele>310.16</ele>
        <time>2021-07-21T16:54:12Z</time>
      </trkpt>
      <trkpt lat="49.03451" lon="7.41474">
        <ele>308.72</ele>
        <time>2021-07-21T16:54:13Z</time>
      </trkpt>
      <trkpt lat="49.03413" lon="7.41353">
        <ele>304.39</ele>
        <time>2021-07-21T16:54:19Z</time>
      </trkpt>
      <trkpt lat="49.03408" lon="7.41319">
        <ele>302.47</ele>
        <time>2021-07-21T16:54:20Z</time>
      </trkpt>
      <trkpt lat="49.03408" lon="7.41319">
        <ele>302.47</ele>
        <time>2021-07-21T16:54:21Z</time>
      </trkpt>
      <trkpt lat="49.03407" lon="7.41303">
        <ele>302.47</ele>
        <time>2021-07-21T16:54:22Z</time>
      </trkpt>
      <trkpt lat="49.03408" lon="7.41286">
        <ele>301.51</ele>
        <time>2021-07-21T16:54:23Z</time>
      </trkpt>
      <trkpt lat="49.03413" lon="7.41269">
        <ele>300.55</ele>
        <time>2021-07-21T16:54:24Z</time>
      </trkpt>
      <trkpt lat="49.03419" lon="7.41252">
        <ele>301.03</ele>
        <time>2021-07-21T16:54:25Z</time>
      </trkpt>
      <trkpt lat="49.03424" lon="7.41234">
        <ele>300.07</ele>
        <time>2021-07-21T16:54:26Z</time>
      </trkpt>
      <trkpt lat="49.03433" lon="7.41218">
        <ele>300.07</ele>
        <time>2021-07-21T16:54:27Z</time>
      </trkpt>
      <trkpt lat="49.03454" lon="7.41166">
        <ele>300.55</ele>
        <time>2021-07-21T16:54:30Z</time>
      </trkpt>
      <trkpt lat="49.03461" lon="7.41128">
        <ele>299.11</ele>
        <time>2021-07-21T16:54:31Z</time>
      </trkpt>
      <trkpt lat="49.03463" lon="7.41107">
        <ele>299.11</ele>
        <time>2021-07-21T16:54:32Z</time>
      </trkpt>
      <trkpt lat="49.03463" lon="7.41107">
        <ele>299.59</ele>
        <time>2021-07-21T16:54:33Z</time>
      </trkpt>
      <trkpt lat="49.03464" lon="7.41086">
        <ele>300.07</ele>
        <time>2021-07-21T16:54:34Z</time>
      </trkpt>
      <trkpt lat="49.03452" lon="7.40882">
        <ele>296.7</ele>
        <time>2021-07-21T16:54:43Z</time>
      </trkpt>
      <trkpt lat="49.03454" lon="7.40807">
        <ele>294.78</ele>
        <time>2021-07-21T16:54:49Z</time>
      </trkpt>
      <trkpt lat="49.03462" lon="7.40704">
        <ele>295.26</ele>
        <time>2021-07-21T16:54:59Z</time>
      </trkpt>
      <trkpt lat="49.03491" lon="7.40554">
        <ele>296.22</ele>
        <time>2021-07-21T16:55:08Z</time>
      </trkpt>
      <trkpt lat="49.03562" lon="7.40404">
        <ele>290.94</ele>
        <time>2021-07-21T16:55:16Z</time>
      </trkpt>
      <trkpt lat="49.03625" lon="7.403">
        <ele>288.53</ele>
        <time>2021-07-21T16:55:23Z</time>
      </trkpt>
      <trkpt lat="49.0365" lon="7.40252">
        <ele>287.57</ele>
        <time>2021-07-21T16:55:30Z</time>
      </trkpt>
      <trkpt lat="49.03689" lon="7.40179">
        <ele>287.09</ele>
        <time>2021-07-21T16:55:38Z</time>
      </trkpt>
      <trkpt lat="49.03764" lon="7.40049">
        <ele>287.09</ele>
        <time>2021-07-21T16:55:47Z</time>
      </trkpt>
      <trkpt lat="49.03774" lon="7.40035">
        <ele>286.61</ele>
        <time>2021-07-21T16:55:48Z</time>
      </trkpt>
      <trkpt lat="49.03784" lon="7.40025">
        <ele>286.61</ele>
        <time>2021-07-21T16:55:49Z</time>
      </trkpt>
      <trkpt lat="49.03795" lon="7.40015">
        <ele>285.65</ele>
        <time>2021-07-21T16:55:50Z</time>
      </trkpt>
      <trkpt lat="49.03899" lon="7.39934">
        <ele>287.09</ele>
        <time>2021-07-21T16:55:59Z</time>
      </trkpt>
      <trkpt lat="49.03909" lon="7.39923">
        <ele>288.05</ele>
        <time>2021-07-21T16:56:00Z</time>
      </trkpt>
      <trkpt lat="49.03918" lon="7.39912">
        <ele>288.05</ele>
        <time>2021-07-21T16:56:01Z</time>
      </trkpt>
      <trkpt lat="49.03926" lon="7.39895">
        <ele>288.53</ele>
        <time>2021-07-21T16:56:02Z</time>
      </trkpt>
      <trkpt lat="49.03933" lon="7.39879">
        <ele>288.05</ele>
        <time>2021-07-21T16:56:03Z</time>
      </trkpt>
      <trkpt lat="49.0394" lon="7.39863">
        <ele>287.09</ele>
        <time>2021-07-21T16:56:04Z</time>
      </trkpt>
      <trkpt lat="49.03988" lon="7.3974">
        <ele>284.21</ele>
        <time>2021-07-21T16:56:11Z</time>
      </trkpt>
      <trkpt lat="49.04052" lon="7.3959">
        <ele>286.61</ele>
        <time>2021-07-21T16:56:19Z</time>
      </trkpt>
      <trkpt lat="49.04113" lon="7.3941">
        <ele>287.09</ele>
        <time>2021-07-21T16:56:30Z</time>
      </trkpt>
      <trkpt lat="49.04154" lon="7.39254">
        <ele>286.61</ele>
        <time>2021-07-21T16:56:38Z</time>
      </trkpt>
      <trkpt lat="49.04168" lon="7.39013">
        <ele>285.17</ele>
        <time>2021-07-21T16:56:50Z</time>
      </trkpt>
      <trkpt lat="49.04208" lon="7.38776">
        <ele>287.09</ele>
        <time>2021-07-21T16:57:02Z</time>
      </trkpt>
      <trkpt lat="49.04244" lon="7.3866">
        <ele>285.17</ele>
        <time>2021-07-21T16:57:10Z</time>
      </trkpt>
      <trkpt lat="49.04282" lon="7.38524">
        <ele>283.73</ele>
        <time>2021-07-21T16:57:21Z</time>
      </trkpt>
      <trkpt lat="49.04332" lon="7.38326">
        <ele>283.25</ele>
        <time>2021-07-21T16:57:31Z</time>
      </trkpt>
      <trkpt lat="49.0436" lon="7.38144">
        <ele>283.25</ele>
        <time>2021-07-21T16:57:39Z</time>
      </trkpt>
      <trkpt lat="49.04404" lon="7.37896">
        <ele>283.25</ele>
        <time>2021-07-21T16:57:49Z</time>
      </trkpt>
      <trkpt lat="49.04501" lon="7.3765">
        <ele>282.77</ele>
        <time>2021-07-21T16:57:59Z</time>
      </trkpt>
      <trkpt lat="49.04546" lon="7.37552">
        <ele>281.8</ele>
        <time>2021-07-21T16:58:05Z</time>
      </trkpt>
      <trkpt lat="49.04552" lon="7.37529">
        <ele>282.28</ele>
        <time>2021-07-21T16:58:06Z</time>
      </trkpt>
      <trkpt lat="49.04558" lon="7.37507">
        <ele>282.28</ele>
        <time>2021-07-21T16:58:07Z</time>
      </trkpt>
      <trkpt lat="49.04587" lon="7.37225">
        <ele>282.28</ele>
        <time>2021-07-21T16:58:18Z</time>
      </trkpt>
      <trkpt lat="49.04629" lon="7.36766">
        <ele>283.73</ele>
        <time>2021-07-21T16:58:34Z</time>
      </trkpt>
      <trkpt lat="49.04669" lon="7.36469">
        <ele>283.25</ele>
        <time>2021-07-21T16:58:44Z</time>
      </trkpt>
      <trkpt lat="49.04658" lon="7.36184">
        <ele>282.77</ele>
        <time>2021-07-21T16:58:54Z</time>
      </trkpt>
      <trkpt lat="49.04616" lon="7.35876">
        <ele>282.28</ele>
        <time>2021-07-21T16:59:05Z</time>
      </trkpt>
      <trkpt lat="49.04613" lon="7.35514">
        <ele>283.25</ele>
        <time>2021-07-21T16:59:17Z</time>
      </trkpt>
      <trkpt lat="49.04623" lon="7.354">
        <ele>286.13</ele>
        <time>2021-07-21T16:59:21Z</time>
      </trkpt>
      <trkpt lat="49.04627" lon="7.35376">
        <ele>289.01</ele>
        <time>2021-07-21T16:59:22Z</time>
      </trkpt>
      <trkpt lat="49.04657" lon="7.35255">
        <ele>289.97</ele>
        <time>2021-07-21T16:59:29Z</time>
      </trkpt>
      <trkpt lat="49.0466" lon="7.35156">
        <ele>288.05</ele>
        <time>2021-07-21T16:59:35Z</time>
      </trkpt>
      <trkpt lat="49.04658" lon="7.35137">
        <ele>288.05</ele>
        <time>2021-07-21T16:59:36Z</time>
      </trkpt>
      <trkpt lat="49.04589" lon="7.34859">
        <ele>284.21</ele>
        <time>2021-07-21T16:59:49Z</time>
      </trkpt>
      <trkpt lat="49.04575" lon="7.348">
        <ele>284.21</ele>
        <time>2021-07-21T16:59:53Z</time>
      </trkpt>
      <trkpt lat="49.04572" lon="7.34782">
        <ele>285.65</ele>
        <time>2021-07-21T16:59:54Z</time>
      </trkpt>
      <trkpt lat="49.04572" lon="7.34761">
        <ele>284.69</ele>
        <time>2021-07-21T16:59:55Z</time>
      </trkpt>
      <trkpt lat="49.04572" lon="7.34742">
        <ele>284.69</ele>
        <time>2021-07-21T16:59:56Z</time>
      </trkpt>
      <trkpt lat="49.04572" lon="7.34723">
        <ele>284.69</ele>
        <time>2021-07-21T16:59:57Z</time>
      </trkpt>
      <trkpt lat="49.04575" lon="7.34603">
        <ele>284.21</ele>
        <time>2021-07-21T17:00:04Z</time>
      </trkpt>
      <trkpt lat="49.04563" lon="7.34482">
        <ele>281.32</ele>
        <time>2021-07-21T17:00:12Z</time>
      </trkpt>
      <trkpt lat="49.04563" lon="7.34464">
        <ele>280.36</ele>
        <time>2021-07-21T17:00:13Z</time>
      </trkpt>
      <trkpt lat="49.04564" lon="7.34445">
        <ele>280.36</ele>
        <time>2021-07-21T17:00:14Z</time>
      </trkpt>
      <trkpt lat="49.04568" lon="7.34425">
        <ele>280.36</ele>
        <time>2021-07-21T17:00:15Z</time>
      </trkpt>
      <trkpt lat="49.04574" lon="7.3441">
        <ele>281.32</ele>
        <time>2021-07-21T17:00:16Z</time>
      </trkpt>
      <trkpt lat="49.04581" lon="7.34394">
        <ele>281.8</ele>
        <time>2021-07-21T17:00:17Z</time>
      </trkpt>
      <trkpt lat="49.0459" lon="7.3438">
        <ele>281.32</ele>
        <time>2021-07-21T17:00:18Z</time>
      </trkpt>
      <trkpt lat="49.04598" lon="7.3437">
        <ele>281.8</ele>
        <time>2021-07-21T17:00:19Z</time>
      </trkpt>
      <trkpt lat="49.04608" lon="7.34362">
        <ele>280.84</ele>
        <time>2021-07-21T17:00:20Z</time>
      </trkpt>
      <trkpt lat="49.04617" lon="7.34356">
        <ele>280.84</ele>
        <time>2021-07-21T17:00:21Z</time>
      </trkpt>
      <trkpt lat="49.04626" lon="7.34352">
        <ele>280.36</ele>
        <time>2021-07-21T17:00:22Z</time>
      </trkpt>
      <trkpt lat="49.04639" lon="7.3435">
        <ele>280.84</ele>
        <time>2021-07-21T17:00:23Z</time>
      </trkpt>
      <trkpt lat="49.04652" lon="7.34349">
        <ele>281.32</ele>
        <time>2021-07-21T17:00:24Z</time>
      </trkpt>
      <trkpt lat="49.04795" lon="7.34313">
        <ele>277.48</ele>
        <time>2021-07-21T17:00:32Z</time>
      </trkpt>
      <trkpt lat="49.04915" lon="7.34245">
        <ele>273.15</ele>
        <time>2021-07-21T17:00:41Z</time>
      </trkpt>
      <trkpt lat="49.04929" lon="7.34231">
        <ele>272.19</ele>
        <time>2021-07-21T17:00:42Z</time>
      </trkpt>
      <trkpt lat="49.04954" lon="7.34201">
        <ele>272.19</ele>
        <time>2021-07-21T17:00:43Z</time>
      </trkpt>
      <trkpt lat="49.04954" lon="7.34201">
        <ele>272.67</ele>
        <time>2021-07-21T17:00:44Z</time>
      </trkpt>
      <trkpt lat="49.04973" lon="7.34167">
        <ele>272.19</ele>
        <time>2021-07-21T17:00:45Z</time>
      </trkpt>
      <trkpt lat="49.04973" lon="7.34167">
        <ele>272.19</ele>
        <time>2021-07-21T17:00:46Z</time>
      </trkpt>
      <trkpt lat="49.04991" lon="7.34122">
        <ele>272.67</ele>
        <time>2021-07-21T17:00:47Z</time>
      </trkpt>
      <trkpt lat="49.04991" lon="7.34122">
        <ele>272.19</ele>
        <time>2021-07-21T17:00:48Z</time>
      </trkpt>
      <trkpt lat="49.04998" lon="7.341">
        <ele>272.19</ele>
        <time>2021-07-21T17:00:49Z</time>
      </trkpt>
      <trkpt lat="49.05005" lon="7.34076">
        <ele>272.67</ele>
        <time>2021-07-21T17:00:50Z</time>
      </trkpt>
      <trkpt lat="49.0504" lon="7.33893">
        <ele>277.48</ele>
        <time>2021-07-21T17:00:58Z</time>
      </trkpt>
      <trkpt lat="49.05045" lon="7.33873">
        <ele>278.44</ele>
        <time>2021-07-21T17:00:59Z</time>
      </trkpt>
      <trkpt lat="49.05054" lon="7.33855">
        <ele>278.92</ele>
        <time>2021-07-21T17:01:00Z</time>
      </trkpt>
      <trkpt lat="49.05064" lon="7.33838">
        <ele>278.92</ele>
        <time>2021-07-21T17:01:01Z</time>
      </trkpt>
      <trkpt lat="49.05076" lon="7.33827">
        <ele>278.44</ele>
        <time>2021-07-21T17:01:02Z</time>
      </trkpt>
      <trkpt lat="49.05089" lon="7.33819">
        <ele>277.96</ele>
        <time>2021-07-21T17:01:03Z</time>
      </trkpt>
      <trkpt lat="49.05103" lon="7.33814">
        <ele>277</ele>
        <time>2021-07-21T17:01:04Z</time>
      </trkpt>
      <trkpt lat="49.05117" lon="7.3381">
        <ele>276.52</ele>
        <time>2021-07-21T17:01:05Z</time>
      </trkpt>
      <trkpt lat="49.05131" lon="7.33813">
        <ele>277.48</ele>
        <time>2021-07-21T17:01:06Z</time>
      </trkpt>
      <trkpt lat="49.05163" lon="7.33824">
        <ele>277.96</ele>
        <time>2021-07-21T17:01:07Z</time>
      </trkpt>
      <trkpt lat="49.05163" lon="7.33824">
        <ele>278.44</ele>
        <time>2021-07-21T17:01:08Z</time>
      </trkpt>
      <trkpt lat="49.05261" lon="7.33867">
        <ele>272.19</ele>
        <time>2021-07-21T17:01:16Z</time>
      </trkpt>
      <trkpt lat="49.05327" lon="7.33888">
        <ele>268.83</ele>
        <time>2021-07-21T17:01:24Z</time>
      </trkpt>
      <trkpt lat="49.0536" lon="7.33919">
        <ele>269.79</ele>
        <time>2021-07-21T17:01:35Z</time>
      </trkpt>
      <trkpt lat="49.05378" lon="7.33934">
        <ele>269.31</ele>
        <time>2021-07-21T17:02:29Z</time>
      </trkpt>
      <trkpt lat="49.05388" lon="7.33942">
        <ele>269.31</ele>
        <time>2021-07-21T17:02:33Z</time>
      </trkpt>
      <trkpt lat="49.05392" lon="7.33945">
        <ele>269.31</ele>
        <time>2021-07-21T17:02:34Z</time>
      </trkpt>
      <trkpt lat="49.05441" lon="7.34031">
        <ele>274.59</ele>
        <time>2021-07-21T17:02:44Z</time>
      </trkpt>
      <trkpt lat="49.05525" lon="7.34145">
        <ele>287.09</ele>
        <time>2021-07-21T17:02:55Z</time>
      </trkpt>
      <trkpt lat="49.05543" lon="7.34164">
        <ele>289.97</ele>
        <time>2021-07-21T17:02:57Z</time>
      </trkpt>
      <trkpt lat="49.0555" lon="7.34174">
        <ele>291.42</ele>
        <time>2021-07-21T17:02:58Z</time>
      </trkpt>
      <trkpt lat="49.05558" lon="7.34184">
        <ele>291.9</ele>
        <time>2021-07-21T17:02:59Z</time>
      </trkpt>
      <trkpt lat="49.05562" lon="7.34196">
        <ele>292.38</ele>
        <time>2021-07-21T17:03:00Z</time>
      </trkpt>
      <trkpt lat="49.05566" lon="7.34209">
        <ele>293.82</ele>
        <time>2021-07-21T17:03:01Z</time>
      </trkpt>
      <trkpt lat="49.05571" lon="7.34223">
        <ele>294.3</ele>
        <time>2021-07-21T17:03:02Z</time>
      </trkpt>
      <trkpt lat="49.05575" lon="7.34236">
        <ele>295.26</ele>
        <time>2021-07-21T17:03:03Z</time>
      </trkpt>
      <trkpt lat="49.05579" lon="7.34295">
        <ele>301.51</ele>
        <time>2021-07-21T17:03:07Z</time>
      </trkpt>
      <trkpt lat="49.0558" lon="7.34312">
        <ele>303.43</ele>
        <time>2021-07-21T17:03:08Z</time>
      </trkpt>
      <trkpt lat="49.05569" lon="7.34386">
        <ele>310.16</ele>
        <time>2021-07-21T17:03:13Z</time>
      </trkpt>
      <trkpt lat="49.05567" lon="7.344">
        <ele>311.12</ele>
        <time>2021-07-21T17:03:14Z</time>
      </trkpt>
      <trkpt lat="49.05563" lon="7.34414">
        <ele>312.09</ele>
        <time>2021-07-21T17:03:15Z</time>
      </trkpt>
      <trkpt lat="49.05558" lon="7.34424">
        <ele>313.05</ele>
        <time>2021-07-21T17:03:16Z</time>
      </trkpt>
      <trkpt lat="49.05546" lon="7.34439">
        <ele>313.53</ele>
        <time>2021-07-21T17:03:17Z</time>
      </trkpt>
      <trkpt lat="49.05546" lon="7.34439">
        <ele>314.49</ele>
        <time>2021-07-21T17:03:18Z</time>
      </trkpt>
      <trkpt lat="49.0554" lon="7.34446">
        <ele>315.45</ele>
        <time>2021-07-21T17:03:19Z</time>
      </trkpt>
      <trkpt lat="49.05532" lon="7.34451">
        <ele>316.89</ele>
        <time>2021-07-21T17:03:20Z</time>
      </trkpt>
      <trkpt lat="49.05523" lon="7.34455">
        <ele>318.33</ele>
        <time>2021-07-21T17:03:21Z</time>
      </trkpt>
      <trkpt lat="49.05515" lon="7.34458">
        <ele>319.3</ele>
        <time>2021-07-21T17:03:22Z</time>
      </trkpt>
      <trkpt lat="49.05505" lon="7.34459">
        <ele>320.74</ele>
        <time>2021-07-21T17:03:23Z</time>
      </trkpt>
      <trkpt lat="49.05495" lon="7.34459">
        <ele>322.66</ele>
        <time>2021-07-21T17:03:24Z</time>
      </trkpt>
      <trkpt lat="49.05485" lon="7.34459">
        <ele>324.1</ele>
        <time>2021-07-21T17:03:25Z</time>
      </trkpt>
      <trkpt lat="49.05458" lon="7.34458">
        <ele>327.95</ele>
        <time>2021-07-21T17:03:28Z</time>
      </trkpt>
      <trkpt lat="49.05449" lon="7.34458">
        <ele>329.39</ele>
        <time>2021-07-21T17:03:29Z</time>
      </trkpt>
      <trkpt lat="49.05441" lon="7.34463">
        <ele>330.83</ele>
        <time>2021-07-21T17:03:30Z</time>
      </trkpt>
      <trkpt lat="49.05431" lon="7.34468">
        <ele>330.35</ele>
        <time>2021-07-21T17:03:31Z</time>
      </trkpt>
      <trkpt lat="49.0542" lon="7.34475">
        <ele>329.87</ele>
        <time>2021-07-21T17:03:32Z</time>
      </trkpt>
      <trkpt lat="49.05411" lon="7.34485">
        <ele>329.39</ele>
        <time>2021-07-21T17:03:33Z</time>
      </trkpt>
      <trkpt lat="49.05402" lon="7.34498">
        <ele>329.87</ele>
        <time>2021-07-21T17:03:34Z</time>
      </trkpt>
      <trkpt lat="49.05321" lon="7.34627">
        <ele>336.6</ele>
        <time>2021-07-21T17:03:44Z</time>
      </trkpt>
      <trkpt lat="49.05222" lon="7.3481">
        <ele>352.94</ele>
        <time>2021-07-21T17:03:57Z</time>
      </trkpt>
      <trkpt lat="49.05209" lon="7.34843">
        <ele>353.9</ele>
        <time>2021-07-21T17:03:59Z</time>
      </trkpt>
      <trkpt lat="49.05203" lon="7.3486">
        <ele>354.86</ele>
        <time>2021-07-21T17:04:00Z</time>
      </trkpt>
      <trkpt lat="49.05194" lon="7.34901">
        <ele>356.79</ele>
        <time>2021-07-21T17:04:01Z</time>
      </trkpt>
      <trkpt lat="49.0518" lon="7.35084">
        <ele>371.21</ele>
        <time>2021-07-21T17:04:11Z</time>
      </trkpt>
      <trkpt lat="49.05199" lon="7.35349">
        <ele>376.49</ele>
        <time>2021-07-21T17:04:23Z</time>
      </trkpt>
      <trkpt lat="49.0524" lon="7.35729">
        <ele>376.01</ele>
        <time>2021-07-21T17:04:37Z</time>
      </trkpt>
      <trkpt lat="49.05304" lon="7.36318">
        <ele>381.3</ele>
        <time>2021-07-21T17:04:57Z</time>
      </trkpt>
      <trkpt lat="49.05359" lon="7.36829">
        <ele>390.91</ele>
        <time>2021-07-21T17:05:15Z</time>
      </trkpt>
      <trkpt lat="49.05406" lon="7.37223">
        <ele>397.64</ele>
        <time>2021-07-21T17:05:31Z</time>
      </trkpt>
      <trkpt lat="49.05413" lon="7.37245">
        <ele>397.16</ele>
        <time>2021-07-21T17:05:32Z</time>
      </trkpt>
      <trkpt lat="49.05421" lon="7.37266">
        <ele>396.68</ele>
        <time>2021-07-21T17:05:33Z</time>
      </trkpt>
      <trkpt lat="49.05431" lon="7.37283">
        <ele>396.68</ele>
        <time>2021-07-21T17:05:34Z</time>
      </trkpt>
      <trkpt lat="49.05443" lon="7.373">
        <ele>396.68</ele>
        <time>2021-07-21T17:05:35Z</time>
      </trkpt>
      <trkpt lat="49.05568" lon="7.3747">
        <ele>398.6</ele>
        <time>2021-07-21T17:05:47Z</time>
      </trkpt>
      <trkpt lat="49.05658" lon="7.37587">
        <ele>399.57</ele>
        <time>2021-07-21T17:05:58Z</time>
      </trkpt>
      <trkpt lat="49.05665" lon="7.37596">
        <ele>400.05</ele>
        <time>2021-07-21T17:06:06Z</time>
      </trkpt>
      <trkpt lat="49.05671" lon="7.37604">
        <ele>400.05</ele>
        <time>2021-07-21T17:06:19Z</time>
      </trkpt>
      <trkpt lat="49.05675" lon="7.3761">
        <ele>400.05</ele>
        <time>2021-07-21T17:06:20Z</time>
      </trkpt>
      <trkpt lat="49.05675" lon="7.3761">
        <ele>400.05</ele>
        <time>2021-07-21T17:06:21Z</time>
      </trkpt>
      <trkpt lat="49.05678" lon="7.37614">
        <ele>400.05</ele>
        <time>2021-07-21T17:06:28Z</time>
      </trkpt>
      <trkpt lat="49.0568" lon="7.37617">
        <ele>400.05</ele>
        <time>2021-07-21T17:06:29Z</time>
      </trkpt>
      <trkpt lat="49.05684" lon="7.37622">
        <ele>400.05</ele>
        <time>2021-07-21T17:06:30Z</time>
      </trkpt>
      <trkpt lat="49.05732" lon="7.37689">
        <ele>400.05</ele>
        <time>2021-07-21T17:06:38Z</time>
      </trkpt>
      <trkpt lat="49.05841" lon="7.37841">
        <ele>402.93</ele>
        <time>2021-07-21T17:06:50Z</time>
      </trkpt>
      <trkpt lat="49.05975" lon="7.38024">
        <ele>405.81</ele>
        <time>2021-07-21T17:07:04Z</time>
      </trkpt>
      <trkpt lat="49.06054" lon="7.38163">
        <ele>407.26</ele>
        <time>2021-07-21T17:07:14Z</time>
      </trkpt>
      <trkpt lat="49.06057" lon="7.38178">
        <ele>408.22</ele>
        <time>2021-07-21T17:07:15Z</time>
      </trkpt>
      <trkpt lat="49.06059" lon="7.38194">
        <ele>407.74</ele>
        <time>2021-07-21T17:07:16Z</time>
      </trkpt>
      <trkpt lat="49.06061" lon="7.38212">
        <ele>407.74</ele>
        <time>2021-07-21T17:07:17Z</time>
      </trkpt>
      <trkpt lat="49.06062" lon="7.38229">
        <ele>407.74</ele>
        <time>2021-07-21T17:07:18Z</time>
      </trkpt>
      <trkpt lat="49.06065" lon="7.38506">
        <ele>407.26</ele>
        <time>2021-07-21T17:07:31Z</time>
      </trkpt>
      <trkpt lat="49.06069" lon="7.38884">
        <ele>410.14</ele>
        <time>2021-07-21T17:07:46Z</time>
      </trkpt>
      <trkpt lat="49.06058" lon="7.39">
        <ele>409.66</ele>
        <time>2021-07-21T17:07:52Z</time>
      </trkpt>
      <trkpt lat="49.06057" lon="7.39035">
        <ele>410.14</ele>
        <time>2021-07-21T17:07:59Z</time>
      </trkpt>
      <trkpt lat="49.06057" lon="7.39035">
        <ele>411.1</ele>
        <time>2021-07-21T17:08:31Z</time>
      </trkpt>
      <trkpt lat="49.06058" lon="7.39038">
        <ele>411.1</ele>
        <time>2021-07-21T17:08:32Z</time>
      </trkpt>
      <trkpt lat="49.06063" lon="7.39061">
        <ele>411.58</ele>
        <time>2021-07-21T17:08:39Z</time>
      </trkpt>
      <trkpt lat="49.06063" lon="7.39061">
        <ele>411.58</ele>
        <time>2021-07-21T17:08:59Z</time>
      </trkpt>
      <trkpt lat="49.06063" lon="7.39061">
        <ele>411.58</ele>
        <time>2021-07-21T17:09:01Z</time>
      </trkpt>
      <trkpt lat="49.06068" lon="7.39078">
        <ele>411.58</ele>
        <time>2021-07-21T17:09:02Z</time>
      </trkpt>
      <trkpt lat="49.0607" lon="7.39075">
        <ele>411.1</ele>
        <time>2021-07-21T17:09:03Z</time>
      </trkpt>
      <trkpt lat="49.06064" lon="7.39063">
        <ele>411.1</ele>
        <time>2021-07-21T17:09:04Z</time>
      </trkpt>
      <trkpt lat="49.06064" lon="7.39063">
        <ele>410.62</ele>
        <time>2021-07-21T17:09:05Z</time>
      </trkpt>
      <trkpt lat="49.06061" lon="7.3905">
        <ele>410.62</ele>
        <time>2021-07-21T17:09:06Z</time>
      </trkpt>
      <trkpt lat="49.06061" lon="7.3905">
        <ele>410.62</ele>
        <time>2021-07-21T17:09:07Z</time>
      </trkpt>
      <trkpt lat="49.06059" lon="7.39043">
        <ele>410.62</ele>
        <time>2021-07-21T17:09:08Z</time>
      </trkpt>
      <trkpt lat="49.06057" lon="7.39035">
        <ele>410.62</ele>
        <time>2021-07-21T17:09:09Z</time>
      </trkpt>
      <trkpt lat="49.06055" lon="7.39026">
        <ele>410.62</ele>
        <time>2021-07-21T17:09:10Z</time>
      </trkpt>
      <trkpt lat="49.06056" lon="7.39014">
        <ele>410.62</ele>
        <time>2021-07-21T17:09:11Z</time>
      </trkpt>
      <trkpt lat="49.06057" lon="7.39002">
        <ele>410.62</ele>
        <time>2021-07-21T17:09:12Z</time>
      </trkpt>
      <trkpt lat="49.0606" lon="7.38988">
        <ele>411.1</ele>
        <time>2021-07-21T17:09:13Z</time>
      </trkpt>
      <trkpt lat="49.06069" lon="7.38831">
        <ele>408.22</ele>
        <time>2021-07-21T17:09:21Z</time>
      </trkpt>
      <trkpt lat="49.06066" lon="7.38568">
        <ele>405.81</ele>
        <time>2021-07-21T17:09:31Z</time>
      </trkpt>
      <trkpt lat="49.06061" lon="7.38226">
        <ele>410.14</ele>
        <time>2021-07-21T17:09:43Z</time>
      </trkpt>
      <trkpt lat="49.06061" lon="7.38207">
        <ele>409.66</ele>
        <time>2021-07-21T17:09:44Z</time>
      </trkpt>
      <trkpt lat="49.06058" lon="7.3819">
        <ele>409.66</ele>
        <time>2021-07-21T17:09:45Z</time>
      </trkpt>
      <trkpt lat="49.06055" lon="7.38172">
        <ele>409.18</ele>
        <time>2021-07-21T17:09:46Z</time>
      </trkpt>
      <trkpt lat="49.06052" lon="7.38152">
        <ele>408.7</ele>
        <time>2021-07-21T17:09:47Z</time>
      </trkpt>
      <trkpt lat="49.06044" lon="7.38137">
        <ele>408.7</ele>
        <time>2021-07-21T17:09:48Z</time>
      </trkpt>
      <trkpt lat="49.06036" lon="7.3812">
        <ele>409.18</ele>
        <time>2021-07-21T17:09:49Z</time>
      </trkpt>
      <trkpt lat="49.06027" lon="7.38102">
        <ele>409.18</ele>
        <time>2021-07-21T17:09:50Z</time>
      </trkpt>
      <trkpt lat="49.05931" lon="7.37959">
        <ele>408.22</ele>
        <time>2021-07-21T17:09:59Z</time>
      </trkpt>
      <trkpt lat="49.05807" lon="7.37792">
        <ele>406.29</ele>
        <time>2021-07-21T17:10:12Z</time>
      </trkpt>
      <trkpt lat="49.0575" lon="7.37714">
        <ele>405.81</ele>
        <time>2021-07-21T17:10:23Z</time>
      </trkpt>
      <trkpt lat="49.05684" lon="7.37623">
        <ele>404.85</ele>
        <time>2021-07-21T17:10:33Z</time>
      </trkpt>
      <trkpt lat="49.05681" lon="7.37618">
        <ele>404.37</ele>
        <time>2021-07-21T17:10:34Z</time>
      </trkpt>
      <trkpt lat="49.05675" lon="7.3761">
        <ele>404.37</ele>
        <time>2021-07-21T17:10:35Z</time>
      </trkpt>
      <trkpt lat="49.05675" lon="7.3761">
        <ele>404.37</ele>
        <time>2021-07-21T17:10:36Z</time>
      </trkpt>
      <trkpt lat="49.05676" lon="7.37593">
        <ele>404.37</ele>
        <time>2021-07-21T17:10:37Z</time>
      </trkpt>
      <trkpt lat="49.05678" lon="7.37591">
        <ele>403.89</ele>
        <time>2021-07-21T17:10:38Z</time>
      </trkpt>
      <trkpt lat="49.05679" lon="7.37588">
        <ele>403.89</ele>
        <time>2021-07-21T17:10:39Z</time>
      </trkpt>
      <trkpt lat="49.05681" lon="7.37585">
        <ele>403.89</ele>
        <time>2021-07-21T17:10:40Z</time>
      </trkpt>
      <trkpt lat="49.05682" lon="7.37583">
        <ele>403.41</ele>
        <time>2021-07-21T17:10:55Z</time>
      </trkpt>
      <trkpt lat="49.05682" lon="7.37583">
        <ele>403.41</ele>
        <time>2021-07-21T17:12:04Z</time>
      </trkpt>
      <trkpt lat="49.05682" lon="7.37583">
        <ele>403.41</ele>
        <time>2021-07-21T17:12:09Z</time>
      </trkpt>
      <trkpt lat="49.05685" lon="7.37578">
        <ele>403.41</ele>
        <time>2021-07-21T17:12:10Z</time>
      </trkpt>
      <trkpt lat="49.05684" lon="7.37568">
        <ele>402.93</ele>
        <time>2021-07-21T17:12:21Z</time>
      </trkpt>
      <trkpt lat="49.05684" lon="7.37568">
        <ele>402.93</ele>
        <time>2021-07-21T17:12:23Z</time>
      </trkpt>
      <trkpt lat="49.05687" lon="7.37575">
        <ele>403.41</ele>
        <time>2021-07-21T17:12:26Z</time>
      </trkpt>
      <trkpt lat="49.05658" lon="7.37586">
        <ele>403.89</ele>
        <time>2021-07-21T17:12:36Z</time>
      </trkpt>
      <trkpt lat="49.05654" lon="7.37581">
        <ele>403.89</ele>
        <time>2021-07-21T17:12:37Z</time>
      </trkpt>
      <trkpt lat="49.05599" lon="7.37508">
        <ele>403.89</ele>
        <time>2021-07-21T17:12:46Z</time>
      </trkpt>
      <trkpt lat="49.05486" lon="7.37358">
        <ele>402.93</ele>
        <time>2021-07-21T17:12:58Z</time>
      </trkpt>
      <trkpt lat="49.0542" lon="7.37263">
        <ele>402.93</ele>
        <time>2021-07-21T17:13:05Z</time>
      </trkpt>
      <trkpt lat="49.05412" lon="7.37243">
        <ele>402.93</ele>
        <time>2021-07-21T17:13:06Z</time>
      </trkpt>
      <trkpt lat="49.05406" lon="7.37224">
        <ele>402.93</ele>
        <time>2021-07-21T17:13:07Z</time>
      </trkpt>
      <trkpt lat="49.05401" lon="7.37204">
        <ele>402.93</ele>
        <time>2021-07-21T17:13:08Z</time>
      </trkpt>
      <trkpt lat="49.05397" lon="7.37183">
        <ele>402.93</ele>
        <time>2021-07-21T17:13:09Z</time>
      </trkpt>
      <trkpt lat="49.05395" lon="7.37161">
        <ele>402.45</ele>
        <time>2021-07-21T17:13:10Z</time>
      </trkpt>
      <trkpt lat="49.05364" lon="7.36876">
        <ele>396.2</ele>
        <time>2021-07-21T17:13:21Z</time>
      </trkpt>
      <trkpt lat="49.05323" lon="7.36492">
        <ele>390.43</ele>
        <time>2021-07-21T17:13:33Z</time>
      </trkpt>
      <trkpt lat="49.05266" lon="7.35966">
        <ele>380.82</ele>
        <time>2021-07-21T17:13:48Z</time>
      </trkpt>
      <trkpt lat="49.05204" lon="7.3539">
        <ele>381.3</ele>
        <time>2021-07-21T17:14:06Z</time>
      </trkpt>
      <trkpt lat="49.05181" lon="7.35036">
        <ele>373.13</ele>
        <time>2021-07-21T17:14:18Z</time>
      </trkpt>
      <trkpt lat="49.05203" lon="7.34858">
        <ele>362.07</ele>
        <time>2021-07-21T17:14:24Z</time>
      </trkpt>
      <trkpt lat="49.05211" lon="7.34838">
        <ele>360.63</ele>
        <time>2021-07-21T17:14:25Z</time>
      </trkpt>
      <trkpt lat="49.05218" lon="7.34819">
        <ele>358.71</ele>
        <time>2021-07-21T17:14:26Z</time>
      </trkpt>
      <trkpt lat="49.05227" lon="7.348">
        <ele>357.27</ele>
        <time>2021-07-21T17:14:27Z</time>
      </trkpt>
      <trkpt lat="49.05237" lon="7.34781">
        <ele>355.34</ele>
        <time>2021-07-21T17:14:28Z</time>
      </trkpt>
      <trkpt lat="49.0535" lon="7.34575">
        <ele>339.48</ele>
        <time>2021-07-21T17:14:38Z</time>
      </trkpt>
      <trkpt lat="49.05412" lon="7.34484">
        <ele>328.91</ele>
        <time>2021-07-21T17:14:44Z</time>
      </trkpt>
      <trkpt lat="49.05423" lon="7.34473">
        <ele>326.5</ele>
        <time>2021-07-21T17:14:45Z</time>
      </trkpt>
      <trkpt lat="49.05436" lon="7.34466">
        <ele>324.58</ele>
        <time>2021-07-21T17:14:46Z</time>
      </trkpt>
      <trkpt lat="49.05449" lon="7.34458">
        <ele>323.62</ele>
        <time>2021-07-21T17:14:47Z</time>
      </trkpt>
      <trkpt lat="49.05464" lon="7.34458">
        <ele>321.7</ele>
        <time>2021-07-21T17:14:48Z</time>
      </trkpt>
      <trkpt lat="49.05477" lon="7.34459">
        <ele>319.3</ele>
        <time>2021-07-21T17:14:49Z</time>
      </trkpt>
      <trkpt lat="49.05503" lon="7.34459">
        <ele>317.85</ele>
        <time>2021-07-21T17:14:51Z</time>
      </trkpt>
      <trkpt lat="49.05515" lon="7.34458">
        <ele>317.37</ele>
        <time>2021-07-21T17:14:52Z</time>
      </trkpt>
      <trkpt lat="49.05527" lon="7.34453">
        <ele>316.89</ele>
        <time>2021-07-21T17:14:53Z</time>
      </trkpt>
      <trkpt lat="49.05537" lon="7.34449">
        <ele>315.93</ele>
        <time>2021-07-21T17:14:54Z</time>
      </trkpt>
      <trkpt lat="49.05546" lon="7.34439">
        <ele>314.01</ele>
        <time>2021-07-21T17:14:55Z</time>
      </trkpt>
      <trkpt lat="49.05555" lon="7.34429">
        <ele>313.05</ele>
        <time>2021-07-21T17:14:56Z</time>
      </trkpt>
      <trkpt lat="49.05562" lon="7.34416">
        <ele>312.09</ele>
        <time>2021-07-21T17:14:57Z</time>
      </trkpt>
      <trkpt lat="49.05566" lon="7.34404">
        <ele>310.16</ele>
        <time>2021-07-21T17:14:58Z</time>
      </trkpt>
      <trkpt lat="49.05569" lon="7.34387">
        <ele>307.76</ele>
        <time>2021-07-21T17:14:59Z</time>
      </trkpt>
      <trkpt lat="49.05572" lon="7.3437">
        <ele>306.32</ele>
        <time>2021-07-21T17:15:00Z</time>
      </trkpt>
      <trkpt lat="49.0558" lon="7.34313">
        <ele>301.03</ele>
        <time>2021-07-21T17:15:03Z</time>
      </trkpt>
      <trkpt lat="49.05579" lon="7.34292">
        <ele>299.59</ele>
        <time>2021-07-21T17:15:04Z</time>
      </trkpt>
      <trkpt lat="49.05579" lon="7.34272">
        <ele>298.15</ele>
        <time>2021-07-21T17:15:05Z</time>
      </trkpt>
      <trkpt lat="49.05578" lon="7.34254">
        <ele>297.18</ele>
        <time>2021-07-21T17:15:06Z</time>
      </trkpt>
      <trkpt lat="49.05575" lon="7.34237">
        <ele>296.7</ele>
        <time>2021-07-21T17:15:07Z</time>
      </trkpt>
      <trkpt lat="49.0557" lon="7.34222">
        <ele>294.78</ele>
        <time>2021-07-21T17:15:08Z</time>
      </trkpt>
      <trkpt lat="49.05565" lon="7.34205">
        <ele>293.34</ele>
        <time>2021-07-21T17:15:09Z</time>
      </trkpt>
      <trkpt lat="49.0556" lon="7.34189">
        <ele>291.42</ele>
        <time>2021-07-21T17:15:10Z</time>
      </trkpt>
      <trkpt lat="49.0555" lon="7.34174">
        <ele>288.53</ele>
        <time>2021-07-21T17:15:11Z</time>
      </trkpt>
      <trkpt lat="49.0554" lon="7.34161">
        <ele>286.61</ele>
        <time>2021-07-21T17:15:12Z</time>
      </trkpt>
      <trkpt lat="49.05441" lon="7.34031">
        <ele>268.83</ele>
        <time>2021-07-21T17:15:21Z</time>
      </trkpt>
      <trkpt lat="49.0541" lon="7.33975">
        <ele>265.46</ele>
        <time>2021-07-21T17:15:25Z</time>
      </trkpt>
      <trkpt lat="49.05405" lon="7.33964">
        <ele>265.94</ele>
        <time>2021-07-21T17:15:26Z</time>
      </trkpt>
      <trkpt lat="49.05397" lon="7.33938">
        <ele>265.46</ele>
        <time>2021-07-21T17:15:27Z</time>
      </trkpt>
      <trkpt lat="49.05397" lon="7.33924">
        <ele>265.46</ele>
        <time>2021-07-21T17:15:28Z</time>
      </trkpt>
      <trkpt lat="49.05397" lon="7.33924">
        <ele>266.42</ele>
        <time>2021-07-21T17:15:29Z</time>
      </trkpt>
      <trkpt lat="49.05396" lon="7.33911">
        <ele>265.94</ele>
        <time>2021-07-21T17:15:30Z</time>
      </trkpt>
      <trkpt lat="49.05395" lon="7.33898">
        <ele>265.94</ele>
        <time>2021-07-21T17:15:31Z</time>
      </trkpt>
      <trkpt lat="49.05394" lon="7.33875">
        <ele>266.42</ele>
        <time>2021-07-21T17:15:32Z</time>
      </trkpt>
      <trkpt lat="49.05394" lon="7.33875">
        <ele>266.42</ele>
        <time>2021-07-21T17:15:33Z</time>
      </trkpt>
      <trkpt lat="49.05395" lon="7.3386">
        <ele>266.9</ele>
        <time>2021-07-21T17:15:34Z</time>
      </trkpt>
      <trkpt lat="49.05403" lon="7.33846">
        <ele>266.9</ele>
        <time>2021-07-21T17:15:35Z</time>
      </trkpt>
      <trkpt lat="49.05412" lon="7.33795">
        <ele>268.35</ele>
        <time>2021-07-21T17:15:40Z</time>
      </trkpt>
      <trkpt lat="49.05415" lon="7.33774">
        <ele>268.83</ele>
        <time>2021-07-21T17:15:43Z</time>
      </trkpt>
      <trkpt lat="49.05415" lon="7.33774">
        <ele>268.83</ele>
        <time>2021-07-21T17:15:44Z</time>
      </trkpt>
      <trkpt lat="49.05416" lon="7.33768">
        <ele>268.83</ele>
        <time>2021-07-21T17:15:45Z</time>
      </trkpt>
      <trkpt lat="49.05416" lon="7.33768">
        <ele>269.31</ele>
        <time>2021-07-21T17:15:58Z</time>
      </trkpt>
    </trkseg>
  </trk>
  <trk>
    <name><![CDATA[Journal actif: 2021-07-21 15:16]]></name>
    <trkseg>
      <trkpt lat="49.05416" lon="7.33768">
        <ele>269.31</ele>
        <time>2021-07-21T17:16:27Z</time>
      </trkpt>
      <trkpt lat="49.05417" lon="7.33757">
        <ele>269.79</ele>
        <time>2021-07-21T17:17:50Z</time>
      </trkpt>
      <trkpt lat="49.05415" lon="7.33677">
        <ele>271.71</ele>
        <time>2021-07-21T17:17:58Z</time>
      </trkpt>
      <trkpt lat="49.054" lon="7.33465">
        <ele>279.88</ele>
        <time>2021-07-21T17:18:09Z</time>
      </trkpt>
      <trkpt lat="49.05392" lon="7.33206">
        <ele>285.17</ele>
        <time>2021-07-21T17:18:20Z</time>
      </trkpt>
      <trkpt lat="49.05355" lon="7.32913">
        <ele>294.78</ele>
        <time>2021-07-21T17:18:32Z</time>
      </trkpt>
      <trkpt lat="49.05344" lon="7.32742">
        <ele>300.07</ele>
        <time>2021-07-21T17:18:39Z</time>
      </trkpt>
      <trkpt lat="49.0534" lon="7.3272">
        <ele>299.59</ele>
        <time>2021-07-21T17:18:40Z</time>
      </trkpt>
      <trkpt lat="49.05332" lon="7.32699">
        <ele>300.55</ele>
        <time>2021-07-21T17:18:41Z</time>
      </trkpt>
      <trkpt lat="49.05325" lon="7.32681">
        <ele>301.03</ele>
        <time>2021-07-21T17:18:42Z</time>
      </trkpt>
      <trkpt lat="49.05315" lon="7.32663">
        <ele>301.99</ele>
        <time>2021-07-21T17:18:43Z</time>
      </trkpt>
      <trkpt lat="49.05256" lon="7.32549">
        <ele>303.43</ele>
        <time>2021-07-21T17:18:50Z</time>
      </trkpt>
      <trkpt lat="49.0525" lon="7.32533">
        <ele>304.88</ele>
        <time>2021-07-21T17:18:51Z</time>
      </trkpt>
      <trkpt lat="49.05248" lon="7.32522">
        <ele>306.32</ele>
        <time>2021-07-21T17:18:52Z</time>
      </trkpt>
      <trkpt lat="49.05251" lon="7.32502">
        <ele>306.8</ele>
        <time>2021-07-21T17:18:53Z</time>
      </trkpt>
      <trkpt lat="49.05255" lon="7.32494">
        <ele>307.28</ele>
        <time>2021-07-21T17:18:54Z</time>
      </trkpt>
      <trkpt lat="49.05262" lon="7.32483">
        <ele>306.8</ele>
        <time>2021-07-21T17:18:55Z</time>
      </trkpt>
      <trkpt lat="49.05269" lon="7.32473">
        <ele>307.28</ele>
        <time>2021-07-21T17:18:56Z</time>
      </trkpt>
      <trkpt lat="49.05276" lon="7.32472">
        <ele>307.28</ele>
        <time>2021-07-21T17:18:57Z</time>
      </trkpt>
      <trkpt lat="49.05287" lon="7.32471">
        <ele>305.84</ele>
        <time>2021-07-21T17:18:58Z</time>
      </trkpt>
      <trkpt lat="49.05299" lon="7.32469">
        <ele>305.84</ele>
        <time>2021-07-21T17:18:59Z</time>
      </trkpt>
      <trkpt lat="49.05311" lon="7.32467">
        <ele>307.28</ele>
        <time>2021-07-21T17:19:00Z</time>
      </trkpt>
      <trkpt lat="49.0532" lon="7.32462">
        <ele>308.24</ele>
        <time>2021-07-21T17:19:01Z</time>
      </trkpt>
      <trkpt lat="49.05331" lon="7.32455">
        <ele>308.72</ele>
        <time>2021-07-21T17:19:02Z</time>
      </trkpt>
      <trkpt lat="49.05342" lon="7.32449">
        <ele>309.2</ele>
        <time>2021-07-21T17:19:03Z</time>
      </trkpt>
      <trkpt lat="49.05348" lon="7.32437">
        <ele>311.12</ele>
        <time>2021-07-21T17:19:04Z</time>
      </trkpt>
      <trkpt lat="49.05351" lon="7.32426">
        <ele>311.6</ele>
        <time>2021-07-21T17:19:05Z</time>
      </trkpt>
      <trkpt lat="49.05351" lon="7.32408">
        <ele>310.64</ele>
        <time>2021-07-21T17:19:06Z</time>
      </trkpt>
      <trkpt lat="49.05352" lon="7.3239">
        <ele>309.68</ele>
        <time>2021-07-21T17:19:07Z</time>
      </trkpt>
      <trkpt lat="49.05353" lon="7.32372">
        <ele>310.16</ele>
        <time>2021-07-21T17:19:08Z</time>
      </trkpt>
      <trkpt lat="49.05347" lon="7.32315">
        <ele>313.53</ele>
        <time>2021-07-21T17:19:11Z</time>
      </trkpt>
      <trkpt lat="49.05347" lon="7.32293">
        <ele>314.97</ele>
        <time>2021-07-21T17:19:12Z</time>
      </trkpt>
      <trkpt lat="49.0535" lon="7.32273">
        <ele>315.45</ele>
        <time>2021-07-21T17:19:13Z</time>
      </trkpt>
      <trkpt lat="49.05354" lon="7.32251">
        <ele>316.89</ele>
        <time>2021-07-21T17:19:14Z</time>
      </trkpt>
      <trkpt lat="49.0536" lon="7.32233">
        <ele>316.89</ele>
        <time>2021-07-21T17:19:15Z</time>
      </trkpt>
      <trkpt lat="49.05367" lon="7.32214">
        <ele>317.85</ele>
        <time>2021-07-21T17:19:16Z</time>
      </trkpt>
      <trkpt lat="49.05378" lon="7.322">
        <ele>319.3</ele>
        <time>2021-07-21T17:19:17Z</time>
      </trkpt>
      <trkpt lat="49.0539" lon="7.32185">
        <ele>320.74</ele>
        <time>2021-07-21T17:19:18Z</time>
      </trkpt>
      <trkpt lat="49.05413" lon="7.32156">
        <ele>324.1</ele>
        <time>2021-07-21T17:19:20Z</time>
      </trkpt>
      <trkpt lat="49.05423" lon="7.32142">
        <ele>325.54</ele>
        <time>2021-07-21T17:19:21Z</time>
      </trkpt>
      <trkpt lat="49.05432" lon="7.32128">
        <ele>327.47</ele>
        <time>2021-07-21T17:19:22Z</time>
      </trkpt>
      <trkpt lat="49.05438" lon="7.3211">
        <ele>328.91</ele>
        <time>2021-07-21T17:19:23Z</time>
      </trkpt>
      <trkpt lat="49.05443" lon="7.32095">
        <ele>328.43</ele>
        <time>2021-07-21T17:19:24Z</time>
      </trkpt>
      <trkpt lat="49.05443" lon="7.32074">
        <ele>327.95</ele>
        <time>2021-07-21T17:19:25Z</time>
      </trkpt>
      <trkpt lat="49.05443" lon="7.32054">
        <ele>328.91</ele>
        <time>2021-07-21T17:19:26Z</time>
      </trkpt>
      <trkpt lat="49.05438" lon="7.32036">
        <ele>330.83</ele>
        <time>2021-07-21T17:19:27Z</time>
      </trkpt>
      <trkpt lat="49.0543" lon="7.32018">
        <ele>332.27</ele>
        <time>2021-07-21T17:19:28Z</time>
      </trkpt>
      <trkpt lat="49.05421" lon="7.32001">
        <ele>333.71</ele>
        <time>2021-07-21T17:19:29Z</time>
      </trkpt>
      <trkpt lat="49.0541" lon="7.31988">
        <ele>333.71</ele>
        <time>2021-07-21T17:19:30Z</time>
      </trkpt>
      <trkpt lat="49.05398" lon="7.31977">
        <ele>333.23</ele>
        <time>2021-07-21T17:19:31Z</time>
      </trkpt>
      <trkpt lat="49.05226" lon="7.31814">
        <ele>342.37</ele>
        <time>2021-07-21T17:19:44Z</time>
      </trkpt>
      <trkpt lat="49.05226" lon="7.31814">
        <ele>342.37</ele>
        <time>2021-07-21T17:19:45Z</time>
      </trkpt>
      <trkpt lat="49.05215" lon="7.31797">
        <ele>342.85</ele>
        <time>2021-07-21T17:19:46Z</time>
      </trkpt>
      <trkpt lat="49.05206" lon="7.31778">
        <ele>343.33</ele>
        <time>2021-07-21T17:19:47Z</time>
      </trkpt>
      <trkpt lat="49.05198" lon="7.31758">
        <ele>344.29</ele>
        <time>2021-07-21T17:19:48Z</time>
      </trkpt>
      <trkpt lat="49.05191" lon="7.31738">
        <ele>345.25</ele>
        <time>2021-07-21T17:19:49Z</time>
      </trkpt>
      <trkpt lat="49.05185" lon="7.31715">
        <ele>346.21</ele>
        <time>2021-07-21T17:19:50Z</time>
      </trkpt>
      <trkpt lat="49.05142" lon="7.31482">
        <ele>354.86</ele>
        <time>2021-07-21T17:20:00Z</time>
      </trkpt>
      <trkpt lat="49.05135" lon="7.31441">
        <ele>356.79</ele>
        <time>2021-07-21T17:20:02Z</time>
      </trkpt>
      <trkpt lat="49.05131" lon="7.31423">
        <ele>357.75</ele>
        <time>2021-07-21T17:20:03Z</time>
      </trkpt>
      <trkpt lat="49.05125" lon="7.31404">
        <ele>359.19</ele>
        <time>2021-07-21T17:20:04Z</time>
      </trkpt>
      <trkpt lat="49.05088" lon="7.31284">
        <ele>359.67</ele>
        <time>2021-07-21T17:20:12Z</time>
      </trkpt>
      <trkpt lat="49.05086" lon="7.31273">
        <ele>359.67</ele>
        <time>2021-07-21T17:20:13Z</time>
      </trkpt>
      <trkpt lat="49.05084" lon="7.31265">
        <ele>360.15</ele>
        <time>2021-07-21T17:20:14Z</time>
      </trkpt>
      <trkpt lat="49.05082" lon="7.31259">
        <ele>360.15</ele>
        <time>2021-07-21T17:20:15Z</time>
      </trkpt>
      <trkpt lat="49.0509" lon="7.31251">
        <ele>359.67</ele>
        <time>2021-07-21T17:20:16Z</time>
      </trkpt>
      <trkpt lat="49.05094" lon="7.31251">
        <ele>359.19</ele>
        <time>2021-07-21T17:20:17Z</time>
      </trkpt>
      <trkpt lat="49.05102" lon="7.3125">
        <ele>358.71</ele>
        <time>2021-07-21T17:20:18Z</time>
      </trkpt>
      <trkpt lat="49.05178" lon="7.31191">
        <ele>355.83</ele>
        <time>2021-07-21T17:20:25Z</time>
      </trkpt>
      <trkpt lat="49.05241" lon="7.31136">
        <ele>354.38</ele>
        <time>2021-07-21T17:20:32Z</time>
      </trkpt>
      <trkpt lat="49.05252" lon="7.3113">
        <ele>354.38</ele>
        <time>2021-07-21T17:20:33Z</time>
      </trkpt>
      <trkpt lat="49.05369" lon="7.31097">
        <ele>351.98</ele>
        <time>2021-07-21T17:20:43Z</time>
      </trkpt>
      <trkpt lat="49.05511" lon="7.31132">
        <ele>351.02</ele>
        <time>2021-07-21T17:20:55Z</time>
      </trkpt>
      <trkpt lat="49.05671" lon="7.31156">
        <ele>350.06</ele>
        <time>2021-07-21T17:21:08Z</time>
      </trkpt>
      <trkpt lat="49.05818" lon="7.31162">
        <ele>352.46</ele>
        <time>2021-07-21T17:21:21Z</time>
      </trkpt>
      <trkpt lat="49.05984" lon="7.3115">
        <ele>350.06</ele>
        <time>2021-07-21T17:21:33Z</time>
      </trkpt>
      <trkpt lat="49.06117" lon="7.31102">
        <ele>349.1</ele>
        <time>2021-07-21T17:21:44Z</time>
      </trkpt>
      <trkpt lat="49.06124" lon="7.31099">
        <ele>348.62</ele>
        <time>2021-07-21T17:21:45Z</time>
      </trkpt>
      <trkpt lat="49.06136" lon="7.31095">
        <ele>348.62</ele>
        <time>2021-07-21T17:21:47Z</time>
      </trkpt>
      <trkpt lat="49.06141" lon="7.31093">
        <ele>348.62</ele>
        <time>2021-07-21T17:21:48Z</time>
      </trkpt>
      <trkpt lat="49.06154" lon="7.31089">
        <ele>348.62</ele>
        <time>2021-07-21T17:21:50Z</time>
      </trkpt>
      <trkpt lat="49.06161" lon="7.31086">
        <ele>348.13</ele>
        <time>2021-07-21T17:21:51Z</time>
      </trkpt>
      <trkpt lat="49.06242" lon="7.31093">
        <ele>344.77</ele>
        <time>2021-07-21T17:21:59Z</time>
      </trkpt>
      <trkpt lat="49.06403" lon="7.31104">
        <ele>343.33</ele>
        <time>2021-07-21T17:22:09Z</time>
      </trkpt>
      <trkpt lat="49.06403" lon="7.31104">
        <ele>343.81</ele>
        <time>2021-07-21T17:22:10Z</time>
      </trkpt>
      <trkpt lat="49.06418" lon="7.31096">
        <ele>344.29</ele>
        <time>2021-07-21T17:22:11Z</time>
      </trkpt>
      <trkpt lat="49.06433" lon="7.31088">
        <ele>344.77</ele>
        <time>2021-07-21T17:22:12Z</time>
      </trkpt>
      <trkpt lat="49.06464" lon="7.31064">
        <ele>344.77</ele>
        <time>2021-07-21T17:22:13Z</time>
      </trkpt>
      <trkpt lat="49.06464" lon="7.31064">
        <ele>345.25</ele>
        <time>2021-07-21T17:22:14Z</time>
      </trkpt>
      <trkpt lat="49.06476" lon="7.31049">
        <ele>345.25</ele>
        <time>2021-07-21T17:22:15Z</time>
      </trkpt>
      <trkpt lat="49.06489" lon="7.31034">
        <ele>345.25</ele>
        <time>2021-07-21T17:22:16Z</time>
      </trkpt>
      <trkpt lat="49.06501" lon="7.3102">
        <ele>346.21</ele>
        <time>2021-07-21T17:22:17Z</time>
      </trkpt>
      <trkpt lat="49.06519" lon="7.30984">
        <ele>346.21</ele>
        <time>2021-07-21T17:22:18Z</time>
      </trkpt>
      <trkpt lat="49.06519" lon="7.30984">
        <ele>345.73</ele>
        <time>2021-07-21T17:22:19Z</time>
      </trkpt>
      <trkpt lat="49.06643" lon="7.30722">
        <ele>344.29</ele>
        <time>2021-07-21T17:22:32Z</time>
      </trkpt>
      <trkpt lat="49.06728" lon="7.3061">
        <ele>339.48</ele>
        <time>2021-07-21T17:22:39Z</time>
      </trkpt>
      <trkpt lat="49.07007" lon="7.30363">
        <ele>327.95</ele>
        <time>2021-07-21T17:22:58Z</time>
      </trkpt>
      <trkpt lat="49.07107" lon="7.30229">
        <ele>322.18</ele>
        <time>2021-07-21T17:23:07Z</time>
      </trkpt>
      <trkpt lat="49.07191" lon="7.30115">
        <ele>322.66</ele>
        <time>2021-07-21T17:23:15Z</time>
      </trkpt>
      <trkpt lat="49.07199" lon="7.30099">
        <ele>321.7</ele>
        <time>2021-07-21T17:23:16Z</time>
      </trkpt>
      <trkpt lat="49.07203" lon="7.3008">
        <ele>321.22</ele>
        <time>2021-07-21T17:23:17Z</time>
      </trkpt>
      <trkpt lat="49.07245" lon="7.29898">
        <ele>316.41</ele>
        <time>2021-07-21T17:23:26Z</time>
      </trkpt>
      <trkpt lat="49.07254" lon="7.2986">
        <ele>316.89</ele>
        <time>2021-07-21T17:23:28Z</time>
      </trkpt>
      <trkpt lat="49.0726" lon="7.29845">
        <ele>317.37</ele>
        <time>2021-07-21T17:23:29Z</time>
      </trkpt>
      <trkpt lat="49.07267" lon="7.2983">
        <ele>318.33</ele>
        <time>2021-07-21T17:23:30Z</time>
      </trkpt>
      <trkpt lat="49.07273" lon="7.29819">
        <ele>318.33</ele>
        <time>2021-07-21T17:23:31Z</time>
      </trkpt>
      <trkpt lat="49.07282" lon="7.29806">
        <ele>318.81</ele>
        <time>2021-07-21T17:23:32Z</time>
      </trkpt>
      <trkpt lat="49.0729" lon="7.29795">
        <ele>319.3</ele>
        <time>2021-07-21T17:23:33Z</time>
      </trkpt>
      <trkpt lat="49.07299" lon="7.29787">
        <ele>320.26</ele>
        <time>2021-07-21T17:23:34Z</time>
      </trkpt>
      <trkpt lat="49.07354" lon="7.29751">
        <ele>323.14</ele>
        <time>2021-07-21T17:23:41Z</time>
      </trkpt>
      <trkpt lat="49.0736" lon="7.29749">
        <ele>323.14</ele>
        <time>2021-07-21T17:23:42Z</time>
      </trkpt>
      <trkpt lat="49.07401" lon="7.29749">
        <ele>321.7</ele>
        <time>2021-07-21T17:23:48Z</time>
      </trkpt>
      <trkpt lat="49.0741" lon="7.29749">
        <ele>321.7</ele>
        <time>2021-07-21T17:23:49Z</time>
      </trkpt>
      <trkpt lat="49.07427" lon="7.29751">
        <ele>320.26</ele>
        <time>2021-07-21T17:23:51Z</time>
      </trkpt>
      <trkpt lat="49.07437" lon="7.29753">
        <ele>320.26</ele>
        <time>2021-07-21T17:23:52Z</time>
      </trkpt>
      <trkpt lat="49.07447" lon="7.29753">
        <ele>320.74</ele>
        <time>2021-07-21T17:23:53Z</time>
      </trkpt>
      <trkpt lat="49.07456" lon="7.29749">
        <ele>321.22</ele>
        <time>2021-07-21T17:23:54Z</time>
      </trkpt>
      <trkpt lat="49.07465" lon="7.29746">
        <ele>321.22</ele>
        <time>2021-07-21T17:23:55Z</time>
      </trkpt>
      <trkpt lat="49.07472" lon="7.2974">
        <ele>322.18</ele>
        <time>2021-07-21T17:23:56Z</time>
      </trkpt>
      <trkpt lat="49.07478" lon="7.29728">
        <ele>321.7</ele>
        <time>2021-07-21T17:23:57Z</time>
      </trkpt>
      <trkpt lat="49.07486" lon="7.29706">
        <ele>321.22</ele>
        <time>2021-07-21T17:23:58Z</time>
      </trkpt>
      <trkpt lat="49.07486" lon="7.29706">
        <ele>320.26</ele>
        <time>2021-07-21T17:23:59Z</time>
      </trkpt>
      <trkpt lat="49.07487" lon="7.29677">
        <ele>320.26</ele>
        <time>2021-07-21T17:24:00Z</time>
      </trkpt>
      <trkpt lat="49.07487" lon="7.29677">
        <ele>320.26</ele>
        <time>2021-07-21T17:24:01Z</time>
      </trkpt>
      <trkpt lat="49.07485" lon="7.29661">
        <ele>319.78</ele>
        <time>2021-07-21T17:24:02Z</time>
      </trkpt>
      <trkpt lat="49.07483" lon="7.29644">
        <ele>320.26</ele>
        <time>2021-07-21T17:24:03Z</time>
      </trkpt>
      <trkpt lat="49.07458" lon="7.29469">
        <ele>319.78</ele>
        <time>2021-07-21T17:24:13Z</time>
      </trkpt>
      <trkpt lat="49.07458" lon="7.29429">
        <ele>319.78</ele>
        <time>2021-07-21T17:24:14Z</time>
      </trkpt>
      <trkpt lat="49.07458" lon="7.29429">
        <ele>321.22</ele>
        <time>2021-07-21T17:24:15Z</time>
      </trkpt>
      <trkpt lat="49.0746" lon="7.29409">
        <ele>320.74</ele>
        <time>2021-07-21T17:24:16Z</time>
      </trkpt>
      <trkpt lat="49.07463" lon="7.29389">
        <ele>322.66</ele>
        <time>2021-07-21T17:24:17Z</time>
      </trkpt>
      <trkpt lat="49.07478" lon="7.29354">
        <ele>324.1</ele>
        <time>2021-07-21T17:24:18Z</time>
      </trkpt>
      <trkpt lat="49.07478" lon="7.29354">
        <ele>324.1</ele>
        <time>2021-07-21T17:24:19Z</time>
      </trkpt>
      <trkpt lat="49.07486" lon="7.29338">
        <ele>323.62</ele>
        <time>2021-07-21T17:24:20Z</time>
      </trkpt>
      <trkpt lat="49.07624" lon="7.29103">
        <ele>311.6</ele>
        <time>2021-07-21T17:24:35Z</time>
      </trkpt>
      <trkpt lat="49.07644" lon="7.29074">
        <ele>311.6</ele>
        <time>2021-07-21T17:24:37Z</time>
      </trkpt>
      <trkpt lat="49.0765" lon="7.29058">
        <ele>312.57</ele>
        <time>2021-07-21T17:24:38Z</time>
      </trkpt>
      <trkpt lat="49.07656" lon="7.29042">
        <ele>313.05</ele>
        <time>2021-07-21T17:24:39Z</time>
      </trkpt>
      <trkpt lat="49.07697" lon="7.28934">
        <ele>317.85</ele>
        <time>2021-07-21T17:24:45Z</time>
      </trkpt>
      <trkpt lat="49.07703" lon="7.28923">
        <ele>317.85</ele>
        <time>2021-07-21T17:24:46Z</time>
      </trkpt>
      <trkpt lat="49.0771" lon="7.28913">
        <ele>317.37</ele>
        <time>2021-07-21T17:24:47Z</time>
      </trkpt>
      <trkpt lat="49.07787" lon="7.28799">
        <ele>315.45</ele>
        <time>2021-07-21T17:24:58Z</time>
      </trkpt>
      <trkpt lat="49.07903" lon="7.28629">
        <ele>311.6</ele>
        <time>2021-07-21T17:25:11Z</time>
      </trkpt>
      <trkpt lat="49.07912" lon="7.28621">
        <ele>312.09</ele>
        <time>2021-07-21T17:25:12Z</time>
      </trkpt>
      <trkpt lat="49.07953" lon="7.28599">
        <ele>313.05</ele>
        <time>2021-07-21T17:25:17Z</time>
      </trkpt>
      <trkpt lat="49.07963" lon="7.28593">
        <ele>312.09</ele>
        <time>2021-07-21T17:25:18Z</time>
      </trkpt>
      <trkpt lat="49.07973" lon="7.2859">
        <ele>312.09</ele>
        <time>2021-07-21T17:25:19Z</time>
      </trkpt>
      <trkpt lat="49.08061" lon="7.2857">
        <ele>313.05</ele>
        <time>2021-07-21T17:25:26Z</time>
      </trkpt>
      <trkpt lat="49.08061" lon="7.2857">
        <ele>312.57</ele>
        <time>2021-07-21T17:25:27Z</time>
      </trkpt>
      <trkpt lat="49.08196" lon="7.28478">
        <ele>309.68</ele>
        <time>2021-07-21T17:25:38Z</time>
      </trkpt>
      <trkpt lat="49.08477" lon="7.2828">
        <ele>307.76</ele>
        <time>2021-07-21T17:25:58Z</time>
      </trkpt>
      <trkpt lat="49.08806" lon="7.28048">
        <ele>305.36</ele>
        <time>2021-07-21T17:26:20Z</time>
      </trkpt>
      <trkpt lat="49.09103" lon="7.2784">
        <ele>302.47</ele>
        <time>2021-07-21T17:26:41Z</time>
      </trkpt>
      <trkpt lat="49.09193" lon="7.27776">
        <ele>303.43</ele>
        <time>2021-07-21T17:26:49Z</time>
      </trkpt>
      <trkpt lat="49.09219" lon="7.27756">
        <ele>302.95</ele>
        <time>2021-07-21T17:26:56Z</time>
      </trkpt>
      <trkpt lat="49.09219" lon="7.27756">
        <ele>302.47</ele>
        <time>2021-07-21T17:27:05Z</time>
      </trkpt>
      <trkpt lat="49.09219" lon="7.27756">
        <ele>302.47</ele>
        <time>2021-07-21T17:27:06Z</time>
      </trkpt>
      <trkpt lat="49.09219" lon="7.27751">
        <ele>302.47</ele>
        <time>2021-07-21T17:27:07Z</time>
      </trkpt>
      <trkpt lat="49.09219" lon="7.27743">
        <ele>301.99</ele>
        <time>2021-07-21T17:27:08Z</time>
      </trkpt>
      <trkpt lat="49.09217" lon="7.27727">
        <ele>302.47</ele>
        <time>2021-07-21T17:27:09Z</time>
      </trkpt>
      <trkpt lat="49.09214" lon="7.27721">
        <ele>302.47</ele>
        <time>2021-07-21T17:27:10Z</time>
      </trkpt>
      <trkpt lat="49.09214" lon="7.27721">
        <ele>302.95</ele>
        <time>2021-07-21T17:27:11Z</time>
      </trkpt>
      <trkpt lat="49.0921" lon="7.27715">
        <ele>302.95</ele>
        <time>2021-07-21T17:27:12Z</time>
      </trkpt>
      <trkpt lat="49.09205" lon="7.27709">
        <ele>303.43</ele>
        <time>2021-07-21T17:27:13Z</time>
      </trkpt>
      <trkpt lat="49.09199" lon="7.27702">
        <ele>303.91</ele>
        <time>2021-07-21T17:27:14Z</time>
      </trkpt>
      <trkpt lat="49.09184" lon="7.27697">
        <ele>304.39</ele>
        <time>2021-07-21T17:27:15Z</time>
      </trkpt>
      <trkpt lat="49.09184" lon="7.27697">
        <ele>304.39</ele>
        <time>2021-07-21T17:27:16Z</time>
      </trkpt>
      <trkpt lat="49.09175" lon="7.27695">
        <ele>304.88</ele>
        <time>2021-07-21T17:27:17Z</time>
      </trkpt>
      <trkpt lat="49.09146" lon="7.27687">
        <ele>305.36</ele>
        <time>2021-07-21T17:27:20Z</time>
      </trkpt>
      <trkpt lat="49.09137" lon="7.2768">
        <ele>305.36</ele>
        <time>2021-07-21T17:27:21Z</time>
      </trkpt>
      <trkpt lat="49.0912" lon="7.27667">
        <ele>305.84</ele>
        <time>2021-07-21T17:27:22Z</time>
      </trkpt>
      <trkpt lat="49.09111" lon="7.27656">
        <ele>304.88</ele>
        <time>2021-07-21T17:27:23Z</time>
      </trkpt>
      <trkpt lat="49.09104" lon="7.27641">
        <ele>305.36</ele>
        <time>2021-07-21T17:27:24Z</time>
      </trkpt>
      <trkpt lat="49.09095" lon="7.27624">
        <ele>305.84</ele>
        <time>2021-07-21T17:27:25Z</time>
      </trkpt>
      <trkpt lat="49.09014" lon="7.2747">
        <ele>309.2</ele>
        <time>2021-07-21T17:27:34Z</time>
      </trkpt>
      <trkpt lat="49.08915" lon="7.272">
        <ele>312.09</ele>
        <time>2021-07-21T17:27:44Z</time>
      </trkpt>
      <trkpt lat="49.08841" lon="7.26835">
        <ele>321.7</ele>
        <time>2021-07-21T17:27:56Z</time>
      </trkpt>
      <trkpt lat="49.08817" lon="7.26501">
        <ele>336.6</ele>
        <time>2021-07-21T17:28:07Z</time>
      </trkpt>
      <trkpt lat="49.08838" lon="7.26168">
        <ele>353.42</ele>
        <time>2021-07-21T17:28:19Z</time>
      </trkpt>
      <trkpt lat="49.08895" lon="7.2585">
        <ele>367.84</ele>
        <time>2021-07-21T17:28:31Z</time>
      </trkpt>
      <trkpt lat="49.09003" lon="7.25525">
        <ele>375.53</ele>
        <time>2021-07-21T17:28:44Z</time>
      </trkpt>
      <trkpt lat="49.09139" lon="7.25256">
        <ele>377.45</ele>
        <time>2021-07-21T17:28:55Z</time>
      </trkpt>
      <trkpt lat="49.09393" lon="7.2485">
        <ele>372.65</ele>
        <time>2021-07-21T17:29:13Z</time>
      </trkpt>
      <trkpt lat="49.09683" lon="7.24391">
        <ele>367.36</ele>
        <time>2021-07-21T17:29:33Z</time>
      </trkpt>
      <trkpt lat="49.09983" lon="7.23892">
        <ele>364</ele>
        <time>2021-07-21T17:29:53Z</time>
      </trkpt>
      <trkpt lat="49.10085" lon="7.23626">
        <ele>363.52</ele>
        <time>2021-07-21T17:30:02Z</time>
      </trkpt>
      <trkpt lat="49.10151" lon="7.23305">
        <ele>365.44</ele>
        <time>2021-07-21T17:30:12Z</time>
      </trkpt>
      <trkpt lat="49.10167" lon="7.22976">
        <ele>366.88</ele>
        <time>2021-07-21T17:30:22Z</time>
      </trkpt>
      <trkpt lat="49.10139" lon="7.22696">
        <ele>367.84</ele>
        <time>2021-07-21T17:30:31Z</time>
      </trkpt>
      <trkpt lat="49.10076" lon="7.22423">
        <ele>368.32</ele>
        <time>2021-07-21T17:30:43Z</time>
      </trkpt>
      <trkpt lat="49.09981" lon="7.22188">
        <ele>367.36</ele>
        <time>2021-07-21T17:30:54Z</time>
      </trkpt>
      <trkpt lat="49.09832" lon="7.21895">
        <ele>362.55</ele>
        <time>2021-07-21T17:31:06Z</time>
      </trkpt>
      <trkpt lat="49.09601" lon="7.21453">
        <ele>354.38</ele>
        <time>2021-07-21T17:31:22Z</time>
      </trkpt>
      <trkpt lat="49.0945" lon="7.21105">
        <ele>350.54</ele>
        <time>2021-07-21T17:31:33Z</time>
      </trkpt>
      <trkpt lat="49.09362" lon="7.2076">
        <ele>347.65</ele>
        <time>2021-07-21T17:31:43Z</time>
      </trkpt>
      <trkpt lat="49.09298" lon="7.20254">
        <ele>345.73</ele>
        <time>2021-07-21T17:31:57Z</time>
      </trkpt>
      <trkpt lat="49.09286" lon="7.19924">
        <ele>343.81</ele>
        <time>2021-07-21T17:32:06Z</time>
      </trkpt>
      <trkpt lat="49.09266" lon="7.19676">
        <ele>342.37</ele>
        <time>2021-07-21T17:32:13Z</time>
      </trkpt>
      <trkpt lat="49.09248" lon="7.19537">
        <ele>339</ele>
        <time>2021-07-21T17:32:20Z</time>
      </trkpt>
      <trkpt lat="49.09248" lon="7.19537">
        <ele>339</ele>
        <time>2021-07-21T17:32:21Z</time>
      </trkpt>
      <trkpt lat="49.09246" lon="7.1953">
        <ele>339.48</ele>
        <time>2021-07-21T17:32:22Z</time>
      </trkpt>
      <trkpt lat="49.09255" lon="7.19518">
        <ele>339.48</ele>
        <time>2021-07-21T17:32:23Z</time>
      </trkpt>
      <trkpt lat="49.09267" lon="7.19496">
        <ele>339.48</ele>
        <time>2021-07-21T17:32:25Z</time>
      </trkpt>
      <trkpt lat="49.09267" lon="7.19496">
        <ele>339.48</ele>
        <time>2021-07-21T17:32:26Z</time>
      </trkpt>
      <trkpt lat="49.09268" lon="7.19471">
        <ele>339.48</ele>
        <time>2021-07-21T17:32:27Z</time>
      </trkpt>
      <trkpt lat="49.09264" lon="7.1946">
        <ele>339.48</ele>
        <time>2021-07-21T17:32:28Z</time>
      </trkpt>
      <trkpt lat="49.09264" lon="7.1946">
        <ele>339.48</ele>
        <time>2021-07-21T17:32:29Z</time>
      </trkpt>
      <trkpt lat="49.09259" lon="7.19455">
        <ele>339.48</ele>
        <time>2021-07-21T17:32:30Z</time>
      </trkpt>
      <trkpt lat="49.09254" lon="7.1945">
        <ele>339.48</ele>
        <time>2021-07-21T17:32:31Z</time>
      </trkpt>
      <trkpt lat="49.09246" lon="7.1945">
        <ele>339.48</ele>
        <time>2021-07-21T17:32:32Z</time>
      </trkpt>
      <trkpt lat="49.09239" lon="7.1945">
        <ele>339.48</ele>
        <time>2021-07-21T17:32:33Z</time>
      </trkpt>
      <trkpt lat="49.09234" lon="7.1945">
        <ele>339.48</ele>
        <time>2021-07-21T17:32:34Z</time>
      </trkpt>
      <trkpt lat="49.09224" lon="7.19436">
        <ele>339.48</ele>
        <time>2021-07-21T17:32:35Z</time>
      </trkpt>
      <trkpt lat="49.09222" lon="7.19426">
        <ele>339</ele>
        <time>2021-07-21T17:32:36Z</time>
      </trkpt>
      <trkpt lat="49.09219" lon="7.19415">
        <ele>339</ele>
        <time>2021-07-21T17:32:37Z</time>
      </trkpt>
      <trkpt lat="49.09217" lon="7.19403">
        <ele>338.52</ele>
        <time>2021-07-21T17:32:38Z</time>
      </trkpt>
      <trkpt lat="49.09215" lon="7.19392">
        <ele>338.04</ele>
        <time>2021-07-21T17:32:39Z</time>
      </trkpt>
      <trkpt lat="49.09214" lon="7.19379">
        <ele>337.56</ele>
        <time>2021-07-21T17:32:40Z</time>
      </trkpt>
      <trkpt lat="49.09214" lon="7.19366">
        <ele>337.56</ele>
        <time>2021-07-21T17:32:41Z</time>
      </trkpt>
      <trkpt lat="49.09212" lon="7.19337">
        <ele>336.6</ele>
        <time>2021-07-21T17:32:44Z</time>
      </trkpt>
      <trkpt lat="49.09205" lon="7.19245">
        <ele>334.2</ele>
        <time>2021-07-21T17:32:51Z</time>
      </trkpt>
      <trkpt lat="49.09172" lon="7.19119">
        <ele>330.35</ele>
        <time>2021-07-21T17:32:59Z</time>
      </trkpt>
      <trkpt lat="49.0913" lon="7.18942">
        <ele>322.18</ele>
        <time>2021-07-21T17:33:07Z</time>
      </trkpt>
      <trkpt lat="49.09126" lon="7.1892">
        <ele>322.66</ele>
        <time>2021-07-21T17:33:08Z</time>
      </trkpt>
      <trkpt lat="49.09116" lon="7.18883">
        <ele>323.62</ele>
        <time>2021-07-21T17:33:09Z</time>
      </trkpt>
      <trkpt lat="49.09077" lon="7.18799">
        <ele>321.22</ele>
        <time>2021-07-21T17:33:16Z</time>
      </trkpt>
      <trkpt lat="49.09059" lon="7.1876">
        <ele>320.26</ele>
        <time>2021-07-21T17:33:22Z</time>
      </trkpt>
      <trkpt lat="49.09059" lon="7.1876">
        <ele>319.3</ele>
        <time>2021-07-21T17:33:23Z</time>
      </trkpt>
      <trkpt lat="49.09058" lon="7.18759">
        <ele>319.3</ele>
        <time>2021-07-21T17:33:24Z</time>
      </trkpt>
      <trkpt lat="49.09058" lon="7.18759">
        <ele>319.3</ele>
        <time>2021-07-21T17:33:25Z</time>
      </trkpt>
      <trkpt lat="49.09059" lon="7.18761">
        <ele>318.81</ele>
        <time>2021-07-21T17:33:37Z</time>
      </trkpt>
      <trkpt lat="49.09059" lon="7.18761">
        <ele>319.3</ele>
        <time>2021-07-21T17:33:44Z</time>
      </trkpt>
      <trkpt lat="49.09059" lon="7.18762">
        <ele>319.3</ele>
        <time>2021-07-21T17:33:45Z</time>
      </trkpt>
      <trkpt lat="49.09061" lon="7.18764">
        <ele>319.3</ele>
        <time>2021-07-21T17:33:46Z</time>
      </trkpt>
      <trkpt lat="49.09066" lon="7.18773">
        <ele>320.26</ele>
        <time>2021-07-21T17:33:50Z</time>
      </trkpt>
      <trkpt lat="49.09104" lon="7.18857">
        <ele>323.14</ele>
        <time>2021-07-21T17:33:58Z</time>
      </trkpt>
      <trkpt lat="49.0914" lon="7.18995">
        <ele>326.02</ele>
        <time>2021-07-21T17:34:05Z</time>
      </trkpt>
      <trkpt lat="49.09149" lon="7.19038">
        <ele>327.47</ele>
        <time>2021-07-21T17:34:07Z</time>
      </trkpt>
      <trkpt lat="49.092" lon="7.19213">
        <ele>335.16</ele>
        <time>2021-07-21T17:34:15Z</time>
      </trkpt>
      <trkpt lat="49.09204" lon="7.19237">
        <ele>335.64</ele>
        <time>2021-07-21T17:34:16Z</time>
      </trkpt>
      <trkpt lat="49.09207" lon="7.1926">
        <ele>335.64</ele>
        <time>2021-07-21T17:34:17Z</time>
      </trkpt>
      <trkpt lat="49.09222" lon="7.19427">
        <ele>341.41</ele>
        <time>2021-07-21T17:34:25Z</time>
      </trkpt>
      <trkpt lat="49.09224" lon="7.19439">
        <ele>342.37</ele>
        <time>2021-07-21T17:34:26Z</time>
      </trkpt>
      <trkpt lat="49.09226" lon="7.19449">
        <ele>342.85</ele>
        <time>2021-07-21T17:34:27Z</time>
      </trkpt>
      <trkpt lat="49.09228" lon="7.19459">
        <ele>343.33</ele>
        <time>2021-07-21T17:34:28Z</time>
      </trkpt>
      <trkpt lat="49.0922" lon="7.19482">
        <ele>344.77</ele>
        <time>2021-07-21T17:34:30Z</time>
      </trkpt>
      <trkpt lat="49.09222" lon="7.19496">
        <ele>344.77</ele>
        <time>2021-07-21T17:34:31Z</time>
      </trkpt>
      <trkpt lat="49.09225" lon="7.19505">
        <ele>345.25</ele>
        <time>2021-07-21T17:34:32Z</time>
      </trkpt>
      <trkpt lat="49.0923" lon="7.19513">
        <ele>344.29</ele>
        <time>2021-07-21T17:34:33Z</time>
      </trkpt>
      <trkpt lat="49.09236" lon="7.19518">
        <ele>343.81</ele>
        <time>2021-07-21T17:34:34Z</time>
      </trkpt>
      <trkpt lat="49.09243" lon="7.19523">
        <ele>343.81</ele>
        <time>2021-07-21T17:34:35Z</time>
      </trkpt>
      <trkpt lat="49.09251" lon="7.19521">
        <ele>343.33</ele>
        <time>2021-07-21T17:34:36Z</time>
      </trkpt>
      <trkpt lat="49.09258" lon="7.19515">
        <ele>342.85</ele>
        <time>2021-07-21T17:34:37Z</time>
      </trkpt>
      <trkpt lat="49.09264" lon="7.19506">
        <ele>342.37</ele>
        <time>2021-07-21T17:34:38Z</time>
      </trkpt>
      <trkpt lat="49.09267" lon="7.19495">
        <ele>341.89</ele>
        <time>2021-07-21T17:34:39Z</time>
      </trkpt>
      <trkpt lat="49.09271" lon="7.19481">
        <ele>341.41</ele>
        <time>2021-07-21T17:34:40Z</time>
      </trkpt>
      <trkpt lat="49.09268" lon="7.19469">
        <ele>341.41</ele>
        <time>2021-07-21T17:34:41Z</time>
      </trkpt>
      <trkpt lat="49.09267" lon="7.19463">
        <ele>341.41</ele>
        <time>2021-07-21T17:34:42Z</time>
      </trkpt>
      <trkpt lat="49.09258" lon="7.19436">
        <ele>340.92</ele>
        <time>2021-07-21T17:34:43Z</time>
      </trkpt>
      <trkpt lat="49.09263" lon="7.1942">
        <ele>339.96</ele>
        <time>2021-07-21T17:34:44Z</time>
      </trkpt>
      <trkpt lat="49.09307" lon="7.19277">
        <ele>340.92</ele>
        <time>2021-07-21T17:34:52Z</time>
      </trkpt>
      <trkpt lat="49.09391" lon="7.19014">
        <ele>342.37</ele>
        <time>2021-07-21T17:35:02Z</time>
      </trkpt>
      <trkpt lat="49.09554" lon="7.18546">
        <ele>338.52</ele>
        <time>2021-07-21T17:35:20Z</time>
      </trkpt>
      <trkpt lat="49.09801" lon="7.17821">
        <ele>341.89</ele>
        <time>2021-07-21T17:35:45Z</time>
      </trkpt>
      <trkpt lat="49.09894" lon="7.17548">
        <ele>344.77</ele>
        <time>2021-07-21T17:35:56Z</time>
      </trkpt>
      <trkpt lat="49.0999" lon="7.1727">
        <ele>344.77</ele>
        <time>2021-07-21T17:36:08Z</time>
      </trkpt>
      <trkpt lat="49.10015" lon="7.17198">
        <ele>344.29</ele>
        <time>2021-07-21T17:36:15Z</time>
      </trkpt>
      <trkpt lat="49.10017" lon="7.17192">
        <ele>344.29</ele>
        <time>2021-07-21T17:36:16Z</time>
      </trkpt>
      <trkpt lat="49.10025" lon="7.17191">
        <ele>344.29</ele>
        <time>2021-07-21T17:36:17Z</time>
      </trkpt>
      <trkpt lat="49.10029" lon="7.17191">
        <ele>343.81</ele>
        <time>2021-07-21T17:36:18Z</time>
      </trkpt>
      <trkpt lat="49.10038" lon="7.17186">
        <ele>343.33</ele>
        <time>2021-07-21T17:36:19Z</time>
      </trkpt>
      <trkpt lat="49.10041" lon="7.17173">
        <ele>342.85</ele>
        <time>2021-07-21T17:36:20Z</time>
      </trkpt>
      <trkpt lat="49.10041" lon="7.17165">
        <ele>342.37</ele>
        <time>2021-07-21T17:36:21Z</time>
      </trkpt>
      <trkpt lat="49.10041" lon="7.17158">
        <ele>342.37</ele>
        <time>2021-07-21T17:36:22Z</time>
      </trkpt>
      <trkpt lat="49.10039" lon="7.1714">
        <ele>341.89</ele>
        <time>2021-07-21T17:36:23Z</time>
      </trkpt>
      <trkpt lat="49.10043" lon="7.17131">
        <ele>341.41</ele>
        <time>2021-07-21T17:36:24Z</time>
      </trkpt>
      <trkpt lat="49.10047" lon="7.17119">
        <ele>340.92</ele>
        <time>2021-07-21T17:36:25Z</time>
      </trkpt>
      <trkpt lat="49.10112" lon="7.16979">
        <ele>337.08</ele>
        <time>2021-07-21T17:36:34Z</time>
      </trkpt>
      <trkpt lat="49.10225" lon="7.16765">
        <ele>332.75</ele>
        <time>2021-07-21T17:36:44Z</time>
      </trkpt>
      <trkpt lat="49.10391" lon="7.16424">
        <ele>321.7</ele>
        <time>2021-07-21T17:36:58Z</time>
      </trkpt>
      <trkpt lat="49.1058" lon="7.15827">
        <ele>329.87</ele>
        <time>2021-07-21T17:37:19Z</time>
      </trkpt>
      <trkpt lat="49.10602" lon="7.15704">
        <ele>329.39</ele>
        <time>2021-07-21T17:37:23Z</time>
      </trkpt>
      <trkpt lat="49.10604" lon="7.15673">
        <ele>329.39</ele>
        <time>2021-07-21T17:37:24Z</time>
      </trkpt>
      <trkpt lat="49.10623" lon="7.15393">
        <ele>322.66</ele>
        <time>2021-07-21T17:37:33Z</time>
      </trkpt>
      <trkpt lat="49.10662" lon="7.15208">
        <ele>319.78</ele>
        <time>2021-07-21T17:37:40Z</time>
      </trkpt>
      <trkpt lat="49.10665" lon="7.15181">
        <ele>319.78</ele>
        <time>2021-07-21T17:37:41Z</time>
      </trkpt>
      <trkpt lat="49.10667" lon="7.15155">
        <ele>319.78</ele>
        <time>2021-07-21T17:37:42Z</time>
      </trkpt>
      <trkpt lat="49.10666" lon="7.15129">
        <ele>319.3</ele>
        <time>2021-07-21T17:37:43Z</time>
      </trkpt>
      <trkpt lat="49.10663" lon="7.15102">
        <ele>318.81</ele>
        <time>2021-07-21T17:37:44Z</time>
      </trkpt>
      <trkpt lat="49.1066" lon="7.15074">
        <ele>318.81</ele>
        <time>2021-07-21T17:37:45Z</time>
      </trkpt>
      <trkpt lat="49.10656" lon="7.15048">
        <ele>318.33</ele>
        <time>2021-07-21T17:37:46Z</time>
      </trkpt>
      <trkpt lat="49.1065" lon="7.15023">
        <ele>317.85</ele>
        <time>2021-07-21T17:37:47Z</time>
      </trkpt>
      <trkpt lat="49.10644" lon="7.15">
        <ele>317.37</ele>
        <time>2021-07-21T17:37:48Z</time>
      </trkpt>
      <trkpt lat="49.10636" lon="7.14978">
        <ele>316.41</ele>
        <time>2021-07-21T17:37:49Z</time>
      </trkpt>
      <trkpt lat="49.10584" lon="7.14768">
        <ele>309.68</ele>
        <time>2021-07-21T17:37:58Z</time>
      </trkpt>
      <trkpt lat="49.10596" lon="7.14599">
        <ele>304.39</ele>
        <time>2021-07-21T17:38:04Z</time>
      </trkpt>
      <trkpt lat="49.10636" lon="7.14376">
        <ele>301.99</ele>
        <time>2021-07-21T17:38:12Z</time>
      </trkpt>
      <trkpt lat="49.10633" lon="7.1394">
        <ele>289.49</ele>
        <time>2021-07-21T17:38:26Z</time>
      </trkpt>
      <trkpt lat="49.10668" lon="7.13617">
        <ele>283.73</ele>
        <time>2021-07-21T17:38:39Z</time>
      </trkpt>
      <trkpt lat="49.10727" lon="7.13406">
        <ele>278.44</ele>
        <time>2021-07-21T17:38:47Z</time>
      </trkpt>
      <trkpt lat="49.10878" lon="7.12957">
        <ele>274.11</ele>
        <time>2021-07-21T17:39:03Z</time>
      </trkpt>
      <trkpt lat="49.11034" lon="7.12508">
        <ele>271.23</ele>
        <time>2021-07-21T17:39:20Z</time>
      </trkpt>
      <trkpt lat="49.11208" lon="7.12011">
        <ele>264.5</ele>
        <time>2021-07-21T17:39:39Z</time>
      </trkpt>
      <trkpt lat="49.11344" lon="7.11621">
        <ele>253.93</ele>
        <time>2021-07-21T17:39:54Z</time>
      </trkpt>
      <trkpt lat="49.11416" lon="7.11345">
        <ele>252.96</ele>
        <time>2021-07-21T17:40:05Z</time>
      </trkpt>
      <trkpt lat="49.11527" lon="7.1089">
        <ele>251.52</ele>
        <time>2021-07-21T17:40:27Z</time>
      </trkpt>
      <trkpt lat="49.11626" lon="7.10475">
        <ele>241.43</ele>
        <time>2021-07-21T17:40:49Z</time>
      </trkpt>
      <trkpt lat="49.11682" lon="7.10232">
        <ele>236.14</ele>
        <time>2021-07-21T17:41:02Z</time>
      </trkpt>
      <trkpt lat="49.11683" lon="7.10217">
        <ele>236.14</ele>
        <time>2021-07-21T17:41:03Z</time>
      </trkpt>
      <trkpt lat="49.11685" lon="7.10188">
        <ele>235.66</ele>
        <time>2021-07-21T17:41:04Z</time>
      </trkpt>
      <trkpt lat="49.11685" lon="7.10188">
        <ele>235.66</ele>
        <time>2021-07-21T17:41:05Z</time>
      </trkpt>
      <trkpt lat="49.11686" lon="7.10148">
        <ele>235.66</ele>
        <time>2021-07-21T17:41:09Z</time>
      </trkpt>
      <trkpt lat="49.11687" lon="7.10139">
        <ele>235.66</ele>
        <time>2021-07-21T17:41:10Z</time>
      </trkpt>
      <trkpt lat="49.11689" lon="7.1013">
        <ele>235.66</ele>
        <time>2021-07-21T17:41:11Z</time>
      </trkpt>
      <trkpt lat="49.11693" lon="7.10122">
        <ele>235.18</ele>
        <time>2021-07-21T17:41:12Z</time>
      </trkpt>
      <trkpt lat="49.11697" lon="7.10113">
        <ele>234.7</ele>
        <time>2021-07-21T17:41:13Z</time>
      </trkpt>
      <trkpt lat="49.11701" lon="7.10103">
        <ele>234.7</ele>
        <time>2021-07-21T17:41:14Z</time>
      </trkpt>
      <trkpt lat="49.11705" lon="7.10093">
        <ele>234.7</ele>
        <time>2021-07-21T17:41:15Z</time>
      </trkpt>
      <trkpt lat="49.11705" lon="7.10077">
        <ele>234.7</ele>
        <time>2021-07-21T17:41:16Z</time>
      </trkpt>
      <trkpt lat="49.11705" lon="7.10066">
        <ele>234.22</ele>
        <time>2021-07-21T17:41:17Z</time>
      </trkpt>
      <trkpt lat="49.11704" lon="7.10058">
        <ele>234.7</ele>
        <time>2021-07-21T17:41:18Z</time>
      </trkpt>
      <trkpt lat="49.11709" lon="7.10046">
        <ele>234.22</ele>
        <time>2021-07-21T17:41:19Z</time>
      </trkpt>
      <trkpt lat="49.11713" lon="7.10037">
        <ele>234.22</ele>
        <time>2021-07-21T17:41:20Z</time>
      </trkpt>
      <trkpt lat="49.11717" lon="7.10028">
        <ele>234.22</ele>
        <time>2021-07-21T17:41:21Z</time>
      </trkpt>
      <trkpt lat="49.11721" lon="7.1002">
        <ele>234.22</ele>
        <time>2021-07-21T17:41:22Z</time>
      </trkpt>
      <trkpt lat="49.11725" lon="7.10011">
        <ele>233.74</ele>
        <time>2021-07-21T17:41:23Z</time>
      </trkpt>
      <trkpt lat="49.11732" lon="7.09993">
        <ele>233.74</ele>
        <time>2021-07-21T17:41:24Z</time>
      </trkpt>
      <trkpt lat="49.11732" lon="7.09993">
        <ele>233.26</ele>
        <time>2021-07-21T17:41:25Z</time>
      </trkpt>
      <trkpt lat="49.11736" lon="7.09983">
        <ele>232.78</ele>
        <time>2021-07-21T17:41:26Z</time>
      </trkpt>
      <trkpt lat="49.11744" lon="7.0996">
        <ele>232.3</ele>
        <time>2021-07-21T17:41:27Z</time>
      </trkpt>
      <trkpt lat="49.11744" lon="7.0996">
        <ele>232.78</ele>
        <time>2021-07-21T17:41:28Z</time>
      </trkpt>
      <trkpt lat="49.1179" lon="7.09765">
        <ele>228.93</ele>
        <time>2021-07-21T17:41:40Z</time>
      </trkpt>
      <trkpt lat="49.11857" lon="7.09481">
        <ele>228.93</ele>
        <time>2021-07-21T17:41:57Z</time>
      </trkpt>
      <trkpt lat="49.11923" lon="7.09163">
        <ele>227.49</ele>
        <time>2021-07-21T17:42:15Z</time>
      </trkpt>
      <trkpt lat="49.11944" lon="7.09048">
        <ele>225.57</ele>
        <time>2021-07-21T17:42:22Z</time>
      </trkpt>
      <trkpt lat="49.11949" lon="7.09036">
        <ele>226.53</ele>
        <time>2021-07-21T17:42:23Z</time>
      </trkpt>
      <trkpt lat="49.11956" lon="7.09023">
        <ele>227.49</ele>
        <time>2021-07-21T17:42:24Z</time>
      </trkpt>
      <trkpt lat="49.11961" lon="7.09011">
        <ele>228.93</ele>
        <time>2021-07-21T17:42:25Z</time>
      </trkpt>
      <trkpt lat="49.11969" lon="7.09005">
        <ele>229.41</ele>
        <time>2021-07-21T17:42:26Z</time>
      </trkpt>
      <trkpt lat="49.11975" lon="7.08999">
        <ele>229.41</ele>
        <time>2021-07-21T17:42:27Z</time>
      </trkpt>
      <trkpt lat="49.1198" lon="7.08995">
        <ele>229.89</ele>
        <time>2021-07-21T17:42:28Z</time>
      </trkpt>
      <trkpt lat="49.11984" lon="7.08991">
        <ele>229.89</ele>
        <time>2021-07-21T17:42:29Z</time>
      </trkpt>
      <trkpt lat="49.11992" lon="7.08984">
        <ele>228.93</ele>
        <time>2021-07-21T17:42:32Z</time>
      </trkpt>
      <trkpt lat="49.12" lon="7.08977">
        <ele>228.93</ele>
        <time>2021-07-21T17:42:33Z</time>
      </trkpt>
      <trkpt lat="49.12" lon="7.08977">
        <ele>228.45</ele>
        <time>2021-07-21T17:42:34Z</time>
      </trkpt>
      <trkpt lat="49.12002" lon="7.08966">
        <ele>228.45</ele>
        <time>2021-07-21T17:42:35Z</time>
      </trkpt>
      <trkpt lat="49.12004" lon="7.08956">
        <ele>227.97</ele>
        <time>2021-07-21T17:42:36Z</time>
      </trkpt>
      <trkpt lat="49.12004" lon="7.08947">
        <ele>227.97</ele>
        <time>2021-07-21T17:42:37Z</time>
      </trkpt>
      <trkpt lat="49.12002" lon="7.08936">
        <ele>227.97</ele>
        <time>2021-07-21T17:42:38Z</time>
      </trkpt>
      <trkpt lat="49.11984" lon="7.08836">
        <ele>227.01</ele>
        <time>2021-07-21T17:42:46Z</time>
      </trkpt>
      <trkpt lat="49.11982" lon="7.08823">
        <ele>227.49</ele>
        <time>2021-07-21T17:42:47Z</time>
      </trkpt>
      <trkpt lat="49.11977" lon="7.08809">
        <ele>227.01</ele>
        <time>2021-07-21T17:42:48Z</time>
      </trkpt>
      <trkpt lat="49.11919" lon="7.08673">
        <ele>225.09</ele>
        <time>2021-07-21T17:43:01Z</time>
      </trkpt>
      <trkpt lat="49.11902" lon="7.0863">
        <ele>226.05</ele>
        <time>2021-07-21T17:43:10Z</time>
      </trkpt>
      <trkpt lat="49.11898" lon="7.0862">
        <ele>226.05</ele>
        <time>2021-07-21T17:43:33Z</time>
      </trkpt>
      <trkpt lat="49.11867" lon="7.08542">
        <ele>225.57</ele>
        <time>2021-07-21T17:43:44Z</time>
      </trkpt>
      <trkpt lat="49.11825" lon="7.08442">
        <ele>225.57</ele>
        <time>2021-07-21T17:43:56Z</time>
      </trkpt>
      <trkpt lat="49.11773" lon="7.08317">
        <ele>226.05</ele>
        <time>2021-07-21T17:44:06Z</time>
      </trkpt>
      <trkpt lat="49.11745" lon="7.08249">
        <ele>226.53</ele>
        <time>2021-07-21T17:44:13Z</time>
      </trkpt>
      <trkpt lat="49.11716" lon="7.08179">
        <ele>227.49</ele>
        <time>2021-07-21T17:44:24Z</time>
      </trkpt>
      <trkpt lat="49.11705" lon="7.08153">
        <ele>227.49</ele>
        <time>2021-07-21T17:44:34Z</time>
      </trkpt>
      <trkpt lat="49.11698" lon="7.08137">
        <ele>227.49</ele>
        <time>2021-07-21T17:44:44Z</time>
      </trkpt>
      <trkpt lat="49.11688" lon="7.08113">
        <ele>227.97</ele>
        <time>2021-07-21T17:45:12Z</time>
      </trkpt>
      <trkpt lat="49.11666" lon="7.0805">
        <ele>228.93</ele>
        <time>2021-07-21T17:45:20Z</time>
      </trkpt>
      <trkpt lat="49.11666" lon="7.0805">
        <ele>229.41</ele>
        <time>2021-07-21T17:45:42Z</time>
      </trkpt>
      <trkpt lat="49.11656" lon="7.08022">
        <ele>229.41</ele>
        <time>2021-07-21T17:46:15Z</time>
      </trkpt>
      <trkpt lat="49.11626" lon="7.07905">
        <ele>229.89</ele>
        <time>2021-07-21T17:46:24Z</time>
      </trkpt>
      <trkpt lat="49.116" lon="7.07801">
        <ele>229.89</ele>
        <time>2021-07-21T17:46:34Z</time>
      </trkpt>
      <trkpt lat="49.11571" lon="7.07639">
        <ele>227.01</ele>
        <time>2021-07-21T17:46:45Z</time>
      </trkpt>
      <trkpt lat="49.11542" lon="7.07447">
        <ele>220.76</ele>
        <time>2021-07-21T17:46:56Z</time>
      </trkpt>
      <trkpt lat="49.11521" lon="7.07323">
        <ele>214.51</ele>
        <time>2021-07-21T17:47:05Z</time>
      </trkpt>
      <trkpt lat="49.11482" lon="7.07144">
        <ele>211.15</ele>
        <time>2021-07-21T17:47:18Z</time>
      </trkpt>
      <trkpt lat="49.11478" lon="7.07129">
        <ele>211.15</ele>
        <time>2021-07-21T17:47:25Z</time>
      </trkpt>
      <trkpt lat="49.11476" lon="7.0712">
        <ele>211.15</ele>
        <time>2021-07-21T17:47:46Z</time>
      </trkpt>
      <trkpt lat="49.11475" lon="7.07115">
        <ele>211.15</ele>
        <time>2021-07-21T17:47:47Z</time>
      </trkpt>
      <trkpt lat="49.11483" lon="7.07107">
        <ele>211.15</ele>
        <time>2021-07-21T17:47:48Z</time>
      </trkpt>
      <trkpt lat="49.11483" lon="7.07107">
        <ele>211.15</ele>
        <time>2021-07-21T17:47:49Z</time>
      </trkpt>
      <trkpt lat="49.1149" lon="7.071">
        <ele>210.67</ele>
        <time>2021-07-21T17:47:50Z</time>
      </trkpt>
      <trkpt lat="49.1149" lon="7.071">
        <ele>210.19</ele>
        <time>2021-07-21T17:47:51Z</time>
      </trkpt>
      <trkpt lat="49.11549" lon="7.07046">
        <ele>209.22</ele>
        <time>2021-07-21T17:48:03Z</time>
      </trkpt>
      <trkpt lat="49.11613" lon="7.06995">
        <ele>206.82</ele>
        <time>2021-07-21T17:48:13Z</time>
      </trkpt>
      <trkpt lat="49.11619" lon="7.06987">
        <ele>206.34</ele>
        <time>2021-07-21T17:48:14Z</time>
      </trkpt>
      <trkpt lat="49.11623" lon="7.06977">
        <ele>205.86</ele>
        <time>2021-07-21T17:48:15Z</time>
      </trkpt>
      <trkpt lat="49.11632" lon="7.06956">
        <ele>205.86</ele>
        <time>2021-07-21T17:48:16Z</time>
      </trkpt>
      <trkpt lat="49.11632" lon="7.06956">
        <ele>204.42</ele>
        <time>2021-07-21T17:48:17Z</time>
      </trkpt>
      <trkpt lat="49.11636" lon="7.06945">
        <ele>203.94</ele>
        <time>2021-07-21T17:48:18Z</time>
      </trkpt>
      <trkpt lat="49.1164" lon="7.06932">
        <ele>202.98</ele>
        <time>2021-07-21T17:48:19Z</time>
      </trkpt>
      <trkpt lat="49.11667" lon="7.06804">
        <ele>200.57</ele>
        <time>2021-07-21T17:48:27Z</time>
      </trkpt>
      <trkpt lat="49.11666" lon="7.06791">
        <ele>200.57</ele>
        <time>2021-07-21T17:48:28Z</time>
      </trkpt>
      <trkpt lat="49.11666" lon="7.06791">
        <ele>200.57</ele>
        <time>2021-07-21T17:48:29Z</time>
      </trkpt>
      <trkpt lat="49.11664" lon="7.06779">
        <ele>201.05</ele>
        <time>2021-07-21T17:48:30Z</time>
      </trkpt>
      <trkpt lat="49.11661" lon="7.06766">
        <ele>202.01</ele>
        <time>2021-07-21T17:48:31Z</time>
      </trkpt>
      <trkpt lat="49.11626" lon="7.06626">
        <ele>204.9</ele>
        <time>2021-07-21T17:48:41Z</time>
      </trkpt>
      <trkpt lat="49.11624" lon="7.0661">
        <ele>203.46</ele>
        <time>2021-07-21T17:48:42Z</time>
      </trkpt>
      <trkpt lat="49.11623" lon="7.06594">
        <ele>202.98</ele>
        <time>2021-07-21T17:48:43Z</time>
      </trkpt>
      <trkpt lat="49.11623" lon="7.06578">
        <ele>203.94</ele>
        <time>2021-07-21T17:48:44Z</time>
      </trkpt>
      <trkpt lat="49.11627" lon="7.06563">
        <ele>203.94</ele>
        <time>2021-07-21T17:48:45Z</time>
      </trkpt>
      <trkpt lat="49.11632" lon="7.06547">
        <ele>203.94</ele>
        <time>2021-07-21T17:48:46Z</time>
      </trkpt>
      <trkpt lat="49.11637" lon="7.06536">
        <ele>204.9</ele>
        <time>2021-07-21T17:48:47Z</time>
      </trkpt>
      <trkpt lat="49.11644" lon="7.06527">
        <ele>205.86</ele>
        <time>2021-07-21T17:48:48Z</time>
      </trkpt>
      <trkpt lat="49.11649" lon="7.0652">
        <ele>206.34</ele>
        <time>2021-07-21T17:48:49Z</time>
      </trkpt>
      <trkpt lat="49.11706" lon="7.06436">
        <ele>212.11</ele>
        <time>2021-07-21T17:49:00Z</time>
      </trkpt>
      <trkpt lat="49.11709" lon="7.06431">
        <ele>212.11</ele>
        <time>2021-07-21T17:49:01Z</time>
      </trkpt>
      <trkpt lat="49.11709" lon="7.06431">
        <ele>212.11</ele>
        <time>2021-07-21T17:49:02Z</time>
      </trkpt>
      <trkpt lat="49.11711" lon="7.06429">
        <ele>212.11</ele>
        <time>2021-07-21T17:49:17Z</time>
      </trkpt>
      <trkpt lat="49.11725" lon="7.06409">
        <ele>213.07</ele>
        <time>2021-07-21T17:49:57Z</time>
      </trkpt>
      <trkpt lat="49.11774" lon="7.0634">
        <ele>216.43</ele>
        <time>2021-07-21T17:50:05Z</time>
      </trkpt>
      <trkpt lat="49.11872" lon="7.06199">
        <ele>216.43</ele>
        <time>2021-07-21T17:50:18Z</time>
      </trkpt>
      <trkpt lat="49.11984" lon="7.06033">
        <ele>215.47</ele>
        <time>2021-07-21T17:50:32Z</time>
      </trkpt>
      <trkpt lat="49.11997" lon="7.06009">
        <ele>216.91</ele>
        <time>2021-07-21T17:50:35Z</time>
      </trkpt>
      <trkpt lat="49.12003" lon="7.06007">
        <ele>217.4</ele>
        <time>2021-07-21T17:50:36Z</time>
      </trkpt>
      <trkpt lat="49.12018" lon="7.06003">
        <ele>217.88</ele>
        <time>2021-07-21T17:50:38Z</time>
      </trkpt>
      <trkpt lat="49.12018" lon="7.06003">
        <ele>218.36</ele>
        <time>2021-07-21T17:50:39Z</time>
      </trkpt>
      <trkpt lat="49.1202" lon="7.05996">
        <ele>218.36</ele>
        <time>2021-07-21T17:50:40Z</time>
      </trkpt>
      <trkpt lat="49.12022" lon="7.05992">
        <ele>218.84</ele>
        <time>2021-07-21T17:50:41Z</time>
      </trkpt>
      <trkpt lat="49.12022" lon="7.05992">
        <ele>219.32</ele>
        <time>2021-07-21T17:50:42Z</time>
      </trkpt>
      <trkpt lat="49.12022" lon="7.05992">
        <ele>219.32</ele>
        <time>2021-07-21T17:50:43Z</time>
      </trkpt>
      <trkpt lat="49.12027" lon="7.05976">
        <ele>219.32</ele>
        <time>2021-07-21T17:50:44Z</time>
      </trkpt>
      <trkpt lat="49.1203" lon="7.05973">
        <ele>219.32</ele>
        <time>2021-07-21T17:50:45Z</time>
      </trkpt>
      <trkpt lat="49.12035" lon="7.0597">
        <ele>219.32</ele>
        <time>2021-07-21T17:50:46Z</time>
      </trkpt>
      <trkpt lat="49.1204" lon="7.05966">
        <ele>219.32</ele>
        <time>2021-07-21T17:50:47Z</time>
      </trkpt>
      <trkpt lat="49.12123" lon="7.05882">
        <ele>216.91</ele>
        <time>2021-07-21T17:50:57Z</time>
      </trkpt>
      <trkpt lat="49.12252" lon="7.05749">
        <ele>214.51</ele>
        <time>2021-07-21T17:51:09Z</time>
      </trkpt>
      <trkpt lat="49.12334" lon="7.05609">
        <ele>219.32</ele>
        <time>2021-07-21T17:51:18Z</time>
      </trkpt>
      <trkpt lat="49.12436" lon="7.0538">
        <ele>221.24</ele>
        <time>2021-07-21T17:51:30Z</time>
      </trkpt>
      <trkpt lat="49.12498" lon="7.0516">
        <ele>222.2</ele>
        <time>2021-07-21T17:51:41Z</time>
      </trkpt>
      <trkpt lat="49.12565" lon="7.04955">
        <ele>220.28</ele>
        <time>2021-07-21T17:51:54Z</time>
      </trkpt>
      <trkpt lat="49.12669" lon="7.04784">
        <ele>214.51</ele>
        <time>2021-07-21T17:52:06Z</time>
      </trkpt>
      <trkpt lat="49.12773" lon="7.04688">
        <ele>206.34</ele>
        <time>2021-07-21T17:52:15Z</time>
      </trkpt>
      <trkpt lat="49.12837" lon="7.04659">
        <ele>203.46</ele>
        <time>2021-07-21T17:52:19Z</time>
      </trkpt>
      <trkpt lat="49.12852" lon="7.04659">
        <ele>202.98</ele>
        <time>2021-07-21T17:52:20Z</time>
      </trkpt>
      <trkpt lat="49.12884" lon="7.04657">
        <ele>202.49</ele>
        <time>2021-07-21T17:52:21Z</time>
      </trkpt>
      <trkpt lat="49.13052" lon="7.04692">
        <ele>199.61</ele>
        <time>2021-07-21T17:52:32Z</time>
      </trkpt>
      <trkpt lat="49.13263" lon="7.0474">
        <ele>198.65</ele>
        <time>2021-07-21T17:52:44Z</time>
      </trkpt>
      <trkpt lat="49.13502" lon="7.04771">
        <ele>200.57</ele>
        <time>2021-07-21T17:52:58Z</time>
      </trkpt>
      <trkpt lat="49.13696" lon="7.04747">
        <ele>199.61</ele>
        <time>2021-07-21T17:53:10Z</time>
      </trkpt>
      <trkpt lat="49.13972" lon="7.0464">
        <ele>204.9</ele>
        <time>2021-07-21T17:53:28Z</time>
      </trkpt>
      <trkpt lat="49.14172" lon="7.04586">
        <ele>205.86</ele>
        <time>2021-07-21T17:53:41Z</time>
      </trkpt>
      <trkpt lat="49.14313" lon="7.04581">
        <ele>209.7</ele>
        <time>2021-07-21T17:53:51Z</time>
      </trkpt>
      <trkpt lat="49.14485" lon="7.04549">
        <ele>204.9</ele>
        <time>2021-07-21T17:54:03Z</time>
      </trkpt>
      <trkpt lat="49.14624" lon="7.04518">
        <ele>204.9</ele>
        <time>2021-07-21T17:54:15Z</time>
      </trkpt>
      <trkpt lat="49.14779" lon="7.04424">
        <ele>208.74</ele>
        <time>2021-07-21T17:54:28Z</time>
      </trkpt>
      <trkpt lat="49.14844" lon="7.04346">
        <ele>208.26</ele>
        <time>2021-07-21T17:54:36Z</time>
      </trkpt>
      <trkpt lat="49.14953" lon="7.04205">
        <ele>207.3</ele>
        <time>2021-07-21T17:54:47Z</time>
      </trkpt>
      <trkpt lat="49.15056" lon="7.04066">
        <ele>206.34</ele>
        <time>2021-07-21T17:54:58Z</time>
      </trkpt>
      <trkpt lat="49.15067" lon="7.04045">
        <ele>205.86</ele>
        <time>2021-07-21T17:55:00Z</time>
      </trkpt>
      <trkpt lat="49.15071" lon="7.04037">
        <ele>205.38</ele>
        <time>2021-07-21T17:55:01Z</time>
      </trkpt>
      <trkpt lat="49.15073" lon="7.04031">
        <ele>205.38</ele>
        <time>2021-07-21T17:55:02Z</time>
      </trkpt>
      <trkpt lat="49.15075" lon="7.04009">
        <ele>204.42</ele>
        <time>2021-07-21T17:55:06Z</time>
      </trkpt>
      <trkpt lat="49.15082" lon="7.04006">
        <ele>204.42</ele>
        <time>2021-07-21T17:55:07Z</time>
      </trkpt>
      <trkpt lat="49.15089" lon="7.04">
        <ele>203.94</ele>
        <time>2021-07-21T17:55:08Z</time>
      </trkpt>
      <trkpt lat="49.1509" lon="7.03983">
        <ele>203.94</ele>
        <time>2021-07-21T17:55:09Z</time>
      </trkpt>
      <trkpt lat="49.1509" lon="7.03983">
        <ele>203.94</ele>
        <time>2021-07-21T17:55:10Z</time>
      </trkpt>
      <trkpt lat="49.1509" lon="7.03977">
        <ele>203.94</ele>
        <time>2021-07-21T17:55:11Z</time>
      </trkpt>
      <trkpt lat="49.15083" lon="7.03954">
        <ele>204.42</ele>
        <time>2021-07-21T17:55:12Z</time>
      </trkpt>
      <trkpt lat="49.15083" lon="7.03954">
        <ele>204.42</ele>
        <time>2021-07-21T17:55:13Z</time>
      </trkpt>
      <trkpt lat="49.15085" lon="7.03931">
        <ele>204.42</ele>
        <time>2021-07-21T17:55:14Z</time>
      </trkpt>
      <trkpt lat="49.15085" lon="7.03931">
        <ele>204.42</ele>
        <time>2021-07-21T17:55:15Z</time>
      </trkpt>
      <trkpt lat="49.15088" lon="7.03919">
        <ele>203.94</ele>
        <time>2021-07-21T17:55:16Z</time>
      </trkpt>
      <trkpt lat="49.15093" lon="7.03906">
        <ele>204.42</ele>
        <time>2021-07-21T17:55:17Z</time>
      </trkpt>
      <trkpt lat="49.15098" lon="7.03893">
        <ele>204.9</ele>
        <time>2021-07-21T17:55:18Z</time>
      </trkpt>
      <trkpt lat="49.15106" lon="7.03885">
        <ele>203.94</ele>
        <time>2021-07-21T17:55:19Z</time>
      </trkpt>
      <trkpt lat="49.15124" lon="7.03868">
        <ele>203.46</ele>
        <time>2021-07-21T17:55:20Z</time>
      </trkpt>
      <trkpt lat="49.15165" lon="7.03829">
        <ele>202.01</ele>
        <time>2021-07-21T17:55:25Z</time>
      </trkpt>
      <trkpt lat="49.15243" lon="7.03708">
        <ele>197.21</ele>
        <time>2021-07-21T17:55:33Z</time>
      </trkpt>
      <trkpt lat="49.15361" lon="7.03529">
        <ele>201.05</ele>
        <time>2021-07-21T17:55:43Z</time>
      </trkpt>
      <trkpt lat="49.15532" lon="7.03376">
        <ele>203.94</ele>
        <time>2021-07-21T17:55:54Z</time>
      </trkpt>
      <trkpt lat="49.15694" lon="7.03265">
        <ele>200.57</ele>
        <time>2021-07-21T17:56:04Z</time>
      </trkpt>
      <trkpt lat="49.15835" lon="7.03245">
        <ele>197.69</ele>
        <time>2021-07-21T17:56:12Z</time>
      </trkpt>
      <trkpt lat="49.1597" lon="7.03294">
        <ele>195.77</ele>
        <time>2021-07-21T17:56:19Z</time>
      </trkpt>
      <trkpt lat="49.16145" lon="7.03395">
        <ele>196.73</ele>
        <time>2021-07-21T17:56:28Z</time>
      </trkpt>
      <trkpt lat="49.16269" lon="7.03402">
        <ele>198.65</ele>
        <time>2021-07-21T17:56:34Z</time>
      </trkpt>
      <trkpt lat="49.1643" lon="7.03331">
        <ele>200.09</ele>
        <time>2021-07-21T17:56:42Z</time>
      </trkpt>
      <trkpt lat="49.16568" lon="7.03185">
        <ele>199.13</ele>
        <time>2021-07-21T17:56:50Z</time>
      </trkpt>
      <trkpt lat="49.16693" lon="7.0299">
        <ele>199.61</ele>
        <time>2021-07-21T17:56:59Z</time>
      </trkpt>
      <trkpt lat="49.16822" lon="7.02898">
        <ele>199.61</ele>
        <time>2021-07-21T17:57:06Z</time>
      </trkpt>
      <trkpt lat="49.17006" lon="7.02846">
        <ele>203.94</ele>
        <time>2021-07-21T17:57:18Z</time>
      </trkpt>
      <trkpt lat="49.17205" lon="7.02859">
        <ele>205.86</ele>
        <time>2021-07-21T17:57:30Z</time>
      </trkpt>
      <trkpt lat="49.17443" lon="7.02952">
        <ele>202.49</ele>
        <time>2021-07-21T17:57:42Z</time>
      </trkpt>
      <trkpt lat="49.17656" lon="7.03101">
        <ele>200.57</ele>
        <time>2021-07-21T17:57:55Z</time>
      </trkpt>
      <trkpt lat="49.18016" lon="7.03392">
        <ele>202.01</ele>
        <time>2021-07-21T17:58:16Z</time>
      </trkpt>
      <trkpt lat="49.18185" lon="7.03471">
        <ele>203.94</ele>
        <time>2021-07-21T17:58:25Z</time>
      </trkpt>
      <trkpt lat="49.18372" lon="7.03471">
        <ele>201.05</ele>
        <time>2021-07-21T17:58:34Z</time>
      </trkpt>
      <trkpt lat="49.18612" lon="7.03437">
        <ele>198.65</ele>
        <time>2021-07-21T17:58:46Z</time>
      </trkpt>
      <trkpt lat="49.18801" lon="7.03453">
        <ele>199.13</ele>
        <time>2021-07-21T17:58:57Z</time>
      </trkpt>
      <trkpt lat="49.19026" lon="7.03556">
        <ele>199.13</ele>
        <time>2021-07-21T17:59:11Z</time>
      </trkpt>
      <trkpt lat="49.19061" lon="7.03567">
        <ele>200.09</ele>
        <time>2021-07-21T17:59:13Z</time>
      </trkpt>
      <trkpt lat="49.19077" lon="7.03571">
        <ele>199.61</ele>
        <time>2021-07-21T17:59:14Z</time>
      </trkpt>
      <trkpt lat="49.1913" lon="7.03572">
        <ele>200.09</ele>
        <time>2021-07-21T17:59:17Z</time>
      </trkpt>
      <trkpt lat="49.19148" lon="7.03568">
        <ele>200.57</ele>
        <time>2021-07-21T17:59:18Z</time>
      </trkpt>
      <trkpt lat="49.19165" lon="7.0356">
        <ele>200.57</ele>
        <time>2021-07-21T17:59:19Z</time>
      </trkpt>
      <trkpt lat="49.19183" lon="7.0355">
        <ele>200.57</ele>
        <time>2021-07-21T17:59:20Z</time>
      </trkpt>
      <trkpt lat="49.192" lon="7.0354">
        <ele>201.05</ele>
        <time>2021-07-21T17:59:21Z</time>
      </trkpt>
      <trkpt lat="49.19216" lon="7.03528">
        <ele>201.05</ele>
        <time>2021-07-21T17:59:22Z</time>
      </trkpt>
      <trkpt lat="49.19246" lon="7.03498">
        <ele>200.57</ele>
        <time>2021-07-21T17:59:23Z</time>
      </trkpt>
      <trkpt lat="49.19246" lon="7.03498">
        <ele>200.09</ele>
        <time>2021-07-21T17:59:24Z</time>
      </trkpt>
      <trkpt lat="49.19436" lon="7.03273">
        <ele>198.65</ele>
        <time>2021-07-21T17:59:38Z</time>
      </trkpt>
      <trkpt lat="49.19541" lon="7.03129">
        <ele>200.57</ele>
        <time>2021-07-21T17:59:48Z</time>
      </trkpt>
      <trkpt lat="49.19727" lon="7.02906">
        <ele>197.21</ele>
        <time>2021-07-21T18:00:04Z</time>
      </trkpt>
      <trkpt lat="49.19902" lon="7.02702">
        <ele>202.01</ele>
        <time>2021-07-21T18:00:19Z</time>
      </trkpt>
      <trkpt lat="49.20043" lon="7.02508">
        <ele>201.53</ele>
        <time>2021-07-21T18:00:31Z</time>
      </trkpt>
      <trkpt lat="49.2025" lon="7.02181">
        <ele>200.09</ele>
        <time>2021-07-21T18:00:49Z</time>
      </trkpt>
      <trkpt lat="49.20361" lon="7.02075">
        <ele>203.46</ele>
        <time>2021-07-21T18:00:57Z</time>
      </trkpt>
      <trkpt lat="49.20487" lon="7.02046">
        <ele>199.13</ele>
        <time>2021-07-21T18:01:05Z</time>
      </trkpt>
      <trkpt lat="49.20617" lon="7.02077">
        <ele>197.69</ele>
        <time>2021-07-21T18:01:14Z</time>
      </trkpt>
      <trkpt lat="49.20699" lon="7.02122">
        <ele>197.21</ele>
        <time>2021-07-21T18:01:22Z</time>
      </trkpt>
      <trkpt lat="49.2073" lon="7.02148">
        <ele>198.17</ele>
        <time>2021-07-21T18:01:29Z</time>
      </trkpt>
      <trkpt lat="49.20736" lon="7.02152">
        <ele>198.17</ele>
        <time>2021-07-21T18:01:39Z</time>
      </trkpt>
      <trkpt lat="49.20736" lon="7.02152">
        <ele>198.17</ele>
        <time>2021-07-21T18:01:41Z</time>
      </trkpt>
      <trkpt lat="49.20747" lon="7.02161">
        <ele>197.69</ele>
        <time>2021-07-21T18:01:44Z</time>
      </trkpt>
      <trkpt lat="49.20814" lon="7.02215">
        <ele>197.69</ele>
        <time>2021-07-21T18:01:57Z</time>
      </trkpt>
      <trkpt lat="49.20825" lon="7.02225">
        <ele>197.21</ele>
        <time>2021-07-21T18:02:00Z</time>
      </trkpt>
      <trkpt lat="49.20835" lon="7.02235">
        <ele>197.21</ele>
        <time>2021-07-21T18:02:02Z</time>
      </trkpt>
      <trkpt lat="49.20839" lon="7.0224">
        <ele>197.21</ele>
        <time>2021-07-21T18:02:03Z</time>
      </trkpt>
      <trkpt lat="49.20841" lon="7.02243">
        <ele>197.21</ele>
        <time>2021-07-21T18:02:04Z</time>
      </trkpt>
      <trkpt lat="49.20844" lon="7.02247">
        <ele>197.21</ele>
        <time>2021-07-21T18:02:05Z</time>
      </trkpt>
      <trkpt lat="49.20836" lon="7.02268">
        <ele>196.73</ele>
        <time>2021-07-21T18:02:06Z</time>
      </trkpt>
      <trkpt lat="49.20834" lon="7.02276">
        <ele>196.73</ele>
        <time>2021-07-21T18:02:07Z</time>
      </trkpt>
      <trkpt lat="49.20831" lon="7.02286">
        <ele>196.73</ele>
        <time>2021-07-21T18:02:08Z</time>
      </trkpt>
      <trkpt lat="49.20789" lon="7.02417">
        <ele>199.13</ele>
        <time>2021-07-21T18:02:17Z</time>
      </trkpt>
      <trkpt lat="49.2078" lon="7.02451">
        <ele>198.17</ele>
        <time>2021-07-21T18:02:19Z</time>
      </trkpt>
      <trkpt lat="49.20776" lon="7.02468">
        <ele>197.69</ele>
        <time>2021-07-21T18:02:20Z</time>
      </trkpt>
      <trkpt lat="49.20773" lon="7.02485">
        <ele>198.17</ele>
        <time>2021-07-21T18:02:21Z</time>
      </trkpt>
      <trkpt lat="49.20772" lon="7.025">
        <ele>198.65</ele>
        <time>2021-07-21T18:02:22Z</time>
      </trkpt>
      <trkpt lat="49.20771" lon="7.02517">
        <ele>200.57</ele>
        <time>2021-07-21T18:02:23Z</time>
      </trkpt>
      <trkpt lat="49.20769" lon="7.02563">
        <ele>199.13</ele>
        <time>2021-07-21T18:02:26Z</time>
      </trkpt>
      <trkpt lat="49.20769" lon="7.02577">
        <ele>198.65</ele>
        <time>2021-07-21T18:02:27Z</time>
      </trkpt>
      <trkpt lat="49.20768" lon="7.02591">
        <ele>198.17</ele>
        <time>2021-07-21T18:02:28Z</time>
      </trkpt>
      <trkpt lat="49.20766" lon="7.02606">
        <ele>197.69</ele>
        <time>2021-07-21T18:02:29Z</time>
      </trkpt>
      <trkpt lat="49.20763" lon="7.02621">
        <ele>198.65</ele>
        <time>2021-07-21T18:02:30Z</time>
      </trkpt>
      <trkpt lat="49.2076" lon="7.02637">
        <ele>199.13</ele>
        <time>2021-07-21T18:02:31Z</time>
      </trkpt>
      <trkpt lat="49.20712" lon="7.02812">
        <ele>202.01</ele>
        <time>2021-07-21T18:02:40Z</time>
      </trkpt>
      <trkpt lat="49.20662" lon="7.03132">
        <ele>206.34</ele>
        <time>2021-07-21T18:02:52Z</time>
      </trkpt>
      <trkpt lat="49.20611" lon="7.03534">
        <ele>212.59</ele>
        <time>2021-07-21T18:03:05Z</time>
      </trkpt>
      <trkpt lat="49.2051" lon="7.04027">
        <ele>223.16</ele>
        <time>2021-07-21T18:03:21Z</time>
      </trkpt>
      <trkpt lat="49.20433" lon="7.04438">
        <ele>230.85</ele>
        <time>2021-07-21T18:03:35Z</time>
      </trkpt>
      <trkpt lat="49.20394" lon="7.04775">
        <ele>235.66</ele>
        <time>2021-07-21T18:03:46Z</time>
      </trkpt>
      <trkpt lat="49.20386" lon="7.0505">
        <ele>228.93</ele>
        <time>2021-07-21T18:03:58Z</time>
      </trkpt>
      <trkpt lat="49.20403" lon="7.0519">
        <ele>223.16</ele>
        <time>2021-07-21T18:04:04Z</time>
      </trkpt>
      <trkpt lat="49.20416" lon="7.05223">
        <ele>223.16</ele>
        <time>2021-07-21T18:04:05Z</time>
      </trkpt>
      <trkpt lat="49.20416" lon="7.05223">
        <ele>222.2</ele>
        <time>2021-07-21T18:04:06Z</time>
      </trkpt>
      <trkpt lat="49.20424" lon="7.05236">
        <ele>221.24</ele>
        <time>2021-07-21T18:04:07Z</time>
      </trkpt>
      <trkpt lat="49.20432" lon="7.05246">
        <ele>220.28</ele>
        <time>2021-07-21T18:04:08Z</time>
      </trkpt>
      <trkpt lat="49.20438" lon="7.05254">
        <ele>219.32</ele>
        <time>2021-07-21T18:04:09Z</time>
      </trkpt>
      <trkpt lat="49.20444" lon="7.05262">
        <ele>218.36</ele>
        <time>2021-07-21T18:04:10Z</time>
      </trkpt>
      <trkpt lat="49.20452" lon="7.05262">
        <ele>217.4</ele>
        <time>2021-07-21T18:04:11Z</time>
      </trkpt>
      <trkpt lat="49.2046" lon="7.05263">
        <ele>215.95</ele>
        <time>2021-07-21T18:04:12Z</time>
      </trkpt>
      <trkpt lat="49.20469" lon="7.05263">
        <ele>215.47</ele>
        <time>2021-07-21T18:04:13Z</time>
      </trkpt>
      <trkpt lat="49.20477" lon="7.05258">
        <ele>212.11</ele>
        <time>2021-07-21T18:04:14Z</time>
      </trkpt>
      <trkpt lat="49.2049" lon="7.05237">
        <ele>213.55</ele>
        <time>2021-07-21T18:04:15Z</time>
      </trkpt>
      <trkpt lat="49.2049" lon="7.05237">
        <ele>214.51</ele>
        <time>2021-07-21T18:04:16Z</time>
      </trkpt>
      <trkpt lat="49.20495" lon="7.05228">
        <ele>217.4</ele>
        <time>2021-07-21T18:04:17Z</time>
      </trkpt>
      <trkpt lat="49.20497" lon="7.05214">
        <ele>218.84</ele>
        <time>2021-07-21T18:04:18Z</time>
      </trkpt>
      <trkpt lat="49.20499" lon="7.05197">
        <ele>220.28</ele>
        <time>2021-07-21T18:04:19Z</time>
      </trkpt>
      <trkpt lat="49.20501" lon="7.0518">
        <ele>220.76</ele>
        <time>2021-07-21T18:04:20Z</time>
      </trkpt>
      <trkpt lat="49.20503" lon="7.05162">
        <ele>222.2</ele>
        <time>2021-07-21T18:04:21Z</time>
      </trkpt>
      <trkpt lat="49.20503" lon="7.05145">
        <ele>223.64</ele>
        <time>2021-07-21T18:04:22Z</time>
      </trkpt>
      <trkpt lat="49.20502" lon="7.05127">
        <ele>224.61</ele>
        <time>2021-07-21T18:04:23Z</time>
      </trkpt>
      <trkpt lat="49.20497" lon="7.05107">
        <ele>226.53</ele>
        <time>2021-07-21T18:04:24Z</time>
      </trkpt>
      <trkpt lat="49.20492" lon="7.05087">
        <ele>227.97</ele>
        <time>2021-07-21T18:04:25Z</time>
      </trkpt>
      <trkpt lat="49.20446" lon="7.04872">
        <ele>239.51</ele>
        <time>2021-07-21T18:04:35Z</time>
      </trkpt>
      <trkpt lat="49.20429" lon="7.0465">
        <ele>236.62</ele>
        <time>2021-07-21T18:04:45Z</time>
      </trkpt>
      <trkpt lat="49.20453" lon="7.04376">
        <ele>230.85</ele>
        <time>2021-07-21T18:04:55Z</time>
      </trkpt>
      <trkpt lat="49.20529" lon="7.04002">
        <ele>224.12</ele>
        <time>2021-07-21T18:05:07Z</time>
      </trkpt>
      <trkpt lat="49.2062" lon="7.03557">
        <ele>218.36</ele>
        <time>2021-07-21T18:05:20Z</time>
      </trkpt>
      <trkpt lat="49.20678" lon="7.03098">
        <ele>212.11</ele>
        <time>2021-07-21T18:05:32Z</time>
      </trkpt>
      <trkpt lat="49.20726" lon="7.0282">
        <ele>209.22</ele>
        <time>2021-07-21T18:05:40Z</time>
      </trkpt>
      <trkpt lat="49.20809" lon="7.02573">
        <ele>208.74</ele>
        <time>2021-07-21T18:05:48Z</time>
      </trkpt>
      <trkpt lat="49.20933" lon="7.02363">
        <ele>209.7</ele>
        <time>2021-07-21T18:05:56Z</time>
      </trkpt>
      <trkpt lat="49.21097" lon="7.02217">
        <ele>206.82</ele>
        <time>2021-07-21T18:06:04Z</time>
      </trkpt>
      <trkpt lat="49.21278" lon="7.02143">
        <ele>205.86</ele>
        <time>2021-07-21T18:06:12Z</time>
      </trkpt>
      <trkpt lat="49.21561" lon="7.02086">
        <ele>201.53</ele>
        <time>2021-07-21T18:06:25Z</time>
      </trkpt>
      <trkpt lat="49.21766" lon="7.01949">
        <ele>197.69</ele>
        <time>2021-07-21T18:06:34Z</time>
      </trkpt>
      <trkpt lat="49.21927" lon="7.01766">
        <ele>192.88</ele>
        <time>2021-07-21T18:06:44Z</time>
      </trkpt>
      <trkpt lat="49.22042" lon="7.01603">
        <ele>193.36</ele>
        <time>2021-07-21T18:06:52Z</time>
      </trkpt>
      <trkpt lat="49.2218" lon="7.0137">
        <ele>197.21</ele>
        <time>2021-07-21T18:07:02Z</time>
      </trkpt>
      <trkpt lat="49.22329" lon="7.01067">
        <ele>199.13</ele>
        <time>2021-07-21T18:07:13Z</time>
      </trkpt>
      <trkpt lat="49.22463" lon="7.00718">
        <ele>199.13</ele>
        <time>2021-07-21T18:07:26Z</time>
      </trkpt>
      <trkpt lat="49.22594" lon="7.00401">
        <ele>198.17</ele>
        <time>2021-07-21T18:07:39Z</time>
      </trkpt>
      <trkpt lat="49.2277" lon="7.00062">
        <ele>195.28</ele>
        <time>2021-07-21T18:07:54Z</time>
      </trkpt>
      <trkpt lat="49.22861" lon="6.99828">
        <ele>195.28</ele>
        <time>2021-07-21T18:08:04Z</time>
      </trkpt>
      <trkpt lat="49.22965" lon="6.99512">
        <ele>197.21</ele>
        <time>2021-07-21T18:08:17Z</time>
      </trkpt>
      <trkpt lat="49.23046" lon="6.99365">
        <ele>195.77</ele>
        <time>2021-07-21T18:08:25Z</time>
      </trkpt>
      <trkpt lat="49.2317" lon="6.99232">
        <ele>195.28</ele>
        <time>2021-07-21T18:08:35Z</time>
      </trkpt>
      <trkpt lat="49.23306" lon="6.99132">
        <ele>193.36</ele>
        <time>2021-07-21T18:08:47Z</time>
      </trkpt>
      <trkpt lat="49.23418" lon="6.99113">
        <ele>194.8</ele>
        <time>2021-07-21T18:08:56Z</time>
      </trkpt>
      <trkpt lat="49.23547" lon="6.99105">
        <ele>193.84</ele>
        <time>2021-07-21T18:09:06Z</time>
      </trkpt>
      <trkpt lat="49.23547" lon="6.99105">
        <ele>194.32</ele>
        <time>2021-07-21T18:09:07Z</time>
      </trkpt>
      <trkpt lat="49.23571" lon="6.9909">
        <ele>193.84</ele>
        <time>2021-07-21T18:09:08Z</time>
      </trkpt>
      <trkpt lat="49.23581" lon="6.99078">
        <ele>193.84</ele>
        <time>2021-07-21T18:09:09Z</time>
      </trkpt>
      <trkpt lat="49.23591" lon="6.99062">
        <ele>193.36</ele>
        <time>2021-07-21T18:09:10Z</time>
      </trkpt>
      <trkpt lat="49.23591" lon="6.99062">
        <ele>193.84</ele>
        <time>2021-07-21T18:09:11Z</time>
      </trkpt>
      <trkpt lat="49.236" lon="6.99047">
        <ele>193.36</ele>
        <time>2021-07-21T18:09:12Z</time>
      </trkpt>
      <trkpt lat="49.23617" lon="6.99008">
        <ele>193.84</ele>
        <time>2021-07-21T18:09:13Z</time>
      </trkpt>
      <trkpt lat="49.23617" lon="6.99008">
        <ele>193.36</ele>
        <time>2021-07-21T18:09:14Z</time>
      </trkpt>
      <trkpt lat="49.23625" lon="6.98988">
        <ele>191.92</ele>
        <time>2021-07-21T18:09:15Z</time>
      </trkpt>
      <trkpt lat="49.23643" lon="6.98829">
        <ele>199.13</ele>
        <time>2021-07-21T18:09:22Z</time>
      </trkpt>
      <trkpt lat="49.23633" lon="6.98572">
        <ele>199.61</ele>
        <time>2021-07-21T18:09:32Z</time>
      </trkpt>
      <trkpt lat="49.23633" lon="6.98342">
        <ele>198.65</ele>
        <time>2021-07-21T18:09:42Z</time>
      </trkpt>
      <trkpt lat="49.23623" lon="6.98068">
        <ele>197.69</ele>
        <time>2021-07-21T18:09:52Z</time>
      </trkpt>
      <trkpt lat="49.23617" lon="6.97837">
        <ele>196.25</ele>
        <time>2021-07-21T18:10:00Z</time>
      </trkpt>
      <trkpt lat="49.23611" lon="6.97489">
        <ele>198.17</ele>
        <time>2021-07-21T18:10:11Z</time>
      </trkpt>
      <trkpt lat="49.23568" lon="6.97206">
        <ele>198.17</ele>
        <time>2021-07-21T18:10:21Z</time>
      </trkpt>
      <trkpt lat="49.23498" lon="6.9699">
        <ele>202.01</ele>
        <time>2021-07-21T18:10:31Z</time>
      </trkpt>
      <trkpt lat="49.23406" lon="6.96743">
        <ele>202.01</ele>
        <time>2021-07-21T18:10:43Z</time>
      </trkpt>
      <trkpt lat="49.23377" lon="6.96622">
        <ele>198.65</ele>
        <time>2021-07-21T18:10:48Z</time>
      </trkpt>
      <trkpt lat="49.23376" lon="6.96596">
        <ele>198.65</ele>
        <time>2021-07-21T18:10:49Z</time>
      </trkpt>
      <trkpt lat="49.23368" lon="6.96232">
        <ele>197.69</ele>
        <time>2021-07-21T18:11:03Z</time>
      </trkpt>
      <trkpt lat="49.23355" lon="6.95909">
        <ele>198.17</ele>
        <time>2021-07-21T18:11:15Z</time>
      </trkpt>
      <trkpt lat="49.23339" lon="6.95537">
        <ele>197.21</ele>
        <time>2021-07-21T18:11:29Z</time>
      </trkpt>
      <trkpt lat="49.23332" lon="6.95357">
        <ele>199.13</ele>
        <time>2021-07-21T18:11:37Z</time>
      </trkpt>
      <trkpt lat="49.23335" lon="6.95332">
        <ele>198.65</ele>
        <time>2021-07-21T18:11:38Z</time>
      </trkpt>
      <trkpt lat="49.23343" lon="6.95282">
        <ele>196.73</ele>
        <time>2021-07-21T18:11:40Z</time>
      </trkpt>
      <trkpt lat="49.2335" lon="6.95257">
        <ele>196.25</ele>
        <time>2021-07-21T18:11:41Z</time>
      </trkpt>
      <trkpt lat="49.23358" lon="6.95233">
        <ele>196.25</ele>
        <time>2021-07-21T18:11:42Z</time>
      </trkpt>
      <trkpt lat="49.23367" lon="6.95211">
        <ele>196.73</ele>
        <time>2021-07-21T18:11:43Z</time>
      </trkpt>
      <trkpt lat="49.23378" lon="6.95191">
        <ele>197.21</ele>
        <time>2021-07-21T18:11:44Z</time>
      </trkpt>
      <trkpt lat="49.23526" lon="6.94922">
        <ele>199.13</ele>
        <time>2021-07-21T18:11:58Z</time>
      </trkpt>
      <trkpt lat="49.23647" lon="6.94623">
        <ele>198.65</ele>
        <time>2021-07-21T18:12:12Z</time>
      </trkpt>
      <trkpt lat="49.23758" lon="6.9429">
        <ele>191.92</ele>
        <time>2021-07-21T18:12:27Z</time>
      </trkpt>
      <trkpt lat="49.23867" lon="6.93872">
        <ele>198.17</ele>
        <time>2021-07-21T18:12:43Z</time>
      </trkpt>
      <trkpt lat="49.23902" lon="6.93596">
        <ele>198.65</ele>
        <time>2021-07-21T18:12:53Z</time>
      </trkpt>
      <trkpt lat="49.23909" lon="6.93273">
        <ele>198.17</ele>
        <time>2021-07-21T18:13:04Z</time>
      </trkpt>
      <trkpt lat="49.23942" lon="6.93005">
        <ele>195.77</ele>
        <time>2021-07-21T18:13:13Z</time>
      </trkpt>
      <trkpt lat="49.24048" lon="6.9264">
        <ele>193.36</ele>
        <time>2021-07-21T18:13:24Z</time>
      </trkpt>
      <trkpt lat="49.24185" lon="6.92185">
        <ele>192.88</ele>
        <time>2021-07-21T18:13:41Z</time>
      </trkpt>
      <trkpt lat="49.24292" lon="6.91784">
        <ele>195.28</ele>
        <time>2021-07-21T18:13:54Z</time>
      </trkpt>
      <trkpt lat="49.24413" lon="6.91261">
        <ele>192.88</ele>
        <time>2021-07-21T18:14:08Z</time>
      </trkpt>
      <trkpt lat="49.24519" lon="6.90939">
        <ele>193.84</ele>
        <time>2021-07-21T18:14:18Z</time>
      </trkpt>
      <trkpt lat="49.24573" lon="6.90657">
        <ele>194.8</ele>
        <time>2021-07-21T18:14:27Z</time>
      </trkpt>
      <trkpt lat="49.24666" lon="6.90089">
        <ele>193.84</ele>
        <time>2021-07-21T18:14:43Z</time>
      </trkpt>
      <trkpt lat="49.24715" lon="6.89704">
        <ele>192.4</ele>
        <time>2021-07-21T18:14:54Z</time>
      </trkpt>
      <trkpt lat="49.24796" lon="6.89165">
        <ele>190.96</ele>
        <time>2021-07-21T18:15:09Z</time>
      </trkpt>
      <trkpt lat="49.24921" lon="6.8867">
        <ele>190</ele>
        <time>2021-07-21T18:15:23Z</time>
      </trkpt>
      <trkpt lat="49.25073" lon="6.88178">
        <ele>193.84</ele>
        <time>2021-07-21T18:15:37Z</time>
      </trkpt>
      <trkpt lat="49.25118" lon="6.87876">
        <ele>195.28</ele>
        <time>2021-07-21T18:15:44Z</time>
      </trkpt>
      <trkpt lat="49.25108" lon="6.87603">
        <ele>195.77</ele>
        <time>2021-07-21T18:15:52Z</time>
      </trkpt>
      <trkpt lat="49.25033" lon="6.87276">
        <ele>195.28</ele>
        <time>2021-07-21T18:16:00Z</time>
      </trkpt>
      <trkpt lat="49.2491" lon="6.86828">
        <ele>196.73</ele>
        <time>2021-07-21T18:16:15Z</time>
      </trkpt>
      <trkpt lat="49.24804" lon="6.86552">
        <ele>196.25</ele>
        <time>2021-07-21T18:16:25Z</time>
      </trkpt>
      <trkpt lat="49.24669" lon="6.86357">
        <ele>192.4</ele>
        <time>2021-07-21T18:16:34Z</time>
      </trkpt>
      <trkpt lat="49.24494" lon="6.86199">
        <ele>188.56</ele>
        <time>2021-07-21T18:16:44Z</time>
      </trkpt>
      <trkpt lat="49.24305" lon="6.86039">
        <ele>186.63</ele>
        <time>2021-07-21T18:16:55Z</time>
      </trkpt>
      <trkpt lat="49.24206" lon="6.85866">
        <ele>193.84</ele>
        <time>2021-07-21T18:17:03Z</time>
      </trkpt>
      <trkpt lat="49.24146" lon="6.85646">
        <ele>191.44</ele>
        <time>2021-07-21T18:17:11Z</time>
      </trkpt>
      <trkpt lat="49.24141" lon="6.85378">
        <ele>192.88</ele>
        <time>2021-07-21T18:17:20Z</time>
      </trkpt>
      <trkpt lat="49.24177" lon="6.84818">
        <ele>198.17</ele>
        <time>2021-07-21T18:17:39Z</time>
      </trkpt>
      <trkpt lat="49.24178" lon="6.8454">
        <ele>202.98</ele>
        <time>2021-07-21T18:17:48Z</time>
      </trkpt>
      <trkpt lat="49.24176" lon="6.84165">
        <ele>209.22</ele>
        <time>2021-07-21T18:18:00Z</time>
      </trkpt>
      <trkpt lat="49.24218" lon="6.83926">
        <ele>212.11</ele>
        <time>2021-07-21T18:18:08Z</time>
      </trkpt>
      <trkpt lat="49.24317" lon="6.83691">
        <ele>214.03</ele>
        <time>2021-07-21T18:18:16Z</time>
      </trkpt>
      <trkpt lat="49.24433" lon="6.83541">
        <ele>215.47</ele>
        <time>2021-07-21T18:18:24Z</time>
      </trkpt>
      <trkpt lat="49.24605" lon="6.83431">
        <ele>214.03</ele>
        <time>2021-07-21T18:18:32Z</time>
      </trkpt>
      <trkpt lat="49.24841" lon="6.83362">
        <ele>213.55</ele>
        <time>2021-07-21T18:18:42Z</time>
      </trkpt>
      <trkpt lat="49.2512" lon="6.83341">
        <ele>214.99</ele>
        <time>2021-07-21T18:18:55Z</time>
      </trkpt>
      <trkpt lat="49.25454" lon="6.83318">
        <ele>215.95</ele>
        <time>2021-07-21T18:19:09Z</time>
      </trkpt>
      <trkpt lat="49.25717" lon="6.83248">
        <ele>211.63</ele>
        <time>2021-07-21T18:19:21Z</time>
      </trkpt>
      <trkpt lat="49.26052" lon="6.83083">
        <ele>202.98</ele>
        <time>2021-07-21T18:19:35Z</time>
      </trkpt>
      <trkpt lat="49.2629" lon="6.82904">
        <ele>196.73</ele>
        <time>2021-07-21T18:19:46Z</time>
      </trkpt>
      <trkpt lat="49.26443" lon="6.82731">
        <ele>195.77</ele>
        <time>2021-07-21T18:19:54Z</time>
      </trkpt>
      <trkpt lat="49.26557" lon="6.82495">
        <ele>197.21</ele>
        <time>2021-07-21T18:20:02Z</time>
      </trkpt>
      <trkpt lat="49.26623" lon="6.82224">
        <ele>200.09</ele>
        <time>2021-07-21T18:20:10Z</time>
      </trkpt>
      <trkpt lat="49.26722" lon="6.81578">
        <ele>195.77</ele>
        <time>2021-07-21T18:20:28Z</time>
      </trkpt>
      <trkpt lat="49.2679" lon="6.81121">
        <ele>190.96</ele>
        <time>2021-07-21T18:20:40Z</time>
      </trkpt>
      <trkpt lat="49.26885" lon="6.80714">
        <ele>198.65</ele>
        <time>2021-07-21T18:20:51Z</time>
      </trkpt>
      <trkpt lat="49.27064" lon="6.80131">
        <ele>200.57</ele>
        <time>2021-07-21T18:21:09Z</time>
      </trkpt>
      <trkpt lat="49.2717" lon="6.79688">
        <ele>198.17</ele>
        <time>2021-07-21T18:21:22Z</time>
      </trkpt>
      <trkpt lat="49.27192" lon="6.79393">
        <ele>198.17</ele>
        <time>2021-07-21T18:21:30Z</time>
      </trkpt>
      <trkpt lat="49.27166" lon="6.79109">
        <ele>197.21</ele>
        <time>2021-07-21T18:21:38Z</time>
      </trkpt>
      <trkpt lat="49.27104" lon="6.78683">
        <ele>190</ele>
        <time>2021-07-21T18:21:51Z</time>
      </trkpt>
      <trkpt lat="49.27112" lon="6.78412">
        <ele>190</ele>
        <time>2021-07-21T18:21:59Z</time>
      </trkpt>
      <trkpt lat="49.27167" lon="6.78144">
        <ele>190.48</ele>
        <time>2021-07-21T18:22:07Z</time>
      </trkpt>
      <trkpt lat="49.27278" lon="6.77887">
        <ele>192.4</ele>
        <time>2021-07-21T18:22:16Z</time>
      </trkpt>
      <trkpt lat="49.27439" lon="6.77692">
        <ele>193.84</ele>
        <time>2021-07-21T18:22:25Z</time>
      </trkpt>
      <trkpt lat="49.27825" lon="6.77249">
        <ele>194.8</ele>
        <time>2021-07-21T18:22:46Z</time>
      </trkpt>
      <trkpt lat="49.2827" lon="6.76687">
        <ele>198.65</ele>
        <time>2021-07-21T18:23:11Z</time>
      </trkpt>
      <trkpt lat="49.28548" lon="6.76294">
        <ele>202.49</ele>
        <time>2021-07-21T18:23:27Z</time>
      </trkpt>
      <trkpt lat="49.28897" lon="6.75866">
        <ele>207.78</ele>
        <time>2021-07-21T18:23:46Z</time>
      </trkpt>
      <trkpt lat="49.29205" lon="6.7554">
        <ele>213.55</ele>
        <time>2021-07-21T18:24:02Z</time>
      </trkpt>
      <trkpt lat="49.2945" lon="6.75384">
        <ele>210.67</ele>
        <time>2021-07-21T18:24:13Z</time>
      </trkpt>
      <trkpt lat="49.29751" lon="6.75204">
        <ele>200.09</ele>
        <time>2021-07-21T18:24:26Z</time>
      </trkpt>
      <trkpt lat="49.29905" lon="6.75021">
        <ele>194.32</ele>
        <time>2021-07-21T18:24:33Z</time>
      </trkpt>
      <trkpt lat="49.30104" lon="6.74734">
        <ele>190</ele>
        <time>2021-07-21T18:24:46Z</time>
      </trkpt>
      <trkpt lat="49.3021" lon="6.74593">
        <ele>190.96</ele>
        <time>2021-07-21T18:24:55Z</time>
      </trkpt>
      <trkpt lat="49.30313" lon="6.7442">
        <ele>189.04</ele>
        <time>2021-07-21T18:25:03Z</time>
      </trkpt>
      <trkpt lat="49.3041" lon="6.74172">
        <ele>190.48</ele>
        <time>2021-07-21T18:25:13Z</time>
      </trkpt>
      <trkpt lat="49.30517" lon="6.73836">
        <ele>190.96</ele>
        <time>2021-07-21T18:25:26Z</time>
      </trkpt>
      <trkpt lat="49.30624" lon="6.73569">
        <ele>187.11</ele>
        <time>2021-07-21T18:25:35Z</time>
      </trkpt>
      <trkpt lat="49.30778" lon="6.73317">
        <ele>187.59</ele>
        <time>2021-07-21T18:25:43Z</time>
      </trkpt>
      <trkpt lat="49.30969" lon="6.73133">
        <ele>187.11</ele>
        <time>2021-07-21T18:25:52Z</time>
      </trkpt>
      <trkpt lat="49.31151" lon="6.73027">
        <ele>187.11</ele>
        <time>2021-07-21T18:26:01Z</time>
      </trkpt>
      <trkpt lat="49.31368" lon="6.72981">
        <ele>185.67</ele>
        <time>2021-07-21T18:26:10Z</time>
      </trkpt>
      <trkpt lat="49.31579" lon="6.73">
        <ele>189.52</ele>
        <time>2021-07-21T18:26:19Z</time>
      </trkpt>
      <trkpt lat="49.31807" lon="6.73104">
        <ele>189.04</ele>
        <time>2021-07-21T18:26:29Z</time>
      </trkpt>
      <trkpt lat="49.32121" lon="6.73283">
        <ele>191.92</ele>
        <time>2021-07-21T18:26:44Z</time>
      </trkpt>
      <trkpt lat="49.32336" lon="6.73333">
        <ele>190</ele>
        <time>2021-07-21T18:26:53Z</time>
      </trkpt>
      <trkpt lat="49.32538" lon="6.73302">
        <ele>187.59</ele>
        <time>2021-07-21T18:27:02Z</time>
      </trkpt>
      <trkpt lat="49.32743" lon="6.73193">
        <ele>188.08</ele>
        <time>2021-07-21T18:27:13Z</time>
      </trkpt>
      <trkpt lat="49.3302" lon="6.7298">
        <ele>185.67</ele>
        <time>2021-07-21T18:27:27Z</time>
      </trkpt>
      <trkpt lat="49.33211" lon="6.72784">
        <ele>184.23</ele>
        <time>2021-07-21T18:27:38Z</time>
      </trkpt>
      <trkpt lat="49.33414" lon="6.72517">
        <ele>182.79</ele>
        <time>2021-07-21T18:27:49Z</time>
      </trkpt>
      <trkpt lat="49.3361" lon="6.72192">
        <ele>183.27</ele>
        <time>2021-07-21T18:28:01Z</time>
      </trkpt>
      <trkpt lat="49.33756" lon="6.7188">
        <ele>181.83</ele>
        <time>2021-07-21T18:28:13Z</time>
      </trkpt>
      <trkpt lat="49.33907" lon="6.71478">
        <ele>179.9</ele>
        <time>2021-07-21T18:28:28Z</time>
      </trkpt>
      <trkpt lat="49.34084" lon="6.71006">
        <ele>183.27</ele>
        <time>2021-07-21T18:28:46Z</time>
      </trkpt>
      <trkpt lat="49.34266" lon="6.7062">
        <ele>183.75</ele>
        <time>2021-07-21T18:29:01Z</time>
      </trkpt>
      <trkpt lat="49.34438" lon="6.70348">
        <ele>182.79</ele>
        <time>2021-07-21T18:29:12Z</time>
      </trkpt>
      <trkpt lat="49.346" lon="6.70209">
        <ele>184.71</ele>
        <time>2021-07-21T18:29:20Z</time>
      </trkpt>
      <trkpt lat="49.34782" lon="6.70144">
        <ele>184.71</ele>
        <time>2021-07-21T18:29:28Z</time>
      </trkpt>
      <trkpt lat="49.34998" lon="6.70148">
        <ele>188.56</ele>
        <time>2021-07-21T18:29:37Z</time>
      </trkpt>
      <trkpt lat="49.35243" lon="6.70131">
        <ele>189.04</ele>
        <time>2021-07-21T18:29:46Z</time>
      </trkpt>
      <trkpt lat="49.3543" lon="6.70058">
        <ele>187.59</ele>
        <time>2021-07-21T18:29:55Z</time>
      </trkpt>
      <trkpt lat="49.35566" lon="6.69964">
        <ele>187.11</ele>
        <time>2021-07-21T18:30:03Z</time>
      </trkpt>
      <trkpt lat="49.35776" lon="6.69748">
        <ele>184.23</ele>
        <time>2021-07-21T18:30:17Z</time>
      </trkpt>
      <trkpt lat="49.35972" lon="6.69581">
        <ele>182.79</ele>
        <time>2021-07-21T18:30:29Z</time>
      </trkpt>
      <trkpt lat="49.36132" lon="6.69498">
        <ele>182.31</ele>
        <time>2021-07-21T18:30:39Z</time>
      </trkpt>
      <trkpt lat="49.36185" lon="6.69496">
        <ele>179.9</ele>
        <time>2021-07-21T18:30:43Z</time>
      </trkpt>
      <trkpt lat="49.36195" lon="6.69496">
        <ele>179.9</ele>
        <time>2021-07-21T18:30:44Z</time>
      </trkpt>
      <trkpt lat="49.36195" lon="6.69496">
        <ele>180.38</ele>
        <time>2021-07-21T18:30:45Z</time>
      </trkpt>
      <trkpt lat="49.36217" lon="6.69498">
        <ele>181.35</ele>
        <time>2021-07-21T18:30:46Z</time>
      </trkpt>
      <trkpt lat="49.36217" lon="6.69498">
        <ele>181.83</ele>
        <time>2021-07-21T18:30:47Z</time>
      </trkpt>
      <trkpt lat="49.36227" lon="6.69502">
        <ele>182.31</ele>
        <time>2021-07-21T18:30:48Z</time>
      </trkpt>
      <trkpt lat="49.36238" lon="6.6951">
        <ele>181.83</ele>
        <time>2021-07-21T18:30:49Z</time>
      </trkpt>
      <trkpt lat="49.36249" lon="6.69517">
        <ele>181.35</ele>
        <time>2021-07-21T18:30:50Z</time>
      </trkpt>
      <trkpt lat="49.36258" lon="6.69524">
        <ele>181.35</ele>
        <time>2021-07-21T18:30:51Z</time>
      </trkpt>
      <trkpt lat="49.36267" lon="6.69533">
        <ele>182.79</ele>
        <time>2021-07-21T18:30:52Z</time>
      </trkpt>
      <trkpt lat="49.36293" lon="6.69556">
        <ele>184.23</ele>
        <time>2021-07-21T18:30:55Z</time>
      </trkpt>
      <trkpt lat="49.36301" lon="6.69564">
        <ele>184.71</ele>
        <time>2021-07-21T18:30:56Z</time>
      </trkpt>
      <trkpt lat="49.36318" lon="6.69577">
        <ele>185.19</ele>
        <time>2021-07-21T18:30:57Z</time>
      </trkpt>
      <trkpt lat="49.36318" lon="6.69577">
        <ele>186.15</ele>
        <time>2021-07-21T18:30:58Z</time>
      </trkpt>
      <trkpt lat="49.36326" lon="6.6958">
        <ele>186.63</ele>
        <time>2021-07-21T18:30:59Z</time>
      </trkpt>
      <trkpt lat="49.36379" lon="6.69592">
        <ele>189.04</ele>
        <time>2021-07-21T18:31:08Z</time>
      </trkpt>
      <trkpt lat="49.36388" lon="6.69594">
        <ele>190.48</ele>
        <time>2021-07-21T18:31:19Z</time>
      </trkpt>
      <trkpt lat="49.36411" lon="6.69599">
        <ele>190.96</ele>
        <time>2021-07-21T18:31:58Z</time>
      </trkpt>
      <trkpt lat="49.36426" lon="6.69602">
        <ele>191.44</ele>
        <time>2021-07-21T18:32:02Z</time>
      </trkpt>
      <trkpt lat="49.36431" lon="6.69604">
        <ele>191.44</ele>
        <time>2021-07-21T18:32:03Z</time>
      </trkpt>
      <trkpt lat="49.36439" lon="6.69606">
        <ele>191.92</ele>
        <time>2021-07-21T18:32:04Z</time>
      </trkpt>
      <trkpt lat="49.36439" lon="6.69606">
        <ele>191.92</ele>
        <time>2021-07-21T18:32:05Z</time>
      </trkpt>
      <trkpt lat="49.36441" lon="6.69595">
        <ele>191.92</ele>
        <time>2021-07-21T18:32:06Z</time>
      </trkpt>
      <trkpt lat="49.36441" lon="6.69587">
        <ele>191.92</ele>
        <time>2021-07-21T18:32:07Z</time>
      </trkpt>
      <trkpt lat="49.36442" lon="6.69577">
        <ele>191.92</ele>
        <time>2021-07-21T18:32:08Z</time>
      </trkpt>
      <trkpt lat="49.36442" lon="6.69567">
        <ele>191.92</ele>
        <time>2021-07-21T18:32:09Z</time>
      </trkpt>
      <trkpt lat="49.3645" lon="6.69401">
        <ele>188.08</ele>
        <time>2021-07-21T18:32:20Z</time>
      </trkpt>
      <trkpt lat="49.36456" lon="6.69134">
        <ele>186.63</ele>
        <time>2021-07-21T18:32:32Z</time>
      </trkpt>
      <trkpt lat="49.36433" lon="6.68938">
        <ele>186.15</ele>
        <time>2021-07-21T18:32:41Z</time>
      </trkpt>
      <trkpt lat="49.36398" lon="6.68766">
        <ele>187.11</ele>
        <time>2021-07-21T18:32:51Z</time>
      </trkpt>
      <trkpt lat="49.36398" lon="6.68753">
        <ele>187.59</ele>
        <time>2021-07-21T18:32:52Z</time>
      </trkpt>
      <trkpt lat="49.36398" lon="6.68742">
        <ele>187.11</ele>
        <time>2021-07-21T18:32:53Z</time>
      </trkpt>
      <trkpt lat="49.36401" lon="6.68734">
        <ele>187.11</ele>
        <time>2021-07-21T18:32:54Z</time>
      </trkpt>
      <trkpt lat="49.36407" lon="6.68726">
        <ele>187.11</ele>
        <time>2021-07-21T18:32:55Z</time>
      </trkpt>
      <trkpt lat="49.36412" lon="6.68718">
        <ele>187.11</ele>
        <time>2021-07-21T18:32:56Z</time>
      </trkpt>
      <trkpt lat="49.36418" lon="6.68715">
        <ele>187.11</ele>
        <time>2021-07-21T18:32:57Z</time>
      </trkpt>
      <trkpt lat="49.36426" lon="6.68711">
        <ele>187.11</ele>
        <time>2021-07-21T18:32:58Z</time>
      </trkpt>
      <trkpt lat="49.36442" lon="6.68704">
        <ele>186.63</ele>
        <time>2021-07-21T18:32:59Z</time>
      </trkpt>
      <trkpt lat="49.3651" lon="6.68692">
        <ele>185.67</ele>
        <time>2021-07-21T18:33:09Z</time>
      </trkpt>
      <trkpt lat="49.36523" lon="6.68686">
        <ele>188.56</ele>
        <time>2021-07-21T18:33:20Z</time>
      </trkpt>
      <trkpt lat="49.36523" lon="6.68686">
        <ele>188.56</ele>
        <time>2021-07-21T18:35:47Z</time>
      </trkpt>
      <trkpt lat="49.36523" lon="6.68686">
        <ele>186.15</ele>
        <time>2021-07-21T18:38:03Z</time>
      </trkpt>
      <trkpt lat="49.36523" lon="6.68686">
        <ele>185.67</ele>
        <time>2021-07-21T18:39:05Z</time>
      </trkpt>
      <trkpt lat="49.36523" lon="6.68686">
        <ele>184.23</ele>
        <time>2021-07-21T18:39:45Z</time>
      </trkpt>
      <trkpt lat="49.36524" lon="6.68685">
        <ele>183.75</ele>
        <time>2021-07-21T18:40:05Z</time>
      </trkpt>
      <trkpt lat="49.36526" lon="6.68684">
        <ele>184.23</ele>
        <time>2021-07-21T18:40:06Z</time>
      </trkpt>
      <trkpt lat="49.36537" lon="6.68684">
        <ele>184.71</ele>
        <time>2021-07-21T18:40:23Z</time>
      </trkpt>
      <trkpt lat="49.36537" lon="6.68684">
        <ele>184.71</ele>
        <time>2021-07-21T18:40:43Z</time>
      </trkpt>
      <trkpt lat="49.36537" lon="6.68684">
        <ele>184.23</ele>
        <time>2021-07-21T18:40:53Z</time>
      </trkpt>
      <trkpt lat="49.36537" lon="6.68684">
        <ele>183.75</ele>
        <time>2021-07-21T18:40:54Z</time>
      </trkpt>
      <trkpt lat="49.36546" lon="6.6869">
        <ele>183.75</ele>
        <time>2021-07-21T18:40:55Z</time>
      </trkpt>
      <trkpt lat="49.36533" lon="6.68681">
        <ele>183.75</ele>
        <time>2021-07-21T18:40:56Z</time>
      </trkpt>
      <trkpt lat="49.36546" lon="6.6869">
        <ele>183.75</ele>
        <time>2021-07-21T18:40:57Z</time>
      </trkpt>
      <trkpt lat="49.36546" lon="6.6869">
        <ele>183.75</ele>
        <time>2021-07-21T18:41:10Z</time>
      </trkpt>
      <trkpt lat="49.3655" lon="6.68679">
        <ele>184.23</ele>
        <time>2021-07-21T18:41:33Z</time>
      </trkpt>
      <trkpt lat="49.36551" lon="6.68668">
        <ele>184.23</ele>
        <time>2021-07-21T18:41:34Z</time>
      </trkpt>
      <trkpt lat="49.36549" lon="6.68663">
        <ele>184.23</ele>
        <time>2021-07-21T18:41:35Z</time>
      </trkpt>
      <trkpt lat="49.36548" lon="6.6866">
        <ele>184.23</ele>
        <time>2021-07-21T18:41:36Z</time>
      </trkpt>
      <trkpt lat="49.36548" lon="6.6866">
        <ele>184.23</ele>
        <time>2021-07-21T18:41:37Z</time>
      </trkpt>
      <trkpt lat="49.36536" lon="6.68646">
        <ele>184.23</ele>
        <time>2021-07-21T18:41:38Z</time>
      </trkpt>
      <trkpt lat="49.36533" lon="6.68629">
        <ele>184.23</ele>
        <time>2021-07-21T18:41:39Z</time>
      </trkpt>
      <trkpt lat="49.36531" lon="6.68619">
        <ele>184.23</ele>
        <time>2021-07-21T18:41:40Z</time>
      </trkpt>
      <trkpt lat="49.36531" lon="6.68619">
        <ele>184.71</ele>
        <time>2021-07-21T18:41:41Z</time>
      </trkpt>
      <trkpt lat="49.36529" lon="6.68608">
        <ele>184.71</ele>
        <time>2021-07-21T18:41:42Z</time>
      </trkpt>
      <trkpt lat="49.36522" lon="6.68418">
        <ele>185.67</ele>
        <time>2021-07-21T18:41:54Z</time>
      </trkpt>
      <trkpt lat="49.36506" lon="6.68189">
        <ele>185.67</ele>
        <time>2021-07-21T18:42:08Z</time>
      </trkpt>
      <trkpt lat="49.36472" lon="6.67926">
        <ele>187.59</ele>
        <time>2021-07-21T18:42:20Z</time>
      </trkpt>
      <trkpt lat="49.36466" lon="6.67687">
        <ele>193.36</ele>
        <time>2021-07-21T18:42:30Z</time>
      </trkpt>
      <trkpt lat="49.36482" lon="6.67398">
        <ele>201.53</ele>
        <time>2021-07-21T18:42:42Z</time>
      </trkpt>
      <trkpt lat="49.36492" lon="6.67125">
        <ele>200.09</ele>
        <time>2021-07-21T18:42:57Z</time>
      </trkpt>
      <trkpt lat="49.36511" lon="6.66892">
        <ele>197.21</ele>
        <time>2021-07-21T18:43:10Z</time>
      </trkpt>
      <trkpt lat="49.36513" lon="6.66872">
        <ele>197.21</ele>
        <time>2021-07-21T18:43:12Z</time>
      </trkpt>
      <trkpt lat="49.36511" lon="6.66829">
        <ele>196.25</ele>
        <time>2021-07-21T18:43:16Z</time>
      </trkpt>
      <trkpt lat="49.36511" lon="6.66829">
        <ele>195.77</ele>
        <time>2021-07-21T18:43:17Z</time>
      </trkpt>
      <trkpt lat="49.36516" lon="6.66791">
        <ele>194.8</ele>
        <time>2021-07-21T18:43:23Z</time>
      </trkpt>
      <trkpt lat="49.36512" lon="6.66787">
        <ele>194.8</ele>
        <time>2021-07-21T18:43:24Z</time>
      </trkpt>
      <trkpt lat="49.36508" lon="6.66783">
        <ele>194.8</ele>
        <time>2021-07-21T18:43:25Z</time>
      </trkpt>
      <trkpt lat="49.36507" lon="6.66782">
        <ele>195.28</ele>
        <time>2021-07-21T18:43:26Z</time>
      </trkpt>
      <trkpt lat="49.36496" lon="6.66789">
        <ele>195.28</ele>
        <time>2021-07-21T18:43:27Z</time>
      </trkpt>
      <trkpt lat="49.3649" lon="6.66784">
        <ele>195.28</ele>
        <time>2021-07-21T18:43:28Z</time>
      </trkpt>
      <trkpt lat="49.36486" lon="6.66778">
        <ele>195.77</ele>
        <time>2021-07-21T18:43:29Z</time>
      </trkpt>
      <trkpt lat="49.36481" lon="6.66772">
        <ele>195.77</ele>
        <time>2021-07-21T18:43:30Z</time>
      </trkpt>
      <trkpt lat="49.36476" lon="6.66765">
        <ele>196.25</ele>
        <time>2021-07-21T18:43:31Z</time>
      </trkpt>
      <trkpt lat="49.36396" lon="6.66636">
        <ele>193.84</ele>
        <time>2021-07-21T18:43:44Z</time>
      </trkpt>
      <trkpt lat="49.36339" lon="6.66498">
        <ele>185.19</ele>
        <time>2021-07-21T18:43:55Z</time>
      </trkpt>
      <trkpt lat="49.3626" lon="6.66279">
        <ele>187.59</ele>
        <time>2021-07-21T18:44:08Z</time>
      </trkpt>
      <trkpt lat="49.36183" lon="6.66079">
        <ele>191.92</ele>
        <time>2021-07-21T18:44:22Z</time>
      </trkpt>
      <trkpt lat="49.3611" lon="6.6589">
        <ele>187.11</ele>
        <time>2021-07-21T18:44:36Z</time>
      </trkpt>
      <trkpt lat="49.36045" lon="6.65667">
        <ele>189.04</ele>
        <time>2021-07-21T18:44:51Z</time>
      </trkpt>
      <trkpt lat="49.35977" lon="6.65528">
        <ele>200.09</ele>
        <time>2021-07-21T18:45:01Z</time>
      </trkpt>
      <trkpt lat="49.35863" lon="6.6534">
        <ele>212.59</ele>
        <time>2021-07-21T18:45:13Z</time>
      </trkpt>
      <trkpt lat="49.35863" lon="6.6534">
        <ele>213.07</ele>
        <time>2021-07-21T18:45:14Z</time>
      </trkpt>
      <trkpt lat="49.35851" lon="6.65302">
        <ele>213.55</ele>
        <time>2021-07-21T18:45:15Z</time>
      </trkpt>
      <trkpt lat="49.35851" lon="6.65302">
        <ele>214.51</ele>
        <time>2021-07-21T18:45:16Z</time>
      </trkpt>
      <trkpt lat="49.35846" lon="6.65283">
        <ele>215.95</ele>
        <time>2021-07-21T18:45:17Z</time>
      </trkpt>
      <trkpt lat="49.35842" lon="6.65262">
        <ele>217.4</ele>
        <time>2021-07-21T18:45:18Z</time>
      </trkpt>
      <trkpt lat="49.3584" lon="6.6524">
        <ele>217.88</ele>
        <time>2021-07-21T18:45:19Z</time>
      </trkpt>
      <trkpt lat="49.3583" lon="6.64911">
        <ele>230.85</ele>
        <time>2021-07-21T18:45:33Z</time>
      </trkpt>
      <trkpt lat="49.35832" lon="6.6472">
        <ele>228.45</ele>
        <time>2021-07-21T18:45:40Z</time>
      </trkpt>
      <trkpt lat="49.35829" lon="6.64694">
        <ele>227.97</ele>
        <time>2021-07-21T18:45:41Z</time>
      </trkpt>
      <trkpt lat="49.35764" lon="6.64406">
        <ele>217.4</ele>
        <time>2021-07-21T18:45:52Z</time>
      </trkpt>
      <trkpt lat="49.35756" lon="6.64385">
        <ele>216.43</ele>
        <time>2021-07-21T18:45:53Z</time>
      </trkpt>
      <trkpt lat="49.35745" lon="6.64367">
        <ele>215.47</ele>
        <time>2021-07-21T18:45:54Z</time>
      </trkpt>
      <trkpt lat="49.35732" lon="6.64349">
        <ele>214.99</ele>
        <time>2021-07-21T18:45:55Z</time>
      </trkpt>
      <trkpt lat="49.35719" lon="6.64333">
        <ele>213.55</ele>
        <time>2021-07-21T18:45:56Z</time>
      </trkpt>
      <trkpt lat="49.35608" lon="6.64202">
        <ele>209.22</ele>
        <time>2021-07-21T18:46:04Z</time>
      </trkpt>
      <trkpt lat="49.35596" lon="6.64184">
        <ele>208.26</ele>
        <time>2021-07-21T18:46:05Z</time>
      </trkpt>
      <trkpt lat="49.35585" lon="6.64163">
        <ele>207.3</ele>
        <time>2021-07-21T18:46:06Z</time>
      </trkpt>
      <trkpt lat="49.35578" lon="6.6414">
        <ele>207.3</ele>
        <time>2021-07-21T18:46:07Z</time>
      </trkpt>
      <trkpt lat="49.35571" lon="6.64116">
        <ele>207.3</ele>
        <time>2021-07-21T18:46:08Z</time>
      </trkpt>
      <trkpt lat="49.35491" lon="6.63765">
        <ele>218.36</ele>
        <time>2021-07-21T18:46:22Z</time>
      </trkpt>
      <trkpt lat="49.35444" lon="6.63586">
        <ele>222.68</ele>
        <time>2021-07-21T18:46:29Z</time>
      </trkpt>
      <trkpt lat="49.35436" lon="6.63562">
        <ele>223.16</ele>
        <time>2021-07-21T18:46:30Z</time>
      </trkpt>
      <trkpt lat="49.35317" lon="6.63309">
        <ele>238.54</ele>
        <time>2021-07-21T18:46:42Z</time>
      </trkpt>
      <trkpt lat="49.35136" lon="6.6293">
        <ele>260.17</ele>
        <time>2021-07-21T18:47:01Z</time>
      </trkpt>
      <trkpt lat="49.35001" lon="6.62632">
        <ele>268.83</ele>
        <time>2021-07-21T18:47:15Z</time>
      </trkpt>
      <trkpt lat="49.34853" lon="6.62328">
        <ele>276.04</ele>
        <time>2021-07-21T18:47:29Z</time>
      </trkpt>
      <trkpt lat="49.3474" lon="6.62071">
        <ele>268.83</ele>
        <time>2021-07-21T18:47:40Z</time>
      </trkpt>
      <trkpt lat="49.3459" lon="6.61693">
        <ele>255.85</ele>
        <time>2021-07-21T18:47:55Z</time>
      </trkpt>
      <trkpt lat="49.34508" lon="6.61492">
        <ele>245.27</ele>
        <time>2021-07-21T18:48:04Z</time>
      </trkpt>
      <trkpt lat="49.34418" lon="6.6131">
        <ele>251.52</ele>
        <time>2021-07-21T18:48:13Z</time>
      </trkpt>
      <trkpt lat="49.34376" lon="6.61208">
        <ele>255.85</ele>
        <time>2021-07-21T18:48:18Z</time>
      </trkpt>
      <trkpt lat="49.3437" lon="6.61186">
        <ele>258.25</ele>
        <time>2021-07-21T18:48:19Z</time>
      </trkpt>
      <trkpt lat="49.34365" lon="6.61162">
        <ele>258.73</ele>
        <time>2021-07-21T18:48:20Z</time>
      </trkpt>
      <trkpt lat="49.3436" lon="6.6114">
        <ele>259.69</ele>
        <time>2021-07-21T18:48:21Z</time>
      </trkpt>
      <trkpt lat="49.34357" lon="6.61115">
        <ele>260.65</ele>
        <time>2021-07-21T18:48:22Z</time>
      </trkpt>
      <trkpt lat="49.34342" lon="6.60989">
        <ele>260.17</ele>
        <time>2021-07-21T18:48:27Z</time>
      </trkpt>
      <trkpt lat="49.34335" lon="6.60967">
        <ele>260.65</ele>
        <time>2021-07-21T18:48:28Z</time>
      </trkpt>
      <trkpt lat="49.34228" lon="6.60648">
        <ele>247.68</ele>
        <time>2021-07-21T18:48:41Z</time>
      </trkpt>
      <trkpt lat="49.34083" lon="6.60266">
        <ele>220.76</ele>
        <time>2021-07-21T18:48:55Z</time>
      </trkpt>
      <trkpt lat="49.34033" lon="6.60099">
        <ele>213.55</ele>
        <time>2021-07-21T18:49:01Z</time>
      </trkpt>
      <trkpt lat="49.33987" lon="6.59911">
        <ele>204.42</ele>
        <time>2021-07-21T18:49:09Z</time>
      </trkpt>
      <trkpt lat="49.33971" lon="6.59746">
        <ele>199.13</ele>
        <time>2021-07-21T18:49:17Z</time>
      </trkpt>
      <trkpt lat="49.33973" lon="6.59653">
        <ele>197.21</ele>
        <time>2021-07-21T18:49:21Z</time>
      </trkpt>
      <trkpt lat="49.33973" lon="6.59653">
        <ele>196.25</ele>
        <time>2021-07-21T18:49:22Z</time>
      </trkpt>
      <trkpt lat="49.3397" lon="6.59639">
        <ele>195.77</ele>
        <time>2021-07-21T18:49:23Z</time>
      </trkpt>
      <trkpt lat="49.33963" lon="6.59598">
        <ele>194.8</ele>
        <time>2021-07-21T18:49:26Z</time>
      </trkpt>
      <trkpt lat="49.33964" lon="6.59585">
        <ele>194.32</ele>
        <time>2021-07-21T18:49:27Z</time>
      </trkpt>
      <trkpt lat="49.33967" lon="6.59577">
        <ele>193.84</ele>
        <time>2021-07-21T18:49:28Z</time>
      </trkpt>
      <trkpt lat="49.33967" lon="6.59577">
        <ele>193.84</ele>
        <time>2021-07-21T18:49:29Z</time>
      </trkpt>
      <trkpt lat="49.33977" lon="6.59568">
        <ele>193.36</ele>
        <time>2021-07-21T18:49:30Z</time>
      </trkpt>
      <trkpt lat="49.33986" lon="6.59561">
        <ele>192.88</ele>
        <time>2021-07-21T18:49:31Z</time>
      </trkpt>
      <trkpt lat="49.34002" lon="6.59547">
        <ele>193.36</ele>
        <time>2021-07-21T18:49:32Z</time>
      </trkpt>
      <trkpt lat="49.34033" lon="6.59518">
        <ele>189.52</ele>
        <time>2021-07-21T18:49:35Z</time>
      </trkpt>
      <trkpt lat="49.34043" lon="6.59508">
        <ele>188.56</ele>
        <time>2021-07-21T18:49:36Z</time>
      </trkpt>
      <trkpt lat="49.34101" lon="6.59453">
        <ele>187.11</ele>
        <time>2021-07-21T18:49:43Z</time>
      </trkpt>
      <trkpt lat="49.34112" lon="6.59444">
        <ele>187.11</ele>
        <time>2021-07-21T18:49:44Z</time>
      </trkpt>
      <trkpt lat="49.34158" lon="6.59421">
        <ele>187.59</ele>
        <time>2021-07-21T18:49:48Z</time>
      </trkpt>
      <trkpt lat="49.34188" lon="6.59407">
        <ele>188.08</ele>
        <time>2021-07-21T18:49:51Z</time>
      </trkpt>
      <trkpt lat="49.34193" lon="6.59395">
        <ele>188.08</ele>
        <time>2021-07-21T18:49:52Z</time>
      </trkpt>
      <trkpt lat="49.34196" lon="6.59388">
        <ele>188.08</ele>
        <time>2021-07-21T18:49:53Z</time>
      </trkpt>
      <trkpt lat="49.34196" lon="6.59388">
        <ele>188.56</ele>
        <time>2021-07-21T18:49:54Z</time>
      </trkpt>
      <trkpt lat="49.34195" lon="6.59375">
        <ele>188.56</ele>
        <time>2021-07-21T18:49:55Z</time>
      </trkpt>
      <trkpt lat="49.34194" lon="6.59364">
        <ele>188.08</ele>
        <time>2021-07-21T18:49:56Z</time>
      </trkpt>
      <trkpt lat="49.34194" lon="6.59364">
        <ele>187.59</ele>
        <time>2021-07-21T18:49:57Z</time>
      </trkpt>
      <trkpt lat="49.34193" lon="6.59353">
        <ele>187.11</ele>
        <time>2021-07-21T18:49:58Z</time>
      </trkpt>
      <trkpt lat="49.34181" lon="6.59257">
        <ele>186.15</ele>
        <time>2021-07-21T18:50:04Z</time>
      </trkpt>
      <trkpt lat="49.34181" lon="6.59257">
        <ele>187.11</ele>
        <time>2021-07-21T18:50:05Z</time>
      </trkpt>
      <trkpt lat="49.34185" lon="6.59112">
        <ele>193.36</ele>
        <time>2021-07-21T18:50:14Z</time>
      </trkpt>
      <trkpt lat="49.34183" lon="6.59097">
        <ele>193.36</ele>
        <time>2021-07-21T18:50:15Z</time>
      </trkpt>
      <trkpt lat="49.34181" lon="6.59083">
        <ele>193.36</ele>
        <time>2021-07-21T18:50:16Z</time>
      </trkpt>
      <trkpt lat="49.34174" lon="6.59057">
        <ele>194.32</ele>
        <time>2021-07-21T18:50:18Z</time>
      </trkpt>
      <trkpt lat="49.34164" lon="6.59039">
        <ele>193.84</ele>
        <time>2021-07-21T18:50:20Z</time>
      </trkpt>
      <trkpt lat="49.34158" lon="6.59018">
        <ele>193.36</ele>
        <time>2021-07-21T18:50:22Z</time>
      </trkpt>
      <trkpt lat="49.34155" lon="6.59007">
        <ele>193.36</ele>
        <time>2021-07-21T18:50:23Z</time>
      </trkpt>
      <trkpt lat="49.34149" lon="6.58858">
        <ele>191.44</ele>
        <time>2021-07-21T18:50:34Z</time>
      </trkpt>
      <trkpt lat="49.34149" lon="6.58846">
        <ele>191.92</ele>
        <time>2021-07-21T18:50:35Z</time>
      </trkpt>
      <trkpt lat="49.34167" lon="6.58674">
        <ele>199.13</ele>
        <time>2021-07-21T18:50:46Z</time>
      </trkpt>
      <trkpt lat="49.34173" lon="6.5848">
        <ele>203.46</ele>
        <time>2021-07-21T18:50:57Z</time>
      </trkpt>
      <trkpt lat="49.34167" lon="6.5833">
        <ele>204.9</ele>
        <time>2021-07-21T18:51:05Z</time>
      </trkpt>
      <trkpt lat="49.34166" lon="6.58315">
        <ele>205.38</ele>
        <time>2021-07-21T18:51:06Z</time>
      </trkpt>
      <trkpt lat="49.34166" lon="6.58301">
        <ele>206.34</ele>
        <time>2021-07-21T18:51:07Z</time>
      </trkpt>
      <trkpt lat="49.34164" lon="6.58288">
        <ele>208.26</ele>
        <time>2021-07-21T18:51:08Z</time>
      </trkpt>
      <trkpt lat="49.34162" lon="6.58275">
        <ele>209.22</ele>
        <time>2021-07-21T18:51:09Z</time>
      </trkpt>
      <trkpt lat="49.3416" lon="6.58262">
        <ele>209.22</ele>
        <time>2021-07-21T18:51:10Z</time>
      </trkpt>
      <trkpt lat="49.34122" lon="6.58132">
        <ele>213.55</ele>
        <time>2021-07-21T18:51:19Z</time>
      </trkpt>
      <trkpt lat="49.34117" lon="6.58115">
        <ele>214.51</ele>
        <time>2021-07-21T18:51:20Z</time>
      </trkpt>
      <trkpt lat="49.34112" lon="6.58097">
        <ele>215.47</ele>
        <time>2021-07-21T18:51:21Z</time>
      </trkpt>
      <trkpt lat="49.34107" lon="6.58059">
        <ele>215.47</ele>
        <time>2021-07-21T18:51:22Z</time>
      </trkpt>
      <trkpt lat="49.34107" lon="6.58059">
        <ele>215.95</ele>
        <time>2021-07-21T18:51:23Z</time>
      </trkpt>
      <trkpt lat="49.34106" lon="6.58039">
        <ele>216.91</ele>
        <time>2021-07-21T18:51:24Z</time>
      </trkpt>
      <trkpt lat="49.34113" lon="6.57803">
        <ele>224.12</ele>
        <time>2021-07-21T18:51:35Z</time>
      </trkpt>
      <trkpt lat="49.34122" lon="6.57745">
        <ele>226.53</ele>
        <time>2021-07-21T18:51:41Z</time>
      </trkpt>
      <trkpt lat="49.34122" lon="6.57745">
        <ele>226.53</ele>
        <time>2021-07-21T18:51:56Z</time>
      </trkpt>
      <trkpt lat="49.34124" lon="6.57736">
        <ele>227.01</ele>
        <time>2021-07-21T18:52:41Z</time>
      </trkpt>
      <trkpt lat="49.34126" lon="6.57729">
        <ele>227.49</ele>
        <time>2021-07-21T18:52:42Z</time>
      </trkpt>
      <trkpt lat="49.34153" lon="6.57627">
        <ele>229.89</ele>
        <time>2021-07-21T18:52:50Z</time>
      </trkpt>
      <trkpt lat="49.34157" lon="6.57613">
        <ele>230.37</ele>
        <time>2021-07-21T18:52:51Z</time>
      </trkpt>
      <trkpt lat="49.34157" lon="6.57613">
        <ele>230.37</ele>
        <time>2021-07-21T18:52:52Z</time>
      </trkpt>
      <trkpt lat="49.34205" lon="6.57475">
        <ele>230.37</ele>
        <time>2021-07-21T18:53:00Z</time>
      </trkpt>
      <trkpt lat="49.34282" lon="6.57254">
        <ele>237.1</ele>
        <time>2021-07-21T18:53:10Z</time>
      </trkpt>
      <trkpt lat="49.34348" lon="6.57089">
        <ele>234.22</ele>
        <time>2021-07-21T18:53:19Z</time>
      </trkpt>
      <trkpt lat="49.34434" lon="6.56965">
        <ele>229.41</ele>
        <time>2021-07-21T18:53:27Z</time>
      </trkpt>
      <trkpt lat="49.34567" lon="6.56755">
        <ele>231.81</ele>
        <time>2021-07-21T18:53:38Z</time>
      </trkpt>
      <trkpt lat="49.3473" lon="6.56606">
        <ele>231.33</ele>
        <time>2021-07-21T18:53:48Z</time>
      </trkpt>
      <trkpt lat="49.34865" lon="6.56513">
        <ele>227.01</ele>
        <time>2021-07-21T18:53:56Z</time>
      </trkpt>
      <trkpt lat="49.3491" lon="6.56489">
        <ele>226.53</ele>
        <time>2021-07-21T18:53:59Z</time>
      </trkpt>
      <trkpt lat="49.34921" lon="6.56483">
        <ele>226.05</ele>
        <time>2021-07-21T18:54:00Z</time>
      </trkpt>
      <trkpt lat="49.34931" lon="6.56472">
        <ele>225.57</ele>
        <time>2021-07-21T18:54:01Z</time>
      </trkpt>
      <trkpt lat="49.34939" lon="6.56463">
        <ele>226.05</ele>
        <time>2021-07-21T18:54:02Z</time>
      </trkpt>
      <trkpt lat="49.34942" lon="6.56446">
        <ele>227.49</ele>
        <time>2021-07-21T18:54:03Z</time>
      </trkpt>
      <trkpt lat="49.34946" lon="6.56428">
        <ele>227.49</ele>
        <time>2021-07-21T18:54:04Z</time>
      </trkpt>
      <trkpt lat="49.34946" lon="6.56413">
        <ele>227.97</ele>
        <time>2021-07-21T18:54:05Z</time>
      </trkpt>
      <trkpt lat="49.34944" lon="6.56394">
        <ele>226.53</ele>
        <time>2021-07-21T18:54:06Z</time>
      </trkpt>
      <trkpt lat="49.34937" lon="6.56311">
        <ele>227.49</ele>
        <time>2021-07-21T18:54:10Z</time>
      </trkpt>
      <trkpt lat="49.34938" lon="6.5629">
        <ele>227.97</ele>
        <time>2021-07-21T18:54:11Z</time>
      </trkpt>
      <trkpt lat="49.34941" lon="6.5627">
        <ele>227.49</ele>
        <time>2021-07-21T18:54:12Z</time>
      </trkpt>
      <trkpt lat="49.34946" lon="6.56249">
        <ele>227.49</ele>
        <time>2021-07-21T18:54:13Z</time>
      </trkpt>
      <trkpt lat="49.3495" lon="6.56228">
        <ele>228.93</ele>
        <time>2021-07-21T18:54:14Z</time>
      </trkpt>
      <trkpt lat="49.35021" lon="6.56045">
        <ele>227.49</ele>
        <time>2021-07-21T18:54:23Z</time>
      </trkpt>
      <trkpt lat="49.35111" lon="6.55901">
        <ele>227.49</ele>
        <time>2021-07-21T18:54:32Z</time>
      </trkpt>
      <trkpt lat="49.3516" lon="6.55832">
        <ele>226.05</ele>
        <time>2021-07-21T18:54:42Z</time>
      </trkpt>
      <trkpt lat="49.35189" lon="6.55792">
        <ele>224.61</ele>
        <time>2021-07-21T18:54:46Z</time>
      </trkpt>
      <trkpt lat="49.35196" lon="6.55777">
        <ele>223.16</ele>
        <time>2021-07-21T18:54:47Z</time>
      </trkpt>
      <trkpt lat="49.3526" lon="6.55595">
        <ele>219.32</ele>
        <time>2021-07-21T18:54:57Z</time>
      </trkpt>
      <trkpt lat="49.35317" lon="6.55424">
        <ele>219.32</ele>
        <time>2021-07-21T18:55:07Z</time>
      </trkpt>
      <trkpt lat="49.35335" lon="6.55259">
        <ele>218.36</ele>
        <time>2021-07-21T18:55:17Z</time>
      </trkpt>
      <trkpt lat="49.35354" lon="6.55098">
        <ele>220.28</ele>
        <time>2021-07-21T18:55:28Z</time>
      </trkpt>
      <trkpt lat="49.35416" lon="6.54921">
        <ele>219.32</ele>
        <time>2021-07-21T18:55:37Z</time>
      </trkpt>
      <trkpt lat="49.35472" lon="6.54817">
        <ele>219.8</ele>
        <time>2021-07-21T18:55:43Z</time>
      </trkpt>
      <trkpt lat="49.35482" lon="6.54806">
        <ele>219.32</ele>
        <time>2021-07-21T18:55:44Z</time>
      </trkpt>
      <trkpt lat="49.35502" lon="6.54783">
        <ele>217.88</ele>
        <time>2021-07-21T18:55:45Z</time>
      </trkpt>
      <trkpt lat="49.35632" lon="6.54669">
        <ele>222.68</ele>
        <time>2021-07-21T18:55:56Z</time>
      </trkpt>
      <trkpt lat="49.35646" lon="6.5466">
        <ele>223.16</ele>
        <time>2021-07-21T18:55:57Z</time>
      </trkpt>
      <trkpt lat="49.3573" lon="6.54618">
        <ele>214.03</ele>
        <time>2021-07-21T18:56:03Z</time>
      </trkpt>
      <trkpt lat="49.35742" lon="6.54605">
        <ele>213.07</ele>
        <time>2021-07-21T18:56:04Z</time>
      </trkpt>
      <trkpt lat="49.35752" lon="6.54593">
        <ele>213.07</ele>
        <time>2021-07-21T18:56:05Z</time>
      </trkpt>
      <trkpt lat="49.35758" lon="6.54578">
        <ele>212.59</ele>
        <time>2021-07-21T18:56:06Z</time>
      </trkpt>
      <trkpt lat="49.35764" lon="6.54564">
        <ele>213.55</ele>
        <time>2021-07-21T18:56:07Z</time>
      </trkpt>
      <trkpt lat="49.35769" lon="6.54549">
        <ele>213.07</ele>
        <time>2021-07-21T18:56:08Z</time>
      </trkpt>
      <trkpt lat="49.35773" lon="6.54535">
        <ele>212.59</ele>
        <time>2021-07-21T18:56:09Z</time>
      </trkpt>
      <trkpt lat="49.35798" lon="6.54364">
        <ele>211.15</ele>
        <time>2021-07-21T18:56:19Z</time>
      </trkpt>
      <trkpt lat="49.35801" lon="6.54347">
        <ele>212.59</ele>
        <time>2021-07-21T18:56:24Z</time>
      </trkpt>
      <trkpt lat="49.35797" lon="6.54344">
        <ele>213.07</ele>
        <time>2021-07-21T18:56:25Z</time>
      </trkpt>
      <trkpt lat="49.35793" lon="6.5434">
        <ele>213.55</ele>
        <time>2021-07-21T18:56:26Z</time>
      </trkpt>
      <trkpt lat="49.35783" lon="6.54331">
        <ele>214.03</ele>
        <time>2021-07-21T18:56:28Z</time>
      </trkpt>
      <trkpt lat="49.35669" lon="6.5429">
        <ele>213.07</ele>
        <time>2021-07-21T18:56:39Z</time>
      </trkpt>
      <trkpt lat="49.35658" lon="6.54285">
        <ele>212.11</ele>
        <time>2021-07-21T18:56:40Z</time>
      </trkpt>
      <trkpt lat="49.35647" lon="6.5428">
        <ele>212.59</ele>
        <time>2021-07-21T18:56:41Z</time>
      </trkpt>
      <trkpt lat="49.35606" lon="6.54241">
        <ele>214.03</ele>
        <time>2021-07-21T18:56:46Z</time>
      </trkpt>
      <trkpt lat="49.35606" lon="6.54241">
        <ele>214.03</ele>
        <time>2021-07-21T18:56:47Z</time>
      </trkpt>
      <trkpt lat="49.35604" lon="6.54232">
        <ele>214.03</ele>
        <time>2021-07-21T18:56:48Z</time>
      </trkpt>
      <trkpt lat="49.35601" lon="6.54221">
        <ele>214.03</ele>
        <time>2021-07-21T18:56:49Z</time>
      </trkpt>
      <trkpt lat="49.35599" lon="6.54211">
        <ele>214.51</ele>
        <time>2021-07-21T18:56:50Z</time>
      </trkpt>
      <trkpt lat="49.35596" lon="6.54201">
        <ele>214.51</ele>
        <time>2021-07-21T18:56:51Z</time>
      </trkpt>
      <trkpt lat="49.35595" lon="6.5419">
        <ele>214.99</ele>
        <time>2021-07-21T18:56:52Z</time>
      </trkpt>
      <trkpt lat="49.35595" lon="6.54179">
        <ele>214.99</ele>
        <time>2021-07-21T18:56:53Z</time>
      </trkpt>
      <trkpt lat="49.35597" lon="6.54155">
        <ele>215.47</ele>
        <time>2021-07-21T18:56:54Z</time>
      </trkpt>
      <trkpt lat="49.35597" lon="6.54155">
        <ele>215.47</ele>
        <time>2021-07-21T18:56:55Z</time>
      </trkpt>
      <trkpt lat="49.356" lon="6.54144">
        <ele>215.95</ele>
        <time>2021-07-21T18:56:56Z</time>
      </trkpt>
      <trkpt lat="49.35603" lon="6.54132">
        <ele>215.95</ele>
        <time>2021-07-21T18:56:57Z</time>
      </trkpt>
      <trkpt lat="49.35607" lon="6.54121">
        <ele>215.95</ele>
        <time>2021-07-21T18:56:58Z</time>
      </trkpt>
      <trkpt lat="49.35612" lon="6.54111">
        <ele>215.95</ele>
        <time>2021-07-21T18:56:59Z</time>
      </trkpt>
      <trkpt lat="49.35616" lon="6.54101">
        <ele>216.43</ele>
        <time>2021-07-21T18:57:00Z</time>
      </trkpt>
      <trkpt lat="49.35621" lon="6.54092">
        <ele>216.43</ele>
        <time>2021-07-21T18:57:01Z</time>
      </trkpt>
      <trkpt lat="49.35625" lon="6.54082">
        <ele>216.91</ele>
        <time>2021-07-21T18:57:02Z</time>
      </trkpt>
      <trkpt lat="49.35626" lon="6.54071">
        <ele>217.4</ele>
        <time>2021-07-21T18:57:03Z</time>
      </trkpt>
      <trkpt lat="49.35627" lon="6.54061">
        <ele>217.88</ele>
        <time>2021-07-21T18:57:04Z</time>
      </trkpt>
      <trkpt lat="49.35625" lon="6.5405">
        <ele>217.88</ele>
        <time>2021-07-21T18:57:05Z</time>
      </trkpt>
      <trkpt lat="49.35623" lon="6.54039">
        <ele>218.36</ele>
        <time>2021-07-21T18:57:06Z</time>
      </trkpt>
      <trkpt lat="49.35601" lon="6.53903">
        <ele>222.2</ele>
        <time>2021-07-21T18:57:17Z</time>
      </trkpt>
      <trkpt lat="49.35589" lon="6.53749">
        <ele>226.05</ele>
        <time>2021-07-21T18:57:27Z</time>
      </trkpt>
      <trkpt lat="49.35582" lon="6.53645">
        <ele>228.45</ele>
        <time>2021-07-21T18:57:35Z</time>
      </trkpt>
      <trkpt lat="49.35574" lon="6.53532">
        <ele>227.97</ele>
        <time>2021-07-21T18:57:43Z</time>
      </trkpt>
      <trkpt lat="49.3556" lon="6.53336">
        <ele>233.74</ele>
        <time>2021-07-21T18:57:53Z</time>
      </trkpt>
      <trkpt lat="49.35551" lon="6.53144">
        <ele>240.95</ele>
        <time>2021-07-21T18:58:03Z</time>
      </trkpt>
      <trkpt lat="49.35577" lon="6.52847">
        <ele>250.56</ele>
        <time>2021-07-21T18:58:18Z</time>
      </trkpt>
      <trkpt lat="49.3559" lon="6.52599">
        <ele>249.12</ele>
        <time>2021-07-21T18:58:30Z</time>
      </trkpt>
      <trkpt lat="49.35594" lon="6.52493">
        <ele>245.27</ele>
        <time>2021-07-21T18:58:35Z</time>
      </trkpt>
      <trkpt lat="49.35595" lon="6.52476">
        <ele>245.27</ele>
        <time>2021-07-21T18:58:36Z</time>
      </trkpt>
      <trkpt lat="49.35594" lon="6.5246">
        <ele>243.83</ele>
        <time>2021-07-21T18:58:37Z</time>
      </trkpt>
      <trkpt lat="49.35591" lon="6.52443">
        <ele>242.39</ele>
        <time>2021-07-21T18:58:38Z</time>
      </trkpt>
      <trkpt lat="49.35587" lon="6.52425">
        <ele>241.43</ele>
        <time>2021-07-21T18:58:39Z</time>
      </trkpt>
      <trkpt lat="49.35562" lon="6.52299">
        <ele>239.02</ele>
        <time>2021-07-21T18:58:46Z</time>
      </trkpt>
      <trkpt lat="49.35534" lon="6.52171">
        <ele>234.22</ele>
        <time>2021-07-21T18:58:55Z</time>
      </trkpt>
      <trkpt lat="49.35511" lon="6.52069">
        <ele>228.93</ele>
        <time>2021-07-21T18:59:04Z</time>
      </trkpt>
      <trkpt lat="49.35507" lon="6.52057">
        <ele>227.49</ele>
        <time>2021-07-21T18:59:05Z</time>
      </trkpt>
      <trkpt lat="49.35501" lon="6.5205">
        <ele>227.97</ele>
        <time>2021-07-21T18:59:06Z</time>
      </trkpt>
      <trkpt lat="49.35481" lon="6.52024">
        <ele>229.41</ele>
        <time>2021-07-21T18:59:09Z</time>
      </trkpt>
      <trkpt lat="49.35475" lon="6.52017">
        <ele>228.45</ele>
        <time>2021-07-21T18:59:10Z</time>
      </trkpt>
      <trkpt lat="49.3547" lon="6.52003">
        <ele>228.45</ele>
        <time>2021-07-21T18:59:11Z</time>
      </trkpt>
      <trkpt lat="49.35466" lon="6.5199">
        <ele>228.45</ele>
        <time>2021-07-21T18:59:12Z</time>
      </trkpt>
      <trkpt lat="49.35464" lon="6.51977">
        <ele>227.97</ele>
        <time>2021-07-21T18:59:13Z</time>
      </trkpt>
      <trkpt lat="49.35464" lon="6.5196">
        <ele>227.97</ele>
        <time>2021-07-21T18:59:14Z</time>
      </trkpt>
      <trkpt lat="49.35463" lon="6.5178">
        <ele>227.49</ele>
        <time>2021-07-21T18:59:22Z</time>
      </trkpt>
      <trkpt lat="49.35461" lon="6.51605">
        <ele>229.41</ele>
        <time>2021-07-21T18:59:29Z</time>
      </trkpt>
      <trkpt lat="49.35429" lon="6.51351">
        <ele>229.89</ele>
        <time>2021-07-21T18:59:39Z</time>
      </trkpt>
      <trkpt lat="49.35376" lon="6.50944">
        <ele>225.57</ele>
        <time>2021-07-21T18:59:52Z</time>
      </trkpt>
      <trkpt lat="49.35363" lon="6.50827">
        <ele>227.97</ele>
        <time>2021-07-21T18:59:56Z</time>
      </trkpt>
      <trkpt lat="49.35362" lon="6.50806">
        <ele>227.97</ele>
        <time>2021-07-21T18:59:57Z</time>
      </trkpt>
      <trkpt lat="49.35363" lon="6.50788">
        <ele>227.49</ele>
        <time>2021-07-21T18:59:58Z</time>
      </trkpt>
      <trkpt lat="49.35366" lon="6.50769">
        <ele>227.01</ele>
        <time>2021-07-21T18:59:59Z</time>
      </trkpt>
      <trkpt lat="49.35372" lon="6.50755">
        <ele>227.01</ele>
        <time>2021-07-21T19:00:00Z</time>
      </trkpt>
      <trkpt lat="49.35382" lon="6.50738">
        <ele>227.49</ele>
        <time>2021-07-21T19:00:01Z</time>
      </trkpt>
      <trkpt lat="49.35391" lon="6.50722">
        <ele>227.49</ele>
        <time>2021-07-21T19:00:02Z</time>
      </trkpt>
      <trkpt lat="49.35412" lon="6.50692">
        <ele>226.53</ele>
        <time>2021-07-21T19:00:04Z</time>
      </trkpt>
      <trkpt lat="49.35425" lon="6.5068">
        <ele>227.01</ele>
        <time>2021-07-21T19:00:05Z</time>
      </trkpt>
      <trkpt lat="49.35439" lon="6.50667">
        <ele>227.01</ele>
        <time>2021-07-21T19:00:06Z</time>
      </trkpt>
      <trkpt lat="49.35451" lon="6.50657">
        <ele>226.05</ele>
        <time>2021-07-21T19:00:07Z</time>
      </trkpt>
      <trkpt lat="49.35465" lon="6.50647">
        <ele>226.05</ele>
        <time>2021-07-21T19:00:08Z</time>
      </trkpt>
      <trkpt lat="49.3548" lon="6.50642">
        <ele>226.53</ele>
        <time>2021-07-21T19:00:09Z</time>
      </trkpt>
      <trkpt lat="49.35559" lon="6.5062">
        <ele>230.85</ele>
        <time>2021-07-21T19:00:14Z</time>
      </trkpt>
      <trkpt lat="49.35571" lon="6.50611">
        <ele>230.85</ele>
        <time>2021-07-21T19:00:15Z</time>
      </trkpt>
      <trkpt lat="49.35582" lon="6.50603">
        <ele>232.3</ele>
        <time>2021-07-21T19:00:16Z</time>
      </trkpt>
      <trkpt lat="49.35593" lon="6.50595">
        <ele>233.26</ele>
        <time>2021-07-21T19:00:17Z</time>
      </trkpt>
      <trkpt lat="49.35598" lon="6.50581">
        <ele>232.78</ele>
        <time>2021-07-21T19:00:18Z</time>
      </trkpt>
      <trkpt lat="49.35604" lon="6.50564">
        <ele>232.78</ele>
        <time>2021-07-21T19:00:19Z</time>
      </trkpt>
      <trkpt lat="49.3561" lon="6.50546">
        <ele>233.26</ele>
        <time>2021-07-21T19:00:20Z</time>
      </trkpt>
      <trkpt lat="49.35614" lon="6.50525">
        <ele>234.22</ele>
        <time>2021-07-21T19:00:21Z</time>
      </trkpt>
      <trkpt lat="49.35631" lon="6.50444">
        <ele>235.18</ele>
        <time>2021-07-21T19:00:24Z</time>
      </trkpt>
      <trkpt lat="49.35637" lon="6.50424">
        <ele>235.18</ele>
        <time>2021-07-21T19:00:25Z</time>
      </trkpt>
      <trkpt lat="49.35712" lon="6.50229">
        <ele>237.1</ele>
        <time>2021-07-21T19:00:35Z</time>
      </trkpt>
      <trkpt lat="49.3577" lon="6.501">
        <ele>236.14</ele>
        <time>2021-07-21T19:00:42Z</time>
      </trkpt>
      <trkpt lat="49.35786" lon="6.50075">
        <ele>236.14</ele>
        <time>2021-07-21T19:00:43Z</time>
      </trkpt>
      <trkpt lat="49.35786" lon="6.50075">
        <ele>237.1</ele>
        <time>2021-07-21T19:00:44Z</time>
      </trkpt>
      <trkpt lat="49.35797" lon="6.5007">
        <ele>238.06</ele>
        <time>2021-07-21T19:00:45Z</time>
      </trkpt>
      <trkpt lat="49.35807" lon="6.50064">
        <ele>238.54</ele>
        <time>2021-07-21T19:00:46Z</time>
      </trkpt>
      <trkpt lat="49.35827" lon="6.50054">
        <ele>239.51</ele>
        <time>2021-07-21T19:00:48Z</time>
      </trkpt>
      <trkpt lat="49.35841" lon="6.5004">
        <ele>239.02</ele>
        <time>2021-07-21T19:00:49Z</time>
      </trkpt>
      <trkpt lat="49.35841" lon="6.5004">
        <ele>238.54</ele>
        <time>2021-07-21T19:00:50Z</time>
      </trkpt>
      <trkpt lat="49.35844" lon="6.50032">
        <ele>238.06</ele>
        <time>2021-07-21T19:00:51Z</time>
      </trkpt>
      <trkpt lat="49.35846" lon="6.5002">
        <ele>238.06</ele>
        <time>2021-07-21T19:00:52Z</time>
      </trkpt>
      <trkpt lat="49.35849" lon="6.50008">
        <ele>237.58</ele>
        <time>2021-07-21T19:00:53Z</time>
      </trkpt>
      <trkpt lat="49.35853" lon="6.49994">
        <ele>236.62</ele>
        <time>2021-07-21T19:00:54Z</time>
      </trkpt>
      <trkpt lat="49.35855" lon="6.49979">
        <ele>236.62</ele>
        <time>2021-07-21T19:00:55Z</time>
      </trkpt>
      <trkpt lat="49.35868" lon="6.49774">
        <ele>236.14</ele>
        <time>2021-07-21T19:01:08Z</time>
      </trkpt>
      <trkpt lat="49.35897" lon="6.49615">
        <ele>236.14</ele>
        <time>2021-07-21T19:01:20Z</time>
      </trkpt>
      <trkpt lat="49.35898" lon="6.49596">
        <ele>236.14</ele>
        <time>2021-07-21T19:01:21Z</time>
      </trkpt>
      <trkpt lat="49.35898" lon="6.49596">
        <ele>235.66</ele>
        <time>2021-07-21T19:01:22Z</time>
      </trkpt>
      <trkpt lat="49.35895" lon="6.49587">
        <ele>235.66</ele>
        <time>2021-07-21T19:01:23Z</time>
      </trkpt>
      <trkpt lat="49.35888" lon="6.49566">
        <ele>235.18</ele>
        <time>2021-07-21T19:01:24Z</time>
      </trkpt>
      <trkpt lat="49.35888" lon="6.49566">
        <ele>234.7</ele>
        <time>2021-07-21T19:01:25Z</time>
      </trkpt>
      <trkpt lat="49.35866" lon="6.49494">
        <ele>234.22</ele>
        <time>2021-07-21T19:01:32Z</time>
      </trkpt>
      <trkpt lat="49.35866" lon="6.49494">
        <ele>233.74</ele>
        <time>2021-07-21T19:01:33Z</time>
      </trkpt>
      <trkpt lat="49.35868" lon="6.49485">
        <ele>233.26</ele>
        <time>2021-07-21T19:01:34Z</time>
      </trkpt>
      <trkpt lat="49.35888" lon="6.49346">
        <ele>232.78</ele>
        <time>2021-07-21T19:01:46Z</time>
      </trkpt>
      <trkpt lat="49.35896" lon="6.49125">
        <ele>233.74</ele>
        <time>2021-07-21T19:01:58Z</time>
      </trkpt>
      <trkpt lat="49.35892" lon="6.49033">
        <ele>233.74</ele>
        <time>2021-07-21T19:02:05Z</time>
      </trkpt>
      <trkpt lat="49.35895" lon="6.48928">
        <ele>233.74</ele>
        <time>2021-07-21T19:02:14Z</time>
      </trkpt>
      <trkpt lat="49.35937" lon="6.48786">
        <ele>234.7</ele>
        <time>2021-07-21T19:02:23Z</time>
      </trkpt>
      <trkpt lat="49.35988" lon="6.48595">
        <ele>236.14</ele>
        <time>2021-07-21T19:02:34Z</time>
      </trkpt>
      <trkpt lat="49.36069" lon="6.48328">
        <ele>239.99</ele>
        <time>2021-07-21T19:02:48Z</time>
      </trkpt>
      <trkpt lat="49.36101" lon="6.48091">
        <ele>241.43</ele>
        <time>2021-07-21T19:02:59Z</time>
      </trkpt>
      <trkpt lat="49.3614" lon="6.47716">
        <ele>241.43</ele>
        <time>2021-07-21T19:03:13Z</time>
      </trkpt>
      <trkpt lat="49.36177" lon="6.4742">
        <ele>239.51</ele>
        <time>2021-07-21T19:03:25Z</time>
      </trkpt>
      <trkpt lat="49.36197" lon="6.47258">
        <ele>240.47</ele>
        <time>2021-07-21T19:03:31Z</time>
      </trkpt>
      <trkpt lat="49.36208" lon="6.47214">
        <ele>240.95</ele>
        <time>2021-07-21T19:03:32Z</time>
      </trkpt>
      <trkpt lat="49.36208" lon="6.47214">
        <ele>241.43</ele>
        <time>2021-07-21T19:03:33Z</time>
      </trkpt>
      <trkpt lat="49.36217" lon="6.47197">
        <ele>241.91</ele>
        <time>2021-07-21T19:03:34Z</time>
      </trkpt>
      <trkpt lat="49.36226" lon="6.47184">
        <ele>242.39</ele>
        <time>2021-07-21T19:03:35Z</time>
      </trkpt>
      <trkpt lat="49.36237" lon="6.47174">
        <ele>243.35</ele>
        <time>2021-07-21T19:03:36Z</time>
      </trkpt>
      <trkpt lat="49.36248" lon="6.47164">
        <ele>245.27</ele>
        <time>2021-07-21T19:03:37Z</time>
      </trkpt>
      <trkpt lat="49.36268" lon="6.47146">
        <ele>247.68</ele>
        <time>2021-07-21T19:03:39Z</time>
      </trkpt>
      <trkpt lat="49.36275" lon="6.47138">
        <ele>247.68</ele>
        <time>2021-07-21T19:03:40Z</time>
      </trkpt>
      <trkpt lat="49.36285" lon="6.47114">
        <ele>247.68</ele>
        <time>2021-07-21T19:03:41Z</time>
      </trkpt>
      <trkpt lat="49.36285" lon="6.47114">
        <ele>247.68</ele>
        <time>2021-07-21T19:03:42Z</time>
      </trkpt>
      <trkpt lat="49.3629" lon="6.47102">
        <ele>248.64</ele>
        <time>2021-07-21T19:03:43Z</time>
      </trkpt>
      <trkpt lat="49.36293" lon="6.47089">
        <ele>248.64</ele>
        <time>2021-07-21T19:03:44Z</time>
      </trkpt>
      <trkpt lat="49.36296" lon="6.47064">
        <ele>247.68</ele>
        <time>2021-07-21T19:03:45Z</time>
      </trkpt>
      <trkpt lat="49.36307" lon="6.46943">
        <ele>246.23</ele>
        <time>2021-07-21T19:03:58Z</time>
      </trkpt>
      <trkpt lat="49.36308" lon="6.46934">
        <ele>246.23</ele>
        <time>2021-07-21T19:04:09Z</time>
      </trkpt>
      <trkpt lat="49.36309" lon="6.46923">
        <ele>246.23</ele>
        <time>2021-07-21T19:04:17Z</time>
      </trkpt>
      <trkpt lat="49.3631" lon="6.46917">
        <ele>246.23</ele>
        <time>2021-07-21T19:04:18Z</time>
      </trkpt>
      <trkpt lat="49.36314" lon="6.46899">
        <ele>245.75</ele>
        <time>2021-07-21T19:04:27Z</time>
      </trkpt>
      <trkpt lat="49.36317" lon="6.46887">
        <ele>245.75</ele>
        <time>2021-07-21T19:04:29Z</time>
      </trkpt>
      <trkpt lat="49.36318" lon="6.4688">
        <ele>245.75</ele>
        <time>2021-07-21T19:04:30Z</time>
      </trkpt>
      <trkpt lat="49.3632" lon="6.46872">
        <ele>245.27</ele>
        <time>2021-07-21T19:04:31Z</time>
      </trkpt>
      <trkpt lat="49.36341" lon="6.46762">
        <ele>243.83</ele>
        <time>2021-07-21T19:04:39Z</time>
      </trkpt>
      <trkpt lat="49.36358" lon="6.46674">
        <ele>242.87</ele>
        <time>2021-07-21T19:04:46Z</time>
      </trkpt>
      <trkpt lat="49.36359" lon="6.46661">
        <ele>242.87</ele>
        <time>2021-07-21T19:04:49Z</time>
      </trkpt>
      <trkpt lat="49.36357" lon="6.46658">
        <ele>242.87</ele>
        <time>2021-07-21T19:04:50Z</time>
      </trkpt>
      <trkpt lat="49.36354" lon="6.46653">
        <ele>242.39</ele>
        <time>2021-07-21T19:04:51Z</time>
      </trkpt>
      <trkpt lat="49.3632" lon="6.46598">
        <ele>240.95</ele>
        <time>2021-07-21T19:04:57Z</time>
      </trkpt>
      <trkpt lat="49.36301" lon="6.46575">
        <ele>240.95</ele>
        <time>2021-07-21T19:04:58Z</time>
      </trkpt>
      <trkpt lat="49.36301" lon="6.46575">
        <ele>240.95</ele>
        <time>2021-07-21T19:04:59Z</time>
      </trkpt>
      <trkpt lat="49.36275" lon="6.46553">
        <ele>241.43</ele>
        <time>2021-07-21T19:05:00Z</time>
      </trkpt>
      <trkpt lat="49.36131" lon="6.46451">
        <ele>243.35</ele>
        <time>2021-07-21T19:05:10Z</time>
      </trkpt>
      <trkpt lat="49.35855" lon="6.46255">
        <ele>254.41</ele>
        <time>2021-07-21T19:05:25Z</time>
      </trkpt>
      <trkpt lat="49.3562" lon="6.46058">
        <ele>263.54</ele>
        <time>2021-07-21T19:05:38Z</time>
      </trkpt>
      <trkpt lat="49.35472" lon="6.45835">
        <ele>269.79</ele>
        <time>2021-07-21T19:05:49Z</time>
      </trkpt>
      <trkpt lat="49.35373" lon="6.45657">
        <ele>271.23</ele>
        <time>2021-07-21T19:05:59Z</time>
      </trkpt>
      <trkpt lat="49.3525" lon="6.45378">
        <ele>271.71</ele>
        <time>2021-07-21T19:06:13Z</time>
      </trkpt>
      <trkpt lat="49.35124" lon="6.45084">
        <ele>276.04</ele>
        <time>2021-07-21T19:06:26Z</time>
      </trkpt>
      <trkpt lat="49.35022" lon="6.44791">
        <ele>282.77</ele>
        <time>2021-07-21T19:06:37Z</time>
      </trkpt>
      <trkpt lat="49.34951" lon="6.4444">
        <ele>280.36</ele>
        <time>2021-07-21T19:06:51Z</time>
      </trkpt>
      <trkpt lat="49.34867" lon="6.43879">
        <ele>283.73</ele>
        <time>2021-07-21T19:07:10Z</time>
      </trkpt>
      <trkpt lat="49.34804" lon="6.43419">
        <ele>290.94</ele>
        <time>2021-07-21T19:07:26Z</time>
      </trkpt>
      <trkpt lat="49.34799" lon="6.43089">
        <ele>285.17</ele>
        <time>2021-07-21T19:07:37Z</time>
      </trkpt>
      <trkpt lat="49.34794" lon="6.42727">
        <ele>285.17</ele>
        <time>2021-07-21T19:07:49Z</time>
      </trkpt>
      <trkpt lat="49.34789" lon="6.42698">
        <ele>283.73</ele>
        <time>2021-07-21T19:07:50Z</time>
      </trkpt>
      <trkpt lat="49.34713" lon="6.42464">
        <ele>277.96</ele>
        <time>2021-07-21T19:07:59Z</time>
      </trkpt>
      <trkpt lat="49.34671" lon="6.42334">
        <ele>273.63</ele>
        <time>2021-07-21T19:08:04Z</time>
      </trkpt>
      <trkpt lat="49.34665" lon="6.42308">
        <ele>273.15</ele>
        <time>2021-07-21T19:08:05Z</time>
      </trkpt>
      <trkpt lat="49.3466" lon="6.42279">
        <ele>273.63</ele>
        <time>2021-07-21T19:08:06Z</time>
      </trkpt>
      <trkpt lat="49.34657" lon="6.4225">
        <ele>274.11</ele>
        <time>2021-07-21T19:08:07Z</time>
      </trkpt>
      <trkpt lat="49.34655" lon="6.42221">
        <ele>274.11</ele>
        <time>2021-07-21T19:08:08Z</time>
      </trkpt>
      <trkpt lat="49.34657" lon="6.41996">
        <ele>269.31</ele>
        <time>2021-07-21T19:08:17Z</time>
      </trkpt>
      <trkpt lat="49.34668" lon="6.4183">
        <ele>265.46</ele>
        <time>2021-07-21T19:08:25Z</time>
      </trkpt>
      <trkpt lat="49.34668" lon="6.41796">
        <ele>264.98</ele>
        <time>2021-07-21T19:08:33Z</time>
      </trkpt>
      <trkpt lat="49.3466" lon="6.417">
        <ele>262.1</ele>
        <time>2021-07-21T19:08:43Z</time>
      </trkpt>
      <trkpt lat="49.34679" lon="6.41588">
        <ele>258.25</ele>
        <time>2021-07-21T19:08:52Z</time>
      </trkpt>
      <trkpt lat="49.34683" lon="6.4157">
        <ele>257.29</ele>
        <time>2021-07-21T19:08:54Z</time>
      </trkpt>
      <trkpt lat="49.34684" lon="6.41562">
        <ele>256.81</ele>
        <time>2021-07-21T19:08:55Z</time>
      </trkpt>
      <trkpt lat="49.34685" lon="6.41554">
        <ele>256.81</ele>
        <time>2021-07-21T19:08:56Z</time>
      </trkpt>
      <trkpt lat="49.34685" lon="6.41545">
        <ele>256.33</ele>
        <time>2021-07-21T19:08:57Z</time>
      </trkpt>
      <trkpt lat="49.34684" lon="6.41536">
        <ele>255.85</ele>
        <time>2021-07-21T19:08:58Z</time>
      </trkpt>
      <trkpt lat="49.34682" lon="6.41456">
        <ele>251.52</ele>
        <time>2021-07-21T19:09:07Z</time>
      </trkpt>
      <trkpt lat="49.34683" lon="6.41451">
        <ele>251.04</ele>
        <time>2021-07-21T19:09:08Z</time>
      </trkpt>
      <trkpt lat="49.347" lon="6.41406">
        <ele>248.16</ele>
        <time>2021-07-21T19:09:13Z</time>
      </trkpt>
      <trkpt lat="49.34703" lon="6.41393">
        <ele>247.2</ele>
        <time>2021-07-21T19:09:14Z</time>
      </trkpt>
      <trkpt lat="49.34706" lon="6.41379">
        <ele>246.72</ele>
        <time>2021-07-21T19:09:15Z</time>
      </trkpt>
      <trkpt lat="49.34706" lon="6.41366">
        <ele>246.23</ele>
        <time>2021-07-21T19:09:16Z</time>
      </trkpt>
      <trkpt lat="49.34703" lon="6.41342">
        <ele>245.75</ele>
        <time>2021-07-21T19:09:17Z</time>
      </trkpt>
      <trkpt lat="49.34703" lon="6.41342">
        <ele>245.27</ele>
        <time>2021-07-21T19:09:18Z</time>
      </trkpt>
      <trkpt lat="49.34699" lon="6.41329">
        <ele>245.27</ele>
        <time>2021-07-21T19:09:19Z</time>
      </trkpt>
      <trkpt lat="49.34697" lon="6.41323">
        <ele>243.35</ele>
        <time>2021-07-21T19:09:28Z</time>
      </trkpt>
    </trkseg>
  </trk>
  <trk>
    <name><![CDATA[Journal actif: 2021-07-21 17:10]]></name>
    <trkseg>
      <trkpt lat="49.34697" lon="6.41323">
        <ele>243.35</ele>
        <time>2021-07-21T19:10:33Z</time>
      </trkpt>
      <trkpt lat="49.34689" lon="6.41295">
        <ele>242.87</ele>
        <time>2021-07-21T19:10:43Z</time>
      </trkpt>
      <trkpt lat="49.34675" lon="6.41248">
        <ele>242.87</ele>
        <time>2021-07-21T19:10:48Z</time>
      </trkpt>
      <trkpt lat="49.34671" lon="6.41235">
        <ele>243.83</ele>
        <time>2021-07-21T19:10:49Z</time>
      </trkpt>
      <trkpt lat="49.34669" lon="6.41221">
        <ele>244.79</ele>
        <time>2021-07-21T19:10:50Z</time>
      </trkpt>
      <trkpt lat="49.3467" lon="6.41146">
        <ele>245.75</ele>
        <time>2021-07-21T19:10:55Z</time>
      </trkpt>
      <trkpt lat="49.3467" lon="6.4113">
        <ele>245.75</ele>
        <time>2021-07-21T19:10:56Z</time>
      </trkpt>
      <trkpt lat="49.34669" lon="6.41113">
        <ele>245.27</ele>
        <time>2021-07-21T19:10:57Z</time>
      </trkpt>
      <trkpt lat="49.34666" lon="6.41098">
        <ele>244.79</ele>
        <time>2021-07-21T19:10:58Z</time>
      </trkpt>
      <trkpt lat="49.34664" lon="6.41083">
        <ele>245.27</ele>
        <time>2021-07-21T19:10:59Z</time>
      </trkpt>
      <trkpt lat="49.34661" lon="6.41068">
        <ele>245.27</ele>
        <time>2021-07-21T19:11:00Z</time>
      </trkpt>
      <trkpt lat="49.3466" lon="6.41054">
        <ele>245.75</ele>
        <time>2021-07-21T19:11:01Z</time>
      </trkpt>
      <trkpt lat="49.34663" lon="6.41039">
        <ele>246.23</ele>
        <time>2021-07-21T19:11:02Z</time>
      </trkpt>
      <trkpt lat="49.34665" lon="6.41022">
        <ele>247.2</ele>
        <time>2021-07-21T19:11:03Z</time>
      </trkpt>
      <trkpt lat="49.34701" lon="6.40808">
        <ele>252</ele>
        <time>2021-07-21T19:11:14Z</time>
      </trkpt>
      <trkpt lat="49.34713" lon="6.40575">
        <ele>256.81</ele>
        <time>2021-07-21T19:11:24Z</time>
      </trkpt>
      <trkpt lat="49.34669" lon="6.40278">
        <ele>263.54</ele>
        <time>2021-07-21T19:11:35Z</time>
      </trkpt>
      <trkpt lat="49.346" lon="6.40003">
        <ele>264.5</ele>
        <time>2021-07-21T19:11:47Z</time>
      </trkpt>
      <trkpt lat="49.34512" lon="6.39753">
        <ele>264.98</ele>
        <time>2021-07-21T19:11:58Z</time>
      </trkpt>
      <trkpt lat="49.3438" lon="6.39414">
        <ele>268.35</ele>
        <time>2021-07-21T19:12:13Z</time>
      </trkpt>
      <trkpt lat="49.34343" lon="6.39146">
        <ele>275.56</ele>
        <time>2021-07-21T19:12:23Z</time>
      </trkpt>
      <trkpt lat="49.34296" lon="6.38764">
        <ele>286.61</ele>
        <time>2021-07-21T19:12:38Z</time>
      </trkpt>
      <trkpt lat="49.3429" lon="6.38722">
        <ele>288.53</ele>
        <time>2021-07-21T19:12:40Z</time>
      </trkpt>
      <trkpt lat="49.34286" lon="6.38705">
        <ele>289.49</ele>
        <time>2021-07-21T19:12:41Z</time>
      </trkpt>
      <trkpt lat="49.3428" lon="6.3869">
        <ele>289.49</ele>
        <time>2021-07-21T19:12:42Z</time>
      </trkpt>
      <trkpt lat="49.34274" lon="6.38678">
        <ele>288.53</ele>
        <time>2021-07-21T19:12:43Z</time>
      </trkpt>
      <trkpt lat="49.34266" lon="6.38668">
        <ele>287.57</ele>
        <time>2021-07-21T19:12:44Z</time>
      </trkpt>
      <trkpt lat="49.34248" lon="6.38646">
        <ele>285.17</ele>
        <time>2021-07-21T19:12:46Z</time>
      </trkpt>
      <trkpt lat="49.34237" lon="6.38624">
        <ele>285.17</ele>
        <time>2021-07-21T19:12:47Z</time>
      </trkpt>
      <trkpt lat="49.34237" lon="6.38624">
        <ele>285.65</ele>
        <time>2021-07-21T19:12:48Z</time>
      </trkpt>
      <trkpt lat="49.34232" lon="6.38611">
        <ele>284.21</ele>
        <time>2021-07-21T19:12:49Z</time>
      </trkpt>
      <trkpt lat="49.3423" lon="6.3859">
        <ele>284.21</ele>
        <time>2021-07-21T19:12:50Z</time>
      </trkpt>
      <trkpt lat="49.34228" lon="6.3857">
        <ele>282.77</ele>
        <time>2021-07-21T19:12:51Z</time>
      </trkpt>
      <trkpt lat="49.34211" lon="6.38434">
        <ele>271.23</ele>
        <time>2021-07-21T19:12:57Z</time>
      </trkpt>
      <trkpt lat="49.34205" lon="6.38411">
        <ele>269.79</ele>
        <time>2021-07-21T19:12:58Z</time>
      </trkpt>
      <trkpt lat="49.34141" lon="6.38201">
        <ele>260.17</ele>
        <time>2021-07-21T19:13:06Z</time>
      </trkpt>
      <trkpt lat="49.34135" lon="6.38178">
        <ele>260.65</ele>
        <time>2021-07-21T19:13:07Z</time>
      </trkpt>
      <trkpt lat="49.34122" lon="6.38118">
        <ele>256.81</ele>
        <time>2021-07-21T19:13:10Z</time>
      </trkpt>
      <trkpt lat="49.34115" lon="6.38101">
        <ele>255.85</ele>
        <time>2021-07-21T19:13:11Z</time>
      </trkpt>
      <trkpt lat="49.34107" lon="6.38088">
        <ele>255.37</ele>
        <time>2021-07-21T19:13:12Z</time>
      </trkpt>
      <trkpt lat="49.341" lon="6.38077">
        <ele>253.93</ele>
        <time>2021-07-21T19:13:13Z</time>
      </trkpt>
      <trkpt lat="49.34089" lon="6.3807">
        <ele>253.44</ele>
        <time>2021-07-21T19:13:14Z</time>
      </trkpt>
      <trkpt lat="49.34079" lon="6.38063">
        <ele>253.44</ele>
        <time>2021-07-21T19:13:15Z</time>
      </trkpt>
      <trkpt lat="49.34067" lon="6.38064">
        <ele>252.96</ele>
        <time>2021-07-21T19:13:16Z</time>
      </trkpt>
      <trkpt lat="49.34056" lon="6.38064">
        <ele>252.96</ele>
        <time>2021-07-21T19:13:17Z</time>
      </trkpt>
      <trkpt lat="49.34035" lon="6.38065">
        <ele>251.52</ele>
        <time>2021-07-21T19:13:18Z</time>
      </trkpt>
      <trkpt lat="49.34024" lon="6.38065">
        <ele>250.56</ele>
        <time>2021-07-21T19:13:19Z</time>
      </trkpt>
      <trkpt lat="49.34024" lon="6.38065">
        <ele>250.56</ele>
        <time>2021-07-21T19:13:20Z</time>
      </trkpt>
      <trkpt lat="49.34018" lon="6.38062">
        <ele>250.56</ele>
        <time>2021-07-21T19:13:21Z</time>
      </trkpt>
      <trkpt lat="49.34011" lon="6.38056">
        <ele>250.08</ele>
        <time>2021-07-21T19:13:22Z</time>
      </trkpt>
      <trkpt lat="49.34005" lon="6.38045">
        <ele>249.6</ele>
        <time>2021-07-21T19:13:23Z</time>
      </trkpt>
      <trkpt lat="49.34" lon="6.38034">
        <ele>249.6</ele>
        <time>2021-07-21T19:13:24Z</time>
      </trkpt>
      <trkpt lat="49.33942" lon="6.37875">
        <ele>253.93</ele>
        <time>2021-07-21T19:13:37Z</time>
      </trkpt>
      <trkpt lat="49.33913" lon="6.378">
        <ele>249.12</ele>
        <time>2021-07-21T19:13:45Z</time>
      </trkpt>
      <trkpt lat="49.33893" lon="6.37738">
        <ele>244.31</ele>
        <time>2021-07-21T19:13:52Z</time>
      </trkpt>
      <trkpt lat="49.3389" lon="6.37726">
        <ele>243.35</ele>
        <time>2021-07-21T19:13:53Z</time>
      </trkpt>
      <trkpt lat="49.33889" lon="6.37712">
        <ele>241.91</ele>
        <time>2021-07-21T19:13:54Z</time>
      </trkpt>
      <trkpt lat="49.33885" lon="6.37608">
        <ele>235.66</ele>
        <time>2021-07-21T19:14:00Z</time>
      </trkpt>
      <trkpt lat="49.33881" lon="6.37595">
        <ele>235.18</ele>
        <time>2021-07-21T19:14:01Z</time>
      </trkpt>
      <trkpt lat="49.33878" lon="6.37581">
        <ele>234.22</ele>
        <time>2021-07-21T19:14:02Z</time>
      </trkpt>
      <trkpt lat="49.33861" lon="6.37518">
        <ele>232.78</ele>
        <time>2021-07-21T19:14:08Z</time>
      </trkpt>
      <trkpt lat="49.33842" lon="6.37437">
        <ele>229.41</ele>
        <time>2021-07-21T19:14:16Z</time>
      </trkpt>
      <trkpt lat="49.33804" lon="6.37274">
        <ele>226.05</ele>
        <time>2021-07-21T19:14:25Z</time>
      </trkpt>
      <trkpt lat="49.33726" lon="6.37063">
        <ele>223.16</ele>
        <time>2021-07-21T19:14:36Z</time>
      </trkpt>
      <trkpt lat="49.33672" lon="6.36949">
        <ele>219.8</ele>
        <time>2021-07-21T19:14:42Z</time>
      </trkpt>
      <trkpt lat="49.33665" lon="6.36927">
        <ele>219.32</ele>
        <time>2021-07-21T19:14:43Z</time>
      </trkpt>
      <trkpt lat="49.33608" lon="6.36665">
        <ele>218.36</ele>
        <time>2021-07-21T19:14:54Z</time>
      </trkpt>
      <trkpt lat="49.33543" lon="6.3637">
        <ele>217.4</ele>
        <time>2021-07-21T19:15:07Z</time>
      </trkpt>
      <trkpt lat="49.33525" lon="6.36296">
        <ele>214.99</ele>
        <time>2021-07-21T19:15:12Z</time>
      </trkpt>
      <trkpt lat="49.33523" lon="6.36287">
        <ele>215.47</ele>
        <time>2021-07-21T19:15:13Z</time>
      </trkpt>
      <trkpt lat="49.33522" lon="6.3628">
        <ele>215.47</ele>
        <time>2021-07-21T19:15:14Z</time>
      </trkpt>
      <trkpt lat="49.33531" lon="6.36281">
        <ele>215.95</ele>
        <time>2021-07-21T19:15:15Z</time>
      </trkpt>
      <trkpt lat="49.33533" lon="6.36277">
        <ele>215.95</ele>
        <time>2021-07-21T19:15:16Z</time>
      </trkpt>
      <trkpt lat="49.33534" lon="6.36273">
        <ele>215.95</ele>
        <time>2021-07-21T19:15:17Z</time>
      </trkpt>
      <trkpt lat="49.33541" lon="6.36259">
        <ele>215.95</ele>
        <time>2021-07-21T19:15:25Z</time>
      </trkpt>
      <trkpt lat="49.33545" lon="6.36255">
        <ele>215.95</ele>
        <time>2021-07-21T19:15:26Z</time>
      </trkpt>
      <trkpt lat="49.33545" lon="6.36255">
        <ele>215.47</ele>
        <time>2021-07-21T19:15:27Z</time>
      </trkpt>
      <trkpt lat="49.33549" lon="6.36254">
        <ele>214.99</ele>
        <time>2021-07-21T19:15:28Z</time>
      </trkpt>
      <trkpt lat="49.33555" lon="6.36252">
        <ele>214.03</ele>
        <time>2021-07-21T19:15:29Z</time>
      </trkpt>
      <trkpt lat="49.33598" lon="6.36237">
        <ele>212.11</ele>
        <time>2021-07-21T19:15:35Z</time>
      </trkpt>
      <trkpt lat="49.33607" lon="6.36234">
        <ele>212.11</ele>
        <time>2021-07-21T19:15:36Z</time>
      </trkpt>
      <trkpt lat="49.33616" lon="6.36235">
        <ele>212.11</ele>
        <time>2021-07-21T19:15:37Z</time>
      </trkpt>
      <trkpt lat="49.33625" lon="6.36238">
        <ele>212.59</ele>
        <time>2021-07-21T19:15:38Z</time>
      </trkpt>
      <trkpt lat="49.33633" lon="6.36243">
        <ele>212.59</ele>
        <time>2021-07-21T19:15:39Z</time>
      </trkpt>
      <trkpt lat="49.33641" lon="6.3625">
        <ele>212.59</ele>
        <time>2021-07-21T19:15:40Z</time>
      </trkpt>
      <trkpt lat="49.33778" lon="6.36381">
        <ele>220.76</ele>
        <time>2021-07-21T19:15:55Z</time>
      </trkpt>
      <trkpt lat="49.33921" lon="6.36519">
        <ele>236.14</ele>
        <time>2021-07-21T19:16:10Z</time>
      </trkpt>
      <trkpt lat="49.33961" lon="6.36558">
        <ele>241.91</ele>
        <time>2021-07-21T19:16:14Z</time>
      </trkpt>
      <trkpt lat="49.3397" lon="6.36563">
        <ele>243.35</ele>
        <time>2021-07-21T19:16:15Z</time>
      </trkpt>
      <trkpt lat="49.33978" lon="6.36568">
        <ele>242.87</ele>
        <time>2021-07-21T19:16:16Z</time>
      </trkpt>
      <trkpt lat="49.33987" lon="6.36572">
        <ele>242.87</ele>
        <time>2021-07-21T19:16:17Z</time>
      </trkpt>
      <trkpt lat="49.33994" lon="6.36574">
        <ele>242.87</ele>
        <time>2021-07-21T19:16:18Z</time>
      </trkpt>
      <trkpt lat="49.34002" lon="6.36575">
        <ele>242.87</ele>
        <time>2021-07-21T19:16:19Z</time>
      </trkpt>
      <trkpt lat="49.34067" lon="6.36564">
        <ele>246.23</ele>
        <time>2021-07-21T19:16:31Z</time>
      </trkpt>
      <trkpt lat="49.34092" lon="6.3656">
        <ele>249.6</ele>
        <time>2021-07-21T19:16:43Z</time>
      </trkpt>
      <trkpt lat="49.34092" lon="6.3656">
        <ele>249.12</ele>
        <time>2021-07-21T19:16:49Z</time>
      </trkpt>
      <trkpt lat="49.34095" lon="6.36559">
        <ele>249.12</ele>
        <time>2021-07-21T19:16:50Z</time>
      </trkpt>
    </trkseg>
  </trk>
  <trk>
    <name><![CDATA[Journal actif: 2021-07-22 14:35]]></name>
    <trkseg>
      <trkpt lat="49.34095" lon="6.36557">
        <ele>239.02</ele>
        <time>2021-07-22T16:35:49Z</time>
      </trkpt>
      <trkpt lat="49.34095" lon="6.36557">
        <ele>239.02</ele>
        <time>2021-07-22T16:35:54Z</time>
      </trkpt>
      <trkpt lat="49.34092" lon="6.3656">
        <ele>238.54</ele>
        <time>2021-07-22T16:36:02Z</time>
      </trkpt>
      <trkpt lat="49.34116" lon="6.3663">
        <ele>239.99</ele>
        <time>2021-07-22T16:36:12Z</time>
      </trkpt>
      <trkpt lat="49.34115" lon="6.36633">
        <ele>240.47</ele>
        <time>2021-07-22T16:36:13Z</time>
      </trkpt>
      <trkpt lat="49.34113" lon="6.36638">
        <ele>240.47</ele>
        <time>2021-07-22T16:36:14Z</time>
      </trkpt>
      <trkpt lat="49.3411" lon="6.36651">
        <ele>240.47</ele>
        <time>2021-07-22T16:36:15Z</time>
      </trkpt>
      <trkpt lat="49.3411" lon="6.36651">
        <ele>240.95</ele>
        <time>2021-07-22T16:36:16Z</time>
      </trkpt>
      <trkpt lat="49.34103" lon="6.36674">
        <ele>241.43</ele>
        <time>2021-07-22T16:36:19Z</time>
      </trkpt>
      <trkpt lat="49.34101" lon="6.36683">
        <ele>241.43</ele>
        <time>2021-07-22T16:36:20Z</time>
      </trkpt>
      <trkpt lat="49.34101" lon="6.36693">
        <ele>241.43</ele>
        <time>2021-07-22T16:36:21Z</time>
      </trkpt>
      <trkpt lat="49.341" lon="6.36702">
        <ele>241.91</ele>
        <time>2021-07-22T16:36:22Z</time>
      </trkpt>
      <trkpt lat="49.341" lon="6.36713">
        <ele>242.39</ele>
        <time>2021-07-22T16:36:23Z</time>
      </trkpt>
      <trkpt lat="49.34102" lon="6.36723">
        <ele>242.39</ele>
        <time>2021-07-22T16:36:24Z</time>
      </trkpt>
      <trkpt lat="49.34106" lon="6.36732">
        <ele>242.87</ele>
        <time>2021-07-22T16:36:25Z</time>
      </trkpt>
      <trkpt lat="49.3411" lon="6.36741">
        <ele>242.87</ele>
        <time>2021-07-22T16:36:26Z</time>
      </trkpt>
      <trkpt lat="49.34138" lon="6.36802">
        <ele>244.31</ele>
        <time>2021-07-22T16:36:33Z</time>
      </trkpt>
      <trkpt lat="49.34142" lon="6.36811">
        <ele>243.83</ele>
        <time>2021-07-22T16:36:34Z</time>
      </trkpt>
      <trkpt lat="49.34142" lon="6.36825">
        <ele>242.87</ele>
        <time>2021-07-22T16:36:35Z</time>
      </trkpt>
      <trkpt lat="49.34142" lon="6.36837">
        <ele>243.35</ele>
        <time>2021-07-22T16:36:36Z</time>
      </trkpt>
      <trkpt lat="49.34142" lon="6.36848">
        <ele>243.35</ele>
        <time>2021-07-22T16:36:37Z</time>
      </trkpt>
      <trkpt lat="49.34141" lon="6.36859">
        <ele>244.31</ele>
        <time>2021-07-22T16:36:38Z</time>
      </trkpt>
      <trkpt lat="49.34141" lon="6.36879">
        <ele>244.79</ele>
        <time>2021-07-22T16:36:39Z</time>
      </trkpt>
      <trkpt lat="49.34141" lon="6.36879">
        <ele>244.79</ele>
        <time>2021-07-22T16:36:40Z</time>
      </trkpt>
      <trkpt lat="49.34142" lon="6.36907">
        <ele>245.27</ele>
        <time>2021-07-22T16:36:46Z</time>
      </trkpt>
      <trkpt lat="49.34157" lon="6.36943">
        <ele>247.68</ele>
        <time>2021-07-22T16:36:51Z</time>
      </trkpt>
      <trkpt lat="49.3416" lon="6.36952">
        <ele>248.64</ele>
        <time>2021-07-22T16:36:52Z</time>
      </trkpt>
      <trkpt lat="49.34164" lon="6.36958">
        <ele>248.64</ele>
        <time>2021-07-22T16:36:53Z</time>
      </trkpt>
      <trkpt lat="49.3417" lon="6.36964">
        <ele>248.64</ele>
        <time>2021-07-22T16:36:54Z</time>
      </trkpt>
      <trkpt lat="49.34177" lon="6.36969">
        <ele>249.12</ele>
        <time>2021-07-22T16:36:55Z</time>
      </trkpt>
      <trkpt lat="49.34183" lon="6.36975">
        <ele>249.6</ele>
        <time>2021-07-22T16:36:56Z</time>
      </trkpt>
      <trkpt lat="49.3419" lon="6.36975">
        <ele>250.08</ele>
        <time>2021-07-22T16:36:57Z</time>
      </trkpt>
      <trkpt lat="49.34197" lon="6.36973">
        <ele>251.04</ele>
        <time>2021-07-22T16:36:58Z</time>
      </trkpt>
      <trkpt lat="49.34202" lon="6.36967">
        <ele>251.52</ele>
        <time>2021-07-22T16:36:59Z</time>
      </trkpt>
      <trkpt lat="49.34208" lon="6.3696">
        <ele>252</ele>
        <time>2021-07-22T16:37:00Z</time>
      </trkpt>
      <trkpt lat="49.34212" lon="6.36952">
        <ele>252</ele>
        <time>2021-07-22T16:37:01Z</time>
      </trkpt>
      <trkpt lat="49.34238" lon="6.36904">
        <ele>253.93</ele>
        <time>2021-07-22T16:37:06Z</time>
      </trkpt>
      <trkpt lat="49.34243" lon="6.36895">
        <ele>254.41</ele>
        <time>2021-07-22T16:37:07Z</time>
      </trkpt>
      <trkpt lat="49.34249" lon="6.36887">
        <ele>254.89</ele>
        <time>2021-07-22T16:37:08Z</time>
      </trkpt>
      <trkpt lat="49.34308" lon="6.36848">
        <ele>256.81</ele>
        <time>2021-07-22T16:37:19Z</time>
      </trkpt>
      <trkpt lat="49.34308" lon="6.36848">
        <ele>258.25</ele>
        <time>2021-07-22T16:37:38Z</time>
      </trkpt>
      <trkpt lat="49.34311" lon="6.36847">
        <ele>258.25</ele>
        <time>2021-07-22T16:37:39Z</time>
      </trkpt>
      <trkpt lat="49.34312" lon="6.36847">
        <ele>257.77</ele>
        <time>2021-07-22T16:37:40Z</time>
      </trkpt>
      <trkpt lat="49.34314" lon="6.36847">
        <ele>257.77</ele>
        <time>2021-07-22T16:37:41Z</time>
      </trkpt>
      <trkpt lat="49.34314" lon="6.36847">
        <ele>257.77</ele>
        <time>2021-07-22T16:37:42Z</time>
      </trkpt>
      <trkpt lat="49.34315" lon="6.36847">
        <ele>257.77</ele>
        <time>2021-07-22T16:37:43Z</time>
      </trkpt>
      <trkpt lat="49.34316" lon="6.36849">
        <ele>257.77</ele>
        <time>2021-07-22T16:37:44Z</time>
      </trkpt>
      <trkpt lat="49.34327" lon="6.36901">
        <ele>256.33</ele>
        <time>2021-07-22T16:37:56Z</time>
      </trkpt>
      <trkpt lat="49.34298" lon="6.36913">
        <ele>253.44</ele>
        <time>2021-07-22T16:38:05Z</time>
      </trkpt>
      <trkpt lat="49.3428" lon="6.36907">
        <ele>251.52</ele>
        <time>2021-07-22T16:38:10Z</time>
      </trkpt>
      <trkpt lat="49.34275" lon="6.36905">
        <ele>251.52</ele>
        <time>2021-07-22T16:38:11Z</time>
      </trkpt>
      <trkpt lat="49.34271" lon="6.36906">
        <ele>251.04</ele>
        <time>2021-07-22T16:38:12Z</time>
      </trkpt>
      <trkpt lat="49.34266" lon="6.36908">
        <ele>250.56</ele>
        <time>2021-07-22T16:38:13Z</time>
      </trkpt>
      <trkpt lat="49.34261" lon="6.3691">
        <ele>249.6</ele>
        <time>2021-07-22T16:38:14Z</time>
      </trkpt>
      <trkpt lat="49.34254" lon="6.36922">
        <ele>249.12</ele>
        <time>2021-07-22T16:38:15Z</time>
      </trkpt>
      <trkpt lat="49.34254" lon="6.36922">
        <ele>248.64</ele>
        <time>2021-07-22T16:38:16Z</time>
      </trkpt>
      <trkpt lat="49.3425" lon="6.36928">
        <ele>247.68</ele>
        <time>2021-07-22T16:38:17Z</time>
      </trkpt>
      <trkpt lat="49.34247" lon="6.36934">
        <ele>247.2</ele>
        <time>2021-07-22T16:38:18Z</time>
      </trkpt>
      <trkpt lat="49.34247" lon="6.36948">
        <ele>246.23</ele>
        <time>2021-07-22T16:38:19Z</time>
      </trkpt>
      <trkpt lat="49.34248" lon="6.36957">
        <ele>245.75</ele>
        <time>2021-07-22T16:38:20Z</time>
      </trkpt>
      <trkpt lat="49.34251" lon="6.36978">
        <ele>245.27</ele>
        <time>2021-07-22T16:38:21Z</time>
      </trkpt>
      <trkpt lat="49.34262" lon="6.3712">
        <ele>238.06</ele>
        <time>2021-07-22T16:38:35Z</time>
      </trkpt>
      <trkpt lat="49.3426" lon="6.3713">
        <ele>237.58</ele>
        <time>2021-07-22T16:38:36Z</time>
      </trkpt>
      <trkpt lat="49.34258" lon="6.37141">
        <ele>236.62</ele>
        <time>2021-07-22T16:38:37Z</time>
      </trkpt>
      <trkpt lat="49.34255" lon="6.37149">
        <ele>236.14</ele>
        <time>2021-07-22T16:38:38Z</time>
      </trkpt>
      <trkpt lat="49.34249" lon="6.37156">
        <ele>235.66</ele>
        <time>2021-07-22T16:38:39Z</time>
      </trkpt>
      <trkpt lat="49.34244" lon="6.37164">
        <ele>234.7</ele>
        <time>2021-07-22T16:38:40Z</time>
      </trkpt>
      <trkpt lat="49.34149" lon="6.37275">
        <ele>226.53</ele>
        <time>2021-07-22T16:38:55Z</time>
      </trkpt>
      <trkpt lat="49.34149" lon="6.37275">
        <ele>226.53</ele>
        <time>2021-07-22T16:38:56Z</time>
      </trkpt>
      <trkpt lat="49.3402" lon="6.37314">
        <ele>220.28</ele>
        <time>2021-07-22T16:39:14Z</time>
      </trkpt>
      <trkpt lat="49.33977" lon="6.37338">
        <ele>219.8</ele>
        <time>2021-07-22T16:39:22Z</time>
      </trkpt>
      <trkpt lat="49.33929" lon="6.37411">
        <ele>221.24</ele>
        <time>2021-07-22T16:39:33Z</time>
      </trkpt>
      <trkpt lat="49.33879" lon="6.37485">
        <ele>225.57</ele>
        <time>2021-07-22T16:39:43Z</time>
      </trkpt>
      <trkpt lat="49.33875" lon="6.37489">
        <ele>225.57</ele>
        <time>2021-07-22T16:39:44Z</time>
      </trkpt>
      <trkpt lat="49.33871" lon="6.37492">
        <ele>226.05</ele>
        <time>2021-07-22T16:39:45Z</time>
      </trkpt>
      <trkpt lat="49.33869" lon="6.37495">
        <ele>226.05</ele>
        <time>2021-07-22T16:39:46Z</time>
      </trkpt>
      <trkpt lat="49.33864" lon="6.37499">
        <ele>226.53</ele>
        <time>2021-07-22T16:39:47Z</time>
      </trkpt>
      <trkpt lat="49.33864" lon="6.37499">
        <ele>226.53</ele>
        <time>2021-07-22T16:39:48Z</time>
      </trkpt>
      <trkpt lat="49.33862" lon="6.375">
        <ele>226.53</ele>
        <time>2021-07-22T16:39:49Z</time>
      </trkpt>
      <trkpt lat="49.33855" lon="6.37496">
        <ele>226.53</ele>
        <time>2021-07-22T16:39:50Z</time>
      </trkpt>
      <trkpt lat="49.33854" lon="6.37491">
        <ele>226.53</ele>
        <time>2021-07-22T16:39:51Z</time>
      </trkpt>
      <trkpt lat="49.33852" lon="6.37484">
        <ele>226.05</ele>
        <time>2021-07-22T16:39:52Z</time>
      </trkpt>
      <trkpt lat="49.3385" lon="6.37475">
        <ele>225.57</ele>
        <time>2021-07-22T16:39:53Z</time>
      </trkpt>
      <trkpt lat="49.3385" lon="6.37475">
        <ele>225.09</ele>
        <time>2021-07-22T16:39:54Z</time>
      </trkpt>
      <trkpt lat="49.33848" lon="6.37465">
        <ele>224.61</ele>
        <time>2021-07-22T16:39:55Z</time>
      </trkpt>
      <trkpt lat="49.33809" lon="6.3729">
        <ele>220.76</ele>
        <time>2021-07-22T16:40:07Z</time>
      </trkpt>
      <trkpt lat="49.33738" lon="6.37088">
        <ele>216.91</ele>
        <time>2021-07-22T16:40:19Z</time>
      </trkpt>
      <trkpt lat="49.33652" lon="6.36883">
        <ele>214.51</ele>
        <time>2021-07-22T16:40:31Z</time>
      </trkpt>
      <trkpt lat="49.33608" lon="6.36664">
        <ele>216.43</ele>
        <time>2021-07-22T16:40:42Z</time>
      </trkpt>
      <trkpt lat="49.33546" lon="6.36383">
        <ele>215.47</ele>
        <time>2021-07-22T16:40:55Z</time>
      </trkpt>
      <trkpt lat="49.33515" lon="6.36223">
        <ele>216.43</ele>
        <time>2021-07-22T16:41:03Z</time>
      </trkpt>
      <trkpt lat="49.3349" lon="6.35946">
        <ele>218.36</ele>
        <time>2021-07-22T16:41:17Z</time>
      </trkpt>
      <trkpt lat="49.33476" lon="6.35772">
        <ele>216.43</ele>
        <time>2021-07-22T16:41:25Z</time>
      </trkpt>
      <trkpt lat="49.33477" lon="6.35749">
        <ele>217.4</ele>
        <time>2021-07-22T16:41:26Z</time>
      </trkpt>
      <trkpt lat="49.33479" lon="6.35727">
        <ele>216.91</ele>
        <time>2021-07-22T16:41:27Z</time>
      </trkpt>
      <trkpt lat="49.33492" lon="6.35685">
        <ele>216.43</ele>
        <time>2021-07-22T16:41:28Z</time>
      </trkpt>
      <trkpt lat="49.33492" lon="6.35685">
        <ele>216.91</ele>
        <time>2021-07-22T16:41:29Z</time>
      </trkpt>
      <trkpt lat="49.33503" lon="6.35646">
        <ele>217.88</ele>
        <time>2021-07-22T16:41:31Z</time>
      </trkpt>
      <trkpt lat="49.33507" lon="6.35624">
        <ele>216.91</ele>
        <time>2021-07-22T16:41:32Z</time>
      </trkpt>
      <trkpt lat="49.33511" lon="6.35603">
        <ele>215.95</ele>
        <time>2021-07-22T16:41:33Z</time>
      </trkpt>
      <trkpt lat="49.33516" lon="6.35483">
        <ele>214.99</ele>
        <time>2021-07-22T16:41:38Z</time>
      </trkpt>
      <trkpt lat="49.33516" lon="6.35483">
        <ele>213.55</ele>
        <time>2021-07-22T16:41:39Z</time>
      </trkpt>
      <trkpt lat="49.33513" lon="6.35464">
        <ele>212.11</ele>
        <time>2021-07-22T16:41:40Z</time>
      </trkpt>
      <trkpt lat="49.3351" lon="6.35448">
        <ele>211.15</ele>
        <time>2021-07-22T16:41:41Z</time>
      </trkpt>
      <trkpt lat="49.33506" lon="6.35434">
        <ele>210.19</ele>
        <time>2021-07-22T16:41:42Z</time>
      </trkpt>
      <trkpt lat="49.33484" lon="6.35274">
        <ele>205.86</ele>
        <time>2021-07-22T16:41:52Z</time>
      </trkpt>
      <trkpt lat="49.33476" lon="6.35245">
        <ele>206.34</ele>
        <time>2021-07-22T16:41:53Z</time>
      </trkpt>
      <trkpt lat="49.33476" lon="6.35245">
        <ele>205.86</ele>
        <time>2021-07-22T16:41:54Z</time>
      </trkpt>
      <trkpt lat="49.33416" lon="6.35128">
        <ele>205.86</ele>
        <time>2021-07-22T16:42:05Z</time>
      </trkpt>
      <trkpt lat="49.33322" lon="6.35053">
        <ele>202.49</ele>
        <time>2021-07-22T16:42:16Z</time>
      </trkpt>
      <trkpt lat="49.33258" lon="6.34998">
        <ele>200.57</ele>
        <time>2021-07-22T16:42:27Z</time>
      </trkpt>
      <trkpt lat="49.33163" lon="6.34934">
        <ele>196.25</ele>
        <time>2021-07-22T16:42:36Z</time>
      </trkpt>
      <trkpt lat="49.33155" lon="6.34925">
        <ele>196.73</ele>
        <time>2021-07-22T16:42:37Z</time>
      </trkpt>
      <trkpt lat="49.33146" lon="6.34916">
        <ele>197.21</ele>
        <time>2021-07-22T16:42:38Z</time>
      </trkpt>
      <trkpt lat="49.33138" lon="6.34906">
        <ele>196.73</ele>
        <time>2021-07-22T16:42:39Z</time>
      </trkpt>
      <trkpt lat="49.3313" lon="6.34893">
        <ele>196.73</ele>
        <time>2021-07-22T16:42:40Z</time>
      </trkpt>
      <trkpt lat="49.33122" lon="6.34879">
        <ele>197.69</ele>
        <time>2021-07-22T16:42:41Z</time>
      </trkpt>
      <trkpt lat="49.33114" lon="6.34866">
        <ele>196.25</ele>
        <time>2021-07-22T16:42:42Z</time>
      </trkpt>
      <trkpt lat="49.33002" lon="6.34655">
        <ele>193.36</ele>
        <time>2021-07-22T16:42:54Z</time>
      </trkpt>
      <trkpt lat="49.32886" lon="6.34398">
        <ele>190</ele>
        <time>2021-07-22T16:43:06Z</time>
      </trkpt>
      <trkpt lat="49.32853" lon="6.34164">
        <ele>191.44</ele>
        <time>2021-07-22T16:43:15Z</time>
      </trkpt>
      <trkpt lat="49.32831" lon="6.33887">
        <ele>190.48</ele>
        <time>2021-07-22T16:43:26Z</time>
      </trkpt>
      <trkpt lat="49.32826" lon="6.33868">
        <ele>188.08</ele>
        <time>2021-07-22T16:43:27Z</time>
      </trkpt>
      <trkpt lat="49.3282" lon="6.33851">
        <ele>186.63</ele>
        <time>2021-07-22T16:43:28Z</time>
      </trkpt>
      <trkpt lat="49.32814" lon="6.33833">
        <ele>187.11</ele>
        <time>2021-07-22T16:43:29Z</time>
      </trkpt>
      <trkpt lat="49.32806" lon="6.33817">
        <ele>187.11</ele>
        <time>2021-07-22T16:43:30Z</time>
      </trkpt>
      <trkpt lat="49.32796" lon="6.33799">
        <ele>187.11</ele>
        <time>2021-07-22T16:43:31Z</time>
      </trkpt>
      <trkpt lat="49.32699" lon="6.33616">
        <ele>190</ele>
        <time>2021-07-22T16:43:40Z</time>
      </trkpt>
      <trkpt lat="49.32699" lon="6.33616">
        <ele>192.4</ele>
        <time>2021-07-22T16:43:41Z</time>
      </trkpt>
      <trkpt lat="49.32692" lon="6.33594">
        <ele>193.36</ele>
        <time>2021-07-22T16:43:42Z</time>
      </trkpt>
      <trkpt lat="49.32617" lon="6.33267">
        <ele>200.09</ele>
        <time>2021-07-22T16:43:56Z</time>
      </trkpt>
      <trkpt lat="49.32564" lon="6.32979">
        <ele>200.09</ele>
        <time>2021-07-22T16:44:07Z</time>
      </trkpt>
      <trkpt lat="49.32563" lon="6.32954">
        <ele>200.57</ele>
        <time>2021-07-22T16:44:08Z</time>
      </trkpt>
      <trkpt lat="49.32573" lon="6.32738">
        <ele>203.46</ele>
        <time>2021-07-22T16:44:16Z</time>
      </trkpt>
      <trkpt lat="49.32576" lon="6.32721">
        <ele>202.98</ele>
        <time>2021-07-22T16:44:17Z</time>
      </trkpt>
      <trkpt lat="49.32576" lon="6.32721">
        <ele>202.01</ele>
        <time>2021-07-22T16:44:18Z</time>
      </trkpt>
      <trkpt lat="49.32583" lon="6.32704">
        <ele>201.53</ele>
        <time>2021-07-22T16:44:19Z</time>
      </trkpt>
      <trkpt lat="49.3259" lon="6.32688">
        <ele>202.49</ele>
        <time>2021-07-22T16:44:20Z</time>
      </trkpt>
      <trkpt lat="49.32599" lon="6.32677">
        <ele>202.98</ele>
        <time>2021-07-22T16:44:21Z</time>
      </trkpt>
      <trkpt lat="49.3261" lon="6.32664">
        <ele>203.46</ele>
        <time>2021-07-22T16:44:22Z</time>
      </trkpt>
      <trkpt lat="49.3272" lon="6.32542">
        <ele>195.28</ele>
        <time>2021-07-22T16:44:32Z</time>
      </trkpt>
      <trkpt lat="49.32726" lon="6.3253">
        <ele>194.8</ele>
        <time>2021-07-22T16:44:33Z</time>
      </trkpt>
      <trkpt lat="49.32732" lon="6.32515">
        <ele>194.32</ele>
        <time>2021-07-22T16:44:34Z</time>
      </trkpt>
      <trkpt lat="49.32766" lon="6.32368">
        <ele>185.19</ele>
        <time>2021-07-22T16:44:42Z</time>
      </trkpt>
      <trkpt lat="49.32773" lon="6.32311">
        <ele>184.23</ele>
        <time>2021-07-22T16:44:48Z</time>
      </trkpt>
      <trkpt lat="49.32776" lon="6.32303">
        <ele>183.75</ele>
        <time>2021-07-22T16:44:51Z</time>
      </trkpt>
      <trkpt lat="49.32779" lon="6.32301">
        <ele>183.75</ele>
        <time>2021-07-22T16:44:52Z</time>
      </trkpt>
      <trkpt lat="49.32784" lon="6.32299">
        <ele>183.75</ele>
        <time>2021-07-22T16:44:53Z</time>
      </trkpt>
      <trkpt lat="49.3286" lon="6.32261">
        <ele>183.75</ele>
        <time>2021-07-22T16:45:02Z</time>
      </trkpt>
      <trkpt lat="49.32963" lon="6.32215">
        <ele>181.35</ele>
        <time>2021-07-22T16:45:12Z</time>
      </trkpt>
      <trkpt lat="49.32972" lon="6.32209">
        <ele>180.38</ele>
        <time>2021-07-22T16:45:13Z</time>
      </trkpt>
      <trkpt lat="49.32981" lon="6.32201">
        <ele>180.87</ele>
        <time>2021-07-22T16:45:14Z</time>
      </trkpt>
      <trkpt lat="49.32988" lon="6.3219">
        <ele>181.83</ele>
        <time>2021-07-22T16:45:15Z</time>
      </trkpt>
      <trkpt lat="49.32995" lon="6.32181">
        <ele>181.83</ele>
        <time>2021-07-22T16:45:16Z</time>
      </trkpt>
      <trkpt lat="49.33001" lon="6.32172">
        <ele>181.35</ele>
        <time>2021-07-22T16:45:17Z</time>
      </trkpt>
      <trkpt lat="49.33005" lon="6.32167">
        <ele>181.35</ele>
        <time>2021-07-22T16:45:18Z</time>
      </trkpt>
      <trkpt lat="49.33005" lon="6.32167">
        <ele>180.87</ele>
        <time>2021-07-22T16:45:19Z</time>
      </trkpt>
      <trkpt lat="49.33002" lon="6.32156">
        <ele>180.87</ele>
        <time>2021-07-22T16:45:20Z</time>
      </trkpt>
      <trkpt lat="49.32998" lon="6.3214">
        <ele>180.38</ele>
        <time>2021-07-22T16:45:21Z</time>
      </trkpt>
      <trkpt lat="49.32995" lon="6.32131">
        <ele>180.38</ele>
        <time>2021-07-22T16:45:22Z</time>
      </trkpt>
      <trkpt lat="49.32995" lon="6.32131">
        <ele>179.9</ele>
        <time>2021-07-22T16:45:23Z</time>
      </trkpt>
      <trkpt lat="49.32958" lon="6.31977">
        <ele>178.94</ele>
        <time>2021-07-22T16:45:34Z</time>
      </trkpt>
      <trkpt lat="49.32946" lon="6.31898">
        <ele>178.46</ele>
        <time>2021-07-22T16:45:39Z</time>
      </trkpt>
      <trkpt lat="49.32942" lon="6.31885">
        <ele>177.5</ele>
        <time>2021-07-22T16:45:40Z</time>
      </trkpt>
      <trkpt lat="49.32929" lon="6.31853">
        <ele>176.06</ele>
        <time>2021-07-22T16:45:43Z</time>
      </trkpt>
      <trkpt lat="49.32928" lon="6.31849">
        <ele>176.06</ele>
        <time>2021-07-22T16:45:44Z</time>
      </trkpt>
      <trkpt lat="49.32918" lon="6.31847">
        <ele>175.58</ele>
        <time>2021-07-22T16:45:45Z</time>
      </trkpt>
      <trkpt lat="49.32913" lon="6.31848">
        <ele>175.58</ele>
        <time>2021-07-22T16:45:46Z</time>
      </trkpt>
      <trkpt lat="49.32913" lon="6.31848">
        <ele>175.58</ele>
        <time>2021-07-22T16:45:47Z</time>
      </trkpt>
      <trkpt lat="49.32899" lon="6.31859">
        <ele>175.58</ele>
        <time>2021-07-22T16:45:48Z</time>
      </trkpt>
      <trkpt lat="49.32805" lon="6.31926">
        <ele>174.62</ele>
        <time>2021-07-22T16:45:59Z</time>
      </trkpt>
      <trkpt lat="49.32776" lon="6.31941">
        <ele>177.02</ele>
        <time>2021-07-22T16:46:02Z</time>
      </trkpt>
      <trkpt lat="49.32765" lon="6.31944">
        <ele>176.06</ele>
        <time>2021-07-22T16:46:03Z</time>
      </trkpt>
      <trkpt lat="49.32754" lon="6.31945">
        <ele>176.54</ele>
        <time>2021-07-22T16:46:04Z</time>
      </trkpt>
      <trkpt lat="49.32697" lon="6.31939">
        <ele>177.02</ele>
        <time>2021-07-22T16:46:09Z</time>
      </trkpt>
      <trkpt lat="49.32676" lon="6.31926">
        <ele>177.5</ele>
        <time>2021-07-22T16:46:10Z</time>
      </trkpt>
      <trkpt lat="49.32676" lon="6.31926">
        <ele>178.46</ele>
        <time>2021-07-22T16:46:11Z</time>
      </trkpt>
      <trkpt lat="49.32667" lon="6.31916">
        <ele>178.46</ele>
        <time>2021-07-22T16:46:12Z</time>
      </trkpt>
      <trkpt lat="49.32648" lon="6.31894">
        <ele>178.94</ele>
        <time>2021-07-22T16:46:13Z</time>
      </trkpt>
      <trkpt lat="49.32648" lon="6.31894">
        <ele>179.42</ele>
        <time>2021-07-22T16:46:14Z</time>
      </trkpt>
      <trkpt lat="49.32529" lon="6.3176">
        <ele>183.75</ele>
        <time>2021-07-22T16:46:25Z</time>
      </trkpt>
      <trkpt lat="49.3251" lon="6.3173">
        <ele>183.75</ele>
        <time>2021-07-22T16:46:27Z</time>
      </trkpt>
      <trkpt lat="49.32502" lon="6.31716">
        <ele>183.75</ele>
        <time>2021-07-22T16:46:28Z</time>
      </trkpt>
      <trkpt lat="49.32496" lon="6.31699">
        <ele>183.75</ele>
        <time>2021-07-22T16:46:29Z</time>
      </trkpt>
      <trkpt lat="49.3249" lon="6.31681">
        <ele>182.79</ele>
        <time>2021-07-22T16:46:30Z</time>
      </trkpt>
      <trkpt lat="49.32486" lon="6.31661">
        <ele>182.79</ele>
        <time>2021-07-22T16:46:31Z</time>
      </trkpt>
      <trkpt lat="49.32429" lon="6.31363">
        <ele>184.23</ele>
        <time>2021-07-22T16:46:46Z</time>
      </trkpt>
      <trkpt lat="49.32423" lon="6.31345">
        <ele>184.23</ele>
        <time>2021-07-22T16:46:47Z</time>
      </trkpt>
      <trkpt lat="49.32354" lon="6.31142">
        <ele>187.59</ele>
        <time>2021-07-22T16:46:57Z</time>
      </trkpt>
      <trkpt lat="49.32317" lon="6.31047">
        <ele>191.44</ele>
        <time>2021-07-22T16:47:02Z</time>
      </trkpt>
      <trkpt lat="49.32308" lon="6.3103">
        <ele>192.4</ele>
        <time>2021-07-22T16:47:03Z</time>
      </trkpt>
      <trkpt lat="49.32285" lon="6.31007">
        <ele>192.4</ele>
        <time>2021-07-22T16:47:04Z</time>
      </trkpt>
      <trkpt lat="49.32175" lon="6.30923">
        <ele>200.09</ele>
        <time>2021-07-22T16:47:13Z</time>
      </trkpt>
      <trkpt lat="49.32025" lon="6.30745">
        <ele>211.15</ele>
        <time>2021-07-22T16:47:25Z</time>
      </trkpt>
      <trkpt lat="49.31854" lon="6.30525">
        <ele>222.68</ele>
        <time>2021-07-22T16:47:38Z</time>
      </trkpt>
      <trkpt lat="49.31715" lon="6.3041">
        <ele>231.81</ele>
        <time>2021-07-22T16:47:48Z</time>
      </trkpt>
      <trkpt lat="49.31596" lon="6.30281">
        <ele>236.62</ele>
        <time>2021-07-22T16:47:59Z</time>
      </trkpt>
      <trkpt lat="49.31585" lon="6.30267">
        <ele>236.62</ele>
        <time>2021-07-22T16:48:00Z</time>
      </trkpt>
      <trkpt lat="49.31585" lon="6.30267">
        <ele>236.62</ele>
        <time>2021-07-22T16:48:01Z</time>
      </trkpt>
      <trkpt lat="49.31582" lon="6.30262">
        <ele>237.1</ele>
        <time>2021-07-22T16:48:02Z</time>
      </trkpt>
      <trkpt lat="49.3158" lon="6.30245">
        <ele>238.06</ele>
        <time>2021-07-22T16:48:09Z</time>
      </trkpt>
      <trkpt lat="49.31581" lon="6.3024">
        <ele>238.54</ele>
        <time>2021-07-22T16:48:10Z</time>
      </trkpt>
      <trkpt lat="49.31582" lon="6.30232">
        <ele>239.02</ele>
        <time>2021-07-22T16:48:11Z</time>
      </trkpt>
      <trkpt lat="49.31602" lon="6.30102">
        <ele>239.51</ele>
        <time>2021-07-22T16:48:20Z</time>
      </trkpt>
      <trkpt lat="49.31639" lon="6.29864">
        <ele>236.62</ele>
        <time>2021-07-22T16:48:31Z</time>
      </trkpt>
      <trkpt lat="49.31706" lon="6.29433">
        <ele>230.37</ele>
        <time>2021-07-22T16:48:50Z</time>
      </trkpt>
      <trkpt lat="49.31777" lon="6.2897">
        <ele>226.53</ele>
        <time>2021-07-22T16:49:11Z</time>
      </trkpt>
      <trkpt lat="49.31836" lon="6.2857">
        <ele>222.68</ele>
        <time>2021-07-22T16:49:27Z</time>
      </trkpt>
      <trkpt lat="49.31895" lon="6.28183">
        <ele>226.53</ele>
        <time>2021-07-22T16:49:42Z</time>
      </trkpt>
      <trkpt lat="49.31942" lon="6.27885">
        <ele>226.05</ele>
        <time>2021-07-22T16:49:56Z</time>
      </trkpt>
      <trkpt lat="49.31962" lon="6.27753">
        <ele>227.01</ele>
        <time>2021-07-22T16:50:04Z</time>
      </trkpt>
      <trkpt lat="49.31977" lon="6.27746">
        <ele>227.01</ele>
        <time>2021-07-22T16:50:05Z</time>
      </trkpt>
      <trkpt lat="49.31977" lon="6.27746">
        <ele>227.01</ele>
        <time>2021-07-22T16:50:06Z</time>
      </trkpt>
      <trkpt lat="49.3198" lon="6.27721">
        <ele>227.01</ele>
        <time>2021-07-22T16:50:07Z</time>
      </trkpt>
      <trkpt lat="49.3198" lon="6.27721">
        <ele>227.01</ele>
        <time>2021-07-22T16:50:08Z</time>
      </trkpt>
      <trkpt lat="49.31971" lon="6.27709">
        <ele>227.01</ele>
        <time>2021-07-22T16:50:09Z</time>
      </trkpt>
      <trkpt lat="49.31973" lon="6.27699">
        <ele>227.01</ele>
        <time>2021-07-22T16:50:10Z</time>
      </trkpt>
      <trkpt lat="49.31974" lon="6.27688">
        <ele>227.01</ele>
        <time>2021-07-22T16:50:11Z</time>
      </trkpt>
      <trkpt lat="49.31976" lon="6.27675">
        <ele>227.01</ele>
        <time>2021-07-22T16:50:12Z</time>
      </trkpt>
      <trkpt lat="49.31978" lon="6.27661">
        <ele>227.49</ele>
        <time>2021-07-22T16:50:13Z</time>
      </trkpt>
      <trkpt lat="49.32009" lon="6.27463">
        <ele>227.49</ele>
        <time>2021-07-22T16:50:24Z</time>
      </trkpt>
      <trkpt lat="49.32064" lon="6.27108">
        <ele>218.36</ele>
        <time>2021-07-22T16:50:40Z</time>
      </trkpt>
      <trkpt lat="49.32126" lon="6.26727">
        <ele>208.74</ele>
        <time>2021-07-22T16:50:55Z</time>
      </trkpt>
      <trkpt lat="49.32186" lon="6.26522">
        <ele>198.17</ele>
        <time>2021-07-22T16:51:03Z</time>
      </trkpt>
      <trkpt lat="49.3235" lon="6.26191">
        <ele>186.15</ele>
        <time>2021-07-22T16:51:16Z</time>
      </trkpt>
      <trkpt lat="49.32392" lon="6.2606">
        <ele>189.04</ele>
        <time>2021-07-22T16:51:20Z</time>
      </trkpt>
      <trkpt lat="49.32392" lon="6.2606">
        <ele>189.52</ele>
        <time>2021-07-22T16:51:21Z</time>
      </trkpt>
      <trkpt lat="49.32396" lon="6.26034">
        <ele>190</ele>
        <time>2021-07-22T16:51:22Z</time>
      </trkpt>
      <trkpt lat="49.32399" lon="6.26005">
        <ele>189.52</ele>
        <time>2021-07-22T16:51:23Z</time>
      </trkpt>
      <trkpt lat="49.32399" lon="6.25979">
        <ele>191.44</ele>
        <time>2021-07-22T16:51:24Z</time>
      </trkpt>
      <trkpt lat="49.32397" lon="6.25951">
        <ele>191.92</ele>
        <time>2021-07-22T16:51:25Z</time>
      </trkpt>
      <trkpt lat="49.32396" lon="6.25922">
        <ele>191.92</ele>
        <time>2021-07-22T16:51:26Z</time>
      </trkpt>
      <trkpt lat="49.32394" lon="6.25894">
        <ele>191.92</ele>
        <time>2021-07-22T16:51:27Z</time>
      </trkpt>
      <trkpt lat="49.32353" lon="6.25532">
        <ele>190</ele>
        <time>2021-07-22T16:51:39Z</time>
      </trkpt>
      <trkpt lat="49.32353" lon="6.255">
        <ele>190.48</ele>
        <time>2021-07-22T16:51:40Z</time>
      </trkpt>
      <trkpt lat="49.32354" lon="6.25468">
        <ele>191.44</ele>
        <time>2021-07-22T16:51:41Z</time>
      </trkpt>
      <trkpt lat="49.32395" lon="6.25179">
        <ele>195.77</ele>
        <time>2021-07-22T16:51:51Z</time>
      </trkpt>
      <trkpt lat="49.32409" lon="6.25086">
        <ele>196.73</ele>
        <time>2021-07-22T16:51:56Z</time>
      </trkpt>
      <trkpt lat="49.3241" lon="6.25075">
        <ele>196.73</ele>
        <time>2021-07-22T16:51:57Z</time>
      </trkpt>
      <trkpt lat="49.32411" lon="6.25071">
        <ele>197.21</ele>
        <time>2021-07-22T16:51:58Z</time>
      </trkpt>
      <trkpt lat="49.32421" lon="6.25069">
        <ele>197.21</ele>
        <time>2021-07-22T16:51:59Z</time>
      </trkpt>
      <trkpt lat="49.32429" lon="6.25062">
        <ele>197.21</ele>
        <time>2021-07-22T16:52:00Z</time>
      </trkpt>
      <trkpt lat="49.32434" lon="6.25057">
        <ele>197.21</ele>
        <time>2021-07-22T16:52:01Z</time>
      </trkpt>
      <trkpt lat="49.32442" lon="6.25052">
        <ele>197.21</ele>
        <time>2021-07-22T16:52:02Z</time>
      </trkpt>
      <trkpt lat="49.3245" lon="6.25047">
        <ele>197.21</ele>
        <time>2021-07-22T16:52:03Z</time>
      </trkpt>
      <trkpt lat="49.3246" lon="6.25047">
        <ele>196.73</ele>
        <time>2021-07-22T16:52:04Z</time>
      </trkpt>
      <trkpt lat="49.3259" lon="6.25026">
        <ele>193.36</ele>
        <time>2021-07-22T16:52:13Z</time>
      </trkpt>
      <trkpt lat="49.32671" lon="6.24992">
        <ele>193.36</ele>
        <time>2021-07-22T16:52:21Z</time>
      </trkpt>
      <trkpt lat="49.32765" lon="6.24946">
        <ele>189.52</ele>
        <time>2021-07-22T16:52:32Z</time>
      </trkpt>
      <trkpt lat="49.32877" lon="6.2489">
        <ele>188.08</ele>
        <time>2021-07-22T16:52:46Z</time>
      </trkpt>
      <trkpt lat="49.32974" lon="6.2484">
        <ele>187.59</ele>
        <time>2021-07-22T16:53:00Z</time>
      </trkpt>
      <trkpt lat="49.3301" lon="6.24834">
        <ele>188.08</ele>
        <time>2021-07-22T16:53:06Z</time>
      </trkpt>
      <trkpt lat="49.33012" lon="6.24835">
        <ele>188.56</ele>
        <time>2021-07-22T16:53:07Z</time>
      </trkpt>
      <trkpt lat="49.33019" lon="6.24843">
        <ele>188.56</ele>
        <time>2021-07-22T16:53:08Z</time>
      </trkpt>
      <trkpt lat="49.33026" lon="6.24851">
        <ele>189.04</ele>
        <time>2021-07-22T16:53:10Z</time>
      </trkpt>
      <trkpt lat="49.33045" lon="6.24856">
        <ele>189.52</ele>
        <time>2021-07-22T16:53:11Z</time>
      </trkpt>
      <trkpt lat="49.33045" lon="6.24856">
        <ele>189.52</ele>
        <time>2021-07-22T16:53:12Z</time>
      </trkpt>
      <trkpt lat="49.33051" lon="6.24853">
        <ele>189.52</ele>
        <time>2021-07-22T16:53:13Z</time>
      </trkpt>
      <trkpt lat="49.33059" lon="6.24844">
        <ele>189.52</ele>
        <time>2021-07-22T16:53:14Z</time>
      </trkpt>
      <trkpt lat="49.33067" lon="6.24828">
        <ele>190</ele>
        <time>2021-07-22T16:53:15Z</time>
      </trkpt>
      <trkpt lat="49.33068" lon="6.24815">
        <ele>189.52</ele>
        <time>2021-07-22T16:53:16Z</time>
      </trkpt>
      <trkpt lat="49.33069" lon="6.24804">
        <ele>190</ele>
        <time>2021-07-22T16:53:17Z</time>
      </trkpt>
      <trkpt lat="49.33069" lon="6.24804">
        <ele>190</ele>
        <time>2021-07-22T16:53:18Z</time>
      </trkpt>
      <trkpt lat="49.33069" lon="6.24779">
        <ele>190</ele>
        <time>2021-07-22T16:53:20Z</time>
      </trkpt>
      <trkpt lat="49.33076" lon="6.24754">
        <ele>190</ele>
        <time>2021-07-22T16:53:21Z</time>
      </trkpt>
      <trkpt lat="49.33076" lon="6.24754">
        <ele>189.04</ele>
        <time>2021-07-22T16:53:22Z</time>
      </trkpt>
      <trkpt lat="49.33148" lon="6.24593">
        <ele>191.92</ele>
        <time>2021-07-22T16:53:32Z</time>
      </trkpt>
      <trkpt lat="49.33182" lon="6.24397">
        <ele>194.32</ele>
        <time>2021-07-22T16:53:40Z</time>
      </trkpt>
      <trkpt lat="49.33168" lon="6.24174">
        <ele>195.28</ele>
        <time>2021-07-22T16:53:48Z</time>
      </trkpt>
      <trkpt lat="49.33105" lon="6.23693">
        <ele>199.61</ele>
        <time>2021-07-22T16:54:04Z</time>
      </trkpt>
      <trkpt lat="49.33062" lon="6.23379">
        <ele>202.98</ele>
        <time>2021-07-22T16:54:15Z</time>
      </trkpt>
      <trkpt lat="49.3306" lon="6.23321">
        <ele>203.46</ele>
        <time>2021-07-22T16:54:19Z</time>
      </trkpt>
      <trkpt lat="49.33061" lon="6.23315">
        <ele>203.94</ele>
        <time>2021-07-22T16:54:20Z</time>
      </trkpt>
      <trkpt lat="49.33063" lon="6.23302">
        <ele>203.94</ele>
        <time>2021-07-22T16:54:21Z</time>
      </trkpt>
      <trkpt lat="49.33068" lon="6.23286">
        <ele>204.42</ele>
        <time>2021-07-22T16:54:24Z</time>
      </trkpt>
      <trkpt lat="49.33067" lon="6.23274">
        <ele>204.42</ele>
        <time>2021-07-22T16:54:25Z</time>
      </trkpt>
      <trkpt lat="49.33065" lon="6.23266">
        <ele>204.42</ele>
        <time>2021-07-22T16:54:26Z</time>
      </trkpt>
      <trkpt lat="49.33059" lon="6.23245">
        <ele>203.94</ele>
        <time>2021-07-22T16:54:28Z</time>
      </trkpt>
      <trkpt lat="49.33056" lon="6.23222">
        <ele>203.94</ele>
        <time>2021-07-22T16:54:29Z</time>
      </trkpt>
      <trkpt lat="49.33056" lon="6.23222">
        <ele>203.46</ele>
        <time>2021-07-22T16:54:30Z</time>
      </trkpt>
      <trkpt lat="49.33053" lon="6.23193">
        <ele>203.46</ele>
        <time>2021-07-22T16:54:31Z</time>
      </trkpt>
      <trkpt lat="49.33053" lon="6.23193">
        <ele>203.46</ele>
        <time>2021-07-22T16:54:32Z</time>
      </trkpt>
      <trkpt lat="49.33069" lon="6.23045">
        <ele>202.98</ele>
        <time>2021-07-22T16:54:40Z</time>
      </trkpt>
      <trkpt lat="49.33126" lon="6.22854">
        <ele>193.36</ele>
        <time>2021-07-22T16:54:49Z</time>
      </trkpt>
      <trkpt lat="49.33238" lon="6.22673">
        <ele>191.44</ele>
        <time>2021-07-22T16:54:58Z</time>
      </trkpt>
      <trkpt lat="49.33484" lon="6.22327">
        <ele>192.4</ele>
        <time>2021-07-22T16:55:15Z</time>
      </trkpt>
      <trkpt lat="49.33516" lon="6.22222">
        <ele>195.77</ele>
        <time>2021-07-22T16:55:20Z</time>
      </trkpt>
      <trkpt lat="49.3358" lon="6.21943">
        <ele>192.4</ele>
        <time>2021-07-22T16:55:30Z</time>
      </trkpt>
      <trkpt lat="49.33678" lon="6.21753">
        <ele>192.88</ele>
        <time>2021-07-22T16:55:38Z</time>
      </trkpt>
      <trkpt lat="49.33805" lon="6.21536">
        <ele>193.36</ele>
        <time>2021-07-22T16:55:49Z</time>
      </trkpt>
      <trkpt lat="49.33876" lon="6.21415">
        <ele>192.4</ele>
        <time>2021-07-22T16:55:57Z</time>
      </trkpt>
      <trkpt lat="49.33891" lon="6.2139">
        <ele>191.92</ele>
        <time>2021-07-22T16:56:01Z</time>
      </trkpt>
      <trkpt lat="49.33895" lon="6.21384">
        <ele>191.44</ele>
        <time>2021-07-22T16:56:02Z</time>
      </trkpt>
      <trkpt lat="49.33895" lon="6.21384">
        <ele>190.96</ele>
        <time>2021-07-22T16:56:03Z</time>
      </trkpt>
      <trkpt lat="49.33898" lon="6.21378">
        <ele>190.96</ele>
        <time>2021-07-22T16:56:04Z</time>
      </trkpt>
      <trkpt lat="49.33888" lon="6.21373">
        <ele>190</ele>
        <time>2021-07-22T16:56:05Z</time>
      </trkpt>
      <trkpt lat="49.33883" lon="6.21367">
        <ele>189.52</ele>
        <time>2021-07-22T16:56:06Z</time>
      </trkpt>
      <trkpt lat="49.33871" lon="6.21352">
        <ele>189.04</ele>
        <time>2021-07-22T16:56:07Z</time>
      </trkpt>
      <trkpt lat="49.33871" lon="6.21352">
        <ele>188.56</ele>
        <time>2021-07-22T16:56:08Z</time>
      </trkpt>
      <trkpt lat="49.33865" lon="6.21344">
        <ele>188.08</ele>
        <time>2021-07-22T16:56:09Z</time>
      </trkpt>
      <trkpt lat="49.33846" lon="6.21321">
        <ele>187.59</ele>
        <time>2021-07-22T16:56:15Z</time>
      </trkpt>
      <trkpt lat="49.33827" lon="6.21296">
        <ele>187.11</ele>
        <time>2021-07-22T16:57:19Z</time>
      </trkpt>
      <trkpt lat="49.33791" lon="6.21269">
        <ele>185.67</ele>
        <time>2021-07-22T16:57:23Z</time>
      </trkpt>
      <trkpt lat="49.33781" lon="6.21263">
        <ele>184.71</ele>
        <time>2021-07-22T16:57:24Z</time>
      </trkpt>
      <trkpt lat="49.33768" lon="6.21261">
        <ele>183.75</ele>
        <time>2021-07-22T16:57:25Z</time>
      </trkpt>
      <trkpt lat="49.33754" lon="6.21258">
        <ele>183.27</ele>
        <time>2021-07-22T16:57:26Z</time>
      </trkpt>
      <trkpt lat="49.33741" lon="6.21256">
        <ele>183.27</ele>
        <time>2021-07-22T16:57:27Z</time>
      </trkpt>
      <trkpt lat="49.33704" lon="6.21246">
        <ele>183.27</ele>
        <time>2021-07-22T16:57:30Z</time>
      </trkpt>
      <trkpt lat="49.33693" lon="6.21241">
        <ele>184.23</ele>
        <time>2021-07-22T16:57:31Z</time>
      </trkpt>
      <trkpt lat="49.33681" lon="6.21236">
        <ele>185.19</ele>
        <time>2021-07-22T16:57:32Z</time>
      </trkpt>
      <trkpt lat="49.3367" lon="6.21229">
        <ele>186.15</ele>
        <time>2021-07-22T16:57:33Z</time>
      </trkpt>
      <trkpt lat="49.3366" lon="6.21215">
        <ele>187.11</ele>
        <time>2021-07-22T16:57:34Z</time>
      </trkpt>
      <trkpt lat="49.33648" lon="6.212">
        <ele>187.59</ele>
        <time>2021-07-22T16:57:35Z</time>
      </trkpt>
      <trkpt lat="49.33624" lon="6.21167">
        <ele>187.11</ele>
        <time>2021-07-22T16:57:36Z</time>
      </trkpt>
      <trkpt lat="49.33531" lon="6.20983">
        <ele>185.67</ele>
        <time>2021-07-22T16:57:45Z</time>
      </trkpt>
      <trkpt lat="49.33417" lon="6.20671">
        <ele>186.15</ele>
        <time>2021-07-22T16:57:56Z</time>
      </trkpt>
      <trkpt lat="49.33334" lon="6.20307">
        <ele>189.04</ele>
        <time>2021-07-22T16:58:07Z</time>
      </trkpt>
      <trkpt lat="49.33295" lon="6.19919">
        <ele>195.28</ele>
        <time>2021-07-22T16:58:18Z</time>
      </trkpt>
      <trkpt lat="49.33307" lon="6.19501">
        <ele>202.01</ele>
        <time>2021-07-22T16:58:30Z</time>
      </trkpt>
      <trkpt lat="49.33313" lon="6.19304">
        <ele>206.82</ele>
        <time>2021-07-22T16:58:37Z</time>
      </trkpt>
      <trkpt lat="49.33314" lon="6.19239">
        <ele>208.26</ele>
        <time>2021-07-22T16:58:41Z</time>
      </trkpt>
      <trkpt lat="49.3332" lon="6.19207">
        <ele>208.74</ele>
        <time>2021-07-22T16:58:42Z</time>
      </trkpt>
      <trkpt lat="49.3332" lon="6.19207">
        <ele>208.74</ele>
        <time>2021-07-22T16:58:43Z</time>
      </trkpt>
      <trkpt lat="49.33325" lon="6.19198">
        <ele>208.74</ele>
        <time>2021-07-22T16:58:44Z</time>
      </trkpt>
      <trkpt lat="49.33325" lon="6.19197">
        <ele>208.74</ele>
        <time>2021-07-22T16:58:45Z</time>
      </trkpt>
      <trkpt lat="49.33322" lon="6.19188">
        <ele>208.74</ele>
        <time>2021-07-22T16:58:46Z</time>
      </trkpt>
      <trkpt lat="49.33319" lon="6.19178">
        <ele>208.74</ele>
        <time>2021-07-22T16:58:47Z</time>
      </trkpt>
      <trkpt lat="49.33319" lon="6.19163">
        <ele>208.74</ele>
        <time>2021-07-22T16:58:48Z</time>
      </trkpt>
      <trkpt lat="49.33319" lon="6.19155">
        <ele>208.26</ele>
        <time>2021-07-22T16:58:49Z</time>
      </trkpt>
      <trkpt lat="49.33319" lon="6.19145">
        <ele>207.78</ele>
        <time>2021-07-22T16:58:50Z</time>
      </trkpt>
      <trkpt lat="49.33319" lon="6.19133">
        <ele>207.78</ele>
        <time>2021-07-22T16:58:51Z</time>
      </trkpt>
      <trkpt lat="49.3332" lon="6.19103">
        <ele>207.3</ele>
        <time>2021-07-22T16:58:52Z</time>
      </trkpt>
      <trkpt lat="49.3332" lon="6.19085">
        <ele>207.3</ele>
        <time>2021-07-22T16:58:53Z</time>
      </trkpt>
      <trkpt lat="49.33324" lon="6.18946">
        <ele>211.63</ele>
        <time>2021-07-22T16:59:01Z</time>
      </trkpt>
      <trkpt lat="49.33327" lon="6.18842">
        <ele>212.59</ele>
        <time>2021-07-22T16:59:08Z</time>
      </trkpt>
      <trkpt lat="49.33337" lon="6.18588">
        <ele>211.63</ele>
        <time>2021-07-22T16:59:19Z</time>
      </trkpt>
      <trkpt lat="49.33346" lon="6.18413">
        <ele>206.34</ele>
        <time>2021-07-22T16:59:27Z</time>
      </trkpt>
      <trkpt lat="49.33351" lon="6.184">
        <ele>206.34</ele>
        <time>2021-07-22T16:59:28Z</time>
      </trkpt>
      <trkpt lat="49.33356" lon="6.18386">
        <ele>206.82</ele>
        <time>2021-07-22T16:59:29Z</time>
      </trkpt>
      <trkpt lat="49.33361" lon="6.18375">
        <ele>206.34</ele>
        <time>2021-07-22T16:59:30Z</time>
      </trkpt>
      <trkpt lat="49.33368" lon="6.18365">
        <ele>206.34</ele>
        <time>2021-07-22T16:59:31Z</time>
      </trkpt>
      <trkpt lat="49.33377" lon="6.18358">
        <ele>205.38</ele>
        <time>2021-07-22T16:59:32Z</time>
      </trkpt>
      <trkpt lat="49.33388" lon="6.18351">
        <ele>204.42</ele>
        <time>2021-07-22T16:59:33Z</time>
      </trkpt>
      <trkpt lat="49.33401" lon="6.1835">
        <ele>204.42</ele>
        <time>2021-07-22T16:59:34Z</time>
      </trkpt>
      <trkpt lat="49.33415" lon="6.1835">
        <ele>202.98</ele>
        <time>2021-07-22T16:59:35Z</time>
      </trkpt>
      <trkpt lat="49.33428" lon="6.1835">
        <ele>202.98</ele>
        <time>2021-07-22T16:59:36Z</time>
      </trkpt>
      <trkpt lat="49.33454" lon="6.18358">
        <ele>201.05</ele>
        <time>2021-07-22T16:59:38Z</time>
      </trkpt>
      <trkpt lat="49.33466" lon="6.18363">
        <ele>199.13</ele>
        <time>2021-07-22T16:59:39Z</time>
      </trkpt>
      <trkpt lat="49.33478" lon="6.18368">
        <ele>198.17</ele>
        <time>2021-07-22T16:59:40Z</time>
      </trkpt>
      <trkpt lat="49.33486" lon="6.18379">
        <ele>197.21</ele>
        <time>2021-07-22T16:59:41Z</time>
      </trkpt>
      <trkpt lat="49.33494" lon="6.18389">
        <ele>197.69</ele>
        <time>2021-07-22T16:59:42Z</time>
      </trkpt>
      <trkpt lat="49.33503" lon="6.18416">
        <ele>197.69</ele>
        <time>2021-07-22T16:59:43Z</time>
      </trkpt>
      <trkpt lat="49.33503" lon="6.18416">
        <ele>197.69</ele>
        <time>2021-07-22T16:59:44Z</time>
      </trkpt>
      <trkpt lat="49.33504" lon="6.18433">
        <ele>197.21</ele>
        <time>2021-07-22T16:59:45Z</time>
      </trkpt>
      <trkpt lat="49.335" lon="6.18447">
        <ele>194.8</ele>
        <time>2021-07-22T16:59:46Z</time>
      </trkpt>
      <trkpt lat="49.33492" lon="6.18462">
        <ele>194.8</ele>
        <time>2021-07-22T16:59:47Z</time>
      </trkpt>
      <trkpt lat="49.33473" lon="6.18484">
        <ele>195.28</ele>
        <time>2021-07-22T16:59:48Z</time>
      </trkpt>
      <trkpt lat="49.33463" lon="6.18495">
        <ele>195.77</ele>
        <time>2021-07-22T16:59:49Z</time>
      </trkpt>
      <trkpt lat="49.33449" lon="6.185">
        <ele>197.21</ele>
        <time>2021-07-22T16:59:50Z</time>
      </trkpt>
      <trkpt lat="49.33449" lon="6.185">
        <ele>198.65</ele>
        <time>2021-07-22T16:59:51Z</time>
      </trkpt>
      <trkpt lat="49.33436" lon="6.18502">
        <ele>199.13</ele>
        <time>2021-07-22T16:59:52Z</time>
      </trkpt>
      <trkpt lat="49.33321" lon="6.18524">
        <ele>200.57</ele>
        <time>2021-07-22T17:00:00Z</time>
      </trkpt>
      <trkpt lat="49.33207" lon="6.18538">
        <ele>204.9</ele>
        <time>2021-07-22T17:00:08Z</time>
      </trkpt>
      <trkpt lat="49.32974" lon="6.18549">
        <ele>204.9</ele>
        <time>2021-07-22T17:00:21Z</time>
      </trkpt>
      <trkpt lat="49.32784" lon="6.18529">
        <ele>205.86</ele>
        <time>2021-07-22T17:00:31Z</time>
      </trkpt>
      <trkpt lat="49.32521" lon="6.18459">
        <ele>198.65</ele>
        <time>2021-07-22T17:00:44Z</time>
      </trkpt>
      <trkpt lat="49.32062" lon="6.18319">
        <ele>181.83</ele>
        <time>2021-07-22T17:01:05Z</time>
      </trkpt>
      <trkpt lat="49.31746" lon="6.18261">
        <ele>167.41</ele>
        <time>2021-07-22T17:01:20Z</time>
      </trkpt>
      <trkpt lat="49.31439" lon="6.18238">
        <ele>159.24</ele>
        <time>2021-07-22T17:01:35Z</time>
      </trkpt>
      <trkpt lat="49.31153" lon="6.18242">
        <ele>161.64</ele>
        <time>2021-07-22T17:01:49Z</time>
      </trkpt>
      <trkpt lat="49.30839" lon="6.18279">
        <ele>164.04</ele>
        <time>2021-07-22T17:02:04Z</time>
      </trkpt>
      <trkpt lat="49.30503" lon="6.18342">
        <ele>163.56</ele>
        <time>2021-07-22T17:02:20Z</time>
      </trkpt>
      <trkpt lat="49.30159" lon="6.18399">
        <ele>163.56</ele>
        <time>2021-07-22T17:02:36Z</time>
      </trkpt>
      <trkpt lat="49.29956" lon="6.18371">
        <ele>164.52</ele>
        <time>2021-07-22T17:02:46Z</time>
      </trkpt>
      <trkpt lat="49.29764" lon="6.1828">
        <ele>162.6</ele>
        <time>2021-07-22T17:02:56Z</time>
      </trkpt>
      <trkpt lat="49.29576" lon="6.18117">
        <ele>168.85</ele>
        <time>2021-07-22T17:03:07Z</time>
      </trkpt>
      <trkpt lat="49.29409" lon="6.17904">
        <ele>170.29</ele>
        <time>2021-07-22T17:03:18Z</time>
      </trkpt>
      <trkpt lat="49.2912" lon="6.17511">
        <ele>170.29</ele>
        <time>2021-07-22T17:03:36Z</time>
      </trkpt>
      <trkpt lat="49.28933" lon="6.17304">
        <ele>167.41</ele>
        <time>2021-07-22T17:03:47Z</time>
      </trkpt>
      <trkpt lat="49.28747" lon="6.17212">
        <ele>163.08</ele>
        <time>2021-07-22T17:03:56Z</time>
      </trkpt>
      <trkpt lat="49.28561" lon="6.17209">
        <ele>163.56</ele>
        <time>2021-07-22T17:04:04Z</time>
      </trkpt>
      <trkpt lat="49.28103" lon="6.17263">
        <ele>164.04</ele>
        <time>2021-07-22T17:04:23Z</time>
      </trkpt>
      <trkpt lat="49.27964" lon="6.17282">
        <ele>164.52</ele>
        <time>2021-07-22T17:04:32Z</time>
      </trkpt>
      <trkpt lat="49.27717" lon="6.17317">
        <ele>165.96</ele>
        <time>2021-07-22T17:04:44Z</time>
      </trkpt>
      <trkpt lat="49.27463" lon="6.17374">
        <ele>173.66</ele>
        <time>2021-07-22T17:04:56Z</time>
      </trkpt>
      <trkpt lat="49.27086" lon="6.17465">
        <ele>167.89</ele>
        <time>2021-07-22T17:05:15Z</time>
      </trkpt>
    </trkseg>
  </trk>
  <trk>
    <name><![CDATA[Journal actif: 2021-07-22 15:05]]></name>
    <trkseg>
      <trkpt lat="49.26943" lon="6.17502">
        <ele>163.08</ele>
        <time>2021-07-22T17:05:23Z</time>
      </trkpt>
      <trkpt lat="49.26573" lon="6.1763">
        <ele>162.12</ele>
        <time>2021-07-22T17:05:40Z</time>
      </trkpt>
      <trkpt lat="49.26414" lon="6.17659">
        <ele>163.56</ele>
        <time>2021-07-22T17:05:48Z</time>
      </trkpt>
      <trkpt lat="49.26311" lon="6.17657">
        <ele>166.93</ele>
        <time>2021-07-22T17:05:56Z</time>
      </trkpt>
      <trkpt lat="49.26305" lon="6.17654">
        <ele>166.93</ele>
        <time>2021-07-22T17:05:57Z</time>
      </trkpt>
      <trkpt lat="49.263" lon="6.17652">
        <ele>166.93</ele>
        <time>2021-07-22T17:05:58Z</time>
      </trkpt>
      <trkpt lat="49.26295" lon="6.1765">
        <ele>167.41</ele>
        <time>2021-07-22T17:05:59Z</time>
      </trkpt>
      <trkpt lat="49.26291" lon="6.17647">
        <ele>167.41</ele>
        <time>2021-07-22T17:06:00Z</time>
      </trkpt>
      <trkpt lat="49.26288" lon="6.1764">
        <ele>167.41</ele>
        <time>2021-07-22T17:06:01Z</time>
      </trkpt>
      <trkpt lat="49.26285" lon="6.17632">
        <ele>167.41</ele>
        <time>2021-07-22T17:06:02Z</time>
      </trkpt>
      <trkpt lat="49.2628" lon="6.17624">
        <ele>167.41</ele>
        <time>2021-07-22T17:06:03Z</time>
      </trkpt>
      <trkpt lat="49.26275" lon="6.17621">
        <ele>167.41</ele>
        <time>2021-07-22T17:06:04Z</time>
      </trkpt>
      <trkpt lat="49.26269" lon="6.17619">
        <ele>167.89</ele>
        <time>2021-07-22T17:06:05Z</time>
      </trkpt>
      <trkpt lat="49.26263" lon="6.17624">
        <ele>167.89</ele>
        <time>2021-07-22T17:06:06Z</time>
      </trkpt>
      <trkpt lat="49.26255" lon="6.17638">
        <ele>167.89</ele>
        <time>2021-07-22T17:06:07Z</time>
      </trkpt>
      <trkpt lat="49.26255" lon="6.17638">
        <ele>167.89</ele>
        <time>2021-07-22T17:06:08Z</time>
      </trkpt>
      <trkpt lat="49.26255" lon="6.17647">
        <ele>167.89</ele>
        <time>2021-07-22T17:06:09Z</time>
      </trkpt>
      <trkpt lat="49.26255" lon="6.17656">
        <ele>167.89</ele>
        <time>2021-07-22T17:06:10Z</time>
      </trkpt>
      <trkpt lat="49.26259" lon="6.17665">
        <ele>167.89</ele>
        <time>2021-07-22T17:06:12Z</time>
      </trkpt>
      <trkpt lat="49.26263" lon="6.17676">
        <ele>167.89</ele>
        <time>2021-07-22T17:06:13Z</time>
      </trkpt>
      <trkpt lat="49.26262" lon="6.17683">
        <ele>167.89</ele>
        <time>2021-07-22T17:06:14Z</time>
      </trkpt>
      <trkpt lat="49.26261" lon="6.17691">
        <ele>167.89</ele>
        <time>2021-07-22T17:06:15Z</time>
      </trkpt>
      <trkpt lat="49.26259" lon="6.17701">
        <ele>167.89</ele>
        <time>2021-07-22T17:06:16Z</time>
      </trkpt>
      <trkpt lat="49.26252" lon="6.17755">
        <ele>167.41</ele>
        <time>2021-07-22T17:06:21Z</time>
      </trkpt>
      <trkpt lat="49.2625" lon="6.17765">
        <ele>167.41</ele>
        <time>2021-07-22T17:06:22Z</time>
      </trkpt>
      <trkpt lat="49.26249" lon="6.17774">
        <ele>166.93</ele>
        <time>2021-07-22T17:06:23Z</time>
      </trkpt>
      <trkpt lat="49.26234" lon="6.17787">
        <ele>166.93</ele>
        <time>2021-07-22T17:06:25Z</time>
      </trkpt>
      <trkpt lat="49.26231" lon="6.17795">
        <ele>166.93</ele>
        <time>2021-07-22T17:06:26Z</time>
      </trkpt>
      <trkpt lat="49.26229" lon="6.17804">
        <ele>166.93</ele>
        <time>2021-07-22T17:06:27Z</time>
      </trkpt>
      <trkpt lat="49.26229" lon="6.17813">
        <ele>166.93</ele>
        <time>2021-07-22T17:06:28Z</time>
      </trkpt>
      <trkpt lat="49.2623" lon="6.17819">
        <ele>166.93</ele>
        <time>2021-07-22T17:06:29Z</time>
      </trkpt>
      <trkpt lat="49.26234" lon="6.17824">
        <ele>167.41</ele>
        <time>2021-07-22T17:06:30Z</time>
      </trkpt>
      <trkpt lat="49.26239" lon="6.1783">
        <ele>166.93</ele>
        <time>2021-07-22T17:06:31Z</time>
      </trkpt>
      <trkpt lat="49.26244" lon="6.17833">
        <ele>166.93</ele>
        <time>2021-07-22T17:06:32Z</time>
      </trkpt>
      <trkpt lat="49.26256" lon="6.17826">
        <ele>167.41</ele>
        <time>2021-07-22T17:06:33Z</time>
      </trkpt>
      <trkpt lat="49.26263" lon="6.17819">
        <ele>167.41</ele>
        <time>2021-07-22T17:06:34Z</time>
      </trkpt>
      <trkpt lat="49.26337" lon="6.17772">
        <ele>164.04</ele>
        <time>2021-07-22T17:06:42Z</time>
      </trkpt>
      <trkpt lat="49.26488" lon="6.1769">
        <ele>162.12</ele>
        <time>2021-07-22T17:06:52Z</time>
      </trkpt>
      <trkpt lat="49.26712" lon="6.17596">
        <ele>162.6</ele>
        <time>2021-07-22T17:07:04Z</time>
      </trkpt>
      <trkpt lat="49.26988" lon="6.17507">
        <ele>164.52</ele>
        <time>2021-07-22T17:07:17Z</time>
      </trkpt>
      <trkpt lat="49.27346" lon="6.17418">
        <ele>172.69</ele>
        <time>2021-07-22T17:07:33Z</time>
      </trkpt>
      <trkpt lat="49.27681" lon="6.17342">
        <ele>163.56</ele>
        <time>2021-07-22T17:07:48Z</time>
      </trkpt>
      <trkpt lat="49.28072" lon="6.17286">
        <ele>164.04</ele>
        <time>2021-07-22T17:08:05Z</time>
      </trkpt>
      <trkpt lat="49.28336" lon="6.17269">
        <ele>163.56</ele>
        <time>2021-07-22T17:08:17Z</time>
      </trkpt>
      <trkpt lat="49.28519" lon="6.17335">
        <ele>159.72</ele>
        <time>2021-07-22T17:08:26Z</time>
      </trkpt>
      <trkpt lat="49.28727" lon="6.17375">
        <ele>159.72</ele>
        <time>2021-07-22T17:08:36Z</time>
      </trkpt>
      <trkpt lat="49.28897" lon="6.1734">
        <ele>161.64</ele>
        <time>2021-07-22T17:08:44Z</time>
      </trkpt>
      <trkpt lat="49.29059" lon="6.17238">
        <ele>160.2</ele>
        <time>2021-07-22T17:08:52Z</time>
      </trkpt>
      <trkpt lat="49.29196" lon="6.17076">
        <ele>160.2</ele>
        <time>2021-07-22T17:09:00Z</time>
      </trkpt>
      <trkpt lat="49.29312" lon="6.16845">
        <ele>161.64</ele>
        <time>2021-07-22T17:09:09Z</time>
      </trkpt>
      <trkpt lat="49.29518" lon="6.16328">
        <ele>167.89</ele>
        <time>2021-07-22T17:09:27Z</time>
      </trkpt>
      <trkpt lat="49.29619" lon="6.15998">
        <ele>171.25</ele>
        <time>2021-07-22T17:09:38Z</time>
      </trkpt>
      <trkpt lat="49.29706" lon="6.15496">
        <ele>165.96</ele>
        <time>2021-07-22T17:09:53Z</time>
      </trkpt>
      <trkpt lat="49.2984" lon="6.14705">
        <ele>165</ele>
        <time>2021-07-22T17:10:16Z</time>
      </trkpt>
      <trkpt lat="49.29954" lon="6.143">
        <ele>173.66</ele>
        <time>2021-07-22T17:10:29Z</time>
      </trkpt>
      <trkpt lat="49.30093" lon="6.13938">
        <ele>181.83</ele>
        <time>2021-07-22T17:10:43Z</time>
      </trkpt>
      <trkpt lat="49.30304" lon="6.13396">
        <ele>183.75</ele>
        <time>2021-07-22T17:11:01Z</time>
      </trkpt>
      <trkpt lat="49.30487" lon="6.12896">
        <ele>184.23</ele>
        <time>2021-07-22T17:11:19Z</time>
      </trkpt>
      <trkpt lat="49.30546" lon="6.12783">
        <ele>182.79</ele>
        <time>2021-07-22T17:11:25Z</time>
      </trkpt>
      <trkpt lat="49.30609" lon="6.12691">
        <ele>188.08</ele>
        <time>2021-07-22T17:11:32Z</time>
      </trkpt>
      <trkpt lat="49.3062" lon="6.12662">
        <ele>188.56</ele>
        <time>2021-07-22T17:11:33Z</time>
      </trkpt>
      <trkpt lat="49.3062" lon="6.12662">
        <ele>188.08</ele>
        <time>2021-07-22T17:11:34Z</time>
      </trkpt>
      <trkpt lat="49.30623" lon="6.12648">
        <ele>188.56</ele>
        <time>2021-07-22T17:11:35Z</time>
      </trkpt>
      <trkpt lat="49.30628" lon="6.12624">
        <ele>188.56</ele>
        <time>2021-07-22T17:11:36Z</time>
      </trkpt>
      <trkpt lat="49.30628" lon="6.12624">
        <ele>188.08</ele>
        <time>2021-07-22T17:11:37Z</time>
      </trkpt>
      <trkpt lat="49.3063" lon="6.12615">
        <ele>188.56</ele>
        <time>2021-07-22T17:11:38Z</time>
      </trkpt>
      <trkpt lat="49.30639" lon="6.12589">
        <ele>188.56</ele>
        <time>2021-07-22T17:11:41Z</time>
      </trkpt>
      <trkpt lat="49.30642" lon="6.12584">
        <ele>189.04</ele>
        <time>2021-07-22T17:11:42Z</time>
      </trkpt>
      <trkpt lat="49.30645" lon="6.12579">
        <ele>189.04</ele>
        <time>2021-07-22T17:11:43Z</time>
      </trkpt>
      <trkpt lat="49.30648" lon="6.12573">
        <ele>189.04</ele>
        <time>2021-07-22T17:11:44Z</time>
      </trkpt>
      <trkpt lat="49.30648" lon="6.12573">
        <ele>189.04</ele>
        <time>2021-07-22T17:11:45Z</time>
      </trkpt>
      <trkpt lat="49.30652" lon="6.12567">
        <ele>189.04</ele>
        <time>2021-07-22T17:11:46Z</time>
      </trkpt>
      <trkpt lat="49.30658" lon="6.12563">
        <ele>189.04</ele>
        <time>2021-07-22T17:11:47Z</time>
      </trkpt>
      <trkpt lat="49.30681" lon="6.12549">
        <ele>188.08</ele>
        <time>2021-07-22T17:11:50Z</time>
      </trkpt>
      <trkpt lat="49.30688" lon="6.12541">
        <ele>187.59</ele>
        <time>2021-07-22T17:11:51Z</time>
      </trkpt>
      <trkpt lat="49.30695" lon="6.12531">
        <ele>187.59</ele>
        <time>2021-07-22T17:11:52Z</time>
      </trkpt>
      <trkpt lat="49.307" lon="6.12518">
        <ele>188.08</ele>
        <time>2021-07-22T17:11:53Z</time>
      </trkpt>
      <trkpt lat="49.30705" lon="6.12505">
        <ele>187.59</ele>
        <time>2021-07-22T17:11:54Z</time>
      </trkpt>
      <trkpt lat="49.30709" lon="6.12491">
        <ele>187.11</ele>
        <time>2021-07-22T17:11:55Z</time>
      </trkpt>
      <trkpt lat="49.30711" lon="6.12476">
        <ele>185.67</ele>
        <time>2021-07-22T17:11:56Z</time>
      </trkpt>
      <trkpt lat="49.30713" lon="6.12461">
        <ele>184.23</ele>
        <time>2021-07-22T17:11:57Z</time>
      </trkpt>
      <trkpt lat="49.30711" lon="6.12446">
        <ele>184.23</ele>
        <time>2021-07-22T17:11:58Z</time>
      </trkpt>
      <trkpt lat="49.3071" lon="6.1243">
        <ele>184.23</ele>
        <time>2021-07-22T17:11:59Z</time>
      </trkpt>
      <trkpt lat="49.30708" lon="6.12402">
        <ele>184.23</ele>
        <time>2021-07-22T17:12:01Z</time>
      </trkpt>
      <trkpt lat="49.30709" lon="6.1239">
        <ele>184.71</ele>
        <time>2021-07-22T17:12:02Z</time>
      </trkpt>
      <trkpt lat="49.30712" lon="6.12367">
        <ele>184.71</ele>
        <time>2021-07-22T17:12:03Z</time>
      </trkpt>
      <trkpt lat="49.30712" lon="6.12367">
        <ele>185.19</ele>
        <time>2021-07-22T17:12:04Z</time>
      </trkpt>
      <trkpt lat="49.30716" lon="6.12354">
        <ele>185.67</ele>
        <time>2021-07-22T17:12:05Z</time>
      </trkpt>
      <trkpt lat="49.30757" lon="6.12212">
        <ele>180.87</ele>
        <time>2021-07-22T17:12:13Z</time>
      </trkpt>
      <trkpt lat="49.30841" lon="6.11943">
        <ele>178.94</ele>
        <time>2021-07-22T17:12:23Z</time>
      </trkpt>
      <trkpt lat="49.30949" lon="6.11664">
        <ele>178.46</ele>
        <time>2021-07-22T17:12:36Z</time>
      </trkpt>
      <trkpt lat="49.31026" lon="6.11556">
        <ele>178.46</ele>
        <time>2021-07-22T17:12:43Z</time>
      </trkpt>
      <trkpt lat="49.31026" lon="6.11556">
        <ele>178.46</ele>
        <time>2021-07-22T17:12:44Z</time>
      </trkpt>
      <trkpt lat="49.31032" lon="6.11549">
        <ele>178.46</ele>
        <time>2021-07-22T17:12:45Z</time>
      </trkpt>
      <trkpt lat="49.31037" lon="6.11544">
        <ele>178.46</ele>
        <time>2021-07-22T17:12:46Z</time>
      </trkpt>
      <trkpt lat="49.3104" lon="6.11539">
        <ele>177.98</ele>
        <time>2021-07-22T17:12:47Z</time>
      </trkpt>
      <trkpt lat="49.3104" lon="6.11576">
        <ele>177.98</ele>
        <time>2021-07-22T17:12:48Z</time>
      </trkpt>
      <trkpt lat="49.3104" lon="6.11576">
        <ele>177.5</ele>
        <time>2021-07-22T17:12:49Z</time>
      </trkpt>
      <trkpt lat="49.31063" lon="6.11564">
        <ele>176.54</ele>
        <time>2021-07-22T17:13:02Z</time>
      </trkpt>
      <trkpt lat="49.31067" lon="6.1151">
        <ele>177.02</ele>
        <time>2021-07-22T17:13:08Z</time>
      </trkpt>
      <trkpt lat="49.31074" lon="6.11503">
        <ele>178.46</ele>
        <time>2021-07-22T17:13:09Z</time>
      </trkpt>
      <trkpt lat="49.31092" lon="6.11484">
        <ele>178.46</ele>
        <time>2021-07-22T17:13:10Z</time>
      </trkpt>
      <trkpt lat="49.31177" lon="6.11404">
        <ele>177.98</ele>
        <time>2021-07-22T17:13:18Z</time>
      </trkpt>
      <trkpt lat="49.31293" lon="6.11294">
        <ele>179.42</ele>
        <time>2021-07-22T17:13:28Z</time>
      </trkpt>
      <trkpt lat="49.31381" lon="6.11183">
        <ele>180.38</ele>
        <time>2021-07-22T17:13:39Z</time>
      </trkpt>
      <trkpt lat="49.31405" lon="6.11147">
        <ele>179.9</ele>
        <time>2021-07-22T17:13:43Z</time>
      </trkpt>
      <trkpt lat="49.31411" lon="6.11143">
        <ele>179.9</ele>
        <time>2021-07-22T17:13:44Z</time>
      </trkpt>
      <trkpt lat="49.31416" lon="6.11139">
        <ele>180.38</ele>
        <time>2021-07-22T17:13:45Z</time>
      </trkpt>
      <trkpt lat="49.31422" lon="6.11135">
        <ele>180.38</ele>
        <time>2021-07-22T17:13:46Z</time>
      </trkpt>
      <trkpt lat="49.3143" lon="6.11132">
        <ele>180.38</ele>
        <time>2021-07-22T17:13:47Z</time>
      </trkpt>
      <trkpt lat="49.31438" lon="6.11134">
        <ele>179.9</ele>
        <time>2021-07-22T17:13:48Z</time>
      </trkpt>
      <trkpt lat="49.31446" lon="6.11136">
        <ele>179.9</ele>
        <time>2021-07-22T17:13:49Z</time>
      </trkpt>
      <trkpt lat="49.31456" lon="6.11139">
        <ele>179.9</ele>
        <time>2021-07-22T17:13:50Z</time>
      </trkpt>
      <trkpt lat="49.31465" lon="6.11142">
        <ele>180.38</ele>
        <time>2021-07-22T17:13:51Z</time>
      </trkpt>
      <trkpt lat="49.31636" lon="6.11234">
        <ele>176.54</ele>
        <time>2021-07-22T17:14:07Z</time>
      </trkpt>
      <trkpt lat="49.31708" lon="6.11276">
        <ele>175.58</ele>
        <time>2021-07-22T17:14:15Z</time>
      </trkpt>
      <trkpt lat="49.3174" lon="6.11293">
        <ele>175.58</ele>
        <time>2021-07-22T17:14:24Z</time>
      </trkpt>
      <trkpt lat="49.31759" lon="6.11305">
        <ele>177.02</ele>
        <time>2021-07-22T17:14:35Z</time>
      </trkpt>
      <trkpt lat="49.31839" lon="6.11343">
        <ele>177.5</ele>
        <time>2021-07-22T17:14:45Z</time>
      </trkpt>
      <trkpt lat="49.31975" lon="6.11401">
        <ele>176.54</ele>
        <time>2021-07-22T17:14:56Z</time>
      </trkpt>
      <trkpt lat="49.32042" lon="6.11409">
        <ele>177.02</ele>
        <time>2021-07-22T17:15:02Z</time>
      </trkpt>
      <trkpt lat="49.32159" lon="6.11416">
        <ele>176.54</ele>
        <time>2021-07-22T17:15:14Z</time>
      </trkpt>
      <trkpt lat="49.32172" lon="6.11417">
        <ele>176.06</ele>
        <time>2021-07-22T17:15:15Z</time>
      </trkpt>
      <trkpt lat="49.32172" lon="6.11417">
        <ele>175.1</ele>
        <time>2021-07-22T17:15:16Z</time>
      </trkpt>
      <trkpt lat="49.32181" lon="6.11438">
        <ele>174.62</ele>
        <time>2021-07-22T17:15:17Z</time>
      </trkpt>
      <trkpt lat="49.32181" lon="6.11438">
        <ele>174.14</ele>
        <time>2021-07-22T17:15:18Z</time>
      </trkpt>
      <trkpt lat="49.32185" lon="6.11446">
        <ele>174.14</ele>
        <time>2021-07-22T17:15:19Z</time>
      </trkpt>
      <trkpt lat="49.32188" lon="6.11451">
        <ele>173.66</ele>
        <time>2021-07-22T17:15:20Z</time>
      </trkpt>
      <trkpt lat="49.32196" lon="6.11453">
        <ele>173.17</ele>
        <time>2021-07-22T17:15:21Z</time>
      </trkpt>
      <trkpt lat="49.322" lon="6.11452">
        <ele>175.1</ele>
        <time>2021-07-22T17:15:22Z</time>
      </trkpt>
      <trkpt lat="49.32205" lon="6.11452">
        <ele>174.62</ele>
        <time>2021-07-22T17:15:23Z</time>
      </trkpt>
      <trkpt lat="49.3221" lon="6.11446">
        <ele>174.62</ele>
        <time>2021-07-22T17:15:24Z</time>
      </trkpt>
      <trkpt lat="49.32213" lon="6.1144">
        <ele>174.62</ele>
        <time>2021-07-22T17:15:25Z</time>
      </trkpt>
      <trkpt lat="49.32216" lon="6.11434">
        <ele>174.62</ele>
        <time>2021-07-22T17:15:26Z</time>
      </trkpt>
      <trkpt lat="49.3222" lon="6.11429">
        <ele>174.62</ele>
        <time>2021-07-22T17:15:27Z</time>
      </trkpt>
      <trkpt lat="49.32224" lon="6.11425">
        <ele>174.62</ele>
        <time>2021-07-22T17:15:28Z</time>
      </trkpt>
      <trkpt lat="49.32229" lon="6.11422">
        <ele>175.1</ele>
        <time>2021-07-22T17:15:29Z</time>
      </trkpt>
      <trkpt lat="49.32239" lon="6.11417">
        <ele>175.1</ele>
        <time>2021-07-22T17:15:30Z</time>
      </trkpt>
      <trkpt lat="49.32239" lon="6.11417">
        <ele>175.1</ele>
        <time>2021-07-22T17:15:31Z</time>
      </trkpt>
      <trkpt lat="49.32245" lon="6.11417">
        <ele>174.62</ele>
        <time>2021-07-22T17:15:32Z</time>
      </trkpt>
      <trkpt lat="49.32273" lon="6.11425">
        <ele>174.62</ele>
        <time>2021-07-22T17:15:35Z</time>
      </trkpt>
      <trkpt lat="49.3228" lon="6.11431">
        <ele>174.62</ele>
        <time>2021-07-22T17:15:36Z</time>
      </trkpt>
      <trkpt lat="49.3228" lon="6.11431">
        <ele>174.62</ele>
        <time>2021-07-22T17:15:37Z</time>
      </trkpt>
      <trkpt lat="49.32286" lon="6.11438">
        <ele>174.62</ele>
        <time>2021-07-22T17:15:38Z</time>
      </trkpt>
      <trkpt lat="49.32297" lon="6.11454">
        <ele>174.62</ele>
        <time>2021-07-22T17:15:39Z</time>
      </trkpt>
      <trkpt lat="49.32303" lon="6.11464">
        <ele>174.62</ele>
        <time>2021-07-22T17:15:40Z</time>
      </trkpt>
      <trkpt lat="49.32374" lon="6.11585">
        <ele>173.17</ele>
        <time>2021-07-22T17:15:51Z</time>
      </trkpt>
      <trkpt lat="49.32476" lon="6.11775">
        <ele>172.69</ele>
        <time>2021-07-22T17:16:03Z</time>
      </trkpt>
      <trkpt lat="49.32496" lon="6.11817">
        <ele>171.73</ele>
        <time>2021-07-22T17:16:07Z</time>
      </trkpt>
      <trkpt lat="49.32544" lon="6.11919">
        <ele>172.21</ele>
        <time>2021-07-22T17:16:14Z</time>
      </trkpt>
      <trkpt lat="49.32623" lon="6.12042">
        <ele>174.62</ele>
        <time>2021-07-22T17:16:25Z</time>
      </trkpt>
      <trkpt lat="49.32695" lon="6.12129">
        <ele>173.17</ele>
        <time>2021-07-22T17:16:34Z</time>
      </trkpt>
      <trkpt lat="49.32702" lon="6.12138">
        <ele>172.21</ele>
        <time>2021-07-22T17:16:35Z</time>
      </trkpt>
      <trkpt lat="49.32708" lon="6.12148">
        <ele>172.69</ele>
        <time>2021-07-22T17:16:36Z</time>
      </trkpt>
      <trkpt lat="49.32712" lon="6.12159">
        <ele>172.69</ele>
        <time>2021-07-22T17:16:37Z</time>
      </trkpt>
      <trkpt lat="49.32716" lon="6.12171">
        <ele>172.69</ele>
        <time>2021-07-22T17:16:38Z</time>
      </trkpt>
      <trkpt lat="49.32739" lon="6.12256">
        <ele>172.69</ele>
        <time>2021-07-22T17:16:46Z</time>
      </trkpt>
    </trkseg>
  </trk>
  <trk>
    <name><![CDATA[Journal actif: 2021-07-22 15:16]]></name>
    <trkseg>
      <trkpt lat="49.32758" lon="6.12336">
        <ele>174.62</ele>
        <time>2021-07-22T17:16:52Z</time>
      </trkpt>
      <trkpt lat="49.32814" lon="6.12534">
        <ele>170.29</ele>
        <time>2021-07-22T17:17:05Z</time>
      </trkpt>
      <trkpt lat="49.3291" lon="6.12818">
        <ele>167.41</ele>
        <time>2021-07-22T17:17:21Z</time>
      </trkpt>
      <trkpt lat="49.32986" lon="6.13063">
        <ele>165.96</ele>
        <time>2021-07-22T17:17:35Z</time>
      </trkpt>
      <trkpt lat="49.33039" lon="6.13339">
        <ele>163.08</ele>
        <time>2021-07-22T17:17:49Z</time>
      </trkpt>
      <trkpt lat="49.33061" lon="6.13452">
        <ele>164.52</ele>
        <time>2021-07-22T17:17:56Z</time>
      </trkpt>
      <trkpt lat="49.33063" lon="6.13463">
        <ele>163.56</ele>
        <time>2021-07-22T17:18:02Z</time>
      </trkpt>
      <trkpt lat="49.33069" lon="6.13475">
        <ele>164.04</ele>
        <time>2021-07-22T17:18:19Z</time>
      </trkpt>
      <trkpt lat="49.33073" lon="6.13476">
        <ele>164.04</ele>
        <time>2021-07-22T17:18:20Z</time>
      </trkpt>
      <trkpt lat="49.33073" lon="6.13476">
        <ele>163.56</ele>
        <time>2021-07-22T17:18:21Z</time>
      </trkpt>
      <trkpt lat="49.33139" lon="6.13482">
        <ele>162.6</ele>
        <time>2021-07-22T17:18:30Z</time>
      </trkpt>
      <trkpt lat="49.33221" lon="6.13495">
        <ele>162.6</ele>
        <time>2021-07-22T17:18:42Z</time>
      </trkpt>
      <trkpt lat="49.333" lon="6.13528">
        <ele>161.64</ele>
        <time>2021-07-22T17:18:54Z</time>
      </trkpt>
      <trkpt lat="49.33332" lon="6.13535">
        <ele>161.64</ele>
        <time>2021-07-22T17:18:58Z</time>
      </trkpt>
      <trkpt lat="49.33338" lon="6.13534">
        <ele>161.64</ele>
        <time>2021-07-22T17:18:59Z</time>
      </trkpt>
      <trkpt lat="49.33349" lon="6.13535">
        <ele>161.64</ele>
        <time>2021-07-22T17:19:00Z</time>
      </trkpt>
      <trkpt lat="49.33353" lon="6.13541">
        <ele>161.64</ele>
        <time>2021-07-22T17:19:01Z</time>
      </trkpt>
      <trkpt lat="49.33357" lon="6.13547">
        <ele>161.64</ele>
        <time>2021-07-22T17:19:02Z</time>
      </trkpt>
      <trkpt lat="49.33361" lon="6.13555">
        <ele>161.64</ele>
        <time>2021-07-22T17:19:03Z</time>
      </trkpt>
      <trkpt lat="49.33366" lon="6.13563">
        <ele>161.64</ele>
        <time>2021-07-22T17:19:04Z</time>
      </trkpt>
      <trkpt lat="49.33372" lon="6.13571">
        <ele>161.64</ele>
        <time>2021-07-22T17:19:05Z</time>
      </trkpt>
      <trkpt lat="49.33376" lon="6.13582">
        <ele>161.16</ele>
        <time>2021-07-22T17:19:06Z</time>
      </trkpt>
      <trkpt lat="49.3338" lon="6.13593">
        <ele>161.16</ele>
        <time>2021-07-22T17:19:07Z</time>
      </trkpt>
      <trkpt lat="49.33384" lon="6.13605">
        <ele>161.16</ele>
        <time>2021-07-22T17:19:08Z</time>
      </trkpt>
      <trkpt lat="49.33388" lon="6.13617">
        <ele>161.16</ele>
        <time>2021-07-22T17:19:09Z</time>
      </trkpt>
      <trkpt lat="49.33446" lon="6.13769">
        <ele>160.68</ele>
        <time>2021-07-22T17:19:20Z</time>
      </trkpt>
      <trkpt lat="49.33534" lon="6.13941">
        <ele>160.2</ele>
        <time>2021-07-22T17:19:32Z</time>
      </trkpt>
      <trkpt lat="49.336" lon="6.14124">
        <ele>160.2</ele>
        <time>2021-07-22T17:19:44Z</time>
      </trkpt>
      <trkpt lat="49.33703" lon="6.14505">
        <ele>160.2</ele>
        <time>2021-07-22T17:20:03Z</time>
      </trkpt>
      <trkpt lat="49.33709" lon="6.1464">
        <ele>164.04</ele>
        <time>2021-07-22T17:20:10Z</time>
      </trkpt>
      <trkpt lat="49.33703" lon="6.14672">
        <ele>165</ele>
        <time>2021-07-22T17:20:13Z</time>
      </trkpt>
      <trkpt lat="49.33701" lon="6.14685">
        <ele>165</ele>
        <time>2021-07-22T17:20:14Z</time>
      </trkpt>
      <trkpt lat="49.33701" lon="6.14685">
        <ele>164.52</ele>
        <time>2021-07-22T17:20:15Z</time>
      </trkpt>
      <trkpt lat="49.337" lon="6.1469">
        <ele>164.04</ele>
        <time>2021-07-22T17:20:16Z</time>
      </trkpt>
      <trkpt lat="49.33694" lon="6.14695">
        <ele>164.04</ele>
        <time>2021-07-22T17:20:17Z</time>
      </trkpt>
      <trkpt lat="49.33691" lon="6.14694">
        <ele>164.04</ele>
        <time>2021-07-22T17:20:18Z</time>
      </trkpt>
      <trkpt lat="49.33691" lon="6.14694">
        <ele>165</ele>
        <time>2021-07-22T17:20:34Z</time>
      </trkpt>
      <trkpt lat="49.33698" lon="6.14698">
        <ele>165</ele>
        <time>2021-07-22T17:20:35Z</time>
      </trkpt>
      <trkpt lat="49.33697" lon="6.14701">
        <ele>165</ele>
        <time>2021-07-22T17:20:36Z</time>
      </trkpt>
      <trkpt lat="49.33696" lon="6.14709">
        <ele>165</ele>
        <time>2021-07-22T17:20:37Z</time>
      </trkpt>
      <trkpt lat="49.33695" lon="6.14713">
        <ele>164.52</ele>
        <time>2021-07-22T17:20:38Z</time>
      </trkpt>
      <trkpt lat="49.33695" lon="6.14713">
        <ele>165</ele>
        <time>2021-07-22T17:20:43Z</time>
      </trkpt>
      <trkpt lat="49.33695" lon="6.14713">
        <ele>165</ele>
        <time>2021-07-22T17:20:57Z</time>
      </trkpt>
      <trkpt lat="49.33696" lon="6.14695">
        <ele>165.48</ele>
        <time>2021-07-22T17:20:58Z</time>
      </trkpt>
      <trkpt lat="49.33697" lon="6.14696">
        <ele>165.48</ele>
        <time>2021-07-22T17:21:05Z</time>
      </trkpt>
      <trkpt lat="49.33698" lon="6.14696">
        <ele>165.48</ele>
        <time>2021-07-22T17:21:06Z</time>
      </trkpt>
      <trkpt lat="49.33699" lon="6.14695">
        <ele>165.48</ele>
        <time>2021-07-22T17:21:07Z</time>
      </trkpt>
      <trkpt lat="49.337" lon="6.1469">
        <ele>165.96</ele>
        <time>2021-07-22T17:21:08Z</time>
      </trkpt>
      <trkpt lat="49.33701" lon="6.14683">
        <ele>165.96</ele>
        <time>2021-07-22T17:21:09Z</time>
      </trkpt>
      <trkpt lat="49.33711" lon="6.14582">
        <ele>162.6</ele>
        <time>2021-07-22T17:21:19Z</time>
      </trkpt>
      <trkpt lat="49.3369" lon="6.14453">
        <ele>159.72</ele>
        <time>2021-07-22T17:21:28Z</time>
      </trkpt>
      <trkpt lat="49.33652" lon="6.14315">
        <ele>159.24</ele>
        <time>2021-07-22T17:21:38Z</time>
      </trkpt>
      <trkpt lat="49.33624" lon="6.14211">
        <ele>158.75</ele>
        <time>2021-07-22T17:21:50Z</time>
      </trkpt>
      <trkpt lat="49.33575" lon="6.14039">
        <ele>158.75</ele>
        <time>2021-07-22T17:22:02Z</time>
      </trkpt>
      <trkpt lat="49.33495" lon="6.1387">
        <ele>161.16</ele>
        <time>2021-07-22T17:22:14Z</time>
      </trkpt>
      <trkpt lat="49.33416" lon="6.13694">
        <ele>161.16</ele>
        <time>2021-07-22T17:22:26Z</time>
      </trkpt>
      <trkpt lat="49.3338" lon="6.13593">
        <ele>160.68</ele>
        <time>2021-07-22T17:22:33Z</time>
      </trkpt>
      <trkpt lat="49.33376" lon="6.1358">
        <ele>160.68</ele>
        <time>2021-07-22T17:22:34Z</time>
      </trkpt>
      <trkpt lat="49.33354" lon="6.13543">
        <ele>161.16</ele>
        <time>2021-07-22T17:22:41Z</time>
      </trkpt>
      <trkpt lat="49.33354" lon="6.13543">
        <ele>160.68</ele>
        <time>2021-07-22T17:23:13Z</time>
      </trkpt>
      <trkpt lat="49.33354" lon="6.13543">
        <ele>160.68</ele>
        <time>2021-07-22T17:23:19Z</time>
      </trkpt>
      <trkpt lat="49.3335" lon="6.13537">
        <ele>160.68</ele>
        <time>2021-07-22T17:23:20Z</time>
      </trkpt>
      <trkpt lat="49.33346" lon="6.13531">
        <ele>160.68</ele>
        <time>2021-07-22T17:23:21Z</time>
      </trkpt>
      <trkpt lat="49.33326" lon="6.13535">
        <ele>161.64</ele>
        <time>2021-07-22T17:23:24Z</time>
      </trkpt>
      <trkpt lat="49.33313" lon="6.13533">
        <ele>161.64</ele>
        <time>2021-07-22T17:23:25Z</time>
      </trkpt>
      <trkpt lat="49.33301" lon="6.13528">
        <ele>161.16</ele>
        <time>2021-07-22T17:23:26Z</time>
      </trkpt>
      <trkpt lat="49.33252" lon="6.13505">
        <ele>160.2</ele>
        <time>2021-07-22T17:23:33Z</time>
      </trkpt>
      <trkpt lat="49.33134" lon="6.13481">
        <ele>159.72</ele>
        <time>2021-07-22T17:23:47Z</time>
      </trkpt>
      <trkpt lat="49.33009" lon="6.13485">
        <ele>161.64</ele>
        <time>2021-07-22T17:23:59Z</time>
      </trkpt>
      <trkpt lat="49.3284" lon="6.1351">
        <ele>165</ele>
        <time>2021-07-22T17:24:13Z</time>
      </trkpt>
      <trkpt lat="49.32793" lon="6.13514">
        <ele>165</ele>
        <time>2021-07-22T17:24:20Z</time>
      </trkpt>
      <trkpt lat="49.32793" lon="6.13514">
        <ele>165</ele>
        <time>2021-07-22T17:24:21Z</time>
      </trkpt>
      <trkpt lat="49.32782" lon="6.13489">
        <ele>165.48</ele>
        <time>2021-07-22T17:24:23Z</time>
      </trkpt>
      <trkpt lat="49.32778" lon="6.13485">
        <ele>165.48</ele>
        <time>2021-07-22T17:24:24Z</time>
      </trkpt>
      <trkpt lat="49.32765" lon="6.13482">
        <ele>165.48</ele>
        <time>2021-07-22T17:24:25Z</time>
      </trkpt>
      <trkpt lat="49.32756" lon="6.1349">
        <ele>165.48</ele>
        <time>2021-07-22T17:24:26Z</time>
      </trkpt>
      <trkpt lat="49.32753" lon="6.13495">
        <ele>165.48</ele>
        <time>2021-07-22T17:24:27Z</time>
      </trkpt>
      <trkpt lat="49.32751" lon="6.1351">
        <ele>164.52</ele>
        <time>2021-07-22T17:24:28Z</time>
      </trkpt>
      <trkpt lat="49.3275" lon="6.13516">
        <ele>164.04</ele>
        <time>2021-07-22T17:24:29Z</time>
      </trkpt>
      <trkpt lat="49.32754" lon="6.13527">
        <ele>163.08</ele>
        <time>2021-07-22T17:24:30Z</time>
      </trkpt>
      <trkpt lat="49.32756" lon="6.13533">
        <ele>163.08</ele>
        <time>2021-07-22T17:24:31Z</time>
      </trkpt>
      <trkpt lat="49.32759" lon="6.13539">
        <ele>162.6</ele>
        <time>2021-07-22T17:24:32Z</time>
      </trkpt>
      <trkpt lat="49.32766" lon="6.13546">
        <ele>162.12</ele>
        <time>2021-07-22T17:24:33Z</time>
      </trkpt>
      <trkpt lat="49.32774" lon="6.13546">
        <ele>162.6</ele>
        <time>2021-07-22T17:24:34Z</time>
      </trkpt>
      <trkpt lat="49.32778" lon="6.13544">
        <ele>162.6</ele>
        <time>2021-07-22T17:24:35Z</time>
      </trkpt>
      <trkpt lat="49.32783" lon="6.13541">
        <ele>162.6</ele>
        <time>2021-07-22T17:24:36Z</time>
      </trkpt>
      <trkpt lat="49.32789" lon="6.13528">
        <ele>162.6</ele>
        <time>2021-07-22T17:24:37Z</time>
      </trkpt>
      <trkpt lat="49.32791" lon="6.13521">
        <ele>162.6</ele>
        <time>2021-07-22T17:24:38Z</time>
      </trkpt>
      <trkpt lat="49.32792" lon="6.13507">
        <ele>162.6</ele>
        <time>2021-07-22T17:24:39Z</time>
      </trkpt>
      <trkpt lat="49.32784" lon="6.13491">
        <ele>162.6</ele>
        <time>2021-07-22T17:24:40Z</time>
      </trkpt>
      <trkpt lat="49.3278" lon="6.13487">
        <ele>162.6</ele>
        <time>2021-07-22T17:24:41Z</time>
      </trkpt>
      <trkpt lat="49.32767" lon="6.13481">
        <ele>162.6</ele>
        <time>2021-07-22T17:24:42Z</time>
      </trkpt>
      <trkpt lat="49.32757" lon="6.13489">
        <ele>162.12</ele>
        <time>2021-07-22T17:24:43Z</time>
      </trkpt>
      <trkpt lat="49.32752" lon="6.13496">
        <ele>162.6</ele>
        <time>2021-07-22T17:24:44Z</time>
      </trkpt>
      <trkpt lat="49.32752" lon="6.13496">
        <ele>162.6</ele>
        <time>2021-07-22T17:24:45Z</time>
      </trkpt>
      <trkpt lat="49.32744" lon="6.13518">
        <ele>162.12</ele>
        <time>2021-07-22T17:24:46Z</time>
      </trkpt>
      <trkpt lat="49.32735" lon="6.13519">
        <ele>162.12</ele>
        <time>2021-07-22T17:24:47Z</time>
      </trkpt>
      <trkpt lat="49.32644" lon="6.13528">
        <ele>160.68</ele>
        <time>2021-07-22T17:24:57Z</time>
      </trkpt>
      <trkpt lat="49.32579" lon="6.13536">
        <ele>163.08</ele>
        <time>2021-07-22T17:25:06Z</time>
      </trkpt>
      <trkpt lat="49.32555" lon="6.13541">
        <ele>163.56</ele>
        <time>2021-07-22T17:25:09Z</time>
      </trkpt>
      <trkpt lat="49.32547" lon="6.13543">
        <ele>163.56</ele>
        <time>2021-07-22T17:25:10Z</time>
      </trkpt>
      <trkpt lat="49.32542" lon="6.13548">
        <ele>163.56</ele>
        <time>2021-07-22T17:25:11Z</time>
      </trkpt>
      <trkpt lat="49.32535" lon="6.13554">
        <ele>163.56</ele>
        <time>2021-07-22T17:25:12Z</time>
      </trkpt>
      <trkpt lat="49.32522" lon="6.13568">
        <ele>163.56</ele>
        <time>2021-07-22T17:25:13Z</time>
      </trkpt>
      <trkpt lat="49.3246" lon="6.13667">
        <ele>164.52</ele>
        <time>2021-07-22T17:25:26Z</time>
      </trkpt>
      <trkpt lat="49.32398" lon="6.13729">
        <ele>165</ele>
        <time>2021-07-22T17:25:36Z</time>
      </trkpt>
      <trkpt lat="49.32293" lon="6.13793">
        <ele>163.08</ele>
        <time>2021-07-22T17:25:48Z</time>
      </trkpt>
      <trkpt lat="49.32282" lon="6.13801">
        <ele>162.12</ele>
        <time>2021-07-22T17:25:49Z</time>
      </trkpt>
      <trkpt lat="49.32174" lon="6.13896">
        <ele>160.2</ele>
        <time>2021-07-22T17:26:01Z</time>
      </trkpt>
      <trkpt lat="49.32037" lon="6.13975">
        <ele>159.72</ele>
        <time>2021-07-22T17:26:13Z</time>
      </trkpt>
      <trkpt lat="49.31901" lon="6.14023">
        <ele>156.35</ele>
        <time>2021-07-22T17:26:24Z</time>
      </trkpt>
      <trkpt lat="49.31832" lon="6.14047">
        <ele>158.75</ele>
        <time>2021-07-22T17:26:34Z</time>
      </trkpt>
      <trkpt lat="49.31773" lon="6.14072">
        <ele>158.27</ele>
        <time>2021-07-22T17:26:40Z</time>
      </trkpt>
      <trkpt lat="49.31691" lon="6.14162">
        <ele>157.31</ele>
        <time>2021-07-22T17:26:49Z</time>
      </trkpt>
      <trkpt lat="49.31534" lon="6.14335">
        <ele>154.91</ele>
        <time>2021-07-22T17:27:03Z</time>
      </trkpt>
    </trkseg>
  </trk>
  <trk>
    <name><![CDATA[Journal actif: 2021-07-22 15:27]]></name>
    <trkseg>
      <trkpt lat="49.314" lon="6.14468">
        <ele>154.43</ele>
        <time>2021-07-22T17:27:16Z</time>
      </trkpt>
      <trkpt lat="49.31238" lon="6.14623">
        <ele>152.99</ele>
        <time>2021-07-22T17:27:31Z</time>
      </trkpt>
      <trkpt lat="49.31055" lon="6.14775">
        <ele>152.51</ele>
        <time>2021-07-22T17:27:48Z</time>
      </trkpt>
      <trkpt lat="49.30985" lon="6.14836">
        <ele>152.99</ele>
        <time>2021-07-22T17:27:56Z</time>
      </trkpt>
      <trkpt lat="49.3098" lon="6.14838">
        <ele>152.99</ele>
        <time>2021-07-22T17:27:57Z</time>
      </trkpt>
      <trkpt lat="49.30976" lon="6.1484">
        <ele>153.47</ele>
        <time>2021-07-22T17:27:58Z</time>
      </trkpt>
      <trkpt lat="49.3096" lon="6.14833">
        <ele>154.91</ele>
        <time>2021-07-22T17:28:04Z</time>
      </trkpt>
      <trkpt lat="49.30958" lon="6.14827">
        <ele>154.91</ele>
        <time>2021-07-22T17:28:05Z</time>
      </trkpt>
      <trkpt lat="49.30953" lon="6.14827">
        <ele>154.43</ele>
        <time>2021-07-22T17:28:06Z</time>
      </trkpt>
      <trkpt lat="49.30948" lon="6.14827">
        <ele>153.95</ele>
        <time>2021-07-22T17:28:07Z</time>
      </trkpt>
      <trkpt lat="49.30944" lon="6.14833">
        <ele>153.47</ele>
        <time>2021-07-22T17:28:08Z</time>
      </trkpt>
      <trkpt lat="49.30943" lon="6.14841">
        <ele>153.47</ele>
        <time>2021-07-22T17:28:09Z</time>
      </trkpt>
      <trkpt lat="49.30943" lon="6.14849">
        <ele>153.95</ele>
        <time>2021-07-22T17:28:10Z</time>
      </trkpt>
      <trkpt lat="49.30943" lon="6.14852">
        <ele>153.47</ele>
        <time>2021-07-22T17:28:11Z</time>
      </trkpt>
      <trkpt lat="49.30943" lon="6.14852">
        <ele>153.47</ele>
        <time>2021-07-22T17:28:12Z</time>
      </trkpt>
      <trkpt lat="49.30941" lon="6.14872">
        <ele>153.47</ele>
        <time>2021-07-22T17:28:13Z</time>
      </trkpt>
      <trkpt lat="49.30937" lon="6.14879">
        <ele>153.47</ele>
        <time>2021-07-22T17:28:14Z</time>
      </trkpt>
      <trkpt lat="49.30933" lon="6.14887">
        <ele>153.95</ele>
        <time>2021-07-22T17:28:15Z</time>
      </trkpt>
      <trkpt lat="49.30928" lon="6.14896">
        <ele>153.95</ele>
        <time>2021-07-22T17:28:16Z</time>
      </trkpt>
      <trkpt lat="49.30854" lon="6.14995">
        <ele>151.54</ele>
        <time>2021-07-22T17:28:26Z</time>
      </trkpt>
      <trkpt lat="49.308" lon="6.15058">
        <ele>151.54</ele>
        <time>2021-07-22T17:28:34Z</time>
      </trkpt>
      <trkpt lat="49.30725" lon="6.15141">
        <ele>152.51</ele>
        <time>2021-07-22T17:28:46Z</time>
      </trkpt>
      <trkpt lat="49.30663" lon="6.15207">
        <ele>152.99</ele>
        <time>2021-07-22T17:28:56Z</time>
      </trkpt>
      <trkpt lat="49.30629" lon="6.15245">
        <ele>152.99</ele>
        <time>2021-07-22T17:29:07Z</time>
      </trkpt>
      <trkpt lat="49.30566" lon="6.15312">
        <ele>152.51</ele>
        <time>2021-07-22T17:29:18Z</time>
      </trkpt>
      <trkpt lat="49.30525" lon="6.15355">
        <ele>152.51</ele>
        <time>2021-07-22T17:29:24Z</time>
      </trkpt>
      <trkpt lat="49.30518" lon="6.1536">
        <ele>152.51</ele>
        <time>2021-07-22T17:29:25Z</time>
      </trkpt>
      <trkpt lat="49.3051" lon="6.15364">
        <ele>152.99</ele>
        <time>2021-07-22T17:29:26Z</time>
      </trkpt>
      <trkpt lat="49.30413" lon="6.1541">
        <ele>156.35</ele>
        <time>2021-07-22T17:29:38Z</time>
      </trkpt>
      <trkpt lat="49.30407" lon="6.15412">
        <ele>156.35</ele>
        <time>2021-07-22T17:29:39Z</time>
      </trkpt>
      <trkpt lat="49.30392" lon="6.15401">
        <ele>156.83</ele>
        <time>2021-07-22T17:29:42Z</time>
      </trkpt>
      <trkpt lat="49.30385" lon="6.15401">
        <ele>156.35</ele>
        <time>2021-07-22T17:29:43Z</time>
      </trkpt>
      <trkpt lat="49.30381" lon="6.15404">
        <ele>156.35</ele>
        <time>2021-07-22T17:29:44Z</time>
      </trkpt>
      <trkpt lat="49.30375" lon="6.15417">
        <ele>156.35</ele>
        <time>2021-07-22T17:29:45Z</time>
      </trkpt>
      <trkpt lat="49.30375" lon="6.15417">
        <ele>156.35</ele>
        <time>2021-07-22T17:29:46Z</time>
      </trkpt>
      <trkpt lat="49.30376" lon="6.15422">
        <ele>156.35</ele>
        <time>2021-07-22T17:29:47Z</time>
      </trkpt>
      <trkpt lat="49.30378" lon="6.15428">
        <ele>156.83</ele>
        <time>2021-07-22T17:29:48Z</time>
      </trkpt>
      <trkpt lat="49.3038" lon="6.15433">
        <ele>156.83</ele>
        <time>2021-07-22T17:29:49Z</time>
      </trkpt>
      <trkpt lat="49.30382" lon="6.15438">
        <ele>157.31</ele>
        <time>2021-07-22T17:29:50Z</time>
      </trkpt>
      <trkpt lat="49.30384" lon="6.15442">
        <ele>157.79</ele>
        <time>2021-07-22T17:29:51Z</time>
      </trkpt>
      <trkpt lat="49.30386" lon="6.1544">
        <ele>157.79</ele>
        <time>2021-07-22T17:29:52Z</time>
      </trkpt>
      <trkpt lat="49.30391" lon="6.15438">
        <ele>157.79</ele>
        <time>2021-07-22T17:29:53Z</time>
      </trkpt>
      <trkpt lat="49.30391" lon="6.15438">
        <ele>157.79</ele>
        <time>2021-07-22T17:29:54Z</time>
      </trkpt>
      <trkpt lat="49.30394" lon="6.15437">
        <ele>157.79</ele>
        <time>2021-07-22T17:29:55Z</time>
      </trkpt>
      <trkpt lat="49.30398" lon="6.15436">
        <ele>157.79</ele>
        <time>2021-07-22T17:29:56Z</time>
      </trkpt>
      <trkpt lat="49.30399" lon="6.15431">
        <ele>157.79</ele>
        <time>2021-07-22T17:29:57Z</time>
      </trkpt>
      <trkpt lat="49.30401" lon="6.15423">
        <ele>157.79</ele>
        <time>2021-07-22T17:29:58Z</time>
      </trkpt>
      <trkpt lat="49.30402" lon="6.15414">
        <ele>157.79</ele>
        <time>2021-07-22T17:29:59Z</time>
      </trkpt>
      <trkpt lat="49.30399" lon="6.15407">
        <ele>157.79</ele>
        <time>2021-07-22T17:30:00Z</time>
      </trkpt>
      <trkpt lat="49.30394" lon="6.15402">
        <ele>157.79</ele>
        <time>2021-07-22T17:30:01Z</time>
      </trkpt>
      <trkpt lat="49.30389" lon="6.154">
        <ele>157.79</ele>
        <time>2021-07-22T17:30:02Z</time>
      </trkpt>
      <trkpt lat="49.30379" lon="6.15409">
        <ele>157.79</ele>
        <time>2021-07-22T17:30:03Z</time>
      </trkpt>
      <trkpt lat="49.30379" lon="6.15409">
        <ele>157.79</ele>
        <time>2021-07-22T17:30:04Z</time>
      </trkpt>
      <trkpt lat="49.30376" lon="6.15416">
        <ele>157.79</ele>
        <time>2021-07-22T17:30:05Z</time>
      </trkpt>
      <trkpt lat="49.30379" lon="6.1543">
        <ele>157.79</ele>
        <time>2021-07-22T17:30:06Z</time>
      </trkpt>
      <trkpt lat="49.30379" lon="6.1543">
        <ele>157.79</ele>
        <time>2021-07-22T17:30:07Z</time>
      </trkpt>
      <trkpt lat="49.30385" lon="6.15446">
        <ele>158.75</ele>
        <time>2021-07-22T17:30:08Z</time>
      </trkpt>
      <trkpt lat="49.30385" lon="6.15446">
        <ele>159.24</ele>
        <time>2021-07-22T17:30:09Z</time>
      </trkpt>
      <trkpt lat="49.3039" lon="6.15463">
        <ele>159.24</ele>
        <time>2021-07-22T17:30:10Z</time>
      </trkpt>
      <trkpt lat="49.3039" lon="6.15463">
        <ele>159.72</ele>
        <time>2021-07-22T17:30:11Z</time>
      </trkpt>
      <trkpt lat="49.30393" lon="6.15472">
        <ele>159.72</ele>
        <time>2021-07-22T17:30:12Z</time>
      </trkpt>
      <trkpt lat="49.30394" lon="6.15482">
        <ele>159.72</ele>
        <time>2021-07-22T17:30:13Z</time>
      </trkpt>
      <trkpt lat="49.30394" lon="6.15493">
        <ele>160.2</ele>
        <time>2021-07-22T17:30:14Z</time>
      </trkpt>
      <trkpt lat="49.30385" lon="6.15646">
        <ele>162.12</ele>
        <time>2021-07-22T17:30:27Z</time>
      </trkpt>
      <trkpt lat="49.30384" lon="6.15658">
        <ele>161.64</ele>
        <time>2021-07-22T17:30:28Z</time>
      </trkpt>
      <trkpt lat="49.30381" lon="6.15671">
        <ele>161.16</ele>
        <time>2021-07-22T17:30:29Z</time>
      </trkpt>
      <trkpt lat="49.30374" lon="6.15682">
        <ele>160.2</ele>
        <time>2021-07-22T17:30:30Z</time>
      </trkpt>
      <trkpt lat="49.30367" lon="6.15692">
        <ele>158.27</ele>
        <time>2021-07-22T17:30:31Z</time>
      </trkpt>
      <trkpt lat="49.30358" lon="6.157">
        <ele>157.31</ele>
        <time>2021-07-22T17:30:32Z</time>
      </trkpt>
      <trkpt lat="49.30274" lon="6.15769">
        <ele>155.39</ele>
        <time>2021-07-22T17:30:40Z</time>
      </trkpt>
      <trkpt lat="49.30274" lon="6.15769">
        <ele>155.39</ele>
        <time>2021-07-22T17:30:41Z</time>
      </trkpt>
      <trkpt lat="49.30264" lon="6.15771">
        <ele>154.91</ele>
        <time>2021-07-22T17:30:42Z</time>
      </trkpt>
      <trkpt lat="49.30255" lon="6.15771">
        <ele>155.39</ele>
        <time>2021-07-22T17:30:43Z</time>
      </trkpt>
      <trkpt lat="49.30247" lon="6.15771">
        <ele>155.39</ele>
        <time>2021-07-22T17:30:44Z</time>
      </trkpt>
      <trkpt lat="49.3024" lon="6.15771">
        <ele>155.39</ele>
        <time>2021-07-22T17:30:45Z</time>
      </trkpt>
      <trkpt lat="49.30235" lon="6.15771">
        <ele>155.39</ele>
        <time>2021-07-22T17:30:46Z</time>
      </trkpt>
      <trkpt lat="49.3023" lon="6.15771">
        <ele>155.87</ele>
        <time>2021-07-22T17:30:47Z</time>
      </trkpt>
      <trkpt lat="49.30226" lon="6.15771">
        <ele>155.87</ele>
        <time>2021-07-22T17:30:48Z</time>
      </trkpt>
      <trkpt lat="49.30224" lon="6.15756">
        <ele>156.35</ele>
        <time>2021-07-22T17:30:49Z</time>
      </trkpt>
      <trkpt lat="49.30221" lon="6.15751">
        <ele>155.87</ele>
        <time>2021-07-22T17:30:50Z</time>
      </trkpt>
      <trkpt lat="49.30219" lon="6.15748">
        <ele>155.87</ele>
        <time>2021-07-22T17:30:51Z</time>
      </trkpt>
      <trkpt lat="49.3021" lon="6.15751">
        <ele>155.39</ele>
        <time>2021-07-22T17:30:52Z</time>
      </trkpt>
      <trkpt lat="49.30207" lon="6.15756">
        <ele>155.39</ele>
        <time>2021-07-22T17:30:53Z</time>
      </trkpt>
      <trkpt lat="49.30207" lon="6.15756">
        <ele>155.39</ele>
        <time>2021-07-22T17:30:54Z</time>
      </trkpt>
      <trkpt lat="49.30207" lon="6.1576">
        <ele>155.39</ele>
        <time>2021-07-22T17:30:55Z</time>
      </trkpt>
      <trkpt lat="49.30207" lon="6.15765">
        <ele>155.39</ele>
        <time>2021-07-22T17:30:56Z</time>
      </trkpt>
      <trkpt lat="49.30215" lon="6.15797">
        <ele>155.39</ele>
        <time>2021-07-22T17:31:05Z</time>
      </trkpt>
      <trkpt lat="49.30216" lon="6.15804">
        <ele>155.87</ele>
        <time>2021-07-22T17:31:06Z</time>
      </trkpt>
      <trkpt lat="49.30255" lon="6.15905">
        <ele>156.83</ele>
        <time>2021-07-22T17:31:17Z</time>
      </trkpt>
      <trkpt lat="49.30306" lon="6.16018">
        <ele>156.83</ele>
        <time>2021-07-22T17:31:30Z</time>
      </trkpt>
      <trkpt lat="49.30311" lon="6.16021">
        <ele>156.83</ele>
        <time>2021-07-22T17:31:31Z</time>
      </trkpt>
      <trkpt lat="49.30316" lon="6.16024">
        <ele>156.83</ele>
        <time>2021-07-22T17:31:32Z</time>
      </trkpt>
      <trkpt lat="49.30316" lon="6.16024">
        <ele>156.83</ele>
        <time>2021-07-22T17:31:33Z</time>
      </trkpt>
      <trkpt lat="49.3032" lon="6.16027">
        <ele>156.83</ele>
        <time>2021-07-22T17:31:34Z</time>
      </trkpt>
      <trkpt lat="49.30331" lon="6.16025">
        <ele>156.35</ele>
        <time>2021-07-22T17:31:35Z</time>
      </trkpt>
      <trkpt lat="49.30413" lon="6.15994">
        <ele>155.39</ele>
        <time>2021-07-22T17:31:51Z</time>
      </trkpt>
      <trkpt lat="49.30414" lon="6.15994">
        <ele>154.43</ele>
        <time>2021-07-22T17:32:02Z</time>
      </trkpt>
      <trkpt lat="49.30414" lon="6.15994">
        <ele>155.39</ele>
        <time>2021-07-22T17:32:18Z</time>
      </trkpt>
      <trkpt lat="49.30414" lon="6.15994">
        <ele>154.91</ele>
        <time>2021-07-22T17:32:41Z</time>
      </trkpt>
      <trkpt lat="49.30414" lon="6.15994">
        <ele>155.39</ele>
        <time>2021-07-22T17:33:02Z</time>
      </trkpt>
      <trkpt lat="49.30414" lon="6.15994">
        <ele>155.39</ele>
        <time>2021-07-22T17:33:13Z</time>
      </trkpt>
      <trkpt lat="49.30413" lon="6.15994">
        <ele>155.39</ele>
        <time>2021-07-22T17:33:14Z</time>
      </trkpt>
      <trkpt lat="49.30413" lon="6.15994">
        <ele>155.39</ele>
        <time>2021-07-22T17:33:15Z</time>
      </trkpt>
      <trkpt lat="49.3034" lon="6.16021">
        <ele>154.91</ele>
        <time>2021-07-22T17:33:26Z</time>
      </trkpt>
      <trkpt lat="49.30327" lon="6.16027">
        <ele>155.39</ele>
        <time>2021-07-22T17:33:28Z</time>
      </trkpt>
      <trkpt lat="49.30323" lon="6.16028">
        <ele>155.39</ele>
        <time>2021-07-22T17:33:29Z</time>
      </trkpt>
      <trkpt lat="49.30316" lon="6.16024">
        <ele>155.39</ele>
        <time>2021-07-22T17:33:30Z</time>
      </trkpt>
      <trkpt lat="49.3031" lon="6.16021">
        <ele>155.39</ele>
        <time>2021-07-22T17:33:31Z</time>
      </trkpt>
      <trkpt lat="49.30305" lon="6.16018">
        <ele>155.39</ele>
        <time>2021-07-22T17:33:32Z</time>
      </trkpt>
      <trkpt lat="49.30299" lon="6.16014">
        <ele>155.39</ele>
        <time>2021-07-22T17:33:33Z</time>
      </trkpt>
      <trkpt lat="49.30246" lon="6.15881">
        <ele>156.83</ele>
        <time>2021-07-22T17:33:45Z</time>
      </trkpt>
      <trkpt lat="49.30215" lon="6.15798">
        <ele>157.31</ele>
        <time>2021-07-22T17:33:54Z</time>
      </trkpt>
      <trkpt lat="49.30214" lon="6.15792">
        <ele>157.31</ele>
        <time>2021-07-22T17:34:10Z</time>
      </trkpt>
      <trkpt lat="49.30215" lon="6.15782">
        <ele>157.31</ele>
        <time>2021-07-22T17:34:16Z</time>
      </trkpt>
      <trkpt lat="49.30215" lon="6.15782">
        <ele>157.31</ele>
        <time>2021-07-22T17:34:17Z</time>
      </trkpt>
      <trkpt lat="49.30215" lon="6.15779">
        <ele>157.79</ele>
        <time>2021-07-22T17:34:18Z</time>
      </trkpt>
      <trkpt lat="49.30216" lon="6.15777">
        <ele>157.79</ele>
        <time>2021-07-22T17:34:19Z</time>
      </trkpt>
      <trkpt lat="49.3022" lon="6.15774">
        <ele>157.79</ele>
        <time>2021-07-22T17:34:20Z</time>
      </trkpt>
      <trkpt lat="49.30226" lon="6.15771">
        <ele>157.79</ele>
        <time>2021-07-22T17:34:21Z</time>
      </trkpt>
      <trkpt lat="49.30226" lon="6.15771">
        <ele>157.79</ele>
        <time>2021-07-22T17:34:22Z</time>
      </trkpt>
      <trkpt lat="49.3023" lon="6.15771">
        <ele>157.79</ele>
        <time>2021-07-22T17:34:23Z</time>
      </trkpt>
      <trkpt lat="49.30234" lon="6.15771">
        <ele>158.27</ele>
        <time>2021-07-22T17:34:24Z</time>
      </trkpt>
      <trkpt lat="49.30271" lon="6.1577">
        <ele>159.24</ele>
        <time>2021-07-22T17:34:31Z</time>
      </trkpt>
      <trkpt lat="49.30277" lon="6.15767">
        <ele>159.24</ele>
        <time>2021-07-22T17:34:32Z</time>
      </trkpt>
      <trkpt lat="49.30283" lon="6.15765">
        <ele>159.72</ele>
        <time>2021-07-22T17:34:33Z</time>
      </trkpt>
      <trkpt lat="49.3035" lon="6.15708">
        <ele>161.64</ele>
        <time>2021-07-22T17:34:45Z</time>
      </trkpt>
      <trkpt lat="49.30367" lon="6.15692">
        <ele>162.6</ele>
        <time>2021-07-22T17:34:48Z</time>
      </trkpt>
      <trkpt lat="49.30372" lon="6.15686">
        <ele>162.6</ele>
        <time>2021-07-22T17:34:49Z</time>
      </trkpt>
      <trkpt lat="49.30377" lon="6.15678">
        <ele>162.6</ele>
        <time>2021-07-22T17:34:50Z</time>
      </trkpt>
      <trkpt lat="49.30384" lon="6.15662">
        <ele>163.08</ele>
        <time>2021-07-22T17:34:51Z</time>
      </trkpt>
      <trkpt lat="49.30384" lon="6.15662">
        <ele>163.08</ele>
        <time>2021-07-22T17:34:52Z</time>
      </trkpt>
      <trkpt lat="49.30385" lon="6.15653">
        <ele>163.08</ele>
        <time>2021-07-22T17:34:53Z</time>
      </trkpt>
      <trkpt lat="49.30385" lon="6.15644">
        <ele>163.08</ele>
        <time>2021-07-22T17:34:54Z</time>
      </trkpt>
      <trkpt lat="49.30386" lon="6.15635">
        <ele>163.08</ele>
        <time>2021-07-22T17:34:55Z</time>
      </trkpt>
      <trkpt lat="49.30393" lon="6.15521">
        <ele>162.6</ele>
        <time>2021-07-22T17:35:08Z</time>
      </trkpt>
      <trkpt lat="49.30397" lon="6.15449">
        <ele>161.16</ele>
        <time>2021-07-22T17:35:15Z</time>
      </trkpt>
      <trkpt lat="49.30399" lon="6.15432">
        <ele>161.16</ele>
        <time>2021-07-22T17:35:17Z</time>
      </trkpt>
      <trkpt lat="49.30401" lon="6.15423">
        <ele>161.16</ele>
        <time>2021-07-22T17:35:18Z</time>
      </trkpt>
      <trkpt lat="49.30401" lon="6.15412">
        <ele>161.16</ele>
        <time>2021-07-22T17:35:19Z</time>
      </trkpt>
      <trkpt lat="49.30399" lon="6.15405">
        <ele>160.68</ele>
        <time>2021-07-22T17:35:20Z</time>
      </trkpt>
      <trkpt lat="49.30393" lon="6.15402">
        <ele>160.68</ele>
        <time>2021-07-22T17:35:21Z</time>
      </trkpt>
      <trkpt lat="49.30388" lon="6.154">
        <ele>160.68</ele>
        <time>2021-07-22T17:35:22Z</time>
      </trkpt>
      <trkpt lat="49.30384" lon="6.15402">
        <ele>160.68</ele>
        <time>2021-07-22T17:35:23Z</time>
      </trkpt>
      <trkpt lat="49.30381" lon="6.15405">
        <ele>161.16</ele>
        <time>2021-07-22T17:35:24Z</time>
      </trkpt>
      <trkpt lat="49.30378" lon="6.15411">
        <ele>161.16</ele>
        <time>2021-07-22T17:35:25Z</time>
      </trkpt>
      <trkpt lat="49.30375" lon="6.15418">
        <ele>161.16</ele>
        <time>2021-07-22T17:35:26Z</time>
      </trkpt>
      <trkpt lat="49.30376" lon="6.15424">
        <ele>161.16</ele>
        <time>2021-07-22T17:35:27Z</time>
      </trkpt>
      <trkpt lat="49.30379" lon="6.15431">
        <ele>161.64</ele>
        <time>2021-07-22T17:35:28Z</time>
      </trkpt>
      <trkpt lat="49.30382" lon="6.15438">
        <ele>161.64</ele>
        <time>2021-07-22T17:35:29Z</time>
      </trkpt>
      <trkpt lat="49.30385" lon="6.15446">
        <ele>161.64</ele>
        <time>2021-07-22T17:35:30Z</time>
      </trkpt>
      <trkpt lat="49.3039" lon="6.15462">
        <ele>162.12</ele>
        <time>2021-07-22T17:35:31Z</time>
      </trkpt>
      <trkpt lat="49.3039" lon="6.15462">
        <ele>162.12</ele>
        <time>2021-07-22T17:35:32Z</time>
      </trkpt>
      <trkpt lat="49.30394" lon="6.15479">
        <ele>162.12</ele>
        <time>2021-07-22T17:35:33Z</time>
      </trkpt>
      <trkpt lat="49.30394" lon="6.15489">
        <ele>162.12</ele>
        <time>2021-07-22T17:35:34Z</time>
      </trkpt>
      <trkpt lat="49.30394" lon="6.15489">
        <ele>162.12</ele>
        <time>2021-07-22T17:35:35Z</time>
      </trkpt>
      <trkpt lat="49.30387" lon="6.15617">
        <ele>163.56</ele>
        <time>2021-07-22T17:35:46Z</time>
      </trkpt>
      <trkpt lat="49.30385" lon="6.15652">
        <ele>163.08</ele>
        <time>2021-07-22T17:35:48Z</time>
      </trkpt>
      <trkpt lat="49.30384" lon="6.15664">
        <ele>163.08</ele>
        <time>2021-07-22T17:35:49Z</time>
      </trkpt>
      <trkpt lat="49.30384" lon="6.15664">
        <ele>162.6</ele>
        <time>2021-07-22T17:35:50Z</time>
      </trkpt>
      <trkpt lat="49.30379" lon="6.15675">
        <ele>161.64</ele>
        <time>2021-07-22T17:35:51Z</time>
      </trkpt>
      <trkpt lat="49.30373" lon="6.15684">
        <ele>161.16</ele>
        <time>2021-07-22T17:35:52Z</time>
      </trkpt>
      <trkpt lat="49.30366" lon="6.15693">
        <ele>159.72</ele>
        <time>2021-07-22T17:35:53Z</time>
      </trkpt>
      <trkpt lat="49.30357" lon="6.15701">
        <ele>158.27</ele>
        <time>2021-07-22T17:35:54Z</time>
      </trkpt>
      <trkpt lat="49.30293" lon="6.1576">
        <ele>154.43</ele>
        <time>2021-07-22T17:36:01Z</time>
      </trkpt>
      <trkpt lat="49.30283" lon="6.15765">
        <ele>153.95</ele>
        <time>2021-07-22T17:36:02Z</time>
      </trkpt>
      <trkpt lat="49.30273" lon="6.15769">
        <ele>152.99</ele>
        <time>2021-07-22T17:36:03Z</time>
      </trkpt>
      <trkpt lat="49.30262" lon="6.15771">
        <ele>152.99</ele>
        <time>2021-07-22T17:36:04Z</time>
      </trkpt>
      <trkpt lat="49.30252" lon="6.15771">
        <ele>152.99</ele>
        <time>2021-07-22T17:36:05Z</time>
      </trkpt>
      <trkpt lat="49.30245" lon="6.15771">
        <ele>152.51</ele>
        <time>2021-07-22T17:36:06Z</time>
      </trkpt>
      <trkpt lat="49.30238" lon="6.15771">
        <ele>152.51</ele>
        <time>2021-07-22T17:36:07Z</time>
      </trkpt>
      <trkpt lat="49.30233" lon="6.15771">
        <ele>153.47</ele>
        <time>2021-07-22T17:36:08Z</time>
      </trkpt>
      <trkpt lat="49.30227" lon="6.15771">
        <ele>153.47</ele>
        <time>2021-07-22T17:36:09Z</time>
      </trkpt>
      <trkpt lat="49.30223" lon="6.15753">
        <ele>153.47</ele>
        <time>2021-07-22T17:36:10Z</time>
      </trkpt>
      <trkpt lat="49.30219" lon="6.15748">
        <ele>152.99</ele>
        <time>2021-07-22T17:36:11Z</time>
      </trkpt>
      <trkpt lat="49.30212" lon="6.15749">
        <ele>152.99</ele>
        <time>2021-07-22T17:36:12Z</time>
      </trkpt>
      <trkpt lat="49.30207" lon="6.15754">
        <ele>152.99</ele>
        <time>2021-07-22T17:36:13Z</time>
      </trkpt>
      <trkpt lat="49.30207" lon="6.15754">
        <ele>152.51</ele>
        <time>2021-07-22T17:36:14Z</time>
      </trkpt>
      <trkpt lat="49.30201" lon="6.15772">
        <ele>152.51</ele>
        <time>2021-07-22T17:36:15Z</time>
      </trkpt>
      <trkpt lat="49.30112" lon="6.15855">
        <ele>152.03</ele>
        <time>2021-07-22T17:36:28Z</time>
      </trkpt>
      <trkpt lat="49.30093" lon="6.15878">
        <ele>152.99</ele>
        <time>2021-07-22T17:36:33Z</time>
      </trkpt>
      <trkpt lat="49.30093" lon="6.15878">
        <ele>152.99</ele>
        <time>2021-07-22T17:36:34Z</time>
      </trkpt>
      <trkpt lat="49.30091" lon="6.15888">
        <ele>152.99</ele>
        <time>2021-07-22T17:36:35Z</time>
      </trkpt>
      <trkpt lat="49.30089" lon="6.15897">
        <ele>153.47</ele>
        <time>2021-07-22T17:36:36Z</time>
      </trkpt>
      <trkpt lat="49.30087" lon="6.15906">
        <ele>153.47</ele>
        <time>2021-07-22T17:36:37Z</time>
      </trkpt>
      <trkpt lat="49.30088" lon="6.15913">
        <ele>153.47</ele>
        <time>2021-07-22T17:36:38Z</time>
      </trkpt>
      <trkpt lat="49.30089" lon="6.15923">
        <ele>153.47</ele>
        <time>2021-07-22T17:36:39Z</time>
      </trkpt>
      <trkpt lat="49.30105" lon="6.16098">
        <ele>153.95</ele>
        <time>2021-07-22T17:36:54Z</time>
      </trkpt>
      <trkpt lat="49.30112" lon="6.16186">
        <ele>154.43</ele>
        <time>2021-07-22T17:37:05Z</time>
      </trkpt>
      <trkpt lat="49.30114" lon="6.16214">
        <ele>155.39</ele>
        <time>2021-07-22T17:37:57Z</time>
      </trkpt>
      <trkpt lat="49.30115" lon="6.16221">
        <ele>155.39</ele>
        <time>2021-07-22T17:37:58Z</time>
      </trkpt>
      <trkpt lat="49.30115" lon="6.16229">
        <ele>155.87</ele>
        <time>2021-07-22T17:37:59Z</time>
      </trkpt>
      <trkpt lat="49.30116" lon="6.16237">
        <ele>155.87</ele>
        <time>2021-07-22T17:38:00Z</time>
      </trkpt>
      <trkpt lat="49.30117" lon="6.16245">
        <ele>155.87</ele>
        <time>2021-07-22T17:38:01Z</time>
      </trkpt>
      <trkpt lat="49.30124" lon="6.16255">
        <ele>156.35</ele>
        <time>2021-07-22T17:38:02Z</time>
      </trkpt>
      <trkpt lat="49.30135" lon="6.1626">
        <ele>156.35</ele>
        <time>2021-07-22T17:38:03Z</time>
      </trkpt>
      <trkpt lat="49.30135" lon="6.1626">
        <ele>156.83</ele>
        <time>2021-07-22T17:38:04Z</time>
      </trkpt>
      <trkpt lat="49.3014" lon="6.16263">
        <ele>156.35</ele>
        <time>2021-07-22T17:38:05Z</time>
      </trkpt>
      <trkpt lat="49.30146" lon="6.16263">
        <ele>156.35</ele>
        <time>2021-07-22T17:38:06Z</time>
      </trkpt>
      <trkpt lat="49.30152" lon="6.16261">
        <ele>155.87</ele>
        <time>2021-07-22T17:38:07Z</time>
      </trkpt>
      <trkpt lat="49.30158" lon="6.16259">
        <ele>156.35</ele>
        <time>2021-07-22T17:38:08Z</time>
      </trkpt>
      <trkpt lat="49.30165" lon="6.16257">
        <ele>156.35</ele>
        <time>2021-07-22T17:38:09Z</time>
      </trkpt>
      <trkpt lat="49.30281" lon="6.16183">
        <ele>155.87</ele>
        <time>2021-07-22T17:38:22Z</time>
      </trkpt>
      <trkpt lat="49.30442" lon="6.16114">
        <ele>155.39</ele>
        <time>2021-07-22T17:38:37Z</time>
      </trkpt>
      <trkpt lat="49.30549" lon="6.16074">
        <ele>153.95</ele>
        <time>2021-07-22T17:38:48Z</time>
      </trkpt>
      <trkpt lat="49.30561" lon="6.16069">
        <ele>154.43</ele>
        <time>2021-07-22T17:38:56Z</time>
      </trkpt>
      <trkpt lat="49.30561" lon="6.16069">
        <ele>154.43</ele>
        <time>2021-07-22T17:38:57Z</time>
      </trkpt>
      <trkpt lat="49.30563" lon="6.16069">
        <ele>154.91</ele>
        <time>2021-07-22T17:38:58Z</time>
      </trkpt>
      <trkpt lat="49.30559" lon="6.16058">
        <ele>154.91</ele>
        <time>2021-07-22T17:38:59Z</time>
      </trkpt>
      <trkpt lat="49.30558" lon="6.16052">
        <ele>154.91</ele>
        <time>2021-07-22T17:39:00Z</time>
      </trkpt>
      <trkpt lat="49.30557" lon="6.16046">
        <ele>154.91</ele>
        <time>2021-07-22T17:39:01Z</time>
      </trkpt>
      <trkpt lat="49.30542" lon="6.15968">
        <ele>156.35</ele>
        <time>2021-07-22T17:39:16Z</time>
      </trkpt>
      <trkpt lat="49.30539" lon="6.15959">
        <ele>156.83</ele>
        <time>2021-07-22T17:39:30Z</time>
      </trkpt>
      <trkpt lat="49.30537" lon="6.15954">
        <ele>156.83</ele>
        <time>2021-07-22T17:39:38Z</time>
      </trkpt>
      <trkpt lat="49.30536" lon="6.15952">
        <ele>156.83</ele>
        <time>2021-07-22T17:39:39Z</time>
      </trkpt>
      <trkpt lat="49.30536" lon="6.1595">
        <ele>156.83</ele>
        <time>2021-07-22T17:39:40Z</time>
      </trkpt>
      <trkpt lat="49.30535" lon="6.15948">
        <ele>156.35</ele>
        <time>2021-07-22T17:39:41Z</time>
      </trkpt>
      <trkpt lat="49.3055" lon="6.15944">
        <ele>155.39</ele>
        <time>2021-07-22T17:39:57Z</time>
      </trkpt>
      <trkpt lat="49.30551" lon="6.15943">
        <ele>155.39</ele>
        <time>2021-07-22T17:39:58Z</time>
      </trkpt>
      <trkpt lat="49.30569" lon="6.15925">
        <ele>155.39</ele>
        <time>2021-07-22T17:40:12Z</time>
      </trkpt>
      <trkpt lat="49.30575" lon="6.15923">
        <ele>155.39</ele>
        <time>2021-07-22T17:40:18Z</time>
      </trkpt>
      <trkpt lat="49.30584" lon="6.15906">
        <ele>155.39</ele>
        <time>2021-07-22T17:40:29Z</time>
      </trkpt>
      <trkpt lat="49.30586" lon="6.15903">
        <ele>155.39</ele>
        <time>2021-07-22T17:40:30Z</time>
      </trkpt>
      <trkpt lat="49.30593" lon="6.15914">
        <ele>155.87</ele>
        <time>2021-07-22T17:40:38Z</time>
      </trkpt>
      <trkpt lat="49.3059" lon="6.15913">
        <ele>155.39</ele>
        <time>2021-07-22T17:40:47Z</time>
      </trkpt>
      <trkpt lat="49.30574" lon="6.15922">
        <ele>154.43</ele>
        <time>2021-07-22T17:40:56Z</time>
      </trkpt>
      <trkpt lat="49.30567" lon="6.15926">
        <ele>152.99</ele>
        <time>2021-07-22T17:41:10Z</time>
      </trkpt>
      <trkpt lat="49.3057" lon="6.15924">
        <ele>153.47</ele>
        <time>2021-07-22T17:41:33Z</time>
      </trkpt>
      <trkpt lat="49.30571" lon="6.15924">
        <ele>153.47</ele>
        <time>2021-07-22T17:42:33Z</time>
      </trkpt>
      <trkpt lat="49.30571" lon="6.15925">
        <ele>153.47</ele>
        <time>2021-07-22T17:45:31Z</time>
      </trkpt>
      <trkpt lat="49.30572" lon="6.15924">
        <ele>153.47</ele>
        <time>2021-07-22T17:49:55Z</time>
      </trkpt>
      <trkpt lat="49.30573" lon="6.15923">
        <ele>153.47</ele>
        <time>2021-07-22T17:54:34Z</time>
      </trkpt>
      <trkpt lat="49.30526" lon="6.15991">
        <ele>155.87</ele>
        <time>2021-07-22T18:41:03Z</time>
      </trkpt>
      <trkpt lat="49.30512" lon="6.15898">
        <ele>110.69</ele>
        <time>2021-07-22T18:41:29Z</time>
      </trkpt>
      <trkpt lat="49.30529" lon="6.15911">
        <ele>125.59</ele>
        <time>2021-07-22T18:42:31Z</time>
      </trkpt>
      <trkpt lat="49.3053" lon="6.15911">
        <ele>125.11</ele>
        <time>2021-07-22T18:43:43Z</time>
      </trkpt>
      <trkpt lat="49.3053" lon="6.1591">
        <ele>125.11</ele>
        <time>2021-07-22T18:45:06Z</time>
      </trkpt>
      <trkpt lat="49.30529" lon="6.15912">
        <ele>124.63</ele>
        <time>2021-07-22T18:45:37Z</time>
      </trkpt>
    </trkseg>
  </trk>
  <trk>
    <name><![CDATA[Journal actif: 2021-07-22 16:46]]></name>
    <trkseg>
      <trkpt lat="49.3053" lon="6.15911">
        <ele>124.15</ele>
        <time>2021-07-22T18:46:29Z</time>
      </trkpt>
      <trkpt lat="49.30513" lon="6.15926">
        <ele>124.15</ele>
        <time>2021-07-22T18:47:05Z</time>
      </trkpt>
      <trkpt lat="49.30511" lon="6.15929">
        <ele>124.15</ele>
        <time>2021-07-22T18:47:06Z</time>
      </trkpt>
      <trkpt lat="49.30543" lon="6.15969">
        <ele>124.15</ele>
        <time>2021-07-22T18:47:15Z</time>
      </trkpt>
      <trkpt lat="49.30553" lon="6.1602">
        <ele>124.15</ele>
        <time>2021-07-22T18:47:20Z</time>
      </trkpt>
      <trkpt lat="49.30554" lon="6.16026">
        <ele>124.15</ele>
        <time>2021-07-22T18:47:21Z</time>
      </trkpt>
      <trkpt lat="49.30554" lon="6.16026">
        <ele>124.15</ele>
        <time>2021-07-22T18:47:22Z</time>
      </trkpt>
      <trkpt lat="49.30555" lon="6.16029">
        <ele>123.67</ele>
        <time>2021-07-22T18:47:35Z</time>
      </trkpt>
      <trkpt lat="49.30531" lon="6.16045">
        <ele>123.67</ele>
        <time>2021-07-22T18:47:43Z</time>
      </trkpt>
      <trkpt lat="49.30534" lon="6.16079">
        <ele>123.67</ele>
        <time>2021-07-22T18:47:45Z</time>
      </trkpt>
      <trkpt lat="49.30529" lon="6.16081">
        <ele>123.67</ele>
        <time>2021-07-22T18:47:46Z</time>
      </trkpt>
      <trkpt lat="49.30524" lon="6.16083">
        <ele>123.67</ele>
        <time>2021-07-22T18:47:47Z</time>
      </trkpt>
      <trkpt lat="49.30519" lon="6.16085">
        <ele>123.67</ele>
        <time>2021-07-22T18:47:48Z</time>
      </trkpt>
      <trkpt lat="49.30429" lon="6.16118">
        <ele>123.67</ele>
        <time>2021-07-22T18:48:00Z</time>
      </trkpt>
      <trkpt lat="49.30332" lon="6.16155">
        <ele>128.47</ele>
        <time>2021-07-22T18:48:13Z</time>
      </trkpt>
      <trkpt lat="49.30247" lon="6.16203">
        <ele>126.55</ele>
        <time>2021-07-22T18:48:25Z</time>
      </trkpt>
      <trkpt lat="49.30191" lon="6.1624">
        <ele>128.47</ele>
        <time>2021-07-22T18:48:38Z</time>
      </trkpt>
      <trkpt lat="49.30169" lon="6.16256">
        <ele>128.95</ele>
        <time>2021-07-22T18:48:46Z</time>
      </trkpt>
      <trkpt lat="49.30156" lon="6.1626">
        <ele>129.43</ele>
        <time>2021-07-22T18:49:41Z</time>
      </trkpt>
      <trkpt lat="49.30152" lon="6.16261">
        <ele>129.43</ele>
        <time>2021-07-22T18:49:42Z</time>
      </trkpt>
      <trkpt lat="49.30148" lon="6.16263">
        <ele>129.43</ele>
        <time>2021-07-22T18:49:43Z</time>
      </trkpt>
      <trkpt lat="49.30143" lon="6.16264">
        <ele>129.43</ele>
        <time>2021-07-22T18:49:44Z</time>
      </trkpt>
      <trkpt lat="49.3014" lon="6.16263">
        <ele>129.43</ele>
        <time>2021-07-22T18:49:45Z</time>
      </trkpt>
      <trkpt lat="49.30135" lon="6.1626">
        <ele>129.43</ele>
        <time>2021-07-22T18:49:46Z</time>
      </trkpt>
      <trkpt lat="49.30129" lon="6.16258">
        <ele>129.43</ele>
        <time>2021-07-22T18:49:47Z</time>
      </trkpt>
      <trkpt lat="49.30123" lon="6.16255">
        <ele>129.92</ele>
        <time>2021-07-22T18:49:48Z</time>
      </trkpt>
      <trkpt lat="49.30117" lon="6.16252">
        <ele>129.92</ele>
        <time>2021-07-22T18:49:49Z</time>
      </trkpt>
      <trkpt lat="49.30111" lon="6.16253">
        <ele>130.4</ele>
        <time>2021-07-22T18:49:50Z</time>
      </trkpt>
      <trkpt lat="49.30105" lon="6.16256">
        <ele>130.4</ele>
        <time>2021-07-22T18:49:51Z</time>
      </trkpt>
      <trkpt lat="49.30092" lon="6.1626">
        <ele>130.4</ele>
        <time>2021-07-22T18:49:52Z</time>
      </trkpt>
      <trkpt lat="49.29993" lon="6.16319">
        <ele>131.84</ele>
        <time>2021-07-22T18:50:05Z</time>
      </trkpt>
      <trkpt lat="49.29836" lon="6.16418">
        <ele>135.2</ele>
        <time>2021-07-22T18:50:21Z</time>
      </trkpt>
      <trkpt lat="49.29776" lon="6.16456">
        <ele>135.2</ele>
        <time>2021-07-22T18:50:29Z</time>
      </trkpt>
      <trkpt lat="49.29744" lon="6.16475">
        <ele>138.57</ele>
        <time>2021-07-22T18:50:37Z</time>
      </trkpt>
      <trkpt lat="49.29722" lon="6.16456">
        <ele>139.53</ele>
        <time>2021-07-22T18:50:55Z</time>
      </trkpt>
      <trkpt lat="49.29719" lon="6.16454">
        <ele>139.53</ele>
        <time>2021-07-22T18:50:56Z</time>
      </trkpt>
      <trkpt lat="49.29713" lon="6.16456">
        <ele>139.53</ele>
        <time>2021-07-22T18:50:57Z</time>
      </trkpt>
      <trkpt lat="49.29707" lon="6.16459">
        <ele>139.53</ele>
        <time>2021-07-22T18:50:58Z</time>
      </trkpt>
      <trkpt lat="49.29701" lon="6.16462">
        <ele>139.53</ele>
        <time>2021-07-22T18:50:59Z</time>
      </trkpt>
      <trkpt lat="49.297" lon="6.16468">
        <ele>139.53</ele>
        <time>2021-07-22T18:51:00Z</time>
      </trkpt>
      <trkpt lat="49.29698" lon="6.16479">
        <ele>140.01</ele>
        <time>2021-07-22T18:51:01Z</time>
      </trkpt>
      <trkpt lat="49.29696" lon="6.16488">
        <ele>140.01</ele>
        <time>2021-07-22T18:51:02Z</time>
      </trkpt>
      <trkpt lat="49.29691" lon="6.16512">
        <ele>140.49</ele>
        <time>2021-07-22T18:51:03Z</time>
      </trkpt>
      <trkpt lat="49.29684" lon="6.16519">
        <ele>140.49</ele>
        <time>2021-07-22T18:51:04Z</time>
      </trkpt>
      <trkpt lat="49.29676" lon="6.16526">
        <ele>140.49</ele>
        <time>2021-07-22T18:51:05Z</time>
      </trkpt>
      <trkpt lat="49.29668" lon="6.16532">
        <ele>140.49</ele>
        <time>2021-07-22T18:51:06Z</time>
      </trkpt>
      <trkpt lat="49.29569" lon="6.16615">
        <ele>143.37</ele>
        <time>2021-07-22T18:51:15Z</time>
      </trkpt>
      <trkpt lat="49.29445" lon="6.16691">
        <ele>149.62</ele>
        <time>2021-07-22T18:51:27Z</time>
      </trkpt>
      <trkpt lat="49.29242" lon="6.16752">
        <ele>148.66</ele>
        <time>2021-07-22T18:51:41Z</time>
      </trkpt>
      <trkpt lat="49.29" lon="6.16821">
        <ele>147.22</ele>
        <time>2021-07-22T18:51:55Z</time>
      </trkpt>
      <trkpt lat="49.28776" lon="6.1691">
        <ele>146.26</ele>
        <time>2021-07-22T18:52:07Z</time>
      </trkpt>
      <trkpt lat="49.28569" lon="6.16982">
        <ele>149.62</ele>
        <time>2021-07-22T18:52:19Z</time>
      </trkpt>
      <trkpt lat="49.28492" lon="6.16972">
        <ele>149.14</ele>
        <time>2021-07-22T18:52:26Z</time>
      </trkpt>
      <trkpt lat="49.28442" lon="6.16963">
        <ele>149.62</ele>
        <time>2021-07-22T18:52:34Z</time>
      </trkpt>
      <trkpt lat="49.28417" lon="6.16956">
        <ele>149.62</ele>
        <time>2021-07-22T18:52:44Z</time>
      </trkpt>
      <trkpt lat="49.28408" lon="6.16953">
        <ele>150.1</ele>
        <time>2021-07-22T18:52:47Z</time>
      </trkpt>
      <trkpt lat="49.28404" lon="6.16951">
        <ele>150.58</ele>
        <time>2021-07-22T18:52:48Z</time>
      </trkpt>
      <trkpt lat="49.284" lon="6.1695">
        <ele>150.58</ele>
        <time>2021-07-22T18:52:49Z</time>
      </trkpt>
      <trkpt lat="49.28398" lon="6.16935">
        <ele>151.06</ele>
        <time>2021-07-22T18:52:50Z</time>
      </trkpt>
      <trkpt lat="49.28396" lon="6.16928">
        <ele>151.06</ele>
        <time>2021-07-22T18:52:51Z</time>
      </trkpt>
      <trkpt lat="49.28393" lon="6.16922">
        <ele>151.54</ele>
        <time>2021-07-22T18:52:52Z</time>
      </trkpt>
      <trkpt lat="49.28385" lon="6.16918">
        <ele>151.54</ele>
        <time>2021-07-22T18:52:53Z</time>
      </trkpt>
      <trkpt lat="49.2838" lon="6.1692">
        <ele>151.54</ele>
        <time>2021-07-22T18:52:54Z</time>
      </trkpt>
      <trkpt lat="49.28375" lon="6.16921">
        <ele>151.54</ele>
        <time>2021-07-22T18:52:55Z</time>
      </trkpt>
      <trkpt lat="49.28372" lon="6.1693">
        <ele>151.54</ele>
        <time>2021-07-22T18:52:56Z</time>
      </trkpt>
      <trkpt lat="49.28364" lon="6.1694">
        <ele>152.03</ele>
        <time>2021-07-22T18:52:57Z</time>
      </trkpt>
      <trkpt lat="49.28357" lon="6.1694">
        <ele>152.03</ele>
        <time>2021-07-22T18:52:58Z</time>
      </trkpt>
      <trkpt lat="49.2835" lon="6.1694">
        <ele>152.03</ele>
        <time>2021-07-22T18:52:59Z</time>
      </trkpt>
      <trkpt lat="49.28342" lon="6.1694">
        <ele>152.51</ele>
        <time>2021-07-22T18:53:00Z</time>
      </trkpt>
      <trkpt lat="49.28333" lon="6.16939">
        <ele>152.51</ele>
        <time>2021-07-22T18:53:01Z</time>
      </trkpt>
      <trkpt lat="49.28208" lon="6.16913">
        <ele>152.99</ele>
        <time>2021-07-22T18:53:15Z</time>
      </trkpt>
      <trkpt lat="49.28048" lon="6.16891">
        <ele>150.1</ele>
        <time>2021-07-22T18:53:30Z</time>
      </trkpt>
      <trkpt lat="49.27957" lon="6.16912">
        <ele>150.58</ele>
        <time>2021-07-22T18:53:39Z</time>
      </trkpt>
      <trkpt lat="49.27879" lon="6.16952">
        <ele>151.54</ele>
        <time>2021-07-22T18:53:50Z</time>
      </trkpt>
      <trkpt lat="49.277" lon="6.17053">
        <ele>151.54</ele>
        <time>2021-07-22T18:54:08Z</time>
      </trkpt>
      <trkpt lat="49.27586" lon="6.17056">
        <ele>152.51</ele>
        <time>2021-07-22T18:54:17Z</time>
      </trkpt>
      <trkpt lat="49.27445" lon="6.17049">
        <ele>153.95</ele>
        <time>2021-07-22T18:54:31Z</time>
      </trkpt>
      <trkpt lat="49.27225" lon="6.17041">
        <ele>153.95</ele>
        <time>2021-07-22T18:54:48Z</time>
      </trkpt>
      <trkpt lat="49.27041" lon="6.17032">
        <ele>155.39</ele>
        <time>2021-07-22T18:55:02Z</time>
      </trkpt>
      <trkpt lat="49.26889" lon="6.17026">
        <ele>154.43</ele>
        <time>2021-07-22T18:55:15Z</time>
      </trkpt>
      <trkpt lat="49.26751" lon="6.17018">
        <ele>155.39</ele>
        <time>2021-07-22T18:55:27Z</time>
      </trkpt>
      <trkpt lat="49.2658" lon="6.1701">
        <ele>155.39</ele>
        <time>2021-07-22T18:55:41Z</time>
      </trkpt>
      <trkpt lat="49.26403" lon="6.17">
        <ele>157.31</ele>
        <time>2021-07-22T18:55:58Z</time>
      </trkpt>
      <trkpt lat="49.26338" lon="6.16998">
        <ele>157.31</ele>
        <time>2021-07-22T18:56:05Z</time>
      </trkpt>
      <trkpt lat="49.2633" lon="6.16998">
        <ele>156.83</ele>
        <time>2021-07-22T18:56:16Z</time>
      </trkpt>
      <trkpt lat="49.26307" lon="6.16998">
        <ele>156.83</ele>
        <time>2021-07-22T18:57:17Z</time>
      </trkpt>
      <trkpt lat="49.26227" lon="6.16996">
        <ele>157.31</ele>
        <time>2021-07-22T18:57:27Z</time>
      </trkpt>
      <trkpt lat="49.2621" lon="6.16995">
        <ele>156.83</ele>
        <time>2021-07-22T18:57:30Z</time>
      </trkpt>
      <trkpt lat="49.26205" lon="6.16995">
        <ele>156.83</ele>
        <time>2021-07-22T18:57:31Z</time>
      </trkpt>
      <trkpt lat="49.26201" lon="6.16995">
        <ele>156.83</ele>
        <time>2021-07-22T18:57:32Z</time>
      </trkpt>
      <trkpt lat="49.26198" lon="6.16995">
        <ele>156.83</ele>
        <time>2021-07-22T18:57:33Z</time>
      </trkpt>
      <trkpt lat="49.26189" lon="6.16979">
        <ele>156.83</ele>
        <time>2021-07-22T18:57:34Z</time>
      </trkpt>
      <trkpt lat="49.26189" lon="6.16973">
        <ele>156.83</ele>
        <time>2021-07-22T18:57:35Z</time>
      </trkpt>
      <trkpt lat="49.26188" lon="6.16967">
        <ele>156.83</ele>
        <time>2021-07-22T18:57:36Z</time>
      </trkpt>
      <trkpt lat="49.26187" lon="6.16955">
        <ele>156.83</ele>
        <time>2021-07-22T18:57:37Z</time>
      </trkpt>
      <trkpt lat="49.26187" lon="6.1695">
        <ele>156.83</ele>
        <time>2021-07-22T18:57:45Z</time>
      </trkpt>
      <trkpt lat="49.26183" lon="6.16908">
        <ele>156.83</ele>
        <time>2021-07-22T18:57:54Z</time>
      </trkpt>
      <trkpt lat="49.26171" lon="6.16765">
        <ele>159.24</ele>
        <time>2021-07-22T18:58:05Z</time>
      </trkpt>
      <trkpt lat="49.26156" lon="6.16577">
        <ele>162.6</ele>
        <time>2021-07-22T18:58:18Z</time>
      </trkpt>
      <trkpt lat="49.2613" lon="6.16384">
        <ele>160.68</ele>
        <time>2021-07-22T18:58:31Z</time>
      </trkpt>
      <trkpt lat="49.26083" lon="6.16203">
        <ele>162.12</ele>
        <time>2021-07-22T18:58:43Z</time>
      </trkpt>
      <trkpt lat="49.26013" lon="6.16066">
        <ele>159.24</ele>
        <time>2021-07-22T18:58:54Z</time>
      </trkpt>
      <trkpt lat="49.25964" lon="6.15973">
        <ele>157.79</ele>
        <time>2021-07-22T18:59:02Z</time>
      </trkpt>
      <trkpt lat="49.25945" lon="6.15948">
        <ele>157.79</ele>
        <time>2021-07-22T18:59:08Z</time>
      </trkpt>
      <trkpt lat="49.2594" lon="6.15943">
        <ele>158.27</ele>
        <time>2021-07-22T18:59:09Z</time>
      </trkpt>
      <trkpt lat="49.25935" lon="6.15938">
        <ele>158.27</ele>
        <time>2021-07-22T18:59:10Z</time>
      </trkpt>
      <trkpt lat="49.25934" lon="6.15925">
        <ele>158.27</ele>
        <time>2021-07-22T18:59:11Z</time>
      </trkpt>
      <trkpt lat="49.25931" lon="6.15907">
        <ele>158.27</ele>
        <time>2021-07-22T18:59:12Z</time>
      </trkpt>
      <trkpt lat="49.25931" lon="6.15907">
        <ele>158.27</ele>
        <time>2021-07-22T18:59:13Z</time>
      </trkpt>
      <trkpt lat="49.25929" lon="6.15902">
        <ele>158.27</ele>
        <time>2021-07-22T18:59:14Z</time>
      </trkpt>
      <trkpt lat="49.25931" lon="6.15895">
        <ele>158.27</ele>
        <time>2021-07-22T18:59:15Z</time>
      </trkpt>
      <trkpt lat="49.25934" lon="6.1589">
        <ele>158.27</ele>
        <time>2021-07-22T18:59:16Z</time>
      </trkpt>
      <trkpt lat="49.25936" lon="6.15884">
        <ele>158.27</ele>
        <time>2021-07-22T18:59:17Z</time>
      </trkpt>
      <trkpt lat="49.25939" lon="6.15878">
        <ele>158.27</ele>
        <time>2021-07-22T18:59:18Z</time>
      </trkpt>
      <trkpt lat="49.25944" lon="6.15874">
        <ele>157.79</ele>
        <time>2021-07-22T18:59:19Z</time>
      </trkpt>
      <trkpt lat="49.25949" lon="6.15868">
        <ele>157.79</ele>
        <time>2021-07-22T18:59:20Z</time>
      </trkpt>
      <trkpt lat="49.26035" lon="6.15792">
        <ele>155.87</ele>
        <time>2021-07-22T18:59:33Z</time>
      </trkpt>
      <trkpt lat="49.26165" lon="6.15693">
        <ele>152.51</ele>
        <time>2021-07-22T18:59:46Z</time>
      </trkpt>
      <trkpt lat="49.26218" lon="6.15652">
        <ele>150.1</ele>
        <time>2021-07-22T18:59:54Z</time>
      </trkpt>
      <trkpt lat="49.26224" lon="6.15644">
        <ele>149.62</ele>
        <time>2021-07-22T18:59:55Z</time>
      </trkpt>
      <trkpt lat="49.26237" lon="6.15628">
        <ele>149.62</ele>
        <time>2021-07-22T18:59:56Z</time>
      </trkpt>
      <trkpt lat="49.26237" lon="6.15628">
        <ele>149.62</ele>
        <time>2021-07-22T18:59:57Z</time>
      </trkpt>
      <trkpt lat="49.26239" lon="6.15618">
        <ele>149.14</ele>
        <time>2021-07-22T18:59:58Z</time>
      </trkpt>
      <trkpt lat="49.26242" lon="6.15607">
        <ele>150.58</ele>
        <time>2021-07-22T18:59:59Z</time>
      </trkpt>
      <trkpt lat="49.26244" lon="6.15598">
        <ele>150.58</ele>
        <time>2021-07-22T19:00:00Z</time>
      </trkpt>
      <trkpt lat="49.2625" lon="6.15571">
        <ele>152.03</ele>
        <time>2021-07-22T19:00:08Z</time>
      </trkpt>
      <trkpt lat="49.26263" lon="6.15503">
        <ele>153.47</ele>
        <time>2021-07-22T19:00:16Z</time>
      </trkpt>
      <trkpt lat="49.26289" lon="6.15315">
        <ele>154.91</ele>
        <time>2021-07-22T19:00:28Z</time>
      </trkpt>
      <trkpt lat="49.26287" lon="6.15235">
        <ele>154.91</ele>
        <time>2021-07-22T19:00:35Z</time>
      </trkpt>
      <trkpt lat="49.2628" lon="6.15191">
        <ele>154.91</ele>
        <time>2021-07-22T19:00:39Z</time>
      </trkpt>
      <trkpt lat="49.26278" lon="6.15178">
        <ele>154.43</ele>
        <time>2021-07-22T19:00:40Z</time>
      </trkpt>
      <trkpt lat="49.26261" lon="6.15001">
        <ele>154.43</ele>
        <time>2021-07-22T19:00:50Z</time>
      </trkpt>
      <trkpt lat="49.26236" lon="6.14822">
        <ele>155.39</ele>
        <time>2021-07-22T19:01:02Z</time>
      </trkpt>
      <trkpt lat="49.26226" lon="6.14741">
        <ele>155.39</ele>
        <time>2021-07-22T19:01:13Z</time>
      </trkpt>
      <trkpt lat="49.26204" lon="6.14579">
        <ele>155.39</ele>
        <time>2021-07-22T19:01:24Z</time>
      </trkpt>
      <trkpt lat="49.26192" lon="6.14488">
        <ele>155.87</ele>
        <time>2021-07-22T19:01:32Z</time>
      </trkpt>
      <trkpt lat="49.26182" lon="6.14415">
        <ele>155.39</ele>
        <time>2021-07-22T19:01:42Z</time>
      </trkpt>
      <trkpt lat="49.26158" lon="6.14243">
        <ele>154.91</ele>
        <time>2021-07-22T19:01:55Z</time>
      </trkpt>
      <trkpt lat="49.26156" lon="6.14224">
        <ele>155.39</ele>
        <time>2021-07-22T19:02:01Z</time>
      </trkpt>
      <trkpt lat="49.26156" lon="6.14224">
        <ele>155.87</ele>
        <time>2021-07-22T19:02:02Z</time>
      </trkpt>
      <trkpt lat="49.26151" lon="6.14224">
        <ele>155.87</ele>
        <time>2021-07-22T19:02:03Z</time>
      </trkpt>
      <trkpt lat="49.26147" lon="6.14225">
        <ele>156.35</ele>
        <time>2021-07-22T19:02:04Z</time>
      </trkpt>
      <trkpt lat="49.26138" lon="6.14226">
        <ele>156.35</ele>
        <time>2021-07-22T19:02:05Z</time>
      </trkpt>
      <trkpt lat="49.26138" lon="6.14226">
        <ele>156.83</ele>
        <time>2021-07-22T19:02:06Z</time>
      </trkpt>
      <trkpt lat="49.26081" lon="6.14232">
        <ele>157.31</ele>
        <time>2021-07-22T19:02:15Z</time>
      </trkpt>
      <trkpt lat="49.26029" lon="6.14236">
        <ele>157.79</ele>
        <time>2021-07-22T19:02:25Z</time>
      </trkpt>
      <trkpt lat="49.25979" lon="6.14241">
        <ele>158.27</ele>
        <time>2021-07-22T19:02:35Z</time>
      </trkpt>
      <trkpt lat="49.25937" lon="6.14246">
        <ele>158.27</ele>
        <time>2021-07-22T19:02:43Z</time>
      </trkpt>
      <trkpt lat="49.25848" lon="6.14257">
        <ele>159.24</ele>
        <time>2021-07-22T19:02:55Z</time>
      </trkpt>
      <trkpt lat="49.25742" lon="6.14269">
        <ele>158.75</ele>
        <time>2021-07-22T19:03:07Z</time>
      </trkpt>
      <trkpt lat="49.25688" lon="6.14274">
        <ele>158.75</ele>
        <time>2021-07-22T19:03:16Z</time>
      </trkpt>
      <trkpt lat="49.25589" lon="6.14284">
        <ele>158.75</ele>
        <time>2021-07-22T19:03:28Z</time>
      </trkpt>
      <trkpt lat="49.25535" lon="6.14289">
        <ele>158.75</ele>
        <time>2021-07-22T19:03:36Z</time>
      </trkpt>
      <trkpt lat="49.2547" lon="6.14296">
        <ele>158.75</ele>
        <time>2021-07-22T19:03:45Z</time>
      </trkpt>
      <trkpt lat="49.2547" lon="6.14296">
        <ele>158.75</ele>
        <time>2021-07-22T19:03:58Z</time>
      </trkpt>
      <trkpt lat="49.25463" lon="6.14297">
        <ele>158.75</ele>
        <time>2021-07-22T19:04:10Z</time>
      </trkpt>
      <trkpt lat="49.25444" lon="6.14281">
        <ele>158.75</ele>
        <time>2021-07-22T19:04:11Z</time>
      </trkpt>
      <trkpt lat="49.25444" lon="6.14281">
        <ele>158.75</ele>
        <time>2021-07-22T19:04:12Z</time>
      </trkpt>
      <trkpt lat="49.25444" lon="6.14275">
        <ele>158.75</ele>
        <time>2021-07-22T19:04:13Z</time>
      </trkpt>
      <trkpt lat="49.25446" lon="6.14266">
        <ele>158.75</ele>
        <time>2021-07-22T19:04:14Z</time>
      </trkpt>
      <trkpt lat="49.25447" lon="6.14241">
        <ele>158.75</ele>
        <time>2021-07-22T19:04:15Z</time>
      </trkpt>
      <trkpt lat="49.25459" lon="6.14071">
        <ele>159.24</ele>
        <time>2021-07-22T19:04:25Z</time>
      </trkpt>
      <trkpt lat="49.25485" lon="6.13701">
        <ele>159.24</ele>
        <time>2021-07-22T19:04:43Z</time>
      </trkpt>
      <trkpt lat="49.25481" lon="6.13597">
        <ele>160.2</ele>
        <time>2021-07-22T19:04:50Z</time>
      </trkpt>
      <trkpt lat="49.25487" lon="6.1358">
        <ele>160.2</ele>
        <time>2021-07-22T19:04:51Z</time>
      </trkpt>
      <trkpt lat="49.25496" lon="6.13559">
        <ele>160.68</ele>
        <time>2021-07-22T19:04:53Z</time>
      </trkpt>
      <trkpt lat="49.25497" lon="6.13545">
        <ele>160.68</ele>
        <time>2021-07-22T19:04:54Z</time>
      </trkpt>
      <trkpt lat="49.25497" lon="6.13533">
        <ele>160.68</ele>
        <time>2021-07-22T19:04:55Z</time>
      </trkpt>
      <trkpt lat="49.25493" lon="6.13521">
        <ele>160.68</ele>
        <time>2021-07-22T19:04:56Z</time>
      </trkpt>
      <trkpt lat="49.25488" lon="6.13511">
        <ele>160.68</ele>
        <time>2021-07-22T19:04:57Z</time>
      </trkpt>
      <trkpt lat="49.25483" lon="6.13503">
        <ele>161.16</ele>
        <time>2021-07-22T19:04:58Z</time>
      </trkpt>
      <trkpt lat="49.25476" lon="6.13494">
        <ele>161.16</ele>
        <time>2021-07-22T19:04:59Z</time>
      </trkpt>
      <trkpt lat="49.25468" lon="6.13493">
        <ele>161.16</ele>
        <time>2021-07-22T19:05:00Z</time>
      </trkpt>
      <trkpt lat="49.25459" lon="6.13492">
        <ele>161.16</ele>
        <time>2021-07-22T19:05:01Z</time>
      </trkpt>
      <trkpt lat="49.25452" lon="6.13495">
        <ele>160.68</ele>
        <time>2021-07-22T19:05:02Z</time>
      </trkpt>
      <trkpt lat="49.25443" lon="6.13501">
        <ele>160.2</ele>
        <time>2021-07-22T19:05:03Z</time>
      </trkpt>
      <trkpt lat="49.25441" lon="6.13503">
        <ele>159.24</ele>
        <time>2021-07-22T19:05:04Z</time>
      </trkpt>
      <trkpt lat="49.25423" lon="6.13519">
        <ele>158.75</ele>
        <time>2021-07-22T19:05:05Z</time>
      </trkpt>
      <trkpt lat="49.25414" lon="6.13514">
        <ele>159.24</ele>
        <time>2021-07-22T19:05:06Z</time>
      </trkpt>
      <trkpt lat="49.25403" lon="6.1351">
        <ele>159.72</ele>
        <time>2021-07-22T19:05:07Z</time>
      </trkpt>
      <trkpt lat="49.25392" lon="6.13507">
        <ele>159.72</ele>
        <time>2021-07-22T19:05:08Z</time>
      </trkpt>
      <trkpt lat="49.25379" lon="6.13511">
        <ele>159.72</ele>
        <time>2021-07-22T19:05:09Z</time>
      </trkpt>
      <trkpt lat="49.25365" lon="6.13515">
        <ele>159.24</ele>
        <time>2021-07-22T19:05:10Z</time>
      </trkpt>
      <trkpt lat="49.25349" lon="6.13519">
        <ele>158.75</ele>
        <time>2021-07-22T19:05:11Z</time>
      </trkpt>
      <trkpt lat="49.25319" lon="6.13532">
        <ele>158.75</ele>
        <time>2021-07-22T19:05:12Z</time>
      </trkpt>
      <trkpt lat="49.252" lon="6.13575">
        <ele>160.2</ele>
        <time>2021-07-22T19:05:20Z</time>
      </trkpt>
      <trkpt lat="49.25131" lon="6.13598">
        <ele>162.12</ele>
        <time>2021-07-22T19:05:24Z</time>
      </trkpt>
      <trkpt lat="49.25096" lon="6.13619">
        <ele>162.12</ele>
        <time>2021-07-22T19:05:25Z</time>
      </trkpt>
      <trkpt lat="49.25096" lon="6.13619">
        <ele>162.6</ele>
        <time>2021-07-22T19:05:26Z</time>
      </trkpt>
      <trkpt lat="49.25079" lon="6.13635">
        <ele>163.56</ele>
        <time>2021-07-22T19:05:27Z</time>
      </trkpt>
      <trkpt lat="49.25064" lon="6.13651">
        <ele>163.56</ele>
        <time>2021-07-22T19:05:28Z</time>
      </trkpt>
      <trkpt lat="49.2505" lon="6.13671">
        <ele>163.56</ele>
        <time>2021-07-22T19:05:29Z</time>
      </trkpt>
      <trkpt lat="49.25036" lon="6.13692">
        <ele>164.52</ele>
        <time>2021-07-22T19:05:30Z</time>
      </trkpt>
      <trkpt lat="49.25026" lon="6.13715">
        <ele>165</ele>
        <time>2021-07-22T19:05:31Z</time>
      </trkpt>
      <trkpt lat="49.25016" lon="6.1374">
        <ele>165.48</ele>
        <time>2021-07-22T19:05:32Z</time>
      </trkpt>
      <trkpt lat="49.25006" lon="6.13764">
        <ele>165.96</ele>
        <time>2021-07-22T19:05:33Z</time>
      </trkpt>
      <trkpt lat="49.24998" lon="6.13789">
        <ele>166.93</ele>
        <time>2021-07-22T19:05:34Z</time>
      </trkpt>
      <trkpt lat="49.24993" lon="6.13817">
        <ele>167.89</ele>
        <time>2021-07-22T19:05:35Z</time>
      </trkpt>
      <trkpt lat="49.24988" lon="6.13843">
        <ele>168.37</ele>
        <time>2021-07-22T19:05:36Z</time>
      </trkpt>
      <trkpt lat="49.24985" lon="6.1387">
        <ele>169.33</ele>
        <time>2021-07-22T19:05:37Z</time>
      </trkpt>
      <trkpt lat="49.24983" lon="6.13897">
        <ele>168.37</ele>
        <time>2021-07-22T19:05:38Z</time>
      </trkpt>
      <trkpt lat="49.24983" lon="6.14221">
        <ele>183.27</ele>
        <time>2021-07-22T19:05:51Z</time>
      </trkpt>
      <trkpt lat="49.24991" lon="6.14301">
        <ele>186.15</ele>
        <time>2021-07-22T19:05:55Z</time>
      </trkpt>
      <trkpt lat="49.24988" lon="6.14312">
        <ele>189.04</ele>
        <time>2021-07-22T19:05:56Z</time>
      </trkpt>
      <trkpt lat="49.24985" lon="6.14323">
        <ele>190</ele>
        <time>2021-07-22T19:05:57Z</time>
      </trkpt>
      <trkpt lat="49.24982" lon="6.14333">
        <ele>190.48</ele>
        <time>2021-07-22T19:05:58Z</time>
      </trkpt>
      <trkpt lat="49.24974" lon="6.14343">
        <ele>190.96</ele>
        <time>2021-07-22T19:05:59Z</time>
      </trkpt>
      <trkpt lat="49.24974" lon="6.14343">
        <ele>190.96</ele>
        <time>2021-07-22T19:06:00Z</time>
      </trkpt>
      <trkpt lat="49.24961" lon="6.14348">
        <ele>190.96</ele>
        <time>2021-07-22T19:06:01Z</time>
      </trkpt>
      <trkpt lat="49.24956" lon="6.14345">
        <ele>190</ele>
        <time>2021-07-22T19:06:02Z</time>
      </trkpt>
      <trkpt lat="49.24956" lon="6.14345">
        <ele>189.52</ele>
        <time>2021-07-22T19:06:03Z</time>
      </trkpt>
      <trkpt lat="49.24948" lon="6.14341">
        <ele>189.04</ele>
        <time>2021-07-22T19:06:04Z</time>
      </trkpt>
      <trkpt lat="49.24937" lon="6.14327">
        <ele>189.04</ele>
        <time>2021-07-22T19:06:05Z</time>
      </trkpt>
      <trkpt lat="49.24937" lon="6.14327">
        <ele>189.52</ele>
        <time>2021-07-22T19:06:06Z</time>
      </trkpt>
      <trkpt lat="49.24934" lon="6.14315">
        <ele>189.52</ele>
        <time>2021-07-22T19:06:07Z</time>
      </trkpt>
      <trkpt lat="49.24931" lon="6.14303">
        <ele>190.48</ele>
        <time>2021-07-22T19:06:08Z</time>
      </trkpt>
      <trkpt lat="49.24929" lon="6.1429">
        <ele>190.96</ele>
        <time>2021-07-22T19:06:09Z</time>
      </trkpt>
      <trkpt lat="49.24927" lon="6.14277">
        <ele>191.44</ele>
        <time>2021-07-22T19:06:10Z</time>
      </trkpt>
      <trkpt lat="49.24925" lon="6.14264">
        <ele>191.92</ele>
        <time>2021-07-22T19:06:11Z</time>
      </trkpt>
      <trkpt lat="49.24923" lon="6.14252">
        <ele>192.88</ele>
        <time>2021-07-22T19:06:12Z</time>
      </trkpt>
      <trkpt lat="49.24921" lon="6.14239">
        <ele>193.36</ele>
        <time>2021-07-22T19:06:13Z</time>
      </trkpt>
      <trkpt lat="49.24916" lon="6.14226">
        <ele>193.84</ele>
        <time>2021-07-22T19:06:14Z</time>
      </trkpt>
      <trkpt lat="49.24844" lon="6.14061">
        <ele>196.25</ele>
        <time>2021-07-22T19:06:25Z</time>
      </trkpt>
      <trkpt lat="49.24777" lon="6.1391">
        <ele>197.69</ele>
        <time>2021-07-22T19:06:35Z</time>
      </trkpt>
      <trkpt lat="49.24759" lon="6.1387">
        <ele>198.65</ele>
        <time>2021-07-22T19:06:42Z</time>
      </trkpt>
      <trkpt lat="49.2476" lon="6.13836">
        <ele>199.61</ele>
        <time>2021-07-22T19:06:50Z</time>
      </trkpt>
      <trkpt lat="49.24764" lon="6.13815">
        <ele>200.09</ele>
        <time>2021-07-22T19:06:54Z</time>
      </trkpt>
      <trkpt lat="49.24765" lon="6.13806">
        <ele>200.09</ele>
        <time>2021-07-22T19:06:55Z</time>
      </trkpt>
      <trkpt lat="49.24763" lon="6.13797">
        <ele>200.09</ele>
        <time>2021-07-22T19:06:56Z</time>
      </trkpt>
      <trkpt lat="49.24761" lon="6.13788">
        <ele>200.09</ele>
        <time>2021-07-22T19:06:57Z</time>
      </trkpt>
      <trkpt lat="49.24757" lon="6.13779">
        <ele>200.09</ele>
        <time>2021-07-22T19:06:58Z</time>
      </trkpt>
      <trkpt lat="49.2473" lon="6.13712">
        <ele>201.05</ele>
        <time>2021-07-22T19:07:04Z</time>
      </trkpt>
      <trkpt lat="49.2473" lon="6.13712">
        <ele>201.05</ele>
        <time>2021-07-22T19:07:05Z</time>
      </trkpt>
      <trkpt lat="49.24728" lon="6.13701">
        <ele>201.05</ele>
        <time>2021-07-22T19:07:06Z</time>
      </trkpt>
      <trkpt lat="49.24726" lon="6.13691">
        <ele>201.53</ele>
        <time>2021-07-22T19:07:07Z</time>
      </trkpt>
      <trkpt lat="49.24726" lon="6.1367">
        <ele>201.53</ele>
        <time>2021-07-22T19:07:08Z</time>
      </trkpt>
      <trkpt lat="49.24726" lon="6.1367">
        <ele>201.53</ele>
        <time>2021-07-22T19:07:09Z</time>
      </trkpt>
      <trkpt lat="49.24728" lon="6.1366">
        <ele>201.53</ele>
        <time>2021-07-22T19:07:10Z</time>
      </trkpt>
      <trkpt lat="49.24747" lon="6.13525">
        <ele>201.53</ele>
        <time>2021-07-22T19:07:19Z</time>
      </trkpt>
      <trkpt lat="49.24749" lon="6.13508">
        <ele>201.53</ele>
        <time>2021-07-22T19:07:20Z</time>
      </trkpt>
      <trkpt lat="49.2475" lon="6.13491">
        <ele>201.53</ele>
        <time>2021-07-22T19:07:21Z</time>
      </trkpt>
      <trkpt lat="49.24747" lon="6.13458">
        <ele>201.53</ele>
        <time>2021-07-22T19:07:23Z</time>
      </trkpt>
      <trkpt lat="49.24746" lon="6.13451">
        <ele>201.53</ele>
        <time>2021-07-22T19:07:24Z</time>
      </trkpt>
      <trkpt lat="49.24745" lon="6.13446">
        <ele>201.53</ele>
        <time>2021-07-22T19:07:25Z</time>
      </trkpt>
      <trkpt lat="49.24744" lon="6.13439">
        <ele>201.53</ele>
        <time>2021-07-22T19:07:27Z</time>
      </trkpt>
      <trkpt lat="49.24739" lon="6.13422">
        <ele>202.01</ele>
        <time>2021-07-22T19:07:28Z</time>
      </trkpt>
      <trkpt lat="49.24739" lon="6.13422">
        <ele>202.01</ele>
        <time>2021-07-22T19:07:29Z</time>
      </trkpt>
      <trkpt lat="49.24736" lon="6.13412">
        <ele>201.53</ele>
        <time>2021-07-22T19:07:30Z</time>
      </trkpt>
      <trkpt lat="49.24731" lon="6.13403">
        <ele>201.53</ele>
        <time>2021-07-22T19:07:31Z</time>
      </trkpt>
      <trkpt lat="49.24683" lon="6.13295">
        <ele>201.05</ele>
        <time>2021-07-22T19:07:39Z</time>
      </trkpt>
      <trkpt lat="49.24654" lon="6.13217">
        <ele>201.53</ele>
        <time>2021-07-22T19:07:46Z</time>
      </trkpt>
      <trkpt lat="49.24651" lon="6.13209">
        <ele>202.49</ele>
        <time>2021-07-22T19:07:48Z</time>
      </trkpt>
      <trkpt lat="49.24647" lon="6.132">
        <ele>202.49</ele>
        <time>2021-07-22T19:07:49Z</time>
      </trkpt>
      <trkpt lat="49.24647" lon="6.132">
        <ele>202.01</ele>
        <time>2021-07-22T19:07:50Z</time>
      </trkpt>
      <trkpt lat="49.24642" lon="6.13191">
        <ele>202.01</ele>
        <time>2021-07-22T19:07:51Z</time>
      </trkpt>
      <trkpt lat="49.24642" lon="6.13191">
        <ele>202.49</ele>
        <time>2021-07-22T19:07:52Z</time>
      </trkpt>
      <trkpt lat="49.24639" lon="6.13187">
        <ele>202.49</ele>
        <time>2021-07-22T19:07:53Z</time>
      </trkpt>
      <trkpt lat="49.24637" lon="6.13183">
        <ele>202.98</ele>
        <time>2021-07-22T19:07:54Z</time>
      </trkpt>
      <trkpt lat="49.24635" lon="6.13182">
        <ele>203.46</ele>
        <time>2021-07-22T19:07:55Z</time>
      </trkpt>
      <trkpt lat="49.24631" lon="6.13179">
        <ele>203.94</ele>
        <time>2021-07-22T19:07:56Z</time>
      </trkpt>
      <trkpt lat="49.24617" lon="6.13168">
        <ele>204.42</ele>
        <time>2021-07-22T19:07:57Z</time>
      </trkpt>
      <trkpt lat="49.24566" lon="6.13195">
        <ele>208.74</ele>
        <time>2021-07-22T19:08:05Z</time>
      </trkpt>
      <trkpt lat="49.24545" lon="6.13191">
        <ele>210.67</ele>
        <time>2021-07-22T19:08:08Z</time>
      </trkpt>
      <trkpt lat="49.24539" lon="6.1319">
        <ele>210.67</ele>
        <time>2021-07-22T19:08:09Z</time>
      </trkpt>
      <trkpt lat="49.24534" lon="6.13188">
        <ele>211.15</ele>
        <time>2021-07-22T19:08:10Z</time>
      </trkpt>
      <trkpt lat="49.24531" lon="6.13186">
        <ele>211.63</ele>
        <time>2021-07-22T19:08:11Z</time>
      </trkpt>
      <trkpt lat="49.24529" lon="6.13182">
        <ele>211.63</ele>
        <time>2021-07-22T19:08:12Z</time>
      </trkpt>
      <trkpt lat="49.24526" lon="6.13176">
        <ele>212.11</ele>
        <time>2021-07-22T19:08:13Z</time>
      </trkpt>
      <trkpt lat="49.24523" lon="6.13171">
        <ele>212.11</ele>
        <time>2021-07-22T19:08:14Z</time>
      </trkpt>
      <trkpt lat="49.24519" lon="6.13163">
        <ele>212.59</ele>
        <time>2021-07-22T19:08:15Z</time>
      </trkpt>
      <trkpt lat="49.24515" lon="6.13155">
        <ele>212.59</ele>
        <time>2021-07-22T19:08:16Z</time>
      </trkpt>
      <trkpt lat="49.24489" lon="6.13097">
        <ele>214.03</ele>
        <time>2021-07-22T19:08:21Z</time>
      </trkpt>
      <trkpt lat="49.24484" lon="6.13084">
        <ele>214.51</ele>
        <time>2021-07-22T19:08:22Z</time>
      </trkpt>
      <trkpt lat="49.24479" lon="6.13072">
        <ele>214.99</ele>
        <time>2021-07-22T19:08:23Z</time>
      </trkpt>
      <trkpt lat="49.24468" lon="6.13054">
        <ele>214.99</ele>
        <time>2021-07-22T19:08:24Z</time>
      </trkpt>
      <trkpt lat="49.24462" lon="6.13047">
        <ele>214.99</ele>
        <time>2021-07-22T19:08:25Z</time>
      </trkpt>
      <trkpt lat="49.24418" lon="6.12971">
        <ele>212.59</ele>
        <time>2021-07-22T19:08:33Z</time>
      </trkpt>
      <trkpt lat="49.24398" lon="6.12923">
        <ele>213.07</ele>
        <time>2021-07-22T19:08:36Z</time>
      </trkpt>
      <trkpt lat="49.24389" lon="6.12848">
        <ele>215.95</ele>
        <time>2021-07-22T19:08:41Z</time>
      </trkpt>
      <trkpt lat="49.24388" lon="6.1284">
        <ele>216.43</ele>
        <time>2021-07-22T19:08:42Z</time>
      </trkpt>
      <trkpt lat="49.24388" lon="6.12836">
        <ele>216.91</ele>
        <time>2021-07-22T19:08:43Z</time>
      </trkpt>
      <trkpt lat="49.24396" lon="6.12822">
        <ele>216.91</ele>
        <time>2021-07-22T19:08:44Z</time>
      </trkpt>
      <trkpt lat="49.24396" lon="6.12822">
        <ele>216.91</ele>
        <time>2021-07-22T19:08:45Z</time>
      </trkpt>
      <trkpt lat="49.24405" lon="6.12804">
        <ele>215.95</ele>
        <time>2021-07-22T19:08:47Z</time>
      </trkpt>
      <trkpt lat="49.24421" lon="6.12767">
        <ele>220.76</ele>
        <time>2021-07-22T19:08:50Z</time>
      </trkpt>
      <trkpt lat="49.24426" lon="6.12754">
        <ele>221.24</ele>
        <time>2021-07-22T19:08:51Z</time>
      </trkpt>
      <trkpt lat="49.24432" lon="6.12743">
        <ele>222.2</ele>
        <time>2021-07-22T19:08:52Z</time>
      </trkpt>
      <trkpt lat="49.24449" lon="6.1272">
        <ele>223.16</ele>
        <time>2021-07-22T19:08:54Z</time>
      </trkpt>
      <trkpt lat="49.2445" lon="6.12713">
        <ele>224.12</ele>
        <time>2021-07-22T19:08:55Z</time>
      </trkpt>
      <trkpt lat="49.24448" lon="6.12712">
        <ele>225.09</ele>
        <time>2021-07-22T19:08:56Z</time>
      </trkpt>
      <trkpt lat="49.24448" lon="6.12712">
        <ele>226.05</ele>
        <time>2021-07-22T19:08:57Z</time>
      </trkpt>
      <trkpt lat="49.24444" lon="6.12709">
        <ele>227.01</ele>
        <time>2021-07-22T19:08:58Z</time>
      </trkpt>
      <trkpt lat="49.24438" lon="6.12709">
        <ele>227.97</ele>
        <time>2021-07-22T19:08:59Z</time>
      </trkpt>
      <trkpt lat="49.24386" lon="6.12711">
        <ele>233.74</ele>
        <time>2021-07-22T19:09:06Z</time>
      </trkpt>
      <trkpt lat="49.24379" lon="6.12711">
        <ele>234.7</ele>
        <time>2021-07-22T19:09:07Z</time>
      </trkpt>
      <trkpt lat="49.24372" lon="6.12711">
        <ele>235.18</ele>
        <time>2021-07-22T19:09:08Z</time>
      </trkpt>
      <trkpt lat="49.24368" lon="6.12703">
        <ele>235.66</ele>
        <time>2021-07-22T19:09:09Z</time>
      </trkpt>
      <trkpt lat="49.24365" lon="6.12694">
        <ele>236.62</ele>
        <time>2021-07-22T19:09:10Z</time>
      </trkpt>
      <trkpt lat="49.24363" lon="6.12685">
        <ele>237.58</ele>
        <time>2021-07-22T19:09:11Z</time>
      </trkpt>
      <trkpt lat="49.24363" lon="6.12675">
        <ele>238.54</ele>
        <time>2021-07-22T19:09:12Z</time>
      </trkpt>
      <trkpt lat="49.24365" lon="6.12641">
        <ele>241.43</ele>
        <time>2021-07-22T19:09:15Z</time>
      </trkpt>
      <trkpt lat="49.24366" lon="6.12629">
        <ele>242.39</ele>
        <time>2021-07-22T19:09:16Z</time>
      </trkpt>
      <trkpt lat="49.24369" lon="6.12621">
        <ele>243.35</ele>
        <time>2021-07-22T19:09:17Z</time>
      </trkpt>
      <trkpt lat="49.24374" lon="6.12613">
        <ele>244.31</ele>
        <time>2021-07-22T19:09:18Z</time>
      </trkpt>
      <trkpt lat="49.24379" lon="6.12606">
        <ele>244.79</ele>
        <time>2021-07-22T19:09:19Z</time>
      </trkpt>
      <trkpt lat="49.24384" lon="6.12598">
        <ele>245.27</ele>
        <time>2021-07-22T19:09:20Z</time>
      </trkpt>
      <trkpt lat="49.24452" lon="6.12508">
        <ele>245.27</ele>
        <time>2021-07-22T19:09:30Z</time>
      </trkpt>
      <trkpt lat="49.24471" lon="6.12496">
        <ele>246.72</ele>
        <time>2021-07-22T19:09:38Z</time>
      </trkpt>
      <trkpt lat="49.24488" lon="6.12497">
        <ele>246.72</ele>
        <time>2021-07-22T19:09:50Z</time>
      </trkpt>
      <trkpt lat="49.24492" lon="6.12499">
        <ele>246.23</ele>
        <time>2021-07-22T19:09:52Z</time>
      </trkpt>
      <trkpt lat="49.24497" lon="6.12501">
        <ele>245.75</ele>
        <time>2021-07-22T19:09:53Z</time>
      </trkpt>
      <trkpt lat="49.24501" lon="6.12503">
        <ele>244.31</ele>
        <time>2021-07-22T19:09:54Z</time>
      </trkpt>
      <trkpt lat="49.24506" lon="6.12505">
        <ele>243.35</ele>
        <time>2021-07-22T19:09:55Z</time>
      </trkpt>
      <trkpt lat="49.24511" lon="6.12508">
        <ele>242.39</ele>
        <time>2021-07-22T19:09:56Z</time>
      </trkpt>
      <trkpt lat="49.24529" lon="6.12516">
        <ele>239.99</ele>
        <time>2021-07-22T19:09:59Z</time>
      </trkpt>
      <trkpt lat="49.24535" lon="6.12519">
        <ele>239.51</ele>
        <time>2021-07-22T19:10:00Z</time>
      </trkpt>
      <trkpt lat="49.24541" lon="6.12522">
        <ele>238.54</ele>
        <time>2021-07-22T19:10:01Z</time>
      </trkpt>
      <trkpt lat="49.24545" lon="6.1252">
        <ele>237.58</ele>
        <time>2021-07-22T19:10:02Z</time>
      </trkpt>
      <trkpt lat="49.24553" lon="6.12508">
        <ele>236.62</ele>
        <time>2021-07-22T19:10:03Z</time>
      </trkpt>
      <trkpt lat="49.24553" lon="6.12508">
        <ele>237.58</ele>
        <time>2021-07-22T19:10:04Z</time>
      </trkpt>
      <trkpt lat="49.24554" lon="6.125">
        <ele>237.58</ele>
        <time>2021-07-22T19:10:05Z</time>
      </trkpt>
      <trkpt lat="49.24549" lon="6.12486">
        <ele>237.1</ele>
        <time>2021-07-22T19:10:06Z</time>
      </trkpt>
      <trkpt lat="49.24549" lon="6.12486">
        <ele>237.1</ele>
        <time>2021-07-22T19:10:07Z</time>
      </trkpt>
      <trkpt lat="49.24545" lon="6.12481">
        <ele>237.1</ele>
        <time>2021-07-22T19:10:08Z</time>
      </trkpt>
      <trkpt lat="49.2454" lon="6.12478">
        <ele>237.1</ele>
        <time>2021-07-22T19:10:09Z</time>
      </trkpt>
      <trkpt lat="49.24516" lon="6.12463">
        <ele>237.58</ele>
        <time>2021-07-22T19:10:13Z</time>
      </trkpt>
      <trkpt lat="49.24497" lon="6.12447">
        <ele>237.1</ele>
        <time>2021-07-22T19:10:16Z</time>
      </trkpt>
      <trkpt lat="49.24491" lon="6.12442">
        <ele>237.1</ele>
        <time>2021-07-22T19:10:17Z</time>
      </trkpt>
      <trkpt lat="49.24484" lon="6.12438">
        <ele>237.1</ele>
        <time>2021-07-22T19:10:18Z</time>
      </trkpt>
      <trkpt lat="49.24477" lon="6.12438">
        <ele>237.1</ele>
        <time>2021-07-22T19:10:19Z</time>
      </trkpt>
      <trkpt lat="49.2447" lon="6.12437">
        <ele>237.1</ele>
        <time>2021-07-22T19:10:20Z</time>
      </trkpt>
      <trkpt lat="49.24457" lon="6.1244">
        <ele>236.62</ele>
        <time>2021-07-22T19:10:21Z</time>
      </trkpt>
      <trkpt lat="49.24457" lon="6.1244">
        <ele>236.62</ele>
        <time>2021-07-22T19:10:22Z</time>
      </trkpt>
      <trkpt lat="49.24451" lon="6.12444">
        <ele>236.14</ele>
        <time>2021-07-22T19:10:23Z</time>
      </trkpt>
      <trkpt lat="49.24447" lon="6.12448">
        <ele>236.14</ele>
        <time>2021-07-22T19:10:24Z</time>
      </trkpt>
      <trkpt lat="49.24442" lon="6.12452">
        <ele>235.66</ele>
        <time>2021-07-22T19:10:25Z</time>
      </trkpt>
      <trkpt lat="49.24437" lon="6.12456">
        <ele>235.66</ele>
        <time>2021-07-22T19:10:26Z</time>
      </trkpt>
      <trkpt lat="49.24432" lon="6.1246">
        <ele>235.18</ele>
        <time>2021-07-22T19:10:27Z</time>
      </trkpt>
      <trkpt lat="49.24419" lon="6.12471">
        <ele>235.18</ele>
        <time>2021-07-22T19:10:34Z</time>
      </trkpt>
      <trkpt lat="49.24419" lon="6.12471">
        <ele>235.66</ele>
        <time>2021-07-22T19:11:12Z</time>
      </trkpt>
      <trkpt lat="49.24419" lon="6.12471">
        <ele>236.62</ele>
        <time>2021-07-22T19:11:30Z</time>
      </trkpt>
      <trkpt lat="49.24419" lon="6.12471">
        <ele>236.62</ele>
        <time>2021-07-22T19:11:46Z</time>
      </trkpt>
      <trkpt lat="49.24419" lon="6.12471">
        <ele>236.62</ele>
        <time>2021-07-22T19:11:48Z</time>
      </trkpt>
      <trkpt lat="49.24443" lon="6.12451">
        <ele>236.62</ele>
        <time>2021-07-22T19:11:49Z</time>
      </trkpt>
      <trkpt lat="49.24445" lon="6.12449">
        <ele>236.62</ele>
        <time>2021-07-22T19:11:50Z</time>
      </trkpt>
      <trkpt lat="49.24466" lon="6.12437">
        <ele>236.62</ele>
        <time>2021-07-22T19:11:54Z</time>
      </trkpt>
      <trkpt lat="49.24471" lon="6.12437">
        <ele>236.62</ele>
        <time>2021-07-22T19:11:55Z</time>
      </trkpt>
      <trkpt lat="49.24478" lon="6.12438">
        <ele>236.62</ele>
        <time>2021-07-22T19:11:56Z</time>
      </trkpt>
      <trkpt lat="49.24485" lon="6.12438">
        <ele>236.14</ele>
        <time>2021-07-22T19:11:57Z</time>
      </trkpt>
      <trkpt lat="49.24493" lon="6.12444">
        <ele>236.62</ele>
        <time>2021-07-22T19:11:58Z</time>
      </trkpt>
      <trkpt lat="49.245" lon="6.1245">
        <ele>236.62</ele>
        <time>2021-07-22T19:11:59Z</time>
      </trkpt>
      <trkpt lat="49.24537" lon="6.12476">
        <ele>236.62</ele>
        <time>2021-07-22T19:12:04Z</time>
      </trkpt>
      <trkpt lat="49.24543" lon="6.1248">
        <ele>236.62</ele>
        <time>2021-07-22T19:12:05Z</time>
      </trkpt>
      <trkpt lat="49.24548" lon="6.12483">
        <ele>236.62</ele>
        <time>2021-07-22T19:12:06Z</time>
      </trkpt>
      <trkpt lat="49.24553" lon="6.12496">
        <ele>236.62</ele>
        <time>2021-07-22T19:12:07Z</time>
      </trkpt>
      <trkpt lat="49.24553" lon="6.1251">
        <ele>236.62</ele>
        <time>2021-07-22T19:12:08Z</time>
      </trkpt>
      <trkpt lat="49.24553" lon="6.1251">
        <ele>236.14</ele>
        <time>2021-07-22T19:12:09Z</time>
      </trkpt>
      <trkpt lat="49.24547" lon="6.12519">
        <ele>235.66</ele>
        <time>2021-07-22T19:12:10Z</time>
      </trkpt>
      <trkpt lat="49.24542" lon="6.12522">
        <ele>235.66</ele>
        <time>2021-07-22T19:12:11Z</time>
      </trkpt>
      <trkpt lat="49.24535" lon="6.12519">
        <ele>236.14</ele>
        <time>2021-07-22T19:12:12Z</time>
      </trkpt>
      <trkpt lat="49.24529" lon="6.12516">
        <ele>236.62</ele>
        <time>2021-07-22T19:12:13Z</time>
      </trkpt>
      <trkpt lat="49.24524" lon="6.12514">
        <ele>239.02</ele>
        <time>2021-07-22T19:12:14Z</time>
      </trkpt>
      <trkpt lat="49.24501" lon="6.12503">
        <ele>243.35</ele>
        <time>2021-07-22T19:12:18Z</time>
      </trkpt>
      <trkpt lat="49.24495" lon="6.125">
        <ele>244.79</ele>
        <time>2021-07-22T19:12:19Z</time>
      </trkpt>
      <trkpt lat="49.24489" lon="6.12497">
        <ele>245.75</ele>
        <time>2021-07-22T19:12:20Z</time>
      </trkpt>
      <trkpt lat="49.24482" lon="6.12494">
        <ele>246.23</ele>
        <time>2021-07-22T19:12:21Z</time>
      </trkpt>
      <trkpt lat="49.24477" lon="6.12493">
        <ele>247.2</ele>
        <time>2021-07-22T19:12:22Z</time>
      </trkpt>
      <trkpt lat="49.24471" lon="6.12496">
        <ele>247.2</ele>
        <time>2021-07-22T19:12:23Z</time>
      </trkpt>
      <trkpt lat="49.24465" lon="6.125">
        <ele>247.68</ele>
        <time>2021-07-22T19:12:24Z</time>
      </trkpt>
      <trkpt lat="49.24451" lon="6.12508">
        <ele>247.2</ele>
        <time>2021-07-22T19:12:25Z</time>
      </trkpt>
      <trkpt lat="49.24445" lon="6.12516">
        <ele>247.2</ele>
        <time>2021-07-22T19:12:26Z</time>
      </trkpt>
      <trkpt lat="49.2438" lon="6.12604">
        <ele>240.95</ele>
        <time>2021-07-22T19:12:37Z</time>
      </trkpt>
      <trkpt lat="49.2437" lon="6.12619">
        <ele>239.02</ele>
        <time>2021-07-22T19:12:41Z</time>
      </trkpt>
      <trkpt lat="49.24368" lon="6.12623">
        <ele>238.54</ele>
        <time>2021-07-22T19:12:42Z</time>
      </trkpt>
      <trkpt lat="49.24366" lon="6.12631">
        <ele>237.58</ele>
        <time>2021-07-22T19:12:43Z</time>
      </trkpt>
      <trkpt lat="49.24365" lon="6.12639">
        <ele>237.1</ele>
        <time>2021-07-22T19:12:44Z</time>
      </trkpt>
      <trkpt lat="49.24365" lon="6.12648">
        <ele>236.14</ele>
        <time>2021-07-22T19:12:45Z</time>
      </trkpt>
      <trkpt lat="49.24364" lon="6.12688">
        <ele>233.74</ele>
        <time>2021-07-22T19:12:48Z</time>
      </trkpt>
      <trkpt lat="49.24364" lon="6.12688">
        <ele>232.78</ele>
        <time>2021-07-22T19:12:49Z</time>
      </trkpt>
      <trkpt lat="49.24366" lon="6.12695">
        <ele>232.3</ele>
        <time>2021-07-22T19:12:50Z</time>
      </trkpt>
      <trkpt lat="49.24368" lon="6.12702">
        <ele>231.33</ele>
        <time>2021-07-22T19:12:51Z</time>
      </trkpt>
      <trkpt lat="49.2437" lon="6.12709">
        <ele>231.33</ele>
        <time>2021-07-22T19:12:52Z</time>
      </trkpt>
      <trkpt lat="49.24376" lon="6.12711">
        <ele>231.33</ele>
        <time>2021-07-22T19:12:53Z</time>
      </trkpt>
      <trkpt lat="49.24382" lon="6.12711">
        <ele>230.85</ele>
        <time>2021-07-22T19:12:54Z</time>
      </trkpt>
      <trkpt lat="49.24389" lon="6.1271">
        <ele>230.37</ele>
        <time>2021-07-22T19:12:55Z</time>
      </trkpt>
      <trkpt lat="49.24448" lon="6.12712">
        <ele>222.68</ele>
        <time>2021-07-22T19:13:05Z</time>
      </trkpt>
      <trkpt lat="49.2445" lon="6.12713">
        <ele>222.68</ele>
        <time>2021-07-22T19:13:06Z</time>
      </trkpt>
      <trkpt lat="49.2445" lon="6.12713">
        <ele>222.2</ele>
        <time>2021-07-22T19:13:07Z</time>
      </trkpt>
      <trkpt lat="49.24449" lon="6.12717">
        <ele>222.2</ele>
        <time>2021-07-22T19:13:08Z</time>
      </trkpt>
      <trkpt lat="49.24449" lon="6.12717">
        <ele>221.72</ele>
        <time>2021-07-22T19:13:09Z</time>
      </trkpt>
      <trkpt lat="49.24446" lon="6.12726">
        <ele>221.72</ele>
        <time>2021-07-22T19:13:10Z</time>
      </trkpt>
      <trkpt lat="49.24446" lon="6.12726">
        <ele>221.72</ele>
        <time>2021-07-22T19:13:11Z</time>
      </trkpt>
      <trkpt lat="49.24442" lon="6.12731">
        <ele>221.24</ele>
        <time>2021-07-22T19:13:12Z</time>
      </trkpt>
      <trkpt lat="49.24428" lon="6.12749">
        <ele>218.36</ele>
        <time>2021-07-22T19:13:14Z</time>
      </trkpt>
      <trkpt lat="49.24424" lon="6.1276">
        <ele>217.88</ele>
        <time>2021-07-22T19:13:15Z</time>
      </trkpt>
      <trkpt lat="49.24424" lon="6.1276">
        <ele>216.91</ele>
        <time>2021-07-22T19:13:16Z</time>
      </trkpt>
      <trkpt lat="49.24415" lon="6.12783">
        <ele>215.95</ele>
        <time>2021-07-22T19:13:18Z</time>
      </trkpt>
      <trkpt lat="49.24409" lon="6.12795">
        <ele>214.99</ele>
        <time>2021-07-22T19:13:19Z</time>
      </trkpt>
      <trkpt lat="49.24404" lon="6.12806">
        <ele>214.03</ele>
        <time>2021-07-22T19:13:20Z</time>
      </trkpt>
      <trkpt lat="49.24395" lon="6.12823">
        <ele>213.07</ele>
        <time>2021-07-22T19:13:22Z</time>
      </trkpt>
      <trkpt lat="49.24392" lon="6.12829">
        <ele>212.59</ele>
        <time>2021-07-22T19:13:23Z</time>
      </trkpt>
      <trkpt lat="49.24389" lon="6.12835">
        <ele>212.11</ele>
        <time>2021-07-22T19:13:24Z</time>
      </trkpt>
      <trkpt lat="49.24388" lon="6.12841">
        <ele>211.15</ele>
        <time>2021-07-22T19:13:25Z</time>
      </trkpt>
      <trkpt lat="49.24389" lon="6.12849">
        <ele>210.19</ele>
        <time>2021-07-22T19:13:26Z</time>
      </trkpt>
      <trkpt lat="49.2439" lon="6.12859">
        <ele>209.22</ele>
        <time>2021-07-22T19:13:27Z</time>
      </trkpt>
      <trkpt lat="49.24391" lon="6.12869">
        <ele>208.26</ele>
        <time>2021-07-22T19:13:28Z</time>
      </trkpt>
      <trkpt lat="49.24393" lon="6.12881">
        <ele>207.78</ele>
        <time>2021-07-22T19:13:29Z</time>
      </trkpt>
      <trkpt lat="49.24397" lon="6.12922">
        <ele>205.86</ele>
        <time>2021-07-22T19:13:31Z</time>
      </trkpt>
      <trkpt lat="49.24403" lon="6.12941">
        <ele>204.42</ele>
        <time>2021-07-22T19:13:33Z</time>
      </trkpt>
      <trkpt lat="49.24441" lon="6.13019">
        <ele>203.94</ele>
        <time>2021-07-22T19:13:41Z</time>
      </trkpt>
      <trkpt lat="49.24441" lon="6.13019">
        <ele>205.38</ele>
        <time>2021-07-22T19:13:43Z</time>
      </trkpt>
      <trkpt lat="49.24442" lon="6.13021">
        <ele>205.86</ele>
        <time>2021-07-22T19:13:44Z</time>
      </trkpt>
      <trkpt lat="49.24443" lon="6.13023">
        <ele>206.34</ele>
        <time>2021-07-22T19:13:45Z</time>
      </trkpt>
      <trkpt lat="49.24441" lon="6.13031">
        <ele>206.34</ele>
        <time>2021-07-22T19:13:46Z</time>
      </trkpt>
      <trkpt lat="49.24438" lon="6.13033">
        <ele>205.86</ele>
        <time>2021-07-22T19:13:47Z</time>
      </trkpt>
      <trkpt lat="49.24434" lon="6.13036">
        <ele>205.86</ele>
        <time>2021-07-22T19:13:48Z</time>
      </trkpt>
      <trkpt lat="49.24412" lon="6.13044">
        <ele>206.82</ele>
        <time>2021-07-22T19:13:57Z</time>
      </trkpt>
      <trkpt lat="49.24412" lon="6.13044">
        <ele>206.82</ele>
        <time>2021-07-22T19:13:58Z</time>
      </trkpt>
      <trkpt lat="49.2441" lon="6.1304">
        <ele>206.82</ele>
        <time>2021-07-22T19:13:59Z</time>
      </trkpt>
      <trkpt lat="49.24409" lon="6.13037">
        <ele>207.3</ele>
        <time>2021-07-22T19:14:00Z</time>
      </trkpt>
      <trkpt lat="49.24376" lon="6.12966">
        <ele>209.22</ele>
        <time>2021-07-22T19:14:10Z</time>
      </trkpt>
      <trkpt lat="49.24323" lon="6.12842">
        <ele>213.55</ele>
        <time>2021-07-22T19:14:24Z</time>
      </trkpt>
      <trkpt lat="49.24287" lon="6.12754">
        <ele>216.43</ele>
        <time>2021-07-22T19:14:34Z</time>
      </trkpt>
      <trkpt lat="49.24284" lon="6.12747">
        <ele>216.43</ele>
        <time>2021-07-22T19:14:35Z</time>
      </trkpt>
      <trkpt lat="49.24281" lon="6.12741">
        <ele>216.43</ele>
        <time>2021-07-22T19:14:36Z</time>
      </trkpt>
      <trkpt lat="49.24277" lon="6.12741">
        <ele>216.43</ele>
        <time>2021-07-22T19:14:37Z</time>
      </trkpt>
      <trkpt lat="49.2427" lon="6.12736">
        <ele>216.43</ele>
        <time>2021-07-22T19:14:38Z</time>
      </trkpt>
      <trkpt lat="49.24267" lon="6.12729">
        <ele>216.43</ele>
        <time>2021-07-22T19:14:39Z</time>
      </trkpt>
      <trkpt lat="49.24264" lon="6.12722">
        <ele>215.47</ele>
        <time>2021-07-22T19:14:40Z</time>
      </trkpt>
      <trkpt lat="49.24261" lon="6.12714">
        <ele>216.43</ele>
        <time>2021-07-22T19:14:41Z</time>
      </trkpt>
      <trkpt lat="49.24204" lon="6.1257">
        <ele>219.8</ele>
        <time>2021-07-22T19:14:57Z</time>
      </trkpt>
      <trkpt lat="49.2413" lon="6.12406">
        <ele>221.24</ele>
        <time>2021-07-22T19:15:12Z</time>
      </trkpt>
      <trkpt lat="49.24113" lon="6.1237">
        <ele>221.24</ele>
        <time>2021-07-22T19:15:17Z</time>
      </trkpt>
      <trkpt lat="49.24111" lon="6.12365">
        <ele>221.24</ele>
        <time>2021-07-22T19:15:18Z</time>
      </trkpt>
      <trkpt lat="49.24109" lon="6.1236">
        <ele>221.24</ele>
        <time>2021-07-22T19:15:19Z</time>
      </trkpt>
      <trkpt lat="49.24107" lon="6.12355">
        <ele>221.24</ele>
        <time>2021-07-22T19:15:20Z</time>
      </trkpt>
      <trkpt lat="49.24105" lon="6.12351">
        <ele>221.24</ele>
        <time>2021-07-22T19:15:21Z</time>
      </trkpt>
      <trkpt lat="49.24102" lon="6.12345">
        <ele>221.72</ele>
        <time>2021-07-22T19:15:31Z</time>
      </trkpt>
      <trkpt lat="49.24069" lon="6.12349">
        <ele>222.68</ele>
        <time>2021-07-22T19:15:47Z</time>
      </trkpt>
      <trkpt lat="49.24028" lon="6.12341">
        <ele>225.09</ele>
        <time>2021-07-22T19:16:00Z</time>
      </trkpt>
      <trkpt lat="49.24007" lon="6.12337">
        <ele>224.12</ele>
        <time>2021-07-22T19:16:58Z</time>
      </trkpt>
      <trkpt lat="49.23985" lon="6.12331">
        <ele>223.16</ele>
        <time>2021-07-22T19:17:11Z</time>
      </trkpt>
      <trkpt lat="49.23987" lon="6.12331">
        <ele>223.16</ele>
        <time>2021-07-22T19:17:35Z</time>
      </trkpt>
      <trkpt lat="49.23988" lon="6.1233">
        <ele>223.16</ele>
        <time>2021-07-22T19:18:01Z</time>
      </trkpt>
      <trkpt lat="49.23989" lon="6.12331">
        <ele>223.16</ele>
        <time>2021-07-22T19:18:31Z</time>
      </trkpt>
      <trkpt lat="49.23994" lon="6.12331">
        <ele>223.16</ele>
        <time>2021-07-22T19:18:50Z</time>
      </trkpt>
      <trkpt lat="49.23995" lon="6.12332">
        <ele>223.16</ele>
        <time>2021-07-22T19:18:51Z</time>
      </trkpt>
      <trkpt lat="49.24038" lon="6.12342">
        <ele>219.8</ele>
        <time>2021-07-22T19:19:00Z</time>
      </trkpt>
      <trkpt lat="49.24105" lon="6.12351">
        <ele>216.91</ele>
        <time>2021-07-22T19:19:11Z</time>
      </trkpt>
      <trkpt lat="49.24111" lon="6.12365">
        <ele>217.88</ele>
        <time>2021-07-22T19:19:13Z</time>
      </trkpt>
      <trkpt lat="49.24115" lon="6.12373">
        <ele>217.88</ele>
        <time>2021-07-22T19:19:14Z</time>
      </trkpt>
      <trkpt lat="49.24122" lon="6.1239">
        <ele>217.88</ele>
        <time>2021-07-22T19:19:15Z</time>
      </trkpt>
      <trkpt lat="49.24122" lon="6.1239">
        <ele>217.4</ele>
        <time>2021-07-22T19:19:16Z</time>
      </trkpt>
      <trkpt lat="49.24126" lon="6.12399">
        <ele>217.88</ele>
        <time>2021-07-22T19:19:17Z</time>
      </trkpt>
      <trkpt lat="49.24131" lon="6.12409">
        <ele>218.36</ele>
        <time>2021-07-22T19:19:18Z</time>
      </trkpt>
      <trkpt lat="49.24218" lon="6.12605">
        <ele>220.76</ele>
        <time>2021-07-22T19:19:35Z</time>
      </trkpt>
      <trkpt lat="49.24262" lon="6.12717">
        <ele>218.84</ele>
        <time>2021-07-22T19:19:49Z</time>
      </trkpt>
      <trkpt lat="49.24268" lon="6.12731">
        <ele>218.36</ele>
        <time>2021-07-22T19:19:51Z</time>
      </trkpt>
      <trkpt lat="49.24271" lon="6.12738">
        <ele>217.88</ele>
        <time>2021-07-22T19:19:52Z</time>
      </trkpt>
      <trkpt lat="49.24272" lon="6.12748">
        <ele>217.88</ele>
        <time>2021-07-22T19:19:53Z</time>
      </trkpt>
      <trkpt lat="49.24272" lon="6.12755">
        <ele>217.4</ele>
        <time>2021-07-22T19:19:54Z</time>
      </trkpt>
      <trkpt lat="49.24274" lon="6.12759">
        <ele>216.91</ele>
        <time>2021-07-22T19:19:55Z</time>
      </trkpt>
      <trkpt lat="49.24277" lon="6.12764">
        <ele>216.43</ele>
        <time>2021-07-22T19:19:56Z</time>
      </trkpt>
      <trkpt lat="49.2428" lon="6.1277">
        <ele>216.43</ele>
        <time>2021-07-22T19:19:57Z</time>
      </trkpt>
      <trkpt lat="49.24282" lon="6.12776">
        <ele>216.43</ele>
        <time>2021-07-22T19:19:58Z</time>
      </trkpt>
      <trkpt lat="49.24285" lon="6.12781">
        <ele>215.47</ele>
        <time>2021-07-22T19:19:59Z</time>
      </trkpt>
      <trkpt lat="49.24287" lon="6.12787">
        <ele>214.99</ele>
        <time>2021-07-22T19:20:00Z</time>
      </trkpt>
      <trkpt lat="49.2429" lon="6.12793">
        <ele>214.51</ele>
        <time>2021-07-22T19:20:01Z</time>
      </trkpt>
      <trkpt lat="49.24293" lon="6.128">
        <ele>214.51</ele>
        <time>2021-07-22T19:20:02Z</time>
      </trkpt>
      <trkpt lat="49.24299" lon="6.12814">
        <ele>213.55</ele>
        <time>2021-07-22T19:20:04Z</time>
      </trkpt>
      <trkpt lat="49.24302" lon="6.12821">
        <ele>213.55</ele>
        <time>2021-07-22T19:20:05Z</time>
      </trkpt>
      <trkpt lat="49.24304" lon="6.12827">
        <ele>213.07</ele>
        <time>2021-07-22T19:20:06Z</time>
      </trkpt>
      <trkpt lat="49.24309" lon="6.12839">
        <ele>212.59</ele>
        <time>2021-07-22T19:20:08Z</time>
      </trkpt>
      <trkpt lat="49.24312" lon="6.12845">
        <ele>212.59</ele>
        <time>2021-07-22T19:20:09Z</time>
      </trkpt>
      <trkpt lat="49.24314" lon="6.1285">
        <ele>212.11</ele>
        <time>2021-07-22T19:20:10Z</time>
      </trkpt>
      <trkpt lat="49.24316" lon="6.12855">
        <ele>212.11</ele>
        <time>2021-07-22T19:20:11Z</time>
      </trkpt>
      <trkpt lat="49.2432" lon="6.12862">
        <ele>211.63</ele>
        <time>2021-07-22T19:20:12Z</time>
      </trkpt>
      <trkpt lat="49.24337" lon="6.12895">
        <ele>209.22</ele>
        <time>2021-07-22T19:20:19Z</time>
      </trkpt>
      <trkpt lat="49.24336" lon="6.12911">
        <ele>208.74</ele>
        <time>2021-07-22T19:20:21Z</time>
      </trkpt>
      <trkpt lat="49.24336" lon="6.12911">
        <ele>208.74</ele>
        <time>2021-07-22T19:20:22Z</time>
      </trkpt>
      <trkpt lat="49.24338" lon="6.12917">
        <ele>208.26</ele>
        <time>2021-07-22T19:20:23Z</time>
      </trkpt>
      <trkpt lat="49.24341" lon="6.12924">
        <ele>208.26</ele>
        <time>2021-07-22T19:20:24Z</time>
      </trkpt>
      <trkpt lat="49.24344" lon="6.12932">
        <ele>208.26</ele>
        <time>2021-07-22T19:20:25Z</time>
      </trkpt>
      <trkpt lat="49.24391" lon="6.13039">
        <ele>207.78</ele>
        <time>2021-07-22T19:20:38Z</time>
      </trkpt>
      <trkpt lat="49.24396" lon="6.1305">
        <ele>208.74</ele>
        <time>2021-07-22T19:20:45Z</time>
      </trkpt>
      <trkpt lat="49.24396" lon="6.1305">
        <ele>208.74</ele>
        <time>2021-07-22T19:20:47Z</time>
      </trkpt>
      <trkpt lat="49.24398" lon="6.13056">
        <ele>208.74</ele>
        <time>2021-07-22T19:20:48Z</time>
      </trkpt>
      <trkpt lat="49.24402" lon="6.13054">
        <ele>208.74</ele>
        <time>2021-07-22T19:20:49Z</time>
      </trkpt>
      <trkpt lat="49.24405" lon="6.13053">
        <ele>208.74</ele>
        <time>2021-07-22T19:20:50Z</time>
      </trkpt>
      <trkpt lat="49.24409" lon="6.1305">
        <ele>209.22</ele>
        <time>2021-07-22T19:20:51Z</time>
      </trkpt>
      <trkpt lat="49.24413" lon="6.13048">
        <ele>209.7</ele>
        <time>2021-07-22T19:20:52Z</time>
      </trkpt>
      <trkpt lat="49.24429" lon="6.13038">
        <ele>211.15</ele>
        <time>2021-07-22T19:20:55Z</time>
      </trkpt>
      <trkpt lat="49.24435" lon="6.13035">
        <ele>211.63</ele>
        <time>2021-07-22T19:20:56Z</time>
      </trkpt>
      <trkpt lat="49.24441" lon="6.13031">
        <ele>212.11</ele>
        <time>2021-07-22T19:20:57Z</time>
      </trkpt>
      <trkpt lat="49.2445" lon="6.13034">
        <ele>212.59</ele>
        <time>2021-07-22T19:20:58Z</time>
      </trkpt>
      <trkpt lat="49.24455" lon="6.1304">
        <ele>212.59</ele>
        <time>2021-07-22T19:20:59Z</time>
      </trkpt>
      <trkpt lat="49.24461" lon="6.13046">
        <ele>213.07</ele>
        <time>2021-07-22T19:21:00Z</time>
      </trkpt>
      <trkpt lat="49.24477" lon="6.13065">
        <ele>212.59</ele>
        <time>2021-07-22T19:21:03Z</time>
      </trkpt>
      <trkpt lat="49.2448" lon="6.13074">
        <ele>212.11</ele>
        <time>2021-07-22T19:21:04Z</time>
      </trkpt>
      <trkpt lat="49.24484" lon="6.13084">
        <ele>211.63</ele>
        <time>2021-07-22T19:21:05Z</time>
      </trkpt>
      <trkpt lat="49.24521" lon="6.13168">
        <ele>208.74</ele>
        <time>2021-07-22T19:21:14Z</time>
      </trkpt>
      <trkpt lat="49.24529" lon="6.13183">
        <ele>208.26</ele>
        <time>2021-07-22T19:21:15Z</time>
      </trkpt>
      <trkpt lat="49.24541" lon="6.1319">
        <ele>207.3</ele>
        <time>2021-07-22T19:21:21Z</time>
      </trkpt>
      <trkpt lat="49.24576" lon="6.13195">
        <ele>204.9</ele>
        <time>2021-07-22T19:21:32Z</time>
      </trkpt>
      <trkpt lat="49.24605" lon="6.13178">
        <ele>202.98</ele>
        <time>2021-07-22T19:21:42Z</time>
      </trkpt>
      <trkpt lat="49.24609" lon="6.13175">
        <ele>202.49</ele>
        <time>2021-07-22T19:21:43Z</time>
      </trkpt>
      <trkpt lat="49.24621" lon="6.13171">
        <ele>202.49</ele>
        <time>2021-07-22T19:21:44Z</time>
      </trkpt>
      <trkpt lat="49.24627" lon="6.13176">
        <ele>202.01</ele>
        <time>2021-07-22T19:21:45Z</time>
      </trkpt>
      <trkpt lat="49.24627" lon="6.13176">
        <ele>202.01</ele>
        <time>2021-07-22T19:21:46Z</time>
      </trkpt>
      <trkpt lat="49.2463" lon="6.13178">
        <ele>201.53</ele>
        <time>2021-07-22T19:21:47Z</time>
      </trkpt>
      <trkpt lat="49.24632" lon="6.1318">
        <ele>201.53</ele>
        <time>2021-07-22T19:21:48Z</time>
      </trkpt>
      <trkpt lat="49.24651" lon="6.13209">
        <ele>200.09</ele>
        <time>2021-07-22T19:21:56Z</time>
      </trkpt>
      <trkpt lat="49.24653" lon="6.13214">
        <ele>199.61</ele>
        <time>2021-07-22T19:21:57Z</time>
      </trkpt>
      <trkpt lat="49.24655" lon="6.13221">
        <ele>199.13</ele>
        <time>2021-07-22T19:21:58Z</time>
      </trkpt>
      <trkpt lat="49.24696" lon="6.13327">
        <ele>200.09</ele>
        <time>2021-07-22T19:22:06Z</time>
      </trkpt>
      <trkpt lat="49.24731" lon="6.13401">
        <ele>202.98</ele>
        <time>2021-07-22T19:22:11Z</time>
      </trkpt>
      <trkpt lat="49.24737" lon="6.13414">
        <ele>202.98</ele>
        <time>2021-07-22T19:22:12Z</time>
      </trkpt>
      <trkpt lat="49.24741" lon="6.13428">
        <ele>200.57</ele>
        <time>2021-07-22T19:22:13Z</time>
      </trkpt>
      <trkpt lat="49.24744" lon="6.13441">
        <ele>200.57</ele>
        <time>2021-07-22T19:22:14Z</time>
      </trkpt>
      <trkpt lat="49.24746" lon="6.1345">
        <ele>199.13</ele>
        <time>2021-07-22T19:22:15Z</time>
      </trkpt>
      <trkpt lat="49.24748" lon="6.13468">
        <ele>198.17</ele>
        <time>2021-07-22T19:22:18Z</time>
      </trkpt>
      <trkpt lat="49.24743" lon="6.13552">
        <ele>201.05</ele>
        <time>2021-07-22T19:22:25Z</time>
      </trkpt>
      <trkpt lat="49.24727" lon="6.13664">
        <ele>202.98</ele>
        <time>2021-07-22T19:22:35Z</time>
      </trkpt>
      <trkpt lat="49.24726" lon="6.13675">
        <ele>202.98</ele>
        <time>2021-07-22T19:22:36Z</time>
      </trkpt>
      <trkpt lat="49.24725" lon="6.13685">
        <ele>202.49</ele>
        <time>2021-07-22T19:22:37Z</time>
      </trkpt>
      <trkpt lat="49.24727" lon="6.13694">
        <ele>202.49</ele>
        <time>2021-07-22T19:22:38Z</time>
      </trkpt>
      <trkpt lat="49.24729" lon="6.13704">
        <ele>202.98</ele>
        <time>2021-07-22T19:22:39Z</time>
      </trkpt>
      <trkpt lat="49.24732" lon="6.13722">
        <ele>202.98</ele>
        <time>2021-07-22T19:22:40Z</time>
      </trkpt>
      <trkpt lat="49.24732" lon="6.13722">
        <ele>202.01</ele>
        <time>2021-07-22T19:22:41Z</time>
      </trkpt>
      <trkpt lat="49.24734" lon="6.13729">
        <ele>202.49</ele>
        <time>2021-07-22T19:22:42Z</time>
      </trkpt>
      <trkpt lat="49.24763" lon="6.13796">
        <ele>203.46</ele>
        <time>2021-07-22T19:22:57Z</time>
      </trkpt>
      <trkpt lat="49.24765" lon="6.13807">
        <ele>203.46</ele>
        <time>2021-07-22T19:22:59Z</time>
      </trkpt>
      <trkpt lat="49.24764" lon="6.13809">
        <ele>202.98</ele>
        <time>2021-07-22T19:23:00Z</time>
      </trkpt>
      <trkpt lat="49.24762" lon="6.13813">
        <ele>202.98</ele>
        <time>2021-07-22T19:23:01Z</time>
      </trkpt>
      <trkpt lat="49.24759" lon="6.13817">
        <ele>202.98</ele>
        <time>2021-07-22T19:23:02Z</time>
      </trkpt>
      <trkpt lat="49.24756" lon="6.13821">
        <ele>202.49</ele>
        <time>2021-07-22T19:23:03Z</time>
      </trkpt>
      <trkpt lat="49.24753" lon="6.13825">
        <ele>202.49</ele>
        <time>2021-07-22T19:23:04Z</time>
      </trkpt>
      <trkpt lat="49.24748" lon="6.13831">
        <ele>202.49</ele>
        <time>2021-07-22T19:23:07Z</time>
      </trkpt>
      <trkpt lat="49.24739" lon="6.13839">
        <ele>202.01</ele>
        <time>2021-07-22T19:23:08Z</time>
      </trkpt>
      <trkpt lat="49.24737" lon="6.13856">
        <ele>202.01</ele>
        <time>2021-07-22T19:23:09Z</time>
      </trkpt>
      <trkpt lat="49.24747" lon="6.13859">
        <ele>201.53</ele>
        <time>2021-07-22T19:23:10Z</time>
      </trkpt>
      <trkpt lat="49.2475" lon="6.1386">
        <ele>201.05</ele>
        <time>2021-07-22T19:23:11Z</time>
      </trkpt>
      <trkpt lat="49.24753" lon="6.13861">
        <ele>201.05</ele>
        <time>2021-07-22T19:23:12Z</time>
      </trkpt>
      <trkpt lat="49.24757" lon="6.13856">
        <ele>200.57</ele>
        <time>2021-07-22T19:23:13Z</time>
      </trkpt>
      <trkpt lat="49.24759" lon="6.13853">
        <ele>200.09</ele>
        <time>2021-07-22T19:23:14Z</time>
      </trkpt>
      <trkpt lat="49.24759" lon="6.13853">
        <ele>200.09</ele>
        <time>2021-07-22T19:23:15Z</time>
      </trkpt>
      <trkpt lat="49.24798" lon="6.13814">
        <ele>201.53</ele>
        <time>2021-07-22T19:23:28Z</time>
      </trkpt>
      <trkpt lat="49.24799" lon="6.13813">
        <ele>202.01</ele>
        <time>2021-07-22T19:24:03Z</time>
      </trkpt>
      <trkpt lat="49.24811" lon="6.13793">
        <ele>202.01</ele>
        <time>2021-07-22T19:24:14Z</time>
      </trkpt>
      <trkpt lat="49.24799" lon="6.13755">
        <ele>202.01</ele>
        <time>2021-07-22T19:24:26Z</time>
      </trkpt>
      <trkpt lat="49.24781" lon="6.13719">
        <ele>202.01</ele>
        <time>2021-07-22T19:24:39Z</time>
      </trkpt>
      <trkpt lat="49.2477" lon="6.13684">
        <ele>203.94</ele>
        <time>2021-07-22T19:24:51Z</time>
      </trkpt>
      <trkpt lat="49.24769" lon="6.13682">
        <ele>203.94</ele>
        <time>2021-07-22T19:24:52Z</time>
      </trkpt>
      <trkpt lat="49.24755" lon="6.13682">
        <ele>203.94</ele>
        <time>2021-07-22T19:24:59Z</time>
      </trkpt>
      <trkpt lat="49.24759" lon="6.13714">
        <ele>202.98</ele>
        <time>2021-07-22T19:25:14Z</time>
      </trkpt>
      <trkpt lat="49.2476" lon="6.13718">
        <ele>203.94</ele>
        <time>2021-07-22T19:25:41Z</time>
      </trkpt>
      <trkpt lat="49.2476" lon="6.13717">
        <ele>203.94</ele>
        <time>2021-07-22T19:26:58Z</time>
      </trkpt>
      <trkpt lat="49.24757" lon="6.13717">
        <ele>204.42</ele>
        <time>2021-07-22T19:27:20Z</time>
      </trkpt>
      <trkpt lat="49.24756" lon="6.13716">
        <ele>204.42</ele>
        <time>2021-07-22T19:29:21Z</time>
      </trkpt>
    </trkseg>
  </trk>
  <trk>
    <name><![CDATA[Journal actif: 2021-07-23 09:40]]></name>
    <trkseg>
      <trkpt lat="49.24757" lon="6.1372">
        <ele>201.05</ele>
        <time>2021-07-23T11:40:57Z</time>
      </trkpt>
      <trkpt lat="49.24758" lon="6.13719">
        <ele>200.57</ele>
        <time>2021-07-23T11:44:27Z</time>
      </trkpt>
      <trkpt lat="49.24763" lon="6.13721">
        <ele>200.09</ele>
        <time>2021-07-23T11:44:32Z</time>
      </trkpt>
      <trkpt lat="49.24765" lon="6.13727">
        <ele>199.61</ele>
        <time>2021-07-23T11:44:36Z</time>
      </trkpt>
      <trkpt lat="49.24774" lon="6.13748">
        <ele>198.65</ele>
        <time>2021-07-23T11:44:51Z</time>
      </trkpt>
      <trkpt lat="49.24775" lon="6.13753">
        <ele>198.65</ele>
        <time>2021-07-23T11:45:06Z</time>
      </trkpt>
      <trkpt lat="49.24768" lon="6.13763">
        <ele>197.69</ele>
        <time>2021-07-23T11:45:22Z</time>
      </trkpt>
      <trkpt lat="49.24767" lon="6.13765">
        <ele>197.69</ele>
        <time>2021-07-23T11:46:00Z</time>
      </trkpt>
      <trkpt lat="49.24767" lon="6.13766">
        <ele>197.69</ele>
        <time>2021-07-23T11:49:08Z</time>
      </trkpt>
      <trkpt lat="49.24767" lon="6.13767">
        <ele>197.21</ele>
        <time>2021-07-23T11:52:15Z</time>
      </trkpt>
      <trkpt lat="49.2477" lon="6.13764">
        <ele>196.73</ele>
        <time>2021-07-23T11:54:47Z</time>
      </trkpt>
      <trkpt lat="49.24773" lon="6.1376">
        <ele>196.73</ele>
        <time>2021-07-23T11:55:08Z</time>
      </trkpt>
      <trkpt lat="49.24774" lon="6.13762">
        <ele>196.73</ele>
        <time>2021-07-23T11:55:11Z</time>
      </trkpt>
      <trkpt lat="49.24786" lon="6.13776">
        <ele>197.21</ele>
        <time>2021-07-23T11:55:26Z</time>
      </trkpt>
      <trkpt lat="49.24786" lon="6.13775">
        <ele>197.69</ele>
        <time>2021-07-23T11:55:30Z</time>
      </trkpt>
      <trkpt lat="49.24791" lon="6.13775">
        <ele>198.17</ele>
        <time>2021-07-23T11:55:34Z</time>
      </trkpt>
      <trkpt lat="49.24795" lon="6.13776">
        <ele>198.17</ele>
        <time>2021-07-23T11:55:37Z</time>
      </trkpt>
      <trkpt lat="49.24808" lon="6.13788">
        <ele>199.13</ele>
        <time>2021-07-23T11:55:53Z</time>
      </trkpt>
      <trkpt lat="49.24808" lon="6.13789">
        <ele>198.65</ele>
        <time>2021-07-23T11:56:37Z</time>
      </trkpt>
      <trkpt lat="49.24809" lon="6.13798">
        <ele>198.65</ele>
        <time>2021-07-23T11:57:03Z</time>
      </trkpt>
      <trkpt lat="49.24806" lon="6.13805">
        <ele>198.65</ele>
        <time>2021-07-23T11:57:07Z</time>
      </trkpt>
      <trkpt lat="49.24802" lon="6.13813">
        <ele>198.17</ele>
        <time>2021-07-23T11:57:21Z</time>
      </trkpt>
      <trkpt lat="49.24793" lon="6.13822">
        <ele>197.69</ele>
        <time>2021-07-23T11:57:36Z</time>
      </trkpt>
      <trkpt lat="49.24779" lon="6.13836">
        <ele>197.69</ele>
        <time>2021-07-23T11:57:54Z</time>
      </trkpt>
      <trkpt lat="49.24748" lon="6.13831">
        <ele>198.17</ele>
        <time>2021-07-23T11:58:05Z</time>
      </trkpt>
      <trkpt lat="49.24747" lon="6.13831">
        <ele>197.69</ele>
        <time>2021-07-23T11:58:06Z</time>
      </trkpt>
      <trkpt lat="49.2474" lon="6.13838">
        <ele>197.69</ele>
        <time>2021-07-23T11:58:07Z</time>
      </trkpt>
      <trkpt lat="49.24737" lon="6.13855">
        <ele>197.21</ele>
        <time>2021-07-23T11:58:08Z</time>
      </trkpt>
      <trkpt lat="49.24738" lon="6.13857">
        <ele>197.21</ele>
        <time>2021-07-23T11:58:09Z</time>
      </trkpt>
      <trkpt lat="49.24755" lon="6.13861">
        <ele>197.21</ele>
        <time>2021-07-23T11:58:10Z</time>
      </trkpt>
      <trkpt lat="49.24755" lon="6.13861">
        <ele>197.21</ele>
        <time>2021-07-23T11:58:11Z</time>
      </trkpt>
      <trkpt lat="49.24758" lon="6.13868">
        <ele>197.21</ele>
        <time>2021-07-23T11:58:13Z</time>
      </trkpt>
      <trkpt lat="49.24763" lon="6.13881">
        <ele>197.21</ele>
        <time>2021-07-23T11:58:14Z</time>
      </trkpt>
      <trkpt lat="49.24763" lon="6.13881">
        <ele>197.21</ele>
        <time>2021-07-23T11:58:15Z</time>
      </trkpt>
      <trkpt lat="49.24825" lon="6.14019">
        <ele>198.17</ele>
        <time>2021-07-23T11:58:29Z</time>
      </trkpt>
      <trkpt lat="49.24907" lon="6.14204">
        <ele>196.73</ele>
        <time>2021-07-23T11:58:43Z</time>
      </trkpt>
      <trkpt lat="49.24923" lon="6.14252">
        <ele>192.88</ele>
        <time>2021-07-23T11:58:46Z</time>
      </trkpt>
      <trkpt lat="49.24925" lon="6.14268">
        <ele>192.88</ele>
        <time>2021-07-23T11:58:47Z</time>
      </trkpt>
      <trkpt lat="49.24928" lon="6.14285">
        <ele>191.92</ele>
        <time>2021-07-23T11:58:48Z</time>
      </trkpt>
      <trkpt lat="49.2493" lon="6.14299">
        <ele>190.96</ele>
        <time>2021-07-23T11:58:49Z</time>
      </trkpt>
      <trkpt lat="49.24929" lon="6.14323">
        <ele>190.48</ele>
        <time>2021-07-23T11:58:50Z</time>
      </trkpt>
      <trkpt lat="49.24929" lon="6.14334">
        <ele>190.48</ele>
        <time>2021-07-23T11:58:51Z</time>
      </trkpt>
      <trkpt lat="49.24929" lon="6.14334">
        <ele>190.48</ele>
        <time>2021-07-23T11:58:52Z</time>
      </trkpt>
      <trkpt lat="49.24931" lon="6.14345">
        <ele>190.48</ele>
        <time>2021-07-23T11:58:53Z</time>
      </trkpt>
      <trkpt lat="49.24934" lon="6.14354">
        <ele>190.96</ele>
        <time>2021-07-23T11:58:54Z</time>
      </trkpt>
      <trkpt lat="49.24937" lon="6.14364">
        <ele>190.96</ele>
        <time>2021-07-23T11:58:55Z</time>
      </trkpt>
      <trkpt lat="49.2494" lon="6.14373">
        <ele>190.96</ele>
        <time>2021-07-23T11:58:56Z</time>
      </trkpt>
      <trkpt lat="49.24941" lon="6.14378">
        <ele>190.48</ele>
        <time>2021-07-23T11:58:57Z</time>
      </trkpt>
      <trkpt lat="49.24942" lon="6.14402">
        <ele>190.96</ele>
        <time>2021-07-23T11:58:59Z</time>
      </trkpt>
      <trkpt lat="49.24945" lon="6.14409">
        <ele>190.96</ele>
        <time>2021-07-23T11:59:00Z</time>
      </trkpt>
      <trkpt lat="49.24952" lon="6.14423">
        <ele>190.48</ele>
        <time>2021-07-23T11:59:01Z</time>
      </trkpt>
      <trkpt lat="49.24952" lon="6.14423">
        <ele>190</ele>
        <time>2021-07-23T11:59:02Z</time>
      </trkpt>
      <trkpt lat="49.24966" lon="6.14426">
        <ele>190</ele>
        <time>2021-07-23T11:59:03Z</time>
      </trkpt>
      <trkpt lat="49.24972" lon="6.14427">
        <ele>189.52</ele>
        <time>2021-07-23T11:59:04Z</time>
      </trkpt>
      <trkpt lat="49.24978" lon="6.14425">
        <ele>189.52</ele>
        <time>2021-07-23T11:59:05Z</time>
      </trkpt>
      <trkpt lat="49.24983" lon="6.14419">
        <ele>189.04</ele>
        <time>2021-07-23T11:59:06Z</time>
      </trkpt>
      <trkpt lat="49.24988" lon="6.14413">
        <ele>189.04</ele>
        <time>2021-07-23T11:59:07Z</time>
      </trkpt>
      <trkpt lat="49.2499" lon="6.14405">
        <ele>189.04</ele>
        <time>2021-07-23T11:59:08Z</time>
      </trkpt>
      <trkpt lat="49.2499" lon="6.14405">
        <ele>189.04</ele>
        <time>2021-07-23T11:59:09Z</time>
      </trkpt>
      <trkpt lat="49.24992" lon="6.14396">
        <ele>189.04</ele>
        <time>2021-07-23T11:59:10Z</time>
      </trkpt>
      <trkpt lat="49.24992" lon="6.14388">
        <ele>189.04</ele>
        <time>2021-07-23T11:59:11Z</time>
      </trkpt>
      <trkpt lat="49.24992" lon="6.14378">
        <ele>189.52</ele>
        <time>2021-07-23T11:59:12Z</time>
      </trkpt>
      <trkpt lat="49.24991" lon="6.14369">
        <ele>189.52</ele>
        <time>2021-07-23T11:59:13Z</time>
      </trkpt>
      <trkpt lat="49.2499" lon="6.1436">
        <ele>189.52</ele>
        <time>2021-07-23T11:59:14Z</time>
      </trkpt>
      <trkpt lat="49.24989" lon="6.14338">
        <ele>189.52</ele>
        <time>2021-07-23T11:59:15Z</time>
      </trkpt>
      <trkpt lat="49.24989" lon="6.14338">
        <ele>189.52</ele>
        <time>2021-07-23T11:59:16Z</time>
      </trkpt>
      <trkpt lat="49.24982" lon="6.14211">
        <ele>182.31</ele>
        <time>2021-07-23T11:59:25Z</time>
      </trkpt>
      <trkpt lat="49.24978" lon="6.1401">
        <ele>169.81</ele>
        <time>2021-07-23T11:59:35Z</time>
      </trkpt>
      <trkpt lat="49.25001" lon="6.13775">
        <ele>163.08</ele>
        <time>2021-07-23T11:59:45Z</time>
      </trkpt>
      <trkpt lat="49.25071" lon="6.13643">
        <ele>160.68</ele>
        <time>2021-07-23T11:59:52Z</time>
      </trkpt>
      <trkpt lat="49.25141" lon="6.13593">
        <ele>160.2</ele>
        <time>2021-07-23T11:59:57Z</time>
      </trkpt>
      <trkpt lat="49.25155" lon="6.13587">
        <ele>159.72</ele>
        <time>2021-07-23T11:59:58Z</time>
      </trkpt>
      <trkpt lat="49.25297" lon="6.13544">
        <ele>162.6</ele>
        <time>2021-07-23T12:00:08Z</time>
      </trkpt>
      <trkpt lat="49.25368" lon="6.13514">
        <ele>162.6</ele>
        <time>2021-07-23T12:00:16Z</time>
      </trkpt>
      <trkpt lat="49.25378" lon="6.13511">
        <ele>162.6</ele>
        <time>2021-07-23T12:00:17Z</time>
      </trkpt>
      <trkpt lat="49.25397" lon="6.13508">
        <ele>161.64</ele>
        <time>2021-07-23T12:00:18Z</time>
      </trkpt>
      <trkpt lat="49.25397" lon="6.13508">
        <ele>161.64</ele>
        <time>2021-07-23T12:00:19Z</time>
      </trkpt>
      <trkpt lat="49.25403" lon="6.1351">
        <ele>161.64</ele>
        <time>2021-07-23T12:00:20Z</time>
      </trkpt>
      <trkpt lat="49.25409" lon="6.13512">
        <ele>162.12</ele>
        <time>2021-07-23T12:00:21Z</time>
      </trkpt>
      <trkpt lat="49.25414" lon="6.13515">
        <ele>162.6</ele>
        <time>2021-07-23T12:00:22Z</time>
      </trkpt>
      <trkpt lat="49.25418" lon="6.13516">
        <ele>163.08</ele>
        <time>2021-07-23T12:00:23Z</time>
      </trkpt>
      <trkpt lat="49.25423" lon="6.13519">
        <ele>163.08</ele>
        <time>2021-07-23T12:00:24Z</time>
      </trkpt>
      <trkpt lat="49.25431" lon="6.13536">
        <ele>163.08</ele>
        <time>2021-07-23T12:00:30Z</time>
      </trkpt>
      <trkpt lat="49.25432" lon="6.13564">
        <ele>163.08</ele>
        <time>2021-07-23T12:00:33Z</time>
      </trkpt>
      <trkpt lat="49.25436" lon="6.13573">
        <ele>162.6</ele>
        <time>2021-07-23T12:00:34Z</time>
      </trkpt>
      <trkpt lat="49.2544" lon="6.13581">
        <ele>163.08</ele>
        <time>2021-07-23T12:00:35Z</time>
      </trkpt>
      <trkpt lat="49.25446" lon="6.1359">
        <ele>163.08</ele>
        <time>2021-07-23T12:00:36Z</time>
      </trkpt>
      <trkpt lat="49.25452" lon="6.13593">
        <ele>163.08</ele>
        <time>2021-07-23T12:00:37Z</time>
      </trkpt>
      <trkpt lat="49.25459" lon="6.13596">
        <ele>163.08</ele>
        <time>2021-07-23T12:00:38Z</time>
      </trkpt>
      <trkpt lat="49.25467" lon="6.13596">
        <ele>163.08</ele>
        <time>2021-07-23T12:00:39Z</time>
      </trkpt>
      <trkpt lat="49.25474" lon="6.13593">
        <ele>162.6</ele>
        <time>2021-07-23T12:00:40Z</time>
      </trkpt>
      <trkpt lat="49.25482" lon="6.13588">
        <ele>162.12</ele>
        <time>2021-07-23T12:00:41Z</time>
      </trkpt>
      <trkpt lat="49.25487" lon="6.1358">
        <ele>162.12</ele>
        <time>2021-07-23T12:00:42Z</time>
      </trkpt>
      <trkpt lat="49.25493" lon="6.1357">
        <ele>162.12</ele>
        <time>2021-07-23T12:00:43Z</time>
      </trkpt>
      <trkpt lat="49.25496" lon="6.13559">
        <ele>162.12</ele>
        <time>2021-07-23T12:00:44Z</time>
      </trkpt>
      <trkpt lat="49.25497" lon="6.13547">
        <ele>162.12</ele>
        <time>2021-07-23T12:00:45Z</time>
      </trkpt>
      <trkpt lat="49.25497" lon="6.13536">
        <ele>162.12</ele>
        <time>2021-07-23T12:00:46Z</time>
      </trkpt>
      <trkpt lat="49.25497" lon="6.13531">
        <ele>162.12</ele>
        <time>2021-07-23T12:00:47Z</time>
      </trkpt>
      <trkpt lat="49.25488" lon="6.13504">
        <ele>162.12</ele>
        <time>2021-07-23T12:00:48Z</time>
      </trkpt>
      <trkpt lat="49.25491" lon="6.13495">
        <ele>162.12</ele>
        <time>2021-07-23T12:00:49Z</time>
      </trkpt>
      <trkpt lat="49.25513" lon="6.13344">
        <ele>161.64</ele>
        <time>2021-07-23T12:01:00Z</time>
      </trkpt>
      <trkpt lat="49.25537" lon="6.13085">
        <ele>160.68</ele>
        <time>2021-07-23T12:01:16Z</time>
      </trkpt>
      <trkpt lat="49.25541" lon="6.13035">
        <ele>160.68</ele>
        <time>2021-07-23T12:01:20Z</time>
      </trkpt>
      <trkpt lat="49.25542" lon="6.13029">
        <ele>160.68</ele>
        <time>2021-07-23T12:01:21Z</time>
      </trkpt>
      <trkpt lat="49.25542" lon="6.13029">
        <ele>160.68</ele>
        <time>2021-07-23T12:01:22Z</time>
      </trkpt>
      <trkpt lat="49.2556" lon="6.1302">
        <ele>160.68</ele>
        <time>2021-07-23T12:01:25Z</time>
      </trkpt>
      <trkpt lat="49.25565" lon="6.13011">
        <ele>160.68</ele>
        <time>2021-07-23T12:01:26Z</time>
      </trkpt>
      <trkpt lat="49.25571" lon="6.12991">
        <ele>160.68</ele>
        <time>2021-07-23T12:01:29Z</time>
      </trkpt>
      <trkpt lat="49.25575" lon="6.12986">
        <ele>160.68</ele>
        <time>2021-07-23T12:01:30Z</time>
      </trkpt>
      <trkpt lat="49.25578" lon="6.12981">
        <ele>160.68</ele>
        <time>2021-07-23T12:01:31Z</time>
      </trkpt>
      <trkpt lat="49.25581" lon="6.12977">
        <ele>160.68</ele>
        <time>2021-07-23T12:01:32Z</time>
      </trkpt>
      <trkpt lat="49.25585" lon="6.12975">
        <ele>160.68</ele>
        <time>2021-07-23T12:01:33Z</time>
      </trkpt>
      <trkpt lat="49.2559" lon="6.12973">
        <ele>160.68</ele>
        <time>2021-07-23T12:01:34Z</time>
      </trkpt>
      <trkpt lat="49.25616" lon="6.12959">
        <ele>161.64</ele>
        <time>2021-07-23T12:01:39Z</time>
      </trkpt>
      <trkpt lat="49.25621" lon="6.12957">
        <ele>161.64</ele>
        <time>2021-07-23T12:01:40Z</time>
      </trkpt>
      <trkpt lat="49.25624" lon="6.12956">
        <ele>161.64</ele>
        <time>2021-07-23T12:01:41Z</time>
      </trkpt>
      <trkpt lat="49.25628" lon="6.1296">
        <ele>162.12</ele>
        <time>2021-07-23T12:01:42Z</time>
      </trkpt>
      <trkpt lat="49.25639" lon="6.12949">
        <ele>161.64</ele>
        <time>2021-07-23T12:01:43Z</time>
      </trkpt>
      <trkpt lat="49.25639" lon="6.12949">
        <ele>161.64</ele>
        <time>2021-07-23T12:01:44Z</time>
      </trkpt>
    </trkseg>
  </trk>
  <trk>
    <name><![CDATA[Journal actif: 2021-07-23 10:41]]></name>
    <trkseg>
      <trkpt lat="49.25536" lon="6.13098">
        <ele>162.12</ele>
        <time>2021-07-23T12:41:42Z</time>
      </trkpt>
      <trkpt lat="49.25529" lon="6.1317">
        <ele>162.12</ele>
        <time>2021-07-23T12:41:52Z</time>
      </trkpt>
      <trkpt lat="49.25511" lon="6.13369">
        <ele>161.16</ele>
        <time>2021-07-23T12:42:08Z</time>
      </trkpt>
      <trkpt lat="49.25502" lon="6.1346">
        <ele>160.2</ele>
        <time>2021-07-23T12:42:15Z</time>
      </trkpt>
      <trkpt lat="49.25498" lon="6.13478">
        <ele>160.2</ele>
        <time>2021-07-23T12:42:16Z</time>
      </trkpt>
      <trkpt lat="49.25498" lon="6.13478">
        <ele>160.2</ele>
        <time>2021-07-23T12:42:17Z</time>
      </trkpt>
      <trkpt lat="49.25493" lon="6.13491">
        <ele>160.2</ele>
        <time>2021-07-23T12:42:18Z</time>
      </trkpt>
      <trkpt lat="49.25491" lon="6.13497">
        <ele>159.72</ele>
        <time>2021-07-23T12:42:19Z</time>
      </trkpt>
      <trkpt lat="49.25491" lon="6.13497">
        <ele>159.72</ele>
        <time>2021-07-23T12:42:20Z</time>
      </trkpt>
      <trkpt lat="49.25474" lon="6.13494">
        <ele>159.72</ele>
        <time>2021-07-23T12:42:21Z</time>
      </trkpt>
      <trkpt lat="49.25467" lon="6.13493">
        <ele>159.72</ele>
        <time>2021-07-23T12:42:22Z</time>
      </trkpt>
      <trkpt lat="49.2546" lon="6.13492">
        <ele>159.72</ele>
        <time>2021-07-23T12:42:23Z</time>
      </trkpt>
      <trkpt lat="49.25451" lon="6.13496">
        <ele>160.68</ele>
        <time>2021-07-23T12:42:24Z</time>
      </trkpt>
      <trkpt lat="49.25445" lon="6.13501">
        <ele>160.68</ele>
        <time>2021-07-23T12:42:25Z</time>
      </trkpt>
      <trkpt lat="49.25445" lon="6.13501">
        <ele>160.68</ele>
        <time>2021-07-23T12:42:26Z</time>
      </trkpt>
      <trkpt lat="49.25435" lon="6.13515">
        <ele>160.68</ele>
        <time>2021-07-23T12:42:28Z</time>
      </trkpt>
      <trkpt lat="49.25423" lon="6.13519">
        <ele>160.68</ele>
        <time>2021-07-23T12:42:29Z</time>
      </trkpt>
      <trkpt lat="49.25416" lon="6.13515">
        <ele>160.2</ele>
        <time>2021-07-23T12:42:30Z</time>
      </trkpt>
      <trkpt lat="49.25373" lon="6.13512">
        <ele>161.16</ele>
        <time>2021-07-23T12:42:35Z</time>
      </trkpt>
      <trkpt lat="49.25363" lon="6.13515">
        <ele>161.16</ele>
        <time>2021-07-23T12:42:36Z</time>
      </trkpt>
      <trkpt lat="49.25236" lon="6.13567">
        <ele>162.6</ele>
        <time>2021-07-23T12:42:48Z</time>
      </trkpt>
      <trkpt lat="49.25104" lon="6.1361">
        <ele>161.64</ele>
        <time>2021-07-23T12:42:59Z</time>
      </trkpt>
      <trkpt lat="49.25027" lon="6.13713">
        <ele>164.04</ele>
        <time>2021-07-23T12:43:07Z</time>
      </trkpt>
      <trkpt lat="49.24986" lon="6.13863">
        <ele>169.81</ele>
        <time>2021-07-23T12:43:15Z</time>
      </trkpt>
      <trkpt lat="49.2498" lon="6.14188">
        <ele>186.15</ele>
        <time>2021-07-23T12:43:30Z</time>
      </trkpt>
      <trkpt lat="49.24991" lon="6.14301">
        <ele>193.36</ele>
        <time>2021-07-23T12:43:36Z</time>
      </trkpt>
      <trkpt lat="49.24988" lon="6.1431">
        <ele>193.84</ele>
        <time>2021-07-23T12:43:37Z</time>
      </trkpt>
      <trkpt lat="49.24983" lon="6.14331">
        <ele>193.36</ele>
        <time>2021-07-23T12:43:38Z</time>
      </trkpt>
      <trkpt lat="49.24983" lon="6.14331">
        <ele>193.36</ele>
        <time>2021-07-23T12:43:39Z</time>
      </trkpt>
      <trkpt lat="49.2498" lon="6.1434">
        <ele>193.84</ele>
        <time>2021-07-23T12:43:40Z</time>
      </trkpt>
      <trkpt lat="49.24976" lon="6.14342">
        <ele>194.32</ele>
        <time>2021-07-23T12:43:41Z</time>
      </trkpt>
      <trkpt lat="49.2497" lon="6.14345">
        <ele>194.32</ele>
        <time>2021-07-23T12:43:42Z</time>
      </trkpt>
      <trkpt lat="49.24957" lon="6.14352">
        <ele>194.8</ele>
        <time>2021-07-23T12:43:44Z</time>
      </trkpt>
      <trkpt lat="49.24952" lon="6.14357">
        <ele>194.8</ele>
        <time>2021-07-23T12:43:45Z</time>
      </trkpt>
      <trkpt lat="49.24946" lon="6.14367">
        <ele>194.32</ele>
        <time>2021-07-23T12:43:46Z</time>
      </trkpt>
      <trkpt lat="49.2494" lon="6.14389">
        <ele>194.32</ele>
        <time>2021-07-23T12:43:47Z</time>
      </trkpt>
      <trkpt lat="49.2494" lon="6.14389">
        <ele>193.84</ele>
        <time>2021-07-23T12:43:48Z</time>
      </trkpt>
      <trkpt lat="49.24926" lon="6.14453">
        <ele>192.88</ele>
        <time>2021-07-23T12:43:53Z</time>
      </trkpt>
      <trkpt lat="49.24913" lon="6.14475">
        <ele>193.36</ele>
        <time>2021-07-23T12:43:54Z</time>
      </trkpt>
      <trkpt lat="49.24913" lon="6.14475">
        <ele>191.92</ele>
        <time>2021-07-23T12:43:55Z</time>
      </trkpt>
      <trkpt lat="49.24905" lon="6.14488">
        <ele>190.48</ele>
        <time>2021-07-23T12:43:56Z</time>
      </trkpt>
      <trkpt lat="49.24897" lon="6.145">
        <ele>189.04</ele>
        <time>2021-07-23T12:43:57Z</time>
      </trkpt>
      <trkpt lat="49.24886" lon="6.14508">
        <ele>188.08</ele>
        <time>2021-07-23T12:43:58Z</time>
      </trkpt>
      <trkpt lat="49.24875" lon="6.14516">
        <ele>187.59</ele>
        <time>2021-07-23T12:43:59Z</time>
      </trkpt>
      <trkpt lat="49.24763" lon="6.14559">
        <ele>179.9</ele>
        <time>2021-07-23T12:44:07Z</time>
      </trkpt>
      <trkpt lat="49.24587" lon="6.14552">
        <ele>188.56</ele>
        <time>2021-07-23T12:44:18Z</time>
      </trkpt>
      <trkpt lat="49.24488" lon="6.14492">
        <ele>189.04</ele>
        <time>2021-07-23T12:44:26Z</time>
      </trkpt>
      <trkpt lat="49.24388" lon="6.14437">
        <ele>192.88</ele>
        <time>2021-07-23T12:44:34Z</time>
      </trkpt>
      <trkpt lat="49.24373" lon="6.14434">
        <ele>191.92</ele>
        <time>2021-07-23T12:44:36Z</time>
      </trkpt>
      <trkpt lat="49.24367" lon="6.14434">
        <ele>191.44</ele>
        <time>2021-07-23T12:44:37Z</time>
      </trkpt>
      <trkpt lat="49.24359" lon="6.14423">
        <ele>190.48</ele>
        <time>2021-07-23T12:44:38Z</time>
      </trkpt>
      <trkpt lat="49.24347" lon="6.14399">
        <ele>190.48</ele>
        <time>2021-07-23T12:44:41Z</time>
      </trkpt>
      <trkpt lat="49.2434" lon="6.14393">
        <ele>190.48</ele>
        <time>2021-07-23T12:44:42Z</time>
      </trkpt>
      <trkpt lat="49.24331" lon="6.14393">
        <ele>190.48</ele>
        <time>2021-07-23T12:44:43Z</time>
      </trkpt>
      <trkpt lat="49.24322" lon="6.14394">
        <ele>189.04</ele>
        <time>2021-07-23T12:44:44Z</time>
      </trkpt>
      <trkpt lat="49.24315" lon="6.14395">
        <ele>187.59</ele>
        <time>2021-07-23T12:44:45Z</time>
      </trkpt>
      <trkpt lat="49.24308" lon="6.1441">
        <ele>187.11</ele>
        <time>2021-07-23T12:44:46Z</time>
      </trkpt>
      <trkpt lat="49.24297" lon="6.14419">
        <ele>187.11</ele>
        <time>2021-07-23T12:44:47Z</time>
      </trkpt>
      <trkpt lat="49.24277" lon="6.14422">
        <ele>186.63</ele>
        <time>2021-07-23T12:44:48Z</time>
      </trkpt>
      <trkpt lat="49.24277" lon="6.14422">
        <ele>186.15</ele>
        <time>2021-07-23T12:44:49Z</time>
      </trkpt>
      <trkpt lat="49.24103" lon="6.14445">
        <ele>183.27</ele>
        <time>2021-07-23T12:45:04Z</time>
      </trkpt>
      <trkpt lat="49.23837" lon="6.1448">
        <ele>177.5</ele>
        <time>2021-07-23T12:45:22Z</time>
      </trkpt>
      <trkpt lat="49.23619" lon="6.14506">
        <ele>173.66</ele>
        <time>2021-07-23T12:45:35Z</time>
      </trkpt>
      <trkpt lat="49.23367" lon="6.14535">
        <ele>172.69</ele>
        <time>2021-07-23T12:45:49Z</time>
      </trkpt>
      <trkpt lat="49.2331" lon="6.14537">
        <ele>174.14</ele>
        <time>2021-07-23T12:45:55Z</time>
      </trkpt>
      <trkpt lat="49.23304" lon="6.14535">
        <ele>174.14</ele>
        <time>2021-07-23T12:45:56Z</time>
      </trkpt>
      <trkpt lat="49.23299" lon="6.14529">
        <ele>174.14</ele>
        <time>2021-07-23T12:45:57Z</time>
      </trkpt>
      <trkpt lat="49.23296" lon="6.14522">
        <ele>174.14</ele>
        <time>2021-07-23T12:45:58Z</time>
      </trkpt>
      <trkpt lat="49.23292" lon="6.14514">
        <ele>174.14</ele>
        <time>2021-07-23T12:45:59Z</time>
      </trkpt>
      <trkpt lat="49.23283" lon="6.14507">
        <ele>174.14</ele>
        <time>2021-07-23T12:46:00Z</time>
      </trkpt>
      <trkpt lat="49.23276" lon="6.14506">
        <ele>174.14</ele>
        <time>2021-07-23T12:46:01Z</time>
      </trkpt>
      <trkpt lat="49.23269" lon="6.14504">
        <ele>174.14</ele>
        <time>2021-07-23T12:46:02Z</time>
      </trkpt>
      <trkpt lat="49.23262" lon="6.14506">
        <ele>173.66</ele>
        <time>2021-07-23T12:46:03Z</time>
      </trkpt>
      <trkpt lat="49.23255" lon="6.1451">
        <ele>173.17</ele>
        <time>2021-07-23T12:46:04Z</time>
      </trkpt>
      <trkpt lat="49.23246" lon="6.14525">
        <ele>173.17</ele>
        <time>2021-07-23T12:46:05Z</time>
      </trkpt>
      <trkpt lat="49.23243" lon="6.14535">
        <ele>173.17</ele>
        <time>2021-07-23T12:46:06Z</time>
      </trkpt>
      <trkpt lat="49.23243" lon="6.14535">
        <ele>172.69</ele>
        <time>2021-07-23T12:46:07Z</time>
      </trkpt>
      <trkpt lat="49.23241" lon="6.14545">
        <ele>172.21</ele>
        <time>2021-07-23T12:46:08Z</time>
      </trkpt>
      <trkpt lat="49.23229" lon="6.14549">
        <ele>172.21</ele>
        <time>2021-07-23T12:46:09Z</time>
      </trkpt>
      <trkpt lat="49.23222" lon="6.1455">
        <ele>172.21</ele>
        <time>2021-07-23T12:46:10Z</time>
      </trkpt>
      <trkpt lat="49.23214" lon="6.14551">
        <ele>172.21</ele>
        <time>2021-07-23T12:46:11Z</time>
      </trkpt>
      <trkpt lat="49.23206" lon="6.14552">
        <ele>173.17</ele>
        <time>2021-07-23T12:46:12Z</time>
      </trkpt>
      <trkpt lat="49.23093" lon="6.14568">
        <ele>171.73</ele>
        <time>2021-07-23T12:46:21Z</time>
      </trkpt>
      <trkpt lat="49.22917" lon="6.14588">
        <ele>172.69</ele>
        <time>2021-07-23T12:46:31Z</time>
      </trkpt>
      <trkpt lat="49.22621" lon="6.14619">
        <ele>173.17</ele>
        <time>2021-07-23T12:46:46Z</time>
      </trkpt>
      <trkpt lat="49.22276" lon="6.14674">
        <ele>172.21</ele>
        <time>2021-07-23T12:47:02Z</time>
      </trkpt>
      <trkpt lat="49.22108" lon="6.14731">
        <ele>173.66</ele>
        <time>2021-07-23T12:47:11Z</time>
      </trkpt>
      <trkpt lat="49.22071" lon="6.14737">
        <ele>175.1</ele>
        <time>2021-07-23T12:47:15Z</time>
      </trkpt>
      <trkpt lat="49.22064" lon="6.14738">
        <ele>176.06</ele>
        <time>2021-07-23T12:47:16Z</time>
      </trkpt>
      <trkpt lat="49.22057" lon="6.14739">
        <ele>176.54</ele>
        <time>2021-07-23T12:47:17Z</time>
      </trkpt>
      <trkpt lat="49.22037" lon="6.14716">
        <ele>177.5</ele>
        <time>2021-07-23T12:47:20Z</time>
      </trkpt>
      <trkpt lat="49.22022" lon="6.14714">
        <ele>177.98</ele>
        <time>2021-07-23T12:47:21Z</time>
      </trkpt>
      <trkpt lat="49.22022" lon="6.14714">
        <ele>177.98</ele>
        <time>2021-07-23T12:47:22Z</time>
      </trkpt>
      <trkpt lat="49.22014" lon="6.14716">
        <ele>177.98</ele>
        <time>2021-07-23T12:47:23Z</time>
      </trkpt>
      <trkpt lat="49.22006" lon="6.14717">
        <ele>177.5</ele>
        <time>2021-07-23T12:47:24Z</time>
      </trkpt>
      <trkpt lat="49.21999" lon="6.14717">
        <ele>177.02</ele>
        <time>2021-07-23T12:47:25Z</time>
      </trkpt>
      <trkpt lat="49.21986" lon="6.14715">
        <ele>176.54</ele>
        <time>2021-07-23T12:47:26Z</time>
      </trkpt>
      <trkpt lat="49.21986" lon="6.14715">
        <ele>176.54</ele>
        <time>2021-07-23T12:47:27Z</time>
      </trkpt>
      <trkpt lat="49.21917" lon="6.14716">
        <ele>177.02</ele>
        <time>2021-07-23T12:47:37Z</time>
      </trkpt>
      <trkpt lat="49.21821" lon="6.14729">
        <ele>175.58</ele>
        <time>2021-07-23T12:47:46Z</time>
      </trkpt>
      <trkpt lat="49.21808" lon="6.14729">
        <ele>175.58</ele>
        <time>2021-07-23T12:47:48Z</time>
      </trkpt>
      <trkpt lat="49.21803" lon="6.1473">
        <ele>176.06</ele>
        <time>2021-07-23T12:47:49Z</time>
      </trkpt>
      <trkpt lat="49.21795" lon="6.14724">
        <ele>176.06</ele>
        <time>2021-07-23T12:47:50Z</time>
      </trkpt>
      <trkpt lat="49.21794" lon="6.14719">
        <ele>175.58</ele>
        <time>2021-07-23T12:47:51Z</time>
      </trkpt>
      <trkpt lat="49.21794" lon="6.14716">
        <ele>175.58</ele>
        <time>2021-07-23T12:47:52Z</time>
      </trkpt>
      <trkpt lat="49.21794" lon="6.14716">
        <ele>176.06</ele>
        <time>2021-07-23T12:48:04Z</time>
      </trkpt>
      <trkpt lat="49.21794" lon="6.14716">
        <ele>176.06</ele>
        <time>2021-07-23T12:48:05Z</time>
      </trkpt>
      <trkpt lat="49.21794" lon="6.14696">
        <ele>176.06</ele>
        <time>2021-07-23T12:48:06Z</time>
      </trkpt>
      <trkpt lat="49.21794" lon="6.14696">
        <ele>176.06</ele>
        <time>2021-07-23T12:48:07Z</time>
      </trkpt>
      <trkpt lat="49.21795" lon="6.1473">
        <ele>176.06</ele>
        <time>2021-07-23T12:48:08Z</time>
      </trkpt>
      <trkpt lat="49.21794" lon="6.14717">
        <ele>175.58</ele>
        <time>2021-07-23T12:48:09Z</time>
      </trkpt>
      <trkpt lat="49.21795" lon="6.14721">
        <ele>175.58</ele>
        <time>2021-07-23T12:48:10Z</time>
      </trkpt>
      <trkpt lat="49.21795" lon="6.14723">
        <ele>175.58</ele>
        <time>2021-07-23T12:48:11Z</time>
      </trkpt>
      <trkpt lat="49.21797" lon="6.1473">
        <ele>175.58</ele>
        <time>2021-07-23T12:48:12Z</time>
      </trkpt>
      <trkpt lat="49.21798" lon="6.1473">
        <ele>175.58</ele>
        <time>2021-07-23T12:48:13Z</time>
      </trkpt>
      <trkpt lat="49.218" lon="6.1473">
        <ele>175.1</ele>
        <time>2021-07-23T12:48:14Z</time>
      </trkpt>
      <trkpt lat="49.21807" lon="6.1473">
        <ele>175.58</ele>
        <time>2021-07-23T12:48:31Z</time>
      </trkpt>
      <trkpt lat="49.21811" lon="6.14729">
        <ele>175.58</ele>
        <time>2021-07-23T12:48:32Z</time>
      </trkpt>
      <trkpt lat="49.21817" lon="6.14729">
        <ele>175.58</ele>
        <time>2021-07-23T12:48:33Z</time>
      </trkpt>
      <trkpt lat="49.21823" lon="6.14729">
        <ele>175.58</ele>
        <time>2021-07-23T12:48:34Z</time>
      </trkpt>
      <trkpt lat="49.21823" lon="6.14729">
        <ele>176.06</ele>
        <time>2021-07-23T12:48:35Z</time>
      </trkpt>
      <trkpt lat="49.21918" lon="6.14715">
        <ele>176.54</ele>
        <time>2021-07-23T12:48:44Z</time>
      </trkpt>
      <trkpt lat="49.21958" lon="6.14715">
        <ele>176.54</ele>
        <time>2021-07-23T12:48:48Z</time>
      </trkpt>
      <trkpt lat="49.21963" lon="6.14715">
        <ele>176.54</ele>
        <time>2021-07-23T12:48:49Z</time>
      </trkpt>
      <trkpt lat="49.21968" lon="6.14725">
        <ele>176.06</ele>
        <time>2021-07-23T12:48:50Z</time>
      </trkpt>
      <trkpt lat="49.21972" lon="6.14732">
        <ele>175.58</ele>
        <time>2021-07-23T12:48:51Z</time>
      </trkpt>
      <trkpt lat="49.21977" lon="6.14739">
        <ele>175.1</ele>
        <time>2021-07-23T12:48:52Z</time>
      </trkpt>
      <trkpt lat="49.21981" lon="6.14748">
        <ele>175.1</ele>
        <time>2021-07-23T12:48:53Z</time>
      </trkpt>
      <trkpt lat="49.21984" lon="6.14757">
        <ele>175.1</ele>
        <time>2021-07-23T12:48:54Z</time>
      </trkpt>
      <trkpt lat="49.21982" lon="6.14769">
        <ele>174.62</ele>
        <time>2021-07-23T12:48:55Z</time>
      </trkpt>
      <trkpt lat="49.21976" lon="6.14777">
        <ele>174.62</ele>
        <time>2021-07-23T12:48:56Z</time>
      </trkpt>
      <trkpt lat="49.21968" lon="6.14785">
        <ele>174.14</ele>
        <time>2021-07-23T12:48:57Z</time>
      </trkpt>
      <trkpt lat="49.21959" lon="6.14791">
        <ele>173.66</ele>
        <time>2021-07-23T12:48:58Z</time>
      </trkpt>
      <trkpt lat="49.21949" lon="6.14797">
        <ele>173.66</ele>
        <time>2021-07-23T12:48:59Z</time>
      </trkpt>
      <trkpt lat="49.21938" lon="6.14802">
        <ele>172.69</ele>
        <time>2021-07-23T12:49:00Z</time>
      </trkpt>
      <trkpt lat="49.21773" lon="6.14838">
        <ele>172.69</ele>
        <time>2021-07-23T12:49:12Z</time>
      </trkpt>
      <trkpt lat="49.21605" lon="6.14911">
        <ele>172.69</ele>
        <time>2021-07-23T12:49:23Z</time>
      </trkpt>
      <trkpt lat="49.2146" lon="6.1503">
        <ele>170.29</ele>
        <time>2021-07-23T12:49:32Z</time>
      </trkpt>
      <trkpt lat="49.21313" lon="6.15098">
        <ele>169.33</ele>
        <time>2021-07-23T12:49:40Z</time>
      </trkpt>
      <trkpt lat="49.21151" lon="6.15093">
        <ele>172.21</ele>
        <time>2021-07-23T12:49:48Z</time>
      </trkpt>
      <trkpt lat="49.20958" lon="6.15034">
        <ele>179.42</ele>
        <time>2021-07-23T12:49:58Z</time>
      </trkpt>
      <trkpt lat="49.20734" lon="6.14897">
        <ele>177.98</ele>
        <time>2021-07-23T12:50:10Z</time>
      </trkpt>
      <trkpt lat="49.20524" lon="6.14762">
        <ele>180.38</ele>
        <time>2021-07-23T12:50:21Z</time>
      </trkpt>
      <trkpt lat="49.2023" lon="6.14628">
        <ele>183.75</ele>
        <time>2021-07-23T12:50:36Z</time>
      </trkpt>
      <trkpt lat="49.20087" lon="6.14556">
        <ele>186.15</ele>
        <time>2021-07-23T12:50:46Z</time>
      </trkpt>
      <trkpt lat="49.20036" lon="6.14522">
        <ele>186.63</ele>
        <time>2021-07-23T12:50:52Z</time>
      </trkpt>
      <trkpt lat="49.20032" lon="6.14517">
        <ele>186.15</ele>
        <time>2021-07-23T12:50:53Z</time>
      </trkpt>
      <trkpt lat="49.20029" lon="6.1451">
        <ele>185.19</ele>
        <time>2021-07-23T12:50:54Z</time>
      </trkpt>
      <trkpt lat="49.20026" lon="6.14502">
        <ele>184.71</ele>
        <time>2021-07-23T12:50:55Z</time>
      </trkpt>
      <trkpt lat="49.20023" lon="6.14494">
        <ele>184.71</ele>
        <time>2021-07-23T12:50:56Z</time>
      </trkpt>
      <trkpt lat="49.2002" lon="6.14471">
        <ele>184.71</ele>
        <time>2021-07-23T12:50:57Z</time>
      </trkpt>
      <trkpt lat="49.2002" lon="6.14471">
        <ele>184.71</ele>
        <time>2021-07-23T12:50:58Z</time>
      </trkpt>
      <trkpt lat="49.20015" lon="6.14445">
        <ele>184.71</ele>
        <time>2021-07-23T12:50:59Z</time>
      </trkpt>
      <trkpt lat="49.2001" lon="6.14434">
        <ele>184.71</ele>
        <time>2021-07-23T12:51:00Z</time>
      </trkpt>
      <trkpt lat="49.20004" lon="6.14424">
        <ele>184.71</ele>
        <time>2021-07-23T12:51:01Z</time>
      </trkpt>
      <trkpt lat="49.19998" lon="6.14414">
        <ele>184.71</ele>
        <time>2021-07-23T12:51:02Z</time>
      </trkpt>
      <trkpt lat="49.19991" lon="6.14402">
        <ele>184.71</ele>
        <time>2021-07-23T12:51:04Z</time>
      </trkpt>
      <trkpt lat="49.19992" lon="6.14385">
        <ele>184.71</ele>
        <time>2021-07-23T12:51:05Z</time>
      </trkpt>
      <trkpt lat="49.19993" lon="6.14374">
        <ele>184.71</ele>
        <time>2021-07-23T12:51:06Z</time>
      </trkpt>
      <trkpt lat="49.19993" lon="6.14374">
        <ele>184.71</ele>
        <time>2021-07-23T12:51:07Z</time>
      </trkpt>
      <trkpt lat="49.19997" lon="6.14353">
        <ele>184.71</ele>
        <time>2021-07-23T12:51:08Z</time>
      </trkpt>
      <trkpt lat="49.19997" lon="6.14353">
        <ele>184.71</ele>
        <time>2021-07-23T12:51:09Z</time>
      </trkpt>
      <trkpt lat="49.20002" lon="6.14342">
        <ele>185.19</ele>
        <time>2021-07-23T12:51:10Z</time>
      </trkpt>
      <trkpt lat="49.20072" lon="6.14218">
        <ele>179.42</ele>
        <time>2021-07-23T12:51:18Z</time>
      </trkpt>
      <trkpt lat="49.20175" lon="6.14074">
        <ele>178.94</ele>
        <time>2021-07-23T12:51:26Z</time>
      </trkpt>
      <trkpt lat="49.20394" lon="6.13839">
        <ele>182.31</ele>
        <time>2021-07-23T12:51:40Z</time>
      </trkpt>
      <trkpt lat="49.20547" lon="6.13615">
        <ele>184.71</ele>
        <time>2021-07-23T12:51:50Z</time>
      </trkpt>
      <trkpt lat="49.2066" lon="6.13331">
        <ele>190.48</ele>
        <time>2021-07-23T12:51:59Z</time>
      </trkpt>
      <trkpt lat="49.20709" lon="6.13074">
        <ele>190.96</ele>
        <time>2021-07-23T12:52:08Z</time>
      </trkpt>
      <trkpt lat="49.20724" lon="6.12781">
        <ele>193.36</ele>
        <time>2021-07-23T12:52:16Z</time>
      </trkpt>
      <trkpt lat="49.20688" lon="6.12473">
        <ele>197.21</ele>
        <time>2021-07-23T12:52:24Z</time>
      </trkpt>
      <trkpt lat="49.20587" lon="6.12063">
        <ele>204.9</ele>
        <time>2021-07-23T12:52:35Z</time>
      </trkpt>
      <trkpt lat="49.20482" lon="6.1156">
        <ele>215.47</ele>
        <time>2021-07-23T12:52:49Z</time>
      </trkpt>
      <trkpt lat="49.2039" lon="6.11219">
        <ele>220.28</ele>
        <time>2021-07-23T12:52:59Z</time>
      </trkpt>
      <trkpt lat="49.20258" lon="6.10911">
        <ele>226.53</ele>
        <time>2021-07-23T12:53:09Z</time>
      </trkpt>
      <trkpt lat="49.20171" lon="6.10623">
        <ele>227.97</ele>
        <time>2021-07-23T12:53:18Z</time>
      </trkpt>
      <trkpt lat="49.20076" lon="6.10414">
        <ele>234.7</ele>
        <time>2021-07-23T12:53:25Z</time>
      </trkpt>
      <trkpt lat="49.19904" lon="6.10147">
        <ele>243.83</ele>
        <time>2021-07-23T12:53:35Z</time>
      </trkpt>
      <trkpt lat="49.19802" lon="6.09883">
        <ele>252</ele>
        <time>2021-07-23T12:53:43Z</time>
      </trkpt>
      <trkpt lat="49.19689" lon="6.09623">
        <ele>258.25</ele>
        <time>2021-07-23T12:53:51Z</time>
      </trkpt>
      <trkpt lat="49.19544" lon="6.09446">
        <ele>262.1</ele>
        <time>2021-07-23T12:53:58Z</time>
      </trkpt>
      <trkpt lat="49.19349" lon="6.09229">
        <ele>264.5</ele>
        <time>2021-07-23T12:54:07Z</time>
      </trkpt>
      <trkpt lat="49.19226" lon="6.08981">
        <ele>271.23</ele>
        <time>2021-07-23T12:54:15Z</time>
      </trkpt>
      <trkpt lat="49.19071" lon="6.08652">
        <ele>279.88</ele>
        <time>2021-07-23T12:54:26Z</time>
      </trkpt>
      <trkpt lat="49.18935" lon="6.0849">
        <ele>285.65</ele>
        <time>2021-07-23T12:54:33Z</time>
      </trkpt>
      <trkpt lat="49.18734" lon="6.08335">
        <ele>289.49</ele>
        <time>2021-07-23T12:54:42Z</time>
      </trkpt>
      <trkpt lat="49.1859" lon="6.08173">
        <ele>292.38</ele>
        <time>2021-07-23T12:54:49Z</time>
      </trkpt>
      <trkpt lat="49.18491" lon="6.07962">
        <ele>295.26</ele>
        <time>2021-07-23T12:54:56Z</time>
      </trkpt>
      <trkpt lat="49.18434" lon="6.07715">
        <ele>300.55</ele>
        <time>2021-07-23T12:55:03Z</time>
      </trkpt>
      <trkpt lat="49.18415" lon="6.07365">
        <ele>307.76</ele>
        <time>2021-07-23T12:55:12Z</time>
      </trkpt>
      <trkpt lat="49.18384" lon="6.07052">
        <ele>312.57</ele>
        <time>2021-07-23T12:55:20Z</time>
      </trkpt>
      <trkpt lat="49.18282" lon="6.06726">
        <ele>316.41</ele>
        <time>2021-07-23T12:55:28Z</time>
      </trkpt>
      <trkpt lat="49.18101" lon="6.06178">
        <ele>327.47</ele>
        <time>2021-07-23T12:55:44Z</time>
      </trkpt>
      <trkpt lat="49.18053" lon="6.05861">
        <ele>328.43</ele>
        <time>2021-07-23T12:55:52Z</time>
      </trkpt>
      <trkpt lat="49.17988" lon="6.05222">
        <ele>326.02</ele>
        <time>2021-07-23T12:56:08Z</time>
      </trkpt>
      <trkpt lat="49.17918" lon="6.04498">
        <ele>320.74</ele>
        <time>2021-07-23T12:56:26Z</time>
      </trkpt>
      <trkpt lat="49.17935" lon="6.04174">
        <ele>317.85</ele>
        <time>2021-07-23T12:56:34Z</time>
      </trkpt>
      <trkpt lat="49.18016" lon="6.0374">
        <ele>316.41</ele>
        <time>2021-07-23T12:56:45Z</time>
      </trkpt>
      <trkpt lat="49.18122" lon="6.0318">
        <ele>323.14</ele>
        <time>2021-07-23T12:57:00Z</time>
      </trkpt>
      <trkpt lat="49.1816" lon="6.02752">
        <ele>323.14</ele>
        <time>2021-07-23T12:57:11Z</time>
      </trkpt>
      <trkpt lat="49.18178" lon="6.02184">
        <ele>314.01</ele>
        <time>2021-07-23T12:57:25Z</time>
      </trkpt>
      <trkpt lat="49.18217" lon="6.01559">
        <ele>303.91</ele>
        <time>2021-07-23T12:57:41Z</time>
      </trkpt>
      <trkpt lat="49.18304" lon="6.01032">
        <ele>293.34</ele>
        <time>2021-07-23T12:57:55Z</time>
      </trkpt>
      <trkpt lat="49.18433" lon="6.00568">
        <ele>284.69</ele>
        <time>2021-07-23T12:58:08Z</time>
      </trkpt>
      <trkpt lat="49.18616" lon="6.00104">
        <ele>278.44</ele>
        <time>2021-07-23T12:58:22Z</time>
      </trkpt>
      <trkpt lat="49.18832" lon="5.99705">
        <ele>268.83</ele>
        <time>2021-07-23T12:58:34Z</time>
      </trkpt>
      <trkpt lat="49.1905" lon="5.99405">
        <ele>255.37</ele>
        <time>2021-07-23T12:58:46Z</time>
      </trkpt>
      <trkpt lat="49.19284" lon="5.99144">
        <ele>248.64</ele>
        <time>2021-07-23T12:58:57Z</time>
      </trkpt>
      <trkpt lat="49.19522" lon="5.98873">
        <ele>241.43</ele>
        <time>2021-07-23T12:59:09Z</time>
      </trkpt>
      <trkpt lat="49.19669" lon="5.98617">
        <ele>236.62</ele>
        <time>2021-07-23T12:59:18Z</time>
      </trkpt>
      <trkpt lat="49.19779" lon="5.98309">
        <ele>230.85</ele>
        <time>2021-07-23T12:59:27Z</time>
      </trkpt>
      <trkpt lat="49.19843" lon="5.97996">
        <ele>227.97</ele>
        <time>2021-07-23T12:59:35Z</time>
      </trkpt>
      <trkpt lat="49.19922" lon="5.97476">
        <ele>228.45</ele>
        <time>2021-07-23T12:59:48Z</time>
      </trkpt>
      <trkpt lat="49.20032" lon="5.97128">
        <ele>231.33</ele>
        <time>2021-07-23T12:59:58Z</time>
      </trkpt>
      <trkpt lat="49.20251" lon="5.96492">
        <ele>227.97</ele>
        <time>2021-07-23T13:00:17Z</time>
      </trkpt>
      <trkpt lat="49.20348" lon="5.96082">
        <ele>224.12</ele>
        <time>2021-07-23T13:00:28Z</time>
      </trkpt>
      <trkpt lat="49.20395" lon="5.95679">
        <ele>221.24</ele>
        <time>2021-07-23T13:00:38Z</time>
      </trkpt>
      <trkpt lat="49.20414" lon="5.94969">
        <ele>209.7</ele>
        <time>2021-07-23T13:00:55Z</time>
      </trkpt>
      <trkpt lat="49.20371" lon="5.94648">
        <ele>203.46</ele>
        <time>2021-07-23T13:01:03Z</time>
      </trkpt>
      <trkpt lat="49.20289" lon="5.94378">
        <ele>195.28</ele>
        <time>2021-07-23T13:01:10Z</time>
      </trkpt>
      <trkpt lat="49.20077" lon="5.93933">
        <ele>195.77</ele>
        <time>2021-07-23T13:01:23Z</time>
      </trkpt>
      <trkpt lat="49.1999" lon="5.93683">
        <ele>199.61</ele>
        <time>2021-07-23T13:01:30Z</time>
      </trkpt>
      <trkpt lat="49.19952" lon="5.93365">
        <ele>203.46</ele>
        <time>2021-07-23T13:01:38Z</time>
      </trkpt>
      <trkpt lat="49.19924" lon="5.92958">
        <ele>208.26</ele>
        <time>2021-07-23T13:01:49Z</time>
      </trkpt>
      <trkpt lat="49.19914" lon="5.92703">
        <ele>208.74</ele>
        <time>2021-07-23T13:01:57Z</time>
      </trkpt>
      <trkpt lat="49.19909" lon="5.92494">
        <ele>210.19</ele>
        <time>2021-07-23T13:02:08Z</time>
      </trkpt>
      <trkpt lat="49.19908" lon="5.92463">
        <ele>210.19</ele>
        <time>2021-07-23T13:02:14Z</time>
      </trkpt>
      <trkpt lat="49.19907" lon="5.92434">
        <ele>209.7</ele>
        <time>2021-07-23T13:02:23Z</time>
      </trkpt>
      <trkpt lat="49.19904" lon="5.92406">
        <ele>209.7</ele>
        <time>2021-07-23T13:02:35Z</time>
      </trkpt>
      <trkpt lat="49.199" lon="5.92348">
        <ele>209.22</ele>
        <time>2021-07-23T13:02:42Z</time>
      </trkpt>
      <trkpt lat="49.19883" lon="5.9219">
        <ele>208.74</ele>
        <time>2021-07-23T13:02:51Z</time>
      </trkpt>
      <trkpt lat="49.19863" lon="5.91975">
        <ele>205.86</ele>
        <time>2021-07-23T13:03:00Z</time>
      </trkpt>
      <trkpt lat="49.19838" lon="5.91573">
        <ele>198.65</ele>
        <time>2021-07-23T13:03:12Z</time>
      </trkpt>
      <trkpt lat="49.19846" lon="5.91194">
        <ele>202.49</ele>
        <time>2021-07-23T13:03:23Z</time>
      </trkpt>
      <trkpt lat="49.19882" lon="5.90735">
        <ele>209.7</ele>
        <time>2021-07-23T13:03:38Z</time>
      </trkpt>
      <trkpt lat="49.19885" lon="5.9028">
        <ele>208.26</ele>
        <time>2021-07-23T13:03:51Z</time>
      </trkpt>
      <trkpt lat="49.19841" lon="5.89746">
        <ele>207.3</ele>
        <time>2021-07-23T13:04:05Z</time>
      </trkpt>
      <trkpt lat="49.19753" lon="5.88928">
        <ele>211.63</ele>
        <time>2021-07-23T13:04:26Z</time>
      </trkpt>
      <trkpt lat="49.1972" lon="5.88388">
        <ele>214.99</ele>
        <time>2021-07-23T13:04:40Z</time>
      </trkpt>
      <trkpt lat="49.19689" lon="5.87581">
        <ele>216.43</ele>
        <time>2021-07-23T13:04:59Z</time>
      </trkpt>
      <trkpt lat="49.19613" lon="5.86936">
        <ele>214.51</ele>
        <time>2021-07-23T13:05:15Z</time>
      </trkpt>
      <trkpt lat="49.19513" lon="5.86425">
        <ele>221.72</ele>
        <time>2021-07-23T13:05:30Z</time>
      </trkpt>
      <trkpt lat="49.19347" lon="5.85772">
        <ele>228.93</ele>
        <time>2021-07-23T13:05:49Z</time>
      </trkpt>
      <trkpt lat="49.19177" lon="5.8511">
        <ele>226.05</ele>
        <time>2021-07-23T13:06:07Z</time>
      </trkpt>
      <trkpt lat="49.19059" lon="5.84584">
        <ele>216.43</ele>
        <time>2021-07-23T13:06:19Z</time>
      </trkpt>
      <trkpt lat="49.18994" lon="5.84122">
        <ele>206.34</ele>
        <time>2021-07-23T13:06:31Z</time>
      </trkpt>
      <trkpt lat="49.18954" lon="5.83523">
        <ele>201.53</ele>
        <time>2021-07-23T13:06:45Z</time>
      </trkpt>
      <trkpt lat="49.18909" lon="5.83011">
        <ele>207.78</ele>
        <time>2021-07-23T13:06:57Z</time>
      </trkpt>
      <trkpt lat="49.1881" lon="5.82454">
        <ele>212.59</ele>
        <time>2021-07-23T13:07:10Z</time>
      </trkpt>
      <trkpt lat="49.18703" lon="5.81821">
        <ele>215.95</ele>
        <time>2021-07-23T13:07:25Z</time>
      </trkpt>
      <trkpt lat="49.18629" lon="5.81119">
        <ele>211.63</ele>
        <time>2021-07-23T13:07:41Z</time>
      </trkpt>
      <trkpt lat="49.18541" lon="5.80522">
        <ele>206.82</ele>
        <time>2021-07-23T13:07:55Z</time>
      </trkpt>
      <trkpt lat="49.18403" lon="5.79921">
        <ele>205.38</ele>
        <time>2021-07-23T13:08:09Z</time>
      </trkpt>
      <trkpt lat="49.1819" lon="5.79168">
        <ele>210.19</ele>
        <time>2021-07-23T13:08:30Z</time>
      </trkpt>
      <trkpt lat="49.18015" lon="5.78546">
        <ele>208.74</ele>
        <time>2021-07-23T13:08:47Z</time>
      </trkpt>
      <trkpt lat="49.17829" lon="5.77727">
        <ele>211.15</ele>
        <time>2021-07-23T13:09:09Z</time>
      </trkpt>
      <trkpt lat="49.17653" lon="5.77006">
        <ele>214.03</ele>
        <time>2021-07-23T13:09:29Z</time>
      </trkpt>
      <trkpt lat="49.17486" lon="5.76509">
        <ele>210.67</ele>
        <time>2021-07-23T13:09:42Z</time>
      </trkpt>
      <trkpt lat="49.17266" lon="5.75994">
        <ele>205.86</ele>
        <time>2021-07-23T13:09:58Z</time>
      </trkpt>
      <trkpt lat="49.16992" lon="5.75489">
        <ele>207.78</ele>
        <time>2021-07-23T13:10:14Z</time>
      </trkpt>
      <trkpt lat="49.16707" lon="5.75078">
        <ele>209.22</ele>
        <time>2021-07-23T13:10:29Z</time>
      </trkpt>
      <trkpt lat="49.16217" lon="5.74421">
        <ele>201.05</ele>
        <time>2021-07-23T13:10:53Z</time>
      </trkpt>
      <trkpt lat="49.15835" lon="5.73888">
        <ele>197.69</ele>
        <time>2021-07-23T13:11:13Z</time>
      </trkpt>
      <trkpt lat="49.15569" lon="5.73449">
        <ele>199.61</ele>
        <time>2021-07-23T13:11:27Z</time>
      </trkpt>
      <trkpt lat="49.15286" lon="5.72904">
        <ele>201.53</ele>
        <time>2021-07-23T13:11:46Z</time>
      </trkpt>
      <trkpt lat="49.15048" lon="5.72358">
        <ele>198.65</ele>
        <time>2021-07-23T13:12:02Z</time>
      </trkpt>
      <trkpt lat="49.14817" lon="5.71767">
        <ele>204.9</ele>
        <time>2021-07-23T13:12:19Z</time>
      </trkpt>
      <trkpt lat="49.14547" lon="5.71106">
        <ele>207.3</ele>
        <time>2021-07-23T13:12:38Z</time>
      </trkpt>
      <trkpt lat="49.14276" lon="5.70508">
        <ele>211.63</ele>
        <time>2021-07-23T13:12:56Z</time>
      </trkpt>
      <trkpt lat="49.14008" lon="5.69859">
        <ele>213.55</ele>
        <time>2021-07-23T13:13:15Z</time>
      </trkpt>
      <trkpt lat="49.13782" lon="5.69175">
        <ele>216.43</ele>
        <time>2021-07-23T13:13:34Z</time>
      </trkpt>
      <trkpt lat="49.13569" lon="5.68418">
        <ele>209.7</ele>
        <time>2021-07-23T13:13:54Z</time>
      </trkpt>
      <trkpt lat="49.13365" lon="5.67792">
        <ele>210.19</ele>
        <time>2021-07-23T13:14:11Z</time>
      </trkpt>
      <trkpt lat="49.13111" lon="5.67044">
        <ele>210.67</ele>
        <time>2021-07-23T13:14:32Z</time>
      </trkpt>
      <trkpt lat="49.12974" lon="5.66525">
        <ele>214.03</ele>
        <time>2021-07-23T13:14:46Z</time>
      </trkpt>
      <trkpt lat="49.12883" lon="5.66017">
        <ele>224.12</ele>
        <time>2021-07-23T13:15:00Z</time>
      </trkpt>
      <trkpt lat="49.12822" lon="5.65441">
        <ele>231.81</ele>
        <time>2021-07-23T13:15:16Z</time>
      </trkpt>
      <trkpt lat="49.12797" lon="5.64747">
        <ele>233.26</ele>
        <time>2021-07-23T13:15:34Z</time>
      </trkpt>
      <trkpt lat="49.12757" lon="5.64076">
        <ele>232.78</ele>
        <time>2021-07-23T13:15:51Z</time>
      </trkpt>
      <trkpt lat="49.12695" lon="5.63326">
        <ele>235.66</ele>
        <time>2021-07-23T13:16:10Z</time>
      </trkpt>
      <trkpt lat="49.12688" lon="5.62893">
        <ele>239.02</ele>
        <time>2021-07-23T13:16:22Z</time>
      </trkpt>
      <trkpt lat="49.127" lon="5.62545">
        <ele>241.91</ele>
        <time>2021-07-23T13:16:34Z</time>
      </trkpt>
      <trkpt lat="49.12715" lon="5.62115">
        <ele>238.54</ele>
        <time>2021-07-23T13:16:51Z</time>
      </trkpt>
      <trkpt lat="49.12717" lon="5.62098">
        <ele>239.02</ele>
        <time>2021-07-23T13:16:52Z</time>
      </trkpt>
      <trkpt lat="49.12719" lon="5.6208">
        <ele>238.54</ele>
        <time>2021-07-23T13:16:53Z</time>
      </trkpt>
      <trkpt lat="49.12726" lon="5.62065">
        <ele>238.54</ele>
        <time>2021-07-23T13:16:54Z</time>
      </trkpt>
      <trkpt lat="49.12734" lon="5.6205">
        <ele>237.58</ele>
        <time>2021-07-23T13:16:55Z</time>
      </trkpt>
      <trkpt lat="49.12743" lon="5.62037">
        <ele>237.58</ele>
        <time>2021-07-23T13:16:56Z</time>
      </trkpt>
      <trkpt lat="49.12766" lon="5.62027">
        <ele>237.58</ele>
        <time>2021-07-23T13:16:57Z</time>
      </trkpt>
      <trkpt lat="49.12766" lon="5.62027">
        <ele>237.58</ele>
        <time>2021-07-23T13:16:58Z</time>
      </trkpt>
      <trkpt lat="49.1279" lon="5.62034">
        <ele>235.18</ele>
        <time>2021-07-23T13:16:59Z</time>
      </trkpt>
      <trkpt lat="49.12802" lon="5.62041">
        <ele>234.22</ele>
        <time>2021-07-23T13:17:00Z</time>
      </trkpt>
      <trkpt lat="49.12814" lon="5.62047">
        <ele>233.26</ele>
        <time>2021-07-23T13:17:01Z</time>
      </trkpt>
      <trkpt lat="49.12826" lon="5.62054">
        <ele>233.26</ele>
        <time>2021-07-23T13:17:02Z</time>
      </trkpt>
      <trkpt lat="49.1289" lon="5.62107">
        <ele>233.74</ele>
        <time>2021-07-23T13:17:10Z</time>
      </trkpt>
      <trkpt lat="49.12912" lon="5.62129">
        <ele>232.3</ele>
        <time>2021-07-23T13:17:18Z</time>
      </trkpt>
      <trkpt lat="49.12938" lon="5.62155">
        <ele>232.3</ele>
        <time>2021-07-23T13:17:25Z</time>
      </trkpt>
      <trkpt lat="49.13018" lon="5.62224">
        <ele>230.85</ele>
        <time>2021-07-23T13:17:35Z</time>
      </trkpt>
      <trkpt lat="49.13189" lon="5.62388">
        <ele>219.8</ele>
        <time>2021-07-23T13:17:55Z</time>
      </trkpt>
      <trkpt lat="49.13212" lon="5.62416">
        <ele>218.36</ele>
        <time>2021-07-23T13:17:59Z</time>
      </trkpt>
      <trkpt lat="49.13216" lon="5.62422">
        <ele>218.36</ele>
        <time>2021-07-23T13:18:00Z</time>
      </trkpt>
      <trkpt lat="49.1322" lon="5.62428">
        <ele>217.88</ele>
        <time>2021-07-23T13:18:01Z</time>
      </trkpt>
      <trkpt lat="49.13218" lon="5.62443">
        <ele>217.88</ele>
        <time>2021-07-23T13:18:02Z</time>
      </trkpt>
      <trkpt lat="49.13216" lon="5.6245">
        <ele>217.88</ele>
        <time>2021-07-23T13:18:03Z</time>
      </trkpt>
      <trkpt lat="49.13217" lon="5.62463">
        <ele>217.88</ele>
        <time>2021-07-23T13:18:04Z</time>
      </trkpt>
      <trkpt lat="49.1322" lon="5.6247">
        <ele>217.88</ele>
        <time>2021-07-23T13:18:05Z</time>
      </trkpt>
      <trkpt lat="49.13223" lon="5.62476">
        <ele>217.88</ele>
        <time>2021-07-23T13:18:06Z</time>
      </trkpt>
      <trkpt lat="49.1323" lon="5.62476">
        <ele>217.4</ele>
        <time>2021-07-23T13:18:07Z</time>
      </trkpt>
      <trkpt lat="49.13236" lon="5.62476">
        <ele>216.91</ele>
        <time>2021-07-23T13:18:08Z</time>
      </trkpt>
      <trkpt lat="49.13236" lon="5.62476">
        <ele>216.43</ele>
        <time>2021-07-23T13:18:09Z</time>
      </trkpt>
      <trkpt lat="49.13243" lon="5.62466">
        <ele>215.95</ele>
        <time>2021-07-23T13:18:10Z</time>
      </trkpt>
      <trkpt lat="49.13257" lon="5.62464">
        <ele>215.47</ele>
        <time>2021-07-23T13:18:11Z</time>
      </trkpt>
      <trkpt lat="49.13263" lon="5.62469">
        <ele>214.99</ele>
        <time>2021-07-23T13:18:12Z</time>
      </trkpt>
      <trkpt lat="49.1327" lon="5.62475">
        <ele>214.51</ele>
        <time>2021-07-23T13:18:13Z</time>
      </trkpt>
      <trkpt lat="49.13352" lon="5.62544">
        <ele>209.7</ele>
        <time>2021-07-23T13:18:22Z</time>
      </trkpt>
      <trkpt lat="49.13454" lon="5.62615">
        <ele>209.7</ele>
        <time>2021-07-23T13:18:30Z</time>
      </trkpt>
      <trkpt lat="49.13485" lon="5.62624">
        <ele>208.74</ele>
        <time>2021-07-23T13:18:31Z</time>
      </trkpt>
      <trkpt lat="49.13485" lon="5.62624">
        <ele>208.26</ele>
        <time>2021-07-23T13:18:32Z</time>
      </trkpt>
      <trkpt lat="49.1366" lon="5.62647">
        <ele>208.26</ele>
        <time>2021-07-23T13:18:42Z</time>
      </trkpt>
      <trkpt lat="49.1378" lon="5.62732">
        <ele>208.74</ele>
        <time>2021-07-23T13:18:49Z</time>
      </trkpt>
      <trkpt lat="49.1392" lon="5.62818">
        <ele>206.34</ele>
        <time>2021-07-23T13:18:57Z</time>
      </trkpt>
      <trkpt lat="49.14192" lon="5.62844">
        <ele>206.34</ele>
        <time>2021-07-23T13:19:10Z</time>
      </trkpt>
      <trkpt lat="49.14358" lon="5.62816">
        <ele>207.78</ele>
        <time>2021-07-23T13:19:18Z</time>
      </trkpt>
      <trkpt lat="49.14617" lon="5.62747">
        <ele>220.76</ele>
        <time>2021-07-23T13:19:32Z</time>
      </trkpt>
      <trkpt lat="49.14862" lon="5.62675">
        <ele>222.68</ele>
        <time>2021-07-23T13:19:46Z</time>
      </trkpt>
      <trkpt lat="49.1506" lon="5.62631">
        <ele>213.55</ele>
        <time>2021-07-23T13:19:58Z</time>
      </trkpt>
      <trkpt lat="49.15177" lon="5.62675">
        <ele>213.55</ele>
        <time>2021-07-23T13:20:06Z</time>
      </trkpt>
      <trkpt lat="49.15291" lon="5.62691">
        <ele>208.26</ele>
        <time>2021-07-23T13:20:15Z</time>
      </trkpt>
      <trkpt lat="49.15424" lon="5.62688">
        <ele>208.26</ele>
        <time>2021-07-23T13:20:26Z</time>
      </trkpt>
      <trkpt lat="49.15558" lon="5.62756">
        <ele>205.86</ele>
        <time>2021-07-23T13:20:38Z</time>
      </trkpt>
      <trkpt lat="49.15655" lon="5.62822">
        <ele>204.9</ele>
        <time>2021-07-23T13:20:48Z</time>
      </trkpt>
      <trkpt lat="49.15722" lon="5.62883">
        <ele>203.94</ele>
        <time>2021-07-23T13:20:54Z</time>
      </trkpt>
      <trkpt lat="49.15734" lon="5.62889">
        <ele>204.42</ele>
        <time>2021-07-23T13:20:55Z</time>
      </trkpt>
      <trkpt lat="49.15919" lon="5.62952">
        <ele>206.34</ele>
        <time>2021-07-23T13:21:08Z</time>
      </trkpt>
      <trkpt lat="49.16129" lon="5.63047">
        <ele>210.19</ele>
        <time>2021-07-23T13:21:21Z</time>
      </trkpt>
      <trkpt lat="49.16297" lon="5.63174">
        <ele>212.11</ele>
        <time>2021-07-23T13:21:31Z</time>
      </trkpt>
      <trkpt lat="49.16498" lon="5.63326">
        <ele>215.95</ele>
        <time>2021-07-23T13:21:41Z</time>
      </trkpt>
      <trkpt lat="49.16676" lon="5.63467">
        <ele>218.36</ele>
        <time>2021-07-23T13:21:52Z</time>
      </trkpt>
      <trkpt lat="49.16706" lon="5.63501">
        <ele>217.4</ele>
        <time>2021-07-23T13:21:54Z</time>
      </trkpt>
      <trkpt lat="49.16722" lon="5.6352">
        <ele>216.91</ele>
        <time>2021-07-23T13:21:55Z</time>
      </trkpt>
      <trkpt lat="49.16868" lon="5.63732">
        <ele>213.07</ele>
        <time>2021-07-23T13:22:05Z</time>
      </trkpt>
      <trkpt lat="49.17094" lon="5.64048">
        <ele>209.22</ele>
        <time>2021-07-23T13:22:20Z</time>
      </trkpt>
      <trkpt lat="49.17328" lon="5.64378">
        <ele>211.15</ele>
        <time>2021-07-23T13:22:35Z</time>
      </trkpt>
      <trkpt lat="49.17632" lon="5.64806">
        <ele>208.74</ele>
        <time>2021-07-23T13:22:54Z</time>
      </trkpt>
      <trkpt lat="49.17807" lon="5.65082">
        <ele>212.11</ele>
        <time>2021-07-23T13:23:06Z</time>
      </trkpt>
      <trkpt lat="49.17956" lon="5.65371">
        <ele>213.07</ele>
        <time>2021-07-23T13:23:19Z</time>
      </trkpt>
      <trkpt lat="49.18082" lon="5.65614">
        <ele>211.15</ele>
        <time>2021-07-23T13:23:32Z</time>
      </trkpt>
      <trkpt lat="49.18216" lon="5.6587">
        <ele>202.01</ele>
        <time>2021-07-23T13:23:44Z</time>
      </trkpt>
      <trkpt lat="49.18364" lon="5.66108">
        <ele>200.09</ele>
        <time>2021-07-23T13:23:55Z</time>
      </trkpt>
      <trkpt lat="49.18511" lon="5.66284">
        <ele>200.09</ele>
        <time>2021-07-23T13:24:06Z</time>
      </trkpt>
      <trkpt lat="49.18534" lon="5.66312">
        <ele>200.57</ele>
        <time>2021-07-23T13:24:09Z</time>
      </trkpt>
      <trkpt lat="49.18539" lon="5.66317">
        <ele>200.57</ele>
        <time>2021-07-23T13:24:10Z</time>
      </trkpt>
      <trkpt lat="49.18543" lon="5.66321">
        <ele>201.05</ele>
        <time>2021-07-23T13:24:11Z</time>
      </trkpt>
      <trkpt lat="49.18536" lon="5.6635">
        <ele>201.05</ele>
        <time>2021-07-23T13:24:12Z</time>
      </trkpt>
      <trkpt lat="49.18536" lon="5.6635">
        <ele>201.05</ele>
        <time>2021-07-23T13:24:13Z</time>
      </trkpt>
      <trkpt lat="49.18538" lon="5.66357">
        <ele>200.57</ele>
        <time>2021-07-23T13:24:14Z</time>
      </trkpt>
      <trkpt lat="49.18539" lon="5.66366">
        <ele>200.57</ele>
        <time>2021-07-23T13:24:15Z</time>
      </trkpt>
      <trkpt lat="49.18546" lon="5.66378">
        <ele>200.57</ele>
        <time>2021-07-23T13:24:16Z</time>
      </trkpt>
      <trkpt lat="49.18559" lon="5.66385">
        <ele>200.09</ele>
        <time>2021-07-23T13:24:17Z</time>
      </trkpt>
      <trkpt lat="49.18559" lon="5.66385">
        <ele>200.09</ele>
        <time>2021-07-23T13:24:18Z</time>
      </trkpt>
      <trkpt lat="49.18574" lon="5.66378">
        <ele>200.09</ele>
        <time>2021-07-23T13:24:19Z</time>
      </trkpt>
      <trkpt lat="49.18579" lon="5.66373">
        <ele>199.61</ele>
        <time>2021-07-23T13:24:20Z</time>
      </trkpt>
      <trkpt lat="49.18579" lon="5.66373">
        <ele>199.61</ele>
        <time>2021-07-23T13:24:21Z</time>
      </trkpt>
      <trkpt lat="49.18597" lon="5.6637">
        <ele>200.09</ele>
        <time>2021-07-23T13:24:25Z</time>
      </trkpt>
      <trkpt lat="49.18602" lon="5.66369">
        <ele>200.09</ele>
        <time>2021-07-23T13:24:26Z</time>
      </trkpt>
      <trkpt lat="49.18607" lon="5.66368">
        <ele>200.09</ele>
        <time>2021-07-23T13:24:27Z</time>
      </trkpt>
      <trkpt lat="49.18682" lon="5.66388">
        <ele>201.05</ele>
        <time>2021-07-23T13:24:35Z</time>
      </trkpt>
      <trkpt lat="49.18839" lon="5.66434">
        <ele>206.34</ele>
        <time>2021-07-23T13:24:46Z</time>
      </trkpt>
      <trkpt lat="49.19004" lon="5.6645">
        <ele>207.3</ele>
        <time>2021-07-23T13:24:56Z</time>
      </trkpt>
      <trkpt lat="49.19173" lon="5.66392">
        <ele>206.34</ele>
        <time>2021-07-23T13:25:05Z</time>
      </trkpt>
      <trkpt lat="49.19565" lon="5.66207">
        <ele>206.82</ele>
        <time>2021-07-23T13:25:25Z</time>
      </trkpt>
      <trkpt lat="49.20017" lon="5.65993">
        <ele>214.51</ele>
        <time>2021-07-23T13:25:49Z</time>
      </trkpt>
      <trkpt lat="49.20433" lon="5.65794">
        <ele>214.03</ele>
        <time>2021-07-23T13:26:10Z</time>
      </trkpt>
      <trkpt lat="49.20655" lon="5.65687">
        <ele>217.88</ele>
        <time>2021-07-23T13:26:22Z</time>
      </trkpt>
      <trkpt lat="49.20719" lon="5.65663">
        <ele>218.36</ele>
        <time>2021-07-23T13:26:28Z</time>
      </trkpt>
      <trkpt lat="49.20731" lon="5.65665">
        <ele>218.84</ele>
        <time>2021-07-23T13:26:36Z</time>
      </trkpt>
      <trkpt lat="49.2074" lon="5.65666">
        <ele>219.32</ele>
        <time>2021-07-23T13:26:38Z</time>
      </trkpt>
      <trkpt lat="49.20745" lon="5.65667">
        <ele>219.32</ele>
        <time>2021-07-23T13:26:39Z</time>
      </trkpt>
      <trkpt lat="49.2075" lon="5.65661">
        <ele>219.8</ele>
        <time>2021-07-23T13:26:40Z</time>
      </trkpt>
      <trkpt lat="49.20754" lon="5.65654">
        <ele>220.28</ele>
        <time>2021-07-23T13:26:41Z</time>
      </trkpt>
      <trkpt lat="49.20759" lon="5.65647">
        <ele>219.8</ele>
        <time>2021-07-23T13:26:42Z</time>
      </trkpt>
      <trkpt lat="49.20765" lon="5.6564">
        <ele>219.8</ele>
        <time>2021-07-23T13:26:43Z</time>
      </trkpt>
      <trkpt lat="49.20779" lon="5.65627">
        <ele>219.8</ele>
        <time>2021-07-23T13:26:44Z</time>
      </trkpt>
      <trkpt lat="49.20779" lon="5.65627">
        <ele>219.8</ele>
        <time>2021-07-23T13:26:45Z</time>
      </trkpt>
      <trkpt lat="49.209" lon="5.65557">
        <ele>218.36</ele>
        <time>2021-07-23T13:26:56Z</time>
      </trkpt>
      <trkpt lat="49.21129" lon="5.65432">
        <ele>220.28</ele>
        <time>2021-07-23T13:27:12Z</time>
      </trkpt>
      <trkpt lat="49.21437" lon="5.65262">
        <ele>226.53</ele>
        <time>2021-07-23T13:27:33Z</time>
      </trkpt>
      <trkpt lat="49.21654" lon="5.65141">
        <ele>227.01</ele>
        <time>2021-07-23T13:27:47Z</time>
      </trkpt>
      <trkpt lat="49.21725" lon="5.65103">
        <ele>226.05</ele>
        <time>2021-07-23T13:27:54Z</time>
      </trkpt>
      <trkpt lat="49.21759" lon="5.65101">
        <ele>226.53</ele>
        <time>2021-07-23T13:28:02Z</time>
      </trkpt>
      <trkpt lat="49.21763" lon="5.65102">
        <ele>226.05</ele>
        <time>2021-07-23T13:28:03Z</time>
      </trkpt>
      <trkpt lat="49.21768" lon="5.65103">
        <ele>226.05</ele>
        <time>2021-07-23T13:28:04Z</time>
      </trkpt>
      <trkpt lat="49.21773" lon="5.65096">
        <ele>226.05</ele>
        <time>2021-07-23T13:28:05Z</time>
      </trkpt>
      <trkpt lat="49.21775" lon="5.65089">
        <ele>226.05</ele>
        <time>2021-07-23T13:28:06Z</time>
      </trkpt>
      <trkpt lat="49.21779" lon="5.65081">
        <ele>226.53</ele>
        <time>2021-07-23T13:28:07Z</time>
      </trkpt>
      <trkpt lat="49.21784" lon="5.65071">
        <ele>226.53</ele>
        <time>2021-07-23T13:28:08Z</time>
      </trkpt>
      <trkpt lat="49.21789" lon="5.65061">
        <ele>227.01</ele>
        <time>2021-07-23T13:28:09Z</time>
      </trkpt>
      <trkpt lat="49.21795" lon="5.6505">
        <ele>227.97</ele>
        <time>2021-07-23T13:28:10Z</time>
      </trkpt>
      <trkpt lat="49.21887" lon="5.64955">
        <ele>229.41</ele>
        <time>2021-07-23T13:28:20Z</time>
      </trkpt>
      <trkpt lat="49.22002" lon="5.64837">
        <ele>230.85</ele>
        <time>2021-07-23T13:28:31Z</time>
      </trkpt>
      <trkpt lat="49.22029" lon="5.64813">
        <ele>231.33</ele>
        <time>2021-07-23T13:28:38Z</time>
      </trkpt>
      <trkpt lat="49.22043" lon="5.64807">
        <ele>230.85</ele>
        <time>2021-07-23T13:28:44Z</time>
      </trkpt>
      <trkpt lat="49.22047" lon="5.64805">
        <ele>230.85</ele>
        <time>2021-07-23T13:28:45Z</time>
      </trkpt>
      <trkpt lat="49.22051" lon="5.64803">
        <ele>230.85</ele>
        <time>2021-07-23T13:28:46Z</time>
      </trkpt>
      <trkpt lat="49.22055" lon="5.64803">
        <ele>230.85</ele>
        <time>2021-07-23T13:28:47Z</time>
      </trkpt>
      <trkpt lat="49.2206" lon="5.64803">
        <ele>230.85</ele>
        <time>2021-07-23T13:28:48Z</time>
      </trkpt>
      <trkpt lat="49.2207" lon="5.64805">
        <ele>230.85</ele>
        <time>2021-07-23T13:28:49Z</time>
      </trkpt>
      <trkpt lat="49.22075" lon="5.64795">
        <ele>231.33</ele>
        <time>2021-07-23T13:28:50Z</time>
      </trkpt>
      <trkpt lat="49.22075" lon="5.64795">
        <ele>231.33</ele>
        <time>2021-07-23T13:28:51Z</time>
      </trkpt>
      <trkpt lat="49.22079" lon="5.64788">
        <ele>230.85</ele>
        <time>2021-07-23T13:28:52Z</time>
      </trkpt>
      <trkpt lat="49.22081" lon="5.64783">
        <ele>230.85</ele>
        <time>2021-07-23T13:28:53Z</time>
      </trkpt>
      <trkpt lat="49.2208" lon="5.64776">
        <ele>229.89</ele>
        <time>2021-07-23T13:28:54Z</time>
      </trkpt>
      <trkpt lat="49.22077" lon="5.64767">
        <ele>229.41</ele>
        <time>2021-07-23T13:28:55Z</time>
      </trkpt>
      <trkpt lat="49.22075" lon="5.64758">
        <ele>228.93</ele>
        <time>2021-07-23T13:28:56Z</time>
      </trkpt>
      <trkpt lat="49.22072" lon="5.64754">
        <ele>228.93</ele>
        <time>2021-07-23T13:28:57Z</time>
      </trkpt>
      <trkpt lat="49.22065" lon="5.64752">
        <ele>228.45</ele>
        <time>2021-07-23T13:28:58Z</time>
      </trkpt>
      <trkpt lat="49.22058" lon="5.64749">
        <ele>228.45</ele>
        <time>2021-07-23T13:28:59Z</time>
      </trkpt>
      <trkpt lat="49.22051" lon="5.64745">
        <ele>227.97</ele>
        <time>2021-07-23T13:29:00Z</time>
      </trkpt>
      <trkpt lat="49.22044" lon="5.64742">
        <ele>227.49</ele>
        <time>2021-07-23T13:29:01Z</time>
      </trkpt>
      <trkpt lat="49.22029" lon="5.64733">
        <ele>227.01</ele>
        <time>2021-07-23T13:29:02Z</time>
      </trkpt>
      <trkpt lat="49.22022" lon="5.64725">
        <ele>226.53</ele>
        <time>2021-07-23T13:29:03Z</time>
      </trkpt>
      <trkpt lat="49.21916" lon="5.64583">
        <ele>221.24</ele>
        <time>2021-07-23T13:29:16Z</time>
      </trkpt>
      <trkpt lat="49.21795" lon="5.64426">
        <ele>219.32</ele>
        <time>2021-07-23T13:29:32Z</time>
      </trkpt>
      <trkpt lat="49.21734" lon="5.64345">
        <ele>217.4</ele>
        <time>2021-07-23T13:29:45Z</time>
      </trkpt>
      <trkpt lat="49.21673" lon="5.64263">
        <ele>215.47</ele>
        <time>2021-07-23T13:29:59Z</time>
      </trkpt>
      <trkpt lat="49.21586" lon="5.64151">
        <ele>211.63</ele>
        <time>2021-07-23T13:30:13Z</time>
      </trkpt>
      <trkpt lat="49.21477" lon="5.64007">
        <ele>210.67</ele>
        <time>2021-07-23T13:30:30Z</time>
      </trkpt>
      <trkpt lat="49.21431" lon="5.63901">
        <ele>212.11</ele>
        <time>2021-07-23T13:30:42Z</time>
      </trkpt>
      <trkpt lat="49.21379" lon="5.63697">
        <ele>210.67</ele>
        <time>2021-07-23T13:30:59Z</time>
      </trkpt>
      <trkpt lat="49.21358" lon="5.63597">
        <ele>209.7</ele>
        <time>2021-07-23T13:31:13Z</time>
      </trkpt>
      <trkpt lat="49.21343" lon="5.63516">
        <ele>208.74</ele>
        <time>2021-07-23T13:31:29Z</time>
      </trkpt>
    </trkseg>
  </trk>
  <trk>
    <name><![CDATA[Journal actif: 2021-07-23 11:31]]></name>
    <trkseg>
      <trkpt lat="49.2134" lon="5.63486">
        <ele>208.74</ele>
        <time>2021-07-23T13:31:39Z</time>
      </trkpt>
      <trkpt lat="49.21322" lon="5.6339">
        <ele>207.3</ele>
        <time>2021-07-23T13:31:51Z</time>
      </trkpt>
      <trkpt lat="49.2131" lon="5.63323">
        <ele>206.34</ele>
        <time>2021-07-23T13:31:57Z</time>
      </trkpt>
      <trkpt lat="49.2131" lon="5.63298">
        <ele>205.86</ele>
        <time>2021-07-23T13:31:58Z</time>
      </trkpt>
      <trkpt lat="49.21313" lon="5.63286">
        <ele>205.38</ele>
        <time>2021-07-23T13:31:59Z</time>
      </trkpt>
      <trkpt lat="49.21313" lon="5.63286">
        <ele>205.38</ele>
        <time>2021-07-23T13:32:00Z</time>
      </trkpt>
      <trkpt lat="49.21316" lon="5.63275">
        <ele>205.38</ele>
        <time>2021-07-23T13:32:01Z</time>
      </trkpt>
      <trkpt lat="49.21322" lon="5.63256">
        <ele>205.38</ele>
        <time>2021-07-23T13:32:02Z</time>
      </trkpt>
      <trkpt lat="49.21322" lon="5.63256">
        <ele>205.38</ele>
        <time>2021-07-23T13:32:03Z</time>
      </trkpt>
      <trkpt lat="49.21326" lon="5.63247">
        <ele>205.38</ele>
        <time>2021-07-23T13:32:04Z</time>
      </trkpt>
      <trkpt lat="49.21355" lon="5.63165">
        <ele>204.9</ele>
        <time>2021-07-23T13:32:14Z</time>
      </trkpt>
      <trkpt lat="49.21357" lon="5.63154">
        <ele>204.42</ele>
        <time>2021-07-23T13:32:15Z</time>
      </trkpt>
      <trkpt lat="49.21357" lon="5.63154">
        <ele>204.42</ele>
        <time>2021-07-23T13:32:16Z</time>
      </trkpt>
      <trkpt lat="49.21358" lon="5.63144">
        <ele>204.42</ele>
        <time>2021-07-23T13:32:17Z</time>
      </trkpt>
      <trkpt lat="49.21357" lon="5.63132">
        <ele>204.42</ele>
        <time>2021-07-23T13:32:18Z</time>
      </trkpt>
      <trkpt lat="49.21355" lon="5.63106">
        <ele>204.42</ele>
        <time>2021-07-23T13:32:19Z</time>
      </trkpt>
      <trkpt lat="49.21335" lon="5.6287">
        <ele>205.38</ele>
        <time>2021-07-23T13:32:39Z</time>
      </trkpt>
      <trkpt lat="49.2131" lon="5.62598">
        <ele>205.38</ele>
        <time>2021-07-23T13:33:00Z</time>
      </trkpt>
      <trkpt lat="49.21282" lon="5.62313">
        <ele>206.82</ele>
        <time>2021-07-23T13:33:21Z</time>
      </trkpt>
      <trkpt lat="49.21255" lon="5.62032">
        <ele>209.7</ele>
        <time>2021-07-23T13:33:37Z</time>
      </trkpt>
      <trkpt lat="49.2123" lon="5.61746">
        <ele>205.86</ele>
        <time>2021-07-23T13:33:51Z</time>
      </trkpt>
      <trkpt lat="49.21197" lon="5.61408">
        <ele>204.42</ele>
        <time>2021-07-23T13:34:04Z</time>
      </trkpt>
      <trkpt lat="49.21146" lon="5.60863">
        <ele>216.43</ele>
        <time>2021-07-23T13:34:23Z</time>
      </trkpt>
      <trkpt lat="49.21089" lon="5.60257">
        <ele>214.03</ele>
        <time>2021-07-23T13:34:44Z</time>
      </trkpt>
      <trkpt lat="49.2102" lon="5.5951">
        <ele>213.55</ele>
        <time>2021-07-23T13:35:09Z</time>
      </trkpt>
      <trkpt lat="49.20952" lon="5.58846">
        <ele>215.95</ele>
        <time>2021-07-23T13:35:31Z</time>
      </trkpt>
      <trkpt lat="49.20878" lon="5.58539">
        <ele>214.03</ele>
        <time>2021-07-23T13:35:42Z</time>
      </trkpt>
      <trkpt lat="49.20735" lon="5.57979">
        <ele>213.07</ele>
        <time>2021-07-23T13:36:02Z</time>
      </trkpt>
      <trkpt lat="49.20584" lon="5.57395">
        <ele>214.51</ele>
        <time>2021-07-23T13:36:22Z</time>
      </trkpt>
      <trkpt lat="49.20444" lon="5.56843">
        <ele>224.12</ele>
        <time>2021-07-23T13:36:43Z</time>
      </trkpt>
      <trkpt lat="49.20341" lon="5.56439">
        <ele>227.01</ele>
        <time>2021-07-23T13:36:58Z</time>
      </trkpt>
      <trkpt lat="49.20258" lon="5.56115">
        <ele>225.57</ele>
        <time>2021-07-23T13:37:13Z</time>
      </trkpt>
      <trkpt lat="49.20112" lon="5.55546">
        <ele>228.93</ele>
        <time>2021-07-23T13:37:36Z</time>
      </trkpt>
      <trkpt lat="49.19994" lon="5.55087">
        <ele>230.85</ele>
        <time>2021-07-23T13:37:53Z</time>
      </trkpt>
      <trkpt lat="49.19853" lon="5.54532">
        <ele>236.14</ele>
        <time>2021-07-23T13:38:13Z</time>
      </trkpt>
      <trkpt lat="49.19769" lon="5.54197">
        <ele>238.54</ele>
        <time>2021-07-23T13:38:27Z</time>
      </trkpt>
      <trkpt lat="49.19741" lon="5.5401">
        <ele>233.74</ele>
        <time>2021-07-23T13:38:35Z</time>
      </trkpt>
      <trkpt lat="49.19723" lon="5.53654">
        <ele>235.18</ele>
        <time>2021-07-23T13:38:50Z</time>
      </trkpt>
      <trkpt lat="49.19718" lon="5.53633">
        <ele>235.18</ele>
        <time>2021-07-23T13:38:51Z</time>
      </trkpt>
      <trkpt lat="49.19713" lon="5.53611">
        <ele>235.18</ele>
        <time>2021-07-23T13:38:52Z</time>
      </trkpt>
      <trkpt lat="49.19618" lon="5.53311">
        <ele>229.89</ele>
        <time>2021-07-23T13:39:05Z</time>
      </trkpt>
      <trkpt lat="49.1944" lon="5.52767">
        <ele>232.78</ele>
        <time>2021-07-23T13:39:27Z</time>
      </trkpt>
      <trkpt lat="49.19321" lon="5.52403">
        <ele>232.3</ele>
        <time>2021-07-23T13:39:41Z</time>
      </trkpt>
      <trkpt lat="49.19197" lon="5.52024">
        <ele>236.14</ele>
        <time>2021-07-23T13:39:56Z</time>
      </trkpt>
      <trkpt lat="49.19119" lon="5.51783">
        <ele>238.54</ele>
        <time>2021-07-23T13:40:08Z</time>
      </trkpt>
      <trkpt lat="49.18997" lon="5.51416">
        <ele>239.99</ele>
        <time>2021-07-23T13:40:26Z</time>
      </trkpt>
      <trkpt lat="49.18898" lon="5.51178">
        <ele>249.6</ele>
        <time>2021-07-23T13:40:39Z</time>
      </trkpt>
      <trkpt lat="49.18787" lon="5.51053">
        <ele>257.29</ele>
        <time>2021-07-23T13:40:48Z</time>
      </trkpt>
      <trkpt lat="49.18618" lon="5.50843">
        <ele>255.85</ele>
        <time>2021-07-23T13:41:03Z</time>
      </trkpt>
      <trkpt lat="49.18564" lon="5.50698">
        <ele>252.96</ele>
        <time>2021-07-23T13:41:11Z</time>
      </trkpt>
      <trkpt lat="49.18523" lon="5.50437">
        <ele>252.96</ele>
        <time>2021-07-23T13:41:25Z</time>
      </trkpt>
      <trkpt lat="49.18517" lon="5.50363">
        <ele>252.96</ele>
        <time>2021-07-23T13:41:30Z</time>
      </trkpt>
      <trkpt lat="49.18517" lon="5.50363">
        <ele>252.96</ele>
        <time>2021-07-23T13:41:31Z</time>
      </trkpt>
      <trkpt lat="49.18519" lon="5.50344">
        <ele>252.96</ele>
        <time>2021-07-23T13:41:32Z</time>
      </trkpt>
      <trkpt lat="49.18523" lon="5.50336">
        <ele>252.96</ele>
        <time>2021-07-23T13:41:33Z</time>
      </trkpt>
      <trkpt lat="49.18523" lon="5.50336">
        <ele>252.48</ele>
        <time>2021-07-23T13:41:34Z</time>
      </trkpt>
      <trkpt lat="49.18524" lon="5.5032">
        <ele>252</ele>
        <time>2021-07-23T13:41:35Z</time>
      </trkpt>
      <trkpt lat="49.1852" lon="5.5031">
        <ele>252</ele>
        <time>2021-07-23T13:41:36Z</time>
      </trkpt>
      <trkpt lat="49.18516" lon="5.50302">
        <ele>252</ele>
        <time>2021-07-23T13:41:37Z</time>
      </trkpt>
      <trkpt lat="49.18512" lon="5.50294">
        <ele>252</ele>
        <time>2021-07-23T13:41:38Z</time>
      </trkpt>
      <trkpt lat="49.18507" lon="5.50285">
        <ele>252.48</ele>
        <time>2021-07-23T13:41:39Z</time>
      </trkpt>
      <trkpt lat="49.18501" lon="5.50275">
        <ele>252.48</ele>
        <time>2021-07-23T13:41:40Z</time>
      </trkpt>
      <trkpt lat="49.18495" lon="5.50264">
        <ele>253.44</ele>
        <time>2021-07-23T13:41:41Z</time>
      </trkpt>
      <trkpt lat="49.18493" lon="5.5025">
        <ele>253.44</ele>
        <time>2021-07-23T13:41:42Z</time>
      </trkpt>
      <trkpt lat="49.18468" lon="5.50076">
        <ele>260.17</ele>
        <time>2021-07-23T13:41:51Z</time>
      </trkpt>
      <trkpt lat="49.18417" lon="5.49785">
        <ele>271.71</ele>
        <time>2021-07-23T13:42:06Z</time>
      </trkpt>
      <trkpt lat="49.18331" lon="5.49369">
        <ele>283.25</ele>
        <time>2021-07-23T13:42:24Z</time>
      </trkpt>
      <trkpt lat="49.18253" lon="5.49116">
        <ele>295.74</ele>
        <time>2021-07-23T13:42:35Z</time>
      </trkpt>
      <trkpt lat="49.18131" lon="5.48758">
        <ele>311.6</ele>
        <time>2021-07-23T13:42:52Z</time>
      </trkpt>
      <trkpt lat="49.17965" lon="5.48245">
        <ele>320.74</ele>
        <time>2021-07-23T13:43:13Z</time>
      </trkpt>
      <trkpt lat="49.1791" lon="5.47994">
        <ele>320.74</ele>
        <time>2021-07-23T13:43:23Z</time>
      </trkpt>
      <trkpt lat="49.17879" lon="5.47844">
        <ele>322.18</ele>
        <time>2021-07-23T13:43:31Z</time>
      </trkpt>
      <trkpt lat="49.17842" lon="5.47663">
        <ele>322.18</ele>
        <time>2021-07-23T13:43:40Z</time>
      </trkpt>
      <trkpt lat="49.1778" lon="5.47359">
        <ele>324.58</ele>
        <time>2021-07-23T13:43:52Z</time>
      </trkpt>
      <trkpt lat="49.17663" lon="5.46803">
        <ele>329.39</ele>
        <time>2021-07-23T13:44:13Z</time>
      </trkpt>
      <trkpt lat="49.17579" lon="5.46453">
        <ele>336.6</ele>
        <time>2021-07-23T13:44:26Z</time>
      </trkpt>
      <trkpt lat="49.17485" lon="5.46295">
        <ele>343.81</ele>
        <time>2021-07-23T13:44:34Z</time>
      </trkpt>
      <trkpt lat="49.17265" lon="5.45965">
        <ele>356.31</ele>
        <time>2021-07-23T13:44:52Z</time>
      </trkpt>
      <trkpt lat="49.17057" lon="5.45647">
        <ele>358.71</ele>
        <time>2021-07-23T13:45:07Z</time>
      </trkpt>
      <trkpt lat="49.16949" lon="5.4548">
        <ele>359.67</ele>
        <time>2021-07-23T13:45:17Z</time>
      </trkpt>
      <trkpt lat="49.16843" lon="5.4532">
        <ele>348.13</ele>
        <time>2021-07-23T13:45:28Z</time>
      </trkpt>
      <trkpt lat="49.16838" lon="5.45311">
        <ele>347.65</ele>
        <time>2021-07-23T13:45:29Z</time>
      </trkpt>
      <trkpt lat="49.16835" lon="5.45307">
        <ele>347.17</ele>
        <time>2021-07-23T13:45:30Z</time>
      </trkpt>
      <trkpt lat="49.1684" lon="5.45291">
        <ele>346.69</ele>
        <time>2021-07-23T13:45:31Z</time>
      </trkpt>
      <trkpt lat="49.16845" lon="5.45284">
        <ele>346.21</ele>
        <time>2021-07-23T13:45:32Z</time>
      </trkpt>
      <trkpt lat="49.1685" lon="5.45277">
        <ele>346.21</ele>
        <time>2021-07-23T13:45:33Z</time>
      </trkpt>
      <trkpt lat="49.16855" lon="5.45268">
        <ele>345.73</ele>
        <time>2021-07-23T13:45:34Z</time>
      </trkpt>
      <trkpt lat="49.16867" lon="5.45249">
        <ele>345.73</ele>
        <time>2021-07-23T13:45:36Z</time>
      </trkpt>
      <trkpt lat="49.16873" lon="5.4524">
        <ele>345.73</ele>
        <time>2021-07-23T13:45:37Z</time>
      </trkpt>
      <trkpt lat="49.16879" lon="5.4523">
        <ele>344.77</ele>
        <time>2021-07-23T13:45:38Z</time>
      </trkpt>
      <trkpt lat="49.16887" lon="5.45223">
        <ele>343.81</ele>
        <time>2021-07-23T13:45:39Z</time>
      </trkpt>
      <trkpt lat="49.16896" lon="5.45217">
        <ele>342.85</ele>
        <time>2021-07-23T13:45:40Z</time>
      </trkpt>
      <trkpt lat="49.16936" lon="5.45192">
        <ele>340.92</ele>
        <time>2021-07-23T13:45:44Z</time>
      </trkpt>
      <trkpt lat="49.16948" lon="5.45187">
        <ele>339.96</ele>
        <time>2021-07-23T13:45:45Z</time>
      </trkpt>
      <trkpt lat="49.16961" lon="5.45184">
        <ele>339.48</ele>
        <time>2021-07-23T13:45:46Z</time>
      </trkpt>
      <trkpt lat="49.16973" lon="5.45185">
        <ele>338.52</ele>
        <time>2021-07-23T13:45:47Z</time>
      </trkpt>
      <trkpt lat="49.16987" lon="5.45191">
        <ele>337.56</ele>
        <time>2021-07-23T13:45:48Z</time>
      </trkpt>
      <trkpt lat="49.16999" lon="5.45198">
        <ele>336.6</ele>
        <time>2021-07-23T13:45:49Z</time>
      </trkpt>
      <trkpt lat="49.17012" lon="5.45206">
        <ele>336.12</ele>
        <time>2021-07-23T13:45:50Z</time>
      </trkpt>
      <trkpt lat="49.17114" lon="5.45315">
        <ele>329.87</ele>
        <time>2021-07-23T13:45:59Z</time>
      </trkpt>
      <trkpt lat="49.17225" lon="5.45423">
        <ele>318.81</ele>
        <time>2021-07-23T13:46:09Z</time>
      </trkpt>
      <trkpt lat="49.17239" lon="5.45429">
        <ele>317.85</ele>
        <time>2021-07-23T13:46:10Z</time>
      </trkpt>
      <trkpt lat="49.17252" lon="5.45433">
        <ele>316.89</ele>
        <time>2021-07-23T13:46:11Z</time>
      </trkpt>
      <trkpt lat="49.17265" lon="5.45435">
        <ele>315.93</ele>
        <time>2021-07-23T13:46:12Z</time>
      </trkpt>
      <trkpt lat="49.17285" lon="5.45423">
        <ele>314.97</ele>
        <time>2021-07-23T13:46:13Z</time>
      </trkpt>
      <trkpt lat="49.17285" lon="5.45423">
        <ele>314.49</ele>
        <time>2021-07-23T13:46:14Z</time>
      </trkpt>
      <trkpt lat="49.17295" lon="5.45412">
        <ele>314.97</ele>
        <time>2021-07-23T13:46:15Z</time>
      </trkpt>
      <trkpt lat="49.17305" lon="5.45401">
        <ele>314.01</ele>
        <time>2021-07-23T13:46:16Z</time>
      </trkpt>
      <trkpt lat="49.17323" lon="5.45379">
        <ele>312.09</ele>
        <time>2021-07-23T13:46:18Z</time>
      </trkpt>
      <trkpt lat="49.17331" lon="5.4537">
        <ele>311.6</ele>
        <time>2021-07-23T13:46:19Z</time>
      </trkpt>
      <trkpt lat="49.17341" lon="5.45358">
        <ele>311.6</ele>
        <time>2021-07-23T13:46:20Z</time>
      </trkpt>
      <trkpt lat="49.17353" lon="5.45351">
        <ele>312.09</ele>
        <time>2021-07-23T13:46:21Z</time>
      </trkpt>
      <trkpt lat="49.17364" lon="5.45346">
        <ele>312.57</ele>
        <time>2021-07-23T13:46:22Z</time>
      </trkpt>
      <trkpt lat="49.17376" lon="5.45342">
        <ele>313.05</ele>
        <time>2021-07-23T13:46:23Z</time>
      </trkpt>
      <trkpt lat="49.17388" lon="5.45339">
        <ele>313.53</ele>
        <time>2021-07-23T13:46:24Z</time>
      </trkpt>
      <trkpt lat="49.17399" lon="5.45342">
        <ele>314.01</ele>
        <time>2021-07-23T13:46:25Z</time>
      </trkpt>
      <trkpt lat="49.17411" lon="5.45344">
        <ele>314.01</ele>
        <time>2021-07-23T13:46:26Z</time>
      </trkpt>
      <trkpt lat="49.17423" lon="5.45347">
        <ele>314.01</ele>
        <time>2021-07-23T13:46:27Z</time>
      </trkpt>
      <trkpt lat="49.17557" lon="5.45395">
        <ele>315.93</ele>
        <time>2021-07-23T13:46:38Z</time>
      </trkpt>
      <trkpt lat="49.17659" lon="5.4547">
        <ele>317.85</ele>
        <time>2021-07-23T13:46:47Z</time>
      </trkpt>
      <trkpt lat="49.177" lon="5.45514">
        <ele>317.37</ele>
        <time>2021-07-23T13:46:51Z</time>
      </trkpt>
      <trkpt lat="49.17711" lon="5.45525">
        <ele>317.85</ele>
        <time>2021-07-23T13:46:52Z</time>
      </trkpt>
      <trkpt lat="49.17722" lon="5.45533">
        <ele>317.85</ele>
        <time>2021-07-23T13:46:53Z</time>
      </trkpt>
      <trkpt lat="49.17853" lon="5.45586">
        <ele>321.22</ele>
        <time>2021-07-23T13:47:02Z</time>
      </trkpt>
      <trkpt lat="49.18037" lon="5.45652">
        <ele>326.02</ele>
        <time>2021-07-23T13:47:15Z</time>
      </trkpt>
      <trkpt lat="49.18126" lon="5.45675">
        <ele>330.35</ele>
        <time>2021-07-23T13:47:25Z</time>
      </trkpt>
      <trkpt lat="49.18218" lon="5.45685">
        <ele>331.31</ele>
        <time>2021-07-23T13:47:34Z</time>
      </trkpt>
      <trkpt lat="49.18247" lon="5.45682">
        <ele>330.35</ele>
        <time>2021-07-23T13:47:39Z</time>
      </trkpt>
      <trkpt lat="49.18254" lon="5.45681">
        <ele>330.35</ele>
        <time>2021-07-23T13:47:40Z</time>
      </trkpt>
      <trkpt lat="49.1826" lon="5.45678">
        <ele>330.35</ele>
        <time>2021-07-23T13:47:41Z</time>
      </trkpt>
      <trkpt lat="49.18267" lon="5.45672">
        <ele>329.87</ele>
        <time>2021-07-23T13:47:42Z</time>
      </trkpt>
      <trkpt lat="49.18273" lon="5.45666">
        <ele>329.87</ele>
        <time>2021-07-23T13:47:43Z</time>
      </trkpt>
      <trkpt lat="49.18292" lon="5.45666">
        <ele>329.87</ele>
        <time>2021-07-23T13:47:44Z</time>
      </trkpt>
      <trkpt lat="49.18292" lon="5.45666">
        <ele>329.87</ele>
        <time>2021-07-23T13:47:45Z</time>
      </trkpt>
      <trkpt lat="49.18298" lon="5.45672">
        <ele>330.35</ele>
        <time>2021-07-23T13:47:46Z</time>
      </trkpt>
      <trkpt lat="49.1831" lon="5.45685">
        <ele>330.35</ele>
        <time>2021-07-23T13:47:47Z</time>
      </trkpt>
      <trkpt lat="49.1839" lon="5.45773">
        <ele>330.83</ele>
        <time>2021-07-23T13:47:59Z</time>
      </trkpt>
      <trkpt lat="49.18425" lon="5.45811">
        <ele>330.83</ele>
        <time>2021-07-23T13:48:04Z</time>
      </trkpt>
      <trkpt lat="49.18427" lon="5.45814">
        <ele>330.83</ele>
        <time>2021-07-23T13:48:05Z</time>
      </trkpt>
      <trkpt lat="49.18424" lon="5.4582">
        <ele>331.79</ele>
        <time>2021-07-23T13:48:14Z</time>
      </trkpt>
      <trkpt lat="49.1843" lon="5.45823">
        <ele>332.75</ele>
        <time>2021-07-23T13:48:21Z</time>
      </trkpt>
      <trkpt lat="49.18455" lon="5.45845">
        <ele>336.12</ele>
        <time>2021-07-23T13:48:33Z</time>
      </trkpt>
      <trkpt lat="49.18498" lon="5.45891">
        <ele>335.16</ele>
        <time>2021-07-23T13:48:41Z</time>
      </trkpt>
      <trkpt lat="49.18595" lon="5.45997">
        <ele>334.68</ele>
        <time>2021-07-23T13:48:51Z</time>
      </trkpt>
      <trkpt lat="49.18701" lon="5.46112">
        <ele>324.58</ele>
        <time>2021-07-23T13:49:03Z</time>
      </trkpt>
      <trkpt lat="49.18708" lon="5.4612">
        <ele>324.58</ele>
        <time>2021-07-23T13:49:04Z</time>
      </trkpt>
      <trkpt lat="49.18717" lon="5.46127">
        <ele>323.62</ele>
        <time>2021-07-23T13:49:05Z</time>
      </trkpt>
      <trkpt lat="49.18724" lon="5.46132">
        <ele>322.66</ele>
        <time>2021-07-23T13:49:06Z</time>
      </trkpt>
      <trkpt lat="49.18732" lon="5.46133">
        <ele>321.7</ele>
        <time>2021-07-23T13:49:07Z</time>
      </trkpt>
      <trkpt lat="49.18739" lon="5.46133">
        <ele>320.26</ele>
        <time>2021-07-23T13:49:08Z</time>
      </trkpt>
      <trkpt lat="49.18747" lon="5.46134">
        <ele>320.26</ele>
        <time>2021-07-23T13:49:09Z</time>
      </trkpt>
      <trkpt lat="49.18753" lon="5.46133">
        <ele>320.74</ele>
        <time>2021-07-23T13:49:10Z</time>
      </trkpt>
      <trkpt lat="49.18769" lon="5.4612">
        <ele>321.22</ele>
        <time>2021-07-23T13:49:11Z</time>
      </trkpt>
      <trkpt lat="49.18769" lon="5.4612">
        <ele>321.7</ele>
        <time>2021-07-23T13:49:12Z</time>
      </trkpt>
      <trkpt lat="49.18781" lon="5.461">
        <ele>321.7</ele>
        <time>2021-07-23T13:49:13Z</time>
      </trkpt>
      <trkpt lat="49.18781" lon="5.461">
        <ele>320.74</ele>
        <time>2021-07-23T13:49:14Z</time>
      </trkpt>
      <trkpt lat="49.18785" lon="5.4609">
        <ele>320.74</ele>
        <time>2021-07-23T13:49:15Z</time>
      </trkpt>
      <trkpt lat="49.18807" lon="5.46019">
        <ele>321.22</ele>
        <time>2021-07-23T13:49:22Z</time>
      </trkpt>
      <trkpt lat="49.18807" lon="5.46019">
        <ele>321.7</ele>
        <time>2021-07-23T13:49:23Z</time>
      </trkpt>
      <trkpt lat="49.18835" lon="5.45927">
        <ele>323.14</ele>
        <time>2021-07-23T13:49:32Z</time>
      </trkpt>
      <trkpt lat="49.18864" lon="5.45835">
        <ele>322.66</ele>
        <time>2021-07-23T13:49:40Z</time>
      </trkpt>
      <trkpt lat="49.18866" lon="5.45828">
        <ele>322.66</ele>
        <time>2021-07-23T13:49:41Z</time>
      </trkpt>
      <trkpt lat="49.18868" lon="5.45821">
        <ele>322.66</ele>
        <time>2021-07-23T13:49:42Z</time>
      </trkpt>
      <trkpt lat="49.18871" lon="5.45816">
        <ele>322.18</ele>
        <time>2021-07-23T13:49:43Z</time>
      </trkpt>
      <trkpt lat="49.18874" lon="5.45813">
        <ele>322.18</ele>
        <time>2021-07-23T13:49:44Z</time>
      </trkpt>
      <trkpt lat="49.18877" lon="5.4581">
        <ele>321.7</ele>
        <time>2021-07-23T13:49:45Z</time>
      </trkpt>
      <trkpt lat="49.18882" lon="5.45806">
        <ele>321.7</ele>
        <time>2021-07-23T13:49:46Z</time>
      </trkpt>
      <trkpt lat="49.18887" lon="5.45807">
        <ele>321.22</ele>
        <time>2021-07-23T13:49:47Z</time>
      </trkpt>
      <trkpt lat="49.18892" lon="5.45807">
        <ele>321.22</ele>
        <time>2021-07-23T13:49:48Z</time>
      </trkpt>
      <trkpt lat="49.18899" lon="5.45808">
        <ele>321.22</ele>
        <time>2021-07-23T13:49:49Z</time>
      </trkpt>
      <trkpt lat="49.18907" lon="5.45816">
        <ele>320.74</ele>
        <time>2021-07-23T13:49:50Z</time>
      </trkpt>
      <trkpt lat="49.18918" lon="5.45838">
        <ele>320.26</ele>
        <time>2021-07-23T13:49:51Z</time>
      </trkpt>
      <trkpt lat="49.18918" lon="5.45838">
        <ele>320.26</ele>
        <time>2021-07-23T13:49:52Z</time>
      </trkpt>
      <trkpt lat="49.18921" lon="5.45851">
        <ele>320.26</ele>
        <time>2021-07-23T13:49:53Z</time>
      </trkpt>
      <trkpt lat="49.18923" lon="5.45864">
        <ele>319.78</ele>
        <time>2021-07-23T13:49:54Z</time>
      </trkpt>
      <trkpt lat="49.18939" lon="5.45957">
        <ele>319.3</ele>
        <time>2021-07-23T13:50:03Z</time>
      </trkpt>
      <trkpt lat="49.18967" lon="5.46119">
        <ele>323.14</ele>
        <time>2021-07-23T13:50:14Z</time>
      </trkpt>
      <trkpt lat="49.19006" lon="5.46288">
        <ele>333.71</ele>
        <time>2021-07-23T13:50:26Z</time>
      </trkpt>
      <trkpt lat="49.19011" lon="5.463">
        <ele>337.56</ele>
        <time>2021-07-23T13:50:32Z</time>
      </trkpt>
      <trkpt lat="49.19028" lon="5.46322">
        <ele>338.52</ele>
        <time>2021-07-23T13:50:47Z</time>
      </trkpt>
      <trkpt lat="49.19036" lon="5.46331">
        <ele>339</ele>
        <time>2021-07-23T13:50:49Z</time>
      </trkpt>
      <trkpt lat="49.19043" lon="5.46334">
        <ele>339</ele>
        <time>2021-07-23T13:50:50Z</time>
      </trkpt>
      <trkpt lat="49.19049" lon="5.46337">
        <ele>339.48</ele>
        <time>2021-07-23T13:50:51Z</time>
      </trkpt>
      <trkpt lat="49.19149" lon="5.4635">
        <ele>345.25</ele>
        <time>2021-07-23T13:51:02Z</time>
      </trkpt>
      <trkpt lat="49.19283" lon="5.46363">
        <ele>349.1</ele>
        <time>2021-07-23T13:51:14Z</time>
      </trkpt>
      <trkpt lat="49.19455" lon="5.46378">
        <ele>344.77</ele>
        <time>2021-07-23T13:51:28Z</time>
      </trkpt>
      <trkpt lat="49.19537" lon="5.46394">
        <ele>345.25</ele>
        <time>2021-07-23T13:51:35Z</time>
      </trkpt>
      <trkpt lat="49.19546" lon="5.46396">
        <ele>345.25</ele>
        <time>2021-07-23T13:51:36Z</time>
      </trkpt>
      <trkpt lat="49.19554" lon="5.46405">
        <ele>345.73</ele>
        <time>2021-07-23T13:51:37Z</time>
      </trkpt>
      <trkpt lat="49.19563" lon="5.46417">
        <ele>346.21</ele>
        <time>2021-07-23T13:51:38Z</time>
      </trkpt>
      <trkpt lat="49.19572" lon="5.46428">
        <ele>346.21</ele>
        <time>2021-07-23T13:51:39Z</time>
      </trkpt>
      <trkpt lat="49.19708" lon="5.46625">
        <ele>343.81</ele>
        <time>2021-07-23T13:51:52Z</time>
      </trkpt>
      <trkpt lat="49.19788" lon="5.46741">
        <ele>341.41</ele>
        <time>2021-07-23T13:52:02Z</time>
      </trkpt>
      <trkpt lat="49.19926" lon="5.46909">
        <ele>339.96</ele>
        <time>2021-07-23T13:52:18Z</time>
      </trkpt>
      <trkpt lat="49.19945" lon="5.46931">
        <ele>339.48</ele>
        <time>2021-07-23T13:52:24Z</time>
      </trkpt>
      <trkpt lat="49.19955" lon="5.47005">
        <ele>339.96</ele>
        <time>2021-07-23T13:52:36Z</time>
      </trkpt>
      <trkpt lat="49.19959" lon="5.47018">
        <ele>340.44</ele>
        <time>2021-07-23T13:52:38Z</time>
      </trkpt>
      <trkpt lat="49.19968" lon="5.47039">
        <ele>340.44</ele>
        <time>2021-07-23T13:52:46Z</time>
      </trkpt>
      <trkpt lat="49.19974" lon="5.47048">
        <ele>340.44</ele>
        <time>2021-07-23T13:52:55Z</time>
      </trkpt>
      <trkpt lat="49.19975" lon="5.47054">
        <ele>340.44</ele>
        <time>2021-07-23T13:53:19Z</time>
      </trkpt>
      <trkpt lat="49.19961" lon="5.47061">
        <ele>339.96</ele>
        <time>2021-07-23T13:53:29Z</time>
      </trkpt>
      <trkpt lat="49.19963" lon="5.4706">
        <ele>339.96</ele>
        <time>2021-07-23T13:53:47Z</time>
      </trkpt>
      <trkpt lat="49.19965" lon="5.47063">
        <ele>339.96</ele>
        <time>2021-07-23T13:54:03Z</time>
      </trkpt>
      <trkpt lat="49.19967" lon="5.47069">
        <ele>339.48</ele>
        <time>2021-07-23T13:54:29Z</time>
      </trkpt>
    </trkseg>
  </trk>
  <trk>
    <name><![CDATA[Journal actif: 2021-07-23 14:15]]></name>
    <trkseg>
      <trkpt lat="49.19063" lon="5.46338">
        <ele>360.63</ele>
        <time>2021-07-23T16:15:10Z</time>
      </trkpt>
      <trkpt lat="49.19062" lon="5.4634">
        <ele>358.23</ele>
        <time>2021-07-23T16:15:53Z</time>
      </trkpt>
      <trkpt lat="49.1904" lon="5.46332">
        <ele>351.98</ele>
        <time>2021-07-23T16:16:02Z</time>
      </trkpt>
      <trkpt lat="49.19023" lon="5.46316">
        <ele>348.13</ele>
        <time>2021-07-23T16:16:06Z</time>
      </trkpt>
      <trkpt lat="49.19015" lon="5.46306">
        <ele>345.73</ele>
        <time>2021-07-23T16:16:08Z</time>
      </trkpt>
      <trkpt lat="49.19011" lon="5.463">
        <ele>344.77</ele>
        <time>2021-07-23T16:16:09Z</time>
      </trkpt>
      <trkpt lat="49.19008" lon="5.46293">
        <ele>343.81</ele>
        <time>2021-07-23T16:16:10Z</time>
      </trkpt>
      <trkpt lat="49.19005" lon="5.46286">
        <ele>343.81</ele>
        <time>2021-07-23T16:16:11Z</time>
      </trkpt>
      <trkpt lat="49.19002" lon="5.46279">
        <ele>344.29</ele>
        <time>2021-07-23T16:16:12Z</time>
      </trkpt>
      <trkpt lat="49.18999" lon="5.46271">
        <ele>343.33</ele>
        <time>2021-07-23T16:16:13Z</time>
      </trkpt>
      <trkpt lat="49.18972" lon="5.46151">
        <ele>337.56</ele>
        <time>2021-07-23T16:16:26Z</time>
      </trkpt>
      <trkpt lat="49.18937" lon="5.45947">
        <ele>329.39</ele>
        <time>2021-07-23T16:16:41Z</time>
      </trkpt>
      <trkpt lat="49.1892" lon="5.45844">
        <ele>324.58</ele>
        <time>2021-07-23T16:16:51Z</time>
      </trkpt>
      <trkpt lat="49.18917" lon="5.45833">
        <ele>324.58</ele>
        <time>2021-07-23T16:16:52Z</time>
      </trkpt>
      <trkpt lat="49.18911" lon="5.45823">
        <ele>324.1</ele>
        <time>2021-07-23T16:16:53Z</time>
      </trkpt>
      <trkpt lat="49.18905" lon="5.45814">
        <ele>324.1</ele>
        <time>2021-07-23T16:16:54Z</time>
      </trkpt>
      <trkpt lat="49.18898" lon="5.45808">
        <ele>324.1</ele>
        <time>2021-07-23T16:16:55Z</time>
      </trkpt>
      <trkpt lat="49.18891" lon="5.45807">
        <ele>324.1</ele>
        <time>2021-07-23T16:16:56Z</time>
      </trkpt>
      <trkpt lat="49.18884" lon="5.45806">
        <ele>323.62</ele>
        <time>2021-07-23T16:16:57Z</time>
      </trkpt>
      <trkpt lat="49.18878" lon="5.45807">
        <ele>323.14</ele>
        <time>2021-07-23T16:16:58Z</time>
      </trkpt>
      <trkpt lat="49.18873" lon="5.45813">
        <ele>322.66</ele>
        <time>2021-07-23T16:16:59Z</time>
      </trkpt>
      <trkpt lat="49.18869" lon="5.45819">
        <ele>321.7</ele>
        <time>2021-07-23T16:17:00Z</time>
      </trkpt>
      <trkpt lat="49.18867" lon="5.45825">
        <ele>320.74</ele>
        <time>2021-07-23T16:17:01Z</time>
      </trkpt>
      <trkpt lat="49.18865" lon="5.45833">
        <ele>319.78</ele>
        <time>2021-07-23T16:17:02Z</time>
      </trkpt>
      <trkpt lat="49.18862" lon="5.45841">
        <ele>319.78</ele>
        <time>2021-07-23T16:17:03Z</time>
      </trkpt>
      <trkpt lat="49.18844" lon="5.45898">
        <ele>317.37</ele>
        <time>2021-07-23T16:17:09Z</time>
      </trkpt>
      <trkpt lat="49.18838" lon="5.45919">
        <ele>316.89</ele>
        <time>2021-07-23T16:17:11Z</time>
      </trkpt>
      <trkpt lat="49.18792" lon="5.46065">
        <ele>316.41</ele>
        <time>2021-07-23T16:17:25Z</time>
      </trkpt>
      <trkpt lat="49.18781" lon="5.461">
        <ele>316.41</ele>
        <time>2021-07-23T16:17:28Z</time>
      </trkpt>
      <trkpt lat="49.18775" lon="5.46111">
        <ele>317.37</ele>
        <time>2021-07-23T16:17:29Z</time>
      </trkpt>
      <trkpt lat="49.18769" lon="5.4612">
        <ele>317.37</ele>
        <time>2021-07-23T16:17:30Z</time>
      </trkpt>
      <trkpt lat="49.18762" lon="5.46126">
        <ele>317.85</ele>
        <time>2021-07-23T16:17:31Z</time>
      </trkpt>
      <trkpt lat="49.18754" lon="5.46132">
        <ele>317.85</ele>
        <time>2021-07-23T16:17:32Z</time>
      </trkpt>
      <trkpt lat="49.18748" lon="5.46134">
        <ele>317.85</ele>
        <time>2021-07-23T16:17:33Z</time>
      </trkpt>
      <trkpt lat="49.18741" lon="5.46133">
        <ele>317.37</ele>
        <time>2021-07-23T16:17:34Z</time>
      </trkpt>
      <trkpt lat="49.18733" lon="5.46133">
        <ele>317.85</ele>
        <time>2021-07-23T16:17:35Z</time>
      </trkpt>
      <trkpt lat="49.18725" lon="5.46132">
        <ele>317.85</ele>
        <time>2021-07-23T16:17:36Z</time>
      </trkpt>
      <trkpt lat="49.18719" lon="5.46127">
        <ele>318.33</ele>
        <time>2021-07-23T16:17:37Z</time>
      </trkpt>
      <trkpt lat="49.18711" lon="5.46122">
        <ele>319.3</ele>
        <time>2021-07-23T16:17:38Z</time>
      </trkpt>
      <trkpt lat="49.18617" lon="5.46021">
        <ele>330.35</ele>
        <time>2021-07-23T16:17:49Z</time>
      </trkpt>
      <trkpt lat="49.1852" lon="5.45916">
        <ele>336.12</ele>
        <time>2021-07-23T16:18:00Z</time>
      </trkpt>
      <trkpt lat="49.1839" lon="5.45773">
        <ele>332.27</ele>
        <time>2021-07-23T16:18:13Z</time>
      </trkpt>
      <trkpt lat="49.18303" lon="5.45677">
        <ele>326.99</ele>
        <time>2021-07-23T16:18:24Z</time>
      </trkpt>
      <trkpt lat="49.18284" lon="5.4565">
        <ele>330.35</ele>
        <time>2021-07-23T16:18:32Z</time>
      </trkpt>
      <trkpt lat="49.18294" lon="5.45576">
        <ele>333.23</ele>
        <time>2021-07-23T16:18:43Z</time>
      </trkpt>
      <trkpt lat="49.183" lon="5.45439">
        <ele>339</ele>
        <time>2021-07-23T16:18:54Z</time>
      </trkpt>
      <trkpt lat="49.18308" lon="5.45271">
        <ele>344.29</ele>
        <time>2021-07-23T16:19:08Z</time>
      </trkpt>
      <trkpt lat="49.18311" lon="5.45202">
        <ele>347.65</ele>
        <time>2021-07-23T16:19:19Z</time>
      </trkpt>
      <trkpt lat="49.18315" lon="5.45109">
        <ele>350.06</ele>
        <time>2021-07-23T16:19:32Z</time>
      </trkpt>
      <trkpt lat="49.18321" lon="5.44982">
        <ele>352.46</ele>
        <time>2021-07-23T16:19:44Z</time>
      </trkpt>
      <trkpt lat="49.18331" lon="5.44822">
        <ele>355.83</ele>
        <time>2021-07-23T16:19:57Z</time>
      </trkpt>
      <trkpt lat="49.18332" lon="5.4481">
        <ele>355.83</ele>
        <time>2021-07-23T16:19:58Z</time>
      </trkpt>
      <trkpt lat="49.18334" lon="5.44798">
        <ele>355.83</ele>
        <time>2021-07-23T16:19:59Z</time>
      </trkpt>
      <trkpt lat="49.18337" lon="5.44785">
        <ele>355.34</ele>
        <time>2021-07-23T16:20:00Z</time>
      </trkpt>
      <trkpt lat="49.18346" lon="5.44763">
        <ele>354.86</ele>
        <time>2021-07-23T16:20:02Z</time>
      </trkpt>
      <trkpt lat="49.18352" lon="5.44754">
        <ele>354.86</ele>
        <time>2021-07-23T16:20:03Z</time>
      </trkpt>
      <trkpt lat="49.1836" lon="5.44747">
        <ele>354.86</ele>
        <time>2021-07-23T16:20:04Z</time>
      </trkpt>
      <trkpt lat="49.18367" lon="5.44741">
        <ele>355.34</ele>
        <time>2021-07-23T16:20:05Z</time>
      </trkpt>
      <trkpt lat="49.18375" lon="5.44734">
        <ele>355.34</ele>
        <time>2021-07-23T16:20:06Z</time>
      </trkpt>
      <trkpt lat="49.18384" lon="5.4473">
        <ele>355.34</ele>
        <time>2021-07-23T16:20:07Z</time>
      </trkpt>
      <trkpt lat="49.18393" lon="5.44726">
        <ele>354.86</ele>
        <time>2021-07-23T16:20:08Z</time>
      </trkpt>
      <trkpt lat="49.18525" lon="5.44705">
        <ele>351.98</ele>
        <time>2021-07-23T16:20:20Z</time>
      </trkpt>
      <trkpt lat="49.18577" lon="5.44697">
        <ele>351.5</ele>
        <time>2021-07-23T16:20:26Z</time>
      </trkpt>
      <trkpt lat="49.186" lon="5.44689">
        <ele>353.9</ele>
        <time>2021-07-23T16:20:34Z</time>
      </trkpt>
      <trkpt lat="49.186" lon="5.44689">
        <ele>354.38</ele>
        <time>2021-07-23T16:20:53Z</time>
      </trkpt>
      <trkpt lat="49.18633" lon="5.44662">
        <ele>353.9</ele>
        <time>2021-07-23T16:21:02Z</time>
      </trkpt>
      <trkpt lat="49.18658" lon="5.44637">
        <ele>353.9</ele>
        <time>2021-07-23T16:21:06Z</time>
      </trkpt>
      <trkpt lat="49.18664" lon="5.44632">
        <ele>353.9</ele>
        <time>2021-07-23T16:21:07Z</time>
      </trkpt>
      <trkpt lat="49.18669" lon="5.4463">
        <ele>354.38</ele>
        <time>2021-07-23T16:21:08Z</time>
      </trkpt>
      <trkpt lat="49.18733" lon="5.44619">
        <ele>354.86</ele>
        <time>2021-07-23T16:21:18Z</time>
      </trkpt>
      <trkpt lat="49.18818" lon="5.44608">
        <ele>355.34</ele>
        <time>2021-07-23T16:21:27Z</time>
      </trkpt>
      <trkpt lat="49.18825" lon="5.44603">
        <ele>355.34</ele>
        <time>2021-07-23T16:21:28Z</time>
      </trkpt>
      <trkpt lat="49.18832" lon="5.44598">
        <ele>355.83</ele>
        <time>2021-07-23T16:21:29Z</time>
      </trkpt>
      <trkpt lat="49.18838" lon="5.44588">
        <ele>356.31</ele>
        <time>2021-07-23T16:21:30Z</time>
      </trkpt>
      <trkpt lat="49.18845" lon="5.44575">
        <ele>357.27</ele>
        <time>2021-07-23T16:21:31Z</time>
      </trkpt>
      <trkpt lat="49.1885" lon="5.44563">
        <ele>358.23</ele>
        <time>2021-07-23T16:21:32Z</time>
      </trkpt>
      <trkpt lat="49.18854" lon="5.44549">
        <ele>358.71</ele>
        <time>2021-07-23T16:21:33Z</time>
      </trkpt>
      <trkpt lat="49.18893" lon="5.4439">
        <ele>366.4</ele>
        <time>2021-07-23T16:21:44Z</time>
      </trkpt>
      <trkpt lat="49.18923" lon="5.44281">
        <ele>369.28</ele>
        <time>2021-07-23T16:21:56Z</time>
      </trkpt>
      <trkpt lat="49.1893" lon="5.44254">
        <ele>369.76</ele>
        <time>2021-07-23T16:21:59Z</time>
      </trkpt>
      <trkpt lat="49.18932" lon="5.44248">
        <ele>369.76</ele>
        <time>2021-07-23T16:22:00Z</time>
      </trkpt>
      <trkpt lat="49.18933" lon="5.44244">
        <ele>369.76</ele>
        <time>2021-07-23T16:22:01Z</time>
      </trkpt>
      <trkpt lat="49.18936" lon="5.44233">
        <ele>370.24</ele>
        <time>2021-07-23T16:22:11Z</time>
      </trkpt>
      <trkpt lat="49.18936" lon="5.44233">
        <ele>370.24</ele>
        <time>2021-07-23T16:28:38Z</time>
      </trkpt>
      <trkpt lat="49.18936" lon="5.44233">
        <ele>370.24</ele>
        <time>2021-07-23T16:30:09Z</time>
      </trkpt>
      <trkpt lat="49.18936" lon="5.44233">
        <ele>370.24</ele>
        <time>2021-07-23T16:32:16Z</time>
      </trkpt>
      <trkpt lat="49.18936" lon="5.44233">
        <ele>372.65</ele>
        <time>2021-07-23T16:33:15Z</time>
      </trkpt>
      <trkpt lat="49.18936" lon="5.44233">
        <ele>372.65</ele>
        <time>2021-07-23T16:33:20Z</time>
      </trkpt>
      <trkpt lat="49.18936" lon="5.44233">
        <ele>372.17</ele>
        <time>2021-07-23T16:33:21Z</time>
      </trkpt>
      <trkpt lat="49.1894" lon="5.44219">
        <ele>372.17</ele>
        <time>2021-07-23T16:33:23Z</time>
      </trkpt>
      <trkpt lat="49.18941" lon="5.44213">
        <ele>372.17</ele>
        <time>2021-07-23T16:33:24Z</time>
      </trkpt>
      <trkpt lat="49.18943" lon="5.44206">
        <ele>371.69</ele>
        <time>2021-07-23T16:33:25Z</time>
      </trkpt>
      <trkpt lat="49.18988" lon="5.44099">
        <ele>367.36</ele>
        <time>2021-07-23T16:33:37Z</time>
      </trkpt>
      <trkpt lat="49.19066" lon="5.43963">
        <ele>359.67</ele>
        <time>2021-07-23T16:33:49Z</time>
      </trkpt>
      <trkpt lat="49.19136" lon="5.43879">
        <ele>352.94</ele>
        <time>2021-07-23T16:33:58Z</time>
      </trkpt>
      <trkpt lat="49.19209" lon="5.43801">
        <ele>349.1</ele>
        <time>2021-07-23T16:34:12Z</time>
      </trkpt>
      <trkpt lat="49.19228" lon="5.43792">
        <ele>348.62</ele>
        <time>2021-07-23T16:34:18Z</time>
      </trkpt>
      <trkpt lat="49.19231" lon="5.43796">
        <ele>348.62</ele>
        <time>2021-07-23T16:34:19Z</time>
      </trkpt>
      <trkpt lat="49.19283" lon="5.43856">
        <ele>343.81</ele>
        <time>2021-07-23T16:34:28Z</time>
      </trkpt>
      <trkpt lat="49.19403" lon="5.44015">
        <ele>335.16</ele>
        <time>2021-07-23T16:34:42Z</time>
      </trkpt>
      <trkpt lat="49.19425" lon="5.44054">
        <ele>333.23</ele>
        <time>2021-07-23T16:34:45Z</time>
      </trkpt>
      <trkpt lat="49.19431" lon="5.4407">
        <ele>332.75</ele>
        <time>2021-07-23T16:34:46Z</time>
      </trkpt>
      <trkpt lat="49.19458" lon="5.44199">
        <ele>325.06</ele>
        <time>2021-07-23T16:34:54Z</time>
      </trkpt>
      <trkpt lat="49.19478" lon="5.4439">
        <ele>320.74</ele>
        <time>2021-07-23T16:35:05Z</time>
      </trkpt>
      <trkpt lat="49.19481" lon="5.44407">
        <ele>320.26</ele>
        <time>2021-07-23T16:35:06Z</time>
      </trkpt>
      <trkpt lat="49.19513" lon="5.44521">
        <ele>314.97</ele>
        <time>2021-07-23T16:35:16Z</time>
      </trkpt>
      <trkpt lat="49.19542" lon="5.44578">
        <ele>314.01</ele>
        <time>2021-07-23T16:35:22Z</time>
      </trkpt>
      <trkpt lat="49.19628" lon="5.447">
        <ele>307.28</ele>
        <time>2021-07-23T16:35:32Z</time>
      </trkpt>
      <trkpt lat="49.19759" lon="5.44836">
        <ele>298.15</ele>
        <time>2021-07-23T16:35:44Z</time>
      </trkpt>
      <trkpt lat="49.19888" lon="5.45003">
        <ele>291.42</ele>
        <time>2021-07-23T16:35:56Z</time>
      </trkpt>
      <trkpt lat="49.20052" lon="5.45267">
        <ele>282.28</ele>
        <time>2021-07-23T16:36:12Z</time>
      </trkpt>
      <trkpt lat="49.20129" lon="5.45326">
        <ele>278.44</ele>
        <time>2021-07-23T16:36:19Z</time>
      </trkpt>
      <trkpt lat="49.20327" lon="5.45409">
        <ele>272.67</ele>
        <time>2021-07-23T16:36:33Z</time>
      </trkpt>
      <trkpt lat="49.20508" lon="5.45505">
        <ele>265.94</ele>
        <time>2021-07-23T16:36:46Z</time>
      </trkpt>
      <trkpt lat="49.20597" lon="5.45616">
        <ele>268.35</ele>
        <time>2021-07-23T16:36:54Z</time>
      </trkpt>
      <trkpt lat="49.20606" lon="5.45631">
        <ele>268.83</ele>
        <time>2021-07-23T16:36:55Z</time>
      </trkpt>
      <trkpt lat="49.20614" lon="5.45644">
        <ele>269.31</ele>
        <time>2021-07-23T16:36:56Z</time>
      </trkpt>
      <trkpt lat="49.2062" lon="5.45662">
        <ele>269.31</ele>
        <time>2021-07-23T16:36:57Z</time>
      </trkpt>
      <trkpt lat="49.20626" lon="5.45679">
        <ele>268.83</ele>
        <time>2021-07-23T16:36:58Z</time>
      </trkpt>
      <trkpt lat="49.20633" lon="5.45699">
        <ele>267.86</ele>
        <time>2021-07-23T16:36:59Z</time>
      </trkpt>
      <trkpt lat="49.20645" lon="5.45761">
        <ele>266.9</ele>
        <time>2021-07-23T16:37:02Z</time>
      </trkpt>
      <trkpt lat="49.20647" lon="5.45777">
        <ele>266.9</ele>
        <time>2021-07-23T16:37:03Z</time>
      </trkpt>
      <trkpt lat="49.20647" lon="5.45789">
        <ele>266.9</ele>
        <time>2021-07-23T16:37:04Z</time>
      </trkpt>
      <trkpt lat="49.20644" lon="5.4588">
        <ele>268.35</ele>
        <time>2021-07-23T16:37:13Z</time>
      </trkpt>
      <trkpt lat="49.20622" lon="5.46077">
        <ele>266.9</ele>
        <time>2021-07-23T16:37:26Z</time>
      </trkpt>
      <trkpt lat="49.20591" lon="5.46267">
        <ele>267.86</ele>
        <time>2021-07-23T16:37:38Z</time>
      </trkpt>
      <trkpt lat="49.2058" lon="5.46355">
        <ele>268.35</ele>
        <time>2021-07-23T16:37:43Z</time>
      </trkpt>
      <trkpt lat="49.20581" lon="5.46372">
        <ele>268.83</ele>
        <time>2021-07-23T16:37:44Z</time>
      </trkpt>
      <trkpt lat="49.20594" lon="5.46635">
        <ele>269.31</ele>
        <time>2021-07-23T16:37:59Z</time>
      </trkpt>
      <trkpt lat="49.20588" lon="5.46854">
        <ele>268.35</ele>
        <time>2021-07-23T16:38:12Z</time>
      </trkpt>
      <trkpt lat="49.20574" lon="5.46971">
        <ele>266.9</ele>
        <time>2021-07-23T16:38:20Z</time>
      </trkpt>
      <trkpt lat="49.20573" lon="5.4698">
        <ele>266.42</ele>
        <time>2021-07-23T16:38:21Z</time>
      </trkpt>
      <trkpt lat="49.20573" lon="5.46986">
        <ele>265.94</ele>
        <time>2021-07-23T16:38:22Z</time>
      </trkpt>
      <trkpt lat="49.20577" lon="5.46994">
        <ele>265.94</ele>
        <time>2021-07-23T16:38:23Z</time>
      </trkpt>
      <trkpt lat="49.20584" lon="5.47009">
        <ele>264.98</ele>
        <time>2021-07-23T16:38:24Z</time>
      </trkpt>
      <trkpt lat="49.20606" lon="5.47051">
        <ele>261.14</ele>
        <time>2021-07-23T16:38:33Z</time>
      </trkpt>
      <trkpt lat="49.20631" lon="5.47069">
        <ele>257.29</ele>
        <time>2021-07-23T16:38:43Z</time>
      </trkpt>
      <trkpt lat="49.20715" lon="5.47071">
        <ele>252.48</ele>
        <time>2021-07-23T16:38:54Z</time>
      </trkpt>
      <trkpt lat="49.20735" lon="5.4707">
        <ele>252.48</ele>
        <time>2021-07-23T16:38:58Z</time>
      </trkpt>
      <trkpt lat="49.20741" lon="5.4707">
        <ele>252</ele>
        <time>2021-07-23T16:38:59Z</time>
      </trkpt>
      <trkpt lat="49.20748" lon="5.4707">
        <ele>252.48</ele>
        <time>2021-07-23T16:39:07Z</time>
      </trkpt>
      <trkpt lat="49.20796" lon="5.47069">
        <ele>252</ele>
        <time>2021-07-23T16:39:17Z</time>
      </trkpt>
      <trkpt lat="49.20931" lon="5.47066">
        <ele>254.89</ele>
        <time>2021-07-23T16:39:34Z</time>
      </trkpt>
      <trkpt lat="49.20962" lon="5.47066">
        <ele>256.81</ele>
        <time>2021-07-23T16:39:39Z</time>
      </trkpt>
      <trkpt lat="49.20967" lon="5.47066">
        <ele>257.29</ele>
        <time>2021-07-23T16:39:40Z</time>
      </trkpt>
      <trkpt lat="49.20972" lon="5.47066">
        <ele>257.77</ele>
        <time>2021-07-23T16:39:41Z</time>
      </trkpt>
      <trkpt lat="49.20976" lon="5.47066">
        <ele>257.77</ele>
        <time>2021-07-23T16:39:42Z</time>
      </trkpt>
      <trkpt lat="49.2098" lon="5.47066">
        <ele>257.77</ele>
        <time>2021-07-23T16:39:43Z</time>
      </trkpt>
      <trkpt lat="49.20995" lon="5.47066">
        <ele>257.29</ele>
        <time>2021-07-23T16:39:44Z</time>
      </trkpt>
      <trkpt lat="49.20995" lon="5.47066">
        <ele>257.29</ele>
        <time>2021-07-23T16:39:45Z</time>
      </trkpt>
      <trkpt lat="49.20995" lon="5.47066">
        <ele>257.29</ele>
        <time>2021-07-23T16:39:46Z</time>
      </trkpt>
      <trkpt lat="49.20995" lon="5.47066">
        <ele>257.29</ele>
        <time>2021-07-23T16:39:47Z</time>
      </trkpt>
    </trkseg>
  </trk>
  <trk>
    <name><![CDATA[Journal actif: 2021-07-23 14:39]]></name>
    <trkseg>
      <trkpt lat="49.20999" lon="5.47123">
        <ele>258.73</ele>
        <time>2021-07-23T16:39:51Z</time>
      </trkpt>
      <trkpt lat="49.21006" lon="5.4712">
        <ele>258.73</ele>
        <time>2021-07-23T16:39:53Z</time>
      </trkpt>
      <trkpt lat="49.21022" lon="5.47101">
        <ele>260.65</ele>
        <time>2021-07-23T16:40:04Z</time>
      </trkpt>
      <trkpt lat="49.21022" lon="5.47101">
        <ele>260.65</ele>
        <time>2021-07-23T16:40:05Z</time>
      </trkpt>
      <trkpt lat="49.21023" lon="5.47088">
        <ele>261.14</ele>
        <time>2021-07-23T16:40:09Z</time>
      </trkpt>
      <trkpt lat="49.21003" lon="5.47068">
        <ele>260.65</ele>
        <time>2021-07-23T16:40:20Z</time>
      </trkpt>
      <trkpt lat="49.20987" lon="5.47066">
        <ele>258.73</ele>
        <time>2021-07-23T16:40:36Z</time>
      </trkpt>
      <trkpt lat="49.20987" lon="5.47066">
        <ele>258.73</ele>
        <time>2021-07-23T16:40:50Z</time>
      </trkpt>
      <trkpt lat="49.20958" lon="5.47066">
        <ele>257.29</ele>
        <time>2021-07-23T16:41:01Z</time>
      </trkpt>
      <trkpt lat="49.20867" lon="5.47068">
        <ele>253.44</ele>
        <time>2021-07-23T16:41:17Z</time>
      </trkpt>
      <trkpt lat="49.20752" lon="5.4707">
        <ele>252.48</ele>
        <time>2021-07-23T16:41:34Z</time>
      </trkpt>
      <trkpt lat="49.20738" lon="5.4707">
        <ele>252.96</ele>
        <time>2021-07-23T16:41:40Z</time>
      </trkpt>
      <trkpt lat="49.20719" lon="5.4707">
        <ele>253.93</ele>
        <time>2021-07-23T16:41:59Z</time>
      </trkpt>
      <trkpt lat="49.20662" lon="5.47072">
        <ele>253.93</ele>
        <time>2021-07-23T16:42:09Z</time>
      </trkpt>
      <trkpt lat="49.20629" lon="5.47068">
        <ele>256.33</ele>
        <time>2021-07-23T16:42:13Z</time>
      </trkpt>
      <trkpt lat="49.20629" lon="5.47068">
        <ele>256.81</ele>
        <time>2021-07-23T16:42:14Z</time>
      </trkpt>
      <trkpt lat="49.20618" lon="5.47063">
        <ele>257.77</ele>
        <time>2021-07-23T16:42:15Z</time>
      </trkpt>
      <trkpt lat="49.20614" lon="5.4706">
        <ele>258.25</ele>
        <time>2021-07-23T16:42:16Z</time>
      </trkpt>
      <trkpt lat="49.20614" lon="5.4706">
        <ele>258.73</ele>
        <time>2021-07-23T16:42:17Z</time>
      </trkpt>
      <trkpt lat="49.20611" lon="5.47056">
        <ele>259.21</ele>
        <time>2021-07-23T16:42:18Z</time>
      </trkpt>
      <trkpt lat="49.20601" lon="5.47044">
        <ele>261.62</ele>
        <time>2021-07-23T16:42:23Z</time>
      </trkpt>
      <trkpt lat="49.20598" lon="5.47039">
        <ele>262.1</ele>
        <time>2021-07-23T16:42:24Z</time>
      </trkpt>
      <trkpt lat="49.20595" lon="5.47034">
        <ele>262.58</ele>
        <time>2021-07-23T16:42:25Z</time>
      </trkpt>
      <trkpt lat="49.20592" lon="5.47027">
        <ele>263.06</ele>
        <time>2021-07-23T16:42:26Z</time>
      </trkpt>
      <trkpt lat="49.20589" lon="5.47021">
        <ele>263.54</ele>
        <time>2021-07-23T16:42:27Z</time>
      </trkpt>
      <trkpt lat="49.20586" lon="5.47014">
        <ele>264.02</ele>
        <time>2021-07-23T16:42:28Z</time>
      </trkpt>
      <trkpt lat="49.20583" lon="5.47007">
        <ele>264.5</ele>
        <time>2021-07-23T16:42:29Z</time>
      </trkpt>
      <trkpt lat="49.20579" lon="5.47">
        <ele>264.98</ele>
        <time>2021-07-23T16:42:30Z</time>
      </trkpt>
      <trkpt lat="49.20577" lon="5.46995">
        <ele>265.46</ele>
        <time>2021-07-23T16:42:31Z</time>
      </trkpt>
      <trkpt lat="49.20575" lon="5.4699">
        <ele>265.94</ele>
        <time>2021-07-23T16:42:32Z</time>
      </trkpt>
      <trkpt lat="49.20573" lon="5.46987">
        <ele>266.42</ele>
        <time>2021-07-23T16:42:42Z</time>
      </trkpt>
      <trkpt lat="49.20573" lon="5.46986">
        <ele>266.9</ele>
        <time>2021-07-23T16:42:43Z</time>
      </trkpt>
      <trkpt lat="49.20572" lon="5.46989">
        <ele>266.42</ele>
        <time>2021-07-23T16:42:44Z</time>
      </trkpt>
      <trkpt lat="49.20572" lon="5.46995">
        <ele>266.42</ele>
        <time>2021-07-23T16:42:45Z</time>
      </trkpt>
      <trkpt lat="49.20571" lon="5.47002">
        <ele>266.42</ele>
        <time>2021-07-23T16:42:46Z</time>
      </trkpt>
      <trkpt lat="49.20557" lon="5.4711">
        <ele>264.98</ele>
        <time>2021-07-23T16:42:58Z</time>
      </trkpt>
      <trkpt lat="49.20543" lon="5.47215">
        <ele>264.02</ele>
        <time>2021-07-23T16:43:08Z</time>
      </trkpt>
      <trkpt lat="49.20526" lon="5.47361">
        <ele>262.1</ele>
        <time>2021-07-23T16:43:17Z</time>
      </trkpt>
      <trkpt lat="49.20526" lon="5.47378">
        <ele>261.14</ele>
        <time>2021-07-23T16:43:18Z</time>
      </trkpt>
      <trkpt lat="49.20526" lon="5.47392">
        <ele>260.65</ele>
        <time>2021-07-23T16:43:19Z</time>
      </trkpt>
      <trkpt lat="49.20528" lon="5.47406">
        <ele>260.65</ele>
        <time>2021-07-23T16:43:20Z</time>
      </trkpt>
      <trkpt lat="49.2053" lon="5.47425">
        <ele>260.65</ele>
        <time>2021-07-23T16:43:21Z</time>
      </trkpt>
      <trkpt lat="49.20534" lon="5.47444">
        <ele>260.17</ele>
        <time>2021-07-23T16:43:22Z</time>
      </trkpt>
      <trkpt lat="49.20592" lon="5.47723">
        <ele>255.85</ele>
        <time>2021-07-23T16:43:35Z</time>
      </trkpt>
      <trkpt lat="49.20654" lon="5.47856">
        <ele>251.52</ele>
        <time>2021-07-23T16:43:43Z</time>
      </trkpt>
      <trkpt lat="49.20736" lon="5.47975">
        <ele>246.72</ele>
        <time>2021-07-23T16:43:52Z</time>
      </trkpt>
      <trkpt lat="49.20762" lon="5.48023">
        <ele>244.79</ele>
        <time>2021-07-23T16:43:56Z</time>
      </trkpt>
      <trkpt lat="49.20767" lon="5.48039">
        <ele>245.27</ele>
        <time>2021-07-23T16:43:57Z</time>
      </trkpt>
      <trkpt lat="49.20773" lon="5.48055">
        <ele>244.79</ele>
        <time>2021-07-23T16:43:58Z</time>
      </trkpt>
      <trkpt lat="49.20778" lon="5.48073">
        <ele>245.27</ele>
        <time>2021-07-23T16:43:59Z</time>
      </trkpt>
      <trkpt lat="49.20782" lon="5.48091">
        <ele>245.27</ele>
        <time>2021-07-23T16:44:00Z</time>
      </trkpt>
      <trkpt lat="49.20824" lon="5.48306">
        <ele>245.75</ele>
        <time>2021-07-23T16:44:10Z</time>
      </trkpt>
      <trkpt lat="49.20832" lon="5.48324">
        <ele>246.23</ele>
        <time>2021-07-23T16:44:11Z</time>
      </trkpt>
      <trkpt lat="49.20928" lon="5.48527">
        <ele>244.79</ele>
        <time>2021-07-23T16:44:23Z</time>
      </trkpt>
      <trkpt lat="49.2095" lon="5.4857">
        <ele>243.83</ele>
        <time>2021-07-23T16:44:28Z</time>
      </trkpt>
      <trkpt lat="49.20953" lon="5.48576">
        <ele>243.83</ele>
        <time>2021-07-23T16:44:29Z</time>
      </trkpt>
      <trkpt lat="49.20956" lon="5.48581">
        <ele>243.83</ele>
        <time>2021-07-23T16:44:30Z</time>
      </trkpt>
      <trkpt lat="49.20961" lon="5.48573">
        <ele>243.83</ele>
        <time>2021-07-23T16:44:31Z</time>
      </trkpt>
      <trkpt lat="49.20964" lon="5.48571">
        <ele>244.31</ele>
        <time>2021-07-23T16:44:32Z</time>
      </trkpt>
      <trkpt lat="49.20968" lon="5.48568">
        <ele>244.79</ele>
        <time>2021-07-23T16:44:33Z</time>
      </trkpt>
      <trkpt lat="49.20972" lon="5.48565">
        <ele>244.79</ele>
        <time>2021-07-23T16:44:34Z</time>
      </trkpt>
      <trkpt lat="49.20976" lon="5.48561">
        <ele>244.79</ele>
        <time>2021-07-23T16:44:35Z</time>
      </trkpt>
      <trkpt lat="49.21044" lon="5.48509">
        <ele>245.27</ele>
        <time>2021-07-23T16:44:43Z</time>
      </trkpt>
      <trkpt lat="49.2118" lon="5.48403">
        <ele>245.27</ele>
        <time>2021-07-23T16:44:54Z</time>
      </trkpt>
      <trkpt lat="49.21366" lon="5.48258">
        <ele>254.41</ele>
        <time>2021-07-23T16:45:07Z</time>
      </trkpt>
      <trkpt lat="49.21423" lon="5.48213">
        <ele>258.73</ele>
        <time>2021-07-23T16:45:13Z</time>
      </trkpt>
      <trkpt lat="49.21506" lon="5.48149">
        <ele>262.58</ele>
        <time>2021-07-23T16:45:23Z</time>
      </trkpt>
      <trkpt lat="49.21608" lon="5.48069">
        <ele>264.98</ele>
        <time>2021-07-23T16:45:33Z</time>
      </trkpt>
      <trkpt lat="49.21713" lon="5.47987">
        <ele>265.46</ele>
        <time>2021-07-23T16:45:46Z</time>
      </trkpt>
      <trkpt lat="49.21865" lon="5.47876">
        <ele>262.1</ele>
        <time>2021-07-23T16:46:00Z</time>
      </trkpt>
      <trkpt lat="49.21874" lon="5.47872">
        <ele>261.62</ele>
        <time>2021-07-23T16:46:01Z</time>
      </trkpt>
      <trkpt lat="49.21927" lon="5.47867">
        <ele>257.29</ele>
        <time>2021-07-23T16:46:06Z</time>
      </trkpt>
      <trkpt lat="49.21937" lon="5.47869">
        <ele>257.29</ele>
        <time>2021-07-23T16:46:07Z</time>
      </trkpt>
      <trkpt lat="49.21957" lon="5.47876">
        <ele>255.37</ele>
        <time>2021-07-23T16:46:10Z</time>
      </trkpt>
      <trkpt lat="49.21999" lon="5.479">
        <ele>252.96</ele>
        <time>2021-07-23T16:46:14Z</time>
      </trkpt>
      <trkpt lat="49.22011" lon="5.47904">
        <ele>252.48</ele>
        <time>2021-07-23T16:46:15Z</time>
      </trkpt>
      <trkpt lat="49.22023" lon="5.47907">
        <ele>252.48</ele>
        <time>2021-07-23T16:46:16Z</time>
      </trkpt>
      <trkpt lat="49.22036" lon="5.47907">
        <ele>252.96</ele>
        <time>2021-07-23T16:46:17Z</time>
      </trkpt>
      <trkpt lat="49.22059" lon="5.47907">
        <ele>253.44</ele>
        <time>2021-07-23T16:46:18Z</time>
      </trkpt>
      <trkpt lat="49.22206" lon="5.47877">
        <ele>259.69</ele>
        <time>2021-07-23T16:46:32Z</time>
      </trkpt>
      <trkpt lat="49.22355" lon="5.47842">
        <ele>252.48</ele>
        <time>2021-07-23T16:46:44Z</time>
      </trkpt>
      <trkpt lat="49.22533" lon="5.478">
        <ele>260.17</ele>
        <time>2021-07-23T16:46:58Z</time>
      </trkpt>
      <trkpt lat="49.22712" lon="5.47758">
        <ele>257.77</ele>
        <time>2021-07-23T16:47:12Z</time>
      </trkpt>
      <trkpt lat="49.22923" lon="5.47709">
        <ele>249.6</ele>
        <time>2021-07-23T16:47:26Z</time>
      </trkpt>
      <trkpt lat="49.23145" lon="5.47657">
        <ele>262.1</ele>
        <time>2021-07-23T16:47:41Z</time>
      </trkpt>
      <trkpt lat="49.23294" lon="5.47614">
        <ele>266.9</ele>
        <time>2021-07-23T16:47:53Z</time>
      </trkpt>
      <trkpt lat="49.23376" lon="5.47547">
        <ele>264.02</ele>
        <time>2021-07-23T16:48:02Z</time>
      </trkpt>
      <trkpt lat="49.23474" lon="5.47403">
        <ele>255.37</ele>
        <time>2021-07-23T16:48:12Z</time>
      </trkpt>
      <trkpt lat="49.23518" lon="5.47338">
        <ele>255.37</ele>
        <time>2021-07-23T16:48:16Z</time>
      </trkpt>
      <trkpt lat="49.23525" lon="5.4732">
        <ele>255.85</ele>
        <time>2021-07-23T16:48:17Z</time>
      </trkpt>
      <trkpt lat="49.23528" lon="5.47301">
        <ele>255.85</ele>
        <time>2021-07-23T16:48:18Z</time>
      </trkpt>
      <trkpt lat="49.23532" lon="5.47284">
        <ele>256.81</ele>
        <time>2021-07-23T16:48:19Z</time>
      </trkpt>
      <trkpt lat="49.2353" lon="5.47267">
        <ele>257.29</ele>
        <time>2021-07-23T16:48:20Z</time>
      </trkpt>
      <trkpt lat="49.23529" lon="5.47248">
        <ele>258.73</ele>
        <time>2021-07-23T16:48:21Z</time>
      </trkpt>
      <trkpt lat="49.23526" lon="5.47178">
        <ele>262.1</ele>
        <time>2021-07-23T16:48:25Z</time>
      </trkpt>
      <trkpt lat="49.23527" lon="5.47134">
        <ele>263.54</ele>
        <time>2021-07-23T16:48:31Z</time>
      </trkpt>
      <trkpt lat="49.23531" lon="5.47123">
        <ele>262.58</ele>
        <time>2021-07-23T16:48:36Z</time>
      </trkpt>
      <trkpt lat="49.23534" lon="5.47118">
        <ele>262.58</ele>
        <time>2021-07-23T16:48:37Z</time>
      </trkpt>
      <trkpt lat="49.23537" lon="5.47112">
        <ele>262.58</ele>
        <time>2021-07-23T16:48:38Z</time>
      </trkpt>
      <trkpt lat="49.23593" lon="5.47068">
        <ele>257.29</ele>
        <time>2021-07-23T16:48:46Z</time>
      </trkpt>
      <trkpt lat="49.23601" lon="5.47062">
        <ele>257.29</ele>
        <time>2021-07-23T16:48:47Z</time>
      </trkpt>
      <trkpt lat="49.2361" lon="5.4706">
        <ele>256.33</ele>
        <time>2021-07-23T16:48:48Z</time>
      </trkpt>
      <trkpt lat="49.23618" lon="5.47059">
        <ele>255.85</ele>
        <time>2021-07-23T16:48:49Z</time>
      </trkpt>
      <trkpt lat="49.23626" lon="5.47062">
        <ele>254.89</ele>
        <time>2021-07-23T16:48:50Z</time>
      </trkpt>
      <trkpt lat="49.23632" lon="5.47065">
        <ele>254.89</ele>
        <time>2021-07-23T16:48:51Z</time>
      </trkpt>
      <trkpt lat="49.23638" lon="5.47068">
        <ele>254.41</ele>
        <time>2021-07-23T16:48:52Z</time>
      </trkpt>
      <trkpt lat="49.23643" lon="5.4707">
        <ele>254.41</ele>
        <time>2021-07-23T16:48:53Z</time>
      </trkpt>
      <trkpt lat="49.23647" lon="5.47072">
        <ele>253.93</ele>
        <time>2021-07-23T16:48:54Z</time>
      </trkpt>
      <trkpt lat="49.2365" lon="5.47074">
        <ele>253.44</ele>
        <time>2021-07-23T16:48:55Z</time>
      </trkpt>
      <trkpt lat="49.23655" lon="5.47079">
        <ele>252.48</ele>
        <time>2021-07-23T16:49:01Z</time>
      </trkpt>
      <trkpt lat="49.2366" lon="5.47084">
        <ele>252.48</ele>
        <time>2021-07-23T16:49:02Z</time>
      </trkpt>
      <trkpt lat="49.23661" lon="5.47085">
        <ele>252.48</ele>
        <time>2021-07-23T16:49:03Z</time>
      </trkpt>
      <trkpt lat="49.23666" lon="5.47081">
        <ele>252.48</ele>
        <time>2021-07-23T16:49:04Z</time>
      </trkpt>
      <trkpt lat="49.23667" lon="5.47077">
        <ele>252.48</ele>
        <time>2021-07-23T16:49:05Z</time>
      </trkpt>
      <trkpt lat="49.23668" lon="5.47073">
        <ele>252.96</ele>
        <time>2021-07-23T16:49:06Z</time>
      </trkpt>
      <trkpt lat="49.23669" lon="5.47069">
        <ele>252.96</ele>
        <time>2021-07-23T16:49:07Z</time>
      </trkpt>
      <trkpt lat="49.23673" lon="5.47049">
        <ele>253.93</ele>
        <time>2021-07-23T16:49:18Z</time>
      </trkpt>
      <trkpt lat="49.23689" lon="5.46978">
        <ele>255.37</ele>
        <time>2021-07-23T16:49:30Z</time>
      </trkpt>
      <trkpt lat="49.23692" lon="5.46919">
        <ele>256.81</ele>
        <time>2021-07-23T16:49:40Z</time>
      </trkpt>
      <trkpt lat="49.23682" lon="5.46866">
        <ele>257.29</ele>
        <time>2021-07-23T16:49:54Z</time>
      </trkpt>
      <trkpt lat="49.23674" lon="5.46821">
        <ele>258.25</ele>
        <time>2021-07-23T16:50:05Z</time>
      </trkpt>
      <trkpt lat="49.23673" lon="5.46819">
        <ele>258.73</ele>
        <time>2021-07-23T16:50:21Z</time>
      </trkpt>
      <trkpt lat="49.23673" lon="5.46819">
        <ele>258.73</ele>
        <time>2021-07-23T16:50:47Z</time>
      </trkpt>
      <trkpt lat="49.23673" lon="5.46819">
        <ele>258.73</ele>
        <time>2021-07-23T16:50:48Z</time>
      </trkpt>
      <trkpt lat="49.23673" lon="5.46819">
        <ele>258.73</ele>
        <time>2021-07-23T16:51:02Z</time>
      </trkpt>
      <trkpt lat="49.23673" lon="5.46819">
        <ele>259.21</ele>
        <time>2021-07-23T16:51:16Z</time>
      </trkpt>
      <trkpt lat="49.23679" lon="5.46851">
        <ele>255.85</ele>
        <time>2021-07-23T16:51:33Z</time>
      </trkpt>
      <trkpt lat="49.23687" lon="5.4689">
        <ele>254.89</ele>
        <time>2021-07-23T16:51:43Z</time>
      </trkpt>
      <trkpt lat="49.23691" lon="5.4691">
        <ele>253.93</ele>
        <time>2021-07-23T16:51:46Z</time>
      </trkpt>
      <trkpt lat="49.23692" lon="5.46918">
        <ele>253.93</ele>
        <time>2021-07-23T16:51:47Z</time>
      </trkpt>
      <trkpt lat="49.23694" lon="5.46926">
        <ele>254.89</ele>
        <time>2021-07-23T16:51:48Z</time>
      </trkpt>
      <trkpt lat="49.23695" lon="5.46935">
        <ele>254.89</ele>
        <time>2021-07-23T16:51:49Z</time>
      </trkpt>
      <trkpt lat="49.23696" lon="5.46945">
        <ele>254.89</ele>
        <time>2021-07-23T16:51:50Z</time>
      </trkpt>
      <trkpt lat="49.23695" lon="5.46954">
        <ele>254.89</ele>
        <time>2021-07-23T16:51:51Z</time>
      </trkpt>
      <trkpt lat="49.23693" lon="5.46961">
        <ele>254.89</ele>
        <time>2021-07-23T16:51:52Z</time>
      </trkpt>
      <trkpt lat="49.23691" lon="5.46969">
        <ele>254.89</ele>
        <time>2021-07-23T16:51:53Z</time>
      </trkpt>
      <trkpt lat="49.2369" lon="5.46976">
        <ele>254.89</ele>
        <time>2021-07-23T16:51:54Z</time>
      </trkpt>
      <trkpt lat="49.23688" lon="5.46982">
        <ele>254.89</ele>
        <time>2021-07-23T16:51:55Z</time>
      </trkpt>
      <trkpt lat="49.23679" lon="5.47024">
        <ele>253.93</ele>
        <time>2021-07-23T16:52:07Z</time>
      </trkpt>
      <trkpt lat="49.23669" lon="5.4707">
        <ele>253.44</ele>
        <time>2021-07-23T16:52:20Z</time>
      </trkpt>
      <trkpt lat="49.23666" lon="5.47083">
        <ele>253.44</ele>
        <time>2021-07-23T16:52:24Z</time>
      </trkpt>
      <trkpt lat="49.23662" lon="5.47086">
        <ele>253.44</ele>
        <time>2021-07-23T16:52:25Z</time>
      </trkpt>
      <trkpt lat="49.23661" lon="5.47085">
        <ele>253.44</ele>
        <time>2021-07-23T16:52:26Z</time>
      </trkpt>
      <trkpt lat="49.23659" lon="5.47084">
        <ele>253.44</ele>
        <time>2021-07-23T16:52:27Z</time>
      </trkpt>
      <trkpt lat="49.23657" lon="5.47082">
        <ele>253.44</ele>
        <time>2021-07-23T16:52:28Z</time>
      </trkpt>
      <trkpt lat="49.23654" lon="5.47079">
        <ele>253.93</ele>
        <time>2021-07-23T16:52:29Z</time>
      </trkpt>
      <trkpt lat="49.23651" lon="5.47076">
        <ele>253.93</ele>
        <time>2021-07-23T16:52:30Z</time>
      </trkpt>
      <trkpt lat="49.23647" lon="5.47072">
        <ele>253.93</ele>
        <time>2021-07-23T16:52:31Z</time>
      </trkpt>
      <trkpt lat="49.23642" lon="5.4707">
        <ele>253.93</ele>
        <time>2021-07-23T16:52:32Z</time>
      </trkpt>
      <trkpt lat="49.23636" lon="5.47067">
        <ele>253.93</ele>
        <time>2021-07-23T16:52:33Z</time>
      </trkpt>
      <trkpt lat="49.2363" lon="5.47064">
        <ele>253.44</ele>
        <time>2021-07-23T16:52:34Z</time>
      </trkpt>
      <trkpt lat="49.23617" lon="5.47059">
        <ele>252.96</ele>
        <time>2021-07-23T16:52:35Z</time>
      </trkpt>
      <trkpt lat="49.23617" lon="5.47059">
        <ele>252.48</ele>
        <time>2021-07-23T16:52:36Z</time>
      </trkpt>
      <trkpt lat="49.23601" lon="5.47062">
        <ele>252</ele>
        <time>2021-07-23T16:52:37Z</time>
      </trkpt>
      <trkpt lat="49.23601" lon="5.47062">
        <ele>252</ele>
        <time>2021-07-23T16:52:38Z</time>
      </trkpt>
      <trkpt lat="49.23551" lon="5.47095">
        <ele>256.33</ele>
        <time>2021-07-23T16:52:44Z</time>
      </trkpt>
      <trkpt lat="49.23538" lon="5.47111">
        <ele>256.81</ele>
        <time>2021-07-23T16:52:45Z</time>
      </trkpt>
      <trkpt lat="49.23538" lon="5.47111">
        <ele>257.29</ele>
        <time>2021-07-23T16:52:46Z</time>
      </trkpt>
      <trkpt lat="49.23533" lon="5.47119">
        <ele>257.77</ele>
        <time>2021-07-23T16:52:47Z</time>
      </trkpt>
      <trkpt lat="49.23529" lon="5.47128">
        <ele>257.77</ele>
        <time>2021-07-23T16:52:48Z</time>
      </trkpt>
      <trkpt lat="49.23527" lon="5.47138">
        <ele>257.29</ele>
        <time>2021-07-23T16:52:49Z</time>
      </trkpt>
      <trkpt lat="49.23527" lon="5.47149">
        <ele>257.29</ele>
        <time>2021-07-23T16:52:50Z</time>
      </trkpt>
      <trkpt lat="49.23526" lon="5.4716">
        <ele>257.29</ele>
        <time>2021-07-23T16:52:51Z</time>
      </trkpt>
      <trkpt lat="49.23526" lon="5.47171">
        <ele>256.81</ele>
        <time>2021-07-23T16:52:52Z</time>
      </trkpt>
    </trkseg>
  </trk>
  <trk>
    <name><![CDATA[Journal actif: 2021-07-23 14:52]]></name>
    <trkseg>
      <trkpt lat="49.23529" lon="5.47245">
        <ele>255.37</ele>
        <time>2021-07-23T16:52:57Z</time>
      </trkpt>
      <trkpt lat="49.23531" lon="5.47271">
        <ele>253.44</ele>
        <time>2021-07-23T16:53:00Z</time>
      </trkpt>
      <trkpt lat="49.23532" lon="5.47284">
        <ele>252.96</ele>
        <time>2021-07-23T16:53:01Z</time>
      </trkpt>
      <trkpt lat="49.23529" lon="5.47297">
        <ele>252</ele>
        <time>2021-07-23T16:53:02Z</time>
      </trkpt>
      <trkpt lat="49.23525" lon="5.4732">
        <ele>251.04</ele>
        <time>2021-07-23T16:53:04Z</time>
      </trkpt>
      <trkpt lat="49.23515" lon="5.47342">
        <ele>251.04</ele>
        <time>2021-07-23T16:53:05Z</time>
      </trkpt>
      <trkpt lat="49.23508" lon="5.47352">
        <ele>249.6</ele>
        <time>2021-07-23T16:53:06Z</time>
      </trkpt>
      <trkpt lat="49.23501" lon="5.47362">
        <ele>249.12</ele>
        <time>2021-07-23T16:53:07Z</time>
      </trkpt>
      <trkpt lat="49.23501" lon="5.47362">
        <ele>249.12</ele>
        <time>2021-07-23T16:53:08Z</time>
      </trkpt>
      <trkpt lat="49.23391" lon="5.47526">
        <ele>257.77</ele>
        <time>2021-07-23T16:53:23Z</time>
      </trkpt>
      <trkpt lat="49.23298" lon="5.47612">
        <ele>264.5</ele>
        <time>2021-07-23T16:53:33Z</time>
      </trkpt>
      <trkpt lat="49.2317" lon="5.47651">
        <ele>264.98</ele>
        <time>2021-07-23T16:53:44Z</time>
      </trkpt>
      <trkpt lat="49.22952" lon="5.47702">
        <ele>254.89</ele>
        <time>2021-07-23T16:54:01Z</time>
      </trkpt>
      <trkpt lat="49.22757" lon="5.47748">
        <ele>262.58</ele>
        <time>2021-07-23T16:54:14Z</time>
      </trkpt>
      <trkpt lat="49.2259" lon="5.47787">
        <ele>266.42</ele>
        <time>2021-07-23T16:54:28Z</time>
      </trkpt>
      <trkpt lat="49.22382" lon="5.47836">
        <ele>259.69</ele>
        <time>2021-07-23T16:54:42Z</time>
      </trkpt>
      <trkpt lat="49.22216" lon="5.47874">
        <ele>264.98</ele>
        <time>2021-07-23T16:54:53Z</time>
      </trkpt>
      <trkpt lat="49.22047" lon="5.47907">
        <ele>261.14</ele>
        <time>2021-07-23T16:55:05Z</time>
      </trkpt>
      <trkpt lat="49.22032" lon="5.47907">
        <ele>259.69</ele>
        <time>2021-07-23T16:55:06Z</time>
      </trkpt>
      <trkpt lat="49.22017" lon="5.47907">
        <ele>259.21</ele>
        <time>2021-07-23T16:55:07Z</time>
      </trkpt>
      <trkpt lat="49.22004" lon="5.47902">
        <ele>259.69</ele>
        <time>2021-07-23T16:55:08Z</time>
      </trkpt>
      <trkpt lat="49.21955" lon="5.47875">
        <ele>261.14</ele>
        <time>2021-07-23T16:55:12Z</time>
      </trkpt>
      <trkpt lat="49.21884" lon="5.47868">
        <ele>263.06</ele>
        <time>2021-07-23T16:55:19Z</time>
      </trkpt>
      <trkpt lat="49.21875" lon="5.47871">
        <ele>262.1</ele>
        <time>2021-07-23T16:55:22Z</time>
      </trkpt>
      <trkpt lat="49.21874" lon="5.47872">
        <ele>262.58</ele>
        <time>2021-07-23T16:55:37Z</time>
      </trkpt>
      <trkpt lat="49.21867" lon="5.47875">
        <ele>262.58</ele>
        <time>2021-07-23T16:55:47Z</time>
      </trkpt>
      <trkpt lat="49.2181" lon="5.47912">
        <ele>260.65</ele>
        <time>2021-07-23T16:55:55Z</time>
      </trkpt>
      <trkpt lat="49.21687" lon="5.48007">
        <ele>267.38</ele>
        <time>2021-07-23T16:56:06Z</time>
      </trkpt>
      <trkpt lat="49.21494" lon="5.48158">
        <ele>260.65</ele>
        <time>2021-07-23T16:56:23Z</time>
      </trkpt>
      <trkpt lat="49.214" lon="5.48231">
        <ele>254.89</ele>
        <time>2021-07-23T16:56:32Z</time>
      </trkpt>
      <trkpt lat="49.214" lon="5.48231">
        <ele>254.41</ele>
        <time>2021-07-23T16:56:35Z</time>
      </trkpt>
      <trkpt lat="49.2142" lon="5.48216">
        <ele>255.85</ele>
        <time>2021-07-23T16:56:44Z</time>
      </trkpt>
      <trkpt lat="49.2142" lon="5.48216">
        <ele>255.85</ele>
        <time>2021-07-23T16:56:48Z</time>
      </trkpt>
      <trkpt lat="49.21421" lon="5.48215">
        <ele>255.85</ele>
        <time>2021-07-23T16:56:49Z</time>
      </trkpt>
      <trkpt lat="49.21419" lon="5.48212">
        <ele>255.85</ele>
        <time>2021-07-23T16:56:50Z</time>
      </trkpt>
      <trkpt lat="49.21392" lon="5.48151">
        <ele>257.29</ele>
        <time>2021-07-23T16:56:59Z</time>
      </trkpt>
      <trkpt lat="49.21329" lon="5.47986">
        <ele>260.17</ele>
        <time>2021-07-23T16:57:13Z</time>
      </trkpt>
      <trkpt lat="49.21283" lon="5.47855">
        <ele>261.14</ele>
        <time>2021-07-23T16:57:21Z</time>
      </trkpt>
      <trkpt lat="49.21201" lon="5.47621">
        <ele>261.14</ele>
        <time>2021-07-23T16:57:35Z</time>
      </trkpt>
      <trkpt lat="49.21161" lon="5.47508">
        <ele>263.06</ele>
        <time>2021-07-23T16:57:46Z</time>
      </trkpt>
      <trkpt lat="49.21158" lon="5.47495">
        <ele>263.06</ele>
        <time>2021-07-23T16:57:48Z</time>
      </trkpt>
      <trkpt lat="49.21154" lon="5.47481">
        <ele>263.54</ele>
        <time>2021-07-23T16:57:49Z</time>
      </trkpt>
      <trkpt lat="49.21154" lon="5.47481">
        <ele>263.54</ele>
        <time>2021-07-23T16:57:50Z</time>
      </trkpt>
      <trkpt lat="49.21158" lon="5.47477">
        <ele>264.02</ele>
        <time>2021-07-23T16:57:51Z</time>
      </trkpt>
      <trkpt lat="49.21162" lon="5.47471">
        <ele>264.5</ele>
        <time>2021-07-23T16:57:52Z</time>
      </trkpt>
      <trkpt lat="49.21166" lon="5.47466">
        <ele>264.5</ele>
        <time>2021-07-23T16:57:53Z</time>
      </trkpt>
      <trkpt lat="49.2117" lon="5.47461">
        <ele>265.46</ele>
        <time>2021-07-23T16:57:54Z</time>
      </trkpt>
      <trkpt lat="49.21178" lon="5.47449">
        <ele>265.94</ele>
        <time>2021-07-23T16:57:56Z</time>
      </trkpt>
      <trkpt lat="49.21182" lon="5.47443">
        <ele>266.9</ele>
        <time>2021-07-23T16:57:57Z</time>
      </trkpt>
      <trkpt lat="49.21184" lon="5.47434">
        <ele>267.38</ele>
        <time>2021-07-23T16:57:58Z</time>
      </trkpt>
      <trkpt lat="49.21184" lon="5.47425">
        <ele>267.38</ele>
        <time>2021-07-23T16:57:59Z</time>
      </trkpt>
      <trkpt lat="49.21184" lon="5.47417">
        <ele>267.86</ele>
        <time>2021-07-23T16:58:00Z</time>
      </trkpt>
      <trkpt lat="49.21182" lon="5.47408">
        <ele>267.86</ele>
        <time>2021-07-23T16:58:01Z</time>
      </trkpt>
      <trkpt lat="49.21126" lon="5.47256">
        <ele>269.31</ele>
        <time>2021-07-23T16:58:16Z</time>
      </trkpt>
      <trkpt lat="49.2108" lon="5.4713">
        <ele>269.79</ele>
        <time>2021-07-23T16:58:30Z</time>
      </trkpt>
      <trkpt lat="49.21059" lon="5.47083">
        <ele>269.31</ele>
        <time>2021-07-23T16:58:41Z</time>
      </trkpt>
      <trkpt lat="49.21038" lon="5.47078">
        <ele>265.46</ele>
        <time>2021-07-23T16:58:50Z</time>
      </trkpt>
      <trkpt lat="49.21028" lon="5.47075">
        <ele>264.02</ele>
        <time>2021-07-23T16:58:57Z</time>
      </trkpt>
      <trkpt lat="49.2101" lon="5.4707">
        <ele>263.54</ele>
        <time>2021-07-23T16:59:01Z</time>
      </trkpt>
      <trkpt lat="49.21005" lon="5.47069">
        <ele>263.54</ele>
        <time>2021-07-23T16:59:02Z</time>
      </trkpt>
      <trkpt lat="49.20999" lon="5.47067">
        <ele>263.06</ele>
        <time>2021-07-23T16:59:03Z</time>
      </trkpt>
    </trkseg>
  </trk>
  <trk>
    <name><![CDATA[Journal actif: 2021-07-23 14:59]]></name>
    <trkseg>
      <trkpt lat="49.20985" lon="5.47066">
        <ele>262.58</ele>
        <time>2021-07-23T16:59:05Z</time>
      </trkpt>
      <trkpt lat="49.20872" lon="5.47068">
        <ele>257.29</ele>
        <time>2021-07-23T16:59:15Z</time>
      </trkpt>
      <trkpt lat="49.20645" lon="5.47072">
        <ele>258.25</ele>
        <time>2021-07-23T16:59:32Z</time>
      </trkpt>
      <trkpt lat="49.20635" lon="5.47071">
        <ele>258.73</ele>
        <time>2021-07-23T16:59:33Z</time>
      </trkpt>
      <trkpt lat="49.20627" lon="5.47067">
        <ele>260.65</ele>
        <time>2021-07-23T16:59:34Z</time>
      </trkpt>
      <trkpt lat="49.20618" lon="5.47063">
        <ele>262.1</ele>
        <time>2021-07-23T16:59:35Z</time>
      </trkpt>
      <trkpt lat="49.20612" lon="5.47057">
        <ele>262.58</ele>
        <time>2021-07-23T16:59:36Z</time>
      </trkpt>
      <trkpt lat="49.20605" lon="5.47049">
        <ele>263.06</ele>
        <time>2021-07-23T16:59:37Z</time>
      </trkpt>
      <trkpt lat="49.20598" lon="5.4704">
        <ele>263.54</ele>
        <time>2021-07-23T16:59:38Z</time>
      </trkpt>
      <trkpt lat="49.20593" lon="5.47029">
        <ele>264.02</ele>
        <time>2021-07-23T16:59:39Z</time>
      </trkpt>
      <trkpt lat="49.20588" lon="5.47019">
        <ele>264.98</ele>
        <time>2021-07-23T16:59:40Z</time>
      </trkpt>
      <trkpt lat="49.20573" lon="5.46975">
        <ele>267.86</ele>
        <time>2021-07-23T16:59:47Z</time>
      </trkpt>
      <trkpt lat="49.20574" lon="5.46969">
        <ele>267.86</ele>
        <time>2021-07-23T16:59:48Z</time>
      </trkpt>
      <trkpt lat="49.20574" lon="5.46963">
        <ele>267.86</ele>
        <time>2021-07-23T16:59:49Z</time>
      </trkpt>
      <trkpt lat="49.20589" lon="5.46846">
        <ele>269.79</ele>
        <time>2021-07-23T17:00:00Z</time>
      </trkpt>
      <trkpt lat="49.20591" lon="5.46829">
        <ele>269.31</ele>
        <time>2021-07-23T17:00:07Z</time>
      </trkpt>
      <trkpt lat="49.20595" lon="5.46799">
        <ele>269.31</ele>
        <time>2021-07-23T17:00:55Z</time>
      </trkpt>
      <trkpt lat="49.20597" lon="5.46685">
        <ele>270.27</ele>
        <time>2021-07-23T17:01:03Z</time>
      </trkpt>
      <trkpt lat="49.20583" lon="5.46425">
        <ele>270.27</ele>
        <time>2021-07-23T17:01:15Z</time>
      </trkpt>
      <trkpt lat="49.2058" lon="5.46354">
        <ele>269.31</ele>
        <time>2021-07-23T17:01:18Z</time>
      </trkpt>
      <trkpt lat="49.20581" lon="5.46333">
        <ele>270.27</ele>
        <time>2021-07-23T17:01:19Z</time>
      </trkpt>
      <trkpt lat="49.20584" lon="5.4631">
        <ele>270.27</ele>
        <time>2021-07-23T17:01:20Z</time>
      </trkpt>
      <trkpt lat="49.20632" lon="5.46006">
        <ele>270.75</ele>
        <time>2021-07-23T17:01:32Z</time>
      </trkpt>
      <trkpt lat="49.20647" lon="5.45776">
        <ele>274.59</ele>
        <time>2021-07-23T17:01:41Z</time>
      </trkpt>
      <trkpt lat="49.20644" lon="5.45753">
        <ele>274.11</ele>
        <time>2021-07-23T17:01:42Z</time>
      </trkpt>
      <trkpt lat="49.2064" lon="5.45729">
        <ele>274.59</ele>
        <time>2021-07-23T17:01:43Z</time>
      </trkpt>
      <trkpt lat="49.20636" lon="5.45706">
        <ele>274.11</ele>
        <time>2021-07-23T17:01:44Z</time>
      </trkpt>
      <trkpt lat="49.20628" lon="5.45684">
        <ele>274.11</ele>
        <time>2021-07-23T17:01:45Z</time>
      </trkpt>
      <trkpt lat="49.20621" lon="5.45663">
        <ele>275.56</ele>
        <time>2021-07-23T17:01:46Z</time>
      </trkpt>
      <trkpt lat="49.20613" lon="5.45642">
        <ele>276.52</ele>
        <time>2021-07-23T17:01:47Z</time>
      </trkpt>
      <trkpt lat="49.20602" lon="5.45625">
        <ele>276.52</ele>
        <time>2021-07-23T17:01:48Z</time>
      </trkpt>
      <trkpt lat="49.20591" lon="5.45607">
        <ele>276.04</ele>
        <time>2021-07-23T17:01:49Z</time>
      </trkpt>
      <trkpt lat="49.2058" lon="5.45588">
        <ele>275.56</ele>
        <time>2021-07-23T17:01:50Z</time>
      </trkpt>
      <trkpt lat="49.20447" lon="5.45463">
        <ele>275.56</ele>
        <time>2021-07-23T17:01:59Z</time>
      </trkpt>
      <trkpt lat="49.20204" lon="5.45357">
        <ele>279.88</ele>
        <time>2021-07-23T17:02:12Z</time>
      </trkpt>
      <trkpt lat="49.20097" lon="5.45305">
        <ele>284.69</ele>
        <time>2021-07-23T17:02:18Z</time>
      </trkpt>
      <trkpt lat="49.2008" lon="5.45294">
        <ele>285.65</ele>
        <time>2021-07-23T17:02:19Z</time>
      </trkpt>
      <trkpt lat="49.20064" lon="5.45282">
        <ele>286.61</ele>
        <time>2021-07-23T17:02:20Z</time>
      </trkpt>
      <trkpt lat="49.2005" lon="5.45265">
        <ele>287.09</ele>
        <time>2021-07-23T17:02:21Z</time>
      </trkpt>
      <trkpt lat="49.20036" lon="5.45247">
        <ele>288.05</ele>
        <time>2021-07-23T17:02:22Z</time>
      </trkpt>
      <trkpt lat="49.20021" lon="5.45229">
        <ele>289.01</ele>
        <time>2021-07-23T17:02:23Z</time>
      </trkpt>
      <trkpt lat="49.20008" lon="5.45206">
        <ele>290.46</ele>
        <time>2021-07-23T17:02:24Z</time>
      </trkpt>
      <trkpt lat="49.19817" lon="5.44903">
        <ele>307.76</ele>
        <time>2021-07-23T17:02:38Z</time>
      </trkpt>
      <trkpt lat="49.19614" lon="5.44684">
        <ele>316.41</ele>
        <time>2021-07-23T17:02:51Z</time>
      </trkpt>
      <trkpt lat="49.19517" lon="5.4453">
        <ele>320.74</ele>
        <time>2021-07-23T17:02:59Z</time>
      </trkpt>
      <trkpt lat="49.19475" lon="5.44362">
        <ele>330.83</ele>
        <time>2021-07-23T17:03:06Z</time>
      </trkpt>
      <trkpt lat="49.19452" lon="5.4415">
        <ele>340.44</ele>
        <time>2021-07-23T17:03:14Z</time>
      </trkpt>
      <trkpt lat="49.19434" lon="5.44081">
        <ele>343.33</ele>
        <time>2021-07-23T17:03:17Z</time>
      </trkpt>
      <trkpt lat="49.19427" lon="5.44059">
        <ele>343.33</ele>
        <time>2021-07-23T17:03:18Z</time>
      </trkpt>
      <trkpt lat="49.19418" lon="5.4404">
        <ele>344.29</ele>
        <time>2021-07-23T17:03:19Z</time>
      </trkpt>
      <trkpt lat="49.19407" lon="5.44022">
        <ele>345.25</ele>
        <time>2021-07-23T17:03:20Z</time>
      </trkpt>
      <trkpt lat="49.19397" lon="5.44006">
        <ele>345.25</ele>
        <time>2021-07-23T17:03:21Z</time>
      </trkpt>
      <trkpt lat="49.19274" lon="5.43844">
        <ele>354.86</ele>
        <time>2021-07-23T17:03:32Z</time>
      </trkpt>
      <trkpt lat="49.1923" lon="5.43795">
        <ele>356.31</ele>
        <time>2021-07-23T17:03:37Z</time>
      </trkpt>
      <trkpt lat="49.1923" lon="5.43795">
        <ele>355.83</ele>
        <time>2021-07-23T17:03:38Z</time>
      </trkpt>
      <trkpt lat="49.19228" lon="5.43792">
        <ele>355.83</ele>
        <time>2021-07-23T17:03:39Z</time>
      </trkpt>
      <trkpt lat="49.19225" lon="5.43789">
        <ele>355.83</ele>
        <time>2021-07-23T17:03:42Z</time>
      </trkpt>
      <trkpt lat="49.19227" lon="5.43783">
        <ele>355.83</ele>
        <time>2021-07-23T17:03:43Z</time>
      </trkpt>
      <trkpt lat="49.19229" lon="5.43781">
        <ele>355.34</ele>
        <time>2021-07-23T17:03:44Z</time>
      </trkpt>
      <trkpt lat="49.19233" lon="5.43777">
        <ele>354.86</ele>
        <time>2021-07-23T17:03:45Z</time>
      </trkpt>
      <trkpt lat="49.19237" lon="5.43773">
        <ele>354.86</ele>
        <time>2021-07-23T17:03:46Z</time>
      </trkpt>
      <trkpt lat="49.19241" lon="5.43769">
        <ele>354.38</ele>
        <time>2021-07-23T17:03:47Z</time>
      </trkpt>
      <trkpt lat="49.193" lon="5.43707">
        <ele>350.54</ele>
        <time>2021-07-23T17:03:54Z</time>
      </trkpt>
      <trkpt lat="49.19413" lon="5.43551">
        <ele>349.1</ele>
        <time>2021-07-23T17:04:04Z</time>
      </trkpt>
      <trkpt lat="49.19456" lon="5.43491">
        <ele>349.1</ele>
        <time>2021-07-23T17:04:10Z</time>
      </trkpt>
      <trkpt lat="49.19537" lon="5.43376">
        <ele>348.13</ele>
        <time>2021-07-23T17:04:19Z</time>
      </trkpt>
      <trkpt lat="49.19617" lon="5.43237">
        <ele>345.73</ele>
        <time>2021-07-23T17:04:29Z</time>
      </trkpt>
      <trkpt lat="49.19628" lon="5.43207">
        <ele>345.25</ele>
        <time>2021-07-23T17:04:31Z</time>
      </trkpt>
      <trkpt lat="49.19642" lon="5.43178">
        <ele>343.81</ele>
        <time>2021-07-23T17:04:32Z</time>
      </trkpt>
      <trkpt lat="49.19642" lon="5.43178">
        <ele>342.85</ele>
        <time>2021-07-23T17:04:33Z</time>
      </trkpt>
      <trkpt lat="49.19783" lon="5.42994">
        <ele>336.6</ele>
        <time>2021-07-23T17:04:46Z</time>
      </trkpt>
      <trkpt lat="49.19899" lon="5.42846">
        <ele>333.71</ele>
        <time>2021-07-23T17:05:00Z</time>
      </trkpt>
      <trkpt lat="49.20011" lon="5.4267">
        <ele>335.64</ele>
        <time>2021-07-23T17:05:12Z</time>
      </trkpt>
      <trkpt lat="49.20147" lon="5.42391">
        <ele>335.64</ele>
        <time>2021-07-23T17:05:27Z</time>
      </trkpt>
      <trkpt lat="49.2016" lon="5.42378">
        <ele>335.16</ele>
        <time>2021-07-23T17:05:28Z</time>
      </trkpt>
      <trkpt lat="49.2032" lon="5.42213">
        <ele>336.12</ele>
        <time>2021-07-23T17:05:39Z</time>
      </trkpt>
      <trkpt lat="49.20417" lon="5.42115">
        <ele>337.56</ele>
        <time>2021-07-23T17:05:49Z</time>
      </trkpt>
      <trkpt lat="49.20431" lon="5.42106">
        <ele>338.04</ele>
        <time>2021-07-23T17:05:51Z</time>
      </trkpt>
      <trkpt lat="49.20437" lon="5.42102">
        <ele>338.52</ele>
        <time>2021-07-23T17:05:52Z</time>
      </trkpt>
      <trkpt lat="49.20441" lon="5.42099">
        <ele>338.52</ele>
        <time>2021-07-23T17:05:53Z</time>
      </trkpt>
      <trkpt lat="49.20443" lon="5.42097">
        <ele>338.52</ele>
        <time>2021-07-23T17:05:54Z</time>
      </trkpt>
      <trkpt lat="49.20445" lon="5.42096">
        <ele>339</ele>
        <time>2021-07-23T17:05:55Z</time>
      </trkpt>
      <trkpt lat="49.20446" lon="5.42095">
        <ele>339</ele>
        <time>2021-07-23T17:05:56Z</time>
      </trkpt>
      <trkpt lat="49.20449" lon="5.42102">
        <ele>339</ele>
        <time>2021-07-23T17:05:57Z</time>
      </trkpt>
      <trkpt lat="49.2045" lon="5.42113">
        <ele>338.52</ele>
        <time>2021-07-23T17:05:58Z</time>
      </trkpt>
      <trkpt lat="49.20451" lon="5.4212">
        <ele>338.52</ele>
        <time>2021-07-23T17:05:59Z</time>
      </trkpt>
      <trkpt lat="49.20451" lon="5.4212">
        <ele>338.04</ele>
        <time>2021-07-23T17:06:00Z</time>
      </trkpt>
      <trkpt lat="49.20455" lon="5.42163">
        <ele>337.56</ele>
        <time>2021-07-23T17:06:05Z</time>
      </trkpt>
      <trkpt lat="49.20458" lon="5.42173">
        <ele>337.56</ele>
        <time>2021-07-23T17:06:06Z</time>
      </trkpt>
      <trkpt lat="49.20463" lon="5.42195">
        <ele>337.56</ele>
        <time>2021-07-23T17:06:07Z</time>
      </trkpt>
      <trkpt lat="49.20463" lon="5.42195">
        <ele>337.56</ele>
        <time>2021-07-23T17:06:08Z</time>
      </trkpt>
      <trkpt lat="49.20467" lon="5.42204">
        <ele>337.56</ele>
        <time>2021-07-23T17:06:09Z</time>
      </trkpt>
      <trkpt lat="49.20543" lon="5.42375">
        <ele>332.27</ele>
        <time>2021-07-23T17:06:23Z</time>
      </trkpt>
      <trkpt lat="49.20623" lon="5.42546">
        <ele>332.27</ele>
        <time>2021-07-23T17:06:35Z</time>
      </trkpt>
      <trkpt lat="49.20676" lon="5.42657">
        <ele>334.68</ele>
        <time>2021-07-23T17:06:47Z</time>
      </trkpt>
      <trkpt lat="49.20711" lon="5.42716">
        <ele>336.6</ele>
        <time>2021-07-23T17:06:54Z</time>
      </trkpt>
      <trkpt lat="49.20769" lon="5.42772">
        <ele>340.92</ele>
        <time>2021-07-23T17:07:02Z</time>
      </trkpt>
      <trkpt lat="49.20777" lon="5.42777">
        <ele>341.41</ele>
        <time>2021-07-23T17:07:03Z</time>
      </trkpt>
      <trkpt lat="49.20785" lon="5.42779">
        <ele>341.89</ele>
        <time>2021-07-23T17:07:04Z</time>
      </trkpt>
      <trkpt lat="49.20792" lon="5.4278">
        <ele>342.85</ele>
        <time>2021-07-23T17:07:05Z</time>
      </trkpt>
      <trkpt lat="49.20799" lon="5.42781">
        <ele>343.33</ele>
        <time>2021-07-23T17:07:06Z</time>
      </trkpt>
      <trkpt lat="49.20805" lon="5.42782">
        <ele>343.81</ele>
        <time>2021-07-23T17:07:07Z</time>
      </trkpt>
      <trkpt lat="49.2081" lon="5.42782">
        <ele>344.29</ele>
        <time>2021-07-23T17:07:08Z</time>
      </trkpt>
      <trkpt lat="49.20815" lon="5.42786">
        <ele>344.29</ele>
        <time>2021-07-23T17:07:09Z</time>
      </trkpt>
      <trkpt lat="49.20819" lon="5.42792">
        <ele>344.77</ele>
        <time>2021-07-23T17:07:10Z</time>
      </trkpt>
      <trkpt lat="49.20823" lon="5.42798">
        <ele>344.77</ele>
        <time>2021-07-23T17:07:11Z</time>
      </trkpt>
      <trkpt lat="49.2088" lon="5.42886">
        <ele>347.17</ele>
        <time>2021-07-23T17:07:21Z</time>
      </trkpt>
      <trkpt lat="49.20966" lon="5.4299">
        <ele>348.62</ele>
        <time>2021-07-23T17:07:32Z</time>
      </trkpt>
      <trkpt lat="49.21098" lon="5.43105">
        <ele>350.54</ele>
        <time>2021-07-23T17:07:44Z</time>
      </trkpt>
      <trkpt lat="49.2119" lon="5.43238">
        <ele>357.27</ele>
        <time>2021-07-23T17:07:55Z</time>
      </trkpt>
      <trkpt lat="49.21224" lon="5.43294">
        <ele>360.63</ele>
        <time>2021-07-23T17:08:01Z</time>
      </trkpt>
      <trkpt lat="49.21262" lon="5.43367">
        <ele>361.59</ele>
        <time>2021-07-23T17:08:12Z</time>
      </trkpt>
      <trkpt lat="49.21309" lon="5.43469">
        <ele>364.48</ele>
        <time>2021-07-23T17:08:26Z</time>
      </trkpt>
      <trkpt lat="49.21347" lon="5.43565">
        <ele>366.4</ele>
        <time>2021-07-23T17:08:39Z</time>
      </trkpt>
      <trkpt lat="49.21413" lon="5.43677">
        <ele>370.73</ele>
        <time>2021-07-23T17:08:52Z</time>
      </trkpt>
      <trkpt lat="49.21485" lon="5.43771">
        <ele>375.05</ele>
        <time>2021-07-23T17:09:05Z</time>
      </trkpt>
      <trkpt lat="49.21495" lon="5.43783">
        <ele>375.53</ele>
        <time>2021-07-23T17:09:07Z</time>
      </trkpt>
      <trkpt lat="49.215" lon="5.43788">
        <ele>376.01</ele>
        <time>2021-07-23T17:09:08Z</time>
      </trkpt>
      <trkpt lat="49.21504" lon="5.43793">
        <ele>376.01</ele>
        <time>2021-07-23T17:09:09Z</time>
      </trkpt>
      <trkpt lat="49.21507" lon="5.43797">
        <ele>376.49</ele>
        <time>2021-07-23T17:09:10Z</time>
      </trkpt>
      <trkpt lat="49.21511" lon="5.43801">
        <ele>376.49</ele>
        <time>2021-07-23T17:09:11Z</time>
      </trkpt>
      <trkpt lat="49.21513" lon="5.43804">
        <ele>376.49</ele>
        <time>2021-07-23T17:09:12Z</time>
      </trkpt>
      <trkpt lat="49.2152" lon="5.43901">
        <ele>376.01</ele>
        <time>2021-07-23T17:09:23Z</time>
      </trkpt>
      <trkpt lat="49.21529" lon="5.43935">
        <ele>376.49</ele>
        <time>2021-07-23T17:09:29Z</time>
      </trkpt>
      <trkpt lat="49.21549" lon="5.43933">
        <ele>375.53</ele>
        <time>2021-07-23T17:09:36Z</time>
      </trkpt>
      <trkpt lat="49.21548" lon="5.43916">
        <ele>375.53</ele>
        <time>2021-07-23T17:09:39Z</time>
      </trkpt>
      <trkpt lat="49.21538" lon="5.43833">
        <ele>375.53</ele>
        <time>2021-07-23T17:09:52Z</time>
      </trkpt>
      <trkpt lat="49.21536" lon="5.43831">
        <ele>375.53</ele>
        <time>2021-07-23T17:09:53Z</time>
      </trkpt>
      <trkpt lat="49.21532" lon="5.43839">
        <ele>376.97</ele>
        <time>2021-07-23T17:10:05Z</time>
      </trkpt>
    </trkseg>
  </trk>
  <trk>
    <name><![CDATA[Journal actif: 2021-07-23 16:37]]></name>
    <trkseg>
      <trkpt lat="49.21535" lon="5.43844">
        <ele>386.59</ele>
        <time>2021-07-23T18:37:10Z</time>
      </trkpt>
      <trkpt lat="49.21536" lon="5.4383">
        <ele>386.11</ele>
        <time>2021-07-23T18:37:26Z</time>
      </trkpt>
      <trkpt lat="49.2153" lon="5.43824">
        <ele>386.11</ele>
        <time>2021-07-23T18:37:28Z</time>
      </trkpt>
      <trkpt lat="49.21477" lon="5.4376">
        <ele>381.78</ele>
        <time>2021-07-23T18:37:40Z</time>
      </trkpt>
      <trkpt lat="49.21386" lon="5.43634">
        <ele>374.57</ele>
        <time>2021-07-23T18:37:51Z</time>
      </trkpt>
      <trkpt lat="49.21306" lon="5.43461">
        <ele>366.88</ele>
        <time>2021-07-23T18:38:02Z</time>
      </trkpt>
      <trkpt lat="49.21162" lon="5.43193">
        <ele>358.71</ele>
        <time>2021-07-23T18:38:19Z</time>
      </trkpt>
      <trkpt lat="49.21058" lon="5.43069">
        <ele>353.42</ele>
        <time>2021-07-23T18:38:30Z</time>
      </trkpt>
      <trkpt lat="49.20899" lon="5.42916">
        <ele>347.17</ele>
        <time>2021-07-23T18:38:44Z</time>
      </trkpt>
      <trkpt lat="49.20828" lon="5.42806">
        <ele>343.81</ele>
        <time>2021-07-23T18:38:54Z</time>
      </trkpt>
      <trkpt lat="49.20825" lon="5.42801">
        <ele>343.33</ele>
        <time>2021-07-23T18:38:55Z</time>
      </trkpt>
      <trkpt lat="49.20823" lon="5.42798">
        <ele>343.81</ele>
        <time>2021-07-23T18:38:56Z</time>
      </trkpt>
      <trkpt lat="49.20821" lon="5.42795">
        <ele>343.81</ele>
        <time>2021-07-23T18:38:57Z</time>
      </trkpt>
      <trkpt lat="49.2082" lon="5.42794">
        <ele>343.81</ele>
        <time>2021-07-23T18:38:58Z</time>
      </trkpt>
      <trkpt lat="49.20819" lon="5.42793">
        <ele>343.81</ele>
        <time>2021-07-23T18:38:59Z</time>
      </trkpt>
      <trkpt lat="49.20824" lon="5.42783">
        <ele>344.29</ele>
        <time>2021-07-23T18:39:00Z</time>
      </trkpt>
      <trkpt lat="49.20824" lon="5.42783">
        <ele>344.29</ele>
        <time>2021-07-23T18:39:01Z</time>
      </trkpt>
      <trkpt lat="49.20825" lon="5.42783">
        <ele>344.77</ele>
        <time>2021-07-23T18:39:02Z</time>
      </trkpt>
      <trkpt lat="49.20828" lon="5.42783">
        <ele>344.77</ele>
        <time>2021-07-23T18:39:03Z</time>
      </trkpt>
      <trkpt lat="49.20831" lon="5.42783">
        <ele>344.77</ele>
        <time>2021-07-23T18:39:04Z</time>
      </trkpt>
      <trkpt lat="49.2084" lon="5.42783">
        <ele>344.77</ele>
        <time>2021-07-23T18:39:05Z</time>
      </trkpt>
      <trkpt lat="49.20908" lon="5.42784">
        <ele>349.58</ele>
        <time>2021-07-23T18:39:18Z</time>
      </trkpt>
      <trkpt lat="49.2098" lon="5.42776">
        <ele>354.38</ele>
        <time>2021-07-23T18:39:31Z</time>
      </trkpt>
      <trkpt lat="49.21078" lon="5.42763">
        <ele>354.38</ele>
        <time>2021-07-23T18:39:44Z</time>
      </trkpt>
      <trkpt lat="49.21177" lon="5.42739">
        <ele>345.73</ele>
        <time>2021-07-23T18:39:55Z</time>
      </trkpt>
      <trkpt lat="49.21275" lon="5.42703">
        <ele>334.2</ele>
        <time>2021-07-23T18:40:04Z</time>
      </trkpt>
      <trkpt lat="49.21285" lon="5.42698">
        <ele>332.75</ele>
        <time>2021-07-23T18:40:05Z</time>
      </trkpt>
      <trkpt lat="49.21293" lon="5.42686">
        <ele>331.31</ele>
        <time>2021-07-23T18:40:06Z</time>
      </trkpt>
      <trkpt lat="49.213" lon="5.42674">
        <ele>332.75</ele>
        <time>2021-07-23T18:40:07Z</time>
      </trkpt>
      <trkpt lat="49.21306" lon="5.42663">
        <ele>331.79</ele>
        <time>2021-07-23T18:40:08Z</time>
      </trkpt>
      <trkpt lat="49.21309" lon="5.42652">
        <ele>331.31</ele>
        <time>2021-07-23T18:40:09Z</time>
      </trkpt>
      <trkpt lat="49.21311" lon="5.42641">
        <ele>330.83</ele>
        <time>2021-07-23T18:40:10Z</time>
      </trkpt>
      <trkpt lat="49.21313" lon="5.42633">
        <ele>330.83</ele>
        <time>2021-07-23T18:40:11Z</time>
      </trkpt>
      <trkpt lat="49.21325" lon="5.42559">
        <ele>332.75</ele>
        <time>2021-07-23T18:40:22Z</time>
      </trkpt>
      <trkpt lat="49.21325" lon="5.42559">
        <ele>332.27</ele>
        <time>2021-07-23T18:40:23Z</time>
      </trkpt>
      <trkpt lat="49.21326" lon="5.42552">
        <ele>331.79</ele>
        <time>2021-07-23T18:40:24Z</time>
      </trkpt>
      <trkpt lat="49.21327" lon="5.42547">
        <ele>331.31</ele>
        <time>2021-07-23T18:40:25Z</time>
      </trkpt>
      <trkpt lat="49.21327" lon="5.42543">
        <ele>331.31</ele>
        <time>2021-07-23T18:40:26Z</time>
      </trkpt>
      <trkpt lat="49.21328" lon="5.42539">
        <ele>330.83</ele>
        <time>2021-07-23T18:40:27Z</time>
      </trkpt>
      <trkpt lat="49.21328" lon="5.42536">
        <ele>330.83</ele>
        <time>2021-07-23T18:40:28Z</time>
      </trkpt>
      <trkpt lat="49.21329" lon="5.42534">
        <ele>330.35</ele>
        <time>2021-07-23T18:40:46Z</time>
      </trkpt>
      <trkpt lat="49.21329" lon="5.42534">
        <ele>330.35</ele>
        <time>2021-07-23T18:46:38Z</time>
      </trkpt>
      <trkpt lat="49.21329" lon="5.42534">
        <ele>330.35</ele>
        <time>2021-07-23T18:49:32Z</time>
      </trkpt>
      <trkpt lat="49.21329" lon="5.42534">
        <ele>330.35</ele>
        <time>2021-07-23T18:52:22Z</time>
      </trkpt>
      <trkpt lat="49.21329" lon="5.42534">
        <ele>330.83</ele>
        <time>2021-07-23T18:54:47Z</time>
      </trkpt>
      <trkpt lat="49.21329" lon="5.42534">
        <ele>331.31</ele>
        <time>2021-07-23T18:57:11Z</time>
      </trkpt>
      <trkpt lat="49.21329" lon="5.42534">
        <ele>331.31</ele>
        <time>2021-07-23T18:57:36Z</time>
      </trkpt>
      <trkpt lat="49.21331" lon="5.42516">
        <ele>330.83</ele>
        <time>2021-07-23T18:57:43Z</time>
      </trkpt>
      <trkpt lat="49.21331" lon="5.42516">
        <ele>330.83</ele>
        <time>2021-07-23T18:57:44Z</time>
      </trkpt>
      <trkpt lat="49.21342" lon="5.42428">
        <ele>326.99</ele>
        <time>2021-07-23T18:57:52Z</time>
      </trkpt>
      <trkpt lat="49.21358" lon="5.42194">
        <ele>315.93</ele>
        <time>2021-07-23T18:58:07Z</time>
      </trkpt>
      <trkpt lat="49.21323" lon="5.42004">
        <ele>307.76</ele>
        <time>2021-07-23T18:58:17Z</time>
      </trkpt>
      <trkpt lat="49.21294" lon="5.41794">
        <ele>297.18</ele>
        <time>2021-07-23T18:58:27Z</time>
      </trkpt>
      <trkpt lat="49.21299" lon="5.4177">
        <ele>296.7</ele>
        <time>2021-07-23T18:58:28Z</time>
      </trkpt>
      <trkpt lat="49.21302" lon="5.41755">
        <ele>296.22</ele>
        <time>2021-07-23T18:58:29Z</time>
      </trkpt>
      <trkpt lat="49.21311" lon="5.41739">
        <ele>295.26</ele>
        <time>2021-07-23T18:58:30Z</time>
      </trkpt>
      <trkpt lat="49.21328" lon="5.4171">
        <ele>293.34</ele>
        <time>2021-07-23T18:58:31Z</time>
      </trkpt>
      <trkpt lat="49.21336" lon="5.41706">
        <ele>290.94</ele>
        <time>2021-07-23T18:58:32Z</time>
      </trkpt>
      <trkpt lat="49.21336" lon="5.41706">
        <ele>291.9</ele>
        <time>2021-07-23T18:58:33Z</time>
      </trkpt>
      <trkpt lat="49.21362" lon="5.41695">
        <ele>292.86</ele>
        <time>2021-07-23T18:58:34Z</time>
      </trkpt>
      <trkpt lat="49.21376" lon="5.41692">
        <ele>293.34</ele>
        <time>2021-07-23T18:58:35Z</time>
      </trkpt>
      <trkpt lat="49.2139" lon="5.4169">
        <ele>292.86</ele>
        <time>2021-07-23T18:58:36Z</time>
      </trkpt>
      <trkpt lat="49.21447" lon="5.41676">
        <ele>292.38</ele>
        <time>2021-07-23T18:58:41Z</time>
      </trkpt>
      <trkpt lat="49.21461" lon="5.4167">
        <ele>290.94</ele>
        <time>2021-07-23T18:58:42Z</time>
      </trkpt>
      <trkpt lat="49.21475" lon="5.41663">
        <ele>290.94</ele>
        <time>2021-07-23T18:58:43Z</time>
      </trkpt>
      <trkpt lat="49.21569" lon="5.41567">
        <ele>283.73</ele>
        <time>2021-07-23T18:58:51Z</time>
      </trkpt>
      <trkpt lat="49.21626" lon="5.41417">
        <ele>279.88</ele>
        <time>2021-07-23T18:58:59Z</time>
      </trkpt>
      <trkpt lat="49.21681" lon="5.41249">
        <ele>273.63</ele>
        <time>2021-07-23T18:59:07Z</time>
      </trkpt>
      <trkpt lat="49.21696" lon="5.41216">
        <ele>271.71</ele>
        <time>2021-07-23T18:59:09Z</time>
      </trkpt>
      <trkpt lat="49.21704" lon="5.41206">
        <ele>270.75</ele>
        <time>2021-07-23T18:59:10Z</time>
      </trkpt>
      <trkpt lat="49.21714" lon="5.41198">
        <ele>269.79</ele>
        <time>2021-07-23T18:59:11Z</time>
      </trkpt>
      <trkpt lat="49.21718" lon="5.41195">
        <ele>268.83</ele>
        <time>2021-07-23T18:59:12Z</time>
      </trkpt>
      <trkpt lat="49.2173" lon="5.41193">
        <ele>269.31</ele>
        <time>2021-07-23T18:59:13Z</time>
      </trkpt>
      <trkpt lat="49.21742" lon="5.41192">
        <ele>269.31</ele>
        <time>2021-07-23T18:59:14Z</time>
      </trkpt>
      <trkpt lat="49.21766" lon="5.41189">
        <ele>268.83</ele>
        <time>2021-07-23T18:59:15Z</time>
      </trkpt>
      <trkpt lat="49.21766" lon="5.41189">
        <ele>267.86</ele>
        <time>2021-07-23T18:59:16Z</time>
      </trkpt>
      <trkpt lat="49.21779" lon="5.41187">
        <ele>266.9</ele>
        <time>2021-07-23T18:59:17Z</time>
      </trkpt>
      <trkpt lat="49.21877" lon="5.41136">
        <ele>259.69</ele>
        <time>2021-07-23T18:59:24Z</time>
      </trkpt>
      <trkpt lat="49.2189" lon="5.41126">
        <ele>258.73</ele>
        <time>2021-07-23T18:59:25Z</time>
      </trkpt>
      <trkpt lat="49.21901" lon="5.41111">
        <ele>256.81</ele>
        <time>2021-07-23T18:59:26Z</time>
      </trkpt>
      <trkpt lat="49.21912" lon="5.41097">
        <ele>255.37</ele>
        <time>2021-07-23T18:59:27Z</time>
      </trkpt>
      <trkpt lat="49.21921" lon="5.41079">
        <ele>254.41</ele>
        <time>2021-07-23T18:59:28Z</time>
      </trkpt>
      <trkpt lat="49.21931" lon="5.4106">
        <ele>252.96</ele>
        <time>2021-07-23T18:59:29Z</time>
      </trkpt>
      <trkpt lat="49.21948" lon="5.41028">
        <ele>250.56</ele>
        <time>2021-07-23T18:59:31Z</time>
      </trkpt>
      <trkpt lat="49.21959" lon="5.41018">
        <ele>249.12</ele>
        <time>2021-07-23T18:59:32Z</time>
      </trkpt>
      <trkpt lat="49.21968" lon="5.41013">
        <ele>247.68</ele>
        <time>2021-07-23T18:59:33Z</time>
      </trkpt>
      <trkpt lat="49.21976" lon="5.41008">
        <ele>244.31</ele>
        <time>2021-07-23T18:59:34Z</time>
      </trkpt>
      <trkpt lat="49.21989" lon="5.41008">
        <ele>241.91</ele>
        <time>2021-07-23T18:59:35Z</time>
      </trkpt>
      <trkpt lat="49.22001" lon="5.41009">
        <ele>240.95</ele>
        <time>2021-07-23T18:59:36Z</time>
      </trkpt>
      <trkpt lat="49.22011" lon="5.41015">
        <ele>239.51</ele>
        <time>2021-07-23T18:59:37Z</time>
      </trkpt>
      <trkpt lat="49.22022" lon="5.41025">
        <ele>238.54</ele>
        <time>2021-07-23T18:59:38Z</time>
      </trkpt>
      <trkpt lat="49.22032" lon="5.41036">
        <ele>237.1</ele>
        <time>2021-07-23T18:59:39Z</time>
      </trkpt>
      <trkpt lat="49.22041" lon="5.41047">
        <ele>236.14</ele>
        <time>2021-07-23T18:59:40Z</time>
      </trkpt>
      <trkpt lat="49.22067" lon="5.41075">
        <ele>235.18</ele>
        <time>2021-07-23T18:59:43Z</time>
      </trkpt>
      <trkpt lat="49.2207" lon="5.41079">
        <ele>235.18</ele>
        <time>2021-07-23T18:59:44Z</time>
      </trkpt>
      <trkpt lat="49.22081" lon="5.41082">
        <ele>234.22</ele>
        <time>2021-07-23T18:59:45Z</time>
      </trkpt>
      <trkpt lat="49.22085" lon="5.41083">
        <ele>233.26</ele>
        <time>2021-07-23T18:59:46Z</time>
      </trkpt>
      <trkpt lat="49.22094" lon="5.41077">
        <ele>231.81</ele>
        <time>2021-07-23T18:59:47Z</time>
      </trkpt>
      <trkpt lat="49.221" lon="5.41072">
        <ele>230.85</ele>
        <time>2021-07-23T18:59:48Z</time>
      </trkpt>
      <trkpt lat="49.22105" lon="5.41063">
        <ele>230.37</ele>
        <time>2021-07-23T18:59:49Z</time>
      </trkpt>
      <trkpt lat="49.22107" lon="5.41043">
        <ele>230.85</ele>
        <time>2021-07-23T18:59:50Z</time>
      </trkpt>
      <trkpt lat="49.22106" lon="5.41033">
        <ele>230.85</ele>
        <time>2021-07-23T18:59:51Z</time>
      </trkpt>
      <trkpt lat="49.22106" lon="5.41033">
        <ele>230.37</ele>
        <time>2021-07-23T18:59:52Z</time>
      </trkpt>
      <trkpt lat="49.22102" lon="5.4102">
        <ele>230.37</ele>
        <time>2021-07-23T18:59:53Z</time>
      </trkpt>
      <trkpt lat="49.22064" lon="5.40858">
        <ele>226.53</ele>
        <time>2021-07-23T19:00:02Z</time>
      </trkpt>
      <trkpt lat="49.22021" lon="5.40552">
        <ele>224.12</ele>
        <time>2021-07-23T19:00:15Z</time>
      </trkpt>
      <trkpt lat="49.22006" lon="5.40301">
        <ele>221.72</ele>
        <time>2021-07-23T19:00:25Z</time>
      </trkpt>
      <trkpt lat="49.22032" lon="5.40057">
        <ele>218.36</ele>
        <time>2021-07-23T19:00:35Z</time>
      </trkpt>
      <trkpt lat="49.22039" lon="5.40038">
        <ele>218.36</ele>
        <time>2021-07-23T19:00:36Z</time>
      </trkpt>
      <trkpt lat="49.22055" lon="5.39997">
        <ele>217.4</ele>
        <time>2021-07-23T19:00:37Z</time>
      </trkpt>
      <trkpt lat="49.22116" lon="5.39832">
        <ele>218.36</ele>
        <time>2021-07-23T19:00:45Z</time>
      </trkpt>
      <trkpt lat="49.22119" lon="5.39811">
        <ele>218.84</ele>
        <time>2021-07-23T19:00:46Z</time>
      </trkpt>
      <trkpt lat="49.22119" lon="5.39811">
        <ele>217.88</ele>
        <time>2021-07-23T19:00:47Z</time>
      </trkpt>
      <trkpt lat="49.2212" lon="5.3979">
        <ele>218.36</ele>
        <time>2021-07-23T19:00:48Z</time>
      </trkpt>
      <trkpt lat="49.22122" lon="5.39767">
        <ele>217.4</ele>
        <time>2021-07-23T19:00:49Z</time>
      </trkpt>
      <trkpt lat="49.22118" lon="5.39744">
        <ele>216.43</ele>
        <time>2021-07-23T19:00:50Z</time>
      </trkpt>
      <trkpt lat="49.22114" lon="5.39719">
        <ele>215.47</ele>
        <time>2021-07-23T19:00:51Z</time>
      </trkpt>
      <trkpt lat="49.22108" lon="5.39695">
        <ele>214.99</ele>
        <time>2021-07-23T19:00:52Z</time>
      </trkpt>
      <trkpt lat="49.22102" lon="5.39673">
        <ele>214.03</ele>
        <time>2021-07-23T19:00:53Z</time>
      </trkpt>
      <trkpt lat="49.22031" lon="5.39428">
        <ele>212.11</ele>
        <time>2021-07-23T19:01:04Z</time>
      </trkpt>
      <trkpt lat="49.21964" lon="5.39144">
        <ele>209.7</ele>
        <time>2021-07-23T19:01:16Z</time>
      </trkpt>
      <trkpt lat="49.21897" lon="5.38895">
        <ele>206.82</ele>
        <time>2021-07-23T19:01:27Z</time>
      </trkpt>
      <trkpt lat="49.21877" lon="5.38741">
        <ele>205.86</ele>
        <time>2021-07-23T19:01:34Z</time>
      </trkpt>
      <trkpt lat="49.21871" lon="5.38724">
        <ele>205.86</ele>
        <time>2021-07-23T19:01:35Z</time>
      </trkpt>
      <trkpt lat="49.21823" lon="5.38611">
        <ele>206.34</ele>
        <time>2021-07-23T19:01:42Z</time>
      </trkpt>
      <trkpt lat="49.21673" lon="5.38431">
        <ele>206.34</ele>
        <time>2021-07-23T19:01:56Z</time>
      </trkpt>
      <trkpt lat="49.21542" lon="5.38282">
        <ele>207.3</ele>
        <time>2021-07-23T19:02:06Z</time>
      </trkpt>
      <trkpt lat="49.2138" lon="5.38063">
        <ele>204.9</ele>
        <time>2021-07-23T19:02:22Z</time>
      </trkpt>
      <trkpt lat="49.21361" lon="5.38047">
        <ele>202.98</ele>
        <time>2021-07-23T19:02:24Z</time>
      </trkpt>
      <trkpt lat="49.21351" lon="5.38037">
        <ele>202.49</ele>
        <time>2021-07-23T19:02:25Z</time>
      </trkpt>
      <trkpt lat="49.21339" lon="5.38031">
        <ele>202.01</ele>
        <time>2021-07-23T19:02:26Z</time>
      </trkpt>
      <trkpt lat="49.21328" lon="5.38027">
        <ele>201.05</ele>
        <time>2021-07-23T19:02:27Z</time>
      </trkpt>
      <trkpt lat="49.21318" lon="5.38024">
        <ele>201.05</ele>
        <time>2021-07-23T19:02:28Z</time>
      </trkpt>
      <trkpt lat="49.21178" lon="5.37964">
        <ele>195.28</ele>
        <time>2021-07-23T19:02:40Z</time>
      </trkpt>
      <trkpt lat="49.21088" lon="5.37894">
        <ele>191.92</ele>
        <time>2021-07-23T19:02:49Z</time>
      </trkpt>
      <trkpt lat="49.21082" lon="5.37885">
        <ele>191.44</ele>
        <time>2021-07-23T19:02:50Z</time>
      </trkpt>
      <trkpt lat="49.21077" lon="5.37872">
        <ele>191.44</ele>
        <time>2021-07-23T19:02:51Z</time>
      </trkpt>
      <trkpt lat="49.21073" lon="5.3786">
        <ele>191.92</ele>
        <time>2021-07-23T19:02:52Z</time>
      </trkpt>
      <trkpt lat="49.21069" lon="5.37848">
        <ele>192.4</ele>
        <time>2021-07-23T19:02:53Z</time>
      </trkpt>
      <trkpt lat="49.2101" lon="5.37608">
        <ele>190.48</ele>
        <time>2021-07-23T19:03:11Z</time>
      </trkpt>
      <trkpt lat="49.21003" lon="5.37566">
        <ele>190</ele>
        <time>2021-07-23T19:03:17Z</time>
      </trkpt>
      <trkpt lat="49.21009" lon="5.37558">
        <ele>190</ele>
        <time>2021-07-23T19:03:30Z</time>
      </trkpt>
      <trkpt lat="49.21018" lon="5.37553">
        <ele>190</ele>
        <time>2021-07-23T19:03:31Z</time>
      </trkpt>
      <trkpt lat="49.21079" lon="5.3752">
        <ele>190</ele>
        <time>2021-07-23T19:03:41Z</time>
      </trkpt>
      <trkpt lat="49.21092" lon="5.37513">
        <ele>190</ele>
        <time>2021-07-23T19:03:48Z</time>
      </trkpt>
      <trkpt lat="49.21098" lon="5.37507">
        <ele>190</ele>
        <time>2021-07-23T19:03:53Z</time>
      </trkpt>
      <trkpt lat="49.21098" lon="5.37507">
        <ele>190</ele>
        <time>2021-07-23T19:03:54Z</time>
      </trkpt>
      <trkpt lat="49.21098" lon="5.37503">
        <ele>190</ele>
        <time>2021-07-23T19:03:55Z</time>
      </trkpt>
      <trkpt lat="49.21098" lon="5.37497">
        <ele>190</ele>
        <time>2021-07-23T19:03:56Z</time>
      </trkpt>
      <trkpt lat="49.21097" lon="5.37492">
        <ele>190</ele>
        <time>2021-07-23T19:03:57Z</time>
      </trkpt>
      <trkpt lat="49.21097" lon="5.37415">
        <ele>188.56</ele>
        <time>2021-07-23T19:04:10Z</time>
      </trkpt>
      <trkpt lat="49.21112" lon="5.37346">
        <ele>188.56</ele>
        <time>2021-07-23T19:04:21Z</time>
      </trkpt>
      <trkpt lat="49.21117" lon="5.37328">
        <ele>188.56</ele>
        <time>2021-07-23T19:04:30Z</time>
      </trkpt>
      <trkpt lat="49.21118" lon="5.37323">
        <ele>188.56</ele>
        <time>2021-07-23T19:04:31Z</time>
      </trkpt>
      <trkpt lat="49.21119" lon="5.3732">
        <ele>188.56</ele>
        <time>2021-07-23T19:04:32Z</time>
      </trkpt>
      <trkpt lat="49.21119" lon="5.3732">
        <ele>189.04</ele>
        <time>2021-07-23T19:04:33Z</time>
      </trkpt>
      <trkpt lat="49.21119" lon="5.37319">
        <ele>189.04</ele>
        <time>2021-07-23T19:04:36Z</time>
      </trkpt>
      <trkpt lat="49.21119" lon="5.37321">
        <ele>190</ele>
        <time>2021-07-23T19:04:37Z</time>
      </trkpt>
      <trkpt lat="49.21118" lon="5.37323">
        <ele>189.52</ele>
        <time>2021-07-23T19:04:38Z</time>
      </trkpt>
      <trkpt lat="49.21117" lon="5.37326">
        <ele>189.04</ele>
        <time>2021-07-23T19:04:39Z</time>
      </trkpt>
      <trkpt lat="49.21116" lon="5.3733">
        <ele>189.04</ele>
        <time>2021-07-23T19:04:40Z</time>
      </trkpt>
      <trkpt lat="49.21115" lon="5.37333">
        <ele>189.52</ele>
        <time>2021-07-23T19:04:41Z</time>
      </trkpt>
      <trkpt lat="49.21115" lon="5.37335">
        <ele>189.52</ele>
        <time>2021-07-23T19:04:42Z</time>
      </trkpt>
      <trkpt lat="49.21111" lon="5.3735">
        <ele>189.04</ele>
        <time>2021-07-23T19:04:54Z</time>
      </trkpt>
      <trkpt lat="49.21098" lon="5.37409">
        <ele>190</ele>
        <time>2021-07-23T19:05:01Z</time>
      </trkpt>
      <trkpt lat="49.21098" lon="5.37409">
        <ele>190</ele>
        <time>2021-07-23T19:05:02Z</time>
      </trkpt>
      <trkpt lat="49.21098" lon="5.37496">
        <ele>190.48</ele>
        <time>2021-07-23T19:05:11Z</time>
      </trkpt>
      <trkpt lat="49.21098" lon="5.375">
        <ele>190.96</ele>
        <time>2021-07-23T19:05:23Z</time>
      </trkpt>
      <trkpt lat="49.21098" lon="5.375">
        <ele>190.96</ele>
        <time>2021-07-23T19:05:28Z</time>
      </trkpt>
      <trkpt lat="49.21098" lon="5.37505">
        <ele>190.48</ele>
        <time>2021-07-23T19:05:29Z</time>
      </trkpt>
      <trkpt lat="49.21103" lon="5.37508">
        <ele>190.48</ele>
        <time>2021-07-23T19:05:30Z</time>
      </trkpt>
      <trkpt lat="49.21106" lon="5.37507">
        <ele>190.48</ele>
        <time>2021-07-23T19:05:31Z</time>
      </trkpt>
      <trkpt lat="49.21111" lon="5.37504">
        <ele>190.48</ele>
        <time>2021-07-23T19:05:32Z</time>
      </trkpt>
      <trkpt lat="49.21117" lon="5.37501">
        <ele>190.48</ele>
        <time>2021-07-23T19:05:33Z</time>
      </trkpt>
      <trkpt lat="49.21193" lon="5.37462">
        <ele>190.96</ele>
        <time>2021-07-23T19:05:43Z</time>
      </trkpt>
      <trkpt lat="49.21319" lon="5.37396">
        <ele>190</ele>
        <time>2021-07-23T19:05:56Z</time>
      </trkpt>
      <trkpt lat="49.21492" lon="5.37304">
        <ele>188.08</ele>
        <time>2021-07-23T19:06:12Z</time>
      </trkpt>
      <trkpt lat="49.21723" lon="5.3718">
        <ele>186.63</ele>
        <time>2021-07-23T19:06:30Z</time>
      </trkpt>
      <trkpt lat="49.21852" lon="5.37088">
        <ele>188.56</ele>
        <time>2021-07-23T19:06:42Z</time>
      </trkpt>
      <trkpt lat="49.21925" lon="5.36956">
        <ele>187.59</ele>
        <time>2021-07-23T19:06:51Z</time>
      </trkpt>
      <trkpt lat="49.22017" lon="5.36778">
        <ele>189.52</ele>
        <time>2021-07-23T19:07:02Z</time>
      </trkpt>
      <trkpt lat="49.22049" lon="5.36716">
        <ele>189.04</ele>
        <time>2021-07-23T19:07:10Z</time>
      </trkpt>
      <trkpt lat="49.22103" lon="5.36613">
        <ele>189.04</ele>
        <time>2021-07-23T19:07:19Z</time>
      </trkpt>
      <trkpt lat="49.22218" lon="5.3639">
        <ele>190.96</ele>
        <time>2021-07-23T19:07:35Z</time>
      </trkpt>
      <trkpt lat="49.22282" lon="5.36262">
        <ele>190.48</ele>
        <time>2021-07-23T19:07:47Z</time>
      </trkpt>
      <trkpt lat="49.22286" lon="5.36254">
        <ele>190.48</ele>
        <time>2021-07-23T19:07:48Z</time>
      </trkpt>
      <trkpt lat="49.22287" lon="5.36251">
        <ele>190.48</ele>
        <time>2021-07-23T19:07:49Z</time>
      </trkpt>
      <trkpt lat="49.22306" lon="5.36247">
        <ele>190.96</ele>
        <time>2021-07-23T19:07:50Z</time>
      </trkpt>
      <trkpt lat="49.22306" lon="5.36247">
        <ele>190.96</ele>
        <time>2021-07-23T19:07:51Z</time>
      </trkpt>
      <trkpt lat="49.2231" lon="5.36241">
        <ele>190.48</ele>
        <time>2021-07-23T19:07:52Z</time>
      </trkpt>
      <trkpt lat="49.22314" lon="5.36234">
        <ele>190.48</ele>
        <time>2021-07-23T19:07:53Z</time>
      </trkpt>
      <trkpt lat="49.22317" lon="5.36228">
        <ele>190.96</ele>
        <time>2021-07-23T19:07:54Z</time>
      </trkpt>
      <trkpt lat="49.22316" lon="5.36221">
        <ele>190.96</ele>
        <time>2021-07-23T19:07:55Z</time>
      </trkpt>
      <trkpt lat="49.22315" lon="5.36217">
        <ele>190.96</ele>
        <time>2021-07-23T19:07:56Z</time>
      </trkpt>
      <trkpt lat="49.22313" lon="5.36215">
        <ele>190.96</ele>
        <time>2021-07-23T19:07:57Z</time>
      </trkpt>
      <trkpt lat="49.22309" lon="5.36212">
        <ele>190.96</ele>
        <time>2021-07-23T19:07:58Z</time>
      </trkpt>
      <trkpt lat="49.22304" lon="5.36208">
        <ele>190.96</ele>
        <time>2021-07-23T19:07:59Z</time>
      </trkpt>
      <trkpt lat="49.22302" lon="5.3621">
        <ele>190.48</ele>
        <time>2021-07-23T19:08:00Z</time>
      </trkpt>
      <trkpt lat="49.22297" lon="5.36216">
        <ele>190.48</ele>
        <time>2021-07-23T19:08:01Z</time>
      </trkpt>
      <trkpt lat="49.2229" lon="5.36222">
        <ele>190.48</ele>
        <time>2021-07-23T19:08:02Z</time>
      </trkpt>
      <trkpt lat="49.22286" lon="5.36231">
        <ele>190.96</ele>
        <time>2021-07-23T19:08:03Z</time>
      </trkpt>
      <trkpt lat="49.22285" lon="5.36236">
        <ele>190.96</ele>
        <time>2021-07-23T19:08:04Z</time>
      </trkpt>
      <trkpt lat="49.22284" lon="5.36257">
        <ele>191.44</ele>
        <time>2021-07-23T19:08:05Z</time>
      </trkpt>
      <trkpt lat="49.22279" lon="5.36268">
        <ele>191.44</ele>
        <time>2021-07-23T19:08:06Z</time>
      </trkpt>
      <trkpt lat="49.22267" lon="5.36294">
        <ele>190.96</ele>
        <time>2021-07-23T19:08:07Z</time>
      </trkpt>
      <trkpt lat="49.22208" lon="5.36409">
        <ele>190.96</ele>
        <time>2021-07-23T19:08:15Z</time>
      </trkpt>
      <trkpt lat="49.22096" lon="5.36626">
        <ele>190.96</ele>
        <time>2021-07-23T19:08:25Z</time>
      </trkpt>
      <trkpt lat="49.2186" lon="5.37075">
        <ele>189.52</ele>
        <time>2021-07-23T19:08:45Z</time>
      </trkpt>
      <trkpt lat="49.21846" lon="5.37093">
        <ele>189.04</ele>
        <time>2021-07-23T19:08:46Z</time>
      </trkpt>
      <trkpt lat="49.21831" lon="5.37108">
        <ele>190</ele>
        <time>2021-07-23T19:08:47Z</time>
      </trkpt>
      <trkpt lat="49.21815" lon="5.37124">
        <ele>189.52</ele>
        <time>2021-07-23T19:08:48Z</time>
      </trkpt>
      <trkpt lat="49.21799" lon="5.37138">
        <ele>189.04</ele>
        <time>2021-07-23T19:08:49Z</time>
      </trkpt>
      <trkpt lat="49.21782" lon="5.37147">
        <ele>189.04</ele>
        <time>2021-07-23T19:08:50Z</time>
      </trkpt>
      <trkpt lat="49.21463" lon="5.3732">
        <ele>190.96</ele>
        <time>2021-07-23T19:09:07Z</time>
      </trkpt>
      <trkpt lat="49.21289" lon="5.37412">
        <ele>190.96</ele>
        <time>2021-07-23T19:09:18Z</time>
      </trkpt>
      <trkpt lat="49.21149" lon="5.37485">
        <ele>190.48</ele>
        <time>2021-07-23T19:09:32Z</time>
      </trkpt>
      <trkpt lat="49.20932" lon="5.37604">
        <ele>188.08</ele>
        <time>2021-07-23T19:09:51Z</time>
      </trkpt>
      <trkpt lat="49.2074" lon="5.37742">
        <ele>189.52</ele>
        <time>2021-07-23T19:10:08Z</time>
      </trkpt>
      <trkpt lat="49.20546" lon="5.37854">
        <ele>193.84</ele>
        <time>2021-07-23T19:10:22Z</time>
      </trkpt>
      <trkpt lat="49.20397" lon="5.37875">
        <ele>196.73</ele>
        <time>2021-07-23T19:10:33Z</time>
      </trkpt>
      <trkpt lat="49.203" lon="5.37888">
        <ele>197.21</ele>
        <time>2021-07-23T19:10:39Z</time>
      </trkpt>
      <trkpt lat="49.20285" lon="5.37889">
        <ele>197.21</ele>
        <time>2021-07-23T19:10:40Z</time>
      </trkpt>
      <trkpt lat="49.2027" lon="5.37885">
        <ele>196.25</ele>
        <time>2021-07-23T19:10:41Z</time>
      </trkpt>
      <trkpt lat="49.20256" lon="5.37881">
        <ele>196.73</ele>
        <time>2021-07-23T19:10:42Z</time>
      </trkpt>
      <trkpt lat="49.20241" lon="5.37877">
        <ele>197.21</ele>
        <time>2021-07-23T19:10:43Z</time>
      </trkpt>
      <trkpt lat="49.20031" lon="5.37781">
        <ele>200.09</ele>
        <time>2021-07-23T19:10:55Z</time>
      </trkpt>
      <trkpt lat="49.19827" lon="5.3774">
        <ele>200.09</ele>
        <time>2021-07-23T19:11:07Z</time>
      </trkpt>
      <trkpt lat="49.19511" lon="5.37719">
        <ele>201.53</ele>
        <time>2021-07-23T19:11:24Z</time>
      </trkpt>
      <trkpt lat="49.1931" lon="5.37689">
        <ele>204.9</ele>
        <time>2021-07-23T19:11:36Z</time>
      </trkpt>
      <trkpt lat="49.19236" lon="5.37655">
        <ele>206.82</ele>
        <time>2021-07-23T19:11:42Z</time>
      </trkpt>
      <trkpt lat="49.1921" lon="5.37634">
        <ele>207.3</ele>
        <time>2021-07-23T19:11:46Z</time>
      </trkpt>
      <trkpt lat="49.19206" lon="5.3763">
        <ele>207.3</ele>
        <time>2021-07-23T19:11:47Z</time>
      </trkpt>
      <trkpt lat="49.19204" lon="5.37605">
        <ele>206.34</ele>
        <time>2021-07-23T19:11:49Z</time>
      </trkpt>
      <trkpt lat="49.19201" lon="5.37596">
        <ele>205.86</ele>
        <time>2021-07-23T19:11:50Z</time>
      </trkpt>
      <trkpt lat="49.19196" lon="5.37589">
        <ele>206.34</ele>
        <time>2021-07-23T19:11:51Z</time>
      </trkpt>
      <trkpt lat="49.19191" lon="5.37583">
        <ele>206.34</ele>
        <time>2021-07-23T19:11:52Z</time>
      </trkpt>
      <trkpt lat="49.19184" lon="5.37584">
        <ele>206.34</ele>
        <time>2021-07-23T19:11:53Z</time>
      </trkpt>
      <trkpt lat="49.19178" lon="5.37585">
        <ele>206.34</ele>
        <time>2021-07-23T19:11:54Z</time>
      </trkpt>
      <trkpt lat="49.19174" lon="5.37586">
        <ele>206.34</ele>
        <time>2021-07-23T19:11:55Z</time>
      </trkpt>
      <trkpt lat="49.19174" lon="5.37586">
        <ele>207.3</ele>
        <time>2021-07-23T19:11:56Z</time>
      </trkpt>
      <trkpt lat="49.19153" lon="5.37596">
        <ele>207.3</ele>
        <time>2021-07-23T19:11:57Z</time>
      </trkpt>
      <trkpt lat="49.19137" lon="5.37586">
        <ele>207.78</ele>
        <time>2021-07-23T19:11:58Z</time>
      </trkpt>
      <trkpt lat="49.19137" lon="5.37586">
        <ele>208.26</ele>
        <time>2021-07-23T19:11:59Z</time>
      </trkpt>
      <trkpt lat="49.19128" lon="5.3758">
        <ele>209.22</ele>
        <time>2021-07-23T19:12:00Z</time>
      </trkpt>
      <trkpt lat="49.19022" lon="5.37499">
        <ele>211.15</ele>
        <time>2021-07-23T19:12:10Z</time>
      </trkpt>
      <trkpt lat="49.18823" lon="5.37354">
        <ele>214.99</ele>
        <time>2021-07-23T19:12:25Z</time>
      </trkpt>
      <trkpt lat="49.18578" lon="5.37172">
        <ele>217.88</ele>
        <time>2021-07-23T19:12:42Z</time>
      </trkpt>
      <trkpt lat="49.18434" lon="5.37069">
        <ele>219.32</ele>
        <time>2021-07-23T19:12:53Z</time>
      </trkpt>
      <trkpt lat="49.18401" lon="5.37049">
        <ele>221.24</ele>
        <time>2021-07-23T19:12:59Z</time>
      </trkpt>
    </trkseg>
  </trk>
  <trk>
    <name><![CDATA[Journal actif: 2021-07-23 17:15]]></name>
    <trkseg>
      <trkpt lat="49.18401" lon="5.37049">
        <ele>221.24</ele>
        <time>2021-07-23T19:15:11Z</time>
      </trkpt>
      <trkpt lat="49.18401" lon="5.37049">
        <ele>221.72</ele>
        <time>2021-07-23T19:15:28Z</time>
      </trkpt>
      <trkpt lat="49.18382" lon="5.37037">
        <ele>222.68</ele>
        <time>2021-07-23T19:15:50Z</time>
      </trkpt>
      <trkpt lat="49.18317" lon="5.36997">
        <ele>225.57</ele>
        <time>2021-07-23T19:16:01Z</time>
      </trkpt>
      <trkpt lat="49.18313" lon="5.36995">
        <ele>225.57</ele>
        <time>2021-07-23T19:16:02Z</time>
      </trkpt>
      <trkpt lat="49.18309" lon="5.36993">
        <ele>225.57</ele>
        <time>2021-07-23T19:16:03Z</time>
      </trkpt>
      <trkpt lat="49.18302" lon="5.36969">
        <ele>226.05</ele>
        <time>2021-07-23T19:16:08Z</time>
      </trkpt>
      <trkpt lat="49.18296" lon="5.36964">
        <ele>226.05</ele>
        <time>2021-07-23T19:16:09Z</time>
      </trkpt>
      <trkpt lat="49.18292" lon="5.36965">
        <ele>226.53</ele>
        <time>2021-07-23T19:16:10Z</time>
      </trkpt>
      <trkpt lat="49.18287" lon="5.36965">
        <ele>226.53</ele>
        <time>2021-07-23T19:16:11Z</time>
      </trkpt>
      <trkpt lat="49.18287" lon="5.36965">
        <ele>226.53</ele>
        <time>2021-07-23T19:16:12Z</time>
      </trkpt>
      <trkpt lat="49.18272" lon="5.36972">
        <ele>227.01</ele>
        <time>2021-07-23T19:16:13Z</time>
      </trkpt>
      <trkpt lat="49.18257" lon="5.36965">
        <ele>227.01</ele>
        <time>2021-07-23T19:16:14Z</time>
      </trkpt>
      <trkpt lat="49.18146" lon="5.3691">
        <ele>231.81</ele>
        <time>2021-07-23T19:16:26Z</time>
      </trkpt>
      <trkpt lat="49.1804" lon="5.36899">
        <ele>225.57</ele>
        <time>2021-07-23T19:16:35Z</time>
      </trkpt>
      <trkpt lat="49.17968" lon="5.36929">
        <ele>222.2</ele>
        <time>2021-07-23T19:16:42Z</time>
      </trkpt>
      <trkpt lat="49.17968" lon="5.36929">
        <ele>222.2</ele>
        <time>2021-07-23T19:16:43Z</time>
      </trkpt>
      <trkpt lat="49.17951" lon="5.36924">
        <ele>221.72</ele>
        <time>2021-07-23T19:16:45Z</time>
      </trkpt>
      <trkpt lat="49.17951" lon="5.36924">
        <ele>221.24</ele>
        <time>2021-07-23T19:16:46Z</time>
      </trkpt>
      <trkpt lat="49.1795" lon="5.36925">
        <ele>221.24</ele>
        <time>2021-07-23T19:16:47Z</time>
      </trkpt>
      <trkpt lat="49.17941" lon="5.36947">
        <ele>220.28</ele>
        <time>2021-07-23T19:16:49Z</time>
      </trkpt>
      <trkpt lat="49.17936" lon="5.36952">
        <ele>220.28</ele>
        <time>2021-07-23T19:16:50Z</time>
      </trkpt>
      <trkpt lat="49.1787" lon="5.37026">
        <ele>216.91</ele>
        <time>2021-07-23T19:16:59Z</time>
      </trkpt>
      <trkpt lat="49.17804" lon="5.37185">
        <ele>214.03</ele>
        <time>2021-07-23T19:17:10Z</time>
      </trkpt>
      <trkpt lat="49.17758" lon="5.37445">
        <ele>208.26</ele>
        <time>2021-07-23T19:17:25Z</time>
      </trkpt>
      <trkpt lat="49.1769" lon="5.37838">
        <ele>198.17</ele>
        <time>2021-07-23T19:17:47Z</time>
      </trkpt>
      <trkpt lat="49.17675" lon="5.37904">
        <ele>195.77</ele>
        <time>2021-07-23T19:17:52Z</time>
      </trkpt>
      <trkpt lat="49.17671" lon="5.37917">
        <ele>195.28</ele>
        <time>2021-07-23T19:17:53Z</time>
      </trkpt>
      <trkpt lat="49.17665" lon="5.37926">
        <ele>194.8</ele>
        <time>2021-07-23T19:17:54Z</time>
      </trkpt>
      <trkpt lat="49.17659" lon="5.37936">
        <ele>194.32</ele>
        <time>2021-07-23T19:17:55Z</time>
      </trkpt>
      <trkpt lat="49.17652" lon="5.37946">
        <ele>193.84</ele>
        <time>2021-07-23T19:17:56Z</time>
      </trkpt>
      <trkpt lat="49.17636" lon="5.37958">
        <ele>192.88</ele>
        <time>2021-07-23T19:17:57Z</time>
      </trkpt>
      <trkpt lat="49.17627" lon="5.37963">
        <ele>192.4</ele>
        <time>2021-07-23T19:17:58Z</time>
      </trkpt>
      <trkpt lat="49.17619" lon="5.37968">
        <ele>192.4</ele>
        <time>2021-07-23T19:17:59Z</time>
      </trkpt>
      <trkpt lat="49.17538" lon="5.38008">
        <ele>191.44</ele>
        <time>2021-07-23T19:18:12Z</time>
      </trkpt>
      <trkpt lat="49.17451" lon="5.38066">
        <ele>191.92</ele>
        <time>2021-07-23T19:18:24Z</time>
      </trkpt>
      <trkpt lat="49.1731" lon="5.38203">
        <ele>190.96</ele>
        <time>2021-07-23T19:18:42Z</time>
      </trkpt>
      <trkpt lat="49.17216" lon="5.38305">
        <ele>193.84</ele>
        <time>2021-07-23T19:18:54Z</time>
      </trkpt>
      <trkpt lat="49.17172" lon="5.3836">
        <ele>193.36</ele>
        <time>2021-07-23T19:19:03Z</time>
      </trkpt>
      <trkpt lat="49.17105" lon="5.38452">
        <ele>193.84</ele>
        <time>2021-07-23T19:19:14Z</time>
      </trkpt>
      <trkpt lat="49.17085" lon="5.38476">
        <ele>193.36</ele>
        <time>2021-07-23T19:19:19Z</time>
      </trkpt>
      <trkpt lat="49.17081" lon="5.38479">
        <ele>193.36</ele>
        <time>2021-07-23T19:19:22Z</time>
      </trkpt>
      <trkpt lat="49.17034" lon="5.38521">
        <ele>193.84</ele>
        <time>2021-07-23T19:19:31Z</time>
      </trkpt>
      <trkpt lat="49.16934" lon="5.38607">
        <ele>192.88</ele>
        <time>2021-07-23T19:19:44Z</time>
      </trkpt>
      <trkpt lat="49.16854" lon="5.38646">
        <ele>195.28</ele>
        <time>2021-07-23T19:19:53Z</time>
      </trkpt>
      <trkpt lat="49.16813" lon="5.3866">
        <ele>195.77</ele>
        <time>2021-07-23T19:20:04Z</time>
      </trkpt>
      <trkpt lat="49.16795" lon="5.38669">
        <ele>196.25</ele>
        <time>2021-07-23T19:20:14Z</time>
      </trkpt>
      <trkpt lat="49.16779" lon="5.38678">
        <ele>197.21</ele>
        <time>2021-07-23T19:20:22Z</time>
      </trkpt>
      <trkpt lat="49.16775" lon="5.38679">
        <ele>197.69</ele>
        <time>2021-07-23T19:20:23Z</time>
      </trkpt>
      <trkpt lat="49.16766" lon="5.38674">
        <ele>197.69</ele>
        <time>2021-07-23T19:20:24Z</time>
      </trkpt>
      <trkpt lat="49.16764" lon="5.38671">
        <ele>197.69</ele>
        <time>2021-07-23T19:20:25Z</time>
      </trkpt>
      <trkpt lat="49.16762" lon="5.38662">
        <ele>197.69</ele>
        <time>2021-07-23T19:20:26Z</time>
      </trkpt>
      <trkpt lat="49.16761" lon="5.38656">
        <ele>198.17</ele>
        <time>2021-07-23T19:20:27Z</time>
      </trkpt>
      <trkpt lat="49.16759" lon="5.38648">
        <ele>198.17</ele>
        <time>2021-07-23T19:20:28Z</time>
      </trkpt>
      <trkpt lat="49.16745" lon="5.38532">
        <ele>197.21</ele>
        <time>2021-07-23T19:20:41Z</time>
      </trkpt>
      <trkpt lat="49.16744" lon="5.38522">
        <ele>197.21</ele>
        <time>2021-07-23T19:20:42Z</time>
      </trkpt>
      <trkpt lat="49.16746" lon="5.38509">
        <ele>196.73</ele>
        <time>2021-07-23T19:20:43Z</time>
      </trkpt>
      <trkpt lat="49.16746" lon="5.38509">
        <ele>196.73</ele>
        <time>2021-07-23T19:20:44Z</time>
      </trkpt>
      <trkpt lat="49.16749" lon="5.38508">
        <ele>196.73</ele>
        <time>2021-07-23T19:20:45Z</time>
      </trkpt>
      <trkpt lat="49.16757" lon="5.38492">
        <ele>196.73</ele>
        <time>2021-07-23T19:20:46Z</time>
      </trkpt>
      <trkpt lat="49.16757" lon="5.38492">
        <ele>196.73</ele>
        <time>2021-07-23T19:20:47Z</time>
      </trkpt>
      <trkpt lat="49.16755" lon="5.38482">
        <ele>196.73</ele>
        <time>2021-07-23T19:20:48Z</time>
      </trkpt>
      <trkpt lat="49.16755" lon="5.38478">
        <ele>196.73</ele>
        <time>2021-07-23T19:20:49Z</time>
      </trkpt>
      <trkpt lat="49.16754" lon="5.38476">
        <ele>196.73</ele>
        <time>2021-07-23T19:20:51Z</time>
      </trkpt>
      <trkpt lat="49.16753" lon="5.38473">
        <ele>196.73</ele>
        <time>2021-07-23T19:20:52Z</time>
      </trkpt>
      <trkpt lat="49.16748" lon="5.38472">
        <ele>196.73</ele>
        <time>2021-07-23T19:20:53Z</time>
      </trkpt>
      <trkpt lat="49.16734" lon="5.38472">
        <ele>196.73</ele>
        <time>2021-07-23T19:20:57Z</time>
      </trkpt>
      <trkpt lat="49.16732" lon="5.38468">
        <ele>196.73</ele>
        <time>2021-07-23T19:20:58Z</time>
      </trkpt>
      <trkpt lat="49.16683" lon="5.38389">
        <ele>194.8</ele>
        <time>2021-07-23T19:21:09Z</time>
      </trkpt>
      <trkpt lat="49.16557" lon="5.38199">
        <ele>196.73</ele>
        <time>2021-07-23T19:21:30Z</time>
      </trkpt>
      <trkpt lat="49.16532" lon="5.38158">
        <ele>197.21</ele>
        <time>2021-07-23T19:21:38Z</time>
      </trkpt>
      <trkpt lat="49.16512" lon="5.38142">
        <ele>197.69</ele>
        <time>2021-07-23T19:21:42Z</time>
      </trkpt>
      <trkpt lat="49.16509" lon="5.38133">
        <ele>197.69</ele>
        <time>2021-07-23T19:21:43Z</time>
      </trkpt>
      <trkpt lat="49.16506" lon="5.38124">
        <ele>197.69</ele>
        <time>2021-07-23T19:21:44Z</time>
      </trkpt>
      <trkpt lat="49.16452" lon="5.37993">
        <ele>199.13</ele>
        <time>2021-07-23T19:21:57Z</time>
      </trkpt>
      <trkpt lat="49.16383" lon="5.37877">
        <ele>200.09</ele>
        <time>2021-07-23T19:22:09Z</time>
      </trkpt>
      <trkpt lat="49.16302" lon="5.37707">
        <ele>200.57</ele>
        <time>2021-07-23T19:22:22Z</time>
      </trkpt>
      <trkpt lat="49.16291" lon="5.37635">
        <ele>200.57</ele>
        <time>2021-07-23T19:22:27Z</time>
      </trkpt>
      <trkpt lat="49.1629" lon="5.37626">
        <ele>201.05</ele>
        <time>2021-07-23T19:22:28Z</time>
      </trkpt>
      <trkpt lat="49.16289" lon="5.37617">
        <ele>201.53</ele>
        <time>2021-07-23T19:22:29Z</time>
      </trkpt>
      <trkpt lat="49.16288" lon="5.37609">
        <ele>201.53</ele>
        <time>2021-07-23T19:22:30Z</time>
      </trkpt>
      <trkpt lat="49.16296" lon="5.37594">
        <ele>202.01</ele>
        <time>2021-07-23T19:22:31Z</time>
      </trkpt>
      <trkpt lat="49.16295" lon="5.3759">
        <ele>202.01</ele>
        <time>2021-07-23T19:22:32Z</time>
      </trkpt>
      <trkpt lat="49.16294" lon="5.37583">
        <ele>202.01</ele>
        <time>2021-07-23T19:22:33Z</time>
      </trkpt>
      <trkpt lat="49.16285" lon="5.37574">
        <ele>202.01</ele>
        <time>2021-07-23T19:22:34Z</time>
      </trkpt>
      <trkpt lat="49.16279" lon="5.37551">
        <ele>202.01</ele>
        <time>2021-07-23T19:22:35Z</time>
      </trkpt>
      <trkpt lat="49.16279" lon="5.37537">
        <ele>202.01</ele>
        <time>2021-07-23T19:22:36Z</time>
      </trkpt>
      <trkpt lat="49.16279" lon="5.37524">
        <ele>202.49</ele>
        <time>2021-07-23T19:22:37Z</time>
      </trkpt>
      <trkpt lat="49.16279" lon="5.37524">
        <ele>202.49</ele>
        <time>2021-07-23T19:22:38Z</time>
      </trkpt>
      <trkpt lat="49.1628" lon="5.37511">
        <ele>202.49</ele>
        <time>2021-07-23T19:22:39Z</time>
      </trkpt>
      <trkpt lat="49.16284" lon="5.37499">
        <ele>202.98</ele>
        <time>2021-07-23T19:22:40Z</time>
      </trkpt>
      <trkpt lat="49.16289" lon="5.37487">
        <ele>202.01</ele>
        <time>2021-07-23T19:22:41Z</time>
      </trkpt>
      <trkpt lat="49.16294" lon="5.37474">
        <ele>202.01</ele>
        <time>2021-07-23T19:22:42Z</time>
      </trkpt>
      <trkpt lat="49.163" lon="5.37466">
        <ele>202.98</ele>
        <time>2021-07-23T19:22:43Z</time>
      </trkpt>
      <trkpt lat="49.1631" lon="5.37461">
        <ele>204.42</ele>
        <time>2021-07-23T19:22:44Z</time>
      </trkpt>
      <trkpt lat="49.1632" lon="5.37457">
        <ele>204.9</ele>
        <time>2021-07-23T19:22:45Z</time>
      </trkpt>
      <trkpt lat="49.1633" lon="5.37457">
        <ele>204.9</ele>
        <time>2021-07-23T19:22:46Z</time>
      </trkpt>
      <trkpt lat="49.16417" lon="5.37449">
        <ele>203.94</ele>
        <time>2021-07-23T19:22:54Z</time>
      </trkpt>
      <trkpt lat="49.16424" lon="5.3744">
        <ele>203.94</ele>
        <time>2021-07-23T19:22:55Z</time>
      </trkpt>
      <trkpt lat="49.16424" lon="5.3744">
        <ele>203.46</ele>
        <time>2021-07-23T19:22:56Z</time>
      </trkpt>
      <trkpt lat="49.16438" lon="5.37424">
        <ele>203.46</ele>
        <time>2021-07-23T19:22:57Z</time>
      </trkpt>
      <trkpt lat="49.16438" lon="5.37424">
        <ele>202.98</ele>
        <time>2021-07-23T19:22:58Z</time>
      </trkpt>
      <trkpt lat="49.16439" lon="5.3741">
        <ele>201.05</ele>
        <time>2021-07-23T19:22:59Z</time>
      </trkpt>
      <trkpt lat="49.16441" lon="5.37394">
        <ele>199.13</ele>
        <time>2021-07-23T19:23:00Z</time>
      </trkpt>
      <trkpt lat="49.16439" lon="5.37363">
        <ele>199.61</ele>
        <time>2021-07-23T19:23:01Z</time>
      </trkpt>
      <trkpt lat="49.16439" lon="5.37363">
        <ele>199.61</ele>
        <time>2021-07-23T19:23:02Z</time>
      </trkpt>
      <trkpt lat="49.16436" lon="5.37346">
        <ele>198.65</ele>
        <time>2021-07-23T19:23:03Z</time>
      </trkpt>
      <trkpt lat="49.16418" lon="5.3728">
        <ele>197.69</ele>
        <time>2021-07-23T19:23:06Z</time>
      </trkpt>
      <trkpt lat="49.1638" lon="5.37183">
        <ele>197.69</ele>
        <time>2021-07-23T19:23:14Z</time>
      </trkpt>
      <trkpt lat="49.16379" lon="5.37175">
        <ele>197.69</ele>
        <time>2021-07-23T19:23:15Z</time>
      </trkpt>
      <trkpt lat="49.16377" lon="5.37167">
        <ele>197.69</ele>
        <time>2021-07-23T19:23:16Z</time>
      </trkpt>
      <trkpt lat="49.16376" lon="5.3716">
        <ele>197.69</ele>
        <time>2021-07-23T19:23:17Z</time>
      </trkpt>
      <trkpt lat="49.16379" lon="5.37151">
        <ele>197.69</ele>
        <time>2021-07-23T19:23:18Z</time>
      </trkpt>
      <trkpt lat="49.16383" lon="5.37146">
        <ele>197.69</ele>
        <time>2021-07-23T19:23:19Z</time>
      </trkpt>
      <trkpt lat="49.16387" lon="5.37126">
        <ele>197.69</ele>
        <time>2021-07-23T19:23:20Z</time>
      </trkpt>
      <trkpt lat="49.16387" lon="5.37126">
        <ele>197.69</ele>
        <time>2021-07-23T19:23:21Z</time>
      </trkpt>
      <trkpt lat="49.16381" lon="5.37117">
        <ele>197.69</ele>
        <time>2021-07-23T19:23:22Z</time>
      </trkpt>
      <trkpt lat="49.1638" lon="5.37106">
        <ele>197.69</ele>
        <time>2021-07-23T19:23:23Z</time>
      </trkpt>
      <trkpt lat="49.16378" lon="5.37081">
        <ele>197.69</ele>
        <time>2021-07-23T19:23:24Z</time>
      </trkpt>
      <trkpt lat="49.16378" lon="5.37081">
        <ele>197.21</ele>
        <time>2021-07-23T19:23:25Z</time>
      </trkpt>
      <trkpt lat="49.16375" lon="5.37067">
        <ele>196.73</ele>
        <time>2021-07-23T19:23:26Z</time>
      </trkpt>
      <trkpt lat="49.16372" lon="5.37051">
        <ele>196.25</ele>
        <time>2021-07-23T19:23:27Z</time>
      </trkpt>
      <trkpt lat="49.16371" lon="5.37035">
        <ele>196.73</ele>
        <time>2021-07-23T19:23:28Z</time>
      </trkpt>
      <trkpt lat="49.16369" lon="5.368">
        <ele>196.73</ele>
        <time>2021-07-23T19:23:41Z</time>
      </trkpt>
      <trkpt lat="49.16373" lon="5.36782">
        <ele>196.73</ele>
        <time>2021-07-23T19:23:42Z</time>
      </trkpt>
      <trkpt lat="49.16378" lon="5.36751">
        <ele>197.21</ele>
        <time>2021-07-23T19:23:43Z</time>
      </trkpt>
      <trkpt lat="49.16395" lon="5.36669">
        <ele>197.69</ele>
        <time>2021-07-23T19:23:51Z</time>
      </trkpt>
      <trkpt lat="49.16404" lon="5.36657">
        <ele>197.21</ele>
        <time>2021-07-23T19:23:53Z</time>
      </trkpt>
      <trkpt lat="49.16406" lon="5.36649">
        <ele>197.21</ele>
        <time>2021-07-23T19:23:54Z</time>
      </trkpt>
      <trkpt lat="49.16413" lon="5.36617">
        <ele>198.17</ele>
        <time>2021-07-23T19:23:59Z</time>
      </trkpt>
      <trkpt lat="49.16414" lon="5.36614">
        <ele>198.17</ele>
        <time>2021-07-23T19:24:00Z</time>
      </trkpt>
      <trkpt lat="49.1641" lon="5.36605">
        <ele>198.65</ele>
        <time>2021-07-23T19:24:02Z</time>
      </trkpt>
      <trkpt lat="49.16405" lon="5.36588">
        <ele>198.65</ele>
        <time>2021-07-23T19:24:03Z</time>
      </trkpt>
      <trkpt lat="49.16406" lon="5.36579">
        <ele>198.65</ele>
        <time>2021-07-23T19:24:04Z</time>
      </trkpt>
      <trkpt lat="49.16423" lon="5.36473">
        <ele>201.05</ele>
        <time>2021-07-23T19:24:12Z</time>
      </trkpt>
      <trkpt lat="49.16451" lon="5.36393">
        <ele>203.46</ele>
        <time>2021-07-23T19:24:20Z</time>
      </trkpt>
      <trkpt lat="49.16499" lon="5.36265">
        <ele>203.46</ele>
        <time>2021-07-23T19:24:31Z</time>
      </trkpt>
      <trkpt lat="49.16568" lon="5.36077">
        <ele>201.05</ele>
        <time>2021-07-23T19:24:45Z</time>
      </trkpt>
      <trkpt lat="49.16669" lon="5.35804">
        <ele>195.28</ele>
        <time>2021-07-23T19:25:01Z</time>
      </trkpt>
      <trkpt lat="49.16767" lon="5.35535">
        <ele>193.84</ele>
        <time>2021-07-23T19:25:18Z</time>
      </trkpt>
      <trkpt lat="49.16838" lon="5.35378">
        <ele>192.88</ele>
        <time>2021-07-23T19:25:31Z</time>
      </trkpt>
      <trkpt lat="49.16961" lon="5.35235">
        <ele>192.88</ele>
        <time>2021-07-23T19:25:45Z</time>
      </trkpt>
      <trkpt lat="49.16991" lon="5.35207">
        <ele>193.36</ele>
        <time>2021-07-23T19:25:50Z</time>
      </trkpt>
      <trkpt lat="49.16996" lon="5.35204">
        <ele>193.84</ele>
        <time>2021-07-23T19:25:52Z</time>
      </trkpt>
      <trkpt lat="49.17011" lon="5.35191">
        <ele>193.84</ele>
        <time>2021-07-23T19:25:53Z</time>
      </trkpt>
      <trkpt lat="49.1706" lon="5.3513">
        <ele>195.77</ele>
        <time>2021-07-23T19:26:01Z</time>
      </trkpt>
      <trkpt lat="49.17213" lon="5.34964">
        <ele>195.77</ele>
        <time>2021-07-23T19:26:16Z</time>
      </trkpt>
      <trkpt lat="49.17379" lon="5.34783">
        <ele>193.36</ele>
        <time>2021-07-23T19:26:32Z</time>
      </trkpt>
      <trkpt lat="49.17531" lon="5.34615">
        <ele>195.28</ele>
        <time>2021-07-23T19:26:47Z</time>
      </trkpt>
      <trkpt lat="49.1769" lon="5.3444">
        <ele>195.77</ele>
        <time>2021-07-23T19:27:00Z</time>
      </trkpt>
      <trkpt lat="49.17925" lon="5.34182">
        <ele>195.28</ele>
        <time>2021-07-23T19:27:15Z</time>
      </trkpt>
      <trkpt lat="49.1814" lon="5.33946">
        <ele>194.8</ele>
        <time>2021-07-23T19:27:30Z</time>
      </trkpt>
      <trkpt lat="49.18345" lon="5.33717">
        <ele>193.84</ele>
        <time>2021-07-23T19:27:44Z</time>
      </trkpt>
      <trkpt lat="49.18468" lon="5.3359">
        <ele>195.28</ele>
        <time>2021-07-23T19:27:53Z</time>
      </trkpt>
      <trkpt lat="49.18481" lon="5.33582">
        <ele>195.77</ele>
        <time>2021-07-23T19:27:54Z</time>
      </trkpt>
      <trkpt lat="49.18495" lon="5.33572">
        <ele>195.28</ele>
        <time>2021-07-23T19:27:55Z</time>
      </trkpt>
      <trkpt lat="49.18509" lon="5.33571">
        <ele>195.77</ele>
        <time>2021-07-23T19:27:56Z</time>
      </trkpt>
      <trkpt lat="49.18524" lon="5.33571">
        <ele>195.77</ele>
        <time>2021-07-23T19:27:57Z</time>
      </trkpt>
      <trkpt lat="49.18538" lon="5.33572">
        <ele>195.77</ele>
        <time>2021-07-23T19:27:58Z</time>
      </trkpt>
      <trkpt lat="49.1855" lon="5.33581">
        <ele>195.77</ele>
        <time>2021-07-23T19:27:59Z</time>
      </trkpt>
      <trkpt lat="49.18563" lon="5.3359">
        <ele>195.77</ele>
        <time>2021-07-23T19:28:00Z</time>
      </trkpt>
      <trkpt lat="49.18575" lon="5.33604">
        <ele>195.77</ele>
        <time>2021-07-23T19:28:01Z</time>
      </trkpt>
      <trkpt lat="49.18585" lon="5.33618">
        <ele>195.77</ele>
        <time>2021-07-23T19:28:02Z</time>
      </trkpt>
      <trkpt lat="49.18596" lon="5.33634">
        <ele>196.25</ele>
        <time>2021-07-23T19:28:03Z</time>
      </trkpt>
      <trkpt lat="49.18724" lon="5.33847">
        <ele>196.25</ele>
        <time>2021-07-23T19:28:14Z</time>
      </trkpt>
      <trkpt lat="49.18882" lon="5.3409">
        <ele>195.28</ele>
        <time>2021-07-23T19:28:26Z</time>
      </trkpt>
      <trkpt lat="49.18882" lon="5.3409">
        <ele>195.77</ele>
        <time>2021-07-23T19:28:27Z</time>
      </trkpt>
      <trkpt lat="49.18896" lon="5.34105">
        <ele>195.77</ele>
        <time>2021-07-23T19:28:28Z</time>
      </trkpt>
      <trkpt lat="49.18913" lon="5.34113">
        <ele>194.32</ele>
        <time>2021-07-23T19:28:29Z</time>
      </trkpt>
      <trkpt lat="49.1893" lon="5.34121">
        <ele>194.32</ele>
        <time>2021-07-23T19:28:30Z</time>
      </trkpt>
      <trkpt lat="49.18947" lon="5.34128">
        <ele>194.32</ele>
        <time>2021-07-23T19:28:31Z</time>
      </trkpt>
      <trkpt lat="49.18965" lon="5.34131">
        <ele>194.32</ele>
        <time>2021-07-23T19:28:32Z</time>
      </trkpt>
      <trkpt lat="49.19258" lon="5.34189">
        <ele>194.8</ele>
        <time>2021-07-23T19:28:48Z</time>
      </trkpt>
      <trkpt lat="49.19276" lon="5.34189">
        <ele>194.32</ele>
        <time>2021-07-23T19:28:49Z</time>
      </trkpt>
      <trkpt lat="49.19379" lon="5.34167">
        <ele>195.77</ele>
        <time>2021-07-23T19:28:55Z</time>
      </trkpt>
      <trkpt lat="49.19396" lon="5.34168">
        <ele>196.73</ele>
        <time>2021-07-23T19:28:56Z</time>
      </trkpt>
      <trkpt lat="49.19412" lon="5.34172">
        <ele>196.73</ele>
        <time>2021-07-23T19:28:57Z</time>
      </trkpt>
      <trkpt lat="49.19429" lon="5.34177">
        <ele>196.25</ele>
        <time>2021-07-23T19:28:58Z</time>
      </trkpt>
      <trkpt lat="49.19444" lon="5.34186">
        <ele>196.25</ele>
        <time>2021-07-23T19:28:59Z</time>
      </trkpt>
      <trkpt lat="49.19459" lon="5.34198">
        <ele>197.21</ele>
        <time>2021-07-23T19:29:00Z</time>
      </trkpt>
      <trkpt lat="49.19474" lon="5.3421">
        <ele>197.69</ele>
        <time>2021-07-23T19:29:01Z</time>
      </trkpt>
      <trkpt lat="49.19487" lon="5.34222">
        <ele>199.61</ele>
        <time>2021-07-23T19:29:02Z</time>
      </trkpt>
      <trkpt lat="49.19684" lon="5.34474">
        <ele>203.46</ele>
        <time>2021-07-23T19:29:16Z</time>
      </trkpt>
      <trkpt lat="49.1979" lon="5.34706">
        <ele>205.38</ele>
        <time>2021-07-23T19:29:25Z</time>
      </trkpt>
      <trkpt lat="49.1979" lon="5.34706">
        <ele>205.38</ele>
        <time>2021-07-23T19:29:26Z</time>
      </trkpt>
      <trkpt lat="49.19801" lon="5.34724">
        <ele>206.34</ele>
        <time>2021-07-23T19:29:27Z</time>
      </trkpt>
      <trkpt lat="49.19813" lon="5.34742">
        <ele>206.34</ele>
        <time>2021-07-23T19:29:28Z</time>
      </trkpt>
      <trkpt lat="49.19827" lon="5.34757">
        <ele>206.82</ele>
        <time>2021-07-23T19:29:29Z</time>
      </trkpt>
      <trkpt lat="49.19841" lon="5.34772">
        <ele>207.3</ele>
        <time>2021-07-23T19:29:30Z</time>
      </trkpt>
      <trkpt lat="49.20015" lon="5.34975">
        <ele>217.4</ele>
        <time>2021-07-23T19:29:42Z</time>
      </trkpt>
      <trkpt lat="49.2019" lon="5.35182">
        <ele>212.11</ele>
        <time>2021-07-23T19:29:53Z</time>
      </trkpt>
      <trkpt lat="49.20291" lon="5.35311">
        <ele>206.82</ele>
        <time>2021-07-23T19:30:02Z</time>
      </trkpt>
      <trkpt lat="49.2038" lon="5.35472">
        <ele>202.01</ele>
        <time>2021-07-23T19:30:12Z</time>
      </trkpt>
      <trkpt lat="49.20435" lon="5.35578">
        <ele>201.05</ele>
        <time>2021-07-23T19:30:22Z</time>
      </trkpt>
    </trkseg>
  </trk>
  <trk>
    <name><![CDATA[Journal actif: 2021-07-23 17:30]]></name>
    <trkseg>
      <trkpt lat="49.2045" lon="5.35609">
        <ele>201.05</ele>
        <time>2021-07-23T19:30:27Z</time>
      </trkpt>
      <trkpt lat="49.20479" lon="5.35691">
        <ele>200.57</ele>
        <time>2021-07-23T19:30:38Z</time>
      </trkpt>
      <trkpt lat="49.20525" lon="5.3588">
        <ele>199.61</ele>
        <time>2021-07-23T19:30:52Z</time>
      </trkpt>
      <trkpt lat="49.20609" lon="5.36125">
        <ele>199.61</ele>
        <time>2021-07-23T19:31:08Z</time>
      </trkpt>
      <trkpt lat="49.20661" lon="5.36261">
        <ele>199.13</ele>
        <time>2021-07-23T19:31:19Z</time>
      </trkpt>
      <trkpt lat="49.20665" lon="5.36268">
        <ele>199.61</ele>
        <time>2021-07-23T19:31:20Z</time>
      </trkpt>
      <trkpt lat="49.2075" lon="5.36388">
        <ele>198.65</ele>
        <time>2021-07-23T19:31:36Z</time>
      </trkpt>
      <trkpt lat="49.20821" lon="5.36459">
        <ele>195.28</ele>
        <time>2021-07-23T19:31:49Z</time>
      </trkpt>
    </trkseg>
  </trk>
  <trk>
    <name><![CDATA[Journal actif: 2021-07-23 17:32]]></name>
    <trkseg>
      <trkpt lat="49.20955" lon="5.36569">
        <ele>191.44</ele>
        <time>2021-07-23T19:32:43Z</time>
      </trkpt>
      <trkpt lat="49.20959" lon="5.36554">
        <ele>191.92</ele>
        <time>2021-07-23T19:33:00Z</time>
      </trkpt>
      <trkpt lat="49.20961" lon="5.36554">
        <ele>191.92</ele>
        <time>2021-07-23T19:33:04Z</time>
      </trkpt>
      <trkpt lat="49.20961" lon="5.36554">
        <ele>191.92</ele>
        <time>2021-07-23T19:33:05Z</time>
      </trkpt>
      <trkpt lat="49.20963" lon="5.36555">
        <ele>191.92</ele>
        <time>2021-07-23T19:33:06Z</time>
      </trkpt>
      <trkpt lat="49.20966" lon="5.36555">
        <ele>192.4</ele>
        <time>2021-07-23T19:33:07Z</time>
      </trkpt>
      <trkpt lat="49.2097" lon="5.36556">
        <ele>192.4</ele>
        <time>2021-07-23T19:33:08Z</time>
      </trkpt>
      <trkpt lat="49.20973" lon="5.36557">
        <ele>192.4</ele>
        <time>2021-07-23T19:33:09Z</time>
      </trkpt>
      <trkpt lat="49.21002" lon="5.36564">
        <ele>191.92</ele>
        <time>2021-07-23T19:33:21Z</time>
      </trkpt>
      <trkpt lat="49.21006" lon="5.36565">
        <ele>190.96</ele>
        <time>2021-07-23T19:33:33Z</time>
      </trkpt>
      <trkpt lat="49.21006" lon="5.36565">
        <ele>190.96</ele>
        <time>2021-07-23T19:34:40Z</time>
      </trkpt>
      <trkpt lat="49.21006" lon="5.36565">
        <ele>190.96</ele>
        <time>2021-07-23T19:34:41Z</time>
      </trkpt>
      <trkpt lat="49.21006" lon="5.36565">
        <ele>190.96</ele>
        <time>2021-07-23T19:34:45Z</time>
      </trkpt>
      <trkpt lat="49.21002" lon="5.36564">
        <ele>190.96</ele>
        <time>2021-07-23T19:34:46Z</time>
      </trkpt>
      <trkpt lat="49.21052" lon="5.36578">
        <ele>190.48</ele>
        <time>2021-07-23T19:34:56Z</time>
      </trkpt>
      <trkpt lat="49.21097" lon="5.3659">
        <ele>190.96</ele>
        <time>2021-07-23T19:35:06Z</time>
      </trkpt>
      <trkpt lat="49.21106" lon="5.36593">
        <ele>191.92</ele>
        <time>2021-07-23T19:35:17Z</time>
      </trkpt>
      <trkpt lat="49.21108" lon="5.36593">
        <ele>190.96</ele>
        <time>2021-07-23T19:35:27Z</time>
      </trkpt>
      <trkpt lat="49.21105" lon="5.36592">
        <ele>190.96</ele>
        <time>2021-07-23T19:35:33Z</time>
      </trkpt>
      <trkpt lat="49.21105" lon="5.36592">
        <ele>190.96</ele>
        <time>2021-07-23T19:35:34Z</time>
      </trkpt>
      <trkpt lat="49.21102" lon="5.36592">
        <ele>190.96</ele>
        <time>2021-07-23T19:35:35Z</time>
      </trkpt>
      <trkpt lat="49.21099" lon="5.36591">
        <ele>190.96</ele>
        <time>2021-07-23T19:35:36Z</time>
      </trkpt>
      <trkpt lat="49.21095" lon="5.3659">
        <ele>191.44</ele>
        <time>2021-07-23T19:35:37Z</time>
      </trkpt>
      <trkpt lat="49.21082" lon="5.36586">
        <ele>190.96</ele>
        <time>2021-07-23T19:35:40Z</time>
      </trkpt>
      <trkpt lat="49.21072" lon="5.36583">
        <ele>190.48</ele>
        <time>2021-07-23T19:35:41Z</time>
      </trkpt>
      <trkpt lat="49.21072" lon="5.36583">
        <ele>190.96</ele>
        <time>2021-07-23T19:35:42Z</time>
      </trkpt>
      <trkpt lat="49.21021" lon="5.36569">
        <ele>190</ele>
        <time>2021-07-23T19:35:53Z</time>
      </trkpt>
      <trkpt lat="49.21015" lon="5.36568">
        <ele>190.96</ele>
        <time>2021-07-23T19:36:03Z</time>
      </trkpt>
    </trkseg>
  </trk>
  <trk>
    <name><![CDATA[Journal actif: 2021-07-23 17:38]]></name>
    <trkseg>
      <trkpt lat="49.20682" lon="5.36295">
        <ele>194.8</ele>
        <time>2021-07-23T19:38:33Z</time>
      </trkpt>
      <trkpt lat="49.20666" lon="5.36269">
        <ele>194.8</ele>
        <time>2021-07-23T19:38:43Z</time>
      </trkpt>
      <trkpt lat="49.20663" lon="5.36263">
        <ele>194.8</ele>
        <time>2021-07-23T19:38:44Z</time>
      </trkpt>
      <trkpt lat="49.20659" lon="5.36256">
        <ele>195.28</ele>
        <time>2021-07-23T19:38:45Z</time>
      </trkpt>
      <trkpt lat="49.20655" lon="5.36247">
        <ele>195.28</ele>
        <time>2021-07-23T19:38:46Z</time>
      </trkpt>
      <trkpt lat="49.20651" lon="5.36238">
        <ele>195.28</ele>
        <time>2021-07-23T19:38:47Z</time>
      </trkpt>
      <trkpt lat="49.20647" lon="5.36227">
        <ele>195.28</ele>
        <time>2021-07-23T19:38:48Z</time>
      </trkpt>
      <trkpt lat="49.20583" lon="5.36057">
        <ele>194.32</ele>
        <time>2021-07-23T19:39:00Z</time>
      </trkpt>
      <trkpt lat="49.20517" lon="5.35848">
        <ele>196.25</ele>
        <time>2021-07-23T19:39:13Z</time>
      </trkpt>
      <trkpt lat="49.20456" lon="5.35623">
        <ele>195.28</ele>
        <time>2021-07-23T19:39:27Z</time>
      </trkpt>
      <trkpt lat="49.2043" lon="5.35569">
        <ele>197.21</ele>
        <time>2021-07-23T19:39:33Z</time>
      </trkpt>
      <trkpt lat="49.20372" lon="5.35457">
        <ele>199.61</ele>
        <time>2021-07-23T19:39:43Z</time>
      </trkpt>
      <trkpt lat="49.20251" lon="5.35256">
        <ele>207.78</ele>
        <time>2021-07-23T19:39:54Z</time>
      </trkpt>
      <trkpt lat="49.20124" lon="5.35108">
        <ele>214.51</ele>
        <time>2021-07-23T19:40:04Z</time>
      </trkpt>
      <trkpt lat="49.19951" lon="5.3489">
        <ele>212.11</ele>
        <time>2021-07-23T19:40:16Z</time>
      </trkpt>
      <trkpt lat="49.19804" lon="5.3473">
        <ele>205.38</ele>
        <time>2021-07-23T19:40:25Z</time>
      </trkpt>
      <trkpt lat="49.19735" lon="5.3458">
        <ele>201.53</ele>
        <time>2021-07-23T19:40:33Z</time>
      </trkpt>
      <trkpt lat="49.19691" lon="5.34487">
        <ele>199.61</ele>
        <time>2021-07-23T19:40:37Z</time>
      </trkpt>
      <trkpt lat="49.19679" lon="5.34464">
        <ele>199.61</ele>
        <time>2021-07-23T19:40:38Z</time>
      </trkpt>
      <trkpt lat="49.19665" lon="5.34446">
        <ele>199.13</ele>
        <time>2021-07-23T19:40:39Z</time>
      </trkpt>
      <trkpt lat="49.19482" lon="5.34217">
        <ele>197.69</ele>
        <time>2021-07-23T19:40:51Z</time>
      </trkpt>
      <trkpt lat="49.19468" lon="5.34205">
        <ele>197.69</ele>
        <time>2021-07-23T19:40:52Z</time>
      </trkpt>
      <trkpt lat="49.19453" lon="5.34194">
        <ele>196.73</ele>
        <time>2021-07-23T19:40:53Z</time>
      </trkpt>
      <trkpt lat="49.19423" lon="5.34175">
        <ele>195.77</ele>
        <time>2021-07-23T19:40:54Z</time>
      </trkpt>
      <trkpt lat="49.19423" lon="5.34175">
        <ele>195.77</ele>
        <time>2021-07-23T19:40:55Z</time>
      </trkpt>
      <trkpt lat="49.19389" lon="5.34166">
        <ele>196.25</ele>
        <time>2021-07-23T19:40:56Z</time>
      </trkpt>
      <trkpt lat="49.19389" lon="5.34166">
        <ele>195.77</ele>
        <time>2021-07-23T19:40:57Z</time>
      </trkpt>
      <trkpt lat="49.19373" lon="5.34168">
        <ele>195.28</ele>
        <time>2021-07-23T19:40:58Z</time>
      </trkpt>
      <trkpt lat="49.19355" lon="5.34172">
        <ele>194.8</ele>
        <time>2021-07-23T19:40:59Z</time>
      </trkpt>
      <trkpt lat="49.1927" lon="5.34189">
        <ele>193.36</ele>
        <time>2021-07-23T19:41:04Z</time>
      </trkpt>
      <trkpt lat="49.19236" lon="5.34187">
        <ele>192.4</ele>
        <time>2021-07-23T19:41:05Z</time>
      </trkpt>
      <trkpt lat="49.18983" lon="5.34135">
        <ele>190.48</ele>
        <time>2021-07-23T19:41:20Z</time>
      </trkpt>
      <trkpt lat="49.18932" lon="5.34122">
        <ele>190</ele>
        <time>2021-07-23T19:41:23Z</time>
      </trkpt>
      <trkpt lat="49.18916" lon="5.34115">
        <ele>190</ele>
        <time>2021-07-23T19:41:24Z</time>
      </trkpt>
      <trkpt lat="49.18899" lon="5.34107">
        <ele>190.96</ele>
        <time>2021-07-23T19:41:25Z</time>
      </trkpt>
      <trkpt lat="49.18886" lon="5.34094">
        <ele>190.96</ele>
        <time>2021-07-23T19:41:26Z</time>
      </trkpt>
      <trkpt lat="49.18871" lon="5.34079">
        <ele>191.92</ele>
        <time>2021-07-23T19:41:27Z</time>
      </trkpt>
      <trkpt lat="49.18857" lon="5.34065">
        <ele>192.4</ele>
        <time>2021-07-23T19:41:28Z</time>
      </trkpt>
      <trkpt lat="49.18845" lon="5.34047">
        <ele>192.88</ele>
        <time>2021-07-23T19:41:29Z</time>
      </trkpt>
      <trkpt lat="49.18645" lon="5.33712">
        <ele>195.77</ele>
        <time>2021-07-23T19:41:45Z</time>
      </trkpt>
      <trkpt lat="49.18567" lon="5.33594">
        <ele>195.77</ele>
        <time>2021-07-23T19:41:51Z</time>
      </trkpt>
      <trkpt lat="49.18554" lon="5.33584">
        <ele>196.25</ele>
        <time>2021-07-23T19:41:52Z</time>
      </trkpt>
      <trkpt lat="49.1854" lon="5.33574">
        <ele>196.73</ele>
        <time>2021-07-23T19:41:53Z</time>
      </trkpt>
      <trkpt lat="49.18526" lon="5.33571">
        <ele>197.69</ele>
        <time>2021-07-23T19:41:54Z</time>
      </trkpt>
      <trkpt lat="49.18512" lon="5.33571">
        <ele>197.21</ele>
        <time>2021-07-23T19:41:55Z</time>
      </trkpt>
      <trkpt lat="49.18498" lon="5.33571">
        <ele>197.21</ele>
        <time>2021-07-23T19:41:56Z</time>
      </trkpt>
      <trkpt lat="49.18485" lon="5.33579">
        <ele>196.25</ele>
        <time>2021-07-23T19:41:57Z</time>
      </trkpt>
      <trkpt lat="49.1847" lon="5.33589">
        <ele>196.25</ele>
        <time>2021-07-23T19:41:58Z</time>
      </trkpt>
      <trkpt lat="49.18443" lon="5.33611">
        <ele>196.25</ele>
        <time>2021-07-23T19:41:59Z</time>
      </trkpt>
      <trkpt lat="49.18261" lon="5.33813">
        <ele>191.92</ele>
        <time>2021-07-23T19:42:13Z</time>
      </trkpt>
      <trkpt lat="49.18001" lon="5.34099">
        <ele>191.44</ele>
        <time>2021-07-23T19:42:30Z</time>
      </trkpt>
      <trkpt lat="49.17659" lon="5.34474">
        <ele>190</ele>
        <time>2021-07-23T19:42:51Z</time>
      </trkpt>
      <trkpt lat="49.1753" lon="5.34617">
        <ele>189.04</ele>
        <time>2021-07-23T19:43:00Z</time>
      </trkpt>
      <trkpt lat="49.17338" lon="5.34828">
        <ele>188.56</ele>
        <time>2021-07-23T19:43:17Z</time>
      </trkpt>
      <trkpt lat="49.17142" lon="5.3504">
        <ele>189.52</ele>
        <time>2021-07-23T19:43:35Z</time>
      </trkpt>
      <trkpt lat="49.17013" lon="5.35188">
        <ele>190</ele>
        <time>2021-07-23T19:43:49Z</time>
      </trkpt>
      <trkpt lat="49.16996" lon="5.35204">
        <ele>190.48</ele>
        <time>2021-07-23T19:43:51Z</time>
      </trkpt>
      <trkpt lat="49.16918" lon="5.35285">
        <ele>191.44</ele>
        <time>2021-07-23T19:44:02Z</time>
      </trkpt>
      <trkpt lat="49.16817" lon="5.35412">
        <ele>192.4</ele>
        <time>2021-07-23T19:44:13Z</time>
      </trkpt>
      <trkpt lat="49.16811" lon="5.35425">
        <ele>192.4</ele>
        <time>2021-07-23T19:44:14Z</time>
      </trkpt>
      <trkpt lat="49.16739" lon="5.35612">
        <ele>192.4</ele>
        <time>2021-07-23T19:44:27Z</time>
      </trkpt>
      <trkpt lat="49.16642" lon="5.35876">
        <ele>193.36</ele>
        <time>2021-07-23T19:44:42Z</time>
      </trkpt>
      <trkpt lat="49.16596" lon="5.36004">
        <ele>197.69</ele>
        <time>2021-07-23T19:44:53Z</time>
      </trkpt>
      <trkpt lat="49.16522" lon="5.36202">
        <ele>198.65</ele>
        <time>2021-07-23T19:45:06Z</time>
      </trkpt>
      <trkpt lat="49.1645" lon="5.36393">
        <ele>197.21</ele>
        <time>2021-07-23T19:45:19Z</time>
      </trkpt>
      <trkpt lat="49.16413" lon="5.36505">
        <ele>194.32</ele>
        <time>2021-07-23T19:45:31Z</time>
      </trkpt>
      <trkpt lat="49.16407" lon="5.36536">
        <ele>193.84</ele>
        <time>2021-07-23T19:45:32Z</time>
      </trkpt>
      <trkpt lat="49.16407" lon="5.36536">
        <ele>193.36</ele>
        <time>2021-07-23T19:45:33Z</time>
      </trkpt>
      <trkpt lat="49.16406" lon="5.36552">
        <ele>193.36</ele>
        <time>2021-07-23T19:45:34Z</time>
      </trkpt>
      <trkpt lat="49.16404" lon="5.36595">
        <ele>192.4</ele>
        <time>2021-07-23T19:45:37Z</time>
      </trkpt>
      <trkpt lat="49.16403" lon="5.36605">
        <ele>191.92</ele>
        <time>2021-07-23T19:45:38Z</time>
      </trkpt>
      <trkpt lat="49.16377" lon="5.36757">
        <ele>189.52</ele>
        <time>2021-07-23T19:45:49Z</time>
      </trkpt>
      <trkpt lat="49.16371" lon="5.36791">
        <ele>189.52</ele>
        <time>2021-07-23T19:45:52Z</time>
      </trkpt>
      <trkpt lat="49.16369" lon="5.36808">
        <ele>190</ele>
        <time>2021-07-23T19:45:53Z</time>
      </trkpt>
      <trkpt lat="49.16371" lon="5.37024">
        <ele>192.4</ele>
        <time>2021-07-23T19:46:05Z</time>
      </trkpt>
      <trkpt lat="49.16371" lon="5.3704">
        <ele>192.88</ele>
        <time>2021-07-23T19:46:06Z</time>
      </trkpt>
      <trkpt lat="49.16378" lon="5.37087">
        <ele>194.32</ele>
        <time>2021-07-23T19:46:10Z</time>
      </trkpt>
      <trkpt lat="49.16379" lon="5.37096">
        <ele>194.32</ele>
        <time>2021-07-23T19:46:11Z</time>
      </trkpt>
      <trkpt lat="49.1638" lon="5.37104">
        <ele>193.84</ele>
        <time>2021-07-23T19:46:12Z</time>
      </trkpt>
      <trkpt lat="49.16381" lon="5.37111">
        <ele>193.84</ele>
        <time>2021-07-23T19:46:13Z</time>
      </trkpt>
      <trkpt lat="49.16375" lon="5.37122">
        <ele>193.84</ele>
        <time>2021-07-23T19:46:14Z</time>
      </trkpt>
      <trkpt lat="49.16371" lon="5.37122">
        <ele>194.32</ele>
        <time>2021-07-23T19:46:15Z</time>
      </trkpt>
      <trkpt lat="49.16371" lon="5.37122">
        <ele>194.32</ele>
        <time>2021-07-23T19:46:16Z</time>
      </trkpt>
      <trkpt lat="49.16358" lon="5.37118">
        <ele>194.8</ele>
        <time>2021-07-23T19:46:17Z</time>
      </trkpt>
      <trkpt lat="49.16352" lon="5.3711">
        <ele>195.28</ele>
        <time>2021-07-23T19:46:18Z</time>
      </trkpt>
      <trkpt lat="49.16347" lon="5.371">
        <ele>195.28</ele>
        <time>2021-07-23T19:46:19Z</time>
      </trkpt>
      <trkpt lat="49.16342" lon="5.3709">
        <ele>195.28</ele>
        <time>2021-07-23T19:46:20Z</time>
      </trkpt>
      <trkpt lat="49.16278" lon="5.36956">
        <ele>194.32</ele>
        <time>2021-07-23T19:46:30Z</time>
      </trkpt>
      <trkpt lat="49.16169" lon="5.36839">
        <ele>195.77</ele>
        <time>2021-07-23T19:46:39Z</time>
      </trkpt>
      <trkpt lat="49.16048" lon="5.36775">
        <ele>196.73</ele>
        <time>2021-07-23T19:46:49Z</time>
      </trkpt>
      <trkpt lat="49.15949" lon="5.36732">
        <ele>200.09</ele>
        <time>2021-07-23T19:46:56Z</time>
      </trkpt>
      <trkpt lat="49.15937" lon="5.36726">
        <ele>199.61</ele>
        <time>2021-07-23T19:46:57Z</time>
      </trkpt>
      <trkpt lat="49.15925" lon="5.36714">
        <ele>199.61</ele>
        <time>2021-07-23T19:46:58Z</time>
      </trkpt>
      <trkpt lat="49.15839" lon="5.366">
        <ele>200.57</ele>
        <time>2021-07-23T19:47:08Z</time>
      </trkpt>
      <trkpt lat="49.15781" lon="5.36483">
        <ele>199.61</ele>
        <time>2021-07-23T19:47:19Z</time>
      </trkpt>
      <trkpt lat="49.15766" lon="5.3646">
        <ele>201.05</ele>
        <time>2021-07-23T19:47:25Z</time>
      </trkpt>
      <trkpt lat="49.15765" lon="5.36463">
        <ele>201.53</ele>
        <time>2021-07-23T19:47:26Z</time>
      </trkpt>
      <trkpt lat="49.15762" lon="5.36468">
        <ele>202.01</ele>
        <time>2021-07-23T19:47:27Z</time>
      </trkpt>
      <trkpt lat="49.15705" lon="5.36544">
        <ele>206.82</ele>
        <time>2021-07-23T19:47:37Z</time>
      </trkpt>
      <trkpt lat="49.15667" lon="5.36583">
        <ele>209.22</ele>
        <time>2021-07-23T19:47:42Z</time>
      </trkpt>
      <trkpt lat="49.1566" lon="5.36588">
        <ele>209.7</ele>
        <time>2021-07-23T19:47:43Z</time>
      </trkpt>
      <trkpt lat="49.15654" lon="5.36593">
        <ele>210.67</ele>
        <time>2021-07-23T19:47:44Z</time>
      </trkpt>
      <trkpt lat="49.15647" lon="5.36593">
        <ele>210.67</ele>
        <time>2021-07-23T19:47:45Z</time>
      </trkpt>
      <trkpt lat="49.1564" lon="5.36591">
        <ele>211.15</ele>
        <time>2021-07-23T19:47:46Z</time>
      </trkpt>
      <trkpt lat="49.15632" lon="5.3659">
        <ele>211.63</ele>
        <time>2021-07-23T19:47:47Z</time>
      </trkpt>
      <trkpt lat="49.15625" lon="5.36588">
        <ele>212.11</ele>
        <time>2021-07-23T19:47:48Z</time>
      </trkpt>
      <trkpt lat="49.15606" lon="5.36575">
        <ele>214.03</ele>
        <time>2021-07-23T19:47:54Z</time>
      </trkpt>
      <trkpt lat="49.15597" lon="5.36567">
        <ele>215.47</ele>
        <time>2021-07-23T19:47:59Z</time>
      </trkpt>
      <trkpt lat="49.15594" lon="5.36562">
        <ele>215.47</ele>
        <time>2021-07-23T19:48:00Z</time>
      </trkpt>
      <trkpt lat="49.15591" lon="5.36558">
        <ele>215.95</ele>
        <time>2021-07-23T19:48:01Z</time>
      </trkpt>
      <trkpt lat="49.15587" lon="5.36558">
        <ele>215.95</ele>
        <time>2021-07-23T19:48:02Z</time>
      </trkpt>
      <trkpt lat="49.15583" lon="5.36561">
        <ele>215.95</ele>
        <time>2021-07-23T19:48:03Z</time>
      </trkpt>
      <trkpt lat="49.1558" lon="5.36566">
        <ele>215.47</ele>
        <time>2021-07-23T19:48:04Z</time>
      </trkpt>
      <trkpt lat="49.1558" lon="5.36572">
        <ele>214.99</ele>
        <time>2021-07-23T19:48:05Z</time>
      </trkpt>
      <trkpt lat="49.15581" lon="5.36579">
        <ele>214.99</ele>
        <time>2021-07-23T19:48:06Z</time>
      </trkpt>
      <trkpt lat="49.15582" lon="5.36585">
        <ele>214.51</ele>
        <time>2021-07-23T19:48:07Z</time>
      </trkpt>
      <trkpt lat="49.15582" lon="5.36592">
        <ele>214.03</ele>
        <time>2021-07-23T19:48:08Z</time>
      </trkpt>
      <trkpt lat="49.15582" lon="5.366">
        <ele>213.55</ele>
        <time>2021-07-23T19:48:09Z</time>
      </trkpt>
      <trkpt lat="49.15582" lon="5.36716">
        <ele>209.22</ele>
        <time>2021-07-23T19:48:19Z</time>
      </trkpt>
      <trkpt lat="49.15583" lon="5.36726">
        <ele>208.74</ele>
        <time>2021-07-23T19:48:20Z</time>
      </trkpt>
      <trkpt lat="49.15583" lon="5.36734">
        <ele>208.26</ele>
        <time>2021-07-23T19:48:21Z</time>
      </trkpt>
      <trkpt lat="49.15584" lon="5.3674">
        <ele>207.78</ele>
        <time>2021-07-23T19:48:22Z</time>
      </trkpt>
      <trkpt lat="49.15582" lon="5.36746">
        <ele>207.78</ele>
        <time>2021-07-23T19:48:23Z</time>
      </trkpt>
      <trkpt lat="49.15581" lon="5.36751">
        <ele>207.3</ele>
        <time>2021-07-23T19:48:24Z</time>
      </trkpt>
      <trkpt lat="49.15576" lon="5.36755">
        <ele>206.34</ele>
        <time>2021-07-23T19:48:25Z</time>
      </trkpt>
      <trkpt lat="49.15572" lon="5.36755">
        <ele>205.38</ele>
        <time>2021-07-23T19:48:26Z</time>
      </trkpt>
      <trkpt lat="49.15567" lon="5.36756">
        <ele>204.9</ele>
        <time>2021-07-23T19:48:27Z</time>
      </trkpt>
      <trkpt lat="49.15561" lon="5.36757">
        <ele>203.94</ele>
        <time>2021-07-23T19:48:28Z</time>
      </trkpt>
      <trkpt lat="49.15553" lon="5.36756">
        <ele>203.46</ele>
        <time>2021-07-23T19:48:29Z</time>
      </trkpt>
      <trkpt lat="49.15549" lon="5.3675">
        <ele>202.98</ele>
        <time>2021-07-23T19:48:30Z</time>
      </trkpt>
      <trkpt lat="49.15544" lon="5.36743">
        <ele>202.98</ele>
        <time>2021-07-23T19:48:31Z</time>
      </trkpt>
      <trkpt lat="49.15468" lon="5.36623">
        <ele>202.01</ele>
        <time>2021-07-23T19:48:44Z</time>
      </trkpt>
      <trkpt lat="49.15462" lon="5.36613">
        <ele>201.53</ele>
        <time>2021-07-23T19:48:45Z</time>
      </trkpt>
      <trkpt lat="49.15454" lon="5.36605">
        <ele>200.57</ele>
        <time>2021-07-23T19:48:46Z</time>
      </trkpt>
      <trkpt lat="49.15403" lon="5.3656">
        <ele>198.17</ele>
        <time>2021-07-23T19:48:55Z</time>
      </trkpt>
      <trkpt lat="49.15387" lon="5.36561">
        <ele>196.73</ele>
        <time>2021-07-23T19:49:05Z</time>
      </trkpt>
    </trkseg>
  </trk>
  <trk>
    <name><![CDATA[Journal actif: 2021-07-24 09:48]]></name>
    <trkseg>
      <trkpt lat="49.15275" lon="5.36574">
        <ele>201.05</ele>
        <time>2021-07-24T11:48:17Z</time>
      </trkpt>
      <trkpt lat="49.15246" lon="5.36544">
        <ele>198.65</ele>
        <time>2021-07-24T11:48:54Z</time>
      </trkpt>
      <trkpt lat="49.15251" lon="5.36549">
        <ele>207.78</ele>
        <time>2021-07-24T11:49:28Z</time>
      </trkpt>
      <trkpt lat="49.15278" lon="5.36559">
        <ele>206.34</ele>
        <time>2021-07-24T11:49:43Z</time>
      </trkpt>
      <trkpt lat="49.15308" lon="5.36578">
        <ele>202.98</ele>
        <time>2021-07-24T11:49:57Z</time>
      </trkpt>
      <trkpt lat="49.15312" lon="5.36581">
        <ele>202.49</ele>
        <time>2021-07-24T11:50:13Z</time>
      </trkpt>
      <trkpt lat="49.15324" lon="5.36588">
        <ele>201.53</ele>
        <time>2021-07-24T11:51:28Z</time>
      </trkpt>
      <trkpt lat="49.15363" lon="5.36611">
        <ele>201.53</ele>
        <time>2021-07-24T11:51:44Z</time>
      </trkpt>
      <trkpt lat="49.15382" lon="5.36577">
        <ele>203.94</ele>
        <time>2021-07-24T11:51:58Z</time>
      </trkpt>
      <trkpt lat="49.15383" lon="5.36575">
        <ele>203.94</ele>
        <time>2021-07-24T11:51:59Z</time>
      </trkpt>
      <trkpt lat="49.15375" lon="5.36569">
        <ele>203.46</ele>
        <time>2021-07-24T11:52:11Z</time>
      </trkpt>
      <trkpt lat="49.15375" lon="5.36569">
        <ele>202.98</ele>
        <time>2021-07-24T11:55:23Z</time>
      </trkpt>
      <trkpt lat="49.15375" lon="5.36569">
        <ele>202.98</ele>
        <time>2021-07-24T11:56:34Z</time>
      </trkpt>
      <trkpt lat="49.15375" lon="5.36569">
        <ele>202.98</ele>
        <time>2021-07-24T11:56:56Z</time>
      </trkpt>
      <trkpt lat="49.15375" lon="5.36569">
        <ele>202.98</ele>
        <time>2021-07-24T11:56:59Z</time>
      </trkpt>
      <trkpt lat="49.15385" lon="5.36567">
        <ele>203.46</ele>
        <time>2021-07-24T11:57:00Z</time>
      </trkpt>
      <trkpt lat="49.15386" lon="5.36566">
        <ele>203.46</ele>
        <time>2021-07-24T11:57:01Z</time>
      </trkpt>
      <trkpt lat="49.15387" lon="5.36562">
        <ele>203.46</ele>
        <time>2021-07-24T11:57:02Z</time>
      </trkpt>
      <trkpt lat="49.154" lon="5.36558">
        <ele>203.46</ele>
        <time>2021-07-24T11:57:12Z</time>
      </trkpt>
      <trkpt lat="49.15447" lon="5.36598">
        <ele>206.82</ele>
        <time>2021-07-24T11:57:26Z</time>
      </trkpt>
      <trkpt lat="49.15505" lon="5.3668">
        <ele>205.86</ele>
        <time>2021-07-24T11:57:40Z</time>
      </trkpt>
      <trkpt lat="49.15564" lon="5.36775">
        <ele>208.74</ele>
        <time>2021-07-24T11:57:55Z</time>
      </trkpt>
      <trkpt lat="49.15577" lon="5.3679">
        <ele>210.67</ele>
        <time>2021-07-24T11:58:04Z</time>
      </trkpt>
      <trkpt lat="49.15584" lon="5.36818">
        <ele>209.22</ele>
        <time>2021-07-24T11:58:17Z</time>
      </trkpt>
      <trkpt lat="49.15589" lon="5.36922">
        <ele>204.9</ele>
        <time>2021-07-24T11:58:29Z</time>
      </trkpt>
      <trkpt lat="49.15589" lon="5.36978">
        <ele>202.98</ele>
        <time>2021-07-24T11:58:35Z</time>
      </trkpt>
      <trkpt lat="49.15588" lon="5.36988">
        <ele>202.49</ele>
        <time>2021-07-24T11:58:36Z</time>
      </trkpt>
      <trkpt lat="49.15551" lon="5.37077">
        <ele>198.17</ele>
        <time>2021-07-24T11:58:47Z</time>
      </trkpt>
      <trkpt lat="49.15545" lon="5.37082">
        <ele>197.69</ele>
        <time>2021-07-24T11:58:48Z</time>
      </trkpt>
      <trkpt lat="49.15462" lon="5.37143">
        <ele>194.32</ele>
        <time>2021-07-24T11:58:59Z</time>
      </trkpt>
      <trkpt lat="49.15322" lon="5.37243">
        <ele>195.77</ele>
        <time>2021-07-24T11:59:12Z</time>
      </trkpt>
      <trkpt lat="49.15104" lon="5.37394">
        <ele>195.77</ele>
        <time>2021-07-24T11:59:30Z</time>
      </trkpt>
      <trkpt lat="49.15" lon="5.375">
        <ele>198.17</ele>
        <time>2021-07-24T11:59:40Z</time>
      </trkpt>
      <trkpt lat="49.14943" lon="5.37655">
        <ele>196.73</ele>
        <time>2021-07-24T11:59:50Z</time>
      </trkpt>
      <trkpt lat="49.1494" lon="5.37665">
        <ele>196.73</ele>
        <time>2021-07-24T11:59:51Z</time>
      </trkpt>
      <trkpt lat="49.14938" lon="5.37671">
        <ele>196.73</ele>
        <time>2021-07-24T11:59:52Z</time>
      </trkpt>
      <trkpt lat="49.14936" lon="5.37676">
        <ele>196.73</ele>
        <time>2021-07-24T11:59:53Z</time>
      </trkpt>
      <trkpt lat="49.14925" lon="5.37668">
        <ele>196.73</ele>
        <time>2021-07-24T11:59:55Z</time>
      </trkpt>
      <trkpt lat="49.14918" lon="5.37672">
        <ele>196.73</ele>
        <time>2021-07-24T11:59:56Z</time>
      </trkpt>
      <trkpt lat="49.14914" lon="5.37677">
        <ele>196.25</ele>
        <time>2021-07-24T11:59:57Z</time>
      </trkpt>
      <trkpt lat="49.14912" lon="5.37683">
        <ele>196.25</ele>
        <time>2021-07-24T11:59:58Z</time>
      </trkpt>
      <trkpt lat="49.14909" lon="5.37688">
        <ele>196.25</ele>
        <time>2021-07-24T11:59:59Z</time>
      </trkpt>
      <trkpt lat="49.149" lon="5.37709">
        <ele>195.28</ele>
        <time>2021-07-24T12:00:05Z</time>
      </trkpt>
      <trkpt lat="49.149" lon="5.37709">
        <ele>195.77</ele>
        <time>2021-07-24T12:00:06Z</time>
      </trkpt>
      <trkpt lat="49.14903" lon="5.3771">
        <ele>196.25</ele>
        <time>2021-07-24T12:00:07Z</time>
      </trkpt>
      <trkpt lat="49.14906" lon="5.37713">
        <ele>197.21</ele>
        <time>2021-07-24T12:00:08Z</time>
      </trkpt>
      <trkpt lat="49.1491" lon="5.37715">
        <ele>198.17</ele>
        <time>2021-07-24T12:00:09Z</time>
      </trkpt>
      <trkpt lat="49.14913" lon="5.37717">
        <ele>199.61</ele>
        <time>2021-07-24T12:00:20Z</time>
      </trkpt>
      <trkpt lat="49.14915" lon="5.37719">
        <ele>200.09</ele>
        <time>2021-07-24T12:00:43Z</time>
      </trkpt>
      <trkpt lat="49.14921" lon="5.37723">
        <ele>200.09</ele>
        <time>2021-07-24T12:00:44Z</time>
      </trkpt>
      <trkpt lat="49.14921" lon="5.37723">
        <ele>200.09</ele>
        <time>2021-07-24T12:00:45Z</time>
      </trkpt>
      <trkpt lat="49.14921" lon="5.37721">
        <ele>200.09</ele>
        <time>2021-07-24T12:00:46Z</time>
      </trkpt>
      <trkpt lat="49.14924" lon="5.37714">
        <ele>200.09</ele>
        <time>2021-07-24T12:00:47Z</time>
      </trkpt>
      <trkpt lat="49.14926" lon="5.37707">
        <ele>200.09</ele>
        <time>2021-07-24T12:00:48Z</time>
      </trkpt>
      <trkpt lat="49.14967" lon="5.37581">
        <ele>200.57</ele>
        <time>2021-07-24T12:01:01Z</time>
      </trkpt>
      <trkpt lat="49.15023" lon="5.37468">
        <ele>198.65</ele>
        <time>2021-07-24T12:01:10Z</time>
      </trkpt>
      <trkpt lat="49.15126" lon="5.37379">
        <ele>197.69</ele>
        <time>2021-07-24T12:01:19Z</time>
      </trkpt>
      <trkpt lat="49.15368" lon="5.37211">
        <ele>197.69</ele>
        <time>2021-07-24T12:01:38Z</time>
      </trkpt>
      <trkpt lat="49.15536" lon="5.37091">
        <ele>198.17</ele>
        <time>2021-07-24T12:01:52Z</time>
      </trkpt>
      <trkpt lat="49.15568" lon="5.37073">
        <ele>199.61</ele>
        <time>2021-07-24T12:01:56Z</time>
      </trkpt>
      <trkpt lat="49.15575" lon="5.37072">
        <ele>200.09</ele>
        <time>2021-07-24T12:01:57Z</time>
      </trkpt>
      <trkpt lat="49.15582" lon="5.37071">
        <ele>200.09</ele>
        <time>2021-07-24T12:01:58Z</time>
      </trkpt>
      <trkpt lat="49.15588" lon="5.3707">
        <ele>200.09</ele>
        <time>2021-07-24T12:01:59Z</time>
      </trkpt>
      <trkpt lat="49.15594" lon="5.3707">
        <ele>200.09</ele>
        <time>2021-07-24T12:02:00Z</time>
      </trkpt>
      <trkpt lat="49.15601" lon="5.37069">
        <ele>199.61</ele>
        <time>2021-07-24T12:02:01Z</time>
      </trkpt>
      <trkpt lat="49.15607" lon="5.37071">
        <ele>199.61</ele>
        <time>2021-07-24T12:02:02Z</time>
      </trkpt>
      <trkpt lat="49.15619" lon="5.37082">
        <ele>199.61</ele>
        <time>2021-07-24T12:02:03Z</time>
      </trkpt>
      <trkpt lat="49.15619" lon="5.37082">
        <ele>199.13</ele>
        <time>2021-07-24T12:02:04Z</time>
      </trkpt>
      <trkpt lat="49.1567" lon="5.37157">
        <ele>200.09</ele>
        <time>2021-07-24T12:02:13Z</time>
      </trkpt>
      <trkpt lat="49.15675" lon="5.37168">
        <ele>200.09</ele>
        <time>2021-07-24T12:02:14Z</time>
      </trkpt>
      <trkpt lat="49.15678" lon="5.37181">
        <ele>200.09</ele>
        <time>2021-07-24T12:02:15Z</time>
      </trkpt>
      <trkpt lat="49.15692" lon="5.37299">
        <ele>199.13</ele>
        <time>2021-07-24T12:02:25Z</time>
      </trkpt>
      <trkpt lat="49.15702" lon="5.37418">
        <ele>200.09</ele>
        <time>2021-07-24T12:02:38Z</time>
      </trkpt>
      <trkpt lat="49.15717" lon="5.37512">
        <ele>198.65</ele>
        <time>2021-07-24T12:02:48Z</time>
      </trkpt>
      <trkpt lat="49.15719" lon="5.3752">
        <ele>198.17</ele>
        <time>2021-07-24T12:02:49Z</time>
      </trkpt>
      <trkpt lat="49.15725" lon="5.37546">
        <ele>196.25</ele>
        <time>2021-07-24T12:02:53Z</time>
      </trkpt>
      <trkpt lat="49.15726" lon="5.37554">
        <ele>195.77</ele>
        <time>2021-07-24T12:02:54Z</time>
      </trkpt>
      <trkpt lat="49.15746" lon="5.3765">
        <ele>195.77</ele>
        <time>2021-07-24T12:03:06Z</time>
      </trkpt>
      <trkpt lat="49.15773" lon="5.37786">
        <ele>196.25</ele>
        <time>2021-07-24T12:03:21Z</time>
      </trkpt>
      <trkpt lat="49.15791" lon="5.37908">
        <ele>196.25</ele>
        <time>2021-07-24T12:03:37Z</time>
      </trkpt>
      <trkpt lat="49.1581" lon="5.37971">
        <ele>194.8</ele>
        <time>2021-07-24T12:03:47Z</time>
      </trkpt>
      <trkpt lat="49.1583" lon="5.38079">
        <ele>196.25</ele>
        <time>2021-07-24T12:04:03Z</time>
      </trkpt>
      <trkpt lat="49.15851" lon="5.382">
        <ele>196.73</ele>
        <time>2021-07-24T12:04:21Z</time>
      </trkpt>
      <trkpt lat="49.15863" lon="5.38243">
        <ele>197.21</ele>
        <time>2021-07-24T12:04:33Z</time>
      </trkpt>
      <trkpt lat="49.15881" lon="5.38299">
        <ele>198.17</ele>
        <time>2021-07-24T12:04:48Z</time>
      </trkpt>
      <trkpt lat="49.15906" lon="5.38362">
        <ele>199.61</ele>
        <time>2021-07-24T12:05:03Z</time>
      </trkpt>
      <trkpt lat="49.15925" lon="5.38397">
        <ele>200.09</ele>
        <time>2021-07-24T12:05:15Z</time>
      </trkpt>
      <trkpt lat="49.1595" lon="5.38418">
        <ele>201.05</ele>
        <time>2021-07-24T12:05:26Z</time>
      </trkpt>
      <trkpt lat="49.15978" lon="5.38441">
        <ele>202.49</ele>
        <time>2021-07-24T12:05:40Z</time>
      </trkpt>
      <trkpt lat="49.15978" lon="5.38441">
        <ele>202.49</ele>
        <time>2021-07-24T12:05:44Z</time>
      </trkpt>
      <trkpt lat="49.15978" lon="5.38454">
        <ele>202.49</ele>
        <time>2021-07-24T12:05:45Z</time>
      </trkpt>
      <trkpt lat="49.15963" lon="5.38485">
        <ele>202.49</ele>
        <time>2021-07-24T12:05:51Z</time>
      </trkpt>
      <trkpt lat="49.15936" lon="5.38553">
        <ele>200.57</ele>
        <time>2021-07-24T12:06:05Z</time>
      </trkpt>
      <trkpt lat="49.15931" lon="5.38576">
        <ele>197.69</ele>
        <time>2021-07-24T12:06:16Z</time>
      </trkpt>
      <trkpt lat="49.15936" lon="5.38613">
        <ele>197.69</ele>
        <time>2021-07-24T12:06:27Z</time>
      </trkpt>
      <trkpt lat="49.15958" lon="5.38672">
        <ele>201.05</ele>
        <time>2021-07-24T12:06:40Z</time>
      </trkpt>
      <trkpt lat="49.15958" lon="5.38672">
        <ele>201.05</ele>
        <time>2021-07-24T12:07:03Z</time>
      </trkpt>
      <trkpt lat="49.1597" lon="5.38697">
        <ele>201.05</ele>
        <time>2021-07-24T12:08:13Z</time>
      </trkpt>
      <trkpt lat="49.15973" lon="5.38701">
        <ele>201.53</ele>
        <time>2021-07-24T12:08:14Z</time>
      </trkpt>
      <trkpt lat="49.15982" lon="5.3872">
        <ele>201.05</ele>
        <time>2021-07-24T12:08:17Z</time>
      </trkpt>
      <trkpt lat="49.15986" lon="5.38725">
        <ele>201.05</ele>
        <time>2021-07-24T12:08:18Z</time>
      </trkpt>
      <trkpt lat="49.16006" lon="5.38768">
        <ele>200.57</ele>
        <time>2021-07-24T12:08:24Z</time>
      </trkpt>
      <trkpt lat="49.16031" lon="5.38814">
        <ele>199.13</ele>
        <time>2021-07-24T12:08:31Z</time>
      </trkpt>
      <trkpt lat="49.16053" lon="5.38862">
        <ele>198.17</ele>
        <time>2021-07-24T12:08:41Z</time>
      </trkpt>
      <trkpt lat="49.16058" lon="5.38869">
        <ele>197.69</ele>
        <time>2021-07-24T12:08:43Z</time>
      </trkpt>
      <trkpt lat="49.16062" lon="5.38879">
        <ele>197.69</ele>
        <time>2021-07-24T12:08:44Z</time>
      </trkpt>
      <trkpt lat="49.16064" lon="5.38881">
        <ele>197.69</ele>
        <time>2021-07-24T12:08:45Z</time>
      </trkpt>
      <trkpt lat="49.16116" lon="5.38979">
        <ele>196.73</ele>
        <time>2021-07-24T12:08:59Z</time>
      </trkpt>
      <trkpt lat="49.16141" lon="5.39009">
        <ele>197.69</ele>
        <time>2021-07-24T12:09:09Z</time>
      </trkpt>
      <trkpt lat="49.16143" lon="5.39006">
        <ele>197.21</ele>
        <time>2021-07-24T12:09:10Z</time>
      </trkpt>
      <trkpt lat="49.16144" lon="5.39002">
        <ele>197.21</ele>
        <time>2021-07-24T12:09:11Z</time>
      </trkpt>
      <trkpt lat="49.16146" lon="5.38997">
        <ele>196.73</ele>
        <time>2021-07-24T12:09:12Z</time>
      </trkpt>
      <trkpt lat="49.16146" lon="5.38997">
        <ele>196.73</ele>
        <time>2021-07-24T12:09:13Z</time>
      </trkpt>
      <trkpt lat="49.16143" lon="5.38994">
        <ele>196.25</ele>
        <time>2021-07-24T12:09:14Z</time>
      </trkpt>
      <trkpt lat="49.1614" lon="5.3899">
        <ele>195.77</ele>
        <time>2021-07-24T12:09:15Z</time>
      </trkpt>
      <trkpt lat="49.16136" lon="5.38987">
        <ele>195.28</ele>
        <time>2021-07-24T12:09:16Z</time>
      </trkpt>
      <trkpt lat="49.16132" lon="5.38983">
        <ele>195.28</ele>
        <time>2021-07-24T12:09:17Z</time>
      </trkpt>
      <trkpt lat="49.16123" lon="5.38972">
        <ele>195.28</ele>
        <time>2021-07-24T12:09:18Z</time>
      </trkpt>
      <trkpt lat="49.16119" lon="5.38967">
        <ele>194.8</ele>
        <time>2021-07-24T12:09:19Z</time>
      </trkpt>
      <trkpt lat="49.16095" lon="5.38937">
        <ele>194.32</ele>
        <time>2021-07-24T12:09:25Z</time>
      </trkpt>
      <trkpt lat="49.16091" lon="5.38929">
        <ele>194.32</ele>
        <time>2021-07-24T12:09:26Z</time>
      </trkpt>
      <trkpt lat="49.16019" lon="5.38791">
        <ele>195.77</ele>
        <time>2021-07-24T12:09:43Z</time>
      </trkpt>
      <trkpt lat="49.15961" lon="5.38677">
        <ele>195.28</ele>
        <time>2021-07-24T12:09:58Z</time>
      </trkpt>
      <trkpt lat="49.15938" lon="5.38624">
        <ele>195.77</ele>
        <time>2021-07-24T12:10:07Z</time>
      </trkpt>
      <trkpt lat="49.15941" lon="5.38598">
        <ele>198.17</ele>
        <time>2021-07-24T12:10:14Z</time>
      </trkpt>
      <trkpt lat="49.1594" lon="5.38592">
        <ele>198.65</ele>
        <time>2021-07-24T12:10:17Z</time>
      </trkpt>
      <trkpt lat="49.15937" lon="5.38591">
        <ele>198.65</ele>
        <time>2021-07-24T12:10:18Z</time>
      </trkpt>
      <trkpt lat="49.15935" lon="5.38591">
        <ele>198.65</ele>
        <time>2021-07-24T12:10:19Z</time>
      </trkpt>
      <trkpt lat="49.15929" lon="5.38598">
        <ele>199.13</ele>
        <time>2021-07-24T12:10:20Z</time>
      </trkpt>
      <trkpt lat="49.15928" lon="5.38599">
        <ele>199.61</ele>
        <time>2021-07-24T12:10:21Z</time>
      </trkpt>
      <trkpt lat="49.15925" lon="5.386">
        <ele>199.61</ele>
        <time>2021-07-24T12:10:22Z</time>
      </trkpt>
      <trkpt lat="49.15922" lon="5.38601">
        <ele>199.13</ele>
        <time>2021-07-24T12:10:23Z</time>
      </trkpt>
      <trkpt lat="49.15918" lon="5.38602">
        <ele>198.65</ele>
        <time>2021-07-24T12:10:24Z</time>
      </trkpt>
      <trkpt lat="49.15915" lon="5.38603">
        <ele>198.17</ele>
        <time>2021-07-24T12:10:25Z</time>
      </trkpt>
      <trkpt lat="49.15911" lon="5.38605">
        <ele>198.17</ele>
        <time>2021-07-24T12:10:26Z</time>
      </trkpt>
      <trkpt lat="49.15908" lon="5.38608">
        <ele>197.69</ele>
        <time>2021-07-24T12:10:27Z</time>
      </trkpt>
      <trkpt lat="49.15904" lon="5.38613">
        <ele>197.69</ele>
        <time>2021-07-24T12:10:28Z</time>
      </trkpt>
      <trkpt lat="49.15868" lon="5.38664">
        <ele>197.21</ele>
        <time>2021-07-24T12:10:39Z</time>
      </trkpt>
      <trkpt lat="49.15853" lon="5.38687">
        <ele>197.69</ele>
        <time>2021-07-24T12:10:45Z</time>
      </trkpt>
      <trkpt lat="49.1585" lon="5.38686">
        <ele>198.17</ele>
        <time>2021-07-24T12:10:46Z</time>
      </trkpt>
      <trkpt lat="49.15848" lon="5.38683">
        <ele>198.17</ele>
        <time>2021-07-24T12:10:47Z</time>
      </trkpt>
      <trkpt lat="49.1582" lon="5.38645">
        <ele>198.17</ele>
        <time>2021-07-24T12:10:56Z</time>
      </trkpt>
      <trkpt lat="49.1582" lon="5.38645">
        <ele>198.17</ele>
        <time>2021-07-24T12:10:57Z</time>
      </trkpt>
      <trkpt lat="49.15817" lon="5.3864">
        <ele>198.65</ele>
        <time>2021-07-24T12:10:58Z</time>
      </trkpt>
      <trkpt lat="49.15777" lon="5.38556">
        <ele>197.21</ele>
        <time>2021-07-24T12:11:11Z</time>
      </trkpt>
      <trkpt lat="49.15777" lon="5.38556">
        <ele>196.73</ele>
        <time>2021-07-24T12:11:12Z</time>
      </trkpt>
      <trkpt lat="49.15773" lon="5.38544">
        <ele>196.73</ele>
        <time>2021-07-24T12:11:21Z</time>
      </trkpt>
    </trkseg>
  </trk>
  <trk>
    <name><![CDATA[Journal actif: 2021-07-24 10:12]]></name>
    <trkseg>
      <trkpt lat="49.15773" lon="5.38544">
        <ele>196.73</ele>
        <time>2021-07-24T12:12:26Z</time>
      </trkpt>
      <trkpt lat="49.15765" lon="5.38516">
        <ele>196.25</ele>
        <time>2021-07-24T12:12:46Z</time>
      </trkpt>
      <trkpt lat="49.1576" lon="5.38499">
        <ele>195.28</ele>
        <time>2021-07-24T12:12:50Z</time>
      </trkpt>
      <trkpt lat="49.15765" lon="5.38479">
        <ele>195.28</ele>
        <time>2021-07-24T12:12:51Z</time>
      </trkpt>
      <trkpt lat="49.15768" lon="5.38477">
        <ele>195.28</ele>
        <time>2021-07-24T12:12:52Z</time>
      </trkpt>
      <trkpt lat="49.15771" lon="5.38475">
        <ele>195.28</ele>
        <time>2021-07-24T12:12:53Z</time>
      </trkpt>
      <trkpt lat="49.15775" lon="5.38474">
        <ele>195.28</ele>
        <time>2021-07-24T12:12:54Z</time>
      </trkpt>
      <trkpt lat="49.158" lon="5.38458">
        <ele>194.32</ele>
        <time>2021-07-24T12:13:01Z</time>
      </trkpt>
      <trkpt lat="49.15802" lon="5.38457">
        <ele>193.84</ele>
        <time>2021-07-24T12:13:02Z</time>
      </trkpt>
      <trkpt lat="49.15805" lon="5.38455">
        <ele>193.84</ele>
        <time>2021-07-24T12:13:03Z</time>
      </trkpt>
      <trkpt lat="49.15804" lon="5.38453">
        <ele>193.84</ele>
        <time>2021-07-24T12:13:04Z</time>
      </trkpt>
      <trkpt lat="49.15803" lon="5.38449">
        <ele>193.84</ele>
        <time>2021-07-24T12:13:05Z</time>
      </trkpt>
      <trkpt lat="49.15801" lon="5.38443">
        <ele>193.36</ele>
        <time>2021-07-24T12:13:06Z</time>
      </trkpt>
      <trkpt lat="49.15775" lon="5.38356">
        <ele>189.04</ele>
        <time>2021-07-24T12:13:19Z</time>
      </trkpt>
      <trkpt lat="49.15744" lon="5.38262">
        <ele>187.11</ele>
        <time>2021-07-24T12:13:29Z</time>
      </trkpt>
      <trkpt lat="49.15704" lon="5.38145">
        <ele>190</ele>
        <time>2021-07-24T12:13:45Z</time>
      </trkpt>
      <trkpt lat="49.15703" lon="5.38141">
        <ele>190.48</ele>
        <time>2021-07-24T12:13:46Z</time>
      </trkpt>
      <trkpt lat="49.15701" lon="5.38136">
        <ele>190.48</ele>
        <time>2021-07-24T12:13:47Z</time>
      </trkpt>
      <trkpt lat="49.157" lon="5.38132">
        <ele>190.48</ele>
        <time>2021-07-24T12:13:48Z</time>
      </trkpt>
      <trkpt lat="49.15692" lon="5.38123">
        <ele>190.48</ele>
        <time>2021-07-24T12:13:49Z</time>
      </trkpt>
      <trkpt lat="49.1569" lon="5.38126">
        <ele>190.48</ele>
        <time>2021-07-24T12:13:50Z</time>
      </trkpt>
      <trkpt lat="49.15687" lon="5.38128">
        <ele>190</ele>
        <time>2021-07-24T12:13:51Z</time>
      </trkpt>
      <trkpt lat="49.15683" lon="5.38132">
        <ele>190</ele>
        <time>2021-07-24T12:13:52Z</time>
      </trkpt>
      <trkpt lat="49.15657" lon="5.38179">
        <ele>192.88</ele>
        <time>2021-07-24T12:14:02Z</time>
      </trkpt>
      <trkpt lat="49.15657" lon="5.3818">
        <ele>192.4</ele>
        <time>2021-07-24T12:14:03Z</time>
      </trkpt>
      <trkpt lat="49.15665" lon="5.38201">
        <ele>192.4</ele>
        <time>2021-07-24T12:14:06Z</time>
      </trkpt>
      <trkpt lat="49.15665" lon="5.38201">
        <ele>192.4</ele>
        <time>2021-07-24T12:14:07Z</time>
      </trkpt>
      <trkpt lat="49.15696" lon="5.38302">
        <ele>189.04</ele>
        <time>2021-07-24T12:14:20Z</time>
      </trkpt>
      <trkpt lat="49.15714" lon="5.38363">
        <ele>188.56</ele>
        <time>2021-07-24T12:14:30Z</time>
      </trkpt>
      <trkpt lat="49.15727" lon="5.384">
        <ele>185.67</ele>
        <time>2021-07-24T12:14:39Z</time>
      </trkpt>
      <trkpt lat="49.15751" lon="5.38472">
        <ele>182.79</ele>
        <time>2021-07-24T12:14:50Z</time>
      </trkpt>
      <trkpt lat="49.15756" lon="5.38486">
        <ele>183.75</ele>
        <time>2021-07-24T12:14:54Z</time>
      </trkpt>
      <trkpt lat="49.15758" lon="5.38494">
        <ele>183.75</ele>
        <time>2021-07-24T12:14:55Z</time>
      </trkpt>
      <trkpt lat="49.15783" lon="5.38571">
        <ele>189.04</ele>
        <time>2021-07-24T12:15:05Z</time>
      </trkpt>
      <trkpt lat="49.15808" lon="5.3864">
        <ele>191.92</ele>
        <time>2021-07-24T12:15:18Z</time>
      </trkpt>
      <trkpt lat="49.15806" lon="5.38644">
        <ele>191.92</ele>
        <time>2021-07-24T12:15:19Z</time>
      </trkpt>
      <trkpt lat="49.15804" lon="5.38649">
        <ele>191.92</ele>
        <time>2021-07-24T12:15:20Z</time>
      </trkpt>
      <trkpt lat="49.15769" lon="5.38734">
        <ele>190</ele>
        <time>2021-07-24T12:15:35Z</time>
      </trkpt>
      <trkpt lat="49.15771" lon="5.38739">
        <ele>190</ele>
        <time>2021-07-24T12:15:36Z</time>
      </trkpt>
      <trkpt lat="49.15771" lon="5.38739">
        <ele>190.48</ele>
        <time>2021-07-24T12:15:37Z</time>
      </trkpt>
      <trkpt lat="49.15786" lon="5.38779">
        <ele>192.4</ele>
        <time>2021-07-24T12:15:48Z</time>
      </trkpt>
      <trkpt lat="49.15786" lon="5.38779">
        <ele>192.88</ele>
        <time>2021-07-24T12:15:52Z</time>
      </trkpt>
      <trkpt lat="49.15789" lon="5.38786">
        <ele>193.36</ele>
        <time>2021-07-24T12:15:53Z</time>
      </trkpt>
      <trkpt lat="49.15793" lon="5.38793">
        <ele>193.84</ele>
        <time>2021-07-24T12:15:54Z</time>
      </trkpt>
      <trkpt lat="49.15795" lon="5.38789">
        <ele>194.32</ele>
        <time>2021-07-24T12:15:55Z</time>
      </trkpt>
      <trkpt lat="49.15797" lon="5.38785">
        <ele>194.32</ele>
        <time>2021-07-24T12:15:56Z</time>
      </trkpt>
      <trkpt lat="49.15799" lon="5.38781">
        <ele>194.8</ele>
        <time>2021-07-24T12:15:57Z</time>
      </trkpt>
      <trkpt lat="49.15831" lon="5.38725">
        <ele>191.92</ele>
        <time>2021-07-24T12:16:09Z</time>
      </trkpt>
      <trkpt lat="49.15871" lon="5.38659">
        <ele>189.04</ele>
        <time>2021-07-24T12:16:22Z</time>
      </trkpt>
      <trkpt lat="49.15911" lon="5.38604">
        <ele>193.84</ele>
        <time>2021-07-24T12:16:34Z</time>
      </trkpt>
      <trkpt lat="49.15924" lon="5.386">
        <ele>195.77</ele>
        <time>2021-07-24T12:16:43Z</time>
      </trkpt>
      <trkpt lat="49.1593" lon="5.386">
        <ele>196.25</ele>
        <time>2021-07-24T12:16:44Z</time>
      </trkpt>
      <trkpt lat="49.15933" lon="5.38604">
        <ele>196.25</ele>
        <time>2021-07-24T12:16:45Z</time>
      </trkpt>
      <trkpt lat="49.15936" lon="5.38612">
        <ele>196.25</ele>
        <time>2021-07-24T12:16:46Z</time>
      </trkpt>
      <trkpt lat="49.15937" lon="5.38618">
        <ele>196.73</ele>
        <time>2021-07-24T12:16:47Z</time>
      </trkpt>
      <trkpt lat="49.15939" lon="5.38625">
        <ele>196.73</ele>
        <time>2021-07-24T12:16:48Z</time>
      </trkpt>
      <trkpt lat="49.1594" lon="5.38633">
        <ele>196.25</ele>
        <time>2021-07-24T12:16:49Z</time>
      </trkpt>
      <trkpt lat="49.15943" lon="5.3864">
        <ele>196.25</ele>
        <time>2021-07-24T12:16:50Z</time>
      </trkpt>
      <trkpt lat="49.15947" lon="5.38648">
        <ele>196.25</ele>
        <time>2021-07-24T12:16:51Z</time>
      </trkpt>
      <trkpt lat="49.15966" lon="5.38687">
        <ele>195.77</ele>
        <time>2021-07-24T12:16:55Z</time>
      </trkpt>
      <trkpt lat="49.1602" lon="5.38792">
        <ele>192.88</ele>
        <time>2021-07-24T12:17:10Z</time>
      </trkpt>
      <trkpt lat="49.16054" lon="5.38865">
        <ele>192.4</ele>
        <time>2021-07-24T12:17:21Z</time>
      </trkpt>
      <trkpt lat="49.16056" lon="5.38867">
        <ele>191.92</ele>
        <time>2021-07-24T12:17:22Z</time>
      </trkpt>
      <trkpt lat="49.16101" lon="5.38948">
        <ele>191.44</ele>
        <time>2021-07-24T12:17:32Z</time>
      </trkpt>
      <trkpt lat="49.16127" lon="5.38998">
        <ele>190.96</ele>
        <time>2021-07-24T12:17:39Z</time>
      </trkpt>
      <trkpt lat="49.1613" lon="5.39003">
        <ele>191.44</ele>
        <time>2021-07-24T12:17:40Z</time>
      </trkpt>
      <trkpt lat="49.16137" lon="5.39014">
        <ele>191.92</ele>
        <time>2021-07-24T12:17:41Z</time>
      </trkpt>
      <trkpt lat="49.16137" lon="5.39014">
        <ele>191.92</ele>
        <time>2021-07-24T12:17:42Z</time>
      </trkpt>
      <trkpt lat="49.16139" lon="5.39015">
        <ele>192.4</ele>
        <time>2021-07-24T12:17:43Z</time>
      </trkpt>
      <trkpt lat="49.16143" lon="5.39004">
        <ele>192.4</ele>
        <time>2021-07-24T12:17:44Z</time>
      </trkpt>
      <trkpt lat="49.16145" lon="5.38999">
        <ele>192.4</ele>
        <time>2021-07-24T12:17:45Z</time>
      </trkpt>
      <trkpt lat="49.16141" lon="5.38982">
        <ele>192.88</ele>
        <time>2021-07-24T12:17:46Z</time>
      </trkpt>
      <trkpt lat="49.16141" lon="5.38982">
        <ele>193.36</ele>
        <time>2021-07-24T12:17:47Z</time>
      </trkpt>
      <trkpt lat="49.16143" lon="5.38975">
        <ele>193.36</ele>
        <time>2021-07-24T12:17:48Z</time>
      </trkpt>
      <trkpt lat="49.16145" lon="5.38968">
        <ele>193.84</ele>
        <time>2021-07-24T12:17:49Z</time>
      </trkpt>
      <trkpt lat="49.16148" lon="5.38959">
        <ele>193.84</ele>
        <time>2021-07-24T12:17:50Z</time>
      </trkpt>
      <trkpt lat="49.16153" lon="5.38941">
        <ele>193.84</ele>
        <time>2021-07-24T12:17:51Z</time>
      </trkpt>
      <trkpt lat="49.16166" lon="5.38894">
        <ele>192.88</ele>
        <time>2021-07-24T12:17:58Z</time>
      </trkpt>
      <trkpt lat="49.16169" lon="5.38886">
        <ele>192.88</ele>
        <time>2021-07-24T12:17:59Z</time>
      </trkpt>
      <trkpt lat="49.16172" lon="5.38878">
        <ele>192.88</ele>
        <time>2021-07-24T12:18:00Z</time>
      </trkpt>
      <trkpt lat="49.16194" lon="5.38815">
        <ele>193.36</ele>
        <time>2021-07-24T12:18:11Z</time>
      </trkpt>
      <trkpt lat="49.16196" lon="5.388">
        <ele>196.25</ele>
        <time>2021-07-24T12:18:24Z</time>
      </trkpt>
      <trkpt lat="49.16196" lon="5.388">
        <ele>196.25</ele>
        <time>2021-07-24T12:28:04Z</time>
      </trkpt>
      <trkpt lat="49.16196" lon="5.388">
        <ele>196.25</ele>
        <time>2021-07-24T12:32:44Z</time>
      </trkpt>
      <trkpt lat="49.16196" lon="5.388">
        <ele>196.25</ele>
        <time>2021-07-24T12:37:34Z</time>
      </trkpt>
    </trkseg>
  </trk>
  <trk>
    <name><![CDATA[Journal actif: 2021-07-24 10:39]]></name>
    <trkseg>
      <trkpt lat="49.16196" lon="5.388">
        <ele>196.25</ele>
        <time>2021-07-24T12:39:34Z</time>
      </trkpt>
      <trkpt lat="49.16196" lon="5.388">
        <ele>196.73</ele>
        <time>2021-07-24T12:39:59Z</time>
      </trkpt>
      <trkpt lat="49.16203" lon="5.38752">
        <ele>197.69</ele>
        <time>2021-07-24T12:40:10Z</time>
      </trkpt>
      <trkpt lat="49.16205" lon="5.38661">
        <ele>197.21</ele>
        <time>2021-07-24T12:40:23Z</time>
      </trkpt>
      <trkpt lat="49.16212" lon="5.38658">
        <ele>196.73</ele>
        <time>2021-07-24T12:40:25Z</time>
      </trkpt>
      <trkpt lat="49.16229" lon="5.3865">
        <ele>196.73</ele>
        <time>2021-07-24T12:40:29Z</time>
      </trkpt>
      <trkpt lat="49.16234" lon="5.38647">
        <ele>196.73</ele>
        <time>2021-07-24T12:40:30Z</time>
      </trkpt>
      <trkpt lat="49.16239" lon="5.38645">
        <ele>196.73</ele>
        <time>2021-07-24T12:40:31Z</time>
      </trkpt>
      <trkpt lat="49.16244" lon="5.38642">
        <ele>196.73</ele>
        <time>2021-07-24T12:40:32Z</time>
      </trkpt>
      <trkpt lat="49.16249" lon="5.3864">
        <ele>196.73</ele>
        <time>2021-07-24T12:40:33Z</time>
      </trkpt>
      <trkpt lat="49.16255" lon="5.38639">
        <ele>196.73</ele>
        <time>2021-07-24T12:40:34Z</time>
      </trkpt>
      <trkpt lat="49.16309" lon="5.38632">
        <ele>198.17</ele>
        <time>2021-07-24T12:40:45Z</time>
      </trkpt>
      <trkpt lat="49.16384" lon="5.3862">
        <ele>200.09</ele>
        <time>2021-07-24T12:40:57Z</time>
      </trkpt>
      <trkpt lat="49.1639" lon="5.38619">
        <ele>200.57</ele>
        <time>2021-07-24T12:40:58Z</time>
      </trkpt>
      <trkpt lat="49.16396" lon="5.38616">
        <ele>200.09</ele>
        <time>2021-07-24T12:40:59Z</time>
      </trkpt>
      <trkpt lat="49.16402" lon="5.38611">
        <ele>200.09</ele>
        <time>2021-07-24T12:41:00Z</time>
      </trkpt>
      <trkpt lat="49.16407" lon="5.38607">
        <ele>200.09</ele>
        <time>2021-07-24T12:41:01Z</time>
      </trkpt>
      <trkpt lat="49.16417" lon="5.38596">
        <ele>200.09</ele>
        <time>2021-07-24T12:41:02Z</time>
      </trkpt>
      <trkpt lat="49.16417" lon="5.38596">
        <ele>199.61</ele>
        <time>2021-07-24T12:41:03Z</time>
      </trkpt>
      <trkpt lat="49.16421" lon="5.38588">
        <ele>199.13</ele>
        <time>2021-07-24T12:41:04Z</time>
      </trkpt>
      <trkpt lat="49.16425" lon="5.3858">
        <ele>199.13</ele>
        <time>2021-07-24T12:41:05Z</time>
      </trkpt>
      <trkpt lat="49.16429" lon="5.38573">
        <ele>199.13</ele>
        <time>2021-07-24T12:41:06Z</time>
      </trkpt>
      <trkpt lat="49.16431" lon="5.38564">
        <ele>198.65</ele>
        <time>2021-07-24T12:41:07Z</time>
      </trkpt>
      <trkpt lat="49.16456" lon="5.38444">
        <ele>195.28</ele>
        <time>2021-07-24T12:41:21Z</time>
      </trkpt>
      <trkpt lat="49.1646" lon="5.38425">
        <ele>195.77</ele>
        <time>2021-07-24T12:41:25Z</time>
      </trkpt>
      <trkpt lat="49.16459" lon="5.38422">
        <ele>195.77</ele>
        <time>2021-07-24T12:41:26Z</time>
      </trkpt>
      <trkpt lat="49.16455" lon="5.38425">
        <ele>196.25</ele>
        <time>2021-07-24T12:41:27Z</time>
      </trkpt>
      <trkpt lat="49.16454" lon="5.38424">
        <ele>196.25</ele>
        <time>2021-07-24T12:41:28Z</time>
      </trkpt>
      <trkpt lat="49.16452" lon="5.38423">
        <ele>196.25</ele>
        <time>2021-07-24T12:41:29Z</time>
      </trkpt>
      <trkpt lat="49.1645" lon="5.38422">
        <ele>196.73</ele>
        <time>2021-07-24T12:41:30Z</time>
      </trkpt>
      <trkpt lat="49.16446" lon="5.3842">
        <ele>196.73</ele>
        <time>2021-07-24T12:41:31Z</time>
      </trkpt>
      <trkpt lat="49.16398" lon="5.38437">
        <ele>199.13</ele>
        <time>2021-07-24T12:41:47Z</time>
      </trkpt>
      <trkpt lat="49.16351" lon="5.38437">
        <ele>198.65</ele>
        <time>2021-07-24T12:42:01Z</time>
      </trkpt>
      <trkpt lat="49.1631" lon="5.38439">
        <ele>196.73</ele>
        <time>2021-07-24T12:42:09Z</time>
      </trkpt>
      <trkpt lat="49.1631" lon="5.38439">
        <ele>196.73</ele>
        <time>2021-07-24T12:42:10Z</time>
      </trkpt>
      <trkpt lat="49.16254" lon="5.38453">
        <ele>195.28</ele>
        <time>2021-07-24T12:42:23Z</time>
      </trkpt>
      <trkpt lat="49.16233" lon="5.38457">
        <ele>194.32</ele>
        <time>2021-07-24T12:42:29Z</time>
      </trkpt>
      <trkpt lat="49.1623" lon="5.38457">
        <ele>194.32</ele>
        <time>2021-07-24T12:42:30Z</time>
      </trkpt>
      <trkpt lat="49.16216" lon="5.38441">
        <ele>194.8</ele>
        <time>2021-07-24T12:42:31Z</time>
      </trkpt>
      <trkpt lat="49.16215" lon="5.38435">
        <ele>194.8</ele>
        <time>2021-07-24T12:42:32Z</time>
      </trkpt>
      <trkpt lat="49.16213" lon="5.38427">
        <ele>195.28</ele>
        <time>2021-07-24T12:42:33Z</time>
      </trkpt>
      <trkpt lat="49.16205" lon="5.38384">
        <ele>197.21</ele>
        <time>2021-07-24T12:42:39Z</time>
      </trkpt>
      <trkpt lat="49.16201" lon="5.38361">
        <ele>197.21</ele>
        <time>2021-07-24T12:42:41Z</time>
      </trkpt>
      <trkpt lat="49.16181" lon="5.38242">
        <ele>204.9</ele>
        <time>2021-07-24T12:42:54Z</time>
      </trkpt>
      <trkpt lat="49.16181" lon="5.38242">
        <ele>206.34</ele>
        <time>2021-07-24T12:42:55Z</time>
      </trkpt>
      <trkpt lat="49.1618" lon="5.38234">
        <ele>207.3</ele>
        <time>2021-07-24T12:42:56Z</time>
      </trkpt>
      <trkpt lat="49.16178" lon="5.38228">
        <ele>207.78</ele>
        <time>2021-07-24T12:42:57Z</time>
      </trkpt>
      <trkpt lat="49.16172" lon="5.38193">
        <ele>211.63</ele>
        <time>2021-07-24T12:43:03Z</time>
      </trkpt>
      <trkpt lat="49.16171" lon="5.38188">
        <ele>213.07</ele>
        <time>2021-07-24T12:43:04Z</time>
      </trkpt>
      <trkpt lat="49.1616" lon="5.38177">
        <ele>213.07</ele>
        <time>2021-07-24T12:43:05Z</time>
      </trkpt>
      <trkpt lat="49.16155" lon="5.38184">
        <ele>214.03</ele>
        <time>2021-07-24T12:43:06Z</time>
      </trkpt>
      <trkpt lat="49.16155" lon="5.38184">
        <ele>214.51</ele>
        <time>2021-07-24T12:43:07Z</time>
      </trkpt>
      <trkpt lat="49.16152" lon="5.38186">
        <ele>214.99</ele>
        <time>2021-07-24T12:43:08Z</time>
      </trkpt>
      <trkpt lat="49.16151" lon="5.38195">
        <ele>215.95</ele>
        <time>2021-07-24T12:43:09Z</time>
      </trkpt>
      <trkpt lat="49.1615" lon="5.38201">
        <ele>215.95</ele>
        <time>2021-07-24T12:43:10Z</time>
      </trkpt>
      <trkpt lat="49.1615" lon="5.38206">
        <ele>216.43</ele>
        <time>2021-07-24T12:43:11Z</time>
      </trkpt>
      <trkpt lat="49.1615" lon="5.38212">
        <ele>218.84</ele>
        <time>2021-07-24T12:43:12Z</time>
      </trkpt>
      <trkpt lat="49.16143" lon="5.3822">
        <ele>219.8</ele>
        <time>2021-07-24T12:43:13Z</time>
      </trkpt>
      <trkpt lat="49.16143" lon="5.3822">
        <ele>219.32</ele>
        <time>2021-07-24T12:43:14Z</time>
      </trkpt>
      <trkpt lat="49.16135" lon="5.38224">
        <ele>219.32</ele>
        <time>2021-07-24T12:43:15Z</time>
      </trkpt>
      <trkpt lat="49.16135" lon="5.38224">
        <ele>219.8</ele>
        <time>2021-07-24T12:43:16Z</time>
      </trkpt>
      <trkpt lat="49.16072" lon="5.38248">
        <ele>225.57</ele>
        <time>2021-07-24T12:43:29Z</time>
      </trkpt>
      <trkpt lat="49.1603" lon="5.38265">
        <ele>227.49</ele>
        <time>2021-07-24T12:43:38Z</time>
      </trkpt>
      <trkpt lat="49.16025" lon="5.38268">
        <ele>227.97</ele>
        <time>2021-07-24T12:43:39Z</time>
      </trkpt>
      <trkpt lat="49.15996" lon="5.38285">
        <ele>229.41</ele>
        <time>2021-07-24T12:43:49Z</time>
      </trkpt>
      <trkpt lat="49.15988" lon="5.3826">
        <ele>231.33</ele>
        <time>2021-07-24T12:44:02Z</time>
      </trkpt>
      <trkpt lat="49.15978" lon="5.3823">
        <ele>232.78</ele>
        <time>2021-07-24T12:44:15Z</time>
      </trkpt>
      <trkpt lat="49.15978" lon="5.3823">
        <ele>233.74</ele>
        <time>2021-07-24T12:44:33Z</time>
      </trkpt>
      <trkpt lat="49.15978" lon="5.3823">
        <ele>234.7</ele>
        <time>2021-07-24T12:45:26Z</time>
      </trkpt>
      <trkpt lat="49.15978" lon="5.3823">
        <ele>235.18</ele>
        <time>2021-07-24T12:47:22Z</time>
      </trkpt>
      <trkpt lat="49.15978" lon="5.3823">
        <ele>234.7</ele>
        <time>2021-07-24T12:48:49Z</time>
      </trkpt>
      <trkpt lat="49.15978" lon="5.3823">
        <ele>234.7</ele>
        <time>2021-07-24T12:49:49Z</time>
      </trkpt>
      <trkpt lat="49.15978" lon="5.3823">
        <ele>235.66</ele>
        <time>2021-07-24T12:51:03Z</time>
      </trkpt>
      <trkpt lat="49.15978" lon="5.3823">
        <ele>235.18</ele>
        <time>2021-07-24T12:52:14Z</time>
      </trkpt>
      <trkpt lat="49.15978" lon="5.3823">
        <ele>235.66</ele>
        <time>2021-07-24T12:53:55Z</time>
      </trkpt>
      <trkpt lat="49.15978" lon="5.3823">
        <ele>234.22</ele>
        <time>2021-07-24T12:54:57Z</time>
      </trkpt>
      <trkpt lat="49.15978" lon="5.3823">
        <ele>232.78</ele>
        <time>2021-07-24T12:55:51Z</time>
      </trkpt>
      <trkpt lat="49.15978" lon="5.3823">
        <ele>233.26</ele>
        <time>2021-07-24T12:57:35Z</time>
      </trkpt>
      <trkpt lat="49.15978" lon="5.3823">
        <ele>233.26</ele>
        <time>2021-07-24T12:59:47Z</time>
      </trkpt>
      <trkpt lat="49.15978" lon="5.3823">
        <ele>233.26</ele>
        <time>2021-07-24T13:02:45Z</time>
      </trkpt>
      <trkpt lat="49.15978" lon="5.3823">
        <ele>233.74</ele>
        <time>2021-07-24T13:04:54Z</time>
      </trkpt>
      <trkpt lat="49.15978" lon="5.3823">
        <ele>233.74</ele>
        <time>2021-07-24T13:06:47Z</time>
      </trkpt>
      <trkpt lat="49.15978" lon="5.3823">
        <ele>234.22</ele>
        <time>2021-07-24T13:08:35Z</time>
      </trkpt>
      <trkpt lat="49.15978" lon="5.3823">
        <ele>234.22</ele>
        <time>2021-07-24T13:09:50Z</time>
      </trkpt>
      <trkpt lat="49.15978" lon="5.3823">
        <ele>234.7</ele>
        <time>2021-07-24T13:11:00Z</time>
      </trkpt>
      <trkpt lat="49.15978" lon="5.3823">
        <ele>234.7</ele>
        <time>2021-07-24T13:11:36Z</time>
      </trkpt>
      <trkpt lat="49.15969" lon="5.38201">
        <ele>235.18</ele>
        <time>2021-07-24T13:11:56Z</time>
      </trkpt>
      <trkpt lat="49.15958" lon="5.38156">
        <ele>235.18</ele>
        <time>2021-07-24T13:12:05Z</time>
      </trkpt>
      <trkpt lat="49.15958" lon="5.38148">
        <ele>235.66</ele>
        <time>2021-07-24T13:12:06Z</time>
      </trkpt>
      <trkpt lat="49.15958" lon="5.38063">
        <ele>236.62</ele>
        <time>2021-07-24T13:12:18Z</time>
      </trkpt>
      <trkpt lat="49.15958" lon="5.38056">
        <ele>237.1</ele>
        <time>2021-07-24T13:12:19Z</time>
      </trkpt>
      <trkpt lat="49.15958" lon="5.38049">
        <ele>236.62</ele>
        <time>2021-07-24T13:12:20Z</time>
      </trkpt>
      <trkpt lat="49.15957" lon="5.38043">
        <ele>237.1</ele>
        <time>2021-07-24T13:12:21Z</time>
      </trkpt>
      <trkpt lat="49.15958" lon="5.38036">
        <ele>237.1</ele>
        <time>2021-07-24T13:12:22Z</time>
      </trkpt>
      <trkpt lat="49.1596" lon="5.3803">
        <ele>237.1</ele>
        <time>2021-07-24T13:12:23Z</time>
      </trkpt>
      <trkpt lat="49.15962" lon="5.38023">
        <ele>237.1</ele>
        <time>2021-07-24T13:12:24Z</time>
      </trkpt>
      <trkpt lat="49.15977" lon="5.37968">
        <ele>239.02</ele>
        <time>2021-07-24T13:12:34Z</time>
      </trkpt>
      <trkpt lat="49.15978" lon="5.37965">
        <ele>239.02</ele>
        <time>2021-07-24T13:12:35Z</time>
      </trkpt>
      <trkpt lat="49.15979" lon="5.37961">
        <ele>239.51</ele>
        <time>2021-07-24T13:12:36Z</time>
      </trkpt>
      <trkpt lat="49.15979" lon="5.37961">
        <ele>240.95</ele>
        <time>2021-07-24T13:12:51Z</time>
      </trkpt>
      <trkpt lat="49.15979" lon="5.37961">
        <ele>240.95</ele>
        <time>2021-07-24T13:13:08Z</time>
      </trkpt>
      <trkpt lat="49.15979" lon="5.37961">
        <ele>241.43</ele>
        <time>2021-07-24T13:13:44Z</time>
      </trkpt>
      <trkpt lat="49.15979" lon="5.37961">
        <ele>241.43</ele>
        <time>2021-07-24T13:13:45Z</time>
      </trkpt>
      <trkpt lat="49.15982" lon="5.37952">
        <ele>241.43</ele>
        <time>2021-07-24T13:13:46Z</time>
      </trkpt>
      <trkpt lat="49.15983" lon="5.37948">
        <ele>241.43</ele>
        <time>2021-07-24T13:13:47Z</time>
      </trkpt>
      <trkpt lat="49.15983" lon="5.37948">
        <ele>241.43</ele>
        <time>2021-07-24T13:13:48Z</time>
      </trkpt>
      <trkpt lat="49.15985" lon="5.3794">
        <ele>241.43</ele>
        <time>2021-07-24T13:13:49Z</time>
      </trkpt>
      <trkpt lat="49.15985" lon="5.3794">
        <ele>241.91</ele>
        <time>2021-07-24T13:13:50Z</time>
      </trkpt>
      <trkpt lat="49.15975" lon="5.37924">
        <ele>239.99</ele>
        <time>2021-07-24T13:14:09Z</time>
      </trkpt>
      <trkpt lat="49.15947" lon="5.37878">
        <ele>237.1</ele>
        <time>2021-07-24T13:14:22Z</time>
      </trkpt>
      <trkpt lat="49.15941" lon="5.37834">
        <ele>235.18</ele>
        <time>2021-07-24T13:14:36Z</time>
      </trkpt>
      <trkpt lat="49.1594" lon="5.37827">
        <ele>234.7</ele>
        <time>2021-07-24T13:14:52Z</time>
      </trkpt>
    </trkseg>
  </trk>
  <trk>
    <name><![CDATA[Journal actif: 2021-07-24 11:15]]></name>
    <trkseg>
      <trkpt lat="49.1594" lon="5.37827">
        <ele>234.7</ele>
        <time>2021-07-24T13:15:52Z</time>
      </trkpt>
      <trkpt lat="49.1594" lon="5.37827">
        <ele>234.22</ele>
        <time>2021-07-24T13:15:58Z</time>
      </trkpt>
      <trkpt lat="49.15939" lon="5.37823">
        <ele>234.22</ele>
        <time>2021-07-24T13:15:59Z</time>
      </trkpt>
      <trkpt lat="49.15934" lon="5.3779">
        <ele>234.22</ele>
        <time>2021-07-24T13:16:12Z</time>
      </trkpt>
      <trkpt lat="49.15934" lon="5.37786">
        <ele>234.22</ele>
        <time>2021-07-24T13:16:14Z</time>
      </trkpt>
      <trkpt lat="49.15933" lon="5.37785">
        <ele>233.74</ele>
        <time>2021-07-24T13:16:15Z</time>
      </trkpt>
      <trkpt lat="49.15933" lon="5.37785">
        <ele>233.74</ele>
        <time>2021-07-24T13:16:16Z</time>
      </trkpt>
      <trkpt lat="49.15933" lon="5.37785">
        <ele>233.74</ele>
        <time>2021-07-24T13:16:17Z</time>
      </trkpt>
      <trkpt lat="49.15933" lon="5.37785">
        <ele>234.22</ele>
        <time>2021-07-24T13:16:18Z</time>
      </trkpt>
      <trkpt lat="49.15933" lon="5.37785">
        <ele>234.22</ele>
        <time>2021-07-24T13:16:19Z</time>
      </trkpt>
      <trkpt lat="49.15933" lon="5.37785">
        <ele>234.22</ele>
        <time>2021-07-24T13:16:20Z</time>
      </trkpt>
      <trkpt lat="49.15933" lon="5.37785">
        <ele>234.22</ele>
        <time>2021-07-24T13:16:22Z</time>
      </trkpt>
      <trkpt lat="49.15949" lon="5.37801">
        <ele>233.74</ele>
        <time>2021-07-24T13:16:35Z</time>
      </trkpt>
      <trkpt lat="49.15989" lon="5.37823">
        <ele>231.81</ele>
        <time>2021-07-24T13:16:49Z</time>
      </trkpt>
      <trkpt lat="49.16063" lon="5.37811">
        <ele>225.09</ele>
        <time>2021-07-24T13:17:06Z</time>
      </trkpt>
      <trkpt lat="49.16112" lon="5.37774">
        <ele>219.32</ele>
        <time>2021-07-24T13:17:20Z</time>
      </trkpt>
      <trkpt lat="49.16152" lon="5.37733">
        <ele>214.99</ele>
        <time>2021-07-24T13:17:31Z</time>
      </trkpt>
      <trkpt lat="49.16179" lon="5.37718">
        <ele>212.59</ele>
        <time>2021-07-24T13:17:37Z</time>
      </trkpt>
      <trkpt lat="49.16184" lon="5.37717">
        <ele>212.11</ele>
        <time>2021-07-24T13:17:38Z</time>
      </trkpt>
      <trkpt lat="49.1619" lon="5.37717">
        <ele>212.11</ele>
        <time>2021-07-24T13:17:39Z</time>
      </trkpt>
      <trkpt lat="49.16195" lon="5.37717">
        <ele>211.63</ele>
        <time>2021-07-24T13:17:40Z</time>
      </trkpt>
      <trkpt lat="49.16198" lon="5.37717">
        <ele>211.63</ele>
        <time>2021-07-24T13:17:41Z</time>
      </trkpt>
      <trkpt lat="49.16202" lon="5.37721">
        <ele>211.63</ele>
        <time>2021-07-24T13:17:42Z</time>
      </trkpt>
      <trkpt lat="49.16205" lon="5.37724">
        <ele>211.15</ele>
        <time>2021-07-24T13:17:43Z</time>
      </trkpt>
      <trkpt lat="49.16208" lon="5.37727">
        <ele>210.67</ele>
        <time>2021-07-24T13:17:44Z</time>
      </trkpt>
      <trkpt lat="49.16215" lon="5.37734">
        <ele>210.67</ele>
        <time>2021-07-24T13:17:45Z</time>
      </trkpt>
      <trkpt lat="49.16215" lon="5.37734">
        <ele>210.67</ele>
        <time>2021-07-24T13:17:46Z</time>
      </trkpt>
      <trkpt lat="49.1625" lon="5.37793">
        <ele>211.15</ele>
        <time>2021-07-24T13:17:57Z</time>
      </trkpt>
      <trkpt lat="49.16262" lon="5.37788">
        <ele>210.67</ele>
        <time>2021-07-24T13:18:06Z</time>
      </trkpt>
      <trkpt lat="49.16294" lon="5.37743">
        <ele>208.74</ele>
        <time>2021-07-24T13:18:16Z</time>
      </trkpt>
      <trkpt lat="49.16297" lon="5.37738">
        <ele>208.26</ele>
        <time>2021-07-24T13:18:17Z</time>
      </trkpt>
      <trkpt lat="49.163" lon="5.37735">
        <ele>208.26</ele>
        <time>2021-07-24T13:18:18Z</time>
      </trkpt>
      <trkpt lat="49.16302" lon="5.37732">
        <ele>207.78</ele>
        <time>2021-07-24T13:18:27Z</time>
      </trkpt>
      <trkpt lat="49.16302" lon="5.37732">
        <ele>207.78</ele>
        <time>2021-07-24T13:18:43Z</time>
      </trkpt>
      <trkpt lat="49.1631" lon="5.37732">
        <ele>207.78</ele>
        <time>2021-07-24T13:18:44Z</time>
      </trkpt>
      <trkpt lat="49.16311" lon="5.37735">
        <ele>207.3</ele>
        <time>2021-07-24T13:18:45Z</time>
      </trkpt>
      <trkpt lat="49.16313" lon="5.3774">
        <ele>207.3</ele>
        <time>2021-07-24T13:18:46Z</time>
      </trkpt>
      <trkpt lat="49.16315" lon="5.37746">
        <ele>207.3</ele>
        <time>2021-07-24T13:18:47Z</time>
      </trkpt>
      <trkpt lat="49.16356" lon="5.37834">
        <ele>207.3</ele>
        <time>2021-07-24T13:18:57Z</time>
      </trkpt>
      <trkpt lat="49.16415" lon="5.3793">
        <ele>206.34</ele>
        <time>2021-07-24T13:19:08Z</time>
      </trkpt>
      <trkpt lat="49.16422" lon="5.37944">
        <ele>206.34</ele>
        <time>2021-07-24T13:19:10Z</time>
      </trkpt>
      <trkpt lat="49.16425" lon="5.37964">
        <ele>206.82</ele>
        <time>2021-07-24T13:19:11Z</time>
      </trkpt>
      <trkpt lat="49.16425" lon="5.37964">
        <ele>206.34</ele>
        <time>2021-07-24T13:19:12Z</time>
      </trkpt>
      <trkpt lat="49.16429" lon="5.37967">
        <ele>205.86</ele>
        <time>2021-07-24T13:19:13Z</time>
      </trkpt>
      <trkpt lat="49.16442" lon="5.37977">
        <ele>206.34</ele>
        <time>2021-07-24T13:19:14Z</time>
      </trkpt>
      <trkpt lat="49.16442" lon="5.37977">
        <ele>206.34</ele>
        <time>2021-07-24T13:19:15Z</time>
      </trkpt>
      <trkpt lat="49.16447" lon="5.37985">
        <ele>206.34</ele>
        <time>2021-07-24T13:19:16Z</time>
      </trkpt>
      <trkpt lat="49.16452" lon="5.37992">
        <ele>205.38</ele>
        <time>2021-07-24T13:19:17Z</time>
      </trkpt>
      <trkpt lat="49.16506" lon="5.38121">
        <ele>201.53</ele>
        <time>2021-07-24T13:19:32Z</time>
      </trkpt>
      <trkpt lat="49.16513" lon="5.38145">
        <ele>201.53</ele>
        <time>2021-07-24T13:19:36Z</time>
      </trkpt>
      <trkpt lat="49.16512" lon="5.38159">
        <ele>201.53</ele>
        <time>2021-07-24T13:19:37Z</time>
      </trkpt>
      <trkpt lat="49.16511" lon="5.38163">
        <ele>201.53</ele>
        <time>2021-07-24T13:19:38Z</time>
      </trkpt>
      <trkpt lat="49.16516" lon="5.38181">
        <ele>201.53</ele>
        <time>2021-07-24T13:19:39Z</time>
      </trkpt>
      <trkpt lat="49.16513" lon="5.38189">
        <ele>201.53</ele>
        <time>2021-07-24T13:19:40Z</time>
      </trkpt>
      <trkpt lat="49.1648" lon="5.38324">
        <ele>201.53</ele>
        <time>2021-07-24T13:19:54Z</time>
      </trkpt>
      <trkpt lat="49.16473" lon="5.38357">
        <ele>201.53</ele>
        <time>2021-07-24T13:20:00Z</time>
      </trkpt>
      <trkpt lat="49.1646" lon="5.38419">
        <ele>200.57</ele>
        <time>2021-07-24T13:20:10Z</time>
      </trkpt>
      <trkpt lat="49.16422" lon="5.38429">
        <ele>201.53</ele>
        <time>2021-07-24T13:20:21Z</time>
      </trkpt>
      <trkpt lat="49.16414" lon="5.38432">
        <ele>201.53</ele>
        <time>2021-07-24T13:20:22Z</time>
      </trkpt>
      <trkpt lat="49.16404" lon="5.38436">
        <ele>201.53</ele>
        <time>2021-07-24T13:20:25Z</time>
      </trkpt>
      <trkpt lat="49.16398" lon="5.38437">
        <ele>201.53</ele>
        <time>2021-07-24T13:20:26Z</time>
      </trkpt>
      <trkpt lat="49.16392" lon="5.38437">
        <ele>201.53</ele>
        <time>2021-07-24T13:20:27Z</time>
      </trkpt>
      <trkpt lat="49.16312" lon="5.38439">
        <ele>200.09</ele>
        <time>2021-07-24T13:20:39Z</time>
      </trkpt>
      <trkpt lat="49.16306" lon="5.38439">
        <ele>199.61</ele>
        <time>2021-07-24T13:20:40Z</time>
      </trkpt>
      <trkpt lat="49.16233" lon="5.38457">
        <ele>198.65</ele>
        <time>2021-07-24T13:20:52Z</time>
      </trkpt>
      <trkpt lat="49.16211" lon="5.38459">
        <ele>198.17</ele>
        <time>2021-07-24T13:20:59Z</time>
      </trkpt>
      <trkpt lat="49.16206" lon="5.3846">
        <ele>198.65</ele>
        <time>2021-07-24T13:21:00Z</time>
      </trkpt>
      <trkpt lat="49.162" lon="5.38461">
        <ele>198.65</ele>
        <time>2021-07-24T13:21:01Z</time>
      </trkpt>
      <trkpt lat="49.16132" lon="5.38459">
        <ele>199.13</ele>
        <time>2021-07-24T13:21:14Z</time>
      </trkpt>
      <trkpt lat="49.16047" lon="5.38457">
        <ele>199.61</ele>
        <time>2021-07-24T13:21:29Z</time>
      </trkpt>
      <trkpt lat="49.15996" lon="5.38447">
        <ele>201.05</ele>
        <time>2021-07-24T13:21:40Z</time>
      </trkpt>
      <trkpt lat="49.15987" lon="5.38447">
        <ele>201.05</ele>
        <time>2021-07-24T13:21:42Z</time>
      </trkpt>
      <trkpt lat="49.15981" lon="5.3845">
        <ele>201.53</ele>
        <time>2021-07-24T13:21:43Z</time>
      </trkpt>
      <trkpt lat="49.15977" lon="5.38455">
        <ele>201.53</ele>
        <time>2021-07-24T13:21:44Z</time>
      </trkpt>
      <trkpt lat="49.15942" lon="5.38539">
        <ele>202.01</ele>
        <time>2021-07-24T13:21:57Z</time>
      </trkpt>
      <trkpt lat="49.15931" lon="5.38589">
        <ele>202.49</ele>
        <time>2021-07-24T13:22:07Z</time>
      </trkpt>
      <trkpt lat="49.15931" lon="5.38592">
        <ele>202.49</ele>
        <time>2021-07-24T13:22:08Z</time>
      </trkpt>
      <trkpt lat="49.15926" lon="5.38599">
        <ele>202.98</ele>
        <time>2021-07-24T13:22:09Z</time>
      </trkpt>
      <trkpt lat="49.15926" lon="5.38599">
        <ele>202.98</ele>
        <time>2021-07-24T13:22:10Z</time>
      </trkpt>
      <trkpt lat="49.15923" lon="5.386">
        <ele>203.46</ele>
        <time>2021-07-24T13:22:11Z</time>
      </trkpt>
      <trkpt lat="49.1589" lon="5.38632">
        <ele>201.53</ele>
        <time>2021-07-24T13:22:21Z</time>
      </trkpt>
      <trkpt lat="49.15856" lon="5.38683">
        <ele>200.57</ele>
        <time>2021-07-24T13:22:33Z</time>
      </trkpt>
      <trkpt lat="49.15852" lon="5.38688">
        <ele>200.57</ele>
        <time>2021-07-24T13:22:34Z</time>
      </trkpt>
      <trkpt lat="49.15849" lon="5.38685">
        <ele>200.57</ele>
        <time>2021-07-24T13:22:35Z</time>
      </trkpt>
      <trkpt lat="49.15846" lon="5.3868">
        <ele>200.57</ele>
        <time>2021-07-24T13:22:36Z</time>
      </trkpt>
      <trkpt lat="49.15842" lon="5.38675">
        <ele>201.05</ele>
        <time>2021-07-24T13:22:37Z</time>
      </trkpt>
      <trkpt lat="49.15839" lon="5.3867">
        <ele>201.05</ele>
        <time>2021-07-24T13:22:38Z</time>
      </trkpt>
      <trkpt lat="49.15817" lon="5.38641">
        <ele>202.01</ele>
        <time>2021-07-24T13:22:43Z</time>
      </trkpt>
      <trkpt lat="49.15814" lon="5.38636">
        <ele>202.01</ele>
        <time>2021-07-24T13:22:44Z</time>
      </trkpt>
      <trkpt lat="49.1577" lon="5.38533">
        <ele>201.53</ele>
        <time>2021-07-24T13:22:59Z</time>
      </trkpt>
      <trkpt lat="49.15758" lon="5.38492">
        <ele>201.53</ele>
        <time>2021-07-24T13:23:05Z</time>
      </trkpt>
      <trkpt lat="49.15758" lon="5.38492">
        <ele>202.01</ele>
        <time>2021-07-24T13:23:06Z</time>
      </trkpt>
      <trkpt lat="49.15764" lon="5.3848">
        <ele>202.01</ele>
        <time>2021-07-24T13:23:07Z</time>
      </trkpt>
      <trkpt lat="49.15769" lon="5.38477">
        <ele>202.49</ele>
        <time>2021-07-24T13:23:08Z</time>
      </trkpt>
      <trkpt lat="49.15774" lon="5.38474">
        <ele>202.49</ele>
        <time>2021-07-24T13:23:09Z</time>
      </trkpt>
      <trkpt lat="49.15779" lon="5.38471">
        <ele>202.98</ele>
        <time>2021-07-24T13:23:10Z</time>
      </trkpt>
      <trkpt lat="49.15804" lon="5.38455">
        <ele>205.38</ele>
        <time>2021-07-24T13:23:16Z</time>
      </trkpt>
      <trkpt lat="49.15804" lon="5.38455">
        <ele>205.86</ele>
        <time>2021-07-24T13:23:17Z</time>
      </trkpt>
      <trkpt lat="49.15804" lon="5.38454">
        <ele>205.86</ele>
        <time>2021-07-24T13:23:18Z</time>
      </trkpt>
      <trkpt lat="49.15803" lon="5.38449">
        <ele>206.34</ele>
        <time>2021-07-24T13:23:19Z</time>
      </trkpt>
      <trkpt lat="49.15801" lon="5.38443">
        <ele>206.34</ele>
        <time>2021-07-24T13:23:20Z</time>
      </trkpt>
      <trkpt lat="49.15766" lon="5.38331">
        <ele>209.7</ele>
        <time>2021-07-24T13:23:34Z</time>
      </trkpt>
      <trkpt lat="49.15728" lon="5.38213">
        <ele>208.26</ele>
        <time>2021-07-24T13:23:46Z</time>
      </trkpt>
      <trkpt lat="49.15661" lon="5.38011">
        <ele>204.9</ele>
        <time>2021-07-24T13:24:05Z</time>
      </trkpt>
      <trkpt lat="49.1566" lon="5.37981">
        <ele>204.42</ele>
        <time>2021-07-24T13:24:12Z</time>
      </trkpt>
      <trkpt lat="49.15664" lon="5.37979">
        <ele>204.9</ele>
        <time>2021-07-24T13:24:13Z</time>
      </trkpt>
      <trkpt lat="49.15669" lon="5.37977">
        <ele>205.38</ele>
        <time>2021-07-24T13:24:14Z</time>
      </trkpt>
      <trkpt lat="49.15734" lon="5.37946">
        <ele>208.26</ele>
        <time>2021-07-24T13:24:26Z</time>
      </trkpt>
    </trkseg>
  </trk>
  <trk>
    <name><![CDATA[Journal actif: 2021-07-24 11:32]]></name>
    <trkseg>
      <trkpt lat="49.15483" lon="5.38046">
        <ele>202.49</ele>
        <time>2021-07-24T13:32:27Z</time>
      </trkpt>
      <trkpt lat="49.15485" lon="5.38081">
        <ele>202.98</ele>
        <time>2021-07-24T13:32:40Z</time>
      </trkpt>
      <trkpt lat="49.15516" lon="5.38159">
        <ele>202.98</ele>
        <time>2021-07-24T13:32:54Z</time>
      </trkpt>
      <trkpt lat="49.15518" lon="5.38161">
        <ele>202.98</ele>
        <time>2021-07-24T13:32:55Z</time>
      </trkpt>
      <trkpt lat="49.15519" lon="5.38162">
        <ele>202.98</ele>
        <time>2021-07-24T13:32:56Z</time>
      </trkpt>
      <trkpt lat="49.15524" lon="5.38167">
        <ele>202.98</ele>
        <time>2021-07-24T13:32:57Z</time>
      </trkpt>
      <trkpt lat="49.15519" lon="5.38162">
        <ele>202.98</ele>
        <time>2021-07-24T13:32:58Z</time>
      </trkpt>
      <trkpt lat="49.15518" lon="5.38161">
        <ele>202.98</ele>
        <time>2021-07-24T13:32:59Z</time>
      </trkpt>
      <trkpt lat="49.15516" lon="5.38158">
        <ele>202.98</ele>
        <time>2021-07-24T13:33:00Z</time>
      </trkpt>
      <trkpt lat="49.15507" lon="5.38067">
        <ele>201.53</ele>
        <time>2021-07-24T13:33:11Z</time>
      </trkpt>
      <trkpt lat="49.15503" lon="5.38051">
        <ele>201.53</ele>
        <time>2021-07-24T13:33:14Z</time>
      </trkpt>
      <trkpt lat="49.15483" lon="5.38044">
        <ele>202.01</ele>
        <time>2021-07-24T13:33:19Z</time>
      </trkpt>
      <trkpt lat="49.15483" lon="5.38045">
        <ele>201.05</ele>
        <time>2021-07-24T13:33:22Z</time>
      </trkpt>
      <trkpt lat="49.15484" lon="5.38038">
        <ele>201.05</ele>
        <time>2021-07-24T13:33:23Z</time>
      </trkpt>
      <trkpt lat="49.15485" lon="5.38029">
        <ele>200.57</ele>
        <time>2021-07-24T13:33:24Z</time>
      </trkpt>
      <trkpt lat="49.15485" lon="5.38025">
        <ele>200.57</ele>
        <time>2021-07-24T13:33:25Z</time>
      </trkpt>
      <trkpt lat="49.15487" lon="5.38011">
        <ele>199.61</ele>
        <time>2021-07-24T13:33:33Z</time>
      </trkpt>
      <trkpt lat="49.15489" lon="5.38005">
        <ele>199.13</ele>
        <time>2021-07-24T13:33:34Z</time>
      </trkpt>
      <trkpt lat="49.15497" lon="5.38001">
        <ele>198.65</ele>
        <time>2021-07-24T13:33:36Z</time>
      </trkpt>
      <trkpt lat="49.15556" lon="5.37972">
        <ele>197.69</ele>
        <time>2021-07-24T13:33:46Z</time>
      </trkpt>
      <trkpt lat="49.15607" lon="5.37954">
        <ele>197.69</ele>
        <time>2021-07-24T13:33:52Z</time>
      </trkpt>
      <trkpt lat="49.15607" lon="5.37954">
        <ele>198.17</ele>
        <time>2021-07-24T13:33:53Z</time>
      </trkpt>
      <trkpt lat="49.15613" lon="5.37955">
        <ele>198.17</ele>
        <time>2021-07-24T13:33:54Z</time>
      </trkpt>
      <trkpt lat="49.15619" lon="5.37956">
        <ele>198.17</ele>
        <time>2021-07-24T13:33:55Z</time>
      </trkpt>
      <trkpt lat="49.15625" lon="5.37957">
        <ele>198.17</ele>
        <time>2021-07-24T13:33:56Z</time>
      </trkpt>
      <trkpt lat="49.1563" lon="5.37962">
        <ele>197.69</ele>
        <time>2021-07-24T13:33:57Z</time>
      </trkpt>
      <trkpt lat="49.15636" lon="5.37966">
        <ele>197.69</ele>
        <time>2021-07-24T13:33:58Z</time>
      </trkpt>
      <trkpt lat="49.15642" lon="5.37971">
        <ele>197.69</ele>
        <time>2021-07-24T13:33:59Z</time>
      </trkpt>
      <trkpt lat="49.15648" lon="5.37978">
        <ele>197.69</ele>
        <time>2021-07-24T13:34:00Z</time>
      </trkpt>
      <trkpt lat="49.15653" lon="5.37987">
        <ele>197.69</ele>
        <time>2021-07-24T13:34:01Z</time>
      </trkpt>
      <trkpt lat="49.15656" lon="5.37997">
        <ele>197.69</ele>
        <time>2021-07-24T13:34:02Z</time>
      </trkpt>
      <trkpt lat="49.1566" lon="5.38008">
        <ele>197.69</ele>
        <time>2021-07-24T13:34:03Z</time>
      </trkpt>
      <trkpt lat="49.15663" lon="5.38019">
        <ele>197.69</ele>
        <time>2021-07-24T13:34:04Z</time>
      </trkpt>
      <trkpt lat="49.15691" lon="5.38107">
        <ele>197.21</ele>
        <time>2021-07-24T13:34:13Z</time>
      </trkpt>
      <trkpt lat="49.15691" lon="5.38107">
        <ele>197.21</ele>
        <time>2021-07-24T13:34:14Z</time>
      </trkpt>
      <trkpt lat="49.15693" lon="5.38114">
        <ele>196.73</ele>
        <time>2021-07-24T13:34:15Z</time>
      </trkpt>
      <trkpt lat="49.15695" lon="5.38119">
        <ele>196.73</ele>
        <time>2021-07-24T13:34:16Z</time>
      </trkpt>
      <trkpt lat="49.15689" lon="5.38126">
        <ele>196.25</ele>
        <time>2021-07-24T13:34:17Z</time>
      </trkpt>
      <trkpt lat="49.15689" lon="5.38126">
        <ele>195.77</ele>
        <time>2021-07-24T13:34:18Z</time>
      </trkpt>
      <trkpt lat="49.15685" lon="5.3813">
        <ele>195.28</ele>
        <time>2021-07-24T13:34:19Z</time>
      </trkpt>
      <trkpt lat="49.15664" lon="5.38163">
        <ele>193.84</ele>
        <time>2021-07-24T13:34:24Z</time>
      </trkpt>
      <trkpt lat="49.15664" lon="5.38163">
        <ele>193.36</ele>
        <time>2021-07-24T13:34:25Z</time>
      </trkpt>
      <trkpt lat="49.15661" lon="5.38169">
        <ele>193.36</ele>
        <time>2021-07-24T13:34:26Z</time>
      </trkpt>
      <trkpt lat="49.15659" lon="5.38174">
        <ele>192.88</ele>
        <time>2021-07-24T13:34:27Z</time>
      </trkpt>
      <trkpt lat="49.15657" lon="5.38181">
        <ele>193.84</ele>
        <time>2021-07-24T13:34:28Z</time>
      </trkpt>
      <trkpt lat="49.1566" lon="5.38186">
        <ele>194.32</ele>
        <time>2021-07-24T13:34:29Z</time>
      </trkpt>
      <trkpt lat="49.15662" lon="5.38192">
        <ele>194.32</ele>
        <time>2021-07-24T13:34:30Z</time>
      </trkpt>
      <trkpt lat="49.15697" lon="5.38307">
        <ele>196.73</ele>
        <time>2021-07-24T13:34:43Z</time>
      </trkpt>
      <trkpt lat="49.15741" lon="5.38442">
        <ele>197.69</ele>
        <time>2021-07-24T13:35:00Z</time>
      </trkpt>
      <trkpt lat="49.15773" lon="5.38542">
        <ele>197.69</ele>
        <time>2021-07-24T13:35:13Z</time>
      </trkpt>
      <trkpt lat="49.15804" lon="5.3862">
        <ele>199.13</ele>
        <time>2021-07-24T13:35:24Z</time>
      </trkpt>
      <trkpt lat="49.15811" lon="5.38633">
        <ele>199.13</ele>
        <time>2021-07-24T13:35:27Z</time>
      </trkpt>
      <trkpt lat="49.15808" lon="5.38639">
        <ele>198.65</ele>
        <time>2021-07-24T13:35:28Z</time>
      </trkpt>
      <trkpt lat="49.15806" lon="5.38644">
        <ele>198.65</ele>
        <time>2021-07-24T13:35:29Z</time>
      </trkpt>
      <trkpt lat="49.15802" lon="5.38654">
        <ele>198.65</ele>
        <time>2021-07-24T13:35:30Z</time>
      </trkpt>
      <trkpt lat="49.158" lon="5.38659">
        <ele>198.65</ele>
        <time>2021-07-24T13:35:31Z</time>
      </trkpt>
      <trkpt lat="49.158" lon="5.38659">
        <ele>198.17</ele>
        <time>2021-07-24T13:35:32Z</time>
      </trkpt>
      <trkpt lat="49.15769" lon="5.3873">
        <ele>197.69</ele>
        <time>2021-07-24T13:35:44Z</time>
      </trkpt>
      <trkpt lat="49.15771" lon="5.38738">
        <ele>197.69</ele>
        <time>2021-07-24T13:35:45Z</time>
      </trkpt>
      <trkpt lat="49.15773" lon="5.38743">
        <ele>197.21</ele>
        <time>2021-07-24T13:35:46Z</time>
      </trkpt>
      <trkpt lat="49.15775" lon="5.3875">
        <ele>197.21</ele>
        <time>2021-07-24T13:35:47Z</time>
      </trkpt>
      <trkpt lat="49.15788" lon="5.38783">
        <ele>199.13</ele>
        <time>2021-07-24T13:35:55Z</time>
      </trkpt>
      <trkpt lat="49.1579" lon="5.3879">
        <ele>199.61</ele>
        <time>2021-07-24T13:36:13Z</time>
      </trkpt>
      <trkpt lat="49.15792" lon="5.38794">
        <ele>199.61</ele>
        <time>2021-07-24T13:36:14Z</time>
      </trkpt>
      <trkpt lat="49.15794" lon="5.3879">
        <ele>199.13</ele>
        <time>2021-07-24T13:36:15Z</time>
      </trkpt>
      <trkpt lat="49.15832" lon="5.38725">
        <ele>199.13</ele>
        <time>2021-07-24T13:36:28Z</time>
      </trkpt>
      <trkpt lat="49.15849" lon="5.38694">
        <ele>199.61</ele>
        <time>2021-07-24T13:36:38Z</time>
      </trkpt>
      <trkpt lat="49.15853" lon="5.38686">
        <ele>200.57</ele>
        <time>2021-07-24T13:36:40Z</time>
      </trkpt>
      <trkpt lat="49.15903" lon="5.38614">
        <ele>199.13</ele>
        <time>2021-07-24T13:36:52Z</time>
      </trkpt>
      <trkpt lat="49.15924" lon="5.386">
        <ele>198.17</ele>
        <time>2021-07-24T13:37:00Z</time>
      </trkpt>
      <trkpt lat="49.1593" lon="5.386">
        <ele>197.69</ele>
        <time>2021-07-24T13:37:01Z</time>
      </trkpt>
      <trkpt lat="49.15933" lon="5.38605">
        <ele>197.69</ele>
        <time>2021-07-24T13:37:02Z</time>
      </trkpt>
      <trkpt lat="49.15936" lon="5.38612">
        <ele>197.69</ele>
        <time>2021-07-24T13:37:03Z</time>
      </trkpt>
      <trkpt lat="49.15938" lon="5.3862">
        <ele>197.21</ele>
        <time>2021-07-24T13:37:04Z</time>
      </trkpt>
      <trkpt lat="49.15939" lon="5.38628">
        <ele>197.21</ele>
        <time>2021-07-24T13:37:05Z</time>
      </trkpt>
      <trkpt lat="49.15941" lon="5.38634">
        <ele>196.73</ele>
        <time>2021-07-24T13:37:06Z</time>
      </trkpt>
      <trkpt lat="49.15944" lon="5.38641">
        <ele>196.73</ele>
        <time>2021-07-24T13:37:07Z</time>
      </trkpt>
      <trkpt lat="49.16003" lon="5.38763">
        <ele>195.77</ele>
        <time>2021-07-24T13:37:22Z</time>
      </trkpt>
      <trkpt lat="49.16054" lon="5.38864">
        <ele>198.17</ele>
        <time>2021-07-24T13:37:34Z</time>
      </trkpt>
      <trkpt lat="49.16066" lon="5.38883">
        <ele>198.65</ele>
        <time>2021-07-24T13:37:39Z</time>
      </trkpt>
      <trkpt lat="49.16069" lon="5.38889">
        <ele>198.65</ele>
        <time>2021-07-24T13:37:40Z</time>
      </trkpt>
      <trkpt lat="49.16127" lon="5.38998">
        <ele>198.17</ele>
        <time>2021-07-24T13:37:56Z</time>
      </trkpt>
      <trkpt lat="49.16131" lon="5.39004">
        <ele>198.17</ele>
        <time>2021-07-24T13:37:57Z</time>
      </trkpt>
      <trkpt lat="49.16139" lon="5.39015">
        <ele>198.17</ele>
        <time>2021-07-24T13:37:58Z</time>
      </trkpt>
      <trkpt lat="49.16199" lon="5.3906">
        <ele>198.17</ele>
        <time>2021-07-24T13:38:08Z</time>
      </trkpt>
      <trkpt lat="49.16206" lon="5.39064">
        <ele>198.17</ele>
        <time>2021-07-24T13:38:09Z</time>
      </trkpt>
      <trkpt lat="49.16213" lon="5.39067">
        <ele>198.17</ele>
        <time>2021-07-24T13:38:10Z</time>
      </trkpt>
      <trkpt lat="49.16245" lon="5.39085">
        <ele>196.73</ele>
        <time>2021-07-24T13:38:20Z</time>
      </trkpt>
      <trkpt lat="49.1625" lon="5.39092">
        <ele>196.25</ele>
        <time>2021-07-24T13:38:22Z</time>
      </trkpt>
      <trkpt lat="49.16251" lon="5.39096">
        <ele>196.25</ele>
        <time>2021-07-24T13:38:23Z</time>
      </trkpt>
      <trkpt lat="49.16253" lon="5.39106">
        <ele>196.25</ele>
        <time>2021-07-24T13:38:24Z</time>
      </trkpt>
      <trkpt lat="49.16253" lon="5.39106">
        <ele>196.25</ele>
        <time>2021-07-24T13:38:25Z</time>
      </trkpt>
      <trkpt lat="49.16254" lon="5.39111">
        <ele>197.69</ele>
        <time>2021-07-24T13:38:26Z</time>
      </trkpt>
      <trkpt lat="49.16276" lon="5.39197">
        <ele>199.61</ele>
        <time>2021-07-24T13:38:38Z</time>
      </trkpt>
      <trkpt lat="49.16321" lon="5.39336">
        <ele>200.09</ele>
        <time>2021-07-24T13:38:52Z</time>
      </trkpt>
      <trkpt lat="49.16346" lon="5.39404">
        <ele>200.57</ele>
        <time>2021-07-24T13:39:04Z</time>
      </trkpt>
      <trkpt lat="49.16381" lon="5.39523">
        <ele>200.57</ele>
        <time>2021-07-24T13:39:18Z</time>
      </trkpt>
      <trkpt lat="49.16389" lon="5.39669">
        <ele>200.57</ele>
        <time>2021-07-24T13:39:31Z</time>
      </trkpt>
      <trkpt lat="49.1639" lon="5.39705">
        <ele>200.57</ele>
        <time>2021-07-24T13:39:35Z</time>
      </trkpt>
      <trkpt lat="49.16392" lon="5.39791">
        <ele>200.57</ele>
        <time>2021-07-24T13:39:47Z</time>
      </trkpt>
      <trkpt lat="49.16398" lon="5.39986">
        <ele>200.57</ele>
        <time>2021-07-24T13:40:02Z</time>
      </trkpt>
      <trkpt lat="49.16407" lon="5.40313">
        <ele>202.98</ele>
        <time>2021-07-24T13:40:22Z</time>
      </trkpt>
      <trkpt lat="49.1641" lon="5.4042">
        <ele>204.42</ele>
        <time>2021-07-24T13:40:30Z</time>
      </trkpt>
      <trkpt lat="49.1641" lon="5.40439">
        <ele>204.9</ele>
        <time>2021-07-24T13:40:33Z</time>
      </trkpt>
      <trkpt lat="49.1641" lon="5.40446">
        <ele>204.9</ele>
        <time>2021-07-24T13:40:34Z</time>
      </trkpt>
      <trkpt lat="49.16412" lon="5.40525">
        <ele>206.34</ele>
        <time>2021-07-24T13:40:46Z</time>
      </trkpt>
      <trkpt lat="49.16418" lon="5.40532">
        <ele>206.82</ele>
        <time>2021-07-24T13:40:47Z</time>
      </trkpt>
      <trkpt lat="49.16418" lon="5.40532">
        <ele>206.82</ele>
        <time>2021-07-24T13:40:48Z</time>
      </trkpt>
      <trkpt lat="49.16421" lon="5.40537">
        <ele>207.3</ele>
        <time>2021-07-24T13:40:49Z</time>
      </trkpt>
      <trkpt lat="49.16487" lon="5.40597">
        <ele>208.74</ele>
        <time>2021-07-24T13:41:02Z</time>
      </trkpt>
      <trkpt lat="49.16547" lon="5.40631">
        <ele>210.67</ele>
        <time>2021-07-24T13:41:10Z</time>
      </trkpt>
      <trkpt lat="49.16553" lon="5.40636">
        <ele>211.15</ele>
        <time>2021-07-24T13:41:11Z</time>
      </trkpt>
      <trkpt lat="49.16558" lon="5.40641">
        <ele>211.63</ele>
        <time>2021-07-24T13:41:12Z</time>
      </trkpt>
      <trkpt lat="49.16566" lon="5.40651">
        <ele>211.63</ele>
        <time>2021-07-24T13:41:13Z</time>
      </trkpt>
      <trkpt lat="49.16566" lon="5.40651">
        <ele>212.11</ele>
        <time>2021-07-24T13:41:14Z</time>
      </trkpt>
      <trkpt lat="49.16568" lon="5.40656">
        <ele>212.11</ele>
        <time>2021-07-24T13:41:15Z</time>
      </trkpt>
      <trkpt lat="49.16569" lon="5.40659">
        <ele>213.07</ele>
        <time>2021-07-24T13:41:25Z</time>
      </trkpt>
      <trkpt lat="49.16572" lon="5.40666">
        <ele>213.07</ele>
        <time>2021-07-24T13:41:26Z</time>
      </trkpt>
      <trkpt lat="49.16573" lon="5.4067">
        <ele>213.55</ele>
        <time>2021-07-24T13:41:27Z</time>
      </trkpt>
      <trkpt lat="49.16571" lon="5.40709">
        <ele>214.99</ele>
        <time>2021-07-24T13:41:32Z</time>
      </trkpt>
      <trkpt lat="49.1657" lon="5.40719">
        <ele>215.47</ele>
        <time>2021-07-24T13:41:33Z</time>
      </trkpt>
      <trkpt lat="49.16557" lon="5.40856">
        <ele>219.8</ele>
        <time>2021-07-24T13:41:42Z</time>
      </trkpt>
      <trkpt lat="49.16581" lon="5.40991">
        <ele>224.61</ele>
        <time>2021-07-24T13:41:49Z</time>
      </trkpt>
      <trkpt lat="49.16665" lon="5.41193">
        <ele>236.62</ele>
        <time>2021-07-24T13:42:01Z</time>
      </trkpt>
      <trkpt lat="49.16707" lon="5.41305">
        <ele>239.51</ele>
        <time>2021-07-24T13:42:07Z</time>
      </trkpt>
      <trkpt lat="49.16707" lon="5.41305">
        <ele>238.06</ele>
        <time>2021-07-24T13:42:08Z</time>
      </trkpt>
      <trkpt lat="49.1671" lon="5.41322">
        <ele>237.1</ele>
        <time>2021-07-24T13:42:09Z</time>
      </trkpt>
      <trkpt lat="49.16708" lon="5.41341">
        <ele>238.06</ele>
        <time>2021-07-24T13:42:10Z</time>
      </trkpt>
      <trkpt lat="49.16706" lon="5.41357">
        <ele>238.06</ele>
        <time>2021-07-24T13:42:11Z</time>
      </trkpt>
      <trkpt lat="49.16703" lon="5.41374">
        <ele>239.02</ele>
        <time>2021-07-24T13:42:12Z</time>
      </trkpt>
      <trkpt lat="49.167" lon="5.41392">
        <ele>239.51</ele>
        <time>2021-07-24T13:42:13Z</time>
      </trkpt>
      <trkpt lat="49.16683" lon="5.41481">
        <ele>243.83</ele>
        <time>2021-07-24T13:42:18Z</time>
      </trkpt>
      <trkpt lat="49.16682" lon="5.41496">
        <ele>243.83</ele>
        <time>2021-07-24T13:42:19Z</time>
      </trkpt>
      <trkpt lat="49.1668" lon="5.41512">
        <ele>243.83</ele>
        <time>2021-07-24T13:42:20Z</time>
      </trkpt>
      <trkpt lat="49.16689" lon="5.41541">
        <ele>243.83</ele>
        <time>2021-07-24T13:42:21Z</time>
      </trkpt>
      <trkpt lat="49.16689" lon="5.41541">
        <ele>245.27</ele>
        <time>2021-07-24T13:42:22Z</time>
      </trkpt>
      <trkpt lat="49.16692" lon="5.41551">
        <ele>247.68</ele>
        <time>2021-07-24T13:42:23Z</time>
      </trkpt>
      <trkpt lat="49.16696" lon="5.41559">
        <ele>248.64</ele>
        <time>2021-07-24T13:42:24Z</time>
      </trkpt>
      <trkpt lat="49.1671" lon="5.41577">
        <ele>249.12</ele>
        <time>2021-07-24T13:42:25Z</time>
      </trkpt>
      <trkpt lat="49.1671" lon="5.41577">
        <ele>249.12</ele>
        <time>2021-07-24T13:42:26Z</time>
      </trkpt>
      <trkpt lat="49.16718" lon="5.41581">
        <ele>249.12</ele>
        <time>2021-07-24T13:42:27Z</time>
      </trkpt>
      <trkpt lat="49.16741" lon="5.41599">
        <ele>249.6</ele>
        <time>2021-07-24T13:42:30Z</time>
      </trkpt>
      <trkpt lat="49.16748" lon="5.41605">
        <ele>249.6</ele>
        <time>2021-07-24T13:42:31Z</time>
      </trkpt>
      <trkpt lat="49.16754" lon="5.4161">
        <ele>250.08</ele>
        <time>2021-07-24T13:42:32Z</time>
      </trkpt>
      <trkpt lat="49.16759" lon="5.41621">
        <ele>252</ele>
        <time>2021-07-24T13:42:33Z</time>
      </trkpt>
      <trkpt lat="49.16768" lon="5.41646">
        <ele>252.48</ele>
        <time>2021-07-24T13:42:34Z</time>
      </trkpt>
      <trkpt lat="49.16768" lon="5.41646">
        <ele>252</ele>
        <time>2021-07-24T13:42:35Z</time>
      </trkpt>
      <trkpt lat="49.16769" lon="5.41662">
        <ele>251.04</ele>
        <time>2021-07-24T13:42:36Z</time>
      </trkpt>
      <trkpt lat="49.1677" lon="5.4168">
        <ele>251.04</ele>
        <time>2021-07-24T13:42:37Z</time>
      </trkpt>
      <trkpt lat="49.16783" lon="5.41882">
        <ele>253.93</ele>
        <time>2021-07-24T13:42:48Z</time>
      </trkpt>
      <trkpt lat="49.16787" lon="5.419">
        <ele>255.37</ele>
        <time>2021-07-24T13:42:49Z</time>
      </trkpt>
      <trkpt lat="49.16855" lon="5.42086">
        <ele>265.94</ele>
        <time>2021-07-24T13:43:00Z</time>
      </trkpt>
      <trkpt lat="49.16862" lon="5.42098">
        <ele>267.38</ele>
        <time>2021-07-24T13:43:01Z</time>
      </trkpt>
      <trkpt lat="49.16869" lon="5.4211">
        <ele>267.38</ele>
        <time>2021-07-24T13:43:02Z</time>
      </trkpt>
      <trkpt lat="49.16879" lon="5.42115">
        <ele>267.38</ele>
        <time>2021-07-24T13:43:03Z</time>
      </trkpt>
      <trkpt lat="49.16888" lon="5.42117">
        <ele>267.86</ele>
        <time>2021-07-24T13:43:04Z</time>
      </trkpt>
      <trkpt lat="49.16899" lon="5.42114">
        <ele>267.86</ele>
        <time>2021-07-24T13:43:05Z</time>
      </trkpt>
      <trkpt lat="49.16907" lon="5.42105">
        <ele>269.79</ele>
        <time>2021-07-24T13:43:06Z</time>
      </trkpt>
      <trkpt lat="49.16916" lon="5.42093">
        <ele>271.23</ele>
        <time>2021-07-24T13:43:07Z</time>
      </trkpt>
      <trkpt lat="49.16918" lon="5.4208">
        <ele>270.75</ele>
        <time>2021-07-24T13:43:08Z</time>
      </trkpt>
      <trkpt lat="49.16921" lon="5.42063">
        <ele>270.75</ele>
        <time>2021-07-24T13:43:09Z</time>
      </trkpt>
      <trkpt lat="49.16923" lon="5.42045">
        <ele>271.71</ele>
        <time>2021-07-24T13:43:10Z</time>
      </trkpt>
      <trkpt lat="49.16931" lon="5.41993">
        <ele>271.71</ele>
        <time>2021-07-24T13:43:13Z</time>
      </trkpt>
      <trkpt lat="49.16933" lon="5.41978">
        <ele>272.19</ele>
        <time>2021-07-24T13:43:14Z</time>
      </trkpt>
      <trkpt lat="49.16938" lon="5.41965">
        <ele>273.15</ele>
        <time>2021-07-24T13:43:15Z</time>
      </trkpt>
      <trkpt lat="49.17012" lon="5.4183">
        <ele>279.4</ele>
        <time>2021-07-24T13:43:26Z</time>
      </trkpt>
      <trkpt lat="49.17036" lon="5.41802">
        <ele>280.36</ele>
        <time>2021-07-24T13:43:29Z</time>
      </trkpt>
      <trkpt lat="49.17046" lon="5.41796">
        <ele>281.32</ele>
        <time>2021-07-24T13:43:30Z</time>
      </trkpt>
      <trkpt lat="49.17057" lon="5.41792">
        <ele>282.28</ele>
        <time>2021-07-24T13:43:31Z</time>
      </trkpt>
      <trkpt lat="49.17077" lon="5.41798">
        <ele>282.77</ele>
        <time>2021-07-24T13:43:32Z</time>
      </trkpt>
      <trkpt lat="49.17086" lon="5.41806">
        <ele>283.25</ele>
        <time>2021-07-24T13:43:33Z</time>
      </trkpt>
      <trkpt lat="49.17095" lon="5.41815">
        <ele>285.17</ele>
        <time>2021-07-24T13:43:34Z</time>
      </trkpt>
      <trkpt lat="49.17103" lon="5.41823">
        <ele>285.65</ele>
        <time>2021-07-24T13:43:35Z</time>
      </trkpt>
      <trkpt lat="49.17111" lon="5.41831">
        <ele>286.61</ele>
        <time>2021-07-24T13:43:36Z</time>
      </trkpt>
      <trkpt lat="49.1712" lon="5.4184">
        <ele>287.57</ele>
        <time>2021-07-24T13:43:37Z</time>
      </trkpt>
      <trkpt lat="49.1712" lon="5.4184">
        <ele>288.05</ele>
        <time>2021-07-24T13:43:38Z</time>
      </trkpt>
      <trkpt lat="49.17129" lon="5.41849">
        <ele>288.53</ele>
        <time>2021-07-24T13:43:39Z</time>
      </trkpt>
      <trkpt lat="49.17139" lon="5.41857">
        <ele>289.01</ele>
        <time>2021-07-24T13:43:40Z</time>
      </trkpt>
      <trkpt lat="49.17152" lon="5.41863">
        <ele>289.49</ele>
        <time>2021-07-24T13:43:41Z</time>
      </trkpt>
      <trkpt lat="49.17338" lon="5.41929">
        <ele>298.15</ele>
        <time>2021-07-24T13:43:54Z</time>
      </trkpt>
      <trkpt lat="49.17469" lon="5.42015">
        <ele>304.88</ele>
        <time>2021-07-24T13:44:03Z</time>
      </trkpt>
      <trkpt lat="49.17469" lon="5.42015">
        <ele>305.84</ele>
        <time>2021-07-24T13:44:04Z</time>
      </trkpt>
      <trkpt lat="49.17474" lon="5.42021">
        <ele>307.28</ele>
        <time>2021-07-24T13:44:05Z</time>
      </trkpt>
      <trkpt lat="49.17477" lon="5.42038">
        <ele>308.72</ele>
        <time>2021-07-24T13:44:06Z</time>
      </trkpt>
      <trkpt lat="49.17481" lon="5.42053">
        <ele>308.72</ele>
        <time>2021-07-24T13:44:07Z</time>
      </trkpt>
      <trkpt lat="49.17482" lon="5.42071">
        <ele>309.2</ele>
        <time>2021-07-24T13:44:08Z</time>
      </trkpt>
      <trkpt lat="49.17483" lon="5.4209">
        <ele>310.16</ele>
        <time>2021-07-24T13:44:09Z</time>
      </trkpt>
      <trkpt lat="49.17485" lon="5.42128">
        <ele>311.6</ele>
        <time>2021-07-24T13:44:11Z</time>
      </trkpt>
      <trkpt lat="49.17486" lon="5.42146">
        <ele>312.09</ele>
        <time>2021-07-24T13:44:12Z</time>
      </trkpt>
      <trkpt lat="49.17489" lon="5.42166">
        <ele>313.05</ele>
        <time>2021-07-24T13:44:13Z</time>
      </trkpt>
      <trkpt lat="49.17535" lon="5.42397">
        <ele>321.7</ele>
        <time>2021-07-24T13:44:24Z</time>
      </trkpt>
      <trkpt lat="49.17599" lon="5.42712">
        <ele>334.2</ele>
        <time>2021-07-24T13:44:38Z</time>
      </trkpt>
      <trkpt lat="49.17608" lon="5.42732">
        <ele>335.16</ele>
        <time>2021-07-24T13:44:39Z</time>
      </trkpt>
      <trkpt lat="49.17617" lon="5.42751">
        <ele>336.6</ele>
        <time>2021-07-24T13:44:40Z</time>
      </trkpt>
      <trkpt lat="49.17638" lon="5.4278">
        <ele>338.04</ele>
        <time>2021-07-24T13:44:41Z</time>
      </trkpt>
      <trkpt lat="49.17651" lon="5.42794">
        <ele>339</ele>
        <time>2021-07-24T13:44:42Z</time>
      </trkpt>
      <trkpt lat="49.17663" lon="5.42804">
        <ele>339.48</ele>
        <time>2021-07-24T13:44:43Z</time>
      </trkpt>
      <trkpt lat="49.17678" lon="5.42813">
        <ele>339</ele>
        <time>2021-07-24T13:44:44Z</time>
      </trkpt>
      <trkpt lat="49.17678" lon="5.42813">
        <ele>339.48</ele>
        <time>2021-07-24T13:44:45Z</time>
      </trkpt>
      <trkpt lat="49.17693" lon="5.42822">
        <ele>339</ele>
        <time>2021-07-24T13:44:46Z</time>
      </trkpt>
      <trkpt lat="49.17708" lon="5.42827">
        <ele>339.48</ele>
        <time>2021-07-24T13:44:47Z</time>
      </trkpt>
      <trkpt lat="49.17741" lon="5.42827">
        <ele>339.96</ele>
        <time>2021-07-24T13:44:48Z</time>
      </trkpt>
      <trkpt lat="49.17756" lon="5.42825">
        <ele>341.41</ele>
        <time>2021-07-24T13:44:49Z</time>
      </trkpt>
      <trkpt lat="49.17756" lon="5.42825">
        <ele>342.37</ele>
        <time>2021-07-24T13:44:50Z</time>
      </trkpt>
      <trkpt lat="49.17773" lon="5.42817">
        <ele>342.85</ele>
        <time>2021-07-24T13:44:51Z</time>
      </trkpt>
      <trkpt lat="49.17896" lon="5.42772">
        <ele>342.85</ele>
        <time>2021-07-24T13:45:00Z</time>
      </trkpt>
      <trkpt lat="49.18027" lon="5.42808">
        <ele>341.89</ele>
        <time>2021-07-24T13:45:09Z</time>
      </trkpt>
      <trkpt lat="49.18211" lon="5.42883">
        <ele>339</ele>
        <time>2021-07-24T13:45:19Z</time>
      </trkpt>
      <trkpt lat="49.18314" lon="5.42915">
        <ele>339.96</ele>
        <time>2021-07-24T13:45:26Z</time>
      </trkpt>
      <trkpt lat="49.18328" lon="5.42917">
        <ele>341.89</ele>
        <time>2021-07-24T13:45:27Z</time>
      </trkpt>
      <trkpt lat="49.1836" lon="5.42912">
        <ele>342.85</ele>
        <time>2021-07-24T13:45:28Z</time>
      </trkpt>
      <trkpt lat="49.18408" lon="5.42904">
        <ele>344.77</ele>
        <time>2021-07-24T13:45:32Z</time>
      </trkpt>
      <trkpt lat="49.18425" lon="5.42904">
        <ele>345.25</ele>
        <time>2021-07-24T13:45:33Z</time>
      </trkpt>
      <trkpt lat="49.18441" lon="5.42908">
        <ele>345.25</ele>
        <time>2021-07-24T13:45:34Z</time>
      </trkpt>
      <trkpt lat="49.18458" lon="5.42911">
        <ele>345.25</ele>
        <time>2021-07-24T13:45:35Z</time>
      </trkpt>
      <trkpt lat="49.18472" lon="5.42921">
        <ele>344.77</ele>
        <time>2021-07-24T13:45:36Z</time>
      </trkpt>
      <trkpt lat="49.18489" lon="5.42933">
        <ele>345.25</ele>
        <time>2021-07-24T13:45:37Z</time>
      </trkpt>
      <trkpt lat="49.18521" lon="5.42962">
        <ele>345.73</ele>
        <time>2021-07-24T13:45:38Z</time>
      </trkpt>
      <trkpt lat="49.18536" lon="5.42978">
        <ele>346.69</ele>
        <time>2021-07-24T13:45:39Z</time>
      </trkpt>
      <trkpt lat="49.18711" lon="5.43165">
        <ele>351.98</ele>
        <time>2021-07-24T13:45:51Z</time>
      </trkpt>
      <trkpt lat="49.18988" lon="5.43472">
        <ele>355.34</ele>
        <time>2021-07-24T13:46:07Z</time>
      </trkpt>
      <trkpt lat="49.19143" lon="5.43678">
        <ele>356.31</ele>
        <time>2021-07-24T13:46:18Z</time>
      </trkpt>
      <trkpt lat="49.1921" lon="5.43769">
        <ele>354.86</ele>
        <time>2021-07-24T13:46:25Z</time>
      </trkpt>
      <trkpt lat="49.19218" lon="5.4378">
        <ele>354.38</ele>
        <time>2021-07-24T13:46:32Z</time>
      </trkpt>
      <trkpt lat="49.19218" lon="5.4378">
        <ele>354.38</ele>
        <time>2021-07-24T13:46:38Z</time>
      </trkpt>
      <trkpt lat="49.19219" lon="5.43782">
        <ele>354.38</ele>
        <time>2021-07-24T13:46:39Z</time>
      </trkpt>
      <trkpt lat="49.19226" lon="5.43784">
        <ele>354.38</ele>
        <time>2021-07-24T13:46:40Z</time>
      </trkpt>
      <trkpt lat="49.19226" lon="5.43784">
        <ele>353.9</ele>
        <time>2021-07-24T13:46:41Z</time>
      </trkpt>
      <trkpt lat="49.1923" lon="5.4378">
        <ele>353.42</ele>
        <time>2021-07-24T13:46:42Z</time>
      </trkpt>
      <trkpt lat="49.19294" lon="5.43715">
        <ele>352.94</ele>
        <time>2021-07-24T13:46:51Z</time>
      </trkpt>
      <trkpt lat="49.19392" lon="5.43581">
        <ele>351.02</ele>
        <time>2021-07-24T13:47:01Z</time>
      </trkpt>
      <trkpt lat="49.19464" lon="5.43479">
        <ele>350.06</ele>
        <time>2021-07-24T13:47:10Z</time>
      </trkpt>
      <trkpt lat="49.19542" lon="5.43367">
        <ele>349.58</ele>
        <time>2021-07-24T13:47:22Z</time>
      </trkpt>
      <trkpt lat="49.19604" lon="5.43264">
        <ele>348.13</ele>
        <time>2021-07-24T13:47:33Z</time>
      </trkpt>
      <trkpt lat="49.19633" lon="5.43195">
        <ele>348.13</ele>
        <time>2021-07-24T13:47:39Z</time>
      </trkpt>
      <trkpt lat="49.19639" lon="5.43184">
        <ele>346.69</ele>
        <time>2021-07-24T13:47:40Z</time>
      </trkpt>
      <trkpt lat="49.19724" lon="5.43069">
        <ele>342.85</ele>
        <time>2021-07-24T13:47:49Z</time>
      </trkpt>
      <trkpt lat="49.19916" lon="5.42826">
        <ele>336.6</ele>
        <time>2021-07-24T13:48:03Z</time>
      </trkpt>
      <trkpt lat="49.19989" lon="5.42717">
        <ele>337.56</ele>
        <time>2021-07-24T13:48:09Z</time>
      </trkpt>
      <trkpt lat="49.19999" lon="5.42697">
        <ele>337.08</ele>
        <time>2021-07-24T13:48:10Z</time>
      </trkpt>
      <trkpt lat="49.2012" lon="5.42439">
        <ele>335.64</ele>
        <time>2021-07-24T13:48:22Z</time>
      </trkpt>
      <trkpt lat="49.2014" lon="5.424">
        <ele>336.6</ele>
        <time>2021-07-24T13:48:25Z</time>
      </trkpt>
      <trkpt lat="49.20152" lon="5.42386">
        <ele>336.12</ele>
        <time>2021-07-24T13:48:26Z</time>
      </trkpt>
      <trkpt lat="49.20178" lon="5.42359">
        <ele>336.12</ele>
        <time>2021-07-24T13:48:27Z</time>
      </trkpt>
      <trkpt lat="49.20341" lon="5.42192">
        <ele>337.56</ele>
        <time>2021-07-24T13:48:40Z</time>
      </trkpt>
      <trkpt lat="49.20432" lon="5.42105">
        <ele>338.52</ele>
        <time>2021-07-24T13:48:49Z</time>
      </trkpt>
      <trkpt lat="49.20438" lon="5.42101">
        <ele>338.52</ele>
        <time>2021-07-24T13:48:50Z</time>
      </trkpt>
      <trkpt lat="49.20442" lon="5.42098">
        <ele>339</ele>
        <time>2021-07-24T13:48:51Z</time>
      </trkpt>
      <trkpt lat="49.20445" lon="5.42096">
        <ele>339.48</ele>
        <time>2021-07-24T13:48:52Z</time>
      </trkpt>
      <trkpt lat="49.20447" lon="5.42095">
        <ele>339.48</ele>
        <time>2021-07-24T13:48:53Z</time>
      </trkpt>
      <trkpt lat="49.20448" lon="5.42094">
        <ele>339.48</ele>
        <time>2021-07-24T13:48:54Z</time>
      </trkpt>
      <trkpt lat="49.2045" lon="5.42093">
        <ele>339.96</ele>
        <time>2021-07-24T13:48:55Z</time>
      </trkpt>
      <trkpt lat="49.20452" lon="5.42091">
        <ele>339.96</ele>
        <time>2021-07-24T13:48:56Z</time>
      </trkpt>
      <trkpt lat="49.20455" lon="5.42089">
        <ele>339.96</ele>
        <time>2021-07-24T13:48:57Z</time>
      </trkpt>
      <trkpt lat="49.20459" lon="5.42087">
        <ele>340.44</ele>
        <time>2021-07-24T13:48:58Z</time>
      </trkpt>
      <trkpt lat="49.20464" lon="5.42086">
        <ele>340.92</ele>
        <time>2021-07-24T13:48:59Z</time>
      </trkpt>
      <trkpt lat="49.20469" lon="5.42086">
        <ele>341.41</ele>
        <time>2021-07-24T13:49:00Z</time>
      </trkpt>
      <trkpt lat="49.20473" lon="5.42086">
        <ele>341.89</ele>
        <time>2021-07-24T13:49:01Z</time>
      </trkpt>
      <trkpt lat="49.20478" lon="5.42087">
        <ele>342.37</ele>
        <time>2021-07-24T13:49:02Z</time>
      </trkpt>
      <trkpt lat="49.20484" lon="5.42087">
        <ele>342.85</ele>
        <time>2021-07-24T13:49:03Z</time>
      </trkpt>
      <trkpt lat="49.20576" lon="5.42116">
        <ele>349.58</ele>
        <time>2021-07-24T13:49:14Z</time>
      </trkpt>
      <trkpt lat="49.20665" lon="5.42148">
        <ele>354.86</ele>
        <time>2021-07-24T13:49:28Z</time>
      </trkpt>
      <trkpt lat="49.20698" lon="5.42186">
        <ele>357.27</ele>
        <time>2021-07-24T13:49:38Z</time>
      </trkpt>
      <trkpt lat="49.20721" lon="5.42228">
        <ele>358.71</ele>
        <time>2021-07-24T13:49:44Z</time>
      </trkpt>
      <trkpt lat="49.20724" lon="5.42235">
        <ele>359.19</ele>
        <time>2021-07-24T13:49:45Z</time>
      </trkpt>
      <trkpt lat="49.20727" lon="5.42241">
        <ele>359.67</ele>
        <time>2021-07-24T13:49:46Z</time>
      </trkpt>
      <trkpt lat="49.20729" lon="5.42246">
        <ele>360.15</ele>
        <time>2021-07-24T13:49:47Z</time>
      </trkpt>
      <trkpt lat="49.20731" lon="5.42249">
        <ele>360.15</ele>
        <time>2021-07-24T13:49:48Z</time>
      </trkpt>
      <trkpt lat="49.20732" lon="5.42251">
        <ele>359.67</ele>
        <time>2021-07-24T13:49:49Z</time>
      </trkpt>
      <trkpt lat="49.20733" lon="5.42253">
        <ele>360.15</ele>
        <time>2021-07-24T13:49:50Z</time>
      </trkpt>
      <trkpt lat="49.20734" lon="5.42256">
        <ele>359.67</ele>
        <time>2021-07-24T13:49:51Z</time>
      </trkpt>
      <trkpt lat="49.20736" lon="5.42259">
        <ele>359.67</ele>
        <time>2021-07-24T13:49:52Z</time>
      </trkpt>
      <trkpt lat="49.20737" lon="5.42262">
        <ele>359.67</ele>
        <time>2021-07-24T13:49:53Z</time>
      </trkpt>
      <trkpt lat="49.20739" lon="5.42266">
        <ele>359.67</ele>
        <time>2021-07-24T13:49:54Z</time>
      </trkpt>
      <trkpt lat="49.20741" lon="5.4227">
        <ele>359.67</ele>
        <time>2021-07-24T13:49:55Z</time>
      </trkpt>
      <trkpt lat="49.20743" lon="5.42274">
        <ele>359.67</ele>
        <time>2021-07-24T13:49:56Z</time>
      </trkpt>
      <trkpt lat="49.20747" lon="5.42283">
        <ele>360.15</ele>
        <time>2021-07-24T13:49:57Z</time>
      </trkpt>
      <trkpt lat="49.20757" lon="5.42305">
        <ele>361.11</ele>
        <time>2021-07-24T13:50:08Z</time>
      </trkpt>
      <trkpt lat="49.20757" lon="5.42305">
        <ele>361.11</ele>
        <time>2021-07-24T13:54:29Z</time>
      </trkpt>
      <trkpt lat="49.20782" lon="5.42277">
        <ele>361.59</ele>
        <time>2021-07-24T13:54:35Z</time>
      </trkpt>
      <trkpt lat="49.20815" lon="5.42279">
        <ele>361.11</ele>
        <time>2021-07-24T13:54:48Z</time>
      </trkpt>
      <trkpt lat="49.20839" lon="5.42284">
        <ele>360.63</ele>
        <time>2021-07-24T13:55:02Z</time>
      </trkpt>
      <trkpt lat="49.20854" lon="5.42297">
        <ele>359.19</ele>
        <time>2021-07-24T13:56:07Z</time>
      </trkpt>
      <trkpt lat="49.20875" lon="5.42341">
        <ele>359.67</ele>
        <time>2021-07-24T13:56:22Z</time>
      </trkpt>
      <trkpt lat="49.20877" lon="5.42346">
        <ele>359.67</ele>
        <time>2021-07-24T13:56:36Z</time>
      </trkpt>
      <trkpt lat="49.20882" lon="5.42356">
        <ele>359.67</ele>
        <time>2021-07-24T13:56:52Z</time>
      </trkpt>
      <trkpt lat="49.20879" lon="5.42368">
        <ele>359.19</ele>
        <time>2021-07-24T13:56:56Z</time>
      </trkpt>
      <trkpt lat="49.20872" lon="5.4238">
        <ele>359.67</ele>
        <time>2021-07-24T13:57:00Z</time>
      </trkpt>
      <trkpt lat="49.20875" lon="5.42391">
        <ele>360.15</ele>
        <time>2021-07-24T13:57:09Z</time>
      </trkpt>
      <trkpt lat="49.20874" lon="5.42392">
        <ele>358.71</ele>
        <time>2021-07-24T14:05:43Z</time>
      </trkpt>
      <trkpt lat="49.20875" lon="5.42394">
        <ele>358.71</ele>
        <time>2021-07-24T14:07:28Z</time>
      </trkpt>
      <trkpt lat="49.20883" lon="5.42442">
        <ele>359.19</ele>
        <time>2021-07-24T14:07:42Z</time>
      </trkpt>
      <trkpt lat="49.20881" lon="5.42513">
        <ele>358.23</ele>
        <time>2021-07-24T14:07:56Z</time>
      </trkpt>
      <trkpt lat="49.20872" lon="5.42534">
        <ele>357.75</ele>
        <time>2021-07-24T14:08:07Z</time>
      </trkpt>
      <trkpt lat="49.20868" lon="5.42537">
        <ele>357.75</ele>
        <time>2021-07-24T14:08:14Z</time>
      </trkpt>
      <trkpt lat="49.20864" lon="5.42533">
        <ele>357.75</ele>
        <time>2021-07-24T14:08:18Z</time>
      </trkpt>
      <trkpt lat="49.20863" lon="5.4253">
        <ele>357.75</ele>
        <time>2021-07-24T14:08:19Z</time>
      </trkpt>
      <trkpt lat="49.20861" lon="5.42527">
        <ele>357.75</ele>
        <time>2021-07-24T14:08:20Z</time>
      </trkpt>
      <trkpt lat="49.2086" lon="5.42524">
        <ele>357.75</ele>
        <time>2021-07-24T14:08:21Z</time>
      </trkpt>
      <trkpt lat="49.20822" lon="5.42444">
        <ele>357.75</ele>
        <time>2021-07-24T14:08:37Z</time>
      </trkpt>
      <trkpt lat="49.20787" lon="5.4237">
        <ele>357.27</ele>
        <time>2021-07-24T14:08:54Z</time>
      </trkpt>
      <trkpt lat="49.20728" lon="5.42242">
        <ele>356.31</ele>
        <time>2021-07-24T14:09:13Z</time>
      </trkpt>
      <trkpt lat="49.20664" lon="5.42147">
        <ele>354.38</ele>
        <time>2021-07-24T14:09:31Z</time>
      </trkpt>
      <trkpt lat="49.20599" lon="5.42123">
        <ele>351.5</ele>
        <time>2021-07-24T14:09:47Z</time>
      </trkpt>
      <trkpt lat="49.20494" lon="5.4209">
        <ele>342.85</ele>
        <time>2021-07-24T14:10:06Z</time>
      </trkpt>
      <trkpt lat="49.20456" lon="5.42088">
        <ele>339.48</ele>
        <time>2021-07-24T14:10:15Z</time>
      </trkpt>
      <trkpt lat="49.20437" lon="5.42101">
        <ele>337.56</ele>
        <time>2021-07-24T14:10:32Z</time>
      </trkpt>
      <trkpt lat="49.20362" lon="5.42171">
        <ele>337.56</ele>
        <time>2021-07-24T14:10:42Z</time>
      </trkpt>
      <trkpt lat="49.20228" lon="5.42308">
        <ele>336.6</ele>
        <time>2021-07-24T14:10:56Z</time>
      </trkpt>
      <trkpt lat="49.20148" lon="5.42389">
        <ele>338.52</ele>
        <time>2021-07-24T14:11:04Z</time>
      </trkpt>
      <trkpt lat="49.2014" lon="5.42402">
        <ele>338.04</ele>
        <time>2021-07-24T14:11:05Z</time>
      </trkpt>
      <trkpt lat="49.20132" lon="5.42415">
        <ele>336.6</ele>
        <time>2021-07-24T14:11:06Z</time>
      </trkpt>
      <trkpt lat="49.20013" lon="5.42666">
        <ele>334.68</ele>
        <time>2021-07-24T14:11:22Z</time>
      </trkpt>
      <trkpt lat="49.19916" lon="5.42825">
        <ele>337.08</ele>
        <time>2021-07-24T14:11:33Z</time>
      </trkpt>
      <trkpt lat="49.19828" lon="5.42937">
        <ele>339</ele>
        <time>2021-07-24T14:11:44Z</time>
      </trkpt>
      <trkpt lat="49.1976" lon="5.43024">
        <ele>339.96</ele>
        <time>2021-07-24T14:11:56Z</time>
      </trkpt>
      <trkpt lat="49.1967" lon="5.43138">
        <ele>344.77</ele>
        <time>2021-07-24T14:12:10Z</time>
      </trkpt>
      <trkpt lat="49.19617" lon="5.43237">
        <ele>348.62</ele>
        <time>2021-07-24T14:12:22Z</time>
      </trkpt>
      <trkpt lat="49.19564" lon="5.43335">
        <ele>351.5</ele>
        <time>2021-07-24T14:12:33Z</time>
      </trkpt>
      <trkpt lat="49.19475" lon="5.43464">
        <ele>352.46</ele>
        <time>2021-07-24T14:12:50Z</time>
      </trkpt>
      <trkpt lat="49.19472" lon="5.43468">
        <ele>352.46</ele>
        <time>2021-07-24T14:12:51Z</time>
      </trkpt>
      <trkpt lat="49.1947" lon="5.43472">
        <ele>352.46</ele>
        <time>2021-07-24T14:12:52Z</time>
      </trkpt>
      <trkpt lat="49.19468" lon="5.43475">
        <ele>352.46</ele>
        <time>2021-07-24T14:12:53Z</time>
      </trkpt>
      <trkpt lat="49.19466" lon="5.43477">
        <ele>352.46</ele>
        <time>2021-07-24T14:12:54Z</time>
      </trkpt>
      <trkpt lat="49.19466" lon="5.43477">
        <ele>351.98</ele>
        <time>2021-07-24T14:13:03Z</time>
      </trkpt>
      <trkpt lat="49.19461" lon="5.43474">
        <ele>351.98</ele>
        <time>2021-07-24T14:13:04Z</time>
      </trkpt>
      <trkpt lat="49.19459" lon="5.43472">
        <ele>351.02</ele>
        <time>2021-07-24T14:13:05Z</time>
      </trkpt>
      <trkpt lat="49.19457" lon="5.43471">
        <ele>350.54</ele>
        <time>2021-07-24T14:13:06Z</time>
      </trkpt>
      <trkpt lat="49.19455" lon="5.43469">
        <ele>350.06</ele>
        <time>2021-07-24T14:13:07Z</time>
      </trkpt>
      <trkpt lat="49.19451" lon="5.43398">
        <ele>348.62</ele>
        <time>2021-07-24T14:13:17Z</time>
      </trkpt>
      <trkpt lat="49.19451" lon="5.43349">
        <ele>348.62</ele>
        <time>2021-07-24T14:13:30Z</time>
      </trkpt>
      <trkpt lat="49.19473" lon="5.43309">
        <ele>347.65</ele>
        <time>2021-07-24T14:13:46Z</time>
      </trkpt>
      <trkpt lat="49.19498" lon="5.43284">
        <ele>345.25</ele>
        <time>2021-07-24T14:13:57Z</time>
      </trkpt>
      <trkpt lat="49.19502" lon="5.43283">
        <ele>345.25</ele>
        <time>2021-07-24T14:14:07Z</time>
      </trkpt>
      <trkpt lat="49.19526" lon="5.43287">
        <ele>345.73</ele>
        <time>2021-07-24T14:14:22Z</time>
      </trkpt>
      <trkpt lat="49.19533" lon="5.433">
        <ele>345.73</ele>
        <time>2021-07-24T14:14:35Z</time>
      </trkpt>
      <trkpt lat="49.19533" lon="5.43301">
        <ele>345.25</ele>
        <time>2021-07-24T14:17:20Z</time>
      </trkpt>
      <trkpt lat="49.19533" lon="5.43301">
        <ele>344.77</ele>
        <time>2021-07-24T14:20:08Z</time>
      </trkpt>
      <trkpt lat="49.19532" lon="5.43301">
        <ele>344.29</ele>
        <time>2021-07-24T14:24:46Z</time>
      </trkpt>
      <trkpt lat="49.19532" lon="5.43302">
        <ele>343.81</ele>
        <time>2021-07-24T14:27:53Z</time>
      </trkpt>
      <trkpt lat="49.19533" lon="5.433">
        <ele>346.21</ele>
        <time>2021-07-24T14:39:30Z</time>
      </trkpt>
      <trkpt lat="49.19533" lon="5.43299">
        <ele>346.21</ele>
        <time>2021-07-24T14:42:44Z</time>
      </trkpt>
      <trkpt lat="49.19533" lon="5.43299">
        <ele>346.69</ele>
        <time>2021-07-24T14:46:17Z</time>
      </trkpt>
      <trkpt lat="49.19532" lon="5.433">
        <ele>346.69</ele>
        <time>2021-07-24T14:50:01Z</time>
      </trkpt>
      <trkpt lat="49.19533" lon="5.43301">
        <ele>346.69</ele>
        <time>2021-07-24T14:53:24Z</time>
      </trkpt>
      <trkpt lat="49.19533" lon="5.43301">
        <ele>346.69</ele>
        <time>2021-07-24T14:56:16Z</time>
      </trkpt>
      <trkpt lat="49.19533" lon="5.43301">
        <ele>346.21</ele>
        <time>2021-07-24T14:58:46Z</time>
      </trkpt>
      <trkpt lat="49.19533" lon="5.43302">
        <ele>345.73</ele>
        <time>2021-07-24T15:01:59Z</time>
      </trkpt>
      <trkpt lat="49.19533" lon="5.43303">
        <ele>345.25</ele>
        <time>2021-07-24T15:04:51Z</time>
      </trkpt>
      <trkpt lat="49.19533" lon="5.43302">
        <ele>344.77</ele>
        <time>2021-07-24T15:07:08Z</time>
      </trkpt>
      <trkpt lat="49.19533" lon="5.43302">
        <ele>344.77</ele>
        <time>2021-07-24T15:11:17Z</time>
      </trkpt>
      <trkpt lat="49.19534" lon="5.43302">
        <ele>345.25</ele>
        <time>2021-07-24T15:14:30Z</time>
      </trkpt>
    </trkseg>
  </trk>
  <trk>
    <name><![CDATA[Journal actif: 2021-07-24 15:41]]></name>
    <trkseg>
      <trkpt lat="49.19529" lon="5.43294">
        <ele>348.62</ele>
        <time>2021-07-24T17:41:44Z</time>
      </trkpt>
      <trkpt lat="49.1953" lon="5.43296">
        <ele>350.06</ele>
        <time>2021-07-24T17:42:41Z</time>
      </trkpt>
      <trkpt lat="49.1953" lon="5.43296">
        <ele>350.06</ele>
        <time>2021-07-24T17:43:27Z</time>
      </trkpt>
      <trkpt lat="49.19535" lon="5.43303">
        <ele>350.06</ele>
        <time>2021-07-24T17:44:01Z</time>
      </trkpt>
      <trkpt lat="49.19582" lon="5.43307">
        <ele>349.1</ele>
        <time>2021-07-24T17:44:15Z</time>
      </trkpt>
      <trkpt lat="49.19604" lon="5.43262">
        <ele>348.62</ele>
        <time>2021-07-24T17:44:26Z</time>
      </trkpt>
      <trkpt lat="49.19616" lon="5.4324">
        <ele>349.1</ele>
        <time>2021-07-24T17:44:32Z</time>
      </trkpt>
      <trkpt lat="49.19618" lon="5.43239">
        <ele>349.1</ele>
        <time>2021-07-24T17:44:33Z</time>
      </trkpt>
      <trkpt lat="49.1962" lon="5.43237">
        <ele>350.06</ele>
        <time>2021-07-24T17:44:44Z</time>
      </trkpt>
      <trkpt lat="49.1962" lon="5.43237">
        <ele>350.06</ele>
        <time>2021-07-24T17:45:11Z</time>
      </trkpt>
      <trkpt lat="49.19611" lon="5.43246">
        <ele>350.06</ele>
        <time>2021-07-24T17:45:13Z</time>
      </trkpt>
      <trkpt lat="49.19611" lon="5.43246">
        <ele>349.58</ele>
        <time>2021-07-24T17:45:14Z</time>
      </trkpt>
      <trkpt lat="49.19611" lon="5.43246">
        <ele>349.58</ele>
        <time>2021-07-24T17:45:15Z</time>
      </trkpt>
      <trkpt lat="49.1961" lon="5.4325">
        <ele>349.58</ele>
        <time>2021-07-24T17:45:16Z</time>
      </trkpt>
      <trkpt lat="49.19607" lon="5.43255">
        <ele>349.58</ele>
        <time>2021-07-24T17:45:17Z</time>
      </trkpt>
      <trkpt lat="49.19559" lon="5.43342">
        <ele>352.46</ele>
        <time>2021-07-24T17:45:29Z</time>
      </trkpt>
      <trkpt lat="49.19469" lon="5.43473">
        <ele>352.94</ele>
        <time>2021-07-24T17:45:43Z</time>
      </trkpt>
      <trkpt lat="49.19329" lon="5.43667">
        <ele>354.38</ele>
        <time>2021-07-24T17:45:58Z</time>
      </trkpt>
      <trkpt lat="49.19209" lon="5.43802">
        <ele>356.79</ele>
        <time>2021-07-24T17:46:09Z</time>
      </trkpt>
      <trkpt lat="49.19077" lon="5.43947">
        <ele>365.44</ele>
        <time>2021-07-24T17:46:22Z</time>
      </trkpt>
      <trkpt lat="49.1898" lon="5.44114">
        <ele>376.01</ele>
        <time>2021-07-24T17:46:34Z</time>
      </trkpt>
      <trkpt lat="49.18943" lon="5.44209">
        <ele>382.74</ele>
        <time>2021-07-24T17:46:42Z</time>
      </trkpt>
      <trkpt lat="49.18941" lon="5.44216">
        <ele>383.22</ele>
        <time>2021-07-24T17:46:43Z</time>
      </trkpt>
      <trkpt lat="49.18937" lon="5.44229">
        <ele>382.74</ele>
        <time>2021-07-24T17:46:51Z</time>
      </trkpt>
      <trkpt lat="49.18933" lon="5.44243">
        <ele>383.22</ele>
        <time>2021-07-24T17:47:09Z</time>
      </trkpt>
      <trkpt lat="49.18933" lon="5.44245">
        <ele>383.22</ele>
        <time>2021-07-24T17:47:10Z</time>
      </trkpt>
      <trkpt lat="49.18933" lon="5.44245">
        <ele>382.74</ele>
        <time>2021-07-24T17:47:11Z</time>
      </trkpt>
      <trkpt lat="49.18932" lon="5.44247">
        <ele>382.74</ele>
        <time>2021-07-24T17:47:12Z</time>
      </trkpt>
      <trkpt lat="49.18932" lon="5.44247">
        <ele>382.74</ele>
        <time>2021-07-24T17:47:25Z</time>
      </trkpt>
      <trkpt lat="49.18932" lon="5.44247">
        <ele>382.74</ele>
        <time>2021-07-24T17:47:29Z</time>
      </trkpt>
      <trkpt lat="49.18933" lon="5.44244">
        <ele>381.78</ele>
        <time>2021-07-24T17:47:30Z</time>
      </trkpt>
      <trkpt lat="49.18937" lon="5.4423">
        <ele>381.3</ele>
        <time>2021-07-24T17:47:31Z</time>
      </trkpt>
      <trkpt lat="49.18937" lon="5.4423">
        <ele>379.86</ele>
        <time>2021-07-24T17:47:32Z</time>
      </trkpt>
      <trkpt lat="49.18939" lon="5.4422">
        <ele>378.9</ele>
        <time>2021-07-24T17:47:33Z</time>
      </trkpt>
      <trkpt lat="49.18943" lon="5.44209">
        <ele>377.94</ele>
        <time>2021-07-24T17:47:34Z</time>
      </trkpt>
      <trkpt lat="49.18999" lon="5.4408">
        <ele>366.4</ele>
        <time>2021-07-24T17:47:42Z</time>
      </trkpt>
      <trkpt lat="49.19109" lon="5.43907">
        <ele>359.19</ele>
        <time>2021-07-24T17:47:53Z</time>
      </trkpt>
      <trkpt lat="49.19195" lon="5.43816">
        <ele>357.27</ele>
        <time>2021-07-24T17:48:02Z</time>
      </trkpt>
      <trkpt lat="49.19215" lon="5.43795">
        <ele>357.27</ele>
        <time>2021-07-24T17:48:06Z</time>
      </trkpt>
      <trkpt lat="49.19218" lon="5.43792">
        <ele>357.27</ele>
        <time>2021-07-24T17:48:07Z</time>
      </trkpt>
      <trkpt lat="49.19221" lon="5.43788">
        <ele>357.75</ele>
        <time>2021-07-24T17:48:08Z</time>
      </trkpt>
      <trkpt lat="49.1922" lon="5.43782">
        <ele>357.75</ele>
        <time>2021-07-24T17:48:09Z</time>
      </trkpt>
      <trkpt lat="49.19216" lon="5.43778">
        <ele>357.75</ele>
        <time>2021-07-24T17:48:10Z</time>
      </trkpt>
      <trkpt lat="49.19212" lon="5.43772">
        <ele>357.75</ele>
        <time>2021-07-24T17:48:11Z</time>
      </trkpt>
      <trkpt lat="49.19207" lon="5.43765">
        <ele>357.27</ele>
        <time>2021-07-24T17:48:12Z</time>
      </trkpt>
      <trkpt lat="49.19138" lon="5.43672">
        <ele>353.9</ele>
        <time>2021-07-24T17:48:21Z</time>
      </trkpt>
      <trkpt lat="49.19003" lon="5.4349">
        <ele>351.02</ele>
        <time>2021-07-24T17:48:34Z</time>
      </trkpt>
      <trkpt lat="49.18833" lon="5.43295">
        <ele>345.73</ele>
        <time>2021-07-24T17:48:46Z</time>
      </trkpt>
      <trkpt lat="49.1858" lon="5.43025">
        <ele>341.89</ele>
        <time>2021-07-24T17:49:04Z</time>
      </trkpt>
      <trkpt lat="49.18461" lon="5.42913">
        <ele>341.89</ele>
        <time>2021-07-24T17:49:12Z</time>
      </trkpt>
      <trkpt lat="49.18445" lon="5.42909">
        <ele>342.37</ele>
        <time>2021-07-24T17:49:13Z</time>
      </trkpt>
      <trkpt lat="49.18431" lon="5.42906">
        <ele>342.85</ele>
        <time>2021-07-24T17:49:14Z</time>
      </trkpt>
      <trkpt lat="49.18416" lon="5.42903">
        <ele>343.81</ele>
        <time>2021-07-24T17:49:15Z</time>
      </trkpt>
      <trkpt lat="49.18401" lon="5.42905">
        <ele>342.37</ele>
        <time>2021-07-24T17:49:16Z</time>
      </trkpt>
      <trkpt lat="49.18384" lon="5.42908">
        <ele>341.89</ele>
        <time>2021-07-24T17:49:17Z</time>
      </trkpt>
      <trkpt lat="49.18335" lon="5.42916">
        <ele>337.56</ele>
        <time>2021-07-24T17:49:20Z</time>
      </trkpt>
      <trkpt lat="49.18318" lon="5.42916">
        <ele>336.6</ele>
        <time>2021-07-24T17:49:21Z</time>
      </trkpt>
      <trkpt lat="49.18302" lon="5.42912">
        <ele>335.64</ele>
        <time>2021-07-24T17:49:22Z</time>
      </trkpt>
      <trkpt lat="49.18284" lon="5.42908">
        <ele>334.68</ele>
        <time>2021-07-24T17:49:23Z</time>
      </trkpt>
      <trkpt lat="49.18267" lon="5.42904">
        <ele>333.23</ele>
        <time>2021-07-24T17:49:24Z</time>
      </trkpt>
      <trkpt lat="49.17966" lon="5.42783">
        <ele>333.71</ele>
        <time>2021-07-24T17:49:41Z</time>
      </trkpt>
      <trkpt lat="49.17885" lon="5.42774">
        <ele>332.27</ele>
        <time>2021-07-24T17:49:46Z</time>
      </trkpt>
      <trkpt lat="49.17868" lon="5.42777">
        <ele>332.27</ele>
        <time>2021-07-24T17:49:47Z</time>
      </trkpt>
      <trkpt lat="49.17777" lon="5.42815">
        <ele>328.91</ele>
        <time>2021-07-24T17:49:53Z</time>
      </trkpt>
      <trkpt lat="49.17764" lon="5.42821">
        <ele>329.39</ele>
        <time>2021-07-24T17:49:54Z</time>
      </trkpt>
      <trkpt lat="49.17748" lon="5.42826">
        <ele>328.91</ele>
        <time>2021-07-24T17:49:55Z</time>
      </trkpt>
      <trkpt lat="49.17734" lon="5.42828">
        <ele>327.95</ele>
        <time>2021-07-24T17:49:56Z</time>
      </trkpt>
      <trkpt lat="49.1772" lon="5.4283">
        <ele>327.47</ele>
        <time>2021-07-24T17:49:57Z</time>
      </trkpt>
      <trkpt lat="49.1769" lon="5.4282">
        <ele>326.5</ele>
        <time>2021-07-24T17:49:59Z</time>
      </trkpt>
      <trkpt lat="49.17677" lon="5.42813">
        <ele>324.58</ele>
        <time>2021-07-24T17:50:00Z</time>
      </trkpt>
      <trkpt lat="49.17664" lon="5.42805">
        <ele>324.1</ele>
        <time>2021-07-24T17:50:01Z</time>
      </trkpt>
      <trkpt lat="49.17652" lon="5.42795">
        <ele>324.1</ele>
        <time>2021-07-24T17:50:02Z</time>
      </trkpt>
      <trkpt lat="49.17641" lon="5.42783">
        <ele>323.14</ele>
        <time>2021-07-24T17:50:03Z</time>
      </trkpt>
      <trkpt lat="49.1763" lon="5.42769">
        <ele>322.66</ele>
        <time>2021-07-24T17:50:04Z</time>
      </trkpt>
      <trkpt lat="49.17618" lon="5.42753">
        <ele>323.14</ele>
        <time>2021-07-24T17:50:05Z</time>
      </trkpt>
      <trkpt lat="49.17608" lon="5.42732">
        <ele>322.18</ele>
        <time>2021-07-24T17:50:06Z</time>
      </trkpt>
      <trkpt lat="49.17599" lon="5.42712">
        <ele>321.22</ele>
        <time>2021-07-24T17:50:07Z</time>
      </trkpt>
      <trkpt lat="49.17594" lon="5.42694">
        <ele>321.22</ele>
        <time>2021-07-24T17:50:08Z</time>
      </trkpt>
      <trkpt lat="49.17549" lon="5.42481">
        <ele>316.41</ele>
        <time>2021-07-24T17:50:17Z</time>
      </trkpt>
      <trkpt lat="49.17486" lon="5.42147">
        <ele>309.2</ele>
        <time>2021-07-24T17:50:30Z</time>
      </trkpt>
      <trkpt lat="49.17485" lon="5.42122">
        <ele>308.72</ele>
        <time>2021-07-24T17:50:31Z</time>
      </trkpt>
      <trkpt lat="49.17482" lon="5.42083">
        <ele>307.76</ele>
        <time>2021-07-24T17:50:33Z</time>
      </trkpt>
      <trkpt lat="49.17481" lon="5.42066">
        <ele>307.28</ele>
        <time>2021-07-24T17:50:34Z</time>
      </trkpt>
      <trkpt lat="49.1748" lon="5.42052">
        <ele>306.8</ele>
        <time>2021-07-24T17:50:35Z</time>
      </trkpt>
      <trkpt lat="49.17477" lon="5.42036">
        <ele>308.24</ele>
        <time>2021-07-24T17:50:36Z</time>
      </trkpt>
      <trkpt lat="49.17474" lon="5.42021">
        <ele>306.8</ele>
        <time>2021-07-24T17:50:37Z</time>
      </trkpt>
      <trkpt lat="49.17466" lon="5.42012">
        <ele>306.32</ele>
        <time>2021-07-24T17:50:38Z</time>
      </trkpt>
      <trkpt lat="49.17456" lon="5.42001">
        <ele>305.84</ele>
        <time>2021-07-24T17:50:39Z</time>
      </trkpt>
      <trkpt lat="49.17321" lon="5.41923">
        <ele>298.63</ele>
        <time>2021-07-24T17:50:50Z</time>
      </trkpt>
      <trkpt lat="49.1714" lon="5.41858">
        <ele>285.65</ele>
        <time>2021-07-24T17:51:03Z</time>
      </trkpt>
      <trkpt lat="49.1713" lon="5.4185">
        <ele>284.21</ele>
        <time>2021-07-24T17:51:04Z</time>
      </trkpt>
      <trkpt lat="49.17111" lon="5.41832">
        <ele>283.73</ele>
        <time>2021-07-24T17:51:05Z</time>
      </trkpt>
      <trkpt lat="49.17111" lon="5.41832">
        <ele>282.77</ele>
        <time>2021-07-24T17:51:06Z</time>
      </trkpt>
      <trkpt lat="49.17073" lon="5.41794">
        <ele>279.4</ele>
        <time>2021-07-24T17:51:09Z</time>
      </trkpt>
      <trkpt lat="49.17073" lon="5.41794">
        <ele>278.92</ele>
        <time>2021-07-24T17:51:10Z</time>
      </trkpt>
      <trkpt lat="49.17064" lon="5.41792">
        <ele>279.88</ele>
        <time>2021-07-24T17:51:11Z</time>
      </trkpt>
      <trkpt lat="49.17054" lon="5.41791">
        <ele>280.36</ele>
        <time>2021-07-24T17:51:12Z</time>
      </trkpt>
      <trkpt lat="49.17038" lon="5.41801">
        <ele>280.36</ele>
        <time>2021-07-24T17:51:13Z</time>
      </trkpt>
      <trkpt lat="49.17038" lon="5.41801">
        <ele>279.4</ele>
        <time>2021-07-24T17:51:14Z</time>
      </trkpt>
      <trkpt lat="49.1703" lon="5.41808">
        <ele>278.44</ele>
        <time>2021-07-24T17:51:15Z</time>
      </trkpt>
      <trkpt lat="49.17022" lon="5.41817">
        <ele>277.96</ele>
        <time>2021-07-24T17:51:16Z</time>
      </trkpt>
      <trkpt lat="49.16946" lon="5.41946">
        <ele>272.19</ele>
        <time>2021-07-24T17:51:26Z</time>
      </trkpt>
      <trkpt lat="49.16933" lon="5.4198">
        <ele>270.27</ele>
        <time>2021-07-24T17:51:28Z</time>
      </trkpt>
      <trkpt lat="49.1693" lon="5.41997">
        <ele>269.31</ele>
        <time>2021-07-24T17:51:29Z</time>
      </trkpt>
      <trkpt lat="49.16928" lon="5.42012">
        <ele>268.83</ele>
        <time>2021-07-24T17:51:30Z</time>
      </trkpt>
      <trkpt lat="49.16918" lon="5.42079">
        <ele>266.42</ele>
        <time>2021-07-24T17:51:35Z</time>
      </trkpt>
      <trkpt lat="49.16911" lon="5.42099">
        <ele>265.94</ele>
        <time>2021-07-24T17:51:36Z</time>
      </trkpt>
      <trkpt lat="49.16911" lon="5.42099">
        <ele>264.98</ele>
        <time>2021-07-24T17:51:37Z</time>
      </trkpt>
      <trkpt lat="49.16905" lon="5.42108">
        <ele>264.98</ele>
        <time>2021-07-24T17:51:38Z</time>
      </trkpt>
      <trkpt lat="49.169" lon="5.42114">
        <ele>264.02</ele>
        <time>2021-07-24T17:51:39Z</time>
      </trkpt>
      <trkpt lat="49.16891" lon="5.42116">
        <ele>263.54</ele>
        <time>2021-07-24T17:51:40Z</time>
      </trkpt>
      <trkpt lat="49.16884" lon="5.42116">
        <ele>263.06</ele>
        <time>2021-07-24T17:51:41Z</time>
      </trkpt>
      <trkpt lat="49.16876" lon="5.42114">
        <ele>262.1</ele>
        <time>2021-07-24T17:51:42Z</time>
      </trkpt>
      <trkpt lat="49.1687" lon="5.42111">
        <ele>261.14</ele>
        <time>2021-07-24T17:51:43Z</time>
      </trkpt>
      <trkpt lat="49.16863" lon="5.42099">
        <ele>261.14</ele>
        <time>2021-07-24T17:51:44Z</time>
      </trkpt>
      <trkpt lat="49.16855" lon="5.42087">
        <ele>260.65</ele>
        <time>2021-07-24T17:51:45Z</time>
      </trkpt>
      <trkpt lat="49.16849" lon="5.42071">
        <ele>259.69</ele>
        <time>2021-07-24T17:51:46Z</time>
      </trkpt>
      <trkpt lat="49.16782" lon="5.41876">
        <ele>252.96</ele>
        <time>2021-07-24T17:51:58Z</time>
      </trkpt>
      <trkpt lat="49.16779" lon="5.41856">
        <ele>252</ele>
        <time>2021-07-24T17:51:59Z</time>
      </trkpt>
      <trkpt lat="49.16775" lon="5.41838">
        <ele>251.52</ele>
        <time>2021-07-24T17:52:00Z</time>
      </trkpt>
      <trkpt lat="49.16769" lon="5.4166">
        <ele>249.12</ele>
        <time>2021-07-24T17:52:09Z</time>
      </trkpt>
      <trkpt lat="49.16768" lon="5.41643">
        <ele>250.08</ele>
        <time>2021-07-24T17:52:10Z</time>
      </trkpt>
      <trkpt lat="49.16763" lon="5.41628">
        <ele>249.6</ele>
        <time>2021-07-24T17:52:11Z</time>
      </trkpt>
      <trkpt lat="49.16757" lon="5.41616">
        <ele>249.12</ele>
        <time>2021-07-24T17:52:12Z</time>
      </trkpt>
      <trkpt lat="49.16752" lon="5.41608">
        <ele>247.2</ele>
        <time>2021-07-24T17:52:13Z</time>
      </trkpt>
      <trkpt lat="49.16736" lon="5.41595">
        <ele>246.23</ele>
        <time>2021-07-24T17:52:14Z</time>
      </trkpt>
      <trkpt lat="49.16728" lon="5.41589">
        <ele>246.23</ele>
        <time>2021-07-24T17:52:15Z</time>
      </trkpt>
      <trkpt lat="49.16712" lon="5.41578">
        <ele>244.31</ele>
        <time>2021-07-24T17:52:18Z</time>
      </trkpt>
      <trkpt lat="49.16706" lon="5.41571">
        <ele>243.83</ele>
        <time>2021-07-24T17:52:19Z</time>
      </trkpt>
      <trkpt lat="49.167" lon="5.41563">
        <ele>243.35</ele>
        <time>2021-07-24T17:52:20Z</time>
      </trkpt>
      <trkpt lat="49.16693" lon="5.41555">
        <ele>242.87</ele>
        <time>2021-07-24T17:52:21Z</time>
      </trkpt>
      <trkpt lat="49.1669" lon="5.41544">
        <ele>241.43</ele>
        <time>2021-07-24T17:52:22Z</time>
      </trkpt>
      <trkpt lat="49.16685" lon="5.41529">
        <ele>240.95</ele>
        <time>2021-07-24T17:52:23Z</time>
      </trkpt>
      <trkpt lat="49.16681" lon="5.41515">
        <ele>240.47</ele>
        <time>2021-07-24T17:52:24Z</time>
      </trkpt>
      <trkpt lat="49.16681" lon="5.41501">
        <ele>239.99</ele>
        <time>2021-07-24T17:52:25Z</time>
      </trkpt>
      <trkpt lat="49.16683" lon="5.41485">
        <ele>238.54</ele>
        <time>2021-07-24T17:52:26Z</time>
      </trkpt>
      <trkpt lat="49.16685" lon="5.41469">
        <ele>237.58</ele>
        <time>2021-07-24T17:52:27Z</time>
      </trkpt>
      <trkpt lat="49.16688" lon="5.41453">
        <ele>236.14</ele>
        <time>2021-07-24T17:52:28Z</time>
      </trkpt>
      <trkpt lat="49.16707" lon="5.41347">
        <ele>232.78</ele>
        <time>2021-07-24T17:52:34Z</time>
      </trkpt>
      <trkpt lat="49.16709" lon="5.4133">
        <ele>232.78</ele>
        <time>2021-07-24T17:52:35Z</time>
      </trkpt>
      <trkpt lat="49.16708" lon="5.41312">
        <ele>232.78</ele>
        <time>2021-07-24T17:52:36Z</time>
      </trkpt>
      <trkpt lat="49.16704" lon="5.41293">
        <ele>232.78</ele>
        <time>2021-07-24T17:52:37Z</time>
      </trkpt>
      <trkpt lat="49.16692" lon="5.41261">
        <ele>231.33</ele>
        <time>2021-07-24T17:52:38Z</time>
      </trkpt>
      <trkpt lat="49.16692" lon="5.41261">
        <ele>231.81</ele>
        <time>2021-07-24T17:52:39Z</time>
      </trkpt>
      <trkpt lat="49.16634" lon="5.41118">
        <ele>224.61</ele>
        <time>2021-07-24T17:52:49Z</time>
      </trkpt>
      <trkpt lat="49.1656" lon="5.40902">
        <ele>217.4</ele>
        <time>2021-07-24T17:53:05Z</time>
      </trkpt>
      <trkpt lat="49.16565" lon="5.40756">
        <ele>211.63</ele>
        <time>2021-07-24T17:53:15Z</time>
      </trkpt>
      <trkpt lat="49.16573" lon="5.40688">
        <ele>208.74</ele>
        <time>2021-07-24T17:53:23Z</time>
      </trkpt>
      <trkpt lat="49.16574" lon="5.40667">
        <ele>207.3</ele>
        <time>2021-07-24T17:53:33Z</time>
      </trkpt>
      <trkpt lat="49.16576" lon="5.40663">
        <ele>207.3</ele>
        <time>2021-07-24T17:53:34Z</time>
      </trkpt>
      <trkpt lat="49.16578" lon="5.40657">
        <ele>206.82</ele>
        <time>2021-07-24T17:53:35Z</time>
      </trkpt>
      <trkpt lat="49.16588" lon="5.40634">
        <ele>206.34</ele>
        <time>2021-07-24T17:53:42Z</time>
      </trkpt>
      <trkpt lat="49.166" lon="5.40613">
        <ele>205.38</ele>
        <time>2021-07-24T17:54:23Z</time>
      </trkpt>
      <trkpt lat="49.16646" lon="5.40515">
        <ele>202.49</ele>
        <time>2021-07-24T17:54:32Z</time>
      </trkpt>
      <trkpt lat="49.16728" lon="5.40299">
        <ele>199.61</ele>
        <time>2021-07-24T17:54:47Z</time>
      </trkpt>
      <trkpt lat="49.16742" lon="5.40103">
        <ele>197.69</ele>
        <time>2021-07-24T17:54:58Z</time>
      </trkpt>
      <trkpt lat="49.16747" lon="5.39895">
        <ele>197.69</ele>
        <time>2021-07-24T17:55:10Z</time>
      </trkpt>
      <trkpt lat="49.16747" lon="5.3989">
        <ele>197.21</ele>
        <time>2021-07-24T17:55:11Z</time>
      </trkpt>
      <trkpt lat="49.16753" lon="5.39882">
        <ele>196.73</ele>
        <time>2021-07-24T17:55:13Z</time>
      </trkpt>
      <trkpt lat="49.16753" lon="5.39877">
        <ele>196.73</ele>
        <time>2021-07-24T17:55:14Z</time>
      </trkpt>
      <trkpt lat="49.16749" lon="5.3986">
        <ele>196.73</ele>
        <time>2021-07-24T17:55:15Z</time>
      </trkpt>
      <trkpt lat="49.16749" lon="5.3985">
        <ele>196.73</ele>
        <time>2021-07-24T17:55:17Z</time>
      </trkpt>
      <trkpt lat="49.16754" lon="5.39694">
        <ele>196.25</ele>
        <time>2021-07-24T17:55:30Z</time>
      </trkpt>
      <trkpt lat="49.16762" lon="5.394">
        <ele>195.28</ele>
        <time>2021-07-24T17:55:50Z</time>
      </trkpt>
      <trkpt lat="49.16768" lon="5.39196">
        <ele>195.77</ele>
        <time>2021-07-24T17:56:04Z</time>
      </trkpt>
      <trkpt lat="49.16774" lon="5.38962">
        <ele>198.65</ele>
        <time>2021-07-24T17:56:19Z</time>
      </trkpt>
      <trkpt lat="49.16777" lon="5.38809">
        <ele>199.61</ele>
        <time>2021-07-24T17:56:29Z</time>
      </trkpt>
      <trkpt lat="49.16769" lon="5.38718">
        <ele>202.01</ele>
        <time>2021-07-24T17:56:37Z</time>
      </trkpt>
      <trkpt lat="49.16768" lon="5.38711">
        <ele>202.49</ele>
        <time>2021-07-24T17:56:38Z</time>
      </trkpt>
      <trkpt lat="49.16767" lon="5.38706">
        <ele>202.49</ele>
        <time>2021-07-24T17:56:48Z</time>
      </trkpt>
      <trkpt lat="49.16769" lon="5.38687">
        <ele>202.98</ele>
        <time>2021-07-24T17:57:05Z</time>
      </trkpt>
      <trkpt lat="49.1677" lon="5.38682">
        <ele>202.98</ele>
        <time>2021-07-24T17:57:06Z</time>
      </trkpt>
      <trkpt lat="49.16768" lon="5.38677">
        <ele>202.98</ele>
        <time>2021-07-24T17:57:07Z</time>
      </trkpt>
      <trkpt lat="49.16762" lon="5.3866">
        <ele>202.98</ele>
        <time>2021-07-24T17:57:08Z</time>
      </trkpt>
      <trkpt lat="49.16762" lon="5.3866">
        <ele>203.46</ele>
        <time>2021-07-24T17:57:09Z</time>
      </trkpt>
      <trkpt lat="49.1676" lon="5.38651">
        <ele>203.46</ele>
        <time>2021-07-24T17:57:10Z</time>
      </trkpt>
      <trkpt lat="49.16758" lon="5.38641">
        <ele>203.94</ele>
        <time>2021-07-24T17:57:11Z</time>
      </trkpt>
      <trkpt lat="49.16755" lon="5.38621">
        <ele>203.94</ele>
        <time>2021-07-24T17:57:12Z</time>
      </trkpt>
      <trkpt lat="49.16744" lon="5.38524">
        <ele>202.98</ele>
        <time>2021-07-24T17:57:22Z</time>
      </trkpt>
      <trkpt lat="49.16743" lon="5.38516">
        <ele>202.98</ele>
        <time>2021-07-24T17:57:23Z</time>
      </trkpt>
      <trkpt lat="49.16742" lon="5.38511">
        <ele>203.46</ele>
        <time>2021-07-24T17:57:24Z</time>
      </trkpt>
      <trkpt lat="49.16742" lon="5.3851">
        <ele>202.98</ele>
        <time>2021-07-24T17:57:25Z</time>
      </trkpt>
      <trkpt lat="49.16748" lon="5.38508">
        <ele>202.98</ele>
        <time>2021-07-24T17:57:26Z</time>
      </trkpt>
      <trkpt lat="49.16757" lon="5.38494">
        <ele>202.98</ele>
        <time>2021-07-24T17:57:28Z</time>
      </trkpt>
      <trkpt lat="49.16757" lon="5.38494">
        <ele>202.49</ele>
        <time>2021-07-24T17:57:29Z</time>
      </trkpt>
      <trkpt lat="49.16756" lon="5.38484">
        <ele>202.49</ele>
        <time>2021-07-24T17:57:30Z</time>
      </trkpt>
      <trkpt lat="49.16755" lon="5.38478">
        <ele>202.49</ele>
        <time>2021-07-24T17:57:31Z</time>
      </trkpt>
      <trkpt lat="49.16748" lon="5.38472">
        <ele>202.01</ele>
        <time>2021-07-24T17:57:32Z</time>
      </trkpt>
      <trkpt lat="49.16744" lon="5.38473">
        <ele>202.01</ele>
        <time>2021-07-24T17:57:33Z</time>
      </trkpt>
      <trkpt lat="49.16735" lon="5.38472">
        <ele>201.53</ele>
        <time>2021-07-24T17:57:35Z</time>
      </trkpt>
      <trkpt lat="49.16731" lon="5.38468">
        <ele>201.05</ele>
        <time>2021-07-24T17:57:36Z</time>
      </trkpt>
      <trkpt lat="49.16682" lon="5.38388">
        <ele>199.13</ele>
        <time>2021-07-24T17:57:46Z</time>
      </trkpt>
      <trkpt lat="49.16588" lon="5.38246">
        <ele>203.46</ele>
        <time>2021-07-24T17:57:57Z</time>
      </trkpt>
      <trkpt lat="49.16539" lon="5.38175">
        <ele>206.82</ele>
        <time>2021-07-24T17:58:06Z</time>
      </trkpt>
      <trkpt lat="49.16528" lon="5.38149">
        <ele>208.26</ele>
        <time>2021-07-24T17:58:14Z</time>
      </trkpt>
      <trkpt lat="49.16514" lon="5.38146">
        <ele>207.78</ele>
        <time>2021-07-24T17:58:16Z</time>
      </trkpt>
      <trkpt lat="49.16514" lon="5.38146">
        <ele>207.3</ele>
        <time>2021-07-24T17:58:17Z</time>
      </trkpt>
      <trkpt lat="49.16511" lon="5.38139">
        <ele>207.3</ele>
        <time>2021-07-24T17:58:18Z</time>
      </trkpt>
      <trkpt lat="49.16505" lon="5.3812">
        <ele>207.78</ele>
        <time>2021-07-24T17:58:19Z</time>
      </trkpt>
      <trkpt lat="49.16505" lon="5.3812">
        <ele>207.3</ele>
        <time>2021-07-24T17:58:20Z</time>
      </trkpt>
      <trkpt lat="49.16448" lon="5.37986">
        <ele>210.19</ele>
        <time>2021-07-24T17:58:31Z</time>
      </trkpt>
      <trkpt lat="49.16394" lon="5.37895">
        <ele>209.7</ele>
        <time>2021-07-24T17:58:41Z</time>
      </trkpt>
      <trkpt lat="49.16315" lon="5.37746">
        <ele>213.07</ele>
        <time>2021-07-24T17:58:53Z</time>
      </trkpt>
      <trkpt lat="49.16289" lon="5.37624">
        <ele>213.55</ele>
        <time>2021-07-24T17:59:02Z</time>
      </trkpt>
      <trkpt lat="49.16288" lon="5.37616">
        <ele>213.55</ele>
        <time>2021-07-24T17:59:03Z</time>
      </trkpt>
      <trkpt lat="49.16288" lon="5.37609">
        <ele>212.59</ele>
        <time>2021-07-24T17:59:05Z</time>
      </trkpt>
      <trkpt lat="49.16296" lon="5.37591">
        <ele>212.59</ele>
        <time>2021-07-24T17:59:06Z</time>
      </trkpt>
      <trkpt lat="49.16294" lon="5.37583">
        <ele>212.59</ele>
        <time>2021-07-24T17:59:07Z</time>
      </trkpt>
      <trkpt lat="49.16284" lon="5.37569">
        <ele>212.11</ele>
        <time>2021-07-24T17:59:09Z</time>
      </trkpt>
      <trkpt lat="49.16281" lon="5.37559">
        <ele>212.11</ele>
        <time>2021-07-24T17:59:10Z</time>
      </trkpt>
      <trkpt lat="49.16279" lon="5.37549">
        <ele>211.63</ele>
        <time>2021-07-24T17:59:11Z</time>
      </trkpt>
      <trkpt lat="49.16279" lon="5.37538">
        <ele>211.63</ele>
        <time>2021-07-24T17:59:12Z</time>
      </trkpt>
      <trkpt lat="49.16279" lon="5.37526">
        <ele>211.63</ele>
        <time>2021-07-24T17:59:13Z</time>
      </trkpt>
      <trkpt lat="49.16279" lon="5.37515">
        <ele>211.63</ele>
        <time>2021-07-24T17:59:14Z</time>
      </trkpt>
      <trkpt lat="49.16282" lon="5.37504">
        <ele>210.67</ele>
        <time>2021-07-24T17:59:15Z</time>
      </trkpt>
      <trkpt lat="49.16291" lon="5.37482">
        <ele>210.19</ele>
        <time>2021-07-24T17:59:16Z</time>
      </trkpt>
      <trkpt lat="49.16291" lon="5.37482">
        <ele>207.78</ele>
        <time>2021-07-24T17:59:17Z</time>
      </trkpt>
      <trkpt lat="49.16295" lon="5.3747">
        <ele>208.74</ele>
        <time>2021-07-24T17:59:18Z</time>
      </trkpt>
      <trkpt lat="49.16314" lon="5.3746">
        <ele>208.74</ele>
        <time>2021-07-24T17:59:19Z</time>
      </trkpt>
      <trkpt lat="49.16324" lon="5.37457">
        <ele>208.74</ele>
        <time>2021-07-24T17:59:20Z</time>
      </trkpt>
      <trkpt lat="49.16324" lon="5.37457">
        <ele>209.7</ele>
        <time>2021-07-24T17:59:21Z</time>
      </trkpt>
      <trkpt lat="49.16333" lon="5.37458">
        <ele>210.19</ele>
        <time>2021-07-24T17:59:22Z</time>
      </trkpt>
      <trkpt lat="49.16414" lon="5.37453">
        <ele>209.7</ele>
        <time>2021-07-24T17:59:30Z</time>
      </trkpt>
      <trkpt lat="49.16414" lon="5.37453">
        <ele>209.22</ele>
        <time>2021-07-24T17:59:31Z</time>
      </trkpt>
      <trkpt lat="49.16422" lon="5.37443">
        <ele>209.22</ele>
        <time>2021-07-24T17:59:32Z</time>
      </trkpt>
      <trkpt lat="49.16429" lon="5.37435">
        <ele>208.74</ele>
        <time>2021-07-24T17:59:33Z</time>
      </trkpt>
      <trkpt lat="49.16436" lon="5.37427">
        <ele>208.26</ele>
        <time>2021-07-24T17:59:34Z</time>
      </trkpt>
      <trkpt lat="49.16438" lon="5.37419">
        <ele>208.26</ele>
        <time>2021-07-24T17:59:35Z</time>
      </trkpt>
      <trkpt lat="49.1644" lon="5.37405">
        <ele>209.22</ele>
        <time>2021-07-24T17:59:36Z</time>
      </trkpt>
      <trkpt lat="49.16441" lon="5.3739">
        <ele>209.22</ele>
        <time>2021-07-24T17:59:37Z</time>
      </trkpt>
      <trkpt lat="49.16441" lon="5.37376">
        <ele>210.19</ele>
        <time>2021-07-24T17:59:38Z</time>
      </trkpt>
      <trkpt lat="49.16438" lon="5.3736">
        <ele>210.19</ele>
        <time>2021-07-24T17:59:39Z</time>
      </trkpt>
      <trkpt lat="49.16386" lon="5.37197">
        <ele>208.74</ele>
        <time>2021-07-24T17:59:50Z</time>
      </trkpt>
      <trkpt lat="49.16379" lon="5.37179">
        <ele>208.26</ele>
        <time>2021-07-24T17:59:52Z</time>
      </trkpt>
      <trkpt lat="49.16378" lon="5.37171">
        <ele>207.3</ele>
        <time>2021-07-24T17:59:53Z</time>
      </trkpt>
      <trkpt lat="49.16377" lon="5.37164">
        <ele>206.82</ele>
        <time>2021-07-24T17:59:54Z</time>
      </trkpt>
      <trkpt lat="49.16383" lon="5.37146">
        <ele>205.86</ele>
        <time>2021-07-24T17:59:57Z</time>
      </trkpt>
      <trkpt lat="49.16387" lon="5.37129">
        <ele>205.38</ele>
        <time>2021-07-24T17:59:58Z</time>
      </trkpt>
      <trkpt lat="49.16382" lon="5.3712">
        <ele>205.38</ele>
        <time>2021-07-24T17:59:59Z</time>
      </trkpt>
      <trkpt lat="49.16382" lon="5.3712">
        <ele>205.38</ele>
        <time>2021-07-24T18:00:00Z</time>
      </trkpt>
      <trkpt lat="49.16379" lon="5.37097">
        <ele>205.38</ele>
        <time>2021-07-24T18:00:01Z</time>
      </trkpt>
      <trkpt lat="49.16378" lon="5.37086">
        <ele>205.38</ele>
        <time>2021-07-24T18:00:02Z</time>
      </trkpt>
      <trkpt lat="49.16378" lon="5.37086">
        <ele>205.38</ele>
        <time>2021-07-24T18:00:03Z</time>
      </trkpt>
      <trkpt lat="49.16374" lon="5.37061">
        <ele>204.9</ele>
        <time>2021-07-24T18:00:04Z</time>
      </trkpt>
      <trkpt lat="49.16374" lon="5.37061">
        <ele>204.9</ele>
        <time>2021-07-24T18:00:05Z</time>
      </trkpt>
      <trkpt lat="49.16372" lon="5.37047">
        <ele>204.42</ele>
        <time>2021-07-24T18:00:06Z</time>
      </trkpt>
      <trkpt lat="49.16369" lon="5.36863">
        <ele>201.05</ele>
        <time>2021-07-24T18:00:17Z</time>
      </trkpt>
      <trkpt lat="49.16372" lon="5.36788">
        <ele>201.53</ele>
        <time>2021-07-24T18:00:21Z</time>
      </trkpt>
      <trkpt lat="49.16372" lon="5.36788">
        <ele>201.53</ele>
        <time>2021-07-24T18:00:22Z</time>
      </trkpt>
      <trkpt lat="49.16374" lon="5.36774">
        <ele>201.05</ele>
        <time>2021-07-24T18:00:23Z</time>
      </trkpt>
      <trkpt lat="49.16391" lon="5.36684">
        <ele>200.57</ele>
        <time>2021-07-24T18:00:31Z</time>
      </trkpt>
      <trkpt lat="49.16397" lon="5.36663">
        <ele>201.53</ele>
        <time>2021-07-24T18:00:36Z</time>
      </trkpt>
      <trkpt lat="49.16405" lon="5.36652">
        <ele>201.53</ele>
        <time>2021-07-24T18:00:37Z</time>
      </trkpt>
      <trkpt lat="49.16411" lon="5.36627">
        <ele>202.01</ele>
        <time>2021-07-24T18:00:40Z</time>
      </trkpt>
      <trkpt lat="49.16413" lon="5.3662">
        <ele>202.01</ele>
        <time>2021-07-24T18:00:41Z</time>
      </trkpt>
      <trkpt lat="49.16412" lon="5.36609">
        <ele>202.01</ele>
        <time>2021-07-24T18:00:42Z</time>
      </trkpt>
      <trkpt lat="49.1641" lon="5.36605">
        <ele>202.01</ele>
        <time>2021-07-24T18:00:43Z</time>
      </trkpt>
      <trkpt lat="49.16404" lon="5.36595">
        <ele>202.49</ele>
        <time>2021-07-24T18:00:44Z</time>
      </trkpt>
      <trkpt lat="49.16405" lon="5.36586">
        <ele>202.98</ele>
        <time>2021-07-24T18:00:45Z</time>
      </trkpt>
      <trkpt lat="49.16406" lon="5.36577">
        <ele>203.46</ele>
        <time>2021-07-24T18:00:46Z</time>
      </trkpt>
      <trkpt lat="49.16414" lon="5.36501">
        <ele>206.34</ele>
        <time>2021-07-24T18:00:52Z</time>
      </trkpt>
      <trkpt lat="49.16418" lon="5.36488">
        <ele>206.34</ele>
        <time>2021-07-24T18:00:53Z</time>
      </trkpt>
      <trkpt lat="49.16453" lon="5.36386">
        <ele>207.3</ele>
        <time>2021-07-24T18:01:02Z</time>
      </trkpt>
      <trkpt lat="49.16509" lon="5.36237">
        <ele>207.3</ele>
        <time>2021-07-24T18:01:15Z</time>
      </trkpt>
      <trkpt lat="49.16595" lon="5.36004">
        <ele>205.38</ele>
        <time>2021-07-24T18:01:30Z</time>
      </trkpt>
      <trkpt lat="49.16698" lon="5.35727">
        <ele>202.49</ele>
        <time>2021-07-24T18:01:48Z</time>
      </trkpt>
      <trkpt lat="49.16819" lon="5.3541">
        <ele>202.01</ele>
        <time>2021-07-24T18:02:08Z</time>
      </trkpt>
      <trkpt lat="49.16925" lon="5.35276">
        <ele>198.17</ele>
        <time>2021-07-24T18:02:19Z</time>
      </trkpt>
      <trkpt lat="49.16989" lon="5.35208">
        <ele>198.17</ele>
        <time>2021-07-24T18:02:27Z</time>
      </trkpt>
      <trkpt lat="49.16992" lon="5.35206">
        <ele>198.17</ele>
        <time>2021-07-24T18:02:28Z</time>
      </trkpt>
      <trkpt lat="49.16996" lon="5.35204">
        <ele>198.17</ele>
        <time>2021-07-24T18:02:29Z</time>
      </trkpt>
      <trkpt lat="49.16999" lon="5.35204">
        <ele>198.65</ele>
        <time>2021-07-24T18:02:30Z</time>
      </trkpt>
      <trkpt lat="49.17011" lon="5.35191">
        <ele>198.65</ele>
        <time>2021-07-24T18:02:31Z</time>
      </trkpt>
      <trkpt lat="49.17011" lon="5.35191">
        <ele>198.65</ele>
        <time>2021-07-24T18:02:32Z</time>
      </trkpt>
      <trkpt lat="49.17056" lon="5.35135">
        <ele>198.17</ele>
        <time>2021-07-24T18:02:40Z</time>
      </trkpt>
      <trkpt lat="49.17167" lon="5.35013">
        <ele>196.25</ele>
        <time>2021-07-24T18:02:51Z</time>
      </trkpt>
      <trkpt lat="49.1733" lon="5.34837">
        <ele>193.36</ele>
        <time>2021-07-24T18:03:04Z</time>
      </trkpt>
      <trkpt lat="49.17524" lon="5.34624">
        <ele>193.36</ele>
        <time>2021-07-24T18:03:22Z</time>
      </trkpt>
      <trkpt lat="49.17715" lon="5.34412">
        <ele>191.92</ele>
        <time>2021-07-24T18:03:36Z</time>
      </trkpt>
      <trkpt lat="49.18138" lon="5.33948">
        <ele>193.84</ele>
        <time>2021-07-24T18:04:05Z</time>
      </trkpt>
      <trkpt lat="49.18437" lon="5.33618">
        <ele>195.28</ele>
        <time>2021-07-24T18:04:26Z</time>
      </trkpt>
      <trkpt lat="49.18472" lon="5.33588">
        <ele>195.77</ele>
        <time>2021-07-24T18:04:29Z</time>
      </trkpt>
      <trkpt lat="49.18484" lon="5.3358">
        <ele>196.25</ele>
        <time>2021-07-24T18:04:30Z</time>
      </trkpt>
      <trkpt lat="49.18496" lon="5.33572">
        <ele>195.77</ele>
        <time>2021-07-24T18:04:31Z</time>
      </trkpt>
      <trkpt lat="49.1851" lon="5.33571">
        <ele>195.28</ele>
        <time>2021-07-24T18:04:32Z</time>
      </trkpt>
      <trkpt lat="49.18524" lon="5.33571">
        <ele>195.28</ele>
        <time>2021-07-24T18:04:33Z</time>
      </trkpt>
      <trkpt lat="49.18538" lon="5.33572">
        <ele>195.28</ele>
        <time>2021-07-24T18:04:34Z</time>
      </trkpt>
      <trkpt lat="49.18551" lon="5.33581">
        <ele>195.28</ele>
        <time>2021-07-24T18:04:35Z</time>
      </trkpt>
      <trkpt lat="49.18564" lon="5.33591">
        <ele>195.28</ele>
        <time>2021-07-24T18:04:36Z</time>
      </trkpt>
      <trkpt lat="49.18575" lon="5.33604">
        <ele>195.28</ele>
        <time>2021-07-24T18:04:37Z</time>
      </trkpt>
      <trkpt lat="49.18586" lon="5.33619">
        <ele>195.28</ele>
        <time>2021-07-24T18:04:38Z</time>
      </trkpt>
      <trkpt lat="49.18597" lon="5.33636">
        <ele>195.77</ele>
        <time>2021-07-24T18:04:39Z</time>
      </trkpt>
      <trkpt lat="49.18755" lon="5.33898">
        <ele>196.73</ele>
        <time>2021-07-24T18:04:53Z</time>
      </trkpt>
      <trkpt lat="49.18879" lon="5.34087">
        <ele>198.17</ele>
        <time>2021-07-24T18:05:04Z</time>
      </trkpt>
      <trkpt lat="49.18892" lon="5.34101">
        <ele>197.69</ele>
        <time>2021-07-24T18:05:05Z</time>
      </trkpt>
      <trkpt lat="49.18907" lon="5.34111">
        <ele>197.21</ele>
        <time>2021-07-24T18:05:06Z</time>
      </trkpt>
      <trkpt lat="49.18921" lon="5.34117">
        <ele>197.69</ele>
        <time>2021-07-24T18:05:07Z</time>
      </trkpt>
      <trkpt lat="49.18935" lon="5.34123">
        <ele>197.69</ele>
        <time>2021-07-24T18:05:08Z</time>
      </trkpt>
      <trkpt lat="49.18949" lon="5.34128">
        <ele>197.69</ele>
        <time>2021-07-24T18:05:09Z</time>
      </trkpt>
      <trkpt lat="49.19251" lon="5.34189">
        <ele>199.61</ele>
        <time>2021-07-24T18:05:28Z</time>
      </trkpt>
      <trkpt lat="49.19268" lon="5.34189">
        <ele>199.13</ele>
        <time>2021-07-24T18:05:29Z</time>
      </trkpt>
      <trkpt lat="49.19303" lon="5.34185">
        <ele>198.65</ele>
        <time>2021-07-24T18:05:30Z</time>
      </trkpt>
      <trkpt lat="49.19385" lon="5.34165">
        <ele>198.17</ele>
        <time>2021-07-24T18:05:36Z</time>
      </trkpt>
      <trkpt lat="49.19416" lon="5.34173">
        <ele>199.13</ele>
        <time>2021-07-24T18:05:37Z</time>
      </trkpt>
      <trkpt lat="49.19416" lon="5.34173">
        <ele>200.57</ele>
        <time>2021-07-24T18:05:38Z</time>
      </trkpt>
      <trkpt lat="49.19432" lon="5.34178">
        <ele>200.09</ele>
        <time>2021-07-24T18:05:39Z</time>
      </trkpt>
      <trkpt lat="49.19446" lon="5.34188">
        <ele>199.61</ele>
        <time>2021-07-24T18:05:40Z</time>
      </trkpt>
      <trkpt lat="49.1946" lon="5.34199">
        <ele>199.61</ele>
        <time>2021-07-24T18:05:41Z</time>
      </trkpt>
      <trkpt lat="49.19487" lon="5.34222">
        <ele>200.09</ele>
        <time>2021-07-24T18:05:42Z</time>
      </trkpt>
      <trkpt lat="49.19487" lon="5.34222">
        <ele>200.57</ele>
        <time>2021-07-24T18:05:43Z</time>
      </trkpt>
      <trkpt lat="49.19499" lon="5.34237">
        <ele>200.57</ele>
        <time>2021-07-24T18:05:44Z</time>
      </trkpt>
      <trkpt lat="49.19679" lon="5.34463">
        <ele>203.94</ele>
        <time>2021-07-24T18:05:57Z</time>
      </trkpt>
      <trkpt lat="49.19761" lon="5.34641">
        <ele>203.94</ele>
        <time>2021-07-24T18:06:05Z</time>
      </trkpt>
      <trkpt lat="49.19816" lon="5.34746">
        <ele>206.82</ele>
        <time>2021-07-24T18:06:09Z</time>
      </trkpt>
      <trkpt lat="49.19829" lon="5.3476">
        <ele>207.78</ele>
        <time>2021-07-24T18:06:10Z</time>
      </trkpt>
      <trkpt lat="49.19829" lon="5.3476">
        <ele>207.78</ele>
        <time>2021-07-24T18:06:11Z</time>
      </trkpt>
      <trkpt lat="49.1998" lon="5.34928">
        <ele>218.36</ele>
        <time>2021-07-24T18:06:22Z</time>
      </trkpt>
      <trkpt lat="49.20139" lon="5.35125">
        <ele>214.03</ele>
        <time>2021-07-24T18:06:35Z</time>
      </trkpt>
      <trkpt lat="49.20315" lon="5.35353">
        <ele>202.01</ele>
        <time>2021-07-24T18:06:49Z</time>
      </trkpt>
      <trkpt lat="49.20372" lon="5.35456">
        <ele>200.09</ele>
        <time>2021-07-24T18:06:56Z</time>
      </trkpt>
      <trkpt lat="49.20438" lon="5.35585">
        <ele>198.65</ele>
        <time>2021-07-24T18:07:08Z</time>
      </trkpt>
      <trkpt lat="49.20452" lon="5.35614">
        <ele>199.13</ele>
        <time>2021-07-24T18:07:15Z</time>
      </trkpt>
      <trkpt lat="49.20458" lon="5.35617">
        <ele>199.61</ele>
        <time>2021-07-24T18:07:16Z</time>
      </trkpt>
      <trkpt lat="49.20461" lon="5.35613">
        <ele>199.61</ele>
        <time>2021-07-24T18:07:17Z</time>
      </trkpt>
      <trkpt lat="49.20465" lon="5.3561">
        <ele>199.61</ele>
        <time>2021-07-24T18:07:18Z</time>
      </trkpt>
      <trkpt lat="49.20468" lon="5.35605">
        <ele>200.09</ele>
        <time>2021-07-24T18:07:19Z</time>
      </trkpt>
      <trkpt lat="49.20529" lon="5.35525">
        <ele>205.38</ele>
        <time>2021-07-24T18:07:30Z</time>
      </trkpt>
      <trkpt lat="49.20645" lon="5.35377">
        <ele>210.19</ele>
        <time>2021-07-24T18:07:43Z</time>
      </trkpt>
      <trkpt lat="49.20758" lon="5.35184">
        <ele>211.63</ele>
        <time>2021-07-24T18:07:54Z</time>
      </trkpt>
      <trkpt lat="49.20891" lon="5.34981">
        <ele>208.26</ele>
        <time>2021-07-24T18:08:04Z</time>
      </trkpt>
      <trkpt lat="49.21042" lon="5.34756">
        <ele>209.7</ele>
        <time>2021-07-24T18:08:15Z</time>
      </trkpt>
      <trkpt lat="49.21051" lon="5.34734">
        <ele>209.22</ele>
        <time>2021-07-24T18:08:16Z</time>
      </trkpt>
      <trkpt lat="49.2106" lon="5.34709">
        <ele>208.26</ele>
        <time>2021-07-24T18:08:17Z</time>
      </trkpt>
      <trkpt lat="49.21066" lon="5.34684">
        <ele>207.78</ele>
        <time>2021-07-24T18:08:18Z</time>
      </trkpt>
      <trkpt lat="49.21072" lon="5.34657">
        <ele>208.26</ele>
        <time>2021-07-24T18:08:19Z</time>
      </trkpt>
      <trkpt lat="49.21137" lon="5.34294">
        <ele>206.82</ele>
        <time>2021-07-24T18:08:32Z</time>
      </trkpt>
      <trkpt lat="49.21156" lon="5.34031">
        <ele>209.7</ele>
        <time>2021-07-24T18:08:41Z</time>
      </trkpt>
      <trkpt lat="49.2115" lon="5.33614">
        <ele>205.38</ele>
        <time>2021-07-24T18:08:55Z</time>
      </trkpt>
      <trkpt lat="49.21144" lon="5.33588">
        <ele>204.9</ele>
        <time>2021-07-24T18:08:56Z</time>
      </trkpt>
      <trkpt lat="49.21068" lon="5.33191">
        <ele>198.65</ele>
        <time>2021-07-24T18:09:10Z</time>
      </trkpt>
      <trkpt lat="49.21021" lon="5.3282">
        <ele>196.73</ele>
        <time>2021-07-24T18:09:23Z</time>
      </trkpt>
      <trkpt lat="49.21013" lon="5.32589">
        <ele>200.09</ele>
        <time>2021-07-24T18:09:31Z</time>
      </trkpt>
      <trkpt lat="49.20994" lon="5.32376">
        <ele>198.65</ele>
        <time>2021-07-24T18:09:39Z</time>
      </trkpt>
      <trkpt lat="49.20961" lon="5.32122">
        <ele>194.8</ele>
        <time>2021-07-24T18:09:48Z</time>
      </trkpt>
      <trkpt lat="49.20952" lon="5.31746">
        <ele>192.88</ele>
        <time>2021-07-24T18:10:01Z</time>
      </trkpt>
      <trkpt lat="49.2096" lon="5.31428">
        <ele>196.25</ele>
        <time>2021-07-24T18:10:12Z</time>
      </trkpt>
      <trkpt lat="49.20975" lon="5.31199">
        <ele>192.88</ele>
        <time>2021-07-24T18:10:20Z</time>
      </trkpt>
      <trkpt lat="49.20998" lon="5.31093">
        <ele>194.8</ele>
        <time>2021-07-24T18:10:24Z</time>
      </trkpt>
      <trkpt lat="49.21003" lon="5.31069">
        <ele>195.28</ele>
        <time>2021-07-24T18:10:25Z</time>
      </trkpt>
      <trkpt lat="49.21006" lon="5.31045">
        <ele>195.77</ele>
        <time>2021-07-24T18:10:26Z</time>
      </trkpt>
      <trkpt lat="49.21002" lon="5.30856">
        <ele>195.77</ele>
        <time>2021-07-24T18:10:34Z</time>
      </trkpt>
      <trkpt lat="49.21008" lon="5.3079">
        <ele>192.88</ele>
        <time>2021-07-24T18:10:40Z</time>
      </trkpt>
      <trkpt lat="49.21038" lon="5.30684">
        <ele>191.92</ele>
        <time>2021-07-24T18:10:50Z</time>
      </trkpt>
      <trkpt lat="49.21103" lon="5.30531">
        <ele>190.96</ele>
        <time>2021-07-24T18:11:04Z</time>
      </trkpt>
      <trkpt lat="49.21144" lon="5.30441">
        <ele>190.96</ele>
        <time>2021-07-24T18:11:16Z</time>
      </trkpt>
      <trkpt lat="49.21168" lon="5.30349">
        <ele>190.48</ele>
        <time>2021-07-24T18:11:24Z</time>
      </trkpt>
      <trkpt lat="49.21169" lon="5.30337">
        <ele>190.48</ele>
        <time>2021-07-24T18:11:25Z</time>
      </trkpt>
      <trkpt lat="49.21167" lon="5.30326">
        <ele>190.48</ele>
        <time>2021-07-24T18:11:26Z</time>
      </trkpt>
      <trkpt lat="49.21164" lon="5.30314">
        <ele>190</ele>
        <time>2021-07-24T18:11:27Z</time>
      </trkpt>
      <trkpt lat="49.21162" lon="5.30303">
        <ele>190</ele>
        <time>2021-07-24T18:11:28Z</time>
      </trkpt>
      <trkpt lat="49.21159" lon="5.30293">
        <ele>190</ele>
        <time>2021-07-24T18:11:29Z</time>
      </trkpt>
      <trkpt lat="49.21138" lon="5.3024">
        <ele>190</ele>
        <time>2021-07-24T18:11:34Z</time>
      </trkpt>
      <trkpt lat="49.21134" lon="5.30229">
        <ele>190</ele>
        <time>2021-07-24T18:11:35Z</time>
      </trkpt>
      <trkpt lat="49.21133" lon="5.30216">
        <ele>189.52</ele>
        <time>2021-07-24T18:11:36Z</time>
      </trkpt>
      <trkpt lat="49.21133" lon="5.30204">
        <ele>189.04</ele>
        <time>2021-07-24T18:11:37Z</time>
      </trkpt>
      <trkpt lat="49.21135" lon="5.30194">
        <ele>189.04</ele>
        <time>2021-07-24T18:11:38Z</time>
      </trkpt>
      <trkpt lat="49.21137" lon="5.30182">
        <ele>189.04</ele>
        <time>2021-07-24T18:11:39Z</time>
      </trkpt>
      <trkpt lat="49.21139" lon="5.30171">
        <ele>189.52</ele>
        <time>2021-07-24T18:11:40Z</time>
      </trkpt>
      <trkpt lat="49.21143" lon="5.3016">
        <ele>190</ele>
        <time>2021-07-24T18:11:41Z</time>
      </trkpt>
      <trkpt lat="49.21171" lon="5.30049">
        <ele>191.44</ele>
        <time>2021-07-24T18:11:51Z</time>
      </trkpt>
      <trkpt lat="49.21182" lon="5.29974">
        <ele>192.88</ele>
        <time>2021-07-24T18:12:03Z</time>
      </trkpt>
      <trkpt lat="49.21182" lon="5.2997">
        <ele>192.88</ele>
        <time>2021-07-24T18:12:05Z</time>
      </trkpt>
      <trkpt lat="49.21182" lon="5.29969">
        <ele>192.88</ele>
        <time>2021-07-24T18:12:06Z</time>
      </trkpt>
      <trkpt lat="49.21183" lon="5.29966">
        <ele>193.36</ele>
        <time>2021-07-24T18:12:07Z</time>
      </trkpt>
      <trkpt lat="49.21183" lon="5.29964">
        <ele>193.36</ele>
        <time>2021-07-24T18:12:08Z</time>
      </trkpt>
      <trkpt lat="49.21183" lon="5.29962">
        <ele>193.36</ele>
        <time>2021-07-24T18:12:09Z</time>
      </trkpt>
    </trkseg>
  </trk>
  <trk>
    <name><![CDATA[Journal actif: 2021-07-25 10:30]]></name>
    <trkseg>
      <trkpt lat="49.2112" lon="5.29805">
        <ele>198.65</ele>
        <time>2021-07-25T12:30:52Z</time>
      </trkpt>
      <trkpt lat="49.21119" lon="5.29799">
        <ele>194.8</ele>
        <time>2021-07-25T12:31:28Z</time>
      </trkpt>
      <trkpt lat="49.21117" lon="5.29822">
        <ele>194.32</ele>
        <time>2021-07-25T12:31:37Z</time>
      </trkpt>
      <trkpt lat="49.21105" lon="5.29866">
        <ele>194.32</ele>
        <time>2021-07-25T12:31:56Z</time>
      </trkpt>
      <trkpt lat="49.21106" lon="5.29865">
        <ele>193.84</ele>
        <time>2021-07-25T12:34:03Z</time>
      </trkpt>
      <trkpt lat="49.21102" lon="5.29899">
        <ele>193.84</ele>
        <time>2021-07-25T12:35:49Z</time>
      </trkpt>
      <trkpt lat="49.21115" lon="5.29952">
        <ele>194.32</ele>
        <time>2021-07-25T12:36:06Z</time>
      </trkpt>
      <trkpt lat="49.21123" lon="5.29956">
        <ele>193.84</ele>
        <time>2021-07-25T12:36:21Z</time>
      </trkpt>
      <trkpt lat="49.21124" lon="5.29956">
        <ele>193.84</ele>
        <time>2021-07-25T12:38:02Z</time>
      </trkpt>
      <trkpt lat="49.21126" lon="5.29954">
        <ele>193.36</ele>
        <time>2021-07-25T12:38:16Z</time>
      </trkpt>
      <trkpt lat="49.21125" lon="5.29955">
        <ele>193.36</ele>
        <time>2021-07-25T12:38:41Z</time>
      </trkpt>
      <trkpt lat="49.21124" lon="5.29956">
        <ele>193.84</ele>
        <time>2021-07-25T12:39:17Z</time>
      </trkpt>
      <trkpt lat="49.21124" lon="5.29957">
        <ele>193.36</ele>
        <time>2021-07-25T12:42:04Z</time>
      </trkpt>
      <trkpt lat="49.21131" lon="5.29955">
        <ele>193.36</ele>
        <time>2021-07-25T12:43:27Z</time>
      </trkpt>
      <trkpt lat="49.21137" lon="5.29955">
        <ele>192.88</ele>
        <time>2021-07-25T12:43:43Z</time>
      </trkpt>
      <trkpt lat="49.21153" lon="5.29952">
        <ele>192.4</ele>
        <time>2021-07-25T12:43:53Z</time>
      </trkpt>
      <trkpt lat="49.21181" lon="5.29964">
        <ele>190.48</ele>
        <time>2021-07-25T12:44:08Z</time>
      </trkpt>
      <trkpt lat="49.21183" lon="5.29962">
        <ele>190</ele>
        <time>2021-07-25T12:44:11Z</time>
      </trkpt>
      <trkpt lat="49.21184" lon="5.29959">
        <ele>190</ele>
        <time>2021-07-25T12:44:12Z</time>
      </trkpt>
      <trkpt lat="49.21184" lon="5.29955">
        <ele>190</ele>
        <time>2021-07-25T12:44:13Z</time>
      </trkpt>
      <trkpt lat="49.21185" lon="5.2995">
        <ele>190</ele>
        <time>2021-07-25T12:44:14Z</time>
      </trkpt>
      <trkpt lat="49.21186" lon="5.29944">
        <ele>190</ele>
        <time>2021-07-25T12:44:15Z</time>
      </trkpt>
      <trkpt lat="49.21207" lon="5.29846">
        <ele>189.04</ele>
        <time>2021-07-25T12:44:25Z</time>
      </trkpt>
      <trkpt lat="49.21244" lon="5.29681">
        <ele>190</ele>
        <time>2021-07-25T12:44:37Z</time>
      </trkpt>
      <trkpt lat="49.21286" lon="5.29434">
        <ele>187.11</ele>
        <time>2021-07-25T12:44:52Z</time>
      </trkpt>
      <trkpt lat="49.21356" lon="5.29177">
        <ele>189.52</ele>
        <time>2021-07-25T12:45:06Z</time>
      </trkpt>
      <trkpt lat="49.21364" lon="5.29164">
        <ele>189.04</ele>
        <time>2021-07-25T12:45:07Z</time>
      </trkpt>
      <trkpt lat="49.2138" lon="5.29139">
        <ele>188.56</ele>
        <time>2021-07-25T12:45:08Z</time>
      </trkpt>
      <trkpt lat="49.21389" lon="5.29125">
        <ele>188.08</ele>
        <time>2021-07-25T12:45:09Z</time>
      </trkpt>
      <trkpt lat="49.21389" lon="5.29125">
        <ele>188.08</ele>
        <time>2021-07-25T12:45:10Z</time>
      </trkpt>
      <trkpt lat="49.21554" lon="5.28933">
        <ele>188.08</ele>
        <time>2021-07-25T12:45:25Z</time>
      </trkpt>
      <trkpt lat="49.21685" lon="5.28752">
        <ele>189.52</ele>
        <time>2021-07-25T12:45:39Z</time>
      </trkpt>
      <trkpt lat="49.21817" lon="5.28567">
        <ele>189.04</ele>
        <time>2021-07-25T12:45:52Z</time>
      </trkpt>
      <trkpt lat="49.21926" lon="5.28415">
        <ele>190.48</ele>
        <time>2021-07-25T12:46:03Z</time>
      </trkpt>
      <trkpt lat="49.22025" lon="5.28282">
        <ele>188.56</ele>
        <time>2021-07-25T12:46:14Z</time>
      </trkpt>
      <trkpt lat="49.22082" lon="5.28228">
        <ele>191.44</ele>
        <time>2021-07-25T12:46:24Z</time>
      </trkpt>
      <trkpt lat="49.22094" lon="5.28207">
        <ele>191.92</ele>
        <time>2021-07-25T12:46:33Z</time>
      </trkpt>
      <trkpt lat="49.22092" lon="5.28199">
        <ele>191.92</ele>
        <time>2021-07-25T12:46:36Z</time>
      </trkpt>
      <trkpt lat="49.22091" lon="5.28193">
        <ele>191.92</ele>
        <time>2021-07-25T12:46:37Z</time>
      </trkpt>
      <trkpt lat="49.2209" lon="5.28187">
        <ele>191.92</ele>
        <time>2021-07-25T12:46:38Z</time>
      </trkpt>
      <trkpt lat="49.22086" lon="5.28175">
        <ele>191.44</ele>
        <time>2021-07-25T12:46:40Z</time>
      </trkpt>
      <trkpt lat="49.22061" lon="5.28088">
        <ele>191.44</ele>
        <time>2021-07-25T12:46:53Z</time>
      </trkpt>
      <trkpt lat="49.2203" lon="5.27983">
        <ele>192.4</ele>
        <time>2021-07-25T12:47:05Z</time>
      </trkpt>
      <trkpt lat="49.21976" lon="5.27799">
        <ele>193.84</ele>
        <time>2021-07-25T12:47:19Z</time>
      </trkpt>
      <trkpt lat="49.21912" lon="5.27589">
        <ele>194.32</ele>
        <time>2021-07-25T12:47:32Z</time>
      </trkpt>
      <trkpt lat="49.21844" lon="5.27364">
        <ele>194.8</ele>
        <time>2021-07-25T12:47:46Z</time>
      </trkpt>
      <trkpt lat="49.21796" lon="5.27181">
        <ele>199.13</ele>
        <time>2021-07-25T12:47:59Z</time>
      </trkpt>
      <trkpt lat="49.21795" lon="5.27117">
        <ele>200.09</ele>
        <time>2021-07-25T12:48:06Z</time>
      </trkpt>
      <trkpt lat="49.21797" lon="5.27107">
        <ele>200.09</ele>
        <time>2021-07-25T12:48:07Z</time>
      </trkpt>
      <trkpt lat="49.218" lon="5.27097">
        <ele>200.09</ele>
        <time>2021-07-25T12:48:08Z</time>
      </trkpt>
      <trkpt lat="49.21805" lon="5.27077">
        <ele>200.09</ele>
        <time>2021-07-25T12:48:09Z</time>
      </trkpt>
      <trkpt lat="49.21805" lon="5.27077">
        <ele>200.09</ele>
        <time>2021-07-25T12:48:10Z</time>
      </trkpt>
      <trkpt lat="49.21811" lon="5.27059">
        <ele>200.09</ele>
        <time>2021-07-25T12:48:11Z</time>
      </trkpt>
      <trkpt lat="49.21826" lon="5.27022">
        <ele>199.61</ele>
        <time>2021-07-25T12:48:20Z</time>
      </trkpt>
      <trkpt lat="49.21827" lon="5.27008">
        <ele>199.61</ele>
        <time>2021-07-25T12:48:30Z</time>
      </trkpt>
      <trkpt lat="49.21813" lon="5.26898">
        <ele>200.57</ele>
        <time>2021-07-25T12:48:42Z</time>
      </trkpt>
      <trkpt lat="49.21773" lon="5.26752">
        <ele>201.53</ele>
        <time>2021-07-25T12:48:55Z</time>
      </trkpt>
      <trkpt lat="49.21772" lon="5.26638">
        <ele>202.49</ele>
        <time>2021-07-25T12:49:06Z</time>
      </trkpt>
      <trkpt lat="49.21774" lon="5.26628">
        <ele>202.01</ele>
        <time>2021-07-25T12:49:15Z</time>
      </trkpt>
      <trkpt lat="49.21774" lon="5.26626">
        <ele>202.01</ele>
        <time>2021-07-25T12:49:16Z</time>
      </trkpt>
      <trkpt lat="49.21774" lon="5.26623">
        <ele>202.01</ele>
        <time>2021-07-25T12:49:17Z</time>
      </trkpt>
      <trkpt lat="49.21775" lon="5.2662">
        <ele>202.01</ele>
        <time>2021-07-25T12:49:18Z</time>
      </trkpt>
      <trkpt lat="49.21775" lon="5.26619">
        <ele>202.49</ele>
        <time>2021-07-25T12:49:19Z</time>
      </trkpt>
      <trkpt lat="49.21775" lon="5.26618">
        <ele>202.49</ele>
        <time>2021-07-25T12:49:36Z</time>
      </trkpt>
      <trkpt lat="49.21775" lon="5.26618">
        <ele>202.98</ele>
        <time>2021-07-25T12:52:58Z</time>
      </trkpt>
      <trkpt lat="49.21775" lon="5.26618">
        <ele>202.98</ele>
        <time>2021-07-25T12:58:41Z</time>
      </trkpt>
      <trkpt lat="49.21775" lon="5.26618">
        <ele>203.46</ele>
        <time>2021-07-25T13:02:37Z</time>
      </trkpt>
      <trkpt lat="49.21775" lon="5.26618">
        <ele>202.98</ele>
        <time>2021-07-25T13:06:52Z</time>
      </trkpt>
      <trkpt lat="49.21775" lon="5.26618">
        <ele>202.98</ele>
        <time>2021-07-25T13:18:21Z</time>
      </trkpt>
      <trkpt lat="49.21775" lon="5.26618">
        <ele>202.49</ele>
        <time>2021-07-25T13:21:53Z</time>
      </trkpt>
      <trkpt lat="49.21775" lon="5.26618">
        <ele>202.49</ele>
        <time>2021-07-25T13:28:21Z</time>
      </trkpt>
      <trkpt lat="49.21775" lon="5.26618">
        <ele>202.49</ele>
        <time>2021-07-25T13:32:35Z</time>
      </trkpt>
    </trkseg>
  </trk>
  <trk>
    <name><![CDATA[Journal actif: 2021-07-25 11:32]]></name>
    <trkseg>
      <trkpt lat="49.21775" lon="5.26618">
        <ele>202.49</ele>
        <time>2021-07-25T13:32:46Z</time>
      </trkpt>
      <trkpt lat="49.21775" lon="5.26618">
        <ele>202.49</ele>
        <time>2021-07-25T13:33:35Z</time>
      </trkpt>
      <trkpt lat="49.21775" lon="5.26618">
        <ele>202.49</ele>
        <time>2021-07-25T13:33:45Z</time>
      </trkpt>
      <trkpt lat="49.21775" lon="5.26618">
        <ele>202.49</ele>
        <time>2021-07-25T13:33:46Z</time>
      </trkpt>
      <trkpt lat="49.21775" lon="5.26616">
        <ele>202.01</ele>
        <time>2021-07-25T13:33:59Z</time>
      </trkpt>
      <trkpt lat="49.21767" lon="5.26611">
        <ele>202.01</ele>
        <time>2021-07-25T13:34:03Z</time>
      </trkpt>
      <trkpt lat="49.2173" lon="5.26612">
        <ele>201.53</ele>
        <time>2021-07-25T13:34:18Z</time>
      </trkpt>
      <trkpt lat="49.21717" lon="5.26608">
        <ele>201.53</ele>
        <time>2021-07-25T13:34:45Z</time>
      </trkpt>
      <trkpt lat="49.21681" lon="5.26555">
        <ele>204.9</ele>
        <time>2021-07-25T13:34:55Z</time>
      </trkpt>
      <trkpt lat="49.21608" lon="5.26481">
        <ele>209.7</ele>
        <time>2021-07-25T13:35:06Z</time>
      </trkpt>
      <trkpt lat="49.21511" lon="5.26319">
        <ele>215.95</ele>
        <time>2021-07-25T13:35:21Z</time>
      </trkpt>
      <trkpt lat="49.21475" lon="5.26249">
        <ele>216.91</ele>
        <time>2021-07-25T13:35:30Z</time>
      </trkpt>
      <trkpt lat="49.2145" lon="5.26202">
        <ele>216.91</ele>
        <time>2021-07-25T13:35:42Z</time>
      </trkpt>
      <trkpt lat="49.21413" lon="5.26129">
        <ele>217.88</ele>
        <time>2021-07-25T13:35:51Z</time>
      </trkpt>
      <trkpt lat="49.21317" lon="5.25945">
        <ele>220.28</ele>
        <time>2021-07-25T13:36:05Z</time>
      </trkpt>
      <trkpt lat="49.21171" lon="5.25643">
        <ele>229.89</ele>
        <time>2021-07-25T13:36:25Z</time>
      </trkpt>
      <trkpt lat="49.21079" lon="5.25387">
        <ele>239.51</ele>
        <time>2021-07-25T13:36:41Z</time>
      </trkpt>
      <trkpt lat="49.21055" lon="5.25305">
        <ele>242.39</ele>
        <time>2021-07-25T13:36:46Z</time>
      </trkpt>
      <trkpt lat="49.21052" lon="5.25288">
        <ele>242.87</ele>
        <time>2021-07-25T13:36:47Z</time>
      </trkpt>
      <trkpt lat="49.21039" lon="5.25208">
        <ele>244.31</ele>
        <time>2021-07-25T13:36:52Z</time>
      </trkpt>
      <trkpt lat="49.21036" lon="5.25194">
        <ele>245.27</ele>
        <time>2021-07-25T13:36:53Z</time>
      </trkpt>
      <trkpt lat="49.21031" lon="5.25181">
        <ele>246.23</ele>
        <time>2021-07-25T13:36:54Z</time>
      </trkpt>
      <trkpt lat="49.21027" lon="5.25168">
        <ele>245.75</ele>
        <time>2021-07-25T13:36:55Z</time>
      </trkpt>
      <trkpt lat="49.21021" lon="5.25156">
        <ele>245.75</ele>
        <time>2021-07-25T13:36:56Z</time>
      </trkpt>
      <trkpt lat="49.20934" lon="5.24978">
        <ele>241.43</ele>
        <time>2021-07-25T13:37:08Z</time>
      </trkpt>
      <trkpt lat="49.20884" lon="5.24765">
        <ele>232.78</ele>
        <time>2021-07-25T13:37:19Z</time>
      </trkpt>
      <trkpt lat="49.20815" lon="5.24449">
        <ele>224.12</ele>
        <time>2021-07-25T13:37:34Z</time>
      </trkpt>
      <trkpt lat="49.20737" lon="5.24319">
        <ele>223.64</ele>
        <time>2021-07-25T13:37:42Z</time>
      </trkpt>
      <trkpt lat="49.20625" lon="5.24192">
        <ele>225.57</ele>
        <time>2021-07-25T13:37:53Z</time>
      </trkpt>
      <trkpt lat="49.20615" lon="5.24172">
        <ele>226.53</ele>
        <time>2021-07-25T13:37:55Z</time>
      </trkpt>
      <trkpt lat="49.20609" lon="5.2416">
        <ele>226.53</ele>
        <time>2021-07-25T13:37:56Z</time>
      </trkpt>
      <trkpt lat="49.20604" lon="5.24149">
        <ele>225.57</ele>
        <time>2021-07-25T13:37:57Z</time>
      </trkpt>
      <trkpt lat="49.20603" lon="5.24134">
        <ele>225.09</ele>
        <time>2021-07-25T13:37:58Z</time>
      </trkpt>
      <trkpt lat="49.20601" lon="5.2412">
        <ele>224.61</ele>
        <time>2021-07-25T13:37:59Z</time>
      </trkpt>
      <trkpt lat="49.20598" lon="5.24105">
        <ele>224.61</ele>
        <time>2021-07-25T13:38:00Z</time>
      </trkpt>
      <trkpt lat="49.20596" lon="5.24089">
        <ele>224.61</ele>
        <time>2021-07-25T13:38:01Z</time>
      </trkpt>
      <trkpt lat="49.20598" lon="5.24074">
        <ele>224.61</ele>
        <time>2021-07-25T13:38:02Z</time>
      </trkpt>
      <trkpt lat="49.20601" lon="5.24058">
        <ele>225.09</ele>
        <time>2021-07-25T13:38:03Z</time>
      </trkpt>
      <trkpt lat="49.20648" lon="5.23757">
        <ele>226.53</ele>
        <time>2021-07-25T13:38:20Z</time>
      </trkpt>
      <trkpt lat="49.20695" lon="5.23465">
        <ele>228.45</ele>
        <time>2021-07-25T13:38:33Z</time>
      </trkpt>
      <trkpt lat="49.20759" lon="5.23071">
        <ele>232.78</ele>
        <time>2021-07-25T13:38:51Z</time>
      </trkpt>
      <trkpt lat="49.20811" lon="5.22745">
        <ele>244.79</ele>
        <time>2021-07-25T13:39:06Z</time>
      </trkpt>
      <trkpt lat="49.20824" lon="5.22661">
        <ele>247.2</ele>
        <time>2021-07-25T13:39:13Z</time>
      </trkpt>
      <trkpt lat="49.20839" lon="5.22554">
        <ele>245.27</ele>
        <time>2021-07-25T13:39:21Z</time>
      </trkpt>
      <trkpt lat="49.20875" lon="5.22274">
        <ele>237.1</ele>
        <time>2021-07-25T13:39:35Z</time>
      </trkpt>
      <trkpt lat="49.20899" lon="5.22025">
        <ele>231.81</ele>
        <time>2021-07-25T13:39:48Z</time>
      </trkpt>
      <trkpt lat="49.20891" lon="5.21971">
        <ele>230.37</ele>
        <time>2021-07-25T13:39:51Z</time>
      </trkpt>
      <trkpt lat="49.20886" lon="5.21955">
        <ele>230.85</ele>
        <time>2021-07-25T13:39:52Z</time>
      </trkpt>
      <trkpt lat="49.20804" lon="5.21742">
        <ele>231.33</ele>
        <time>2021-07-25T13:40:06Z</time>
      </trkpt>
      <trkpt lat="49.20753" lon="5.216">
        <ele>234.7</ele>
        <time>2021-07-25T13:40:18Z</time>
      </trkpt>
      <trkpt lat="49.20751" lon="5.21587">
        <ele>234.7</ele>
        <time>2021-07-25T13:40:19Z</time>
      </trkpt>
      <trkpt lat="49.20748" lon="5.21575">
        <ele>234.7</ele>
        <time>2021-07-25T13:40:20Z</time>
      </trkpt>
      <trkpt lat="49.20747" lon="5.21562">
        <ele>234.7</ele>
        <time>2021-07-25T13:40:21Z</time>
      </trkpt>
      <trkpt lat="49.20749" lon="5.2155">
        <ele>234.7</ele>
        <time>2021-07-25T13:40:22Z</time>
      </trkpt>
      <trkpt lat="49.20751" lon="5.21537">
        <ele>234.22</ele>
        <time>2021-07-25T13:40:23Z</time>
      </trkpt>
      <trkpt lat="49.20753" lon="5.21523">
        <ele>233.26</ele>
        <time>2021-07-25T13:40:24Z</time>
      </trkpt>
      <trkpt lat="49.20769" lon="5.21327">
        <ele>229.89</ele>
        <time>2021-07-25T13:40:38Z</time>
      </trkpt>
      <trkpt lat="49.20772" lon="5.21189">
        <ele>229.89</ele>
        <time>2021-07-25T13:40:49Z</time>
      </trkpt>
      <trkpt lat="49.20773" lon="5.21181">
        <ele>229.89</ele>
        <time>2021-07-25T13:40:50Z</time>
      </trkpt>
      <trkpt lat="49.20776" lon="5.2117">
        <ele>229.89</ele>
        <time>2021-07-25T13:40:51Z</time>
      </trkpt>
      <trkpt lat="49.20776" lon="5.2117">
        <ele>230.37</ele>
        <time>2021-07-25T13:40:52Z</time>
      </trkpt>
      <trkpt lat="49.2078" lon="5.21165">
        <ele>229.89</ele>
        <time>2021-07-25T13:40:53Z</time>
      </trkpt>
      <trkpt lat="49.20781" lon="5.21164">
        <ele>229.89</ele>
        <time>2021-07-25T13:40:54Z</time>
      </trkpt>
      <trkpt lat="49.20781" lon="5.21164">
        <ele>229.89</ele>
        <time>2021-07-25T13:40:55Z</time>
      </trkpt>
      <trkpt lat="49.20812" lon="5.21141">
        <ele>229.41</ele>
        <time>2021-07-25T13:41:06Z</time>
      </trkpt>
      <trkpt lat="49.20898" lon="5.21084">
        <ele>232.3</ele>
        <time>2021-07-25T13:41:21Z</time>
      </trkpt>
      <trkpt lat="49.20904" lon="5.21081">
        <ele>232.78</ele>
        <time>2021-07-25T13:41:22Z</time>
      </trkpt>
      <trkpt lat="49.2091" lon="5.21083">
        <ele>233.26</ele>
        <time>2021-07-25T13:41:23Z</time>
      </trkpt>
      <trkpt lat="49.20917" lon="5.21086">
        <ele>233.74</ele>
        <time>2021-07-25T13:41:24Z</time>
      </trkpt>
      <trkpt lat="49.20924" lon="5.2109">
        <ele>234.22</ele>
        <time>2021-07-25T13:41:25Z</time>
      </trkpt>
      <trkpt lat="49.20937" lon="5.21105">
        <ele>234.7</ele>
        <time>2021-07-25T13:41:26Z</time>
      </trkpt>
      <trkpt lat="49.20937" lon="5.21105">
        <ele>235.18</ele>
        <time>2021-07-25T13:41:27Z</time>
      </trkpt>
      <trkpt lat="49.21043" lon="5.21227">
        <ele>241.43</ele>
        <time>2021-07-25T13:41:39Z</time>
      </trkpt>
      <trkpt lat="49.21069" lon="5.21256">
        <ele>242.87</ele>
        <time>2021-07-25T13:41:42Z</time>
      </trkpt>
      <trkpt lat="49.21086" lon="5.21268">
        <ele>242.87</ele>
        <time>2021-07-25T13:41:43Z</time>
      </trkpt>
      <trkpt lat="49.21086" lon="5.21268">
        <ele>242.39</ele>
        <time>2021-07-25T13:41:44Z</time>
      </trkpt>
      <trkpt lat="49.21096" lon="5.21269">
        <ele>241.91</ele>
        <time>2021-07-25T13:41:45Z</time>
      </trkpt>
      <trkpt lat="49.21107" lon="5.21267">
        <ele>241.43</ele>
        <time>2021-07-25T13:41:46Z</time>
      </trkpt>
      <trkpt lat="49.21115" lon="5.21263">
        <ele>241.91</ele>
        <time>2021-07-25T13:41:47Z</time>
      </trkpt>
      <trkpt lat="49.21124" lon="5.21254">
        <ele>242.87</ele>
        <time>2021-07-25T13:41:48Z</time>
      </trkpt>
      <trkpt lat="49.21129" lon="5.21245">
        <ele>243.83</ele>
        <time>2021-07-25T13:41:49Z</time>
      </trkpt>
      <trkpt lat="49.21133" lon="5.21233">
        <ele>244.31</ele>
        <time>2021-07-25T13:41:50Z</time>
      </trkpt>
      <trkpt lat="49.21137" lon="5.21222">
        <ele>244.31</ele>
        <time>2021-07-25T13:41:51Z</time>
      </trkpt>
      <trkpt lat="49.21139" lon="5.21213">
        <ele>244.79</ele>
        <time>2021-07-25T13:41:52Z</time>
      </trkpt>
      <trkpt lat="49.21139" lon="5.21201">
        <ele>244.79</ele>
        <time>2021-07-25T13:41:53Z</time>
      </trkpt>
      <trkpt lat="49.21138" lon="5.2119">
        <ele>245.27</ele>
        <time>2021-07-25T13:41:54Z</time>
      </trkpt>
      <trkpt lat="49.21136" lon="5.21178">
        <ele>245.75</ele>
        <time>2021-07-25T13:41:55Z</time>
      </trkpt>
      <trkpt lat="49.21092" lon="5.20981">
        <ele>255.37</ele>
        <time>2021-07-25T13:42:08Z</time>
      </trkpt>
      <trkpt lat="49.21036" lon="5.20748">
        <ele>264.5</ele>
        <time>2021-07-25T13:42:23Z</time>
      </trkpt>
      <trkpt lat="49.20958" lon="5.205">
        <ele>274.59</ele>
        <time>2021-07-25T13:42:37Z</time>
      </trkpt>
      <trkpt lat="49.20876" lon="5.20269">
        <ele>284.69</ele>
        <time>2021-07-25T13:42:50Z</time>
      </trkpt>
      <trkpt lat="49.20859" lon="5.20194">
        <ele>288.05</ele>
        <time>2021-07-25T13:42:57Z</time>
      </trkpt>
      <trkpt lat="49.2082" lon="5.20021">
        <ele>294.3</ele>
        <time>2021-07-25T13:43:08Z</time>
      </trkpt>
      <trkpt lat="49.20777" lon="5.19776">
        <ele>295.26</ele>
        <time>2021-07-25T13:43:20Z</time>
      </trkpt>
      <trkpt lat="49.20718" lon="5.19355">
        <ele>294.78</ele>
        <time>2021-07-25T13:43:39Z</time>
      </trkpt>
      <trkpt lat="49.20682" lon="5.19099">
        <ele>292.86</ele>
        <time>2021-07-25T13:43:53Z</time>
      </trkpt>
      <trkpt lat="49.20653" lon="5.18898">
        <ele>290.46</ele>
        <time>2021-07-25T13:44:06Z</time>
      </trkpt>
      <trkpt lat="49.20616" lon="5.18611">
        <ele>291.42</ele>
        <time>2021-07-25T13:44:20Z</time>
      </trkpt>
      <trkpt lat="49.20629" lon="5.18341">
        <ele>285.17</ele>
        <time>2021-07-25T13:44:32Z</time>
      </trkpt>
      <trkpt lat="49.20657" lon="5.17883">
        <ele>278.92</ele>
        <time>2021-07-25T13:44:52Z</time>
      </trkpt>
      <trkpt lat="49.20685" lon="5.17408">
        <ele>276.04</ele>
        <time>2021-07-25T13:45:11Z</time>
      </trkpt>
      <trkpt lat="49.20711" lon="5.16951">
        <ele>264.98</ele>
        <time>2021-07-25T13:45:28Z</time>
      </trkpt>
      <trkpt lat="49.20744" lon="5.16395">
        <ele>258.25</ele>
        <time>2021-07-25T13:45:47Z</time>
      </trkpt>
      <trkpt lat="49.2078" lon="5.1577">
        <ele>254.89</ele>
        <time>2021-07-25T13:46:08Z</time>
      </trkpt>
      <trkpt lat="49.20809" lon="5.15277">
        <ele>257.29</ele>
        <time>2021-07-25T13:46:26Z</time>
      </trkpt>
      <trkpt lat="49.2083" lon="5.14845">
        <ele>245.75</ele>
        <time>2021-07-25T13:46:42Z</time>
      </trkpt>
      <trkpt lat="49.20828" lon="5.14824">
        <ele>243.83</ele>
        <time>2021-07-25T13:46:43Z</time>
      </trkpt>
      <trkpt lat="49.20825" lon="5.148">
        <ele>242.39</ele>
        <time>2021-07-25T13:46:44Z</time>
      </trkpt>
      <trkpt lat="49.20822" lon="5.14778">
        <ele>242.87</ele>
        <time>2021-07-25T13:46:45Z</time>
      </trkpt>
      <trkpt lat="49.20815" lon="5.14759">
        <ele>242.87</ele>
        <time>2021-07-25T13:46:46Z</time>
      </trkpt>
      <trkpt lat="49.20808" lon="5.14739">
        <ele>241.43</ele>
        <time>2021-07-25T13:46:47Z</time>
      </trkpt>
      <trkpt lat="49.20751" lon="5.14575">
        <ele>236.14</ele>
        <time>2021-07-25T13:46:57Z</time>
      </trkpt>
      <trkpt lat="49.20747" lon="5.14559">
        <ele>234.7</ele>
        <time>2021-07-25T13:46:58Z</time>
      </trkpt>
      <trkpt lat="49.20747" lon="5.14543">
        <ele>234.22</ele>
        <time>2021-07-25T13:46:59Z</time>
      </trkpt>
      <trkpt lat="49.20749" lon="5.14528">
        <ele>233.74</ele>
        <time>2021-07-25T13:47:00Z</time>
      </trkpt>
      <trkpt lat="49.20754" lon="5.1445">
        <ele>228.93</ele>
        <time>2021-07-25T13:47:05Z</time>
      </trkpt>
      <trkpt lat="49.20754" lon="5.14435">
        <ele>228.93</ele>
        <time>2021-07-25T13:47:06Z</time>
      </trkpt>
      <trkpt lat="49.20752" lon="5.14421">
        <ele>227.97</ele>
        <time>2021-07-25T13:47:07Z</time>
      </trkpt>
      <trkpt lat="49.20751" lon="5.14409">
        <ele>227.01</ele>
        <time>2021-07-25T13:47:08Z</time>
      </trkpt>
      <trkpt lat="49.20749" lon="5.14397">
        <ele>226.53</ele>
        <time>2021-07-25T13:47:09Z</time>
      </trkpt>
      <trkpt lat="49.20739" lon="5.1435">
        <ele>225.57</ele>
        <time>2021-07-25T13:47:16Z</time>
      </trkpt>
      <trkpt lat="49.20735" lon="5.14338">
        <ele>225.09</ele>
        <time>2021-07-25T13:47:21Z</time>
      </trkpt>
      <trkpt lat="49.20727" lon="5.14336">
        <ele>225.09</ele>
        <time>2021-07-25T13:47:22Z</time>
      </trkpt>
      <trkpt lat="49.20723" lon="5.14335">
        <ele>225.09</ele>
        <time>2021-07-25T13:47:23Z</time>
      </trkpt>
      <trkpt lat="49.20672" lon="5.14323">
        <ele>224.12</ele>
        <time>2021-07-25T13:47:31Z</time>
      </trkpt>
      <trkpt lat="49.2054" lon="5.14292">
        <ele>224.12</ele>
        <time>2021-07-25T13:47:43Z</time>
      </trkpt>
      <trkpt lat="49.20398" lon="5.14222">
        <ele>216.43</ele>
        <time>2021-07-25T13:47:56Z</time>
      </trkpt>
      <trkpt lat="49.20389" lon="5.14211">
        <ele>217.4</ele>
        <time>2021-07-25T13:47:57Z</time>
      </trkpt>
      <trkpt lat="49.20369" lon="5.14188">
        <ele>218.36</ele>
        <time>2021-07-25T13:47:58Z</time>
      </trkpt>
      <trkpt lat="49.20302" lon="5.14093">
        <ele>220.76</ele>
        <time>2021-07-25T13:48:06Z</time>
      </trkpt>
      <trkpt lat="49.20295" lon="5.14077">
        <ele>220.28</ele>
        <time>2021-07-25T13:48:07Z</time>
      </trkpt>
      <trkpt lat="49.20209" lon="5.13851">
        <ele>219.8</ele>
        <time>2021-07-25T13:48:18Z</time>
      </trkpt>
      <trkpt lat="49.20119" lon="5.13674">
        <ele>220.76</ele>
        <time>2021-07-25T13:48:27Z</time>
      </trkpt>
      <trkpt lat="49.20102" lon="5.13641">
        <ele>219.8</ele>
        <time>2021-07-25T13:48:29Z</time>
      </trkpt>
      <trkpt lat="49.20094" lon="5.13624">
        <ele>218.84</ele>
        <time>2021-07-25T13:48:30Z</time>
      </trkpt>
      <trkpt lat="49.20088" lon="5.13606">
        <ele>219.32</ele>
        <time>2021-07-25T13:48:31Z</time>
      </trkpt>
      <trkpt lat="49.20083" lon="5.13585">
        <ele>218.84</ele>
        <time>2021-07-25T13:48:32Z</time>
      </trkpt>
      <trkpt lat="49.20077" lon="5.13565">
        <ele>218.84</ele>
        <time>2021-07-25T13:48:33Z</time>
      </trkpt>
      <trkpt lat="49.20036" lon="5.13268">
        <ele>216.43</ele>
        <time>2021-07-25T13:48:45Z</time>
      </trkpt>
      <trkpt lat="49.20008" lon="5.13153">
        <ele>216.43</ele>
        <time>2021-07-25T13:48:50Z</time>
      </trkpt>
      <trkpt lat="49.19999" lon="5.13134">
        <ele>216.91</ele>
        <time>2021-07-25T13:48:51Z</time>
      </trkpt>
      <trkpt lat="49.19989" lon="5.13114">
        <ele>216.91</ele>
        <time>2021-07-25T13:48:52Z</time>
      </trkpt>
      <trkpt lat="49.19945" lon="5.13036">
        <ele>215.95</ele>
        <time>2021-07-25T13:48:56Z</time>
      </trkpt>
      <trkpt lat="49.19936" lon="5.13015">
        <ele>215.47</ele>
        <time>2021-07-25T13:48:57Z</time>
      </trkpt>
      <trkpt lat="49.19864" lon="5.12827">
        <ele>214.03</ele>
        <time>2021-07-25T13:49:06Z</time>
      </trkpt>
      <trkpt lat="49.19827" lon="5.12757">
        <ele>214.03</ele>
        <time>2021-07-25T13:49:10Z</time>
      </trkpt>
      <trkpt lat="49.19822" lon="5.1274">
        <ele>214.99</ele>
        <time>2021-07-25T13:49:11Z</time>
      </trkpt>
      <trkpt lat="49.19817" lon="5.12724">
        <ele>215.47</ele>
        <time>2021-07-25T13:49:12Z</time>
      </trkpt>
      <trkpt lat="49.19816" lon="5.12706">
        <ele>214.99</ele>
        <time>2021-07-25T13:49:13Z</time>
      </trkpt>
      <trkpt lat="49.19815" lon="5.12686">
        <ele>214.51</ele>
        <time>2021-07-25T13:49:14Z</time>
      </trkpt>
      <trkpt lat="49.19814" lon="5.12649">
        <ele>214.03</ele>
        <time>2021-07-25T13:49:15Z</time>
      </trkpt>
      <trkpt lat="49.19799" lon="5.12431">
        <ele>213.07</ele>
        <time>2021-07-25T13:49:26Z</time>
      </trkpt>
      <trkpt lat="49.19741" lon="5.12051">
        <ele>211.63</ele>
        <time>2021-07-25T13:49:42Z</time>
      </trkpt>
      <trkpt lat="49.19673" lon="5.11919">
        <ele>211.63</ele>
        <time>2021-07-25T13:49:49Z</time>
      </trkpt>
      <trkpt lat="49.19595" lon="5.11858">
        <ele>208.74</ele>
        <time>2021-07-25T13:49:56Z</time>
      </trkpt>
      <trkpt lat="49.19588" lon="5.11853">
        <ele>209.7</ele>
        <time>2021-07-25T13:49:57Z</time>
      </trkpt>
      <trkpt lat="49.19582" lon="5.11849">
        <ele>210.19</ele>
        <time>2021-07-25T13:49:58Z</time>
      </trkpt>
      <trkpt lat="49.19581" lon="5.11836">
        <ele>210.19</ele>
        <time>2021-07-25T13:49:59Z</time>
      </trkpt>
      <trkpt lat="49.19583" lon="5.11825">
        <ele>209.7</ele>
        <time>2021-07-25T13:50:00Z</time>
      </trkpt>
      <trkpt lat="49.19585" lon="5.11813">
        <ele>209.7</ele>
        <time>2021-07-25T13:50:01Z</time>
      </trkpt>
      <trkpt lat="49.19587" lon="5.11797">
        <ele>210.19</ele>
        <time>2021-07-25T13:50:02Z</time>
      </trkpt>
      <trkpt lat="49.1959" lon="5.1178">
        <ele>210.19</ele>
        <time>2021-07-25T13:50:03Z</time>
      </trkpt>
      <trkpt lat="49.19621" lon="5.11584">
        <ele>208.74</ele>
        <time>2021-07-25T13:50:12Z</time>
      </trkpt>
      <trkpt lat="49.19686" lon="5.11193">
        <ele>204.9</ele>
        <time>2021-07-25T13:50:27Z</time>
      </trkpt>
      <trkpt lat="49.19785" lon="5.10944">
        <ele>204.42</ele>
        <time>2021-07-25T13:50:37Z</time>
      </trkpt>
      <trkpt lat="49.19958" lon="5.10499">
        <ele>204.9</ele>
        <time>2021-07-25T13:50:54Z</time>
      </trkpt>
      <trkpt lat="49.20093" lon="5.1014">
        <ele>207.78</ele>
        <time>2021-07-25T13:51:07Z</time>
      </trkpt>
      <trkpt lat="49.20241" lon="5.0972">
        <ele>205.86</ele>
        <time>2021-07-25T13:51:25Z</time>
      </trkpt>
      <trkpt lat="49.2032" lon="5.09488">
        <ele>203.46</ele>
        <time>2021-07-25T13:51:35Z</time>
      </trkpt>
      <trkpt lat="49.20385" lon="5.09311">
        <ele>204.42</ele>
        <time>2021-07-25T13:51:43Z</time>
      </trkpt>
      <trkpt lat="49.20456" lon="5.09215">
        <ele>203.46</ele>
        <time>2021-07-25T13:51:50Z</time>
      </trkpt>
      <trkpt lat="49.20474" lon="5.09199">
        <ele>203.94</ele>
        <time>2021-07-25T13:51:56Z</time>
      </trkpt>
      <trkpt lat="49.20489" lon="5.09191">
        <ele>203.46</ele>
        <time>2021-07-25T13:52:03Z</time>
      </trkpt>
      <trkpt lat="49.20544" lon="5.09155">
        <ele>202.49</ele>
        <time>2021-07-25T13:52:09Z</time>
      </trkpt>
      <trkpt lat="49.20625" lon="5.0904">
        <ele>201.05</ele>
        <time>2021-07-25T13:52:16Z</time>
      </trkpt>
      <trkpt lat="49.20791" lon="5.08771">
        <ele>198.65</ele>
        <time>2021-07-25T13:52:29Z</time>
      </trkpt>
      <trkpt lat="49.20885" lon="5.08615">
        <ele>196.25</ele>
        <time>2021-07-25T13:52:35Z</time>
      </trkpt>
      <trkpt lat="49.20891" lon="5.08595">
        <ele>196.73</ele>
        <time>2021-07-25T13:52:36Z</time>
      </trkpt>
      <trkpt lat="49.20891" lon="5.08595">
        <ele>196.73</ele>
        <time>2021-07-25T13:52:37Z</time>
      </trkpt>
      <trkpt lat="49.20897" lon="5.08551">
        <ele>196.25</ele>
        <time>2021-07-25T13:52:38Z</time>
      </trkpt>
      <trkpt lat="49.20897" lon="5.08551">
        <ele>196.73</ele>
        <time>2021-07-25T13:52:39Z</time>
      </trkpt>
      <trkpt lat="49.20898" lon="5.08529">
        <ele>197.69</ele>
        <time>2021-07-25T13:52:40Z</time>
      </trkpt>
      <trkpt lat="49.20898" lon="5.08508">
        <ele>198.17</ele>
        <time>2021-07-25T13:52:41Z</time>
      </trkpt>
      <trkpt lat="49.20899" lon="5.08487">
        <ele>199.61</ele>
        <time>2021-07-25T13:52:42Z</time>
      </trkpt>
      <trkpt lat="49.20903" lon="5.08469">
        <ele>200.57</ele>
        <time>2021-07-25T13:52:43Z</time>
      </trkpt>
      <trkpt lat="49.20909" lon="5.08455">
        <ele>201.53</ele>
        <time>2021-07-25T13:52:44Z</time>
      </trkpt>
      <trkpt lat="49.20918" lon="5.08439">
        <ele>202.49</ele>
        <time>2021-07-25T13:52:45Z</time>
      </trkpt>
      <trkpt lat="49.20927" lon="5.08423">
        <ele>202.98</ele>
        <time>2021-07-25T13:52:46Z</time>
      </trkpt>
      <trkpt lat="49.21003" lon="5.08282">
        <ele>206.82</ele>
        <time>2021-07-25T13:52:54Z</time>
      </trkpt>
      <trkpt lat="49.21099" lon="5.08118">
        <ele>200.57</ele>
        <time>2021-07-25T13:53:02Z</time>
      </trkpt>
      <trkpt lat="49.21185" lon="5.07943">
        <ele>196.25</ele>
        <time>2021-07-25T13:53:09Z</time>
      </trkpt>
      <trkpt lat="49.21297" lon="5.07546">
        <ele>199.13</ele>
        <time>2021-07-25T13:53:22Z</time>
      </trkpt>
      <trkpt lat="49.21374" lon="5.07281">
        <ele>198.17</ele>
        <time>2021-07-25T13:53:31Z</time>
      </trkpt>
      <trkpt lat="49.21386" lon="5.07255">
        <ele>197.69</ele>
        <time>2021-07-25T13:53:32Z</time>
      </trkpt>
      <trkpt lat="49.21398" lon="5.07232">
        <ele>196.25</ele>
        <time>2021-07-25T13:53:33Z</time>
      </trkpt>
      <trkpt lat="49.21569" lon="5.06999">
        <ele>189.52</ele>
        <time>2021-07-25T13:53:43Z</time>
      </trkpt>
      <trkpt lat="49.21705" lon="5.06695">
        <ele>193.84</ele>
        <time>2021-07-25T13:53:55Z</time>
      </trkpt>
      <trkpt lat="49.21883" lon="5.06294">
        <ele>199.13</ele>
        <time>2021-07-25T13:54:09Z</time>
      </trkpt>
      <trkpt lat="49.22011" lon="5.06052">
        <ele>194.32</ele>
        <time>2021-07-25T13:54:18Z</time>
      </trkpt>
      <trkpt lat="49.22286" lon="5.05646">
        <ele>192.88</ele>
        <time>2021-07-25T13:54:34Z</time>
      </trkpt>
      <trkpt lat="49.22347" lon="5.05516">
        <ele>197.21</ele>
        <time>2021-07-25T13:54:39Z</time>
      </trkpt>
      <trkpt lat="49.22426" lon="5.05291">
        <ele>196.25</ele>
        <time>2021-07-25T13:54:49Z</time>
      </trkpt>
      <trkpt lat="49.22451" lon="5.05221">
        <ele>198.17</ele>
        <time>2021-07-25T13:54:52Z</time>
      </trkpt>
      <trkpt lat="49.22455" lon="5.05197">
        <ele>197.69</ele>
        <time>2021-07-25T13:54:53Z</time>
      </trkpt>
      <trkpt lat="49.22458" lon="5.05172">
        <ele>197.21</ele>
        <time>2021-07-25T13:54:54Z</time>
      </trkpt>
      <trkpt lat="49.22467" lon="5.04873">
        <ele>192.88</ele>
        <time>2021-07-25T13:55:05Z</time>
      </trkpt>
      <trkpt lat="49.22439" lon="5.04634">
        <ele>190.96</ele>
        <time>2021-07-25T13:55:13Z</time>
      </trkpt>
      <trkpt lat="49.22404" lon="5.04357">
        <ele>186.63</ele>
        <time>2021-07-25T13:55:23Z</time>
      </trkpt>
      <trkpt lat="49.22408" lon="5.04111">
        <ele>170.77</ele>
        <time>2021-07-25T13:55:32Z</time>
      </trkpt>
      <trkpt lat="49.22418" lon="5.03859">
        <ele>160.68</ele>
        <time>2021-07-25T13:55:42Z</time>
      </trkpt>
      <trkpt lat="49.22419" lon="5.0384">
        <ele>159.72</ele>
        <time>2021-07-25T13:55:43Z</time>
      </trkpt>
      <trkpt lat="49.2242" lon="5.03822">
        <ele>159.24</ele>
        <time>2021-07-25T13:55:44Z</time>
      </trkpt>
      <trkpt lat="49.22426" lon="5.03807">
        <ele>157.31</ele>
        <time>2021-07-25T13:55:45Z</time>
      </trkpt>
      <trkpt lat="49.22431" lon="5.03792">
        <ele>156.35</ele>
        <time>2021-07-25T13:55:46Z</time>
      </trkpt>
      <trkpt lat="49.22442" lon="5.03761">
        <ele>155.87</ele>
        <time>2021-07-25T13:55:47Z</time>
      </trkpt>
      <trkpt lat="49.22448" lon="5.03748">
        <ele>154.43</ele>
        <time>2021-07-25T13:55:48Z</time>
      </trkpt>
      <trkpt lat="49.22483" lon="5.03683">
        <ele>154.43</ele>
        <time>2021-07-25T13:55:56Z</time>
      </trkpt>
      <trkpt lat="49.22553" lon="5.03609">
        <ele>152.99</ele>
        <time>2021-07-25T13:56:06Z</time>
      </trkpt>
      <trkpt lat="49.22647" lon="5.03546">
        <ele>152.51</ele>
        <time>2021-07-25T13:56:20Z</time>
      </trkpt>
      <trkpt lat="49.22737" lon="5.03511">
        <ele>151.54</ele>
        <time>2021-07-25T13:56:30Z</time>
      </trkpt>
      <trkpt lat="49.22782" lon="5.03497">
        <ele>151.54</ele>
        <time>2021-07-25T13:56:43Z</time>
      </trkpt>
      <trkpt lat="49.22782" lon="5.03497">
        <ele>152.51</ele>
        <time>2021-07-25T13:56:46Z</time>
      </trkpt>
      <trkpt lat="49.22794" lon="5.03502">
        <ele>152.51</ele>
        <time>2021-07-25T13:56:47Z</time>
      </trkpt>
      <trkpt lat="49.22795" lon="5.03508">
        <ele>152.51</ele>
        <time>2021-07-25T13:56:48Z</time>
      </trkpt>
      <trkpt lat="49.228" lon="5.03528">
        <ele>152.51</ele>
        <time>2021-07-25T13:56:52Z</time>
      </trkpt>
      <trkpt lat="49.22802" lon="5.03535">
        <ele>152.51</ele>
        <time>2021-07-25T13:56:53Z</time>
      </trkpt>
      <trkpt lat="49.22803" lon="5.0354">
        <ele>152.03</ele>
        <time>2021-07-25T13:56:54Z</time>
      </trkpt>
      <trkpt lat="49.22804" lon="5.03545">
        <ele>152.03</ele>
        <time>2021-07-25T13:56:55Z</time>
      </trkpt>
      <trkpt lat="49.22805" lon="5.03548">
        <ele>152.51</ele>
        <time>2021-07-25T13:56:56Z</time>
      </trkpt>
      <trkpt lat="49.22806" lon="5.03552">
        <ele>152.51</ele>
        <time>2021-07-25T13:56:57Z</time>
      </trkpt>
      <trkpt lat="49.22806" lon="5.03555">
        <ele>152.51</ele>
        <time>2021-07-25T13:56:58Z</time>
      </trkpt>
      <trkpt lat="49.22807" lon="5.03557">
        <ele>152.51</ele>
        <time>2021-07-25T13:57:17Z</time>
      </trkpt>
      <trkpt lat="49.22814" lon="5.03589">
        <ele>152.51</ele>
        <time>2021-07-25T14:00:53Z</time>
      </trkpt>
      <trkpt lat="49.22819" lon="5.03613">
        <ele>152.99</ele>
        <time>2021-07-25T14:01:02Z</time>
      </trkpt>
      <trkpt lat="49.2282" lon="5.03615">
        <ele>152.99</ele>
        <time>2021-07-25T14:01:03Z</time>
      </trkpt>
      <trkpt lat="49.2282" lon="5.03618">
        <ele>152.99</ele>
        <time>2021-07-25T14:01:04Z</time>
      </trkpt>
      <trkpt lat="49.2282" lon="5.03618">
        <ele>152.99</ele>
        <time>2021-07-25T14:01:05Z</time>
      </trkpt>
      <trkpt lat="49.2282" lon="5.03618">
        <ele>152.99</ele>
        <time>2021-07-25T14:01:06Z</time>
      </trkpt>
      <trkpt lat="49.22818" lon="5.03612">
        <ele>152.99</ele>
        <time>2021-07-25T14:01:07Z</time>
      </trkpt>
      <trkpt lat="49.22819" lon="5.03612">
        <ele>152.99</ele>
        <time>2021-07-25T14:01:08Z</time>
      </trkpt>
      <trkpt lat="49.22821" lon="5.0361">
        <ele>152.99</ele>
        <time>2021-07-25T14:01:09Z</time>
      </trkpt>
      <trkpt lat="49.22821" lon="5.0361">
        <ele>152.51</ele>
        <time>2021-07-25T14:01:10Z</time>
      </trkpt>
      <trkpt lat="49.22823" lon="5.03609">
        <ele>152.51</ele>
        <time>2021-07-25T14:01:11Z</time>
      </trkpt>
      <trkpt lat="49.2282" lon="5.03617">
        <ele>152.03</ele>
        <time>2021-07-25T14:01:12Z</time>
      </trkpt>
      <trkpt lat="49.2282" lon="5.03617">
        <ele>152.03</ele>
        <time>2021-07-25T14:01:20Z</time>
      </trkpt>
      <trkpt lat="49.2282" lon="5.03614">
        <ele>152.51</ele>
        <time>2021-07-25T14:01:21Z</time>
      </trkpt>
      <trkpt lat="49.22819" lon="5.03611">
        <ele>152.51</ele>
        <time>2021-07-25T14:01:22Z</time>
      </trkpt>
      <trkpt lat="49.22818" lon="5.03607">
        <ele>152.51</ele>
        <time>2021-07-25T14:01:23Z</time>
      </trkpt>
      <trkpt lat="49.22817" lon="5.03602">
        <ele>152.51</ele>
        <time>2021-07-25T14:01:24Z</time>
      </trkpt>
      <trkpt lat="49.22816" lon="5.03597">
        <ele>152.51</ele>
        <time>2021-07-25T14:01:25Z</time>
      </trkpt>
      <trkpt lat="49.22799" lon="5.03522">
        <ele>152.99</ele>
        <time>2021-07-25T14:01:37Z</time>
      </trkpt>
      <trkpt lat="49.22791" lon="5.03494">
        <ele>152.99</ele>
        <time>2021-07-25T14:01:44Z</time>
      </trkpt>
      <trkpt lat="49.22785" lon="5.03495">
        <ele>152.99</ele>
        <time>2021-07-25T14:01:45Z</time>
      </trkpt>
      <trkpt lat="49.22781" lon="5.03497">
        <ele>152.99</ele>
        <time>2021-07-25T14:01:46Z</time>
      </trkpt>
      <trkpt lat="49.22716" lon="5.03518">
        <ele>151.54</ele>
        <time>2021-07-25T14:01:54Z</time>
      </trkpt>
      <trkpt lat="49.22588" lon="5.03582">
        <ele>150.58</ele>
        <time>2021-07-25T14:02:07Z</time>
      </trkpt>
      <trkpt lat="49.22483" lon="5.03684">
        <ele>151.06</ele>
        <time>2021-07-25T14:02:19Z</time>
      </trkpt>
      <trkpt lat="49.22431" lon="5.03792">
        <ele>152.99</ele>
        <time>2021-07-25T14:02:27Z</time>
      </trkpt>
      <trkpt lat="49.22426" lon="5.03807">
        <ele>153.47</ele>
        <time>2021-07-25T14:02:28Z</time>
      </trkpt>
      <trkpt lat="49.2242" lon="5.03822">
        <ele>153.47</ele>
        <time>2021-07-25T14:02:29Z</time>
      </trkpt>
      <trkpt lat="49.22419" lon="5.03837">
        <ele>153.95</ele>
        <time>2021-07-25T14:02:30Z</time>
      </trkpt>
      <trkpt lat="49.22419" lon="5.03855">
        <ele>154.43</ele>
        <time>2021-07-25T14:02:31Z</time>
      </trkpt>
      <trkpt lat="49.22411" lon="5.04043">
        <ele>166.93</ele>
        <time>2021-07-25T14:02:40Z</time>
      </trkpt>
      <trkpt lat="49.22407" lon="5.04388">
        <ele>184.71</ele>
        <time>2021-07-25T14:02:56Z</time>
      </trkpt>
      <trkpt lat="49.22436" lon="5.04615">
        <ele>186.63</ele>
        <time>2021-07-25T14:03:06Z</time>
      </trkpt>
      <trkpt lat="49.22466" lon="5.04928">
        <ele>190.96</ele>
        <time>2021-07-25T14:03:17Z</time>
      </trkpt>
      <trkpt lat="49.22457" lon="5.05175">
        <ele>193.84</ele>
        <time>2021-07-25T14:03:26Z</time>
      </trkpt>
      <trkpt lat="49.22455" lon="5.05193">
        <ele>194.8</ele>
        <time>2021-07-25T14:03:27Z</time>
      </trkpt>
      <trkpt lat="49.22453" lon="5.0521">
        <ele>195.77</ele>
        <time>2021-07-25T14:03:28Z</time>
      </trkpt>
      <trkpt lat="49.22449" lon="5.05227">
        <ele>195.77</ele>
        <time>2021-07-25T14:03:29Z</time>
      </trkpt>
      <trkpt lat="49.22376" lon="5.05435">
        <ele>196.25</ele>
        <time>2021-07-25T14:03:39Z</time>
      </trkpt>
      <trkpt lat="49.22268" lon="5.05674">
        <ele>192.88</ele>
        <time>2021-07-25T14:03:50Z</time>
      </trkpt>
      <trkpt lat="49.22069" lon="5.05967">
        <ele>192.88</ele>
        <time>2021-07-25T14:04:03Z</time>
      </trkpt>
      <trkpt lat="49.2191" lon="5.06231">
        <ele>195.77</ele>
        <time>2021-07-25T14:04:14Z</time>
      </trkpt>
      <trkpt lat="49.21737" lon="5.06621">
        <ele>193.36</ele>
        <time>2021-07-25T14:04:28Z</time>
      </trkpt>
      <trkpt lat="49.21616" lon="5.06894">
        <ele>191.44</ele>
        <time>2021-07-25T14:04:38Z</time>
      </trkpt>
      <trkpt lat="49.21544" lon="5.0705">
        <ele>193.36</ele>
        <time>2021-07-25T14:04:44Z</time>
      </trkpt>
      <trkpt lat="49.21396" lon="5.07233">
        <ele>198.17</ele>
        <time>2021-07-25T14:04:54Z</time>
      </trkpt>
      <trkpt lat="49.21386" lon="5.07255">
        <ele>198.65</ele>
        <time>2021-07-25T14:04:55Z</time>
      </trkpt>
      <trkpt lat="49.21376" lon="5.07277">
        <ele>199.13</ele>
        <time>2021-07-25T14:04:56Z</time>
      </trkpt>
      <trkpt lat="49.21309" lon="5.07484">
        <ele>202.49</ele>
        <time>2021-07-25T14:05:05Z</time>
      </trkpt>
      <trkpt lat="49.21242" lon="5.07771">
        <ele>200.09</ele>
        <time>2021-07-25T14:05:16Z</time>
      </trkpt>
      <trkpt lat="49.21134" lon="5.08063">
        <ele>200.09</ele>
        <time>2021-07-25T14:05:27Z</time>
      </trkpt>
      <trkpt lat="49.21004" lon="5.0828">
        <ele>208.74</ele>
        <time>2021-07-25T14:05:37Z</time>
      </trkpt>
      <trkpt lat="49.20919" lon="5.08437">
        <ele>202.49</ele>
        <time>2021-07-25T14:05:45Z</time>
      </trkpt>
      <trkpt lat="49.20911" lon="5.08451">
        <ele>201.53</ele>
        <time>2021-07-25T14:05:46Z</time>
      </trkpt>
      <trkpt lat="49.20904" lon="5.08467">
        <ele>200.57</ele>
        <time>2021-07-25T14:05:47Z</time>
      </trkpt>
      <trkpt lat="49.20899" lon="5.08486">
        <ele>199.13</ele>
        <time>2021-07-25T14:05:48Z</time>
      </trkpt>
      <trkpt lat="49.20898" lon="5.08505">
        <ele>197.69</ele>
        <time>2021-07-25T14:05:49Z</time>
      </trkpt>
      <trkpt lat="49.20898" lon="5.08527">
        <ele>196.25</ele>
        <time>2021-07-25T14:05:50Z</time>
      </trkpt>
      <trkpt lat="49.20897" lon="5.08567">
        <ele>195.28</ele>
        <time>2021-07-25T14:05:52Z</time>
      </trkpt>
      <trkpt lat="49.20894" lon="5.08585">
        <ele>194.8</ele>
        <time>2021-07-25T14:05:53Z</time>
      </trkpt>
      <trkpt lat="49.20889" lon="5.08603">
        <ele>194.8</ele>
        <time>2021-07-25T14:05:54Z</time>
      </trkpt>
      <trkpt lat="49.20882" lon="5.08619">
        <ele>193.84</ele>
        <time>2021-07-25T14:05:55Z</time>
      </trkpt>
      <trkpt lat="49.20873" lon="5.08636">
        <ele>193.84</ele>
        <time>2021-07-25T14:05:56Z</time>
      </trkpt>
      <trkpt lat="49.20743" lon="5.0885">
        <ele>200.09</ele>
        <time>2021-07-25T14:06:07Z</time>
      </trkpt>
      <trkpt lat="49.20564" lon="5.09135">
        <ele>202.01</ele>
        <time>2021-07-25T14:06:20Z</time>
      </trkpt>
      <trkpt lat="49.20548" lon="5.09151">
        <ele>203.46</ele>
        <time>2021-07-25T14:06:21Z</time>
      </trkpt>
      <trkpt lat="49.20534" lon="5.09164">
        <ele>203.94</ele>
        <time>2021-07-25T14:06:22Z</time>
      </trkpt>
      <trkpt lat="49.20486" lon="5.09192">
        <ele>206.82</ele>
        <time>2021-07-25T14:06:27Z</time>
      </trkpt>
      <trkpt lat="49.20481" lon="5.09195">
        <ele>206.82</ele>
        <time>2021-07-25T14:06:28Z</time>
      </trkpt>
      <trkpt lat="49.20477" lon="5.09198">
        <ele>206.34</ele>
        <time>2021-07-25T14:06:29Z</time>
      </trkpt>
      <trkpt lat="49.2047" lon="5.09187">
        <ele>206.34</ele>
        <time>2021-07-25T14:06:30Z</time>
      </trkpt>
      <trkpt lat="49.20468" lon="5.09178">
        <ele>206.34</ele>
        <time>2021-07-25T14:06:31Z</time>
      </trkpt>
      <trkpt lat="49.20465" lon="5.0917">
        <ele>206.82</ele>
        <time>2021-07-25T14:06:32Z</time>
      </trkpt>
      <trkpt lat="49.20431" lon="5.09057">
        <ele>211.63</ele>
        <time>2021-07-25T14:06:41Z</time>
      </trkpt>
      <trkpt lat="49.20367" lon="5.08859">
        <ele>219.32</ele>
        <time>2021-07-25T14:06:53Z</time>
      </trkpt>
      <trkpt lat="49.20306" lon="5.08635">
        <ele>228.93</ele>
        <time>2021-07-25T14:07:05Z</time>
      </trkpt>
      <trkpt lat="49.20288" lon="5.0856">
        <ele>229.89</ele>
        <time>2021-07-25T14:07:09Z</time>
      </trkpt>
      <trkpt lat="49.20285" lon="5.0854">
        <ele>229.41</ele>
        <time>2021-07-25T14:07:10Z</time>
      </trkpt>
      <trkpt lat="49.20283" lon="5.08522">
        <ele>229.89</ele>
        <time>2021-07-25T14:07:11Z</time>
      </trkpt>
      <trkpt lat="49.20285" lon="5.08503">
        <ele>231.81</ele>
        <time>2021-07-25T14:07:12Z</time>
      </trkpt>
      <trkpt lat="49.20287" lon="5.08484">
        <ele>232.3</ele>
        <time>2021-07-25T14:07:13Z</time>
      </trkpt>
      <trkpt lat="49.20293" lon="5.08466">
        <ele>231.81</ele>
        <time>2021-07-25T14:07:14Z</time>
      </trkpt>
      <trkpt lat="49.20298" lon="5.08449">
        <ele>231.33</ele>
        <time>2021-07-25T14:07:15Z</time>
      </trkpt>
      <trkpt lat="49.20317" lon="5.08376">
        <ele>230.37</ele>
        <time>2021-07-25T14:07:19Z</time>
      </trkpt>
      <trkpt lat="49.2032" lon="5.08357">
        <ele>230.85</ele>
        <time>2021-07-25T14:07:20Z</time>
      </trkpt>
      <trkpt lat="49.20322" lon="5.08338">
        <ele>230.85</ele>
        <time>2021-07-25T14:07:21Z</time>
      </trkpt>
      <trkpt lat="49.20326" lon="5.0809">
        <ele>227.97</ele>
        <time>2021-07-25T14:07:32Z</time>
      </trkpt>
      <trkpt lat="49.20331" lon="5.07898">
        <ele>227.49</ele>
        <time>2021-07-25T14:07:41Z</time>
      </trkpt>
      <trkpt lat="49.20374" lon="5.07756">
        <ele>223.16</ele>
        <time>2021-07-25T14:07:50Z</time>
      </trkpt>
      <trkpt lat="49.20408" lon="5.07656">
        <ele>220.28</ele>
        <time>2021-07-25T14:07:58Z</time>
      </trkpt>
      <trkpt lat="49.20413" lon="5.07618">
        <ele>219.8</ele>
        <time>2021-07-25T14:08:01Z</time>
      </trkpt>
      <trkpt lat="49.20414" lon="5.07606">
        <ele>219.32</ele>
        <time>2021-07-25T14:08:02Z</time>
      </trkpt>
      <trkpt lat="49.20415" lon="5.07456">
        <ele>221.24</ele>
        <time>2021-07-25T14:08:14Z</time>
      </trkpt>
      <trkpt lat="49.20406" lon="5.07404">
        <ele>225.09</ele>
        <time>2021-07-25T14:08:24Z</time>
      </trkpt>
      <trkpt lat="49.20383" lon="5.07325">
        <ele>227.01</ele>
        <time>2021-07-25T14:08:35Z</time>
      </trkpt>
    </trkseg>
  </trk>
  <trk>
    <name><![CDATA[Journal actif: 2021-07-25 12:08]]></name>
    <trkseg>
      <trkpt lat="49.20366" lon="5.07269">
        <ele>227.97</ele>
        <time>2021-07-25T14:08:41Z</time>
      </trkpt>
      <trkpt lat="49.20354" lon="5.07229">
        <ele>228.45</ele>
        <time>2021-07-25T14:08:50Z</time>
      </trkpt>
      <trkpt lat="49.20338" lon="5.0718">
        <ele>229.89</ele>
        <time>2021-07-25T14:08:59Z</time>
      </trkpt>
      <trkpt lat="49.20337" lon="5.07174">
        <ele>230.37</ele>
        <time>2021-07-25T14:09:00Z</time>
      </trkpt>
      <trkpt lat="49.20335" lon="5.07169">
        <ele>230.37</ele>
        <time>2021-07-25T14:09:01Z</time>
      </trkpt>
      <trkpt lat="49.20334" lon="5.07167">
        <ele>230.85</ele>
        <time>2021-07-25T14:09:02Z</time>
      </trkpt>
      <trkpt lat="49.20347" lon="5.07154">
        <ele>230.85</ele>
        <time>2021-07-25T14:09:03Z</time>
      </trkpt>
      <trkpt lat="49.20347" lon="5.07151">
        <ele>230.85</ele>
        <time>2021-07-25T14:09:04Z</time>
      </trkpt>
      <trkpt lat="49.20345" lon="5.07144">
        <ele>230.85</ele>
        <time>2021-07-25T14:09:12Z</time>
      </trkpt>
      <trkpt lat="49.20345" lon="5.0714">
        <ele>231.33</ele>
        <time>2021-07-25T14:09:13Z</time>
      </trkpt>
      <trkpt lat="49.20344" lon="5.07136">
        <ele>231.33</ele>
        <time>2021-07-25T14:09:14Z</time>
      </trkpt>
      <trkpt lat="49.20343" lon="5.07131">
        <ele>231.81</ele>
        <time>2021-07-25T14:09:15Z</time>
      </trkpt>
      <trkpt lat="49.20342" lon="5.07124">
        <ele>231.81</ele>
        <time>2021-07-25T14:09:16Z</time>
      </trkpt>
      <trkpt lat="49.20341" lon="5.07117">
        <ele>231.81</ele>
        <time>2021-07-25T14:09:17Z</time>
      </trkpt>
      <trkpt lat="49.20325" lon="5.07027">
        <ele>235.66</ele>
        <time>2021-07-25T14:09:27Z</time>
      </trkpt>
      <trkpt lat="49.20307" lon="5.06922">
        <ele>241.91</ele>
        <time>2021-07-25T14:09:37Z</time>
      </trkpt>
      <trkpt lat="49.20278" lon="5.0677">
        <ele>248.16</ele>
        <time>2021-07-25T14:09:48Z</time>
      </trkpt>
      <trkpt lat="49.20273" lon="5.06753">
        <ele>249.12</ele>
        <time>2021-07-25T14:09:50Z</time>
      </trkpt>
      <trkpt lat="49.20271" lon="5.06747">
        <ele>249.12</ele>
        <time>2021-07-25T14:09:51Z</time>
      </trkpt>
      <trkpt lat="49.20269" lon="5.06742">
        <ele>249.6</ele>
        <time>2021-07-25T14:09:52Z</time>
      </trkpt>
      <trkpt lat="49.20271" lon="5.06736">
        <ele>250.08</ele>
        <time>2021-07-25T14:09:53Z</time>
      </trkpt>
      <trkpt lat="49.20274" lon="5.06734">
        <ele>249.6</ele>
        <time>2021-07-25T14:09:54Z</time>
      </trkpt>
      <trkpt lat="49.20277" lon="5.06735">
        <ele>249.6</ele>
        <time>2021-07-25T14:09:55Z</time>
      </trkpt>
      <trkpt lat="49.2028" lon="5.06736">
        <ele>249.6</ele>
        <time>2021-07-25T14:09:56Z</time>
      </trkpt>
      <trkpt lat="49.20284" lon="5.06738">
        <ele>249.6</ele>
        <time>2021-07-25T14:09:57Z</time>
      </trkpt>
      <trkpt lat="49.20288" lon="5.06741">
        <ele>249.12</ele>
        <time>2021-07-25T14:09:58Z</time>
      </trkpt>
      <trkpt lat="49.20349" lon="5.0677">
        <ele>248.64</ele>
        <time>2021-07-25T14:10:08Z</time>
      </trkpt>
      <trkpt lat="49.20385" lon="5.06792">
        <ele>250.08</ele>
        <time>2021-07-25T14:10:18Z</time>
      </trkpt>
      <trkpt lat="49.20407" lon="5.06812">
        <ele>251.04</ele>
        <time>2021-07-25T14:10:30Z</time>
      </trkpt>
      <trkpt lat="49.20407" lon="5.06812">
        <ele>251.52</ele>
        <time>2021-07-25T14:13:44Z</time>
      </trkpt>
      <trkpt lat="49.20407" lon="5.06812">
        <ele>252</ele>
        <time>2021-07-25T14:15:11Z</time>
      </trkpt>
      <trkpt lat="49.20407" lon="5.06812">
        <ele>252</ele>
        <time>2021-07-25T14:15:41Z</time>
      </trkpt>
      <trkpt lat="49.20407" lon="5.06812">
        <ele>251.52</ele>
        <time>2021-07-25T14:16:18Z</time>
      </trkpt>
      <trkpt lat="49.20407" lon="5.06812">
        <ele>251.52</ele>
        <time>2021-07-25T14:18:44Z</time>
      </trkpt>
      <trkpt lat="49.20407" lon="5.06812">
        <ele>252</ele>
        <time>2021-07-25T14:20:06Z</time>
      </trkpt>
      <trkpt lat="49.20407" lon="5.06812">
        <ele>252</ele>
        <time>2021-07-25T14:21:28Z</time>
      </trkpt>
      <trkpt lat="49.20407" lon="5.06812">
        <ele>252</ele>
        <time>2021-07-25T14:22:27Z</time>
      </trkpt>
      <trkpt lat="49.20407" lon="5.06812">
        <ele>252</ele>
        <time>2021-07-25T14:23:44Z</time>
      </trkpt>
      <trkpt lat="49.20407" lon="5.06812">
        <ele>252</ele>
        <time>2021-07-25T14:24:27Z</time>
      </trkpt>
      <trkpt lat="49.20407" lon="5.06812">
        <ele>251.04</ele>
        <time>2021-07-25T14:25:41Z</time>
      </trkpt>
      <trkpt lat="49.20407" lon="5.06812">
        <ele>250.56</ele>
        <time>2021-07-25T14:26:26Z</time>
      </trkpt>
      <trkpt lat="49.20407" lon="5.06812">
        <ele>251.04</ele>
        <time>2021-07-25T14:27:18Z</time>
      </trkpt>
      <trkpt lat="49.20407" lon="5.06812">
        <ele>251.52</ele>
        <time>2021-07-25T14:29:27Z</time>
      </trkpt>
      <trkpt lat="49.20407" lon="5.06812">
        <ele>251.52</ele>
        <time>2021-07-25T14:30:53Z</time>
      </trkpt>
      <trkpt lat="49.20407" lon="5.06812">
        <ele>251.52</ele>
        <time>2021-07-25T14:33:05Z</time>
      </trkpt>
      <trkpt lat="49.20407" lon="5.06812">
        <ele>251.52</ele>
        <time>2021-07-25T14:35:03Z</time>
      </trkpt>
      <trkpt lat="49.20407" lon="5.06812">
        <ele>251.52</ele>
        <time>2021-07-25T14:36:29Z</time>
      </trkpt>
      <trkpt lat="49.20407" lon="5.06812">
        <ele>251.52</ele>
        <time>2021-07-25T14:38:27Z</time>
      </trkpt>
      <trkpt lat="49.20407" lon="5.06812">
        <ele>252.48</ele>
        <time>2021-07-25T14:41:31Z</time>
      </trkpt>
      <trkpt lat="49.20407" lon="5.06812">
        <ele>252.48</ele>
        <time>2021-07-25T14:44:06Z</time>
      </trkpt>
      <trkpt lat="49.20407" lon="5.06812">
        <ele>252.96</ele>
        <time>2021-07-25T14:46:27Z</time>
      </trkpt>
      <trkpt lat="49.20407" lon="5.06812">
        <ele>252.96</ele>
        <time>2021-07-25T14:48:24Z</time>
      </trkpt>
      <trkpt lat="49.20407" lon="5.06812">
        <ele>252.96</ele>
        <time>2021-07-25T14:50:15Z</time>
      </trkpt>
      <trkpt lat="49.20407" lon="5.06812">
        <ele>252.96</ele>
        <time>2021-07-25T14:52:04Z</time>
      </trkpt>
      <trkpt lat="49.20407" lon="5.06812">
        <ele>252.96</ele>
        <time>2021-07-25T14:54:30Z</time>
      </trkpt>
      <trkpt lat="49.20407" lon="5.06812">
        <ele>253.44</ele>
        <time>2021-07-25T14:56:45Z</time>
      </trkpt>
      <trkpt lat="49.20407" lon="5.06812">
        <ele>253.44</ele>
        <time>2021-07-25T14:58:27Z</time>
      </trkpt>
      <trkpt lat="49.20407" lon="5.06812">
        <ele>253.44</ele>
        <time>2021-07-25T15:00:17Z</time>
      </trkpt>
      <trkpt lat="49.20407" lon="5.06812">
        <ele>253.44</ele>
        <time>2021-07-25T15:02:28Z</time>
      </trkpt>
      <trkpt lat="49.20407" lon="5.06812">
        <ele>253.44</ele>
        <time>2021-07-25T15:04:07Z</time>
      </trkpt>
      <trkpt lat="49.20407" lon="5.06812">
        <ele>253.44</ele>
        <time>2021-07-25T15:05:28Z</time>
      </trkpt>
      <trkpt lat="49.20407" lon="5.06812">
        <ele>253.44</ele>
        <time>2021-07-25T15:07:22Z</time>
      </trkpt>
      <trkpt lat="49.20407" lon="5.06812">
        <ele>253.44</ele>
        <time>2021-07-25T15:09:56Z</time>
      </trkpt>
      <trkpt lat="49.20407" lon="5.06812">
        <ele>253.44</ele>
        <time>2021-07-25T15:12:07Z</time>
      </trkpt>
      <trkpt lat="49.20407" lon="5.06812">
        <ele>252.96</ele>
        <time>2021-07-25T15:14:03Z</time>
      </trkpt>
      <trkpt lat="49.20407" lon="5.06812">
        <ele>252.96</ele>
        <time>2021-07-25T15:16:08Z</time>
      </trkpt>
      <trkpt lat="49.20407" lon="5.06812">
        <ele>252</ele>
        <time>2021-07-25T15:17:09Z</time>
      </trkpt>
      <trkpt lat="49.20407" lon="5.06812">
        <ele>251.04</ele>
        <time>2021-07-25T15:18:28Z</time>
      </trkpt>
      <trkpt lat="49.20407" lon="5.06812">
        <ele>251.04</ele>
        <time>2021-07-25T15:20:12Z</time>
      </trkpt>
      <trkpt lat="49.20407" lon="5.06812">
        <ele>251.52</ele>
        <time>2021-07-25T15:21:14Z</time>
      </trkpt>
      <trkpt lat="49.20407" lon="5.06812">
        <ele>252</ele>
        <time>2021-07-25T15:22:02Z</time>
      </trkpt>
      <trkpt lat="49.20407" lon="5.06812">
        <ele>252</ele>
        <time>2021-07-25T15:22:03Z</time>
      </trkpt>
      <trkpt lat="49.20414" lon="5.06819">
        <ele>252</ele>
        <time>2021-07-25T15:22:04Z</time>
      </trkpt>
      <trkpt lat="49.20414" lon="5.06819">
        <ele>252</ele>
        <time>2021-07-25T15:22:05Z</time>
      </trkpt>
      <trkpt lat="49.20415" lon="5.06819">
        <ele>252</ele>
        <time>2021-07-25T15:22:13Z</time>
      </trkpt>
      <trkpt lat="49.20413" lon="5.06818">
        <ele>252</ele>
        <time>2021-07-25T15:22:14Z</time>
      </trkpt>
      <trkpt lat="49.20413" lon="5.06818">
        <ele>252</ele>
        <time>2021-07-25T15:22:23Z</time>
      </trkpt>
      <trkpt lat="49.20408" lon="5.06813">
        <ele>252</ele>
        <time>2021-07-25T15:22:24Z</time>
      </trkpt>
      <trkpt lat="49.20406" lon="5.06811">
        <ele>252</ele>
        <time>2021-07-25T15:22:25Z</time>
      </trkpt>
      <trkpt lat="49.20395" lon="5.06801">
        <ele>251.04</ele>
        <time>2021-07-25T15:22:36Z</time>
      </trkpt>
      <trkpt lat="49.20395" lon="5.06801">
        <ele>250.56</ele>
        <time>2021-07-25T15:22:59Z</time>
      </trkpt>
      <trkpt lat="49.20363" lon="5.06777">
        <ele>248.16</ele>
        <time>2021-07-25T15:23:11Z</time>
      </trkpt>
      <trkpt lat="49.20359" lon="5.06775">
        <ele>247.68</ele>
        <time>2021-07-25T15:23:12Z</time>
      </trkpt>
      <trkpt lat="49.20355" lon="5.06773">
        <ele>247.2</ele>
        <time>2021-07-25T15:23:13Z</time>
      </trkpt>
      <trkpt lat="49.20306" lon="5.06749">
        <ele>246.23</ele>
        <time>2021-07-25T15:23:24Z</time>
      </trkpt>
      <trkpt lat="49.20272" lon="5.06736">
        <ele>245.27</ele>
        <time>2021-07-25T15:23:35Z</time>
      </trkpt>
      <trkpt lat="49.20269" lon="5.06737">
        <ele>244.79</ele>
        <time>2021-07-25T15:23:36Z</time>
      </trkpt>
      <trkpt lat="49.2027" lon="5.06744">
        <ele>244.31</ele>
        <time>2021-07-25T15:23:37Z</time>
      </trkpt>
      <trkpt lat="49.20271" lon="5.06747">
        <ele>244.31</ele>
        <time>2021-07-25T15:23:38Z</time>
      </trkpt>
      <trkpt lat="49.20272" lon="5.06752">
        <ele>243.83</ele>
        <time>2021-07-25T15:23:39Z</time>
      </trkpt>
      <trkpt lat="49.20274" lon="5.06757">
        <ele>243.35</ele>
        <time>2021-07-25T15:23:40Z</time>
      </trkpt>
      <trkpt lat="49.20299" lon="5.06876">
        <ele>236.62</ele>
        <time>2021-07-25T15:23:56Z</time>
      </trkpt>
      <trkpt lat="49.2032" lon="5.07">
        <ele>229.41</ele>
        <time>2021-07-25T15:24:08Z</time>
      </trkpt>
      <trkpt lat="49.20329" lon="5.07051">
        <ele>225.57</ele>
        <time>2021-07-25T15:24:18Z</time>
      </trkpt>
      <trkpt lat="49.20344" lon="5.07135">
        <ele>223.64</ele>
        <time>2021-07-25T15:24:30Z</time>
      </trkpt>
      <trkpt lat="49.20345" lon="5.07144">
        <ele>222.68</ele>
        <time>2021-07-25T15:24:40Z</time>
      </trkpt>
      <trkpt lat="49.20346" lon="5.07144">
        <ele>222.2</ele>
        <time>2021-07-25T15:24:48Z</time>
      </trkpt>
      <trkpt lat="49.20328" lon="5.07155">
        <ele>222.2</ele>
        <time>2021-07-25T15:24:49Z</time>
      </trkpt>
      <trkpt lat="49.20328" lon="5.07155">
        <ele>222.2</ele>
        <time>2021-07-25T15:24:50Z</time>
      </trkpt>
      <trkpt lat="49.20327" lon="5.07152">
        <ele>222.2</ele>
        <time>2021-07-25T15:24:51Z</time>
      </trkpt>
      <trkpt lat="49.20325" lon="5.07148">
        <ele>222.2</ele>
        <time>2021-07-25T15:24:52Z</time>
      </trkpt>
      <trkpt lat="49.20322" lon="5.07143">
        <ele>221.72</ele>
        <time>2021-07-25T15:24:53Z</time>
      </trkpt>
      <trkpt lat="49.20283" lon="5.07074">
        <ele>219.8</ele>
        <time>2021-07-25T15:25:03Z</time>
      </trkpt>
      <trkpt lat="49.20199" lon="5.06996">
        <ele>215.95</ele>
        <time>2021-07-25T15:25:18Z</time>
      </trkpt>
      <trkpt lat="49.20104" lon="5.06957">
        <ele>215.47</ele>
        <time>2021-07-25T15:25:28Z</time>
      </trkpt>
      <trkpt lat="49.19938" lon="5.06917">
        <ele>208.74</ele>
        <time>2021-07-25T15:25:45Z</time>
      </trkpt>
      <trkpt lat="49.19848" lon="5.06865">
        <ele>206.34</ele>
        <time>2021-07-25T15:25:54Z</time>
      </trkpt>
      <trkpt lat="49.19748" lon="5.06771">
        <ele>202.98</ele>
        <time>2021-07-25T15:26:05Z</time>
      </trkpt>
      <trkpt lat="49.19701" lon="5.06732">
        <ele>202.01</ele>
        <time>2021-07-25T15:26:10Z</time>
      </trkpt>
      <trkpt lat="49.19692" lon="5.06723">
        <ele>202.01</ele>
        <time>2021-07-25T15:26:11Z</time>
      </trkpt>
      <trkpt lat="49.19685" lon="5.06711">
        <ele>202.01</ele>
        <time>2021-07-25T15:26:12Z</time>
      </trkpt>
      <trkpt lat="49.19679" lon="5.06698">
        <ele>201.05</ele>
        <time>2021-07-25T15:26:13Z</time>
      </trkpt>
      <trkpt lat="49.19672" lon="5.06685">
        <ele>200.09</ele>
        <time>2021-07-25T15:26:14Z</time>
      </trkpt>
      <trkpt lat="49.19666" lon="5.06671">
        <ele>200.09</ele>
        <time>2021-07-25T15:26:15Z</time>
      </trkpt>
      <trkpt lat="49.1958" lon="5.06431">
        <ele>193.36</ele>
        <time>2021-07-25T15:26:30Z</time>
      </trkpt>
      <trkpt lat="49.19519" lon="5.06246">
        <ele>190</ele>
        <time>2021-07-25T15:26:41Z</time>
      </trkpt>
      <trkpt lat="49.19516" lon="5.06229">
        <ele>190.48</ele>
        <time>2021-07-25T15:26:42Z</time>
      </trkpt>
      <trkpt lat="49.19514" lon="5.06213">
        <ele>190.96</ele>
        <time>2021-07-25T15:26:43Z</time>
      </trkpt>
      <trkpt lat="49.19513" lon="5.06197">
        <ele>189.04</ele>
        <time>2021-07-25T15:26:44Z</time>
      </trkpt>
      <trkpt lat="49.19515" lon="5.06182">
        <ele>188.08</ele>
        <time>2021-07-25T15:26:45Z</time>
      </trkpt>
      <trkpt lat="49.19518" lon="5.06166">
        <ele>188.56</ele>
        <time>2021-07-25T15:26:46Z</time>
      </trkpt>
      <trkpt lat="49.19521" lon="5.06149">
        <ele>187.11</ele>
        <time>2021-07-25T15:26:47Z</time>
      </trkpt>
      <trkpt lat="49.19525" lon="5.06134">
        <ele>186.15</ele>
        <time>2021-07-25T15:26:48Z</time>
      </trkpt>
      <trkpt lat="49.19532" lon="5.06121">
        <ele>185.19</ele>
        <time>2021-07-25T15:26:49Z</time>
      </trkpt>
      <trkpt lat="49.19539" lon="5.06107">
        <ele>184.23</ele>
        <time>2021-07-25T15:26:50Z</time>
      </trkpt>
      <trkpt lat="49.19547" lon="5.06093">
        <ele>184.23</ele>
        <time>2021-07-25T15:26:51Z</time>
      </trkpt>
      <trkpt lat="49.19558" lon="5.0608">
        <ele>183.75</ele>
        <time>2021-07-25T15:26:52Z</time>
      </trkpt>
      <trkpt lat="49.19618" lon="5.05978">
        <ele>185.19</ele>
        <time>2021-07-25T15:26:59Z</time>
      </trkpt>
      <trkpt lat="49.19657" lon="5.05789">
        <ele>193.84</ele>
        <time>2021-07-25T15:27:08Z</time>
      </trkpt>
      <trkpt lat="49.19689" lon="5.05606">
        <ele>195.77</ele>
        <time>2021-07-25T15:27:17Z</time>
      </trkpt>
      <trkpt lat="49.19689" lon="5.05606">
        <ele>196.25</ele>
        <time>2021-07-25T15:27:18Z</time>
      </trkpt>
      <trkpt lat="49.19689" lon="5.05588">
        <ele>196.25</ele>
        <time>2021-07-25T15:27:19Z</time>
      </trkpt>
      <trkpt lat="49.19671" lon="5.0534">
        <ele>189.52</ele>
        <time>2021-07-25T15:27:29Z</time>
      </trkpt>
      <trkpt lat="49.19638" lon="5.04946">
        <ele>190</ele>
        <time>2021-07-25T15:27:47Z</time>
      </trkpt>
      <trkpt lat="49.19637" lon="5.04723">
        <ele>185.67</ele>
        <time>2021-07-25T15:27:59Z</time>
      </trkpt>
      <trkpt lat="49.19648" lon="5.04606">
        <ele>180.87</ele>
        <time>2021-07-25T15:28:07Z</time>
      </trkpt>
      <trkpt lat="49.1965" lon="5.04446">
        <ele>180.87</ele>
        <time>2021-07-25T15:28:21Z</time>
      </trkpt>
      <trkpt lat="49.19649" lon="5.04437">
        <ele>180.87</ele>
        <time>2021-07-25T15:28:22Z</time>
      </trkpt>
      <trkpt lat="49.19647" lon="5.04426">
        <ele>180.38</ele>
        <time>2021-07-25T15:28:23Z</time>
      </trkpt>
      <trkpt lat="49.19613" lon="5.04295">
        <ele>178.46</ele>
        <time>2021-07-25T15:28:36Z</time>
      </trkpt>
      <trkpt lat="49.19619" lon="5.04275">
        <ele>179.42</ele>
        <time>2021-07-25T15:28:44Z</time>
      </trkpt>
      <trkpt lat="49.19672" lon="5.04241">
        <ele>178.46</ele>
        <time>2021-07-25T15:28:53Z</time>
      </trkpt>
      <trkpt lat="49.19802" lon="5.04161">
        <ele>177.02</ele>
        <time>2021-07-25T15:29:05Z</time>
      </trkpt>
      <trkpt lat="49.19947" lon="5.04083">
        <ele>173.66</ele>
        <time>2021-07-25T15:29:20Z</time>
      </trkpt>
      <trkpt lat="49.20161" lon="5.03993">
        <ele>164.04</ele>
        <time>2021-07-25T15:29:37Z</time>
      </trkpt>
      <trkpt lat="49.2042" lon="5.03887">
        <ele>154.43</ele>
        <time>2021-07-25T15:29:55Z</time>
      </trkpt>
      <trkpt lat="49.20621" lon="5.03804">
        <ele>156.35</ele>
        <time>2021-07-25T15:30:08Z</time>
      </trkpt>
      <trkpt lat="49.20847" lon="5.0371">
        <ele>166.93</ele>
        <time>2021-07-25T15:30:23Z</time>
      </trkpt>
      <trkpt lat="49.20997" lon="5.03649">
        <ele>169.81</ele>
        <time>2021-07-25T15:30:33Z</time>
      </trkpt>
      <trkpt lat="49.21162" lon="5.03581">
        <ele>176.06</ele>
        <time>2021-07-25T15:30:43Z</time>
      </trkpt>
      <trkpt lat="49.21444" lon="5.03466">
        <ele>171.73</ele>
        <time>2021-07-25T15:31:01Z</time>
      </trkpt>
      <trkpt lat="49.21674" lon="5.03372">
        <ele>173.66</ele>
        <time>2021-07-25T15:31:14Z</time>
      </trkpt>
      <trkpt lat="49.21941" lon="5.03263">
        <ele>173.66</ele>
        <time>2021-07-25T15:31:31Z</time>
      </trkpt>
      <trkpt lat="49.22178" lon="5.03167">
        <ele>173.66</ele>
        <time>2021-07-25T15:31:45Z</time>
      </trkpt>
      <trkpt lat="49.22317" lon="5.03109">
        <ele>173.66</ele>
        <time>2021-07-25T15:31:55Z</time>
      </trkpt>
      <trkpt lat="49.22375" lon="5.03093">
        <ele>175.1</ele>
        <time>2021-07-25T15:32:02Z</time>
      </trkpt>
      <trkpt lat="49.22379" lon="5.03096">
        <ele>175.1</ele>
        <time>2021-07-25T15:32:03Z</time>
      </trkpt>
      <trkpt lat="49.22383" lon="5.03099">
        <ele>175.58</ele>
        <time>2021-07-25T15:32:04Z</time>
      </trkpt>
      <trkpt lat="49.22448" lon="5.03141">
        <ele>175.1</ele>
        <time>2021-07-25T15:32:15Z</time>
      </trkpt>
      <trkpt lat="49.22484" lon="5.03167">
        <ele>175.1</ele>
        <time>2021-07-25T15:32:25Z</time>
      </trkpt>
      <trkpt lat="49.22485" lon="5.03168">
        <ele>174.62</ele>
        <time>2021-07-25T15:32:34Z</time>
      </trkpt>
      <trkpt lat="49.22487" lon="5.03162">
        <ele>174.62</ele>
        <time>2021-07-25T15:32:35Z</time>
      </trkpt>
      <trkpt lat="49.22489" lon="5.03159">
        <ele>174.62</ele>
        <time>2021-07-25T15:32:36Z</time>
      </trkpt>
      <trkpt lat="49.22504" lon="5.03139">
        <ele>174.62</ele>
        <time>2021-07-25T15:32:47Z</time>
      </trkpt>
      <trkpt lat="49.22504" lon="5.03141">
        <ele>174.62</ele>
        <time>2021-07-25T15:32:58Z</time>
      </trkpt>
      <trkpt lat="49.22504" lon="5.03142">
        <ele>174.62</ele>
        <time>2021-07-25T15:33:00Z</time>
      </trkpt>
      <trkpt lat="49.22499" lon="5.03153">
        <ele>175.1</ele>
        <time>2021-07-25T15:33:13Z</time>
      </trkpt>
      <trkpt lat="49.22489" lon="5.03159">
        <ele>176.06</ele>
        <time>2021-07-25T15:33:18Z</time>
      </trkpt>
      <trkpt lat="49.22487" lon="5.03163">
        <ele>176.54</ele>
        <time>2021-07-25T15:33:19Z</time>
      </trkpt>
      <trkpt lat="49.22485" lon="5.03166">
        <ele>176.06</ele>
        <time>2021-07-25T15:33:20Z</time>
      </trkpt>
      <trkpt lat="49.22484" lon="5.03169">
        <ele>176.54</ele>
        <time>2021-07-25T15:33:21Z</time>
      </trkpt>
      <trkpt lat="49.22487" lon="5.0317">
        <ele>176.06</ele>
        <time>2021-07-25T15:33:22Z</time>
      </trkpt>
      <trkpt lat="49.2249" lon="5.03173">
        <ele>176.06</ele>
        <time>2021-07-25T15:33:23Z</time>
      </trkpt>
      <trkpt lat="49.22493" lon="5.03175">
        <ele>176.06</ele>
        <time>2021-07-25T15:33:24Z</time>
      </trkpt>
      <trkpt lat="49.22496" lon="5.03178">
        <ele>176.06</ele>
        <time>2021-07-25T15:33:25Z</time>
      </trkpt>
      <trkpt lat="49.22536" lon="5.03219">
        <ele>174.14</ele>
        <time>2021-07-25T15:33:40Z</time>
      </trkpt>
      <trkpt lat="49.22556" lon="5.03204">
        <ele>172.69</ele>
        <time>2021-07-25T15:33:48Z</time>
      </trkpt>
      <trkpt lat="49.22589" lon="5.03148">
        <ele>173.17</ele>
        <time>2021-07-25T15:34:03Z</time>
      </trkpt>
      <trkpt lat="49.22594" lon="5.03141">
        <ele>172.69</ele>
        <time>2021-07-25T15:34:15Z</time>
      </trkpt>
      <trkpt lat="49.22594" lon="5.03141">
        <ele>172.69</ele>
        <time>2021-07-25T15:34:23Z</time>
      </trkpt>
      <trkpt lat="49.22603" lon="5.0314">
        <ele>172.21</ele>
        <time>2021-07-25T15:34:35Z</time>
      </trkpt>
      <trkpt lat="49.22608" lon="5.03147">
        <ele>171.25</ele>
        <time>2021-07-25T15:35:02Z</time>
      </trkpt>
      <trkpt lat="49.22621" lon="5.03165">
        <ele>169.81</ele>
        <time>2021-07-25T15:35:18Z</time>
      </trkpt>
      <trkpt lat="49.22635" lon="5.03196">
        <ele>167.41</ele>
        <time>2021-07-25T15:38:59Z</time>
      </trkpt>
      <trkpt lat="49.22672" lon="5.03325">
        <ele>160.68</ele>
        <time>2021-07-25T15:39:24Z</time>
      </trkpt>
      <trkpt lat="49.2268" lon="5.03354">
        <ele>158.75</ele>
        <time>2021-07-25T15:39:35Z</time>
      </trkpt>
      <trkpt lat="49.22686" lon="5.03357">
        <ele>158.27</ele>
        <time>2021-07-25T15:39:47Z</time>
      </trkpt>
      <trkpt lat="49.22707" lon="5.03365">
        <ele>156.83</ele>
        <time>2021-07-25T15:40:36Z</time>
      </trkpt>
      <trkpt lat="49.22764" lon="5.03372">
        <ele>152.03</ele>
        <time>2021-07-25T15:40:58Z</time>
      </trkpt>
      <trkpt lat="49.22785" lon="5.03411">
        <ele>150.58</ele>
        <time>2021-07-25T15:41:08Z</time>
      </trkpt>
      <trkpt lat="49.22791" lon="5.03492">
        <ele>150.1</ele>
        <time>2021-07-25T15:41:26Z</time>
      </trkpt>
      <trkpt lat="49.22796" lon="5.03509">
        <ele>150.1</ele>
        <time>2021-07-25T15:41:40Z</time>
      </trkpt>
      <trkpt lat="49.22796" lon="5.03509">
        <ele>150.58</ele>
        <time>2021-07-25T15:41:55Z</time>
      </trkpt>
      <trkpt lat="49.22796" lon="5.03509">
        <ele>150.58</ele>
        <time>2021-07-25T15:45:03Z</time>
      </trkpt>
      <trkpt lat="49.22796" lon="5.03509">
        <ele>151.06</ele>
        <time>2021-07-25T15:50:09Z</time>
      </trkpt>
      <trkpt lat="49.22796" lon="5.03509">
        <ele>152.03</ele>
        <time>2021-07-25T15:56:47Z</time>
      </trkpt>
      <trkpt lat="49.22796" lon="5.03509">
        <ele>152.99</ele>
        <time>2021-07-25T16:05:47Z</time>
      </trkpt>
      <trkpt lat="49.22796" lon="5.03509">
        <ele>153.47</ele>
        <time>2021-07-25T16:10:50Z</time>
      </trkpt>
      <trkpt lat="49.22796" lon="5.03509">
        <ele>153.47</ele>
        <time>2021-07-25T16:16:39Z</time>
      </trkpt>
      <trkpt lat="49.22796" lon="5.03509">
        <ele>153.47</ele>
        <time>2021-07-25T16:21:08Z</time>
      </trkpt>
      <trkpt lat="49.22796" lon="5.03509">
        <ele>153.47</ele>
        <time>2021-07-25T16:24:05Z</time>
      </trkpt>
      <trkpt lat="49.22796" lon="5.03509">
        <ele>153.47</ele>
        <time>2021-07-25T16:24:06Z</time>
      </trkpt>
      <trkpt lat="49.22799" lon="5.03524">
        <ele>153.47</ele>
        <time>2021-07-25T16:24:07Z</time>
      </trkpt>
      <trkpt lat="49.228" lon="5.03528">
        <ele>153.47</ele>
        <time>2021-07-25T16:24:08Z</time>
      </trkpt>
      <trkpt lat="49.228" lon="5.03528">
        <ele>153.47</ele>
        <time>2021-07-25T16:24:09Z</time>
      </trkpt>
      <trkpt lat="49.22801" lon="5.0353">
        <ele>153.47</ele>
        <time>2021-07-25T16:24:10Z</time>
      </trkpt>
      <trkpt lat="49.22801" lon="5.03533">
        <ele>153.95</ele>
        <time>2021-07-25T16:24:11Z</time>
      </trkpt>
      <trkpt lat="49.22802" lon="5.03537">
        <ele>153.95</ele>
        <time>2021-07-25T16:24:12Z</time>
      </trkpt>
      <trkpt lat="49.22803" lon="5.03542">
        <ele>153.95</ele>
        <time>2021-07-25T16:24:13Z</time>
      </trkpt>
      <trkpt lat="49.22822" lon="5.03624">
        <ele>153.47</ele>
        <time>2021-07-25T16:24:26Z</time>
      </trkpt>
      <trkpt lat="49.22847" lon="5.0378">
        <ele>154.43</ele>
        <time>2021-07-25T16:24:42Z</time>
      </trkpt>
      <trkpt lat="49.22862" lon="5.0397">
        <ele>154.43</ele>
        <time>2021-07-25T16:24:57Z</time>
      </trkpt>
      <trkpt lat="49.22875" lon="5.04182">
        <ele>157.31</ele>
        <time>2021-07-25T16:25:12Z</time>
      </trkpt>
      <trkpt lat="49.2289" lon="5.04455">
        <ele>167.41</ele>
        <time>2021-07-25T16:25:31Z</time>
      </trkpt>
      <trkpt lat="49.22893" lon="5.04465">
        <ele>168.37</ele>
        <time>2021-07-25T16:25:32Z</time>
      </trkpt>
      <trkpt lat="49.22896" lon="5.04474">
        <ele>168.85</ele>
        <time>2021-07-25T16:25:33Z</time>
      </trkpt>
      <trkpt lat="49.22903" lon="5.0448">
        <ele>168.85</ele>
        <time>2021-07-25T16:25:34Z</time>
      </trkpt>
      <trkpt lat="49.2291" lon="5.04486">
        <ele>169.33</ele>
        <time>2021-07-25T16:25:35Z</time>
      </trkpt>
      <trkpt lat="49.22917" lon="5.04488">
        <ele>169.81</ele>
        <time>2021-07-25T16:25:36Z</time>
      </trkpt>
      <trkpt lat="49.22925" lon="5.04488">
        <ele>170.29</ele>
        <time>2021-07-25T16:25:37Z</time>
      </trkpt>
      <trkpt lat="49.22959" lon="5.04491">
        <ele>171.25</ele>
        <time>2021-07-25T16:25:41Z</time>
      </trkpt>
      <trkpt lat="49.23082" lon="5.045">
        <ele>173.66</ele>
        <time>2021-07-25T16:25:53Z</time>
      </trkpt>
      <trkpt lat="49.23314" lon="5.04509">
        <ele>188.56</ele>
        <time>2021-07-25T16:26:12Z</time>
      </trkpt>
      <trkpt lat="49.23325" lon="5.04504">
        <ele>188.56</ele>
        <time>2021-07-25T16:26:13Z</time>
      </trkpt>
      <trkpt lat="49.23335" lon="5.04498">
        <ele>189.52</ele>
        <time>2021-07-25T16:26:14Z</time>
      </trkpt>
      <trkpt lat="49.23344" lon="5.04492">
        <ele>190.48</ele>
        <time>2021-07-25T16:26:15Z</time>
      </trkpt>
      <trkpt lat="49.23352" lon="5.04483">
        <ele>190.48</ele>
        <time>2021-07-25T16:26:16Z</time>
      </trkpt>
      <trkpt lat="49.23475" lon="5.04341">
        <ele>192.4</ele>
        <time>2021-07-25T16:26:29Z</time>
      </trkpt>
      <trkpt lat="49.2366" lon="5.0412">
        <ele>190</ele>
        <time>2021-07-25T16:26:46Z</time>
      </trkpt>
      <trkpt lat="49.23899" lon="5.03834">
        <ele>188.08</ele>
        <time>2021-07-25T16:27:07Z</time>
      </trkpt>
      <trkpt lat="49.24111" lon="5.03581">
        <ele>182.31</ele>
        <time>2021-07-25T16:27:25Z</time>
      </trkpt>
      <trkpt lat="49.24285" lon="5.03372">
        <ele>184.71</ele>
        <time>2021-07-25T16:27:39Z</time>
      </trkpt>
      <trkpt lat="49.2436" lon="5.03283">
        <ele>184.23</ele>
        <time>2021-07-25T16:27:47Z</time>
      </trkpt>
      <trkpt lat="49.24471" lon="5.0315">
        <ele>177.5</ele>
        <time>2021-07-25T16:28:01Z</time>
      </trkpt>
      <trkpt lat="49.24629" lon="5.02962">
        <ele>180.38</ele>
        <time>2021-07-25T16:28:17Z</time>
      </trkpt>
      <trkpt lat="49.2473" lon="5.02841">
        <ele>183.27</ele>
        <time>2021-07-25T16:28:28Z</time>
      </trkpt>
      <trkpt lat="49.24823" lon="5.02731">
        <ele>181.83</ele>
        <time>2021-07-25T16:28:38Z</time>
      </trkpt>
      <trkpt lat="49.24833" lon="5.02718">
        <ele>182.31</ele>
        <time>2021-07-25T16:28:40Z</time>
      </trkpt>
      <trkpt lat="49.24837" lon="5.02714">
        <ele>182.31</ele>
        <time>2021-07-25T16:28:41Z</time>
      </trkpt>
      <trkpt lat="49.2484" lon="5.02711">
        <ele>182.31</ele>
        <time>2021-07-25T16:28:42Z</time>
      </trkpt>
      <trkpt lat="49.24842" lon="5.02708">
        <ele>182.79</ele>
        <time>2021-07-25T16:28:43Z</time>
      </trkpt>
      <trkpt lat="49.24843" lon="5.02707">
        <ele>182.79</ele>
        <time>2021-07-25T16:28:44Z</time>
      </trkpt>
      <trkpt lat="49.24845" lon="5.02705">
        <ele>182.79</ele>
        <time>2021-07-25T16:28:45Z</time>
      </trkpt>
      <trkpt lat="49.24846" lon="5.02703">
        <ele>182.79</ele>
        <time>2021-07-25T16:28:46Z</time>
      </trkpt>
      <trkpt lat="49.24847" lon="5.02702">
        <ele>186.15</ele>
        <time>2021-07-25T16:29:03Z</time>
      </trkpt>
      <trkpt lat="49.24846" lon="5.02704">
        <ele>186.15</ele>
        <time>2021-07-25T16:29:05Z</time>
      </trkpt>
      <trkpt lat="49.24844" lon="5.02706">
        <ele>186.15</ele>
        <time>2021-07-25T16:29:06Z</time>
      </trkpt>
      <trkpt lat="49.24841" lon="5.02709">
        <ele>185.67</ele>
        <time>2021-07-25T16:29:07Z</time>
      </trkpt>
      <trkpt lat="49.24837" lon="5.02713">
        <ele>185.67</ele>
        <time>2021-07-25T16:29:08Z</time>
      </trkpt>
      <trkpt lat="49.24788" lon="5.02773">
        <ele>185.19</ele>
        <time>2021-07-25T16:29:17Z</time>
      </trkpt>
      <trkpt lat="49.24658" lon="5.02927">
        <ele>183.75</ele>
        <time>2021-07-25T16:29:32Z</time>
      </trkpt>
      <trkpt lat="49.24495" lon="5.03121">
        <ele>182.31</ele>
        <time>2021-07-25T16:29:46Z</time>
      </trkpt>
      <trkpt lat="49.24383" lon="5.03255">
        <ele>185.67</ele>
        <time>2021-07-25T16:29:56Z</time>
      </trkpt>
      <trkpt lat="49.24323" lon="5.03326">
        <ele>187.11</ele>
        <time>2021-07-25T16:30:04Z</time>
      </trkpt>
      <trkpt lat="49.2432" lon="5.0333">
        <ele>187.59</ele>
        <time>2021-07-25T16:30:05Z</time>
      </trkpt>
      <trkpt lat="49.24319" lon="5.03345">
        <ele>188.08</ele>
        <time>2021-07-25T16:30:06Z</time>
      </trkpt>
      <trkpt lat="49.24319" lon="5.03345">
        <ele>187.59</ele>
        <time>2021-07-25T16:30:07Z</time>
      </trkpt>
      <trkpt lat="49.24322" lon="5.03346">
        <ele>187.59</ele>
        <time>2021-07-25T16:30:08Z</time>
      </trkpt>
      <trkpt lat="49.24327" lon="5.03348">
        <ele>188.08</ele>
        <time>2021-07-25T16:30:09Z</time>
      </trkpt>
      <trkpt lat="49.24332" lon="5.0335">
        <ele>188.08</ele>
        <time>2021-07-25T16:30:10Z</time>
      </trkpt>
      <trkpt lat="49.24338" lon="5.03353">
        <ele>188.08</ele>
        <time>2021-07-25T16:30:11Z</time>
      </trkpt>
      <trkpt lat="49.24439" lon="5.03356">
        <ele>188.56</ele>
        <time>2021-07-25T16:30:24Z</time>
      </trkpt>
      <trkpt lat="49.2459" lon="5.03358">
        <ele>190.96</ele>
        <time>2021-07-25T16:30:40Z</time>
      </trkpt>
      <trkpt lat="49.24757" lon="5.03361">
        <ele>191.44</ele>
        <time>2021-07-25T16:30:54Z</time>
      </trkpt>
      <trkpt lat="49.24958" lon="5.03361">
        <ele>193.36</ele>
        <time>2021-07-25T16:31:10Z</time>
      </trkpt>
      <trkpt lat="49.2497" lon="5.03361">
        <ele>193.84</ele>
        <time>2021-07-25T16:31:11Z</time>
      </trkpt>
      <trkpt lat="49.24983" lon="5.03356">
        <ele>193.36</ele>
        <time>2021-07-25T16:31:12Z</time>
      </trkpt>
      <trkpt lat="49.24994" lon="5.03348">
        <ele>195.28</ele>
        <time>2021-07-25T16:31:13Z</time>
      </trkpt>
      <trkpt lat="49.25004" lon="5.0334">
        <ele>194.8</ele>
        <time>2021-07-25T16:31:14Z</time>
      </trkpt>
      <trkpt lat="49.25042" lon="5.03297">
        <ele>193.84</ele>
        <time>2021-07-25T16:31:18Z</time>
      </trkpt>
      <trkpt lat="49.25052" lon="5.03287">
        <ele>196.25</ele>
        <time>2021-07-25T16:31:19Z</time>
      </trkpt>
      <trkpt lat="49.25062" lon="5.03281">
        <ele>195.77</ele>
        <time>2021-07-25T16:31:20Z</time>
      </trkpt>
      <trkpt lat="49.25073" lon="5.03276">
        <ele>194.8</ele>
        <time>2021-07-25T16:31:21Z</time>
      </trkpt>
      <trkpt lat="49.25084" lon="5.03274">
        <ele>193.84</ele>
        <time>2021-07-25T16:31:22Z</time>
      </trkpt>
      <trkpt lat="49.25135" lon="5.03263">
        <ele>193.84</ele>
        <time>2021-07-25T16:31:27Z</time>
      </trkpt>
      <trkpt lat="49.25144" lon="5.03257">
        <ele>193.36</ele>
        <time>2021-07-25T16:31:28Z</time>
      </trkpt>
      <trkpt lat="49.25154" lon="5.03251">
        <ele>191.92</ele>
        <time>2021-07-25T16:31:29Z</time>
      </trkpt>
      <trkpt lat="49.25299" lon="5.03115">
        <ele>180.87</ele>
        <time>2021-07-25T16:31:45Z</time>
      </trkpt>
      <trkpt lat="49.25393" lon="5.0306">
        <ele>167.41</ele>
        <time>2021-07-25T16:31:55Z</time>
      </trkpt>
      <trkpt lat="49.25569" lon="5.03004">
        <ele>155.39</ele>
        <time>2021-07-25T16:32:09Z</time>
      </trkpt>
      <trkpt lat="49.257" lon="5.02937">
        <ele>148.66</ele>
        <time>2021-07-25T16:32:19Z</time>
      </trkpt>
      <trkpt lat="49.25711" lon="5.02932">
        <ele>148.18</ele>
        <time>2021-07-25T16:32:20Z</time>
      </trkpt>
      <trkpt lat="49.25722" lon="5.02933">
        <ele>149.62</ele>
        <time>2021-07-25T16:32:21Z</time>
      </trkpt>
      <trkpt lat="49.25732" lon="5.02935">
        <ele>150.58</ele>
        <time>2021-07-25T16:32:22Z</time>
      </trkpt>
      <trkpt lat="49.25741" lon="5.02937">
        <ele>150.1</ele>
        <time>2021-07-25T16:32:23Z</time>
      </trkpt>
      <trkpt lat="49.25765" lon="5.02948">
        <ele>148.66</ele>
        <time>2021-07-25T16:32:26Z</time>
      </trkpt>
      <trkpt lat="49.25774" lon="5.02954">
        <ele>147.22</ele>
        <time>2021-07-25T16:32:27Z</time>
      </trkpt>
      <trkpt lat="49.25779" lon="5.02961">
        <ele>145.3</ele>
        <time>2021-07-25T16:32:28Z</time>
      </trkpt>
      <trkpt lat="49.25783" lon="5.02972">
        <ele>144.34</ele>
        <time>2021-07-25T16:32:29Z</time>
      </trkpt>
      <trkpt lat="49.25785" lon="5.02982">
        <ele>142.89</ele>
        <time>2021-07-25T16:32:30Z</time>
      </trkpt>
      <trkpt lat="49.25784" lon="5.02995">
        <ele>143.85</ele>
        <time>2021-07-25T16:32:31Z</time>
      </trkpt>
      <trkpt lat="49.25782" lon="5.03007">
        <ele>144.34</ele>
        <time>2021-07-25T16:32:32Z</time>
      </trkpt>
      <trkpt lat="49.25777" lon="5.03032">
        <ele>144.34</ele>
        <time>2021-07-25T16:32:34Z</time>
      </trkpt>
      <trkpt lat="49.25776" lon="5.03044">
        <ele>144.34</ele>
        <time>2021-07-25T16:32:35Z</time>
      </trkpt>
      <trkpt lat="49.25776" lon="5.03056">
        <ele>144.34</ele>
        <time>2021-07-25T16:32:36Z</time>
      </trkpt>
      <trkpt lat="49.25776" lon="5.03067">
        <ele>144.82</ele>
        <time>2021-07-25T16:32:37Z</time>
      </trkpt>
      <trkpt lat="49.25777" lon="5.03077">
        <ele>144.82</ele>
        <time>2021-07-25T16:32:38Z</time>
      </trkpt>
      <trkpt lat="49.25784" lon="5.03108">
        <ele>145.78</ele>
        <time>2021-07-25T16:32:45Z</time>
      </trkpt>
      <trkpt lat="49.2579" lon="5.03127">
        <ele>144.82</ele>
        <time>2021-07-25T16:33:23Z</time>
      </trkpt>
      <trkpt lat="49.25792" lon="5.03134">
        <ele>144.82</ele>
        <time>2021-07-25T16:33:24Z</time>
      </trkpt>
      <trkpt lat="49.25794" lon="5.0314">
        <ele>145.3</ele>
        <time>2021-07-25T16:33:25Z</time>
      </trkpt>
      <trkpt lat="49.25796" lon="5.03147">
        <ele>145.78</ele>
        <time>2021-07-25T16:33:26Z</time>
      </trkpt>
      <trkpt lat="49.25797" lon="5.03156">
        <ele>146.26</ele>
        <time>2021-07-25T16:33:27Z</time>
      </trkpt>
      <trkpt lat="49.25799" lon="5.03166">
        <ele>146.74</ele>
        <time>2021-07-25T16:33:28Z</time>
      </trkpt>
      <trkpt lat="49.25799" lon="5.03178">
        <ele>147.22</ele>
        <time>2021-07-25T16:33:29Z</time>
      </trkpt>
      <trkpt lat="49.25797" lon="5.03189">
        <ele>147.7</ele>
        <time>2021-07-25T16:33:30Z</time>
      </trkpt>
      <trkpt lat="49.25785" lon="5.0328">
        <ele>155.39</ele>
        <time>2021-07-25T16:33:37Z</time>
      </trkpt>
      <trkpt lat="49.25782" lon="5.03293">
        <ele>156.35</ele>
        <time>2021-07-25T16:33:38Z</time>
      </trkpt>
      <trkpt lat="49.2578" lon="5.03306">
        <ele>156.83</ele>
        <time>2021-07-25T16:33:39Z</time>
      </trkpt>
      <trkpt lat="49.25776" lon="5.03318">
        <ele>156.83</ele>
        <time>2021-07-25T16:33:40Z</time>
      </trkpt>
      <trkpt lat="49.25771" lon="5.0333">
        <ele>156.83</ele>
        <time>2021-07-25T16:33:41Z</time>
      </trkpt>
      <trkpt lat="49.25739" lon="5.03402">
        <ele>159.24</ele>
        <time>2021-07-25T16:33:47Z</time>
      </trkpt>
      <trkpt lat="49.25736" lon="5.03415">
        <ele>159.24</ele>
        <time>2021-07-25T16:33:48Z</time>
      </trkpt>
      <trkpt lat="49.25734" lon="5.03427">
        <ele>160.2</ele>
        <time>2021-07-25T16:33:49Z</time>
      </trkpt>
      <trkpt lat="49.25736" lon="5.03438">
        <ele>161.64</ele>
        <time>2021-07-25T16:33:50Z</time>
      </trkpt>
      <trkpt lat="49.25739" lon="5.03451">
        <ele>163.56</ele>
        <time>2021-07-25T16:33:51Z</time>
      </trkpt>
      <trkpt lat="49.25743" lon="5.03465">
        <ele>163.56</ele>
        <time>2021-07-25T16:33:52Z</time>
      </trkpt>
      <trkpt lat="49.25749" lon="5.03476">
        <ele>162.12</ele>
        <time>2021-07-25T16:33:53Z</time>
      </trkpt>
      <trkpt lat="49.25825" lon="5.03585">
        <ele>167.41</ele>
        <time>2021-07-25T16:34:01Z</time>
      </trkpt>
      <trkpt lat="49.26002" lon="5.0384">
        <ele>171.25</ele>
        <time>2021-07-25T16:34:17Z</time>
      </trkpt>
      <trkpt lat="49.26144" lon="5.04044">
        <ele>178.94</ele>
        <time>2021-07-25T16:34:28Z</time>
      </trkpt>
      <trkpt lat="49.26272" lon="5.0423">
        <ele>196.25</ele>
        <time>2021-07-25T16:34:40Z</time>
      </trkpt>
      <trkpt lat="49.26406" lon="5.04422">
        <ele>206.82</ele>
        <time>2021-07-25T16:34:53Z</time>
      </trkpt>
      <trkpt lat="49.26551" lon="5.04631">
        <ele>209.22</ele>
        <time>2021-07-25T16:35:05Z</time>
      </trkpt>
      <trkpt lat="49.26746" lon="5.04915">
        <ele>209.22</ele>
        <time>2021-07-25T16:35:19Z</time>
      </trkpt>
      <trkpt lat="49.2706" lon="5.05372">
        <ele>211.15</ele>
        <time>2021-07-25T16:35:40Z</time>
      </trkpt>
      <trkpt lat="49.27301" lon="5.05721">
        <ele>220.28</ele>
        <time>2021-07-25T16:35:57Z</time>
      </trkpt>
      <trkpt lat="49.27534" lon="5.06059">
        <ele>213.07</ele>
        <time>2021-07-25T16:36:14Z</time>
      </trkpt>
      <trkpt lat="49.27704" lon="5.06307">
        <ele>217.88</ele>
        <time>2021-07-25T16:36:26Z</time>
      </trkpt>
      <trkpt lat="49.27842" lon="5.06506">
        <ele>227.49</ele>
        <time>2021-07-25T16:36:38Z</time>
      </trkpt>
      <trkpt lat="49.28041" lon="5.06797">
        <ele>228.93</ele>
        <time>2021-07-25T16:36:54Z</time>
      </trkpt>
      <trkpt lat="49.28283" lon="5.07145">
        <ele>233.74</ele>
        <time>2021-07-25T16:37:11Z</time>
      </trkpt>
      <trkpt lat="49.28418" lon="5.0734">
        <ele>228.93</ele>
        <time>2021-07-25T16:37:21Z</time>
      </trkpt>
      <trkpt lat="49.28529" lon="5.07499">
        <ele>234.7</ele>
        <time>2021-07-25T16:37:31Z</time>
      </trkpt>
      <trkpt lat="49.28688" lon="5.07679">
        <ele>241.43</ele>
        <time>2021-07-25T16:37:42Z</time>
      </trkpt>
      <trkpt lat="49.28844" lon="5.07778">
        <ele>239.51</ele>
        <time>2021-07-25T16:37:51Z</time>
      </trkpt>
      <trkpt lat="49.29043" lon="5.07827">
        <ele>237.1</ele>
        <time>2021-07-25T16:38:01Z</time>
      </trkpt>
      <trkpt lat="49.29394" lon="5.07873">
        <ele>239.02</ele>
        <time>2021-07-25T16:38:17Z</time>
      </trkpt>
      <trkpt lat="49.29666" lon="5.07908">
        <ele>240.47</ele>
        <time>2021-07-25T16:38:30Z</time>
      </trkpt>
      <trkpt lat="49.2996" lon="5.07946">
        <ele>233.74</ele>
        <time>2021-07-25T16:38:43Z</time>
      </trkpt>
      <trkpt lat="49.30174" lon="5.07973">
        <ele>237.1</ele>
        <time>2021-07-25T16:38:53Z</time>
      </trkpt>
      <trkpt lat="49.30392" lon="5.07998">
        <ele>238.06</ele>
        <time>2021-07-25T16:39:06Z</time>
      </trkpt>
      <trkpt lat="49.30752" lon="5.08044">
        <ele>230.85</ele>
        <time>2021-07-25T16:39:24Z</time>
      </trkpt>
      <trkpt lat="49.31164" lon="5.08095">
        <ele>229.41</ele>
        <time>2021-07-25T16:39:43Z</time>
      </trkpt>
      <trkpt lat="49.31335" lon="5.08139">
        <ele>225.09</ele>
        <time>2021-07-25T16:39:51Z</time>
      </trkpt>
      <trkpt lat="49.31369" lon="5.08146">
        <ele>223.16</ele>
        <time>2021-07-25T16:39:53Z</time>
      </trkpt>
      <trkpt lat="49.31369" lon="5.08146">
        <ele>222.68</ele>
        <time>2021-07-25T16:39:54Z</time>
      </trkpt>
      <trkpt lat="49.31387" lon="5.08145">
        <ele>222.2</ele>
        <time>2021-07-25T16:39:55Z</time>
      </trkpt>
      <trkpt lat="49.31473" lon="5.08134">
        <ele>218.84</ele>
        <time>2021-07-25T16:39:59Z</time>
      </trkpt>
      <trkpt lat="49.31473" lon="5.08134">
        <ele>220.28</ele>
        <time>2021-07-25T16:40:00Z</time>
      </trkpt>
      <trkpt lat="49.31489" lon="5.0814">
        <ele>220.28</ele>
        <time>2021-07-25T16:40:01Z</time>
      </trkpt>
      <trkpt lat="49.31504" lon="5.08147">
        <ele>219.32</ele>
        <time>2021-07-25T16:40:02Z</time>
      </trkpt>
      <trkpt lat="49.3152" lon="5.08155">
        <ele>218.36</ele>
        <time>2021-07-25T16:40:03Z</time>
      </trkpt>
      <trkpt lat="49.31579" lon="5.0819">
        <ele>216.91</ele>
        <time>2021-07-25T16:40:07Z</time>
      </trkpt>
      <trkpt lat="49.31595" lon="5.08195">
        <ele>217.88</ele>
        <time>2021-07-25T16:40:08Z</time>
      </trkpt>
      <trkpt lat="49.31611" lon="5.08197">
        <ele>218.36</ele>
        <time>2021-07-25T16:40:09Z</time>
      </trkpt>
      <trkpt lat="49.31814" lon="5.08186">
        <ele>216.91</ele>
        <time>2021-07-25T16:40:21Z</time>
      </trkpt>
      <trkpt lat="49.31889" lon="5.08183">
        <ele>214.99</ele>
        <time>2021-07-25T16:40:25Z</time>
      </trkpt>
      <trkpt lat="49.31907" lon="5.0819">
        <ele>213.07</ele>
        <time>2021-07-25T16:40:26Z</time>
      </trkpt>
      <trkpt lat="49.31943" lon="5.08204">
        <ele>211.63</ele>
        <time>2021-07-25T16:40:27Z</time>
      </trkpt>
      <trkpt lat="49.31997" lon="5.08223">
        <ele>211.15</ele>
        <time>2021-07-25T16:40:30Z</time>
      </trkpt>
      <trkpt lat="49.31997" lon="5.08223">
        <ele>210.67</ele>
        <time>2021-07-25T16:40:31Z</time>
      </trkpt>
      <trkpt lat="49.32209" lon="5.08242">
        <ele>210.67</ele>
        <time>2021-07-25T16:40:42Z</time>
      </trkpt>
      <trkpt lat="49.32316" lon="5.08227">
        <ele>211.63</ele>
        <time>2021-07-25T16:40:48Z</time>
      </trkpt>
      <trkpt lat="49.32334" lon="5.0823">
        <ele>210.19</ele>
        <time>2021-07-25T16:40:49Z</time>
      </trkpt>
      <trkpt lat="49.32368" lon="5.08243">
        <ele>209.22</ele>
        <time>2021-07-25T16:40:50Z</time>
      </trkpt>
      <trkpt lat="49.32368" lon="5.08243">
        <ele>208.74</ele>
        <time>2021-07-25T16:40:51Z</time>
      </trkpt>
      <trkpt lat="49.32385" lon="5.08252">
        <ele>209.22</ele>
        <time>2021-07-25T16:40:52Z</time>
      </trkpt>
      <trkpt lat="49.32401" lon="5.08264">
        <ele>209.7</ele>
        <time>2021-07-25T16:40:53Z</time>
      </trkpt>
      <trkpt lat="49.32416" lon="5.08278">
        <ele>209.7</ele>
        <time>2021-07-25T16:40:54Z</time>
      </trkpt>
      <trkpt lat="49.32513" lon="5.08349">
        <ele>206.82</ele>
        <time>2021-07-25T16:41:01Z</time>
      </trkpt>
      <trkpt lat="49.32617" lon="5.08371">
        <ele>207.3</ele>
        <time>2021-07-25T16:41:10Z</time>
      </trkpt>
      <trkpt lat="49.32734" lon="5.08348">
        <ele>210.67</ele>
        <time>2021-07-25T16:41:19Z</time>
      </trkpt>
      <trkpt lat="49.3284" lon="5.0833">
        <ele>211.15</ele>
        <time>2021-07-25T16:41:29Z</time>
      </trkpt>
      <trkpt lat="49.32868" lon="5.08328">
        <ele>211.15</ele>
        <time>2021-07-25T16:41:32Z</time>
      </trkpt>
      <trkpt lat="49.32877" lon="5.08325">
        <ele>211.63</ele>
        <time>2021-07-25T16:41:33Z</time>
      </trkpt>
      <trkpt lat="49.3305" lon="5.08253">
        <ele>207.3</ele>
        <time>2021-07-25T16:41:52Z</time>
      </trkpt>
      <trkpt lat="49.33127" lon="5.08242">
        <ele>213.55</ele>
        <time>2021-07-25T16:42:01Z</time>
      </trkpt>
      <trkpt lat="49.33181" lon="5.08242">
        <ele>214.03</ele>
        <time>2021-07-25T16:42:07Z</time>
      </trkpt>
      <trkpt lat="49.33185" lon="5.08242">
        <ele>213.07</ele>
        <time>2021-07-25T16:42:08Z</time>
      </trkpt>
      <trkpt lat="49.33187" lon="5.08242">
        <ele>213.55</ele>
        <time>2021-07-25T16:42:09Z</time>
      </trkpt>
      <trkpt lat="49.33193" lon="5.08242">
        <ele>213.55</ele>
        <time>2021-07-25T16:42:11Z</time>
      </trkpt>
      <trkpt lat="49.33201" lon="5.08251">
        <ele>213.55</ele>
        <time>2021-07-25T16:42:12Z</time>
      </trkpt>
      <trkpt lat="49.33201" lon="5.08251">
        <ele>213.07</ele>
        <time>2021-07-25T16:42:13Z</time>
      </trkpt>
      <trkpt lat="49.33201" lon="5.08256">
        <ele>212.11</ele>
        <time>2021-07-25T16:42:14Z</time>
      </trkpt>
      <trkpt lat="49.33201" lon="5.08262">
        <ele>212.11</ele>
        <time>2021-07-25T16:42:15Z</time>
      </trkpt>
      <trkpt lat="49.33201" lon="5.08269">
        <ele>211.63</ele>
        <time>2021-07-25T16:42:16Z</time>
      </trkpt>
      <trkpt lat="49.33201" lon="5.08366">
        <ele>212.11</ele>
        <time>2021-07-25T16:42:25Z</time>
      </trkpt>
      <trkpt lat="49.33191" lon="5.08431">
        <ele>209.7</ele>
        <time>2021-07-25T16:42:31Z</time>
      </trkpt>
      <trkpt lat="49.33183" lon="5.08473">
        <ele>209.7</ele>
        <time>2021-07-25T16:42:36Z</time>
      </trkpt>
      <trkpt lat="49.33181" lon="5.08479">
        <ele>209.7</ele>
        <time>2021-07-25T16:42:37Z</time>
      </trkpt>
      <trkpt lat="49.33182" lon="5.08482">
        <ele>209.7</ele>
        <time>2021-07-25T16:42:38Z</time>
      </trkpt>
      <trkpt lat="49.33185" lon="5.08488">
        <ele>209.7</ele>
        <time>2021-07-25T16:42:39Z</time>
      </trkpt>
      <trkpt lat="49.33188" lon="5.08493">
        <ele>209.22</ele>
        <time>2021-07-25T16:42:40Z</time>
      </trkpt>
      <trkpt lat="49.33193" lon="5.08499">
        <ele>209.22</ele>
        <time>2021-07-25T16:42:41Z</time>
      </trkpt>
      <trkpt lat="49.33272" lon="5.08593">
        <ele>208.74</ele>
        <time>2021-07-25T16:42:52Z</time>
      </trkpt>
      <trkpt lat="49.33292" lon="5.08634">
        <ele>211.63</ele>
        <time>2021-07-25T16:42:55Z</time>
      </trkpt>
      <trkpt lat="49.33298" lon="5.08648">
        <ele>212.59</ele>
        <time>2021-07-25T16:42:56Z</time>
      </trkpt>
      <trkpt lat="49.33354" lon="5.08795">
        <ele>213.55</ele>
        <time>2021-07-25T16:43:06Z</time>
      </trkpt>
      <trkpt lat="49.33367" lon="5.08819">
        <ele>213.07</ele>
        <time>2021-07-25T16:43:07Z</time>
      </trkpt>
      <trkpt lat="49.3338" lon="5.0884">
        <ele>210.67</ele>
        <time>2021-07-25T16:43:10Z</time>
      </trkpt>
      <trkpt lat="49.33386" lon="5.08848">
        <ele>209.7</ele>
        <time>2021-07-25T16:43:11Z</time>
      </trkpt>
      <trkpt lat="49.33391" lon="5.08857">
        <ele>209.7</ele>
        <time>2021-07-25T16:43:12Z</time>
      </trkpt>
      <trkpt lat="49.33395" lon="5.08866">
        <ele>209.7</ele>
        <time>2021-07-25T16:43:13Z</time>
      </trkpt>
      <trkpt lat="49.33398" lon="5.08874">
        <ele>210.19</ele>
        <time>2021-07-25T16:43:14Z</time>
      </trkpt>
      <trkpt lat="49.33402" lon="5.08882">
        <ele>210.19</ele>
        <time>2021-07-25T16:43:15Z</time>
      </trkpt>
      <trkpt lat="49.33403" lon="5.08891">
        <ele>210.19</ele>
        <time>2021-07-25T16:43:16Z</time>
      </trkpt>
      <trkpt lat="49.33404" lon="5.08898">
        <ele>209.7</ele>
        <time>2021-07-25T16:43:17Z</time>
      </trkpt>
      <trkpt lat="49.33409" lon="5.08944">
        <ele>212.59</ele>
        <time>2021-07-25T16:43:29Z</time>
      </trkpt>
      <trkpt lat="49.33401" lon="5.09012">
        <ele>212.59</ele>
        <time>2021-07-25T16:43:43Z</time>
      </trkpt>
      <trkpt lat="49.33394" lon="5.09074">
        <ele>211.63</ele>
        <time>2021-07-25T16:43:58Z</time>
      </trkpt>
      <trkpt lat="49.33397" lon="5.09152">
        <ele>210.67</ele>
        <time>2021-07-25T16:44:13Z</time>
      </trkpt>
      <trkpt lat="49.33401" lon="5.09248">
        <ele>206.82</ele>
        <time>2021-07-25T16:44:30Z</time>
      </trkpt>
      <trkpt lat="49.33404" lon="5.09309">
        <ele>208.74</ele>
        <time>2021-07-25T16:44:43Z</time>
      </trkpt>
      <trkpt lat="49.33407" lon="5.09397">
        <ele>212.11</ele>
        <time>2021-07-25T16:44:59Z</time>
      </trkpt>
      <trkpt lat="49.33411" lon="5.09484">
        <ele>210.19</ele>
        <time>2021-07-25T16:45:14Z</time>
      </trkpt>
      <trkpt lat="49.33414" lon="5.09568">
        <ele>207.3</ele>
        <time>2021-07-25T16:45:27Z</time>
      </trkpt>
      <trkpt lat="49.33415" lon="5.09575">
        <ele>206.82</ele>
        <time>2021-07-25T16:45:28Z</time>
      </trkpt>
      <trkpt lat="49.33415" lon="5.09591">
        <ele>206.34</ele>
        <time>2021-07-25T16:45:29Z</time>
      </trkpt>
      <trkpt lat="49.33428" lon="5.09671">
        <ele>210.67</ele>
        <time>2021-07-25T16:45:42Z</time>
      </trkpt>
      <trkpt lat="49.33437" lon="5.09693">
        <ele>212.59</ele>
        <time>2021-07-25T16:45:51Z</time>
      </trkpt>
      <trkpt lat="49.33462" lon="5.09677">
        <ele>212.59</ele>
        <time>2021-07-25T16:46:05Z</time>
      </trkpt>
      <trkpt lat="49.33468" lon="5.09617">
        <ele>212.59</ele>
        <time>2021-07-25T16:46:17Z</time>
      </trkpt>
      <trkpt lat="49.33464" lon="5.09522">
        <ele>213.55</ele>
        <time>2021-07-25T16:46:31Z</time>
      </trkpt>
      <trkpt lat="49.33459" lon="5.094">
        <ele>215.95</ele>
        <time>2021-07-25T16:46:45Z</time>
      </trkpt>
      <trkpt lat="49.33455" lon="5.09312">
        <ele>220.28</ele>
        <time>2021-07-25T16:46:54Z</time>
      </trkpt>
      <trkpt lat="49.33455" lon="5.09303">
        <ele>220.28</ele>
        <time>2021-07-25T16:46:55Z</time>
      </trkpt>
      <trkpt lat="49.3345" lon="5.09189">
        <ele>221.72</ele>
        <time>2021-07-25T16:47:08Z</time>
      </trkpt>
      <trkpt lat="49.33444" lon="5.09064">
        <ele>219.8</ele>
        <time>2021-07-25T16:47:22Z</time>
      </trkpt>
      <trkpt lat="49.33444" lon="5.09057">
        <ele>218.84</ele>
        <time>2021-07-25T16:47:23Z</time>
      </trkpt>
      <trkpt lat="49.33443" lon="5.09049">
        <ele>217.88</ele>
        <time>2021-07-25T16:47:24Z</time>
      </trkpt>
      <trkpt lat="49.33442" lon="5.0904">
        <ele>216.91</ele>
        <time>2021-07-25T16:47:25Z</time>
      </trkpt>
      <trkpt lat="49.33438" lon="5.09026">
        <ele>215.47</ele>
        <time>2021-07-25T16:47:27Z</time>
      </trkpt>
      <trkpt lat="49.33422" lon="5.08991">
        <ele>214.99</ele>
        <time>2021-07-25T16:47:32Z</time>
      </trkpt>
      <trkpt lat="49.33419" lon="5.08985">
        <ele>214.99</ele>
        <time>2021-07-25T16:47:33Z</time>
      </trkpt>
      <trkpt lat="49.33413" lon="5.08972">
        <ele>214.03</ele>
        <time>2021-07-25T16:47:34Z</time>
      </trkpt>
      <trkpt lat="49.33413" lon="5.08972">
        <ele>214.03</ele>
        <time>2021-07-25T16:47:35Z</time>
      </trkpt>
      <trkpt lat="49.33412" lon="5.08964">
        <ele>214.03</ele>
        <time>2021-07-25T16:47:36Z</time>
      </trkpt>
      <trkpt lat="49.33391" lon="5.08858">
        <ele>212.59</ele>
        <time>2021-07-25T16:47:49Z</time>
      </trkpt>
      <trkpt lat="49.33388" lon="5.08851">
        <ele>212.59</ele>
        <time>2021-07-25T16:47:50Z</time>
      </trkpt>
      <trkpt lat="49.33383" lon="5.08845">
        <ele>213.07</ele>
        <time>2021-07-25T16:47:51Z</time>
      </trkpt>
      <trkpt lat="49.33336" lon="5.08745">
        <ele>213.55</ele>
        <time>2021-07-25T16:48:03Z</time>
      </trkpt>
      <trkpt lat="49.33281" lon="5.0861">
        <ele>212.11</ele>
        <time>2021-07-25T16:48:16Z</time>
      </trkpt>
      <trkpt lat="49.33276" lon="5.08599">
        <ele>211.15</ele>
        <time>2021-07-25T16:48:17Z</time>
      </trkpt>
      <trkpt lat="49.33189" lon="5.08494">
        <ele>209.22</ele>
        <time>2021-07-25T16:48:29Z</time>
      </trkpt>
      <trkpt lat="49.33185" lon="5.08489">
        <ele>208.74</ele>
        <time>2021-07-25T16:48:30Z</time>
      </trkpt>
      <trkpt lat="49.33183" lon="5.08484">
        <ele>208.74</ele>
        <time>2021-07-25T16:48:31Z</time>
      </trkpt>
      <trkpt lat="49.33181" lon="5.0848">
        <ele>208.74</ele>
        <time>2021-07-25T16:48:32Z</time>
      </trkpt>
      <trkpt lat="49.33183" lon="5.08473">
        <ele>208.74</ele>
        <time>2021-07-25T16:48:33Z</time>
      </trkpt>
      <trkpt lat="49.33184" lon="5.08465">
        <ele>208.26</ele>
        <time>2021-07-25T16:48:34Z</time>
      </trkpt>
      <trkpt lat="49.33186" lon="5.08456">
        <ele>208.74</ele>
        <time>2021-07-25T16:48:35Z</time>
      </trkpt>
      <trkpt lat="49.33202" lon="5.08341">
        <ele>211.63</ele>
        <time>2021-07-25T16:48:46Z</time>
      </trkpt>
      <trkpt lat="49.33201" lon="5.08248">
        <ele>214.51</ele>
        <time>2021-07-25T16:48:58Z</time>
      </trkpt>
      <trkpt lat="49.33206" lon="5.08242">
        <ele>214.51</ele>
        <time>2021-07-25T16:49:02Z</time>
      </trkpt>
      <trkpt lat="49.33209" lon="5.08242">
        <ele>214.51</ele>
        <time>2021-07-25T16:49:03Z</time>
      </trkpt>
      <trkpt lat="49.33213" lon="5.08242">
        <ele>214.51</ele>
        <time>2021-07-25T16:49:04Z</time>
      </trkpt>
      <trkpt lat="49.33217" lon="5.08242">
        <ele>214.51</ele>
        <time>2021-07-25T16:49:05Z</time>
      </trkpt>
      <trkpt lat="49.33222" lon="5.08242">
        <ele>214.51</ele>
        <time>2021-07-25T16:49:06Z</time>
      </trkpt>
      <trkpt lat="49.333" lon="5.08245">
        <ele>213.55</ele>
        <time>2021-07-25T16:49:17Z</time>
      </trkpt>
      <trkpt lat="49.33437" lon="5.0825">
        <ele>209.7</ele>
        <time>2021-07-25T16:49:31Z</time>
      </trkpt>
      <trkpt lat="49.33595" lon="5.08292">
        <ele>203.46</ele>
        <time>2021-07-25T16:49:45Z</time>
      </trkpt>
      <trkpt lat="49.33651" lon="5.08334">
        <ele>203.46</ele>
        <time>2021-07-25T16:49:52Z</time>
      </trkpt>
      <trkpt lat="49.33657" lon="5.08338">
        <ele>203.94</ele>
        <time>2021-07-25T16:49:53Z</time>
      </trkpt>
      <trkpt lat="49.33662" lon="5.08342">
        <ele>203.46</ele>
        <time>2021-07-25T16:49:54Z</time>
      </trkpt>
      <trkpt lat="49.33669" lon="5.08347">
        <ele>203.46</ele>
        <time>2021-07-25T16:50:02Z</time>
      </trkpt>
      <trkpt lat="49.33669" lon="5.08347">
        <ele>203.94</ele>
        <time>2021-07-25T16:55:16Z</time>
      </trkpt>
    </trkseg>
  </trk>
  <trk>
    <name><![CDATA[Journal actif: 2021-07-25 14:55]]></name>
    <trkseg>
      <trkpt lat="49.33669" lon="5.08347">
        <ele>203.94</ele>
        <time>2021-07-25T16:55:38Z</time>
      </trkpt>
      <trkpt lat="49.33669" lon="5.08347">
        <ele>203.94</ele>
        <time>2021-07-25T16:57:11Z</time>
      </trkpt>
      <trkpt lat="49.33669" lon="5.08347">
        <ele>203.94</ele>
        <time>2021-07-25T16:57:17Z</time>
      </trkpt>
      <trkpt lat="49.33672" lon="5.0835">
        <ele>203.94</ele>
        <time>2021-07-25T16:57:18Z</time>
      </trkpt>
      <trkpt lat="49.33672" lon="5.0835">
        <ele>203.94</ele>
        <time>2021-07-25T16:57:19Z</time>
      </trkpt>
      <trkpt lat="49.33674" lon="5.08352">
        <ele>204.42</ele>
        <time>2021-07-25T16:57:20Z</time>
      </trkpt>
      <trkpt lat="49.33677" lon="5.08354">
        <ele>204.42</ele>
        <time>2021-07-25T16:57:21Z</time>
      </trkpt>
      <trkpt lat="49.33681" lon="5.08357">
        <ele>204.42</ele>
        <time>2021-07-25T16:57:22Z</time>
      </trkpt>
      <trkpt lat="49.33686" lon="5.08361">
        <ele>204.42</ele>
        <time>2021-07-25T16:57:23Z</time>
      </trkpt>
      <trkpt lat="49.33751" lon="5.0841">
        <ele>205.86</ele>
        <time>2021-07-25T16:57:31Z</time>
      </trkpt>
      <trkpt lat="49.33863" lon="5.08458">
        <ele>204.42</ele>
        <time>2021-07-25T16:57:40Z</time>
      </trkpt>
      <trkpt lat="49.34134" lon="5.08539">
        <ele>201.05</ele>
        <time>2021-07-25T16:57:59Z</time>
      </trkpt>
      <trkpt lat="49.34363" lon="5.0859">
        <ele>203.46</ele>
        <time>2021-07-25T16:58:14Z</time>
      </trkpt>
      <trkpt lat="49.34645" lon="5.08584">
        <ele>199.13</ele>
        <time>2021-07-25T16:58:31Z</time>
      </trkpt>
      <trkpt lat="49.34872" lon="5.08582">
        <ele>201.53</ele>
        <time>2021-07-25T16:58:48Z</time>
      </trkpt>
      <trkpt lat="49.34971" lon="5.0862">
        <ele>203.46</ele>
        <time>2021-07-25T16:58:56Z</time>
      </trkpt>
      <trkpt lat="49.35121" lon="5.08766">
        <ele>204.42</ele>
        <time>2021-07-25T16:59:11Z</time>
      </trkpt>
      <trkpt lat="49.35286" lon="5.08932">
        <ele>203.46</ele>
        <time>2021-07-25T16:59:27Z</time>
      </trkpt>
      <trkpt lat="49.35511" lon="5.0916">
        <ele>204.42</ele>
        <time>2021-07-25T16:59:48Z</time>
      </trkpt>
      <trkpt lat="49.35542" lon="5.09191">
        <ele>203.94</ele>
        <time>2021-07-25T16:59:54Z</time>
      </trkpt>
      <trkpt lat="49.35546" lon="5.09195">
        <ele>204.42</ele>
        <time>2021-07-25T16:59:57Z</time>
      </trkpt>
      <trkpt lat="49.35547" lon="5.09196">
        <ele>204.42</ele>
        <time>2021-07-25T16:59:58Z</time>
      </trkpt>
      <trkpt lat="49.35548" lon="5.09197">
        <ele>204.42</ele>
        <time>2021-07-25T16:59:59Z</time>
      </trkpt>
      <trkpt lat="49.35549" lon="5.09198">
        <ele>204.42</ele>
        <time>2021-07-25T17:00:00Z</time>
      </trkpt>
      <trkpt lat="49.3555" lon="5.092">
        <ele>204.42</ele>
        <time>2021-07-25T17:00:01Z</time>
      </trkpt>
      <trkpt lat="49.3555" lon="5.092">
        <ele>204.42</ele>
        <time>2021-07-25T17:00:21Z</time>
      </trkpt>
      <trkpt lat="49.3555" lon="5.092">
        <ele>203.94</ele>
        <time>2021-07-25T17:01:29Z</time>
      </trkpt>
      <trkpt lat="49.35554" lon="5.09203">
        <ele>203.94</ele>
        <time>2021-07-25T17:01:30Z</time>
      </trkpt>
      <trkpt lat="49.35554" lon="5.09203">
        <ele>203.94</ele>
        <time>2021-07-25T17:01:31Z</time>
      </trkpt>
      <trkpt lat="49.35571" lon="5.09124">
        <ele>205.38</ele>
        <time>2021-07-25T17:01:42Z</time>
      </trkpt>
      <trkpt lat="49.35573" lon="5.09118">
        <ele>205.86</ele>
        <time>2021-07-25T17:01:43Z</time>
      </trkpt>
      <trkpt lat="49.35576" lon="5.09112">
        <ele>205.38</ele>
        <time>2021-07-25T17:01:44Z</time>
      </trkpt>
      <trkpt lat="49.35577" lon="5.09108">
        <ele>205.38</ele>
        <time>2021-07-25T17:01:45Z</time>
      </trkpt>
      <trkpt lat="49.35579" lon="5.09103">
        <ele>204.9</ele>
        <time>2021-07-25T17:01:46Z</time>
      </trkpt>
      <trkpt lat="49.3558" lon="5.091">
        <ele>204.9</ele>
        <time>2021-07-25T17:01:47Z</time>
      </trkpt>
      <trkpt lat="49.35585" lon="5.091">
        <ele>203.94</ele>
        <time>2021-07-25T17:01:48Z</time>
      </trkpt>
      <trkpt lat="49.35591" lon="5.091">
        <ele>203.94</ele>
        <time>2021-07-25T17:01:49Z</time>
      </trkpt>
      <trkpt lat="49.35597" lon="5.09099">
        <ele>203.46</ele>
        <time>2021-07-25T17:01:50Z</time>
      </trkpt>
      <trkpt lat="49.35697" lon="5.09091">
        <ele>203.94</ele>
        <time>2021-07-25T17:02:02Z</time>
      </trkpt>
      <trkpt lat="49.35705" lon="5.09091">
        <ele>203.94</ele>
        <time>2021-07-25T17:02:03Z</time>
      </trkpt>
      <trkpt lat="49.35713" lon="5.0909">
        <ele>204.42</ele>
        <time>2021-07-25T17:02:04Z</time>
      </trkpt>
      <trkpt lat="49.35721" lon="5.09088">
        <ele>204.42</ele>
        <time>2021-07-25T17:02:05Z</time>
      </trkpt>
      <trkpt lat="49.35726" lon="5.09081">
        <ele>204.42</ele>
        <time>2021-07-25T17:02:06Z</time>
      </trkpt>
      <trkpt lat="49.35731" lon="5.09073">
        <ele>204.9</ele>
        <time>2021-07-25T17:02:07Z</time>
      </trkpt>
      <trkpt lat="49.35737" lon="5.09064">
        <ele>205.38</ele>
        <time>2021-07-25T17:02:08Z</time>
      </trkpt>
      <trkpt lat="49.35761" lon="5.08996">
        <ele>210.67</ele>
        <time>2021-07-25T17:02:13Z</time>
      </trkpt>
      <trkpt lat="49.35762" lon="5.08982">
        <ele>212.11</ele>
        <time>2021-07-25T17:02:14Z</time>
      </trkpt>
      <trkpt lat="49.35764" lon="5.08968">
        <ele>213.07</ele>
        <time>2021-07-25T17:02:15Z</time>
      </trkpt>
      <trkpt lat="49.35791" lon="5.08747">
        <ele>218.36</ele>
        <time>2021-07-25T17:02:27Z</time>
      </trkpt>
      <trkpt lat="49.35828" lon="5.08405">
        <ele>226.05</ele>
        <time>2021-07-25T17:02:43Z</time>
      </trkpt>
      <trkpt lat="49.35883" lon="5.08063">
        <ele>237.58</ele>
        <time>2021-07-25T17:03:00Z</time>
      </trkpt>
      <trkpt lat="49.35972" lon="5.07853">
        <ele>242.87</ele>
        <time>2021-07-25T17:03:11Z</time>
      </trkpt>
      <trkpt lat="49.36096" lon="5.07703">
        <ele>245.27</ele>
        <time>2021-07-25T17:03:22Z</time>
      </trkpt>
      <trkpt lat="49.36237" lon="5.07577">
        <ele>251.04</ele>
        <time>2021-07-25T17:03:34Z</time>
      </trkpt>
      <trkpt lat="49.36248" lon="5.07563">
        <ele>252</ele>
        <time>2021-07-25T17:03:35Z</time>
      </trkpt>
      <trkpt lat="49.3631" lon="5.07406">
        <ele>256.81</ele>
        <time>2021-07-25T17:03:43Z</time>
      </trkpt>
      <trkpt lat="49.36369" lon="5.07193">
        <ele>263.06</ele>
        <time>2021-07-25T17:03:52Z</time>
      </trkpt>
      <trkpt lat="49.36375" lon="5.07178">
        <ele>263.54</ele>
        <time>2021-07-25T17:03:53Z</time>
      </trkpt>
      <trkpt lat="49.36383" lon="5.07164">
        <ele>264.5</ele>
        <time>2021-07-25T17:03:54Z</time>
      </trkpt>
      <trkpt lat="49.36392" lon="5.07155">
        <ele>264.5</ele>
        <time>2021-07-25T17:03:55Z</time>
      </trkpt>
      <trkpt lat="49.36392" lon="5.07155">
        <ele>264.98</ele>
        <time>2021-07-25T17:03:56Z</time>
      </trkpt>
      <trkpt lat="49.36402" lon="5.07146">
        <ele>264.5</ele>
        <time>2021-07-25T17:03:57Z</time>
      </trkpt>
      <trkpt lat="49.36412" lon="5.07137">
        <ele>264.98</ele>
        <time>2021-07-25T17:03:58Z</time>
      </trkpt>
      <trkpt lat="49.36423" lon="5.07127">
        <ele>265.46</ele>
        <time>2021-07-25T17:03:59Z</time>
      </trkpt>
      <trkpt lat="49.36436" lon="5.07121">
        <ele>265.46</ele>
        <time>2021-07-25T17:04:00Z</time>
      </trkpt>
      <trkpt lat="49.36557" lon="5.07051">
        <ele>268.35</ele>
        <time>2021-07-25T17:04:10Z</time>
      </trkpt>
      <trkpt lat="49.36725" lon="5.06839">
        <ele>261.14</ele>
        <time>2021-07-25T17:04:24Z</time>
      </trkpt>
      <trkpt lat="49.3679" lon="5.06686">
        <ele>255.37</ele>
        <time>2021-07-25T17:04:33Z</time>
      </trkpt>
      <trkpt lat="49.36832" lon="5.06569">
        <ele>247.68</ele>
        <time>2021-07-25T17:04:39Z</time>
      </trkpt>
      <trkpt lat="49.36835" lon="5.0655">
        <ele>246.72</ele>
        <time>2021-07-25T17:04:40Z</time>
      </trkpt>
      <trkpt lat="49.36838" lon="5.0653">
        <ele>245.75</ele>
        <time>2021-07-25T17:04:41Z</time>
      </trkpt>
      <trkpt lat="49.36836" lon="5.06511">
        <ele>244.79</ele>
        <time>2021-07-25T17:04:42Z</time>
      </trkpt>
      <trkpt lat="49.36835" lon="5.06491">
        <ele>243.83</ele>
        <time>2021-07-25T17:04:43Z</time>
      </trkpt>
      <trkpt lat="49.36833" lon="5.06451">
        <ele>243.35</ele>
        <time>2021-07-25T17:04:44Z</time>
      </trkpt>
      <trkpt lat="49.36814" lon="5.06218">
        <ele>234.7</ele>
        <time>2021-07-25T17:04:56Z</time>
      </trkpt>
      <trkpt lat="49.36812" lon="5.062">
        <ele>234.22</ele>
        <time>2021-07-25T17:04:57Z</time>
      </trkpt>
      <trkpt lat="49.36815" lon="5.06185">
        <ele>234.7</ele>
        <time>2021-07-25T17:04:58Z</time>
      </trkpt>
      <trkpt lat="49.36819" lon="5.06171">
        <ele>234.22</ele>
        <time>2021-07-25T17:04:59Z</time>
      </trkpt>
      <trkpt lat="49.36825" lon="5.06158">
        <ele>233.26</ele>
        <time>2021-07-25T17:05:00Z</time>
      </trkpt>
      <trkpt lat="49.36832" lon="5.06146">
        <ele>232.78</ele>
        <time>2021-07-25T17:05:01Z</time>
      </trkpt>
      <trkpt lat="49.36839" lon="5.06133">
        <ele>233.26</ele>
        <time>2021-07-25T17:05:02Z</time>
      </trkpt>
      <trkpt lat="49.36846" lon="5.06121">
        <ele>231.81</ele>
        <time>2021-07-25T17:05:03Z</time>
      </trkpt>
      <trkpt lat="49.36854" lon="5.06108">
        <ele>231.81</ele>
        <time>2021-07-25T17:05:04Z</time>
      </trkpt>
      <trkpt lat="49.36866" lon="5.06103">
        <ele>231.81</ele>
        <time>2021-07-25T17:05:05Z</time>
      </trkpt>
      <trkpt lat="49.36876" lon="5.06097">
        <ele>231.81</ele>
        <time>2021-07-25T17:05:06Z</time>
      </trkpt>
      <trkpt lat="49.36948" lon="5.06054">
        <ele>233.74</ele>
        <time>2021-07-25T17:05:12Z</time>
      </trkpt>
      <trkpt lat="49.36957" lon="5.06046">
        <ele>234.7</ele>
        <time>2021-07-25T17:05:13Z</time>
      </trkpt>
      <trkpt lat="49.36964" lon="5.06041">
        <ele>235.66</ele>
        <time>2021-07-25T17:05:14Z</time>
      </trkpt>
      <trkpt lat="49.3697" lon="5.06029">
        <ele>235.66</ele>
        <time>2021-07-25T17:05:15Z</time>
      </trkpt>
      <trkpt lat="49.36976" lon="5.06016">
        <ele>236.14</ele>
        <time>2021-07-25T17:05:16Z</time>
      </trkpt>
      <trkpt lat="49.36979" lon="5.05999">
        <ele>236.14</ele>
        <time>2021-07-25T17:05:17Z</time>
      </trkpt>
      <trkpt lat="49.36976" lon="5.05982">
        <ele>234.7</ele>
        <time>2021-07-25T17:05:18Z</time>
      </trkpt>
      <trkpt lat="49.36971" lon="5.05965">
        <ele>234.7</ele>
        <time>2021-07-25T17:05:19Z</time>
      </trkpt>
      <trkpt lat="49.36967" lon="5.0595">
        <ele>233.74</ele>
        <time>2021-07-25T17:05:20Z</time>
      </trkpt>
      <trkpt lat="49.36934" lon="5.05841">
        <ele>238.06</ele>
        <time>2021-07-25T17:05:26Z</time>
      </trkpt>
      <trkpt lat="49.36933" lon="5.05822">
        <ele>240.47</ele>
        <time>2021-07-25T17:05:27Z</time>
      </trkpt>
      <trkpt lat="49.36931" lon="5.05803">
        <ele>242.87</ele>
        <time>2021-07-25T17:05:28Z</time>
      </trkpt>
      <trkpt lat="49.3693" lon="5.05783">
        <ele>244.79</ele>
        <time>2021-07-25T17:05:29Z</time>
      </trkpt>
      <trkpt lat="49.36932" lon="5.05767">
        <ele>246.23</ele>
        <time>2021-07-25T17:05:30Z</time>
      </trkpt>
      <trkpt lat="49.36965" lon="5.05551">
        <ele>257.77</ele>
        <time>2021-07-25T17:05:41Z</time>
      </trkpt>
      <trkpt lat="49.37016" lon="5.05225">
        <ele>255.85</ele>
        <time>2021-07-25T17:05:54Z</time>
      </trkpt>
      <trkpt lat="49.37038" lon="5.0508">
        <ele>256.81</ele>
        <time>2021-07-25T17:06:02Z</time>
      </trkpt>
      <trkpt lat="49.37056" lon="5.04957">
        <ele>259.69</ele>
        <time>2021-07-25T17:06:11Z</time>
      </trkpt>
      <trkpt lat="49.3708" lon="5.04843">
        <ele>262.1</ele>
        <time>2021-07-25T17:06:17Z</time>
      </trkpt>
      <trkpt lat="49.37089" lon="5.04828">
        <ele>262.58</ele>
        <time>2021-07-25T17:06:18Z</time>
      </trkpt>
      <trkpt lat="49.37097" lon="5.04813">
        <ele>263.06</ele>
        <time>2021-07-25T17:06:19Z</time>
      </trkpt>
      <trkpt lat="49.37107" lon="5.04797">
        <ele>261.62</ele>
        <time>2021-07-25T17:06:20Z</time>
      </trkpt>
      <trkpt lat="49.37116" lon="5.04785">
        <ele>260.17</ele>
        <time>2021-07-25T17:06:21Z</time>
      </trkpt>
      <trkpt lat="49.37128" lon="5.04775">
        <ele>258.73</ele>
        <time>2021-07-25T17:06:22Z</time>
      </trkpt>
      <trkpt lat="49.37266" lon="5.04669">
        <ele>256.81</ele>
        <time>2021-07-25T17:06:32Z</time>
      </trkpt>
      <trkpt lat="49.37352" lon="5.04606">
        <ele>256.33</ele>
        <time>2021-07-25T17:06:39Z</time>
      </trkpt>
      <trkpt lat="49.37483" lon="5.04549">
        <ele>260.17</ele>
        <time>2021-07-25T17:06:49Z</time>
      </trkpt>
      <trkpt lat="49.37639" lon="5.04528">
        <ele>256.81</ele>
        <time>2021-07-25T17:06:59Z</time>
      </trkpt>
      <trkpt lat="49.37802" lon="5.04462">
        <ele>256.81</ele>
        <time>2021-07-25T17:07:09Z</time>
      </trkpt>
      <trkpt lat="49.37982" lon="5.04359">
        <ele>256.81</ele>
        <time>2021-07-25T17:07:20Z</time>
      </trkpt>
      <trkpt lat="49.3814" lon="5.0434">
        <ele>247.68</ele>
        <time>2021-07-25T17:07:28Z</time>
      </trkpt>
      <trkpt lat="49.3825" lon="5.04284">
        <ele>251.52</ele>
        <time>2021-07-25T17:07:35Z</time>
      </trkpt>
      <trkpt lat="49.38457" lon="5.04181">
        <ele>239.51</ele>
        <time>2021-07-25T17:07:49Z</time>
      </trkpt>
      <trkpt lat="49.38597" lon="5.04064">
        <ele>228.45</ele>
        <time>2021-07-25T17:07:57Z</time>
      </trkpt>
      <trkpt lat="49.38718" lon="5.03949">
        <ele>214.99</ele>
        <time>2021-07-25T17:08:06Z</time>
      </trkpt>
      <trkpt lat="49.38832" lon="5.03882">
        <ele>220.28</ele>
        <time>2021-07-25T17:08:14Z</time>
      </trkpt>
      <trkpt lat="49.38851" lon="5.0387">
        <ele>221.24</ele>
        <time>2021-07-25T17:08:16Z</time>
      </trkpt>
      <trkpt lat="49.38879" lon="5.03861">
        <ele>223.64</ele>
        <time>2021-07-25T17:08:19Z</time>
      </trkpt>
      <trkpt lat="49.38887" lon="5.03858">
        <ele>224.61</ele>
        <time>2021-07-25T17:08:20Z</time>
      </trkpt>
      <trkpt lat="49.38894" lon="5.03849">
        <ele>225.57</ele>
        <time>2021-07-25T17:08:21Z</time>
      </trkpt>
      <trkpt lat="49.389" lon="5.03839">
        <ele>226.53</ele>
        <time>2021-07-25T17:08:22Z</time>
      </trkpt>
      <trkpt lat="49.38906" lon="5.0383">
        <ele>227.49</ele>
        <time>2021-07-25T17:08:23Z</time>
      </trkpt>
      <trkpt lat="49.3891" lon="5.03817">
        <ele>227.97</ele>
        <time>2021-07-25T17:08:24Z</time>
      </trkpt>
      <trkpt lat="49.38914" lon="5.03803">
        <ele>229.41</ele>
        <time>2021-07-25T17:08:25Z</time>
      </trkpt>
      <trkpt lat="49.38919" lon="5.03794">
        <ele>230.37</ele>
        <time>2021-07-25T17:08:26Z</time>
      </trkpt>
      <trkpt lat="49.38925" lon="5.03785">
        <ele>230.85</ele>
        <time>2021-07-25T17:08:27Z</time>
      </trkpt>
      <trkpt lat="49.38934" lon="5.03771">
        <ele>230.85</ele>
        <time>2021-07-25T17:08:29Z</time>
      </trkpt>
      <trkpt lat="49.38937" lon="5.03766">
        <ele>231.33</ele>
        <time>2021-07-25T17:08:30Z</time>
      </trkpt>
      <trkpt lat="49.38938" lon="5.03764">
        <ele>231.81</ele>
        <time>2021-07-25T17:08:31Z</time>
      </trkpt>
      <trkpt lat="49.38937" lon="5.03756">
        <ele>231.33</ele>
        <time>2021-07-25T17:08:32Z</time>
      </trkpt>
      <trkpt lat="49.38935" lon="5.03749">
        <ele>231.33</ele>
        <time>2021-07-25T17:08:33Z</time>
      </trkpt>
      <trkpt lat="49.38933" lon="5.03741">
        <ele>231.33</ele>
        <time>2021-07-25T17:08:34Z</time>
      </trkpt>
      <trkpt lat="49.38909" lon="5.0364">
        <ele>229.89</ele>
        <time>2021-07-25T17:08:42Z</time>
      </trkpt>
      <trkpt lat="49.38895" lon="5.03574">
        <ele>231.33</ele>
        <time>2021-07-25T17:08:46Z</time>
      </trkpt>
      <trkpt lat="49.38894" lon="5.03558">
        <ele>231.81</ele>
        <time>2021-07-25T17:08:47Z</time>
      </trkpt>
      <trkpt lat="49.38893" lon="5.03545">
        <ele>232.3</ele>
        <time>2021-07-25T17:08:48Z</time>
      </trkpt>
      <trkpt lat="49.38898" lon="5.03533">
        <ele>232.3</ele>
        <time>2021-07-25T17:08:49Z</time>
      </trkpt>
      <trkpt lat="49.38902" lon="5.0352">
        <ele>235.18</ele>
        <time>2021-07-25T17:08:50Z</time>
      </trkpt>
      <trkpt lat="49.38907" lon="5.03507">
        <ele>238.06</ele>
        <time>2021-07-25T17:08:51Z</time>
      </trkpt>
      <trkpt lat="49.38986" lon="5.03348">
        <ele>246.72</ele>
        <time>2021-07-25T17:09:03Z</time>
      </trkpt>
      <trkpt lat="49.39015" lon="5.03306">
        <ele>245.75</ele>
        <time>2021-07-25T17:09:06Z</time>
      </trkpt>
      <trkpt lat="49.39022" lon="5.03289">
        <ele>245.75</ele>
        <time>2021-07-25T17:09:07Z</time>
      </trkpt>
      <trkpt lat="49.39106" lon="5.03124">
        <ele>258.73</ele>
        <time>2021-07-25T17:09:17Z</time>
      </trkpt>
      <trkpt lat="49.39197" lon="5.02994">
        <ele>252.48</ele>
        <time>2021-07-25T17:09:26Z</time>
      </trkpt>
      <trkpt lat="49.39207" lon="5.02977">
        <ele>252.96</ele>
        <time>2021-07-25T17:09:27Z</time>
      </trkpt>
      <trkpt lat="49.39215" lon="5.02957">
        <ele>252.96</ele>
        <time>2021-07-25T17:09:28Z</time>
      </trkpt>
      <trkpt lat="49.39221" lon="5.02934">
        <ele>254.41</ele>
        <time>2021-07-25T17:09:29Z</time>
      </trkpt>
      <trkpt lat="49.39229" lon="5.02886">
        <ele>254.41</ele>
        <time>2021-07-25T17:09:30Z</time>
      </trkpt>
      <trkpt lat="49.39263" lon="5.02632">
        <ele>255.85</ele>
        <time>2021-07-25T17:09:42Z</time>
      </trkpt>
      <trkpt lat="49.39334" lon="5.02463">
        <ele>259.21</ele>
        <time>2021-07-25T17:09:50Z</time>
      </trkpt>
      <trkpt lat="49.39445" lon="5.02202">
        <ele>253.93</ele>
        <time>2021-07-25T17:10:02Z</time>
      </trkpt>
      <trkpt lat="49.39538" lon="5.01904">
        <ele>247.68</ele>
        <time>2021-07-25T17:10:14Z</time>
      </trkpt>
      <trkpt lat="49.39574" lon="5.0176">
        <ele>237.58</ele>
        <time>2021-07-25T17:10:21Z</time>
      </trkpt>
      <trkpt lat="49.39578" lon="5.01737">
        <ele>237.1</ele>
        <time>2021-07-25T17:10:22Z</time>
      </trkpt>
      <trkpt lat="49.3958" lon="5.01715">
        <ele>236.62</ele>
        <time>2021-07-25T17:10:23Z</time>
      </trkpt>
      <trkpt lat="49.39579" lon="5.01691">
        <ele>236.14</ele>
        <time>2021-07-25T17:10:24Z</time>
      </trkpt>
      <trkpt lat="49.39575" lon="5.01667">
        <ele>236.62</ele>
        <time>2021-07-25T17:10:25Z</time>
      </trkpt>
      <trkpt lat="49.39571" lon="5.01643">
        <ele>237.1</ele>
        <time>2021-07-25T17:10:26Z</time>
      </trkpt>
      <trkpt lat="49.39543" lon="5.01426">
        <ele>244.79</ele>
        <time>2021-07-25T17:10:35Z</time>
      </trkpt>
      <trkpt lat="49.39547" lon="5.01405">
        <ele>246.23</ele>
        <time>2021-07-25T17:10:36Z</time>
      </trkpt>
      <trkpt lat="49.3955" lon="5.01385">
        <ele>248.16</ele>
        <time>2021-07-25T17:10:37Z</time>
      </trkpt>
      <trkpt lat="49.39571" lon="5.01208">
        <ele>246.23</ele>
        <time>2021-07-25T17:10:45Z</time>
      </trkpt>
      <trkpt lat="49.39558" lon="5.00903">
        <ele>239.02</ele>
        <time>2021-07-25T17:10:59Z</time>
      </trkpt>
      <trkpt lat="49.39556" lon="5.00819">
        <ele>236.14</ele>
        <time>2021-07-25T17:11:04Z</time>
      </trkpt>
      <trkpt lat="49.39558" lon="5.00808">
        <ele>235.66</ele>
        <time>2021-07-25T17:11:05Z</time>
      </trkpt>
      <trkpt lat="49.39561" lon="5.00795">
        <ele>234.7</ele>
        <time>2021-07-25T17:11:06Z</time>
      </trkpt>
      <trkpt lat="49.39564" lon="5.00785">
        <ele>234.22</ele>
        <time>2021-07-25T17:11:07Z</time>
      </trkpt>
      <trkpt lat="49.39574" lon="5.00763">
        <ele>234.22</ele>
        <time>2021-07-25T17:11:08Z</time>
      </trkpt>
      <trkpt lat="49.39574" lon="5.00763">
        <ele>233.26</ele>
        <time>2021-07-25T17:11:09Z</time>
      </trkpt>
      <trkpt lat="49.39643" lon="5.00666">
        <ele>223.64</ele>
        <time>2021-07-25T17:11:18Z</time>
      </trkpt>
      <trkpt lat="49.39648" lon="5.00659">
        <ele>223.16</ele>
        <time>2021-07-25T17:11:19Z</time>
      </trkpt>
      <trkpt lat="49.39653" lon="5.00652">
        <ele>222.68</ele>
        <time>2021-07-25T17:11:20Z</time>
      </trkpt>
      <trkpt lat="49.39658" lon="5.00646">
        <ele>221.72</ele>
        <time>2021-07-25T17:11:21Z</time>
      </trkpt>
      <trkpt lat="49.39662" lon="5.0064">
        <ele>221.24</ele>
        <time>2021-07-25T17:11:22Z</time>
      </trkpt>
      <trkpt lat="49.39651" lon="5.00613">
        <ele>220.28</ele>
        <time>2021-07-25T17:11:23Z</time>
      </trkpt>
      <trkpt lat="49.39655" lon="5.00605">
        <ele>219.32</ele>
        <time>2021-07-25T17:11:24Z</time>
      </trkpt>
      <trkpt lat="49.3966" lon="5.00596">
        <ele>218.84</ele>
        <time>2021-07-25T17:11:25Z</time>
      </trkpt>
      <trkpt lat="49.39666" lon="5.00586">
        <ele>218.84</ele>
        <time>2021-07-25T17:11:26Z</time>
      </trkpt>
      <trkpt lat="49.39672" lon="5.00575">
        <ele>218.84</ele>
        <time>2021-07-25T17:11:27Z</time>
      </trkpt>
      <trkpt lat="49.3975" lon="5.00446">
        <ele>210.19</ele>
        <time>2021-07-25T17:11:36Z</time>
      </trkpt>
      <trkpt lat="49.39907" lon="5.0025">
        <ele>219.32</ele>
        <time>2021-07-25T17:11:50Z</time>
      </trkpt>
      <trkpt lat="49.39941" lon="5.00191">
        <ele>223.16</ele>
        <time>2021-07-25T17:11:54Z</time>
      </trkpt>
      <trkpt lat="49.39949" lon="5.00174">
        <ele>224.12</ele>
        <time>2021-07-25T17:11:55Z</time>
      </trkpt>
      <trkpt lat="49.40013" lon="4.99983">
        <ele>234.7</ele>
        <time>2021-07-25T17:12:04Z</time>
      </trkpt>
      <trkpt lat="49.40059" lon="4.99884">
        <ele>240.95</ele>
        <time>2021-07-25T17:12:09Z</time>
      </trkpt>
      <trkpt lat="49.40069" lon="4.99868">
        <ele>242.39</ele>
        <time>2021-07-25T17:12:10Z</time>
      </trkpt>
      <trkpt lat="49.4008" lon="4.99853">
        <ele>243.35</ele>
        <time>2021-07-25T17:12:11Z</time>
      </trkpt>
      <trkpt lat="49.40091" lon="4.99839">
        <ele>243.83</ele>
        <time>2021-07-25T17:12:12Z</time>
      </trkpt>
      <trkpt lat="49.40104" lon="4.99826">
        <ele>243.83</ele>
        <time>2021-07-25T17:12:13Z</time>
      </trkpt>
      <trkpt lat="49.40225" lon="4.99693">
        <ele>246.23</ele>
        <time>2021-07-25T17:12:22Z</time>
      </trkpt>
      <trkpt lat="49.40354" lon="4.99461">
        <ele>252.48</ele>
        <time>2021-07-25T17:12:33Z</time>
      </trkpt>
      <trkpt lat="49.40499" lon="4.99169">
        <ele>272.19</ele>
        <time>2021-07-25T17:12:46Z</time>
      </trkpt>
      <trkpt lat="49.40659" lon="4.98894">
        <ele>273.15</ele>
        <time>2021-07-25T17:12:59Z</time>
      </trkpt>
      <trkpt lat="49.40784" lon="4.98746">
        <ele>255.37</ele>
        <time>2021-07-25T17:13:08Z</time>
      </trkpt>
      <trkpt lat="49.40949" lon="4.98574">
        <ele>245.75</ele>
        <time>2021-07-25T17:13:17Z</time>
      </trkpt>
      <trkpt lat="49.41143" lon="4.98324">
        <ele>249.6</ele>
        <time>2021-07-25T17:13:28Z</time>
      </trkpt>
      <trkpt lat="49.41297" lon="4.98106">
        <ele>244.79</ele>
        <time>2021-07-25T17:13:37Z</time>
      </trkpt>
      <trkpt lat="49.41434" lon="4.97915">
        <ele>246.23</ele>
        <time>2021-07-25T17:13:45Z</time>
      </trkpt>
      <trkpt lat="49.41615" lon="4.97667">
        <ele>242.87</ele>
        <time>2021-07-25T17:13:56Z</time>
      </trkpt>
      <trkpt lat="49.41761" lon="4.97402">
        <ele>230.37</ele>
        <time>2021-07-25T17:14:09Z</time>
      </trkpt>
      <trkpt lat="49.41799" lon="4.97233">
        <ele>219.8</ele>
        <time>2021-07-25T17:14:16Z</time>
      </trkpt>
      <trkpt lat="49.41819" lon="4.97071">
        <ele>213.07</ele>
        <time>2021-07-25T17:14:23Z</time>
      </trkpt>
      <trkpt lat="49.41874" lon="4.96913">
        <ele>209.22</ele>
        <time>2021-07-25T17:14:32Z</time>
      </trkpt>
      <trkpt lat="49.41884" lon="4.96895">
        <ele>207.78</ele>
        <time>2021-07-25T17:14:33Z</time>
      </trkpt>
      <trkpt lat="49.41893" lon="4.96878">
        <ele>206.82</ele>
        <time>2021-07-25T17:14:34Z</time>
      </trkpt>
      <trkpt lat="49.41906" lon="4.96865">
        <ele>205.86</ele>
        <time>2021-07-25T17:14:35Z</time>
      </trkpt>
      <trkpt lat="49.41918" lon="4.96853">
        <ele>204.9</ele>
        <time>2021-07-25T17:14:36Z</time>
      </trkpt>
      <trkpt lat="49.42046" lon="4.96739">
        <ele>195.77</ele>
        <time>2021-07-25T17:14:44Z</time>
      </trkpt>
      <trkpt lat="49.42046" lon="4.96739">
        <ele>195.28</ele>
        <time>2021-07-25T17:14:45Z</time>
      </trkpt>
      <trkpt lat="49.42057" lon="4.96719">
        <ele>194.32</ele>
        <time>2021-07-25T17:14:46Z</time>
      </trkpt>
      <trkpt lat="49.42133" lon="4.96534">
        <ele>185.19</ele>
        <time>2021-07-25T17:14:55Z</time>
      </trkpt>
      <trkpt lat="49.42244" lon="4.96299">
        <ele>180.38</ele>
        <time>2021-07-25T17:15:08Z</time>
      </trkpt>
      <trkpt lat="49.42359" lon="4.96076">
        <ele>178.94</ele>
        <time>2021-07-25T17:15:22Z</time>
      </trkpt>
      <trkpt lat="49.42384" lon="4.9603">
        <ele>177.98</ele>
        <time>2021-07-25T17:15:26Z</time>
      </trkpt>
      <trkpt lat="49.4239" lon="4.96019">
        <ele>178.46</ele>
        <time>2021-07-25T17:15:27Z</time>
      </trkpt>
      <trkpt lat="49.42391" lon="4.96016">
        <ele>178.46</ele>
        <time>2021-07-25T17:15:28Z</time>
      </trkpt>
      <trkpt lat="49.42391" lon="4.96016">
        <ele>178.46</ele>
        <time>2021-07-25T17:15:29Z</time>
      </trkpt>
      <trkpt lat="49.42395" lon="4.96008">
        <ele>179.42</ele>
        <time>2021-07-25T17:15:40Z</time>
      </trkpt>
      <trkpt lat="49.42398" lon="4.96003">
        <ele>178.94</ele>
        <time>2021-07-25T17:15:41Z</time>
      </trkpt>
      <trkpt lat="49.42435" lon="4.95929">
        <ele>179.9</ele>
        <time>2021-07-25T17:15:49Z</time>
      </trkpt>
      <trkpt lat="49.42532" lon="4.9574">
        <ele>180.38</ele>
        <time>2021-07-25T17:16:02Z</time>
      </trkpt>
      <trkpt lat="49.42628" lon="4.95552">
        <ele>178.46</ele>
        <time>2021-07-25T17:16:18Z</time>
      </trkpt>
      <trkpt lat="49.42635" lon="4.95541">
        <ele>177.98</ele>
        <time>2021-07-25T17:16:20Z</time>
      </trkpt>
      <trkpt lat="49.42638" lon="4.95538">
        <ele>177.5</ele>
        <time>2021-07-25T17:16:21Z</time>
      </trkpt>
      <trkpt lat="49.42649" lon="4.95535">
        <ele>177.5</ele>
        <time>2021-07-25T17:16:22Z</time>
      </trkpt>
      <trkpt lat="49.42649" lon="4.95535">
        <ele>177.02</ele>
        <time>2021-07-25T17:16:23Z</time>
      </trkpt>
      <trkpt lat="49.42654" lon="4.95533">
        <ele>176.54</ele>
        <time>2021-07-25T17:16:24Z</time>
      </trkpt>
      <trkpt lat="49.42658" lon="4.95533">
        <ele>176.06</ele>
        <time>2021-07-25T17:16:25Z</time>
      </trkpt>
      <trkpt lat="49.4271" lon="4.95543">
        <ele>177.5</ele>
        <time>2021-07-25T17:16:34Z</time>
      </trkpt>
      <trkpt lat="49.4275" lon="4.95552">
        <ele>179.42</ele>
        <time>2021-07-25T17:16:39Z</time>
      </trkpt>
      <trkpt lat="49.42757" lon="4.9555">
        <ele>179.42</ele>
        <time>2021-07-25T17:16:40Z</time>
      </trkpt>
      <trkpt lat="49.42764" lon="4.95547">
        <ele>178.46</ele>
        <time>2021-07-25T17:16:41Z</time>
      </trkpt>
      <trkpt lat="49.4277" lon="4.95545">
        <ele>177.98</ele>
        <time>2021-07-25T17:16:42Z</time>
      </trkpt>
      <trkpt lat="49.42775" lon="4.95542">
        <ele>177.5</ele>
        <time>2021-07-25T17:16:43Z</time>
      </trkpt>
      <trkpt lat="49.42779" lon="4.95533">
        <ele>177.5</ele>
        <time>2021-07-25T17:16:44Z</time>
      </trkpt>
      <trkpt lat="49.42783" lon="4.95524">
        <ele>177.5</ele>
        <time>2021-07-25T17:16:45Z</time>
      </trkpt>
      <trkpt lat="49.42787" lon="4.95514">
        <ele>177.02</ele>
        <time>2021-07-25T17:16:46Z</time>
      </trkpt>
      <trkpt lat="49.42828" lon="4.95378">
        <ele>175.58</ele>
        <time>2021-07-25T17:16:56Z</time>
      </trkpt>
      <trkpt lat="49.42906" lon="4.95179">
        <ele>178.46</ele>
        <time>2021-07-25T17:17:09Z</time>
      </trkpt>
      <trkpt lat="49.43043" lon="4.94898">
        <ele>189.04</ele>
        <time>2021-07-25T17:17:25Z</time>
      </trkpt>
      <trkpt lat="49.43181" lon="4.94615">
        <ele>194.32</ele>
        <time>2021-07-25T17:17:38Z</time>
      </trkpt>
      <trkpt lat="49.43303" lon="4.94366">
        <ele>194.32</ele>
        <time>2021-07-25T17:17:49Z</time>
      </trkpt>
      <trkpt lat="49.43404" lon="4.94158">
        <ele>190</ele>
        <time>2021-07-25T17:18:05Z</time>
      </trkpt>
      <trkpt lat="49.4344" lon="4.93997">
        <ele>177.98</ele>
        <time>2021-07-25T17:18:14Z</time>
      </trkpt>
      <trkpt lat="49.43489" lon="4.9369">
        <ele>182.31</ele>
        <time>2021-07-25T17:18:27Z</time>
      </trkpt>
      <trkpt lat="49.43558" lon="4.93231">
        <ele>190</ele>
        <time>2021-07-25T17:18:45Z</time>
      </trkpt>
      <trkpt lat="49.43624" lon="4.92801">
        <ele>185.67</ele>
        <time>2021-07-25T17:19:00Z</time>
      </trkpt>
      <trkpt lat="49.43707" lon="4.92259">
        <ele>184.71</ele>
        <time>2021-07-25T17:19:17Z</time>
      </trkpt>
      <trkpt lat="49.43836" lon="4.91419">
        <ele>184.71</ele>
        <time>2021-07-25T17:19:41Z</time>
      </trkpt>
      <trkpt lat="49.43931" lon="4.90804">
        <ele>181.35</ele>
        <time>2021-07-25T17:20:01Z</time>
      </trkpt>
      <trkpt lat="49.44005" lon="4.90325">
        <ele>177.98</ele>
        <time>2021-07-25T17:20:17Z</time>
      </trkpt>
      <trkpt lat="49.44072" lon="4.89889">
        <ele>171.25</ele>
        <time>2021-07-25T17:20:31Z</time>
      </trkpt>
      <trkpt lat="49.44175" lon="4.89206">
        <ele>169.81</ele>
        <time>2021-07-25T17:20:54Z</time>
      </trkpt>
      <trkpt lat="49.44181" lon="4.89057">
        <ele>169.81</ele>
        <time>2021-07-25T17:20:59Z</time>
      </trkpt>
      <trkpt lat="49.44179" lon="4.89027">
        <ele>169.33</ele>
        <time>2021-07-25T17:21:00Z</time>
      </trkpt>
      <trkpt lat="49.44176" lon="4.88998">
        <ele>169.81</ele>
        <time>2021-07-25T17:21:01Z</time>
      </trkpt>
      <trkpt lat="49.44164" lon="4.88942">
        <ele>170.77</ele>
        <time>2021-07-25T17:21:02Z</time>
      </trkpt>
      <trkpt lat="49.44164" lon="4.88942">
        <ele>170.77</ele>
        <time>2021-07-25T17:21:03Z</time>
      </trkpt>
      <trkpt lat="49.44157" lon="4.88913">
        <ele>170.77</ele>
        <time>2021-07-25T17:21:04Z</time>
      </trkpt>
      <trkpt lat="49.44147" lon="4.88889">
        <ele>170.77</ele>
        <time>2021-07-25T17:21:05Z</time>
      </trkpt>
      <trkpt lat="49.44137" lon="4.88864">
        <ele>171.25</ele>
        <time>2021-07-25T17:21:06Z</time>
      </trkpt>
      <trkpt lat="49.44124" lon="4.88841">
        <ele>171.73</ele>
        <time>2021-07-25T17:21:07Z</time>
      </trkpt>
      <trkpt lat="49.44111" lon="4.88821">
        <ele>171.73</ele>
        <time>2021-07-25T17:21:08Z</time>
      </trkpt>
      <trkpt lat="49.43925" lon="4.8856">
        <ele>168.37</ele>
        <time>2021-07-25T17:21:21Z</time>
      </trkpt>
      <trkpt lat="49.43702" lon="4.88247">
        <ele>171.73</ele>
        <time>2021-07-25T17:21:38Z</time>
      </trkpt>
      <trkpt lat="49.4369" lon="4.88227">
        <ele>172.69</ele>
        <time>2021-07-25T17:21:39Z</time>
      </trkpt>
      <trkpt lat="49.43683" lon="4.88202">
        <ele>173.17</ele>
        <time>2021-07-25T17:21:40Z</time>
      </trkpt>
      <trkpt lat="49.43676" lon="4.88177">
        <ele>174.14</ele>
        <time>2021-07-25T17:21:41Z</time>
      </trkpt>
      <trkpt lat="49.43672" lon="4.88153">
        <ele>176.06</ele>
        <time>2021-07-25T17:21:42Z</time>
      </trkpt>
      <trkpt lat="49.43669" lon="4.88128">
        <ele>176.54</ele>
        <time>2021-07-25T17:21:43Z</time>
      </trkpt>
      <trkpt lat="49.43669" lon="4.88103">
        <ele>177.02</ele>
        <time>2021-07-25T17:21:44Z</time>
      </trkpt>
      <trkpt lat="49.4367" lon="4.88079">
        <ele>177.98</ele>
        <time>2021-07-25T17:21:45Z</time>
      </trkpt>
      <trkpt lat="49.43673" lon="4.88056">
        <ele>178.46</ele>
        <time>2021-07-25T17:21:46Z</time>
      </trkpt>
      <trkpt lat="49.43677" lon="4.88034">
        <ele>178.94</ele>
        <time>2021-07-25T17:21:47Z</time>
      </trkpt>
      <trkpt lat="49.43701" lon="4.87894">
        <ele>177.98</ele>
        <time>2021-07-25T17:21:56Z</time>
      </trkpt>
      <trkpt lat="49.43706" lon="4.8778">
        <ele>177.98</ele>
        <time>2021-07-25T17:22:05Z</time>
      </trkpt>
      <trkpt lat="49.437" lon="4.8771">
        <ele>178.46</ele>
        <time>2021-07-25T17:22:14Z</time>
      </trkpt>
      <trkpt lat="49.43667" lon="4.87584">
        <ele>181.83</ele>
        <time>2021-07-25T17:22:23Z</time>
      </trkpt>
      <trkpt lat="49.43568" lon="4.87286">
        <ele>177.5</ele>
        <time>2021-07-25T17:22:41Z</time>
      </trkpt>
      <trkpt lat="49.43466" lon="4.86983">
        <ele>177.5</ele>
        <time>2021-07-25T17:22:56Z</time>
      </trkpt>
      <trkpt lat="49.43351" lon="4.86639">
        <ele>172.69</ele>
        <time>2021-07-25T17:23:10Z</time>
      </trkpt>
      <trkpt lat="49.43256" lon="4.86298">
        <ele>177.02</ele>
        <time>2021-07-25T17:23:22Z</time>
      </trkpt>
      <trkpt lat="49.4319" lon="4.85863">
        <ele>188.08</ele>
        <time>2021-07-25T17:23:37Z</time>
      </trkpt>
      <trkpt lat="49.43119" lon="4.85396">
        <ele>190.48</ele>
        <time>2021-07-25T17:23:53Z</time>
      </trkpt>
      <trkpt lat="49.43036" lon="4.84844">
        <ele>183.27</ele>
        <time>2021-07-25T17:24:12Z</time>
      </trkpt>
      <trkpt lat="49.43032" lon="4.84794">
        <ele>182.31</ele>
        <time>2021-07-25T17:24:14Z</time>
      </trkpt>
      <trkpt lat="49.43031" lon="4.84771">
        <ele>182.31</ele>
        <time>2021-07-25T17:24:15Z</time>
      </trkpt>
      <trkpt lat="49.43034" lon="4.84748">
        <ele>181.83</ele>
        <time>2021-07-25T17:24:16Z</time>
      </trkpt>
      <trkpt lat="49.43062" lon="4.84544">
        <ele>177.5</ele>
        <time>2021-07-25T17:24:26Z</time>
      </trkpt>
      <trkpt lat="49.4307" lon="4.84495">
        <ele>176.54</ele>
        <time>2021-07-25T17:24:32Z</time>
      </trkpt>
      <trkpt lat="49.43082" lon="4.84406">
        <ele>174.62</ele>
        <time>2021-07-25T17:24:41Z</time>
      </trkpt>
      <trkpt lat="49.43115" lon="4.84184">
        <ele>170.29</ele>
        <time>2021-07-25T17:24:56Z</time>
      </trkpt>
      <trkpt lat="49.4313" lon="4.84079">
        <ele>170.29</ele>
        <time>2021-07-25T17:25:04Z</time>
      </trkpt>
      <trkpt lat="49.43145" lon="4.83975">
        <ele>173.66</ele>
        <time>2021-07-25T17:25:12Z</time>
      </trkpt>
      <trkpt lat="49.43191" lon="4.8365">
        <ele>182.79</ele>
        <time>2021-07-25T17:25:30Z</time>
      </trkpt>
      <trkpt lat="49.43189" lon="4.83635">
        <ele>184.23</ele>
        <time>2021-07-25T17:25:31Z</time>
      </trkpt>
      <trkpt lat="49.43188" lon="4.8362">
        <ele>185.67</ele>
        <time>2021-07-25T17:25:32Z</time>
      </trkpt>
      <trkpt lat="49.43183" lon="4.8361">
        <ele>185.19</ele>
        <time>2021-07-25T17:25:33Z</time>
      </trkpt>
      <trkpt lat="49.43175" lon="4.83598">
        <ele>182.79</ele>
        <time>2021-07-25T17:25:34Z</time>
      </trkpt>
      <trkpt lat="49.43167" lon="4.83587">
        <ele>181.83</ele>
        <time>2021-07-25T17:25:35Z</time>
      </trkpt>
      <trkpt lat="49.43156" lon="4.83575">
        <ele>181.83</ele>
        <time>2021-07-25T17:25:36Z</time>
      </trkpt>
      <trkpt lat="49.43034" lon="4.83448">
        <ele>181.35</ele>
        <time>2021-07-25T17:25:46Z</time>
      </trkpt>
      <trkpt lat="49.42794" lon="4.83203">
        <ele>174.14</ele>
        <time>2021-07-25T17:26:02Z</time>
      </trkpt>
      <trkpt lat="49.42611" lon="4.83013">
        <ele>171.25</ele>
        <time>2021-07-25T17:26:13Z</time>
      </trkpt>
      <trkpt lat="49.42309" lon="4.82701">
        <ele>168.85</ele>
        <time>2021-07-25T17:26:31Z</time>
      </trkpt>
      <trkpt lat="49.42018" lon="4.824">
        <ele>179.9</ele>
        <time>2021-07-25T17:26:49Z</time>
      </trkpt>
      <trkpt lat="49.41702" lon="4.82071">
        <ele>183.27</ele>
        <time>2021-07-25T17:27:08Z</time>
      </trkpt>
      <trkpt lat="49.41476" lon="4.8184">
        <ele>188.56</ele>
        <time>2021-07-25T17:27:23Z</time>
      </trkpt>
      <trkpt lat="49.41416" lon="4.81791">
        <ele>192.4</ele>
        <time>2021-07-25T17:27:27Z</time>
      </trkpt>
      <trkpt lat="49.41401" lon="4.81783">
        <ele>193.36</ele>
        <time>2021-07-25T17:27:28Z</time>
      </trkpt>
      <trkpt lat="49.41386" lon="4.81778">
        <ele>194.32</ele>
        <time>2021-07-25T17:27:29Z</time>
      </trkpt>
      <trkpt lat="49.41229" lon="4.81719">
        <ele>212.11</ele>
        <time>2021-07-25T17:27:39Z</time>
      </trkpt>
      <trkpt lat="49.41159" lon="4.81623">
        <ele>220.76</ele>
        <time>2021-07-25T17:27:45Z</time>
      </trkpt>
      <trkpt lat="49.41058" lon="4.81374">
        <ele>221.72</ele>
        <time>2021-07-25T17:27:55Z</time>
      </trkpt>
      <trkpt lat="49.40944" lon="4.811">
        <ele>214.51</ele>
        <time>2021-07-25T17:28:06Z</time>
      </trkpt>
      <trkpt lat="49.40792" lon="4.80723">
        <ele>224.12</ele>
        <time>2021-07-25T17:28:20Z</time>
      </trkpt>
      <trkpt lat="49.40551" lon="4.80129">
        <ele>212.11</ele>
        <time>2021-07-25T17:28:41Z</time>
      </trkpt>
      <trkpt lat="49.40373" lon="4.79689">
        <ele>212.11</ele>
        <time>2021-07-25T17:28:56Z</time>
      </trkpt>
      <trkpt lat="49.40312" lon="4.79543">
        <ele>211.63</ele>
        <time>2021-07-25T17:29:04Z</time>
      </trkpt>
      <trkpt lat="49.40222" lon="4.79317">
        <ele>209.7</ele>
        <time>2021-07-25T17:29:18Z</time>
      </trkpt>
      <trkpt lat="49.40119" lon="4.79062">
        <ele>211.15</ele>
        <time>2021-07-25T17:29:34Z</time>
      </trkpt>
      <trkpt lat="49.40012" lon="4.78797">
        <ele>207.3</ele>
        <time>2021-07-25T17:29:50Z</time>
      </trkpt>
      <trkpt lat="49.39913" lon="4.78557">
        <ele>205.86</ele>
        <time>2021-07-25T17:30:01Z</time>
      </trkpt>
      <trkpt lat="49.39726" lon="4.78099">
        <ele>201.53</ele>
        <time>2021-07-25T17:30:20Z</time>
      </trkpt>
      <trkpt lat="49.39609" lon="4.77876">
        <ele>199.61</ele>
        <time>2021-07-25T17:30:30Z</time>
      </trkpt>
      <trkpt lat="49.39334" lon="4.77494">
        <ele>193.84</ele>
        <time>2021-07-25T17:30:49Z</time>
      </trkpt>
      <trkpt lat="49.39116" lon="4.77158">
        <ele>190.96</ele>
        <time>2021-07-25T17:31:06Z</time>
      </trkpt>
      <trkpt lat="49.39109" lon="4.77134">
        <ele>191.44</ele>
        <time>2021-07-25T17:31:07Z</time>
      </trkpt>
      <trkpt lat="49.39103" lon="4.77106">
        <ele>190.48</ele>
        <time>2021-07-25T17:31:08Z</time>
      </trkpt>
      <trkpt lat="49.39096" lon="4.77078">
        <ele>188.56</ele>
        <time>2021-07-25T17:31:09Z</time>
      </trkpt>
      <trkpt lat="49.39089" lon="4.77048">
        <ele>187.11</ele>
        <time>2021-07-25T17:31:10Z</time>
      </trkpt>
      <trkpt lat="49.39087" lon="4.77017">
        <ele>185.19</ele>
        <time>2021-07-25T17:31:11Z</time>
      </trkpt>
      <trkpt lat="49.39087" lon="4.76987">
        <ele>184.23</ele>
        <time>2021-07-25T17:31:12Z</time>
      </trkpt>
      <trkpt lat="49.3909" lon="4.76957">
        <ele>183.75</ele>
        <time>2021-07-25T17:31:13Z</time>
      </trkpt>
      <trkpt lat="49.39093" lon="4.76926">
        <ele>183.75</ele>
        <time>2021-07-25T17:31:14Z</time>
      </trkpt>
      <trkpt lat="49.39096" lon="4.76895">
        <ele>182.31</ele>
        <time>2021-07-25T17:31:15Z</time>
      </trkpt>
      <trkpt lat="49.39104" lon="4.76866">
        <ele>180.87</ele>
        <time>2021-07-25T17:31:16Z</time>
      </trkpt>
      <trkpt lat="49.39123" lon="4.76811">
        <ele>180.87</ele>
        <time>2021-07-25T17:31:17Z</time>
      </trkpt>
      <trkpt lat="49.39136" lon="4.76785">
        <ele>179.9</ele>
        <time>2021-07-25T17:31:18Z</time>
      </trkpt>
      <trkpt lat="49.39136" lon="4.76785">
        <ele>179.42</ele>
        <time>2021-07-25T17:31:19Z</time>
      </trkpt>
      <trkpt lat="49.39149" lon="4.76758">
        <ele>178.94</ele>
        <time>2021-07-25T17:31:20Z</time>
      </trkpt>
      <trkpt lat="49.39321" lon="4.76412">
        <ele>179.42</ele>
        <time>2021-07-25T17:31:34Z</time>
      </trkpt>
      <trkpt lat="49.39388" lon="4.76139">
        <ele>168.85</ele>
        <time>2021-07-25T17:31:43Z</time>
      </trkpt>
      <trkpt lat="49.39485" lon="4.75732">
        <ele>160.2</ele>
        <time>2021-07-25T17:31:55Z</time>
      </trkpt>
      <trkpt lat="49.39573" lon="4.75368">
        <ele>145.78</ele>
        <time>2021-07-25T17:32:10Z</time>
      </trkpt>
      <trkpt lat="49.39631" lon="4.75085">
        <ele>139.53</ele>
        <time>2021-07-25T17:32:23Z</time>
      </trkpt>
      <trkpt lat="49.39631" lon="4.75085">
        <ele>140.01</ele>
        <time>2021-07-25T17:32:24Z</time>
      </trkpt>
      <trkpt lat="49.39631" lon="4.75066">
        <ele>141.45</ele>
        <time>2021-07-25T17:32:25Z</time>
      </trkpt>
      <trkpt lat="49.3963" lon="4.75046">
        <ele>143.37</ele>
        <time>2021-07-25T17:32:26Z</time>
      </trkpt>
      <trkpt lat="49.39627" lon="4.75026">
        <ele>144.34</ele>
        <time>2021-07-25T17:32:27Z</time>
      </trkpt>
      <trkpt lat="49.39621" lon="4.75008">
        <ele>144.34</ele>
        <time>2021-07-25T17:32:28Z</time>
      </trkpt>
      <trkpt lat="49.39615" lon="4.7499">
        <ele>144.82</ele>
        <time>2021-07-25T17:32:29Z</time>
      </trkpt>
      <trkpt lat="49.39525" lon="4.74721">
        <ele>156.83</ele>
        <time>2021-07-25T17:32:42Z</time>
      </trkpt>
      <trkpt lat="49.39503" lon="4.74543">
        <ele>154.91</ele>
        <time>2021-07-25T17:32:49Z</time>
      </trkpt>
      <trkpt lat="49.39512" lon="4.74119">
        <ele>153.95</ele>
        <time>2021-07-25T17:33:03Z</time>
      </trkpt>
      <trkpt lat="49.39525" lon="4.73558">
        <ele>140.49</ele>
        <time>2021-07-25T17:33:20Z</time>
      </trkpt>
      <trkpt lat="49.39537" lon="4.7324">
        <ele>132.32</ele>
        <time>2021-07-25T17:33:31Z</time>
      </trkpt>
      <trkpt lat="49.39609" lon="4.72889">
        <ele>119.34</ele>
        <time>2021-07-25T17:33:43Z</time>
      </trkpt>
      <trkpt lat="49.39747" lon="4.72235">
        <ele>101.08</ele>
        <time>2021-07-25T17:34:04Z</time>
      </trkpt>
      <trkpt lat="49.39824" lon="4.71868">
        <ele>97.71</ele>
        <time>2021-07-25T17:34:17Z</time>
      </trkpt>
      <trkpt lat="49.39888" lon="4.71567">
        <ele>97.71</ele>
        <time>2021-07-25T17:34:30Z</time>
      </trkpt>
      <trkpt lat="49.39962" lon="4.7121">
        <ele>101.08</ele>
        <time>2021-07-25T17:34:48Z</time>
      </trkpt>
      <trkpt lat="49.4002" lon="4.70921">
        <ele>99.63</ele>
        <time>2021-07-25T17:35:04Z</time>
      </trkpt>
      <trkpt lat="49.40023" lon="4.70901">
        <ele>99.63</ele>
        <time>2021-07-25T17:35:05Z</time>
      </trkpt>
      <trkpt lat="49.40023" lon="4.70883">
        <ele>99.15</ele>
        <time>2021-07-25T17:35:06Z</time>
      </trkpt>
      <trkpt lat="49.40021" lon="4.70865">
        <ele>99.63</ele>
        <time>2021-07-25T17:35:07Z</time>
      </trkpt>
      <trkpt lat="49.40019" lon="4.70846">
        <ele>100.6</ele>
        <time>2021-07-25T17:35:08Z</time>
      </trkpt>
      <trkpt lat="49.40015" lon="4.70827">
        <ele>101.56</ele>
        <time>2021-07-25T17:35:09Z</time>
      </trkpt>
      <trkpt lat="49.40011" lon="4.70808">
        <ele>103.48</ele>
        <time>2021-07-25T17:35:10Z</time>
      </trkpt>
      <trkpt lat="49.39981" lon="4.70689">
        <ele>103</ele>
        <time>2021-07-25T17:35:16Z</time>
      </trkpt>
      <trkpt lat="49.39974" lon="4.70672">
        <ele>104.44</ele>
        <time>2021-07-25T17:35:17Z</time>
      </trkpt>
      <trkpt lat="49.39887" lon="4.70492">
        <ele>106.36</ele>
        <time>2021-07-25T17:35:30Z</time>
      </trkpt>
      <trkpt lat="49.39864" lon="4.70452">
        <ele>108.77</ele>
        <time>2021-07-25T17:35:32Z</time>
      </trkpt>
      <trkpt lat="49.39864" lon="4.70452">
        <ele>108.77</ele>
        <time>2021-07-25T17:35:33Z</time>
      </trkpt>
      <trkpt lat="49.39854" lon="4.70443">
        <ele>109.25</ele>
        <time>2021-07-25T17:35:34Z</time>
      </trkpt>
      <trkpt lat="49.39755" lon="4.70374">
        <ele>114.05</ele>
        <time>2021-07-25T17:35:44Z</time>
      </trkpt>
      <trkpt lat="49.39745" lon="4.70358">
        <ele>115.98</ele>
        <time>2021-07-25T17:35:45Z</time>
      </trkpt>
      <trkpt lat="49.39745" lon="4.70358">
        <ele>116.46</ele>
        <time>2021-07-25T17:35:46Z</time>
      </trkpt>
      <trkpt lat="49.3974" lon="4.70336">
        <ele>116.94</ele>
        <time>2021-07-25T17:35:47Z</time>
      </trkpt>
      <trkpt lat="49.3974" lon="4.70336">
        <ele>116.94</ele>
        <time>2021-07-25T17:35:48Z</time>
      </trkpt>
      <trkpt lat="49.39739" lon="4.70307">
        <ele>116.94</ele>
        <time>2021-07-25T17:35:49Z</time>
      </trkpt>
      <trkpt lat="49.39746" lon="4.70175">
        <ele>117.42</ele>
        <time>2021-07-25T17:36:00Z</time>
      </trkpt>
      <trkpt lat="49.39764" lon="4.70018">
        <ele>116.46</ele>
        <time>2021-07-25T17:36:15Z</time>
      </trkpt>
      <trkpt lat="49.39764" lon="4.69986">
        <ele>115.98</ele>
        <time>2021-07-25T17:36:23Z</time>
      </trkpt>
      <trkpt lat="49.39763" lon="4.6995">
        <ele>115.5</ele>
        <time>2021-07-25T17:36:35Z</time>
      </trkpt>
      <trkpt lat="49.39756" lon="4.69818">
        <ele>115.5</ele>
        <time>2021-07-25T17:36:46Z</time>
      </trkpt>
      <trkpt lat="49.39731" lon="4.69624">
        <ele>110.69</ele>
        <time>2021-07-25T17:36:58Z</time>
      </trkpt>
      <trkpt lat="49.397" lon="4.69388">
        <ele>114.53</ele>
        <time>2021-07-25T17:37:11Z</time>
      </trkpt>
      <trkpt lat="49.39665" lon="4.6909">
        <ele>119.82</ele>
        <time>2021-07-25T17:37:27Z</time>
      </trkpt>
      <trkpt lat="49.3963" lon="4.6881">
        <ele>122.71</ele>
        <time>2021-07-25T17:37:42Z</time>
      </trkpt>
      <trkpt lat="49.39587" lon="4.68447">
        <ele>116.46</ele>
        <time>2021-07-25T17:38:02Z</time>
      </trkpt>
      <trkpt lat="49.39555" lon="4.68217">
        <ele>113.57</ele>
        <time>2021-07-25T17:38:16Z</time>
      </trkpt>
      <trkpt lat="49.39554" lon="4.68209">
        <ele>113.57</ele>
        <time>2021-07-25T17:38:17Z</time>
      </trkpt>
      <trkpt lat="49.39552" lon="4.68201">
        <ele>113.09</ele>
        <time>2021-07-25T17:38:18Z</time>
      </trkpt>
      <trkpt lat="49.39566" lon="4.68177">
        <ele>112.61</ele>
        <time>2021-07-25T17:38:20Z</time>
      </trkpt>
      <trkpt lat="49.39564" lon="4.6817">
        <ele>112.13</ele>
        <time>2021-07-25T17:38:21Z</time>
      </trkpt>
      <trkpt lat="49.39561" lon="4.68159">
        <ele>112.13</ele>
        <time>2021-07-25T17:38:22Z</time>
      </trkpt>
      <trkpt lat="49.39561" lon="4.68159">
        <ele>111.65</ele>
        <time>2021-07-25T17:38:23Z</time>
      </trkpt>
      <trkpt lat="49.39548" lon="4.68146">
        <ele>111.65</ele>
        <time>2021-07-25T17:38:24Z</time>
      </trkpt>
      <trkpt lat="49.39545" lon="4.68123">
        <ele>111.17</ele>
        <time>2021-07-25T17:38:25Z</time>
      </trkpt>
      <trkpt lat="49.39545" lon="4.68123">
        <ele>110.69</ele>
        <time>2021-07-25T17:38:26Z</time>
      </trkpt>
      <trkpt lat="49.39544" lon="4.6811">
        <ele>110.69</ele>
        <time>2021-07-25T17:38:27Z</time>
      </trkpt>
      <trkpt lat="49.3952" lon="4.67918">
        <ele>109.73</ele>
        <time>2021-07-25T17:38:38Z</time>
      </trkpt>
      <trkpt lat="49.39483" lon="4.67619">
        <ele>113.09</ele>
        <time>2021-07-25T17:38:51Z</time>
      </trkpt>
      <trkpt lat="49.39452" lon="4.67359">
        <ele>113.57</ele>
        <time>2021-07-25T17:39:02Z</time>
      </trkpt>
      <trkpt lat="49.39403" lon="4.66956">
        <ele>116.46</ele>
        <time>2021-07-25T17:39:17Z</time>
      </trkpt>
      <trkpt lat="49.39345" lon="4.66486">
        <ele>112.61</ele>
        <time>2021-07-25T17:39:31Z</time>
      </trkpt>
      <trkpt lat="49.39273" lon="4.659">
        <ele>112.61</ele>
        <time>2021-07-25T17:39:50Z</time>
      </trkpt>
      <trkpt lat="49.39217" lon="4.65446">
        <ele>117.42</ele>
        <time>2021-07-25T17:40:06Z</time>
      </trkpt>
      <trkpt lat="49.39164" lon="4.65199">
        <ele>114.53</ele>
        <time>2021-07-25T17:40:15Z</time>
      </trkpt>
      <trkpt lat="49.38992" lon="4.64586">
        <ele>117.9</ele>
        <time>2021-07-25T17:40:36Z</time>
      </trkpt>
      <trkpt lat="49.38817" lon="4.63955">
        <ele>124.63</ele>
        <time>2021-07-25T17:40:57Z</time>
      </trkpt>
      <trkpt lat="49.38702" lon="4.63526">
        <ele>140.97</ele>
        <time>2021-07-25T17:41:12Z</time>
      </trkpt>
      <trkpt lat="49.38602" lon="4.63177">
        <ele>145.78</ele>
        <time>2021-07-25T17:41:26Z</time>
      </trkpt>
      <trkpt lat="49.38537" lon="4.62942">
        <ele>147.22</ele>
        <time>2021-07-25T17:41:37Z</time>
      </trkpt>
      <trkpt lat="49.38493" lon="4.627">
        <ele>146.26</ele>
        <time>2021-07-25T17:41:47Z</time>
      </trkpt>
      <trkpt lat="49.38514" lon="4.62346">
        <ele>156.35</ele>
        <time>2021-07-25T17:42:00Z</time>
      </trkpt>
      <trkpt lat="49.38543" lon="4.61871">
        <ele>172.21</ele>
        <time>2021-07-25T17:42:17Z</time>
      </trkpt>
      <trkpt lat="49.38576" lon="4.61662">
        <ele>175.58</ele>
        <time>2021-07-25T17:42:26Z</time>
      </trkpt>
      <trkpt lat="49.3865" lon="4.61286">
        <ele>177.02</ele>
        <time>2021-07-25T17:42:40Z</time>
      </trkpt>
      <trkpt lat="49.38673" lon="4.61172">
        <ele>178.46</ele>
        <time>2021-07-25T17:42:46Z</time>
      </trkpt>
      <trkpt lat="49.38677" lon="4.61149">
        <ele>178.94</ele>
        <time>2021-07-25T17:42:52Z</time>
      </trkpt>
      <trkpt lat="49.38677" lon="4.61149">
        <ele>179.9</ele>
        <time>2021-07-25T17:50:40Z</time>
      </trkpt>
      <trkpt lat="49.38677" lon="4.61149">
        <ele>180.38</ele>
        <time>2021-07-25T17:54:39Z</time>
      </trkpt>
      <trkpt lat="49.38677" lon="4.61149">
        <ele>180.38</ele>
        <time>2021-07-25T17:57:44Z</time>
      </trkpt>
    </trkseg>
  </trk>
  <trk>
    <name><![CDATA[Journal actif: 2021-07-25 15:59]]></name>
    <trkseg>
      <trkpt lat="49.38677" lon="4.61149">
        <ele>180.38</ele>
        <time>2021-07-25T17:59:11Z</time>
      </trkpt>
      <trkpt lat="49.38683" lon="4.61123">
        <ele>181.35</ele>
        <time>2021-07-25T17:59:43Z</time>
      </trkpt>
      <trkpt lat="49.38703" lon="4.61022">
        <ele>181.35</ele>
        <time>2021-07-25T17:59:51Z</time>
      </trkpt>
      <trkpt lat="49.38741" lon="4.60832">
        <ele>177.5</ele>
        <time>2021-07-25T18:00:01Z</time>
      </trkpt>
      <trkpt lat="49.38804" lon="4.60517">
        <ele>169.33</ele>
        <time>2021-07-25T18:00:14Z</time>
      </trkpt>
      <trkpt lat="49.38917" lon="4.59953">
        <ele>169.81</ele>
        <time>2021-07-25T18:00:33Z</time>
      </trkpt>
      <trkpt lat="49.39025" lon="4.59416">
        <ele>180.38</ele>
        <time>2021-07-25T18:00:52Z</time>
      </trkpt>
      <trkpt lat="49.39136" lon="4.58871">
        <ele>178.46</ele>
        <time>2021-07-25T18:01:11Z</time>
      </trkpt>
      <trkpt lat="49.39198" lon="4.58581">
        <ele>174.14</ele>
        <time>2021-07-25T18:01:22Z</time>
      </trkpt>
      <trkpt lat="49.39233" lon="4.58461">
        <ele>173.17</ele>
        <time>2021-07-25T18:01:30Z</time>
      </trkpt>
      <trkpt lat="49.39237" lon="4.58452">
        <ele>173.17</ele>
        <time>2021-07-25T18:01:31Z</time>
      </trkpt>
      <trkpt lat="49.3924" lon="4.58442">
        <ele>173.66</ele>
        <time>2021-07-25T18:01:32Z</time>
      </trkpt>
      <trkpt lat="49.39248" lon="4.58439">
        <ele>173.66</ele>
        <time>2021-07-25T18:01:33Z</time>
      </trkpt>
      <trkpt lat="49.39255" lon="4.58436">
        <ele>173.66</ele>
        <time>2021-07-25T18:01:34Z</time>
      </trkpt>
      <trkpt lat="49.39277" lon="4.58422">
        <ele>173.17</ele>
        <time>2021-07-25T18:01:37Z</time>
      </trkpt>
      <trkpt lat="49.39284" lon="4.58413">
        <ele>172.21</ele>
        <time>2021-07-25T18:01:38Z</time>
      </trkpt>
      <trkpt lat="49.39292" lon="4.58404">
        <ele>171.25</ele>
        <time>2021-07-25T18:01:39Z</time>
      </trkpt>
      <trkpt lat="49.39297" lon="4.58391">
        <ele>170.29</ele>
        <time>2021-07-25T18:01:40Z</time>
      </trkpt>
      <trkpt lat="49.39301" lon="4.58377">
        <ele>170.29</ele>
        <time>2021-07-25T18:01:41Z</time>
      </trkpt>
      <trkpt lat="49.39303" lon="4.58364">
        <ele>169.33</ele>
        <time>2021-07-25T18:01:42Z</time>
      </trkpt>
      <trkpt lat="49.39304" lon="4.58349">
        <ele>169.33</ele>
        <time>2021-07-25T18:01:43Z</time>
      </trkpt>
      <trkpt lat="49.39305" lon="4.58336">
        <ele>168.85</ele>
        <time>2021-07-25T18:01:44Z</time>
      </trkpt>
      <trkpt lat="49.39313" lon="4.58325">
        <ele>168.37</ele>
        <time>2021-07-25T18:01:45Z</time>
      </trkpt>
      <trkpt lat="49.3932" lon="4.58316">
        <ele>168.85</ele>
        <time>2021-07-25T18:01:46Z</time>
      </trkpt>
      <trkpt lat="49.39326" lon="4.58307">
        <ele>168.85</ele>
        <time>2021-07-25T18:01:47Z</time>
      </trkpt>
      <trkpt lat="49.39334" lon="4.583">
        <ele>168.85</ele>
        <time>2021-07-25T18:01:48Z</time>
      </trkpt>
      <trkpt lat="49.39353" lon="4.58286">
        <ele>169.33</ele>
        <time>2021-07-25T18:01:49Z</time>
      </trkpt>
      <trkpt lat="49.3945" lon="4.58209">
        <ele>168.85</ele>
        <time>2021-07-25T18:01:58Z</time>
      </trkpt>
      <trkpt lat="49.39643" lon="4.58017">
        <ele>170.77</ele>
        <time>2021-07-25T18:02:11Z</time>
      </trkpt>
      <trkpt lat="49.3989" lon="4.57769">
        <ele>172.21</ele>
        <time>2021-07-25T18:02:26Z</time>
      </trkpt>
      <trkpt lat="49.40177" lon="4.57481">
        <ele>174.14</ele>
        <time>2021-07-25T18:02:42Z</time>
      </trkpt>
      <trkpt lat="49.40404" lon="4.57296">
        <ele>168.85</ele>
        <time>2021-07-25T18:02:53Z</time>
      </trkpt>
      <trkpt lat="49.4077" lon="4.57091">
        <ele>162.12</ele>
        <time>2021-07-25T18:03:09Z</time>
      </trkpt>
      <trkpt lat="49.41095" lon="4.56909">
        <ele>165.96</ele>
        <time>2021-07-25T18:03:24Z</time>
      </trkpt>
      <trkpt lat="49.41387" lon="4.56748">
        <ele>172.69</ele>
        <time>2021-07-25T18:03:39Z</time>
      </trkpt>
      <trkpt lat="49.41711" lon="4.56568">
        <ele>172.69</ele>
        <time>2021-07-25T18:03:56Z</time>
      </trkpt>
      <trkpt lat="49.42023" lon="4.56395">
        <ele>168.37</ele>
        <time>2021-07-25T18:04:12Z</time>
      </trkpt>
      <trkpt lat="49.42362" lon="4.56205">
        <ele>157.31</ele>
        <time>2021-07-25T18:04:28Z</time>
      </trkpt>
      <trkpt lat="49.42564" lon="4.5613">
        <ele>152.99</ele>
        <time>2021-07-25T18:04:37Z</time>
      </trkpt>
      <trkpt lat="49.42777" lon="4.5615">
        <ele>146.74</ele>
        <time>2021-07-25T18:04:46Z</time>
      </trkpt>
      <trkpt lat="49.42907" lon="4.56242">
        <ele>140.01</ele>
        <time>2021-07-25T18:04:52Z</time>
      </trkpt>
      <trkpt lat="49.43" lon="4.56389">
        <ele>136.16</ele>
        <time>2021-07-25T18:04:58Z</time>
      </trkpt>
      <trkpt lat="49.4308" lon="4.56635">
        <ele>130.4</ele>
        <time>2021-07-25T18:05:06Z</time>
      </trkpt>
      <trkpt lat="49.4318" lon="4.56895">
        <ele>123.19</ele>
        <time>2021-07-25T18:05:15Z</time>
      </trkpt>
      <trkpt lat="49.43329" lon="4.57124">
        <ele>115.5</ele>
        <time>2021-07-25T18:05:24Z</time>
      </trkpt>
      <trkpt lat="49.43462" lon="4.57305">
        <ele>111.65</ele>
        <time>2021-07-25T18:05:33Z</time>
      </trkpt>
      <trkpt lat="49.43564" lon="4.57395">
        <ele>108.29</ele>
        <time>2021-07-25T18:05:40Z</time>
      </trkpt>
      <trkpt lat="49.43698" lon="4.57436">
        <ele>107.81</ele>
        <time>2021-07-25T18:05:49Z</time>
      </trkpt>
    </trkseg>
  </trk>
  <trk>
    <name><![CDATA[Journal actif: 2021-07-25 16:06]]></name>
    <trkseg>
      <trkpt lat="49.43942" lon="4.57458">
        <ele>108.29</ele>
        <time>2021-07-25T18:06:05Z</time>
      </trkpt>
      <trkpt lat="49.44236" lon="4.57489">
        <ele>107.81</ele>
        <time>2021-07-25T18:06:23Z</time>
      </trkpt>
      <trkpt lat="49.44445" lon="4.57511">
        <ele>105.4</ele>
        <time>2021-07-25T18:06:35Z</time>
      </trkpt>
      <trkpt lat="49.44802" lon="4.57549">
        <ele>104.92</ele>
        <time>2021-07-25T18:06:52Z</time>
      </trkpt>
      <trkpt lat="49.45269" lon="4.57598">
        <ele>105.88</ele>
        <time>2021-07-25T18:07:13Z</time>
      </trkpt>
      <trkpt lat="49.45792" lon="4.57652">
        <ele>104.92</ele>
        <time>2021-07-25T18:07:37Z</time>
      </trkpt>
      <trkpt lat="49.4617" lon="4.57691">
        <ele>96.27</ele>
        <time>2021-07-25T18:07:55Z</time>
      </trkpt>
      <trkpt lat="49.46635" lon="4.57738">
        <ele>95.31</ele>
        <time>2021-07-25T18:08:17Z</time>
      </trkpt>
      <trkpt lat="49.47033" lon="4.57776">
        <ele>93.39</ele>
        <time>2021-07-25T18:08:35Z</time>
      </trkpt>
      <trkpt lat="49.47127" lon="4.57785">
        <ele>94.35</ele>
        <time>2021-07-25T18:08:42Z</time>
      </trkpt>
      <trkpt lat="49.47162" lon="4.57789">
        <ele>94.35</ele>
        <time>2021-07-25T18:08:46Z</time>
      </trkpt>
      <trkpt lat="49.4717" lon="4.57789">
        <ele>94.35</ele>
        <time>2021-07-25T18:08:47Z</time>
      </trkpt>
      <trkpt lat="49.47174" lon="4.57789">
        <ele>94.83</ele>
        <time>2021-07-25T18:08:48Z</time>
      </trkpt>
      <trkpt lat="49.47183" lon="4.57808">
        <ele>94.83</ele>
        <time>2021-07-25T18:08:49Z</time>
      </trkpt>
      <trkpt lat="49.47184" lon="4.57808">
        <ele>94.35</ele>
        <time>2021-07-25T18:08:50Z</time>
      </trkpt>
      <trkpt lat="49.47197" lon="4.57791">
        <ele>94.35</ele>
        <time>2021-07-25T18:08:51Z</time>
      </trkpt>
      <trkpt lat="49.47204" lon="4.57791">
        <ele>94.35</ele>
        <time>2021-07-25T18:08:52Z</time>
      </trkpt>
      <trkpt lat="49.47211" lon="4.57792">
        <ele>94.83</ele>
        <time>2021-07-25T18:08:53Z</time>
      </trkpt>
      <trkpt lat="49.47219" lon="4.57793">
        <ele>94.83</ele>
        <time>2021-07-25T18:08:54Z</time>
      </trkpt>
      <trkpt lat="49.47321" lon="4.57803">
        <ele>94.35</ele>
        <time>2021-07-25T18:09:03Z</time>
      </trkpt>
      <trkpt lat="49.47529" lon="4.57849">
        <ele>95.31</ele>
        <time>2021-07-25T18:09:19Z</time>
      </trkpt>
      <trkpt lat="49.47731" lon="4.5793">
        <ele>84.73</ele>
        <time>2021-07-25T18:09:37Z</time>
      </trkpt>
      <trkpt lat="49.47755" lon="4.57939">
        <ele>84.25</ele>
        <time>2021-07-25T18:09:42Z</time>
      </trkpt>
      <trkpt lat="49.47759" lon="4.5794">
        <ele>84.25</ele>
        <time>2021-07-25T18:09:43Z</time>
      </trkpt>
      <trkpt lat="49.47763" lon="4.5794">
        <ele>84.25</ele>
        <time>2021-07-25T18:09:44Z</time>
      </trkpt>
      <trkpt lat="49.47766" lon="4.57941">
        <ele>84.25</ele>
        <time>2021-07-25T18:09:45Z</time>
      </trkpt>
      <trkpt lat="49.47766" lon="4.57954">
        <ele>83.77</ele>
        <time>2021-07-25T18:09:46Z</time>
      </trkpt>
      <trkpt lat="49.47764" lon="4.5796">
        <ele>82.81</ele>
        <time>2021-07-25T18:09:47Z</time>
      </trkpt>
      <trkpt lat="49.47762" lon="4.57967">
        <ele>82.81</ele>
        <time>2021-07-25T18:09:48Z</time>
      </trkpt>
      <trkpt lat="49.47756" lon="4.57986">
        <ele>82.33</ele>
        <time>2021-07-25T18:09:49Z</time>
      </trkpt>
      <trkpt lat="49.47756" lon="4.57986">
        <ele>82.33</ele>
        <time>2021-07-25T18:09:50Z</time>
      </trkpt>
      <trkpt lat="49.47712" lon="4.58122">
        <ele>81.37</ele>
        <time>2021-07-25T18:10:00Z</time>
      </trkpt>
      <trkpt lat="49.47634" lon="4.58357">
        <ele>82.81</ele>
        <time>2021-07-25T18:10:13Z</time>
      </trkpt>
      <trkpt lat="49.47613" lon="4.58419">
        <ele>85.21</ele>
        <time>2021-07-25T18:10:18Z</time>
      </trkpt>
      <trkpt lat="49.47609" lon="4.58436">
        <ele>86.66</ele>
        <time>2021-07-25T18:10:19Z</time>
      </trkpt>
      <trkpt lat="49.47608" lon="4.58456">
        <ele>86.18</ele>
        <time>2021-07-25T18:10:20Z</time>
      </trkpt>
      <trkpt lat="49.47607" lon="4.58473">
        <ele>86.18</ele>
        <time>2021-07-25T18:10:21Z</time>
      </trkpt>
      <trkpt lat="49.47608" lon="4.58491">
        <ele>86.66</ele>
        <time>2021-07-25T18:10:22Z</time>
      </trkpt>
      <trkpt lat="49.47609" lon="4.58553">
        <ele>87.14</ele>
        <time>2021-07-25T18:10:25Z</time>
      </trkpt>
      <trkpt lat="49.47606" lon="4.58576">
        <ele>87.62</ele>
        <time>2021-07-25T18:10:26Z</time>
      </trkpt>
      <trkpt lat="49.47602" lon="4.58599">
        <ele>88.58</ele>
        <time>2021-07-25T18:10:27Z</time>
      </trkpt>
      <trkpt lat="49.47546" lon="4.5886">
        <ele>95.79</ele>
        <time>2021-07-25T18:10:38Z</time>
      </trkpt>
      <trkpt lat="49.47472" lon="4.59125">
        <ele>96.75</ele>
        <time>2021-07-25T18:10:51Z</time>
      </trkpt>
      <trkpt lat="49.47368" lon="4.59425">
        <ele>94.35</ele>
        <time>2021-07-25T18:11:04Z</time>
      </trkpt>
      <trkpt lat="49.4725" lon="4.59729">
        <ele>97.23</ele>
        <time>2021-07-25T18:11:16Z</time>
      </trkpt>
      <trkpt lat="49.47134" lon="4.60018">
        <ele>98.67</ele>
        <time>2021-07-25T18:11:27Z</time>
      </trkpt>
      <trkpt lat="49.47123" lon="4.6004">
        <ele>99.63</ele>
        <time>2021-07-25T18:11:28Z</time>
      </trkpt>
      <trkpt lat="49.47108" lon="4.60059">
        <ele>100.6</ele>
        <time>2021-07-25T18:11:29Z</time>
      </trkpt>
      <trkpt lat="49.47095" lon="4.60078">
        <ele>101.56</ele>
        <time>2021-07-25T18:11:30Z</time>
      </trkpt>
      <trkpt lat="49.4708" lon="4.60095">
        <ele>101.56</ele>
        <time>2021-07-25T18:11:31Z</time>
      </trkpt>
      <trkpt lat="49.46991" lon="4.6019">
        <ele>101.08</ele>
        <time>2021-07-25T18:11:37Z</time>
      </trkpt>
      <trkpt lat="49.4698" lon="4.60207">
        <ele>100.6</ele>
        <time>2021-07-25T18:11:38Z</time>
      </trkpt>
      <trkpt lat="49.4697" lon="4.60223">
        <ele>99.15</ele>
        <time>2021-07-25T18:11:39Z</time>
      </trkpt>
      <trkpt lat="49.4696" lon="4.60241">
        <ele>99.15</ele>
        <time>2021-07-25T18:11:40Z</time>
      </trkpt>
      <trkpt lat="49.46952" lon="4.60264">
        <ele>100.11</ele>
        <time>2021-07-25T18:11:41Z</time>
      </trkpt>
      <trkpt lat="49.46841" lon="4.60594">
        <ele>105.4</ele>
        <time>2021-07-25T18:11:54Z</time>
      </trkpt>
      <trkpt lat="49.4672" lon="4.60901">
        <ele>103.96</ele>
        <time>2021-07-25T18:12:06Z</time>
      </trkpt>
      <trkpt lat="49.46584" lon="4.61282">
        <ele>103.48</ele>
        <time>2021-07-25T18:12:20Z</time>
      </trkpt>
      <trkpt lat="49.4655" lon="4.61529">
        <ele>103.48</ele>
        <time>2021-07-25T18:12:28Z</time>
      </trkpt>
      <trkpt lat="49.46491" lon="4.62179">
        <ele>106.84</ele>
        <time>2021-07-25T18:12:48Z</time>
      </trkpt>
      <trkpt lat="49.46436" lon="4.62681">
        <ele>104.44</ele>
        <time>2021-07-25T18:13:04Z</time>
      </trkpt>
      <trkpt lat="49.46399" lon="4.62835">
        <ele>102.52</ele>
        <time>2021-07-25T18:13:12Z</time>
      </trkpt>
      <trkpt lat="49.46348" lon="4.62991">
        <ele>97.71</ele>
        <time>2021-07-25T18:13:23Z</time>
      </trkpt>
      <trkpt lat="49.46329" lon="4.6303">
        <ele>96.27</ele>
        <time>2021-07-25T18:13:31Z</time>
      </trkpt>
    </trkseg>
  </trk>
  <trk>
    <name><![CDATA[Journal actif: 2021-07-26 09:55]]></name>
    <trkseg>
      <trkpt lat="49.46194" lon="4.63058">
        <ele>94.35</ele>
        <time>2021-07-26T11:55:16Z</time>
      </trkpt>
      <trkpt lat="49.46196" lon="4.63062">
        <ele>95.79</ele>
        <time>2021-07-26T11:56:53Z</time>
      </trkpt>
      <trkpt lat="49.46196" lon="4.63066">
        <ele>95.31</ele>
        <time>2021-07-26T11:57:33Z</time>
      </trkpt>
      <trkpt lat="49.46196" lon="4.63064">
        <ele>95.31</ele>
        <time>2021-07-26T11:57:35Z</time>
      </trkpt>
      <trkpt lat="49.46187" lon="4.63062">
        <ele>95.31</ele>
        <time>2021-07-26T11:57:46Z</time>
      </trkpt>
      <trkpt lat="49.46189" lon="4.63063">
        <ele>95.31</ele>
        <time>2021-07-26T11:57:54Z</time>
      </trkpt>
      <trkpt lat="49.4619" lon="4.63075">
        <ele>95.31</ele>
        <time>2021-07-26T11:58:00Z</time>
      </trkpt>
      <trkpt lat="49.46192" lon="4.6309">
        <ele>94.35</ele>
        <time>2021-07-26T11:58:17Z</time>
      </trkpt>
      <trkpt lat="49.46192" lon="4.63097">
        <ele>93.87</ele>
        <time>2021-07-26T11:59:00Z</time>
      </trkpt>
      <trkpt lat="49.46192" lon="4.63099">
        <ele>93.87</ele>
        <time>2021-07-26T11:59:06Z</time>
      </trkpt>
      <trkpt lat="49.46197" lon="4.63103">
        <ele>93.87</ele>
        <time>2021-07-26T11:59:10Z</time>
      </trkpt>
      <trkpt lat="49.46197" lon="4.63103">
        <ele>93.87</ele>
        <time>2021-07-26T11:59:11Z</time>
      </trkpt>
      <trkpt lat="49.462" lon="4.63102">
        <ele>94.35</ele>
        <time>2021-07-26T11:59:12Z</time>
      </trkpt>
      <trkpt lat="49.46203" lon="4.63101">
        <ele>94.35</ele>
        <time>2021-07-26T11:59:13Z</time>
      </trkpt>
      <trkpt lat="49.46261" lon="4.63087">
        <ele>95.79</ele>
        <time>2021-07-26T11:59:25Z</time>
      </trkpt>
      <trkpt lat="49.46332" lon="4.63024">
        <ele>97.71</ele>
        <time>2021-07-26T11:59:36Z</time>
      </trkpt>
      <trkpt lat="49.46384" lon="4.62894">
        <ele>100.11</ele>
        <time>2021-07-26T11:59:47Z</time>
      </trkpt>
      <trkpt lat="49.46434" lon="4.62689">
        <ele>102.04</ele>
        <time>2021-07-26T12:00:02Z</time>
      </trkpt>
      <trkpt lat="49.46462" lon="4.62514">
        <ele>103.48</ele>
        <time>2021-07-26T12:00:12Z</time>
      </trkpt>
      <trkpt lat="49.46488" lon="4.62213">
        <ele>101.08</ele>
        <time>2021-07-26T12:00:27Z</time>
      </trkpt>
      <trkpt lat="49.46525" lon="4.61806">
        <ele>98.67</ele>
        <time>2021-07-26T12:00:43Z</time>
      </trkpt>
      <trkpt lat="49.46586" lon="4.61269">
        <ele>98.19</ele>
        <time>2021-07-26T12:01:02Z</time>
      </trkpt>
      <trkpt lat="49.46641" lon="4.61099">
        <ele>101.08</ele>
        <time>2021-07-26T12:01:10Z</time>
      </trkpt>
      <trkpt lat="49.46826" lon="4.60636">
        <ele>101.08</ele>
        <time>2021-07-26T12:01:30Z</time>
      </trkpt>
      <trkpt lat="49.46955" lon="4.60257">
        <ele>96.75</ele>
        <time>2021-07-26T12:01:44Z</time>
      </trkpt>
      <trkpt lat="49.46962" lon="4.60235">
        <ele>96.27</ele>
        <time>2021-07-26T12:01:46Z</time>
      </trkpt>
      <trkpt lat="49.46973" lon="4.60218">
        <ele>96.75</ele>
        <time>2021-07-26T12:01:47Z</time>
      </trkpt>
      <trkpt lat="49.46995" lon="4.60184">
        <ele>96.75</ele>
        <time>2021-07-26T12:01:48Z</time>
      </trkpt>
      <trkpt lat="49.46995" lon="4.60184">
        <ele>96.75</ele>
        <time>2021-07-26T12:01:49Z</time>
      </trkpt>
      <trkpt lat="49.47008" lon="4.60171">
        <ele>96.75</ele>
        <time>2021-07-26T12:01:50Z</time>
      </trkpt>
      <trkpt lat="49.47021" lon="4.60157">
        <ele>96.75</ele>
        <time>2021-07-26T12:01:51Z</time>
      </trkpt>
      <trkpt lat="49.47113" lon="4.60053">
        <ele>94.35</ele>
        <time>2021-07-26T12:01:58Z</time>
      </trkpt>
      <trkpt lat="49.47124" lon="4.60038">
        <ele>94.35</ele>
        <time>2021-07-26T12:01:59Z</time>
      </trkpt>
      <trkpt lat="49.47133" lon="4.60019">
        <ele>93.87</ele>
        <time>2021-07-26T12:02:00Z</time>
      </trkpt>
      <trkpt lat="49.47143" lon="4.59999">
        <ele>93.87</ele>
        <time>2021-07-26T12:02:01Z</time>
      </trkpt>
      <trkpt lat="49.47153" lon="4.59978">
        <ele>93.87</ele>
        <time>2021-07-26T12:02:02Z</time>
      </trkpt>
      <trkpt lat="49.47255" lon="4.59716">
        <ele>92.42</ele>
        <time>2021-07-26T12:02:14Z</time>
      </trkpt>
      <trkpt lat="49.47364" lon="4.59434">
        <ele>90.5</ele>
        <time>2021-07-26T12:02:29Z</time>
      </trkpt>
      <trkpt lat="49.47425" lon="4.59268">
        <ele>88.1</ele>
        <time>2021-07-26T12:02:39Z</time>
      </trkpt>
      <trkpt lat="49.47491" lon="4.59059">
        <ele>90.98</ele>
        <time>2021-07-26T12:02:53Z</time>
      </trkpt>
      <trkpt lat="49.47563" lon="4.58793">
        <ele>82.33</ele>
        <time>2021-07-26T12:03:09Z</time>
      </trkpt>
      <trkpt lat="49.47587" lon="4.58685">
        <ele>80.41</ele>
        <time>2021-07-26T12:03:16Z</time>
      </trkpt>
      <trkpt lat="49.47592" lon="4.58654">
        <ele>80.41</ele>
        <time>2021-07-26T12:03:23Z</time>
      </trkpt>
      <trkpt lat="49.47598" lon="4.58623">
        <ele>80.41</ele>
        <time>2021-07-26T12:03:57Z</time>
      </trkpt>
      <trkpt lat="49.47608" lon="4.5852">
        <ele>78.48</ele>
        <time>2021-07-26T12:04:05Z</time>
      </trkpt>
      <trkpt lat="49.47608" lon="4.58459">
        <ele>77.04</ele>
        <time>2021-07-26T12:04:09Z</time>
      </trkpt>
      <trkpt lat="49.47608" lon="4.58445">
        <ele>77.52</ele>
        <time>2021-07-26T12:04:10Z</time>
      </trkpt>
      <trkpt lat="49.47609" lon="4.58432">
        <ele>77.52</ele>
        <time>2021-07-26T12:04:11Z</time>
      </trkpt>
      <trkpt lat="49.47612" lon="4.5842">
        <ele>77.52</ele>
        <time>2021-07-26T12:04:12Z</time>
      </trkpt>
      <trkpt lat="49.47616" lon="4.58407">
        <ele>77.52</ele>
        <time>2021-07-26T12:04:13Z</time>
      </trkpt>
      <trkpt lat="49.47685" lon="4.58208">
        <ele>77.04</ele>
        <time>2021-07-26T12:04:27Z</time>
      </trkpt>
      <trkpt lat="49.47754" lon="4.57993">
        <ele>77.52</ele>
        <time>2021-07-26T12:04:44Z</time>
      </trkpt>
      <trkpt lat="49.47766" lon="4.57955">
        <ele>76.08</ele>
        <time>2021-07-26T12:04:52Z</time>
      </trkpt>
      <trkpt lat="49.47771" lon="4.57932">
        <ele>76.56</ele>
        <time>2021-07-26T12:05:05Z</time>
      </trkpt>
      <trkpt lat="49.47772" lon="4.57925">
        <ele>76.56</ele>
        <time>2021-07-26T12:05:06Z</time>
      </trkpt>
      <trkpt lat="49.47775" lon="4.57894">
        <ele>77.04</ele>
        <time>2021-07-26T12:05:10Z</time>
      </trkpt>
      <trkpt lat="49.47776" lon="4.57884">
        <ele>77.04</ele>
        <time>2021-07-26T12:05:11Z</time>
      </trkpt>
      <trkpt lat="49.47799" lon="4.57725">
        <ele>76.56</ele>
        <time>2021-07-26T12:05:26Z</time>
      </trkpt>
      <trkpt lat="49.47802" lon="4.57714">
        <ele>76.08</ele>
        <time>2021-07-26T12:05:27Z</time>
      </trkpt>
      <trkpt lat="49.47806" lon="4.57703">
        <ele>76.08</ele>
        <time>2021-07-26T12:05:28Z</time>
      </trkpt>
      <trkpt lat="49.4781" lon="4.57691">
        <ele>76.08</ele>
        <time>2021-07-26T12:05:29Z</time>
      </trkpt>
      <trkpt lat="49.47816" lon="4.57681">
        <ele>76.08</ele>
        <time>2021-07-26T12:05:30Z</time>
      </trkpt>
      <trkpt lat="49.47841" lon="4.57639">
        <ele>76.56</ele>
        <time>2021-07-26T12:05:34Z</time>
      </trkpt>
      <trkpt lat="49.47846" lon="4.57629">
        <ele>76.08</ele>
        <time>2021-07-26T12:05:35Z</time>
      </trkpt>
      <trkpt lat="49.47851" lon="4.57617">
        <ele>76.08</ele>
        <time>2021-07-26T12:05:36Z</time>
      </trkpt>
      <trkpt lat="49.47929" lon="4.5735">
        <ele>76.56</ele>
        <time>2021-07-26T12:05:55Z</time>
      </trkpt>
      <trkpt lat="49.47987" lon="4.57148">
        <ele>79.93</ele>
        <time>2021-07-26T12:06:08Z</time>
      </trkpt>
      <trkpt lat="49.48005" lon="4.5698">
        <ele>84.25</ele>
        <time>2021-07-26T12:06:17Z</time>
      </trkpt>
      <trkpt lat="49.47996" lon="4.56673">
        <ele>82.81</ele>
        <time>2021-07-26T12:06:32Z</time>
      </trkpt>
      <trkpt lat="49.47981" lon="4.56448">
        <ele>79.93</ele>
        <time>2021-07-26T12:06:43Z</time>
      </trkpt>
      <trkpt lat="49.47952" lon="4.56002">
        <ele>76.08</ele>
        <time>2021-07-26T12:06:59Z</time>
      </trkpt>
      <trkpt lat="49.47971" lon="4.55832">
        <ele>78.48</ele>
        <time>2021-07-26T12:07:05Z</time>
      </trkpt>
      <trkpt lat="49.48058" lon="4.5564">
        <ele>82.33</ele>
        <time>2021-07-26T12:07:13Z</time>
      </trkpt>
      <trkpt lat="49.48251" lon="4.55252">
        <ele>90.98</ele>
        <time>2021-07-26T12:07:30Z</time>
      </trkpt>
      <trkpt lat="49.48333" lon="4.55078">
        <ele>89.06</ele>
        <time>2021-07-26T12:07:38Z</time>
      </trkpt>
      <trkpt lat="49.48454" lon="4.5468">
        <ele>85.69</ele>
        <time>2021-07-26T12:07:53Z</time>
      </trkpt>
      <trkpt lat="49.48531" lon="4.54393">
        <ele>84.73</ele>
        <time>2021-07-26T12:08:04Z</time>
      </trkpt>
      <trkpt lat="49.48658" lon="4.54202">
        <ele>84.25</ele>
        <time>2021-07-26T12:08:13Z</time>
      </trkpt>
      <trkpt lat="49.48806" lon="4.5404">
        <ele>83.29</ele>
        <time>2021-07-26T12:08:25Z</time>
      </trkpt>
      <trkpt lat="49.48944" lon="4.53881">
        <ele>80.41</ele>
        <time>2021-07-26T12:08:37Z</time>
      </trkpt>
      <trkpt lat="49.48954" lon="4.53866">
        <ele>80.41</ele>
        <time>2021-07-26T12:08:38Z</time>
      </trkpt>
      <trkpt lat="49.48958" lon="4.53851">
        <ele>80.41</ele>
        <time>2021-07-26T12:08:39Z</time>
      </trkpt>
      <trkpt lat="49.48964" lon="4.53834">
        <ele>79.93</ele>
        <time>2021-07-26T12:08:40Z</time>
      </trkpt>
      <trkpt lat="49.48969" lon="4.53817">
        <ele>79.45</ele>
        <time>2021-07-26T12:08:41Z</time>
      </trkpt>
      <trkpt lat="49.48973" lon="4.538">
        <ele>78.97</ele>
        <time>2021-07-26T12:08:42Z</time>
      </trkpt>
      <trkpt lat="49.48978" lon="4.53616">
        <ele>79.93</ele>
        <time>2021-07-26T12:08:53Z</time>
      </trkpt>
      <trkpt lat="49.48976" lon="4.53568">
        <ele>79.45</ele>
        <time>2021-07-26T12:08:56Z</time>
      </trkpt>
      <trkpt lat="49.48977" lon="4.53551">
        <ele>79.45</ele>
        <time>2021-07-26T12:08:57Z</time>
      </trkpt>
      <trkpt lat="49.4898" lon="4.53535">
        <ele>78.97</ele>
        <time>2021-07-26T12:08:58Z</time>
      </trkpt>
      <trkpt lat="49.48982" lon="4.53518">
        <ele>79.45</ele>
        <time>2021-07-26T12:08:59Z</time>
      </trkpt>
      <trkpt lat="49.48986" lon="4.53501">
        <ele>79.93</ele>
        <time>2021-07-26T12:09:00Z</time>
      </trkpt>
      <trkpt lat="49.49015" lon="4.53408">
        <ele>80.41</ele>
        <time>2021-07-26T12:09:06Z</time>
      </trkpt>
      <trkpt lat="49.49019" lon="4.53394">
        <ele>79.45</ele>
        <time>2021-07-26T12:09:07Z</time>
      </trkpt>
      <trkpt lat="49.49021" lon="4.53378">
        <ele>79.45</ele>
        <time>2021-07-26T12:09:08Z</time>
      </trkpt>
      <trkpt lat="49.49025" lon="4.5333">
        <ele>79.45</ele>
        <time>2021-07-26T12:09:11Z</time>
      </trkpt>
      <trkpt lat="49.49027" lon="4.53314">
        <ele>79.45</ele>
        <time>2021-07-26T12:09:12Z</time>
      </trkpt>
      <trkpt lat="49.49031" lon="4.53297">
        <ele>78.97</ele>
        <time>2021-07-26T12:09:13Z</time>
      </trkpt>
      <trkpt lat="49.49036" lon="4.53281">
        <ele>78.97</ele>
        <time>2021-07-26T12:09:14Z</time>
      </trkpt>
      <trkpt lat="49.49041" lon="4.53264">
        <ele>78.97</ele>
        <time>2021-07-26T12:09:15Z</time>
      </trkpt>
      <trkpt lat="49.49114" lon="4.53051">
        <ele>78.48</ele>
        <time>2021-07-26T12:09:26Z</time>
      </trkpt>
      <trkpt lat="49.49117" lon="4.5303">
        <ele>78</ele>
        <time>2021-07-26T12:09:27Z</time>
      </trkpt>
      <trkpt lat="49.49117" lon="4.5303">
        <ele>78.48</ele>
        <time>2021-07-26T12:09:28Z</time>
      </trkpt>
      <trkpt lat="49.4912" lon="4.5301">
        <ele>78.48</ele>
        <time>2021-07-26T12:09:29Z</time>
      </trkpt>
      <trkpt lat="49.49119" lon="4.52988">
        <ele>78.97</ele>
        <time>2021-07-26T12:09:30Z</time>
      </trkpt>
      <trkpt lat="49.49119" lon="4.52966">
        <ele>78.97</ele>
        <time>2021-07-26T12:09:31Z</time>
      </trkpt>
      <trkpt lat="49.49114" lon="4.52862">
        <ele>76.56</ele>
        <time>2021-07-26T12:09:37Z</time>
      </trkpt>
      <trkpt lat="49.49105" lon="4.527">
        <ele>75.12</ele>
        <time>2021-07-26T12:09:47Z</time>
      </trkpt>
      <trkpt lat="49.49086" lon="4.52397">
        <ele>75.6</ele>
        <time>2021-07-26T12:09:59Z</time>
      </trkpt>
      <trkpt lat="49.49057" lon="4.5192">
        <ele>82.33</ele>
        <time>2021-07-26T12:10:15Z</time>
      </trkpt>
      <trkpt lat="49.49045" lon="4.51718">
        <ele>86.66</ele>
        <time>2021-07-26T12:10:23Z</time>
      </trkpt>
      <trkpt lat="49.49017" lon="4.51426">
        <ele>86.66</ele>
        <time>2021-07-26T12:10:34Z</time>
      </trkpt>
      <trkpt lat="49.48939" lon="4.50868">
        <ele>81.85</ele>
        <time>2021-07-26T12:10:53Z</time>
      </trkpt>
      <trkpt lat="49.48888" lon="4.50401">
        <ele>76.56</ele>
        <time>2021-07-26T12:11:08Z</time>
      </trkpt>
      <trkpt lat="49.48881" lon="4.50011">
        <ele>75.6</ele>
        <time>2021-07-26T12:11:21Z</time>
      </trkpt>
      <trkpt lat="49.48867" lon="4.49786">
        <ele>74.64</ele>
        <time>2021-07-26T12:11:30Z</time>
      </trkpt>
      <trkpt lat="49.48863" lon="4.49766">
        <ele>74.64</ele>
        <time>2021-07-26T12:11:31Z</time>
      </trkpt>
      <trkpt lat="49.48857" lon="4.49745">
        <ele>75.6</ele>
        <time>2021-07-26T12:11:32Z</time>
      </trkpt>
      <trkpt lat="49.48824" lon="4.49655">
        <ele>76.08</ele>
        <time>2021-07-26T12:11:37Z</time>
      </trkpt>
      <trkpt lat="49.48819" lon="4.49635">
        <ele>75.6</ele>
        <time>2021-07-26T12:11:38Z</time>
      </trkpt>
      <trkpt lat="49.48783" lon="4.49518">
        <ele>75.6</ele>
        <time>2021-07-26T12:11:44Z</time>
      </trkpt>
      <trkpt lat="49.48773" lon="4.49501">
        <ele>75.12</ele>
        <time>2021-07-26T12:11:45Z</time>
      </trkpt>
      <trkpt lat="49.48763" lon="4.49483">
        <ele>75.12</ele>
        <time>2021-07-26T12:11:46Z</time>
      </trkpt>
      <trkpt lat="49.48617" lon="4.49278">
        <ele>79.93</ele>
        <time>2021-07-26T12:11:58Z</time>
      </trkpt>
      <trkpt lat="49.48491" lon="4.48954">
        <ele>76.08</ele>
        <time>2021-07-26T12:12:12Z</time>
      </trkpt>
      <trkpt lat="49.48475" lon="4.48772">
        <ele>74.16</ele>
        <time>2021-07-26T12:12:20Z</time>
      </trkpt>
      <trkpt lat="49.48417" lon="4.4855">
        <ele>75.12</ele>
        <time>2021-07-26T12:12:28Z</time>
      </trkpt>
      <trkpt lat="49.48292" lon="4.48204">
        <ele>75.12</ele>
        <time>2021-07-26T12:12:45Z</time>
      </trkpt>
      <trkpt lat="49.48158" lon="4.47848">
        <ele>75.12</ele>
        <time>2021-07-26T12:13:02Z</time>
      </trkpt>
      <trkpt lat="49.4807" lon="4.47584">
        <ele>73.68</ele>
        <time>2021-07-26T12:13:13Z</time>
      </trkpt>
      <trkpt lat="49.48066" lon="4.47434">
        <ele>73.68</ele>
        <time>2021-07-26T12:13:20Z</time>
      </trkpt>
      <trkpt lat="49.48102" lon="4.47048">
        <ele>72.72</ele>
        <time>2021-07-26T12:13:35Z</time>
      </trkpt>
      <trkpt lat="49.48106" lon="4.46781">
        <ele>73.2</ele>
        <time>2021-07-26T12:13:45Z</time>
      </trkpt>
      <trkpt lat="49.48045" lon="4.46383">
        <ele>74.16</ele>
        <time>2021-07-26T12:14:00Z</time>
      </trkpt>
      <trkpt lat="49.47974" lon="4.46055">
        <ele>73.68</ele>
        <time>2021-07-26T12:14:13Z</time>
      </trkpt>
      <trkpt lat="49.47981" lon="4.45887">
        <ele>74.64</ele>
        <time>2021-07-26T12:14:20Z</time>
      </trkpt>
      <trkpt lat="49.48032" lon="4.45728">
        <ele>74.64</ele>
        <time>2021-07-26T12:14:29Z</time>
      </trkpt>
      <trkpt lat="49.48055" lon="4.45668">
        <ele>75.12</ele>
        <time>2021-07-26T12:14:34Z</time>
      </trkpt>
      <trkpt lat="49.4811" lon="4.45515">
        <ele>75.12</ele>
        <time>2021-07-26T12:14:48Z</time>
      </trkpt>
      <trkpt lat="49.48114" lon="4.455">
        <ele>75.12</ele>
        <time>2021-07-26T12:14:50Z</time>
      </trkpt>
      <trkpt lat="49.48115" lon="4.45493">
        <ele>75.12</ele>
        <time>2021-07-26T12:14:51Z</time>
      </trkpt>
      <trkpt lat="49.48117" lon="4.45487">
        <ele>75.12</ele>
        <time>2021-07-26T12:14:52Z</time>
      </trkpt>
      <trkpt lat="49.48127" lon="4.45479">
        <ele>75.12</ele>
        <time>2021-07-26T12:14:54Z</time>
      </trkpt>
      <trkpt lat="49.4813" lon="4.45473">
        <ele>75.6</ele>
        <time>2021-07-26T12:14:55Z</time>
      </trkpt>
      <trkpt lat="49.48132" lon="4.45452">
        <ele>76.08</ele>
        <time>2021-07-26T12:14:57Z</time>
      </trkpt>
      <trkpt lat="49.48136" lon="4.45445">
        <ele>76.08</ele>
        <time>2021-07-26T12:14:58Z</time>
      </trkpt>
      <trkpt lat="49.48186" lon="4.45333">
        <ele>78</ele>
        <time>2021-07-26T12:15:08Z</time>
      </trkpt>
      <trkpt lat="49.48263" lon="4.45168">
        <ele>78.97</ele>
        <time>2021-07-26T12:15:19Z</time>
      </trkpt>
      <trkpt lat="49.48281" lon="4.44998">
        <ele>77.04</ele>
        <time>2021-07-26T12:15:27Z</time>
      </trkpt>
      <trkpt lat="49.48297" lon="4.44706">
        <ele>75.6</ele>
        <time>2021-07-26T12:15:38Z</time>
      </trkpt>
      <trkpt lat="49.48407" lon="4.44133">
        <ele>77.52</ele>
        <time>2021-07-26T12:15:59Z</time>
      </trkpt>
      <trkpt lat="49.48427" lon="4.4395">
        <ele>77.52</ele>
        <time>2021-07-26T12:16:05Z</time>
      </trkpt>
      <trkpt lat="49.48427" lon="4.4395">
        <ele>77.52</ele>
        <time>2021-07-26T12:16:06Z</time>
      </trkpt>
      <trkpt lat="49.48427" lon="4.43923">
        <ele>78</ele>
        <time>2021-07-26T12:16:07Z</time>
      </trkpt>
      <trkpt lat="49.48422" lon="4.43896">
        <ele>78.48</ele>
        <time>2021-07-26T12:16:08Z</time>
      </trkpt>
      <trkpt lat="49.48417" lon="4.43869">
        <ele>79.45</ele>
        <time>2021-07-26T12:16:09Z</time>
      </trkpt>
      <trkpt lat="49.48409" lon="4.43844">
        <ele>79.93</ele>
        <time>2021-07-26T12:16:10Z</time>
      </trkpt>
      <trkpt lat="49.48399" lon="4.43822">
        <ele>79.45</ele>
        <time>2021-07-26T12:16:11Z</time>
      </trkpt>
      <trkpt lat="49.48389" lon="4.438">
        <ele>79.93</ele>
        <time>2021-07-26T12:16:12Z</time>
      </trkpt>
      <trkpt lat="49.4838" lon="4.43779">
        <ele>79.93</ele>
        <time>2021-07-26T12:16:13Z</time>
      </trkpt>
      <trkpt lat="49.48318" lon="4.43624">
        <ele>78.97</ele>
        <time>2021-07-26T12:16:21Z</time>
      </trkpt>
      <trkpt lat="49.48307" lon="4.43452">
        <ele>78.97</ele>
        <time>2021-07-26T12:16:30Z</time>
      </trkpt>
      <trkpt lat="49.48307" lon="4.43452">
        <ele>78.48</ele>
        <time>2021-07-26T12:16:31Z</time>
      </trkpt>
      <trkpt lat="49.48309" lon="4.43434">
        <ele>78</ele>
        <time>2021-07-26T12:16:32Z</time>
      </trkpt>
      <trkpt lat="49.48313" lon="4.43415">
        <ele>78</ele>
        <time>2021-07-26T12:16:33Z</time>
      </trkpt>
      <trkpt lat="49.48316" lon="4.43397">
        <ele>78</ele>
        <time>2021-07-26T12:16:34Z</time>
      </trkpt>
      <trkpt lat="49.4832" lon="4.43379">
        <ele>78.48</ele>
        <time>2021-07-26T12:16:35Z</time>
      </trkpt>
      <trkpt lat="49.48372" lon="4.43193">
        <ele>80.41</ele>
        <time>2021-07-26T12:16:45Z</time>
      </trkpt>
      <trkpt lat="49.48397" lon="4.43041">
        <ele>79.93</ele>
        <time>2021-07-26T12:16:52Z</time>
      </trkpt>
      <trkpt lat="49.48399" lon="4.43019">
        <ele>80.89</ele>
        <time>2021-07-26T12:16:53Z</time>
      </trkpt>
      <trkpt lat="49.48398" lon="4.42997">
        <ele>81.85</ele>
        <time>2021-07-26T12:16:54Z</time>
      </trkpt>
      <trkpt lat="49.48397" lon="4.42975">
        <ele>82.33</ele>
        <time>2021-07-26T12:16:55Z</time>
      </trkpt>
      <trkpt lat="49.48395" lon="4.42955">
        <ele>82.33</ele>
        <time>2021-07-26T12:16:56Z</time>
      </trkpt>
      <trkpt lat="49.48392" lon="4.42935">
        <ele>82.81</ele>
        <time>2021-07-26T12:16:57Z</time>
      </trkpt>
      <trkpt lat="49.48378" lon="4.42786">
        <ele>82.81</ele>
        <time>2021-07-26T12:17:06Z</time>
      </trkpt>
      <trkpt lat="49.48399" lon="4.42532">
        <ele>78.97</ele>
        <time>2021-07-26T12:17:20Z</time>
      </trkpt>
      <trkpt lat="49.48397" lon="4.42517">
        <ele>78.48</ele>
        <time>2021-07-26T12:17:21Z</time>
      </trkpt>
      <trkpt lat="49.48396" lon="4.425">
        <ele>78.48</ele>
        <time>2021-07-26T12:17:22Z</time>
      </trkpt>
      <trkpt lat="49.4839" lon="4.42453">
        <ele>78.97</ele>
        <time>2021-07-26T12:17:25Z</time>
      </trkpt>
      <trkpt lat="49.48389" lon="4.42437">
        <ele>78.97</ele>
        <time>2021-07-26T12:17:26Z</time>
      </trkpt>
      <trkpt lat="49.48389" lon="4.42421">
        <ele>79.45</ele>
        <time>2021-07-26T12:17:27Z</time>
      </trkpt>
      <trkpt lat="49.48392" lon="4.42325">
        <ele>81.37</ele>
        <time>2021-07-26T12:17:33Z</time>
      </trkpt>
      <trkpt lat="49.48391" lon="4.42308">
        <ele>81.37</ele>
        <time>2021-07-26T12:17:34Z</time>
      </trkpt>
      <trkpt lat="49.48388" lon="4.42291">
        <ele>81.85</ele>
        <time>2021-07-26T12:17:35Z</time>
      </trkpt>
      <trkpt lat="49.48368" lon="4.42204">
        <ele>85.69</ele>
        <time>2021-07-26T12:17:40Z</time>
      </trkpt>
      <trkpt lat="49.48364" lon="4.42188">
        <ele>86.18</ele>
        <time>2021-07-26T12:17:41Z</time>
      </trkpt>
      <trkpt lat="49.48363" lon="4.42172">
        <ele>87.14</ele>
        <time>2021-07-26T12:17:42Z</time>
      </trkpt>
      <trkpt lat="49.48365" lon="4.42156">
        <ele>87.62</ele>
        <time>2021-07-26T12:17:43Z</time>
      </trkpt>
      <trkpt lat="49.48369" lon="4.42121">
        <ele>87.62</ele>
        <time>2021-07-26T12:17:44Z</time>
      </trkpt>
      <trkpt lat="49.48392" lon="4.41974">
        <ele>92.42</ele>
        <time>2021-07-26T12:17:52Z</time>
      </trkpt>
      <trkpt lat="49.48434" lon="4.41689">
        <ele>93.87</ele>
        <time>2021-07-26T12:18:03Z</time>
      </trkpt>
      <trkpt lat="49.48444" lon="4.41312">
        <ele>81.85</ele>
        <time>2021-07-26T12:18:17Z</time>
      </trkpt>
      <trkpt lat="49.48458" lon="4.40968">
        <ele>79.45</ele>
        <time>2021-07-26T12:18:29Z</time>
      </trkpt>
      <trkpt lat="49.48471" lon="4.40378">
        <ele>79.93</ele>
        <time>2021-07-26T12:18:49Z</time>
      </trkpt>
      <trkpt lat="49.48464" lon="4.39966">
        <ele>78.48</ele>
        <time>2021-07-26T12:19:03Z</time>
      </trkpt>
      <trkpt lat="49.48434" lon="4.39417">
        <ele>80.41</ele>
        <time>2021-07-26T12:19:22Z</time>
      </trkpt>
      <trkpt lat="49.48426" lon="4.39335">
        <ele>82.33</ele>
        <time>2021-07-26T12:19:25Z</time>
      </trkpt>
      <trkpt lat="49.48421" lon="4.39309">
        <ele>82.81</ele>
        <time>2021-07-26T12:19:26Z</time>
      </trkpt>
      <trkpt lat="49.48317" lon="4.38975">
        <ele>78.97</ele>
        <time>2021-07-26T12:19:40Z</time>
      </trkpt>
      <trkpt lat="49.48284" lon="4.38858">
        <ele>73.68</ele>
        <time>2021-07-26T12:19:47Z</time>
      </trkpt>
      <trkpt lat="49.48279" lon="4.38836">
        <ele>73.68</ele>
        <time>2021-07-26T12:19:49Z</time>
      </trkpt>
      <trkpt lat="49.48277" lon="4.38828">
        <ele>73.68</ele>
        <time>2021-07-26T12:19:50Z</time>
      </trkpt>
      <trkpt lat="49.48276" lon="4.38823">
        <ele>73.68</ele>
        <time>2021-07-26T12:19:51Z</time>
      </trkpt>
      <trkpt lat="49.48275" lon="4.38818">
        <ele>74.16</ele>
        <time>2021-07-26T12:20:01Z</time>
      </trkpt>
      <trkpt lat="49.48275" lon="4.38818">
        <ele>74.16</ele>
        <time>2021-07-26T12:20:05Z</time>
      </trkpt>
      <trkpt lat="49.48281" lon="4.38804">
        <ele>74.16</ele>
        <time>2021-07-26T12:20:06Z</time>
      </trkpt>
      <trkpt lat="49.48284" lon="4.38802">
        <ele>74.16</ele>
        <time>2021-07-26T12:20:07Z</time>
      </trkpt>
      <trkpt lat="49.48288" lon="4.388">
        <ele>73.68</ele>
        <time>2021-07-26T12:20:08Z</time>
      </trkpt>
      <trkpt lat="49.48293" lon="4.38798">
        <ele>73.68</ele>
        <time>2021-07-26T12:20:09Z</time>
      </trkpt>
      <trkpt lat="49.48336" lon="4.38775">
        <ele>72.24</ele>
        <time>2021-07-26T12:20:15Z</time>
      </trkpt>
      <trkpt lat="49.48345" lon="4.38768">
        <ele>72.72</ele>
        <time>2021-07-26T12:20:16Z</time>
      </trkpt>
      <trkpt lat="49.48353" lon="4.38759">
        <ele>73.2</ele>
        <time>2021-07-26T12:20:17Z</time>
      </trkpt>
      <trkpt lat="49.48361" lon="4.38747">
        <ele>72.72</ele>
        <time>2021-07-26T12:20:18Z</time>
      </trkpt>
      <trkpt lat="49.48369" lon="4.38734">
        <ele>72.24</ele>
        <time>2021-07-26T12:20:19Z</time>
      </trkpt>
      <trkpt lat="49.48376" lon="4.38721">
        <ele>71.76</ele>
        <time>2021-07-26T12:20:20Z</time>
      </trkpt>
      <trkpt lat="49.48381" lon="4.38703">
        <ele>72.24</ele>
        <time>2021-07-26T12:20:21Z</time>
      </trkpt>
      <trkpt lat="49.48391" lon="4.38666">
        <ele>72.24</ele>
        <time>2021-07-26T12:20:22Z</time>
      </trkpt>
      <trkpt lat="49.48441" lon="4.38446">
        <ele>78</ele>
        <time>2021-07-26T12:20:34Z</time>
      </trkpt>
      <trkpt lat="49.48493" lon="4.38207">
        <ele>88.1</ele>
        <time>2021-07-26T12:20:46Z</time>
      </trkpt>
      <trkpt lat="49.48599" lon="4.37724">
        <ele>102.52</ele>
        <time>2021-07-26T12:21:06Z</time>
      </trkpt>
      <trkpt lat="49.48681" lon="4.37462">
        <ele>105.88</ele>
        <time>2021-07-26T12:21:17Z</time>
      </trkpt>
      <trkpt lat="49.48787" lon="4.37342">
        <ele>99.15</ele>
        <time>2021-07-26T12:21:24Z</time>
      </trkpt>
      <trkpt lat="49.49046" lon="4.37109">
        <ele>92.9</ele>
        <time>2021-07-26T12:21:40Z</time>
      </trkpt>
      <trkpt lat="49.4919" lon="4.3698">
        <ele>89.54</ele>
        <time>2021-07-26T12:21:54Z</time>
      </trkpt>
      <trkpt lat="49.49398" lon="4.36793">
        <ele>82.81</ele>
        <time>2021-07-26T12:22:15Z</time>
      </trkpt>
      <trkpt lat="49.49592" lon="4.3662">
        <ele>78</ele>
        <time>2021-07-26T12:22:35Z</time>
      </trkpt>
      <trkpt lat="49.4978" lon="4.36454">
        <ele>72.24</ele>
        <time>2021-07-26T12:22:54Z</time>
      </trkpt>
      <trkpt lat="49.49976" lon="4.36257">
        <ele>69.35</ele>
        <time>2021-07-26T12:23:13Z</time>
      </trkpt>
      <trkpt lat="49.49983" lon="4.36246">
        <ele>68.87</ele>
        <time>2021-07-26T12:23:14Z</time>
      </trkpt>
      <trkpt lat="49.50069" lon="4.36136">
        <ele>67.91</ele>
        <time>2021-07-26T12:23:26Z</time>
      </trkpt>
      <trkpt lat="49.50159" lon="4.36013">
        <ele>70.31</ele>
        <time>2021-07-26T12:23:39Z</time>
      </trkpt>
      <trkpt lat="49.50194" lon="4.35968">
        <ele>71.27</ele>
        <time>2021-07-26T12:23:50Z</time>
      </trkpt>
      <trkpt lat="49.50198" lon="4.35968">
        <ele>71.27</ele>
        <time>2021-07-26T12:23:51Z</time>
      </trkpt>
      <trkpt lat="49.50202" lon="4.35963">
        <ele>71.27</ele>
        <time>2021-07-26T12:23:52Z</time>
      </trkpt>
      <trkpt lat="49.50204" lon="4.3596">
        <ele>71.27</ele>
        <time>2021-07-26T12:23:53Z</time>
      </trkpt>
      <trkpt lat="49.50201" lon="4.35953">
        <ele>71.27</ele>
        <time>2021-07-26T12:23:54Z</time>
      </trkpt>
      <trkpt lat="49.502" lon="4.35946">
        <ele>70.79</ele>
        <time>2021-07-26T12:23:55Z</time>
      </trkpt>
      <trkpt lat="49.50199" lon="4.35945">
        <ele>70.79</ele>
        <time>2021-07-26T12:23:56Z</time>
      </trkpt>
      <trkpt lat="49.50194" lon="4.35946">
        <ele>70.31</ele>
        <time>2021-07-26T12:23:57Z</time>
      </trkpt>
      <trkpt lat="49.50185" lon="4.35943">
        <ele>70.31</ele>
        <time>2021-07-26T12:23:58Z</time>
      </trkpt>
      <trkpt lat="49.50176" lon="4.35933">
        <ele>70.31</ele>
        <time>2021-07-26T12:23:59Z</time>
      </trkpt>
      <trkpt lat="49.50176" lon="4.35933">
        <ele>70.79</ele>
        <time>2021-07-26T12:24:00Z</time>
      </trkpt>
      <trkpt lat="49.50091" lon="4.35851">
        <ele>70.79</ele>
        <time>2021-07-26T12:24:12Z</time>
      </trkpt>
      <trkpt lat="49.49964" lon="4.3574">
        <ele>71.27</ele>
        <time>2021-07-26T12:24:26Z</time>
      </trkpt>
      <trkpt lat="49.49821" lon="4.35613">
        <ele>72.24</ele>
        <time>2021-07-26T12:24:39Z</time>
      </trkpt>
      <trkpt lat="49.49763" lon="4.35553">
        <ele>73.2</ele>
        <time>2021-07-26T12:24:46Z</time>
      </trkpt>
      <trkpt lat="49.49763" lon="4.35553">
        <ele>73.2</ele>
        <time>2021-07-26T12:24:47Z</time>
      </trkpt>
      <trkpt lat="49.4976" lon="4.35547">
        <ele>73.2</ele>
        <time>2021-07-26T12:24:48Z</time>
      </trkpt>
      <trkpt lat="49.49756" lon="4.35539">
        <ele>72.72</ele>
        <time>2021-07-26T12:24:49Z</time>
      </trkpt>
      <trkpt lat="49.49753" lon="4.35532">
        <ele>72.72</ele>
        <time>2021-07-26T12:24:50Z</time>
      </trkpt>
      <trkpt lat="49.49752" lon="4.35522">
        <ele>72.24</ele>
        <time>2021-07-26T12:24:51Z</time>
      </trkpt>
      <trkpt lat="49.49752" lon="4.35512">
        <ele>71.76</ele>
        <time>2021-07-26T12:24:52Z</time>
      </trkpt>
      <trkpt lat="49.49751" lon="4.35502">
        <ele>71.76</ele>
        <time>2021-07-26T12:24:53Z</time>
      </trkpt>
      <trkpt lat="49.49751" lon="4.35493">
        <ele>71.76</ele>
        <time>2021-07-26T12:24:54Z</time>
      </trkpt>
      <trkpt lat="49.49753" lon="4.35485">
        <ele>71.76</ele>
        <time>2021-07-26T12:24:55Z</time>
      </trkpt>
      <trkpt lat="49.49754" lon="4.35477">
        <ele>72.24</ele>
        <time>2021-07-26T12:24:56Z</time>
      </trkpt>
      <trkpt lat="49.49756" lon="4.35469">
        <ele>72.24</ele>
        <time>2021-07-26T12:24:57Z</time>
      </trkpt>
      <trkpt lat="49.49759" lon="4.3546">
        <ele>71.76</ele>
        <time>2021-07-26T12:24:58Z</time>
      </trkpt>
      <trkpt lat="49.49765" lon="4.35455">
        <ele>71.76</ele>
        <time>2021-07-26T12:24:59Z</time>
      </trkpt>
      <trkpt lat="49.49772" lon="4.35449">
        <ele>71.27</ele>
        <time>2021-07-26T12:25:00Z</time>
      </trkpt>
      <trkpt lat="49.49779" lon="4.35441">
        <ele>71.27</ele>
        <time>2021-07-26T12:25:01Z</time>
      </trkpt>
      <trkpt lat="49.49785" lon="4.35419">
        <ele>71.27</ele>
        <time>2021-07-26T12:25:02Z</time>
      </trkpt>
      <trkpt lat="49.49785" lon="4.35419">
        <ele>71.27</ele>
        <time>2021-07-26T12:25:03Z</time>
      </trkpt>
      <trkpt lat="49.49787" lon="4.35407">
        <ele>70.79</ele>
        <time>2021-07-26T12:25:04Z</time>
      </trkpt>
      <trkpt lat="49.49787" lon="4.35395">
        <ele>70.79</ele>
        <time>2021-07-26T12:25:05Z</time>
      </trkpt>
      <trkpt lat="49.49786" lon="4.35384">
        <ele>70.79</ele>
        <time>2021-07-26T12:25:06Z</time>
      </trkpt>
      <trkpt lat="49.49778" lon="4.35359">
        <ele>70.31</ele>
        <time>2021-07-26T12:25:07Z</time>
      </trkpt>
      <trkpt lat="49.49778" lon="4.35359">
        <ele>70.31</ele>
        <time>2021-07-26T12:25:08Z</time>
      </trkpt>
      <trkpt lat="49.49771" lon="4.35352">
        <ele>69.83</ele>
        <time>2021-07-26T12:25:09Z</time>
      </trkpt>
      <trkpt lat="49.49762" lon="4.35346">
        <ele>69.83</ele>
        <time>2021-07-26T12:25:10Z</time>
      </trkpt>
      <trkpt lat="49.49753" lon="4.35344">
        <ele>70.31</ele>
        <time>2021-07-26T12:25:11Z</time>
      </trkpt>
      <trkpt lat="49.49744" lon="4.35343">
        <ele>70.79</ele>
        <time>2021-07-26T12:25:12Z</time>
      </trkpt>
      <trkpt lat="49.49734" lon="4.35343">
        <ele>71.76</ele>
        <time>2021-07-26T12:25:13Z</time>
      </trkpt>
      <trkpt lat="49.49725" lon="4.35349">
        <ele>71.27</ele>
        <time>2021-07-26T12:25:14Z</time>
      </trkpt>
      <trkpt lat="49.49717" lon="4.35355">
        <ele>71.76</ele>
        <time>2021-07-26T12:25:15Z</time>
      </trkpt>
      <trkpt lat="49.49709" lon="4.35359">
        <ele>72.24</ele>
        <time>2021-07-26T12:25:16Z</time>
      </trkpt>
      <trkpt lat="49.4969" lon="4.35359">
        <ele>72.24</ele>
        <time>2021-07-26T12:25:17Z</time>
      </trkpt>
      <trkpt lat="49.49588" lon="4.3533">
        <ele>72.72</ele>
        <time>2021-07-26T12:25:26Z</time>
      </trkpt>
      <trkpt lat="49.49443" lon="4.3525">
        <ele>80.41</ele>
        <time>2021-07-26T12:25:36Z</time>
      </trkpt>
      <trkpt lat="49.4924" lon="4.3509">
        <ele>90.5</ele>
        <time>2021-07-26T12:25:48Z</time>
      </trkpt>
      <trkpt lat="49.48955" lon="4.34821">
        <ele>104.44</ele>
        <time>2021-07-26T12:26:05Z</time>
      </trkpt>
      <trkpt lat="49.4873" lon="4.34513">
        <ele>110.69</ele>
        <time>2021-07-26T12:26:19Z</time>
      </trkpt>
      <trkpt lat="49.48437" lon="4.34102">
        <ele>121.74</ele>
        <time>2021-07-26T12:26:36Z</time>
      </trkpt>
      <trkpt lat="49.48138" lon="4.33683">
        <ele>135.68</ele>
        <time>2021-07-26T12:26:53Z</time>
      </trkpt>
      <trkpt lat="49.4775" lon="4.33139">
        <ele>142.89</ele>
        <time>2021-07-26T12:27:14Z</time>
      </trkpt>
      <trkpt lat="49.47454" lon="4.3272">
        <ele>140.01</ele>
        <time>2021-07-26T12:27:29Z</time>
      </trkpt>
      <trkpt lat="49.47201" lon="4.32325">
        <ele>141.45</ele>
        <time>2021-07-26T12:27:44Z</time>
      </trkpt>
      <trkpt lat="49.46891" lon="4.31872">
        <ele>140.49</ele>
        <time>2021-07-26T12:28:02Z</time>
      </trkpt>
      <trkpt lat="49.46539" lon="4.31378">
        <ele>130.88</ele>
        <time>2021-07-26T12:28:21Z</time>
      </trkpt>
      <trkpt lat="49.46243" lon="4.30983">
        <ele>135.68</ele>
        <time>2021-07-26T12:28:37Z</time>
      </trkpt>
      <trkpt lat="49.45764" lon="4.30478">
        <ele>124.15</ele>
        <time>2021-07-26T12:29:00Z</time>
      </trkpt>
      <trkpt lat="49.4533" lon="4.30001">
        <ele>119.82</ele>
        <time>2021-07-26T12:29:21Z</time>
      </trkpt>
      <trkpt lat="49.45099" lon="4.2977">
        <ele>115.98</ele>
        <time>2021-07-26T12:29:32Z</time>
      </trkpt>
      <trkpt lat="49.44868" lon="4.29521">
        <ele>110.69</ele>
        <time>2021-07-26T12:29:43Z</time>
      </trkpt>
      <trkpt lat="49.44723" lon="4.29248">
        <ele>109.25</ele>
        <time>2021-07-26T12:29:51Z</time>
      </trkpt>
      <trkpt lat="49.44646" lon="4.2901">
        <ele>111.65</ele>
        <time>2021-07-26T12:29:59Z</time>
      </trkpt>
      <trkpt lat="49.44517" lon="4.28552">
        <ele>115.01</ele>
        <time>2021-07-26T12:30:13Z</time>
      </trkpt>
      <trkpt lat="49.44404" lon="4.28313">
        <ele>113.57</ele>
        <time>2021-07-26T12:30:21Z</time>
      </trkpt>
      <trkpt lat="49.44241" lon="4.28123">
        <ele>110.69</ele>
        <time>2021-07-26T12:30:29Z</time>
      </trkpt>
      <trkpt lat="49.44068" lon="4.28018">
        <ele>106.36</ele>
        <time>2021-07-26T12:30:36Z</time>
      </trkpt>
      <trkpt lat="49.43847" lon="4.27978">
        <ele>100.6</ele>
        <time>2021-07-26T12:30:44Z</time>
      </trkpt>
      <trkpt lat="49.43445" lon="4.27945">
        <ele>98.67</ele>
        <time>2021-07-26T12:30:59Z</time>
      </trkpt>
      <trkpt lat="49.43279" lon="4.27867">
        <ele>101.56</ele>
        <time>2021-07-26T12:31:06Z</time>
      </trkpt>
      <trkpt lat="49.43092" lon="4.27684">
        <ele>104.44</ele>
        <time>2021-07-26T12:31:15Z</time>
      </trkpt>
      <trkpt lat="49.42686" lon="4.27259">
        <ele>105.88</ele>
        <time>2021-07-26T12:31:36Z</time>
      </trkpt>
      <trkpt lat="49.42292" lon="4.26849">
        <ele>95.79</ele>
        <time>2021-07-26T12:31:58Z</time>
      </trkpt>
      <trkpt lat="49.42118" lon="4.26665">
        <ele>90.5</ele>
        <time>2021-07-26T12:32:09Z</time>
      </trkpt>
      <trkpt lat="49.42038" lon="4.26549">
        <ele>93.39</ele>
        <time>2021-07-26T12:32:17Z</time>
      </trkpt>
      <trkpt lat="49.42024" lon="4.26528">
        <ele>93.87</ele>
        <time>2021-07-26T12:32:23Z</time>
      </trkpt>
      <trkpt lat="49.42018" lon="4.2652">
        <ele>92.9</ele>
        <time>2021-07-26T12:32:28Z</time>
      </trkpt>
      <trkpt lat="49.42017" lon="4.26512">
        <ele>92.9</ele>
        <time>2021-07-26T12:32:29Z</time>
      </trkpt>
      <trkpt lat="49.42019" lon="4.26507">
        <ele>92.9</ele>
        <time>2021-07-26T12:32:30Z</time>
      </trkpt>
      <trkpt lat="49.42054" lon="4.26421">
        <ele>91.46</ele>
        <time>2021-07-26T12:32:38Z</time>
      </trkpt>
      <trkpt lat="49.42079" lon="4.2625">
        <ele>90.02</ele>
        <time>2021-07-26T12:32:46Z</time>
      </trkpt>
      <trkpt lat="49.42086" lon="4.25947">
        <ele>88.58</ele>
        <time>2021-07-26T12:32:57Z</time>
      </trkpt>
      <trkpt lat="49.42088" lon="4.25416">
        <ele>87.62</ele>
        <time>2021-07-26T12:33:14Z</time>
      </trkpt>
      <trkpt lat="49.42073" lon="4.24835">
        <ele>86.18</ele>
        <time>2021-07-26T12:33:32Z</time>
      </trkpt>
      <trkpt lat="49.41988" lon="4.24329">
        <ele>84.25</ele>
        <time>2021-07-26T12:33:48Z</time>
      </trkpt>
      <trkpt lat="49.41949" lon="4.23979">
        <ele>86.66</ele>
        <time>2021-07-26T12:33:59Z</time>
      </trkpt>
      <trkpt lat="49.41945" lon="4.23578">
        <ele>86.18</ele>
        <time>2021-07-26T12:34:12Z</time>
      </trkpt>
      <trkpt lat="49.41939" lon="4.23267">
        <ele>85.21</ele>
        <time>2021-07-26T12:34:22Z</time>
      </trkpt>
      <trkpt lat="49.41979" lon="4.22881">
        <ele>84.73</ele>
        <time>2021-07-26T12:34:34Z</time>
      </trkpt>
      <trkpt lat="49.42043" lon="4.22357">
        <ele>86.18</ele>
        <time>2021-07-26T12:34:51Z</time>
      </trkpt>
      <trkpt lat="49.42057" lon="4.221">
        <ele>86.66</ele>
        <time>2021-07-26T12:35:00Z</time>
      </trkpt>
      <trkpt lat="49.42007" lon="4.21748">
        <ele>79.93</ele>
        <time>2021-07-26T12:35:13Z</time>
      </trkpt>
      <trkpt lat="49.42006" lon="4.21507">
        <ele>75.6</ele>
        <time>2021-07-26T12:35:22Z</time>
      </trkpt>
      <trkpt lat="49.42044" lon="4.21315">
        <ele>79.45</ele>
        <time>2021-07-26T12:35:31Z</time>
      </trkpt>
      <trkpt lat="49.42108" lon="4.20905">
        <ele>80.41</ele>
        <time>2021-07-26T12:35:46Z</time>
      </trkpt>
      <trkpt lat="49.42146" lon="4.20588">
        <ele>82.33</ele>
        <time>2021-07-26T12:35:58Z</time>
      </trkpt>
      <trkpt lat="49.42122" lon="4.20318">
        <ele>80.89</ele>
        <time>2021-07-26T12:36:07Z</time>
      </trkpt>
      <trkpt lat="49.42115" lon="4.2018">
        <ele>79.93</ele>
        <time>2021-07-26T12:36:11Z</time>
      </trkpt>
      <trkpt lat="49.42115" lon="4.2018">
        <ele>78.97</ele>
        <time>2021-07-26T12:36:12Z</time>
      </trkpt>
      <trkpt lat="49.42118" lon="4.20152">
        <ele>77.52</ele>
        <time>2021-07-26T12:36:13Z</time>
      </trkpt>
      <trkpt lat="49.42218" lon="4.19782">
        <ele>76.56</ele>
        <time>2021-07-26T12:36:26Z</time>
      </trkpt>
      <trkpt lat="49.42333" lon="4.19466">
        <ele>78.48</ele>
        <time>2021-07-26T12:36:39Z</time>
      </trkpt>
      <trkpt lat="49.42451" lon="4.19037">
        <ele>79.93</ele>
        <time>2021-07-26T12:36:54Z</time>
      </trkpt>
      <trkpt lat="49.42497" lon="4.18844">
        <ele>78</ele>
        <time>2021-07-26T12:37:01Z</time>
      </trkpt>
      <trkpt lat="49.42498" lon="4.18816">
        <ele>79.45</ele>
        <time>2021-07-26T12:37:02Z</time>
      </trkpt>
      <trkpt lat="49.42498" lon="4.18788">
        <ele>79.93</ele>
        <time>2021-07-26T12:37:03Z</time>
      </trkpt>
      <trkpt lat="49.42486" lon="4.18616">
        <ele>78.97</ele>
        <time>2021-07-26T12:37:09Z</time>
      </trkpt>
      <trkpt lat="49.42486" lon="4.1859">
        <ele>78.48</ele>
        <time>2021-07-26T12:37:10Z</time>
      </trkpt>
      <trkpt lat="49.42488" lon="4.18562">
        <ele>78</ele>
        <time>2021-07-26T12:37:11Z</time>
      </trkpt>
      <trkpt lat="49.42491" lon="4.18535">
        <ele>77.04</ele>
        <time>2021-07-26T12:37:12Z</time>
      </trkpt>
      <trkpt lat="49.42497" lon="4.18507">
        <ele>76.56</ele>
        <time>2021-07-26T12:37:13Z</time>
      </trkpt>
      <trkpt lat="49.42582" lon="4.18119">
        <ele>75.6</ele>
        <time>2021-07-26T12:37:27Z</time>
      </trkpt>
      <trkpt lat="49.42656" lon="4.17895">
        <ele>73.2</ele>
        <time>2021-07-26T12:37:38Z</time>
      </trkpt>
      <trkpt lat="49.42686" lon="4.17797">
        <ele>73.68</ele>
        <time>2021-07-26T12:37:46Z</time>
      </trkpt>
      <trkpt lat="49.42706" lon="4.17753">
        <ele>72.24</ele>
        <time>2021-07-26T12:37:55Z</time>
      </trkpt>
      <trkpt lat="49.42705" lon="4.17747">
        <ele>72.72</ele>
        <time>2021-07-26T12:37:56Z</time>
      </trkpt>
      <trkpt lat="49.42704" lon="4.17742">
        <ele>72.72</ele>
        <time>2021-07-26T12:37:57Z</time>
      </trkpt>
      <trkpt lat="49.42702" lon="4.17736">
        <ele>72.24</ele>
        <time>2021-07-26T12:37:58Z</time>
      </trkpt>
      <trkpt lat="49.42698" lon="4.17726">
        <ele>72.24</ele>
        <time>2021-07-26T12:37:59Z</time>
      </trkpt>
      <trkpt lat="49.42698" lon="4.17726">
        <ele>72.24</ele>
        <time>2021-07-26T12:38:00Z</time>
      </trkpt>
      <trkpt lat="49.42693" lon="4.17724">
        <ele>72.24</ele>
        <time>2021-07-26T12:38:01Z</time>
      </trkpt>
      <trkpt lat="49.42687" lon="4.17721">
        <ele>72.24</ele>
        <time>2021-07-26T12:38:02Z</time>
      </trkpt>
      <trkpt lat="49.4268" lon="4.17718">
        <ele>72.24</ele>
        <time>2021-07-26T12:38:03Z</time>
      </trkpt>
      <trkpt lat="49.42649" lon="4.177">
        <ele>72.72</ele>
        <time>2021-07-26T12:38:07Z</time>
      </trkpt>
      <trkpt lat="49.42631" lon="4.17686">
        <ele>72.72</ele>
        <time>2021-07-26T12:38:08Z</time>
      </trkpt>
      <trkpt lat="49.42631" lon="4.17686">
        <ele>72.72</ele>
        <time>2021-07-26T12:38:09Z</time>
      </trkpt>
      <trkpt lat="49.42616" lon="4.1766">
        <ele>72.24</ele>
        <time>2021-07-26T12:38:10Z</time>
      </trkpt>
      <trkpt lat="49.42616" lon="4.1766">
        <ele>72.24</ele>
        <time>2021-07-26T12:38:11Z</time>
      </trkpt>
      <trkpt lat="49.42609" lon="4.17647">
        <ele>72.72</ele>
        <time>2021-07-26T12:38:12Z</time>
      </trkpt>
      <trkpt lat="49.42561" lon="4.17576">
        <ele>71.76</ele>
        <time>2021-07-26T12:38:17Z</time>
      </trkpt>
      <trkpt lat="49.42561" lon="4.17576">
        <ele>70.79</ele>
        <time>2021-07-26T12:38:18Z</time>
      </trkpt>
      <trkpt lat="49.42423" lon="4.17456">
        <ele>71.27</ele>
        <time>2021-07-26T12:38:32Z</time>
      </trkpt>
      <trkpt lat="49.42415" lon="4.1745">
        <ele>71.27</ele>
        <time>2021-07-26T12:38:33Z</time>
      </trkpt>
      <trkpt lat="49.42406" lon="4.17444">
        <ele>70.79</ele>
        <time>2021-07-26T12:38:34Z</time>
      </trkpt>
      <trkpt lat="49.42392" lon="4.17424">
        <ele>70.31</ele>
        <time>2021-07-26T12:38:35Z</time>
      </trkpt>
      <trkpt lat="49.42392" lon="4.17424">
        <ele>69.35</ele>
        <time>2021-07-26T12:38:36Z</time>
      </trkpt>
      <trkpt lat="49.42388" lon="4.17407">
        <ele>68.87</ele>
        <time>2021-07-26T12:38:37Z</time>
      </trkpt>
      <trkpt lat="49.42384" lon="4.17391">
        <ele>68.87</ele>
        <time>2021-07-26T12:38:38Z</time>
      </trkpt>
      <trkpt lat="49.42381" lon="4.17363">
        <ele>68.87</ele>
        <time>2021-07-26T12:38:39Z</time>
      </trkpt>
      <trkpt lat="49.42381" lon="4.17363">
        <ele>68.87</ele>
        <time>2021-07-26T12:38:40Z</time>
      </trkpt>
      <trkpt lat="49.42381" lon="4.17349">
        <ele>68.39</ele>
        <time>2021-07-26T12:38:41Z</time>
      </trkpt>
      <trkpt lat="49.42406" lon="4.1724">
        <ele>67.43</ele>
        <time>2021-07-26T12:38:49Z</time>
      </trkpt>
      <trkpt lat="49.4241" lon="4.17224">
        <ele>66.47</ele>
        <time>2021-07-26T12:38:50Z</time>
      </trkpt>
      <trkpt lat="49.42417" lon="4.17211">
        <ele>65.51</ele>
        <time>2021-07-26T12:38:51Z</time>
      </trkpt>
      <trkpt lat="49.42424" lon="4.17198">
        <ele>64.55</ele>
        <time>2021-07-26T12:38:52Z</time>
      </trkpt>
      <trkpt lat="49.42432" lon="4.17183">
        <ele>65.03</ele>
        <time>2021-07-26T12:38:53Z</time>
      </trkpt>
      <trkpt lat="49.42441" lon="4.17173">
        <ele>65.51</ele>
        <time>2021-07-26T12:38:54Z</time>
      </trkpt>
      <trkpt lat="49.42477" lon="4.17135">
        <ele>67.91</ele>
        <time>2021-07-26T12:38:58Z</time>
      </trkpt>
      <trkpt lat="49.42485" lon="4.17122">
        <ele>67.91</ele>
        <time>2021-07-26T12:38:59Z</time>
      </trkpt>
      <trkpt lat="49.42491" lon="4.17107">
        <ele>67.91</ele>
        <time>2021-07-26T12:39:00Z</time>
      </trkpt>
      <trkpt lat="49.42498" lon="4.17089">
        <ele>68.39</ele>
        <time>2021-07-26T12:39:01Z</time>
      </trkpt>
      <trkpt lat="49.42505" lon="4.17071">
        <ele>68.39</ele>
        <time>2021-07-26T12:39:02Z</time>
      </trkpt>
      <trkpt lat="49.4251" lon="4.17048">
        <ele>68.87</ele>
        <time>2021-07-26T12:39:03Z</time>
      </trkpt>
      <trkpt lat="49.42574" lon="4.16731">
        <ele>68.39</ele>
        <time>2021-07-26T12:39:16Z</time>
      </trkpt>
      <trkpt lat="49.42606" lon="4.16566">
        <ele>70.31</ele>
        <time>2021-07-26T12:39:25Z</time>
      </trkpt>
      <trkpt lat="49.42619" lon="4.16486">
        <ele>71.27</ele>
        <time>2021-07-26T12:39:34Z</time>
      </trkpt>
      <trkpt lat="49.42643" lon="4.16256">
        <ele>72.24</ele>
        <time>2021-07-26T12:39:47Z</time>
      </trkpt>
      <trkpt lat="49.42646" lon="4.16224">
        <ele>71.76</ele>
        <time>2021-07-26T12:39:50Z</time>
      </trkpt>
      <trkpt lat="49.42648" lon="4.1621">
        <ele>71.27</ele>
        <time>2021-07-26T12:39:51Z</time>
      </trkpt>
      <trkpt lat="49.42653" lon="4.16195">
        <ele>70.79</ele>
        <time>2021-07-26T12:39:52Z</time>
      </trkpt>
      <trkpt lat="49.42667" lon="4.16154">
        <ele>70.31</ele>
        <time>2021-07-26T12:39:55Z</time>
      </trkpt>
      <trkpt lat="49.42705" lon="4.1596">
        <ele>72.24</ele>
        <time>2021-07-26T12:40:06Z</time>
      </trkpt>
      <trkpt lat="49.42729" lon="4.15772">
        <ele>70.79</ele>
        <time>2021-07-26T12:40:16Z</time>
      </trkpt>
      <trkpt lat="49.42736" lon="4.15752">
        <ele>70.31</ele>
        <time>2021-07-26T12:40:17Z</time>
      </trkpt>
      <trkpt lat="49.42768" lon="4.15653">
        <ele>72.24</ele>
        <time>2021-07-26T12:40:22Z</time>
      </trkpt>
      <trkpt lat="49.42772" lon="4.15632">
        <ele>72.24</ele>
        <time>2021-07-26T12:40:23Z</time>
      </trkpt>
      <trkpt lat="49.42777" lon="4.15611">
        <ele>72.24</ele>
        <time>2021-07-26T12:40:24Z</time>
      </trkpt>
      <trkpt lat="49.42779" lon="4.15587">
        <ele>73.68</ele>
        <time>2021-07-26T12:40:25Z</time>
      </trkpt>
      <trkpt lat="49.42781" lon="4.15564">
        <ele>74.64</ele>
        <time>2021-07-26T12:40:26Z</time>
      </trkpt>
      <trkpt lat="49.42782" lon="4.1554">
        <ele>75.12</ele>
        <time>2021-07-26T12:40:27Z</time>
      </trkpt>
      <trkpt lat="49.42785" lon="4.15224">
        <ele>76.08</ele>
        <time>2021-07-26T12:40:39Z</time>
      </trkpt>
      <trkpt lat="49.42775" lon="4.1486">
        <ele>77.52</ele>
        <time>2021-07-26T12:40:52Z</time>
      </trkpt>
      <trkpt lat="49.42707" lon="4.14359">
        <ele>73.68</ele>
        <time>2021-07-26T12:41:08Z</time>
      </trkpt>
      <trkpt lat="49.42649" lon="4.14115">
        <ele>73.2</ele>
        <time>2021-07-26T12:41:16Z</time>
      </trkpt>
      <trkpt lat="49.42598" lon="4.13876">
        <ele>71.27</ele>
        <time>2021-07-26T12:41:24Z</time>
      </trkpt>
      <trkpt lat="49.42576" lon="4.13705">
        <ele>71.27</ele>
        <time>2021-07-26T12:41:29Z</time>
      </trkpt>
      <trkpt lat="49.42576" lon="4.13705">
        <ele>70.31</ele>
        <time>2021-07-26T12:41:30Z</time>
      </trkpt>
      <trkpt lat="49.42576" lon="4.13675">
        <ele>70.31</ele>
        <time>2021-07-26T12:41:31Z</time>
      </trkpt>
      <trkpt lat="49.42596" lon="4.13377">
        <ele>69.35</ele>
        <time>2021-07-26T12:41:41Z</time>
      </trkpt>
      <trkpt lat="49.42602" lon="4.13185">
        <ele>70.31</ele>
        <time>2021-07-26T12:41:48Z</time>
      </trkpt>
      <trkpt lat="49.42599" lon="4.13163">
        <ele>69.83</ele>
        <time>2021-07-26T12:41:49Z</time>
      </trkpt>
      <trkpt lat="49.42597" lon="4.13144">
        <ele>68.87</ele>
        <time>2021-07-26T12:41:50Z</time>
      </trkpt>
      <trkpt lat="49.42589" lon="4.13125">
        <ele>68.39</ele>
        <time>2021-07-26T12:41:51Z</time>
      </trkpt>
      <trkpt lat="49.42581" lon="4.13107">
        <ele>68.39</ele>
        <time>2021-07-26T12:41:52Z</time>
      </trkpt>
      <trkpt lat="49.42567" lon="4.13066">
        <ele>66.95</ele>
        <time>2021-07-26T12:41:54Z</time>
      </trkpt>
      <trkpt lat="49.4256" lon="4.13046">
        <ele>66.47</ele>
        <time>2021-07-26T12:41:55Z</time>
      </trkpt>
      <trkpt lat="49.42541" lon="4.12807">
        <ele>65.51</ele>
        <time>2021-07-26T12:42:07Z</time>
      </trkpt>
      <trkpt lat="49.42526" lon="4.12636">
        <ele>65.51</ele>
        <time>2021-07-26T12:42:17Z</time>
      </trkpt>
      <trkpt lat="49.42524" lon="4.12621">
        <ele>65.51</ele>
        <time>2021-07-26T12:42:18Z</time>
      </trkpt>
      <trkpt lat="49.42525" lon="4.12605">
        <ele>65.99</ele>
        <time>2021-07-26T12:42:19Z</time>
      </trkpt>
      <trkpt lat="49.42532" lon="4.12539">
        <ele>65.99</ele>
        <time>2021-07-26T12:42:23Z</time>
      </trkpt>
      <trkpt lat="49.42531" lon="4.12523">
        <ele>66.47</ele>
        <time>2021-07-26T12:42:24Z</time>
      </trkpt>
      <trkpt lat="49.42531" lon="4.12505">
        <ele>65.99</ele>
        <time>2021-07-26T12:42:25Z</time>
      </trkpt>
      <trkpt lat="49.42492" lon="4.12235">
        <ele>66.47</ele>
        <time>2021-07-26T12:42:39Z</time>
      </trkpt>
      <trkpt lat="49.42451" lon="4.11909">
        <ele>68.39</ele>
        <time>2021-07-26T12:42:54Z</time>
      </trkpt>
      <trkpt lat="49.42425" lon="4.11582">
        <ele>67.91</ele>
        <time>2021-07-26T12:43:07Z</time>
      </trkpt>
      <trkpt lat="49.42389" lon="4.11144">
        <ele>65.03</ele>
        <time>2021-07-26T12:43:22Z</time>
      </trkpt>
      <trkpt lat="49.42354" lon="4.10776">
        <ele>63.58</ele>
        <time>2021-07-26T12:43:34Z</time>
      </trkpt>
      <trkpt lat="49.42353" lon="4.10629">
        <ele>62.14</ele>
        <time>2021-07-26T12:43:41Z</time>
      </trkpt>
      <trkpt lat="49.42361" lon="4.10557">
        <ele>61.66</ele>
        <time>2021-07-26T12:43:48Z</time>
      </trkpt>
      <trkpt lat="49.42375" lon="4.10448">
        <ele>63.1</ele>
        <time>2021-07-26T12:43:59Z</time>
      </trkpt>
      <trkpt lat="49.42391" lon="4.10264">
        <ele>64.07</ele>
        <time>2021-07-26T12:44:16Z</time>
      </trkpt>
      <trkpt lat="49.42399" lon="4.10082">
        <ele>65.51</ele>
        <time>2021-07-26T12:44:27Z</time>
      </trkpt>
      <trkpt lat="49.4238" lon="4.09896">
        <ele>64.55</ele>
        <time>2021-07-26T12:44:37Z</time>
      </trkpt>
      <trkpt lat="49.42365" lon="4.09836">
        <ele>63.58</ele>
        <time>2021-07-26T12:44:43Z</time>
      </trkpt>
      <trkpt lat="49.42358" lon="4.09808">
        <ele>63.1</ele>
        <time>2021-07-26T12:44:52Z</time>
      </trkpt>
      <trkpt lat="49.42356" lon="4.09788">
        <ele>63.1</ele>
        <time>2021-07-26T12:44:54Z</time>
      </trkpt>
      <trkpt lat="49.42354" lon="4.09776">
        <ele>63.1</ele>
        <time>2021-07-26T12:44:55Z</time>
      </trkpt>
      <trkpt lat="49.42353" lon="4.09763">
        <ele>63.58</ele>
        <time>2021-07-26T12:44:56Z</time>
      </trkpt>
      <trkpt lat="49.42347" lon="4.09571">
        <ele>63.58</ele>
        <time>2021-07-26T12:45:08Z</time>
      </trkpt>
      <trkpt lat="49.42343" lon="4.09527">
        <ele>63.58</ele>
        <time>2021-07-26T12:45:15Z</time>
      </trkpt>
      <trkpt lat="49.42337" lon="4.09417">
        <ele>64.55</ele>
        <time>2021-07-26T12:45:23Z</time>
      </trkpt>
      <trkpt lat="49.42338" lon="4.09125">
        <ele>62.62</ele>
        <time>2021-07-26T12:45:37Z</time>
      </trkpt>
      <trkpt lat="49.42361" lon="4.08817">
        <ele>61.66</ele>
        <time>2021-07-26T12:45:50Z</time>
      </trkpt>
      <trkpt lat="49.42397" lon="4.08538">
        <ele>60.7</ele>
        <time>2021-07-26T12:46:01Z</time>
      </trkpt>
      <trkpt lat="49.42477" lon="4.08173">
        <ele>61.18</ele>
        <time>2021-07-26T12:46:15Z</time>
      </trkpt>
      <trkpt lat="49.42572" lon="4.07829">
        <ele>61.18</ele>
        <time>2021-07-26T12:46:28Z</time>
      </trkpt>
      <trkpt lat="49.42624" lon="4.07513">
        <ele>60.22</ele>
        <time>2021-07-26T12:46:39Z</time>
      </trkpt>
      <trkpt lat="49.42689" lon="4.07086">
        <ele>59.26</ele>
        <time>2021-07-26T12:46:54Z</time>
      </trkpt>
      <trkpt lat="49.42787" lon="4.06728">
        <ele>57.34</ele>
        <time>2021-07-26T12:47:07Z</time>
      </trkpt>
      <trkpt lat="49.42798" lon="4.06704">
        <ele>57.82</ele>
        <time>2021-07-26T12:47:08Z</time>
      </trkpt>
      <trkpt lat="49.43016" lon="4.0628">
        <ele>60.7</ele>
        <time>2021-07-26T12:47:26Z</time>
      </trkpt>
      <trkpt lat="49.43094" lon="4.06071">
        <ele>60.22</ele>
        <time>2021-07-26T12:47:34Z</time>
      </trkpt>
      <trkpt lat="49.4315" lon="4.05797">
        <ele>56.37</ele>
        <time>2021-07-26T12:47:45Z</time>
      </trkpt>
      <trkpt lat="49.43205" lon="4.05589">
        <ele>57.34</ele>
        <time>2021-07-26T12:47:56Z</time>
      </trkpt>
      <trkpt lat="49.43223" lon="4.05533">
        <ele>57.34</ele>
        <time>2021-07-26T12:48:01Z</time>
      </trkpt>
      <trkpt lat="49.43241" lon="4.0548">
        <ele>56.86</ele>
        <time>2021-07-26T12:48:13Z</time>
      </trkpt>
      <trkpt lat="49.4328" lon="4.05332">
        <ele>56.86</ele>
        <time>2021-07-26T12:48:24Z</time>
      </trkpt>
      <trkpt lat="49.4332" lon="4.05154">
        <ele>57.82</ele>
        <time>2021-07-26T12:48:36Z</time>
      </trkpt>
      <trkpt lat="49.43362" lon="4.04954">
        <ele>60.22</ele>
        <time>2021-07-26T12:48:47Z</time>
      </trkpt>
      <trkpt lat="49.43374" lon="4.04879">
        <ele>59.26</ele>
        <time>2021-07-26T12:48:51Z</time>
      </trkpt>
      <trkpt lat="49.43374" lon="4.0486">
        <ele>60.22</ele>
        <time>2021-07-26T12:48:52Z</time>
      </trkpt>
      <trkpt lat="49.43374" lon="4.0486">
        <ele>61.18</ele>
        <time>2021-07-26T12:48:53Z</time>
      </trkpt>
      <trkpt lat="49.43369" lon="4.04844">
        <ele>62.14</ele>
        <time>2021-07-26T12:48:54Z</time>
      </trkpt>
      <trkpt lat="49.43364" lon="4.04827">
        <ele>64.07</ele>
        <time>2021-07-26T12:48:55Z</time>
      </trkpt>
      <trkpt lat="49.43356" lon="4.04813">
        <ele>64.55</ele>
        <time>2021-07-26T12:48:56Z</time>
      </trkpt>
      <trkpt lat="49.43323" lon="4.04752">
        <ele>63.1</ele>
        <time>2021-07-26T12:49:00Z</time>
      </trkpt>
      <trkpt lat="49.43314" lon="4.04739">
        <ele>62.14</ele>
        <time>2021-07-26T12:49:01Z</time>
      </trkpt>
      <trkpt lat="49.43303" lon="4.04732">
        <ele>62.62</ele>
        <time>2021-07-26T12:49:02Z</time>
      </trkpt>
      <trkpt lat="49.43282" lon="4.04719">
        <ele>63.1</ele>
        <time>2021-07-26T12:49:03Z</time>
      </trkpt>
      <trkpt lat="49.43282" lon="4.04719">
        <ele>63.58</ele>
        <time>2021-07-26T12:49:04Z</time>
      </trkpt>
      <trkpt lat="49.43269" lon="4.04714">
        <ele>64.07</ele>
        <time>2021-07-26T12:49:05Z</time>
      </trkpt>
      <trkpt lat="49.43118" lon="4.04671">
        <ele>64.07</ele>
        <time>2021-07-26T12:49:18Z</time>
      </trkpt>
      <trkpt lat="49.42932" lon="4.04614">
        <ele>64.07</ele>
        <time>2021-07-26T12:49:32Z</time>
      </trkpt>
      <trkpt lat="49.42897" lon="4.04597">
        <ele>60.22</ele>
        <time>2021-07-26T12:49:35Z</time>
      </trkpt>
      <trkpt lat="49.42874" lon="4.04573">
        <ele>58.78</ele>
        <time>2021-07-26T12:49:36Z</time>
      </trkpt>
      <trkpt lat="49.42874" lon="4.04573">
        <ele>58.78</ele>
        <time>2021-07-26T12:49:37Z</time>
      </trkpt>
      <trkpt lat="49.42864" lon="4.04555">
        <ele>58.3</ele>
        <time>2021-07-26T12:49:38Z</time>
      </trkpt>
      <trkpt lat="49.42854" lon="4.04538">
        <ele>58.3</ele>
        <time>2021-07-26T12:49:39Z</time>
      </trkpt>
      <trkpt lat="49.42852" lon="4.04517">
        <ele>57.82</ele>
        <time>2021-07-26T12:49:40Z</time>
      </trkpt>
      <trkpt lat="49.4285" lon="4.04498">
        <ele>57.82</ele>
        <time>2021-07-26T12:49:41Z</time>
      </trkpt>
      <trkpt lat="49.42849" lon="4.04464">
        <ele>57.82</ele>
        <time>2021-07-26T12:49:42Z</time>
      </trkpt>
      <trkpt lat="49.42849" lon="4.04464">
        <ele>57.34</ele>
        <time>2021-07-26T12:49:43Z</time>
      </trkpt>
      <trkpt lat="49.4285" lon="4.04448">
        <ele>56.86</ele>
        <time>2021-07-26T12:49:44Z</time>
      </trkpt>
      <trkpt lat="49.42855" lon="4.04396">
        <ele>56.86</ele>
        <time>2021-07-26T12:49:50Z</time>
      </trkpt>
      <trkpt lat="49.42856" lon="4.0438">
        <ele>56.37</ele>
        <time>2021-07-26T12:49:59Z</time>
      </trkpt>
      <trkpt lat="49.42863" lon="4.04374">
        <ele>56.37</ele>
        <time>2021-07-26T12:50:01Z</time>
      </trkpt>
      <trkpt lat="49.42872" lon="4.04374">
        <ele>56.37</ele>
        <time>2021-07-26T12:50:02Z</time>
      </trkpt>
      <trkpt lat="49.42889" lon="4.04374">
        <ele>57.34</ele>
        <time>2021-07-26T12:50:06Z</time>
      </trkpt>
      <trkpt lat="49.42895" lon="4.04371">
        <ele>57.34</ele>
        <time>2021-07-26T12:50:07Z</time>
      </trkpt>
      <trkpt lat="49.42902" lon="4.04368">
        <ele>57.82</ele>
        <time>2021-07-26T12:50:08Z</time>
      </trkpt>
      <trkpt lat="49.42909" lon="4.04364">
        <ele>57.82</ele>
        <time>2021-07-26T12:50:09Z</time>
      </trkpt>
      <trkpt lat="49.42914" lon="4.04354">
        <ele>59.74</ele>
        <time>2021-07-26T12:50:10Z</time>
      </trkpt>
      <trkpt lat="49.42921" lon="4.04342">
        <ele>60.22</ele>
        <time>2021-07-26T12:50:11Z</time>
      </trkpt>
      <trkpt lat="49.42927" lon="4.0433">
        <ele>59.74</ele>
        <time>2021-07-26T12:50:12Z</time>
      </trkpt>
      <trkpt lat="49.42931" lon="4.04315">
        <ele>58.78</ele>
        <time>2021-07-26T12:50:13Z</time>
      </trkpt>
      <trkpt lat="49.42976" lon="4.04138">
        <ele>58.78</ele>
        <time>2021-07-26T12:50:23Z</time>
      </trkpt>
      <trkpt lat="49.43001" lon="4.04003">
        <ele>59.74</ele>
        <time>2021-07-26T12:50:31Z</time>
      </trkpt>
      <trkpt lat="49.43037" lon="4.03806">
        <ele>57.82</ele>
        <time>2021-07-26T12:50:44Z</time>
      </trkpt>
      <trkpt lat="49.43057" lon="4.03727">
        <ele>59.26</ele>
        <time>2021-07-26T12:50:51Z</time>
      </trkpt>
      <trkpt lat="49.43085" lon="4.03633">
        <ele>59.74</ele>
        <time>2021-07-26T12:51:01Z</time>
      </trkpt>
      <trkpt lat="49.43152" lon="4.03463">
        <ele>60.7</ele>
        <time>2021-07-26T12:51:16Z</time>
      </trkpt>
      <trkpt lat="49.43174" lon="4.0341">
        <ele>60.7</ele>
        <time>2021-07-26T12:51:25Z</time>
      </trkpt>
      <trkpt lat="49.43213" lon="4.03314">
        <ele>61.66</ele>
        <time>2021-07-26T12:51:37Z</time>
      </trkpt>
      <trkpt lat="49.43256" lon="4.03164">
        <ele>63.58</ele>
        <time>2021-07-26T12:51:51Z</time>
      </trkpt>
      <trkpt lat="49.43282" lon="4.03091">
        <ele>62.62</ele>
        <time>2021-07-26T12:52:02Z</time>
      </trkpt>
      <trkpt lat="49.43282" lon="4.03091">
        <ele>62.62</ele>
        <time>2021-07-26T12:52:08Z</time>
      </trkpt>
      <trkpt lat="49.43282" lon="4.03079">
        <ele>62.62</ele>
        <time>2021-07-26T12:52:09Z</time>
      </trkpt>
      <trkpt lat="49.43282" lon="4.03079">
        <ele>63.1</ele>
        <time>2021-07-26T12:52:10Z</time>
      </trkpt>
      <trkpt lat="49.4328" lon="4.03077">
        <ele>63.1</ele>
        <time>2021-07-26T12:52:11Z</time>
      </trkpt>
      <trkpt lat="49.43272" lon="4.03071">
        <ele>63.1</ele>
        <time>2021-07-26T12:52:12Z</time>
      </trkpt>
      <trkpt lat="49.43268" lon="4.03067">
        <ele>63.1</ele>
        <time>2021-07-26T12:52:13Z</time>
      </trkpt>
      <trkpt lat="49.43215" lon="4.03019">
        <ele>63.1</ele>
        <time>2021-07-26T12:52:22Z</time>
      </trkpt>
      <trkpt lat="49.43085" lon="4.02914">
        <ele>63.58</ele>
        <time>2021-07-26T12:52:35Z</time>
      </trkpt>
      <trkpt lat="49.43038" lon="4.02876">
        <ele>65.99</ele>
        <time>2021-07-26T12:52:41Z</time>
      </trkpt>
      <trkpt lat="49.42989" lon="4.02834">
        <ele>64.55</ele>
        <time>2021-07-26T12:52:50Z</time>
      </trkpt>
      <trkpt lat="49.42897" lon="4.02749">
        <ele>63.58</ele>
        <time>2021-07-26T12:52:59Z</time>
      </trkpt>
      <trkpt lat="49.42735" lon="4.026">
        <ele>64.07</ele>
        <time>2021-07-26T12:53:12Z</time>
      </trkpt>
      <trkpt lat="49.42605" lon="4.02511">
        <ele>63.58</ele>
        <time>2021-07-26T12:53:21Z</time>
      </trkpt>
      <trkpt lat="49.42487" lon="4.02393">
        <ele>62.14</ele>
        <time>2021-07-26T12:53:29Z</time>
      </trkpt>
      <trkpt lat="49.42309" lon="4.02132">
        <ele>61.18</ele>
        <time>2021-07-26T12:53:42Z</time>
      </trkpt>
      <trkpt lat="49.4221" lon="4.01927">
        <ele>60.22</ele>
        <time>2021-07-26T12:53:51Z</time>
      </trkpt>
      <trkpt lat="49.42097" lon="4.01578">
        <ele>60.7</ele>
        <time>2021-07-26T12:54:04Z</time>
      </trkpt>
      <trkpt lat="49.42075" lon="4.01366">
        <ele>60.7</ele>
        <time>2021-07-26T12:54:12Z</time>
      </trkpt>
      <trkpt lat="49.42064" lon="4.01189">
        <ele>61.18</ele>
        <time>2021-07-26T12:54:22Z</time>
      </trkpt>
      <trkpt lat="49.42046" lon="4.00917">
        <ele>61.18</ele>
        <time>2021-07-26T12:54:41Z</time>
      </trkpt>
      <trkpt lat="49.42042" lon="4.00875">
        <ele>63.58</ele>
        <time>2021-07-26T12:54:44Z</time>
      </trkpt>
      <trkpt lat="49.42039" lon="4.00863">
        <ele>63.58</ele>
        <time>2021-07-26T12:54:45Z</time>
      </trkpt>
      <trkpt lat="49.42037" lon="4.00851">
        <ele>63.58</ele>
        <time>2021-07-26T12:54:46Z</time>
      </trkpt>
      <trkpt lat="49.42032" lon="4.00841">
        <ele>63.58</ele>
        <time>2021-07-26T12:54:47Z</time>
      </trkpt>
      <trkpt lat="49.42027" lon="4.00833">
        <ele>63.1</ele>
        <time>2021-07-26T12:54:48Z</time>
      </trkpt>
      <trkpt lat="49.42021" lon="4.0083">
        <ele>63.1</ele>
        <time>2021-07-26T12:54:49Z</time>
      </trkpt>
      <trkpt lat="49.42013" lon="4.00827">
        <ele>63.1</ele>
        <time>2021-07-26T12:54:50Z</time>
      </trkpt>
      <trkpt lat="49.42006" lon="4.00824">
        <ele>63.1</ele>
        <time>2021-07-26T12:54:51Z</time>
      </trkpt>
      <trkpt lat="49.41963" lon="4.00801">
        <ele>62.62</ele>
        <time>2021-07-26T12:54:57Z</time>
      </trkpt>
      <trkpt lat="49.41955" lon="4.00797">
        <ele>62.14</ele>
        <time>2021-07-26T12:54:58Z</time>
      </trkpt>
      <trkpt lat="49.41942" lon="4.00782">
        <ele>62.14</ele>
        <time>2021-07-26T12:54:59Z</time>
      </trkpt>
      <trkpt lat="49.41942" lon="4.00782">
        <ele>61.66</ele>
        <time>2021-07-26T12:55:00Z</time>
      </trkpt>
      <trkpt lat="49.41931" lon="4.00762">
        <ele>61.66</ele>
        <time>2021-07-26T12:55:01Z</time>
      </trkpt>
      <trkpt lat="49.41931" lon="4.00762">
        <ele>61.18</ele>
        <time>2021-07-26T12:55:02Z</time>
      </trkpt>
      <trkpt lat="49.41927" lon="4.00749">
        <ele>60.7</ele>
        <time>2021-07-26T12:55:03Z</time>
      </trkpt>
      <trkpt lat="49.41926" lon="4.00736">
        <ele>60.7</ele>
        <time>2021-07-26T12:55:04Z</time>
      </trkpt>
      <trkpt lat="49.41926" lon="4.00722">
        <ele>60.22</ele>
        <time>2021-07-26T12:55:05Z</time>
      </trkpt>
      <trkpt lat="49.41924" lon="4.00615">
        <ele>57.34</ele>
        <time>2021-07-26T12:55:12Z</time>
      </trkpt>
      <trkpt lat="49.41926" lon="4.00599">
        <ele>56.86</ele>
        <time>2021-07-26T12:55:13Z</time>
      </trkpt>
      <trkpt lat="49.41929" lon="4.00583">
        <ele>56.86</ele>
        <time>2021-07-26T12:55:14Z</time>
      </trkpt>
      <trkpt lat="49.41983" lon="4.00374">
        <ele>57.82</ele>
        <time>2021-07-26T12:55:28Z</time>
      </trkpt>
      <trkpt lat="49.4199" lon="4.00312">
        <ele>57.82</ele>
        <time>2021-07-26T12:55:35Z</time>
      </trkpt>
      <trkpt lat="49.41996" lon="4.00202">
        <ele>58.78</ele>
        <time>2021-07-26T12:55:45Z</time>
      </trkpt>
      <trkpt lat="49.42032" lon="4.00069">
        <ele>57.82</ele>
        <time>2021-07-26T12:55:55Z</time>
      </trkpt>
      <trkpt lat="49.42078" lon="3.99965">
        <ele>59.74</ele>
        <time>2021-07-26T12:56:05Z</time>
      </trkpt>
      <trkpt lat="49.4211" lon="3.99889">
        <ele>60.7</ele>
        <time>2021-07-26T12:56:15Z</time>
      </trkpt>
      <trkpt lat="49.42163" lon="3.99767">
        <ele>61.18</ele>
        <time>2021-07-26T12:56:25Z</time>
      </trkpt>
      <trkpt lat="49.42186" lon="3.99716">
        <ele>61.66</ele>
        <time>2021-07-26T12:56:29Z</time>
      </trkpt>
      <trkpt lat="49.42245" lon="3.99575">
        <ele>61.18</ele>
        <time>2021-07-26T12:56:37Z</time>
      </trkpt>
      <trkpt lat="49.42361" lon="3.99308">
        <ele>61.18</ele>
        <time>2021-07-26T12:56:48Z</time>
      </trkpt>
      <trkpt lat="49.42545" lon="3.98881">
        <ele>60.22</ele>
        <time>2021-07-26T12:57:03Z</time>
      </trkpt>
      <trkpt lat="49.42709" lon="3.98501">
        <ele>59.74</ele>
        <time>2021-07-26T12:57:16Z</time>
      </trkpt>
      <trkpt lat="49.4291" lon="3.98032">
        <ele>59.26</ele>
        <time>2021-07-26T12:57:34Z</time>
      </trkpt>
      <trkpt lat="49.43052" lon="3.97699">
        <ele>66.47</ele>
        <time>2021-07-26T12:57:48Z</time>
      </trkpt>
      <trkpt lat="49.43099" lon="3.9759">
        <ele>63.58</ele>
        <time>2021-07-26T12:57:55Z</time>
      </trkpt>
      <trkpt lat="49.43103" lon="3.97581">
        <ele>64.07</ele>
        <time>2021-07-26T12:57:56Z</time>
      </trkpt>
      <trkpt lat="49.43107" lon="3.97571">
        <ele>64.07</ele>
        <time>2021-07-26T12:57:57Z</time>
      </trkpt>
      <trkpt lat="49.43111" lon="3.97562">
        <ele>63.58</ele>
        <time>2021-07-26T12:57:58Z</time>
      </trkpt>
      <trkpt lat="49.43115" lon="3.97553">
        <ele>64.07</ele>
        <time>2021-07-26T12:57:59Z</time>
      </trkpt>
      <trkpt lat="49.43123" lon="3.97534">
        <ele>64.07</ele>
        <time>2021-07-26T12:58:00Z</time>
      </trkpt>
      <trkpt lat="49.43123" lon="3.97534">
        <ele>64.07</ele>
        <time>2021-07-26T12:58:01Z</time>
      </trkpt>
      <trkpt lat="49.43127" lon="3.97524">
        <ele>64.07</ele>
        <time>2021-07-26T12:58:02Z</time>
      </trkpt>
      <trkpt lat="49.43132" lon="3.97513">
        <ele>63.58</ele>
        <time>2021-07-26T12:58:03Z</time>
      </trkpt>
      <trkpt lat="49.43138" lon="3.97501">
        <ele>64.07</ele>
        <time>2021-07-26T12:58:04Z</time>
      </trkpt>
      <trkpt lat="49.43228" lon="3.9729">
        <ele>66.47</ele>
        <time>2021-07-26T12:58:18Z</time>
      </trkpt>
      <trkpt lat="49.4335" lon="3.96999">
        <ele>63.58</ele>
        <time>2021-07-26T12:58:37Z</time>
      </trkpt>
      <trkpt lat="49.43384" lon="3.96913">
        <ele>63.1</ele>
        <time>2021-07-26T12:58:46Z</time>
      </trkpt>
      <trkpt lat="49.43415" lon="3.96816">
        <ele>61.66</ele>
        <time>2021-07-26T12:59:01Z</time>
      </trkpt>
      <trkpt lat="49.43428" lon="3.9675">
        <ele>62.62</ele>
        <time>2021-07-26T12:59:12Z</time>
      </trkpt>
      <trkpt lat="49.43431" lon="3.96732">
        <ele>62.62</ele>
        <time>2021-07-26T12:59:14Z</time>
      </trkpt>
      <trkpt lat="49.43432" lon="3.96724">
        <ele>63.1</ele>
        <time>2021-07-26T12:59:15Z</time>
      </trkpt>
      <trkpt lat="49.43432" lon="3.96705">
        <ele>63.58</ele>
        <time>2021-07-26T12:59:17Z</time>
      </trkpt>
      <trkpt lat="49.43433" lon="3.96697">
        <ele>63.58</ele>
        <time>2021-07-26T12:59:18Z</time>
      </trkpt>
      <trkpt lat="49.43433" lon="3.96686">
        <ele>63.58</ele>
        <time>2021-07-26T12:59:19Z</time>
      </trkpt>
      <trkpt lat="49.43433" lon="3.96686">
        <ele>63.58</ele>
        <time>2021-07-26T12:59:20Z</time>
      </trkpt>
      <trkpt lat="49.43433" lon="3.96683">
        <ele>64.07</ele>
        <time>2021-07-26T12:59:21Z</time>
      </trkpt>
      <trkpt lat="49.43433" lon="3.9668">
        <ele>64.07</ele>
        <time>2021-07-26T12:59:22Z</time>
      </trkpt>
      <trkpt lat="49.43433" lon="3.96678">
        <ele>64.07</ele>
        <time>2021-07-26T12:59:23Z</time>
      </trkpt>
      <trkpt lat="49.43434" lon="3.96673">
        <ele>64.07</ele>
        <time>2021-07-26T12:59:24Z</time>
      </trkpt>
      <trkpt lat="49.43433" lon="3.96672">
        <ele>64.07</ele>
        <time>2021-07-26T12:59:25Z</time>
      </trkpt>
      <trkpt lat="49.4344" lon="3.96675">
        <ele>64.07</ele>
        <time>2021-07-26T12:59:26Z</time>
      </trkpt>
      <trkpt lat="49.43438" lon="3.96675">
        <ele>64.07</ele>
        <time>2021-07-26T12:59:27Z</time>
      </trkpt>
      <trkpt lat="49.43438" lon="3.96675">
        <ele>64.07</ele>
        <time>2021-07-26T12:59:40Z</time>
      </trkpt>
      <trkpt lat="49.43434" lon="3.96673">
        <ele>64.07</ele>
        <time>2021-07-26T12:59:41Z</time>
      </trkpt>
      <trkpt lat="49.43434" lon="3.96673">
        <ele>64.07</ele>
        <time>2021-07-26T12:59:42Z</time>
      </trkpt>
      <trkpt lat="49.43434" lon="3.96676">
        <ele>64.07</ele>
        <time>2021-07-26T12:59:43Z</time>
      </trkpt>
      <trkpt lat="49.43433" lon="3.96682">
        <ele>63.58</ele>
        <time>2021-07-26T12:59:44Z</time>
      </trkpt>
      <trkpt lat="49.43433" lon="3.96688">
        <ele>63.58</ele>
        <time>2021-07-26T12:59:45Z</time>
      </trkpt>
      <trkpt lat="49.43433" lon="3.96693">
        <ele>63.58</ele>
        <time>2021-07-26T12:59:46Z</time>
      </trkpt>
      <trkpt lat="49.4343" lon="3.96741">
        <ele>62.62</ele>
        <time>2021-07-26T12:59:57Z</time>
      </trkpt>
      <trkpt lat="49.43413" lon="3.96822">
        <ele>61.18</ele>
        <time>2021-07-26T13:00:09Z</time>
      </trkpt>
      <trkpt lat="49.4341" lon="3.96831">
        <ele>60.22</ele>
        <time>2021-07-26T13:00:20Z</time>
      </trkpt>
      <trkpt lat="49.4341" lon="3.96831">
        <ele>60.7</ele>
        <time>2021-07-26T13:03:54Z</time>
      </trkpt>
      <trkpt lat="49.43408" lon="3.9684">
        <ele>60.7</ele>
        <time>2021-07-26T13:03:55Z</time>
      </trkpt>
      <trkpt lat="49.43407" lon="3.96843">
        <ele>60.7</ele>
        <time>2021-07-26T13:03:56Z</time>
      </trkpt>
      <trkpt lat="49.43405" lon="3.96847">
        <ele>60.7</ele>
        <time>2021-07-26T13:03:57Z</time>
      </trkpt>
      <trkpt lat="49.43404" lon="3.96851">
        <ele>60.7</ele>
        <time>2021-07-26T13:03:58Z</time>
      </trkpt>
      <trkpt lat="49.4338" lon="3.96925">
        <ele>62.14</ele>
        <time>2021-07-26T13:04:08Z</time>
      </trkpt>
      <trkpt lat="49.43307" lon="3.97102">
        <ele>62.14</ele>
        <time>2021-07-26T13:04:21Z</time>
      </trkpt>
      <trkpt lat="49.43289" lon="3.97148">
        <ele>63.58</ele>
        <time>2021-07-26T13:04:27Z</time>
      </trkpt>
      <trkpt lat="49.43286" lon="3.97154">
        <ele>64.07</ele>
        <time>2021-07-26T13:04:29Z</time>
      </trkpt>
      <trkpt lat="49.43284" lon="3.97158">
        <ele>64.55</ele>
        <time>2021-07-26T13:04:43Z</time>
      </trkpt>
      <trkpt lat="49.43284" lon="3.97158">
        <ele>64.55</ele>
        <time>2021-07-26T13:04:44Z</time>
      </trkpt>
      <trkpt lat="49.43284" lon="3.9716">
        <ele>64.55</ele>
        <time>2021-07-26T13:04:45Z</time>
      </trkpt>
      <trkpt lat="49.43283" lon="3.97161">
        <ele>64.55</ele>
        <time>2021-07-26T13:04:46Z</time>
      </trkpt>
      <trkpt lat="49.43293" lon="3.9715">
        <ele>64.55</ele>
        <time>2021-07-26T13:04:50Z</time>
      </trkpt>
      <trkpt lat="49.43293" lon="3.9715">
        <ele>64.55</ele>
        <time>2021-07-26T13:04:56Z</time>
      </trkpt>
      <trkpt lat="49.43285" lon="3.97157">
        <ele>64.55</ele>
        <time>2021-07-26T13:04:57Z</time>
      </trkpt>
      <trkpt lat="49.43285" lon="3.97156">
        <ele>64.55</ele>
        <time>2021-07-26T13:04:58Z</time>
      </trkpt>
      <trkpt lat="49.43286" lon="3.97153">
        <ele>64.55</ele>
        <time>2021-07-26T13:04:59Z</time>
      </trkpt>
      <trkpt lat="49.43288" lon="3.97149">
        <ele>64.55</ele>
        <time>2021-07-26T13:05:00Z</time>
      </trkpt>
      <trkpt lat="49.4329" lon="3.97145">
        <ele>65.03</ele>
        <time>2021-07-26T13:05:01Z</time>
      </trkpt>
      <trkpt lat="49.43292" lon="3.9714">
        <ele>65.51</ele>
        <time>2021-07-26T13:05:02Z</time>
      </trkpt>
      <trkpt lat="49.43325" lon="3.9706">
        <ele>67.43</ele>
        <time>2021-07-26T13:05:10Z</time>
      </trkpt>
      <trkpt lat="49.43399" lon="3.96866">
        <ele>63.1</ele>
        <time>2021-07-26T13:05:26Z</time>
      </trkpt>
      <trkpt lat="49.43432" lon="3.96726">
        <ele>65.51</ele>
        <time>2021-07-26T13:05:38Z</time>
      </trkpt>
      <trkpt lat="49.43432" lon="3.96713">
        <ele>65.99</ele>
        <time>2021-07-26T13:05:39Z</time>
      </trkpt>
      <trkpt lat="49.43433" lon="3.967">
        <ele>65.99</ele>
        <time>2021-07-26T13:05:40Z</time>
      </trkpt>
      <trkpt lat="49.43433" lon="3.96687">
        <ele>66.47</ele>
        <time>2021-07-26T13:05:41Z</time>
      </trkpt>
      <trkpt lat="49.43434" lon="3.96673">
        <ele>66.47</ele>
        <time>2021-07-26T13:05:42Z</time>
      </trkpt>
      <trkpt lat="49.43432" lon="3.96661">
        <ele>65.99</ele>
        <time>2021-07-26T13:05:43Z</time>
      </trkpt>
      <trkpt lat="49.434" lon="3.96415">
        <ele>59.74</ele>
        <time>2021-07-26T13:05:58Z</time>
      </trkpt>
      <trkpt lat="49.43391" lon="3.96145">
        <ele>64.07</ele>
        <time>2021-07-26T13:06:13Z</time>
      </trkpt>
      <trkpt lat="49.43402" lon="3.95956">
        <ele>71.27</ele>
        <time>2021-07-26T13:06:23Z</time>
      </trkpt>
      <trkpt lat="49.43411" lon="3.95737">
        <ele>77.52</ele>
        <time>2021-07-26T13:06:33Z</time>
      </trkpt>
      <trkpt lat="49.43411" lon="3.95717">
        <ele>77.04</ele>
        <time>2021-07-26T13:06:34Z</time>
      </trkpt>
      <trkpt lat="49.4341" lon="3.95697">
        <ele>77.04</ele>
        <time>2021-07-26T13:06:35Z</time>
      </trkpt>
      <trkpt lat="49.43361" lon="3.95555">
        <ele>73.68</ele>
        <time>2021-07-26T13:06:43Z</time>
      </trkpt>
      <trkpt lat="49.43321" lon="3.95472">
        <ele>75.12</ele>
        <time>2021-07-26T13:06:53Z</time>
      </trkpt>
      <trkpt lat="49.43259" lon="3.95342">
        <ele>74.16</ele>
        <time>2021-07-26T13:07:02Z</time>
      </trkpt>
      <trkpt lat="49.43148" lon="3.9511">
        <ele>73.2</ele>
        <time>2021-07-26T13:07:14Z</time>
      </trkpt>
      <trkpt lat="49.43017" lon="3.94835">
        <ele>69.35</ele>
        <time>2021-07-26T13:07:27Z</time>
      </trkpt>
      <trkpt lat="49.429" lon="3.94555">
        <ele>68.39</ele>
        <time>2021-07-26T13:07:39Z</time>
      </trkpt>
      <trkpt lat="49.428" lon="3.94174">
        <ele>68.87</ele>
        <time>2021-07-26T13:07:53Z</time>
      </trkpt>
      <trkpt lat="49.42674" lon="3.93676">
        <ele>63.58</ele>
        <time>2021-07-26T13:08:10Z</time>
      </trkpt>
      <trkpt lat="49.42566" lon="3.93295">
        <ele>59.26</ele>
        <time>2021-07-26T13:08:24Z</time>
      </trkpt>
      <trkpt lat="49.42421" lon="3.9281">
        <ele>65.03</ele>
        <time>2021-07-26T13:08:42Z</time>
      </trkpt>
      <trkpt lat="49.42271" lon="3.92323">
        <ele>70.79</ele>
        <time>2021-07-26T13:08:59Z</time>
      </trkpt>
      <trkpt lat="49.42127" lon="3.9189">
        <ele>71.27</ele>
        <time>2021-07-26T13:09:14Z</time>
      </trkpt>
      <trkpt lat="49.41882" lon="3.91165">
        <ele>68.39</ele>
        <time>2021-07-26T13:09:38Z</time>
      </trkpt>
      <trkpt lat="49.4172" lon="3.9073">
        <ele>69.35</ele>
        <time>2021-07-26T13:09:53Z</time>
      </trkpt>
      <trkpt lat="49.41559" lon="3.90342">
        <ele>64.55</ele>
        <time>2021-07-26T13:10:07Z</time>
      </trkpt>
      <trkpt lat="49.4139" lon="3.89819">
        <ele>64.07</ele>
        <time>2021-07-26T13:10:24Z</time>
      </trkpt>
      <trkpt lat="49.41343" lon="3.89477">
        <ele>62.14</ele>
        <time>2021-07-26T13:10:34Z</time>
      </trkpt>
      <trkpt lat="49.41324" lon="3.89073">
        <ele>57.82</ele>
        <time>2021-07-26T13:10:48Z</time>
      </trkpt>
      <trkpt lat="49.41309" lon="3.88865">
        <ele>59.74</ele>
        <time>2021-07-26T13:10:57Z</time>
      </trkpt>
      <trkpt lat="49.41305" lon="3.88846">
        <ele>59.26</ele>
        <time>2021-07-26T13:10:58Z</time>
      </trkpt>
      <trkpt lat="49.41301" lon="3.88827">
        <ele>58.78</ele>
        <time>2021-07-26T13:10:59Z</time>
      </trkpt>
      <trkpt lat="49.41298" lon="3.88812">
        <ele>58.78</ele>
        <time>2021-07-26T13:11:00Z</time>
      </trkpt>
      <trkpt lat="49.41295" lon="3.888">
        <ele>58.78</ele>
        <time>2021-07-26T13:11:01Z</time>
      </trkpt>
      <trkpt lat="49.4127" lon="3.88731">
        <ele>57.34</ele>
        <time>2021-07-26T13:11:08Z</time>
      </trkpt>
      <trkpt lat="49.41266" lon="3.88723">
        <ele>56.86</ele>
        <time>2021-07-26T13:11:09Z</time>
      </trkpt>
      <trkpt lat="49.41267" lon="3.88708">
        <ele>56.86</ele>
        <time>2021-07-26T13:11:10Z</time>
      </trkpt>
      <trkpt lat="49.4127" lon="3.88699">
        <ele>56.86</ele>
        <time>2021-07-26T13:11:11Z</time>
      </trkpt>
      <trkpt lat="49.41273" lon="3.88689">
        <ele>56.86</ele>
        <time>2021-07-26T13:11:12Z</time>
      </trkpt>
      <trkpt lat="49.41277" lon="3.8868">
        <ele>56.86</ele>
        <time>2021-07-26T13:11:13Z</time>
      </trkpt>
      <trkpt lat="49.41283" lon="3.8867">
        <ele>57.34</ele>
        <time>2021-07-26T13:11:14Z</time>
      </trkpt>
      <trkpt lat="49.4129" lon="3.88657">
        <ele>57.34</ele>
        <time>2021-07-26T13:11:15Z</time>
      </trkpt>
      <trkpt lat="49.41297" lon="3.88644">
        <ele>56.86</ele>
        <time>2021-07-26T13:11:16Z</time>
      </trkpt>
      <trkpt lat="49.41386" lon="3.88529">
        <ele>54.93</ele>
        <time>2021-07-26T13:11:25Z</time>
      </trkpt>
      <trkpt lat="49.41536" lon="3.88339">
        <ele>50.13</ele>
        <time>2021-07-26T13:11:36Z</time>
      </trkpt>
      <trkpt lat="49.41826" lon="3.87974">
        <ele>50.61</ele>
        <time>2021-07-26T13:11:54Z</time>
      </trkpt>
      <trkpt lat="49.42145" lon="3.87574">
        <ele>55.89</ele>
        <time>2021-07-26T13:12:12Z</time>
      </trkpt>
      <trkpt lat="49.42543" lon="3.87072">
        <ele>59.26</ele>
        <time>2021-07-26T13:12:35Z</time>
      </trkpt>
      <trkpt lat="49.42877" lon="3.86654">
        <ele>64.07</ele>
        <time>2021-07-26T13:12:55Z</time>
      </trkpt>
      <trkpt lat="49.43057" lon="3.86428">
        <ele>65.99</ele>
        <time>2021-07-26T13:13:07Z</time>
      </trkpt>
      <trkpt lat="49.4329" lon="3.86135">
        <ele>67.43</ele>
        <time>2021-07-26T13:13:26Z</time>
      </trkpt>
      <trkpt lat="49.4349" lon="3.85883">
        <ele>67.43</ele>
        <time>2021-07-26T13:13:40Z</time>
      </trkpt>
      <trkpt lat="49.43769" lon="3.85532">
        <ele>66.95</ele>
        <time>2021-07-26T13:13:57Z</time>
      </trkpt>
      <trkpt lat="49.44072" lon="3.8515">
        <ele>66.47</ele>
        <time>2021-07-26T13:14:14Z</time>
      </trkpt>
      <trkpt lat="49.44257" lon="3.84917">
        <ele>68.87</ele>
        <time>2021-07-26T13:14:26Z</time>
      </trkpt>
      <trkpt lat="49.44563" lon="3.84532">
        <ele>71.76</ele>
        <time>2021-07-26T13:14:45Z</time>
      </trkpt>
      <trkpt lat="49.44841" lon="3.84182">
        <ele>72.24</ele>
        <time>2021-07-26T13:15:03Z</time>
      </trkpt>
      <trkpt lat="49.45087" lon="3.83873">
        <ele>74.16</ele>
        <time>2021-07-26T13:15:20Z</time>
      </trkpt>
      <trkpt lat="49.4533" lon="3.83567">
        <ele>77.52</ele>
        <time>2021-07-26T13:15:36Z</time>
      </trkpt>
      <trkpt lat="49.45528" lon="3.83317">
        <ele>78</ele>
        <time>2021-07-26T13:15:50Z</time>
      </trkpt>
      <trkpt lat="49.4573" lon="3.83063">
        <ele>76.08</ele>
        <time>2021-07-26T13:16:04Z</time>
      </trkpt>
      <trkpt lat="49.45837" lon="3.82929">
        <ele>77.04</ele>
        <time>2021-07-26T13:16:13Z</time>
      </trkpt>
      <trkpt lat="49.4609" lon="3.82609">
        <ele>85.69</ele>
        <time>2021-07-26T13:16:37Z</time>
      </trkpt>
      <trkpt lat="49.4623" lon="3.82431">
        <ele>88.1</ele>
        <time>2021-07-26T13:16:52Z</time>
      </trkpt>
      <trkpt lat="49.4626" lon="3.82395">
        <ele>87.14</ele>
        <time>2021-07-26T13:16:58Z</time>
      </trkpt>
      <trkpt lat="49.46268" lon="3.82384">
        <ele>87.62</ele>
        <time>2021-07-26T13:17:01Z</time>
      </trkpt>
      <trkpt lat="49.46269" lon="3.82383">
        <ele>87.62</ele>
        <time>2021-07-26T13:17:02Z</time>
      </trkpt>
      <trkpt lat="49.46268" lon="3.82384">
        <ele>87.62</ele>
        <time>2021-07-26T13:17:03Z</time>
      </trkpt>
      <trkpt lat="49.46264" lon="3.82382">
        <ele>87.62</ele>
        <time>2021-07-26T13:17:04Z</time>
      </trkpt>
      <trkpt lat="49.46263" lon="3.8238">
        <ele>87.62</ele>
        <time>2021-07-26T13:17:05Z</time>
      </trkpt>
      <trkpt lat="49.4626" lon="3.82377">
        <ele>87.62</ele>
        <time>2021-07-26T13:17:06Z</time>
      </trkpt>
      <trkpt lat="49.46257" lon="3.82372">
        <ele>87.14</ele>
        <time>2021-07-26T13:17:07Z</time>
      </trkpt>
      <trkpt lat="49.46228" lon="3.82326">
        <ele>87.14</ele>
        <time>2021-07-26T13:17:14Z</time>
      </trkpt>
      <trkpt lat="49.46224" lon="3.82319">
        <ele>87.14</ele>
        <time>2021-07-26T13:17:15Z</time>
      </trkpt>
      <trkpt lat="49.46221" lon="3.82309">
        <ele>87.14</ele>
        <time>2021-07-26T13:17:16Z</time>
      </trkpt>
      <trkpt lat="49.46218" lon="3.82299">
        <ele>87.14</ele>
        <time>2021-07-26T13:17:17Z</time>
      </trkpt>
      <trkpt lat="49.46216" lon="3.8229">
        <ele>87.14</ele>
        <time>2021-07-26T13:17:18Z</time>
      </trkpt>
      <trkpt lat="49.46214" lon="3.82282">
        <ele>87.14</ele>
        <time>2021-07-26T13:17:19Z</time>
      </trkpt>
      <trkpt lat="49.46194" lon="3.82171">
        <ele>88.1</ele>
        <time>2021-07-26T13:17:32Z</time>
      </trkpt>
      <trkpt lat="49.4617" lon="3.82008">
        <ele>88.58</ele>
        <time>2021-07-26T13:17:43Z</time>
      </trkpt>
      <trkpt lat="49.46166" lon="3.81956">
        <ele>88.1</ele>
        <time>2021-07-26T13:17:47Z</time>
      </trkpt>
      <trkpt lat="49.46164" lon="3.81943">
        <ele>88.1</ele>
        <time>2021-07-26T13:17:48Z</time>
      </trkpt>
      <trkpt lat="49.46161" lon="3.81932">
        <ele>88.1</ele>
        <time>2021-07-26T13:17:49Z</time>
      </trkpt>
      <trkpt lat="49.46158" lon="3.81921">
        <ele>87.62</ele>
        <time>2021-07-26T13:17:50Z</time>
      </trkpt>
      <trkpt lat="49.46154" lon="3.8191">
        <ele>87.62</ele>
        <time>2021-07-26T13:17:51Z</time>
      </trkpt>
      <trkpt lat="49.46148" lon="3.81901">
        <ele>87.14</ele>
        <time>2021-07-26T13:17:52Z</time>
      </trkpt>
      <trkpt lat="49.46142" lon="3.81893">
        <ele>86.66</ele>
        <time>2021-07-26T13:17:53Z</time>
      </trkpt>
      <trkpt lat="49.46115" lon="3.8186">
        <ele>84.73</ele>
        <time>2021-07-26T13:17:57Z</time>
      </trkpt>
      <trkpt lat="49.46106" lon="3.81854">
        <ele>84.25</ele>
        <time>2021-07-26T13:17:58Z</time>
      </trkpt>
      <trkpt lat="49.46096" lon="3.81848">
        <ele>82.81</ele>
        <time>2021-07-26T13:17:59Z</time>
      </trkpt>
      <trkpt lat="49.46087" lon="3.81843">
        <ele>80.89</ele>
        <time>2021-07-26T13:18:00Z</time>
      </trkpt>
      <trkpt lat="49.46075" lon="3.81842">
        <ele>79.45</ele>
        <time>2021-07-26T13:18:01Z</time>
      </trkpt>
      <trkpt lat="49.46063" lon="3.81842">
        <ele>78.48</ele>
        <time>2021-07-26T13:18:02Z</time>
      </trkpt>
      <trkpt lat="49.46052" lon="3.81843">
        <ele>78</ele>
        <time>2021-07-26T13:18:03Z</time>
      </trkpt>
      <trkpt lat="49.45887" lon="3.81854">
        <ele>69.83</ele>
        <time>2021-07-26T13:18:16Z</time>
      </trkpt>
      <trkpt lat="49.45835" lon="3.81839">
        <ele>69.35</ele>
        <time>2021-07-26T13:18:20Z</time>
      </trkpt>
      <trkpt lat="49.45835" lon="3.81839">
        <ele>69.35</ele>
        <time>2021-07-26T13:18:21Z</time>
      </trkpt>
      <trkpt lat="49.4582" lon="3.81827">
        <ele>70.31</ele>
        <time>2021-07-26T13:18:22Z</time>
      </trkpt>
      <trkpt lat="49.4582" lon="3.81827">
        <ele>70.31</ele>
        <time>2021-07-26T13:18:23Z</time>
      </trkpt>
      <trkpt lat="49.45814" lon="3.81818">
        <ele>70.31</ele>
        <time>2021-07-26T13:18:24Z</time>
      </trkpt>
      <trkpt lat="49.45753" lon="3.81715">
        <ele>70.31</ele>
        <time>2021-07-26T13:18:33Z</time>
      </trkpt>
      <trkpt lat="49.45651" lon="3.81424">
        <ele>67.91</ele>
        <time>2021-07-26T13:18:49Z</time>
      </trkpt>
      <trkpt lat="49.45596" lon="3.81273">
        <ele>66.95</ele>
        <time>2021-07-26T13:18:57Z</time>
      </trkpt>
      <trkpt lat="49.45588" lon="3.81257">
        <ele>66.95</ele>
        <time>2021-07-26T13:18:58Z</time>
      </trkpt>
      <trkpt lat="49.45579" lon="3.81243">
        <ele>66.95</ele>
        <time>2021-07-26T13:18:59Z</time>
      </trkpt>
      <trkpt lat="49.45436" lon="3.81056">
        <ele>67.91</ele>
        <time>2021-07-26T13:19:11Z</time>
      </trkpt>
      <trkpt lat="49.45254" lon="3.80817">
        <ele>69.83</ele>
        <time>2021-07-26T13:19:26Z</time>
      </trkpt>
      <trkpt lat="49.45245" lon="3.80802">
        <ele>69.83</ele>
        <time>2021-07-26T13:19:27Z</time>
      </trkpt>
      <trkpt lat="49.45238" lon="3.80784">
        <ele>70.79</ele>
        <time>2021-07-26T13:19:28Z</time>
      </trkpt>
      <trkpt lat="49.45231" lon="3.80765">
        <ele>71.76</ele>
        <time>2021-07-26T13:19:29Z</time>
      </trkpt>
      <trkpt lat="49.45226" lon="3.80745">
        <ele>72.24</ele>
        <time>2021-07-26T13:19:30Z</time>
      </trkpt>
      <trkpt lat="49.45154" lon="3.80455">
        <ele>73.2</ele>
        <time>2021-07-26T13:19:44Z</time>
      </trkpt>
      <trkpt lat="49.45137" lon="3.8042">
        <ele>74.16</ele>
        <time>2021-07-26T13:19:46Z</time>
      </trkpt>
      <trkpt lat="49.4513" lon="3.80403">
        <ele>73.2</ele>
        <time>2021-07-26T13:19:47Z</time>
      </trkpt>
      <trkpt lat="49.4512" lon="3.80389">
        <ele>73.2</ele>
        <time>2021-07-26T13:19:48Z</time>
      </trkpt>
      <trkpt lat="49.45001" lon="3.80233">
        <ele>74.16</ele>
        <time>2021-07-26T13:19:59Z</time>
      </trkpt>
      <trkpt lat="49.44905" lon="3.80105">
        <ele>77.52</ele>
        <time>2021-07-26T13:20:12Z</time>
      </trkpt>
      <trkpt lat="49.44901" lon="3.80097">
        <ele>78</ele>
        <time>2021-07-26T13:20:13Z</time>
      </trkpt>
      <trkpt lat="49.44895" lon="3.80074">
        <ele>78.97</ele>
        <time>2021-07-26T13:20:20Z</time>
      </trkpt>
      <trkpt lat="49.44873" lon="3.7999">
        <ele>80.89</ele>
        <time>2021-07-26T13:20:29Z</time>
      </trkpt>
      <trkpt lat="49.44828" lon="3.7982">
        <ele>88.1</ele>
        <time>2021-07-26T13:20:41Z</time>
      </trkpt>
      <trkpt lat="49.44759" lon="3.79548">
        <ele>102.04</ele>
        <time>2021-07-26T13:20:56Z</time>
      </trkpt>
      <trkpt lat="49.44723" lon="3.79406">
        <ele>111.17</ele>
        <time>2021-07-26T13:21:04Z</time>
      </trkpt>
      <trkpt lat="49.44718" lon="3.79395">
        <ele>112.13</ele>
        <time>2021-07-26T13:21:05Z</time>
      </trkpt>
      <trkpt lat="49.44712" lon="3.79385">
        <ele>113.09</ele>
        <time>2021-07-26T13:21:06Z</time>
      </trkpt>
      <trkpt lat="49.44705" lon="3.79375">
        <ele>113.09</ele>
        <time>2021-07-26T13:21:07Z</time>
      </trkpt>
      <trkpt lat="49.44696" lon="3.79364">
        <ele>113.09</ele>
        <time>2021-07-26T13:21:08Z</time>
      </trkpt>
      <trkpt lat="49.44583" lon="3.79264">
        <ele>115.5</ele>
        <time>2021-07-26T13:21:18Z</time>
      </trkpt>
      <trkpt lat="49.44541" lon="3.79217">
        <ele>116.46</ele>
        <time>2021-07-26T13:21:23Z</time>
      </trkpt>
      <trkpt lat="49.44488" lon="3.79102">
        <ele>123.67</ele>
        <time>2021-07-26T13:21:34Z</time>
      </trkpt>
      <trkpt lat="49.4448" lon="3.79083">
        <ele>122.71</ele>
        <time>2021-07-26T13:21:41Z</time>
      </trkpt>
      <trkpt lat="49.4446" lon="3.79016">
        <ele>119.82</ele>
        <time>2021-07-26T13:21:51Z</time>
      </trkpt>
      <trkpt lat="49.44425" lon="3.78864">
        <ele>109.25</ele>
        <time>2021-07-26T13:22:02Z</time>
      </trkpt>
      <trkpt lat="49.44402" lon="3.78768">
        <ele>104.92</ele>
        <time>2021-07-26T13:22:08Z</time>
      </trkpt>
      <trkpt lat="49.44397" lon="3.7876">
        <ele>103.96</ele>
        <time>2021-07-26T13:22:09Z</time>
      </trkpt>
      <trkpt lat="49.44397" lon="3.7876">
        <ele>103.48</ele>
        <time>2021-07-26T13:22:10Z</time>
      </trkpt>
      <trkpt lat="49.44392" lon="3.78752">
        <ele>102.52</ele>
        <time>2021-07-26T13:22:11Z</time>
      </trkpt>
      <trkpt lat="49.44385" lon="3.78744">
        <ele>102.04</ele>
        <time>2021-07-26T13:22:12Z</time>
      </trkpt>
      <trkpt lat="49.44317" lon="3.78679">
        <ele>94.35</ele>
        <time>2021-07-26T13:22:21Z</time>
      </trkpt>
      <trkpt lat="49.4431" lon="3.78674">
        <ele>93.87</ele>
        <time>2021-07-26T13:22:22Z</time>
      </trkpt>
      <trkpt lat="49.44301" lon="3.78673">
        <ele>91.46</ele>
        <time>2021-07-26T13:22:23Z</time>
      </trkpt>
      <trkpt lat="49.4429" lon="3.78672">
        <ele>89.54</ele>
        <time>2021-07-26T13:22:24Z</time>
      </trkpt>
      <trkpt lat="49.44279" lon="3.78671">
        <ele>89.54</ele>
        <time>2021-07-26T13:22:25Z</time>
      </trkpt>
      <trkpt lat="49.44268" lon="3.7867">
        <ele>89.54</ele>
        <time>2021-07-26T13:22:26Z</time>
      </trkpt>
      <trkpt lat="49.44176" lon="3.78708">
        <ele>90.5</ele>
        <time>2021-07-26T13:22:36Z</time>
      </trkpt>
      <trkpt lat="49.44168" lon="3.78712">
        <ele>90.5</ele>
        <time>2021-07-26T13:22:37Z</time>
      </trkpt>
      <trkpt lat="49.4416" lon="3.78716">
        <ele>90.5</ele>
        <time>2021-07-26T13:22:38Z</time>
      </trkpt>
      <trkpt lat="49.44153" lon="3.78717">
        <ele>90.5</ele>
        <time>2021-07-26T13:22:39Z</time>
      </trkpt>
      <trkpt lat="49.44145" lon="3.78717">
        <ele>90.02</ele>
        <time>2021-07-26T13:22:40Z</time>
      </trkpt>
      <trkpt lat="49.44136" lon="3.78717">
        <ele>90.02</ele>
        <time>2021-07-26T13:22:41Z</time>
      </trkpt>
      <trkpt lat="49.44126" lon="3.78715">
        <ele>89.54</ele>
        <time>2021-07-26T13:22:42Z</time>
      </trkpt>
      <trkpt lat="49.44038" lon="3.78677">
        <ele>87.62</ele>
        <time>2021-07-26T13:22:54Z</time>
      </trkpt>
    </trkseg>
  </trk>
  <trk>
    <name><![CDATA[Journal actif: 2021-07-26 11:23]]></name>
    <trkseg>
      <trkpt lat="49.43988" lon="3.78653">
        <ele>85.21</ele>
        <time>2021-07-26T13:23:02Z</time>
      </trkpt>
      <trkpt lat="49.43894" lon="3.78595">
        <ele>81.37</ele>
        <time>2021-07-26T13:23:17Z</time>
      </trkpt>
      <trkpt lat="49.43868" lon="3.78544">
        <ele>79.93</ele>
        <time>2021-07-26T13:23:28Z</time>
      </trkpt>
      <trkpt lat="49.43823" lon="3.78387">
        <ele>79.93</ele>
        <time>2021-07-26T13:23:44Z</time>
      </trkpt>
      <trkpt lat="49.43814" lon="3.78367">
        <ele>80.41</ele>
        <time>2021-07-26T13:23:53Z</time>
      </trkpt>
      <trkpt lat="49.43813" lon="3.78365">
        <ele>80.41</ele>
        <time>2021-07-26T13:23:54Z</time>
      </trkpt>
      <trkpt lat="49.43813" lon="3.78364">
        <ele>80.41</ele>
        <time>2021-07-26T13:23:55Z</time>
      </trkpt>
      <trkpt lat="49.43809" lon="3.78372">
        <ele>79.93</ele>
        <time>2021-07-26T13:24:07Z</time>
      </trkpt>
      <trkpt lat="49.43811" lon="3.78369">
        <ele>79.93</ele>
        <time>2021-07-26T13:25:36Z</time>
      </trkpt>
      <trkpt lat="49.43792" lon="3.78325">
        <ele>81.37</ele>
        <time>2021-07-26T13:25:45Z</time>
      </trkpt>
      <trkpt lat="49.4374" lon="3.78228">
        <ele>85.69</ele>
        <time>2021-07-26T13:25:53Z</time>
      </trkpt>
      <trkpt lat="49.43732" lon="3.78215">
        <ele>86.18</ele>
        <time>2021-07-26T13:25:54Z</time>
      </trkpt>
      <trkpt lat="49.4372" lon="3.78201">
        <ele>87.14</ele>
        <time>2021-07-26T13:25:55Z</time>
      </trkpt>
      <trkpt lat="49.4371" lon="3.78189">
        <ele>87.62</ele>
        <time>2021-07-26T13:25:56Z</time>
      </trkpt>
      <trkpt lat="49.43684" lon="3.78171">
        <ele>88.1</ele>
        <time>2021-07-26T13:25:57Z</time>
      </trkpt>
      <trkpt lat="49.43684" lon="3.78171">
        <ele>89.06</ele>
        <time>2021-07-26T13:25:58Z</time>
      </trkpt>
      <trkpt lat="49.43671" lon="3.78162">
        <ele>90.5</ele>
        <time>2021-07-26T13:25:59Z</time>
      </trkpt>
      <trkpt lat="49.43458" lon="3.78065">
        <ele>91.46</ele>
        <time>2021-07-26T13:26:16Z</time>
      </trkpt>
      <trkpt lat="49.43354" lon="3.77976">
        <ele>88.1</ele>
        <time>2021-07-26T13:26:25Z</time>
      </trkpt>
      <trkpt lat="49.43345" lon="3.77966">
        <ele>88.1</ele>
        <time>2021-07-26T13:26:26Z</time>
      </trkpt>
      <trkpt lat="49.43339" lon="3.77954">
        <ele>88.58</ele>
        <time>2021-07-26T13:26:27Z</time>
      </trkpt>
      <trkpt lat="49.43333" lon="3.7794">
        <ele>88.58</ele>
        <time>2021-07-26T13:26:28Z</time>
      </trkpt>
      <trkpt lat="49.43327" lon="3.77925">
        <ele>88.1</ele>
        <time>2021-07-26T13:26:29Z</time>
      </trkpt>
      <trkpt lat="49.43324" lon="3.77911">
        <ele>88.1</ele>
        <time>2021-07-26T13:26:30Z</time>
      </trkpt>
      <trkpt lat="49.43262" lon="3.77671">
        <ele>85.21</ele>
        <time>2021-07-26T13:26:45Z</time>
      </trkpt>
      <trkpt lat="49.43199" lon="3.77516">
        <ele>89.06</ele>
        <time>2021-07-26T13:26:56Z</time>
      </trkpt>
      <trkpt lat="49.43175" lon="3.77464">
        <ele>90.5</ele>
        <time>2021-07-26T13:27:04Z</time>
      </trkpt>
      <trkpt lat="49.43174" lon="3.77462">
        <ele>90.5</ele>
        <time>2021-07-26T13:27:05Z</time>
      </trkpt>
      <trkpt lat="49.43168" lon="3.77472">
        <ele>90.02</ele>
        <time>2021-07-26T13:27:21Z</time>
      </trkpt>
      <trkpt lat="49.4317" lon="3.7747">
        <ele>90.02</ele>
        <time>2021-07-26T13:27:29Z</time>
      </trkpt>
      <trkpt lat="49.43177" lon="3.77468">
        <ele>89.54</ele>
        <time>2021-07-26T13:27:32Z</time>
      </trkpt>
      <trkpt lat="49.43209" lon="3.77538">
        <ele>88.1</ele>
        <time>2021-07-26T13:27:44Z</time>
      </trkpt>
      <trkpt lat="49.43265" lon="3.77679">
        <ele>87.14</ele>
        <time>2021-07-26T13:27:54Z</time>
      </trkpt>
      <trkpt lat="49.43281" lon="3.7773">
        <ele>86.66</ele>
        <time>2021-07-26T13:27:59Z</time>
      </trkpt>
      <trkpt lat="49.43282" lon="3.77736">
        <ele>87.14</ele>
        <time>2021-07-26T13:28:09Z</time>
      </trkpt>
      <trkpt lat="49.43282" lon="3.77736">
        <ele>87.14</ele>
        <time>2021-07-26T13:28:48Z</time>
      </trkpt>
      <trkpt lat="49.43283" lon="3.77738">
        <ele>87.14</ele>
        <time>2021-07-26T13:28:49Z</time>
      </trkpt>
      <trkpt lat="49.43283" lon="3.77741">
        <ele>87.14</ele>
        <time>2021-07-26T13:28:50Z</time>
      </trkpt>
      <trkpt lat="49.43285" lon="3.77745">
        <ele>87.14</ele>
        <time>2021-07-26T13:28:51Z</time>
      </trkpt>
      <trkpt lat="49.43286" lon="3.77751">
        <ele>87.14</ele>
        <time>2021-07-26T13:28:52Z</time>
      </trkpt>
      <trkpt lat="49.4331" lon="3.77853">
        <ele>86.66</ele>
        <time>2021-07-26T13:29:01Z</time>
      </trkpt>
      <trkpt lat="49.43335" lon="3.77944">
        <ele>86.66</ele>
        <time>2021-07-26T13:29:06Z</time>
      </trkpt>
      <trkpt lat="49.43335" lon="3.77944">
        <ele>87.14</ele>
        <time>2021-07-26T13:29:07Z</time>
      </trkpt>
      <trkpt lat="49.43341" lon="3.77959">
        <ele>88.1</ele>
        <time>2021-07-26T13:29:08Z</time>
      </trkpt>
      <trkpt lat="49.43348" lon="3.77969">
        <ele>88.1</ele>
        <time>2021-07-26T13:29:09Z</time>
      </trkpt>
      <trkpt lat="49.4337" lon="3.77995">
        <ele>87.62</ele>
        <time>2021-07-26T13:29:10Z</time>
      </trkpt>
      <trkpt lat="49.4337" lon="3.77995">
        <ele>87.14</ele>
        <time>2021-07-26T13:29:11Z</time>
      </trkpt>
      <trkpt lat="49.43487" lon="3.78079">
        <ele>92.42</ele>
        <time>2021-07-26T13:29:19Z</time>
      </trkpt>
      <trkpt lat="49.43675" lon="3.78164">
        <ele>85.21</ele>
        <time>2021-07-26T13:29:32Z</time>
      </trkpt>
      <trkpt lat="49.43701" lon="3.78183">
        <ele>84.25</ele>
        <time>2021-07-26T13:29:34Z</time>
      </trkpt>
      <trkpt lat="49.43714" lon="3.78193">
        <ele>83.77</ele>
        <time>2021-07-26T13:29:35Z</time>
      </trkpt>
      <trkpt lat="49.43725" lon="3.78207">
        <ele>82.81</ele>
        <time>2021-07-26T13:29:36Z</time>
      </trkpt>
      <trkpt lat="49.43736" lon="3.7822">
        <ele>81.37</ele>
        <time>2021-07-26T13:29:37Z</time>
      </trkpt>
      <trkpt lat="49.43745" lon="3.78236">
        <ele>80.41</ele>
        <time>2021-07-26T13:29:38Z</time>
      </trkpt>
      <trkpt lat="49.43834" lon="3.78418">
        <ele>77.04</ele>
        <time>2021-07-26T13:29:49Z</time>
      </trkpt>
      <trkpt lat="49.43874" lon="3.78564">
        <ele>79.93</ele>
        <time>2021-07-26T13:29:58Z</time>
      </trkpt>
      <trkpt lat="49.43879" lon="3.78574">
        <ele>80.41</ele>
        <time>2021-07-26T13:29:59Z</time>
      </trkpt>
      <trkpt lat="49.43885" lon="3.78585">
        <ele>81.37</ele>
        <time>2021-07-26T13:30:00Z</time>
      </trkpt>
      <trkpt lat="49.43892" lon="3.78593">
        <ele>81.37</ele>
        <time>2021-07-26T13:30:01Z</time>
      </trkpt>
      <trkpt lat="49.43901" lon="3.78602">
        <ele>81.37</ele>
        <time>2021-07-26T13:30:02Z</time>
      </trkpt>
      <trkpt lat="49.43915" lon="3.78617">
        <ele>81.37</ele>
        <time>2021-07-26T13:30:03Z</time>
      </trkpt>
      <trkpt lat="49.43915" lon="3.78617">
        <ele>81.37</ele>
        <time>2021-07-26T13:30:04Z</time>
      </trkpt>
      <trkpt lat="49.43926" lon="3.78622">
        <ele>81.37</ele>
        <time>2021-07-26T13:30:05Z</time>
      </trkpt>
      <trkpt lat="49.44087" lon="3.78701">
        <ele>88.58</ele>
        <time>2021-07-26T13:30:22Z</time>
      </trkpt>
      <trkpt lat="49.44135" lon="3.78717">
        <ele>91.46</ele>
        <time>2021-07-26T13:30:27Z</time>
      </trkpt>
      <trkpt lat="49.44145" lon="3.78717">
        <ele>91.94</ele>
        <time>2021-07-26T13:30:28Z</time>
      </trkpt>
      <trkpt lat="49.44156" lon="3.78717">
        <ele>91.94</ele>
        <time>2021-07-26T13:30:29Z</time>
      </trkpt>
      <trkpt lat="49.44165" lon="3.78714">
        <ele>91.94</ele>
        <time>2021-07-26T13:30:30Z</time>
      </trkpt>
      <trkpt lat="49.44174" lon="3.78709">
        <ele>92.42</ele>
        <time>2021-07-26T13:30:31Z</time>
      </trkpt>
      <trkpt lat="49.44183" lon="3.78704">
        <ele>92.9</ele>
        <time>2021-07-26T13:30:32Z</time>
      </trkpt>
      <trkpt lat="49.44201" lon="3.78695">
        <ele>92.42</ele>
        <time>2021-07-26T13:30:33Z</time>
      </trkpt>
      <trkpt lat="49.4424" lon="3.78677">
        <ele>93.39</ele>
        <time>2021-07-26T13:30:37Z</time>
      </trkpt>
      <trkpt lat="49.4424" lon="3.78677">
        <ele>93.87</ele>
        <time>2021-07-26T13:30:38Z</time>
      </trkpt>
      <trkpt lat="49.44292" lon="3.78673">
        <ele>96.75</ele>
        <time>2021-07-26T13:30:43Z</time>
      </trkpt>
      <trkpt lat="49.44314" lon="3.78676">
        <ele>97.71</ele>
        <time>2021-07-26T13:30:44Z</time>
      </trkpt>
      <trkpt lat="49.44314" lon="3.78676">
        <ele>97.71</ele>
        <time>2021-07-26T13:30:45Z</time>
      </trkpt>
      <trkpt lat="49.44323" lon="3.78683">
        <ele>97.23</ele>
        <time>2021-07-26T13:30:46Z</time>
      </trkpt>
      <trkpt lat="49.44333" lon="3.7869">
        <ele>97.71</ele>
        <time>2021-07-26T13:30:47Z</time>
      </trkpt>
      <trkpt lat="49.44341" lon="3.78696">
        <ele>97.71</ele>
        <time>2021-07-26T13:30:48Z</time>
      </trkpt>
      <trkpt lat="49.44391" lon="3.78751">
        <ele>101.56</ele>
        <time>2021-07-26T13:30:58Z</time>
      </trkpt>
      <trkpt lat="49.44395" lon="3.78756">
        <ele>102.52</ele>
        <time>2021-07-26T13:30:59Z</time>
      </trkpt>
      <trkpt lat="49.44395" lon="3.78756">
        <ele>102.52</ele>
        <time>2021-07-26T13:31:00Z</time>
      </trkpt>
      <trkpt lat="49.44398" lon="3.78761">
        <ele>102.04</ele>
        <time>2021-07-26T13:31:01Z</time>
      </trkpt>
      <trkpt lat="49.44399" lon="3.78764">
        <ele>102.04</ele>
        <time>2021-07-26T13:31:02Z</time>
      </trkpt>
      <trkpt lat="49.44401" lon="3.78766">
        <ele>102.04</ele>
        <time>2021-07-26T13:31:03Z</time>
      </trkpt>
      <trkpt lat="49.44401" lon="3.78768">
        <ele>102.04</ele>
        <time>2021-07-26T13:31:22Z</time>
      </trkpt>
      <trkpt lat="49.44401" lon="3.78768">
        <ele>102.04</ele>
        <time>2021-07-26T13:36:42Z</time>
      </trkpt>
      <trkpt lat="49.44406" lon="3.78775">
        <ele>102.04</ele>
        <time>2021-07-26T13:36:47Z</time>
      </trkpt>
      <trkpt lat="49.44407" lon="3.7878">
        <ele>102.52</ele>
        <time>2021-07-26T13:36:48Z</time>
      </trkpt>
      <trkpt lat="49.44425" lon="3.78866">
        <ele>104.92</ele>
        <time>2021-07-26T13:36:57Z</time>
      </trkpt>
      <trkpt lat="49.44454" lon="3.78996">
        <ele>111.17</ele>
        <time>2021-07-26T13:37:09Z</time>
      </trkpt>
      <trkpt lat="49.44475" lon="3.79067">
        <ele>117.42</ele>
        <time>2021-07-26T13:37:19Z</time>
      </trkpt>
      <trkpt lat="49.44485" lon="3.79066">
        <ele>118.38</ele>
        <time>2021-07-26T13:37:26Z</time>
      </trkpt>
      <trkpt lat="49.44502" lon="3.7905">
        <ele>121.26</ele>
        <time>2021-07-26T13:37:36Z</time>
      </trkpt>
      <trkpt lat="49.44515" lon="3.79037">
        <ele>122.22</ele>
        <time>2021-07-26T13:37:38Z</time>
      </trkpt>
      <trkpt lat="49.44515" lon="3.79037">
        <ele>122.71</ele>
        <time>2021-07-26T13:37:39Z</time>
      </trkpt>
      <trkpt lat="49.44518" lon="3.79033">
        <ele>123.19</ele>
        <time>2021-07-26T13:37:40Z</time>
      </trkpt>
      <trkpt lat="49.44522" lon="3.79026">
        <ele>123.67</ele>
        <time>2021-07-26T13:37:41Z</time>
      </trkpt>
      <trkpt lat="49.44525" lon="3.79019">
        <ele>124.15</ele>
        <time>2021-07-26T13:37:42Z</time>
      </trkpt>
      <trkpt lat="49.44532" lon="3.79006">
        <ele>125.11</ele>
        <time>2021-07-26T13:37:44Z</time>
      </trkpt>
      <trkpt lat="49.44535" lon="3.79">
        <ele>125.59</ele>
        <time>2021-07-26T13:37:45Z</time>
      </trkpt>
      <trkpt lat="49.44553" lon="3.78956">
        <ele>126.55</ele>
        <time>2021-07-26T13:37:56Z</time>
      </trkpt>
      <trkpt lat="49.44557" lon="3.78939">
        <ele>128.47</ele>
        <time>2021-07-26T13:38:08Z</time>
      </trkpt>
      <trkpt lat="49.4456" lon="3.78924">
        <ele>130.88</ele>
        <time>2021-07-26T13:38:18Z</time>
      </trkpt>
      <trkpt lat="49.4456" lon="3.78924">
        <ele>130.88</ele>
        <time>2021-07-26T13:48:52Z</time>
      </trkpt>
      <trkpt lat="49.4456" lon="3.78924">
        <ele>131.36</ele>
        <time>2021-07-26T13:48:53Z</time>
      </trkpt>
      <trkpt lat="49.4456" lon="3.78923">
        <ele>131.36</ele>
        <time>2021-07-26T13:48:56Z</time>
      </trkpt>
      <trkpt lat="49.4456" lon="3.78919">
        <ele>131.36</ele>
        <time>2021-07-26T13:48:57Z</time>
      </trkpt>
      <trkpt lat="49.44561" lon="3.78916">
        <ele>131.36</ele>
        <time>2021-07-26T13:48:58Z</time>
      </trkpt>
      <trkpt lat="49.44566" lon="3.78888">
        <ele>131.84</ele>
        <time>2021-07-26T13:49:06Z</time>
      </trkpt>
      <trkpt lat="49.44567" lon="3.78884">
        <ele>131.84</ele>
        <time>2021-07-26T13:49:07Z</time>
      </trkpt>
      <trkpt lat="49.44567" lon="3.78881">
        <ele>131.84</ele>
        <time>2021-07-26T13:49:08Z</time>
      </trkpt>
      <trkpt lat="49.44568" lon="3.78879">
        <ele>132.32</ele>
        <time>2021-07-26T13:49:09Z</time>
      </trkpt>
      <trkpt lat="49.44568" lon="3.78877">
        <ele>132.32</ele>
        <time>2021-07-26T13:49:10Z</time>
      </trkpt>
      <trkpt lat="49.44568" lon="3.78875">
        <ele>132.32</ele>
        <time>2021-07-26T13:49:11Z</time>
      </trkpt>
      <trkpt lat="49.44569" lon="3.78873">
        <ele>133.28</ele>
        <time>2021-07-26T13:49:12Z</time>
      </trkpt>
      <trkpt lat="49.44569" lon="3.7887">
        <ele>133.28</ele>
        <time>2021-07-26T13:49:13Z</time>
      </trkpt>
      <trkpt lat="49.4457" lon="3.78865">
        <ele>133.76</ele>
        <time>2021-07-26T13:49:14Z</time>
      </trkpt>
      <trkpt lat="49.44572" lon="3.78858">
        <ele>134.24</ele>
        <time>2021-07-26T13:49:15Z</time>
      </trkpt>
      <trkpt lat="49.44579" lon="3.78819">
        <ele>135.68</ele>
        <time>2021-07-26T13:49:20Z</time>
      </trkpt>
      <trkpt lat="49.4458" lon="3.7881">
        <ele>136.16</ele>
        <time>2021-07-26T13:49:21Z</time>
      </trkpt>
      <trkpt lat="49.44582" lon="3.78802">
        <ele>136.16</ele>
        <time>2021-07-26T13:49:22Z</time>
      </trkpt>
      <trkpt lat="49.44586" lon="3.78793">
        <ele>136.64</ele>
        <time>2021-07-26T13:49:23Z</time>
      </trkpt>
      <trkpt lat="49.44591" lon="3.78784">
        <ele>137.13</ele>
        <time>2021-07-26T13:49:24Z</time>
      </trkpt>
      <trkpt lat="49.44595" lon="3.78775">
        <ele>137.61</ele>
        <time>2021-07-26T13:49:25Z</time>
      </trkpt>
      <trkpt lat="49.44604" lon="3.78755">
        <ele>138.57</ele>
        <time>2021-07-26T13:49:27Z</time>
      </trkpt>
      <trkpt lat="49.44609" lon="3.78746">
        <ele>138.57</ele>
        <time>2021-07-26T13:49:28Z</time>
      </trkpt>
      <trkpt lat="49.44613" lon="3.78736">
        <ele>139.05</ele>
        <time>2021-07-26T13:49:29Z</time>
      </trkpt>
      <trkpt lat="49.44618" lon="3.78724">
        <ele>139.05</ele>
        <time>2021-07-26T13:49:30Z</time>
      </trkpt>
      <trkpt lat="49.4462" lon="3.78713">
        <ele>140.01</ele>
        <time>2021-07-26T13:49:31Z</time>
      </trkpt>
      <trkpt lat="49.44624" lon="3.78687">
        <ele>141.45</ele>
        <time>2021-07-26T13:49:33Z</time>
      </trkpt>
      <trkpt lat="49.44626" lon="3.78674">
        <ele>141.45</ele>
        <time>2021-07-26T13:49:34Z</time>
      </trkpt>
      <trkpt lat="49.44626" lon="3.78659">
        <ele>141.93</ele>
        <time>2021-07-26T13:49:35Z</time>
      </trkpt>
      <trkpt lat="49.44624" lon="3.78645">
        <ele>142.41</ele>
        <time>2021-07-26T13:49:36Z</time>
      </trkpt>
      <trkpt lat="49.44622" lon="3.78631">
        <ele>142.41</ele>
        <time>2021-07-26T13:49:37Z</time>
      </trkpt>
      <trkpt lat="49.4462" lon="3.78617">
        <ele>142.89</ele>
        <time>2021-07-26T13:49:38Z</time>
      </trkpt>
      <trkpt lat="49.44616" lon="3.78602">
        <ele>143.37</ele>
        <time>2021-07-26T13:49:39Z</time>
      </trkpt>
      <trkpt lat="49.44613" lon="3.78586">
        <ele>143.85</ele>
        <time>2021-07-26T13:49:40Z</time>
      </trkpt>
      <trkpt lat="49.44542" lon="3.78353">
        <ele>153.95</ele>
        <time>2021-07-26T13:49:55Z</time>
      </trkpt>
      <trkpt lat="49.44495" lon="3.78119">
        <ele>165.48</ele>
        <time>2021-07-26T13:50:11Z</time>
      </trkpt>
      <trkpt lat="49.44482" lon="3.78002">
        <ele>170.77</ele>
        <time>2021-07-26T13:50:20Z</time>
      </trkpt>
      <trkpt lat="49.44482" lon="3.77994">
        <ele>171.25</ele>
        <time>2021-07-26T13:50:21Z</time>
      </trkpt>
      <trkpt lat="49.44481" lon="3.77983">
        <ele>170.77</ele>
        <time>2021-07-26T13:50:22Z</time>
      </trkpt>
      <trkpt lat="49.44481" lon="3.77983">
        <ele>171.25</ele>
        <time>2021-07-26T13:50:23Z</time>
      </trkpt>
      <trkpt lat="49.44481" lon="3.7798">
        <ele>171.25</ele>
        <time>2021-07-26T13:50:24Z</time>
      </trkpt>
      <trkpt lat="49.44481" lon="3.77976">
        <ele>171.25</ele>
        <time>2021-07-26T13:50:25Z</time>
      </trkpt>
      <trkpt lat="49.44481" lon="3.77976">
        <ele>171.25</ele>
        <time>2021-07-26T13:50:26Z</time>
      </trkpt>
      <trkpt lat="49.44506" lon="3.77949">
        <ele>171.73</ele>
        <time>2021-07-26T13:50:36Z</time>
      </trkpt>
      <trkpt lat="49.44504" lon="3.77944">
        <ele>171.73</ele>
        <time>2021-07-26T13:50:46Z</time>
      </trkpt>
      <trkpt lat="49.44506" lon="3.77946">
        <ele>171.73</ele>
        <time>2021-07-26T14:01:53Z</time>
      </trkpt>
      <trkpt lat="49.44506" lon="3.77948">
        <ele>171.73</ele>
        <time>2021-07-26T14:08:04Z</time>
      </trkpt>
      <trkpt lat="49.44506" lon="3.77949">
        <ele>171.25</ele>
        <time>2021-07-26T14:14:51Z</time>
      </trkpt>
      <trkpt lat="49.44507" lon="3.77949">
        <ele>170.77</ele>
        <time>2021-07-26T14:23:55Z</time>
      </trkpt>
      <trkpt lat="49.44507" lon="3.77949">
        <ele>170.77</ele>
        <time>2021-07-26T14:28:03Z</time>
      </trkpt>
      <trkpt lat="49.44507" lon="3.77948">
        <ele>171.25</ele>
        <time>2021-07-26T14:30:24Z</time>
      </trkpt>
      <trkpt lat="49.44506" lon="3.77948">
        <ele>170.77</ele>
        <time>2021-07-26T14:33:41Z</time>
      </trkpt>
      <trkpt lat="49.44506" lon="3.77949">
        <ele>170.29</ele>
        <time>2021-07-26T14:37:57Z</time>
      </trkpt>
      <trkpt lat="49.44506" lon="3.77948">
        <ele>170.29</ele>
        <time>2021-07-26T14:41:33Z</time>
      </trkpt>
      <trkpt lat="49.44505" lon="3.77948">
        <ele>170.29</ele>
        <time>2021-07-26T14:45:31Z</time>
      </trkpt>
      <trkpt lat="49.44505" lon="3.77948">
        <ele>169.81</ele>
        <time>2021-07-26T14:50:23Z</time>
      </trkpt>
      <trkpt lat="49.44505" lon="3.77948">
        <ele>169.81</ele>
        <time>2021-07-26T14:55:42Z</time>
      </trkpt>
      <trkpt lat="49.44505" lon="3.77949">
        <ele>169.33</ele>
        <time>2021-07-26T15:00:05Z</time>
      </trkpt>
      <trkpt lat="49.44505" lon="3.7795">
        <ele>169.33</ele>
        <time>2021-07-26T15:03:00Z</time>
      </trkpt>
      <trkpt lat="49.44505" lon="3.77951">
        <ele>168.85</ele>
        <time>2021-07-26T15:07:52Z</time>
      </trkpt>
      <trkpt lat="49.44505" lon="3.77951">
        <ele>167.89</ele>
        <time>2021-07-26T15:12:13Z</time>
      </trkpt>
      <trkpt lat="49.44506" lon="3.7795">
        <ele>167.89</ele>
        <time>2021-07-26T15:21:19Z</time>
      </trkpt>
      <trkpt lat="49.44506" lon="3.7795">
        <ele>168.37</ele>
        <time>2021-07-26T15:30:32Z</time>
      </trkpt>
      <trkpt lat="49.44505" lon="3.7795">
        <ele>168.37</ele>
        <time>2021-07-26T15:33:42Z</time>
      </trkpt>
      <trkpt lat="49.44505" lon="3.77948">
        <ele>168.85</ele>
        <time>2021-07-26T15:40:26Z</time>
      </trkpt>
      <trkpt lat="49.44505" lon="3.77946">
        <ele>168.85</ele>
        <time>2021-07-26T15:44:52Z</time>
      </trkpt>
      <trkpt lat="49.44505" lon="3.77946">
        <ele>168.85</ele>
        <time>2021-07-26T15:49:00Z</time>
      </trkpt>
      <trkpt lat="49.44506" lon="3.77948">
        <ele>168.85</ele>
        <time>2021-07-26T15:52:59Z</time>
      </trkpt>
      <trkpt lat="49.44506" lon="3.77948">
        <ele>168.85</ele>
        <time>2021-07-26T15:54:47Z</time>
      </trkpt>
      <trkpt lat="49.44479" lon="3.77944">
        <ele>169.33</ele>
        <time>2021-07-26T15:55:32Z</time>
      </trkpt>
      <trkpt lat="49.44478" lon="3.77911">
        <ele>171.25</ele>
        <time>2021-07-26T15:55:42Z</time>
      </trkpt>
      <trkpt lat="49.44477" lon="3.77905">
        <ele>171.73</ele>
        <time>2021-07-26T15:55:43Z</time>
      </trkpt>
      <trkpt lat="49.44472" lon="3.77807">
        <ele>173.17</ele>
        <time>2021-07-26T15:55:55Z</time>
      </trkpt>
      <trkpt lat="49.44465" lon="3.7768">
        <ele>177.02</ele>
        <time>2021-07-26T15:56:07Z</time>
      </trkpt>
      <trkpt lat="49.4446" lon="3.77599">
        <ele>177.5</ele>
        <time>2021-07-26T15:56:20Z</time>
      </trkpt>
      <trkpt lat="49.44452" lon="3.77495">
        <ele>177.5</ele>
        <time>2021-07-26T15:56:32Z</time>
      </trkpt>
      <trkpt lat="49.44434" lon="3.77342">
        <ele>181.83</ele>
        <time>2021-07-26T15:56:48Z</time>
      </trkpt>
      <trkpt lat="49.44384" lon="3.77169">
        <ele>181.83</ele>
        <time>2021-07-26T15:57:03Z</time>
      </trkpt>
      <trkpt lat="49.44317" lon="3.76985">
        <ele>181.35</ele>
        <time>2021-07-26T15:57:17Z</time>
      </trkpt>
      <trkpt lat="49.44244" lon="3.76873">
        <ele>180.38</ele>
        <time>2021-07-26T15:57:27Z</time>
      </trkpt>
      <trkpt lat="49.44161" lon="3.76717">
        <ele>183.75</ele>
        <time>2021-07-26T15:57:38Z</time>
      </trkpt>
      <trkpt lat="49.44092" lon="3.76515">
        <ele>187.59</ele>
        <time>2021-07-26T15:57:52Z</time>
      </trkpt>
      <trkpt lat="49.4407" lon="3.7645">
        <ele>188.08</ele>
        <time>2021-07-26T15:58:00Z</time>
      </trkpt>
      <trkpt lat="49.44037" lon="3.76453">
        <ele>188.56</ele>
        <time>2021-07-26T15:58:09Z</time>
      </trkpt>
      <trkpt lat="49.43991" lon="3.76456">
        <ele>189.04</ele>
        <time>2021-07-26T15:58:26Z</time>
      </trkpt>
      <trkpt lat="49.43988" lon="3.76463">
        <ele>189.52</ele>
        <time>2021-07-26T15:58:30Z</time>
      </trkpt>
      <trkpt lat="49.43989" lon="3.76466">
        <ele>189.52</ele>
        <time>2021-07-26T15:58:51Z</time>
      </trkpt>
      <trkpt lat="49.44" lon="3.76461">
        <ele>189.04</ele>
        <time>2021-07-26T16:00:44Z</time>
      </trkpt>
      <trkpt lat="49.44052" lon="3.76453">
        <ele>187.11</ele>
        <time>2021-07-26T16:01:01Z</time>
      </trkpt>
      <trkpt lat="49.44066" lon="3.7644">
        <ele>186.63</ele>
        <time>2021-07-26T16:01:08Z</time>
      </trkpt>
      <trkpt lat="49.44065" lon="3.76436">
        <ele>186.63</ele>
        <time>2021-07-26T16:01:09Z</time>
      </trkpt>
      <trkpt lat="49.44063" lon="3.76431">
        <ele>186.15</ele>
        <time>2021-07-26T16:01:10Z</time>
      </trkpt>
      <trkpt lat="49.44032" lon="3.76341">
        <ele>184.71</ele>
        <time>2021-07-26T16:01:19Z</time>
      </trkpt>
      <trkpt lat="49.43965" lon="3.76126">
        <ele>181.83</ele>
        <time>2021-07-26T16:01:31Z</time>
      </trkpt>
      <trkpt lat="49.43934" lon="3.75916">
        <ele>179.9</ele>
        <time>2021-07-26T16:01:41Z</time>
      </trkpt>
      <trkpt lat="49.43895" lon="3.75608">
        <ele>183.27</ele>
        <time>2021-07-26T16:01:55Z</time>
      </trkpt>
      <trkpt lat="49.43824" lon="3.75218">
        <ele>185.67</ele>
        <time>2021-07-26T16:02:13Z</time>
      </trkpt>
      <trkpt lat="49.43788" lon="3.74965">
        <ele>187.59</ele>
        <time>2021-07-26T16:02:26Z</time>
      </trkpt>
      <trkpt lat="49.43787" lon="3.74882">
        <ele>188.08</ele>
        <time>2021-07-26T16:02:33Z</time>
      </trkpt>
      <trkpt lat="49.43792" lon="3.74774">
        <ele>188.08</ele>
        <time>2021-07-26T16:02:43Z</time>
      </trkpt>
      <trkpt lat="49.43811" lon="3.74579">
        <ele>186.15</ele>
        <time>2021-07-26T16:02:54Z</time>
      </trkpt>
      <trkpt lat="49.43823" lon="3.74373">
        <ele>182.31</ele>
        <time>2021-07-26T16:03:06Z</time>
      </trkpt>
      <trkpt lat="49.43823" lon="3.74361">
        <ele>182.31</ele>
        <time>2021-07-26T16:03:07Z</time>
      </trkpt>
      <trkpt lat="49.43822" lon="3.74349">
        <ele>181.83</ele>
        <time>2021-07-26T16:03:08Z</time>
      </trkpt>
      <trkpt lat="49.43822" lon="3.74338">
        <ele>181.35</ele>
        <time>2021-07-26T16:03:09Z</time>
      </trkpt>
      <trkpt lat="49.4382" lon="3.74329">
        <ele>180.87</ele>
        <time>2021-07-26T16:03:10Z</time>
      </trkpt>
      <trkpt lat="49.43818" lon="3.74321">
        <ele>180.38</ele>
        <time>2021-07-26T16:03:11Z</time>
      </trkpt>
      <trkpt lat="49.43816" lon="3.74312">
        <ele>180.87</ele>
        <time>2021-07-26T16:03:12Z</time>
      </trkpt>
      <trkpt lat="49.43798" lon="3.74284">
        <ele>179.9</ele>
        <time>2021-07-26T16:03:20Z</time>
      </trkpt>
      <trkpt lat="49.43799" lon="3.74276">
        <ele>179.9</ele>
        <time>2021-07-26T16:03:21Z</time>
      </trkpt>
      <trkpt lat="49.438" lon="3.74273">
        <ele>179.9</ele>
        <time>2021-07-26T16:03:22Z</time>
      </trkpt>
      <trkpt lat="49.43802" lon="3.74268">
        <ele>179.9</ele>
        <time>2021-07-26T16:03:23Z</time>
      </trkpt>
      <trkpt lat="49.43805" lon="3.74262">
        <ele>179.9</ele>
        <time>2021-07-26T16:03:24Z</time>
      </trkpt>
      <trkpt lat="49.43847" lon="3.74169">
        <ele>176.06</ele>
        <time>2021-07-26T16:03:33Z</time>
      </trkpt>
      <trkpt lat="49.43947" lon="3.73983">
        <ele>169.33</ele>
        <time>2021-07-26T16:03:46Z</time>
      </trkpt>
      <trkpt lat="49.44045" lon="3.73843">
        <ele>170.29</ele>
        <time>2021-07-26T16:03:57Z</time>
      </trkpt>
      <trkpt lat="49.44071" lon="3.73807">
        <ele>170.77</ele>
        <time>2021-07-26T16:04:01Z</time>
      </trkpt>
      <trkpt lat="49.44078" lon="3.73797">
        <ele>171.25</ele>
        <time>2021-07-26T16:04:02Z</time>
      </trkpt>
      <trkpt lat="49.44078" lon="3.73797">
        <ele>170.77</ele>
        <time>2021-07-26T16:04:03Z</time>
      </trkpt>
      <trkpt lat="49.44091" lon="3.73793">
        <ele>170.77</ele>
        <time>2021-07-26T16:04:04Z</time>
      </trkpt>
      <trkpt lat="49.44095" lon="3.73798">
        <ele>170.29</ele>
        <time>2021-07-26T16:04:05Z</time>
      </trkpt>
      <trkpt lat="49.44099" lon="3.73803">
        <ele>169.81</ele>
        <time>2021-07-26T16:04:06Z</time>
      </trkpt>
      <trkpt lat="49.4412" lon="3.73816">
        <ele>168.37</ele>
        <time>2021-07-26T16:04:12Z</time>
      </trkpt>
      <trkpt lat="49.44144" lon="3.7383">
        <ele>166.93</ele>
        <time>2021-07-26T16:04:41Z</time>
      </trkpt>
      <trkpt lat="49.44156" lon="3.73837">
        <ele>165.48</ele>
        <time>2021-07-26T16:04:43Z</time>
      </trkpt>
      <trkpt lat="49.44164" lon="3.73841">
        <ele>165.48</ele>
        <time>2021-07-26T16:04:44Z</time>
      </trkpt>
      <trkpt lat="49.44171" lon="3.73845">
        <ele>165</ele>
        <time>2021-07-26T16:04:45Z</time>
      </trkpt>
      <trkpt lat="49.44265" lon="3.7384">
        <ele>159.24</ele>
        <time>2021-07-26T16:04:56Z</time>
      </trkpt>
      <trkpt lat="49.44278" lon="3.73832">
        <ele>158.27</ele>
        <time>2021-07-26T16:04:58Z</time>
      </trkpt>
      <trkpt lat="49.44334" lon="3.73798">
        <ele>153.47</ele>
        <time>2021-07-26T16:05:06Z</time>
      </trkpt>
      <trkpt lat="49.44344" lon="3.73795">
        <ele>152.99</ele>
        <time>2021-07-26T16:05:07Z</time>
      </trkpt>
      <trkpt lat="49.44354" lon="3.73793">
        <ele>152.03</ele>
        <time>2021-07-26T16:05:08Z</time>
      </trkpt>
      <trkpt lat="49.44364" lon="3.73794">
        <ele>151.06</ele>
        <time>2021-07-26T16:05:09Z</time>
      </trkpt>
      <trkpt lat="49.44374" lon="3.73795">
        <ele>150.58</ele>
        <time>2021-07-26T16:05:10Z</time>
      </trkpt>
      <trkpt lat="49.44413" lon="3.73799">
        <ele>147.22</ele>
        <time>2021-07-26T16:05:14Z</time>
      </trkpt>
      <trkpt lat="49.44518" lon="3.73785">
        <ele>137.13</ele>
        <time>2021-07-26T16:05:23Z</time>
      </trkpt>
      <trkpt lat="49.44528" lon="3.73789">
        <ele>136.16</ele>
        <time>2021-07-26T16:05:24Z</time>
      </trkpt>
      <trkpt lat="49.44538" lon="3.73793">
        <ele>135.2</ele>
        <time>2021-07-26T16:05:25Z</time>
      </trkpt>
      <trkpt lat="49.44588" lon="3.73812">
        <ele>130.4</ele>
        <time>2021-07-26T16:05:30Z</time>
      </trkpt>
      <trkpt lat="49.44597" lon="3.73816">
        <ele>128.47</ele>
        <time>2021-07-26T16:05:31Z</time>
      </trkpt>
      <trkpt lat="49.44605" lon="3.73816">
        <ele>126.07</ele>
        <time>2021-07-26T16:05:32Z</time>
      </trkpt>
      <trkpt lat="49.44616" lon="3.73815">
        <ele>125.11</ele>
        <time>2021-07-26T16:05:33Z</time>
      </trkpt>
      <trkpt lat="49.44626" lon="3.73814">
        <ele>124.63</ele>
        <time>2021-07-26T16:05:34Z</time>
      </trkpt>
      <trkpt lat="49.44649" lon="3.73812">
        <ele>122.22</ele>
        <time>2021-07-26T16:05:36Z</time>
      </trkpt>
      <trkpt lat="49.4466" lon="3.73811">
        <ele>121.26</ele>
        <time>2021-07-26T16:05:37Z</time>
      </trkpt>
      <trkpt lat="49.44671" lon="3.7381">
        <ele>119.82</ele>
        <time>2021-07-26T16:05:38Z</time>
      </trkpt>
      <trkpt lat="49.44726" lon="3.73828">
        <ele>114.05</ele>
        <time>2021-07-26T16:05:43Z</time>
      </trkpt>
      <trkpt lat="49.44732" lon="3.73833">
        <ele>113.57</ele>
        <time>2021-07-26T16:05:44Z</time>
      </trkpt>
      <trkpt lat="49.44739" lon="3.73837">
        <ele>113.09</ele>
        <time>2021-07-26T16:05:45Z</time>
      </trkpt>
      <trkpt lat="49.44745" lon="3.73845">
        <ele>113.09</ele>
        <time>2021-07-26T16:05:46Z</time>
      </trkpt>
      <trkpt lat="49.44757" lon="3.73864">
        <ele>113.09</ele>
        <time>2021-07-26T16:05:47Z</time>
      </trkpt>
      <trkpt lat="49.44762" lon="3.73877">
        <ele>112.61</ele>
        <time>2021-07-26T16:05:48Z</time>
      </trkpt>
      <trkpt lat="49.44762" lon="3.73877">
        <ele>112.61</ele>
        <time>2021-07-26T16:05:49Z</time>
      </trkpt>
      <trkpt lat="49.44765" lon="3.73891">
        <ele>112.13</ele>
        <time>2021-07-26T16:05:50Z</time>
      </trkpt>
      <trkpt lat="49.44769" lon="3.73905">
        <ele>110.69</ele>
        <time>2021-07-26T16:05:51Z</time>
      </trkpt>
      <trkpt lat="49.44772" lon="3.73919">
        <ele>110.21</ele>
        <time>2021-07-26T16:05:52Z</time>
      </trkpt>
      <trkpt lat="49.44777" lon="3.73954">
        <ele>107.81</ele>
        <time>2021-07-26T16:05:54Z</time>
      </trkpt>
      <trkpt lat="49.44777" lon="3.74165">
        <ele>97.71</ele>
        <time>2021-07-26T16:06:05Z</time>
      </trkpt>
      <trkpt lat="49.44781" lon="3.74244">
        <ele>94.35</ele>
        <time>2021-07-26T16:06:09Z</time>
      </trkpt>
      <trkpt lat="49.44785" lon="3.74264">
        <ele>92.9</ele>
        <time>2021-07-26T16:06:10Z</time>
      </trkpt>
      <trkpt lat="49.44808" lon="3.74343">
        <ele>86.18</ele>
        <time>2021-07-26T16:06:14Z</time>
      </trkpt>
      <trkpt lat="49.44815" lon="3.74362">
        <ele>84.73</ele>
        <time>2021-07-26T16:06:15Z</time>
      </trkpt>
      <trkpt lat="49.4484" lon="3.74417">
        <ele>82.81</ele>
        <time>2021-07-26T16:06:18Z</time>
      </trkpt>
      <trkpt lat="49.44877" lon="3.74487">
        <ele>81.85</ele>
        <time>2021-07-26T16:06:22Z</time>
      </trkpt>
      <trkpt lat="49.44893" lon="3.74509">
        <ele>82.33</ele>
        <time>2021-07-26T16:06:24Z</time>
      </trkpt>
      <trkpt lat="49.44914" lon="3.74522">
        <ele>82.81</ele>
        <time>2021-07-26T16:06:25Z</time>
      </trkpt>
      <trkpt lat="49.44914" lon="3.74522">
        <ele>83.29</ele>
        <time>2021-07-26T16:06:26Z</time>
      </trkpt>
      <trkpt lat="49.44936" lon="3.74529">
        <ele>82.33</ele>
        <time>2021-07-26T16:06:27Z</time>
      </trkpt>
      <trkpt lat="49.44936" lon="3.74529">
        <ele>80.89</ele>
        <time>2021-07-26T16:06:28Z</time>
      </trkpt>
      <trkpt lat="49.4495" lon="3.74529">
        <ele>80.41</ele>
        <time>2021-07-26T16:06:29Z</time>
      </trkpt>
      <trkpt lat="49.44962" lon="3.74525">
        <ele>79.93</ele>
        <time>2021-07-26T16:06:30Z</time>
      </trkpt>
      <trkpt lat="49.44973" lon="3.74518">
        <ele>78.97</ele>
        <time>2021-07-26T16:06:31Z</time>
      </trkpt>
      <trkpt lat="49.44986" lon="3.7451">
        <ele>78.48</ele>
        <time>2021-07-26T16:06:32Z</time>
      </trkpt>
      <trkpt lat="49.44997" lon="3.74501">
        <ele>78</ele>
        <time>2021-07-26T16:06:33Z</time>
      </trkpt>
      <trkpt lat="49.45063" lon="3.74416">
        <ele>77.52</ele>
        <time>2021-07-26T16:06:41Z</time>
      </trkpt>
      <trkpt lat="49.4513" lon="3.74325">
        <ele>78.97</ele>
        <time>2021-07-26T16:06:52Z</time>
      </trkpt>
      <trkpt lat="49.45137" lon="3.74317">
        <ele>79.45</ele>
        <time>2021-07-26T16:06:53Z</time>
      </trkpt>
      <trkpt lat="49.45144" lon="3.74312">
        <ele>79.93</ele>
        <time>2021-07-26T16:06:54Z</time>
      </trkpt>
      <trkpt lat="49.45152" lon="3.74307">
        <ele>79.93</ele>
        <time>2021-07-26T16:06:55Z</time>
      </trkpt>
      <trkpt lat="49.4516" lon="3.74301">
        <ele>79.93</ele>
        <time>2021-07-26T16:06:56Z</time>
      </trkpt>
      <trkpt lat="49.45169" lon="3.74299">
        <ele>80.41</ele>
        <time>2021-07-26T16:06:57Z</time>
      </trkpt>
      <trkpt lat="49.45179" lon="3.74301">
        <ele>80.89</ele>
        <time>2021-07-26T16:06:58Z</time>
      </trkpt>
      <trkpt lat="49.45188" lon="3.74304">
        <ele>80.89</ele>
        <time>2021-07-26T16:06:59Z</time>
      </trkpt>
      <trkpt lat="49.4532" lon="3.74352">
        <ele>82.81</ele>
        <time>2021-07-26T16:07:14Z</time>
      </trkpt>
      <trkpt lat="49.45338" lon="3.74359">
        <ele>83.29</ele>
        <time>2021-07-26T16:07:21Z</time>
      </trkpt>
      <trkpt lat="49.45338" lon="3.74359">
        <ele>83.29</ele>
        <time>2021-07-26T16:07:29Z</time>
      </trkpt>
      <trkpt lat="49.45341" lon="3.7436">
        <ele>83.29</ele>
        <time>2021-07-26T16:07:30Z</time>
      </trkpt>
      <trkpt lat="49.45342" lon="3.7436">
        <ele>83.29</ele>
        <time>2021-07-26T16:07:47Z</time>
      </trkpt>
      <trkpt lat="49.45342" lon="3.7436">
        <ele>83.29</ele>
        <time>2021-07-26T16:12:46Z</time>
      </trkpt>
      <trkpt lat="49.45349" lon="3.74362">
        <ele>82.81</ele>
        <time>2021-07-26T16:19:33Z</time>
      </trkpt>
      <trkpt lat="49.45401" lon="3.74374">
        <ele>81.37</ele>
        <time>2021-07-26T16:19:44Z</time>
      </trkpt>
      <trkpt lat="49.45502" lon="3.74397">
        <ele>80.89</ele>
        <time>2021-07-26T16:19:58Z</time>
      </trkpt>
      <trkpt lat="49.45564" lon="3.7441">
        <ele>83.29</ele>
        <time>2021-07-26T16:20:10Z</time>
      </trkpt>
      <trkpt lat="49.4558" lon="3.74414">
        <ele>84.73</ele>
        <time>2021-07-26T16:20:16Z</time>
      </trkpt>
      <trkpt lat="49.45582" lon="3.74414">
        <ele>85.21</ele>
        <time>2021-07-26T16:20:17Z</time>
      </trkpt>
      <trkpt lat="49.45583" lon="3.74415">
        <ele>84.73</ele>
        <time>2021-07-26T16:20:18Z</time>
      </trkpt>
      <trkpt lat="49.45585" lon="3.74405">
        <ele>85.21</ele>
        <time>2021-07-26T16:20:19Z</time>
      </trkpt>
      <trkpt lat="49.45584" lon="3.74403">
        <ele>85.69</ele>
        <time>2021-07-26T16:20:20Z</time>
      </trkpt>
      <trkpt lat="49.45582" lon="3.74401">
        <ele>85.69</ele>
        <time>2021-07-26T16:20:21Z</time>
      </trkpt>
      <trkpt lat="49.45581" lon="3.74399">
        <ele>86.18</ele>
        <time>2021-07-26T16:20:22Z</time>
      </trkpt>
      <trkpt lat="49.4558" lon="3.74398">
        <ele>86.18</ele>
        <time>2021-07-26T16:20:23Z</time>
      </trkpt>
      <trkpt lat="49.45579" lon="3.74397">
        <ele>86.66</ele>
        <time>2021-07-26T16:20:38Z</time>
      </trkpt>
      <trkpt lat="49.45579" lon="3.74397">
        <ele>86.66</ele>
        <time>2021-07-26T16:20:40Z</time>
      </trkpt>
      <trkpt lat="49.45579" lon="3.74397">
        <ele>86.66</ele>
        <time>2021-07-26T16:20:41Z</time>
      </trkpt>
      <trkpt lat="49.45572" lon="3.74412">
        <ele>86.18</ele>
        <time>2021-07-26T16:20:42Z</time>
      </trkpt>
      <trkpt lat="49.45557" lon="3.74409">
        <ele>85.21</ele>
        <time>2021-07-26T16:20:47Z</time>
      </trkpt>
      <trkpt lat="49.45489" lon="3.74394">
        <ele>80.89</ele>
        <time>2021-07-26T16:20:57Z</time>
      </trkpt>
      <trkpt lat="49.45332" lon="3.74358">
        <ele>85.69</ele>
        <time>2021-07-26T16:21:13Z</time>
      </trkpt>
      <trkpt lat="49.45237" lon="3.74315">
        <ele>84.25</ele>
        <time>2021-07-26T16:21:25Z</time>
      </trkpt>
      <trkpt lat="49.45175" lon="3.743">
        <ele>85.69</ele>
        <time>2021-07-26T16:21:33Z</time>
      </trkpt>
      <trkpt lat="49.45167" lon="3.74299">
        <ele>85.69</ele>
        <time>2021-07-26T16:21:34Z</time>
      </trkpt>
      <trkpt lat="49.45159" lon="3.74302">
        <ele>85.69</ele>
        <time>2021-07-26T16:21:35Z</time>
      </trkpt>
      <trkpt lat="49.45151" lon="3.74308">
        <ele>86.18</ele>
        <time>2021-07-26T16:21:36Z</time>
      </trkpt>
      <trkpt lat="49.45143" lon="3.74313">
        <ele>86.66</ele>
        <time>2021-07-26T16:21:37Z</time>
      </trkpt>
      <trkpt lat="49.45134" lon="3.7432">
        <ele>85.21</ele>
        <time>2021-07-26T16:21:38Z</time>
      </trkpt>
      <trkpt lat="49.45127" lon="3.74329">
        <ele>84.73</ele>
        <time>2021-07-26T16:21:39Z</time>
      </trkpt>
      <trkpt lat="49.45023" lon="3.74471">
        <ele>85.69</ele>
        <time>2021-07-26T16:21:52Z</time>
      </trkpt>
      <trkpt lat="49.44995" lon="3.74503">
        <ele>88.58</ele>
        <time>2021-07-26T16:21:55Z</time>
      </trkpt>
      <trkpt lat="49.44984" lon="3.74511">
        <ele>89.54</ele>
        <time>2021-07-26T16:21:56Z</time>
      </trkpt>
      <trkpt lat="49.44973" lon="3.74518">
        <ele>90.5</ele>
        <time>2021-07-26T16:21:57Z</time>
      </trkpt>
      <trkpt lat="49.44951" lon="3.74529">
        <ele>89.54</ele>
        <time>2021-07-26T16:21:59Z</time>
      </trkpt>
      <trkpt lat="49.4494" lon="3.74529">
        <ele>90.98</ele>
        <time>2021-07-26T16:22:00Z</time>
      </trkpt>
      <trkpt lat="49.44914" lon="3.74522">
        <ele>91.94</ele>
        <time>2021-07-26T16:22:01Z</time>
      </trkpt>
      <trkpt lat="49.44914" lon="3.74522">
        <ele>92.9</ele>
        <time>2021-07-26T16:22:02Z</time>
      </trkpt>
      <trkpt lat="49.44901" lon="3.74514">
        <ele>93.39</ele>
        <time>2021-07-26T16:22:03Z</time>
      </trkpt>
      <trkpt lat="49.44889" lon="3.74504">
        <ele>93.87</ele>
        <time>2021-07-26T16:22:04Z</time>
      </trkpt>
      <trkpt lat="49.44879" lon="3.7449">
        <ele>94.35</ele>
        <time>2021-07-26T16:22:05Z</time>
      </trkpt>
      <trkpt lat="49.44869" lon="3.74476">
        <ele>94.83</ele>
        <time>2021-07-26T16:22:06Z</time>
      </trkpt>
      <trkpt lat="49.44861" lon="3.74459">
        <ele>95.79</ele>
        <time>2021-07-26T16:22:07Z</time>
      </trkpt>
      <trkpt lat="49.44788" lon="3.74277">
        <ele>105.4</ele>
        <time>2021-07-26T16:22:17Z</time>
      </trkpt>
      <trkpt lat="49.44778" lon="3.74109">
        <ele>114.53</ele>
        <time>2021-07-26T16:22:25Z</time>
      </trkpt>
      <trkpt lat="49.44775" lon="3.73928">
        <ele>124.15</ele>
        <time>2021-07-26T16:22:33Z</time>
      </trkpt>
      <trkpt lat="49.44769" lon="3.73907">
        <ele>125.11</ele>
        <time>2021-07-26T16:22:34Z</time>
      </trkpt>
      <trkpt lat="49.44764" lon="3.73886">
        <ele>126.07</ele>
        <time>2021-07-26T16:22:35Z</time>
      </trkpt>
      <trkpt lat="49.44751" lon="3.73854">
        <ele>126.55</ele>
        <time>2021-07-26T16:22:36Z</time>
      </trkpt>
      <trkpt lat="49.44751" lon="3.73854">
        <ele>127.99</ele>
        <time>2021-07-26T16:22:37Z</time>
      </trkpt>
      <trkpt lat="49.44741" lon="3.73839">
        <ele>129.43</ele>
        <time>2021-07-26T16:22:38Z</time>
      </trkpt>
      <trkpt lat="49.4473" lon="3.73831">
        <ele>131.36</ele>
        <time>2021-07-26T16:22:39Z</time>
      </trkpt>
      <trkpt lat="49.44717" lon="3.73823">
        <ele>130.88</ele>
        <time>2021-07-26T16:22:40Z</time>
      </trkpt>
      <trkpt lat="49.44704" lon="3.73817">
        <ele>131.36</ele>
        <time>2021-07-26T16:22:41Z</time>
      </trkpt>
      <trkpt lat="49.44691" lon="3.73814">
        <ele>132.32</ele>
        <time>2021-07-26T16:22:42Z</time>
      </trkpt>
      <trkpt lat="49.44663" lon="3.7381">
        <ele>132.8</ele>
        <time>2021-07-26T16:22:44Z</time>
      </trkpt>
      <trkpt lat="49.44649" lon="3.73812">
        <ele>135.2</ele>
        <time>2021-07-26T16:22:45Z</time>
      </trkpt>
      <trkpt lat="49.4461" lon="3.73815">
        <ele>138.09</ele>
        <time>2021-07-26T16:22:48Z</time>
      </trkpt>
      <trkpt lat="49.44598" lon="3.73816">
        <ele>139.53</ele>
        <time>2021-07-26T16:22:49Z</time>
      </trkpt>
      <trkpt lat="49.44585" lon="3.73811">
        <ele>141.45</ele>
        <time>2021-07-26T16:22:50Z</time>
      </trkpt>
      <trkpt lat="49.44572" lon="3.73806">
        <ele>142.89</ele>
        <time>2021-07-26T16:22:51Z</time>
      </trkpt>
      <trkpt lat="49.44561" lon="3.73802">
        <ele>144.34</ele>
        <time>2021-07-26T16:22:52Z</time>
      </trkpt>
      <trkpt lat="49.44538" lon="3.73793">
        <ele>147.22</ele>
        <time>2021-07-26T16:22:54Z</time>
      </trkpt>
      <trkpt lat="49.44526" lon="3.73788">
        <ele>147.7</ele>
        <time>2021-07-26T16:22:55Z</time>
      </trkpt>
      <trkpt lat="49.44516" lon="3.73784">
        <ele>148.18</ele>
        <time>2021-07-26T16:22:56Z</time>
      </trkpt>
      <trkpt lat="49.44504" lon="3.73786">
        <ele>148.66</ele>
        <time>2021-07-26T16:22:57Z</time>
      </trkpt>
      <trkpt lat="49.44492" lon="3.73788">
        <ele>150.1</ele>
        <time>2021-07-26T16:22:58Z</time>
      </trkpt>
      <trkpt lat="49.44479" lon="3.7379">
        <ele>152.03</ele>
        <time>2021-07-26T16:22:59Z</time>
      </trkpt>
      <trkpt lat="49.44411" lon="3.73799">
        <ele>156.83</ele>
        <time>2021-07-26T16:23:04Z</time>
      </trkpt>
      <trkpt lat="49.44397" lon="3.73797">
        <ele>157.79</ele>
        <time>2021-07-26T16:23:05Z</time>
      </trkpt>
      <trkpt lat="49.44357" lon="3.73793">
        <ele>161.64</ele>
        <time>2021-07-26T16:23:08Z</time>
      </trkpt>
      <trkpt lat="49.44345" lon="3.73795">
        <ele>163.08</ele>
        <time>2021-07-26T16:23:09Z</time>
      </trkpt>
      <trkpt lat="49.44333" lon="3.73798">
        <ele>164.52</ele>
        <time>2021-07-26T16:23:10Z</time>
      </trkpt>
      <trkpt lat="49.44322" lon="3.73803">
        <ele>165.48</ele>
        <time>2021-07-26T16:23:11Z</time>
      </trkpt>
      <trkpt lat="49.44309" lon="3.73812">
        <ele>166.45</ele>
        <time>2021-07-26T16:23:12Z</time>
      </trkpt>
      <trkpt lat="49.44247" lon="3.73845">
        <ele>170.29</ele>
        <time>2021-07-26T16:23:17Z</time>
      </trkpt>
      <trkpt lat="49.44234" lon="3.73848">
        <ele>171.73</ele>
        <time>2021-07-26T16:23:18Z</time>
      </trkpt>
      <trkpt lat="49.44222" lon="3.73848">
        <ele>172.21</ele>
        <time>2021-07-26T16:23:19Z</time>
      </trkpt>
      <trkpt lat="49.44182" lon="3.73847">
        <ele>172.21</ele>
        <time>2021-07-26T16:23:22Z</time>
      </trkpt>
      <trkpt lat="49.44172" lon="3.73845">
        <ele>171.73</ele>
        <time>2021-07-26T16:23:23Z</time>
      </trkpt>
      <trkpt lat="49.44162" lon="3.7384">
        <ele>172.21</ele>
        <time>2021-07-26T16:23:24Z</time>
      </trkpt>
      <trkpt lat="49.44153" lon="3.73834">
        <ele>172.69</ele>
        <time>2021-07-26T16:23:25Z</time>
      </trkpt>
      <trkpt lat="49.44143" lon="3.73829">
        <ele>174.62</ele>
        <time>2021-07-26T16:23:26Z</time>
      </trkpt>
      <trkpt lat="49.44088" lon="3.73789">
        <ele>177.5</ele>
        <time>2021-07-26T16:23:34Z</time>
      </trkpt>
      <trkpt lat="49.44088" lon="3.73789">
        <ele>176.54</ele>
        <time>2021-07-26T16:23:38Z</time>
      </trkpt>
      <trkpt lat="49.44086" lon="3.73786">
        <ele>176.06</ele>
        <time>2021-07-26T16:23:39Z</time>
      </trkpt>
      <trkpt lat="49.44087" lon="3.73783">
        <ele>176.06</ele>
        <time>2021-07-26T16:23:40Z</time>
      </trkpt>
      <trkpt lat="49.4409" lon="3.73778">
        <ele>176.06</ele>
        <time>2021-07-26T16:23:41Z</time>
      </trkpt>
      <trkpt lat="49.44093" lon="3.73771">
        <ele>176.06</ele>
        <time>2021-07-26T16:23:42Z</time>
      </trkpt>
      <trkpt lat="49.44111" lon="3.73728">
        <ele>176.54</ele>
        <time>2021-07-26T16:23:47Z</time>
      </trkpt>
      <trkpt lat="49.44113" lon="3.73714">
        <ele>177.5</ele>
        <time>2021-07-26T16:23:48Z</time>
      </trkpt>
      <trkpt lat="49.44155" lon="3.73494">
        <ele>180.38</ele>
        <time>2021-07-26T16:24:01Z</time>
      </trkpt>
      <trkpt lat="49.4418" lon="3.73343">
        <ele>183.75</ele>
        <time>2021-07-26T16:24:11Z</time>
      </trkpt>
      <trkpt lat="49.44183" lon="3.73323">
        <ele>184.71</ele>
        <time>2021-07-26T16:24:13Z</time>
      </trkpt>
      <trkpt lat="49.44184" lon="3.73316">
        <ele>184.71</ele>
        <time>2021-07-26T16:24:14Z</time>
      </trkpt>
      <trkpt lat="49.44185" lon="3.7331">
        <ele>185.19</ele>
        <time>2021-07-26T16:24:15Z</time>
      </trkpt>
      <trkpt lat="49.44192" lon="3.73264">
        <ele>185.67</ele>
        <time>2021-07-26T16:24:27Z</time>
      </trkpt>
      <trkpt lat="49.44192" lon="3.73264">
        <ele>185.19</ele>
        <time>2021-07-26T16:31:26Z</time>
      </trkpt>
      <trkpt lat="49.44192" lon="3.73264">
        <ele>184.23</ele>
        <time>2021-07-26T16:36:52Z</time>
      </trkpt>
      <trkpt lat="49.44192" lon="3.73264">
        <ele>184.23</ele>
        <time>2021-07-26T16:43:26Z</time>
      </trkpt>
      <trkpt lat="49.44192" lon="3.73264">
        <ele>184.71</ele>
        <time>2021-07-26T16:46:39Z</time>
      </trkpt>
      <trkpt lat="49.44192" lon="3.73264">
        <ele>185.19</ele>
        <time>2021-07-26T17:00:53Z</time>
      </trkpt>
      <trkpt lat="49.44192" lon="3.73264">
        <ele>184.71</ele>
        <time>2021-07-26T17:05:41Z</time>
      </trkpt>
      <trkpt lat="49.44192" lon="3.73264">
        <ele>184.23</ele>
        <time>2021-07-26T17:11:45Z</time>
      </trkpt>
      <trkpt lat="49.44192" lon="3.73264">
        <ele>184.23</ele>
        <time>2021-07-26T17:14:11Z</time>
      </trkpt>
      <trkpt lat="49.44192" lon="3.73264">
        <ele>184.71</ele>
        <time>2021-07-26T17:29:31Z</time>
      </trkpt>
      <trkpt lat="49.44192" lon="3.73264">
        <ele>185.67</ele>
        <time>2021-07-26T17:42:12Z</time>
      </trkpt>
      <trkpt lat="49.44192" lon="3.73264">
        <ele>185.67</ele>
        <time>2021-07-26T17:51:57Z</time>
      </trkpt>
      <trkpt lat="49.44192" lon="3.73264">
        <ele>185.19</ele>
        <time>2021-07-26T17:58:09Z</time>
      </trkpt>
      <trkpt lat="49.44192" lon="3.73264">
        <ele>186.63</ele>
        <time>2021-07-26T18:08:00Z</time>
      </trkpt>
      <trkpt lat="49.44192" lon="3.73264">
        <ele>186.15</ele>
        <time>2021-07-26T18:24:48Z</time>
      </trkpt>
    </trkseg>
  </trk>
  <trk>
    <name><![CDATA[Journal actif: 2021-07-26 16:34]]></name>
    <trkseg>
      <trkpt lat="49.44192" lon="3.73264">
        <ele>185.19</ele>
        <time>2021-07-26T18:34:35Z</time>
      </trkpt>
      <trkpt lat="49.44192" lon="3.73264">
        <ele>185.19</ele>
        <time>2021-07-26T18:35:52Z</time>
      </trkpt>
      <trkpt lat="49.44192" lon="3.73264">
        <ele>185.19</ele>
        <time>2021-07-26T18:35:54Z</time>
      </trkpt>
      <trkpt lat="49.44192" lon="3.73264">
        <ele>185.19</ele>
        <time>2021-07-26T18:35:57Z</time>
      </trkpt>
      <trkpt lat="49.44192" lon="3.73262">
        <ele>185.19</ele>
        <time>2021-07-26T18:35:58Z</time>
      </trkpt>
      <trkpt lat="49.44197" lon="3.73231">
        <ele>185.67</ele>
        <time>2021-07-26T18:36:11Z</time>
      </trkpt>
      <trkpt lat="49.44199" lon="3.73198">
        <ele>186.15</ele>
        <time>2021-07-26T18:36:20Z</time>
      </trkpt>
      <trkpt lat="49.44192" lon="3.73078">
        <ele>186.63</ele>
        <time>2021-07-26T18:36:33Z</time>
      </trkpt>
      <trkpt lat="49.44184" lon="3.72927">
        <ele>187.11</ele>
        <time>2021-07-26T18:36:46Z</time>
      </trkpt>
      <trkpt lat="49.44182" lon="3.72894">
        <ele>187.59</ele>
        <time>2021-07-26T18:36:55Z</time>
      </trkpt>
      <trkpt lat="49.4418" lon="3.72874">
        <ele>187.59</ele>
        <time>2021-07-26T18:37:33Z</time>
      </trkpt>
      <trkpt lat="49.44175" lon="3.7278">
        <ele>188.56</ele>
        <time>2021-07-26T18:37:43Z</time>
      </trkpt>
      <trkpt lat="49.44164" lon="3.72595">
        <ele>190</ele>
        <time>2021-07-26T18:37:54Z</time>
      </trkpt>
      <trkpt lat="49.44145" lon="3.72283">
        <ele>191.92</ele>
        <time>2021-07-26T18:38:09Z</time>
      </trkpt>
      <trkpt lat="49.44113" lon="3.71802">
        <ele>194.8</ele>
        <time>2021-07-26T18:38:30Z</time>
      </trkpt>
      <trkpt lat="49.44061" lon="3.71452">
        <ele>197.21</ele>
        <time>2021-07-26T18:38:45Z</time>
      </trkpt>
      <trkpt lat="49.44024" lon="3.71117">
        <ele>200.57</ele>
        <time>2021-07-26T18:38:59Z</time>
      </trkpt>
      <trkpt lat="49.44032" lon="3.70723">
        <ele>199.13</ele>
        <time>2021-07-26T18:39:15Z</time>
      </trkpt>
      <trkpt lat="49.44041" lon="3.70298">
        <ele>198.17</ele>
        <time>2021-07-26T18:39:32Z</time>
      </trkpt>
      <trkpt lat="49.44062" lon="3.69782">
        <ele>193.36</ele>
        <time>2021-07-26T18:39:51Z</time>
      </trkpt>
      <trkpt lat="49.44084" lon="3.69299">
        <ele>183.75</ele>
        <time>2021-07-26T18:40:07Z</time>
      </trkpt>
      <trkpt lat="49.44113" lon="3.68653">
        <ele>186.63</ele>
        <time>2021-07-26T18:40:28Z</time>
      </trkpt>
      <trkpt lat="49.44141" lon="3.68029">
        <ele>193.36</ele>
        <time>2021-07-26T18:40:48Z</time>
      </trkpt>
      <trkpt lat="49.44165" lon="3.67494">
        <ele>187.11</ele>
        <time>2021-07-26T18:41:07Z</time>
      </trkpt>
      <trkpt lat="49.44199" lon="3.67207">
        <ele>186.63</ele>
        <time>2021-07-26T18:41:18Z</time>
      </trkpt>
      <trkpt lat="49.44247" lon="3.6693">
        <ele>185.19</ele>
        <time>2021-07-26T18:41:31Z</time>
      </trkpt>
      <trkpt lat="49.44256" lon="3.66874">
        <ele>186.15</ele>
        <time>2021-07-26T18:41:35Z</time>
      </trkpt>
      <trkpt lat="49.44258" lon="3.66864">
        <ele>186.63</ele>
        <time>2021-07-26T18:41:36Z</time>
      </trkpt>
      <trkpt lat="49.44257" lon="3.66855">
        <ele>187.11</ele>
        <time>2021-07-26T18:41:37Z</time>
      </trkpt>
      <trkpt lat="49.44256" lon="3.66848">
        <ele>187.59</ele>
        <time>2021-07-26T18:41:38Z</time>
      </trkpt>
      <trkpt lat="49.44256" lon="3.66844">
        <ele>187.11</ele>
        <time>2021-07-26T18:41:39Z</time>
      </trkpt>
      <trkpt lat="49.44255" lon="3.66843">
        <ele>186.63</ele>
        <time>2021-07-26T18:41:52Z</time>
      </trkpt>
      <trkpt lat="49.44252" lon="3.66823">
        <ele>186.63</ele>
        <time>2021-07-26T18:41:56Z</time>
      </trkpt>
      <trkpt lat="49.44251" lon="3.66819">
        <ele>186.63</ele>
        <time>2021-07-26T18:41:57Z</time>
      </trkpt>
      <trkpt lat="49.44256" lon="3.66807">
        <ele>186.63</ele>
        <time>2021-07-26T18:41:58Z</time>
      </trkpt>
      <trkpt lat="49.44258" lon="3.668">
        <ele>186.15</ele>
        <time>2021-07-26T18:41:59Z</time>
      </trkpt>
      <trkpt lat="49.44261" lon="3.66792">
        <ele>186.15</ele>
        <time>2021-07-26T18:42:00Z</time>
      </trkpt>
      <trkpt lat="49.44265" lon="3.66783">
        <ele>186.15</ele>
        <time>2021-07-26T18:42:01Z</time>
      </trkpt>
      <trkpt lat="49.44269" lon="3.66774">
        <ele>186.15</ele>
        <time>2021-07-26T18:42:02Z</time>
      </trkpt>
      <trkpt lat="49.44273" lon="3.66765">
        <ele>186.63</ele>
        <time>2021-07-26T18:42:03Z</time>
      </trkpt>
      <trkpt lat="49.44276" lon="3.66757">
        <ele>186.15</ele>
        <time>2021-07-26T18:42:04Z</time>
      </trkpt>
      <trkpt lat="49.44279" lon="3.66739">
        <ele>186.15</ele>
        <time>2021-07-26T18:42:05Z</time>
      </trkpt>
      <trkpt lat="49.44301" lon="3.66612">
        <ele>185.19</ele>
        <time>2021-07-26T18:42:20Z</time>
      </trkpt>
      <trkpt lat="49.44309" lon="3.66566">
        <ele>185.19</ele>
        <time>2021-07-26T18:42:27Z</time>
      </trkpt>
      <trkpt lat="49.44323" lon="3.66496">
        <ele>185.19</ele>
        <time>2021-07-26T18:42:34Z</time>
      </trkpt>
      <trkpt lat="49.4435" lon="3.66355">
        <ele>185.19</ele>
        <time>2021-07-26T18:42:43Z</time>
      </trkpt>
      <trkpt lat="49.44414" lon="3.66022">
        <ele>181.35</ele>
        <time>2021-07-26T18:42:58Z</time>
      </trkpt>
      <trkpt lat="49.44503" lon="3.65566">
        <ele>179.9</ele>
        <time>2021-07-26T18:43:15Z</time>
      </trkpt>
      <trkpt lat="49.44597" lon="3.65089">
        <ele>186.63</ele>
        <time>2021-07-26T18:43:33Z</time>
      </trkpt>
      <trkpt lat="49.44672" lon="3.64706">
        <ele>180.87</ele>
        <time>2021-07-26T18:43:47Z</time>
      </trkpt>
      <trkpt lat="49.4473" lon="3.64373">
        <ele>172.21</ele>
        <time>2021-07-26T18:43:59Z</time>
      </trkpt>
      <trkpt lat="49.4473" lon="3.64349">
        <ele>172.69</ele>
        <time>2021-07-26T18:44:00Z</time>
      </trkpt>
      <trkpt lat="49.44704" lon="3.64062">
        <ele>172.21</ele>
        <time>2021-07-26T18:44:11Z</time>
      </trkpt>
      <trkpt lat="49.44675" lon="3.63634">
        <ele>166.45</ele>
        <time>2021-07-26T18:44:26Z</time>
      </trkpt>
      <trkpt lat="49.44708" lon="3.63267">
        <ele>170.77</ele>
        <time>2021-07-26T18:44:38Z</time>
      </trkpt>
      <trkpt lat="49.44762" lon="3.62706">
        <ele>177.98</ele>
        <time>2021-07-26T18:44:57Z</time>
      </trkpt>
      <trkpt lat="49.44747" lon="3.62314">
        <ele>184.71</ele>
        <time>2021-07-26T18:45:11Z</time>
      </trkpt>
      <trkpt lat="49.44727" lon="3.61774">
        <ele>183.27</ele>
        <time>2021-07-26T18:45:31Z</time>
      </trkpt>
      <trkpt lat="49.44714" lon="3.61421">
        <ele>188.08</ele>
        <time>2021-07-26T18:45:45Z</time>
      </trkpt>
      <trkpt lat="49.44703" lon="3.60992">
        <ele>187.11</ele>
        <time>2021-07-26T18:46:00Z</time>
      </trkpt>
      <trkpt lat="49.44694" lon="3.60613">
        <ele>184.23</ele>
        <time>2021-07-26T18:46:12Z</time>
      </trkpt>
      <trkpt lat="49.44668" lon="3.60209">
        <ele>183.27</ele>
        <time>2021-07-26T18:46:25Z</time>
      </trkpt>
      <trkpt lat="49.44555" lon="3.59678">
        <ele>187.59</ele>
        <time>2021-07-26T18:46:42Z</time>
      </trkpt>
      <trkpt lat="49.44521" lon="3.59407">
        <ele>191.44</ele>
        <time>2021-07-26T18:46:50Z</time>
      </trkpt>
      <trkpt lat="49.44487" lon="3.59035">
        <ele>188.08</ele>
        <time>2021-07-26T18:47:04Z</time>
      </trkpt>
      <trkpt lat="49.44482" lon="3.58733">
        <ele>184.23</ele>
        <time>2021-07-26T18:47:14Z</time>
      </trkpt>
      <trkpt lat="49.44521" lon="3.58463">
        <ele>186.63</ele>
        <time>2021-07-26T18:47:23Z</time>
      </trkpt>
      <trkpt lat="49.44594" lon="3.58083">
        <ele>184.71</ele>
        <time>2021-07-26T18:47:36Z</time>
      </trkpt>
      <trkpt lat="49.44676" lon="3.57575">
        <ele>188.56</ele>
        <time>2021-07-26T18:47:53Z</time>
      </trkpt>
      <trkpt lat="49.44674" lon="3.57548">
        <ele>189.04</ele>
        <time>2021-07-26T18:47:54Z</time>
      </trkpt>
      <trkpt lat="49.44648" lon="3.57123">
        <ele>191.44</ele>
        <time>2021-07-26T18:48:09Z</time>
      </trkpt>
      <trkpt lat="49.44632" lon="3.56722">
        <ele>183.75</ele>
        <time>2021-07-26T18:48:23Z</time>
      </trkpt>
      <trkpt lat="49.44689" lon="3.56037">
        <ele>186.15</ele>
        <time>2021-07-26T18:48:45Z</time>
      </trkpt>
      <trkpt lat="49.44721" lon="3.55712">
        <ele>186.15</ele>
        <time>2021-07-26T18:48:56Z</time>
      </trkpt>
      <trkpt lat="49.44762" lon="3.55312">
        <ele>181.83</ele>
        <time>2021-07-26T18:49:12Z</time>
      </trkpt>
      <trkpt lat="49.44782" lon="3.55171">
        <ele>181.35</ele>
        <time>2021-07-26T18:49:18Z</time>
      </trkpt>
      <trkpt lat="49.44788" lon="3.55147">
        <ele>182.79</ele>
        <time>2021-07-26T18:49:19Z</time>
      </trkpt>
      <trkpt lat="49.449" lon="3.54804">
        <ele>187.11</ele>
        <time>2021-07-26T18:49:33Z</time>
      </trkpt>
      <trkpt lat="49.44932" lon="3.54681">
        <ele>188.08</ele>
        <time>2021-07-26T18:49:38Z</time>
      </trkpt>
      <trkpt lat="49.44937" lon="3.54658">
        <ele>188.56</ele>
        <time>2021-07-26T18:49:39Z</time>
      </trkpt>
      <trkpt lat="49.44967" lon="3.54404">
        <ele>183.75</ele>
        <time>2021-07-26T18:49:48Z</time>
      </trkpt>
      <trkpt lat="49.45018" lon="3.54063">
        <ele>178.94</ele>
        <time>2021-07-26T18:50:00Z</time>
      </trkpt>
      <trkpt lat="49.45049" lon="3.53998">
        <ele>177.98</ele>
        <time>2021-07-26T18:50:05Z</time>
      </trkpt>
      <trkpt lat="49.45059" lon="3.53982">
        <ele>179.42</ele>
        <time>2021-07-26T18:50:11Z</time>
      </trkpt>
      <trkpt lat="49.45059" lon="3.53982">
        <ele>179.9</ele>
        <time>2021-07-26T18:50:18Z</time>
      </trkpt>
      <trkpt lat="49.45059" lon="3.5398">
        <ele>179.9</ele>
        <time>2021-07-26T18:50:19Z</time>
      </trkpt>
      <trkpt lat="49.4506" lon="3.53977">
        <ele>179.9</ele>
        <time>2021-07-26T18:50:20Z</time>
      </trkpt>
      <trkpt lat="49.45051" lon="3.53979">
        <ele>179.9</ele>
        <time>2021-07-26T18:50:21Z</time>
      </trkpt>
      <trkpt lat="49.45047" lon="3.53975">
        <ele>179.9</ele>
        <time>2021-07-26T18:50:22Z</time>
      </trkpt>
      <trkpt lat="49.44989" lon="3.53923">
        <ele>180.38</ele>
        <time>2021-07-26T18:50:30Z</time>
      </trkpt>
      <trkpt lat="49.44881" lon="3.53843">
        <ele>178.46</ele>
        <time>2021-07-26T18:50:39Z</time>
      </trkpt>
      <trkpt lat="49.44753" lon="3.53831">
        <ele>185.19</ele>
        <time>2021-07-26T18:50:47Z</time>
      </trkpt>
      <trkpt lat="49.44467" lon="3.53832">
        <ele>189.04</ele>
        <time>2021-07-26T18:51:03Z</time>
      </trkpt>
      <trkpt lat="49.44164" lon="3.53832">
        <ele>186.63</ele>
        <time>2021-07-26T18:51:19Z</time>
      </trkpt>
      <trkpt lat="49.43797" lon="3.53821">
        <ele>183.75</ele>
        <time>2021-07-26T18:51:38Z</time>
      </trkpt>
      <trkpt lat="49.43572" lon="3.53791">
        <ele>180.38</ele>
        <time>2021-07-26T18:51:49Z</time>
      </trkpt>
      <trkpt lat="49.43493" lon="3.53758">
        <ele>178.46</ele>
        <time>2021-07-26T18:51:53Z</time>
      </trkpt>
      <trkpt lat="49.43456" lon="3.53732">
        <ele>178.94</ele>
        <time>2021-07-26T18:51:54Z</time>
      </trkpt>
      <trkpt lat="49.43243" lon="3.5352">
        <ele>185.19</ele>
        <time>2021-07-26T18:52:07Z</time>
      </trkpt>
      <trkpt lat="49.43095" lon="3.53353">
        <ele>178.94</ele>
        <time>2021-07-26T18:52:16Z</time>
      </trkpt>
      <trkpt lat="49.42964" lon="3.53214">
        <ele>176.06</ele>
        <time>2021-07-26T18:52:24Z</time>
      </trkpt>
      <trkpt lat="49.4294" lon="3.53169">
        <ele>175.1</ele>
        <time>2021-07-26T18:52:25Z</time>
      </trkpt>
      <trkpt lat="49.42928" lon="3.53146">
        <ele>175.58</ele>
        <time>2021-07-26T18:52:26Z</time>
      </trkpt>
      <trkpt lat="49.42928" lon="3.53146">
        <ele>174.62</ele>
        <time>2021-07-26T18:52:27Z</time>
      </trkpt>
      <trkpt lat="49.42919" lon="3.53118">
        <ele>173.66</ele>
        <time>2021-07-26T18:52:28Z</time>
      </trkpt>
      <trkpt lat="49.42795" lon="3.52709">
        <ele>169.81</ele>
        <time>2021-07-26T18:52:42Z</time>
      </trkpt>
      <trkpt lat="49.42627" lon="3.52157">
        <ele>155.39</ele>
        <time>2021-07-26T18:53:00Z</time>
      </trkpt>
      <trkpt lat="49.42537" lon="3.51891">
        <ele>148.66</ele>
        <time>2021-07-26T18:53:10Z</time>
      </trkpt>
      <trkpt lat="49.42525" lon="3.5187">
        <ele>148.18</ele>
        <time>2021-07-26T18:53:11Z</time>
      </trkpt>
      <trkpt lat="49.42511" lon="3.5185">
        <ele>147.22</ele>
        <time>2021-07-26T18:53:12Z</time>
      </trkpt>
      <trkpt lat="49.4239" lon="3.51693">
        <ele>140.97</ele>
        <time>2021-07-26T18:53:20Z</time>
      </trkpt>
      <trkpt lat="49.42344" lon="3.51643">
        <ele>136.16</ele>
        <time>2021-07-26T18:53:23Z</time>
      </trkpt>
      <trkpt lat="49.42326" lon="3.51628">
        <ele>134.72</ele>
        <time>2021-07-26T18:53:24Z</time>
      </trkpt>
      <trkpt lat="49.42183" lon="3.5152">
        <ele>127.03</ele>
        <time>2021-07-26T18:53:32Z</time>
      </trkpt>
      <trkpt lat="49.42024" lon="3.51388">
        <ele>118.38</ele>
        <time>2021-07-26T18:53:40Z</time>
      </trkpt>
      <trkpt lat="49.41994" lon="3.51359">
        <ele>115.5</ele>
        <time>2021-07-26T18:53:42Z</time>
      </trkpt>
      <trkpt lat="49.41982" lon="3.51341">
        <ele>114.53</ele>
        <time>2021-07-26T18:53:43Z</time>
      </trkpt>
      <trkpt lat="49.41971" lon="3.51321">
        <ele>114.05</ele>
        <time>2021-07-26T18:53:44Z</time>
      </trkpt>
      <trkpt lat="49.41971" lon="3.51321">
        <ele>112.61</ele>
        <time>2021-07-26T18:53:45Z</time>
      </trkpt>
      <trkpt lat="49.41955" lon="3.51288">
        <ele>111.65</ele>
        <time>2021-07-26T18:53:46Z</time>
      </trkpt>
      <trkpt lat="49.41955" lon="3.51288">
        <ele>110.21</ele>
        <time>2021-07-26T18:53:47Z</time>
      </trkpt>
      <trkpt lat="49.41948" lon="3.51274">
        <ele>109.25</ele>
        <time>2021-07-26T18:53:48Z</time>
      </trkpt>
      <trkpt lat="49.41942" lon="3.51261">
        <ele>109.73</ele>
        <time>2021-07-26T18:53:49Z</time>
      </trkpt>
      <trkpt lat="49.41934" lon="3.5125">
        <ele>109.73</ele>
        <time>2021-07-26T18:53:50Z</time>
      </trkpt>
      <trkpt lat="49.41926" lon="3.51239">
        <ele>108.29</ele>
        <time>2021-07-26T18:53:51Z</time>
      </trkpt>
      <trkpt lat="49.41914" lon="3.51235">
        <ele>108.29</ele>
        <time>2021-07-26T18:53:52Z</time>
      </trkpt>
      <trkpt lat="49.41902" lon="3.51232">
        <ele>108.77</ele>
        <time>2021-07-26T18:53:53Z</time>
      </trkpt>
      <trkpt lat="49.41877" lon="3.51224">
        <ele>107.81</ele>
        <time>2021-07-26T18:53:55Z</time>
      </trkpt>
      <trkpt lat="49.41864" lon="3.51217">
        <ele>106.84</ele>
        <time>2021-07-26T18:53:56Z</time>
      </trkpt>
      <trkpt lat="49.41851" lon="3.51207">
        <ele>105.88</ele>
        <time>2021-07-26T18:53:57Z</time>
      </trkpt>
      <trkpt lat="49.4184" lon="3.51192">
        <ele>105.4</ele>
        <time>2021-07-26T18:53:58Z</time>
      </trkpt>
      <trkpt lat="49.4183" lon="3.51174">
        <ele>104.44</ele>
        <time>2021-07-26T18:53:59Z</time>
      </trkpt>
      <trkpt lat="49.41821" lon="3.51156">
        <ele>103.48</ele>
        <time>2021-07-26T18:54:00Z</time>
      </trkpt>
      <trkpt lat="49.41766" lon="3.51063">
        <ele>102.04</ele>
        <time>2021-07-26T18:54:05Z</time>
      </trkpt>
      <trkpt lat="49.41752" lon="3.5105">
        <ele>101.08</ele>
        <time>2021-07-26T18:54:06Z</time>
      </trkpt>
      <trkpt lat="49.41737" lon="3.51036">
        <ele>99.63</ele>
        <time>2021-07-26T18:54:07Z</time>
      </trkpt>
      <trkpt lat="49.41569" lon="3.50937">
        <ele>90.98</ele>
        <time>2021-07-26T18:54:18Z</time>
      </trkpt>
      <trkpt lat="49.41556" lon="3.50935">
        <ele>91.94</ele>
        <time>2021-07-26T18:54:19Z</time>
      </trkpt>
      <trkpt lat="49.41545" lon="3.50934">
        <ele>92.42</ele>
        <time>2021-07-26T18:54:20Z</time>
      </trkpt>
      <trkpt lat="49.41533" lon="3.5094">
        <ele>92.42</ele>
        <time>2021-07-26T18:54:21Z</time>
      </trkpt>
      <trkpt lat="49.4152" lon="3.50946">
        <ele>91.46</ele>
        <time>2021-07-26T18:54:22Z</time>
      </trkpt>
      <trkpt lat="49.4151" lon="3.50957">
        <ele>90.5</ele>
        <time>2021-07-26T18:54:23Z</time>
      </trkpt>
      <trkpt lat="49.41493" lon="3.50987">
        <ele>89.54</ele>
        <time>2021-07-26T18:54:24Z</time>
      </trkpt>
      <trkpt lat="49.41485" lon="3.51005">
        <ele>88.1</ele>
        <time>2021-07-26T18:54:25Z</time>
      </trkpt>
      <trkpt lat="49.41485" lon="3.51005">
        <ele>88.1</ele>
        <time>2021-07-26T18:54:26Z</time>
      </trkpt>
      <trkpt lat="49.41485" lon="3.51025">
        <ele>86.66</ele>
        <time>2021-07-26T18:54:27Z</time>
      </trkpt>
      <trkpt lat="49.41484" lon="3.51067">
        <ele>84.73</ele>
        <time>2021-07-26T18:54:28Z</time>
      </trkpt>
      <trkpt lat="49.41484" lon="3.51067">
        <ele>83.77</ele>
        <time>2021-07-26T18:54:29Z</time>
      </trkpt>
      <trkpt lat="49.41484" lon="3.51087">
        <ele>83.29</ele>
        <time>2021-07-26T18:54:30Z</time>
      </trkpt>
      <trkpt lat="49.41483" lon="3.51107">
        <ele>83.29</ele>
        <time>2021-07-26T18:54:31Z</time>
      </trkpt>
      <trkpt lat="49.4148" lon="3.51127">
        <ele>83.29</ele>
        <time>2021-07-26T18:54:32Z</time>
      </trkpt>
      <trkpt lat="49.41475" lon="3.51148">
        <ele>82.81</ele>
        <time>2021-07-26T18:54:33Z</time>
      </trkpt>
      <trkpt lat="49.41469" lon="3.51171">
        <ele>80.89</ele>
        <time>2021-07-26T18:54:34Z</time>
      </trkpt>
      <trkpt lat="49.41461" lon="3.51189">
        <ele>79.45</ele>
        <time>2021-07-26T18:54:35Z</time>
      </trkpt>
      <trkpt lat="49.41452" lon="3.51202">
        <ele>77.52</ele>
        <time>2021-07-26T18:54:36Z</time>
      </trkpt>
      <trkpt lat="49.41441" lon="3.51209">
        <ele>76.56</ele>
        <time>2021-07-26T18:54:37Z</time>
      </trkpt>
      <trkpt lat="49.41429" lon="3.51217">
        <ele>75.12</ele>
        <time>2021-07-26T18:54:38Z</time>
      </trkpt>
      <trkpt lat="49.41418" lon="3.51215">
        <ele>74.64</ele>
        <time>2021-07-26T18:54:39Z</time>
      </trkpt>
      <trkpt lat="49.41404" lon="3.51212">
        <ele>74.16</ele>
        <time>2021-07-26T18:54:40Z</time>
      </trkpt>
      <trkpt lat="49.41391" lon="3.5121">
        <ele>73.68</ele>
        <time>2021-07-26T18:54:41Z</time>
      </trkpt>
      <trkpt lat="49.4134" lon="3.512">
        <ele>72.24</ele>
        <time>2021-07-26T18:54:45Z</time>
      </trkpt>
      <trkpt lat="49.41329" lon="3.51198">
        <ele>72.72</ele>
        <time>2021-07-26T18:54:46Z</time>
      </trkpt>
      <trkpt lat="49.41318" lon="3.512">
        <ele>72.24</ele>
        <time>2021-07-26T18:54:47Z</time>
      </trkpt>
      <trkpt lat="49.41308" lon="3.51204">
        <ele>71.27</ele>
        <time>2021-07-26T18:54:48Z</time>
      </trkpt>
      <trkpt lat="49.41299" lon="3.51213">
        <ele>70.79</ele>
        <time>2021-07-26T18:54:49Z</time>
      </trkpt>
      <trkpt lat="49.4129" lon="3.51225">
        <ele>69.35</ele>
        <time>2021-07-26T18:54:50Z</time>
      </trkpt>
      <trkpt lat="49.41281" lon="3.51241">
        <ele>69.35</ele>
        <time>2021-07-26T18:54:51Z</time>
      </trkpt>
      <trkpt lat="49.41275" lon="3.51259">
        <ele>69.35</ele>
        <time>2021-07-26T18:54:52Z</time>
      </trkpt>
      <trkpt lat="49.41271" lon="3.51279">
        <ele>68.87</ele>
        <time>2021-07-26T18:54:53Z</time>
      </trkpt>
      <trkpt lat="49.41268" lon="3.51299">
        <ele>67.43</ele>
        <time>2021-07-26T18:54:54Z</time>
      </trkpt>
      <trkpt lat="49.41266" lon="3.51319">
        <ele>65.99</ele>
        <time>2021-07-26T18:54:55Z</time>
      </trkpt>
      <trkpt lat="49.41265" lon="3.51338">
        <ele>65.03</ele>
        <time>2021-07-26T18:54:56Z</time>
      </trkpt>
      <trkpt lat="49.41266" lon="3.51357">
        <ele>63.1</ele>
        <time>2021-07-26T18:54:57Z</time>
      </trkpt>
      <trkpt lat="49.41268" lon="3.51376">
        <ele>60.7</ele>
        <time>2021-07-26T18:54:58Z</time>
      </trkpt>
      <trkpt lat="49.41274" lon="3.51425">
        <ele>59.26</ele>
        <time>2021-07-26T18:55:01Z</time>
      </trkpt>
      <trkpt lat="49.41275" lon="3.51439">
        <ele>60.22</ele>
        <time>2021-07-26T18:55:02Z</time>
      </trkpt>
      <trkpt lat="49.41274" lon="3.51453">
        <ele>61.18</ele>
        <time>2021-07-26T18:55:03Z</time>
      </trkpt>
      <trkpt lat="49.41273" lon="3.51467">
        <ele>61.18</ele>
        <time>2021-07-26T18:55:04Z</time>
      </trkpt>
      <trkpt lat="49.41267" lon="3.51479">
        <ele>60.7</ele>
        <time>2021-07-26T18:55:05Z</time>
      </trkpt>
      <trkpt lat="49.4126" lon="3.5149">
        <ele>59.26</ele>
        <time>2021-07-26T18:55:06Z</time>
      </trkpt>
      <trkpt lat="49.41252" lon="3.51497">
        <ele>58.3</ele>
        <time>2021-07-26T18:55:07Z</time>
      </trkpt>
      <trkpt lat="49.4122" lon="3.51528">
        <ele>56.86</ele>
        <time>2021-07-26T18:55:11Z</time>
      </trkpt>
      <trkpt lat="49.41213" lon="3.51533">
        <ele>56.37</ele>
        <time>2021-07-26T18:55:12Z</time>
      </trkpt>
      <trkpt lat="49.41206" lon="3.51537">
        <ele>56.37</ele>
        <time>2021-07-26T18:55:13Z</time>
      </trkpt>
      <trkpt lat="49.412" lon="3.51539">
        <ele>55.89</ele>
        <time>2021-07-26T18:55:14Z</time>
      </trkpt>
      <trkpt lat="49.41193" lon="3.5154">
        <ele>55.41</ele>
        <time>2021-07-26T18:55:15Z</time>
      </trkpt>
      <trkpt lat="49.41188" lon="3.5154">
        <ele>54.93</ele>
        <time>2021-07-26T18:55:16Z</time>
      </trkpt>
      <trkpt lat="49.41183" lon="3.51541">
        <ele>54.93</ele>
        <time>2021-07-26T18:55:17Z</time>
      </trkpt>
      <trkpt lat="49.41178" lon="3.51543">
        <ele>54.45</ele>
        <time>2021-07-26T18:55:18Z</time>
      </trkpt>
      <trkpt lat="49.41174" lon="3.51548">
        <ele>54.45</ele>
        <time>2021-07-26T18:55:19Z</time>
      </trkpt>
      <trkpt lat="49.41172" lon="3.51554">
        <ele>54.45</ele>
        <time>2021-07-26T18:55:20Z</time>
      </trkpt>
      <trkpt lat="49.41171" lon="3.51563">
        <ele>54.45</ele>
        <time>2021-07-26T18:55:21Z</time>
      </trkpt>
      <trkpt lat="49.4117" lon="3.51573">
        <ele>54.93</ele>
        <time>2021-07-26T18:55:22Z</time>
      </trkpt>
      <trkpt lat="49.41169" lon="3.51584">
        <ele>54.93</ele>
        <time>2021-07-26T18:55:23Z</time>
      </trkpt>
      <trkpt lat="49.4116" lon="3.51777">
        <ele>59.74</ele>
        <time>2021-07-26T18:55:36Z</time>
      </trkpt>
      <trkpt lat="49.41154" lon="3.51825">
        <ele>59.74</ele>
        <time>2021-07-26T18:55:39Z</time>
      </trkpt>
      <trkpt lat="49.41146" lon="3.51852">
        <ele>59.26</ele>
        <time>2021-07-26T18:55:40Z</time>
      </trkpt>
      <trkpt lat="49.41146" lon="3.51852">
        <ele>58.3</ele>
        <time>2021-07-26T18:55:41Z</time>
      </trkpt>
      <trkpt lat="49.4114" lon="3.51863">
        <ele>57.34</ele>
        <time>2021-07-26T18:55:42Z</time>
      </trkpt>
      <trkpt lat="49.41134" lon="3.51875">
        <ele>56.37</ele>
        <time>2021-07-26T18:55:43Z</time>
      </trkpt>
      <trkpt lat="49.41127" lon="3.51887">
        <ele>55.41</ele>
        <time>2021-07-26T18:55:44Z</time>
      </trkpt>
      <trkpt lat="49.41119" lon="3.519">
        <ele>54.93</ele>
        <time>2021-07-26T18:55:45Z</time>
      </trkpt>
      <trkpt lat="49.4111" lon="3.51912">
        <ele>53.97</ele>
        <time>2021-07-26T18:55:46Z</time>
      </trkpt>
      <trkpt lat="49.411" lon="3.5192">
        <ele>53.49</ele>
        <time>2021-07-26T18:55:47Z</time>
      </trkpt>
      <trkpt lat="49.41091" lon="3.51929">
        <ele>53.49</ele>
        <time>2021-07-26T18:55:48Z</time>
      </trkpt>
      <trkpt lat="49.41082" lon="3.51935">
        <ele>52.53</ele>
        <time>2021-07-26T18:55:49Z</time>
      </trkpt>
      <trkpt lat="49.41071" lon="3.51939">
        <ele>52.05</ele>
        <time>2021-07-26T18:55:50Z</time>
      </trkpt>
      <trkpt lat="49.4106" lon="3.51942">
        <ele>51.57</ele>
        <time>2021-07-26T18:55:51Z</time>
      </trkpt>
      <trkpt lat="49.4105" lon="3.51942">
        <ele>51.09</ele>
        <time>2021-07-26T18:55:52Z</time>
      </trkpt>
      <trkpt lat="49.41042" lon="3.51941">
        <ele>50.61</ele>
        <time>2021-07-26T18:55:53Z</time>
      </trkpt>
      <trkpt lat="49.40943" lon="3.51892">
        <ele>50.61</ele>
        <time>2021-07-26T18:56:03Z</time>
      </trkpt>
      <trkpt lat="49.40849" lon="3.5179">
        <ele>49.16</ele>
        <time>2021-07-26T18:56:14Z</time>
      </trkpt>
      <trkpt lat="49.40841" lon="3.51779">
        <ele>48.68</ele>
        <time>2021-07-26T18:56:15Z</time>
      </trkpt>
      <trkpt lat="49.40833" lon="3.51765">
        <ele>49.65</ele>
        <time>2021-07-26T18:56:16Z</time>
      </trkpt>
      <trkpt lat="49.40829" lon="3.5175">
        <ele>50.13</ele>
        <time>2021-07-26T18:56:17Z</time>
      </trkpt>
      <trkpt lat="49.40826" lon="3.51736">
        <ele>50.61</ele>
        <time>2021-07-26T18:56:18Z</time>
      </trkpt>
      <trkpt lat="49.40822" lon="3.51722">
        <ele>50.61</ele>
        <time>2021-07-26T18:56:19Z</time>
      </trkpt>
      <trkpt lat="49.40822" lon="3.51706">
        <ele>50.61</ele>
        <time>2021-07-26T18:56:20Z</time>
      </trkpt>
      <trkpt lat="49.40821" lon="3.5169">
        <ele>50.13</ele>
        <time>2021-07-26T18:56:21Z</time>
      </trkpt>
      <trkpt lat="49.4082" lon="3.51676">
        <ele>49.65</ele>
        <time>2021-07-26T18:56:22Z</time>
      </trkpt>
      <trkpt lat="49.40819" lon="3.51662">
        <ele>49.65</ele>
        <time>2021-07-26T18:56:23Z</time>
      </trkpt>
      <trkpt lat="49.40817" lon="3.5165">
        <ele>49.65</ele>
        <time>2021-07-26T18:56:24Z</time>
      </trkpt>
      <trkpt lat="49.40816" lon="3.51638">
        <ele>49.65</ele>
        <time>2021-07-26T18:56:25Z</time>
      </trkpt>
      <trkpt lat="49.40814" lon="3.51625">
        <ele>49.16</ele>
        <time>2021-07-26T18:56:26Z</time>
      </trkpt>
      <trkpt lat="49.4081" lon="3.51617">
        <ele>49.65</ele>
        <time>2021-07-26T18:56:27Z</time>
      </trkpt>
      <trkpt lat="49.40806" lon="3.51609">
        <ele>50.13</ele>
        <time>2021-07-26T18:56:28Z</time>
      </trkpt>
      <trkpt lat="49.40799" lon="3.51603">
        <ele>50.13</ele>
        <time>2021-07-26T18:56:29Z</time>
      </trkpt>
      <trkpt lat="49.40785" lon="3.51592">
        <ele>50.61</ele>
        <time>2021-07-26T18:56:30Z</time>
      </trkpt>
      <trkpt lat="49.40785" lon="3.51592">
        <ele>50.61</ele>
        <time>2021-07-26T18:56:31Z</time>
      </trkpt>
      <trkpt lat="49.40654" lon="3.5154">
        <ele>48.68</ele>
        <time>2021-07-26T18:56:44Z</time>
      </trkpt>
      <trkpt lat="49.4056" lon="3.51504">
        <ele>46.28</ele>
        <time>2021-07-26T18:56:54Z</time>
      </trkpt>
      <trkpt lat="49.40485" lon="3.51471">
        <ele>45.32</ele>
        <time>2021-07-26T18:57:03Z</time>
      </trkpt>
      <trkpt lat="49.40475" lon="3.51467">
        <ele>45.8</ele>
        <time>2021-07-26T18:57:04Z</time>
      </trkpt>
      <trkpt lat="49.40468" lon="3.51468">
        <ele>46.28</ele>
        <time>2021-07-26T18:57:05Z</time>
      </trkpt>
      <trkpt lat="49.40453" lon="3.51479">
        <ele>45.8</ele>
        <time>2021-07-26T18:57:06Z</time>
      </trkpt>
      <trkpt lat="49.40453" lon="3.51479">
        <ele>45.32</ele>
        <time>2021-07-26T18:57:07Z</time>
      </trkpt>
      <trkpt lat="49.40446" lon="3.51489">
        <ele>45.32</ele>
        <time>2021-07-26T18:57:08Z</time>
      </trkpt>
      <trkpt lat="49.40399" lon="3.51554">
        <ele>44.84</ele>
        <time>2021-07-26T18:57:15Z</time>
      </trkpt>
      <trkpt lat="49.40392" lon="3.51558">
        <ele>44.36</ele>
        <time>2021-07-26T18:57:16Z</time>
      </trkpt>
      <trkpt lat="49.40385" lon="3.51562">
        <ele>44.84</ele>
        <time>2021-07-26T18:57:17Z</time>
      </trkpt>
      <trkpt lat="49.4038" lon="3.51565">
        <ele>45.8</ele>
        <time>2021-07-26T18:57:18Z</time>
      </trkpt>
      <trkpt lat="49.40373" lon="3.51562">
        <ele>46.28</ele>
        <time>2021-07-26T18:57:19Z</time>
      </trkpt>
      <trkpt lat="49.40367" lon="3.5156">
        <ele>46.76</ele>
        <time>2021-07-26T18:57:20Z</time>
      </trkpt>
      <trkpt lat="49.40247" lon="3.51504">
        <ele>50.61</ele>
        <time>2021-07-26T18:57:33Z</time>
      </trkpt>
      <trkpt lat="49.4017" lon="3.51467">
        <ele>51.09</ele>
        <time>2021-07-26T18:57:45Z</time>
      </trkpt>
      <trkpt lat="49.40164" lon="3.51465">
        <ele>50.61</ele>
        <time>2021-07-26T18:57:46Z</time>
      </trkpt>
      <trkpt lat="49.40159" lon="3.51463">
        <ele>50.13</ele>
        <time>2021-07-26T18:57:47Z</time>
      </trkpt>
      <trkpt lat="49.40155" lon="3.51462">
        <ele>50.13</ele>
        <time>2021-07-26T18:57:48Z</time>
      </trkpt>
      <trkpt lat="49.40155" lon="3.51456">
        <ele>49.65</ele>
        <time>2021-07-26T18:57:49Z</time>
      </trkpt>
      <trkpt lat="49.40156" lon="3.51452">
        <ele>49.16</ele>
        <time>2021-07-26T18:57:50Z</time>
      </trkpt>
      <trkpt lat="49.40156" lon="3.51448">
        <ele>48.68</ele>
        <time>2021-07-26T18:57:51Z</time>
      </trkpt>
      <trkpt lat="49.40156" lon="3.51443">
        <ele>48.68</ele>
        <time>2021-07-26T18:57:52Z</time>
      </trkpt>
      <trkpt lat="49.40157" lon="3.51437">
        <ele>48.2</ele>
        <time>2021-07-26T18:57:53Z</time>
      </trkpt>
      <trkpt lat="49.40182" lon="3.51324">
        <ele>47.24</ele>
        <time>2021-07-26T18:58:09Z</time>
      </trkpt>
      <trkpt lat="49.40185" lon="3.51275">
        <ele>46.76</ele>
        <time>2021-07-26T18:58:18Z</time>
      </trkpt>
      <trkpt lat="49.40187" lon="3.51281">
        <ele>46.76</ele>
        <time>2021-07-26T18:58:19Z</time>
      </trkpt>
      <trkpt lat="49.4019" lon="3.51281">
        <ele>46.76</ele>
        <time>2021-07-26T18:58:20Z</time>
      </trkpt>
      <trkpt lat="49.40193" lon="3.51281">
        <ele>46.76</ele>
        <time>2021-07-26T18:58:21Z</time>
      </trkpt>
      <trkpt lat="49.40197" lon="3.51281">
        <ele>46.28</ele>
        <time>2021-07-26T18:58:22Z</time>
      </trkpt>
      <trkpt lat="49.402" lon="3.51281">
        <ele>46.28</ele>
        <time>2021-07-26T18:58:23Z</time>
      </trkpt>
      <trkpt lat="49.40203" lon="3.51281">
        <ele>46.28</ele>
        <time>2021-07-26T18:58:24Z</time>
      </trkpt>
      <trkpt lat="49.40222" lon="3.51281">
        <ele>46.76</ele>
        <time>2021-07-26T18:58:37Z</time>
      </trkpt>
    </trkseg>
  </trk>
  <trk>
    <name><![CDATA[Journal actif: 2021-07-27 10:14]]></name>
    <trkseg>
      <trkpt lat="49.4025" lon="3.51259">
        <ele>40.51</ele>
        <time>2021-07-27T12:14:33Z</time>
      </trkpt>
      <trkpt lat="49.40235" lon="3.51276">
        <ele>44.36</ele>
        <time>2021-07-27T12:14:48Z</time>
      </trkpt>
      <trkpt lat="49.40234" lon="3.51277">
        <ele>44.36</ele>
        <time>2021-07-27T12:14:49Z</time>
      </trkpt>
      <trkpt lat="49.40226" lon="3.51281">
        <ele>41.95</ele>
        <time>2021-07-27T12:15:00Z</time>
      </trkpt>
      <trkpt lat="49.40221" lon="3.51281">
        <ele>41.95</ele>
        <time>2021-07-27T12:15:02Z</time>
      </trkpt>
      <trkpt lat="49.40194" lon="3.51281">
        <ele>41.95</ele>
        <time>2021-07-27T12:15:17Z</time>
      </trkpt>
      <trkpt lat="49.40194" lon="3.51281">
        <ele>42.92</ele>
        <time>2021-07-27T12:15:21Z</time>
      </trkpt>
      <trkpt lat="49.40188" lon="3.51281">
        <ele>42.92</ele>
        <time>2021-07-27T12:15:22Z</time>
      </trkpt>
      <trkpt lat="49.40185" lon="3.51283">
        <ele>42.92</ele>
        <time>2021-07-27T12:15:23Z</time>
      </trkpt>
      <trkpt lat="49.40185" lon="3.51287">
        <ele>42.92</ele>
        <time>2021-07-27T12:15:24Z</time>
      </trkpt>
      <trkpt lat="49.40184" lon="3.51292">
        <ele>42.44</ele>
        <time>2021-07-27T12:15:25Z</time>
      </trkpt>
      <trkpt lat="49.40175" lon="3.51356">
        <ele>43.4</ele>
        <time>2021-07-27T12:15:37Z</time>
      </trkpt>
      <trkpt lat="49.40155" lon="3.51454">
        <ele>47.24</ele>
        <time>2021-07-27T12:15:54Z</time>
      </trkpt>
      <trkpt lat="49.40155" lon="3.51461">
        <ele>49.16</ele>
        <time>2021-07-27T12:16:00Z</time>
      </trkpt>
      <trkpt lat="49.40155" lon="3.51461">
        <ele>49.16</ele>
        <time>2021-07-27T12:16:01Z</time>
      </trkpt>
      <trkpt lat="49.40155" lon="3.51462">
        <ele>49.16</ele>
        <time>2021-07-27T12:16:02Z</time>
      </trkpt>
      <trkpt lat="49.40157" lon="3.51462">
        <ele>48.68</ele>
        <time>2021-07-27T12:16:03Z</time>
      </trkpt>
      <trkpt lat="49.40161" lon="3.51464">
        <ele>48.2</ele>
        <time>2021-07-27T12:16:04Z</time>
      </trkpt>
      <trkpt lat="49.40214" lon="3.51488">
        <ele>46.76</ele>
        <time>2021-07-27T12:16:19Z</time>
      </trkpt>
      <trkpt lat="49.40232" lon="3.51496">
        <ele>46.28</ele>
        <time>2021-07-27T12:16:24Z</time>
      </trkpt>
      <trkpt lat="49.40234" lon="3.51505">
        <ele>45.8</ele>
        <time>2021-07-27T12:16:25Z</time>
      </trkpt>
      <trkpt lat="49.40233" lon="3.51508">
        <ele>45.8</ele>
        <time>2021-07-27T12:16:26Z</time>
      </trkpt>
      <trkpt lat="49.40232" lon="3.51511">
        <ele>45.32</ele>
        <time>2021-07-27T12:16:27Z</time>
      </trkpt>
      <trkpt lat="49.40231" lon="3.51515">
        <ele>44.84</ele>
        <time>2021-07-27T12:16:28Z</time>
      </trkpt>
      <trkpt lat="49.4023" lon="3.51518">
        <ele>44.84</ele>
        <time>2021-07-27T12:16:29Z</time>
      </trkpt>
      <trkpt lat="49.40229" lon="3.51521">
        <ele>44.84</ele>
        <time>2021-07-27T12:16:30Z</time>
      </trkpt>
      <trkpt lat="49.40227" lon="3.51524">
        <ele>44.84</ele>
        <time>2021-07-27T12:16:31Z</time>
      </trkpt>
      <trkpt lat="49.40223" lon="3.51527">
        <ele>45.32</ele>
        <time>2021-07-27T12:16:32Z</time>
      </trkpt>
      <trkpt lat="49.40223" lon="3.51527">
        <ele>45.32</ele>
        <time>2021-07-27T12:16:46Z</time>
      </trkpt>
      <trkpt lat="49.40223" lon="3.51527">
        <ele>45.32</ele>
        <time>2021-07-27T12:22:58Z</time>
      </trkpt>
      <trkpt lat="49.40223" lon="3.51527">
        <ele>45.32</ele>
        <time>2021-07-27T12:25:41Z</time>
      </trkpt>
      <trkpt lat="49.40223" lon="3.51527">
        <ele>45.32</ele>
        <time>2021-07-27T12:27:03Z</time>
      </trkpt>
      <trkpt lat="49.40228" lon="3.51524">
        <ele>45.32</ele>
        <time>2021-07-27T12:27:04Z</time>
      </trkpt>
      <trkpt lat="49.40228" lon="3.51524">
        <ele>45.32</ele>
        <time>2021-07-27T12:27:05Z</time>
      </trkpt>
      <trkpt lat="49.40228" lon="3.51524">
        <ele>45.32</ele>
        <time>2021-07-27T12:27:06Z</time>
      </trkpt>
      <trkpt lat="49.40228" lon="3.51523">
        <ele>44.84</ele>
        <time>2021-07-27T12:27:07Z</time>
      </trkpt>
      <trkpt lat="49.40229" lon="3.51521">
        <ele>45.32</ele>
        <time>2021-07-27T12:27:08Z</time>
      </trkpt>
      <trkpt lat="49.40229" lon="3.51521">
        <ele>45.32</ele>
        <time>2021-07-27T12:27:21Z</time>
      </trkpt>
      <trkpt lat="49.40228" lon="3.51524">
        <ele>45.32</ele>
        <time>2021-07-27T12:27:27Z</time>
      </trkpt>
      <trkpt lat="49.40228" lon="3.51524">
        <ele>44.84</ele>
        <time>2021-07-27T12:27:28Z</time>
      </trkpt>
      <trkpt lat="49.40228" lon="3.51524">
        <ele>44.84</ele>
        <time>2021-07-27T12:27:29Z</time>
      </trkpt>
      <trkpt lat="49.40228" lon="3.51524">
        <ele>45.32</ele>
        <time>2021-07-27T12:27:30Z</time>
      </trkpt>
      <trkpt lat="49.40228" lon="3.51524">
        <ele>45.32</ele>
        <time>2021-07-27T12:27:31Z</time>
      </trkpt>
      <trkpt lat="49.4023" lon="3.51525">
        <ele>45.32</ele>
        <time>2021-07-27T12:27:32Z</time>
      </trkpt>
      <trkpt lat="49.40259" lon="3.51527">
        <ele>44.36</ele>
        <time>2021-07-27T12:27:44Z</time>
      </trkpt>
      <trkpt lat="49.40272" lon="3.51514">
        <ele>43.88</ele>
        <time>2021-07-27T12:27:52Z</time>
      </trkpt>
      <trkpt lat="49.40276" lon="3.51516">
        <ele>43.88</ele>
        <time>2021-07-27T12:27:53Z</time>
      </trkpt>
      <trkpt lat="49.40337" lon="3.51546">
        <ele>43.88</ele>
        <time>2021-07-27T12:28:06Z</time>
      </trkpt>
      <trkpt lat="49.40393" lon="3.51572">
        <ele>43.88</ele>
        <time>2021-07-27T12:28:22Z</time>
      </trkpt>
      <trkpt lat="49.40474" lon="3.51607">
        <ele>41.95</ele>
        <time>2021-07-27T12:28:40Z</time>
      </trkpt>
      <trkpt lat="49.40502" lon="3.51621">
        <ele>44.84</ele>
        <time>2021-07-27T12:28:50Z</time>
      </trkpt>
      <trkpt lat="49.40524" lon="3.51632">
        <ele>43.88</ele>
        <time>2021-07-27T12:29:03Z</time>
      </trkpt>
      <trkpt lat="49.40607" lon="3.51671">
        <ele>41.47</ele>
        <time>2021-07-27T12:29:19Z</time>
      </trkpt>
      <trkpt lat="49.40677" lon="3.51705">
        <ele>44.36</ele>
        <time>2021-07-27T12:29:35Z</time>
      </trkpt>
      <trkpt lat="49.40701" lon="3.51717">
        <ele>46.76</ele>
        <time>2021-07-27T12:29:45Z</time>
      </trkpt>
      <trkpt lat="49.40702" lon="3.51718">
        <ele>48.68</ele>
        <time>2021-07-27T12:29:52Z</time>
      </trkpt>
      <trkpt lat="49.40706" lon="3.5172">
        <ele>48.68</ele>
        <time>2021-07-27T12:29:53Z</time>
      </trkpt>
      <trkpt lat="49.40707" lon="3.51721">
        <ele>48.68</ele>
        <time>2021-07-27T12:29:54Z</time>
      </trkpt>
      <trkpt lat="49.40705" lon="3.51715">
        <ele>49.16</ele>
        <time>2021-07-27T12:29:55Z</time>
      </trkpt>
      <trkpt lat="49.4071" lon="3.51689">
        <ele>53.01</ele>
        <time>2021-07-27T12:30:09Z</time>
      </trkpt>
      <trkpt lat="49.40725" lon="3.51617">
        <ele>53.97</ele>
        <time>2021-07-27T12:30:21Z</time>
      </trkpt>
      <trkpt lat="49.40735" lon="3.51577">
        <ele>53.49</ele>
        <time>2021-07-27T12:30:30Z</time>
      </trkpt>
      <trkpt lat="49.40731" lon="3.51569">
        <ele>53.49</ele>
        <time>2021-07-27T12:30:36Z</time>
      </trkpt>
      <trkpt lat="49.40731" lon="3.51569">
        <ele>53.49</ele>
        <time>2021-07-27T12:30:37Z</time>
      </trkpt>
      <trkpt lat="49.40727" lon="3.51567">
        <ele>53.49</ele>
        <time>2021-07-27T12:30:38Z</time>
      </trkpt>
      <trkpt lat="49.40723" lon="3.51566">
        <ele>53.01</ele>
        <time>2021-07-27T12:30:39Z</time>
      </trkpt>
      <trkpt lat="49.40719" lon="3.51564">
        <ele>53.01</ele>
        <time>2021-07-27T12:30:40Z</time>
      </trkpt>
      <trkpt lat="49.40715" lon="3.51562">
        <ele>52.53</ele>
        <time>2021-07-27T12:30:41Z</time>
      </trkpt>
      <trkpt lat="49.40653" lon="3.5154">
        <ele>52.53</ele>
        <time>2021-07-27T12:30:54Z</time>
      </trkpt>
      <trkpt lat="49.40592" lon="3.51521">
        <ele>51.57</ele>
        <time>2021-07-27T12:31:07Z</time>
      </trkpt>
      <trkpt lat="49.40579" lon="3.51514">
        <ele>52.53</ele>
        <time>2021-07-27T12:31:15Z</time>
      </trkpt>
      <trkpt lat="49.40574" lon="3.51511">
        <ele>52.53</ele>
        <time>2021-07-27T12:31:16Z</time>
      </trkpt>
      <trkpt lat="49.40569" lon="3.51508">
        <ele>51.57</ele>
        <time>2021-07-27T12:31:30Z</time>
      </trkpt>
      <trkpt lat="49.40569" lon="3.51508">
        <ele>51.57</ele>
        <time>2021-07-27T12:37:22Z</time>
      </trkpt>
      <trkpt lat="49.40569" lon="3.51508">
        <ele>51.57</ele>
        <time>2021-07-27T12:39:39Z</time>
      </trkpt>
      <trkpt lat="49.40569" lon="3.51508">
        <ele>52.53</ele>
        <time>2021-07-27T12:46:52Z</time>
      </trkpt>
      <trkpt lat="49.40569" lon="3.51508">
        <ele>52.53</ele>
        <time>2021-07-27T12:55:15Z</time>
      </trkpt>
      <trkpt lat="49.40569" lon="3.51508">
        <ele>53.01</ele>
        <time>2021-07-27T12:59:04Z</time>
      </trkpt>
      <trkpt lat="49.40569" lon="3.51508">
        <ele>53.49</ele>
        <time>2021-07-27T13:02:05Z</time>
      </trkpt>
      <trkpt lat="49.40569" lon="3.51508">
        <ele>53.01</ele>
        <time>2021-07-27T13:08:37Z</time>
      </trkpt>
      <trkpt lat="49.40569" lon="3.51508">
        <ele>54.45</ele>
        <time>2021-07-27T13:20:57Z</time>
      </trkpt>
      <trkpt lat="49.40569" lon="3.51508">
        <ele>54.45</ele>
        <time>2021-07-27T13:24:06Z</time>
      </trkpt>
      <trkpt lat="49.40569" lon="3.51508">
        <ele>53.49</ele>
        <time>2021-07-27T13:24:21Z</time>
      </trkpt>
      <trkpt lat="49.40546" lon="3.51486">
        <ele>52.53</ele>
        <time>2021-07-27T13:24:31Z</time>
      </trkpt>
      <trkpt lat="49.40565" lon="3.51425">
        <ele>52.53</ele>
        <time>2021-07-27T13:24:43Z</time>
      </trkpt>
      <trkpt lat="49.40571" lon="3.51406">
        <ele>51.57</ele>
        <time>2021-07-27T13:24:54Z</time>
      </trkpt>
      <trkpt lat="49.40571" lon="3.51406">
        <ele>51.57</ele>
        <time>2021-07-27T13:25:14Z</time>
      </trkpt>
      <trkpt lat="49.40571" lon="3.51406">
        <ele>51.57</ele>
        <time>2021-07-27T13:27:40Z</time>
      </trkpt>
      <trkpt lat="49.40571" lon="3.51406">
        <ele>52.05</ele>
        <time>2021-07-27T13:27:58Z</time>
      </trkpt>
      <trkpt lat="49.40571" lon="3.51406">
        <ele>52.05</ele>
        <time>2021-07-27T13:28:40Z</time>
      </trkpt>
      <trkpt lat="49.40571" lon="3.51406">
        <ele>51.09</ele>
        <time>2021-07-27T13:29:25Z</time>
      </trkpt>
      <trkpt lat="49.40571" lon="3.51406">
        <ele>50.61</ele>
        <time>2021-07-27T13:32:19Z</time>
      </trkpt>
      <trkpt lat="49.40571" lon="3.51406">
        <ele>49.65</ele>
        <time>2021-07-27T13:33:33Z</time>
      </trkpt>
      <trkpt lat="49.40571" lon="3.51406">
        <ele>49.16</ele>
        <time>2021-07-27T13:33:48Z</time>
      </trkpt>
      <trkpt lat="49.40571" lon="3.51406">
        <ele>49.16</ele>
        <time>2021-07-27T13:34:00Z</time>
      </trkpt>
      <trkpt lat="49.40571" lon="3.51406">
        <ele>49.16</ele>
        <time>2021-07-27T13:34:01Z</time>
      </trkpt>
      <trkpt lat="49.4058" lon="3.51374">
        <ele>49.16</ele>
        <time>2021-07-27T13:34:02Z</time>
      </trkpt>
      <trkpt lat="49.4058" lon="3.51374">
        <ele>49.16</ele>
        <time>2021-07-27T13:34:03Z</time>
      </trkpt>
      <trkpt lat="49.4058" lon="3.51374">
        <ele>49.16</ele>
        <time>2021-07-27T13:34:04Z</time>
      </trkpt>
      <trkpt lat="49.40579" lon="3.51378">
        <ele>49.16</ele>
        <time>2021-07-27T13:34:05Z</time>
      </trkpt>
      <trkpt lat="49.40578" lon="3.51379">
        <ele>49.16</ele>
        <time>2021-07-27T13:34:06Z</time>
      </trkpt>
      <trkpt lat="49.40578" lon="3.51379">
        <ele>49.16</ele>
        <time>2021-07-27T13:34:07Z</time>
      </trkpt>
      <trkpt lat="49.40578" lon="3.51379">
        <ele>49.16</ele>
        <time>2021-07-27T13:34:08Z</time>
      </trkpt>
      <trkpt lat="49.40565" lon="3.51426">
        <ele>48.68</ele>
        <time>2021-07-27T13:34:23Z</time>
      </trkpt>
      <trkpt lat="49.40546" lon="3.51487">
        <ele>48.2</ele>
        <time>2021-07-27T13:34:37Z</time>
      </trkpt>
      <trkpt lat="49.40546" lon="3.51487">
        <ele>48.2</ele>
        <time>2021-07-27T13:34:46Z</time>
      </trkpt>
      <trkpt lat="49.40543" lon="3.51496">
        <ele>48.2</ele>
        <time>2021-07-27T13:34:47Z</time>
      </trkpt>
      <trkpt lat="49.40543" lon="3.51498">
        <ele>48.2</ele>
        <time>2021-07-27T13:34:48Z</time>
      </trkpt>
      <trkpt lat="49.40545" lon="3.51497">
        <ele>48.2</ele>
        <time>2021-07-27T13:34:49Z</time>
      </trkpt>
      <trkpt lat="49.40549" lon="3.51498">
        <ele>48.2</ele>
        <time>2021-07-27T13:34:50Z</time>
      </trkpt>
      <trkpt lat="49.40552" lon="3.515">
        <ele>48.2</ele>
        <time>2021-07-27T13:34:51Z</time>
      </trkpt>
      <trkpt lat="49.40556" lon="3.51501">
        <ele>48.2</ele>
        <time>2021-07-27T13:34:52Z</time>
      </trkpt>
      <trkpt lat="49.40559" lon="3.51503">
        <ele>48.2</ele>
        <time>2021-07-27T13:34:53Z</time>
      </trkpt>
      <trkpt lat="49.40563" lon="3.51505">
        <ele>48.2</ele>
        <time>2021-07-27T13:34:54Z</time>
      </trkpt>
      <trkpt lat="49.40605" lon="3.51528">
        <ele>49.16</ele>
        <time>2021-07-27T13:35:03Z</time>
      </trkpt>
      <trkpt lat="49.40614" lon="3.5153">
        <ele>49.16</ele>
        <time>2021-07-27T13:35:05Z</time>
      </trkpt>
      <trkpt lat="49.40619" lon="3.51532">
        <ele>49.16</ele>
        <time>2021-07-27T13:35:06Z</time>
      </trkpt>
      <trkpt lat="49.40624" lon="3.51533">
        <ele>49.16</ele>
        <time>2021-07-27T13:35:07Z</time>
      </trkpt>
      <trkpt lat="49.40633" lon="3.51535">
        <ele>49.16</ele>
        <time>2021-07-27T13:35:08Z</time>
      </trkpt>
      <trkpt lat="49.40639" lon="3.51537">
        <ele>49.16</ele>
        <time>2021-07-27T13:35:09Z</time>
      </trkpt>
      <trkpt lat="49.40702" lon="3.51557">
        <ele>49.65</ele>
        <time>2021-07-27T13:35:20Z</time>
      </trkpt>
      <trkpt lat="49.40788" lon="3.51594">
        <ele>50.61</ele>
        <time>2021-07-27T13:35:35Z</time>
      </trkpt>
      <trkpt lat="49.40822" lon="3.51622">
        <ele>50.13</ele>
        <time>2021-07-27T13:35:43Z</time>
      </trkpt>
      <trkpt lat="49.40829" lon="3.5162">
        <ele>49.65</ele>
        <time>2021-07-27T13:35:44Z</time>
      </trkpt>
      <trkpt lat="49.40843" lon="3.51627">
        <ele>48.68</ele>
        <time>2021-07-27T13:35:51Z</time>
      </trkpt>
      <trkpt lat="49.40862" lon="3.51629">
        <ele>48.2</ele>
        <time>2021-07-27T13:36:02Z</time>
      </trkpt>
      <trkpt lat="49.40862" lon="3.51629">
        <ele>47.72</ele>
        <time>2021-07-27T13:36:45Z</time>
      </trkpt>
      <trkpt lat="49.40862" lon="3.51629">
        <ele>47.72</ele>
        <time>2021-07-27T13:41:45Z</time>
      </trkpt>
      <trkpt lat="49.40862" lon="3.51629">
        <ele>48.2</ele>
        <time>2021-07-27T13:43:31Z</time>
      </trkpt>
      <trkpt lat="49.40862" lon="3.51629">
        <ele>50.13</ele>
        <time>2021-07-27T13:45:10Z</time>
      </trkpt>
      <trkpt lat="49.40862" lon="3.51629">
        <ele>50.61</ele>
        <time>2021-07-27T13:47:03Z</time>
      </trkpt>
      <trkpt lat="49.40862" lon="3.51629">
        <ele>51.09</ele>
        <time>2021-07-27T13:48:13Z</time>
      </trkpt>
      <trkpt lat="49.40862" lon="3.51629">
        <ele>51.57</ele>
        <time>2021-07-27T13:49:19Z</time>
      </trkpt>
      <trkpt lat="49.40862" lon="3.51629">
        <ele>52.05</ele>
        <time>2021-07-27T13:49:40Z</time>
      </trkpt>
      <trkpt lat="49.40873" lon="3.51612">
        <ele>51.09</ele>
        <time>2021-07-27T13:49:54Z</time>
      </trkpt>
      <trkpt lat="49.40898" lon="3.51576">
        <ele>51.09</ele>
        <time>2021-07-27T13:50:06Z</time>
      </trkpt>
      <trkpt lat="49.40953" lon="3.51485">
        <ele>51.09</ele>
        <time>2021-07-27T13:50:23Z</time>
      </trkpt>
      <trkpt lat="49.40974" lon="3.51468">
        <ele>51.57</ele>
        <time>2021-07-27T13:50:33Z</time>
      </trkpt>
      <trkpt lat="49.41019" lon="3.515">
        <ele>51.57</ele>
        <time>2021-07-27T13:50:44Z</time>
      </trkpt>
      <trkpt lat="49.41035" lon="3.51506">
        <ele>52.05</ele>
        <time>2021-07-27T13:50:50Z</time>
      </trkpt>
      <trkpt lat="49.41104" lon="3.51517">
        <ele>52.53</ele>
        <time>2021-07-27T13:51:01Z</time>
      </trkpt>
      <trkpt lat="49.41162" lon="3.51525">
        <ele>54.93</ele>
        <time>2021-07-27T13:51:12Z</time>
      </trkpt>
      <trkpt lat="49.4117" lon="3.51526">
        <ele>55.89</ele>
        <time>2021-07-27T13:51:19Z</time>
      </trkpt>
      <trkpt lat="49.4121" lon="3.51534">
        <ele>57.82</ele>
        <time>2021-07-27T13:51:27Z</time>
      </trkpt>
      <trkpt lat="49.4122" lon="3.51527">
        <ele>58.3</ele>
        <time>2021-07-27T13:51:28Z</time>
      </trkpt>
      <trkpt lat="49.41232" lon="3.51516">
        <ele>58.3</ele>
        <time>2021-07-27T13:51:30Z</time>
      </trkpt>
      <trkpt lat="49.41264" lon="3.51484">
        <ele>60.7</ele>
        <time>2021-07-27T13:51:36Z</time>
      </trkpt>
      <trkpt lat="49.41269" lon="3.51474">
        <ele>61.18</ele>
        <time>2021-07-27T13:51:37Z</time>
      </trkpt>
      <trkpt lat="49.41273" lon="3.51466">
        <ele>61.66</ele>
        <time>2021-07-27T13:51:38Z</time>
      </trkpt>
      <trkpt lat="49.41274" lon="3.51453">
        <ele>62.14</ele>
        <time>2021-07-27T13:51:39Z</time>
      </trkpt>
      <trkpt lat="49.41274" lon="3.5144">
        <ele>63.1</ele>
        <time>2021-07-27T13:51:40Z</time>
      </trkpt>
      <trkpt lat="49.41274" lon="3.51426">
        <ele>63.58</ele>
        <time>2021-07-27T13:51:41Z</time>
      </trkpt>
      <trkpt lat="49.41272" lon="3.5141">
        <ele>63.58</ele>
        <time>2021-07-27T13:51:42Z</time>
      </trkpt>
      <trkpt lat="49.41266" lon="3.5136">
        <ele>63.58</ele>
        <time>2021-07-27T13:51:45Z</time>
      </trkpt>
      <trkpt lat="49.41264" lon="3.51342">
        <ele>64.55</ele>
        <time>2021-07-27T13:51:46Z</time>
      </trkpt>
      <trkpt lat="49.41267" lon="3.51305">
        <ele>66.95</ele>
        <time>2021-07-27T13:51:47Z</time>
      </trkpt>
      <trkpt lat="49.4127" lon="3.51286">
        <ele>69.83</ele>
        <time>2021-07-27T13:51:48Z</time>
      </trkpt>
      <trkpt lat="49.4127" lon="3.51286">
        <ele>70.31</ele>
        <time>2021-07-27T13:51:49Z</time>
      </trkpt>
      <trkpt lat="49.41274" lon="3.51265">
        <ele>69.35</ele>
        <time>2021-07-27T13:51:50Z</time>
      </trkpt>
      <trkpt lat="49.41277" lon="3.51247">
        <ele>69.83</ele>
        <time>2021-07-27T13:51:51Z</time>
      </trkpt>
      <trkpt lat="49.41285" lon="3.51234">
        <ele>70.79</ele>
        <time>2021-07-27T13:51:52Z</time>
      </trkpt>
      <trkpt lat="49.41293" lon="3.5122">
        <ele>71.27</ele>
        <time>2021-07-27T13:51:53Z</time>
      </trkpt>
      <trkpt lat="49.41302" lon="3.51209">
        <ele>72.72</ele>
        <time>2021-07-27T13:51:54Z</time>
      </trkpt>
      <trkpt lat="49.41312" lon="3.51201">
        <ele>73.68</ele>
        <time>2021-07-27T13:51:55Z</time>
      </trkpt>
      <trkpt lat="49.41325" lon="3.51198">
        <ele>74.64</ele>
        <time>2021-07-27T13:51:56Z</time>
      </trkpt>
      <trkpt lat="49.41338" lon="3.512">
        <ele>75.12</ele>
        <time>2021-07-27T13:51:57Z</time>
      </trkpt>
      <trkpt lat="49.41351" lon="3.51202">
        <ele>76.08</ele>
        <time>2021-07-27T13:51:58Z</time>
      </trkpt>
      <trkpt lat="49.41422" lon="3.51216">
        <ele>79.93</ele>
        <time>2021-07-27T13:52:03Z</time>
      </trkpt>
      <trkpt lat="49.41422" lon="3.51216">
        <ele>80.41</ele>
        <time>2021-07-27T13:52:04Z</time>
      </trkpt>
      <trkpt lat="49.41444" lon="3.51207">
        <ele>80.41</ele>
        <time>2021-07-27T13:52:05Z</time>
      </trkpt>
      <trkpt lat="49.41455" lon="3.512">
        <ele>80.41</ele>
        <time>2021-07-27T13:52:06Z</time>
      </trkpt>
      <trkpt lat="49.41462" lon="3.51186">
        <ele>79.93</ele>
        <time>2021-07-27T13:52:07Z</time>
      </trkpt>
      <trkpt lat="49.41462" lon="3.51186">
        <ele>79.45</ele>
        <time>2021-07-27T13:52:08Z</time>
      </trkpt>
      <trkpt lat="49.41469" lon="3.51171">
        <ele>80.89</ele>
        <time>2021-07-27T13:52:09Z</time>
      </trkpt>
      <trkpt lat="49.41474" lon="3.51152">
        <ele>81.37</ele>
        <time>2021-07-27T13:52:10Z</time>
      </trkpt>
      <trkpt lat="49.41479" lon="3.51132">
        <ele>82.33</ele>
        <time>2021-07-27T13:52:11Z</time>
      </trkpt>
      <trkpt lat="49.41483" lon="3.51111">
        <ele>82.81</ele>
        <time>2021-07-27T13:52:12Z</time>
      </trkpt>
      <trkpt lat="49.41484" lon="3.5109">
        <ele>83.77</ele>
        <time>2021-07-27T13:52:13Z</time>
      </trkpt>
      <trkpt lat="49.41485" lon="3.51027">
        <ele>89.06</ele>
        <time>2021-07-27T13:52:16Z</time>
      </trkpt>
      <trkpt lat="49.41486" lon="3.51004">
        <ele>90.02</ele>
        <time>2021-07-27T13:52:17Z</time>
      </trkpt>
      <trkpt lat="49.41493" lon="3.50988">
        <ele>90.02</ele>
        <time>2021-07-27T13:52:18Z</time>
      </trkpt>
      <trkpt lat="49.41501" lon="3.5097">
        <ele>89.54</ele>
        <time>2021-07-27T13:52:19Z</time>
      </trkpt>
      <trkpt lat="49.41521" lon="3.50946">
        <ele>90.02</ele>
        <time>2021-07-27T13:52:20Z</time>
      </trkpt>
      <trkpt lat="49.41521" lon="3.50946">
        <ele>90.02</ele>
        <time>2021-07-27T13:52:21Z</time>
      </trkpt>
      <trkpt lat="49.41533" lon="3.5094">
        <ele>90.02</ele>
        <time>2021-07-27T13:52:22Z</time>
      </trkpt>
      <trkpt lat="49.41561" lon="3.50936">
        <ele>90.98</ele>
        <time>2021-07-27T13:52:23Z</time>
      </trkpt>
      <trkpt lat="49.41561" lon="3.50936">
        <ele>91.46</ele>
        <time>2021-07-27T13:52:24Z</time>
      </trkpt>
      <trkpt lat="49.41577" lon="3.50939">
        <ele>91.46</ele>
        <time>2021-07-27T13:52:25Z</time>
      </trkpt>
      <trkpt lat="49.41591" lon="3.50947">
        <ele>91.46</ele>
        <time>2021-07-27T13:52:26Z</time>
      </trkpt>
      <trkpt lat="49.41747" lon="3.51046">
        <ele>97.23</ele>
        <time>2021-07-27T13:52:37Z</time>
      </trkpt>
      <trkpt lat="49.41761" lon="3.51058">
        <ele>97.71</ele>
        <time>2021-07-27T13:52:38Z</time>
      </trkpt>
      <trkpt lat="49.41774" lon="3.51071">
        <ele>97.71</ele>
        <time>2021-07-27T13:52:39Z</time>
      </trkpt>
      <trkpt lat="49.41785" lon="3.51089">
        <ele>98.19</ele>
        <time>2021-07-27T13:52:40Z</time>
      </trkpt>
      <trkpt lat="49.41796" lon="3.51108">
        <ele>98.19</ele>
        <time>2021-07-27T13:52:41Z</time>
      </trkpt>
      <trkpt lat="49.41835" lon="3.51185">
        <ele>100.6</ele>
        <time>2021-07-27T13:52:45Z</time>
      </trkpt>
      <trkpt lat="49.41846" lon="3.512">
        <ele>102.04</ele>
        <time>2021-07-27T13:52:46Z</time>
      </trkpt>
      <trkpt lat="49.41857" lon="3.51212">
        <ele>105.88</ele>
        <time>2021-07-27T13:52:47Z</time>
      </trkpt>
      <trkpt lat="49.41869" lon="3.51221">
        <ele>107.32</ele>
        <time>2021-07-27T13:52:48Z</time>
      </trkpt>
      <trkpt lat="49.41881" lon="3.51225">
        <ele>106.84</ele>
        <time>2021-07-27T13:52:49Z</time>
      </trkpt>
      <trkpt lat="49.41894" lon="3.51229">
        <ele>107.32</ele>
        <time>2021-07-27T13:52:50Z</time>
      </trkpt>
      <trkpt lat="49.41905" lon="3.51232">
        <ele>106.36</ele>
        <time>2021-07-27T13:52:51Z</time>
      </trkpt>
      <trkpt lat="49.41913" lon="3.51235">
        <ele>104.92</ele>
        <time>2021-07-27T13:52:52Z</time>
      </trkpt>
      <trkpt lat="49.41927" lon="3.51241">
        <ele>104.44</ele>
        <time>2021-07-27T13:52:53Z</time>
      </trkpt>
      <trkpt lat="49.41927" lon="3.51241">
        <ele>103.48</ele>
        <time>2021-07-27T13:52:54Z</time>
      </trkpt>
      <trkpt lat="49.41933" lon="3.51249">
        <ele>103.48</ele>
        <time>2021-07-27T13:52:55Z</time>
      </trkpt>
      <trkpt lat="49.41939" lon="3.51257">
        <ele>103</ele>
        <time>2021-07-27T13:52:56Z</time>
      </trkpt>
      <trkpt lat="49.41944" lon="3.51266">
        <ele>102.52</ele>
        <time>2021-07-27T13:52:57Z</time>
      </trkpt>
      <trkpt lat="49.4195" lon="3.51278">
        <ele>102.04</ele>
        <time>2021-07-27T13:52:58Z</time>
      </trkpt>
      <trkpt lat="49.41956" lon="3.51291">
        <ele>101.56</ele>
        <time>2021-07-27T13:52:59Z</time>
      </trkpt>
      <trkpt lat="49.41977" lon="3.51333">
        <ele>103</ele>
        <time>2021-07-27T13:53:02Z</time>
      </trkpt>
      <trkpt lat="49.41985" lon="3.51345">
        <ele>103.96</ele>
        <time>2021-07-27T13:53:03Z</time>
      </trkpt>
      <trkpt lat="49.42" lon="3.51368">
        <ele>106.84</ele>
        <time>2021-07-27T13:53:05Z</time>
      </trkpt>
      <trkpt lat="49.42009" lon="3.51377">
        <ele>107.81</ele>
        <time>2021-07-27T13:53:06Z</time>
      </trkpt>
      <trkpt lat="49.42137" lon="3.51474">
        <ele>113.09</ele>
        <time>2021-07-27T13:53:17Z</time>
      </trkpt>
      <trkpt lat="49.4225" lon="3.51582">
        <ele>122.71</ele>
        <time>2021-07-27T13:53:26Z</time>
      </trkpt>
      <trkpt lat="49.42347" lon="3.51645">
        <ele>129.43</ele>
        <time>2021-07-27T13:53:33Z</time>
      </trkpt>
      <trkpt lat="49.42476" lon="3.51797">
        <ele>137.13</ele>
        <time>2021-07-27T13:53:43Z</time>
      </trkpt>
      <trkpt lat="49.42555" lon="3.51934">
        <ele>143.37</ele>
        <time>2021-07-27T13:53:50Z</time>
      </trkpt>
      <trkpt lat="49.42656" lon="3.52254">
        <ele>155.39</ele>
        <time>2021-07-27T13:54:03Z</time>
      </trkpt>
      <trkpt lat="49.4282" lon="3.52792">
        <ele>167.89</ele>
        <time>2021-07-27T13:54:24Z</time>
      </trkpt>
      <trkpt lat="49.42944" lon="3.53178">
        <ele>174.14</ele>
        <time>2021-07-27T13:54:39Z</time>
      </trkpt>
      <trkpt lat="49.42955" lon="3.53199">
        <ele>175.1</ele>
        <time>2021-07-27T13:54:40Z</time>
      </trkpt>
      <trkpt lat="49.42967" lon="3.53218">
        <ele>175.58</ele>
        <time>2021-07-27T13:54:41Z</time>
      </trkpt>
      <trkpt lat="49.42981" lon="3.53235">
        <ele>176.06</ele>
        <time>2021-07-27T13:54:42Z</time>
      </trkpt>
      <trkpt lat="49.42996" lon="3.53253">
        <ele>177.02</ele>
        <time>2021-07-27T13:54:43Z</time>
      </trkpt>
      <trkpt lat="49.4322" lon="3.53491">
        <ele>181.83</ele>
        <time>2021-07-27T13:54:57Z</time>
      </trkpt>
      <trkpt lat="49.4337" lon="3.53653">
        <ele>180.38</ele>
        <time>2021-07-27T13:55:06Z</time>
      </trkpt>
      <trkpt lat="49.43498" lon="3.53762">
        <ele>179.42</ele>
        <time>2021-07-27T13:55:13Z</time>
      </trkpt>
      <trkpt lat="49.43517" lon="3.53771">
        <ele>177.98</ele>
        <time>2021-07-27T13:55:14Z</time>
      </trkpt>
      <trkpt lat="49.43537" lon="3.53778">
        <ele>176.54</ele>
        <time>2021-07-27T13:55:15Z</time>
      </trkpt>
      <trkpt lat="49.43787" lon="3.53821">
        <ele>180.38</ele>
        <time>2021-07-27T13:55:27Z</time>
      </trkpt>
      <trkpt lat="49.4412" lon="3.53831">
        <ele>182.79</ele>
        <time>2021-07-27T13:55:43Z</time>
      </trkpt>
      <trkpt lat="49.44561" lon="3.53831">
        <ele>183.27</ele>
        <time>2021-07-27T13:56:04Z</time>
      </trkpt>
      <trkpt lat="49.44862" lon="3.53835">
        <ele>175.1</ele>
        <time>2021-07-27T13:56:18Z</time>
      </trkpt>
      <trkpt lat="49.44881" lon="3.53843">
        <ele>174.62</ele>
        <time>2021-07-27T13:56:19Z</time>
      </trkpt>
      <trkpt lat="49.449" lon="3.5385">
        <ele>175.58</ele>
        <time>2021-07-27T13:56:20Z</time>
      </trkpt>
      <trkpt lat="49.44919" lon="3.53862">
        <ele>175.58</ele>
        <time>2021-07-27T13:56:21Z</time>
      </trkpt>
      <trkpt lat="49.44937" lon="3.53878">
        <ele>175.58</ele>
        <time>2021-07-27T13:56:22Z</time>
      </trkpt>
      <trkpt lat="49.44954" lon="3.53893">
        <ele>175.58</ele>
        <time>2021-07-27T13:56:23Z</time>
      </trkpt>
      <trkpt lat="49.45041" lon="3.5397">
        <ele>176.06</ele>
        <time>2021-07-27T13:56:29Z</time>
      </trkpt>
      <trkpt lat="49.4531" lon="3.54206">
        <ele>169.81</ele>
        <time>2021-07-27T13:56:49Z</time>
      </trkpt>
      <trkpt lat="49.45321" lon="3.54214">
        <ele>168.85</ele>
        <time>2021-07-27T13:56:50Z</time>
      </trkpt>
      <trkpt lat="49.45333" lon="3.54222">
        <ele>169.33</ele>
        <time>2021-07-27T13:56:51Z</time>
      </trkpt>
      <trkpt lat="49.45345" lon="3.5423">
        <ele>168.37</ele>
        <time>2021-07-27T13:56:52Z</time>
      </trkpt>
      <trkpt lat="49.45359" lon="3.54233">
        <ele>167.89</ele>
        <time>2021-07-27T13:56:53Z</time>
      </trkpt>
      <trkpt lat="49.45373" lon="3.54231">
        <ele>166.93</ele>
        <time>2021-07-27T13:56:54Z</time>
      </trkpt>
      <trkpt lat="49.45387" lon="3.54225">
        <ele>166.45</ele>
        <time>2021-07-27T13:56:55Z</time>
      </trkpt>
      <trkpt lat="49.45399" lon="3.54218">
        <ele>166.93</ele>
        <time>2021-07-27T13:56:56Z</time>
      </trkpt>
      <trkpt lat="49.45409" lon="3.54206">
        <ele>165.96</ele>
        <time>2021-07-27T13:56:57Z</time>
      </trkpt>
      <trkpt lat="49.4542" lon="3.54192">
        <ele>165.96</ele>
        <time>2021-07-27T13:56:58Z</time>
      </trkpt>
      <trkpt lat="49.45429" lon="3.54177">
        <ele>165</ele>
        <time>2021-07-27T13:56:59Z</time>
      </trkpt>
      <trkpt lat="49.45435" lon="3.54159">
        <ele>164.52</ele>
        <time>2021-07-27T13:57:00Z</time>
      </trkpt>
      <trkpt lat="49.45442" lon="3.54141">
        <ele>162.6</ele>
        <time>2021-07-27T13:57:01Z</time>
      </trkpt>
      <trkpt lat="49.45449" lon="3.54122">
        <ele>160.2</ele>
        <time>2021-07-27T13:57:02Z</time>
      </trkpt>
      <trkpt lat="49.45457" lon="3.54102">
        <ele>159.24</ele>
        <time>2021-07-27T13:57:03Z</time>
      </trkpt>
      <trkpt lat="49.45466" lon="3.54084">
        <ele>154.43</ele>
        <time>2021-07-27T13:57:04Z</time>
      </trkpt>
      <trkpt lat="49.45479" lon="3.54067">
        <ele>151.54</ele>
        <time>2021-07-27T13:57:05Z</time>
      </trkpt>
      <trkpt lat="49.45493" lon="3.54052">
        <ele>149.14</ele>
        <time>2021-07-27T13:57:06Z</time>
      </trkpt>
      <trkpt lat="49.45574" lon="3.53967">
        <ele>143.37</ele>
        <time>2021-07-27T13:57:12Z</time>
      </trkpt>
      <trkpt lat="49.45586" lon="3.53959">
        <ele>142.41</ele>
        <time>2021-07-27T13:57:13Z</time>
      </trkpt>
      <trkpt lat="49.45599" lon="3.5395">
        <ele>142.41</ele>
        <time>2021-07-27T13:57:14Z</time>
      </trkpt>
      <trkpt lat="49.4561" lon="3.53948">
        <ele>142.41</ele>
        <time>2021-07-27T13:57:15Z</time>
      </trkpt>
      <trkpt lat="49.45624" lon="3.53947">
        <ele>142.89</ele>
        <time>2021-07-27T13:57:16Z</time>
      </trkpt>
      <trkpt lat="49.45636" lon="3.53948">
        <ele>144.34</ele>
        <time>2021-07-27T13:57:17Z</time>
      </trkpt>
      <trkpt lat="49.45651" lon="3.53957">
        <ele>144.34</ele>
        <time>2021-07-27T13:57:18Z</time>
      </trkpt>
      <trkpt lat="49.45665" lon="3.53967">
        <ele>144.34</ele>
        <time>2021-07-27T13:57:19Z</time>
      </trkpt>
      <trkpt lat="49.45679" lon="3.53978">
        <ele>142.89</ele>
        <time>2021-07-27T13:57:20Z</time>
      </trkpt>
      <trkpt lat="49.45797" lon="3.54065">
        <ele>137.61</ele>
        <time>2021-07-27T13:57:28Z</time>
      </trkpt>
      <trkpt lat="49.45819" lon="3.54081">
        <ele>136.16</ele>
        <time>2021-07-27T13:57:30Z</time>
      </trkpt>
      <trkpt lat="49.4583" lon="3.54087">
        <ele>134.72</ele>
        <time>2021-07-27T13:57:31Z</time>
      </trkpt>
      <trkpt lat="49.4584" lon="3.5409">
        <ele>133.76</ele>
        <time>2021-07-27T13:57:32Z</time>
      </trkpt>
      <trkpt lat="49.4585" lon="3.54087">
        <ele>131.84</ele>
        <time>2021-07-27T13:57:33Z</time>
      </trkpt>
      <trkpt lat="49.45861" lon="3.54084">
        <ele>130.88</ele>
        <time>2021-07-27T13:57:34Z</time>
      </trkpt>
      <trkpt lat="49.45878" lon="3.54065">
        <ele>130.88</ele>
        <time>2021-07-27T13:57:35Z</time>
      </trkpt>
      <trkpt lat="49.45878" lon="3.54065">
        <ele>130.88</ele>
        <time>2021-07-27T13:57:36Z</time>
      </trkpt>
      <trkpt lat="49.45885" lon="3.54045">
        <ele>131.36</ele>
        <time>2021-07-27T13:57:37Z</time>
      </trkpt>
      <trkpt lat="49.45891" lon="3.54026">
        <ele>130.4</ele>
        <time>2021-07-27T13:57:38Z</time>
      </trkpt>
      <trkpt lat="49.45893" lon="3.54022">
        <ele>128.47</ele>
        <time>2021-07-27T13:57:40Z</time>
      </trkpt>
      <trkpt lat="49.45893" lon="3.54022">
        <ele>127.51</ele>
        <time>2021-07-27T13:57:41Z</time>
      </trkpt>
      <trkpt lat="49.45889" lon="3.53976">
        <ele>126.55</ele>
        <time>2021-07-27T13:57:42Z</time>
      </trkpt>
      <trkpt lat="49.45888" lon="3.53958">
        <ele>125.59</ele>
        <time>2021-07-27T13:57:43Z</time>
      </trkpt>
      <trkpt lat="49.45886" lon="3.53939">
        <ele>124.63</ele>
        <time>2021-07-27T13:57:44Z</time>
      </trkpt>
      <trkpt lat="49.45884" lon="3.5392">
        <ele>123.67</ele>
        <time>2021-07-27T13:57:45Z</time>
      </trkpt>
      <trkpt lat="49.45885" lon="3.53898">
        <ele>122.71</ele>
        <time>2021-07-27T13:57:46Z</time>
      </trkpt>
      <trkpt lat="49.45889" lon="3.53881">
        <ele>122.22</ele>
        <time>2021-07-27T13:57:47Z</time>
      </trkpt>
      <trkpt lat="49.45893" lon="3.53871">
        <ele>122.22</ele>
        <time>2021-07-27T13:57:48Z</time>
      </trkpt>
      <trkpt lat="49.45897" lon="3.53863">
        <ele>121.26</ele>
        <time>2021-07-27T13:57:49Z</time>
      </trkpt>
      <trkpt lat="49.45905" lon="3.53858">
        <ele>121.74</ele>
        <time>2021-07-27T13:57:50Z</time>
      </trkpt>
      <trkpt lat="49.45925" lon="3.53854">
        <ele>122.71</ele>
        <time>2021-07-27T13:57:51Z</time>
      </trkpt>
      <trkpt lat="49.45925" lon="3.53854">
        <ele>123.19</ele>
        <time>2021-07-27T13:57:52Z</time>
      </trkpt>
      <trkpt lat="49.45938" lon="3.53859">
        <ele>122.71</ele>
        <time>2021-07-27T13:57:53Z</time>
      </trkpt>
      <trkpt lat="49.46089" lon="3.53956">
        <ele>110.21</ele>
        <time>2021-07-27T13:58:04Z</time>
      </trkpt>
      <trkpt lat="49.46103" lon="3.53966">
        <ele>110.21</ele>
        <time>2021-07-27T13:58:05Z</time>
      </trkpt>
      <trkpt lat="49.46115" lon="3.53981">
        <ele>109.73</ele>
        <time>2021-07-27T13:58:06Z</time>
      </trkpt>
      <trkpt lat="49.46139" lon="3.54016">
        <ele>108.77</ele>
        <time>2021-07-27T13:58:07Z</time>
      </trkpt>
      <trkpt lat="49.46148" lon="3.54036">
        <ele>108.29</ele>
        <time>2021-07-27T13:58:08Z</time>
      </trkpt>
      <trkpt lat="49.46148" lon="3.54036">
        <ele>107.32</ele>
        <time>2021-07-27T13:58:09Z</time>
      </trkpt>
      <trkpt lat="49.46232" lon="3.54232">
        <ele>98.19</ele>
        <time>2021-07-27T13:58:21Z</time>
      </trkpt>
      <trkpt lat="49.46296" lon="3.54355">
        <ele>93.87</ele>
        <time>2021-07-27T13:58:30Z</time>
      </trkpt>
      <trkpt lat="49.46304" lon="3.54365">
        <ele>92.9</ele>
        <time>2021-07-27T13:58:31Z</time>
      </trkpt>
      <trkpt lat="49.46312" lon="3.54374">
        <ele>92.9</ele>
        <time>2021-07-27T13:58:32Z</time>
      </trkpt>
      <trkpt lat="49.46325" lon="3.54391">
        <ele>91.46</ele>
        <time>2021-07-27T13:58:34Z</time>
      </trkpt>
      <trkpt lat="49.46333" lon="3.544">
        <ele>90.5</ele>
        <time>2021-07-27T13:58:35Z</time>
      </trkpt>
      <trkpt lat="49.46404" lon="3.54487">
        <ele>86.66</ele>
        <time>2021-07-27T13:58:46Z</time>
      </trkpt>
      <trkpt lat="49.46469" lon="3.54561">
        <ele>84.25</ele>
        <time>2021-07-27T13:58:55Z</time>
      </trkpt>
      <trkpt lat="49.46538" lon="3.54686">
        <ele>80.89</ele>
        <time>2021-07-27T13:59:10Z</time>
      </trkpt>
      <trkpt lat="49.46653" lon="3.54849">
        <ele>72.24</ele>
        <time>2021-07-27T13:59:26Z</time>
      </trkpt>
      <trkpt lat="49.46776" lon="3.54991">
        <ele>65.51</ele>
        <time>2021-07-27T13:59:41Z</time>
      </trkpt>
      <trkpt lat="49.468" lon="3.55009">
        <ele>66.47</ele>
        <time>2021-07-27T13:59:49Z</time>
      </trkpt>
      <trkpt lat="49.46833" lon="3.55019">
        <ele>67.43</ele>
        <time>2021-07-27T13:59:56Z</time>
      </trkpt>
      <trkpt lat="49.46884" lon="3.55007">
        <ele>66.95</ele>
        <time>2021-07-27T14:00:06Z</time>
      </trkpt>
      <trkpt lat="49.46905" lon="3.55002">
        <ele>67.43</ele>
        <time>2021-07-27T14:00:09Z</time>
      </trkpt>
      <trkpt lat="49.46919" lon="3.54998">
        <ele>67.43</ele>
        <time>2021-07-27T14:00:10Z</time>
      </trkpt>
      <trkpt lat="49.46919" lon="3.54998">
        <ele>67.43</ele>
        <time>2021-07-27T14:00:11Z</time>
      </trkpt>
      <trkpt lat="49.46926" lon="3.55002">
        <ele>67.43</ele>
        <time>2021-07-27T14:00:12Z</time>
      </trkpt>
      <trkpt lat="49.46933" lon="3.55007">
        <ele>67.43</ele>
        <time>2021-07-27T14:00:13Z</time>
      </trkpt>
      <trkpt lat="49.4694" lon="3.55012">
        <ele>67.43</ele>
        <time>2021-07-27T14:00:14Z</time>
      </trkpt>
      <trkpt lat="49.46954" lon="3.55025">
        <ele>67.91</ele>
        <time>2021-07-27T14:00:15Z</time>
      </trkpt>
      <trkpt lat="49.46954" lon="3.55025">
        <ele>67.43</ele>
        <time>2021-07-27T14:00:16Z</time>
      </trkpt>
      <trkpt lat="49.4696" lon="3.55035">
        <ele>67.43</ele>
        <time>2021-07-27T14:00:17Z</time>
      </trkpt>
      <trkpt lat="49.46965" lon="3.55045">
        <ele>67.43</ele>
        <time>2021-07-27T14:00:18Z</time>
      </trkpt>
      <trkpt lat="49.4699" lon="3.55094">
        <ele>65.99</ele>
        <time>2021-07-27T14:00:23Z</time>
      </trkpt>
      <trkpt lat="49.46993" lon="3.55106">
        <ele>65.51</ele>
        <time>2021-07-27T14:00:24Z</time>
      </trkpt>
      <trkpt lat="49.47012" lon="3.55165">
        <ele>64.07</ele>
        <time>2021-07-27T14:00:29Z</time>
      </trkpt>
      <trkpt lat="49.47016" lon="3.55175">
        <ele>63.58</ele>
        <time>2021-07-27T14:00:30Z</time>
      </trkpt>
      <trkpt lat="49.47019" lon="3.55186">
        <ele>63.58</ele>
        <time>2021-07-27T14:00:31Z</time>
      </trkpt>
      <trkpt lat="49.47024" lon="3.55194">
        <ele>63.58</ele>
        <time>2021-07-27T14:00:32Z</time>
      </trkpt>
      <trkpt lat="49.4703" lon="3.55201">
        <ele>63.1</ele>
        <time>2021-07-27T14:00:33Z</time>
      </trkpt>
      <trkpt lat="49.47036" lon="3.55209">
        <ele>62.62</ele>
        <time>2021-07-27T14:00:34Z</time>
      </trkpt>
      <trkpt lat="49.47042" lon="3.55215">
        <ele>62.62</ele>
        <time>2021-07-27T14:00:35Z</time>
      </trkpt>
      <trkpt lat="49.47048" lon="3.55219">
        <ele>62.14</ele>
        <time>2021-07-27T14:00:36Z</time>
      </trkpt>
      <trkpt lat="49.47067" lon="3.5523">
        <ele>61.66</ele>
        <time>2021-07-27T14:00:39Z</time>
      </trkpt>
      <trkpt lat="49.47072" lon="3.55233">
        <ele>61.66</ele>
        <time>2021-07-27T14:00:40Z</time>
      </trkpt>
      <trkpt lat="49.47075" lon="3.55235">
        <ele>61.66</ele>
        <time>2021-07-27T14:00:41Z</time>
      </trkpt>
      <trkpt lat="49.47079" lon="3.55237">
        <ele>61.66</ele>
        <time>2021-07-27T14:00:42Z</time>
      </trkpt>
      <trkpt lat="49.47083" lon="3.5524">
        <ele>61.66</ele>
        <time>2021-07-27T14:00:43Z</time>
      </trkpt>
      <trkpt lat="49.47153" lon="3.55279">
        <ele>62.14</ele>
        <time>2021-07-27T14:00:52Z</time>
      </trkpt>
      <trkpt lat="49.4724" lon="3.55318">
        <ele>64.55</ele>
        <time>2021-07-27T14:01:01Z</time>
      </trkpt>
      <trkpt lat="49.47244" lon="3.5532">
        <ele>64.07</ele>
        <time>2021-07-27T14:01:02Z</time>
      </trkpt>
      <trkpt lat="49.47247" lon="3.55321">
        <ele>64.07</ele>
        <time>2021-07-27T14:01:03Z</time>
      </trkpt>
      <trkpt lat="49.4725" lon="3.55322">
        <ele>64.07</ele>
        <time>2021-07-27T14:01:04Z</time>
      </trkpt>
      <trkpt lat="49.47251" lon="3.55323">
        <ele>64.07</ele>
        <time>2021-07-27T14:01:05Z</time>
      </trkpt>
      <trkpt lat="49.47252" lon="3.55324">
        <ele>63.58</ele>
        <time>2021-07-27T14:01:23Z</time>
      </trkpt>
      <trkpt lat="49.47254" lon="3.55324">
        <ele>63.58</ele>
        <time>2021-07-27T14:01:36Z</time>
      </trkpt>
      <trkpt lat="49.47254" lon="3.55324">
        <ele>63.58</ele>
        <time>2021-07-27T14:01:37Z</time>
      </trkpt>
      <trkpt lat="49.47256" lon="3.55325">
        <ele>63.58</ele>
        <time>2021-07-27T14:01:38Z</time>
      </trkpt>
      <trkpt lat="49.47259" lon="3.55327">
        <ele>63.58</ele>
        <time>2021-07-27T14:01:39Z</time>
      </trkpt>
      <trkpt lat="49.47263" lon="3.55328">
        <ele>63.58</ele>
        <time>2021-07-27T14:01:40Z</time>
      </trkpt>
      <trkpt lat="49.47268" lon="3.5533">
        <ele>63.58</ele>
        <time>2021-07-27T14:01:41Z</time>
      </trkpt>
      <trkpt lat="49.47273" lon="3.55332">
        <ele>63.58</ele>
        <time>2021-07-27T14:01:42Z</time>
      </trkpt>
      <trkpt lat="49.47347" lon="3.55363">
        <ele>64.07</ele>
        <time>2021-07-27T14:01:51Z</time>
      </trkpt>
      <trkpt lat="49.47386" lon="3.55379">
        <ele>64.55</ele>
        <time>2021-07-27T14:01:56Z</time>
      </trkpt>
      <trkpt lat="49.47392" lon="3.55382">
        <ele>64.55</ele>
        <time>2021-07-27T14:01:57Z</time>
      </trkpt>
      <trkpt lat="49.47398" lon="3.5539">
        <ele>64.55</ele>
        <time>2021-07-27T14:01:58Z</time>
      </trkpt>
      <trkpt lat="49.474" lon="3.55398">
        <ele>64.55</ele>
        <time>2021-07-27T14:01:59Z</time>
      </trkpt>
      <trkpt lat="49.47406" lon="3.55404">
        <ele>64.55</ele>
        <time>2021-07-27T14:02:00Z</time>
      </trkpt>
      <trkpt lat="49.47411" lon="3.55405">
        <ele>64.55</ele>
        <time>2021-07-27T14:02:01Z</time>
      </trkpt>
      <trkpt lat="49.47414" lon="3.55403">
        <ele>64.55</ele>
        <time>2021-07-27T14:02:02Z</time>
      </trkpt>
      <trkpt lat="49.47418" lon="3.55399">
        <ele>64.07</ele>
        <time>2021-07-27T14:02:03Z</time>
      </trkpt>
      <trkpt lat="49.47423" lon="3.55388">
        <ele>63.58</ele>
        <time>2021-07-27T14:02:04Z</time>
      </trkpt>
      <trkpt lat="49.47423" lon="3.55388">
        <ele>63.58</ele>
        <time>2021-07-27T14:02:05Z</time>
      </trkpt>
      <trkpt lat="49.47421" lon="3.55381">
        <ele>63.58</ele>
        <time>2021-07-27T14:02:06Z</time>
      </trkpt>
      <trkpt lat="49.47418" lon="3.55376">
        <ele>63.1</ele>
        <time>2021-07-27T14:02:07Z</time>
      </trkpt>
      <trkpt lat="49.47413" lon="3.55371">
        <ele>62.62</ele>
        <time>2021-07-27T14:02:08Z</time>
      </trkpt>
      <trkpt lat="49.47409" lon="3.55367">
        <ele>62.14</ele>
        <time>2021-07-27T14:02:09Z</time>
      </trkpt>
      <trkpt lat="49.47402" lon="3.55369">
        <ele>62.62</ele>
        <time>2021-07-27T14:02:10Z</time>
      </trkpt>
      <trkpt lat="49.47401" lon="3.55369">
        <ele>62.62</ele>
        <time>2021-07-27T14:02:11Z</time>
      </trkpt>
      <trkpt lat="49.47385" lon="3.55379">
        <ele>62.62</ele>
        <time>2021-07-27T14:02:12Z</time>
      </trkpt>
      <trkpt lat="49.47376" lon="3.55376">
        <ele>63.1</ele>
        <time>2021-07-27T14:02:13Z</time>
      </trkpt>
      <trkpt lat="49.47365" lon="3.55371">
        <ele>63.1</ele>
        <time>2021-07-27T14:02:14Z</time>
      </trkpt>
      <trkpt lat="49.47243" lon="3.5532">
        <ele>63.1</ele>
        <time>2021-07-27T14:02:24Z</time>
      </trkpt>
      <trkpt lat="49.47077" lon="3.55236">
        <ele>59.74</ele>
        <time>2021-07-27T14:02:36Z</time>
      </trkpt>
      <trkpt lat="49.47042" lon="3.55216">
        <ele>62.14</ele>
        <time>2021-07-27T14:02:39Z</time>
      </trkpt>
      <trkpt lat="49.47034" lon="3.55206">
        <ele>61.66</ele>
        <time>2021-07-27T14:02:40Z</time>
      </trkpt>
      <trkpt lat="49.47025" lon="3.55195">
        <ele>61.18</ele>
        <time>2021-07-27T14:02:41Z</time>
      </trkpt>
      <trkpt lat="49.47018" lon="3.55182">
        <ele>62.14</ele>
        <time>2021-07-27T14:02:42Z</time>
      </trkpt>
      <trkpt lat="49.47013" lon="3.55168">
        <ele>62.62</ele>
        <time>2021-07-27T14:02:43Z</time>
      </trkpt>
      <trkpt lat="49.47009" lon="3.55155">
        <ele>63.1</ele>
        <time>2021-07-27T14:02:44Z</time>
      </trkpt>
      <trkpt lat="49.47004" lon="3.5514">
        <ele>63.58</ele>
        <time>2021-07-27T14:02:45Z</time>
      </trkpt>
      <trkpt lat="49.46995" lon="3.55111">
        <ele>64.07</ele>
        <time>2021-07-27T14:02:47Z</time>
      </trkpt>
      <trkpt lat="49.46991" lon="3.55099">
        <ele>64.55</ele>
        <time>2021-07-27T14:02:48Z</time>
      </trkpt>
      <trkpt lat="49.46963" lon="3.5504">
        <ele>65.03</ele>
        <time>2021-07-27T14:02:53Z</time>
      </trkpt>
      <trkpt lat="49.46957" lon="3.55029">
        <ele>65.51</ele>
        <time>2021-07-27T14:02:54Z</time>
      </trkpt>
      <trkpt lat="49.4695" lon="3.55019">
        <ele>66.47</ele>
        <time>2021-07-27T14:02:55Z</time>
      </trkpt>
      <trkpt lat="49.46941" lon="3.55013">
        <ele>67.91</ele>
        <time>2021-07-27T14:02:56Z</time>
      </trkpt>
      <trkpt lat="49.46931" lon="3.55006">
        <ele>68.39</ele>
        <time>2021-07-27T14:02:57Z</time>
      </trkpt>
      <trkpt lat="49.46921" lon="3.54999">
        <ele>68.39</ele>
        <time>2021-07-27T14:02:58Z</time>
      </trkpt>
      <trkpt lat="49.46913" lon="3.55">
        <ele>69.83</ele>
        <time>2021-07-27T14:02:59Z</time>
      </trkpt>
      <trkpt lat="49.46903" lon="3.55002">
        <ele>69.83</ele>
        <time>2021-07-27T14:03:00Z</time>
      </trkpt>
      <trkpt lat="49.46894" lon="3.55005">
        <ele>70.79</ele>
        <time>2021-07-27T14:03:01Z</time>
      </trkpt>
      <trkpt lat="49.46849" lon="3.55016">
        <ele>70.79</ele>
        <time>2021-07-27T14:03:05Z</time>
      </trkpt>
      <trkpt lat="49.46828" lon="3.55019">
        <ele>69.83</ele>
        <time>2021-07-27T14:03:06Z</time>
      </trkpt>
      <trkpt lat="49.46828" lon="3.55019">
        <ele>69.35</ele>
        <time>2021-07-27T14:03:07Z</time>
      </trkpt>
      <trkpt lat="49.46819" lon="3.55018">
        <ele>69.35</ele>
        <time>2021-07-27T14:03:08Z</time>
      </trkpt>
      <trkpt lat="49.4681" lon="3.55014">
        <ele>69.35</ele>
        <time>2021-07-27T14:03:09Z</time>
      </trkpt>
      <trkpt lat="49.468" lon="3.5501">
        <ele>68.87</ele>
        <time>2021-07-27T14:03:10Z</time>
      </trkpt>
      <trkpt lat="49.46792" lon="3.55006">
        <ele>68.87</ele>
        <time>2021-07-27T14:03:11Z</time>
      </trkpt>
      <trkpt lat="49.46782" lon="3.54999">
        <ele>69.35</ele>
        <time>2021-07-27T14:03:12Z</time>
      </trkpt>
      <trkpt lat="49.46775" lon="3.5499">
        <ele>70.31</ele>
        <time>2021-07-27T14:03:13Z</time>
      </trkpt>
      <trkpt lat="49.46767" lon="3.54981">
        <ele>71.27</ele>
        <time>2021-07-27T14:03:14Z</time>
      </trkpt>
      <trkpt lat="49.46618" lon="3.54805">
        <ele>78.48</ele>
        <time>2021-07-27T14:03:30Z</time>
      </trkpt>
      <trkpt lat="49.46514" lon="3.54642">
        <ele>83.77</ele>
        <time>2021-07-27T14:03:42Z</time>
      </trkpt>
      <trkpt lat="49.46487" lon="3.54593">
        <ele>88.1</ele>
        <time>2021-07-27T14:03:48Z</time>
      </trkpt>
      <trkpt lat="49.46435" lon="3.54517">
        <ele>89.06</ele>
        <time>2021-07-27T14:03:58Z</time>
      </trkpt>
      <trkpt lat="49.46362" lon="3.54439">
        <ele>91.94</ele>
        <time>2021-07-27T14:04:08Z</time>
      </trkpt>
      <trkpt lat="49.46332" lon="3.54399">
        <ele>93.39</ele>
        <time>2021-07-27T14:04:11Z</time>
      </trkpt>
      <trkpt lat="49.46332" lon="3.54399">
        <ele>93.39</ele>
        <time>2021-07-27T14:04:12Z</time>
      </trkpt>
      <trkpt lat="49.46309" lon="3.54371">
        <ele>94.83</ele>
        <time>2021-07-27T14:04:14Z</time>
      </trkpt>
      <trkpt lat="49.46309" lon="3.54371">
        <ele>95.79</ele>
        <time>2021-07-27T14:04:15Z</time>
      </trkpt>
      <trkpt lat="49.463" lon="3.5436">
        <ele>96.75</ele>
        <time>2021-07-27T14:04:16Z</time>
      </trkpt>
      <trkpt lat="49.46206" lon="3.54168">
        <ele>109.25</ele>
        <time>2021-07-27T14:04:30Z</time>
      </trkpt>
      <trkpt lat="49.46135" lon="3.54006">
        <ele>115.98</ele>
        <time>2021-07-27T14:04:41Z</time>
      </trkpt>
      <trkpt lat="49.46126" lon="3.53994">
        <ele>116.94</ele>
        <time>2021-07-27T14:04:42Z</time>
      </trkpt>
      <trkpt lat="49.46117" lon="3.53983">
        <ele>116.94</ele>
        <time>2021-07-27T14:04:43Z</time>
      </trkpt>
      <trkpt lat="49.46107" lon="3.53971">
        <ele>117.42</ele>
        <time>2021-07-27T14:04:44Z</time>
      </trkpt>
      <trkpt lat="49.46096" lon="3.53961">
        <ele>118.86</ele>
        <time>2021-07-27T14:04:45Z</time>
      </trkpt>
      <trkpt lat="49.46084" lon="3.53953">
        <ele>119.34</ele>
        <time>2021-07-27T14:04:46Z</time>
      </trkpt>
      <trkpt lat="49.45955" lon="3.53867">
        <ele>129.43</ele>
        <time>2021-07-27T14:04:57Z</time>
      </trkpt>
      <trkpt lat="49.45946" lon="3.53862">
        <ele>129.92</ele>
        <time>2021-07-27T14:04:58Z</time>
      </trkpt>
      <trkpt lat="49.45936" lon="3.53858">
        <ele>129.43</ele>
        <time>2021-07-27T14:04:59Z</time>
      </trkpt>
      <trkpt lat="49.45927" lon="3.53854">
        <ele>129.92</ele>
        <time>2021-07-27T14:05:00Z</time>
      </trkpt>
      <trkpt lat="49.45918" lon="3.53851">
        <ele>131.36</ele>
        <time>2021-07-27T14:05:01Z</time>
      </trkpt>
      <trkpt lat="49.45912" lon="3.53853">
        <ele>129.92</ele>
        <time>2021-07-27T14:05:02Z</time>
      </trkpt>
      <trkpt lat="49.459" lon="3.53861">
        <ele>129.92</ele>
        <time>2021-07-27T14:05:03Z</time>
      </trkpt>
      <trkpt lat="49.45892" lon="3.53875">
        <ele>129.43</ele>
        <time>2021-07-27T14:05:04Z</time>
      </trkpt>
      <trkpt lat="49.45886" lon="3.53886">
        <ele>130.4</ele>
        <time>2021-07-27T14:05:05Z</time>
      </trkpt>
      <trkpt lat="49.45885" lon="3.53908">
        <ele>131.36</ele>
        <time>2021-07-27T14:05:06Z</time>
      </trkpt>
      <trkpt lat="49.45885" lon="3.53926">
        <ele>132.32</ele>
        <time>2021-07-27T14:05:07Z</time>
      </trkpt>
      <trkpt lat="49.45887" lon="3.53946">
        <ele>134.24</ele>
        <time>2021-07-27T14:05:08Z</time>
      </trkpt>
      <trkpt lat="49.45893" lon="3.54022">
        <ele>134.72</ele>
        <time>2021-07-27T14:05:12Z</time>
      </trkpt>
      <trkpt lat="49.45887" lon="3.54038">
        <ele>136.16</ele>
        <time>2021-07-27T14:05:13Z</time>
      </trkpt>
      <trkpt lat="49.45882" lon="3.54052">
        <ele>136.64</ele>
        <time>2021-07-27T14:05:14Z</time>
      </trkpt>
      <trkpt lat="49.45878" lon="3.54065">
        <ele>136.64</ele>
        <time>2021-07-27T14:05:15Z</time>
      </trkpt>
      <trkpt lat="49.45871" lon="3.54074">
        <ele>137.13</ele>
        <time>2021-07-27T14:05:16Z</time>
      </trkpt>
      <trkpt lat="49.45863" lon="3.54084">
        <ele>137.61</ele>
        <time>2021-07-27T14:05:17Z</time>
      </trkpt>
      <trkpt lat="49.45853" lon="3.54086">
        <ele>138.57</ele>
        <time>2021-07-27T14:05:18Z</time>
      </trkpt>
      <trkpt lat="49.45841" lon="3.54089">
        <ele>139.05</ele>
        <time>2021-07-27T14:05:19Z</time>
      </trkpt>
      <trkpt lat="49.45833" lon="3.54088">
        <ele>140.01</ele>
        <time>2021-07-27T14:05:20Z</time>
      </trkpt>
      <trkpt lat="49.4582" lon="3.54082">
        <ele>140.49</ele>
        <time>2021-07-27T14:05:21Z</time>
      </trkpt>
      <trkpt lat="49.45808" lon="3.54073">
        <ele>141.45</ele>
        <time>2021-07-27T14:05:22Z</time>
      </trkpt>
      <trkpt lat="49.45795" lon="3.54064">
        <ele>141.93</ele>
        <time>2021-07-27T14:05:23Z</time>
      </trkpt>
      <trkpt lat="49.45657" lon="3.53962">
        <ele>147.22</ele>
        <time>2021-07-27T14:05:33Z</time>
      </trkpt>
      <trkpt lat="49.45621" lon="3.53947">
        <ele>149.14</ele>
        <time>2021-07-27T14:05:35Z</time>
      </trkpt>
      <trkpt lat="49.45621" lon="3.53947">
        <ele>152.03</ele>
        <time>2021-07-27T14:05:36Z</time>
      </trkpt>
      <trkpt lat="49.45608" lon="3.53948">
        <ele>154.91</ele>
        <time>2021-07-27T14:05:37Z</time>
      </trkpt>
      <trkpt lat="49.45597" lon="3.53951">
        <ele>156.35</ele>
        <time>2021-07-27T14:05:38Z</time>
      </trkpt>
      <trkpt lat="49.45586" lon="3.53959">
        <ele>156.83</ele>
        <time>2021-07-27T14:05:39Z</time>
      </trkpt>
      <trkpt lat="49.45574" lon="3.53967">
        <ele>155.87</ele>
        <time>2021-07-27T14:05:40Z</time>
      </trkpt>
      <trkpt lat="49.45458" lon="3.541">
        <ele>156.35</ele>
        <time>2021-07-27T14:05:48Z</time>
      </trkpt>
      <trkpt lat="49.45458" lon="3.541">
        <ele>156.83</ele>
        <time>2021-07-27T14:05:49Z</time>
      </trkpt>
      <trkpt lat="49.45449" lon="3.54122">
        <ele>157.31</ele>
        <time>2021-07-27T14:05:50Z</time>
      </trkpt>
      <trkpt lat="49.45442" lon="3.54142">
        <ele>157.79</ele>
        <time>2021-07-27T14:05:51Z</time>
      </trkpt>
      <trkpt lat="49.45434" lon="3.54162">
        <ele>159.24</ele>
        <time>2021-07-27T14:05:52Z</time>
      </trkpt>
      <trkpt lat="49.45428" lon="3.5418">
        <ele>160.68</ele>
        <time>2021-07-27T14:05:53Z</time>
      </trkpt>
      <trkpt lat="49.45419" lon="3.54194">
        <ele>162.12</ele>
        <time>2021-07-27T14:05:54Z</time>
      </trkpt>
      <trkpt lat="49.45409" lon="3.54206">
        <ele>163.56</ele>
        <time>2021-07-27T14:05:55Z</time>
      </trkpt>
      <trkpt lat="49.454" lon="3.54217">
        <ele>163.56</ele>
        <time>2021-07-27T14:05:56Z</time>
      </trkpt>
      <trkpt lat="49.45391" lon="3.54223">
        <ele>165</ele>
        <time>2021-07-27T14:05:57Z</time>
      </trkpt>
      <trkpt lat="49.45379" lon="3.54228">
        <ele>166.45</ele>
        <time>2021-07-27T14:05:58Z</time>
      </trkpt>
      <trkpt lat="49.45365" lon="3.54234">
        <ele>166.93</ele>
        <time>2021-07-27T14:05:59Z</time>
      </trkpt>
      <trkpt lat="49.45354" lon="3.54233">
        <ele>166.93</ele>
        <time>2021-07-27T14:06:00Z</time>
      </trkpt>
      <trkpt lat="49.45342" lon="3.54228">
        <ele>166.93</ele>
        <time>2021-07-27T14:06:01Z</time>
      </trkpt>
      <trkpt lat="49.45328" lon="3.54219">
        <ele>166.93</ele>
        <time>2021-07-27T14:06:02Z</time>
      </trkpt>
      <trkpt lat="49.45315" lon="3.5421">
        <ele>166.93</ele>
        <time>2021-07-27T14:06:03Z</time>
      </trkpt>
      <trkpt lat="49.45302" lon="3.54201">
        <ele>166.93</ele>
        <time>2021-07-27T14:06:04Z</time>
      </trkpt>
      <trkpt lat="49.45137" lon="3.54053">
        <ele>174.62</ele>
        <time>2021-07-27T14:06:19Z</time>
      </trkpt>
      <trkpt lat="49.45071" lon="3.53996">
        <ele>175.1</ele>
        <time>2021-07-27T14:06:28Z</time>
      </trkpt>
      <trkpt lat="49.4506" lon="3.53977">
        <ele>175.1</ele>
        <time>2021-07-27T14:06:33Z</time>
      </trkpt>
      <trkpt lat="49.45061" lon="3.53972">
        <ele>175.1</ele>
        <time>2021-07-27T14:06:34Z</time>
      </trkpt>
      <trkpt lat="49.45062" lon="3.53965">
        <ele>175.58</ele>
        <time>2021-07-27T14:06:35Z</time>
      </trkpt>
      <trkpt lat="49.45093" lon="3.53872">
        <ele>177.5</ele>
        <time>2021-07-27T14:06:44Z</time>
      </trkpt>
      <trkpt lat="49.4518" lon="3.53667">
        <ele>181.35</ele>
        <time>2021-07-27T14:06:57Z</time>
      </trkpt>
      <trkpt lat="49.45307" lon="3.53328">
        <ele>184.71</ele>
        <time>2021-07-27T14:07:15Z</time>
      </trkpt>
      <trkpt lat="49.45424" lon="3.52991">
        <ele>182.79</ele>
        <time>2021-07-27T14:07:29Z</time>
      </trkpt>
      <trkpt lat="49.45617" lon="3.52435">
        <ele>180.38</ele>
        <time>2021-07-27T14:07:50Z</time>
      </trkpt>
      <trkpt lat="49.45664" lon="3.523">
        <ele>178.46</ele>
        <time>2021-07-27T14:07:57Z</time>
      </trkpt>
      <trkpt lat="49.45678" lon="3.5226">
        <ele>178.46</ele>
        <time>2021-07-27T14:08:01Z</time>
      </trkpt>
      <trkpt lat="49.4568" lon="3.52254">
        <ele>178.46</ele>
        <time>2021-07-27T14:08:02Z</time>
      </trkpt>
      <trkpt lat="49.45681" lon="3.5225">
        <ele>178.46</ele>
        <time>2021-07-27T14:08:03Z</time>
      </trkpt>
      <trkpt lat="49.45682" lon="3.52248">
        <ele>178.46</ele>
        <time>2021-07-27T14:08:04Z</time>
      </trkpt>
      <trkpt lat="49.45683" lon="3.52246">
        <ele>178.94</ele>
        <time>2021-07-27T14:08:05Z</time>
      </trkpt>
      <trkpt lat="49.45683" lon="3.52245">
        <ele>178.94</ele>
        <time>2021-07-27T14:08:07Z</time>
      </trkpt>
      <trkpt lat="49.4569" lon="3.52253">
        <ele>179.42</ele>
        <time>2021-07-27T14:08:08Z</time>
      </trkpt>
      <trkpt lat="49.45692" lon="3.52255">
        <ele>179.42</ele>
        <time>2021-07-27T14:08:09Z</time>
      </trkpt>
      <trkpt lat="49.45748" lon="3.52297">
        <ele>179.9</ele>
        <time>2021-07-27T14:08:24Z</time>
      </trkpt>
      <trkpt lat="49.45755" lon="3.52303">
        <ele>179.42</ele>
        <time>2021-07-27T14:08:36Z</time>
      </trkpt>
      <trkpt lat="49.45791" lon="3.52329">
        <ele>181.35</ele>
        <time>2021-07-27T14:08:49Z</time>
      </trkpt>
      <trkpt lat="49.45836" lon="3.52357">
        <ele>183.27</ele>
        <time>2021-07-27T14:09:01Z</time>
      </trkpt>
      <trkpt lat="49.45843" lon="3.52361">
        <ele>184.23</ele>
        <time>2021-07-27T14:09:14Z</time>
      </trkpt>
      <trkpt lat="49.45863" lon="3.52374">
        <ele>185.19</ele>
        <time>2021-07-27T14:12:26Z</time>
      </trkpt>
      <trkpt lat="49.45894" lon="3.52397">
        <ele>186.15</ele>
        <time>2021-07-27T14:12:34Z</time>
      </trkpt>
      <trkpt lat="49.45898" lon="3.524">
        <ele>186.15</ele>
        <time>2021-07-27T14:12:35Z</time>
      </trkpt>
      <trkpt lat="49.45903" lon="3.52403">
        <ele>186.15</ele>
        <time>2021-07-27T14:12:36Z</time>
      </trkpt>
      <trkpt lat="49.45934" lon="3.52449">
        <ele>187.11</ele>
        <time>2021-07-27T14:12:50Z</time>
      </trkpt>
      <trkpt lat="49.45973" lon="3.52434">
        <ele>188.08</ele>
        <time>2021-07-27T14:13:04Z</time>
      </trkpt>
      <trkpt lat="49.4597" lon="3.5244">
        <ele>188.56</ele>
        <time>2021-07-27T14:19:00Z</time>
      </trkpt>
      <trkpt lat="49.45969" lon="3.52441">
        <ele>188.08</ele>
        <time>2021-07-27T14:21:01Z</time>
      </trkpt>
      <trkpt lat="49.45969" lon="3.52442">
        <ele>188.08</ele>
        <time>2021-07-27T14:22:31Z</time>
      </trkpt>
      <trkpt lat="49.45969" lon="3.52444">
        <ele>188.08</ele>
        <time>2021-07-27T14:24:17Z</time>
      </trkpt>
      <trkpt lat="49.45969" lon="3.52445">
        <ele>188.08</ele>
        <time>2021-07-27T14:26:15Z</time>
      </trkpt>
      <trkpt lat="49.45968" lon="3.52446">
        <ele>188.08</ele>
        <time>2021-07-27T14:28:32Z</time>
      </trkpt>
      <trkpt lat="49.45968" lon="3.52447">
        <ele>187.59</ele>
        <time>2021-07-27T14:30:11Z</time>
      </trkpt>
      <trkpt lat="49.45968" lon="3.52448">
        <ele>187.59</ele>
        <time>2021-07-27T14:32:15Z</time>
      </trkpt>
      <trkpt lat="49.45968" lon="3.52448">
        <ele>187.59</ele>
        <time>2021-07-27T14:34:27Z</time>
      </trkpt>
      <trkpt lat="49.45967" lon="3.52448">
        <ele>188.08</ele>
        <time>2021-07-27T14:36:38Z</time>
      </trkpt>
      <trkpt lat="49.45967" lon="3.52447">
        <ele>188.08</ele>
        <time>2021-07-27T14:38:22Z</time>
      </trkpt>
      <trkpt lat="49.45966" lon="3.52448">
        <ele>188.08</ele>
        <time>2021-07-27T14:40:45Z</time>
      </trkpt>
      <trkpt lat="49.45966" lon="3.52449">
        <ele>188.08</ele>
        <time>2021-07-27T14:44:26Z</time>
      </trkpt>
      <trkpt lat="49.45965" lon="3.52449">
        <ele>187.59</ele>
        <time>2021-07-27T14:47:21Z</time>
      </trkpt>
      <trkpt lat="49.45965" lon="3.52448">
        <ele>187.59</ele>
        <time>2021-07-27T14:49:50Z</time>
      </trkpt>
      <trkpt lat="49.45965" lon="3.52447">
        <ele>187.59</ele>
        <time>2021-07-27T14:55:54Z</time>
      </trkpt>
      <trkpt lat="49.45965" lon="3.52446">
        <ele>188.08</ele>
        <time>2021-07-27T14:59:22Z</time>
      </trkpt>
      <trkpt lat="49.45965" lon="3.52446">
        <ele>188.08</ele>
        <time>2021-07-27T15:02:47Z</time>
      </trkpt>
      <trkpt lat="49.45965" lon="3.52446">
        <ele>188.08</ele>
        <time>2021-07-27T15:04:48Z</time>
      </trkpt>
      <trkpt lat="49.45965" lon="3.52446">
        <ele>188.08</ele>
        <time>2021-07-27T15:08:05Z</time>
      </trkpt>
      <trkpt lat="49.45966" lon="3.52446">
        <ele>188.56</ele>
        <time>2021-07-27T15:11:13Z</time>
      </trkpt>
      <trkpt lat="49.45966" lon="3.52446">
        <ele>188.56</ele>
        <time>2021-07-27T15:14:30Z</time>
      </trkpt>
      <trkpt lat="49.45966" lon="3.52446">
        <ele>188.56</ele>
        <time>2021-07-27T15:15:32Z</time>
      </trkpt>
      <trkpt lat="49.45965" lon="3.52444">
        <ele>188.56</ele>
        <time>2021-07-27T15:15:39Z</time>
      </trkpt>
      <trkpt lat="49.45957" lon="3.52434">
        <ele>188.56</ele>
        <time>2021-07-27T15:15:53Z</time>
      </trkpt>
      <trkpt lat="49.45942" lon="3.52437">
        <ele>188.08</ele>
        <time>2021-07-27T15:16:11Z</time>
      </trkpt>
      <trkpt lat="49.45927" lon="3.52436">
        <ele>187.59</ele>
        <time>2021-07-27T15:17:02Z</time>
      </trkpt>
      <trkpt lat="49.45894" lon="3.52396">
        <ele>185.19</ele>
        <time>2021-07-27T15:17:15Z</time>
      </trkpt>
      <trkpt lat="49.45889" lon="3.52393">
        <ele>185.19</ele>
        <time>2021-07-27T15:17:16Z</time>
      </trkpt>
      <trkpt lat="49.45803" lon="3.52336">
        <ele>182.31</ele>
        <time>2021-07-27T15:17:33Z</time>
      </trkpt>
      <trkpt lat="49.4571" lon="3.52268">
        <ele>179.42</ele>
        <time>2021-07-27T15:17:52Z</time>
      </trkpt>
      <trkpt lat="49.45683" lon="3.52245">
        <ele>177.98</ele>
        <time>2021-07-27T15:18:05Z</time>
      </trkpt>
      <trkpt lat="49.45683" lon="3.52245">
        <ele>177.98</ele>
        <time>2021-07-27T15:18:06Z</time>
      </trkpt>
      <trkpt lat="49.45685" lon="3.5224">
        <ele>178.46</ele>
        <time>2021-07-27T15:18:07Z</time>
      </trkpt>
      <trkpt lat="49.45707" lon="3.52176">
        <ele>178.46</ele>
        <time>2021-07-27T15:18:17Z</time>
      </trkpt>
      <trkpt lat="49.45764" lon="3.52004">
        <ele>181.35</ele>
        <time>2021-07-27T15:18:31Z</time>
      </trkpt>
      <trkpt lat="49.45793" lon="3.51814">
        <ele>180.87</ele>
        <time>2021-07-27T15:18:43Z</time>
      </trkpt>
      <trkpt lat="49.458" lon="3.5158">
        <ele>180.38</ele>
        <time>2021-07-27T15:18:54Z</time>
      </trkpt>
      <trkpt lat="49.45804" lon="3.51368">
        <ele>183.75</ele>
        <time>2021-07-27T15:19:05Z</time>
      </trkpt>
      <trkpt lat="49.45811" lon="3.50991">
        <ele>184.23</ele>
        <time>2021-07-27T15:19:21Z</time>
      </trkpt>
      <trkpt lat="49.45817" lon="3.50625">
        <ele>189.04</ele>
        <time>2021-07-27T15:19:36Z</time>
      </trkpt>
      <trkpt lat="49.45833" lon="3.50136">
        <ele>188.56</ele>
        <time>2021-07-27T15:19:55Z</time>
      </trkpt>
      <trkpt lat="49.45846" lon="3.4967">
        <ele>188.08</ele>
        <time>2021-07-27T15:20:12Z</time>
      </trkpt>
      <trkpt lat="49.45807" lon="3.49522">
        <ele>185.19</ele>
        <time>2021-07-27T15:20:18Z</time>
      </trkpt>
      <trkpt lat="49.45669" lon="3.49307">
        <ele>186.63</ele>
        <time>2021-07-27T15:20:29Z</time>
      </trkpt>
      <trkpt lat="49.45607" lon="3.49209">
        <ele>183.27</ele>
        <time>2021-07-27T15:20:35Z</time>
      </trkpt>
      <trkpt lat="49.45602" lon="3.49196">
        <ele>184.23</ele>
        <time>2021-07-27T15:20:36Z</time>
      </trkpt>
      <trkpt lat="49.45598" lon="3.4918">
        <ele>184.71</ele>
        <time>2021-07-27T15:20:37Z</time>
      </trkpt>
      <trkpt lat="49.45594" lon="3.49163">
        <ele>185.19</ele>
        <time>2021-07-27T15:20:38Z</time>
      </trkpt>
      <trkpt lat="49.45591" lon="3.49147">
        <ele>185.67</ele>
        <time>2021-07-27T15:20:39Z</time>
      </trkpt>
      <trkpt lat="49.4559" lon="3.4913">
        <ele>185.67</ele>
        <time>2021-07-27T15:20:40Z</time>
      </trkpt>
      <trkpt lat="49.4559" lon="3.49112">
        <ele>185.19</ele>
        <time>2021-07-27T15:20:41Z</time>
      </trkpt>
      <trkpt lat="49.4559" lon="3.49096">
        <ele>184.23</ele>
        <time>2021-07-27T15:20:42Z</time>
      </trkpt>
      <trkpt lat="49.45596" lon="3.4905">
        <ele>182.79</ele>
        <time>2021-07-27T15:20:46Z</time>
      </trkpt>
      <trkpt lat="49.45597" lon="3.49043">
        <ele>182.79</ele>
        <time>2021-07-27T15:20:47Z</time>
      </trkpt>
      <trkpt lat="49.45607" lon="3.49022">
        <ele>183.27</ele>
        <time>2021-07-27T15:20:50Z</time>
      </trkpt>
      <trkpt lat="49.45609" lon="3.49016">
        <ele>183.75</ele>
        <time>2021-07-27T15:20:51Z</time>
      </trkpt>
      <trkpt lat="49.45608" lon="3.49004">
        <ele>184.23</ele>
        <time>2021-07-27T15:20:52Z</time>
      </trkpt>
      <trkpt lat="49.45608" lon="3.48994">
        <ele>184.71</ele>
        <time>2021-07-27T15:20:53Z</time>
      </trkpt>
      <trkpt lat="49.45605" lon="3.48988">
        <ele>184.23</ele>
        <time>2021-07-27T15:20:54Z</time>
      </trkpt>
      <trkpt lat="49.45601" lon="3.48985">
        <ele>184.23</ele>
        <time>2021-07-27T15:20:55Z</time>
      </trkpt>
      <trkpt lat="49.45596" lon="3.48981">
        <ele>183.75</ele>
        <time>2021-07-27T15:20:56Z</time>
      </trkpt>
      <trkpt lat="49.45591" lon="3.4898">
        <ele>184.23</ele>
        <time>2021-07-27T15:20:57Z</time>
      </trkpt>
      <trkpt lat="49.45584" lon="3.48981">
        <ele>183.75</ele>
        <time>2021-07-27T15:20:58Z</time>
      </trkpt>
      <trkpt lat="49.45576" lon="3.48979">
        <ele>183.75</ele>
        <time>2021-07-27T15:20:59Z</time>
      </trkpt>
      <trkpt lat="49.45568" lon="3.48977">
        <ele>183.75</ele>
        <time>2021-07-27T15:21:00Z</time>
      </trkpt>
      <trkpt lat="49.4556" lon="3.48974">
        <ele>183.27</ele>
        <time>2021-07-27T15:21:01Z</time>
      </trkpt>
      <trkpt lat="49.45551" lon="3.4897">
        <ele>183.27</ele>
        <time>2021-07-27T15:21:02Z</time>
      </trkpt>
      <trkpt lat="49.45536" lon="3.48954">
        <ele>182.79</ele>
        <time>2021-07-27T15:21:03Z</time>
      </trkpt>
      <trkpt lat="49.45503" lon="3.48914">
        <ele>180.38</ele>
        <time>2021-07-27T15:21:08Z</time>
      </trkpt>
      <trkpt lat="49.45497" lon="3.489">
        <ele>178.94</ele>
        <time>2021-07-27T15:21:09Z</time>
      </trkpt>
      <trkpt lat="49.45491" lon="3.48885">
        <ele>178.46</ele>
        <time>2021-07-27T15:21:10Z</time>
      </trkpt>
      <trkpt lat="49.45486" lon="3.48869">
        <ele>179.42</ele>
        <time>2021-07-27T15:21:11Z</time>
      </trkpt>
      <trkpt lat="49.45482" lon="3.48851">
        <ele>179.42</ele>
        <time>2021-07-27T15:21:12Z</time>
      </trkpt>
      <trkpt lat="49.45479" lon="3.4883">
        <ele>178.94</ele>
        <time>2021-07-27T15:21:13Z</time>
      </trkpt>
      <trkpt lat="49.45478" lon="3.4881">
        <ele>178.94</ele>
        <time>2021-07-27T15:21:14Z</time>
      </trkpt>
      <trkpt lat="49.45461" lon="3.48601">
        <ele>173.17</ele>
        <time>2021-07-27T15:21:23Z</time>
      </trkpt>
      <trkpt lat="49.45401" lon="3.48421">
        <ele>174.14</ele>
        <time>2021-07-27T15:21:32Z</time>
      </trkpt>
      <trkpt lat="49.45328" lon="3.48155">
        <ele>170.29</ele>
        <time>2021-07-27T15:21:43Z</time>
      </trkpt>
      <trkpt lat="49.45246" lon="3.47783">
        <ele>168.85</ele>
        <time>2021-07-27T15:21:56Z</time>
      </trkpt>
      <trkpt lat="49.45195" lon="3.47355">
        <ele>169.81</ele>
        <time>2021-07-27T15:22:10Z</time>
      </trkpt>
      <trkpt lat="49.45161" lon="3.46784">
        <ele>165</ele>
        <time>2021-07-27T15:22:28Z</time>
      </trkpt>
      <trkpt lat="49.45127" lon="3.46228">
        <ele>152.99</ele>
        <time>2021-07-27T15:22:44Z</time>
      </trkpt>
      <trkpt lat="49.45104" lon="3.45841">
        <ele>149.62</ele>
        <time>2021-07-27T15:22:55Z</time>
      </trkpt>
      <trkpt lat="49.45072" lon="3.45297">
        <ele>157.31</ele>
        <time>2021-07-27T15:23:11Z</time>
      </trkpt>
      <trkpt lat="49.45037" lon="3.4475">
        <ele>167.89</ele>
        <time>2021-07-27T15:23:28Z</time>
      </trkpt>
      <trkpt lat="49.44969" lon="3.44352">
        <ele>165.96</ele>
        <time>2021-07-27T15:23:42Z</time>
      </trkpt>
      <trkpt lat="49.44891" lon="3.4408">
        <ele>165.48</ele>
        <time>2021-07-27T15:23:53Z</time>
      </trkpt>
      <trkpt lat="49.44884" lon="3.44061">
        <ele>165.96</ele>
        <time>2021-07-27T15:23:54Z</time>
      </trkpt>
      <trkpt lat="49.44874" lon="3.44048">
        <ele>165.96</ele>
        <time>2021-07-27T15:23:55Z</time>
      </trkpt>
      <trkpt lat="49.44864" lon="3.44036">
        <ele>165.48</ele>
        <time>2021-07-27T15:23:56Z</time>
      </trkpt>
      <trkpt lat="49.44854" lon="3.44023">
        <ele>165</ele>
        <time>2021-07-27T15:23:57Z</time>
      </trkpt>
      <trkpt lat="49.44844" lon="3.4401">
        <ele>165</ele>
        <time>2021-07-27T15:23:58Z</time>
      </trkpt>
      <trkpt lat="49.44832" lon="3.44004">
        <ele>165.96</ele>
        <time>2021-07-27T15:23:59Z</time>
      </trkpt>
      <trkpt lat="49.4482" lon="3.43998">
        <ele>167.41</ele>
        <time>2021-07-27T15:24:00Z</time>
      </trkpt>
      <trkpt lat="49.44809" lon="3.43993">
        <ele>167.89</ele>
        <time>2021-07-27T15:24:01Z</time>
      </trkpt>
      <trkpt lat="49.44799" lon="3.43988">
        <ele>167.41</ele>
        <time>2021-07-27T15:24:02Z</time>
      </trkpt>
      <trkpt lat="49.44777" lon="3.43981">
        <ele>167.89</ele>
        <time>2021-07-27T15:24:04Z</time>
      </trkpt>
      <trkpt lat="49.44767" lon="3.43978">
        <ele>167.41</ele>
        <time>2021-07-27T15:24:05Z</time>
      </trkpt>
      <trkpt lat="49.44759" lon="3.4397">
        <ele>168.85</ele>
        <time>2021-07-27T15:24:06Z</time>
      </trkpt>
      <trkpt lat="49.44751" lon="3.4396">
        <ele>168.85</ele>
        <time>2021-07-27T15:24:07Z</time>
      </trkpt>
      <trkpt lat="49.44747" lon="3.4395">
        <ele>168.85</ele>
        <time>2021-07-27T15:24:08Z</time>
      </trkpt>
      <trkpt lat="49.44743" lon="3.43936">
        <ele>169.33</ele>
        <time>2021-07-27T15:24:09Z</time>
      </trkpt>
      <trkpt lat="49.44739" lon="3.43921">
        <ele>170.29</ele>
        <time>2021-07-27T15:24:10Z</time>
      </trkpt>
      <trkpt lat="49.44738" lon="3.43907">
        <ele>171.73</ele>
        <time>2021-07-27T15:24:11Z</time>
      </trkpt>
      <trkpt lat="49.44737" lon="3.43893">
        <ele>172.21</ele>
        <time>2021-07-27T15:24:12Z</time>
      </trkpt>
      <trkpt lat="49.44736" lon="3.4388">
        <ele>171.73</ele>
        <time>2021-07-27T15:24:13Z</time>
      </trkpt>
      <trkpt lat="49.44735" lon="3.43859">
        <ele>171.25</ele>
        <time>2021-07-27T15:24:14Z</time>
      </trkpt>
      <trkpt lat="49.44735" lon="3.43859">
        <ele>171.25</ele>
        <time>2021-07-27T15:24:15Z</time>
      </trkpt>
      <trkpt lat="49.44734" lon="3.43849">
        <ele>170.77</ele>
        <time>2021-07-27T15:24:16Z</time>
      </trkpt>
      <trkpt lat="49.44745" lon="3.43838">
        <ele>170.77</ele>
        <time>2021-07-27T15:24:17Z</time>
      </trkpt>
      <trkpt lat="49.44748" lon="3.43802">
        <ele>170.29</ele>
        <time>2021-07-27T15:24:20Z</time>
      </trkpt>
      <trkpt lat="49.44754" lon="3.43796">
        <ele>170.29</ele>
        <time>2021-07-27T15:24:21Z</time>
      </trkpt>
      <trkpt lat="49.44762" lon="3.43789">
        <ele>169.81</ele>
        <time>2021-07-27T15:24:22Z</time>
      </trkpt>
      <trkpt lat="49.44864" lon="3.43688">
        <ele>169.33</ele>
        <time>2021-07-27T15:24:34Z</time>
      </trkpt>
      <trkpt lat="49.44869" lon="3.43683">
        <ele>168.37</ele>
        <time>2021-07-27T15:24:35Z</time>
      </trkpt>
      <trkpt lat="49.44873" lon="3.4368">
        <ele>168.37</ele>
        <time>2021-07-27T15:24:36Z</time>
      </trkpt>
      <trkpt lat="49.4488" lon="3.43687">
        <ele>167.89</ele>
        <time>2021-07-27T15:24:37Z</time>
      </trkpt>
      <trkpt lat="49.44895" lon="3.43692">
        <ele>166.93</ele>
        <time>2021-07-27T15:24:41Z</time>
      </trkpt>
      <trkpt lat="49.44898" lon="3.43687">
        <ele>166.93</ele>
        <time>2021-07-27T15:24:42Z</time>
      </trkpt>
      <trkpt lat="49.449" lon="3.43683">
        <ele>167.41</ele>
        <time>2021-07-27T15:24:43Z</time>
      </trkpt>
      <trkpt lat="49.44902" lon="3.43679">
        <ele>167.41</ele>
        <time>2021-07-27T15:24:44Z</time>
      </trkpt>
      <trkpt lat="49.44904" lon="3.43674">
        <ele>167.41</ele>
        <time>2021-07-27T15:24:45Z</time>
      </trkpt>
      <trkpt lat="49.44906" lon="3.4367">
        <ele>167.41</ele>
        <time>2021-07-27T15:24:46Z</time>
      </trkpt>
      <trkpt lat="49.44906" lon="3.4367">
        <ele>167.41</ele>
        <time>2021-07-27T15:24:47Z</time>
      </trkpt>
      <trkpt lat="49.44905" lon="3.43667">
        <ele>166.93</ele>
        <time>2021-07-27T15:24:48Z</time>
      </trkpt>
      <trkpt lat="49.44905" lon="3.43664">
        <ele>166.93</ele>
        <time>2021-07-27T15:24:49Z</time>
      </trkpt>
      <trkpt lat="49.44904" lon="3.43659">
        <ele>166.93</ele>
        <time>2021-07-27T15:24:50Z</time>
      </trkpt>
      <trkpt lat="49.44904" lon="3.43656">
        <ele>166.93</ele>
        <time>2021-07-27T15:24:51Z</time>
      </trkpt>
      <trkpt lat="49.44903" lon="3.43655">
        <ele>166.93</ele>
        <time>2021-07-27T15:24:52Z</time>
      </trkpt>
      <trkpt lat="49.44902" lon="3.43654">
        <ele>167.41</ele>
        <time>2021-07-27T15:24:53Z</time>
      </trkpt>
      <trkpt lat="49.449" lon="3.4365">
        <ele>166.93</ele>
        <time>2021-07-27T15:24:54Z</time>
      </trkpt>
      <trkpt lat="49.44896" lon="3.43645">
        <ele>166.93</ele>
        <time>2021-07-27T15:24:55Z</time>
      </trkpt>
      <trkpt lat="49.44894" lon="3.43643">
        <ele>166.45</ele>
        <time>2021-07-27T15:24:56Z</time>
      </trkpt>
      <trkpt lat="49.44888" lon="3.43645">
        <ele>165.96</ele>
        <time>2021-07-27T15:24:57Z</time>
      </trkpt>
      <trkpt lat="49.44882" lon="3.43647">
        <ele>165.96</ele>
        <time>2021-07-27T15:24:58Z</time>
      </trkpt>
      <trkpt lat="49.44877" lon="3.43648">
        <ele>165.96</ele>
        <time>2021-07-27T15:24:59Z</time>
      </trkpt>
      <trkpt lat="49.44872" lon="3.43662">
        <ele>165.96</ele>
        <time>2021-07-27T15:25:00Z</time>
      </trkpt>
      <trkpt lat="49.44872" lon="3.43662">
        <ele>165.96</ele>
        <time>2021-07-27T15:25:01Z</time>
      </trkpt>
      <trkpt lat="49.44872" lon="3.43669">
        <ele>166.45</ele>
        <time>2021-07-27T15:25:02Z</time>
      </trkpt>
      <trkpt lat="49.44873" lon="3.43676">
        <ele>166.45</ele>
        <time>2021-07-27T15:25:03Z</time>
      </trkpt>
      <trkpt lat="49.44875" lon="3.43681">
        <ele>166.45</ele>
        <time>2021-07-27T15:25:04Z</time>
      </trkpt>
      <trkpt lat="49.44879" lon="3.43686">
        <ele>166.45</ele>
        <time>2021-07-27T15:25:05Z</time>
      </trkpt>
      <trkpt lat="49.44882" lon="3.4369">
        <ele>166.45</ele>
        <time>2021-07-27T15:25:06Z</time>
      </trkpt>
      <trkpt lat="49.44885" lon="3.43692">
        <ele>166.45</ele>
        <time>2021-07-27T15:25:07Z</time>
      </trkpt>
      <trkpt lat="49.44889" lon="3.43692">
        <ele>165.96</ele>
        <time>2021-07-27T15:25:08Z</time>
      </trkpt>
      <trkpt lat="49.44892" lon="3.43692">
        <ele>165.96</ele>
        <time>2021-07-27T15:25:09Z</time>
      </trkpt>
      <trkpt lat="49.44895" lon="3.43692">
        <ele>165.96</ele>
        <time>2021-07-27T15:25:10Z</time>
      </trkpt>
      <trkpt lat="49.44898" lon="3.43688">
        <ele>165.96</ele>
        <time>2021-07-27T15:25:11Z</time>
      </trkpt>
      <trkpt lat="49.449" lon="3.43683">
        <ele>165.96</ele>
        <time>2021-07-27T15:25:12Z</time>
      </trkpt>
      <trkpt lat="49.44903" lon="3.43677">
        <ele>165.96</ele>
        <time>2021-07-27T15:25:13Z</time>
      </trkpt>
      <trkpt lat="49.44906" lon="3.4367">
        <ele>165.48</ele>
        <time>2021-07-27T15:25:14Z</time>
      </trkpt>
      <trkpt lat="49.44906" lon="3.4367">
        <ele>165.48</ele>
        <time>2021-07-27T15:25:15Z</time>
      </trkpt>
      <trkpt lat="49.44911" lon="3.43651">
        <ele>165</ele>
        <time>2021-07-27T15:25:16Z</time>
      </trkpt>
      <trkpt lat="49.44923" lon="3.43644">
        <ele>164.52</ele>
        <time>2021-07-27T15:25:17Z</time>
      </trkpt>
      <trkpt lat="49.44923" lon="3.43644">
        <ele>164.04</ele>
        <time>2021-07-27T15:25:18Z</time>
      </trkpt>
      <trkpt lat="49.44929" lon="3.4364">
        <ele>164.04</ele>
        <time>2021-07-27T15:25:19Z</time>
      </trkpt>
      <trkpt lat="49.44964" lon="3.43621">
        <ele>163.08</ele>
        <time>2021-07-27T15:25:24Z</time>
      </trkpt>
      <trkpt lat="49.44971" lon="3.43621">
        <ele>162.6</ele>
        <time>2021-07-27T15:25:25Z</time>
      </trkpt>
      <trkpt lat="49.44979" lon="3.43621">
        <ele>162.6</ele>
        <time>2021-07-27T15:25:26Z</time>
      </trkpt>
      <trkpt lat="49.44986" lon="3.43621">
        <ele>162.12</ele>
        <time>2021-07-27T15:25:27Z</time>
      </trkpt>
      <trkpt lat="49.44994" lon="3.43625">
        <ele>161.64</ele>
        <time>2021-07-27T15:25:28Z</time>
      </trkpt>
      <trkpt lat="49.45008" lon="3.43639">
        <ele>161.64</ele>
        <time>2021-07-27T15:25:29Z</time>
      </trkpt>
      <trkpt lat="49.45008" lon="3.43639">
        <ele>161.64</ele>
        <time>2021-07-27T15:25:30Z</time>
      </trkpt>
      <trkpt lat="49.45016" lon="3.43647">
        <ele>161.16</ele>
        <time>2021-07-27T15:25:31Z</time>
      </trkpt>
      <trkpt lat="49.4502" lon="3.43662">
        <ele>161.64</ele>
        <time>2021-07-27T15:25:32Z</time>
      </trkpt>
      <trkpt lat="49.45024" lon="3.43676">
        <ele>161.64</ele>
        <time>2021-07-27T15:25:33Z</time>
      </trkpt>
      <trkpt lat="49.45027" lon="3.4369">
        <ele>160.68</ele>
        <time>2021-07-27T15:25:34Z</time>
      </trkpt>
      <trkpt lat="49.45064" lon="3.43861">
        <ele>161.16</ele>
        <time>2021-07-27T15:25:47Z</time>
      </trkpt>
      <trkpt lat="49.45067" lon="3.43873">
        <ele>161.16</ele>
        <time>2021-07-27T15:25:48Z</time>
      </trkpt>
      <trkpt lat="49.45067" lon="3.43873">
        <ele>161.16</ele>
        <time>2021-07-27T15:25:49Z</time>
      </trkpt>
      <trkpt lat="49.45068" lon="3.43876">
        <ele>161.64</ele>
        <time>2021-07-27T15:26:01Z</time>
      </trkpt>
      <trkpt lat="49.45068" lon="3.43876">
        <ele>161.64</ele>
        <time>2021-07-27T15:26:25Z</time>
      </trkpt>
      <trkpt lat="49.45069" lon="3.43881">
        <ele>161.64</ele>
        <time>2021-07-27T15:26:26Z</time>
      </trkpt>
      <trkpt lat="49.45069" lon="3.43881">
        <ele>161.64</ele>
        <time>2021-07-27T15:26:27Z</time>
      </trkpt>
      <trkpt lat="49.45069" lon="3.43882">
        <ele>161.64</ele>
        <time>2021-07-27T15:26:28Z</time>
      </trkpt>
      <trkpt lat="49.45069" lon="3.43882">
        <ele>161.64</ele>
        <time>2021-07-27T15:26:41Z</time>
      </trkpt>
      <trkpt lat="49.45069" lon="3.43882">
        <ele>161.16</ele>
        <time>2021-07-27T15:26:54Z</time>
      </trkpt>
      <trkpt lat="49.45069" lon="3.43882">
        <ele>161.16</ele>
        <time>2021-07-27T15:26:55Z</time>
      </trkpt>
      <trkpt lat="49.45065" lon="3.43884">
        <ele>161.16</ele>
        <time>2021-07-27T15:26:56Z</time>
      </trkpt>
      <trkpt lat="49.45067" lon="3.43882">
        <ele>161.16</ele>
        <time>2021-07-27T15:26:57Z</time>
      </trkpt>
      <trkpt lat="49.45069" lon="3.4388">
        <ele>161.16</ele>
        <time>2021-07-27T15:26:58Z</time>
      </trkpt>
      <trkpt lat="49.45065" lon="3.43868">
        <ele>161.16</ele>
        <time>2021-07-27T15:26:59Z</time>
      </trkpt>
      <trkpt lat="49.45065" lon="3.43868">
        <ele>161.16</ele>
        <time>2021-07-27T15:27:00Z</time>
      </trkpt>
      <trkpt lat="49.45046" lon="3.43775">
        <ele>161.64</ele>
        <time>2021-07-27T15:27:08Z</time>
      </trkpt>
      <trkpt lat="49.45016" lon="3.43649">
        <ele>164.04</ele>
        <time>2021-07-27T15:27:15Z</time>
      </trkpt>
      <trkpt lat="49.45016" lon="3.43649">
        <ele>165.48</ele>
        <time>2021-07-27T15:27:16Z</time>
      </trkpt>
      <trkpt lat="49.45011" lon="3.43641">
        <ele>165.48</ele>
        <time>2021-07-27T15:27:17Z</time>
      </trkpt>
      <trkpt lat="49.45002" lon="3.43633">
        <ele>165</ele>
        <time>2021-07-27T15:27:18Z</time>
      </trkpt>
      <trkpt lat="49.44993" lon="3.43624">
        <ele>165.48</ele>
        <time>2021-07-27T15:27:19Z</time>
      </trkpt>
      <trkpt lat="49.44984" lon="3.43621">
        <ele>165.48</ele>
        <time>2021-07-27T15:27:20Z</time>
      </trkpt>
      <trkpt lat="49.44971" lon="3.43621">
        <ele>165.96</ele>
        <time>2021-07-27T15:27:21Z</time>
      </trkpt>
      <trkpt lat="49.44961" lon="3.43621">
        <ele>166.93</ele>
        <time>2021-07-27T15:27:22Z</time>
      </trkpt>
      <trkpt lat="49.44951" lon="3.43627">
        <ele>166.93</ele>
        <time>2021-07-27T15:27:23Z</time>
      </trkpt>
      <trkpt lat="49.4494" lon="3.43633">
        <ele>167.89</ele>
        <time>2021-07-27T15:27:24Z</time>
      </trkpt>
      <trkpt lat="49.44931" lon="3.43639">
        <ele>168.37</ele>
        <time>2021-07-27T15:27:25Z</time>
      </trkpt>
      <trkpt lat="49.44923" lon="3.43644">
        <ele>167.41</ele>
        <time>2021-07-27T15:27:26Z</time>
      </trkpt>
      <trkpt lat="49.44915" lon="3.43649">
        <ele>167.41</ele>
        <time>2021-07-27T15:27:27Z</time>
      </trkpt>
      <trkpt lat="49.44907" lon="3.43653">
        <ele>167.41</ele>
        <time>2021-07-27T15:27:28Z</time>
      </trkpt>
      <trkpt lat="49.44903" lon="3.43655">
        <ele>166.93</ele>
        <time>2021-07-27T15:27:29Z</time>
      </trkpt>
      <trkpt lat="49.44889" lon="3.43644">
        <ele>166.93</ele>
        <time>2021-07-27T15:27:30Z</time>
      </trkpt>
      <trkpt lat="49.44864" lon="3.43642">
        <ele>167.41</ele>
        <time>2021-07-27T15:27:32Z</time>
      </trkpt>
      <trkpt lat="49.44864" lon="3.43642">
        <ele>167.89</ele>
        <time>2021-07-27T15:27:33Z</time>
      </trkpt>
      <trkpt lat="49.44854" lon="3.43636">
        <ele>167.41</ele>
        <time>2021-07-27T15:27:34Z</time>
      </trkpt>
      <trkpt lat="49.44755" lon="3.43563">
        <ele>162.6</ele>
        <time>2021-07-27T15:27:43Z</time>
      </trkpt>
      <trkpt lat="49.44671" lon="3.43436">
        <ele>163.08</ele>
        <time>2021-07-27T15:27:50Z</time>
      </trkpt>
      <trkpt lat="49.44497" lon="3.43165">
        <ele>165</ele>
        <time>2021-07-27T15:28:02Z</time>
      </trkpt>
      <trkpt lat="49.44296" lon="3.42868">
        <ele>158.75</ele>
        <time>2021-07-27T15:28:14Z</time>
      </trkpt>
      <trkpt lat="49.44114" lon="3.42635">
        <ele>160.2</ele>
        <time>2021-07-27T15:28:24Z</time>
      </trkpt>
      <trkpt lat="49.43872" lon="3.42415">
        <ele>159.24</ele>
        <time>2021-07-27T15:28:36Z</time>
      </trkpt>
      <trkpt lat="49.4344" lon="3.4202">
        <ele>160.2</ele>
        <time>2021-07-27T15:28:58Z</time>
      </trkpt>
      <trkpt lat="49.43145" lon="3.4175">
        <ele>165</ele>
        <time>2021-07-27T15:29:14Z</time>
      </trkpt>
      <trkpt lat="49.42798" lon="3.41436">
        <ele>165.96</ele>
        <time>2021-07-27T15:29:33Z</time>
      </trkpt>
      <trkpt lat="49.42667" lon="3.41314">
        <ele>166.45</ele>
        <time>2021-07-27T15:29:42Z</time>
      </trkpt>
      <trkpt lat="49.42614" lon="3.41185">
        <ele>157.31</ele>
        <time>2021-07-27T15:29:49Z</time>
      </trkpt>
      <trkpt lat="49.42542" lon="3.40974">
        <ele>150.58</ele>
        <time>2021-07-27T15:30:01Z</time>
      </trkpt>
      <trkpt lat="49.42539" lon="3.40966">
        <ele>150.58</ele>
        <time>2021-07-27T15:30:02Z</time>
      </trkpt>
      <trkpt lat="49.42537" lon="3.4096">
        <ele>151.06</ele>
        <time>2021-07-27T15:30:03Z</time>
      </trkpt>
      <trkpt lat="49.4254" lon="3.40944">
        <ele>151.54</ele>
        <time>2021-07-27T15:30:04Z</time>
      </trkpt>
      <trkpt lat="49.4254" lon="3.40944">
        <ele>152.03</ele>
        <time>2021-07-27T15:30:05Z</time>
      </trkpt>
      <trkpt lat="49.4254" lon="3.40936">
        <ele>152.03</ele>
        <time>2021-07-27T15:30:06Z</time>
      </trkpt>
      <trkpt lat="49.42538" lon="3.4093">
        <ele>151.54</ele>
        <time>2021-07-27T15:30:07Z</time>
      </trkpt>
      <trkpt lat="49.42537" lon="3.40926">
        <ele>150.58</ele>
        <time>2021-07-27T15:30:08Z</time>
      </trkpt>
      <trkpt lat="49.42534" lon="3.40923">
        <ele>150.58</ele>
        <time>2021-07-27T15:30:09Z</time>
      </trkpt>
      <trkpt lat="49.42529" lon="3.4092">
        <ele>150.1</ele>
        <time>2021-07-27T15:30:10Z</time>
      </trkpt>
      <trkpt lat="49.42528" lon="3.40923">
        <ele>149.62</ele>
        <time>2021-07-27T15:30:11Z</time>
      </trkpt>
      <trkpt lat="49.42524" lon="3.40926">
        <ele>149.14</ele>
        <time>2021-07-27T15:30:12Z</time>
      </trkpt>
      <trkpt lat="49.42519" lon="3.4093">
        <ele>148.66</ele>
        <time>2021-07-27T15:30:13Z</time>
      </trkpt>
      <trkpt lat="49.42515" lon="3.40933">
        <ele>149.62</ele>
        <time>2021-07-27T15:30:14Z</time>
      </trkpt>
      <trkpt lat="49.42516" lon="3.40941">
        <ele>149.62</ele>
        <time>2021-07-27T15:30:15Z</time>
      </trkpt>
      <trkpt lat="49.42513" lon="3.40962">
        <ele>149.62</ele>
        <time>2021-07-27T15:30:16Z</time>
      </trkpt>
      <trkpt lat="49.42507" lon="3.40968">
        <ele>149.14</ele>
        <time>2021-07-27T15:30:17Z</time>
      </trkpt>
      <trkpt lat="49.42424" lon="3.41068">
        <ele>147.7</ele>
        <time>2021-07-27T15:30:27Z</time>
      </trkpt>
      <trkpt lat="49.42389" lon="3.41111">
        <ele>148.66</ele>
        <time>2021-07-27T15:30:31Z</time>
      </trkpt>
      <trkpt lat="49.42382" lon="3.4112">
        <ele>148.66</ele>
        <time>2021-07-27T15:30:32Z</time>
      </trkpt>
      <trkpt lat="49.42376" lon="3.41127">
        <ele>148.66</ele>
        <time>2021-07-27T15:30:33Z</time>
      </trkpt>
      <trkpt lat="49.4236" lon="3.41122">
        <ele>148.18</ele>
        <time>2021-07-27T15:30:35Z</time>
      </trkpt>
      <trkpt lat="49.42352" lon="3.41126">
        <ele>148.66</ele>
        <time>2021-07-27T15:30:36Z</time>
      </trkpt>
      <trkpt lat="49.42348" lon="3.4113">
        <ele>148.66</ele>
        <time>2021-07-27T15:30:37Z</time>
      </trkpt>
      <trkpt lat="49.42345" lon="3.41141">
        <ele>149.14</ele>
        <time>2021-07-27T15:30:38Z</time>
      </trkpt>
      <trkpt lat="49.42344" lon="3.4115">
        <ele>149.14</ele>
        <time>2021-07-27T15:30:39Z</time>
      </trkpt>
      <trkpt lat="49.42345" lon="3.41183">
        <ele>148.66</ele>
        <time>2021-07-27T15:30:40Z</time>
      </trkpt>
      <trkpt lat="49.42339" lon="3.4119">
        <ele>148.66</ele>
        <time>2021-07-27T15:30:41Z</time>
      </trkpt>
      <trkpt lat="49.42332" lon="3.41199">
        <ele>148.66</ele>
        <time>2021-07-27T15:30:42Z</time>
      </trkpt>
      <trkpt lat="49.42325" lon="3.4121">
        <ele>149.62</ele>
        <time>2021-07-27T15:30:43Z</time>
      </trkpt>
      <trkpt lat="49.42325" lon="3.4121">
        <ele>150.58</ele>
        <time>2021-07-27T15:30:44Z</time>
      </trkpt>
      <trkpt lat="49.42236" lon="3.41327">
        <ele>155.39</ele>
        <time>2021-07-27T15:30:53Z</time>
      </trkpt>
      <trkpt lat="49.42033" lon="3.41493">
        <ele>164.04</ele>
        <time>2021-07-27T15:31:07Z</time>
      </trkpt>
      <trkpt lat="49.41768" lon="3.41709">
        <ele>158.27</ele>
        <time>2021-07-27T15:31:25Z</time>
      </trkpt>
      <trkpt lat="49.41568" lon="3.41901">
        <ele>148.18</ele>
        <time>2021-07-27T15:31:38Z</time>
      </trkpt>
      <trkpt lat="49.41437" lon="3.4204">
        <ele>144.34</ele>
        <time>2021-07-27T15:31:47Z</time>
      </trkpt>
      <trkpt lat="49.413" lon="3.42163">
        <ele>141.45</ele>
        <time>2021-07-27T15:31:57Z</time>
      </trkpt>
      <trkpt lat="49.41227" lon="3.42193">
        <ele>140.01</ele>
        <time>2021-07-27T15:32:03Z</time>
      </trkpt>
      <trkpt lat="49.41157" lon="3.42206">
        <ele>140.97</ele>
        <time>2021-07-27T15:32:13Z</time>
      </trkpt>
      <trkpt lat="49.41108" lon="3.4222">
        <ele>138.09</ele>
        <time>2021-07-27T15:32:21Z</time>
      </trkpt>
      <trkpt lat="49.41007" lon="3.42297">
        <ele>137.13</ele>
        <time>2021-07-27T15:32:33Z</time>
      </trkpt>
      <trkpt lat="49.40999" lon="3.42301">
        <ele>137.13</ele>
        <time>2021-07-27T15:32:34Z</time>
      </trkpt>
      <trkpt lat="49.40971" lon="3.42318">
        <ele>135.68</ele>
        <time>2021-07-27T15:32:42Z</time>
      </trkpt>
      <trkpt lat="49.40908" lon="3.42355">
        <ele>132.8</ele>
        <time>2021-07-27T15:32:51Z</time>
      </trkpt>
      <trkpt lat="49.40835" lon="3.42395">
        <ele>130.4</ele>
        <time>2021-07-27T15:33:01Z</time>
      </trkpt>
      <trkpt lat="49.4083" lon="3.42396">
        <ele>130.88</ele>
        <time>2021-07-27T15:33:10Z</time>
      </trkpt>
      <trkpt lat="49.40829" lon="3.42396">
        <ele>130.88</ele>
        <time>2021-07-27T15:33:11Z</time>
      </trkpt>
      <trkpt lat="49.40828" lon="3.42394">
        <ele>130.88</ele>
        <time>2021-07-27T15:33:12Z</time>
      </trkpt>
      <trkpt lat="49.40827" lon="3.4239">
        <ele>130.88</ele>
        <time>2021-07-27T15:33:13Z</time>
      </trkpt>
      <trkpt lat="49.40813" lon="3.42329">
        <ele>130.4</ele>
        <time>2021-07-27T15:33:22Z</time>
      </trkpt>
      <trkpt lat="49.40812" lon="3.42321">
        <ele>129.92</ele>
        <time>2021-07-27T15:33:23Z</time>
      </trkpt>
      <trkpt lat="49.40809" lon="3.42314">
        <ele>129.43</ele>
        <time>2021-07-27T15:33:24Z</time>
      </trkpt>
      <trkpt lat="49.40805" lon="3.42307">
        <ele>128.95</ele>
        <time>2021-07-27T15:33:25Z</time>
      </trkpt>
      <trkpt lat="49.408" lon="3.42302">
        <ele>128.47</ele>
        <time>2021-07-27T15:33:26Z</time>
      </trkpt>
      <trkpt lat="49.40794" lon="3.42298">
        <ele>128.47</ele>
        <time>2021-07-27T15:33:27Z</time>
      </trkpt>
      <trkpt lat="49.40787" lon="3.42293">
        <ele>128.47</ele>
        <time>2021-07-27T15:33:28Z</time>
      </trkpt>
      <trkpt lat="49.4078" lon="3.42288">
        <ele>127.99</ele>
        <time>2021-07-27T15:33:29Z</time>
      </trkpt>
      <trkpt lat="49.40773" lon="3.42284">
        <ele>127.51</ele>
        <time>2021-07-27T15:33:30Z</time>
      </trkpt>
      <trkpt lat="49.4074" lon="3.42281">
        <ele>123.67</ele>
        <time>2021-07-27T15:33:34Z</time>
      </trkpt>
      <trkpt lat="49.40731" lon="3.42281">
        <ele>123.19</ele>
        <time>2021-07-27T15:33:35Z</time>
      </trkpt>
      <trkpt lat="49.40722" lon="3.42281">
        <ele>122.71</ele>
        <time>2021-07-27T15:33:36Z</time>
      </trkpt>
      <trkpt lat="49.40705" lon="3.42291">
        <ele>122.71</ele>
        <time>2021-07-27T15:33:37Z</time>
      </trkpt>
      <trkpt lat="49.40705" lon="3.42291">
        <ele>121.74</ele>
        <time>2021-07-27T15:33:38Z</time>
      </trkpt>
      <trkpt lat="49.40689" lon="3.42308">
        <ele>121.74</ele>
        <time>2021-07-27T15:33:39Z</time>
      </trkpt>
      <trkpt lat="49.40689" lon="3.42308">
        <ele>119.82</ele>
        <time>2021-07-27T15:33:40Z</time>
      </trkpt>
      <trkpt lat="49.40678" lon="3.42329">
        <ele>119.34</ele>
        <time>2021-07-27T15:33:41Z</time>
      </trkpt>
      <trkpt lat="49.40678" lon="3.42329">
        <ele>118.86</ele>
        <time>2021-07-27T15:33:42Z</time>
      </trkpt>
      <trkpt lat="49.40673" lon="3.4234">
        <ele>118.86</ele>
        <time>2021-07-27T15:33:43Z</time>
      </trkpt>
      <trkpt lat="49.40643" lon="3.4242">
        <ele>114.05</ele>
        <time>2021-07-27T15:33:50Z</time>
      </trkpt>
      <trkpt lat="49.4064" lon="3.4243">
        <ele>113.57</ele>
        <time>2021-07-27T15:33:51Z</time>
      </trkpt>
      <trkpt lat="49.40637" lon="3.42441">
        <ele>112.61</ele>
        <time>2021-07-27T15:33:52Z</time>
      </trkpt>
      <trkpt lat="49.40636" lon="3.42449">
        <ele>112.13</ele>
        <time>2021-07-27T15:33:53Z</time>
      </trkpt>
      <trkpt lat="49.40636" lon="3.42461">
        <ele>111.65</ele>
        <time>2021-07-27T15:33:54Z</time>
      </trkpt>
      <trkpt lat="49.4064" lon="3.42528">
        <ele>106.84</ele>
        <time>2021-07-27T15:34:00Z</time>
      </trkpt>
      <trkpt lat="49.40642" lon="3.42535">
        <ele>105.4</ele>
        <time>2021-07-27T15:34:01Z</time>
      </trkpt>
      <trkpt lat="49.40646" lon="3.42542">
        <ele>104.92</ele>
        <time>2021-07-27T15:34:02Z</time>
      </trkpt>
      <trkpt lat="49.4065" lon="3.42549">
        <ele>103.96</ele>
        <time>2021-07-27T15:34:03Z</time>
      </trkpt>
      <trkpt lat="49.40654" lon="3.42556">
        <ele>103</ele>
        <time>2021-07-27T15:34:04Z</time>
      </trkpt>
      <trkpt lat="49.40658" lon="3.42562">
        <ele>101.56</ele>
        <time>2021-07-27T15:34:05Z</time>
      </trkpt>
      <trkpt lat="49.40669" lon="3.42584">
        <ele>100.11</ele>
        <time>2021-07-27T15:34:08Z</time>
      </trkpt>
      <trkpt lat="49.40669" lon="3.42584">
        <ele>99.63</ele>
        <time>2021-07-27T15:34:09Z</time>
      </trkpt>
      <trkpt lat="49.40671" lon="3.42591">
        <ele>99.15</ele>
        <time>2021-07-27T15:34:10Z</time>
      </trkpt>
      <trkpt lat="49.40672" lon="3.42599">
        <ele>99.15</ele>
        <time>2021-07-27T15:34:11Z</time>
      </trkpt>
      <trkpt lat="49.40674" lon="3.42607">
        <ele>99.15</ele>
        <time>2021-07-27T15:34:12Z</time>
      </trkpt>
      <trkpt lat="49.40671" lon="3.42613">
        <ele>97.71</ele>
        <time>2021-07-27T15:34:13Z</time>
      </trkpt>
      <trkpt lat="49.40663" lon="3.42626">
        <ele>97.23</ele>
        <time>2021-07-27T15:34:14Z</time>
      </trkpt>
      <trkpt lat="49.40663" lon="3.42626">
        <ele>96.75</ele>
        <time>2021-07-27T15:34:15Z</time>
      </trkpt>
      <trkpt lat="49.40657" lon="3.4263">
        <ele>96.27</ele>
        <time>2021-07-27T15:34:16Z</time>
      </trkpt>
      <trkpt lat="49.4065" lon="3.42634">
        <ele>95.79</ele>
        <time>2021-07-27T15:34:17Z</time>
      </trkpt>
      <trkpt lat="49.40645" lon="3.42631">
        <ele>95.79</ele>
        <time>2021-07-27T15:34:18Z</time>
      </trkpt>
      <trkpt lat="49.40632" lon="3.42621">
        <ele>95.31</ele>
        <time>2021-07-27T15:34:19Z</time>
      </trkpt>
      <trkpt lat="49.40632" lon="3.42621">
        <ele>94.83</ele>
        <time>2021-07-27T15:34:20Z</time>
      </trkpt>
      <trkpt lat="49.40629" lon="3.42613">
        <ele>94.35</ele>
        <time>2021-07-27T15:34:21Z</time>
      </trkpt>
      <trkpt lat="49.40621" lon="3.42595">
        <ele>93.39</ele>
        <time>2021-07-27T15:34:23Z</time>
      </trkpt>
      <trkpt lat="49.40617" lon="3.42586">
        <ele>92.9</ele>
        <time>2021-07-27T15:34:24Z</time>
      </trkpt>
      <trkpt lat="49.40613" lon="3.42578">
        <ele>92.42</ele>
        <time>2021-07-27T15:34:25Z</time>
      </trkpt>
      <trkpt lat="49.40608" lon="3.42576">
        <ele>90.98</ele>
        <time>2021-07-27T15:34:26Z</time>
      </trkpt>
      <trkpt lat="49.40602" lon="3.42576">
        <ele>90.5</ele>
        <time>2021-07-27T15:34:27Z</time>
      </trkpt>
      <trkpt lat="49.40593" lon="3.42576">
        <ele>89.54</ele>
        <time>2021-07-27T15:34:28Z</time>
      </trkpt>
      <trkpt lat="49.40589" lon="3.42581">
        <ele>89.54</ele>
        <time>2021-07-27T15:34:29Z</time>
      </trkpt>
      <trkpt lat="49.40585" lon="3.42595">
        <ele>89.06</ele>
        <time>2021-07-27T15:34:30Z</time>
      </trkpt>
      <trkpt lat="49.40584" lon="3.42606">
        <ele>88.58</ele>
        <time>2021-07-27T15:34:31Z</time>
      </trkpt>
      <trkpt lat="49.40588" lon="3.42618">
        <ele>88.58</ele>
        <time>2021-07-27T15:34:32Z</time>
      </trkpt>
      <trkpt lat="49.40592" lon="3.42628">
        <ele>88.58</ele>
        <time>2021-07-27T15:34:33Z</time>
      </trkpt>
      <trkpt lat="49.40596" lon="3.42639">
        <ele>88.1</ele>
        <time>2021-07-27T15:34:34Z</time>
      </trkpt>
      <trkpt lat="49.406" lon="3.42649">
        <ele>87.62</ele>
        <time>2021-07-27T15:34:35Z</time>
      </trkpt>
      <trkpt lat="49.40604" lon="3.42659">
        <ele>87.62</ele>
        <time>2021-07-27T15:34:36Z</time>
      </trkpt>
      <trkpt lat="49.40611" lon="3.42678">
        <ele>87.62</ele>
        <time>2021-07-27T15:34:38Z</time>
      </trkpt>
      <trkpt lat="49.40615" lon="3.42687">
        <ele>87.62</ele>
        <time>2021-07-27T15:34:39Z</time>
      </trkpt>
      <trkpt lat="49.40616" lon="3.42698">
        <ele>87.62</ele>
        <time>2021-07-27T15:34:40Z</time>
      </trkpt>
      <trkpt lat="49.40616" lon="3.4271">
        <ele>88.1</ele>
        <time>2021-07-27T15:34:41Z</time>
      </trkpt>
      <trkpt lat="49.40615" lon="3.42719">
        <ele>88.1</ele>
        <time>2021-07-27T15:34:42Z</time>
      </trkpt>
      <trkpt lat="49.40612" lon="3.42728">
        <ele>87.62</ele>
        <time>2021-07-27T15:34:43Z</time>
      </trkpt>
      <trkpt lat="49.40607" lon="3.42732">
        <ele>87.62</ele>
        <time>2021-07-27T15:34:44Z</time>
      </trkpt>
      <trkpt lat="49.40596" lon="3.4274">
        <ele>87.14</ele>
        <time>2021-07-27T15:34:45Z</time>
      </trkpt>
      <trkpt lat="49.40591" lon="3.4274">
        <ele>87.14</ele>
        <time>2021-07-27T15:34:46Z</time>
      </trkpt>
      <trkpt lat="49.40591" lon="3.4274">
        <ele>86.66</ele>
        <time>2021-07-27T15:34:47Z</time>
      </trkpt>
      <trkpt lat="49.40575" lon="3.42732">
        <ele>86.66</ele>
        <time>2021-07-27T15:34:48Z</time>
      </trkpt>
      <trkpt lat="49.40575" lon="3.42732">
        <ele>86.18</ele>
        <time>2021-07-27T15:34:49Z</time>
      </trkpt>
      <trkpt lat="49.40572" lon="3.42724">
        <ele>86.18</ele>
        <time>2021-07-27T15:34:50Z</time>
      </trkpt>
      <trkpt lat="49.40569" lon="3.42712">
        <ele>85.69</ele>
        <time>2021-07-27T15:34:51Z</time>
      </trkpt>
      <trkpt lat="49.40569" lon="3.427">
        <ele>85.69</ele>
        <time>2021-07-27T15:34:52Z</time>
      </trkpt>
      <trkpt lat="49.40569" lon="3.4269">
        <ele>85.21</ele>
        <time>2021-07-27T15:34:53Z</time>
      </trkpt>
      <trkpt lat="49.40569" lon="3.4268">
        <ele>85.21</ele>
        <time>2021-07-27T15:34:54Z</time>
      </trkpt>
      <trkpt lat="49.40569" lon="3.42671">
        <ele>84.73</ele>
        <time>2021-07-27T15:34:55Z</time>
      </trkpt>
      <trkpt lat="49.40566" lon="3.42662">
        <ele>84.73</ele>
        <time>2021-07-27T15:34:56Z</time>
      </trkpt>
      <trkpt lat="49.40564" lon="3.42652">
        <ele>84.25</ele>
        <time>2021-07-27T15:34:57Z</time>
      </trkpt>
      <trkpt lat="49.40559" lon="3.42643">
        <ele>84.25</ele>
        <time>2021-07-27T15:34:58Z</time>
      </trkpt>
      <trkpt lat="49.40553" lon="3.42637">
        <ele>83.77</ele>
        <time>2021-07-27T15:34:59Z</time>
      </trkpt>
      <trkpt lat="49.40545" lon="3.42638">
        <ele>83.77</ele>
        <time>2021-07-27T15:35:00Z</time>
      </trkpt>
      <trkpt lat="49.40538" lon="3.4264">
        <ele>84.25</ele>
        <time>2021-07-27T15:35:01Z</time>
      </trkpt>
      <trkpt lat="49.40532" lon="3.42649">
        <ele>84.25</ele>
        <time>2021-07-27T15:35:02Z</time>
      </trkpt>
      <trkpt lat="49.40527" lon="3.42659">
        <ele>83.77</ele>
        <time>2021-07-27T15:35:03Z</time>
      </trkpt>
      <trkpt lat="49.40525" lon="3.42671">
        <ele>83.77</ele>
        <time>2021-07-27T15:35:04Z</time>
      </trkpt>
      <trkpt lat="49.40524" lon="3.42683">
        <ele>83.77</ele>
        <time>2021-07-27T15:35:05Z</time>
      </trkpt>
      <trkpt lat="49.40523" lon="3.42696">
        <ele>83.77</ele>
        <time>2021-07-27T15:35:06Z</time>
      </trkpt>
      <trkpt lat="49.40519" lon="3.42751">
        <ele>82.33</ele>
        <time>2021-07-27T15:35:10Z</time>
      </trkpt>
      <trkpt lat="49.40518" lon="3.42767">
        <ele>81.85</ele>
        <time>2021-07-27T15:35:11Z</time>
      </trkpt>
      <trkpt lat="49.40514" lon="3.42784">
        <ele>81.37</ele>
        <time>2021-07-27T15:35:12Z</time>
      </trkpt>
      <trkpt lat="49.40478" lon="3.42878">
        <ele>77.52</ele>
        <time>2021-07-27T15:35:18Z</time>
      </trkpt>
      <trkpt lat="49.40469" lon="3.42889">
        <ele>77.04</ele>
        <time>2021-07-27T15:35:19Z</time>
      </trkpt>
      <trkpt lat="49.4046" lon="3.429">
        <ele>76.56</ele>
        <time>2021-07-27T15:35:20Z</time>
      </trkpt>
      <trkpt lat="49.4045" lon="3.42907">
        <ele>76.08</ele>
        <time>2021-07-27T15:35:21Z</time>
      </trkpt>
      <trkpt lat="49.40439" lon="3.42913">
        <ele>75.6</ele>
        <time>2021-07-27T15:35:22Z</time>
      </trkpt>
      <trkpt lat="49.40323" lon="3.42976">
        <ele>72.72</ele>
        <time>2021-07-27T15:35:31Z</time>
      </trkpt>
      <trkpt lat="49.40287" lon="3.4301">
        <ele>71.27</ele>
        <time>2021-07-27T15:35:34Z</time>
      </trkpt>
      <trkpt lat="49.40277" lon="3.43021">
        <ele>71.27</ele>
        <time>2021-07-27T15:35:35Z</time>
      </trkpt>
      <trkpt lat="49.40204" lon="3.43181">
        <ele>68.39</ele>
        <time>2021-07-27T15:35:45Z</time>
      </trkpt>
      <trkpt lat="49.40104" lon="3.43455">
        <ele>65.03</ele>
        <time>2021-07-27T15:36:01Z</time>
      </trkpt>
      <trkpt lat="49.40088" lon="3.43498">
        <ele>64.55</ele>
        <time>2021-07-27T15:36:04Z</time>
      </trkpt>
      <trkpt lat="49.40082" lon="3.4351">
        <ele>63.58</ele>
        <time>2021-07-27T15:36:05Z</time>
      </trkpt>
      <trkpt lat="49.40075" lon="3.4352">
        <ele>63.1</ele>
        <time>2021-07-27T15:36:06Z</time>
      </trkpt>
      <trkpt lat="49.40068" lon="3.43531">
        <ele>62.62</ele>
        <time>2021-07-27T15:36:07Z</time>
      </trkpt>
      <trkpt lat="49.40058" lon="3.4354">
        <ele>62.14</ele>
        <time>2021-07-27T15:36:08Z</time>
      </trkpt>
      <trkpt lat="49.39935" lon="3.43638">
        <ele>62.62</ele>
        <time>2021-07-27T15:36:20Z</time>
      </trkpt>
      <trkpt lat="49.39858" lon="3.43688">
        <ele>65.99</ele>
        <time>2021-07-27T15:36:30Z</time>
      </trkpt>
      <trkpt lat="49.39851" lon="3.4369">
        <ele>66.95</ele>
        <time>2021-07-27T15:36:31Z</time>
      </trkpt>
      <trkpt lat="49.39851" lon="3.4369">
        <ele>67.43</ele>
        <time>2021-07-27T15:36:32Z</time>
      </trkpt>
      <trkpt lat="49.39852" lon="3.43701">
        <ele>67.43</ele>
        <time>2021-07-27T15:36:33Z</time>
      </trkpt>
      <trkpt lat="49.39854" lon="3.43704">
        <ele>67.91</ele>
        <time>2021-07-27T15:36:34Z</time>
      </trkpt>
      <trkpt lat="49.39854" lon="3.43704">
        <ele>67.91</ele>
        <time>2021-07-27T15:36:35Z</time>
      </trkpt>
      <trkpt lat="49.39856" lon="3.43708">
        <ele>67.91</ele>
        <time>2021-07-27T15:36:36Z</time>
      </trkpt>
      <trkpt lat="49.3986" lon="3.43713">
        <ele>67.91</ele>
        <time>2021-07-27T15:36:37Z</time>
      </trkpt>
      <trkpt lat="49.39867" lon="3.43724">
        <ele>67.91</ele>
        <time>2021-07-27T15:36:38Z</time>
      </trkpt>
      <trkpt lat="49.39867" lon="3.43724">
        <ele>67.91</ele>
        <time>2021-07-27T15:36:39Z</time>
      </trkpt>
      <trkpt lat="49.39935" lon="3.43786">
        <ele>67.91</ele>
        <time>2021-07-27T15:36:46Z</time>
      </trkpt>
      <trkpt lat="49.40081" lon="3.43912">
        <ele>79.93</ele>
        <time>2021-07-27T15:36:59Z</time>
      </trkpt>
      <trkpt lat="49.4013" lon="3.43959">
        <ele>85.21</ele>
        <time>2021-07-27T15:37:07Z</time>
      </trkpt>
      <trkpt lat="49.40149" lon="3.43975">
        <ele>86.18</ele>
        <time>2021-07-27T15:37:10Z</time>
      </trkpt>
      <trkpt lat="49.40155" lon="3.4398">
        <ele>86.18</ele>
        <time>2021-07-27T15:37:11Z</time>
      </trkpt>
      <trkpt lat="49.4016" lon="3.43986">
        <ele>86.18</ele>
        <time>2021-07-27T15:37:12Z</time>
      </trkpt>
      <trkpt lat="49.40163" lon="3.43996">
        <ele>86.66</ele>
        <time>2021-07-27T15:37:13Z</time>
      </trkpt>
      <trkpt lat="49.40163" lon="3.44005">
        <ele>86.18</ele>
        <time>2021-07-27T15:37:14Z</time>
      </trkpt>
      <trkpt lat="49.40163" lon="3.44016">
        <ele>86.18</ele>
        <time>2021-07-27T15:37:15Z</time>
      </trkpt>
      <trkpt lat="49.40159" lon="3.44027">
        <ele>86.66</ele>
        <time>2021-07-27T15:37:16Z</time>
      </trkpt>
      <trkpt lat="49.40152" lon="3.44032">
        <ele>86.66</ele>
        <time>2021-07-27T15:37:17Z</time>
      </trkpt>
      <trkpt lat="49.40144" lon="3.44034">
        <ele>86.66</ele>
        <time>2021-07-27T15:37:18Z</time>
      </trkpt>
      <trkpt lat="49.40129" lon="3.44033">
        <ele>86.66</ele>
        <time>2021-07-27T15:37:19Z</time>
      </trkpt>
      <trkpt lat="49.40027" lon="3.44015">
        <ele>89.54</ele>
        <time>2021-07-27T15:37:30Z</time>
      </trkpt>
      <trkpt lat="49.39946" lon="3.44">
        <ele>93.39</ele>
        <time>2021-07-27T15:37:37Z</time>
      </trkpt>
      <trkpt lat="49.39938" lon="3.43999">
        <ele>93.39</ele>
        <time>2021-07-27T15:37:38Z</time>
      </trkpt>
      <trkpt lat="49.3993" lon="3.44005">
        <ele>93.39</ele>
        <time>2021-07-27T15:37:39Z</time>
      </trkpt>
      <trkpt lat="49.39923" lon="3.4401">
        <ele>93.87</ele>
        <time>2021-07-27T15:37:40Z</time>
      </trkpt>
      <trkpt lat="49.39916" lon="3.4403">
        <ele>94.35</ele>
        <time>2021-07-27T15:37:41Z</time>
      </trkpt>
      <trkpt lat="49.39916" lon="3.4403">
        <ele>94.35</ele>
        <time>2021-07-27T15:37:42Z</time>
      </trkpt>
      <trkpt lat="49.39915" lon="3.44042">
        <ele>94.83</ele>
        <time>2021-07-27T15:37:43Z</time>
      </trkpt>
      <trkpt lat="49.39916" lon="3.44053">
        <ele>94.83</ele>
        <time>2021-07-27T15:37:44Z</time>
      </trkpt>
      <trkpt lat="49.39921" lon="3.44062">
        <ele>95.31</ele>
        <time>2021-07-27T15:37:45Z</time>
      </trkpt>
      <trkpt lat="49.39926" lon="3.4407">
        <ele>95.31</ele>
        <time>2021-07-27T15:37:46Z</time>
      </trkpt>
      <trkpt lat="49.39932" lon="3.44075">
        <ele>95.79</ele>
        <time>2021-07-27T15:37:47Z</time>
      </trkpt>
      <trkpt lat="49.39939" lon="3.4408">
        <ele>96.27</ele>
        <time>2021-07-27T15:37:48Z</time>
      </trkpt>
      <trkpt lat="49.39946" lon="3.44085">
        <ele>96.27</ele>
        <time>2021-07-27T15:37:49Z</time>
      </trkpt>
      <trkpt lat="49.39983" lon="3.44111">
        <ele>98.19</ele>
        <time>2021-07-27T15:37:55Z</time>
      </trkpt>
      <trkpt lat="49.4008" lon="3.44149">
        <ele>101.56</ele>
        <time>2021-07-27T15:38:05Z</time>
      </trkpt>
      <trkpt lat="49.4009" lon="3.44153">
        <ele>102.04</ele>
        <time>2021-07-27T15:38:06Z</time>
      </trkpt>
      <trkpt lat="49.40099" lon="3.44159">
        <ele>102.04</ele>
        <time>2021-07-27T15:38:07Z</time>
      </trkpt>
      <trkpt lat="49.40108" lon="3.44165">
        <ele>102.04</ele>
        <time>2021-07-27T15:38:08Z</time>
      </trkpt>
      <trkpt lat="49.40196" lon="3.44225">
        <ele>104.44</ele>
        <time>2021-07-27T15:38:18Z</time>
      </trkpt>
      <trkpt lat="49.40213" lon="3.44238">
        <ele>104.92</ele>
        <time>2021-07-27T15:38:21Z</time>
      </trkpt>
      <trkpt lat="49.40219" lon="3.44244">
        <ele>104.92</ele>
        <time>2021-07-27T15:38:22Z</time>
      </trkpt>
      <trkpt lat="49.40226" lon="3.4425">
        <ele>105.4</ele>
        <time>2021-07-27T15:38:23Z</time>
      </trkpt>
      <trkpt lat="49.40229" lon="3.44257">
        <ele>105.88</ele>
        <time>2021-07-27T15:38:24Z</time>
      </trkpt>
      <trkpt lat="49.4023" lon="3.44263">
        <ele>105.88</ele>
        <time>2021-07-27T15:38:25Z</time>
      </trkpt>
      <trkpt lat="49.40229" lon="3.44274">
        <ele>107.32</ele>
        <time>2021-07-27T15:38:26Z</time>
      </trkpt>
      <trkpt lat="49.40227" lon="3.44284">
        <ele>107.81</ele>
        <time>2021-07-27T15:38:27Z</time>
      </trkpt>
      <trkpt lat="49.40226" lon="3.44295">
        <ele>108.29</ele>
        <time>2021-07-27T15:38:28Z</time>
      </trkpt>
      <trkpt lat="49.40221" lon="3.44303">
        <ele>108.29</ele>
        <time>2021-07-27T15:38:29Z</time>
      </trkpt>
      <trkpt lat="49.40212" lon="3.44304">
        <ele>108.77</ele>
        <time>2021-07-27T15:38:30Z</time>
      </trkpt>
      <trkpt lat="49.40204" lon="3.44305">
        <ele>109.25</ele>
        <time>2021-07-27T15:38:31Z</time>
      </trkpt>
      <trkpt lat="49.40197" lon="3.44302">
        <ele>109.73</ele>
        <time>2021-07-27T15:38:32Z</time>
      </trkpt>
      <trkpt lat="49.4019" lon="3.44297">
        <ele>109.73</ele>
        <time>2021-07-27T15:38:33Z</time>
      </trkpt>
      <trkpt lat="49.40103" lon="3.44245">
        <ele>113.57</ele>
        <time>2021-07-27T15:38:44Z</time>
      </trkpt>
      <trkpt lat="49.40029" lon="3.44251">
        <ele>118.38</ele>
        <time>2021-07-27T15:38:52Z</time>
      </trkpt>
      <trkpt lat="49.3993" lon="3.44271">
        <ele>123.19</ele>
        <time>2021-07-27T15:39:02Z</time>
      </trkpt>
      <trkpt lat="49.39858" lon="3.44276">
        <ele>127.51</ele>
        <time>2021-07-27T15:39:11Z</time>
      </trkpt>
      <trkpt lat="49.39804" lon="3.44281">
        <ele>130.88</ele>
        <time>2021-07-27T15:39:19Z</time>
      </trkpt>
      <trkpt lat="49.39795" lon="3.44283">
        <ele>131.36</ele>
        <time>2021-07-27T15:39:20Z</time>
      </trkpt>
      <trkpt lat="49.39786" lon="3.44284">
        <ele>131.84</ele>
        <time>2021-07-27T15:39:21Z</time>
      </trkpt>
      <trkpt lat="49.39778" lon="3.44286">
        <ele>131.84</ele>
        <time>2021-07-27T15:39:22Z</time>
      </trkpt>
      <trkpt lat="49.3977" lon="3.44291">
        <ele>131.84</ele>
        <time>2021-07-27T15:39:23Z</time>
      </trkpt>
      <trkpt lat="49.39763" lon="3.44296">
        <ele>132.8</ele>
        <time>2021-07-27T15:39:24Z</time>
      </trkpt>
      <trkpt lat="49.39758" lon="3.44308">
        <ele>132.8</ele>
        <time>2021-07-27T15:39:25Z</time>
      </trkpt>
      <trkpt lat="49.39754" lon="3.44319">
        <ele>133.76</ele>
        <time>2021-07-27T15:39:26Z</time>
      </trkpt>
      <trkpt lat="49.39749" lon="3.44331">
        <ele>134.72</ele>
        <time>2021-07-27T15:39:27Z</time>
      </trkpt>
      <trkpt lat="49.39747" lon="3.44344">
        <ele>134.24</ele>
        <time>2021-07-27T15:39:28Z</time>
      </trkpt>
      <trkpt lat="49.39722" lon="3.44513">
        <ele>142.41</ele>
        <time>2021-07-27T15:39:38Z</time>
      </trkpt>
      <trkpt lat="49.39676" lon="3.44696">
        <ele>149.14</ele>
        <time>2021-07-27T15:39:49Z</time>
      </trkpt>
      <trkpt lat="49.39676" lon="3.4489">
        <ele>151.54</ele>
        <time>2021-07-27T15:40:00Z</time>
      </trkpt>
      <trkpt lat="49.39681" lon="3.44976">
        <ele>151.06</ele>
        <time>2021-07-27T15:40:05Z</time>
      </trkpt>
      <trkpt lat="49.39686" lon="3.44993">
        <ele>150.1</ele>
        <time>2021-07-27T15:40:06Z</time>
      </trkpt>
      <trkpt lat="49.3969" lon="3.45011">
        <ele>149.62</ele>
        <time>2021-07-27T15:40:07Z</time>
      </trkpt>
      <trkpt lat="49.39735" lon="3.45174">
        <ele>149.62</ele>
        <time>2021-07-27T15:40:16Z</time>
      </trkpt>
      <trkpt lat="49.39738" lon="3.45192">
        <ele>150.1</ele>
        <time>2021-07-27T15:40:17Z</time>
      </trkpt>
      <trkpt lat="49.3975" lon="3.45371">
        <ele>155.39</ele>
        <time>2021-07-27T15:40:27Z</time>
      </trkpt>
      <trkpt lat="49.39752" lon="3.45383">
        <ele>154.91</ele>
        <time>2021-07-27T15:40:28Z</time>
      </trkpt>
      <trkpt lat="49.39754" lon="3.45391">
        <ele>154.43</ele>
        <time>2021-07-27T15:40:29Z</time>
      </trkpt>
      <trkpt lat="49.39761" lon="3.45399">
        <ele>154.43</ele>
        <time>2021-07-27T15:40:30Z</time>
      </trkpt>
      <trkpt lat="49.39767" lon="3.45406">
        <ele>153.95</ele>
        <time>2021-07-27T15:40:31Z</time>
      </trkpt>
      <trkpt lat="49.39771" lon="3.45411">
        <ele>154.43</ele>
        <time>2021-07-27T15:40:32Z</time>
      </trkpt>
      <trkpt lat="49.39777" lon="3.45411">
        <ele>154.43</ele>
        <time>2021-07-27T15:40:33Z</time>
      </trkpt>
      <trkpt lat="49.39784" lon="3.45412">
        <ele>154.43</ele>
        <time>2021-07-27T15:40:34Z</time>
      </trkpt>
      <trkpt lat="49.39791" lon="3.45413">
        <ele>154.91</ele>
        <time>2021-07-27T15:40:35Z</time>
      </trkpt>
      <trkpt lat="49.39887" lon="3.45387">
        <ele>158.75</ele>
        <time>2021-07-27T15:40:46Z</time>
      </trkpt>
      <trkpt lat="49.39967" lon="3.45365">
        <ele>162.12</ele>
        <time>2021-07-27T15:40:55Z</time>
      </trkpt>
      <trkpt lat="49.39992" lon="3.4535">
        <ele>161.64</ele>
        <time>2021-07-27T15:41:06Z</time>
      </trkpt>
      <trkpt lat="49.39995" lon="3.45348">
        <ele>161.64</ele>
        <time>2021-07-27T15:41:07Z</time>
      </trkpt>
      <trkpt lat="49.40025" lon="3.45286">
        <ele>162.12</ele>
        <time>2021-07-27T15:41:16Z</time>
      </trkpt>
      <trkpt lat="49.4003" lon="3.45277">
        <ele>162.12</ele>
        <time>2021-07-27T15:41:17Z</time>
      </trkpt>
      <trkpt lat="49.40035" lon="3.45272">
        <ele>161.64</ele>
        <time>2021-07-27T15:41:18Z</time>
      </trkpt>
      <trkpt lat="49.40041" lon="3.45268">
        <ele>161.64</ele>
        <time>2021-07-27T15:41:19Z</time>
      </trkpt>
      <trkpt lat="49.40045" lon="3.45265">
        <ele>161.16</ele>
        <time>2021-07-27T15:41:20Z</time>
      </trkpt>
      <trkpt lat="49.4005" lon="3.45266">
        <ele>161.64</ele>
        <time>2021-07-27T15:41:21Z</time>
      </trkpt>
      <trkpt lat="49.40055" lon="3.45267">
        <ele>161.16</ele>
        <time>2021-07-27T15:41:22Z</time>
      </trkpt>
      <trkpt lat="49.4006" lon="3.45268">
        <ele>161.16</ele>
        <time>2021-07-27T15:41:23Z</time>
      </trkpt>
      <trkpt lat="49.40065" lon="3.4527">
        <ele>160.68</ele>
        <time>2021-07-27T15:41:24Z</time>
      </trkpt>
      <trkpt lat="49.40113" lon="3.45302">
        <ele>159.72</ele>
        <time>2021-07-27T15:41:37Z</time>
      </trkpt>
      <trkpt lat="49.40119" lon="3.45306">
        <ele>159.72</ele>
        <time>2021-07-27T15:41:42Z</time>
      </trkpt>
      <trkpt lat="49.4012" lon="3.45311">
        <ele>160.2</ele>
        <time>2021-07-27T15:41:43Z</time>
      </trkpt>
      <trkpt lat="49.40123" lon="3.45319">
        <ele>159.72</ele>
        <time>2021-07-27T15:41:51Z</time>
      </trkpt>
      <trkpt lat="49.40124" lon="3.45324">
        <ele>159.24</ele>
        <time>2021-07-27T15:41:52Z</time>
      </trkpt>
      <trkpt lat="49.40118" lon="3.45305">
        <ele>159.24</ele>
        <time>2021-07-27T15:41:53Z</time>
      </trkpt>
      <trkpt lat="49.40118" lon="3.45305">
        <ele>159.24</ele>
        <time>2021-07-27T15:41:54Z</time>
      </trkpt>
      <trkpt lat="49.40123" lon="3.45321">
        <ele>158.75</ele>
        <time>2021-07-27T15:41:55Z</time>
      </trkpt>
      <trkpt lat="49.40122" lon="3.45318">
        <ele>158.75</ele>
        <time>2021-07-27T15:41:56Z</time>
      </trkpt>
      <trkpt lat="49.40121" lon="3.45315">
        <ele>158.75</ele>
        <time>2021-07-27T15:41:57Z</time>
      </trkpt>
      <trkpt lat="49.4012" lon="3.4531">
        <ele>158.75</ele>
        <time>2021-07-27T15:41:58Z</time>
      </trkpt>
      <trkpt lat="49.40118" lon="3.45305">
        <ele>158.75</ele>
        <time>2021-07-27T15:41:59Z</time>
      </trkpt>
      <trkpt lat="49.40118" lon="3.45305">
        <ele>158.75</ele>
        <time>2021-07-27T15:42:00Z</time>
      </trkpt>
      <trkpt lat="49.40115" lon="3.45303">
        <ele>158.75</ele>
        <time>2021-07-27T15:42:01Z</time>
      </trkpt>
      <trkpt lat="49.40112" lon="3.45301">
        <ele>158.75</ele>
        <time>2021-07-27T15:42:02Z</time>
      </trkpt>
      <trkpt lat="49.40108" lon="3.45298">
        <ele>158.27</ele>
        <time>2021-07-27T15:42:03Z</time>
      </trkpt>
      <trkpt lat="49.40091" lon="3.45286">
        <ele>160.2</ele>
        <time>2021-07-27T15:42:08Z</time>
      </trkpt>
      <trkpt lat="49.40089" lon="3.45284">
        <ele>160.2</ele>
        <time>2021-07-27T15:42:09Z</time>
      </trkpt>
      <trkpt lat="49.40095" lon="3.45288">
        <ele>161.16</ele>
        <time>2021-07-27T15:42:12Z</time>
      </trkpt>
      <trkpt lat="49.40097" lon="3.4529">
        <ele>161.16</ele>
        <time>2021-07-27T15:42:13Z</time>
      </trkpt>
      <trkpt lat="49.40104" lon="3.45295">
        <ele>160.2</ele>
        <time>2021-07-27T15:42:16Z</time>
      </trkpt>
      <trkpt lat="49.40098" lon="3.45325">
        <ele>160.2</ele>
        <time>2021-07-27T15:42:27Z</time>
      </trkpt>
      <trkpt lat="49.40098" lon="3.45327">
        <ele>160.2</ele>
        <time>2021-07-27T15:48:03Z</time>
      </trkpt>
      <trkpt lat="49.40098" lon="3.45327">
        <ele>160.68</ele>
        <time>2021-07-27T15:49:22Z</time>
      </trkpt>
      <trkpt lat="49.40098" lon="3.45328">
        <ele>161.16</ele>
        <time>2021-07-27T15:50:27Z</time>
      </trkpt>
      <trkpt lat="49.40098" lon="3.45328">
        <ele>160.68</ele>
        <time>2021-07-27T15:51:53Z</time>
      </trkpt>
      <trkpt lat="49.40097" lon="3.45329">
        <ele>160.68</ele>
        <time>2021-07-27T15:53:37Z</time>
      </trkpt>
      <trkpt lat="49.40097" lon="3.4533">
        <ele>160.68</ele>
        <time>2021-07-27T15:55:04Z</time>
      </trkpt>
    </trkseg>
  </trk>
  <trk>
    <name><![CDATA[Journal actif: 2021-07-27 13:58]]></name>
    <trkseg>
      <trkpt lat="49.40097" lon="3.45329">
        <ele>161.16</ele>
        <time>2021-07-27T15:58:08Z</time>
      </trkpt>
      <trkpt lat="49.401" lon="3.45327">
        <ele>161.64</ele>
        <time>2021-07-27T15:58:26Z</time>
      </trkpt>
      <trkpt lat="49.401" lon="3.45327">
        <ele>161.64</ele>
        <time>2021-07-27T15:58:27Z</time>
      </trkpt>
      <trkpt lat="49.40108" lon="3.45325">
        <ele>161.64</ele>
        <time>2021-07-27T15:58:32Z</time>
      </trkpt>
      <trkpt lat="49.40129" lon="3.4534">
        <ele>159.24</ele>
        <time>2021-07-27T15:58:45Z</time>
      </trkpt>
      <trkpt lat="49.40129" lon="3.4534">
        <ele>158.75</ele>
        <time>2021-07-27T15:58:46Z</time>
      </trkpt>
      <trkpt lat="49.40126" lon="3.45329">
        <ele>159.24</ele>
        <time>2021-07-27T15:58:47Z</time>
      </trkpt>
      <trkpt lat="49.40124" lon="3.45322">
        <ele>159.72</ele>
        <time>2021-07-27T15:58:48Z</time>
      </trkpt>
      <trkpt lat="49.40124" lon="3.45322">
        <ele>159.72</ele>
        <time>2021-07-27T15:58:49Z</time>
      </trkpt>
      <trkpt lat="49.40122" lon="3.45318">
        <ele>159.24</ele>
        <time>2021-07-27T15:58:50Z</time>
      </trkpt>
      <trkpt lat="49.40121" lon="3.45313">
        <ele>159.24</ele>
        <time>2021-07-27T15:58:51Z</time>
      </trkpt>
      <trkpt lat="49.40119" lon="3.45309">
        <ele>158.75</ele>
        <time>2021-07-27T15:58:52Z</time>
      </trkpt>
      <trkpt lat="49.40118" lon="3.45305">
        <ele>158.75</ele>
        <time>2021-07-27T15:58:53Z</time>
      </trkpt>
      <trkpt lat="49.40059" lon="3.45268">
        <ele>159.24</ele>
        <time>2021-07-27T15:59:02Z</time>
      </trkpt>
      <trkpt lat="49.40051" lon="3.45266">
        <ele>159.24</ele>
        <time>2021-07-27T15:59:03Z</time>
      </trkpt>
      <trkpt lat="49.40042" lon="3.45267">
        <ele>159.24</ele>
        <time>2021-07-27T15:59:04Z</time>
      </trkpt>
      <trkpt lat="49.40035" lon="3.45272">
        <ele>158.75</ele>
        <time>2021-07-27T15:59:05Z</time>
      </trkpt>
      <trkpt lat="49.40028" lon="3.4528">
        <ele>158.27</ele>
        <time>2021-07-27T15:59:06Z</time>
      </trkpt>
      <trkpt lat="49.40023" lon="3.4529">
        <ele>158.27</ele>
        <time>2021-07-27T15:59:07Z</time>
      </trkpt>
      <trkpt lat="49.40018" lon="3.453">
        <ele>158.27</ele>
        <time>2021-07-27T15:59:08Z</time>
      </trkpt>
      <trkpt lat="49.40003" lon="3.45331">
        <ele>157.79</ele>
        <time>2021-07-27T15:59:10Z</time>
      </trkpt>
      <trkpt lat="49.40003" lon="3.45331">
        <ele>157.31</ele>
        <time>2021-07-27T15:59:11Z</time>
      </trkpt>
      <trkpt lat="49.39998" lon="3.45341">
        <ele>156.35</ele>
        <time>2021-07-27T15:59:12Z</time>
      </trkpt>
      <trkpt lat="49.39992" lon="3.4535">
        <ele>156.35</ele>
        <time>2021-07-27T15:59:13Z</time>
      </trkpt>
      <trkpt lat="49.39984" lon="3.45357">
        <ele>156.35</ele>
        <time>2021-07-27T15:59:14Z</time>
      </trkpt>
      <trkpt lat="49.39976" lon="3.45362">
        <ele>155.87</ele>
        <time>2021-07-27T15:59:15Z</time>
      </trkpt>
      <trkpt lat="49.39968" lon="3.45364">
        <ele>156.35</ele>
        <time>2021-07-27T15:59:16Z</time>
      </trkpt>
      <trkpt lat="49.39828" lon="3.45403">
        <ele>152.03</ele>
        <time>2021-07-27T15:59:28Z</time>
      </trkpt>
      <trkpt lat="49.39781" lon="3.45412">
        <ele>148.18</ele>
        <time>2021-07-27T15:59:33Z</time>
      </trkpt>
      <trkpt lat="49.39774" lon="3.45411">
        <ele>147.7</ele>
        <time>2021-07-27T15:59:34Z</time>
      </trkpt>
      <trkpt lat="49.39769" lon="3.45408">
        <ele>146.74</ele>
        <time>2021-07-27T15:59:35Z</time>
      </trkpt>
      <trkpt lat="49.39763" lon="3.45402">
        <ele>145.78</ele>
        <time>2021-07-27T15:59:36Z</time>
      </trkpt>
      <trkpt lat="49.39757" lon="3.45395">
        <ele>145.78</ele>
        <time>2021-07-27T15:59:37Z</time>
      </trkpt>
      <trkpt lat="49.39754" lon="3.45391">
        <ele>145.3</ele>
        <time>2021-07-27T15:59:38Z</time>
      </trkpt>
      <trkpt lat="49.39752" lon="3.45381">
        <ele>144.82</ele>
        <time>2021-07-27T15:59:39Z</time>
      </trkpt>
      <trkpt lat="49.3975" lon="3.4537">
        <ele>144.34</ele>
        <time>2021-07-27T15:59:40Z</time>
      </trkpt>
      <trkpt lat="49.39748" lon="3.45358">
        <ele>143.85</ele>
        <time>2021-07-27T15:59:41Z</time>
      </trkpt>
      <trkpt lat="49.39734" lon="3.45173">
        <ele>139.05</ele>
        <time>2021-07-27T15:59:53Z</time>
      </trkpt>
      <trkpt lat="49.39731" lon="3.45157">
        <ele>140.97</ele>
        <time>2021-07-27T15:59:54Z</time>
      </trkpt>
      <trkpt lat="49.39682" lon="3.44981">
        <ele>143.37</ele>
        <time>2021-07-27T16:00:05Z</time>
      </trkpt>
      <trkpt lat="49.39679" lon="3.44965">
        <ele>143.37</ele>
        <time>2021-07-27T16:00:06Z</time>
      </trkpt>
      <trkpt lat="49.39673" lon="3.44714">
        <ele>146.26</ele>
        <time>2021-07-27T16:00:19Z</time>
      </trkpt>
      <trkpt lat="49.3971" lon="3.44557">
        <ele>145.78</ele>
        <time>2021-07-27T16:00:28Z</time>
      </trkpt>
      <trkpt lat="49.39745" lon="3.44357">
        <ele>137.61</ele>
        <time>2021-07-27T16:00:38Z</time>
      </trkpt>
      <trkpt lat="49.39749" lon="3.4433">
        <ele>136.64</ele>
        <time>2021-07-27T16:00:41Z</time>
      </trkpt>
      <trkpt lat="49.39754" lon="3.44319">
        <ele>136.16</ele>
        <time>2021-07-27T16:00:42Z</time>
      </trkpt>
      <trkpt lat="49.39758" lon="3.44307">
        <ele>135.68</ele>
        <time>2021-07-27T16:00:43Z</time>
      </trkpt>
      <trkpt lat="49.39762" lon="3.44297">
        <ele>135.2</ele>
        <time>2021-07-27T16:00:44Z</time>
      </trkpt>
      <trkpt lat="49.39769" lon="3.44291">
        <ele>134.24</ele>
        <time>2021-07-27T16:00:45Z</time>
      </trkpt>
      <trkpt lat="49.39776" lon="3.44286">
        <ele>133.28</ele>
        <time>2021-07-27T16:00:46Z</time>
      </trkpt>
      <trkpt lat="49.39784" lon="3.44285">
        <ele>132.32</ele>
        <time>2021-07-27T16:00:47Z</time>
      </trkpt>
      <trkpt lat="49.39792" lon="3.44283">
        <ele>131.84</ele>
        <time>2021-07-27T16:00:48Z</time>
      </trkpt>
      <trkpt lat="49.39908" lon="3.44273">
        <ele>122.22</ele>
        <time>2021-07-27T16:01:03Z</time>
      </trkpt>
      <trkpt lat="49.39956" lon="3.4427">
        <ele>115.98</ele>
        <time>2021-07-27T16:01:11Z</time>
      </trkpt>
      <trkpt lat="49.40048" lon="3.44246">
        <ele>104.92</ele>
        <time>2021-07-27T16:01:22Z</time>
      </trkpt>
      <trkpt lat="49.40097" lon="3.44243">
        <ele>98.19</ele>
        <time>2021-07-27T16:01:29Z</time>
      </trkpt>
      <trkpt lat="49.40118" lon="3.44251">
        <ele>95.79</ele>
        <time>2021-07-27T16:01:33Z</time>
      </trkpt>
      <trkpt lat="49.40124" lon="3.44253">
        <ele>94.83</ele>
        <time>2021-07-27T16:01:34Z</time>
      </trkpt>
      <trkpt lat="49.40131" lon="3.44256">
        <ele>94.35</ele>
        <time>2021-07-27T16:01:35Z</time>
      </trkpt>
      <trkpt lat="49.40187" lon="3.44295">
        <ele>89.06</ele>
        <time>2021-07-27T16:01:43Z</time>
      </trkpt>
      <trkpt lat="49.40193" lon="3.44299">
        <ele>89.06</ele>
        <time>2021-07-27T16:01:44Z</time>
      </trkpt>
      <trkpt lat="49.40206" lon="3.44305">
        <ele>89.54</ele>
        <time>2021-07-27T16:01:45Z</time>
      </trkpt>
      <trkpt lat="49.40206" lon="3.44305">
        <ele>90.02</ele>
        <time>2021-07-27T16:01:46Z</time>
      </trkpt>
      <trkpt lat="49.40214" lon="3.44304">
        <ele>90.5</ele>
        <time>2021-07-27T16:01:47Z</time>
      </trkpt>
      <trkpt lat="49.40223" lon="3.44302">
        <ele>90.98</ele>
        <time>2021-07-27T16:01:48Z</time>
      </trkpt>
      <trkpt lat="49.40227" lon="3.44288">
        <ele>92.9</ele>
        <time>2021-07-27T16:01:49Z</time>
      </trkpt>
      <trkpt lat="49.40228" lon="3.44276">
        <ele>94.83</ele>
        <time>2021-07-27T16:01:50Z</time>
      </trkpt>
      <trkpt lat="49.4023" lon="3.44264">
        <ele>95.31</ele>
        <time>2021-07-27T16:01:51Z</time>
      </trkpt>
      <trkpt lat="49.40228" lon="3.44255">
        <ele>96.75</ele>
        <time>2021-07-27T16:01:52Z</time>
      </trkpt>
      <trkpt lat="49.40226" lon="3.4425">
        <ele>97.71</ele>
        <time>2021-07-27T16:01:53Z</time>
      </trkpt>
      <trkpt lat="49.4022" lon="3.44244">
        <ele>98.19</ele>
        <time>2021-07-27T16:01:54Z</time>
      </trkpt>
      <trkpt lat="49.40215" lon="3.4424">
        <ele>98.19</ele>
        <time>2021-07-27T16:01:55Z</time>
      </trkpt>
      <trkpt lat="49.40209" lon="3.44235">
        <ele>98.19</ele>
        <time>2021-07-27T16:01:56Z</time>
      </trkpt>
      <trkpt lat="49.40191" lon="3.44222">
        <ele>98.19</ele>
        <time>2021-07-27T16:02:01Z</time>
      </trkpt>
      <trkpt lat="49.40134" lon="3.44183">
        <ele>93.39</ele>
        <time>2021-07-27T16:02:11Z</time>
      </trkpt>
      <trkpt lat="49.40099" lon="3.44159">
        <ele>90.5</ele>
        <time>2021-07-27T16:02:16Z</time>
      </trkpt>
      <trkpt lat="49.40063" lon="3.44142">
        <ele>87.14</ele>
        <time>2021-07-27T16:02:24Z</time>
      </trkpt>
      <trkpt lat="49.39969" lon="3.44101">
        <ele>80.89</ele>
        <time>2021-07-27T16:02:34Z</time>
      </trkpt>
      <trkpt lat="49.39935" lon="3.44077">
        <ele>83.29</ele>
        <time>2021-07-27T16:02:41Z</time>
      </trkpt>
      <trkpt lat="49.39928" lon="3.44072">
        <ele>82.33</ele>
        <time>2021-07-27T16:02:42Z</time>
      </trkpt>
      <trkpt lat="49.39923" lon="3.44064">
        <ele>82.33</ele>
        <time>2021-07-27T16:02:43Z</time>
      </trkpt>
      <trkpt lat="49.39918" lon="3.44056">
        <ele>82.33</ele>
        <time>2021-07-27T16:02:44Z</time>
      </trkpt>
      <trkpt lat="49.39915" lon="3.44043">
        <ele>82.33</ele>
        <time>2021-07-27T16:02:45Z</time>
      </trkpt>
      <trkpt lat="49.39916" lon="3.44031">
        <ele>82.33</ele>
        <time>2021-07-27T16:02:46Z</time>
      </trkpt>
      <trkpt lat="49.39919" lon="3.44019">
        <ele>82.33</ele>
        <time>2021-07-27T16:02:47Z</time>
      </trkpt>
      <trkpt lat="49.39925" lon="3.44009">
        <ele>82.33</ele>
        <time>2021-07-27T16:02:48Z</time>
      </trkpt>
      <trkpt lat="49.39931" lon="3.44004">
        <ele>81.85</ele>
        <time>2021-07-27T16:02:49Z</time>
      </trkpt>
      <trkpt lat="49.39939" lon="3.43999">
        <ele>81.37</ele>
        <time>2021-07-27T16:02:50Z</time>
      </trkpt>
      <trkpt lat="49.39947" lon="3.44">
        <ele>81.37</ele>
        <time>2021-07-27T16:02:51Z</time>
      </trkpt>
      <trkpt lat="49.40106" lon="3.44029">
        <ele>79.93</ele>
        <time>2021-07-27T16:03:05Z</time>
      </trkpt>
      <trkpt lat="49.40135" lon="3.44034">
        <ele>79.93</ele>
        <time>2021-07-27T16:03:08Z</time>
      </trkpt>
      <trkpt lat="49.40143" lon="3.44034">
        <ele>79.93</ele>
        <time>2021-07-27T16:03:09Z</time>
      </trkpt>
      <trkpt lat="49.40151" lon="3.44032">
        <ele>79.93</ele>
        <time>2021-07-27T16:03:10Z</time>
      </trkpt>
      <trkpt lat="49.40158" lon="3.44029">
        <ele>79.45</ele>
        <time>2021-07-27T16:03:11Z</time>
      </trkpt>
      <trkpt lat="49.40163" lon="3.44021">
        <ele>79.45</ele>
        <time>2021-07-27T16:03:12Z</time>
      </trkpt>
      <trkpt lat="49.40163" lon="3.44011">
        <ele>79.45</ele>
        <time>2021-07-27T16:03:13Z</time>
      </trkpt>
      <trkpt lat="49.40162" lon="3.4399">
        <ele>79.45</ele>
        <time>2021-07-27T16:03:14Z</time>
      </trkpt>
      <trkpt lat="49.40157" lon="3.43982">
        <ele>78.97</ele>
        <time>2021-07-27T16:03:15Z</time>
      </trkpt>
      <trkpt lat="49.4015" lon="3.43976">
        <ele>78.48</ele>
        <time>2021-07-27T16:03:16Z</time>
      </trkpt>
      <trkpt lat="49.40143" lon="3.4397">
        <ele>78.48</ele>
        <time>2021-07-27T16:03:17Z</time>
      </trkpt>
      <trkpt lat="49.40136" lon="3.43963">
        <ele>77.52</ele>
        <time>2021-07-27T16:03:18Z</time>
      </trkpt>
      <trkpt lat="49.40112" lon="3.43938">
        <ele>76.08</ele>
        <time>2021-07-27T16:03:25Z</time>
      </trkpt>
      <trkpt lat="49.40099" lon="3.43924">
        <ele>75.12</ele>
        <time>2021-07-27T16:03:31Z</time>
      </trkpt>
      <trkpt lat="49.40053" lon="3.43893">
        <ele>71.27</ele>
        <time>2021-07-27T16:03:39Z</time>
      </trkpt>
      <trkpt lat="49.39923" lon="3.43776">
        <ele>62.14</ele>
        <time>2021-07-27T16:03:56Z</time>
      </trkpt>
      <trkpt lat="49.39847" lon="3.43693">
        <ele>60.22</ele>
        <time>2021-07-27T16:04:08Z</time>
      </trkpt>
      <trkpt lat="49.39779" lon="3.43648">
        <ele>64.07</ele>
        <time>2021-07-27T16:04:18Z</time>
      </trkpt>
      <trkpt lat="49.39669" lon="3.43573">
        <ele>66.47</ele>
        <time>2021-07-27T16:04:32Z</time>
      </trkpt>
      <trkpt lat="49.3961" lon="3.43519">
        <ele>66.95</ele>
        <time>2021-07-27T16:04:41Z</time>
      </trkpt>
      <trkpt lat="49.39602" lon="3.43513">
        <ele>66.95</ele>
        <time>2021-07-27T16:04:42Z</time>
      </trkpt>
      <trkpt lat="49.39594" lon="3.43506">
        <ele>67.91</ele>
        <time>2021-07-27T16:04:43Z</time>
      </trkpt>
      <trkpt lat="49.39524" lon="3.43457">
        <ele>64.07</ele>
        <time>2021-07-27T16:04:52Z</time>
      </trkpt>
      <trkpt lat="49.39518" lon="3.43452">
        <ele>63.58</ele>
        <time>2021-07-27T16:04:53Z</time>
      </trkpt>
      <trkpt lat="49.39514" lon="3.43444">
        <ele>62.62</ele>
        <time>2021-07-27T16:04:54Z</time>
      </trkpt>
      <trkpt lat="49.39499" lon="3.43417">
        <ele>60.7</ele>
        <time>2021-07-27T16:04:57Z</time>
      </trkpt>
      <trkpt lat="49.39493" lon="3.4341">
        <ele>60.22</ele>
        <time>2021-07-27T16:04:58Z</time>
      </trkpt>
      <trkpt lat="49.39487" lon="3.43406">
        <ele>60.22</ele>
        <time>2021-07-27T16:04:59Z</time>
      </trkpt>
      <trkpt lat="49.39481" lon="3.43404">
        <ele>60.22</ele>
        <time>2021-07-27T16:05:00Z</time>
      </trkpt>
      <trkpt lat="49.39474" lon="3.43401">
        <ele>60.22</ele>
        <time>2021-07-27T16:05:01Z</time>
      </trkpt>
      <trkpt lat="49.39413" lon="3.43368">
        <ele>58.78</ele>
        <time>2021-07-27T16:05:09Z</time>
      </trkpt>
      <trkpt lat="49.39405" lon="3.43364">
        <ele>58.3</ele>
        <time>2021-07-27T16:05:10Z</time>
      </trkpt>
      <trkpt lat="49.39399" lon="3.43357">
        <ele>57.82</ele>
        <time>2021-07-27T16:05:11Z</time>
      </trkpt>
      <trkpt lat="49.39392" lon="3.43347">
        <ele>57.34</ele>
        <time>2021-07-27T16:05:12Z</time>
      </trkpt>
      <trkpt lat="49.39386" lon="3.43338">
        <ele>56.86</ele>
        <time>2021-07-27T16:05:13Z</time>
      </trkpt>
      <trkpt lat="49.3938" lon="3.43329">
        <ele>55.89</ele>
        <time>2021-07-27T16:05:14Z</time>
      </trkpt>
      <trkpt lat="49.39379" lon="3.4332">
        <ele>55.41</ele>
        <time>2021-07-27T16:05:15Z</time>
      </trkpt>
      <trkpt lat="49.39376" lon="3.43307">
        <ele>54.93</ele>
        <time>2021-07-27T16:05:16Z</time>
      </trkpt>
      <trkpt lat="49.39374" lon="3.43294">
        <ele>55.89</ele>
        <time>2021-07-27T16:05:17Z</time>
      </trkpt>
      <trkpt lat="49.39362" lon="3.43129">
        <ele>54.93</ele>
        <time>2021-07-27T16:05:26Z</time>
      </trkpt>
      <trkpt lat="49.39352" lon="3.42958">
        <ele>58.78</ele>
        <time>2021-07-27T16:05:35Z</time>
      </trkpt>
      <trkpt lat="49.3935" lon="3.42943">
        <ele>59.26</ele>
        <time>2021-07-27T16:05:36Z</time>
      </trkpt>
      <trkpt lat="49.39347" lon="3.42931">
        <ele>59.26</ele>
        <time>2021-07-27T16:05:37Z</time>
      </trkpt>
      <trkpt lat="49.39342" lon="3.42917">
        <ele>58.78</ele>
        <time>2021-07-27T16:05:38Z</time>
      </trkpt>
      <trkpt lat="49.39337" lon="3.42904">
        <ele>59.26</ele>
        <time>2021-07-27T16:05:39Z</time>
      </trkpt>
      <trkpt lat="49.39246" lon="3.42734">
        <ele>61.18</ele>
        <time>2021-07-27T16:05:50Z</time>
      </trkpt>
      <trkpt lat="49.39238" lon="3.42719">
        <ele>62.14</ele>
        <time>2021-07-27T16:05:51Z</time>
      </trkpt>
      <trkpt lat="49.39233" lon="3.42702">
        <ele>63.1</ele>
        <time>2021-07-27T16:05:52Z</time>
      </trkpt>
      <trkpt lat="49.39229" lon="3.42685">
        <ele>63.1</ele>
        <time>2021-07-27T16:05:53Z</time>
      </trkpt>
      <trkpt lat="49.3922" lon="3.42654">
        <ele>64.07</ele>
        <time>2021-07-27T16:05:55Z</time>
      </trkpt>
      <trkpt lat="49.39215" lon="3.42638">
        <ele>65.03</ele>
        <time>2021-07-27T16:05:56Z</time>
      </trkpt>
      <trkpt lat="49.3921" lon="3.42626">
        <ele>65.03</ele>
        <time>2021-07-27T16:05:57Z</time>
      </trkpt>
      <trkpt lat="49.39202" lon="3.42612">
        <ele>65.03</ele>
        <time>2021-07-27T16:05:58Z</time>
      </trkpt>
      <trkpt lat="49.39183" lon="3.42594">
        <ele>65.51</ele>
        <time>2021-07-27T16:05:59Z</time>
      </trkpt>
      <trkpt lat="49.39172" lon="3.42586">
        <ele>65.51</ele>
        <time>2021-07-27T16:06:00Z</time>
      </trkpt>
      <trkpt lat="49.3906" lon="3.42477">
        <ele>65.03</ele>
        <time>2021-07-27T16:06:11Z</time>
      </trkpt>
      <trkpt lat="49.39005" lon="3.42384">
        <ele>62.62</ele>
        <time>2021-07-27T16:06:17Z</time>
      </trkpt>
      <trkpt lat="49.38999" lon="3.42365">
        <ele>62.14</ele>
        <time>2021-07-27T16:06:18Z</time>
      </trkpt>
      <trkpt lat="49.38963" lon="3.4221">
        <ele>62.62</ele>
        <time>2021-07-27T16:06:27Z</time>
      </trkpt>
      <trkpt lat="49.38947" lon="3.42141">
        <ele>61.18</ele>
        <time>2021-07-27T16:06:34Z</time>
      </trkpt>
      <trkpt lat="49.38946" lon="3.42135">
        <ele>61.66</ele>
        <time>2021-07-27T16:06:37Z</time>
      </trkpt>
      <trkpt lat="49.38945" lon="3.42133">
        <ele>62.14</ele>
        <time>2021-07-27T16:06:38Z</time>
      </trkpt>
      <trkpt lat="49.38942" lon="3.42135">
        <ele>61.66</ele>
        <time>2021-07-27T16:06:39Z</time>
      </trkpt>
      <trkpt lat="49.38938" lon="3.42142">
        <ele>61.66</ele>
        <time>2021-07-27T16:06:40Z</time>
      </trkpt>
      <trkpt lat="49.38938" lon="3.42142">
        <ele>61.18</ele>
        <time>2021-07-27T16:06:41Z</time>
      </trkpt>
      <trkpt lat="49.38929" lon="3.42152">
        <ele>60.22</ele>
        <time>2021-07-27T16:06:43Z</time>
      </trkpt>
      <trkpt lat="49.38923" lon="3.42157">
        <ele>59.74</ele>
        <time>2021-07-27T16:06:44Z</time>
      </trkpt>
      <trkpt lat="49.38845" lon="3.42195">
        <ele>54.45</ele>
        <time>2021-07-27T16:06:52Z</time>
      </trkpt>
      <trkpt lat="49.38724" lon="3.42178">
        <ele>50.61</ele>
        <time>2021-07-27T16:07:01Z</time>
      </trkpt>
      <trkpt lat="49.38591" lon="3.42173">
        <ele>53.01</ele>
        <time>2021-07-27T16:07:11Z</time>
      </trkpt>
      <trkpt lat="49.38562" lon="3.42184">
        <ele>52.53</ele>
        <time>2021-07-27T16:07:13Z</time>
      </trkpt>
      <trkpt lat="49.38535" lon="3.42204">
        <ele>51.57</ele>
        <time>2021-07-27T16:07:14Z</time>
      </trkpt>
      <trkpt lat="49.3839" lon="3.4234">
        <ele>43.4</ele>
        <time>2021-07-27T16:07:26Z</time>
      </trkpt>
      <trkpt lat="49.38326" lon="3.42377">
        <ele>40.99</ele>
        <time>2021-07-27T16:07:32Z</time>
      </trkpt>
      <trkpt lat="49.38319" lon="3.42378">
        <ele>40.99</ele>
        <time>2021-07-27T16:07:33Z</time>
      </trkpt>
      <trkpt lat="49.38312" lon="3.42378">
        <ele>40.99</ele>
        <time>2021-07-27T16:07:34Z</time>
      </trkpt>
      <trkpt lat="49.38305" lon="3.42379">
        <ele>40.99</ele>
        <time>2021-07-27T16:07:35Z</time>
      </trkpt>
      <trkpt lat="49.38299" lon="3.42377">
        <ele>40.99</ele>
        <time>2021-07-27T16:07:36Z</time>
      </trkpt>
      <trkpt lat="49.38297" lon="3.42368">
        <ele>40.51</ele>
        <time>2021-07-27T16:07:37Z</time>
      </trkpt>
      <trkpt lat="49.38294" lon="3.42356">
        <ele>40.51</ele>
        <time>2021-07-27T16:07:38Z</time>
      </trkpt>
      <trkpt lat="49.3829" lon="3.42342">
        <ele>40.03</ele>
        <time>2021-07-27T16:07:39Z</time>
      </trkpt>
      <trkpt lat="49.38262" lon="3.42164">
        <ele>40.99</ele>
        <time>2021-07-27T16:07:48Z</time>
      </trkpt>
      <trkpt lat="49.38242" lon="3.41868">
        <ele>40.03</ele>
        <time>2021-07-27T16:07:59Z</time>
      </trkpt>
      <trkpt lat="49.38254" lon="3.41508">
        <ele>39.07</ele>
        <time>2021-07-27T16:08:11Z</time>
      </trkpt>
      <trkpt lat="49.38312" lon="3.4114">
        <ele>42.92</ele>
        <time>2021-07-27T16:08:24Z</time>
      </trkpt>
      <trkpt lat="49.38411" lon="3.40718">
        <ele>42.44</ele>
        <time>2021-07-27T16:08:39Z</time>
      </trkpt>
      <trkpt lat="49.38521" lon="3.40267">
        <ele>44.36</ele>
        <time>2021-07-27T16:08:54Z</time>
      </trkpt>
      <trkpt lat="49.38622" lon="3.39858">
        <ele>47.24</ele>
        <time>2021-07-27T16:09:07Z</time>
      </trkpt>
      <trkpt lat="49.38706" lon="3.39524">
        <ele>46.28</ele>
        <time>2021-07-27T16:09:19Z</time>
      </trkpt>
      <trkpt lat="49.38751" lon="3.39357">
        <ele>46.76</ele>
        <time>2021-07-27T16:09:27Z</time>
      </trkpt>
      <trkpt lat="49.38759" lon="3.39328">
        <ele>45.32</ele>
        <time>2021-07-27T16:09:32Z</time>
      </trkpt>
      <trkpt lat="49.38768" lon="3.39323">
        <ele>44.36</ele>
        <time>2021-07-27T16:09:37Z</time>
      </trkpt>
      <trkpt lat="49.38774" lon="3.39319">
        <ele>43.88</ele>
        <time>2021-07-27T16:09:38Z</time>
      </trkpt>
      <trkpt lat="49.38777" lon="3.39313">
        <ele>43.88</ele>
        <time>2021-07-27T16:09:39Z</time>
      </trkpt>
      <trkpt lat="49.3878" lon="3.39305">
        <ele>44.36</ele>
        <time>2021-07-27T16:09:40Z</time>
      </trkpt>
      <trkpt lat="49.3878" lon="3.39295">
        <ele>44.36</ele>
        <time>2021-07-27T16:09:41Z</time>
      </trkpt>
      <trkpt lat="49.38778" lon="3.39287">
        <ele>44.36</ele>
        <time>2021-07-27T16:09:42Z</time>
      </trkpt>
      <trkpt lat="49.38777" lon="3.39271">
        <ele>44.36</ele>
        <time>2021-07-27T16:09:43Z</time>
      </trkpt>
      <trkpt lat="49.3878" lon="3.39259">
        <ele>44.36</ele>
        <time>2021-07-27T16:09:44Z</time>
      </trkpt>
      <trkpt lat="49.38785" lon="3.39247">
        <ele>44.84</ele>
        <time>2021-07-27T16:09:45Z</time>
      </trkpt>
      <trkpt lat="49.3879" lon="3.39231">
        <ele>44.36</ele>
        <time>2021-07-27T16:09:46Z</time>
      </trkpt>
      <trkpt lat="49.38854" lon="3.39057">
        <ele>46.28</ele>
        <time>2021-07-27T16:09:55Z</time>
      </trkpt>
      <trkpt lat="49.38923" lon="3.38801">
        <ele>47.24</ele>
        <time>2021-07-27T16:10:05Z</time>
      </trkpt>
      <trkpt lat="49.38975" lon="3.38407">
        <ele>42.92</ele>
        <time>2021-07-27T16:10:18Z</time>
      </trkpt>
      <trkpt lat="49.39032" lon="3.37922">
        <ele>44.84</ele>
        <time>2021-07-27T16:10:34Z</time>
      </trkpt>
      <trkpt lat="49.39085" lon="3.37764">
        <ele>41.95</ele>
        <time>2021-07-27T16:10:40Z</time>
      </trkpt>
      <trkpt lat="49.39176" lon="3.37656">
        <ele>39.07</ele>
        <time>2021-07-27T16:10:46Z</time>
      </trkpt>
      <trkpt lat="49.39304" lon="3.37549">
        <ele>39.07</ele>
        <time>2021-07-27T16:10:54Z</time>
      </trkpt>
      <trkpt lat="49.39317" lon="3.37532">
        <ele>39.07</ele>
        <time>2021-07-27T16:10:55Z</time>
      </trkpt>
      <trkpt lat="49.39326" lon="3.37512">
        <ele>39.07</ele>
        <time>2021-07-27T16:10:56Z</time>
      </trkpt>
      <trkpt lat="49.39336" lon="3.37493">
        <ele>39.55</ele>
        <time>2021-07-27T16:10:57Z</time>
      </trkpt>
      <trkpt lat="49.39368" lon="3.37423">
        <ele>39.07</ele>
        <time>2021-07-27T16:11:02Z</time>
      </trkpt>
      <trkpt lat="49.39372" lon="3.37413">
        <ele>39.55</ele>
        <time>2021-07-27T16:11:03Z</time>
      </trkpt>
      <trkpt lat="49.39375" lon="3.37405">
        <ele>39.55</ele>
        <time>2021-07-27T16:11:04Z</time>
      </trkpt>
      <trkpt lat="49.39382" lon="3.37401">
        <ele>39.55</ele>
        <time>2021-07-27T16:11:05Z</time>
      </trkpt>
      <trkpt lat="49.39388" lon="3.37402">
        <ele>39.55</ele>
        <time>2021-07-27T16:11:06Z</time>
      </trkpt>
      <trkpt lat="49.39395" lon="3.37397">
        <ele>39.55</ele>
        <time>2021-07-27T16:11:07Z</time>
      </trkpt>
      <trkpt lat="49.394" lon="3.37391">
        <ele>39.55</ele>
        <time>2021-07-27T16:11:08Z</time>
      </trkpt>
      <trkpt lat="49.39404" lon="3.37384">
        <ele>39.55</ele>
        <time>2021-07-27T16:11:09Z</time>
      </trkpt>
      <trkpt lat="49.39407" lon="3.37376">
        <ele>39.55</ele>
        <time>2021-07-27T16:11:10Z</time>
      </trkpt>
      <trkpt lat="49.39407" lon="3.37366">
        <ele>39.55</ele>
        <time>2021-07-27T16:11:11Z</time>
      </trkpt>
      <trkpt lat="49.39406" lon="3.37356">
        <ele>39.55</ele>
        <time>2021-07-27T16:11:12Z</time>
      </trkpt>
      <trkpt lat="49.39398" lon="3.3734">
        <ele>39.07</ele>
        <time>2021-07-27T16:11:13Z</time>
      </trkpt>
      <trkpt lat="49.39398" lon="3.3734">
        <ele>39.07</ele>
        <time>2021-07-27T16:11:14Z</time>
      </trkpt>
      <trkpt lat="49.3939" lon="3.37312">
        <ele>38.59</ele>
        <time>2021-07-27T16:11:15Z</time>
      </trkpt>
      <trkpt lat="49.3939" lon="3.37312">
        <ele>38.59</ele>
        <time>2021-07-27T16:11:16Z</time>
      </trkpt>
      <trkpt lat="49.39392" lon="3.37295">
        <ele>38.59</ele>
        <time>2021-07-27T16:11:17Z</time>
      </trkpt>
      <trkpt lat="49.39394" lon="3.37278">
        <ele>38.11</ele>
        <time>2021-07-27T16:11:18Z</time>
      </trkpt>
      <trkpt lat="49.39396" lon="3.37242">
        <ele>38.11</ele>
        <time>2021-07-27T16:11:20Z</time>
      </trkpt>
      <trkpt lat="49.39414" lon="3.37128">
        <ele>40.99</ele>
        <time>2021-07-27T16:11:27Z</time>
      </trkpt>
      <trkpt lat="49.39417" lon="3.37118">
        <ele>40.99</ele>
        <time>2021-07-27T16:11:28Z</time>
      </trkpt>
      <trkpt lat="49.39419" lon="3.37111">
        <ele>40.03</ele>
        <time>2021-07-27T16:11:29Z</time>
      </trkpt>
      <trkpt lat="49.39421" lon="3.37106">
        <ele>40.03</ele>
        <time>2021-07-27T16:11:30Z</time>
      </trkpt>
      <trkpt lat="49.39428" lon="3.37103">
        <ele>39.55</ele>
        <time>2021-07-27T16:11:31Z</time>
      </trkpt>
      <trkpt lat="49.39435" lon="3.371">
        <ele>39.07</ele>
        <time>2021-07-27T16:11:32Z</time>
      </trkpt>
      <trkpt lat="49.39437" lon="3.37093">
        <ele>38.59</ele>
        <time>2021-07-27T16:11:33Z</time>
      </trkpt>
      <trkpt lat="49.3944" lon="3.37086">
        <ele>38.59</ele>
        <time>2021-07-27T16:11:34Z</time>
      </trkpt>
      <trkpt lat="49.39438" lon="3.3708">
        <ele>38.59</ele>
        <time>2021-07-27T16:11:35Z</time>
      </trkpt>
      <trkpt lat="49.39435" lon="3.37073">
        <ele>38.59</ele>
        <time>2021-07-27T16:11:36Z</time>
      </trkpt>
      <trkpt lat="49.39432" lon="3.37069">
        <ele>38.59</ele>
        <time>2021-07-27T16:11:37Z</time>
      </trkpt>
      <trkpt lat="49.39427" lon="3.37067">
        <ele>39.55</ele>
        <time>2021-07-27T16:11:38Z</time>
      </trkpt>
      <trkpt lat="49.39423" lon="3.37066">
        <ele>39.07</ele>
        <time>2021-07-27T16:11:39Z</time>
      </trkpt>
      <trkpt lat="49.3942" lon="3.37072">
        <ele>39.07</ele>
        <time>2021-07-27T16:11:40Z</time>
      </trkpt>
      <trkpt lat="49.39417" lon="3.37078">
        <ele>39.07</ele>
        <time>2021-07-27T16:11:41Z</time>
      </trkpt>
      <trkpt lat="49.39414" lon="3.37085">
        <ele>38.59</ele>
        <time>2021-07-27T16:11:42Z</time>
      </trkpt>
      <trkpt lat="49.39413" lon="3.37089">
        <ele>38.59</ele>
        <time>2021-07-27T16:11:43Z</time>
      </trkpt>
      <trkpt lat="49.39416" lon="3.37095">
        <ele>38.11</ele>
        <time>2021-07-27T16:11:44Z</time>
      </trkpt>
      <trkpt lat="49.3942" lon="3.37101">
        <ele>37.15</ele>
        <time>2021-07-27T16:11:45Z</time>
      </trkpt>
      <trkpt lat="49.39423" lon="3.37104">
        <ele>36.67</ele>
        <time>2021-07-27T16:11:46Z</time>
      </trkpt>
      <trkpt lat="49.39429" lon="3.37103">
        <ele>35.71</ele>
        <time>2021-07-27T16:11:47Z</time>
      </trkpt>
      <trkpt lat="49.39435" lon="3.371">
        <ele>36.67</ele>
        <time>2021-07-27T16:11:48Z</time>
      </trkpt>
      <trkpt lat="49.39438" lon="3.37092">
        <ele>36.19</ele>
        <time>2021-07-27T16:11:49Z</time>
      </trkpt>
      <trkpt lat="49.39448" lon="3.37083">
        <ele>36.19</ele>
        <time>2021-07-27T16:11:50Z</time>
      </trkpt>
      <trkpt lat="49.39456" lon="3.3708">
        <ele>36.19</ele>
        <time>2021-07-27T16:11:51Z</time>
      </trkpt>
      <trkpt lat="49.39497" lon="3.37067">
        <ele>33.78</ele>
        <time>2021-07-27T16:11:55Z</time>
      </trkpt>
      <trkpt lat="49.39507" lon="3.37061">
        <ele>34.74</ele>
        <time>2021-07-27T16:11:56Z</time>
      </trkpt>
      <trkpt lat="49.39516" lon="3.37053">
        <ele>34.74</ele>
        <time>2021-07-27T16:11:57Z</time>
      </trkpt>
      <trkpt lat="49.39642" lon="3.36915">
        <ele>37.15</ele>
        <time>2021-07-27T16:12:08Z</time>
      </trkpt>
      <trkpt lat="49.39714" lon="3.36827">
        <ele>38.11</ele>
        <time>2021-07-27T16:12:15Z</time>
      </trkpt>
      <trkpt lat="49.39725" lon="3.36811">
        <ele>38.11</ele>
        <time>2021-07-27T16:12:16Z</time>
      </trkpt>
      <trkpt lat="49.39733" lon="3.36792">
        <ele>39.07</ele>
        <time>2021-07-27T16:12:17Z</time>
      </trkpt>
      <trkpt lat="49.39741" lon="3.36772">
        <ele>40.51</ele>
        <time>2021-07-27T16:12:18Z</time>
      </trkpt>
      <trkpt lat="49.39747" lon="3.36751">
        <ele>41.47</ele>
        <time>2021-07-27T16:12:19Z</time>
      </trkpt>
      <trkpt lat="49.39756" lon="3.36709">
        <ele>42.44</ele>
        <time>2021-07-27T16:12:20Z</time>
      </trkpt>
      <trkpt lat="49.39771" lon="3.36641">
        <ele>43.4</ele>
        <time>2021-07-27T16:12:26Z</time>
      </trkpt>
      <trkpt lat="49.39773" lon="3.3663">
        <ele>43.4</ele>
        <time>2021-07-27T16:12:27Z</time>
      </trkpt>
      <trkpt lat="49.39773" lon="3.3663">
        <ele>43.4</ele>
        <time>2021-07-27T16:12:28Z</time>
      </trkpt>
      <trkpt lat="49.39794" lon="3.36617">
        <ele>43.4</ele>
        <time>2021-07-27T16:12:30Z</time>
      </trkpt>
      <trkpt lat="49.39796" lon="3.36613">
        <ele>43.88</ele>
        <time>2021-07-27T16:12:31Z</time>
      </trkpt>
      <trkpt lat="49.39795" lon="3.36589">
        <ele>43.88</ele>
        <time>2021-07-27T16:12:32Z</time>
      </trkpt>
      <trkpt lat="49.39791" lon="3.36581">
        <ele>43.88</ele>
        <time>2021-07-27T16:12:33Z</time>
      </trkpt>
      <trkpt lat="49.39791" lon="3.36581">
        <ele>43.4</ele>
        <time>2021-07-27T16:12:34Z</time>
      </trkpt>
      <trkpt lat="49.39788" lon="3.36577">
        <ele>42.92</ele>
        <time>2021-07-27T16:12:35Z</time>
      </trkpt>
      <trkpt lat="49.39772" lon="3.36556">
        <ele>42.92</ele>
        <time>2021-07-27T16:12:36Z</time>
      </trkpt>
      <trkpt lat="49.3977" lon="3.36542">
        <ele>42.44</ele>
        <time>2021-07-27T16:12:37Z</time>
      </trkpt>
      <trkpt lat="49.3977" lon="3.36542">
        <ele>41.47</ele>
        <time>2021-07-27T16:12:38Z</time>
      </trkpt>
      <trkpt lat="49.3975" lon="3.36386">
        <ele>39.07</ele>
        <time>2021-07-27T16:12:46Z</time>
      </trkpt>
      <trkpt lat="49.39728" lon="3.36013">
        <ele>40.03</ele>
        <time>2021-07-27T16:13:00Z</time>
      </trkpt>
      <trkpt lat="49.39715" lon="3.35751">
        <ele>40.51</ele>
        <time>2021-07-27T16:13:11Z</time>
      </trkpt>
      <trkpt lat="49.39713" lon="3.35721">
        <ele>40.99</ele>
        <time>2021-07-27T16:13:13Z</time>
      </trkpt>
      <trkpt lat="49.39713" lon="3.35708">
        <ele>40.99</ele>
        <time>2021-07-27T16:13:14Z</time>
      </trkpt>
      <trkpt lat="49.39715" lon="3.35695">
        <ele>41.47</ele>
        <time>2021-07-27T16:13:16Z</time>
      </trkpt>
      <trkpt lat="49.39709" lon="3.35671">
        <ele>41.47</ele>
        <time>2021-07-27T16:13:17Z</time>
      </trkpt>
      <trkpt lat="49.39709" lon="3.35658">
        <ele>41.47</ele>
        <time>2021-07-27T16:13:18Z</time>
      </trkpt>
      <trkpt lat="49.39708" lon="3.35645">
        <ele>40.99</ele>
        <time>2021-07-27T16:13:19Z</time>
      </trkpt>
      <trkpt lat="49.39707" lon="3.35631">
        <ele>40.99</ele>
        <time>2021-07-27T16:13:20Z</time>
      </trkpt>
      <trkpt lat="49.39706" lon="3.35602">
        <ele>40.51</ele>
        <time>2021-07-27T16:13:21Z</time>
      </trkpt>
      <trkpt lat="49.39702" lon="3.35451">
        <ele>41.47</ele>
        <time>2021-07-27T16:13:30Z</time>
      </trkpt>
      <trkpt lat="49.39702" lon="3.35428">
        <ele>40.99</ele>
        <time>2021-07-27T16:13:31Z</time>
      </trkpt>
      <trkpt lat="49.39703" lon="3.35406">
        <ele>41.47</ele>
        <time>2021-07-27T16:13:32Z</time>
      </trkpt>
      <trkpt lat="49.39706" lon="3.35383">
        <ele>42.92</ele>
        <time>2021-07-27T16:13:33Z</time>
      </trkpt>
      <trkpt lat="49.39719" lon="3.3534">
        <ele>43.4</ele>
        <time>2021-07-27T16:13:34Z</time>
      </trkpt>
      <trkpt lat="49.39726" lon="3.3532">
        <ele>43.4</ele>
        <time>2021-07-27T16:13:35Z</time>
      </trkpt>
      <trkpt lat="49.39726" lon="3.3532">
        <ele>43.4</ele>
        <time>2021-07-27T16:13:36Z</time>
      </trkpt>
      <trkpt lat="49.39733" lon="3.35303">
        <ele>42.92</ele>
        <time>2021-07-27T16:13:37Z</time>
      </trkpt>
      <trkpt lat="49.3977" lon="3.35189">
        <ele>41.95</ele>
        <time>2021-07-27T16:13:44Z</time>
      </trkpt>
      <trkpt lat="49.39772" lon="3.35173">
        <ele>42.44</ele>
        <time>2021-07-27T16:13:45Z</time>
      </trkpt>
      <trkpt lat="49.39773" lon="3.35154">
        <ele>42.92</ele>
        <time>2021-07-27T16:13:46Z</time>
      </trkpt>
      <trkpt lat="49.39773" lon="3.35136">
        <ele>42.44</ele>
        <time>2021-07-27T16:13:47Z</time>
      </trkpt>
      <trkpt lat="49.39772" lon="3.35117">
        <ele>42.44</ele>
        <time>2021-07-27T16:13:48Z</time>
      </trkpt>
      <trkpt lat="49.39769" lon="3.35099">
        <ele>42.92</ele>
        <time>2021-07-27T16:13:49Z</time>
      </trkpt>
      <trkpt lat="49.39765" lon="3.3508">
        <ele>41.95</ele>
        <time>2021-07-27T16:13:50Z</time>
      </trkpt>
      <trkpt lat="49.3976" lon="3.35063">
        <ele>41.47</ele>
        <time>2021-07-27T16:13:51Z</time>
      </trkpt>
      <trkpt lat="49.39752" lon="3.35048">
        <ele>40.99</ele>
        <time>2021-07-27T16:13:52Z</time>
      </trkpt>
      <trkpt lat="49.39743" lon="3.35035">
        <ele>41.47</ele>
        <time>2021-07-27T16:13:53Z</time>
      </trkpt>
      <trkpt lat="49.39733" lon="3.35022">
        <ele>41.95</ele>
        <time>2021-07-27T16:13:54Z</time>
      </trkpt>
      <trkpt lat="49.39598" lon="3.34811">
        <ele>40.03</ele>
        <time>2021-07-27T16:14:10Z</time>
      </trkpt>
      <trkpt lat="49.3951" lon="3.34675">
        <ele>42.44</ele>
        <time>2021-07-27T16:14:22Z</time>
      </trkpt>
      <trkpt lat="49.39428" lon="3.34549">
        <ele>42.44</ele>
        <time>2021-07-27T16:14:37Z</time>
      </trkpt>
      <trkpt lat="49.39328" lon="3.34397">
        <ele>41.95</ele>
        <time>2021-07-27T16:14:51Z</time>
      </trkpt>
      <trkpt lat="49.39214" lon="3.34218">
        <ele>40.51</ele>
        <time>2021-07-27T16:15:08Z</time>
      </trkpt>
      <trkpt lat="49.39082" lon="3.34019">
        <ele>40.99</ele>
        <time>2021-07-27T16:15:25Z</time>
      </trkpt>
      <trkpt lat="49.38934" lon="3.33791">
        <ele>40.99</ele>
        <time>2021-07-27T16:15:45Z</time>
      </trkpt>
      <trkpt lat="49.38831" lon="3.33634">
        <ele>42.44</ele>
        <time>2021-07-27T16:16:00Z</time>
      </trkpt>
      <trkpt lat="49.38749" lon="3.33508">
        <ele>41.47</ele>
        <time>2021-07-27T16:16:13Z</time>
      </trkpt>
      <trkpt lat="49.38651" lon="3.33352">
        <ele>41.47</ele>
        <time>2021-07-27T16:16:31Z</time>
      </trkpt>
      <trkpt lat="49.38621" lon="3.33311">
        <ele>40.51</ele>
        <time>2021-07-27T16:16:39Z</time>
      </trkpt>
      <trkpt lat="49.38609" lon="3.33292">
        <ele>40.03</ele>
        <time>2021-07-27T16:17:23Z</time>
      </trkpt>
      <trkpt lat="49.38607" lon="3.33285">
        <ele>40.03</ele>
        <time>2021-07-27T16:17:24Z</time>
      </trkpt>
      <trkpt lat="49.38603" lon="3.33271">
        <ele>40.03</ele>
        <time>2021-07-27T16:17:25Z</time>
      </trkpt>
      <trkpt lat="49.38603" lon="3.33271">
        <ele>40.03</ele>
        <time>2021-07-27T16:17:26Z</time>
      </trkpt>
      <trkpt lat="49.38587" lon="3.33268">
        <ele>40.03</ele>
        <time>2021-07-27T16:17:27Z</time>
      </trkpt>
      <trkpt lat="49.3858" lon="3.33274">
        <ele>39.55</ele>
        <time>2021-07-27T16:17:28Z</time>
      </trkpt>
      <trkpt lat="49.38577" lon="3.33274">
        <ele>39.55</ele>
        <time>2021-07-27T16:17:29Z</time>
      </trkpt>
      <trkpt lat="49.38486" lon="3.33282">
        <ele>39.55</ele>
        <time>2021-07-27T16:17:41Z</time>
      </trkpt>
      <trkpt lat="49.38426" lon="3.33287">
        <ele>37.63</ele>
        <time>2021-07-27T16:17:50Z</time>
      </trkpt>
      <trkpt lat="49.38406" lon="3.33288">
        <ele>35.23</ele>
        <time>2021-07-27T16:17:56Z</time>
      </trkpt>
      <trkpt lat="49.38325" lon="3.33293">
        <ele>37.15</ele>
        <time>2021-07-27T16:18:08Z</time>
      </trkpt>
      <trkpt lat="49.38246" lon="3.33306">
        <ele>37.63</ele>
        <time>2021-07-27T16:18:21Z</time>
      </trkpt>
      <trkpt lat="49.38224" lon="3.33311">
        <ele>38.11</ele>
        <time>2021-07-27T16:18:51Z</time>
      </trkpt>
      <trkpt lat="49.38175" lon="3.33321">
        <ele>38.59</ele>
        <time>2021-07-27T16:19:00Z</time>
      </trkpt>
      <trkpt lat="49.38158" lon="3.33325">
        <ele>38.11</ele>
        <time>2021-07-27T16:19:11Z</time>
      </trkpt>
      <trkpt lat="49.38148" lon="3.33328">
        <ele>38.11</ele>
        <time>2021-07-27T16:19:26Z</time>
      </trkpt>
      <trkpt lat="49.38132" lon="3.33331">
        <ele>37.15</ele>
        <time>2021-07-27T16:19:44Z</time>
      </trkpt>
      <trkpt lat="49.38116" lon="3.33334">
        <ele>37.15</ele>
        <time>2021-07-27T16:20:06Z</time>
      </trkpt>
      <trkpt lat="49.38101" lon="3.33338">
        <ele>37.15</ele>
        <time>2021-07-27T16:20:18Z</time>
      </trkpt>
      <trkpt lat="49.38084" lon="3.33342">
        <ele>37.63</ele>
        <time>2021-07-27T16:20:32Z</time>
      </trkpt>
      <trkpt lat="49.38074" lon="3.33344">
        <ele>38.11</ele>
        <time>2021-07-27T16:21:03Z</time>
      </trkpt>
      <trkpt lat="49.38061" lon="3.33347">
        <ele>38.11</ele>
        <time>2021-07-27T16:21:20Z</time>
      </trkpt>
      <trkpt lat="49.38044" lon="3.33346">
        <ele>39.07</ele>
        <time>2021-07-27T16:21:45Z</time>
      </trkpt>
      <trkpt lat="49.38026" lon="3.33344">
        <ele>39.55</ele>
        <time>2021-07-27T16:21:58Z</time>
      </trkpt>
      <trkpt lat="49.38005" lon="3.3334">
        <ele>40.99</ele>
        <time>2021-07-27T16:22:12Z</time>
      </trkpt>
      <trkpt lat="49.37987" lon="3.33323">
        <ele>41.47</ele>
        <time>2021-07-27T16:22:27Z</time>
      </trkpt>
      <trkpt lat="49.37949" lon="3.33281">
        <ele>41.47</ele>
        <time>2021-07-27T16:22:41Z</time>
      </trkpt>
      <trkpt lat="49.37933" lon="3.33264">
        <ele>40.99</ele>
        <time>2021-07-27T16:23:00Z</time>
      </trkpt>
      <trkpt lat="49.37909" lon="3.33239">
        <ele>40.99</ele>
        <time>2021-07-27T16:23:11Z</time>
      </trkpt>
      <trkpt lat="49.37902" lon="3.33232">
        <ele>40.99</ele>
        <time>2021-07-27T16:23:37Z</time>
      </trkpt>
      <trkpt lat="49.37874" lon="3.33203">
        <ele>40.99</ele>
        <time>2021-07-27T16:23:54Z</time>
      </trkpt>
      <trkpt lat="49.37851" lon="3.33177">
        <ele>41.47</ele>
        <time>2021-07-27T16:24:04Z</time>
      </trkpt>
      <trkpt lat="49.37821" lon="3.33146">
        <ele>41.95</ele>
        <time>2021-07-27T16:24:20Z</time>
      </trkpt>
      <trkpt lat="49.37809" lon="3.33134">
        <ele>42.92</ele>
        <time>2021-07-27T16:24:28Z</time>
      </trkpt>
      <trkpt lat="49.37785" lon="3.33109">
        <ele>44.36</ele>
        <time>2021-07-27T16:24:41Z</time>
      </trkpt>
      <trkpt lat="49.37765" lon="3.33087">
        <ele>44.84</ele>
        <time>2021-07-27T16:24:49Z</time>
      </trkpt>
      <trkpt lat="49.37754" lon="3.33075">
        <ele>46.28</ele>
        <time>2021-07-27T16:24:58Z</time>
      </trkpt>
      <trkpt lat="49.37734" lon="3.33055">
        <ele>46.76</ele>
        <time>2021-07-27T16:25:06Z</time>
      </trkpt>
      <trkpt lat="49.37712" lon="3.33033">
        <ele>47.24</ele>
        <time>2021-07-27T16:25:16Z</time>
      </trkpt>
      <trkpt lat="49.37699" lon="3.33019">
        <ele>47.24</ele>
        <time>2021-07-27T16:25:38Z</time>
      </trkpt>
      <trkpt lat="49.37691" lon="3.33011">
        <ele>47.24</ele>
        <time>2021-07-27T16:25:52Z</time>
      </trkpt>
      <trkpt lat="49.37685" lon="3.33005">
        <ele>47.24</ele>
        <time>2021-07-27T16:26:04Z</time>
      </trkpt>
      <trkpt lat="49.37669" lon="3.32989">
        <ele>46.76</ele>
        <time>2021-07-27T16:26:18Z</time>
      </trkpt>
      <trkpt lat="49.37664" lon="3.32983">
        <ele>47.24</ele>
        <time>2021-07-27T16:26:29Z</time>
      </trkpt>
      <trkpt lat="49.37649" lon="3.32965">
        <ele>47.24</ele>
        <time>2021-07-27T16:26:37Z</time>
      </trkpt>
      <trkpt lat="49.37643" lon="3.32942">
        <ele>47.24</ele>
        <time>2021-07-27T16:26:42Z</time>
      </trkpt>
      <trkpt lat="49.37648" lon="3.32927">
        <ele>47.24</ele>
        <time>2021-07-27T16:26:43Z</time>
      </trkpt>
      <trkpt lat="49.37652" lon="3.32923">
        <ele>47.24</ele>
        <time>2021-07-27T16:26:44Z</time>
      </trkpt>
      <trkpt lat="49.37694" lon="3.32872">
        <ele>46.76</ele>
        <time>2021-07-27T16:26:58Z</time>
      </trkpt>
      <trkpt lat="49.37701" lon="3.32864">
        <ele>46.76</ele>
        <time>2021-07-27T16:26:59Z</time>
      </trkpt>
      <trkpt lat="49.37701" lon="3.32864">
        <ele>46.76</ele>
        <time>2021-07-27T16:27:00Z</time>
      </trkpt>
      <trkpt lat="49.37709" lon="3.32864">
        <ele>46.76</ele>
        <time>2021-07-27T16:27:01Z</time>
      </trkpt>
      <trkpt lat="49.37713" lon="3.32865">
        <ele>46.76</ele>
        <time>2021-07-27T16:27:02Z</time>
      </trkpt>
      <trkpt lat="49.37718" lon="3.32866">
        <ele>46.28</ele>
        <time>2021-07-27T16:27:03Z</time>
      </trkpt>
      <trkpt lat="49.37738" lon="3.32871">
        <ele>45.8</ele>
        <time>2021-07-27T16:27:08Z</time>
      </trkpt>
      <trkpt lat="49.3774" lon="3.32872">
        <ele>45.32</ele>
        <time>2021-07-27T16:27:09Z</time>
      </trkpt>
      <trkpt lat="49.37745" lon="3.32867">
        <ele>44.36</ele>
        <time>2021-07-27T16:27:10Z</time>
      </trkpt>
      <trkpt lat="49.37745" lon="3.32796">
        <ele>48.2</ele>
        <time>2021-07-27T16:27:20Z</time>
      </trkpt>
      <trkpt lat="49.37745" lon="3.32793">
        <ele>48.68</ele>
        <time>2021-07-27T16:27:22Z</time>
      </trkpt>
      <trkpt lat="49.37744" lon="3.32778">
        <ele>49.16</ele>
        <time>2021-07-27T16:27:36Z</time>
      </trkpt>
      <trkpt lat="49.37744" lon="3.32778">
        <ele>49.16</ele>
        <time>2021-07-27T16:27:49Z</time>
      </trkpt>
      <trkpt lat="49.37745" lon="3.32788">
        <ele>49.16</ele>
        <time>2021-07-27T16:27:50Z</time>
      </trkpt>
      <trkpt lat="49.37745" lon="3.32785">
        <ele>48.68</ele>
        <time>2021-07-27T16:27:51Z</time>
      </trkpt>
      <trkpt lat="49.37745" lon="3.32781">
        <ele>48.68</ele>
        <time>2021-07-27T16:27:52Z</time>
      </trkpt>
      <trkpt lat="49.37745" lon="3.32779">
        <ele>48.68</ele>
        <time>2021-07-27T16:27:53Z</time>
      </trkpt>
      <trkpt lat="49.37746" lon="3.32775">
        <ele>48.2</ele>
        <time>2021-07-27T16:27:54Z</time>
      </trkpt>
      <trkpt lat="49.37746" lon="3.3277">
        <ele>48.2</ele>
        <time>2021-07-27T16:27:55Z</time>
      </trkpt>
      <trkpt lat="49.37746" lon="3.32765">
        <ele>48.2</ele>
        <time>2021-07-27T16:27:56Z</time>
      </trkpt>
      <trkpt lat="49.37747" lon="3.32759">
        <ele>48.2</ele>
        <time>2021-07-27T16:27:57Z</time>
      </trkpt>
      <trkpt lat="49.37754" lon="3.32678">
        <ele>48.2</ele>
        <time>2021-07-27T16:28:08Z</time>
      </trkpt>
      <trkpt lat="49.37762" lon="3.32656">
        <ele>48.68</ele>
        <time>2021-07-27T16:28:12Z</time>
      </trkpt>
      <trkpt lat="49.37761" lon="3.3265">
        <ele>48.68</ele>
        <time>2021-07-27T16:28:13Z</time>
      </trkpt>
      <trkpt lat="49.37759" lon="3.32644">
        <ele>48.68</ele>
        <time>2021-07-27T16:28:14Z</time>
      </trkpt>
      <trkpt lat="49.37751" lon="3.32617">
        <ele>48.68</ele>
        <time>2021-07-27T16:28:25Z</time>
      </trkpt>
      <trkpt lat="49.37746" lon="3.32608">
        <ele>48.68</ele>
        <time>2021-07-27T16:28:26Z</time>
      </trkpt>
      <trkpt lat="49.37743" lon="3.3261">
        <ele>48.68</ele>
        <time>2021-07-27T16:28:31Z</time>
      </trkpt>
      <trkpt lat="49.37743" lon="3.3261">
        <ele>48.68</ele>
        <time>2021-07-27T16:28:32Z</time>
      </trkpt>
      <trkpt lat="49.37741" lon="3.32611">
        <ele>48.68</ele>
        <time>2021-07-27T16:28:33Z</time>
      </trkpt>
      <trkpt lat="49.3774" lon="3.32619">
        <ele>48.68</ele>
        <time>2021-07-27T16:28:34Z</time>
      </trkpt>
      <trkpt lat="49.37741" lon="3.32622">
        <ele>48.68</ele>
        <time>2021-07-27T16:28:35Z</time>
      </trkpt>
      <trkpt lat="49.37742" lon="3.32625">
        <ele>48.68</ele>
        <time>2021-07-27T16:28:36Z</time>
      </trkpt>
      <trkpt lat="49.37754" lon="3.32663">
        <ele>47.72</ele>
        <time>2021-07-27T16:28:47Z</time>
      </trkpt>
      <trkpt lat="49.37754" lon="3.32663">
        <ele>47.72</ele>
        <time>2021-07-27T16:28:48Z</time>
      </trkpt>
      <trkpt lat="49.37753" lon="3.32683">
        <ele>47.72</ele>
        <time>2021-07-27T16:28:49Z</time>
      </trkpt>
      <trkpt lat="49.37749" lon="3.32732">
        <ele>46.28</ele>
        <time>2021-07-27T16:28:56Z</time>
      </trkpt>
      <trkpt lat="49.37748" lon="3.32748">
        <ele>45.8</ele>
        <time>2021-07-27T16:28:57Z</time>
      </trkpt>
      <trkpt lat="49.37747" lon="3.32762">
        <ele>45.32</ele>
        <time>2021-07-27T16:29:00Z</time>
      </trkpt>
      <trkpt lat="49.37729" lon="3.3281">
        <ele>44.36</ele>
        <time>2021-07-27T16:29:10Z</time>
      </trkpt>
      <trkpt lat="49.37708" lon="3.32852">
        <ele>42.92</ele>
        <time>2021-07-27T16:29:24Z</time>
      </trkpt>
      <trkpt lat="49.37708" lon="3.32852">
        <ele>42.92</ele>
        <time>2021-07-27T16:29:33Z</time>
      </trkpt>
      <trkpt lat="49.37705" lon="3.32857">
        <ele>42.92</ele>
        <time>2021-07-27T16:29:34Z</time>
      </trkpt>
      <trkpt lat="49.37734" lon="3.3287">
        <ele>44.36</ele>
        <time>2021-07-27T16:29:49Z</time>
      </trkpt>
      <trkpt lat="49.37734" lon="3.3287">
        <ele>44.36</ele>
        <time>2021-07-27T16:29:55Z</time>
      </trkpt>
      <trkpt lat="49.37734" lon="3.3287">
        <ele>43.88</ele>
        <time>2021-07-27T16:29:56Z</time>
      </trkpt>
      <trkpt lat="49.37742" lon="3.32872">
        <ele>43.88</ele>
        <time>2021-07-27T16:29:57Z</time>
      </trkpt>
      <trkpt lat="49.37742" lon="3.32872">
        <ele>43.88</ele>
        <time>2021-07-27T16:29:58Z</time>
      </trkpt>
      <trkpt lat="49.37745" lon="3.32873">
        <ele>44.36</ele>
        <time>2021-07-27T16:29:59Z</time>
      </trkpt>
      <trkpt lat="49.37778" lon="3.32889">
        <ele>44.36</ele>
        <time>2021-07-27T16:30:11Z</time>
      </trkpt>
      <trkpt lat="49.3783" lon="3.32868">
        <ele>46.76</ele>
        <time>2021-07-27T16:30:21Z</time>
      </trkpt>
      <trkpt lat="49.37874" lon="3.32849">
        <ele>50.13</ele>
        <time>2021-07-27T16:30:31Z</time>
      </trkpt>
      <trkpt lat="49.37876" lon="3.32851">
        <ele>50.13</ele>
        <time>2021-07-27T16:30:32Z</time>
      </trkpt>
      <trkpt lat="49.37879" lon="3.32854">
        <ele>50.13</ele>
        <time>2021-07-27T16:30:33Z</time>
      </trkpt>
      <trkpt lat="49.37881" lon="3.32857">
        <ele>50.61</ele>
        <time>2021-07-27T16:30:34Z</time>
      </trkpt>
      <trkpt lat="49.37884" lon="3.32859">
        <ele>50.61</ele>
        <time>2021-07-27T16:30:35Z</time>
      </trkpt>
      <trkpt lat="49.37887" lon="3.32862">
        <ele>50.13</ele>
        <time>2021-07-27T16:30:36Z</time>
      </trkpt>
      <trkpt lat="49.37888" lon="3.32871">
        <ele>50.13</ele>
        <time>2021-07-27T16:30:37Z</time>
      </trkpt>
      <trkpt lat="49.37889" lon="3.32877">
        <ele>49.65</ele>
        <time>2021-07-27T16:30:38Z</time>
      </trkpt>
      <trkpt lat="49.3789" lon="3.32884">
        <ele>49.16</ele>
        <time>2021-07-27T16:30:39Z</time>
      </trkpt>
      <trkpt lat="49.37902" lon="3.32983">
        <ele>48.68</ele>
        <time>2021-07-27T16:30:49Z</time>
      </trkpt>
      <trkpt lat="49.37905" lon="3.3301">
        <ele>48.68</ele>
        <time>2021-07-27T16:30:52Z</time>
      </trkpt>
      <trkpt lat="49.37905" lon="3.33017">
        <ele>48.68</ele>
        <time>2021-07-27T16:30:53Z</time>
      </trkpt>
      <trkpt lat="49.37908" lon="3.33048">
        <ele>47.72</ele>
        <time>2021-07-27T16:31:01Z</time>
      </trkpt>
      <trkpt lat="49.37928" lon="3.33072">
        <ele>45.8</ele>
        <time>2021-07-27T16:31:09Z</time>
      </trkpt>
      <trkpt lat="49.37946" lon="3.33109">
        <ele>43.4</ele>
        <time>2021-07-27T16:31:19Z</time>
      </trkpt>
      <trkpt lat="49.37943" lon="3.33119">
        <ele>43.88</ele>
        <time>2021-07-27T16:31:21Z</time>
      </trkpt>
      <trkpt lat="49.37943" lon="3.33119">
        <ele>43.88</ele>
        <time>2021-07-27T16:31:22Z</time>
      </trkpt>
      <trkpt lat="49.3794" lon="3.3312">
        <ele>43.88</ele>
        <time>2021-07-27T16:31:23Z</time>
      </trkpt>
      <trkpt lat="49.37937" lon="3.33121">
        <ele>43.4</ele>
        <time>2021-07-27T16:31:24Z</time>
      </trkpt>
      <trkpt lat="49.37933" lon="3.33122">
        <ele>43.4</ele>
        <time>2021-07-27T16:31:25Z</time>
      </trkpt>
      <trkpt lat="49.37919" lon="3.33127">
        <ele>44.36</ele>
        <time>2021-07-27T16:31:29Z</time>
      </trkpt>
      <trkpt lat="49.3791" lon="3.3313">
        <ele>44.84</ele>
        <time>2021-07-27T16:31:31Z</time>
      </trkpt>
      <trkpt lat="49.37904" lon="3.33132">
        <ele>44.84</ele>
        <time>2021-07-27T16:31:32Z</time>
      </trkpt>
      <trkpt lat="49.37899" lon="3.33134">
        <ele>44.84</ele>
        <time>2021-07-27T16:31:33Z</time>
      </trkpt>
      <trkpt lat="49.3789" lon="3.33142">
        <ele>44.84</ele>
        <time>2021-07-27T16:31:35Z</time>
      </trkpt>
      <trkpt lat="49.3788" lon="3.3315">
        <ele>44.84</ele>
        <time>2021-07-27T16:31:36Z</time>
      </trkpt>
      <trkpt lat="49.37877" lon="3.33154">
        <ele>44.84</ele>
        <time>2021-07-27T16:31:37Z</time>
      </trkpt>
      <trkpt lat="49.37849" lon="3.33175">
        <ele>43.4</ele>
        <time>2021-07-27T16:31:45Z</time>
      </trkpt>
      <trkpt lat="49.37847" lon="3.33172">
        <ele>42.92</ele>
        <time>2021-07-27T16:31:46Z</time>
      </trkpt>
      <trkpt lat="49.37843" lon="3.33168">
        <ele>43.4</ele>
        <time>2021-07-27T16:31:47Z</time>
      </trkpt>
      <trkpt lat="49.37819" lon="3.33145">
        <ele>46.76</ele>
        <time>2021-07-27T16:31:59Z</time>
      </trkpt>
      <trkpt lat="49.378" lon="3.33124">
        <ele>47.72</ele>
        <time>2021-07-27T16:32:22Z</time>
      </trkpt>
      <trkpt lat="49.37764" lon="3.33086">
        <ele>48.2</ele>
        <time>2021-07-27T16:32:34Z</time>
      </trkpt>
      <trkpt lat="49.37747" lon="3.33068">
        <ele>48.2</ele>
        <time>2021-07-27T16:32:48Z</time>
      </trkpt>
      <trkpt lat="49.3772" lon="3.3304">
        <ele>48.2</ele>
        <time>2021-07-27T16:33:03Z</time>
      </trkpt>
      <trkpt lat="49.37687" lon="3.33007">
        <ele>48.68</ele>
        <time>2021-07-27T16:33:20Z</time>
      </trkpt>
      <trkpt lat="49.37671" lon="3.3299">
        <ele>48.68</ele>
        <time>2021-07-27T16:33:33Z</time>
      </trkpt>
      <trkpt lat="49.37665" lon="3.32985">
        <ele>48.68</ele>
        <time>2021-07-27T16:33:50Z</time>
      </trkpt>
      <trkpt lat="49.37648" lon="3.32964">
        <ele>48.68</ele>
        <time>2021-07-27T16:33:59Z</time>
      </trkpt>
      <trkpt lat="49.37648" lon="3.32964">
        <ele>48.68</ele>
        <time>2021-07-27T16:34:00Z</time>
      </trkpt>
      <trkpt lat="49.37644" lon="3.32949">
        <ele>49.16</ele>
        <time>2021-07-27T16:34:02Z</time>
      </trkpt>
      <trkpt lat="49.37643" lon="3.32941">
        <ele>49.16</ele>
        <time>2021-07-27T16:34:03Z</time>
      </trkpt>
      <trkpt lat="49.37639" lon="3.32934">
        <ele>49.16</ele>
        <time>2021-07-27T16:34:04Z</time>
      </trkpt>
      <trkpt lat="49.37634" lon="3.32932">
        <ele>49.16</ele>
        <time>2021-07-27T16:34:05Z</time>
      </trkpt>
      <trkpt lat="49.37629" lon="3.32929">
        <ele>49.16</ele>
        <time>2021-07-27T16:34:06Z</time>
      </trkpt>
      <trkpt lat="49.37627" lon="3.32929">
        <ele>48.68</ele>
        <time>2021-07-27T16:34:07Z</time>
      </trkpt>
      <trkpt lat="49.37616" lon="3.32937">
        <ele>48.2</ele>
        <time>2021-07-27T16:34:08Z</time>
      </trkpt>
      <trkpt lat="49.37608" lon="3.32935">
        <ele>48.68</ele>
        <time>2021-07-27T16:34:09Z</time>
      </trkpt>
      <trkpt lat="49.37599" lon="3.32929">
        <ele>48.68</ele>
        <time>2021-07-27T16:34:10Z</time>
      </trkpt>
      <trkpt lat="49.37592" lon="3.32923">
        <ele>48.68</ele>
        <time>2021-07-27T16:34:11Z</time>
      </trkpt>
      <trkpt lat="49.37493" lon="3.32849">
        <ele>47.72</ele>
        <time>2021-07-27T16:34:23Z</time>
      </trkpt>
      <trkpt lat="49.37478" lon="3.32823">
        <ele>48.2</ele>
        <time>2021-07-27T16:34:28Z</time>
      </trkpt>
      <trkpt lat="49.37474" lon="3.32816">
        <ele>48.2</ele>
        <time>2021-07-27T16:34:29Z</time>
      </trkpt>
      <trkpt lat="49.3747" lon="3.32794">
        <ele>48.68</ele>
        <time>2021-07-27T16:34:30Z</time>
      </trkpt>
      <trkpt lat="49.3747" lon="3.32794">
        <ele>49.16</ele>
        <time>2021-07-27T16:34:31Z</time>
      </trkpt>
      <trkpt lat="49.37467" lon="3.32782">
        <ele>49.16</ele>
        <time>2021-07-27T16:34:32Z</time>
      </trkpt>
      <trkpt lat="49.37443" lon="3.32648">
        <ele>53.01</ele>
        <time>2021-07-27T16:34:45Z</time>
      </trkpt>
      <trkpt lat="49.37439" lon="3.32627">
        <ele>53.49</ele>
        <time>2021-07-27T16:34:48Z</time>
      </trkpt>
      <trkpt lat="49.37438" lon="3.32624">
        <ele>53.49</ele>
        <time>2021-07-27T16:34:49Z</time>
      </trkpt>
      <trkpt lat="49.37433" lon="3.3262">
        <ele>53.49</ele>
        <time>2021-07-27T16:34:50Z</time>
      </trkpt>
      <trkpt lat="49.37429" lon="3.32617">
        <ele>53.49</ele>
        <time>2021-07-27T16:34:51Z</time>
      </trkpt>
      <trkpt lat="49.37424" lon="3.32614">
        <ele>53.01</ele>
        <time>2021-07-27T16:34:52Z</time>
      </trkpt>
      <trkpt lat="49.3742" lon="3.32611">
        <ele>52.53</ele>
        <time>2021-07-27T16:34:53Z</time>
      </trkpt>
      <trkpt lat="49.37349" lon="3.32564">
        <ele>49.16</ele>
        <time>2021-07-27T16:35:04Z</time>
      </trkpt>
      <trkpt lat="49.37217" lon="3.32462">
        <ele>48.2</ele>
        <time>2021-07-27T16:35:18Z</time>
      </trkpt>
      <trkpt lat="49.37145" lon="3.3235">
        <ele>50.13</ele>
        <time>2021-07-27T16:35:30Z</time>
      </trkpt>
      <trkpt lat="49.37119" lon="3.32309">
        <ele>50.61</ele>
        <time>2021-07-27T16:35:38Z</time>
      </trkpt>
      <trkpt lat="49.37112" lon="3.32294">
        <ele>50.61</ele>
        <time>2021-07-27T16:35:39Z</time>
      </trkpt>
      <trkpt lat="49.37109" lon="3.32286">
        <ele>50.61</ele>
        <time>2021-07-27T16:35:40Z</time>
      </trkpt>
      <trkpt lat="49.37097" lon="3.32258">
        <ele>50.61</ele>
        <time>2021-07-27T16:35:45Z</time>
      </trkpt>
      <trkpt lat="49.37096" lon="3.32249">
        <ele>50.61</ele>
        <time>2021-07-27T16:35:46Z</time>
      </trkpt>
      <trkpt lat="49.37064" lon="3.32144">
        <ele>53.97</ele>
        <time>2021-07-27T16:35:56Z</time>
      </trkpt>
      <trkpt lat="49.36999" lon="3.3197">
        <ele>58.3</ele>
        <time>2021-07-27T16:36:07Z</time>
      </trkpt>
      <trkpt lat="49.36891" lon="3.3168">
        <ele>65.51</ele>
        <time>2021-07-27T16:36:23Z</time>
      </trkpt>
      <trkpt lat="49.36781" lon="3.31382">
        <ele>60.7</ele>
        <time>2021-07-27T16:36:39Z</time>
      </trkpt>
      <trkpt lat="49.36712" lon="3.31191">
        <ele>60.7</ele>
        <time>2021-07-27T16:36:49Z</time>
      </trkpt>
      <trkpt lat="49.36685" lon="3.3112">
        <ele>61.66</ele>
        <time>2021-07-27T16:36:57Z</time>
      </trkpt>
      <trkpt lat="49.36685" lon="3.31117">
        <ele>61.18</ele>
        <time>2021-07-27T16:37:05Z</time>
      </trkpt>
      <trkpt lat="49.36684" lon="3.31109">
        <ele>61.18</ele>
        <time>2021-07-27T16:37:14Z</time>
      </trkpt>
      <trkpt lat="49.36683" lon="3.31102">
        <ele>61.18</ele>
        <time>2021-07-27T16:37:15Z</time>
      </trkpt>
      <trkpt lat="49.36682" lon="3.31095">
        <ele>61.18</ele>
        <time>2021-07-27T16:37:16Z</time>
      </trkpt>
      <trkpt lat="49.36687" lon="3.31037">
        <ele>62.62</ele>
        <time>2021-07-27T16:37:22Z</time>
      </trkpt>
      <trkpt lat="49.36692" lon="3.31011">
        <ele>62.62</ele>
        <time>2021-07-27T16:37:23Z</time>
      </trkpt>
      <trkpt lat="49.36698" lon="3.30994">
        <ele>62.62</ele>
        <time>2021-07-27T16:37:24Z</time>
      </trkpt>
      <trkpt lat="49.36707" lon="3.30981">
        <ele>61.66</ele>
        <time>2021-07-27T16:37:25Z</time>
      </trkpt>
      <trkpt lat="49.36707" lon="3.30981">
        <ele>59.74</ele>
        <time>2021-07-27T16:37:26Z</time>
      </trkpt>
      <trkpt lat="49.36716" lon="3.3097">
        <ele>58.78</ele>
        <time>2021-07-27T16:37:27Z</time>
      </trkpt>
      <trkpt lat="49.36807" lon="3.30852">
        <ele>55.89</ele>
        <time>2021-07-27T16:37:35Z</time>
      </trkpt>
      <trkpt lat="49.36964" lon="3.30629">
        <ele>57.82</ele>
        <time>2021-07-27T16:37:46Z</time>
      </trkpt>
      <trkpt lat="49.37136" lon="3.30339">
        <ele>54.93</ele>
        <time>2021-07-27T16:37:57Z</time>
      </trkpt>
      <trkpt lat="49.37415" lon="3.29842">
        <ele>48.2</ele>
        <time>2021-07-27T16:38:13Z</time>
      </trkpt>
      <trkpt lat="49.37543" lon="3.29538">
        <ele>46.76</ele>
        <time>2021-07-27T16:38:21Z</time>
      </trkpt>
      <trkpt lat="49.37637" lon="3.29209">
        <ele>46.76</ele>
        <time>2021-07-27T16:38:31Z</time>
      </trkpt>
      <trkpt lat="49.37769" lon="3.2892">
        <ele>45.32</ele>
        <time>2021-07-27T16:38:40Z</time>
      </trkpt>
      <trkpt lat="49.38025" lon="3.28397">
        <ele>44.84</ele>
        <time>2021-07-27T16:38:57Z</time>
      </trkpt>
      <trkpt lat="49.3812" lon="3.28176">
        <ele>41.95</ele>
        <time>2021-07-27T16:39:05Z</time>
      </trkpt>
      <trkpt lat="49.38175" lon="3.28036">
        <ele>44.84</ele>
        <time>2021-07-27T16:39:12Z</time>
      </trkpt>
      <trkpt lat="49.38185" lon="3.28016">
        <ele>45.32</ele>
        <time>2021-07-27T16:39:14Z</time>
      </trkpt>
      <trkpt lat="49.3819" lon="3.28005">
        <ele>45.32</ele>
        <time>2021-07-27T16:39:15Z</time>
      </trkpt>
      <trkpt lat="49.38194" lon="3.27998">
        <ele>45.32</ele>
        <time>2021-07-27T16:39:16Z</time>
      </trkpt>
      <trkpt lat="49.38214" lon="3.27992">
        <ele>45.32</ele>
        <time>2021-07-27T16:39:18Z</time>
      </trkpt>
      <trkpt lat="49.38228" lon="3.27974">
        <ele>45.32</ele>
        <time>2021-07-27T16:39:19Z</time>
      </trkpt>
      <trkpt lat="49.38228" lon="3.27974">
        <ele>45.32</ele>
        <time>2021-07-27T16:39:20Z</time>
      </trkpt>
      <trkpt lat="49.38231" lon="3.27961">
        <ele>45.32</ele>
        <time>2021-07-27T16:39:21Z</time>
      </trkpt>
      <trkpt lat="49.38232" lon="3.27949">
        <ele>45.32</ele>
        <time>2021-07-27T16:39:22Z</time>
      </trkpt>
      <trkpt lat="49.38232" lon="3.27935">
        <ele>45.32</ele>
        <time>2021-07-27T16:39:23Z</time>
      </trkpt>
      <trkpt lat="49.38232" lon="3.2792">
        <ele>44.36</ele>
        <time>2021-07-27T16:39:24Z</time>
      </trkpt>
      <trkpt lat="49.38222" lon="3.27897">
        <ele>44.84</ele>
        <time>2021-07-27T16:39:25Z</time>
      </trkpt>
      <trkpt lat="49.38222" lon="3.27897">
        <ele>44.36</ele>
        <time>2021-07-27T16:39:26Z</time>
      </trkpt>
      <trkpt lat="49.38216" lon="3.27885">
        <ele>44.84</ele>
        <time>2021-07-27T16:39:27Z</time>
      </trkpt>
      <trkpt lat="49.3821" lon="3.27872">
        <ele>44.36</ele>
        <time>2021-07-27T16:39:28Z</time>
      </trkpt>
      <trkpt lat="49.38204" lon="3.27857">
        <ele>44.84</ele>
        <time>2021-07-27T16:39:29Z</time>
      </trkpt>
      <trkpt lat="49.382" lon="3.2784">
        <ele>44.84</ele>
        <time>2021-07-27T16:39:30Z</time>
      </trkpt>
      <trkpt lat="49.382" lon="3.27629">
        <ele>46.76</ele>
        <time>2021-07-27T16:39:40Z</time>
      </trkpt>
      <trkpt lat="49.38209" lon="3.27221">
        <ele>48.68</ele>
        <time>2021-07-27T16:39:57Z</time>
      </trkpt>
      <trkpt lat="49.38237" lon="3.26964">
        <ele>48.2</ele>
        <time>2021-07-27T16:40:09Z</time>
      </trkpt>
      <trkpt lat="49.38302" lon="3.26555">
        <ele>48.2</ele>
        <time>2021-07-27T16:40:27Z</time>
      </trkpt>
      <trkpt lat="49.38351" lon="3.26245">
        <ele>47.72</ele>
        <time>2021-07-27T16:40:40Z</time>
      </trkpt>
      <trkpt lat="49.3842" lon="3.25814">
        <ele>48.68</ele>
        <time>2021-07-27T16:40:57Z</time>
      </trkpt>
      <trkpt lat="49.38472" lon="3.2549">
        <ele>50.13</ele>
        <time>2021-07-27T16:41:10Z</time>
      </trkpt>
      <trkpt lat="49.38563" lon="3.24913">
        <ele>50.61</ele>
        <time>2021-07-27T16:41:33Z</time>
      </trkpt>
      <trkpt lat="49.3863" lon="3.24502">
        <ele>50.61</ele>
        <time>2021-07-27T16:41:49Z</time>
      </trkpt>
      <trkpt lat="49.38703" lon="3.24027">
        <ele>49.65</ele>
        <time>2021-07-27T16:42:05Z</time>
      </trkpt>
      <trkpt lat="49.38787" lon="3.23501">
        <ele>47.72</ele>
        <time>2021-07-27T16:42:23Z</time>
      </trkpt>
      <trkpt lat="49.38869" lon="3.22984">
        <ele>46.76</ele>
        <time>2021-07-27T16:42:42Z</time>
      </trkpt>
      <trkpt lat="49.38926" lon="3.2262">
        <ele>46.76</ele>
        <time>2021-07-27T16:42:54Z</time>
      </trkpt>
      <trkpt lat="49.39028" lon="3.21995">
        <ele>56.37</ele>
        <time>2021-07-27T16:43:13Z</time>
      </trkpt>
      <trkpt lat="49.39116" lon="3.21415">
        <ele>66.95</ele>
        <time>2021-07-27T16:43:30Z</time>
      </trkpt>
      <trkpt lat="49.39183" lon="3.20979">
        <ele>57.82</ele>
        <time>2021-07-27T16:43:42Z</time>
      </trkpt>
      <trkpt lat="49.39241" lon="3.2059">
        <ele>53.01</ele>
        <time>2021-07-27T16:43:54Z</time>
      </trkpt>
      <trkpt lat="49.39313" lon="3.20068">
        <ele>59.26</ele>
        <time>2021-07-27T16:44:11Z</time>
      </trkpt>
      <trkpt lat="49.39388" lon="3.19562">
        <ele>57.82</ele>
        <time>2021-07-27T16:44:28Z</time>
      </trkpt>
      <trkpt lat="49.39482" lon="3.18906">
        <ele>48.68</ele>
        <time>2021-07-27T16:44:49Z</time>
      </trkpt>
      <trkpt lat="49.39539" lon="3.18507">
        <ele>48.68</ele>
        <time>2021-07-27T16:45:03Z</time>
      </trkpt>
      <trkpt lat="49.39602" lon="3.18061">
        <ele>55.41</ele>
        <time>2021-07-27T16:45:20Z</time>
      </trkpt>
      <trkpt lat="49.39665" lon="3.17618">
        <ele>57.34</ele>
        <time>2021-07-27T16:45:38Z</time>
      </trkpt>
      <trkpt lat="49.39735" lon="3.17138">
        <ele>53.49</ele>
        <time>2021-07-27T16:45:54Z</time>
      </trkpt>
      <trkpt lat="49.39805" lon="3.1664">
        <ele>56.86</ele>
        <time>2021-07-27T16:46:11Z</time>
      </trkpt>
      <trkpt lat="49.39828" lon="3.16313">
        <ele>53.49</ele>
        <time>2021-07-27T16:46:22Z</time>
      </trkpt>
      <trkpt lat="49.39807" lon="3.15897">
        <ele>53.49</ele>
        <time>2021-07-27T16:46:36Z</time>
      </trkpt>
      <trkpt lat="49.39785" lon="3.15433">
        <ele>47.24</ele>
        <time>2021-07-27T16:46:51Z</time>
      </trkpt>
      <trkpt lat="49.39762" lon="3.15008">
        <ele>42.92</ele>
        <time>2021-07-27T16:47:05Z</time>
      </trkpt>
      <trkpt lat="49.39738" lon="3.14529">
        <ele>39.07</ele>
        <time>2021-07-27T16:47:20Z</time>
      </trkpt>
      <trkpt lat="49.39714" lon="3.14089">
        <ele>39.55</ele>
        <time>2021-07-27T16:47:36Z</time>
      </trkpt>
      <trkpt lat="49.39683" lon="3.13484">
        <ele>39.55</ele>
        <time>2021-07-27T16:47:57Z</time>
      </trkpt>
      <trkpt lat="49.39658" lon="3.12939">
        <ele>37.63</ele>
        <time>2021-07-27T16:48:16Z</time>
      </trkpt>
      <trkpt lat="49.39644" lon="3.12547">
        <ele>37.15</ele>
        <time>2021-07-27T16:48:30Z</time>
      </trkpt>
      <trkpt lat="49.39631" lon="3.12158">
        <ele>38.11</ele>
        <time>2021-07-27T16:48:46Z</time>
      </trkpt>
      <trkpt lat="49.39619" lon="3.11802">
        <ele>39.55</ele>
        <time>2021-07-27T16:49:01Z</time>
      </trkpt>
      <trkpt lat="49.3961" lon="3.11543">
        <ele>39.55</ele>
        <time>2021-07-27T16:49:14Z</time>
      </trkpt>
      <trkpt lat="49.39608" lon="3.11476">
        <ele>39.07</ele>
        <time>2021-07-27T16:49:24Z</time>
      </trkpt>
      <trkpt lat="49.39603" lon="3.11397">
        <ele>39.55</ele>
        <time>2021-07-27T16:49:33Z</time>
      </trkpt>
      <trkpt lat="49.39598" lon="3.11233">
        <ele>38.59</ele>
        <time>2021-07-27T16:49:44Z</time>
      </trkpt>
      <trkpt lat="49.39588" lon="3.10977">
        <ele>38.11</ele>
        <time>2021-07-27T16:49:55Z</time>
      </trkpt>
      <trkpt lat="49.39582" lon="3.10698">
        <ele>37.63</ele>
        <time>2021-07-27T16:50:08Z</time>
      </trkpt>
      <trkpt lat="49.39582" lon="3.10274">
        <ele>40.51</ele>
        <time>2021-07-27T16:50:25Z</time>
      </trkpt>
      <trkpt lat="49.39582" lon="3.09827">
        <ele>38.59</ele>
        <time>2021-07-27T16:50:41Z</time>
      </trkpt>
      <trkpt lat="49.39582" lon="3.0944">
        <ele>36.19</ele>
        <time>2021-07-27T16:50:55Z</time>
      </trkpt>
      <trkpt lat="49.39583" lon="3.09079">
        <ele>35.71</ele>
        <time>2021-07-27T16:51:09Z</time>
      </trkpt>
      <trkpt lat="49.39598" lon="3.08624">
        <ele>35.71</ele>
        <time>2021-07-27T16:51:25Z</time>
      </trkpt>
      <trkpt lat="49.39621" lon="3.07997">
        <ele>35.71</ele>
        <time>2021-07-27T16:51:47Z</time>
      </trkpt>
      <trkpt lat="49.3963" lon="3.07728">
        <ele>35.23</ele>
        <time>2021-07-27T16:51:57Z</time>
      </trkpt>
      <trkpt lat="49.39634" lon="3.07616">
        <ele>35.71</ele>
        <time>2021-07-27T16:52:06Z</time>
      </trkpt>
      <trkpt lat="49.39642" lon="3.07445">
        <ele>36.67</ele>
        <time>2021-07-27T16:52:17Z</time>
      </trkpt>
      <trkpt lat="49.39649" lon="3.0721">
        <ele>40.03</ele>
        <time>2021-07-27T16:52:30Z</time>
      </trkpt>
      <trkpt lat="49.39658" lon="3.06989">
        <ele>41.47</ele>
        <time>2021-07-27T16:52:41Z</time>
      </trkpt>
      <trkpt lat="49.3966" lon="3.06972">
        <ele>41.47</ele>
        <time>2021-07-27T16:52:42Z</time>
      </trkpt>
      <trkpt lat="49.39662" lon="3.06955">
        <ele>41.47</ele>
        <time>2021-07-27T16:52:43Z</time>
      </trkpt>
      <trkpt lat="49.39713" lon="3.0677">
        <ele>38.59</ele>
        <time>2021-07-27T16:52:54Z</time>
      </trkpt>
      <trkpt lat="49.39724" lon="3.06732">
        <ele>37.15</ele>
        <time>2021-07-27T16:52:57Z</time>
      </trkpt>
      <trkpt lat="49.39726" lon="3.0672">
        <ele>37.63</ele>
        <time>2021-07-27T16:52:58Z</time>
      </trkpt>
      <trkpt lat="49.39726" lon="3.06707">
        <ele>37.63</ele>
        <time>2021-07-27T16:52:59Z</time>
      </trkpt>
      <trkpt lat="49.39726" lon="3.06694">
        <ele>37.63</ele>
        <time>2021-07-27T16:53:00Z</time>
      </trkpt>
      <trkpt lat="49.39725" lon="3.06671">
        <ele>38.11</ele>
        <time>2021-07-27T16:53:01Z</time>
      </trkpt>
      <trkpt lat="49.39725" lon="3.06671">
        <ele>38.11</ele>
        <time>2021-07-27T16:53:02Z</time>
      </trkpt>
      <trkpt lat="49.39722" lon="3.06659">
        <ele>38.11</ele>
        <time>2021-07-27T16:53:03Z</time>
      </trkpt>
      <trkpt lat="49.39719" lon="3.06646">
        <ele>39.07</ele>
        <time>2021-07-27T16:53:04Z</time>
      </trkpt>
      <trkpt lat="49.39699" lon="3.0658">
        <ele>41.95</ele>
        <time>2021-07-27T16:53:09Z</time>
      </trkpt>
      <trkpt lat="49.39696" lon="3.06564">
        <ele>42.92</ele>
        <time>2021-07-27T16:53:10Z</time>
      </trkpt>
      <trkpt lat="49.39694" lon="3.06549">
        <ele>42.92</ele>
        <time>2021-07-27T16:53:11Z</time>
      </trkpt>
      <trkpt lat="49.39695" lon="3.06377">
        <ele>40.03</ele>
        <time>2021-07-27T16:53:20Z</time>
      </trkpt>
      <trkpt lat="49.39716" lon="3.05991">
        <ele>40.51</ele>
        <time>2021-07-27T16:53:39Z</time>
      </trkpt>
      <trkpt lat="49.39734" lon="3.05709">
        <ele>42.44</ele>
        <time>2021-07-27T16:53:53Z</time>
      </trkpt>
      <trkpt lat="49.3976" lon="3.05334">
        <ele>43.4</ele>
        <time>2021-07-27T16:54:11Z</time>
      </trkpt>
      <trkpt lat="49.39781" lon="3.05001">
        <ele>43.88</ele>
        <time>2021-07-27T16:54:25Z</time>
      </trkpt>
      <trkpt lat="49.398" lon="3.04705">
        <ele>45.8</ele>
        <time>2021-07-27T16:54:39Z</time>
      </trkpt>
      <trkpt lat="49.39806" lon="3.04624">
        <ele>45.8</ele>
        <time>2021-07-27T16:54:47Z</time>
      </trkpt>
      <trkpt lat="49.39806" lon="3.04617">
        <ele>45.8</ele>
        <time>2021-07-27T16:54:57Z</time>
      </trkpt>
      <trkpt lat="49.39808" lon="3.0458">
        <ele>45.8</ele>
        <time>2021-07-27T16:55:14Z</time>
      </trkpt>
      <trkpt lat="49.39816" lon="3.04477">
        <ele>45.32</ele>
        <time>2021-07-27T16:55:23Z</time>
      </trkpt>
      <trkpt lat="49.39827" lon="3.04311">
        <ele>43.88</ele>
        <time>2021-07-27T16:55:32Z</time>
      </trkpt>
      <trkpt lat="49.39847" lon="3.04008">
        <ele>40.51</ele>
        <time>2021-07-27T16:55:44Z</time>
      </trkpt>
      <trkpt lat="49.39886" lon="3.03434">
        <ele>38.11</ele>
        <time>2021-07-27T16:56:04Z</time>
      </trkpt>
      <trkpt lat="49.39895" lon="3.03281">
        <ele>37.15</ele>
        <time>2021-07-27T16:56:11Z</time>
      </trkpt>
      <trkpt lat="49.39899" lon="3.03226">
        <ele>37.15</ele>
        <time>2021-07-27T16:56:17Z</time>
      </trkpt>
      <trkpt lat="49.39901" lon="3.03205">
        <ele>37.15</ele>
        <time>2021-07-27T16:56:28Z</time>
      </trkpt>
      <trkpt lat="49.39906" lon="3.03117">
        <ele>36.67</ele>
        <time>2021-07-27T16:56:37Z</time>
      </trkpt>
      <trkpt lat="49.39911" lon="3.02943">
        <ele>37.15</ele>
        <time>2021-07-27T16:56:48Z</time>
      </trkpt>
      <trkpt lat="49.39945" lon="3.027">
        <ele>36.19</ele>
        <time>2021-07-27T16:57:03Z</time>
      </trkpt>
      <trkpt lat="49.39983" lon="3.02459">
        <ele>33.78</ele>
        <time>2021-07-27T16:57:16Z</time>
      </trkpt>
      <trkpt lat="49.4005" lon="3.02143">
        <ele>36.19</ele>
        <time>2021-07-27T16:57:31Z</time>
      </trkpt>
      <trkpt lat="49.4012" lon="3.0183">
        <ele>36.19</ele>
        <time>2021-07-27T16:57:46Z</time>
      </trkpt>
      <trkpt lat="49.4021" lon="3.01427">
        <ele>37.15</ele>
        <time>2021-07-27T16:58:05Z</time>
      </trkpt>
      <trkpt lat="49.40269" lon="3.01156">
        <ele>36.67</ele>
        <time>2021-07-27T16:58:19Z</time>
      </trkpt>
      <trkpt lat="49.40355" lon="3.00776">
        <ele>32.82</ele>
        <time>2021-07-27T16:58:40Z</time>
      </trkpt>
      <trkpt lat="49.40385" lon="3.00638">
        <ele>32.82</ele>
        <time>2021-07-27T16:58:51Z</time>
      </trkpt>
      <trkpt lat="49.40409" lon="3.00527">
        <ele>32.34</ele>
        <time>2021-07-27T16:59:01Z</time>
      </trkpt>
      <trkpt lat="49.40409" lon="3.00522">
        <ele>32.34</ele>
        <time>2021-07-27T16:59:11Z</time>
      </trkpt>
      <trkpt lat="49.40417" lon="3.00491">
        <ele>32.82</ele>
        <time>2021-07-27T16:59:35Z</time>
      </trkpt>
      <trkpt lat="49.40437" lon="3.00393">
        <ele>32.34</ele>
        <time>2021-07-27T16:59:43Z</time>
      </trkpt>
      <trkpt lat="49.40439" lon="3.00378">
        <ele>31.86</ele>
        <time>2021-07-27T16:59:44Z</time>
      </trkpt>
      <trkpt lat="49.40442" lon="3.00362">
        <ele>31.86</ele>
        <time>2021-07-27T16:59:45Z</time>
      </trkpt>
      <trkpt lat="49.40441" lon="3.00345">
        <ele>32.82</ele>
        <time>2021-07-27T16:59:46Z</time>
      </trkpt>
      <trkpt lat="49.40439" lon="3.00328">
        <ele>33.78</ele>
        <time>2021-07-27T16:59:47Z</time>
      </trkpt>
      <trkpt lat="49.40437" lon="3.0031">
        <ele>33.78</ele>
        <time>2021-07-27T16:59:48Z</time>
      </trkpt>
      <trkpt lat="49.40398" lon="3.00117">
        <ele>35.23</ele>
        <time>2021-07-27T17:00:01Z</time>
      </trkpt>
      <trkpt lat="49.4034" lon="2.99848">
        <ele>35.71</ele>
        <time>2021-07-27T17:00:21Z</time>
      </trkpt>
      <trkpt lat="49.40287" lon="2.99608">
        <ele>36.19</ele>
        <time>2021-07-27T17:00:38Z</time>
      </trkpt>
      <trkpt lat="49.40255" lon="2.99456">
        <ele>36.19</ele>
        <time>2021-07-27T17:00:49Z</time>
      </trkpt>
      <trkpt lat="49.40243" lon="2.99379">
        <ele>36.67</ele>
        <time>2021-07-27T17:00:58Z</time>
      </trkpt>
      <trkpt lat="49.40242" lon="2.99373">
        <ele>36.67</ele>
        <time>2021-07-27T17:00:59Z</time>
      </trkpt>
      <trkpt lat="49.4024" lon="2.99366">
        <ele>36.67</ele>
        <time>2021-07-27T17:01:00Z</time>
      </trkpt>
      <trkpt lat="49.40244" lon="2.99336">
        <ele>36.67</ele>
        <time>2021-07-27T17:01:03Z</time>
      </trkpt>
      <trkpt lat="49.40244" lon="2.99336">
        <ele>36.67</ele>
        <time>2021-07-27T17:01:04Z</time>
      </trkpt>
      <trkpt lat="49.40243" lon="2.9933">
        <ele>36.67</ele>
        <time>2021-07-27T17:01:05Z</time>
      </trkpt>
      <trkpt lat="49.40243" lon="2.99328">
        <ele>36.19</ele>
        <time>2021-07-27T17:01:06Z</time>
      </trkpt>
      <trkpt lat="49.40232" lon="2.99323">
        <ele>36.67</ele>
        <time>2021-07-27T17:01:07Z</time>
      </trkpt>
      <trkpt lat="49.40229" lon="2.99316">
        <ele>36.67</ele>
        <time>2021-07-27T17:01:08Z</time>
      </trkpt>
      <trkpt lat="49.40227" lon="2.99308">
        <ele>36.67</ele>
        <time>2021-07-27T17:01:09Z</time>
      </trkpt>
      <trkpt lat="49.4022" lon="2.99288">
        <ele>36.67</ele>
        <time>2021-07-27T17:01:10Z</time>
      </trkpt>
      <trkpt lat="49.40195" lon="2.99165">
        <ele>40.51</ele>
        <time>2021-07-27T17:01:18Z</time>
      </trkpt>
      <trkpt lat="49.40159" lon="2.98954">
        <ele>41.95</ele>
        <time>2021-07-27T17:01:29Z</time>
      </trkpt>
      <trkpt lat="49.40167" lon="2.98737">
        <ele>41.95</ele>
        <time>2021-07-27T17:01:41Z</time>
      </trkpt>
      <trkpt lat="49.40179" lon="2.98501">
        <ele>37.15</ele>
        <time>2021-07-27T17:01:52Z</time>
      </trkpt>
      <trkpt lat="49.40192" lon="2.98218">
        <ele>36.67</ele>
        <time>2021-07-27T17:02:06Z</time>
      </trkpt>
      <trkpt lat="49.40209" lon="2.97846">
        <ele>38.11</ele>
        <time>2021-07-27T17:02:25Z</time>
      </trkpt>
      <trkpt lat="49.40229" lon="2.97429">
        <ele>38.11</ele>
        <time>2021-07-27T17:02:45Z</time>
      </trkpt>
      <trkpt lat="49.40246" lon="2.97068">
        <ele>36.67</ele>
        <time>2021-07-27T17:03:02Z</time>
      </trkpt>
      <trkpt lat="49.40262" lon="2.96711">
        <ele>37.15</ele>
        <time>2021-07-27T17:03:21Z</time>
      </trkpt>
      <trkpt lat="49.40238" lon="2.9652">
        <ele>39.07</ele>
        <time>2021-07-27T17:03:32Z</time>
      </trkpt>
      <trkpt lat="49.4022" lon="2.96394">
        <ele>37.63</ele>
        <time>2021-07-27T17:03:39Z</time>
      </trkpt>
      <trkpt lat="49.4022" lon="2.96352">
        <ele>37.63</ele>
        <time>2021-07-27T17:03:40Z</time>
      </trkpt>
      <trkpt lat="49.4022" lon="2.96352">
        <ele>37.63</ele>
        <time>2021-07-27T17:03:41Z</time>
      </trkpt>
      <trkpt lat="49.40224" lon="2.96335">
        <ele>37.15</ele>
        <time>2021-07-27T17:03:42Z</time>
      </trkpt>
      <trkpt lat="49.40228" lon="2.96315">
        <ele>37.15</ele>
        <time>2021-07-27T17:03:43Z</time>
      </trkpt>
      <trkpt lat="49.40293" lon="2.9607">
        <ele>37.15</ele>
        <time>2021-07-27T17:03:54Z</time>
      </trkpt>
      <trkpt lat="49.40399" lon="2.9567">
        <ele>35.23</ele>
        <time>2021-07-27T17:04:09Z</time>
      </trkpt>
      <trkpt lat="49.40542" lon="2.95137">
        <ele>33.3</ele>
        <time>2021-07-27T17:04:28Z</time>
      </trkpt>
      <trkpt lat="49.40671" lon="2.94657">
        <ele>28.98</ele>
        <time>2021-07-27T17:04:45Z</time>
      </trkpt>
      <trkpt lat="49.40792" lon="2.94206">
        <ele>27.53</ele>
        <time>2021-07-27T17:05:01Z</time>
      </trkpt>
      <trkpt lat="49.40948" lon="2.93625">
        <ele>27.53</ele>
        <time>2021-07-27T17:05:22Z</time>
      </trkpt>
      <trkpt lat="49.4106" lon="2.93208">
        <ele>32.34</ele>
        <time>2021-07-27T17:05:38Z</time>
      </trkpt>
      <trkpt lat="49.41152" lon="2.92862">
        <ele>32.34</ele>
        <time>2021-07-27T17:05:52Z</time>
      </trkpt>
      <trkpt lat="49.41265" lon="2.92459">
        <ele>28.02</ele>
        <time>2021-07-27T17:06:08Z</time>
      </trkpt>
      <trkpt lat="49.41328" lon="2.92257">
        <ele>28.02</ele>
        <time>2021-07-27T17:06:19Z</time>
      </trkpt>
      <trkpt lat="49.41334" lon="2.9224">
        <ele>28.02</ele>
        <time>2021-07-27T17:06:20Z</time>
      </trkpt>
      <trkpt lat="49.41342" lon="2.92227">
        <ele>28.02</ele>
        <time>2021-07-27T17:06:21Z</time>
      </trkpt>
      <trkpt lat="49.41349" lon="2.92215">
        <ele>29.46</ele>
        <time>2021-07-27T17:06:22Z</time>
      </trkpt>
      <trkpt lat="49.41356" lon="2.92203">
        <ele>29.46</ele>
        <time>2021-07-27T17:06:23Z</time>
      </trkpt>
      <trkpt lat="49.41375" lon="2.92187">
        <ele>28.98</ele>
        <time>2021-07-27T17:06:25Z</time>
      </trkpt>
      <trkpt lat="49.41382" lon="2.92175">
        <ele>28.98</ele>
        <time>2021-07-27T17:06:26Z</time>
      </trkpt>
      <trkpt lat="49.41393" lon="2.92149">
        <ele>29.46</ele>
        <time>2021-07-27T17:06:27Z</time>
      </trkpt>
      <trkpt lat="49.41393" lon="2.92149">
        <ele>28.98</ele>
        <time>2021-07-27T17:06:28Z</time>
      </trkpt>
      <trkpt lat="49.41396" lon="2.92133">
        <ele>28.5</ele>
        <time>2021-07-27T17:06:29Z</time>
      </trkpt>
      <trkpt lat="49.41436" lon="2.91905">
        <ele>28.98</ele>
        <time>2021-07-27T17:06:41Z</time>
      </trkpt>
      <trkpt lat="49.41503" lon="2.91688">
        <ele>29.46</ele>
        <time>2021-07-27T17:06:53Z</time>
      </trkpt>
      <trkpt lat="49.41587" lon="2.91422">
        <ele>28.02</ele>
        <time>2021-07-27T17:07:04Z</time>
      </trkpt>
      <trkpt lat="49.41706" lon="2.91042">
        <ele>28.02</ele>
        <time>2021-07-27T17:07:17Z</time>
      </trkpt>
      <trkpt lat="49.41771" lon="2.90868">
        <ele>31.38</ele>
        <time>2021-07-27T17:07:27Z</time>
      </trkpt>
      <trkpt lat="49.41851" lon="2.90779">
        <ele>31.38</ele>
        <time>2021-07-27T17:07:34Z</time>
      </trkpt>
      <trkpt lat="49.41994" lon="2.90651">
        <ele>35.71</ele>
        <time>2021-07-27T17:07:44Z</time>
      </trkpt>
      <trkpt lat="49.42088" lon="2.90448">
        <ele>34.74</ele>
        <time>2021-07-27T17:07:53Z</time>
      </trkpt>
      <trkpt lat="49.4217" lon="2.90158">
        <ele>32.82</ele>
        <time>2021-07-27T17:08:03Z</time>
      </trkpt>
      <trkpt lat="49.42169" lon="2.89956">
        <ele>33.78</ele>
        <time>2021-07-27T17:08:09Z</time>
      </trkpt>
      <trkpt lat="49.42149" lon="2.89691">
        <ele>33.78</ele>
        <time>2021-07-27T17:08:17Z</time>
      </trkpt>
      <trkpt lat="49.42189" lon="2.89503">
        <ele>34.74</ele>
        <time>2021-07-27T17:08:23Z</time>
      </trkpt>
      <trkpt lat="49.42368" lon="2.88924">
        <ele>33.3</ele>
        <time>2021-07-27T17:08:43Z</time>
      </trkpt>
      <trkpt lat="49.42509" lon="2.88472">
        <ele>31.38</ele>
        <time>2021-07-27T17:08:59Z</time>
      </trkpt>
      <trkpt lat="49.4259" lon="2.88204">
        <ele>30.42</ele>
        <time>2021-07-27T17:09:10Z</time>
      </trkpt>
      <trkpt lat="49.42601" lon="2.8816">
        <ele>29.46</ele>
        <time>2021-07-27T17:09:13Z</time>
      </trkpt>
      <trkpt lat="49.42604" lon="2.88149">
        <ele>29.46</ele>
        <time>2021-07-27T17:09:14Z</time>
      </trkpt>
      <trkpt lat="49.42606" lon="2.88141">
        <ele>29.46</ele>
        <time>2021-07-27T17:09:15Z</time>
      </trkpt>
      <trkpt lat="49.42615" lon="2.88151">
        <ele>28.5</ele>
        <time>2021-07-27T17:09:16Z</time>
      </trkpt>
      <trkpt lat="49.42619" lon="2.88154">
        <ele>28.02</ele>
        <time>2021-07-27T17:09:17Z</time>
      </trkpt>
      <trkpt lat="49.42624" lon="2.88158">
        <ele>27.53</ele>
        <time>2021-07-27T17:09:18Z</time>
      </trkpt>
      <trkpt lat="49.42629" lon="2.88162">
        <ele>27.05</ele>
        <time>2021-07-27T17:09:19Z</time>
      </trkpt>
      <trkpt lat="49.4263" lon="2.88171">
        <ele>26.57</ele>
        <time>2021-07-27T17:09:20Z</time>
      </trkpt>
      <trkpt lat="49.42631" lon="2.88182">
        <ele>25.61</ele>
        <time>2021-07-27T17:09:21Z</time>
      </trkpt>
      <trkpt lat="49.4265" lon="2.88329">
        <ele>18.88</ele>
        <time>2021-07-27T17:09:30Z</time>
      </trkpt>
      <trkpt lat="49.42679" lon="2.88574">
        <ele>16.48</ele>
        <time>2021-07-27T17:09:41Z</time>
      </trkpt>
      <trkpt lat="49.42717" lon="2.88887">
        <ele>23.69</ele>
        <time>2021-07-27T17:09:54Z</time>
      </trkpt>
      <trkpt lat="49.42753" lon="2.89176">
        <ele>22.25</ele>
        <time>2021-07-27T17:10:05Z</time>
      </trkpt>
      <trkpt lat="49.42792" lon="2.89512">
        <ele>19.36</ele>
        <time>2021-07-27T17:10:18Z</time>
      </trkpt>
      <trkpt lat="49.42843" lon="2.89936">
        <ele>28.02</ele>
        <time>2021-07-27T17:10:34Z</time>
      </trkpt>
      <trkpt lat="49.42879" lon="2.90226">
        <ele>29.94</ele>
        <time>2021-07-27T17:10:45Z</time>
      </trkpt>
      <trkpt lat="49.42908" lon="2.9047">
        <ele>34.74</ele>
        <time>2021-07-27T17:10:55Z</time>
      </trkpt>
      <trkpt lat="49.42923" lon="2.90569">
        <ele>40.99</ele>
        <time>2021-07-27T17:11:01Z</time>
      </trkpt>
      <trkpt lat="49.42931" lon="2.90589">
        <ele>45.32</ele>
        <time>2021-07-27T17:11:10Z</time>
      </trkpt>
      <trkpt lat="49.42933" lon="2.90592">
        <ele>48.2</ele>
        <time>2021-07-27T17:11:17Z</time>
      </trkpt>
      <trkpt lat="49.42921" lon="2.90608">
        <ele>48.2</ele>
        <time>2021-07-27T17:11:18Z</time>
      </trkpt>
      <trkpt lat="49.42919" lon="2.90609">
        <ele>47.72</ele>
        <time>2021-07-27T17:11:19Z</time>
      </trkpt>
      <trkpt lat="49.42918" lon="2.9061">
        <ele>47.24</ele>
        <time>2021-07-27T17:11:20Z</time>
      </trkpt>
      <trkpt lat="49.42917" lon="2.90611">
        <ele>46.76</ele>
        <time>2021-07-27T17:11:21Z</time>
      </trkpt>
      <trkpt lat="49.42916" lon="2.90612">
        <ele>44.84</ele>
        <time>2021-07-27T17:11:22Z</time>
      </trkpt>
      <trkpt lat="49.42905" lon="2.90591">
        <ele>40.51</ele>
        <time>2021-07-27T17:11:29Z</time>
      </trkpt>
      <trkpt lat="49.42923" lon="2.90569">
        <ele>39.07</ele>
        <time>2021-07-27T17:11:34Z</time>
      </trkpt>
      <trkpt lat="49.42924" lon="2.90572">
        <ele>38.59</ele>
        <time>2021-07-27T17:11:35Z</time>
      </trkpt>
      <trkpt lat="49.42925" lon="2.90575">
        <ele>38.11</ele>
        <time>2021-07-27T17:11:36Z</time>
      </trkpt>
      <trkpt lat="49.42925" lon="2.90575">
        <ele>38.59</ele>
        <time>2021-07-27T17:11:42Z</time>
      </trkpt>
      <trkpt lat="49.42925" lon="2.90575">
        <ele>38.59</ele>
        <time>2021-07-27T17:11:43Z</time>
      </trkpt>
      <trkpt lat="49.42902" lon="2.90644">
        <ele>38.11</ele>
        <time>2021-07-27T17:11:52Z</time>
      </trkpt>
      <trkpt lat="49.42872" lon="2.90734">
        <ele>37.15</ele>
        <time>2021-07-27T17:12:05Z</time>
      </trkpt>
      <trkpt lat="49.42869" lon="2.90745">
        <ele>35.23</ele>
        <time>2021-07-27T17:12:14Z</time>
      </trkpt>
      <trkpt lat="49.42869" lon="2.90745">
        <ele>35.23</ele>
        <time>2021-07-27T17:12:36Z</time>
      </trkpt>
      <trkpt lat="49.42869" lon="2.90745">
        <ele>35.23</ele>
        <time>2021-07-27T17:12:37Z</time>
      </trkpt>
      <trkpt lat="49.42869" lon="2.90745">
        <ele>35.23</ele>
        <time>2021-07-27T17:12:38Z</time>
      </trkpt>
      <trkpt lat="49.42871" lon="2.90745">
        <ele>35.23</ele>
        <time>2021-07-27T17:12:39Z</time>
      </trkpt>
      <trkpt lat="49.42873" lon="2.90746">
        <ele>35.23</ele>
        <time>2021-07-27T17:12:40Z</time>
      </trkpt>
      <trkpt lat="49.42876" lon="2.90746">
        <ele>35.71</ele>
        <time>2021-07-27T17:12:41Z</time>
      </trkpt>
      <trkpt lat="49.42879" lon="2.90746">
        <ele>35.71</ele>
        <time>2021-07-27T17:12:42Z</time>
      </trkpt>
      <trkpt lat="49.42924" lon="2.90753">
        <ele>35.71</ele>
        <time>2021-07-27T17:12:55Z</time>
      </trkpt>
      <trkpt lat="49.4294" lon="2.90734">
        <ele>34.26</ele>
        <time>2021-07-27T17:13:03Z</time>
      </trkpt>
      <trkpt lat="49.42939" lon="2.90729">
        <ele>34.26</ele>
        <time>2021-07-27T17:13:04Z</time>
      </trkpt>
      <trkpt lat="49.42939" lon="2.90716">
        <ele>34.26</ele>
        <time>2021-07-27T17:13:06Z</time>
      </trkpt>
      <trkpt lat="49.42937" lon="2.90681">
        <ele>32.34</ele>
        <time>2021-07-27T17:13:11Z</time>
      </trkpt>
      <trkpt lat="49.42934" lon="2.90611">
        <ele>24.65</ele>
        <time>2021-07-27T17:13:23Z</time>
      </trkpt>
      <trkpt lat="49.42925" lon="2.90574">
        <ele>31.86</ele>
        <time>2021-07-27T17:13:39Z</time>
      </trkpt>
      <trkpt lat="49.42922" lon="2.90563">
        <ele>34.26</ele>
        <time>2021-07-27T17:13:53Z</time>
      </trkpt>
      <trkpt lat="49.4292" lon="2.90551">
        <ele>34.26</ele>
        <time>2021-07-27T17:13:54Z</time>
      </trkpt>
      <trkpt lat="49.4292" lon="2.90548">
        <ele>34.26</ele>
        <time>2021-07-27T17:13:55Z</time>
      </trkpt>
      <trkpt lat="49.42918" lon="2.90536">
        <ele>34.26</ele>
        <time>2021-07-27T17:13:56Z</time>
      </trkpt>
      <trkpt lat="49.42918" lon="2.90536">
        <ele>34.26</ele>
        <time>2021-07-27T17:13:57Z</time>
      </trkpt>
      <trkpt lat="49.42917" lon="2.90528">
        <ele>33.78</ele>
        <time>2021-07-27T17:13:58Z</time>
      </trkpt>
      <trkpt lat="49.42915" lon="2.90519">
        <ele>33.78</ele>
        <time>2021-07-27T17:13:59Z</time>
      </trkpt>
      <trkpt lat="49.429" lon="2.90406">
        <ele>32.82</ele>
        <time>2021-07-27T17:14:07Z</time>
      </trkpt>
      <trkpt lat="49.42876" lon="2.90202">
        <ele>31.38</ele>
        <time>2021-07-27T17:14:17Z</time>
      </trkpt>
      <trkpt lat="49.42837" lon="2.89889">
        <ele>32.82</ele>
        <time>2021-07-27T17:14:29Z</time>
      </trkpt>
      <trkpt lat="49.42785" lon="2.89447">
        <ele>32.82</ele>
        <time>2021-07-27T17:14:46Z</time>
      </trkpt>
      <trkpt lat="49.4273" lon="2.88991">
        <ele>32.34</ele>
        <time>2021-07-27T17:15:01Z</time>
      </trkpt>
      <trkpt lat="49.42681" lon="2.88584">
        <ele>35.71</ele>
        <time>2021-07-27T17:15:16Z</time>
      </trkpt>
      <trkpt lat="49.42634" lon="2.88204">
        <ele>34.26</ele>
        <time>2021-07-27T17:15:29Z</time>
      </trkpt>
      <trkpt lat="49.42625" lon="2.88133">
        <ele>35.71</ele>
        <time>2021-07-27T17:15:34Z</time>
      </trkpt>
      <trkpt lat="49.42622" lon="2.88124">
        <ele>35.71</ele>
        <time>2021-07-27T17:15:35Z</time>
      </trkpt>
      <trkpt lat="49.42618" lon="2.88117">
        <ele>36.19</ele>
        <time>2021-07-27T17:15:36Z</time>
      </trkpt>
      <trkpt lat="49.42616" lon="2.88088">
        <ele>36.67</ele>
        <time>2021-07-27T17:15:40Z</time>
      </trkpt>
      <trkpt lat="49.42615" lon="2.88081">
        <ele>36.67</ele>
        <time>2021-07-27T17:15:41Z</time>
      </trkpt>
      <trkpt lat="49.4261" lon="2.88002">
        <ele>37.15</ele>
        <time>2021-07-27T17:15:48Z</time>
      </trkpt>
      <trkpt lat="49.42589" lon="2.8782">
        <ele>35.23</ele>
        <time>2021-07-27T17:15:57Z</time>
      </trkpt>
      <trkpt lat="49.42573" lon="2.87697">
        <ele>34.74</ele>
        <time>2021-07-27T17:16:04Z</time>
      </trkpt>
      <trkpt lat="49.42573" lon="2.87687">
        <ele>34.26</ele>
        <time>2021-07-27T17:16:05Z</time>
      </trkpt>
      <trkpt lat="49.42573" lon="2.87677">
        <ele>33.78</ele>
        <time>2021-07-27T17:16:06Z</time>
      </trkpt>
      <trkpt lat="49.42573" lon="2.87672">
        <ele>33.78</ele>
        <time>2021-07-27T17:16:07Z</time>
      </trkpt>
      <trkpt lat="49.42588" lon="2.87651">
        <ele>33.3</ele>
        <time>2021-07-27T17:16:08Z</time>
      </trkpt>
      <trkpt lat="49.42588" lon="2.87651">
        <ele>33.78</ele>
        <time>2021-07-27T17:16:09Z</time>
      </trkpt>
      <trkpt lat="49.42591" lon="2.8764">
        <ele>33.78</ele>
        <time>2021-07-27T17:16:10Z</time>
      </trkpt>
      <trkpt lat="49.42591" lon="2.87625">
        <ele>33.3</ele>
        <time>2021-07-27T17:16:11Z</time>
      </trkpt>
      <trkpt lat="49.42588" lon="2.87615">
        <ele>33.3</ele>
        <time>2021-07-27T17:16:12Z</time>
      </trkpt>
      <trkpt lat="49.42583" lon="2.87608">
        <ele>33.3</ele>
        <time>2021-07-27T17:16:13Z</time>
      </trkpt>
      <trkpt lat="49.42577" lon="2.87601">
        <ele>33.78</ele>
        <time>2021-07-27T17:16:14Z</time>
      </trkpt>
      <trkpt lat="49.42572" lon="2.87599">
        <ele>33.3</ele>
        <time>2021-07-27T17:16:15Z</time>
      </trkpt>
      <trkpt lat="49.42565" lon="2.87599">
        <ele>33.3</ele>
        <time>2021-07-27T17:16:16Z</time>
      </trkpt>
      <trkpt lat="49.42559" lon="2.87604">
        <ele>33.3</ele>
        <time>2021-07-27T17:16:17Z</time>
      </trkpt>
      <trkpt lat="49.42552" lon="2.8761">
        <ele>33.3</ele>
        <time>2021-07-27T17:16:18Z</time>
      </trkpt>
      <trkpt lat="49.4255" lon="2.87612">
        <ele>32.82</ele>
        <time>2021-07-27T17:16:19Z</time>
      </trkpt>
      <trkpt lat="49.42532" lon="2.87628">
        <ele>32.82</ele>
        <time>2021-07-27T17:16:20Z</time>
      </trkpt>
      <trkpt lat="49.42522" lon="2.87627">
        <ele>33.3</ele>
        <time>2021-07-27T17:16:21Z</time>
      </trkpt>
      <trkpt lat="49.42404" lon="2.87609">
        <ele>34.26</ele>
        <time>2021-07-27T17:16:30Z</time>
      </trkpt>
      <trkpt lat="49.42183" lon="2.87576">
        <ele>35.71</ele>
        <time>2021-07-27T17:16:44Z</time>
      </trkpt>
      <trkpt lat="49.41958" lon="2.87541">
        <ele>35.71</ele>
        <time>2021-07-27T17:16:57Z</time>
      </trkpt>
      <trkpt lat="49.41723" lon="2.87505">
        <ele>38.11</ele>
        <time>2021-07-27T17:17:11Z</time>
      </trkpt>
      <trkpt lat="49.41611" lon="2.87487">
        <ele>38.11</ele>
        <time>2021-07-27T17:17:20Z</time>
      </trkpt>
      <trkpt lat="49.41588" lon="2.87483">
        <ele>39.07</ele>
        <time>2021-07-27T17:17:28Z</time>
      </trkpt>
      <trkpt lat="49.41585" lon="2.87483">
        <ele>39.07</ele>
        <time>2021-07-27T17:17:29Z</time>
      </trkpt>
      <trkpt lat="49.41575" lon="2.87481">
        <ele>37.63</ele>
        <time>2021-07-27T17:17:31Z</time>
      </trkpt>
      <trkpt lat="49.41569" lon="2.8748">
        <ele>37.15</ele>
        <time>2021-07-27T17:17:32Z</time>
      </trkpt>
      <trkpt lat="49.41506" lon="2.87471">
        <ele>35.23</ele>
        <time>2021-07-27T17:17:39Z</time>
      </trkpt>
      <trkpt lat="49.41365" lon="2.8745">
        <ele>30.9</ele>
        <time>2021-07-27T17:17:49Z</time>
      </trkpt>
      <trkpt lat="49.41173" lon="2.87421">
        <ele>32.34</ele>
        <time>2021-07-27T17:18:00Z</time>
      </trkpt>
      <trkpt lat="49.4087" lon="2.87377">
        <ele>37.63</ele>
        <time>2021-07-27T17:18:15Z</time>
      </trkpt>
      <trkpt lat="49.40579" lon="2.87334">
        <ele>38.11</ele>
        <time>2021-07-27T17:18:31Z</time>
      </trkpt>
      <trkpt lat="49.40303" lon="2.87305">
        <ele>45.32</ele>
        <time>2021-07-27T17:18:45Z</time>
      </trkpt>
      <trkpt lat="49.39926" lon="2.87299">
        <ele>46.76</ele>
        <time>2021-07-27T17:19:05Z</time>
      </trkpt>
      <trkpt lat="49.39845" lon="2.87297">
        <ele>48.2</ele>
        <time>2021-07-27T17:19:10Z</time>
      </trkpt>
      <trkpt lat="49.39827" lon="2.87293">
        <ele>49.16</ele>
        <time>2021-07-27T17:19:12Z</time>
      </trkpt>
      <trkpt lat="49.39821" lon="2.87292">
        <ele>50.13</ele>
        <time>2021-07-27T17:19:13Z</time>
      </trkpt>
      <trkpt lat="49.39816" lon="2.8729">
        <ele>50.61</ele>
        <time>2021-07-27T17:19:14Z</time>
      </trkpt>
      <trkpt lat="49.39816" lon="2.8729">
        <ele>51.09</ele>
        <time>2021-07-27T17:19:15Z</time>
      </trkpt>
      <trkpt lat="49.39816" lon="2.87265">
        <ele>51.57</ele>
        <time>2021-07-27T17:19:16Z</time>
      </trkpt>
      <trkpt lat="49.39814" lon="2.8726">
        <ele>51.57</ele>
        <time>2021-07-27T17:19:17Z</time>
      </trkpt>
      <trkpt lat="49.39802" lon="2.87252">
        <ele>52.53</ele>
        <time>2021-07-27T17:19:18Z</time>
      </trkpt>
      <trkpt lat="49.39797" lon="2.87239">
        <ele>52.53</ele>
        <time>2021-07-27T17:19:19Z</time>
      </trkpt>
      <trkpt lat="49.39799" lon="2.87226">
        <ele>52.53</ele>
        <time>2021-07-27T17:19:20Z</time>
      </trkpt>
      <trkpt lat="49.39801" lon="2.87212">
        <ele>52.05</ele>
        <time>2021-07-27T17:19:21Z</time>
      </trkpt>
      <trkpt lat="49.39803" lon="2.87195">
        <ele>51.09</ele>
        <time>2021-07-27T17:19:22Z</time>
      </trkpt>
      <trkpt lat="49.39806" lon="2.8718">
        <ele>51.09</ele>
        <time>2021-07-27T17:19:23Z</time>
      </trkpt>
      <trkpt lat="49.39841" lon="2.87012">
        <ele>50.13</ele>
        <time>2021-07-27T17:19:32Z</time>
      </trkpt>
      <trkpt lat="49.39898" lon="2.86764">
        <ele>51.57</ele>
        <time>2021-07-27T17:19:42Z</time>
      </trkpt>
      <trkpt lat="49.40007" lon="2.86283">
        <ele>54.45</ele>
        <time>2021-07-27T17:19:58Z</time>
      </trkpt>
      <trkpt lat="49.40148" lon="2.8565">
        <ele>52.05</ele>
        <time>2021-07-27T17:20:20Z</time>
      </trkpt>
      <trkpt lat="49.40268" lon="2.85114">
        <ele>53.49</ele>
        <time>2021-07-27T17:20:38Z</time>
      </trkpt>
      <trkpt lat="49.40371" lon="2.84648">
        <ele>56.86</ele>
        <time>2021-07-27T17:20:55Z</time>
      </trkpt>
      <trkpt lat="49.40437" lon="2.84358">
        <ele>53.49</ele>
        <time>2021-07-27T17:21:06Z</time>
      </trkpt>
      <trkpt lat="49.40499" lon="2.84078">
        <ele>53.49</ele>
        <time>2021-07-27T17:21:18Z</time>
      </trkpt>
      <trkpt lat="49.40539" lon="2.83899">
        <ele>51.57</ele>
        <time>2021-07-27T17:21:28Z</time>
      </trkpt>
      <trkpt lat="49.40552" lon="2.83832">
        <ele>52.53</ele>
        <time>2021-07-27T17:21:33Z</time>
      </trkpt>
      <trkpt lat="49.40554" lon="2.83823">
        <ele>53.01</ele>
        <time>2021-07-27T17:21:34Z</time>
      </trkpt>
      <trkpt lat="49.40566" lon="2.8381">
        <ele>53.01</ele>
        <time>2021-07-27T17:21:35Z</time>
      </trkpt>
      <trkpt lat="49.4063" lon="2.83738">
        <ele>53.49</ele>
        <time>2021-07-27T17:21:46Z</time>
      </trkpt>
      <trkpt lat="49.40791" lon="2.83598">
        <ele>52.53</ele>
        <time>2021-07-27T17:22:04Z</time>
      </trkpt>
      <trkpt lat="49.40884" lon="2.83517">
        <ele>53.49</ele>
        <time>2021-07-27T17:22:17Z</time>
      </trkpt>
      <trkpt lat="49.4094" lon="2.83467">
        <ele>52.53</ele>
        <time>2021-07-27T17:22:26Z</time>
      </trkpt>
      <trkpt lat="49.40946" lon="2.83461">
        <ele>53.01</ele>
        <time>2021-07-27T17:22:37Z</time>
      </trkpt>
      <trkpt lat="49.40966" lon="2.8344">
        <ele>52.53</ele>
        <time>2021-07-27T17:22:54Z</time>
      </trkpt>
      <trkpt lat="49.41027" lon="2.83369">
        <ele>49.65</ele>
        <time>2021-07-27T17:23:04Z</time>
      </trkpt>
      <trkpt lat="49.41097" lon="2.83285">
        <ele>50.13</ele>
        <time>2021-07-27T17:23:14Z</time>
      </trkpt>
      <trkpt lat="49.41137" lon="2.83239">
        <ele>50.61</ele>
        <time>2021-07-27T17:23:25Z</time>
      </trkpt>
      <trkpt lat="49.4122" lon="2.83149">
        <ele>50.13</ele>
        <time>2021-07-27T17:23:38Z</time>
      </trkpt>
      <trkpt lat="49.41292" lon="2.83074">
        <ele>49.16</ele>
        <time>2021-07-27T17:23:49Z</time>
      </trkpt>
      <trkpt lat="49.41359" lon="2.83004">
        <ele>48.68</ele>
        <time>2021-07-27T17:24:02Z</time>
      </trkpt>
      <trkpt lat="49.4137" lon="2.82991">
        <ele>48.68</ele>
        <time>2021-07-27T17:24:04Z</time>
      </trkpt>
      <trkpt lat="49.41379" lon="2.8298">
        <ele>49.16</ele>
        <time>2021-07-27T17:24:06Z</time>
      </trkpt>
      <trkpt lat="49.41387" lon="2.82971">
        <ele>49.16</ele>
        <time>2021-07-27T17:24:07Z</time>
      </trkpt>
      <trkpt lat="49.41391" lon="2.82967">
        <ele>49.16</ele>
        <time>2021-07-27T17:24:08Z</time>
      </trkpt>
      <trkpt lat="49.41394" lon="2.82963">
        <ele>49.16</ele>
        <time>2021-07-27T17:24:09Z</time>
      </trkpt>
      <trkpt lat="49.41398" lon="2.82959">
        <ele>48.68</ele>
        <time>2021-07-27T17:24:10Z</time>
      </trkpt>
      <trkpt lat="49.41448" lon="2.829">
        <ele>46.76</ele>
        <time>2021-07-27T17:24:22Z</time>
      </trkpt>
      <trkpt lat="49.41457" lon="2.82889">
        <ele>46.76</ele>
        <time>2021-07-27T17:24:29Z</time>
      </trkpt>
      <trkpt lat="49.41469" lon="2.82876">
        <ele>46.76</ele>
        <time>2021-07-27T17:24:37Z</time>
      </trkpt>
      <trkpt lat="49.41481" lon="2.82868">
        <ele>46.76</ele>
        <time>2021-07-27T17:24:43Z</time>
      </trkpt>
      <trkpt lat="49.41483" lon="2.82872">
        <ele>46.28</ele>
        <time>2021-07-27T17:24:44Z</time>
      </trkpt>
      <trkpt lat="49.41486" lon="2.82877">
        <ele>46.28</ele>
        <time>2021-07-27T17:24:45Z</time>
      </trkpt>
      <trkpt lat="49.41488" lon="2.82882">
        <ele>45.8</ele>
        <time>2021-07-27T17:24:46Z</time>
      </trkpt>
      <trkpt lat="49.41491" lon="2.82887">
        <ele>45.8</ele>
        <time>2021-07-27T17:24:47Z</time>
      </trkpt>
      <trkpt lat="49.41494" lon="2.82893">
        <ele>45.8</ele>
        <time>2021-07-27T17:24:48Z</time>
      </trkpt>
      <trkpt lat="49.41543" lon="2.82987">
        <ele>45.8</ele>
        <time>2021-07-27T17:24:58Z</time>
      </trkpt>
      <trkpt lat="49.4156" lon="2.8301">
        <ele>45.32</ele>
        <time>2021-07-27T17:25:03Z</time>
      </trkpt>
      <trkpt lat="49.4156" lon="2.8301">
        <ele>45.32</ele>
        <time>2021-07-27T17:25:04Z</time>
      </trkpt>
      <trkpt lat="49.41564" lon="2.83013">
        <ele>44.84</ele>
        <time>2021-07-27T17:25:05Z</time>
      </trkpt>
      <trkpt lat="49.41567" lon="2.83016">
        <ele>44.84</ele>
        <time>2021-07-27T17:25:06Z</time>
      </trkpt>
      <trkpt lat="49.41571" lon="2.8302">
        <ele>44.84</ele>
        <time>2021-07-27T17:25:07Z</time>
      </trkpt>
      <trkpt lat="49.41589" lon="2.83031">
        <ele>43.88</ele>
        <time>2021-07-27T17:25:16Z</time>
      </trkpt>
      <trkpt lat="49.41635" lon="2.83057">
        <ele>44.84</ele>
        <time>2021-07-27T17:25:25Z</time>
      </trkpt>
      <trkpt lat="49.41708" lon="2.83105">
        <ele>45.32</ele>
        <time>2021-07-27T17:25:35Z</time>
      </trkpt>
      <trkpt lat="49.41713" lon="2.83104">
        <ele>45.8</ele>
        <time>2021-07-27T17:25:36Z</time>
      </trkpt>
      <trkpt lat="49.41718" lon="2.83103">
        <ele>45.8</ele>
        <time>2021-07-27T17:25:37Z</time>
      </trkpt>
      <trkpt lat="49.41723" lon="2.83102">
        <ele>45.8</ele>
        <time>2021-07-27T17:25:38Z</time>
      </trkpt>
      <trkpt lat="49.41728" lon="2.83101">
        <ele>45.8</ele>
        <time>2021-07-27T17:25:39Z</time>
      </trkpt>
      <trkpt lat="49.41779" lon="2.83064">
        <ele>48.68</ele>
        <time>2021-07-27T17:25:52Z</time>
      </trkpt>
    </trkseg>
  </trk>
  <trk>
    <name><![CDATA[Journal actif: 2021-07-27 15:44]]></name>
    <trkseg>
      <trkpt lat="49.41792" lon="2.8293">
        <ele>58.78</ele>
        <time>2021-07-27T17:44:58Z</time>
      </trkpt>
      <trkpt lat="49.41793" lon="2.82927">
        <ele>58.3</ele>
        <time>2021-07-27T17:45:30Z</time>
      </trkpt>
      <trkpt lat="49.41794" lon="2.82925">
        <ele>58.3</ele>
        <time>2021-07-27T17:46:16Z</time>
      </trkpt>
      <trkpt lat="49.41794" lon="2.82922">
        <ele>57.34</ele>
        <time>2021-07-27T17:46:52Z</time>
      </trkpt>
      <trkpt lat="49.41794" lon="2.82921">
        <ele>55.41</ele>
        <time>2021-07-27T17:47:41Z</time>
      </trkpt>
      <trkpt lat="49.41794" lon="2.82919">
        <ele>53.49</ele>
        <time>2021-07-27T17:48:37Z</time>
      </trkpt>
      <trkpt lat="49.41794" lon="2.82919">
        <ele>53.49</ele>
        <time>2021-07-27T17:49:43Z</time>
      </trkpt>
      <trkpt lat="49.41795" lon="2.82918">
        <ele>53.01</ele>
        <time>2021-07-27T17:50:34Z</time>
      </trkpt>
      <trkpt lat="49.41795" lon="2.82918">
        <ele>53.01</ele>
        <time>2021-07-27T17:51:44Z</time>
      </trkpt>
      <trkpt lat="49.41794" lon="2.82919">
        <ele>52.53</ele>
        <time>2021-07-27T17:53:06Z</time>
      </trkpt>
    </trkseg>
  </trk>
  <trk>
    <name><![CDATA[Journal actif: 2021-07-27 15:54]]></name>
    <trkseg>
      <trkpt lat="49.41794" lon="2.8292">
        <ele>52.53</ele>
        <time>2021-07-27T17:54:34Z</time>
      </trkpt>
      <trkpt lat="49.41794" lon="2.8292">
        <ele>52.53</ele>
        <time>2021-07-27T17:55:25Z</time>
      </trkpt>
      <trkpt lat="49.41794" lon="2.8292">
        <ele>51.09</ele>
        <time>2021-07-27T17:56:20Z</time>
      </trkpt>
      <trkpt lat="49.41786" lon="2.8291">
        <ele>50.13</ele>
        <time>2021-07-27T17:57:00Z</time>
      </trkpt>
      <trkpt lat="49.41764" lon="2.82838">
        <ele>48.2</ele>
        <time>2021-07-27T17:57:15Z</time>
      </trkpt>
      <trkpt lat="49.41726" lon="2.8274">
        <ele>47.72</ele>
        <time>2021-07-27T17:57:30Z</time>
      </trkpt>
      <trkpt lat="49.41702" lon="2.82672">
        <ele>45.32</ele>
        <time>2021-07-27T17:57:41Z</time>
      </trkpt>
      <trkpt lat="49.41705" lon="2.82645">
        <ele>45.32</ele>
        <time>2021-07-27T17:58:13Z</time>
      </trkpt>
      <trkpt lat="49.41742" lon="2.82619">
        <ele>44.84</ele>
        <time>2021-07-27T17:58:25Z</time>
      </trkpt>
      <trkpt lat="49.41755" lon="2.82607">
        <ele>44.36</ele>
        <time>2021-07-27T17:58:36Z</time>
      </trkpt>
      <trkpt lat="49.41762" lon="2.82589">
        <ele>44.36</ele>
        <time>2021-07-27T17:58:47Z</time>
      </trkpt>
      <trkpt lat="49.41762" lon="2.82584">
        <ele>44.36</ele>
        <time>2021-07-27T17:58:48Z</time>
      </trkpt>
      <trkpt lat="49.41758" lon="2.82572">
        <ele>44.36</ele>
        <time>2021-07-27T17:58:49Z</time>
      </trkpt>
      <trkpt lat="49.41757" lon="2.82522">
        <ele>44.36</ele>
        <time>2021-07-27T17:59:00Z</time>
      </trkpt>
      <trkpt lat="49.41761" lon="2.8252">
        <ele>44.36</ele>
        <time>2021-07-27T17:59:01Z</time>
      </trkpt>
      <trkpt lat="49.41765" lon="2.82518">
        <ele>43.88</ele>
        <time>2021-07-27T17:59:02Z</time>
      </trkpt>
      <trkpt lat="49.41772" lon="2.82518">
        <ele>43.88</ele>
        <time>2021-07-27T17:59:03Z</time>
      </trkpt>
      <trkpt lat="49.41772" lon="2.82518">
        <ele>43.4</ele>
        <time>2021-07-27T17:59:04Z</time>
      </trkpt>
      <trkpt lat="49.41779" lon="2.82524">
        <ele>43.4</ele>
        <time>2021-07-27T17:59:05Z</time>
      </trkpt>
      <trkpt lat="49.41779" lon="2.82524">
        <ele>43.4</ele>
        <time>2021-07-27T17:59:06Z</time>
      </trkpt>
      <trkpt lat="49.41781" lon="2.82529">
        <ele>43.4</ele>
        <time>2021-07-27T17:59:07Z</time>
      </trkpt>
      <trkpt lat="49.41786" lon="2.82541">
        <ele>42.92</ele>
        <time>2021-07-27T17:59:17Z</time>
      </trkpt>
      <trkpt lat="49.41801" lon="2.82548">
        <ele>42.44</ele>
        <time>2021-07-27T17:59:52Z</time>
      </trkpt>
      <trkpt lat="49.41867" lon="2.82475">
        <ele>38.59</ele>
        <time>2021-07-27T18:00:09Z</time>
      </trkpt>
      <trkpt lat="49.4188" lon="2.82462">
        <ele>38.11</ele>
        <time>2021-07-27T18:00:20Z</time>
      </trkpt>
      <trkpt lat="49.419" lon="2.82443">
        <ele>37.63</ele>
        <time>2021-07-27T18:00:42Z</time>
      </trkpt>
      <trkpt lat="49.41911" lon="2.8243">
        <ele>37.63</ele>
        <time>2021-07-27T18:00:51Z</time>
      </trkpt>
      <trkpt lat="49.41959" lon="2.82385">
        <ele>38.59</ele>
        <time>2021-07-27T18:01:04Z</time>
      </trkpt>
      <trkpt lat="49.41961" lon="2.82389">
        <ele>38.59</ele>
        <time>2021-07-27T18:01:05Z</time>
      </trkpt>
      <trkpt lat="49.41961" lon="2.82389">
        <ele>38.59</ele>
        <time>2021-07-27T18:01:06Z</time>
      </trkpt>
      <trkpt lat="49.41964" lon="2.82394">
        <ele>38.59</ele>
        <time>2021-07-27T18:01:07Z</time>
      </trkpt>
      <trkpt lat="49.41967" lon="2.824">
        <ele>38.59</ele>
        <time>2021-07-27T18:01:08Z</time>
      </trkpt>
      <trkpt lat="49.41998" lon="2.82466">
        <ele>38.11</ele>
        <time>2021-07-27T18:01:18Z</time>
      </trkpt>
      <trkpt lat="49.4207" lon="2.82619">
        <ele>37.63</ele>
        <time>2021-07-27T18:01:35Z</time>
      </trkpt>
      <trkpt lat="49.42142" lon="2.82771">
        <ele>36.67</ele>
        <time>2021-07-27T18:01:50Z</time>
      </trkpt>
      <trkpt lat="49.42202" lon="2.82897">
        <ele>38.11</ele>
        <time>2021-07-27T18:02:04Z</time>
      </trkpt>
      <trkpt lat="49.42251" lon="2.83002">
        <ele>38.11</ele>
        <time>2021-07-27T18:02:14Z</time>
      </trkpt>
      <trkpt lat="49.42316" lon="2.83147">
        <ele>36.19</ele>
        <time>2021-07-27T18:02:24Z</time>
      </trkpt>
      <trkpt lat="49.42321" lon="2.83161">
        <ele>35.71</ele>
        <time>2021-07-27T18:02:25Z</time>
      </trkpt>
      <trkpt lat="49.42323" lon="2.83176">
        <ele>35.23</ele>
        <time>2021-07-27T18:02:26Z</time>
      </trkpt>
      <trkpt lat="49.42326" lon="2.83192">
        <ele>35.71</ele>
        <time>2021-07-27T18:02:27Z</time>
      </trkpt>
      <trkpt lat="49.42328" lon="2.83204">
        <ele>37.15</ele>
        <time>2021-07-27T18:02:28Z</time>
      </trkpt>
      <trkpt lat="49.42329" lon="2.83215">
        <ele>37.63</ele>
        <time>2021-07-27T18:02:29Z</time>
      </trkpt>
      <trkpt lat="49.42329" lon="2.83225">
        <ele>39.07</ele>
        <time>2021-07-27T18:02:30Z</time>
      </trkpt>
      <trkpt lat="49.42329" lon="2.83232">
        <ele>39.07</ele>
        <time>2021-07-27T18:02:31Z</time>
      </trkpt>
      <trkpt lat="49.42327" lon="2.83242">
        <ele>39.07</ele>
        <time>2021-07-27T18:02:32Z</time>
      </trkpt>
      <trkpt lat="49.42326" lon="2.83248">
        <ele>39.07</ele>
        <time>2021-07-27T18:02:33Z</time>
      </trkpt>
      <trkpt lat="49.42326" lon="2.83253">
        <ele>38.59</ele>
        <time>2021-07-27T18:02:34Z</time>
      </trkpt>
      <trkpt lat="49.42341" lon="2.83261">
        <ele>38.11</ele>
        <time>2021-07-27T18:02:35Z</time>
      </trkpt>
      <trkpt lat="49.42341" lon="2.83261">
        <ele>37.63</ele>
        <time>2021-07-27T18:02:36Z</time>
      </trkpt>
      <trkpt lat="49.42352" lon="2.83257">
        <ele>37.15</ele>
        <time>2021-07-27T18:02:37Z</time>
      </trkpt>
      <trkpt lat="49.42352" lon="2.83257">
        <ele>36.67</ele>
        <time>2021-07-27T18:02:38Z</time>
      </trkpt>
      <trkpt lat="49.42357" lon="2.83253">
        <ele>36.67</ele>
        <time>2021-07-27T18:02:39Z</time>
      </trkpt>
      <trkpt lat="49.42366" lon="2.83251">
        <ele>36.67</ele>
        <time>2021-07-27T18:02:40Z</time>
      </trkpt>
      <trkpt lat="49.42446" lon="2.83275">
        <ele>36.67</ele>
        <time>2021-07-27T18:02:50Z</time>
      </trkpt>
      <trkpt lat="49.42456" lon="2.83278">
        <ele>36.67</ele>
        <time>2021-07-27T18:02:51Z</time>
      </trkpt>
      <trkpt lat="49.42465" lon="2.83287">
        <ele>36.67</ele>
        <time>2021-07-27T18:02:52Z</time>
      </trkpt>
      <trkpt lat="49.42473" lon="2.83294">
        <ele>36.67</ele>
        <time>2021-07-27T18:02:53Z</time>
      </trkpt>
      <trkpt lat="49.42482" lon="2.83302">
        <ele>36.19</ele>
        <time>2021-07-27T18:02:54Z</time>
      </trkpt>
      <trkpt lat="49.42555" lon="2.83369">
        <ele>37.15</ele>
        <time>2021-07-27T18:03:04Z</time>
      </trkpt>
      <trkpt lat="49.42608" lon="2.83456">
        <ele>35.71</ele>
        <time>2021-07-27T18:03:13Z</time>
      </trkpt>
      <trkpt lat="49.42613" lon="2.83465">
        <ele>35.71</ele>
        <time>2021-07-27T18:03:15Z</time>
      </trkpt>
      <trkpt lat="49.42659" lon="2.8352">
        <ele>36.19</ele>
        <time>2021-07-27T18:03:22Z</time>
      </trkpt>
      <trkpt lat="49.42705" lon="2.83581">
        <ele>35.71</ele>
        <time>2021-07-27T18:03:31Z</time>
      </trkpt>
      <trkpt lat="49.42766" lon="2.83644">
        <ele>33.78</ele>
        <time>2021-07-27T18:03:41Z</time>
      </trkpt>
      <trkpt lat="49.42871" lon="2.83745">
        <ele>35.23</ele>
        <time>2021-07-27T18:03:54Z</time>
      </trkpt>
      <trkpt lat="49.42874" lon="2.83749">
        <ele>35.71</ele>
        <time>2021-07-27T18:03:56Z</time>
      </trkpt>
      <trkpt lat="49.42872" lon="2.83757">
        <ele>34.74</ele>
        <time>2021-07-27T18:03:57Z</time>
      </trkpt>
      <trkpt lat="49.42872" lon="2.83757">
        <ele>34.74</ele>
        <time>2021-07-27T18:03:58Z</time>
      </trkpt>
      <trkpt lat="49.42869" lon="2.83762">
        <ele>34.26</ele>
        <time>2021-07-27T18:03:59Z</time>
      </trkpt>
      <trkpt lat="49.42866" lon="2.83768">
        <ele>33.78</ele>
        <time>2021-07-27T18:04:00Z</time>
      </trkpt>
      <trkpt lat="49.42865" lon="2.83772">
        <ele>33.78</ele>
        <time>2021-07-27T18:04:01Z</time>
      </trkpt>
      <trkpt lat="49.42863" lon="2.83774">
        <ele>33.78</ele>
        <time>2021-07-27T18:04:02Z</time>
      </trkpt>
      <trkpt lat="49.42862" lon="2.83777">
        <ele>33.3</ele>
        <time>2021-07-27T18:04:03Z</time>
      </trkpt>
      <trkpt lat="49.42846" lon="2.83808">
        <ele>32.34</ele>
        <time>2021-07-27T18:04:15Z</time>
      </trkpt>
      <trkpt lat="49.42846" lon="2.83808">
        <ele>32.82</ele>
        <time>2021-07-27T18:04:22Z</time>
      </trkpt>
      <trkpt lat="49.42841" lon="2.83808">
        <ele>32.82</ele>
        <time>2021-07-27T18:04:23Z</time>
      </trkpt>
      <trkpt lat="49.4284" lon="2.83805">
        <ele>32.82</ele>
        <time>2021-07-27T18:04:24Z</time>
      </trkpt>
      <trkpt lat="49.42815" lon="2.83763">
        <ele>31.86</ele>
        <time>2021-07-27T18:04:34Z</time>
      </trkpt>
      <trkpt lat="49.42773" lon="2.83691">
        <ele>31.86</ele>
        <time>2021-07-27T18:04:47Z</time>
      </trkpt>
      <trkpt lat="49.42762" lon="2.83672">
        <ele>31.38</ele>
        <time>2021-07-27T18:04:50Z</time>
      </trkpt>
      <trkpt lat="49.42758" lon="2.83661">
        <ele>31.38</ele>
        <time>2021-07-27T18:04:51Z</time>
      </trkpt>
      <trkpt lat="49.42758" lon="2.83661">
        <ele>31.38</ele>
        <time>2021-07-27T18:04:52Z</time>
      </trkpt>
      <trkpt lat="49.42759" lon="2.83656">
        <ele>31.38</ele>
        <time>2021-07-27T18:04:53Z</time>
      </trkpt>
      <trkpt lat="49.4276" lon="2.83652">
        <ele>31.38</ele>
        <time>2021-07-27T18:04:54Z</time>
      </trkpt>
      <trkpt lat="49.42762" lon="2.83642">
        <ele>31.38</ele>
        <time>2021-07-27T18:05:02Z</time>
      </trkpt>
      <trkpt lat="49.42757" lon="2.83636">
        <ele>30.9</ele>
        <time>2021-07-27T18:05:03Z</time>
      </trkpt>
      <trkpt lat="49.42753" lon="2.83632">
        <ele>30.9</ele>
        <time>2021-07-27T18:05:04Z</time>
      </trkpt>
      <trkpt lat="49.42749" lon="2.83628">
        <ele>30.9</ele>
        <time>2021-07-27T18:05:05Z</time>
      </trkpt>
      <trkpt lat="49.42739" lon="2.83618">
        <ele>30.42</ele>
        <time>2021-07-27T18:05:06Z</time>
      </trkpt>
      <trkpt lat="49.42684" lon="2.83553">
        <ele>29.46</ele>
        <time>2021-07-27T18:05:16Z</time>
      </trkpt>
      <trkpt lat="49.42656" lon="2.83515">
        <ele>30.42</ele>
        <time>2021-07-27T18:05:20Z</time>
      </trkpt>
      <trkpt lat="49.42647" lon="2.83504">
        <ele>30.42</ele>
        <time>2021-07-27T18:05:21Z</time>
      </trkpt>
      <trkpt lat="49.42619" lon="2.83472">
        <ele>30.42</ele>
        <time>2021-07-27T18:05:25Z</time>
      </trkpt>
      <trkpt lat="49.42564" lon="2.83379">
        <ele>31.38</ele>
        <time>2021-07-27T18:05:34Z</time>
      </trkpt>
      <trkpt lat="49.42556" lon="2.8337">
        <ele>31.38</ele>
        <time>2021-07-27T18:05:35Z</time>
      </trkpt>
      <trkpt lat="49.42548" lon="2.8336">
        <ele>32.34</ele>
        <time>2021-07-27T18:05:36Z</time>
      </trkpt>
      <trkpt lat="49.42459" lon="2.83281">
        <ele>33.3</ele>
        <time>2021-07-27T18:05:46Z</time>
      </trkpt>
      <trkpt lat="49.42449" lon="2.83276">
        <ele>33.3</ele>
        <time>2021-07-27T18:05:47Z</time>
      </trkpt>
      <trkpt lat="49.42439" lon="2.83273">
        <ele>34.74</ele>
        <time>2021-07-27T18:05:48Z</time>
      </trkpt>
      <trkpt lat="49.42371" lon="2.83252">
        <ele>33.3</ele>
        <time>2021-07-27T18:05:55Z</time>
      </trkpt>
      <trkpt lat="49.42364" lon="2.8325">
        <ele>32.82</ele>
        <time>2021-07-27T18:05:56Z</time>
      </trkpt>
      <trkpt lat="49.42359" lon="2.83247">
        <ele>32.82</ele>
        <time>2021-07-27T18:05:57Z</time>
      </trkpt>
      <trkpt lat="49.42339" lon="2.83235">
        <ele>33.78</ele>
        <time>2021-07-27T18:06:05Z</time>
      </trkpt>
      <trkpt lat="49.4233" lon="2.83235">
        <ele>34.26</ele>
        <time>2021-07-27T18:06:10Z</time>
      </trkpt>
      <trkpt lat="49.4233" lon="2.83235">
        <ele>33.78</ele>
        <time>2021-07-27T18:06:11Z</time>
      </trkpt>
      <trkpt lat="49.42328" lon="2.83238">
        <ele>33.78</ele>
        <time>2021-07-27T18:06:12Z</time>
      </trkpt>
      <trkpt lat="49.42327" lon="2.83245">
        <ele>33.3</ele>
        <time>2021-07-27T18:06:13Z</time>
      </trkpt>
      <trkpt lat="49.42326" lon="2.83252">
        <ele>33.3</ele>
        <time>2021-07-27T18:06:14Z</time>
      </trkpt>
      <trkpt lat="49.42324" lon="2.8326">
        <ele>33.3</ele>
        <time>2021-07-27T18:06:15Z</time>
      </trkpt>
      <trkpt lat="49.42323" lon="2.83269">
        <ele>32.82</ele>
        <time>2021-07-27T18:06:16Z</time>
      </trkpt>
      <trkpt lat="49.42293" lon="2.8339">
        <ele>30.9</ele>
        <time>2021-07-27T18:06:28Z</time>
      </trkpt>
      <trkpt lat="49.42249" lon="2.8357">
        <ele>31.86</ele>
        <time>2021-07-27T18:06:40Z</time>
      </trkpt>
      <trkpt lat="49.42236" lon="2.83627">
        <ele>34.74</ele>
        <time>2021-07-27T18:06:47Z</time>
      </trkpt>
      <trkpt lat="49.42233" lon="2.83641">
        <ele>36.67</ele>
        <time>2021-07-27T18:06:57Z</time>
      </trkpt>
      <trkpt lat="49.42222" lon="2.83678">
        <ele>38.11</ele>
        <time>2021-07-27T18:07:06Z</time>
      </trkpt>
      <trkpt lat="49.42197" lon="2.83782">
        <ele>34.74</ele>
        <time>2021-07-27T18:07:14Z</time>
      </trkpt>
      <trkpt lat="49.42148" lon="2.83985">
        <ele>32.82</ele>
        <time>2021-07-27T18:07:25Z</time>
      </trkpt>
      <trkpt lat="49.42146" lon="2.84002">
        <ele>33.78</ele>
        <time>2021-07-27T18:07:26Z</time>
      </trkpt>
      <trkpt lat="49.42145" lon="2.84039">
        <ele>34.74</ele>
        <time>2021-07-27T18:07:27Z</time>
      </trkpt>
      <trkpt lat="49.42145" lon="2.84057">
        <ele>33.78</ele>
        <time>2021-07-27T18:07:28Z</time>
      </trkpt>
      <trkpt lat="49.42146" lon="2.84077">
        <ele>33.3</ele>
        <time>2021-07-27T18:07:29Z</time>
      </trkpt>
      <trkpt lat="49.42146" lon="2.84077">
        <ele>33.3</ele>
        <time>2021-07-27T18:07:30Z</time>
      </trkpt>
      <trkpt lat="49.42181" lon="2.84371">
        <ele>34.26</ele>
        <time>2021-07-27T18:07:43Z</time>
      </trkpt>
      <trkpt lat="49.42223" lon="2.84734">
        <ele>35.23</ele>
        <time>2021-07-27T18:08:00Z</time>
      </trkpt>
      <trkpt lat="49.42249" lon="2.84947">
        <ele>37.63</ele>
        <time>2021-07-27T18:08:10Z</time>
      </trkpt>
      <trkpt lat="49.4228" lon="2.85193">
        <ele>33.78</ele>
        <time>2021-07-27T18:08:22Z</time>
      </trkpt>
      <trkpt lat="49.42314" lon="2.85483">
        <ele>34.74</ele>
        <time>2021-07-27T18:08:35Z</time>
      </trkpt>
      <trkpt lat="49.42352" lon="2.85793">
        <ele>32.82</ele>
        <time>2021-07-27T18:08:47Z</time>
      </trkpt>
      <trkpt lat="49.42403" lon="2.86214">
        <ele>29.46</ele>
        <time>2021-07-27T18:09:01Z</time>
      </trkpt>
      <trkpt lat="49.42441" lon="2.86542">
        <ele>31.38</ele>
        <time>2021-07-27T18:09:12Z</time>
      </trkpt>
      <trkpt lat="49.42489" lon="2.86933">
        <ele>31.38</ele>
        <time>2021-07-27T18:09:26Z</time>
      </trkpt>
      <trkpt lat="49.42538" lon="2.8733">
        <ele>31.38</ele>
        <time>2021-07-27T18:09:40Z</time>
      </trkpt>
      <trkpt lat="49.42558" lon="2.87513">
        <ele>32.82</ele>
        <time>2021-07-27T18:09:48Z</time>
      </trkpt>
      <trkpt lat="49.42564" lon="2.87594">
        <ele>33.3</ele>
        <time>2021-07-27T18:09:54Z</time>
      </trkpt>
      <trkpt lat="49.42564" lon="2.87594">
        <ele>33.3</ele>
        <time>2021-07-27T18:09:55Z</time>
      </trkpt>
      <trkpt lat="49.42546" lon="2.87626">
        <ele>33.3</ele>
        <time>2021-07-27T18:09:58Z</time>
      </trkpt>
      <trkpt lat="49.42545" lon="2.87637">
        <ele>32.82</ele>
        <time>2021-07-27T18:09:59Z</time>
      </trkpt>
      <trkpt lat="49.42545" lon="2.87646">
        <ele>32.82</ele>
        <time>2021-07-27T18:10:00Z</time>
      </trkpt>
      <trkpt lat="49.42549" lon="2.87657">
        <ele>32.34</ele>
        <time>2021-07-27T18:10:01Z</time>
      </trkpt>
      <trkpt lat="49.42553" lon="2.87663">
        <ele>32.34</ele>
        <time>2021-07-27T18:10:02Z</time>
      </trkpt>
      <trkpt lat="49.42553" lon="2.87663">
        <ele>32.34</ele>
        <time>2021-07-27T18:10:03Z</time>
      </trkpt>
      <trkpt lat="49.42556" lon="2.87668">
        <ele>32.34</ele>
        <time>2021-07-27T18:10:04Z</time>
      </trkpt>
      <trkpt lat="49.42556" lon="2.87668">
        <ele>32.82</ele>
        <time>2021-07-27T18:10:05Z</time>
      </trkpt>
      <trkpt lat="49.42573" lon="2.87696">
        <ele>32.82</ele>
        <time>2021-07-27T18:10:06Z</time>
      </trkpt>
      <trkpt lat="49.42573" lon="2.87708">
        <ele>32.82</ele>
        <time>2021-07-27T18:10:07Z</time>
      </trkpt>
      <trkpt lat="49.42573" lon="2.87708">
        <ele>32.82</ele>
        <time>2021-07-27T18:10:08Z</time>
      </trkpt>
      <trkpt lat="49.42597" lon="2.87891">
        <ele>32.34</ele>
        <time>2021-07-27T18:10:20Z</time>
      </trkpt>
      <trkpt lat="49.42614" lon="2.88057">
        <ele>32.34</ele>
        <time>2021-07-27T18:10:29Z</time>
      </trkpt>
      <trkpt lat="49.42615" lon="2.88097">
        <ele>31.86</ele>
        <time>2021-07-27T18:10:30Z</time>
      </trkpt>
      <trkpt lat="49.42612" lon="2.88117">
        <ele>31.86</ele>
        <time>2021-07-27T18:10:31Z</time>
      </trkpt>
      <trkpt lat="49.42607" lon="2.88136">
        <ele>31.86</ele>
        <time>2021-07-27T18:10:32Z</time>
      </trkpt>
      <trkpt lat="49.42607" lon="2.88136">
        <ele>32.34</ele>
        <time>2021-07-27T18:10:33Z</time>
      </trkpt>
      <trkpt lat="49.42602" lon="2.88156">
        <ele>31.86</ele>
        <time>2021-07-27T18:10:34Z</time>
      </trkpt>
      <trkpt lat="49.42512" lon="2.88462">
        <ele>28.98</ele>
        <time>2021-07-27T18:10:49Z</time>
      </trkpt>
      <trkpt lat="49.42412" lon="2.88782">
        <ele>27.05</ele>
        <time>2021-07-27T18:11:03Z</time>
      </trkpt>
      <trkpt lat="49.42274" lon="2.8923">
        <ele>30.42</ele>
        <time>2021-07-27T18:11:21Z</time>
      </trkpt>
      <trkpt lat="49.42158" lon="2.89617">
        <ele>31.86</ele>
        <time>2021-07-27T18:11:36Z</time>
      </trkpt>
      <trkpt lat="49.42149" lon="2.89802">
        <ele>30.42</ele>
        <time>2021-07-27T18:11:43Z</time>
      </trkpt>
      <trkpt lat="49.42176" lon="2.90088">
        <ele>34.26</ele>
        <time>2021-07-27T18:11:53Z</time>
      </trkpt>
      <trkpt lat="49.42174" lon="2.90118">
        <ele>33.78</ele>
        <time>2021-07-27T18:11:54Z</time>
      </trkpt>
      <trkpt lat="49.42124" lon="2.90346">
        <ele>29.46</ele>
        <time>2021-07-27T18:12:02Z</time>
      </trkpt>
      <trkpt lat="49.42008" lon="2.90626">
        <ele>29.46</ele>
        <time>2021-07-27T18:12:13Z</time>
      </trkpt>
      <trkpt lat="49.41966" lon="2.90685">
        <ele>28.5</ele>
        <time>2021-07-27T18:12:16Z</time>
      </trkpt>
      <trkpt lat="49.41951" lon="2.90704">
        <ele>28.02</ele>
        <time>2021-07-27T18:12:17Z</time>
      </trkpt>
      <trkpt lat="49.4182" lon="2.90803">
        <ele>27.53</ele>
        <time>2021-07-27T18:12:24Z</time>
      </trkpt>
      <trkpt lat="49.41802" lon="2.90821">
        <ele>27.53</ele>
        <time>2021-07-27T18:12:25Z</time>
      </trkpt>
      <trkpt lat="49.41786" lon="2.90842">
        <ele>27.53</ele>
        <time>2021-07-27T18:12:26Z</time>
      </trkpt>
      <trkpt lat="49.41771" lon="2.90867">
        <ele>28.5</ele>
        <time>2021-07-27T18:12:27Z</time>
      </trkpt>
      <trkpt lat="49.41759" lon="2.90893">
        <ele>27.53</ele>
        <time>2021-07-27T18:12:28Z</time>
      </trkpt>
      <trkpt lat="49.41748" lon="2.90923">
        <ele>27.05</ele>
        <time>2021-07-27T18:12:29Z</time>
      </trkpt>
      <trkpt lat="49.41737" lon="2.90953">
        <ele>26.57</ele>
        <time>2021-07-27T18:12:30Z</time>
      </trkpt>
      <trkpt lat="49.41607" lon="2.91359">
        <ele>25.13</ele>
        <time>2021-07-27T18:12:44Z</time>
      </trkpt>
      <trkpt lat="49.41447" lon="2.91872">
        <ele>22.73</ele>
        <time>2021-07-27T18:13:02Z</time>
      </trkpt>
      <trkpt lat="49.41408" lon="2.92048">
        <ele>24.65</ele>
        <time>2021-07-27T18:13:11Z</time>
      </trkpt>
      <trkpt lat="49.41393" lon="2.92148">
        <ele>26.57</ele>
        <time>2021-07-27T18:13:15Z</time>
      </trkpt>
      <trkpt lat="49.41389" lon="2.92164">
        <ele>26.57</ele>
        <time>2021-07-27T18:13:16Z</time>
      </trkpt>
      <trkpt lat="49.41389" lon="2.92164">
        <ele>27.05</ele>
        <time>2021-07-27T18:13:17Z</time>
      </trkpt>
      <trkpt lat="49.41374" lon="2.92189">
        <ele>27.05</ele>
        <time>2021-07-27T18:13:18Z</time>
      </trkpt>
      <trkpt lat="49.41374" lon="2.92189">
        <ele>26.57</ele>
        <time>2021-07-27T18:13:19Z</time>
      </trkpt>
      <trkpt lat="49.41365" lon="2.92196">
        <ele>26.57</ele>
        <time>2021-07-27T18:13:20Z</time>
      </trkpt>
      <trkpt lat="49.41347" lon="2.92218">
        <ele>26.09</ele>
        <time>2021-07-27T18:13:22Z</time>
      </trkpt>
      <trkpt lat="49.41332" lon="2.92247">
        <ele>26.09</ele>
        <time>2021-07-27T18:13:23Z</time>
      </trkpt>
      <trkpt lat="49.41326" lon="2.92264">
        <ele>26.57</ele>
        <time>2021-07-27T18:13:24Z</time>
      </trkpt>
      <trkpt lat="49.41266" lon="2.92456">
        <ele>32.82</ele>
        <time>2021-07-27T18:13:35Z</time>
      </trkpt>
      <trkpt lat="49.4119" lon="2.92734">
        <ele>35.23</ele>
        <time>2021-07-27T18:13:48Z</time>
      </trkpt>
      <trkpt lat="49.41111" lon="2.93017">
        <ele>37.15</ele>
        <time>2021-07-27T18:14:00Z</time>
      </trkpt>
      <trkpt lat="49.41012" lon="2.93392">
        <ele>30.42</ele>
        <time>2021-07-27T18:14:16Z</time>
      </trkpt>
      <trkpt lat="49.40979" lon="2.93485">
        <ele>27.53</ele>
        <time>2021-07-27T18:14:23Z</time>
      </trkpt>
      <trkpt lat="49.40973" lon="2.93504">
        <ele>28.02</ele>
        <time>2021-07-27T18:14:25Z</time>
      </trkpt>
      <trkpt lat="49.40973" lon="2.9351">
        <ele>28.5</ele>
        <time>2021-07-27T18:14:26Z</time>
      </trkpt>
      <trkpt lat="49.40972" lon="2.93511">
        <ele>29.46</ele>
        <time>2021-07-27T18:14:27Z</time>
      </trkpt>
      <trkpt lat="49.40972" lon="2.93511">
        <ele>31.38</ele>
        <time>2021-07-27T18:14:40Z</time>
      </trkpt>
      <trkpt lat="49.40972" lon="2.93511">
        <ele>31.38</ele>
        <time>2021-07-27T18:15:04Z</time>
      </trkpt>
      <trkpt lat="49.40974" lon="2.93514">
        <ele>31.38</ele>
        <time>2021-07-27T18:15:05Z</time>
      </trkpt>
      <trkpt lat="49.40975" lon="2.93526">
        <ele>31.38</ele>
        <time>2021-07-27T18:15:06Z</time>
      </trkpt>
      <trkpt lat="49.40974" lon="2.93531">
        <ele>31.38</ele>
        <time>2021-07-27T18:15:07Z</time>
      </trkpt>
      <trkpt lat="49.40972" lon="2.93538">
        <ele>30.9</ele>
        <time>2021-07-27T18:15:08Z</time>
      </trkpt>
      <trkpt lat="49.40941" lon="2.9365">
        <ele>29.46</ele>
        <time>2021-07-27T18:15:16Z</time>
      </trkpt>
      <trkpt lat="49.40889" lon="2.93843">
        <ele>26.09</ele>
        <time>2021-07-27T18:15:27Z</time>
      </trkpt>
      <trkpt lat="49.40801" lon="2.9417">
        <ele>22.73</ele>
        <time>2021-07-27T18:15:41Z</time>
      </trkpt>
      <trkpt lat="49.4071" lon="2.94509">
        <ele>23.69</ele>
        <time>2021-07-27T18:15:54Z</time>
      </trkpt>
      <trkpt lat="49.4061" lon="2.94885">
        <ele>27.53</ele>
        <time>2021-07-27T18:16:08Z</time>
      </trkpt>
      <trkpt lat="49.40489" lon="2.95336">
        <ele>27.05</ele>
        <time>2021-07-27T18:16:25Z</time>
      </trkpt>
      <trkpt lat="49.40321" lon="2.95963">
        <ele>32.34</ele>
        <time>2021-07-27T18:16:49Z</time>
      </trkpt>
      <trkpt lat="49.40236" lon="2.96272">
        <ele>33.3</ele>
        <time>2021-07-27T18:17:01Z</time>
      </trkpt>
      <trkpt lat="49.40219" lon="2.96368">
        <ele>34.74</ele>
        <time>2021-07-27T18:17:07Z</time>
      </trkpt>
      <trkpt lat="49.40219" lon="2.96385">
        <ele>34.74</ele>
        <time>2021-07-27T18:17:08Z</time>
      </trkpt>
      <trkpt lat="49.40223" lon="2.96418">
        <ele>34.74</ele>
        <time>2021-07-27T18:17:09Z</time>
      </trkpt>
      <trkpt lat="49.40262" lon="2.96732">
        <ele>35.71</ele>
        <time>2021-07-27T18:17:28Z</time>
      </trkpt>
      <trkpt lat="49.40251" lon="2.96937">
        <ele>39.55</ele>
        <time>2021-07-27T18:17:40Z</time>
      </trkpt>
      <trkpt lat="49.40237" lon="2.9724">
        <ele>40.51</ele>
        <time>2021-07-27T18:17:57Z</time>
      </trkpt>
      <trkpt lat="49.4022" lon="2.97639">
        <ele>42.44</ele>
        <time>2021-07-27T18:18:18Z</time>
      </trkpt>
      <trkpt lat="49.402" lon="2.9804">
        <ele>42.92</ele>
        <time>2021-07-27T18:18:39Z</time>
      </trkpt>
      <trkpt lat="49.40179" lon="2.98501">
        <ele>40.03</ele>
        <time>2021-07-27T18:19:03Z</time>
      </trkpt>
      <trkpt lat="49.40161" lon="2.98886">
        <ele>44.84</ele>
        <time>2021-07-27T18:19:24Z</time>
      </trkpt>
      <trkpt lat="49.40161" lon="2.99001">
        <ele>43.4</ele>
        <time>2021-07-27T18:19:30Z</time>
      </trkpt>
      <trkpt lat="49.40221" lon="2.99289">
        <ele>39.07</ele>
        <time>2021-07-27T18:19:46Z</time>
      </trkpt>
      <trkpt lat="49.40221" lon="2.99344">
        <ele>37.63</ele>
        <time>2021-07-27T18:19:50Z</time>
      </trkpt>
      <trkpt lat="49.40228" lon="2.99358">
        <ele>38.11</ele>
        <time>2021-07-27T18:19:51Z</time>
      </trkpt>
      <trkpt lat="49.40239" lon="2.99361">
        <ele>38.11</ele>
        <time>2021-07-27T18:19:52Z</time>
      </trkpt>
      <trkpt lat="49.40242" lon="2.99372">
        <ele>38.11</ele>
        <time>2021-07-27T18:19:53Z</time>
      </trkpt>
      <trkpt lat="49.40244" lon="2.99385">
        <ele>38.11</ele>
        <time>2021-07-27T18:19:54Z</time>
      </trkpt>
      <trkpt lat="49.40246" lon="2.99397">
        <ele>38.11</ele>
        <time>2021-07-27T18:19:55Z</time>
      </trkpt>
      <trkpt lat="49.40286" lon="2.99602">
        <ele>36.67</ele>
        <time>2021-07-27T18:20:08Z</time>
      </trkpt>
      <trkpt lat="49.4041" lon="3.00179">
        <ele>37.15</ele>
        <time>2021-07-27T18:20:41Z</time>
      </trkpt>
      <trkpt lat="49.40427" lon="3.00256">
        <ele>37.63</ele>
        <time>2021-07-27T18:20:50Z</time>
      </trkpt>
      <trkpt lat="49.40438" lon="3.00324">
        <ele>37.63</ele>
        <time>2021-07-27T18:21:01Z</time>
      </trkpt>
      <trkpt lat="49.40439" lon="3.00333">
        <ele>37.15</ele>
        <time>2021-07-27T18:21:14Z</time>
      </trkpt>
      <trkpt lat="49.40442" lon="3.00363">
        <ele>37.15</ele>
        <time>2021-07-27T18:21:48Z</time>
      </trkpt>
      <trkpt lat="49.4043" lon="3.00431">
        <ele>37.15</ele>
        <time>2021-07-27T18:21:57Z</time>
      </trkpt>
      <trkpt lat="49.40429" lon="3.00434">
        <ele>37.15</ele>
        <time>2021-07-27T18:22:13Z</time>
      </trkpt>
      <trkpt lat="49.40422" lon="3.00471">
        <ele>37.15</ele>
        <time>2021-07-27T18:22:43Z</time>
      </trkpt>
      <trkpt lat="49.4042" lon="3.00477">
        <ele>37.15</ele>
        <time>2021-07-27T18:22:44Z</time>
      </trkpt>
      <trkpt lat="49.40419" lon="3.00484">
        <ele>37.15</ele>
        <time>2021-07-27T18:22:45Z</time>
      </trkpt>
      <trkpt lat="49.40418" lon="3.00489">
        <ele>37.15</ele>
        <time>2021-07-27T18:22:46Z</time>
      </trkpt>
      <trkpt lat="49.40424" lon="3.00497">
        <ele>37.15</ele>
        <time>2021-07-27T18:22:47Z</time>
      </trkpt>
      <trkpt lat="49.40435" lon="3.00503">
        <ele>37.15</ele>
        <time>2021-07-27T18:22:48Z</time>
      </trkpt>
      <trkpt lat="49.40435" lon="3.00503">
        <ele>37.15</ele>
        <time>2021-07-27T18:22:49Z</time>
      </trkpt>
      <trkpt lat="49.40517" lon="3.0054">
        <ele>37.63</ele>
        <time>2021-07-27T18:23:01Z</time>
      </trkpt>
      <trkpt lat="49.40521" lon="3.00544">
        <ele>37.15</ele>
        <time>2021-07-27T18:23:02Z</time>
      </trkpt>
      <trkpt lat="49.40526" lon="3.00549">
        <ele>37.15</ele>
        <time>2021-07-27T18:23:03Z</time>
      </trkpt>
      <trkpt lat="49.40529" lon="3.00556">
        <ele>36.67</ele>
        <time>2021-07-27T18:23:04Z</time>
      </trkpt>
      <trkpt lat="49.40534" lon="3.00576">
        <ele>36.67</ele>
        <time>2021-07-27T18:23:05Z</time>
      </trkpt>
      <trkpt lat="49.40536" lon="3.00587">
        <ele>36.19</ele>
        <time>2021-07-27T18:23:07Z</time>
      </trkpt>
      <trkpt lat="49.40541" lon="3.0061">
        <ele>36.19</ele>
        <time>2021-07-27T18:23:08Z</time>
      </trkpt>
      <trkpt lat="49.40541" lon="3.0061">
        <ele>36.19</ele>
        <time>2021-07-27T18:23:09Z</time>
      </trkpt>
      <trkpt lat="49.40593" lon="3.00749">
        <ele>33.78</ele>
        <time>2021-07-27T18:23:18Z</time>
      </trkpt>
      <trkpt lat="49.40593" lon="3.00749">
        <ele>34.26</ele>
        <time>2021-07-27T18:23:19Z</time>
      </trkpt>
      <trkpt lat="49.40601" lon="3.00757">
        <ele>34.74</ele>
        <time>2021-07-27T18:23:20Z</time>
      </trkpt>
      <trkpt lat="49.40609" lon="3.00765">
        <ele>34.74</ele>
        <time>2021-07-27T18:23:21Z</time>
      </trkpt>
      <trkpt lat="49.40629" lon="3.00772">
        <ele>36.19</ele>
        <time>2021-07-27T18:23:22Z</time>
      </trkpt>
      <trkpt lat="49.40629" lon="3.00772">
        <ele>35.71</ele>
        <time>2021-07-27T18:23:23Z</time>
      </trkpt>
      <trkpt lat="49.4064" lon="3.00774">
        <ele>35.23</ele>
        <time>2021-07-27T18:23:24Z</time>
      </trkpt>
      <trkpt lat="49.40649" lon="3.00774">
        <ele>34.74</ele>
        <time>2021-07-27T18:23:25Z</time>
      </trkpt>
      <trkpt lat="49.40834" lon="3.00781">
        <ele>34.26</ele>
        <time>2021-07-27T18:23:43Z</time>
      </trkpt>
      <trkpt lat="49.40995" lon="3.00831">
        <ele>31.86</ele>
        <time>2021-07-27T18:23:55Z</time>
      </trkpt>
      <trkpt lat="49.4115" lon="3.00856">
        <ele>37.15</ele>
        <time>2021-07-27T18:24:06Z</time>
      </trkpt>
      <trkpt lat="49.41165" lon="3.00857">
        <ele>37.15</ele>
        <time>2021-07-27T18:24:07Z</time>
      </trkpt>
      <trkpt lat="49.41179" lon="3.00858">
        <ele>35.23</ele>
        <time>2021-07-27T18:24:08Z</time>
      </trkpt>
      <trkpt lat="49.41272" lon="3.00842">
        <ele>35.23</ele>
        <time>2021-07-27T18:24:14Z</time>
      </trkpt>
      <trkpt lat="49.41272" lon="3.00842">
        <ele>36.67</ele>
        <time>2021-07-27T18:24:15Z</time>
      </trkpt>
      <trkpt lat="49.41283" lon="3.00847">
        <ele>39.55</ele>
        <time>2021-07-27T18:24:16Z</time>
      </trkpt>
      <trkpt lat="49.4138" lon="3.00886">
        <ele>40.51</ele>
        <time>2021-07-27T18:24:25Z</time>
      </trkpt>
      <trkpt lat="49.41438" lon="3.00905">
        <ele>41.95</ele>
        <time>2021-07-27T18:24:32Z</time>
      </trkpt>
      <trkpt lat="49.41441" lon="3.00905">
        <ele>41.47</ele>
        <time>2021-07-27T18:24:33Z</time>
      </trkpt>
      <trkpt lat="49.41445" lon="3.00905">
        <ele>40.51</ele>
        <time>2021-07-27T18:24:34Z</time>
      </trkpt>
      <trkpt lat="49.41448" lon="3.00905">
        <ele>40.51</ele>
        <time>2021-07-27T18:24:35Z</time>
      </trkpt>
      <trkpt lat="49.41459" lon="3.00884">
        <ele>40.03</ele>
        <time>2021-07-27T18:24:36Z</time>
      </trkpt>
      <trkpt lat="49.41461" lon="3.00874">
        <ele>40.51</ele>
        <time>2021-07-27T18:24:37Z</time>
      </trkpt>
      <trkpt lat="49.41468" lon="3.00847">
        <ele>40.99</ele>
        <time>2021-07-27T18:24:40Z</time>
      </trkpt>
      <trkpt lat="49.41476" lon="3.00845">
        <ele>40.99</ele>
        <time>2021-07-27T18:24:41Z</time>
      </trkpt>
      <trkpt lat="49.41483" lon="3.00843">
        <ele>41.47</ele>
        <time>2021-07-27T18:24:42Z</time>
      </trkpt>
      <trkpt lat="49.41483" lon="3.00843">
        <ele>41.95</ele>
        <time>2021-07-27T18:24:43Z</time>
      </trkpt>
      <trkpt lat="49.4149" lon="3.00841">
        <ele>42.92</ele>
        <time>2021-07-27T18:24:44Z</time>
      </trkpt>
      <trkpt lat="49.41498" lon="3.00839">
        <ele>43.4</ele>
        <time>2021-07-27T18:24:45Z</time>
      </trkpt>
      <trkpt lat="49.41606" lon="3.00869">
        <ele>50.13</ele>
        <time>2021-07-27T18:24:56Z</time>
      </trkpt>
      <trkpt lat="49.41694" lon="3.00898">
        <ele>54.93</ele>
        <time>2021-07-27T18:25:03Z</time>
      </trkpt>
      <trkpt lat="49.41785" lon="3.0089">
        <ele>53.49</ele>
        <time>2021-07-27T18:25:11Z</time>
      </trkpt>
      <trkpt lat="49.41819" lon="3.00881">
        <ele>55.41</ele>
        <time>2021-07-27T18:25:20Z</time>
      </trkpt>
    </trkseg>
  </trk>
  <trk>
    <name><![CDATA[Journal actif: 2021-07-28 09:49]]></name>
    <trkseg>
      <trkpt lat="49.4181" lon="3.00899">
        <ele>54.93</ele>
        <time>2021-07-28T11:49:18Z</time>
      </trkpt>
      <trkpt lat="49.41808" lon="3.00905">
        <ele>54.93</ele>
        <time>2021-07-28T11:50:20Z</time>
      </trkpt>
      <trkpt lat="49.41809" lon="3.00883">
        <ele>54.45</ele>
        <time>2021-07-28T11:50:24Z</time>
      </trkpt>
      <trkpt lat="49.41811" lon="3.00883">
        <ele>53.97</ele>
        <time>2021-07-28T11:50:25Z</time>
      </trkpt>
      <trkpt lat="49.41813" lon="3.00882">
        <ele>53.97</ele>
        <time>2021-07-28T11:50:26Z</time>
      </trkpt>
      <trkpt lat="49.41815" lon="3.00882">
        <ele>53.97</ele>
        <time>2021-07-28T11:50:27Z</time>
      </trkpt>
      <trkpt lat="49.41817" lon="3.00881">
        <ele>53.49</ele>
        <time>2021-07-28T11:50:28Z</time>
      </trkpt>
      <trkpt lat="49.4183" lon="3.00878">
        <ele>53.49</ele>
        <time>2021-07-28T11:50:34Z</time>
      </trkpt>
      <trkpt lat="49.41832" lon="3.00878">
        <ele>53.49</ele>
        <time>2021-07-28T11:50:35Z</time>
      </trkpt>
      <trkpt lat="49.41832" lon="3.00878">
        <ele>53.49</ele>
        <time>2021-07-28T11:50:36Z</time>
      </trkpt>
      <trkpt lat="49.41833" lon="3.00877">
        <ele>53.97</ele>
        <time>2021-07-28T11:50:37Z</time>
      </trkpt>
      <trkpt lat="49.41834" lon="3.00876">
        <ele>54.93</ele>
        <time>2021-07-28T11:50:50Z</time>
      </trkpt>
      <trkpt lat="49.41831" lon="3.00878">
        <ele>54.45</ele>
        <time>2021-07-28T11:50:54Z</time>
      </trkpt>
      <trkpt lat="49.41831" lon="3.00878">
        <ele>54.45</ele>
        <time>2021-07-28T11:50:55Z</time>
      </trkpt>
      <trkpt lat="49.41829" lon="3.00878">
        <ele>54.45</ele>
        <time>2021-07-28T11:50:56Z</time>
      </trkpt>
      <trkpt lat="49.41825" lon="3.00879">
        <ele>54.45</ele>
        <time>2021-07-28T11:50:57Z</time>
      </trkpt>
      <trkpt lat="49.41821" lon="3.0088">
        <ele>54.45</ele>
        <time>2021-07-28T11:50:58Z</time>
      </trkpt>
      <trkpt lat="49.41757" lon="3.00897">
        <ele>53.49</ele>
        <time>2021-07-28T11:51:08Z</time>
      </trkpt>
      <trkpt lat="49.41657" lon="3.00886">
        <ele>48.68</ele>
        <time>2021-07-28T11:51:22Z</time>
      </trkpt>
      <trkpt lat="49.41529" lon="3.00847">
        <ele>43.88</ele>
        <time>2021-07-28T11:51:40Z</time>
      </trkpt>
      <trkpt lat="49.41467" lon="3.00828">
        <ele>41.95</ele>
        <time>2021-07-28T11:51:50Z</time>
      </trkpt>
      <trkpt lat="49.41477" lon="3.00845">
        <ele>41.95</ele>
        <time>2021-07-28T11:52:01Z</time>
      </trkpt>
      <trkpt lat="49.41466" lon="3.00818">
        <ele>41.95</ele>
        <time>2021-07-28T11:52:02Z</time>
      </trkpt>
      <trkpt lat="49.41465" lon="3.00815">
        <ele>41.95</ele>
        <time>2021-07-28T11:52:03Z</time>
      </trkpt>
      <trkpt lat="49.41465" lon="3.0081">
        <ele>41.95</ele>
        <time>2021-07-28T11:52:04Z</time>
      </trkpt>
      <trkpt lat="49.41465" lon="3.00804">
        <ele>41.47</ele>
        <time>2021-07-28T11:52:05Z</time>
      </trkpt>
      <trkpt lat="49.41464" lon="3.00798">
        <ele>41.47</ele>
        <time>2021-07-28T11:52:06Z</time>
      </trkpt>
      <trkpt lat="49.41458" lon="3.007">
        <ele>40.51</ele>
        <time>2021-07-28T11:52:19Z</time>
      </trkpt>
      <trkpt lat="49.4145" lon="3.0063">
        <ele>39.07</ele>
        <time>2021-07-28T11:52:28Z</time>
      </trkpt>
      <trkpt lat="49.41449" lon="3.00616">
        <ele>39.07</ele>
        <time>2021-07-28T11:52:29Z</time>
      </trkpt>
      <trkpt lat="49.41449" lon="3.00616">
        <ele>39.07</ele>
        <time>2021-07-28T11:52:30Z</time>
      </trkpt>
      <trkpt lat="49.41449" lon="3.0055">
        <ele>39.55</ele>
        <time>2021-07-28T11:52:41Z</time>
      </trkpt>
      <trkpt lat="49.41449" lon="3.00547">
        <ele>39.55</ele>
        <time>2021-07-28T11:52:42Z</time>
      </trkpt>
      <trkpt lat="49.41452" lon="3.00536">
        <ele>40.03</ele>
        <time>2021-07-28T11:52:43Z</time>
      </trkpt>
      <trkpt lat="49.41454" lon="3.00536">
        <ele>40.03</ele>
        <time>2021-07-28T11:52:44Z</time>
      </trkpt>
      <trkpt lat="49.41457" lon="3.00536">
        <ele>40.51</ele>
        <time>2021-07-28T11:52:45Z</time>
      </trkpt>
      <trkpt lat="49.41459" lon="3.00536">
        <ele>40.51</ele>
        <time>2021-07-28T11:52:46Z</time>
      </trkpt>
      <trkpt lat="49.41462" lon="3.00536">
        <ele>40.99</ele>
        <time>2021-07-28T11:52:47Z</time>
      </trkpt>
      <trkpt lat="49.41464" lon="3.00536">
        <ele>40.99</ele>
        <time>2021-07-28T11:52:48Z</time>
      </trkpt>
      <trkpt lat="49.41466" lon="3.00536">
        <ele>41.47</ele>
        <time>2021-07-28T11:52:49Z</time>
      </trkpt>
      <trkpt lat="49.41468" lon="3.00536">
        <ele>40.99</ele>
        <time>2021-07-28T11:52:50Z</time>
      </trkpt>
      <trkpt lat="49.4147" lon="3.00536">
        <ele>40.99</ele>
        <time>2021-07-28T11:52:51Z</time>
      </trkpt>
      <trkpt lat="49.41473" lon="3.00536">
        <ele>41.47</ele>
        <time>2021-07-28T11:52:52Z</time>
      </trkpt>
      <trkpt lat="49.41475" lon="3.00536">
        <ele>41.47</ele>
        <time>2021-07-28T11:52:53Z</time>
      </trkpt>
      <trkpt lat="49.41475" lon="3.00536">
        <ele>41.47</ele>
        <time>2021-07-28T11:52:54Z</time>
      </trkpt>
      <trkpt lat="49.41475" lon="3.00536">
        <ele>41.47</ele>
        <time>2021-07-28T11:52:55Z</time>
      </trkpt>
      <trkpt lat="49.41475" lon="3.00536">
        <ele>41.47</ele>
        <time>2021-07-28T11:52:56Z</time>
      </trkpt>
      <trkpt lat="49.41475" lon="3.00536">
        <ele>41.47</ele>
        <time>2021-07-28T11:52:57Z</time>
      </trkpt>
      <trkpt lat="49.41475" lon="3.00536">
        <ele>41.47</ele>
        <time>2021-07-28T11:52:59Z</time>
      </trkpt>
      <trkpt lat="49.41475" lon="3.00536">
        <ele>40.99</ele>
        <time>2021-07-28T11:53:00Z</time>
      </trkpt>
      <trkpt lat="49.41474" lon="3.00536">
        <ele>40.03</ele>
        <time>2021-07-28T11:53:03Z</time>
      </trkpt>
      <trkpt lat="49.41471" lon="3.00536">
        <ele>39.55</ele>
        <time>2021-07-28T11:53:04Z</time>
      </trkpt>
      <trkpt lat="49.41469" lon="3.00536">
        <ele>39.55</ele>
        <time>2021-07-28T11:53:05Z</time>
      </trkpt>
      <trkpt lat="49.41464" lon="3.00536">
        <ele>39.55</ele>
        <time>2021-07-28T11:53:06Z</time>
      </trkpt>
      <trkpt lat="49.41464" lon="3.00536">
        <ele>40.03</ele>
        <time>2021-07-28T11:53:07Z</time>
      </trkpt>
      <trkpt lat="49.41456" lon="3.00536">
        <ele>40.99</ele>
        <time>2021-07-28T11:53:18Z</time>
      </trkpt>
      <trkpt lat="49.41449" lon="3.00546">
        <ele>41.47</ele>
        <time>2021-07-28T11:53:20Z</time>
      </trkpt>
      <trkpt lat="49.41449" lon="3.00546">
        <ele>41.47</ele>
        <time>2021-07-28T11:53:21Z</time>
      </trkpt>
      <trkpt lat="49.41449" lon="3.00549">
        <ele>41.95</ele>
        <time>2021-07-28T11:53:22Z</time>
      </trkpt>
      <trkpt lat="49.4145" lon="3.00627">
        <ele>40.51</ele>
        <time>2021-07-28T11:53:32Z</time>
      </trkpt>
      <trkpt lat="49.41461" lon="3.00757">
        <ele>40.03</ele>
        <time>2021-07-28T11:53:45Z</time>
      </trkpt>
      <trkpt lat="49.41465" lon="3.00812">
        <ele>39.07</ele>
        <time>2021-07-28T11:53:51Z</time>
      </trkpt>
      <trkpt lat="49.41466" lon="3.00821">
        <ele>38.59</ele>
        <time>2021-07-28T11:53:52Z</time>
      </trkpt>
      <trkpt lat="49.41467" lon="3.00831">
        <ele>38.11</ele>
        <time>2021-07-28T11:53:53Z</time>
      </trkpt>
      <trkpt lat="49.41468" lon="3.00841">
        <ele>38.11</ele>
        <time>2021-07-28T11:53:54Z</time>
      </trkpt>
      <trkpt lat="49.41466" lon="3.00855">
        <ele>38.11</ele>
        <time>2021-07-28T11:53:55Z</time>
      </trkpt>
      <trkpt lat="49.41464" lon="3.00864">
        <ele>37.63</ele>
        <time>2021-07-28T11:53:56Z</time>
      </trkpt>
      <trkpt lat="49.41462" lon="3.00873">
        <ele>37.63</ele>
        <time>2021-07-28T11:53:57Z</time>
      </trkpt>
      <trkpt lat="49.41459" lon="3.00882">
        <ele>37.63</ele>
        <time>2021-07-28T11:53:58Z</time>
      </trkpt>
      <trkpt lat="49.41457" lon="3.0089">
        <ele>37.63</ele>
        <time>2021-07-28T11:53:59Z</time>
      </trkpt>
      <trkpt lat="49.41456" lon="3.00897">
        <ele>38.11</ele>
        <time>2021-07-28T11:54:00Z</time>
      </trkpt>
      <trkpt lat="49.41454" lon="3.00903">
        <ele>38.11</ele>
        <time>2021-07-28T11:54:01Z</time>
      </trkpt>
      <trkpt lat="49.41441" lon="3.00905">
        <ele>39.55</ele>
        <time>2021-07-28T11:54:08Z</time>
      </trkpt>
      <trkpt lat="49.41438" lon="3.00905">
        <ele>39.55</ele>
        <time>2021-07-28T11:54:09Z</time>
      </trkpt>
      <trkpt lat="49.41433" lon="3.00903">
        <ele>39.07</ele>
        <time>2021-07-28T11:54:10Z</time>
      </trkpt>
      <trkpt lat="49.41361" lon="3.00879">
        <ele>38.11</ele>
        <time>2021-07-28T11:54:20Z</time>
      </trkpt>
      <trkpt lat="49.41279" lon="3.00845">
        <ele>35.71</ele>
        <time>2021-07-28T11:54:29Z</time>
      </trkpt>
      <trkpt lat="49.41272" lon="3.00842">
        <ele>35.71</ele>
        <time>2021-07-28T11:54:30Z</time>
      </trkpt>
      <trkpt lat="49.41264" lon="3.00839">
        <ele>36.19</ele>
        <time>2021-07-28T11:54:31Z</time>
      </trkpt>
      <trkpt lat="49.41127" lon="3.00854">
        <ele>36.19</ele>
        <time>2021-07-28T11:54:45Z</time>
      </trkpt>
      <trkpt lat="49.4101" lon="3.00834">
        <ele>36.19</ele>
        <time>2021-07-28T11:54:58Z</time>
      </trkpt>
      <trkpt lat="49.40892" lon="3.00804">
        <ele>35.23</ele>
        <time>2021-07-28T11:55:09Z</time>
      </trkpt>
      <trkpt lat="49.40747" lon="3.0077">
        <ele>36.67</ele>
        <time>2021-07-28T11:55:21Z</time>
      </trkpt>
      <trkpt lat="49.40638" lon="3.00774">
        <ele>34.26</ele>
        <time>2021-07-28T11:55:32Z</time>
      </trkpt>
      <trkpt lat="49.40627" lon="3.00771">
        <ele>34.74</ele>
        <time>2021-07-28T11:55:33Z</time>
      </trkpt>
      <trkpt lat="49.40617" lon="3.00768">
        <ele>33.78</ele>
        <time>2021-07-28T11:55:34Z</time>
      </trkpt>
      <trkpt lat="49.40608" lon="3.00764">
        <ele>31.86</ele>
        <time>2021-07-28T11:55:35Z</time>
      </trkpt>
      <trkpt lat="49.406" lon="3.00756">
        <ele>31.38</ele>
        <time>2021-07-28T11:55:36Z</time>
      </trkpt>
      <trkpt lat="49.40594" lon="3.0075">
        <ele>30.9</ele>
        <time>2021-07-28T11:55:37Z</time>
      </trkpt>
      <trkpt lat="49.40587" lon="3.00737">
        <ele>31.86</ele>
        <time>2021-07-28T11:55:38Z</time>
      </trkpt>
      <trkpt lat="49.40582" lon="3.00726">
        <ele>31.38</ele>
        <time>2021-07-28T11:55:39Z</time>
      </trkpt>
      <trkpt lat="49.40572" lon="3.00701">
        <ele>31.86</ele>
        <time>2021-07-28T11:55:40Z</time>
      </trkpt>
      <trkpt lat="49.40541" lon="3.00608">
        <ele>30.9</ele>
        <time>2021-07-28T11:55:48Z</time>
      </trkpt>
      <trkpt lat="49.40538" lon="3.00596">
        <ele>31.38</ele>
        <time>2021-07-28T11:55:49Z</time>
      </trkpt>
      <trkpt lat="49.40533" lon="3.00572">
        <ele>31.38</ele>
        <time>2021-07-28T11:55:51Z</time>
      </trkpt>
      <trkpt lat="49.40531" lon="3.00561">
        <ele>31.86</ele>
        <time>2021-07-28T11:55:52Z</time>
      </trkpt>
      <trkpt lat="49.40528" lon="3.00551">
        <ele>31.86</ele>
        <time>2021-07-28T11:55:53Z</time>
      </trkpt>
      <trkpt lat="49.40524" lon="3.00547">
        <ele>31.86</ele>
        <time>2021-07-28T11:55:54Z</time>
      </trkpt>
      <trkpt lat="49.40518" lon="3.00541">
        <ele>31.86</ele>
        <time>2021-07-28T11:55:55Z</time>
      </trkpt>
      <trkpt lat="49.40513" lon="3.00536">
        <ele>32.34</ele>
        <time>2021-07-28T11:55:56Z</time>
      </trkpt>
      <trkpt lat="49.40508" lon="3.00534">
        <ele>32.34</ele>
        <time>2021-07-28T11:55:57Z</time>
      </trkpt>
      <trkpt lat="49.4044" lon="3.00506">
        <ele>31.38</ele>
        <time>2021-07-28T11:56:08Z</time>
      </trkpt>
      <trkpt lat="49.40437" lon="3.00505">
        <ele>32.34</ele>
        <time>2021-07-28T11:56:22Z</time>
      </trkpt>
      <trkpt lat="49.40424" lon="3.00497">
        <ele>31.86</ele>
        <time>2021-07-28T11:56:42Z</time>
      </trkpt>
      <trkpt lat="49.40421" lon="3.00496">
        <ele>31.86</ele>
        <time>2021-07-28T11:56:43Z</time>
      </trkpt>
      <trkpt lat="49.40418" lon="3.00486">
        <ele>31.86</ele>
        <time>2021-07-28T11:56:44Z</time>
      </trkpt>
      <trkpt lat="49.40419" lon="3.00481">
        <ele>31.86</ele>
        <time>2021-07-28T11:56:45Z</time>
      </trkpt>
      <trkpt lat="49.40422" lon="3.00469">
        <ele>31.38</ele>
        <time>2021-07-28T11:56:46Z</time>
      </trkpt>
      <trkpt lat="49.40439" lon="3.00379">
        <ele>29.94</ele>
        <time>2021-07-28T11:56:56Z</time>
      </trkpt>
      <trkpt lat="49.40439" lon="3.00334">
        <ele>30.9</ele>
        <time>2021-07-28T11:57:03Z</time>
      </trkpt>
      <trkpt lat="49.40439" lon="3.00329">
        <ele>31.38</ele>
        <time>2021-07-28T11:57:17Z</time>
      </trkpt>
      <trkpt lat="49.40439" lon="3.00329">
        <ele>31.86</ele>
        <time>2021-07-28T12:01:35Z</time>
      </trkpt>
      <trkpt lat="49.40439" lon="3.00328">
        <ele>31.86</ele>
        <time>2021-07-28T12:01:36Z</time>
      </trkpt>
      <trkpt lat="49.40438" lon="3.00326">
        <ele>31.86</ele>
        <time>2021-07-28T12:01:37Z</time>
      </trkpt>
      <trkpt lat="49.40438" lon="3.00323">
        <ele>31.86</ele>
        <time>2021-07-28T12:01:38Z</time>
      </trkpt>
      <trkpt lat="49.40438" lon="3.00319">
        <ele>31.86</ele>
        <time>2021-07-28T12:01:39Z</time>
      </trkpt>
      <trkpt lat="49.40437" lon="3.00314">
        <ele>31.86</ele>
        <time>2021-07-28T12:01:40Z</time>
      </trkpt>
      <trkpt lat="49.40419" lon="3.00221">
        <ele>32.34</ele>
        <time>2021-07-28T12:01:50Z</time>
      </trkpt>
      <trkpt lat="49.40375" lon="3.00012">
        <ele>33.3</ele>
        <time>2021-07-28T12:02:05Z</time>
      </trkpt>
      <trkpt lat="49.40288" lon="2.99613">
        <ele>34.26</ele>
        <time>2021-07-28T12:02:30Z</time>
      </trkpt>
      <trkpt lat="49.40242" lon="2.99374">
        <ele>34.74</ele>
        <time>2021-07-28T12:02:46Z</time>
      </trkpt>
      <trkpt lat="49.4024" lon="2.99365">
        <ele>34.74</ele>
        <time>2021-07-28T12:02:47Z</time>
      </trkpt>
      <trkpt lat="49.40242" lon="2.99348">
        <ele>35.23</ele>
        <time>2021-07-28T12:02:49Z</time>
      </trkpt>
      <trkpt lat="49.40245" lon="2.99337">
        <ele>35.23</ele>
        <time>2021-07-28T12:02:50Z</time>
      </trkpt>
      <trkpt lat="49.40243" lon="2.99329">
        <ele>35.23</ele>
        <time>2021-07-28T12:02:51Z</time>
      </trkpt>
      <trkpt lat="49.40231" lon="2.99319">
        <ele>35.23</ele>
        <time>2021-07-28T12:02:53Z</time>
      </trkpt>
      <trkpt lat="49.40228" lon="2.99311">
        <ele>35.23</ele>
        <time>2021-07-28T12:02:54Z</time>
      </trkpt>
      <trkpt lat="49.40225" lon="2.99302">
        <ele>35.71</ele>
        <time>2021-07-28T12:02:55Z</time>
      </trkpt>
      <trkpt lat="49.40189" lon="2.99138">
        <ele>38.59</ele>
        <time>2021-07-28T12:03:07Z</time>
      </trkpt>
      <trkpt lat="49.40159" lon="2.98947">
        <ele>41.47</ele>
        <time>2021-07-28T12:03:19Z</time>
      </trkpt>
      <trkpt lat="49.40173" lon="2.98611">
        <ele>39.07</ele>
        <time>2021-07-28T12:03:37Z</time>
      </trkpt>
      <trkpt lat="49.4019" lon="2.9827">
        <ele>38.11</ele>
        <time>2021-07-28T12:03:53Z</time>
      </trkpt>
      <trkpt lat="49.4021" lon="2.97817">
        <ele>39.07</ele>
        <time>2021-07-28T12:04:15Z</time>
      </trkpt>
      <trkpt lat="49.40222" lon="2.97589">
        <ele>39.07</ele>
        <time>2021-07-28T12:04:28Z</time>
      </trkpt>
      <trkpt lat="49.40223" lon="2.97556">
        <ele>38.59</ele>
        <time>2021-07-28T12:04:36Z</time>
      </trkpt>
      <trkpt lat="49.40227" lon="2.97454">
        <ele>38.11</ele>
        <time>2021-07-28T12:04:46Z</time>
      </trkpt>
      <trkpt lat="49.40238" lon="2.9722">
        <ele>37.63</ele>
        <time>2021-07-28T12:05:02Z</time>
      </trkpt>
      <trkpt lat="49.40256" lon="2.96868">
        <ele>37.15</ele>
        <time>2021-07-28T12:05:20Z</time>
      </trkpt>
      <trkpt lat="49.40252" lon="2.96618">
        <ele>37.63</ele>
        <time>2021-07-28T12:05:33Z</time>
      </trkpt>
      <trkpt lat="49.4022" lon="2.96397">
        <ele>35.71</ele>
        <time>2021-07-28T12:05:45Z</time>
      </trkpt>
      <trkpt lat="49.40219" lon="2.96378">
        <ele>35.23</ele>
        <time>2021-07-28T12:05:46Z</time>
      </trkpt>
      <trkpt lat="49.40219" lon="2.9636">
        <ele>35.23</ele>
        <time>2021-07-28T12:05:47Z</time>
      </trkpt>
      <trkpt lat="49.40267" lon="2.96161">
        <ele>34.26</ele>
        <time>2021-07-28T12:05:58Z</time>
      </trkpt>
      <trkpt lat="49.40355" lon="2.95835">
        <ele>35.71</ele>
        <time>2021-07-28T12:06:13Z</time>
      </trkpt>
      <trkpt lat="49.40449" lon="2.95482">
        <ele>36.19</ele>
        <time>2021-07-28T12:06:29Z</time>
      </trkpt>
      <trkpt lat="49.40556" lon="2.95086">
        <ele>34.74</ele>
        <time>2021-07-28T12:06:45Z</time>
      </trkpt>
      <trkpt lat="49.40657" lon="2.94709">
        <ele>32.82</ele>
        <time>2021-07-28T12:07:01Z</time>
      </trkpt>
      <trkpt lat="49.40774" lon="2.9427">
        <ele>29.94</ele>
        <time>2021-07-28T12:07:18Z</time>
      </trkpt>
      <trkpt lat="49.40897" lon="2.93812">
        <ele>30.42</ele>
        <time>2021-07-28T12:07:37Z</time>
      </trkpt>
      <trkpt lat="49.41018" lon="2.93366">
        <ele>32.82</ele>
        <time>2021-07-28T12:07:56Z</time>
      </trkpt>
      <trkpt lat="49.41115" lon="2.93001">
        <ele>35.23</ele>
        <time>2021-07-28T12:08:12Z</time>
      </trkpt>
      <trkpt lat="49.41263" lon="2.92468">
        <ele>32.82</ele>
        <time>2021-07-28T12:08:35Z</time>
      </trkpt>
      <trkpt lat="49.41328" lon="2.92256">
        <ele>31.38</ele>
        <time>2021-07-28T12:08:44Z</time>
      </trkpt>
      <trkpt lat="49.41335" lon="2.92239">
        <ele>30.9</ele>
        <time>2021-07-28T12:08:45Z</time>
      </trkpt>
      <trkpt lat="49.41344" lon="2.92223">
        <ele>29.46</ele>
        <time>2021-07-28T12:08:46Z</time>
      </trkpt>
      <trkpt lat="49.41353" lon="2.92209">
        <ele>28.98</ele>
        <time>2021-07-28T12:08:47Z</time>
      </trkpt>
      <trkpt lat="49.4136" lon="2.92199">
        <ele>29.46</ele>
        <time>2021-07-28T12:08:48Z</time>
      </trkpt>
      <trkpt lat="49.41381" lon="2.92176">
        <ele>30.9</ele>
        <time>2021-07-28T12:08:51Z</time>
      </trkpt>
      <trkpt lat="49.41387" lon="2.92167">
        <ele>30.9</ele>
        <time>2021-07-28T12:08:52Z</time>
      </trkpt>
      <trkpt lat="49.41391" lon="2.92158">
        <ele>31.38</ele>
        <time>2021-07-28T12:08:53Z</time>
      </trkpt>
      <trkpt lat="49.41394" lon="2.92145">
        <ele>31.38</ele>
        <time>2021-07-28T12:08:54Z</time>
      </trkpt>
      <trkpt lat="49.41396" lon="2.92132">
        <ele>31.86</ele>
        <time>2021-07-28T12:08:55Z</time>
      </trkpt>
      <trkpt lat="49.41398" lon="2.92118">
        <ele>31.38</ele>
        <time>2021-07-28T12:08:56Z</time>
      </trkpt>
      <trkpt lat="49.41431" lon="2.91921">
        <ele>31.86</ele>
        <time>2021-07-28T12:09:08Z</time>
      </trkpt>
      <trkpt lat="49.41525" lon="2.91618">
        <ele>33.78</ele>
        <time>2021-07-28T12:09:25Z</time>
      </trkpt>
      <trkpt lat="49.4162" lon="2.91319">
        <ele>29.94</ele>
        <time>2021-07-28T12:09:39Z</time>
      </trkpt>
      <trkpt lat="49.41697" lon="2.91069">
        <ele>32.34</ele>
        <time>2021-07-28T12:09:50Z</time>
      </trkpt>
      <trkpt lat="49.4177" lon="2.90869">
        <ele>34.74</ele>
        <time>2021-07-28T12:10:01Z</time>
      </trkpt>
      <trkpt lat="49.41836" lon="2.90791">
        <ele>33.78</ele>
        <time>2021-07-28T12:10:08Z</time>
      </trkpt>
      <trkpt lat="49.41979" lon="2.90669">
        <ele>35.71</ele>
        <time>2021-07-28T12:10:20Z</time>
      </trkpt>
      <trkpt lat="49.42065" lon="2.90507">
        <ele>40.99</ele>
        <time>2021-07-28T12:10:30Z</time>
      </trkpt>
      <trkpt lat="49.42149" lon="2.90259">
        <ele>35.23</ele>
        <time>2021-07-28T12:10:42Z</time>
      </trkpt>
      <trkpt lat="49.42175" lon="2.90063">
        <ele>33.78</ele>
        <time>2021-07-28T12:10:50Z</time>
      </trkpt>
      <trkpt lat="49.42153" lon="2.89836">
        <ele>33.3</ele>
        <time>2021-07-28T12:10:59Z</time>
      </trkpt>
      <trkpt lat="49.42152" lon="2.89659">
        <ele>34.26</ele>
        <time>2021-07-28T12:11:06Z</time>
      </trkpt>
      <trkpt lat="49.42204" lon="2.89456">
        <ele>37.15</ele>
        <time>2021-07-28T12:11:15Z</time>
      </trkpt>
      <trkpt lat="49.42342" lon="2.89009">
        <ele>37.63</ele>
        <time>2021-07-28T12:11:33Z</time>
      </trkpt>
      <trkpt lat="49.42488" lon="2.8854">
        <ele>37.63</ele>
        <time>2021-07-28T12:11:52Z</time>
      </trkpt>
      <trkpt lat="49.42603" lon="2.88155">
        <ele>37.63</ele>
        <time>2021-07-28T12:12:08Z</time>
      </trkpt>
      <trkpt lat="49.42608" lon="2.88133">
        <ele>36.67</ele>
        <time>2021-07-28T12:12:09Z</time>
      </trkpt>
      <trkpt lat="49.42613" lon="2.88112">
        <ele>35.71</ele>
        <time>2021-07-28T12:12:10Z</time>
      </trkpt>
      <trkpt lat="49.42615" lon="2.88073">
        <ele>35.23</ele>
        <time>2021-07-28T12:12:11Z</time>
      </trkpt>
      <trkpt lat="49.42615" lon="2.88073">
        <ele>34.74</ele>
        <time>2021-07-28T12:12:12Z</time>
      </trkpt>
      <trkpt lat="49.42613" lon="2.8805">
        <ele>34.26</ele>
        <time>2021-07-28T12:12:13Z</time>
      </trkpt>
      <trkpt lat="49.42612" lon="2.88028">
        <ele>34.26</ele>
        <time>2021-07-28T12:12:14Z</time>
      </trkpt>
      <trkpt lat="49.42582" lon="2.87768">
        <ele>31.38</ele>
        <time>2021-07-28T12:12:28Z</time>
      </trkpt>
      <trkpt lat="49.42573" lon="2.87686">
        <ele>30.9</ele>
        <time>2021-07-28T12:12:34Z</time>
      </trkpt>
      <trkpt lat="49.42573" lon="2.87677">
        <ele>30.9</ele>
        <time>2021-07-28T12:12:35Z</time>
      </trkpt>
      <trkpt lat="49.42586" lon="2.87658">
        <ele>31.86</ele>
        <time>2021-07-28T12:12:37Z</time>
      </trkpt>
      <trkpt lat="49.42589" lon="2.87647">
        <ele>31.86</ele>
        <time>2021-07-28T12:12:38Z</time>
      </trkpt>
      <trkpt lat="49.42592" lon="2.87637">
        <ele>31.86</ele>
        <time>2021-07-28T12:12:39Z</time>
      </trkpt>
      <trkpt lat="49.4259" lon="2.87622">
        <ele>31.38</ele>
        <time>2021-07-28T12:12:40Z</time>
      </trkpt>
      <trkpt lat="49.42585" lon="2.87611">
        <ele>31.86</ele>
        <time>2021-07-28T12:12:41Z</time>
      </trkpt>
      <trkpt lat="49.4258" lon="2.87604">
        <ele>31.86</ele>
        <time>2021-07-28T12:12:42Z</time>
      </trkpt>
      <trkpt lat="49.42573" lon="2.87599">
        <ele>31.38</ele>
        <time>2021-07-28T12:12:43Z</time>
      </trkpt>
      <trkpt lat="49.42565" lon="2.87599">
        <ele>30.9</ele>
        <time>2021-07-28T12:12:44Z</time>
      </trkpt>
      <trkpt lat="49.4256" lon="2.87604">
        <ele>30.42</ele>
        <time>2021-07-28T12:12:45Z</time>
      </trkpt>
      <trkpt lat="49.42553" lon="2.8761">
        <ele>29.94</ele>
        <time>2021-07-28T12:12:46Z</time>
      </trkpt>
      <trkpt lat="49.4255" lon="2.87612">
        <ele>29.46</ele>
        <time>2021-07-28T12:12:47Z</time>
      </trkpt>
      <trkpt lat="49.42535" lon="2.87628">
        <ele>30.42</ele>
        <time>2021-07-28T12:12:48Z</time>
      </trkpt>
      <trkpt lat="49.42526" lon="2.87627">
        <ele>30.42</ele>
        <time>2021-07-28T12:12:49Z</time>
      </trkpt>
      <trkpt lat="49.42516" lon="2.87626">
        <ele>30.42</ele>
        <time>2021-07-28T12:12:50Z</time>
      </trkpt>
      <trkpt lat="49.42505" lon="2.87625">
        <ele>29.94</ele>
        <time>2021-07-28T12:12:51Z</time>
      </trkpt>
      <trkpt lat="49.42359" lon="2.87603">
        <ele>26.57</ele>
        <time>2021-07-28T12:13:02Z</time>
      </trkpt>
      <trkpt lat="49.42183" lon="2.87576">
        <ele>22.73</ele>
        <time>2021-07-28T12:13:13Z</time>
      </trkpt>
      <trkpt lat="49.42005" lon="2.87548">
        <ele>16.96</ele>
        <time>2021-07-28T12:13:23Z</time>
      </trkpt>
      <trkpt lat="49.41732" lon="2.87506">
        <ele>13.12</ele>
        <time>2021-07-28T12:13:37Z</time>
      </trkpt>
      <trkpt lat="49.415" lon="2.8747">
        <ele>12.15</ele>
        <time>2021-07-28T12:13:49Z</time>
      </trkpt>
      <trkpt lat="49.41263" lon="2.87435">
        <ele>7.83</ele>
        <time>2021-07-28T12:14:01Z</time>
      </trkpt>
      <trkpt lat="49.41074" lon="2.87406">
        <ele>4.94</ele>
        <time>2021-07-28T12:14:11Z</time>
      </trkpt>
      <trkpt lat="49.40848" lon="2.87374">
        <ele>7.83</ele>
        <time>2021-07-28T12:14:23Z</time>
      </trkpt>
      <trkpt lat="49.40595" lon="2.87336">
        <ele>5.91</ele>
        <time>2021-07-28T12:14:36Z</time>
      </trkpt>
      <trkpt lat="49.40344" lon="2.87308">
        <ele>15.04</ele>
        <time>2021-07-28T12:14:49Z</time>
      </trkpt>
      <trkpt lat="49.40112" lon="2.87301">
        <ele>23.21</ele>
        <time>2021-07-28T12:15:01Z</time>
      </trkpt>
      <trkpt lat="49.39896" lon="2.87298">
        <ele>21.77</ele>
        <time>2021-07-28T12:15:13Z</time>
      </trkpt>
      <trkpt lat="49.39834" lon="2.87295">
        <ele>23.69</ele>
        <time>2021-07-28T12:15:18Z</time>
      </trkpt>
      <trkpt lat="49.39824" lon="2.87293">
        <ele>27.53</ele>
        <time>2021-07-28T12:15:19Z</time>
      </trkpt>
      <trkpt lat="49.39817" lon="2.87291">
        <ele>30.42</ele>
        <time>2021-07-28T12:15:20Z</time>
      </trkpt>
      <trkpt lat="49.39817" lon="2.87291">
        <ele>32.34</ele>
        <time>2021-07-28T12:15:21Z</time>
      </trkpt>
      <trkpt lat="49.39815" lon="2.87264">
        <ele>34.74</ele>
        <time>2021-07-28T12:15:22Z</time>
      </trkpt>
      <trkpt lat="49.39797" lon="2.8724">
        <ele>36.67</ele>
        <time>2021-07-28T12:15:23Z</time>
      </trkpt>
      <trkpt lat="49.39797" lon="2.8724">
        <ele>37.15</ele>
        <time>2021-07-28T12:15:24Z</time>
      </trkpt>
      <trkpt lat="49.39799" lon="2.87226">
        <ele>37.63</ele>
        <time>2021-07-28T12:15:25Z</time>
      </trkpt>
      <trkpt lat="49.39801" lon="2.87212">
        <ele>38.11</ele>
        <time>2021-07-28T12:15:26Z</time>
      </trkpt>
      <trkpt lat="49.39803" lon="2.87195">
        <ele>39.07</ele>
        <time>2021-07-28T12:15:27Z</time>
      </trkpt>
      <trkpt lat="49.39841" lon="2.87011">
        <ele>43.88</ele>
        <time>2021-07-28T12:15:36Z</time>
      </trkpt>
      <trkpt lat="49.39925" lon="2.86646">
        <ele>48.2</ele>
        <time>2021-07-28T12:15:50Z</time>
      </trkpt>
      <trkpt lat="49.40054" lon="2.86073">
        <ele>53.97</ele>
        <time>2021-07-28T12:16:10Z</time>
      </trkpt>
      <trkpt lat="49.4015" lon="2.85639">
        <ele>52.53</ele>
        <time>2021-07-28T12:16:26Z</time>
      </trkpt>
      <trkpt lat="49.40286" lon="2.85032">
        <ele>54.45</ele>
        <time>2021-07-28T12:16:47Z</time>
      </trkpt>
      <trkpt lat="49.40394" lon="2.8454">
        <ele>56.86</ele>
        <time>2021-07-28T12:17:05Z</time>
      </trkpt>
      <trkpt lat="49.40477" lon="2.84178">
        <ele>56.37</ele>
        <time>2021-07-28T12:17:20Z</time>
      </trkpt>
      <trkpt lat="49.40535" lon="2.83921">
        <ele>56.37</ele>
        <time>2021-07-28T12:17:33Z</time>
      </trkpt>
      <trkpt lat="49.40553" lon="2.83824">
        <ele>57.34</ele>
        <time>2021-07-28T12:17:40Z</time>
      </trkpt>
      <trkpt lat="49.40555" lon="2.83817">
        <ele>57.34</ele>
        <time>2021-07-28T12:17:41Z</time>
      </trkpt>
      <trkpt lat="49.40556" lon="2.8381">
        <ele>57.82</ele>
        <time>2021-07-28T12:17:42Z</time>
      </trkpt>
      <trkpt lat="49.40633" lon="2.83736">
        <ele>55.89</ele>
        <time>2021-07-28T12:17:53Z</time>
      </trkpt>
      <trkpt lat="49.40809" lon="2.83582">
        <ele>53.49</ele>
        <time>2021-07-28T12:18:14Z</time>
      </trkpt>
      <trkpt lat="49.4096" lon="2.83446">
        <ele>46.76</ele>
        <time>2021-07-28T12:18:32Z</time>
      </trkpt>
      <trkpt lat="49.41034" lon="2.83361">
        <ele>44.84</ele>
        <time>2021-07-28T12:18:42Z</time>
      </trkpt>
      <trkpt lat="49.41097" lon="2.83285">
        <ele>44.36</ele>
        <time>2021-07-28T12:18:52Z</time>
      </trkpt>
      <trkpt lat="49.41141" lon="2.83235">
        <ele>44.84</ele>
        <time>2021-07-28T12:19:03Z</time>
      </trkpt>
      <trkpt lat="49.41222" lon="2.83147">
        <ele>44.36</ele>
        <time>2021-07-28T12:19:14Z</time>
      </trkpt>
      <trkpt lat="49.41322" lon="2.83042">
        <ele>43.4</ele>
        <time>2021-07-28T12:19:28Z</time>
      </trkpt>
      <trkpt lat="49.41336" lon="2.8303">
        <ele>42.92</ele>
        <time>2021-07-28T12:19:36Z</time>
      </trkpt>
      <trkpt lat="49.4135" lon="2.83014">
        <ele>42.44</ele>
        <time>2021-07-28T12:20:28Z</time>
      </trkpt>
      <trkpt lat="49.41367" lon="2.82995">
        <ele>41.95</ele>
        <time>2021-07-28T12:20:32Z</time>
      </trkpt>
      <trkpt lat="49.41427" lon="2.82924">
        <ele>40.03</ele>
        <time>2021-07-28T12:20:44Z</time>
      </trkpt>
      <trkpt lat="49.41473" lon="2.8287">
        <ele>39.07</ele>
        <time>2021-07-28T12:20:56Z</time>
      </trkpt>
      <trkpt lat="49.41478" lon="2.82865">
        <ele>38.59</ele>
        <time>2021-07-28T12:20:58Z</time>
      </trkpt>
      <trkpt lat="49.41483" lon="2.82872">
        <ele>38.11</ele>
        <time>2021-07-28T12:20:59Z</time>
      </trkpt>
      <trkpt lat="49.41486" lon="2.82878">
        <ele>38.11</ele>
        <time>2021-07-28T12:21:00Z</time>
      </trkpt>
      <trkpt lat="49.4149" lon="2.82884">
        <ele>37.63</ele>
        <time>2021-07-28T12:21:01Z</time>
      </trkpt>
      <trkpt lat="49.41498" lon="2.82899">
        <ele>37.63</ele>
        <time>2021-07-28T12:21:02Z</time>
      </trkpt>
      <trkpt lat="49.41546" lon="2.82992">
        <ele>40.99</ele>
        <time>2021-07-28T12:21:13Z</time>
      </trkpt>
      <trkpt lat="49.41555" lon="2.83006">
        <ele>42.44</ele>
        <time>2021-07-28T12:21:15Z</time>
      </trkpt>
      <trkpt lat="49.4156" lon="2.8301">
        <ele>42.92</ele>
        <time>2021-07-28T12:21:16Z</time>
      </trkpt>
      <trkpt lat="49.41565" lon="2.83014">
        <ele>42.92</ele>
        <time>2021-07-28T12:21:17Z</time>
      </trkpt>
      <trkpt lat="49.41569" lon="2.83018">
        <ele>43.88</ele>
        <time>2021-07-28T12:21:18Z</time>
      </trkpt>
      <trkpt lat="49.41574" lon="2.83022">
        <ele>44.36</ele>
        <time>2021-07-28T12:21:19Z</time>
      </trkpt>
      <trkpt lat="49.41599" lon="2.83037">
        <ele>44.84</ele>
        <time>2021-07-28T12:21:24Z</time>
      </trkpt>
      <trkpt lat="49.41676" lon="2.8308">
        <ele>43.4</ele>
        <time>2021-07-28T12:21:37Z</time>
      </trkpt>
      <trkpt lat="49.41707" lon="2.83105">
        <ele>45.32</ele>
        <time>2021-07-28T12:21:46Z</time>
      </trkpt>
      <trkpt lat="49.41711" lon="2.83104">
        <ele>45.32</ele>
        <time>2021-07-28T12:21:47Z</time>
      </trkpt>
      <trkpt lat="49.41716" lon="2.83103">
        <ele>45.32</ele>
        <time>2021-07-28T12:21:48Z</time>
      </trkpt>
      <trkpt lat="49.41722" lon="2.83102">
        <ele>45.32</ele>
        <time>2021-07-28T12:21:49Z</time>
      </trkpt>
      <trkpt lat="49.41733" lon="2.831">
        <ele>45.32</ele>
        <time>2021-07-28T12:21:50Z</time>
      </trkpt>
      <trkpt lat="49.41773" lon="2.83072">
        <ele>45.8</ele>
        <time>2021-07-28T12:22:01Z</time>
      </trkpt>
      <trkpt lat="49.41808" lon="2.83029">
        <ele>44.84</ele>
        <time>2021-07-28T12:22:16Z</time>
      </trkpt>
    </trkseg>
  </trk>
  <trk>
    <name><![CDATA[Journal actif: 2021-07-28 10:25]]></name>
    <trkseg>
      <trkpt lat="49.41754" lon="2.82557">
        <ele>45.32</ele>
        <time>2021-07-28T12:25:32Z</time>
      </trkpt>
      <trkpt lat="49.41754" lon="2.82527">
        <ele>44.84</ele>
        <time>2021-07-28T12:26:15Z</time>
      </trkpt>
      <trkpt lat="49.41777" lon="2.8252">
        <ele>43.88</ele>
        <time>2021-07-28T12:26:21Z</time>
      </trkpt>
      <trkpt lat="49.4178" lon="2.82527">
        <ele>43.88</ele>
        <time>2021-07-28T12:26:22Z</time>
      </trkpt>
      <trkpt lat="49.41782" lon="2.82533">
        <ele>43.88</ele>
        <time>2021-07-28T12:26:23Z</time>
      </trkpt>
      <trkpt lat="49.41785" lon="2.82539">
        <ele>44.36</ele>
        <time>2021-07-28T12:26:24Z</time>
      </trkpt>
      <trkpt lat="49.41787" lon="2.82545">
        <ele>44.84</ele>
        <time>2021-07-28T12:26:25Z</time>
      </trkpt>
      <trkpt lat="49.41789" lon="2.8255">
        <ele>44.36</ele>
        <time>2021-07-28T12:26:26Z</time>
      </trkpt>
      <trkpt lat="49.41791" lon="2.82555">
        <ele>44.36</ele>
        <time>2021-07-28T12:26:27Z</time>
      </trkpt>
      <trkpt lat="49.41795" lon="2.82554">
        <ele>44.36</ele>
        <time>2021-07-28T12:26:28Z</time>
      </trkpt>
      <trkpt lat="49.41797" lon="2.82551">
        <ele>43.88</ele>
        <time>2021-07-28T12:26:29Z</time>
      </trkpt>
      <trkpt lat="49.418" lon="2.82548">
        <ele>43.88</ele>
        <time>2021-07-28T12:26:30Z</time>
      </trkpt>
      <trkpt lat="49.41803" lon="2.82545">
        <ele>43.4</ele>
        <time>2021-07-28T12:26:31Z</time>
      </trkpt>
      <trkpt lat="49.41807" lon="2.82541">
        <ele>42.92</ele>
        <time>2021-07-28T12:26:32Z</time>
      </trkpt>
      <trkpt lat="49.41869" lon="2.82474">
        <ele>39.55</ele>
        <time>2021-07-28T12:26:46Z</time>
      </trkpt>
      <trkpt lat="49.41927" lon="2.82411">
        <ele>39.07</ele>
        <time>2021-07-28T12:26:59Z</time>
      </trkpt>
      <trkpt lat="49.41939" lon="2.82398">
        <ele>39.55</ele>
        <time>2021-07-28T12:27:11Z</time>
      </trkpt>
      <trkpt lat="49.41953" lon="2.82382">
        <ele>40.03</ele>
        <time>2021-07-28T12:27:42Z</time>
      </trkpt>
      <trkpt lat="49.42013" lon="2.82318">
        <ele>42.44</ele>
        <time>2021-07-28T12:27:53Z</time>
      </trkpt>
      <trkpt lat="49.42038" lon="2.8229">
        <ele>41.47</ele>
        <time>2021-07-28T12:27:59Z</time>
      </trkpt>
      <trkpt lat="49.42046" lon="2.8228">
        <ele>40.99</ele>
        <time>2021-07-28T12:28:00Z</time>
      </trkpt>
      <trkpt lat="49.42046" lon="2.8228">
        <ele>40.99</ele>
        <time>2021-07-28T12:28:01Z</time>
      </trkpt>
      <trkpt lat="49.42047" lon="2.82274">
        <ele>40.51</ele>
        <time>2021-07-28T12:28:02Z</time>
      </trkpt>
      <trkpt lat="49.42047" lon="2.82274">
        <ele>40.51</ele>
        <time>2021-07-28T12:28:03Z</time>
      </trkpt>
      <trkpt lat="49.42044" lon="2.82263">
        <ele>40.51</ele>
        <time>2021-07-28T12:28:04Z</time>
      </trkpt>
      <trkpt lat="49.42041" lon="2.82255">
        <ele>40.03</ele>
        <time>2021-07-28T12:28:05Z</time>
      </trkpt>
      <trkpt lat="49.42037" lon="2.82246">
        <ele>40.03</ele>
        <time>2021-07-28T12:28:06Z</time>
      </trkpt>
      <trkpt lat="49.41969" lon="2.8208">
        <ele>39.07</ele>
        <time>2021-07-28T12:28:19Z</time>
      </trkpt>
      <trkpt lat="49.41952" lon="2.82029">
        <ele>38.59</ele>
        <time>2021-07-28T12:28:26Z</time>
      </trkpt>
      <trkpt lat="49.41951" lon="2.82025">
        <ele>38.59</ele>
        <time>2021-07-28T12:28:27Z</time>
      </trkpt>
      <trkpt lat="49.41951" lon="2.82025">
        <ele>38.59</ele>
        <time>2021-07-28T12:28:28Z</time>
      </trkpt>
      <trkpt lat="49.41955" lon="2.82007">
        <ele>38.59</ele>
        <time>2021-07-28T12:28:29Z</time>
      </trkpt>
      <trkpt lat="49.41952" lon="2.81998">
        <ele>38.11</ele>
        <time>2021-07-28T12:28:30Z</time>
      </trkpt>
      <trkpt lat="49.41951" lon="2.81997">
        <ele>38.11</ele>
        <time>2021-07-28T12:28:31Z</time>
      </trkpt>
      <trkpt lat="49.41944" lon="2.81998">
        <ele>37.63</ele>
        <time>2021-07-28T12:28:32Z</time>
      </trkpt>
      <trkpt lat="49.41942" lon="2.81999">
        <ele>37.15</ele>
        <time>2021-07-28T12:28:33Z</time>
      </trkpt>
      <trkpt lat="49.41942" lon="2.82001">
        <ele>37.15</ele>
        <time>2021-07-28T12:28:34Z</time>
      </trkpt>
      <trkpt lat="49.41941" lon="2.82008">
        <ele>36.67</ele>
        <time>2021-07-28T12:28:35Z</time>
      </trkpt>
      <trkpt lat="49.4194" lon="2.82014">
        <ele>36.67</ele>
        <time>2021-07-28T12:28:36Z</time>
      </trkpt>
      <trkpt lat="49.41941" lon="2.82017">
        <ele>36.19</ele>
        <time>2021-07-28T12:28:37Z</time>
      </trkpt>
      <trkpt lat="49.41946" lon="2.82021">
        <ele>35.71</ele>
        <time>2021-07-28T12:28:38Z</time>
      </trkpt>
      <trkpt lat="49.41955" lon="2.82037">
        <ele>35.71</ele>
        <time>2021-07-28T12:28:40Z</time>
      </trkpt>
      <trkpt lat="49.41957" lon="2.82044">
        <ele>35.23</ele>
        <time>2021-07-28T12:28:41Z</time>
      </trkpt>
      <trkpt lat="49.4196" lon="2.82052">
        <ele>34.74</ele>
        <time>2021-07-28T12:28:42Z</time>
      </trkpt>
      <trkpt lat="49.41966" lon="2.82072">
        <ele>35.23</ele>
        <time>2021-07-28T12:28:44Z</time>
      </trkpt>
      <trkpt lat="49.41969" lon="2.82082">
        <ele>35.23</ele>
        <time>2021-07-28T12:28:45Z</time>
      </trkpt>
      <trkpt lat="49.42014" lon="2.82195">
        <ele>37.63</ele>
        <time>2021-07-28T12:28:57Z</time>
      </trkpt>
      <trkpt lat="49.42024" lon="2.82213">
        <ele>39.55</ele>
        <time>2021-07-28T12:29:10Z</time>
      </trkpt>
      <trkpt lat="49.4203" lon="2.82225">
        <ele>39.55</ele>
        <time>2021-07-28T12:29:34Z</time>
      </trkpt>
      <trkpt lat="49.4203" lon="2.82225">
        <ele>40.03</ele>
        <time>2021-07-28T12:30:49Z</time>
      </trkpt>
      <trkpt lat="49.42035" lon="2.8224">
        <ele>40.51</ele>
        <time>2021-07-28T12:31:05Z</time>
      </trkpt>
      <trkpt lat="49.42035" lon="2.8224">
        <ele>40.51</ele>
        <time>2021-07-28T12:32:20Z</time>
      </trkpt>
      <trkpt lat="49.42041" lon="2.82255">
        <ele>40.51</ele>
        <time>2021-07-28T12:33:46Z</time>
      </trkpt>
      <trkpt lat="49.42041" lon="2.82255">
        <ele>40.51</ele>
        <time>2021-07-28T12:34:01Z</time>
      </trkpt>
      <trkpt lat="49.42041" lon="2.82255">
        <ele>40.51</ele>
        <time>2021-07-28T12:35:09Z</time>
      </trkpt>
      <trkpt lat="49.42047" lon="2.82271">
        <ele>40.51</ele>
        <time>2021-07-28T12:35:12Z</time>
      </trkpt>
      <trkpt lat="49.42047" lon="2.82271">
        <ele>40.51</ele>
        <time>2021-07-28T12:35:13Z</time>
      </trkpt>
      <trkpt lat="49.42047" lon="2.82275">
        <ele>40.99</ele>
        <time>2021-07-28T12:35:14Z</time>
      </trkpt>
      <trkpt lat="49.42046" lon="2.82278">
        <ele>40.99</ele>
        <time>2021-07-28T12:35:15Z</time>
      </trkpt>
      <trkpt lat="49.42046" lon="2.8228">
        <ele>40.99</ele>
        <time>2021-07-28T12:35:16Z</time>
      </trkpt>
      <trkpt lat="49.42045" lon="2.82283">
        <ele>40.99</ele>
        <time>2021-07-28T12:35:17Z</time>
      </trkpt>
      <trkpt lat="49.42043" lon="2.82284">
        <ele>40.99</ele>
        <time>2021-07-28T12:35:18Z</time>
      </trkpt>
      <trkpt lat="49.42042" lon="2.82286">
        <ele>41.47</ele>
        <time>2021-07-28T12:35:19Z</time>
      </trkpt>
      <trkpt lat="49.42042" lon="2.82286">
        <ele>40.99</ele>
        <time>2021-07-28T12:35:33Z</time>
      </trkpt>
      <trkpt lat="49.42036" lon="2.82293">
        <ele>41.47</ele>
        <time>2021-07-28T12:35:58Z</time>
      </trkpt>
      <trkpt lat="49.42029" lon="2.823">
        <ele>41.95</ele>
        <time>2021-07-28T12:36:24Z</time>
      </trkpt>
      <trkpt lat="49.42029" lon="2.823">
        <ele>41.95</ele>
        <time>2021-07-28T12:37:12Z</time>
      </trkpt>
      <trkpt lat="49.42022" lon="2.82308">
        <ele>42.44</ele>
        <time>2021-07-28T12:37:47Z</time>
      </trkpt>
      <trkpt lat="49.42013" lon="2.82318">
        <ele>42.44</ele>
        <time>2021-07-28T12:38:00Z</time>
      </trkpt>
      <trkpt lat="49.42012" lon="2.82319">
        <ele>42.44</ele>
        <time>2021-07-28T12:38:18Z</time>
      </trkpt>
      <trkpt lat="49.42007" lon="2.82325">
        <ele>42.44</ele>
        <time>2021-07-28T12:38:41Z</time>
      </trkpt>
      <trkpt lat="49.42" lon="2.82332">
        <ele>41.95</ele>
        <time>2021-07-28T12:39:16Z</time>
      </trkpt>
      <trkpt lat="49.41984" lon="2.8235">
        <ele>41.47</ele>
        <time>2021-07-28T12:39:29Z</time>
      </trkpt>
      <trkpt lat="49.41955" lon="2.82379">
        <ele>40.03</ele>
        <time>2021-07-28T12:39:39Z</time>
      </trkpt>
      <trkpt lat="49.4191" lon="2.82431">
        <ele>38.59</ele>
        <time>2021-07-28T12:39:50Z</time>
      </trkpt>
      <trkpt lat="49.41888" lon="2.82454">
        <ele>38.59</ele>
        <time>2021-07-28T12:40:29Z</time>
      </trkpt>
      <trkpt lat="49.41829" lon="2.82518">
        <ele>41.47</ele>
        <time>2021-07-28T12:40:39Z</time>
      </trkpt>
      <trkpt lat="49.41807" lon="2.82541">
        <ele>42.44</ele>
        <time>2021-07-28T12:40:46Z</time>
      </trkpt>
      <trkpt lat="49.4179" lon="2.82551">
        <ele>42.92</ele>
        <time>2021-07-28T12:41:06Z</time>
      </trkpt>
      <trkpt lat="49.41788" lon="2.82547">
        <ele>42.92</ele>
        <time>2021-07-28T12:41:07Z</time>
      </trkpt>
      <trkpt lat="49.41786" lon="2.82542">
        <ele>42.92</ele>
        <time>2021-07-28T12:41:08Z</time>
      </trkpt>
      <trkpt lat="49.41784" lon="2.82537">
        <ele>42.92</ele>
        <time>2021-07-28T12:41:09Z</time>
      </trkpt>
      <trkpt lat="49.41784" lon="2.82537">
        <ele>42.92</ele>
        <time>2021-07-28T12:41:10Z</time>
      </trkpt>
      <trkpt lat="49.41775" lon="2.82519">
        <ele>43.88</ele>
        <time>2021-07-28T12:41:14Z</time>
      </trkpt>
      <trkpt lat="49.41769" lon="2.82516">
        <ele>43.88</ele>
        <time>2021-07-28T12:41:15Z</time>
      </trkpt>
      <trkpt lat="49.41769" lon="2.82516">
        <ele>44.36</ele>
        <time>2021-07-28T12:41:16Z</time>
      </trkpt>
      <trkpt lat="49.41765" lon="2.82518">
        <ele>44.84</ele>
        <time>2021-07-28T12:41:17Z</time>
      </trkpt>
      <trkpt lat="49.41761" lon="2.8252">
        <ele>44.84</ele>
        <time>2021-07-28T12:41:18Z</time>
      </trkpt>
      <trkpt lat="49.41757" lon="2.82522">
        <ele>44.84</ele>
        <time>2021-07-28T12:41:19Z</time>
      </trkpt>
      <trkpt lat="49.41754" lon="2.82527">
        <ele>44.84</ele>
        <time>2021-07-28T12:41:20Z</time>
      </trkpt>
      <trkpt lat="49.41751" lon="2.82531">
        <ele>44.84</ele>
        <time>2021-07-28T12:41:21Z</time>
      </trkpt>
      <trkpt lat="49.41751" lon="2.82538">
        <ele>44.84</ele>
        <time>2021-07-28T12:41:22Z</time>
      </trkpt>
      <trkpt lat="49.41751" lon="2.82544">
        <ele>44.84</ele>
        <time>2021-07-28T12:41:23Z</time>
      </trkpt>
      <trkpt lat="49.41752" lon="2.82551">
        <ele>44.84</ele>
        <time>2021-07-28T12:41:24Z</time>
      </trkpt>
      <trkpt lat="49.41756" lon="2.82564">
        <ele>44.84</ele>
        <time>2021-07-28T12:41:25Z</time>
      </trkpt>
      <trkpt lat="49.41756" lon="2.82564">
        <ele>44.84</ele>
        <time>2021-07-28T12:41:26Z</time>
      </trkpt>
      <trkpt lat="49.41758" lon="2.82571">
        <ele>45.32</ele>
        <time>2021-07-28T12:41:27Z</time>
      </trkpt>
      <trkpt lat="49.4176" lon="2.82578">
        <ele>44.84</ele>
        <time>2021-07-28T12:41:28Z</time>
      </trkpt>
      <trkpt lat="49.41762" lon="2.82584">
        <ele>44.84</ele>
        <time>2021-07-28T12:41:29Z</time>
      </trkpt>
      <trkpt lat="49.41762" lon="2.8259">
        <ele>44.84</ele>
        <time>2021-07-28T12:41:30Z</time>
      </trkpt>
      <trkpt lat="49.41762" lon="2.82594">
        <ele>44.84</ele>
        <time>2021-07-28T12:41:31Z</time>
      </trkpt>
      <trkpt lat="49.41762" lon="2.82596">
        <ele>44.84</ele>
        <time>2021-07-28T12:41:32Z</time>
      </trkpt>
      <trkpt lat="49.41762" lon="2.82599">
        <ele>44.36</ele>
        <time>2021-07-28T12:41:33Z</time>
      </trkpt>
      <trkpt lat="49.41761" lon="2.82601">
        <ele>44.36</ele>
        <time>2021-07-28T12:41:34Z</time>
      </trkpt>
      <trkpt lat="49.41758" lon="2.82604">
        <ele>43.4</ele>
        <time>2021-07-28T12:41:35Z</time>
      </trkpt>
      <trkpt lat="49.41755" lon="2.82607">
        <ele>42.92</ele>
        <time>2021-07-28T12:41:36Z</time>
      </trkpt>
      <trkpt lat="49.41752" lon="2.8261">
        <ele>42.92</ele>
        <time>2021-07-28T12:41:37Z</time>
      </trkpt>
      <trkpt lat="49.41748" lon="2.82614">
        <ele>42.92</ele>
        <time>2021-07-28T12:41:38Z</time>
      </trkpt>
      <trkpt lat="49.41729" lon="2.82628">
        <ele>42.92</ele>
        <time>2021-07-28T12:41:46Z</time>
      </trkpt>
      <trkpt lat="49.41708" lon="2.82642">
        <ele>42.44</ele>
        <time>2021-07-28T12:42:26Z</time>
      </trkpt>
      <trkpt lat="49.41695" lon="2.82654">
        <ele>41.95</ele>
        <time>2021-07-28T12:42:35Z</time>
      </trkpt>
      <trkpt lat="49.41681" lon="2.8267">
        <ele>41.47</ele>
        <time>2021-07-28T12:42:38Z</time>
      </trkpt>
      <trkpt lat="49.41681" lon="2.8267">
        <ele>41.47</ele>
        <time>2021-07-28T12:42:39Z</time>
      </trkpt>
      <trkpt lat="49.41636" lon="2.82711">
        <ele>40.51</ele>
        <time>2021-07-28T12:42:52Z</time>
      </trkpt>
      <trkpt lat="49.41596" lon="2.82748">
        <ele>40.03</ele>
        <time>2021-07-28T12:43:04Z</time>
      </trkpt>
      <trkpt lat="49.41583" lon="2.82759">
        <ele>40.03</ele>
        <time>2021-07-28T12:43:07Z</time>
      </trkpt>
      <trkpt lat="49.41545" lon="2.82794">
        <ele>40.51</ele>
        <time>2021-07-28T12:43:19Z</time>
      </trkpt>
      <trkpt lat="49.41512" lon="2.82828">
        <ele>37.63</ele>
        <time>2021-07-28T12:43:28Z</time>
      </trkpt>
      <trkpt lat="49.41482" lon="2.8286">
        <ele>38.11</ele>
        <time>2021-07-28T12:43:36Z</time>
      </trkpt>
      <trkpt lat="49.41481" lon="2.82869">
        <ele>38.59</ele>
        <time>2021-07-28T12:43:37Z</time>
      </trkpt>
      <trkpt lat="49.41481" lon="2.82869">
        <ele>38.59</ele>
        <time>2021-07-28T12:43:38Z</time>
      </trkpt>
      <trkpt lat="49.41485" lon="2.82876">
        <ele>39.07</ele>
        <time>2021-07-28T12:43:39Z</time>
      </trkpt>
      <trkpt lat="49.41485" lon="2.82876">
        <ele>39.55</ele>
        <time>2021-07-28T12:43:40Z</time>
      </trkpt>
      <trkpt lat="49.41531" lon="2.82964">
        <ele>43.4</ele>
        <time>2021-07-28T12:43:55Z</time>
      </trkpt>
      <trkpt lat="49.41554" lon="2.83005">
        <ele>43.88</ele>
        <time>2021-07-28T12:44:02Z</time>
      </trkpt>
      <trkpt lat="49.41561" lon="2.83011">
        <ele>43.4</ele>
        <time>2021-07-28T12:44:03Z</time>
      </trkpt>
      <trkpt lat="49.41561" lon="2.83011">
        <ele>43.4</ele>
        <time>2021-07-28T12:44:04Z</time>
      </trkpt>
      <trkpt lat="49.41565" lon="2.83014">
        <ele>43.4</ele>
        <time>2021-07-28T12:44:05Z</time>
      </trkpt>
      <trkpt lat="49.41568" lon="2.83017">
        <ele>43.4</ele>
        <time>2021-07-28T12:44:06Z</time>
      </trkpt>
      <trkpt lat="49.4159" lon="2.83032">
        <ele>44.84</ele>
        <time>2021-07-28T12:44:18Z</time>
      </trkpt>
      <trkpt lat="49.41598" lon="2.83036">
        <ele>45.32</ele>
        <time>2021-07-28T12:44:22Z</time>
      </trkpt>
      <trkpt lat="49.4161" lon="2.83043">
        <ele>45.8</ele>
        <time>2021-07-28T12:44:24Z</time>
      </trkpt>
      <trkpt lat="49.4161" lon="2.83043">
        <ele>45.8</ele>
        <time>2021-07-28T12:44:25Z</time>
      </trkpt>
      <trkpt lat="49.41664" lon="2.83073">
        <ele>45.8</ele>
        <time>2021-07-28T12:44:35Z</time>
      </trkpt>
      <trkpt lat="49.41706" lon="2.83105">
        <ele>46.76</ele>
        <time>2021-07-28T12:44:47Z</time>
      </trkpt>
      <trkpt lat="49.4171" lon="2.83104">
        <ele>47.24</ele>
        <time>2021-07-28T12:44:48Z</time>
      </trkpt>
      <trkpt lat="49.41714" lon="2.83104">
        <ele>47.24</ele>
        <time>2021-07-28T12:44:49Z</time>
      </trkpt>
      <trkpt lat="49.41718" lon="2.83103">
        <ele>47.24</ele>
        <time>2021-07-28T12:44:50Z</time>
      </trkpt>
      <trkpt lat="49.41722" lon="2.83102">
        <ele>47.24</ele>
        <time>2021-07-28T12:44:51Z</time>
      </trkpt>
      <trkpt lat="49.41727" lon="2.83101">
        <ele>47.24</ele>
        <time>2021-07-28T12:44:52Z</time>
      </trkpt>
      <trkpt lat="49.41769" lon="2.83077">
        <ele>45.8</ele>
        <time>2021-07-28T12:45:08Z</time>
      </trkpt>
    </trkseg>
  </trk>
  <trk>
    <name><![CDATA[Journal actif: 2021-07-28 13:27]]></name>
    <trkseg>
      <trkpt lat="49.41702" lon="2.82942">
        <ele>33.3</ele>
        <time>2021-07-28T15:27:31Z</time>
      </trkpt>
      <trkpt lat="49.41702" lon="2.82943">
        <ele>33.3</ele>
        <time>2021-07-28T15:28:40Z</time>
      </trkpt>
      <trkpt lat="49.41702" lon="2.82942">
        <ele>30.9</ele>
        <time>2021-07-28T15:29:33Z</time>
      </trkpt>
      <trkpt lat="49.41702" lon="2.82941">
        <ele>31.38</ele>
        <time>2021-07-28T15:30:23Z</time>
      </trkpt>
      <trkpt lat="49.41703" lon="2.82939">
        <ele>30.9</ele>
        <time>2021-07-28T15:31:01Z</time>
      </trkpt>
      <trkpt lat="49.41703" lon="2.8294">
        <ele>31.86</ele>
        <time>2021-07-28T15:31:57Z</time>
      </trkpt>
      <trkpt lat="49.41703" lon="2.8294">
        <ele>31.86</ele>
        <time>2021-07-28T15:33:52Z</time>
      </trkpt>
      <trkpt lat="49.41704" lon="2.8294">
        <ele>31.38</ele>
        <time>2021-07-28T15:34:42Z</time>
      </trkpt>
      <trkpt lat="49.41706" lon="2.82939">
        <ele>31.86</ele>
        <time>2021-07-28T15:35:00Z</time>
      </trkpt>
      <trkpt lat="49.41708" lon="2.82935">
        <ele>31.86</ele>
        <time>2021-07-28T15:35:42Z</time>
      </trkpt>
      <trkpt lat="49.41707" lon="2.82937">
        <ele>32.34</ele>
        <time>2021-07-28T15:36:09Z</time>
      </trkpt>
      <trkpt lat="49.41709" lon="2.82937">
        <ele>32.34</ele>
        <time>2021-07-28T15:36:43Z</time>
      </trkpt>
      <trkpt lat="49.41706" lon="2.82943">
        <ele>32.34</ele>
        <time>2021-07-28T15:37:16Z</time>
      </trkpt>
      <trkpt lat="49.41709" lon="2.82939">
        <ele>32.34</ele>
        <time>2021-07-28T15:37:29Z</time>
      </trkpt>
    </trkseg>
  </trk>
  <trk>
    <name><![CDATA[Journal actif: 2021-07-28 13:37]]></name>
    <trkseg>
      <trkpt lat="49.41712" lon="2.82934">
        <ele>32.34</ele>
        <time>2021-07-28T15:37:45Z</time>
      </trkpt>
      <trkpt lat="49.41711" lon="2.82932">
        <ele>32.34</ele>
        <time>2021-07-28T15:38:17Z</time>
      </trkpt>
      <trkpt lat="49.41706" lon="2.82936">
        <ele>32.82</ele>
        <time>2021-07-28T15:38:56Z</time>
      </trkpt>
      <trkpt lat="49.41703" lon="2.82938">
        <ele>32.82</ele>
        <time>2021-07-28T15:39:43Z</time>
      </trkpt>
      <trkpt lat="49.41703" lon="2.82938">
        <ele>32.82</ele>
        <time>2021-07-28T15:39:46Z</time>
      </trkpt>
      <trkpt lat="49.41699" lon="2.82937">
        <ele>33.78</ele>
        <time>2021-07-28T15:39:59Z</time>
      </trkpt>
      <trkpt lat="49.41699" lon="2.82937">
        <ele>33.78</ele>
        <time>2021-07-28T15:40:32Z</time>
      </trkpt>
      <trkpt lat="49.41699" lon="2.82939">
        <ele>35.23</ele>
        <time>2021-07-28T15:41:47Z</time>
      </trkpt>
      <trkpt lat="49.41699" lon="2.8294">
        <ele>35.23</ele>
        <time>2021-07-28T15:42:35Z</time>
      </trkpt>
      <trkpt lat="49.417" lon="2.82941">
        <ele>35.71</ele>
        <time>2021-07-28T15:43:10Z</time>
      </trkpt>
    </trkseg>
  </trk>
  <trk>
    <name><![CDATA[Journal actif: 2021-07-28 15:03]]></name>
    <trkseg>
      <trkpt lat="49.41699" lon="2.82948">
        <ele>56.37</ele>
        <time>2021-07-28T17:03:09Z</time>
      </trkpt>
      <trkpt lat="49.41701" lon="2.8295">
        <ele>56.37</ele>
        <time>2021-07-28T17:03:16Z</time>
      </trkpt>
      <trkpt lat="49.41723" lon="2.82986">
        <ele>52.53</ele>
        <time>2021-07-28T17:03:32Z</time>
      </trkpt>
      <trkpt lat="49.41751" lon="2.83028">
        <ele>48.68</ele>
        <time>2021-07-28T17:03:44Z</time>
      </trkpt>
      <trkpt lat="49.41773" lon="2.83067">
        <ele>42.92</ele>
        <time>2021-07-28T17:03:56Z</time>
      </trkpt>
      <trkpt lat="49.41772" lon="2.83073">
        <ele>42.44</ele>
        <time>2021-07-28T17:03:57Z</time>
      </trkpt>
      <trkpt lat="49.4177" lon="2.83075">
        <ele>42.44</ele>
        <time>2021-07-28T17:03:58Z</time>
      </trkpt>
      <trkpt lat="49.41766" lon="2.8308">
        <ele>41.95</ele>
        <time>2021-07-28T17:03:59Z</time>
      </trkpt>
      <trkpt lat="49.41766" lon="2.8308">
        <ele>42.44</ele>
        <time>2021-07-28T17:04:00Z</time>
      </trkpt>
      <trkpt lat="49.41721" lon="2.83102">
        <ele>42.92</ele>
        <time>2021-07-28T17:04:13Z</time>
      </trkpt>
      <trkpt lat="49.41695" lon="2.83091">
        <ele>43.4</ele>
        <time>2021-07-28T17:04:21Z</time>
      </trkpt>
      <trkpt lat="49.41623" lon="2.8305">
        <ele>43.4</ele>
        <time>2021-07-28T17:04:36Z</time>
      </trkpt>
      <trkpt lat="49.41598" lon="2.83036">
        <ele>41.95</ele>
        <time>2021-07-28T17:04:44Z</time>
      </trkpt>
      <trkpt lat="49.41589" lon="2.83031">
        <ele>41.95</ele>
        <time>2021-07-28T17:04:45Z</time>
      </trkpt>
      <trkpt lat="49.41556" lon="2.83006">
        <ele>41.95</ele>
        <time>2021-07-28T17:04:55Z</time>
      </trkpt>
      <trkpt lat="49.41528" lon="2.82957">
        <ele>41.95</ele>
        <time>2021-07-28T17:05:08Z</time>
      </trkpt>
      <trkpt lat="49.41511" lon="2.82925">
        <ele>41.95</ele>
        <time>2021-07-28T17:05:13Z</time>
      </trkpt>
      <trkpt lat="49.41511" lon="2.82925">
        <ele>41.95</ele>
        <time>2021-07-28T17:05:14Z</time>
      </trkpt>
      <trkpt lat="49.41509" lon="2.82921">
        <ele>41.95</ele>
        <time>2021-07-28T17:05:15Z</time>
      </trkpt>
      <trkpt lat="49.41489" lon="2.82883">
        <ele>41.47</ele>
        <time>2021-07-28T17:05:25Z</time>
      </trkpt>
      <trkpt lat="49.4148" lon="2.82867">
        <ele>43.88</ele>
        <time>2021-07-28T17:05:32Z</time>
      </trkpt>
      <trkpt lat="49.41477" lon="2.82866">
        <ele>43.88</ele>
        <time>2021-07-28T17:05:33Z</time>
      </trkpt>
      <trkpt lat="49.41475" lon="2.82868">
        <ele>43.88</ele>
        <time>2021-07-28T17:05:34Z</time>
      </trkpt>
      <trkpt lat="49.41475" lon="2.82868">
        <ele>43.88</ele>
        <time>2021-07-28T17:05:35Z</time>
      </trkpt>
      <trkpt lat="49.41472" lon="2.82871">
        <ele>43.4</ele>
        <time>2021-07-28T17:05:36Z</time>
      </trkpt>
      <trkpt lat="49.41469" lon="2.82875">
        <ele>43.4</ele>
        <time>2021-07-28T17:05:37Z</time>
      </trkpt>
      <trkpt lat="49.4142" lon="2.82932">
        <ele>43.4</ele>
        <time>2021-07-28T17:05:49Z</time>
      </trkpt>
      <trkpt lat="49.41387" lon="2.82972">
        <ele>42.92</ele>
        <time>2021-07-28T17:06:02Z</time>
      </trkpt>
      <trkpt lat="49.41387" lon="2.82972">
        <ele>42.92</ele>
        <time>2021-07-28T17:06:41Z</time>
      </trkpt>
      <trkpt lat="49.41384" lon="2.82975">
        <ele>42.92</ele>
        <time>2021-07-28T17:06:42Z</time>
      </trkpt>
      <trkpt lat="49.41383" lon="2.82977">
        <ele>42.92</ele>
        <time>2021-07-28T17:06:43Z</time>
      </trkpt>
      <trkpt lat="49.4138" lon="2.8298">
        <ele>42.92</ele>
        <time>2021-07-28T17:06:44Z</time>
      </trkpt>
      <trkpt lat="49.41377" lon="2.82983">
        <ele>42.44</ele>
        <time>2021-07-28T17:06:45Z</time>
      </trkpt>
      <trkpt lat="49.41314" lon="2.8305">
        <ele>43.88</ele>
        <time>2021-07-28T17:06:59Z</time>
      </trkpt>
      <trkpt lat="49.41256" lon="2.83111">
        <ele>44.36</ele>
        <time>2021-07-28T17:07:10Z</time>
      </trkpt>
      <trkpt lat="49.41148" lon="2.83226">
        <ele>43.88</ele>
        <time>2021-07-28T17:07:25Z</time>
      </trkpt>
      <trkpt lat="49.41102" lon="2.83279">
        <ele>43.4</ele>
        <time>2021-07-28T17:07:34Z</time>
      </trkpt>
      <trkpt lat="49.41042" lon="2.83351">
        <ele>43.4</ele>
        <time>2021-07-28T17:07:45Z</time>
      </trkpt>
      <trkpt lat="49.40926" lon="2.8348">
        <ele>45.32</ele>
        <time>2021-07-28T17:08:01Z</time>
      </trkpt>
      <trkpt lat="49.40744" lon="2.83639">
        <ele>50.61</ele>
        <time>2021-07-28T17:08:24Z</time>
      </trkpt>
      <trkpt lat="49.40611" lon="2.83755">
        <ele>53.01</ele>
        <time>2021-07-28T17:08:40Z</time>
      </trkpt>
      <trkpt lat="49.40596" lon="2.8377">
        <ele>53.01</ele>
        <time>2021-07-28T17:08:43Z</time>
      </trkpt>
      <trkpt lat="49.40591" lon="2.83773">
        <ele>53.49</ele>
        <time>2021-07-28T17:08:44Z</time>
      </trkpt>
      <trkpt lat="49.40588" lon="2.83776">
        <ele>53.97</ele>
        <time>2021-07-28T17:08:45Z</time>
      </trkpt>
      <trkpt lat="49.40584" lon="2.83778">
        <ele>53.97</ele>
        <time>2021-07-28T17:08:46Z</time>
      </trkpt>
      <trkpt lat="49.40581" lon="2.8378">
        <ele>54.45</ele>
        <time>2021-07-28T17:08:47Z</time>
      </trkpt>
      <trkpt lat="49.40569" lon="2.83765">
        <ele>54.93</ele>
        <time>2021-07-28T17:08:48Z</time>
      </trkpt>
      <trkpt lat="49.40569" lon="2.83765">
        <ele>55.41</ele>
        <time>2021-07-28T17:08:49Z</time>
      </trkpt>
      <trkpt lat="49.40566" lon="2.83765">
        <ele>55.41</ele>
        <time>2021-07-28T17:08:50Z</time>
      </trkpt>
      <trkpt lat="49.40562" lon="2.83765">
        <ele>55.89</ele>
        <time>2021-07-28T17:08:51Z</time>
      </trkpt>
      <trkpt lat="49.40558" lon="2.83765">
        <ele>55.41</ele>
        <time>2021-07-28T17:08:52Z</time>
      </trkpt>
      <trkpt lat="49.4055" lon="2.83767">
        <ele>54.93</ele>
        <time>2021-07-28T17:08:53Z</time>
      </trkpt>
      <trkpt lat="49.40544" lon="2.83775">
        <ele>54.93</ele>
        <time>2021-07-28T17:08:54Z</time>
      </trkpt>
      <trkpt lat="49.40544" lon="2.83793">
        <ele>54.93</ele>
        <time>2021-07-28T17:08:55Z</time>
      </trkpt>
      <trkpt lat="49.40546" lon="2.83799">
        <ele>55.41</ele>
        <time>2021-07-28T17:08:56Z</time>
      </trkpt>
      <trkpt lat="49.40548" lon="2.83804">
        <ele>55.41</ele>
        <time>2021-07-28T17:08:57Z</time>
      </trkpt>
      <trkpt lat="49.40554" lon="2.83823">
        <ele>54.93</ele>
        <time>2021-07-28T17:08:59Z</time>
      </trkpt>
      <trkpt lat="49.40552" lon="2.83834">
        <ele>54.93</ele>
        <time>2021-07-28T17:09:00Z</time>
      </trkpt>
      <trkpt lat="49.40549" lon="2.83847">
        <ele>54.93</ele>
        <time>2021-07-28T17:09:01Z</time>
      </trkpt>
      <trkpt lat="49.40511" lon="2.84027">
        <ele>54.93</ele>
        <time>2021-07-28T17:09:13Z</time>
      </trkpt>
      <trkpt lat="49.40453" lon="2.84281">
        <ele>53.97</ele>
        <time>2021-07-28T17:09:27Z</time>
      </trkpt>
      <trkpt lat="49.40384" lon="2.84589">
        <ele>53.01</ele>
        <time>2021-07-28T17:09:42Z</time>
      </trkpt>
      <trkpt lat="49.40312" lon="2.84919">
        <ele>51.09</ele>
        <time>2021-07-28T17:09:56Z</time>
      </trkpt>
      <trkpt lat="49.40281" lon="2.85057">
        <ele>48.2</ele>
        <time>2021-07-28T17:10:05Z</time>
      </trkpt>
      <trkpt lat="49.40269" lon="2.85111">
        <ele>47.72</ele>
        <time>2021-07-28T17:10:09Z</time>
      </trkpt>
      <trkpt lat="49.40252" lon="2.85185">
        <ele>49.16</ele>
        <time>2021-07-28T17:10:18Z</time>
      </trkpt>
      <trkpt lat="49.40251" lon="2.85189">
        <ele>50.13</ele>
        <time>2021-07-28T17:10:30Z</time>
      </trkpt>
      <trkpt lat="49.40248" lon="2.85203">
        <ele>50.13</ele>
        <time>2021-07-28T17:10:34Z</time>
      </trkpt>
      <trkpt lat="49.40228" lon="2.85292">
        <ele>50.13</ele>
        <time>2021-07-28T17:10:42Z</time>
      </trkpt>
      <trkpt lat="49.40185" lon="2.85481">
        <ele>50.13</ele>
        <time>2021-07-28T17:10:52Z</time>
      </trkpt>
      <trkpt lat="49.40108" lon="2.85831">
        <ele>52.53</ele>
        <time>2021-07-28T17:11:05Z</time>
      </trkpt>
      <trkpt lat="49.39986" lon="2.8638">
        <ele>53.97</ele>
        <time>2021-07-28T17:11:26Z</time>
      </trkpt>
      <trkpt lat="49.39868" lon="2.86891">
        <ele>50.61</ele>
        <time>2021-07-28T17:11:44Z</time>
      </trkpt>
      <trkpt lat="49.39803" lon="2.872">
        <ele>48.2</ele>
        <time>2021-07-28T17:11:57Z</time>
      </trkpt>
      <trkpt lat="49.3978" lon="2.87262">
        <ele>47.72</ele>
        <time>2021-07-28T17:12:03Z</time>
      </trkpt>
      <trkpt lat="49.39776" lon="2.87285">
        <ele>47.72</ele>
        <time>2021-07-28T17:12:05Z</time>
      </trkpt>
      <trkpt lat="49.39777" lon="2.87294">
        <ele>47.24</ele>
        <time>2021-07-28T17:12:06Z</time>
      </trkpt>
      <trkpt lat="49.39773" lon="2.8731">
        <ele>47.24</ele>
        <time>2021-07-28T17:12:07Z</time>
      </trkpt>
      <trkpt lat="49.39701" lon="2.87419">
        <ele>45.32</ele>
        <time>2021-07-28T17:12:16Z</time>
      </trkpt>
      <trkpt lat="49.39595" lon="2.87594">
        <ele>41.95</ele>
        <time>2021-07-28T17:12:27Z</time>
      </trkpt>
      <trkpt lat="49.39484" lon="2.87775">
        <ele>38.59</ele>
        <time>2021-07-28T17:12:37Z</time>
      </trkpt>
      <trkpt lat="49.39328" lon="2.88031">
        <ele>35.23</ele>
        <time>2021-07-28T17:12:49Z</time>
      </trkpt>
      <trkpt lat="49.39176" lon="2.88282">
        <ele>33.78</ele>
        <time>2021-07-28T17:13:02Z</time>
      </trkpt>
      <trkpt lat="49.38967" lon="2.88622">
        <ele>33.78</ele>
        <time>2021-07-28T17:13:17Z</time>
      </trkpt>
      <trkpt lat="49.38858" lon="2.8885">
        <ele>31.38</ele>
        <time>2021-07-28T17:13:26Z</time>
      </trkpt>
      <trkpt lat="49.38703" lon="2.89223">
        <ele>25.61</ele>
        <time>2021-07-28T17:13:40Z</time>
      </trkpt>
      <trkpt lat="49.38561" lon="2.89563">
        <ele>24.17</ele>
        <time>2021-07-28T17:13:53Z</time>
      </trkpt>
      <trkpt lat="49.38408" lon="2.8993">
        <ele>30.42</ele>
        <time>2021-07-28T17:14:07Z</time>
      </trkpt>
      <trkpt lat="49.38281" lon="2.90244">
        <ele>40.51</ele>
        <time>2021-07-28T17:14:19Z</time>
      </trkpt>
      <trkpt lat="49.38211" lon="2.90481">
        <ele>47.72</ele>
        <time>2021-07-28T17:14:28Z</time>
      </trkpt>
      <trkpt lat="49.38125" lon="2.90681">
        <ele>54.93</ele>
        <time>2021-07-28T17:14:36Z</time>
      </trkpt>
      <trkpt lat="49.3801" lon="2.90924">
        <ele>57.82</ele>
        <time>2021-07-28T17:14:49Z</time>
      </trkpt>
      <trkpt lat="49.37863" lon="2.91238">
        <ele>55.41</ele>
        <time>2021-07-28T17:15:03Z</time>
      </trkpt>
      <trkpt lat="49.37676" lon="2.91643">
        <ele>55.41</ele>
        <time>2021-07-28T17:15:20Z</time>
      </trkpt>
      <trkpt lat="49.37559" lon="2.91933">
        <ele>55.41</ele>
        <time>2021-07-28T17:15:32Z</time>
      </trkpt>
      <trkpt lat="49.37445" lon="2.92253">
        <ele>56.37</ele>
        <time>2021-07-28T17:15:45Z</time>
      </trkpt>
      <trkpt lat="49.37315" lon="2.92609">
        <ele>63.58</ele>
        <time>2021-07-28T17:15:59Z</time>
      </trkpt>
      <trkpt lat="49.37193" lon="2.9294">
        <ele>66.47</ele>
        <time>2021-07-28T17:16:14Z</time>
      </trkpt>
      <trkpt lat="49.37032" lon="2.93375">
        <ele>64.07</ele>
        <time>2021-07-28T17:16:30Z</time>
      </trkpt>
      <trkpt lat="49.36906" lon="2.93714">
        <ele>68.39</ele>
        <time>2021-07-28T17:16:44Z</time>
      </trkpt>
      <trkpt lat="49.36806" lon="2.93985">
        <ele>63.1</ele>
        <time>2021-07-28T17:16:56Z</time>
      </trkpt>
      <trkpt lat="49.3671" lon="2.94266">
        <ele>62.14</ele>
        <time>2021-07-28T17:17:07Z</time>
      </trkpt>
      <trkpt lat="49.36704" lon="2.94294">
        <ele>62.14</ele>
        <time>2021-07-28T17:17:08Z</time>
      </trkpt>
      <trkpt lat="49.36657" lon="2.94656">
        <ele>66.47</ele>
        <time>2021-07-28T17:17:20Z</time>
      </trkpt>
      <trkpt lat="49.36602" lon="2.95033">
        <ele>63.1</ele>
        <time>2021-07-28T17:17:32Z</time>
      </trkpt>
      <trkpt lat="49.36503" lon="2.95298">
        <ele>58.3</ele>
        <time>2021-07-28T17:17:41Z</time>
      </trkpt>
      <trkpt lat="49.36408" lon="2.95499">
        <ele>56.86</ele>
        <time>2021-07-28T17:17:49Z</time>
      </trkpt>
      <trkpt lat="49.36292" lon="2.95707">
        <ele>57.82</ele>
        <time>2021-07-28T17:17:59Z</time>
      </trkpt>
      <trkpt lat="49.36125" lon="2.95981">
        <ele>62.62</ele>
        <time>2021-07-28T17:18:13Z</time>
      </trkpt>
      <trkpt lat="49.3602" lon="2.96198">
        <ele>64.55</ele>
        <time>2021-07-28T17:18:23Z</time>
      </trkpt>
      <trkpt lat="49.35966" lon="2.96455">
        <ele>70.31</ele>
        <time>2021-07-28T17:18:32Z</time>
      </trkpt>
      <trkpt lat="49.3594" lon="2.96601">
        <ele>71.27</ele>
        <time>2021-07-28T17:18:39Z</time>
      </trkpt>
      <trkpt lat="49.35893" lon="2.96742">
        <ele>68.87</ele>
        <time>2021-07-28T17:18:45Z</time>
      </trkpt>
      <trkpt lat="49.35767" lon="2.96988">
        <ele>67.91</ele>
        <time>2021-07-28T17:18:57Z</time>
      </trkpt>
      <trkpt lat="49.35596" lon="2.97245">
        <ele>68.87</ele>
        <time>2021-07-28T17:19:11Z</time>
      </trkpt>
      <trkpt lat="49.35491" lon="2.9745">
        <ele>73.2</ele>
        <time>2021-07-28T17:19:22Z</time>
      </trkpt>
      <trkpt lat="49.35407" lon="2.97618">
        <ele>71.27</ele>
        <time>2021-07-28T17:19:33Z</time>
      </trkpt>
      <trkpt lat="49.35365" lon="2.97702">
        <ele>70.79</ele>
        <time>2021-07-28T17:19:41Z</time>
      </trkpt>
      <trkpt lat="49.35363" lon="2.97708">
        <ele>75.12</ele>
        <time>2021-07-28T17:19:55Z</time>
      </trkpt>
      <trkpt lat="49.35334" lon="2.97762">
        <ele>75.12</ele>
        <time>2021-07-28T17:20:03Z</time>
      </trkpt>
      <trkpt lat="49.3527" lon="2.97891">
        <ele>76.08</ele>
        <time>2021-07-28T17:20:15Z</time>
      </trkpt>
      <trkpt lat="49.35255" lon="2.97918">
        <ele>76.56</ele>
        <time>2021-07-28T17:20:18Z</time>
      </trkpt>
      <trkpt lat="49.35245" lon="2.97931">
        <ele>77.04</ele>
        <time>2021-07-28T17:20:20Z</time>
      </trkpt>
    </trkseg>
  </trk>
  <trk>
    <name><![CDATA[Journal actif: 2021-07-28 15:20]]></name>
    <trkseg>
      <trkpt lat="49.35195" lon="2.97988">
        <ele>77.52</ele>
        <time>2021-07-28T17:20:27Z</time>
      </trkpt>
      <trkpt lat="49.35137" lon="2.9806">
        <ele>76.08</ele>
        <time>2021-07-28T17:20:35Z</time>
      </trkpt>
      <trkpt lat="49.35089" lon="2.98098">
        <ele>78.97</ele>
        <time>2021-07-28T17:20:43Z</time>
      </trkpt>
      <trkpt lat="49.35083" lon="2.98097">
        <ele>79.45</ele>
        <time>2021-07-28T17:20:44Z</time>
      </trkpt>
      <trkpt lat="49.35035" lon="2.98083">
        <ele>81.37</ele>
        <time>2021-07-28T17:20:51Z</time>
      </trkpt>
      <trkpt lat="49.35028" lon="2.98078">
        <ele>81.37</ele>
        <time>2021-07-28T17:20:52Z</time>
      </trkpt>
      <trkpt lat="49.35022" lon="2.98071">
        <ele>81.85</ele>
        <time>2021-07-28T17:20:53Z</time>
      </trkpt>
      <trkpt lat="49.35016" lon="2.98064">
        <ele>82.33</ele>
        <time>2021-07-28T17:20:54Z</time>
      </trkpt>
      <trkpt lat="49.35004" lon="2.98049">
        <ele>82.33</ele>
        <time>2021-07-28T17:20:55Z</time>
      </trkpt>
      <trkpt lat="49.35004" lon="2.98049">
        <ele>81.85</ele>
        <time>2021-07-28T17:20:56Z</time>
      </trkpt>
      <trkpt lat="49.34998" lon="2.98041">
        <ele>82.33</ele>
        <time>2021-07-28T17:20:57Z</time>
      </trkpt>
      <trkpt lat="49.34992" lon="2.98033">
        <ele>82.33</ele>
        <time>2021-07-28T17:20:58Z</time>
      </trkpt>
      <trkpt lat="49.34987" lon="2.98023">
        <ele>82.33</ele>
        <time>2021-07-28T17:20:59Z</time>
      </trkpt>
      <trkpt lat="49.34959" lon="2.97951">
        <ele>82.81</ele>
        <time>2021-07-28T17:21:06Z</time>
      </trkpt>
      <trkpt lat="49.34942" lon="2.97901">
        <ele>82.81</ele>
        <time>2021-07-28T17:21:11Z</time>
      </trkpt>
      <trkpt lat="49.34941" lon="2.97889">
        <ele>82.81</ele>
        <time>2021-07-28T17:21:12Z</time>
      </trkpt>
      <trkpt lat="49.34941" lon="2.97878">
        <ele>82.33</ele>
        <time>2021-07-28T17:21:13Z</time>
      </trkpt>
      <trkpt lat="49.34941" lon="2.97867">
        <ele>82.33</ele>
        <time>2021-07-28T17:21:14Z</time>
      </trkpt>
      <trkpt lat="49.34941" lon="2.97855">
        <ele>81.85</ele>
        <time>2021-07-28T17:21:15Z</time>
      </trkpt>
      <trkpt lat="49.34941" lon="2.97788">
        <ele>81.37</ele>
        <time>2021-07-28T17:21:24Z</time>
      </trkpt>
      <trkpt lat="49.34921" lon="2.97784">
        <ele>81.37</ele>
        <time>2021-07-28T17:21:34Z</time>
      </trkpt>
      <trkpt lat="49.34897" lon="2.97783">
        <ele>81.37</ele>
        <time>2021-07-28T17:21:43Z</time>
      </trkpt>
      <trkpt lat="49.34826" lon="2.97781">
        <ele>81.85</ele>
        <time>2021-07-28T17:21:58Z</time>
      </trkpt>
      <trkpt lat="49.34764" lon="2.97777">
        <ele>82.81</ele>
        <time>2021-07-28T17:22:11Z</time>
      </trkpt>
      <trkpt lat="49.34708" lon="2.97773">
        <ele>84.25</ele>
        <time>2021-07-28T17:22:24Z</time>
      </trkpt>
      <trkpt lat="49.34707" lon="2.97773">
        <ele>84.25</ele>
        <time>2021-07-28T17:22:25Z</time>
      </trkpt>
      <trkpt lat="49.34706" lon="2.97773">
        <ele>84.73</ele>
        <time>2021-07-28T17:22:26Z</time>
      </trkpt>
      <trkpt lat="49.34705" lon="2.97769">
        <ele>84.25</ele>
        <time>2021-07-28T17:22:27Z</time>
      </trkpt>
      <trkpt lat="49.34704" lon="2.97766">
        <ele>84.25</ele>
        <time>2021-07-28T17:22:28Z</time>
      </trkpt>
      <trkpt lat="49.34704" lon="2.97757">
        <ele>84.25</ele>
        <time>2021-07-28T17:22:29Z</time>
      </trkpt>
      <trkpt lat="49.34704" lon="2.97752">
        <ele>84.25</ele>
        <time>2021-07-28T17:22:30Z</time>
      </trkpt>
      <trkpt lat="49.34703" lon="2.97702">
        <ele>83.77</ele>
        <time>2021-07-28T17:22:44Z</time>
      </trkpt>
      <trkpt lat="49.34698" lon="2.9769">
        <ele>84.25</ele>
        <time>2021-07-28T17:22:54Z</time>
      </trkpt>
      <trkpt lat="49.34694" lon="2.97689">
        <ele>84.25</ele>
        <time>2021-07-28T17:22:55Z</time>
      </trkpt>
      <trkpt lat="49.3469" lon="2.97689">
        <ele>84.25</ele>
        <time>2021-07-28T17:22:56Z</time>
      </trkpt>
      <trkpt lat="49.3469" lon="2.97689">
        <ele>84.25</ele>
        <time>2021-07-28T17:22:57Z</time>
      </trkpt>
      <trkpt lat="49.3469" lon="2.97689">
        <ele>84.73</ele>
        <time>2021-07-28T17:22:58Z</time>
      </trkpt>
      <trkpt lat="49.3469" lon="2.97689">
        <ele>84.73</ele>
        <time>2021-07-28T17:22:59Z</time>
      </trkpt>
      <trkpt lat="49.3469" lon="2.97689">
        <ele>85.21</ele>
        <time>2021-07-28T17:23:10Z</time>
      </trkpt>
      <trkpt lat="49.34689" lon="2.97697">
        <ele>84.73</ele>
        <time>2021-07-28T17:23:21Z</time>
      </trkpt>
      <trkpt lat="49.34692" lon="2.97775">
        <ele>83.77</ele>
        <time>2021-07-28T17:24:00Z</time>
      </trkpt>
      <trkpt lat="49.34698" lon="2.97774">
        <ele>84.25</ele>
        <time>2021-07-28T17:24:17Z</time>
      </trkpt>
      <trkpt lat="49.34708" lon="2.97773">
        <ele>84.25</ele>
        <time>2021-07-28T17:24:51Z</time>
      </trkpt>
      <trkpt lat="49.34752" lon="2.97776">
        <ele>83.29</ele>
        <time>2021-07-28T17:25:03Z</time>
      </trkpt>
      <trkpt lat="49.34815" lon="2.9778">
        <ele>81.37</ele>
        <time>2021-07-28T17:25:20Z</time>
      </trkpt>
      <trkpt lat="49.34892" lon="2.97783">
        <ele>82.33</ele>
        <time>2021-07-28T17:25:37Z</time>
      </trkpt>
      <trkpt lat="49.3494" lon="2.97785">
        <ele>81.85</ele>
        <time>2021-07-28T17:25:51Z</time>
      </trkpt>
      <trkpt lat="49.34941" lon="2.9778">
        <ele>81.85</ele>
        <time>2021-07-28T17:26:07Z</time>
      </trkpt>
      <trkpt lat="49.34941" lon="2.97776">
        <ele>81.85</ele>
        <time>2021-07-28T17:26:08Z</time>
      </trkpt>
      <trkpt lat="49.34941" lon="2.97771">
        <ele>82.33</ele>
        <time>2021-07-28T17:26:09Z</time>
      </trkpt>
      <trkpt lat="49.34941" lon="2.97764">
        <ele>82.33</ele>
        <time>2021-07-28T17:26:10Z</time>
      </trkpt>
      <trkpt lat="49.34942" lon="2.97756">
        <ele>82.33</ele>
        <time>2021-07-28T17:26:11Z</time>
      </trkpt>
      <trkpt lat="49.34952" lon="2.97641">
        <ele>84.25</ele>
        <time>2021-07-28T17:26:25Z</time>
      </trkpt>
      <trkpt lat="49.34959" lon="2.9757">
        <ele>84.25</ele>
        <time>2021-07-28T17:26:33Z</time>
      </trkpt>
      <trkpt lat="49.34962" lon="2.97546">
        <ele>84.25</ele>
        <time>2021-07-28T17:26:36Z</time>
      </trkpt>
      <trkpt lat="49.34964" lon="2.97538">
        <ele>84.73</ele>
        <time>2021-07-28T17:26:37Z</time>
      </trkpt>
      <trkpt lat="49.34965" lon="2.97531">
        <ele>84.73</ele>
        <time>2021-07-28T17:26:38Z</time>
      </trkpt>
      <trkpt lat="49.34971" lon="2.97502">
        <ele>86.66</ele>
        <time>2021-07-28T17:26:47Z</time>
      </trkpt>
      <trkpt lat="49.34976" lon="2.97474">
        <ele>87.62</ele>
        <time>2021-07-28T17:26:56Z</time>
      </trkpt>
      <trkpt lat="49.34977" lon="2.97469">
        <ele>87.62</ele>
        <time>2021-07-28T17:26:57Z</time>
      </trkpt>
      <trkpt lat="49.34983" lon="2.9742">
        <ele>87.62</ele>
        <time>2021-07-28T17:27:03Z</time>
      </trkpt>
      <trkpt lat="49.34984" lon="2.97411">
        <ele>87.62</ele>
        <time>2021-07-28T17:27:04Z</time>
      </trkpt>
      <trkpt lat="49.34986" lon="2.97283">
        <ele>91.46</ele>
        <time>2021-07-28T17:27:16Z</time>
      </trkpt>
      <trkpt lat="49.34989" lon="2.97166">
        <ele>91.94</ele>
        <time>2021-07-28T17:27:29Z</time>
      </trkpt>
      <trkpt lat="49.3499" lon="2.97156">
        <ele>91.94</ele>
        <time>2021-07-28T17:27:31Z</time>
      </trkpt>
      <trkpt lat="49.34987" lon="2.97147">
        <ele>91.46</ele>
        <time>2021-07-28T17:27:32Z</time>
      </trkpt>
      <trkpt lat="49.34984" lon="2.97142">
        <ele>90.98</ele>
        <time>2021-07-28T17:27:33Z</time>
      </trkpt>
      <trkpt lat="49.34981" lon="2.97137">
        <ele>90.5</ele>
        <time>2021-07-28T17:27:34Z</time>
      </trkpt>
      <trkpt lat="49.34977" lon="2.97131">
        <ele>90.5</ele>
        <time>2021-07-28T17:27:35Z</time>
      </trkpt>
      <trkpt lat="49.34942" lon="2.97071">
        <ele>89.54</ele>
        <time>2021-07-28T17:27:46Z</time>
      </trkpt>
      <trkpt lat="49.34928" lon="2.97046">
        <ele>89.06</ele>
        <time>2021-07-28T17:27:55Z</time>
      </trkpt>
      <trkpt lat="49.34912" lon="2.97015">
        <ele>89.06</ele>
        <time>2021-07-28T17:28:00Z</time>
      </trkpt>
      <trkpt lat="49.34909" lon="2.97006">
        <ele>89.54</ele>
        <time>2021-07-28T17:28:01Z</time>
      </trkpt>
      <trkpt lat="49.34896" lon="2.96946">
        <ele>91.46</ele>
        <time>2021-07-28T17:28:10Z</time>
      </trkpt>
      <trkpt lat="49.34892" lon="2.9692">
        <ele>89.06</ele>
        <time>2021-07-28T17:28:23Z</time>
      </trkpt>
      <trkpt lat="49.34889" lon="2.96905">
        <ele>87.62</ele>
        <time>2021-07-28T17:28:32Z</time>
      </trkpt>
      <trkpt lat="49.34886" lon="2.96893">
        <ele>87.62</ele>
        <time>2021-07-28T17:28:43Z</time>
      </trkpt>
      <trkpt lat="49.34885" lon="2.96889">
        <ele>87.62</ele>
        <time>2021-07-28T17:28:44Z</time>
      </trkpt>
      <trkpt lat="49.3486" lon="2.96919">
        <ele>87.62</ele>
        <time>2021-07-28T17:28:55Z</time>
      </trkpt>
      <trkpt lat="49.34862" lon="2.9692">
        <ele>87.62</ele>
        <time>2021-07-28T17:29:14Z</time>
      </trkpt>
      <trkpt lat="49.34862" lon="2.96921">
        <ele>88.1</ele>
        <time>2021-07-28T17:31:26Z</time>
      </trkpt>
      <trkpt lat="49.3486" lon="2.96918">
        <ele>88.58</ele>
        <time>2021-07-28T17:32:54Z</time>
      </trkpt>
      <trkpt lat="49.34893" lon="2.96928">
        <ele>91.46</ele>
        <time>2021-07-28T17:33:04Z</time>
      </trkpt>
      <trkpt lat="49.34895" lon="2.96943">
        <ele>91.94</ele>
        <time>2021-07-28T17:33:08Z</time>
      </trkpt>
      <trkpt lat="49.34896" lon="2.96948">
        <ele>91.46</ele>
        <time>2021-07-28T17:33:09Z</time>
      </trkpt>
      <trkpt lat="49.34907" lon="2.96999">
        <ele>90.02</ele>
        <time>2021-07-28T17:33:15Z</time>
      </trkpt>
      <trkpt lat="49.3491" lon="2.97007">
        <ele>90.02</ele>
        <time>2021-07-28T17:33:16Z</time>
      </trkpt>
      <trkpt lat="49.34913" lon="2.97016">
        <ele>90.02</ele>
        <time>2021-07-28T17:33:17Z</time>
      </trkpt>
      <trkpt lat="49.34945" lon="2.97076">
        <ele>89.54</ele>
        <time>2021-07-28T17:33:28Z</time>
      </trkpt>
      <trkpt lat="49.3499" lon="2.97152">
        <ele>90.98</ele>
        <time>2021-07-28T17:33:42Z</time>
      </trkpt>
      <trkpt lat="49.34988" lon="2.97178">
        <ele>90.5</ele>
        <time>2021-07-28T17:33:52Z</time>
      </trkpt>
      <trkpt lat="49.34987" lon="2.97226">
        <ele>89.54</ele>
        <time>2021-07-28T17:34:02Z</time>
      </trkpt>
      <trkpt lat="49.34986" lon="2.97363">
        <ele>87.62</ele>
        <time>2021-07-28T17:34:15Z</time>
      </trkpt>
      <trkpt lat="49.34975" lon="2.97481">
        <ele>85.69</ele>
        <time>2021-07-28T17:34:27Z</time>
      </trkpt>
      <trkpt lat="49.34972" lon="2.97497">
        <ele>86.18</ele>
        <time>2021-07-28T17:34:34Z</time>
      </trkpt>
      <trkpt lat="49.34961" lon="2.97553">
        <ele>84.25</ele>
        <time>2021-07-28T17:34:45Z</time>
      </trkpt>
      <trkpt lat="49.34958" lon="2.97584">
        <ele>81.85</ele>
        <time>2021-07-28T17:34:58Z</time>
      </trkpt>
      <trkpt lat="49.34947" lon="2.97685">
        <ele>82.81</ele>
        <time>2021-07-28T17:35:14Z</time>
      </trkpt>
      <trkpt lat="49.34941" lon="2.97777">
        <ele>78.97</ele>
        <time>2021-07-28T17:35:30Z</time>
      </trkpt>
      <trkpt lat="49.34904" lon="2.97784">
        <ele>78.48</ele>
        <time>2021-07-28T17:35:40Z</time>
      </trkpt>
      <trkpt lat="49.34824" lon="2.97781">
        <ele>78.48</ele>
        <time>2021-07-28T17:35:59Z</time>
      </trkpt>
      <trkpt lat="49.34757" lon="2.97776">
        <ele>80.41</ele>
        <time>2021-07-28T17:36:14Z</time>
      </trkpt>
      <trkpt lat="49.34707" lon="2.97773">
        <ele>80.89</ele>
        <time>2021-07-28T17:36:29Z</time>
      </trkpt>
      <trkpt lat="49.34704" lon="2.97734">
        <ele>81.37</ele>
        <time>2021-07-28T17:36:40Z</time>
      </trkpt>
      <trkpt lat="49.34697" lon="2.9769">
        <ele>83.29</ele>
        <time>2021-07-28T17:36:56Z</time>
      </trkpt>
      <trkpt lat="49.34694" lon="2.9769">
        <ele>83.29</ele>
        <time>2021-07-28T17:36:58Z</time>
      </trkpt>
      <trkpt lat="49.34693" lon="2.97689">
        <ele>83.29</ele>
        <time>2021-07-28T17:36:59Z</time>
      </trkpt>
      <trkpt lat="49.3469" lon="2.97689">
        <ele>83.29</ele>
        <time>2021-07-28T17:37:00Z</time>
      </trkpt>
      <trkpt lat="49.3469" lon="2.97689">
        <ele>82.81</ele>
        <time>2021-07-28T17:37:02Z</time>
      </trkpt>
      <trkpt lat="49.3469" lon="2.97689">
        <ele>84.25</ele>
        <time>2021-07-28T17:37:11Z</time>
      </trkpt>
      <trkpt lat="49.3469" lon="2.97689">
        <ele>84.25</ele>
        <time>2021-07-28T17:37:15Z</time>
      </trkpt>
      <trkpt lat="49.34702" lon="2.97674">
        <ele>84.25</ele>
        <time>2021-07-28T17:37:16Z</time>
      </trkpt>
      <trkpt lat="49.34702" lon="2.97676">
        <ele>84.25</ele>
        <time>2021-07-28T17:37:17Z</time>
      </trkpt>
      <trkpt lat="49.3469" lon="2.97689">
        <ele>84.25</ele>
        <time>2021-07-28T17:37:18Z</time>
      </trkpt>
      <trkpt lat="49.3469" lon="2.97689">
        <ele>84.25</ele>
        <time>2021-07-28T17:37:19Z</time>
      </trkpt>
      <trkpt lat="49.3469" lon="2.97689">
        <ele>84.25</ele>
        <time>2021-07-28T17:37:20Z</time>
      </trkpt>
      <trkpt lat="49.34688" lon="2.97741">
        <ele>83.29</ele>
        <time>2021-07-28T17:37:36Z</time>
      </trkpt>
      <trkpt lat="49.34692" lon="2.97775">
        <ele>83.29</ele>
        <time>2021-07-28T17:37:49Z</time>
      </trkpt>
      <trkpt lat="49.34701" lon="2.97773">
        <ele>84.73</ele>
        <time>2021-07-28T17:38:03Z</time>
      </trkpt>
      <trkpt lat="49.34703" lon="2.97773">
        <ele>84.73</ele>
        <time>2021-07-28T17:38:16Z</time>
      </trkpt>
      <trkpt lat="49.34705" lon="2.97772">
        <ele>84.73</ele>
        <time>2021-07-28T17:38:17Z</time>
      </trkpt>
      <trkpt lat="49.34705" lon="2.97768">
        <ele>84.73</ele>
        <time>2021-07-28T17:38:18Z</time>
      </trkpt>
      <trkpt lat="49.34704" lon="2.97764">
        <ele>84.25</ele>
        <time>2021-07-28T17:38:19Z</time>
      </trkpt>
      <trkpt lat="49.34704" lon="2.97756">
        <ele>84.25</ele>
        <time>2021-07-28T17:38:20Z</time>
      </trkpt>
      <trkpt lat="49.34704" lon="2.97756">
        <ele>84.25</ele>
        <time>2021-07-28T17:38:21Z</time>
      </trkpt>
      <trkpt lat="49.34703" lon="2.9772">
        <ele>84.25</ele>
        <time>2021-07-28T17:38:37Z</time>
      </trkpt>
      <trkpt lat="49.34703" lon="2.97695">
        <ele>84.73</ele>
        <time>2021-07-28T17:38:48Z</time>
      </trkpt>
      <trkpt lat="49.347" lon="2.97615">
        <ele>86.18</ele>
        <time>2021-07-28T17:38:59Z</time>
      </trkpt>
      <trkpt lat="49.34695" lon="2.97528">
        <ele>89.54</ele>
        <time>2021-07-28T17:39:12Z</time>
      </trkpt>
      <trkpt lat="49.34693" lon="2.97483">
        <ele>90.5</ele>
        <time>2021-07-28T17:39:24Z</time>
      </trkpt>
      <trkpt lat="49.34693" lon="2.97467">
        <ele>90.5</ele>
        <time>2021-07-28T17:39:28Z</time>
      </trkpt>
      <trkpt lat="49.34693" lon="2.97465">
        <ele>90.02</ele>
        <time>2021-07-28T17:39:46Z</time>
      </trkpt>
      <trkpt lat="49.34693" lon="2.97465">
        <ele>90.02</ele>
        <time>2021-07-28T17:40:30Z</time>
      </trkpt>
      <trkpt lat="49.34693" lon="2.97465">
        <ele>90.02</ele>
        <time>2021-07-28T17:40:51Z</time>
      </trkpt>
      <trkpt lat="49.34693" lon="2.97465">
        <ele>89.54</ele>
        <time>2021-07-28T17:42:44Z</time>
      </trkpt>
    </trkseg>
  </trk>
  <trk>
    <name><![CDATA[Journal actif: 2021-07-28 18:02]]></name>
    <trkseg>
      <trkpt lat="49.34693" lon="2.9745">
        <ele>91.94</ele>
        <time>2021-07-28T20:02:30Z</time>
      </trkpt>
      <trkpt lat="49.34691" lon="2.97454">
        <ele>92.9</ele>
        <time>2021-07-28T20:03:12Z</time>
      </trkpt>
      <trkpt lat="49.34692" lon="2.97452">
        <ele>92.9</ele>
        <time>2021-07-28T20:03:15Z</time>
      </trkpt>
      <trkpt lat="49.34692" lon="2.97418">
        <ele>90.02</ele>
        <time>2021-07-28T20:03:27Z</time>
      </trkpt>
      <trkpt lat="49.34692" lon="2.97321">
        <ele>84.25</ele>
        <time>2021-07-28T20:03:38Z</time>
      </trkpt>
      <trkpt lat="49.34658" lon="2.97224">
        <ele>82.33</ele>
        <time>2021-07-28T20:03:48Z</time>
      </trkpt>
      <trkpt lat="49.34587" lon="2.97107">
        <ele>82.33</ele>
        <time>2021-07-28T20:04:03Z</time>
      </trkpt>
      <trkpt lat="49.34578" lon="2.97091">
        <ele>82.33</ele>
        <time>2021-07-28T20:04:06Z</time>
      </trkpt>
      <trkpt lat="49.34574" lon="2.97096">
        <ele>82.33</ele>
        <time>2021-07-28T20:04:07Z</time>
      </trkpt>
      <trkpt lat="49.34571" lon="2.97096">
        <ele>81.85</ele>
        <time>2021-07-28T20:04:08Z</time>
      </trkpt>
      <trkpt lat="49.34567" lon="2.97095">
        <ele>81.37</ele>
        <time>2021-07-28T20:04:19Z</time>
      </trkpt>
      <trkpt lat="49.34567" lon="2.97095">
        <ele>81.37</ele>
        <time>2021-07-28T20:04:31Z</time>
      </trkpt>
      <trkpt lat="49.34577" lon="2.97088">
        <ele>81.37</ele>
        <time>2021-07-28T20:04:33Z</time>
      </trkpt>
      <trkpt lat="49.3462" lon="2.97158">
        <ele>78.48</ele>
        <time>2021-07-28T20:04:45Z</time>
      </trkpt>
      <trkpt lat="49.34684" lon="2.97285">
        <ele>78.48</ele>
        <time>2021-07-28T20:04:57Z</time>
      </trkpt>
      <trkpt lat="49.34692" lon="2.97341">
        <ele>79.45</ele>
        <time>2021-07-28T20:05:00Z</time>
      </trkpt>
      <trkpt lat="49.34692" lon="2.97341">
        <ele>79.45</ele>
        <time>2021-07-28T20:05:01Z</time>
      </trkpt>
      <trkpt lat="49.34694" lon="2.97513">
        <ele>81.37</ele>
        <time>2021-07-28T20:05:14Z</time>
      </trkpt>
      <trkpt lat="49.34703" lon="2.97719">
        <ele>77.52</ele>
        <time>2021-07-28T20:05:32Z</time>
      </trkpt>
      <trkpt lat="49.34704" lon="2.9775">
        <ele>78</ele>
        <time>2021-07-28T20:05:35Z</time>
      </trkpt>
      <trkpt lat="49.34704" lon="2.97759">
        <ele>78</ele>
        <time>2021-07-28T20:05:36Z</time>
      </trkpt>
      <trkpt lat="49.34705" lon="2.97772">
        <ele>78.48</ele>
        <time>2021-07-28T20:05:37Z</time>
      </trkpt>
      <trkpt lat="49.34705" lon="2.97772">
        <ele>78.48</ele>
        <time>2021-07-28T20:05:38Z</time>
      </trkpt>
      <trkpt lat="49.34705" lon="2.97772">
        <ele>78</ele>
        <time>2021-07-28T20:05:39Z</time>
      </trkpt>
      <trkpt lat="49.34706" lon="2.97773">
        <ele>78</ele>
        <time>2021-07-28T20:05:40Z</time>
      </trkpt>
      <trkpt lat="49.34709" lon="2.97773">
        <ele>78</ele>
        <time>2021-07-28T20:05:41Z</time>
      </trkpt>
      <trkpt lat="49.34714" lon="2.97773">
        <ele>77.52</ele>
        <time>2021-07-28T20:05:42Z</time>
      </trkpt>
      <trkpt lat="49.34782" lon="2.97778">
        <ele>73.68</ele>
        <time>2021-07-28T20:05:54Z</time>
      </trkpt>
      <trkpt lat="49.34875" lon="2.97782">
        <ele>72.24</ele>
        <time>2021-07-28T20:06:10Z</time>
      </trkpt>
      <trkpt lat="49.34932" lon="2.97785">
        <ele>71.27</ele>
        <time>2021-07-28T20:06:23Z</time>
      </trkpt>
      <trkpt lat="49.34935" lon="2.97785">
        <ele>71.27</ele>
        <time>2021-07-28T20:06:24Z</time>
      </trkpt>
      <trkpt lat="49.34941" lon="2.97796">
        <ele>71.76</ele>
        <time>2021-07-28T20:06:25Z</time>
      </trkpt>
      <trkpt lat="49.34941" lon="2.97802">
        <ele>72.24</ele>
        <time>2021-07-28T20:06:26Z</time>
      </trkpt>
      <trkpt lat="49.34941" lon="2.97816">
        <ele>72.24</ele>
        <time>2021-07-28T20:06:27Z</time>
      </trkpt>
      <trkpt lat="49.34941" lon="2.97816">
        <ele>72.72</ele>
        <time>2021-07-28T20:06:28Z</time>
      </trkpt>
      <trkpt lat="49.34941" lon="2.97887">
        <ele>73.68</ele>
        <time>2021-07-28T20:06:37Z</time>
      </trkpt>
      <trkpt lat="49.34941" lon="2.97894">
        <ele>73.68</ele>
        <time>2021-07-28T20:06:38Z</time>
      </trkpt>
      <trkpt lat="49.34942" lon="2.97901">
        <ele>73.68</ele>
        <time>2021-07-28T20:06:39Z</time>
      </trkpt>
      <trkpt lat="49.34944" lon="2.97908">
        <ele>73.68</ele>
        <time>2021-07-28T20:06:40Z</time>
      </trkpt>
      <trkpt lat="49.34946" lon="2.97914">
        <ele>74.16</ele>
        <time>2021-07-28T20:06:41Z</time>
      </trkpt>
      <trkpt lat="49.34948" lon="2.9792">
        <ele>74.16</ele>
        <time>2021-07-28T20:06:42Z</time>
      </trkpt>
      <trkpt lat="49.34987" lon="2.98023">
        <ele>76.56</ele>
        <time>2021-07-28T20:06:56Z</time>
      </trkpt>
      <trkpt lat="49.35002" lon="2.98046">
        <ele>76.56</ele>
        <time>2021-07-28T20:06:59Z</time>
      </trkpt>
      <trkpt lat="49.35013" lon="2.98061">
        <ele>76.56</ele>
        <time>2021-07-28T20:07:00Z</time>
      </trkpt>
      <trkpt lat="49.35013" lon="2.98061">
        <ele>76.56</ele>
        <time>2021-07-28T20:07:01Z</time>
      </trkpt>
      <trkpt lat="49.35019" lon="2.98068">
        <ele>76.56</ele>
        <time>2021-07-28T20:07:02Z</time>
      </trkpt>
      <trkpt lat="49.35025" lon="2.98075">
        <ele>76.56</ele>
        <time>2021-07-28T20:07:03Z</time>
      </trkpt>
      <trkpt lat="49.35031" lon="2.98081">
        <ele>76.56</ele>
        <time>2021-07-28T20:07:04Z</time>
      </trkpt>
      <trkpt lat="49.35038" lon="2.98086">
        <ele>76.08</ele>
        <time>2021-07-28T20:07:05Z</time>
      </trkpt>
      <trkpt lat="49.35045" lon="2.9809">
        <ele>76.08</ele>
        <time>2021-07-28T20:07:06Z</time>
      </trkpt>
      <trkpt lat="49.35053" lon="2.98092">
        <ele>75.6</ele>
        <time>2021-07-28T20:07:07Z</time>
      </trkpt>
      <trkpt lat="49.35066" lon="2.98094">
        <ele>75.6</ele>
        <time>2021-07-28T20:07:09Z</time>
      </trkpt>
      <trkpt lat="49.35071" lon="2.98095">
        <ele>75.6</ele>
        <time>2021-07-28T20:07:10Z</time>
      </trkpt>
      <trkpt lat="49.35096" lon="2.98104">
        <ele>74.16</ele>
        <time>2021-07-28T20:07:15Z</time>
      </trkpt>
      <trkpt lat="49.351" lon="2.98111">
        <ele>74.16</ele>
        <time>2021-07-28T20:07:16Z</time>
      </trkpt>
      <trkpt lat="49.35105" lon="2.98117">
        <ele>73.2</ele>
        <time>2021-07-28T20:07:17Z</time>
      </trkpt>
      <trkpt lat="49.35174" lon="2.98221">
        <ele>70.31</ele>
        <time>2021-07-28T20:07:26Z</time>
      </trkpt>
      <trkpt lat="49.35213" lon="2.98281">
        <ele>74.64</ele>
        <time>2021-07-28T20:07:34Z</time>
      </trkpt>
      <trkpt lat="49.3522" lon="2.98292">
        <ele>76.08</ele>
        <time>2021-07-28T20:07:47Z</time>
      </trkpt>
      <trkpt lat="49.35235" lon="2.98315">
        <ele>77.52</ele>
        <time>2021-07-28T20:07:55Z</time>
      </trkpt>
      <trkpt lat="49.35238" lon="2.9832">
        <ele>77.52</ele>
        <time>2021-07-28T20:07:56Z</time>
      </trkpt>
      <trkpt lat="49.35242" lon="2.98325">
        <ele>78</ele>
        <time>2021-07-28T20:07:57Z</time>
      </trkpt>
      <trkpt lat="49.3528" lon="2.98381">
        <ele>79.93</ele>
        <time>2021-07-28T20:08:05Z</time>
      </trkpt>
      <trkpt lat="49.35285" lon="2.98387">
        <ele>80.41</ele>
        <time>2021-07-28T20:08:06Z</time>
      </trkpt>
      <trkpt lat="49.35292" lon="2.98389">
        <ele>80.41</ele>
        <time>2021-07-28T20:08:07Z</time>
      </trkpt>
      <trkpt lat="49.35298" lon="2.98391">
        <ele>80.89</ele>
        <time>2021-07-28T20:08:08Z</time>
      </trkpt>
      <trkpt lat="49.35303" lon="2.98392">
        <ele>81.85</ele>
        <time>2021-07-28T20:08:09Z</time>
      </trkpt>
      <trkpt lat="49.35311" lon="2.9839">
        <ele>82.81</ele>
        <time>2021-07-28T20:08:10Z</time>
      </trkpt>
      <trkpt lat="49.35336" lon="2.98383">
        <ele>83.77</ele>
        <time>2021-07-28T20:08:13Z</time>
      </trkpt>
      <trkpt lat="49.35344" lon="2.98382">
        <ele>83.29</ele>
        <time>2021-07-28T20:08:14Z</time>
      </trkpt>
      <trkpt lat="49.35353" lon="2.98383">
        <ele>83.77</ele>
        <time>2021-07-28T20:08:15Z</time>
      </trkpt>
      <trkpt lat="49.35363" lon="2.98384">
        <ele>84.73</ele>
        <time>2021-07-28T20:08:16Z</time>
      </trkpt>
      <trkpt lat="49.35372" lon="2.98388">
        <ele>85.69</ele>
        <time>2021-07-28T20:08:17Z</time>
      </trkpt>
      <trkpt lat="49.35382" lon="2.98395">
        <ele>85.69</ele>
        <time>2021-07-28T20:08:18Z</time>
      </trkpt>
      <trkpt lat="49.35392" lon="2.98402">
        <ele>85.21</ele>
        <time>2021-07-28T20:08:19Z</time>
      </trkpt>
      <trkpt lat="49.354" lon="2.98415">
        <ele>86.18</ele>
        <time>2021-07-28T20:08:20Z</time>
      </trkpt>
      <trkpt lat="49.35415" lon="2.98445">
        <ele>89.06</ele>
        <time>2021-07-28T20:08:21Z</time>
      </trkpt>
      <trkpt lat="49.35415" lon="2.98445">
        <ele>91.46</ele>
        <time>2021-07-28T20:08:22Z</time>
      </trkpt>
      <trkpt lat="49.35466" lon="2.98557">
        <ele>95.79</ele>
        <time>2021-07-28T20:08:29Z</time>
      </trkpt>
      <trkpt lat="49.35556" lon="2.98683">
        <ele>103</ele>
        <time>2021-07-28T20:08:39Z</time>
      </trkpt>
      <trkpt lat="49.35566" lon="2.98691">
        <ele>103.48</ele>
        <time>2021-07-28T20:08:40Z</time>
      </trkpt>
      <trkpt lat="49.35572" lon="2.98695">
        <ele>103</ele>
        <time>2021-07-28T20:08:41Z</time>
      </trkpt>
      <trkpt lat="49.35581" lon="2.98693">
        <ele>101.56</ele>
        <time>2021-07-28T20:08:42Z</time>
      </trkpt>
      <trkpt lat="49.35591" lon="2.98691">
        <ele>101.08</ele>
        <time>2021-07-28T20:08:43Z</time>
      </trkpt>
      <trkpt lat="49.35608" lon="2.98688">
        <ele>100.6</ele>
        <time>2021-07-28T20:08:44Z</time>
      </trkpt>
      <trkpt lat="49.35626" lon="2.98687">
        <ele>100.11</ele>
        <time>2021-07-28T20:08:47Z</time>
      </trkpt>
      <trkpt lat="49.35636" lon="2.98691">
        <ele>100.6</ele>
        <time>2021-07-28T20:08:48Z</time>
      </trkpt>
      <trkpt lat="49.35645" lon="2.98697">
        <ele>100.11</ele>
        <time>2021-07-28T20:08:49Z</time>
      </trkpt>
      <trkpt lat="49.35657" lon="2.98714">
        <ele>102.52</ele>
        <time>2021-07-28T20:08:50Z</time>
      </trkpt>
      <trkpt lat="49.35657" lon="2.98714">
        <ele>103.96</ele>
        <time>2021-07-28T20:08:51Z</time>
      </trkpt>
      <trkpt lat="49.35663" lon="2.98726">
        <ele>104.92</ele>
        <time>2021-07-28T20:08:52Z</time>
      </trkpt>
      <trkpt lat="49.35666" lon="2.98737">
        <ele>105.4</ele>
        <time>2021-07-28T20:08:53Z</time>
      </trkpt>
      <trkpt lat="49.3567" lon="2.9875">
        <ele>105.88</ele>
        <time>2021-07-28T20:08:54Z</time>
      </trkpt>
      <trkpt lat="49.35677" lon="2.98779">
        <ele>107.32</ele>
        <time>2021-07-28T20:08:56Z</time>
      </trkpt>
      <trkpt lat="49.35689" lon="2.98806">
        <ele>108.29</ele>
        <time>2021-07-28T20:08:57Z</time>
      </trkpt>
      <trkpt lat="49.35697" lon="2.98819">
        <ele>109.25</ele>
        <time>2021-07-28T20:08:58Z</time>
      </trkpt>
      <trkpt lat="49.35697" lon="2.98819">
        <ele>109.73</ele>
        <time>2021-07-28T20:08:59Z</time>
      </trkpt>
      <trkpt lat="49.35715" lon="2.98837">
        <ele>109.73</ele>
        <time>2021-07-28T20:09:00Z</time>
      </trkpt>
      <trkpt lat="49.35723" lon="2.98845">
        <ele>109.73</ele>
        <time>2021-07-28T20:09:01Z</time>
      </trkpt>
      <trkpt lat="49.35723" lon="2.98845">
        <ele>109.25</ele>
        <time>2021-07-28T20:09:02Z</time>
      </trkpt>
      <trkpt lat="49.35732" lon="2.98851">
        <ele>109.25</ele>
        <time>2021-07-28T20:09:03Z</time>
      </trkpt>
      <trkpt lat="49.35758" lon="2.98868">
        <ele>110.69</ele>
        <time>2021-07-28T20:09:06Z</time>
      </trkpt>
      <trkpt lat="49.35766" lon="2.98874">
        <ele>111.17</ele>
        <time>2021-07-28T20:09:07Z</time>
      </trkpt>
      <trkpt lat="49.35774" lon="2.98879">
        <ele>111.65</ele>
        <time>2021-07-28T20:09:08Z</time>
      </trkpt>
      <trkpt lat="49.35832" lon="2.98945">
        <ele>117.9</ele>
        <time>2021-07-28T20:09:16Z</time>
      </trkpt>
      <trkpt lat="49.3594" lon="2.99014">
        <ele>121.26</ele>
        <time>2021-07-28T20:09:25Z</time>
      </trkpt>
      <trkpt lat="49.36095" lon="2.99109">
        <ele>122.22</ele>
        <time>2021-07-28T20:09:36Z</time>
      </trkpt>
      <trkpt lat="49.36316" lon="2.99245">
        <ele>119.82</ele>
        <time>2021-07-28T20:09:49Z</time>
      </trkpt>
      <trkpt lat="49.36617" lon="2.9943">
        <ele>117.42</ele>
        <time>2021-07-28T20:10:05Z</time>
      </trkpt>
      <trkpt lat="49.36902" lon="2.99607">
        <ele>108.77</ele>
        <time>2021-07-28T20:10:21Z</time>
      </trkpt>
      <trkpt lat="49.36965" lon="2.99645">
        <ele>107.81</ele>
        <time>2021-07-28T20:10:25Z</time>
      </trkpt>
      <trkpt lat="49.36976" lon="2.99656">
        <ele>106.36</ele>
        <time>2021-07-28T20:10:26Z</time>
      </trkpt>
      <trkpt lat="49.36986" lon="2.99667">
        <ele>105.4</ele>
        <time>2021-07-28T20:10:27Z</time>
      </trkpt>
      <trkpt lat="49.36991" lon="2.9968">
        <ele>104.44</ele>
        <time>2021-07-28T20:10:28Z</time>
      </trkpt>
      <trkpt lat="49.36997" lon="2.99696">
        <ele>104.44</ele>
        <time>2021-07-28T20:10:29Z</time>
      </trkpt>
      <trkpt lat="49.37004" lon="2.99712">
        <ele>104.44</ele>
        <time>2021-07-28T20:10:30Z</time>
      </trkpt>
      <trkpt lat="49.37072" lon="2.99851">
        <ele>98.19</ele>
        <time>2021-07-28T20:10:38Z</time>
      </trkpt>
      <trkpt lat="49.37104" lon="2.99893">
        <ele>95.31</ele>
        <time>2021-07-28T20:10:41Z</time>
      </trkpt>
      <trkpt lat="49.37112" lon="2.99908">
        <ele>95.31</ele>
        <time>2021-07-28T20:10:42Z</time>
      </trkpt>
      <trkpt lat="49.3712" lon="2.99923">
        <ele>94.83</ele>
        <time>2021-07-28T20:10:43Z</time>
      </trkpt>
      <trkpt lat="49.37129" lon="2.99938">
        <ele>95.31</ele>
        <time>2021-07-28T20:10:44Z</time>
      </trkpt>
      <trkpt lat="49.37137" lon="2.99953">
        <ele>94.83</ele>
        <time>2021-07-28T20:10:45Z</time>
      </trkpt>
      <trkpt lat="49.37145" lon="2.99966">
        <ele>92.9</ele>
        <time>2021-07-28T20:10:46Z</time>
      </trkpt>
      <trkpt lat="49.37156" lon="2.99976">
        <ele>91.46</ele>
        <time>2021-07-28T20:10:47Z</time>
      </trkpt>
      <trkpt lat="49.37178" lon="2.99997">
        <ele>90.5</ele>
        <time>2021-07-28T20:10:48Z</time>
      </trkpt>
      <trkpt lat="49.37198" lon="3.00022">
        <ele>88.1</ele>
        <time>2021-07-28T20:10:50Z</time>
      </trkpt>
      <trkpt lat="49.37218" lon="3.0005">
        <ele>86.66</ele>
        <time>2021-07-28T20:10:52Z</time>
      </trkpt>
      <trkpt lat="49.37218" lon="3.0005">
        <ele>86.66</ele>
        <time>2021-07-28T20:10:53Z</time>
      </trkpt>
      <trkpt lat="49.37231" lon="3.00057">
        <ele>86.18</ele>
        <time>2021-07-28T20:10:54Z</time>
      </trkpt>
      <trkpt lat="49.37243" lon="3.00063">
        <ele>85.69</ele>
        <time>2021-07-28T20:10:55Z</time>
      </trkpt>
      <trkpt lat="49.37253" lon="3.00065">
        <ele>84.73</ele>
        <time>2021-07-28T20:10:56Z</time>
      </trkpt>
      <trkpt lat="49.37263" lon="3.00066">
        <ele>83.77</ele>
        <time>2021-07-28T20:10:57Z</time>
      </trkpt>
      <trkpt lat="49.37285" lon="3.00068">
        <ele>82.33</ele>
        <time>2021-07-28T20:10:58Z</time>
      </trkpt>
      <trkpt lat="49.37307" lon="3.00072">
        <ele>79.93</ele>
        <time>2021-07-28T20:11:01Z</time>
      </trkpt>
      <trkpt lat="49.37318" lon="3.0008">
        <ele>78.97</ele>
        <time>2021-07-28T20:11:02Z</time>
      </trkpt>
      <trkpt lat="49.3733" lon="3.00089">
        <ele>78.48</ele>
        <time>2021-07-28T20:11:03Z</time>
      </trkpt>
      <trkpt lat="49.37352" lon="3.00113">
        <ele>78</ele>
        <time>2021-07-28T20:11:04Z</time>
      </trkpt>
      <trkpt lat="49.37352" lon="3.00113">
        <ele>77.04</ele>
        <time>2021-07-28T20:11:05Z</time>
      </trkpt>
      <trkpt lat="49.37393" lon="3.00162">
        <ele>73.68</ele>
        <time>2021-07-28T20:11:09Z</time>
      </trkpt>
      <trkpt lat="49.37406" lon="3.00193">
        <ele>73.2</ele>
        <time>2021-07-28T20:11:10Z</time>
      </trkpt>
      <trkpt lat="49.37406" lon="3.00193">
        <ele>72.72</ele>
        <time>2021-07-28T20:11:11Z</time>
      </trkpt>
      <trkpt lat="49.37411" lon="3.00209">
        <ele>73.68</ele>
        <time>2021-07-28T20:11:12Z</time>
      </trkpt>
      <trkpt lat="49.37422" lon="3.00248">
        <ele>73.68</ele>
        <time>2021-07-28T20:11:13Z</time>
      </trkpt>
      <trkpt lat="49.3747" lon="3.00411">
        <ele>69.35</ele>
        <time>2021-07-28T20:11:22Z</time>
      </trkpt>
      <trkpt lat="49.37479" lon="3.00428">
        <ele>68.87</ele>
        <time>2021-07-28T20:11:23Z</time>
      </trkpt>
      <trkpt lat="49.37488" lon="3.00445">
        <ele>67.91</ele>
        <time>2021-07-28T20:11:24Z</time>
      </trkpt>
      <trkpt lat="49.37516" lon="3.00496">
        <ele>65.99</ele>
        <time>2021-07-28T20:11:27Z</time>
      </trkpt>
      <trkpt lat="49.37524" lon="3.00512">
        <ele>65.03</ele>
        <time>2021-07-28T20:11:28Z</time>
      </trkpt>
      <trkpt lat="49.37532" lon="3.00529">
        <ele>65.51</ele>
        <time>2021-07-28T20:11:29Z</time>
      </trkpt>
      <trkpt lat="49.37537" lon="3.00547">
        <ele>65.99</ele>
        <time>2021-07-28T20:11:30Z</time>
      </trkpt>
      <trkpt lat="49.37543" lon="3.00566">
        <ele>65.99</ele>
        <time>2021-07-28T20:11:31Z</time>
      </trkpt>
      <trkpt lat="49.3756" lon="3.00621">
        <ele>65.03</ele>
        <time>2021-07-28T20:11:34Z</time>
      </trkpt>
      <trkpt lat="49.37567" lon="3.00641">
        <ele>63.58</ele>
        <time>2021-07-28T20:11:35Z</time>
      </trkpt>
      <trkpt lat="49.37581" lon="3.00674">
        <ele>63.1</ele>
        <time>2021-07-28T20:11:36Z</time>
      </trkpt>
      <trkpt lat="49.37581" lon="3.00674">
        <ele>61.18</ele>
        <time>2021-07-28T20:11:37Z</time>
      </trkpt>
      <trkpt lat="49.37591" lon="3.00691">
        <ele>60.22</ele>
        <time>2021-07-28T20:11:38Z</time>
      </trkpt>
      <trkpt lat="49.37668" lon="3.00838">
        <ele>53.49</ele>
        <time>2021-07-28T20:11:47Z</time>
      </trkpt>
      <trkpt lat="49.37675" lon="3.00855">
        <ele>52.53</ele>
        <time>2021-07-28T20:11:48Z</time>
      </trkpt>
      <trkpt lat="49.37683" lon="3.00868">
        <ele>51.57</ele>
        <time>2021-07-28T20:11:49Z</time>
      </trkpt>
      <trkpt lat="49.37692" lon="3.00881">
        <ele>50.61</ele>
        <time>2021-07-28T20:11:50Z</time>
      </trkpt>
      <trkpt lat="49.37701" lon="3.00894">
        <ele>50.13</ele>
        <time>2021-07-28T20:11:51Z</time>
      </trkpt>
      <trkpt lat="49.3771" lon="3.00906">
        <ele>49.16</ele>
        <time>2021-07-28T20:11:52Z</time>
      </trkpt>
      <trkpt lat="49.3772" lon="3.00918">
        <ele>48.68</ele>
        <time>2021-07-28T20:11:53Z</time>
      </trkpt>
      <trkpt lat="49.37731" lon="3.00926">
        <ele>48.2</ele>
        <time>2021-07-28T20:11:54Z</time>
      </trkpt>
      <trkpt lat="49.37743" lon="3.00934">
        <ele>48.2</ele>
        <time>2021-07-28T20:11:55Z</time>
      </trkpt>
      <trkpt lat="49.37754" lon="3.00942">
        <ele>48.2</ele>
        <time>2021-07-28T20:11:56Z</time>
      </trkpt>
      <trkpt lat="49.3794" lon="3.0101">
        <ele>47.24</ele>
        <time>2021-07-28T20:12:10Z</time>
      </trkpt>
      <trkpt lat="49.37968" lon="3.0102">
        <ele>45.8</ele>
        <time>2021-07-28T20:12:12Z</time>
      </trkpt>
      <trkpt lat="49.37983" lon="3.01025">
        <ele>46.76</ele>
        <time>2021-07-28T20:12:13Z</time>
      </trkpt>
      <trkpt lat="49.37994" lon="3.01036">
        <ele>46.28</ele>
        <time>2021-07-28T20:12:14Z</time>
      </trkpt>
      <trkpt lat="49.38005" lon="3.01049">
        <ele>46.76</ele>
        <time>2021-07-28T20:12:15Z</time>
      </trkpt>
      <trkpt lat="49.38015" lon="3.01064">
        <ele>46.28</ele>
        <time>2021-07-28T20:12:16Z</time>
      </trkpt>
      <trkpt lat="49.38025" lon="3.01078">
        <ele>45.8</ele>
        <time>2021-07-28T20:12:17Z</time>
      </trkpt>
      <trkpt lat="49.38035" lon="3.01093">
        <ele>44.84</ele>
        <time>2021-07-28T20:12:18Z</time>
      </trkpt>
      <trkpt lat="49.38046" lon="3.01105">
        <ele>45.32</ele>
        <time>2021-07-28T20:12:19Z</time>
      </trkpt>
      <trkpt lat="49.38058" lon="3.01116">
        <ele>45.32</ele>
        <time>2021-07-28T20:12:20Z</time>
      </trkpt>
      <trkpt lat="49.38148" lon="3.01196">
        <ele>48.2</ele>
        <time>2021-07-28T20:12:28Z</time>
      </trkpt>
      <trkpt lat="49.38192" lon="3.01229">
        <ele>47.24</ele>
        <time>2021-07-28T20:12:32Z</time>
      </trkpt>
      <trkpt lat="49.38192" lon="3.01229">
        <ele>47.24</ele>
        <time>2021-07-28T20:12:33Z</time>
      </trkpt>
      <trkpt lat="49.38211" lon="3.01234">
        <ele>46.76</ele>
        <time>2021-07-28T20:12:34Z</time>
      </trkpt>
      <trkpt lat="49.38222" lon="3.01234">
        <ele>46.28</ele>
        <time>2021-07-28T20:12:35Z</time>
      </trkpt>
      <trkpt lat="49.38222" lon="3.01234">
        <ele>46.28</ele>
        <time>2021-07-28T20:12:36Z</time>
      </trkpt>
      <trkpt lat="49.38232" lon="3.01233">
        <ele>46.28</ele>
        <time>2021-07-28T20:12:37Z</time>
      </trkpt>
      <trkpt lat="49.38394" lon="3.01182">
        <ele>47.72</ele>
        <time>2021-07-28T20:12:50Z</time>
      </trkpt>
      <trkpt lat="49.38431" lon="3.01161">
        <ele>48.68</ele>
        <time>2021-07-28T20:12:53Z</time>
      </trkpt>
      <trkpt lat="49.38441" lon="3.01154">
        <ele>48.68</ele>
        <time>2021-07-28T20:12:54Z</time>
      </trkpt>
      <trkpt lat="49.3845" lon="3.01144">
        <ele>49.16</ele>
        <time>2021-07-28T20:12:55Z</time>
      </trkpt>
      <trkpt lat="49.38467" lon="3.0112">
        <ele>49.16</ele>
        <time>2021-07-28T20:12:56Z</time>
      </trkpt>
      <trkpt lat="49.38474" lon="3.01107">
        <ele>49.16</ele>
        <time>2021-07-28T20:12:57Z</time>
      </trkpt>
      <trkpt lat="49.38553" lon="3.00969">
        <ele>49.16</ele>
        <time>2021-07-28T20:13:09Z</time>
      </trkpt>
      <trkpt lat="49.38562" lon="3.00949">
        <ele>48.2</ele>
        <time>2021-07-28T20:13:12Z</time>
      </trkpt>
      <trkpt lat="49.38564" lon="3.0094">
        <ele>47.72</ele>
        <time>2021-07-28T20:13:13Z</time>
      </trkpt>
      <trkpt lat="49.38582" lon="3.00852">
        <ele>43.88</ele>
        <time>2021-07-28T20:13:21Z</time>
      </trkpt>
      <trkpt lat="49.38586" lon="3.00842">
        <ele>42.92</ele>
        <time>2021-07-28T20:13:22Z</time>
      </trkpt>
      <trkpt lat="49.3859" lon="3.00831">
        <ele>42.92</ele>
        <time>2021-07-28T20:13:23Z</time>
      </trkpt>
      <trkpt lat="49.38595" lon="3.00824">
        <ele>42.44</ele>
        <time>2021-07-28T20:13:24Z</time>
      </trkpt>
      <trkpt lat="49.38601" lon="3.00817">
        <ele>41.95</ele>
        <time>2021-07-28T20:13:25Z</time>
      </trkpt>
      <trkpt lat="49.38608" lon="3.0081">
        <ele>41.47</ele>
        <time>2021-07-28T20:13:26Z</time>
      </trkpt>
      <trkpt lat="49.38695" lon="3.00718">
        <ele>40.51</ele>
        <time>2021-07-28T20:13:40Z</time>
      </trkpt>
      <trkpt lat="49.38744" lon="3.00672">
        <ele>40.03</ele>
        <time>2021-07-28T20:13:53Z</time>
      </trkpt>
      <trkpt lat="49.38791" lon="3.00643">
        <ele>40.99</ele>
        <time>2021-07-28T20:14:00Z</time>
      </trkpt>
      <trkpt lat="49.38898" lon="3.00628">
        <ele>40.99</ele>
        <time>2021-07-28T20:14:13Z</time>
      </trkpt>
      <trkpt lat="49.39019" lon="3.0063">
        <ele>44.36</ele>
        <time>2021-07-28T20:14:27Z</time>
      </trkpt>
      <trkpt lat="49.39019" lon="3.0063">
        <ele>44.84</ele>
        <time>2021-07-28T20:14:28Z</time>
      </trkpt>
      <trkpt lat="49.39027" lon="3.00627">
        <ele>45.32</ele>
        <time>2021-07-28T20:14:29Z</time>
      </trkpt>
      <trkpt lat="49.3907" lon="3.00605">
        <ele>42.92</ele>
        <time>2021-07-28T20:14:36Z</time>
      </trkpt>
      <trkpt lat="49.39102" lon="3.00586">
        <ele>42.44</ele>
        <time>2021-07-28T20:14:44Z</time>
      </trkpt>
      <trkpt lat="49.39146" lon="3.00564">
        <ele>42.44</ele>
        <time>2021-07-28T20:14:53Z</time>
      </trkpt>
      <trkpt lat="49.39255" lon="3.00524">
        <ele>44.84</ele>
        <time>2021-07-28T20:15:03Z</time>
      </trkpt>
      <trkpt lat="49.39395" lon="3.00497">
        <ele>42.92</ele>
        <time>2021-07-28T20:15:13Z</time>
      </trkpt>
      <trkpt lat="49.39553" lon="3.0048">
        <ele>44.84</ele>
        <time>2021-07-28T20:15:24Z</time>
      </trkpt>
      <trkpt lat="49.39599" lon="3.00466">
        <ele>38.59</ele>
        <time>2021-07-28T20:15:31Z</time>
      </trkpt>
      <trkpt lat="49.39611" lon="3.00462">
        <ele>38.11</ele>
        <time>2021-07-28T20:15:42Z</time>
      </trkpt>
      <trkpt lat="49.39634" lon="3.00455">
        <ele>38.11</ele>
        <time>2021-07-28T20:15:50Z</time>
      </trkpt>
      <trkpt lat="49.3974" lon="3.0042">
        <ele>39.07</ele>
        <time>2021-07-28T20:16:01Z</time>
      </trkpt>
      <trkpt lat="49.39887" lon="3.00365">
        <ele>40.99</ele>
        <time>2021-07-28T20:16:15Z</time>
      </trkpt>
      <trkpt lat="49.40039" lon="3.00297">
        <ele>37.15</ele>
        <time>2021-07-28T20:16:30Z</time>
      </trkpt>
      <trkpt lat="49.40135" lon="3.0031">
        <ele>38.11</ele>
        <time>2021-07-28T20:16:39Z</time>
      </trkpt>
      <trkpt lat="49.40223" lon="3.00387">
        <ele>38.59</ele>
        <time>2021-07-28T20:16:50Z</time>
      </trkpt>
      <trkpt lat="49.40308" lon="3.00441">
        <ele>37.15</ele>
        <time>2021-07-28T20:17:01Z</time>
      </trkpt>
      <trkpt lat="49.40386" lon="3.00476">
        <ele>37.15</ele>
        <time>2021-07-28T20:17:12Z</time>
      </trkpt>
      <trkpt lat="49.40394" lon="3.0048">
        <ele>37.15</ele>
        <time>2021-07-28T20:17:21Z</time>
      </trkpt>
      <trkpt lat="49.4042" lon="3.00495">
        <ele>37.15</ele>
        <time>2021-07-28T20:17:28Z</time>
      </trkpt>
      <trkpt lat="49.4049" lon="3.00527">
        <ele>37.15</ele>
        <time>2021-07-28T20:17:40Z</time>
      </trkpt>
      <trkpt lat="49.40519" lon="3.00542">
        <ele>37.63</ele>
        <time>2021-07-28T20:17:49Z</time>
      </trkpt>
      <trkpt lat="49.40522" lon="3.00544">
        <ele>37.63</ele>
        <time>2021-07-28T20:17:50Z</time>
      </trkpt>
      <trkpt lat="49.40525" lon="3.00548">
        <ele>37.15</ele>
        <time>2021-07-28T20:17:51Z</time>
      </trkpt>
      <trkpt lat="49.40528" lon="3.00551">
        <ele>36.67</ele>
        <time>2021-07-28T20:17:52Z</time>
      </trkpt>
      <trkpt lat="49.4053" lon="3.00558">
        <ele>36.67</ele>
        <time>2021-07-28T20:17:53Z</time>
      </trkpt>
      <trkpt lat="49.40531" lon="3.00565">
        <ele>36.67</ele>
        <time>2021-07-28T20:17:54Z</time>
      </trkpt>
      <trkpt lat="49.40538" lon="3.00595">
        <ele>36.19</ele>
        <time>2021-07-28T20:17:57Z</time>
      </trkpt>
      <trkpt lat="49.40541" lon="3.00607">
        <ele>36.19</ele>
        <time>2021-07-28T20:17:58Z</time>
      </trkpt>
      <trkpt lat="49.40587" lon="3.00737">
        <ele>35.23</ele>
        <time>2021-07-28T20:18:10Z</time>
      </trkpt>
      <trkpt lat="49.40593" lon="3.00749">
        <ele>34.26</ele>
        <time>2021-07-28T20:18:11Z</time>
      </trkpt>
      <trkpt lat="49.40601" lon="3.00757">
        <ele>34.26</ele>
        <time>2021-07-28T20:18:12Z</time>
      </trkpt>
      <trkpt lat="49.40609" lon="3.00765">
        <ele>34.74</ele>
        <time>2021-07-28T20:18:13Z</time>
      </trkpt>
      <trkpt lat="49.40619" lon="3.00769">
        <ele>34.74</ele>
        <time>2021-07-28T20:18:14Z</time>
      </trkpt>
      <trkpt lat="49.40629" lon="3.00772">
        <ele>34.26</ele>
        <time>2021-07-28T20:18:15Z</time>
      </trkpt>
      <trkpt lat="49.40637" lon="3.00774">
        <ele>34.74</ele>
        <time>2021-07-28T20:18:16Z</time>
      </trkpt>
      <trkpt lat="49.40646" lon="3.00774">
        <ele>34.74</ele>
        <time>2021-07-28T20:18:17Z</time>
      </trkpt>
      <trkpt lat="49.4075" lon="3.0077">
        <ele>34.26</ele>
        <time>2021-07-28T20:18:30Z</time>
      </trkpt>
      <trkpt lat="49.40854" lon="3.00789">
        <ele>31.86</ele>
        <time>2021-07-28T20:18:40Z</time>
      </trkpt>
      <trkpt lat="49.4098" lon="3.00829">
        <ele>32.82</ele>
        <time>2021-07-28T20:18:53Z</time>
      </trkpt>
      <trkpt lat="49.41023" lon="3.00836">
        <ele>32.34</ele>
        <time>2021-07-28T20:18:57Z</time>
      </trkpt>
      <trkpt lat="49.41034" lon="3.00838">
        <ele>31.86</ele>
        <time>2021-07-28T20:18:58Z</time>
      </trkpt>
      <trkpt lat="49.41152" lon="3.00856">
        <ele>32.82</ele>
        <time>2021-07-28T20:19:10Z</time>
      </trkpt>
      <trkpt lat="49.41173" lon="3.00857">
        <ele>33.3</ele>
        <time>2021-07-28T20:19:12Z</time>
      </trkpt>
      <trkpt lat="49.41284" lon="3.00847">
        <ele>35.71</ele>
        <time>2021-07-28T20:19:24Z</time>
      </trkpt>
      <trkpt lat="49.41312" lon="3.00868">
        <ele>37.63</ele>
        <time>2021-07-28T20:19:34Z</time>
      </trkpt>
      <trkpt lat="49.41303" lon="3.0093">
        <ele>37.63</ele>
        <time>2021-07-28T20:19:45Z</time>
      </trkpt>
      <trkpt lat="49.4129" lon="3.01019">
        <ele>38.59</ele>
        <time>2021-07-28T20:20:03Z</time>
      </trkpt>
      <trkpt lat="49.41287" lon="3.01039">
        <ele>39.07</ele>
        <time>2021-07-28T20:20:20Z</time>
      </trkpt>
      <trkpt lat="49.41282" lon="3.01071">
        <ele>38.59</ele>
        <time>2021-07-28T20:20:36Z</time>
      </trkpt>
      <trkpt lat="49.41282" lon="3.01071">
        <ele>38.59</ele>
        <time>2021-07-28T20:21:07Z</time>
      </trkpt>
      <trkpt lat="49.41282" lon="3.01071">
        <ele>38.59</ele>
        <time>2021-07-28T20:21:08Z</time>
      </trkpt>
      <trkpt lat="49.41285" lon="3.01052">
        <ele>38.59</ele>
        <time>2021-07-28T20:21:26Z</time>
      </trkpt>
      <trkpt lat="49.41285" lon="3.01052">
        <ele>38.11</ele>
        <time>2021-07-28T20:21:32Z</time>
      </trkpt>
      <trkpt lat="49.41275" lon="3.01043">
        <ele>37.15</ele>
        <time>2021-07-28T20:21:39Z</time>
      </trkpt>
      <trkpt lat="49.41265" lon="3.0104">
        <ele>37.15</ele>
        <time>2021-07-28T20:21:53Z</time>
      </trkpt>
      <trkpt lat="49.41257" lon="3.01039">
        <ele>37.15</ele>
        <time>2021-07-28T20:22:13Z</time>
      </trkpt>
      <trkpt lat="49.41257" lon="3.0104">
        <ele>36.67</ele>
        <time>2021-07-28T20:24:09Z</time>
      </trkpt>
      <trkpt lat="49.41259" lon="3.01039">
        <ele>36.67</ele>
        <time>2021-07-28T20:26:26Z</time>
      </trkpt>
      <trkpt lat="49.41261" lon="3.01039">
        <ele>37.63</ele>
        <time>2021-07-28T20:26:46Z</time>
      </trkpt>
      <trkpt lat="49.41261" lon="3.01039">
        <ele>37.63</ele>
        <time>2021-07-28T20:28:38Z</time>
      </trkpt>
      <trkpt lat="49.41261" lon="3.01039">
        <ele>37.15</ele>
        <time>2021-07-28T20:30:28Z</time>
      </trkpt>
      <trkpt lat="49.41261" lon="3.01039">
        <ele>37.15</ele>
        <time>2021-07-28T20:31:49Z</time>
      </trkpt>
      <trkpt lat="49.4126" lon="3.01039">
        <ele>37.15</ele>
        <time>2021-07-28T20:31:50Z</time>
      </trkpt>
      <trkpt lat="49.41257" lon="3.01026">
        <ele>36.19</ele>
        <time>2021-07-28T20:31:56Z</time>
      </trkpt>
      <trkpt lat="49.41274" lon="3.00999">
        <ele>35.71</ele>
        <time>2021-07-28T20:32:08Z</time>
      </trkpt>
      <trkpt lat="49.41295" lon="3.00984">
        <ele>35.71</ele>
        <time>2021-07-28T20:32:18Z</time>
      </trkpt>
      <trkpt lat="49.41309" lon="3.00891">
        <ele>36.67</ele>
        <time>2021-07-28T20:32:28Z</time>
      </trkpt>
      <trkpt lat="49.41318" lon="3.00862">
        <ele>36.19</ele>
        <time>2021-07-28T20:32:34Z</time>
      </trkpt>
      <trkpt lat="49.41318" lon="3.00862">
        <ele>35.71</ele>
        <time>2021-07-28T20:32:35Z</time>
      </trkpt>
      <trkpt lat="49.41321" lon="3.00863">
        <ele>35.71</ele>
        <time>2021-07-28T20:32:36Z</time>
      </trkpt>
      <trkpt lat="49.41325" lon="3.00865">
        <ele>35.71</ele>
        <time>2021-07-28T20:32:37Z</time>
      </trkpt>
      <trkpt lat="49.4133" lon="3.00867">
        <ele>35.71</ele>
        <time>2021-07-28T20:32:38Z</time>
      </trkpt>
      <trkpt lat="49.41347" lon="3.00873">
        <ele>35.71</ele>
        <time>2021-07-28T20:32:40Z</time>
      </trkpt>
      <trkpt lat="49.41421" lon="3.00899">
        <ele>37.63</ele>
        <time>2021-07-28T20:32:50Z</time>
      </trkpt>
      <trkpt lat="49.41433" lon="3.00903">
        <ele>38.59</ele>
        <time>2021-07-28T20:32:52Z</time>
      </trkpt>
      <trkpt lat="49.41438" lon="3.00905">
        <ele>38.59</ele>
        <time>2021-07-28T20:32:53Z</time>
      </trkpt>
      <trkpt lat="49.41442" lon="3.00905">
        <ele>38.59</ele>
        <time>2021-07-28T20:32:54Z</time>
      </trkpt>
      <trkpt lat="49.41456" lon="3.00897">
        <ele>38.11</ele>
        <time>2021-07-28T20:32:55Z</time>
      </trkpt>
      <trkpt lat="49.41458" lon="3.00888">
        <ele>37.15</ele>
        <time>2021-07-28T20:32:56Z</time>
      </trkpt>
      <trkpt lat="49.41458" lon="3.00888">
        <ele>38.11</ele>
        <time>2021-07-28T20:32:57Z</time>
      </trkpt>
      <trkpt lat="49.4146" lon="3.00878">
        <ele>38.11</ele>
        <time>2021-07-28T20:32:58Z</time>
      </trkpt>
      <trkpt lat="49.41463" lon="3.00867">
        <ele>38.11</ele>
        <time>2021-07-28T20:32:59Z</time>
      </trkpt>
      <trkpt lat="49.41466" lon="3.00856">
        <ele>38.11</ele>
        <time>2021-07-28T20:33:00Z</time>
      </trkpt>
      <trkpt lat="49.41478" lon="3.00845">
        <ele>38.59</ele>
        <time>2021-07-28T20:33:01Z</time>
      </trkpt>
      <trkpt lat="49.41478" lon="3.00845">
        <ele>38.59</ele>
        <time>2021-07-28T20:33:02Z</time>
      </trkpt>
      <trkpt lat="49.41485" lon="3.00843">
        <ele>39.07</ele>
        <time>2021-07-28T20:33:03Z</time>
      </trkpt>
      <trkpt lat="49.41493" lon="3.00841">
        <ele>39.55</ele>
        <time>2021-07-28T20:33:04Z</time>
      </trkpt>
      <trkpt lat="49.41501" lon="3.00839">
        <ele>40.03</ele>
        <time>2021-07-28T20:33:05Z</time>
      </trkpt>
      <trkpt lat="49.41583" lon="3.00862">
        <ele>45.32</ele>
        <time>2021-07-28T20:33:13Z</time>
      </trkpt>
      <trkpt lat="49.41701" lon="3.00899">
        <ele>53.01</ele>
        <time>2021-07-28T20:33:23Z</time>
      </trkpt>
      <trkpt lat="49.4181" lon="3.00883">
        <ele>56.37</ele>
        <time>2021-07-28T20:33:33Z</time>
      </trkpt>
      <trkpt lat="49.41824" lon="3.0088">
        <ele>58.3</ele>
        <time>2021-07-28T20:33:35Z</time>
      </trkpt>
    </trkseg>
  </trk>
  <trk>
    <name><![CDATA[Journal actif: 2021-07-29 09:41]]></name>
    <trkseg>
      <trkpt lat="49.41819" lon="3.00904">
        <ele>42.44</ele>
        <time>2021-07-29T11:41:45Z</time>
      </trkpt>
      <trkpt lat="49.41819" lon="3.00902">
        <ele>41.95</ele>
        <time>2021-07-29T11:42:10Z</time>
      </trkpt>
      <trkpt lat="49.41818" lon="3.00901">
        <ele>41.47</ele>
        <time>2021-07-29T11:42:34Z</time>
      </trkpt>
      <trkpt lat="49.41818" lon="3.00899">
        <ele>40.99</ele>
        <time>2021-07-29T11:42:54Z</time>
      </trkpt>
      <trkpt lat="49.41817" lon="3.00897">
        <ele>41.47</ele>
        <time>2021-07-29T11:45:12Z</time>
      </trkpt>
      <trkpt lat="49.41818" lon="3.00905">
        <ele>41.95</ele>
        <time>2021-07-29T11:45:46Z</time>
      </trkpt>
      <trkpt lat="49.41818" lon="3.00908">
        <ele>41.95</ele>
        <time>2021-07-29T11:46:05Z</time>
      </trkpt>
      <trkpt lat="49.41838" lon="3.00876">
        <ele>43.4</ele>
        <time>2021-07-29T11:46:19Z</time>
      </trkpt>
      <trkpt lat="49.4184" lon="3.00877">
        <ele>44.84</ele>
        <time>2021-07-29T11:46:28Z</time>
      </trkpt>
      <trkpt lat="49.41837" lon="3.00876">
        <ele>45.32</ele>
        <time>2021-07-29T11:46:31Z</time>
      </trkpt>
      <trkpt lat="49.41836" lon="3.00877">
        <ele>45.32</ele>
        <time>2021-07-29T11:46:32Z</time>
      </trkpt>
      <trkpt lat="49.41833" lon="3.00877">
        <ele>45.32</ele>
        <time>2021-07-29T11:46:33Z</time>
      </trkpt>
      <trkpt lat="49.41829" lon="3.00878">
        <ele>45.32</ele>
        <time>2021-07-29T11:46:34Z</time>
      </trkpt>
      <trkpt lat="49.41752" lon="3.00898">
        <ele>45.32</ele>
        <time>2021-07-29T11:46:47Z</time>
      </trkpt>
      <trkpt lat="49.41653" lon="3.00885">
        <ele>41.47</ele>
        <time>2021-07-29T11:47:01Z</time>
      </trkpt>
      <trkpt lat="49.41519" lon="3.00844">
        <ele>37.15</ele>
        <time>2021-07-29T11:47:17Z</time>
      </trkpt>
      <trkpt lat="49.41479" lon="3.00844">
        <ele>36.67</ele>
        <time>2021-07-29T11:47:26Z</time>
      </trkpt>
      <trkpt lat="49.41468" lon="3.00847">
        <ele>38.59</ele>
        <time>2021-07-29T11:47:33Z</time>
      </trkpt>
      <trkpt lat="49.41468" lon="3.00849">
        <ele>38.59</ele>
        <time>2021-07-29T11:47:34Z</time>
      </trkpt>
      <trkpt lat="49.41466" lon="3.00855">
        <ele>38.59</ele>
        <time>2021-07-29T11:47:35Z</time>
      </trkpt>
      <trkpt lat="49.41463" lon="3.00868">
        <ele>38.59</ele>
        <time>2021-07-29T11:47:36Z</time>
      </trkpt>
      <trkpt lat="49.41457" lon="3.00891">
        <ele>37.63</ele>
        <time>2021-07-29T11:47:40Z</time>
      </trkpt>
      <trkpt lat="49.41454" lon="3.00904">
        <ele>37.15</ele>
        <time>2021-07-29T11:47:41Z</time>
      </trkpt>
      <trkpt lat="49.41454" lon="3.00904">
        <ele>37.15</ele>
        <time>2021-07-29T11:47:42Z</time>
      </trkpt>
      <trkpt lat="49.41444" lon="3.00905">
        <ele>37.15</ele>
        <time>2021-07-29T11:47:43Z</time>
      </trkpt>
      <trkpt lat="49.41441" lon="3.00905">
        <ele>37.63</ele>
        <time>2021-07-29T11:47:44Z</time>
      </trkpt>
      <trkpt lat="49.41436" lon="3.00904">
        <ele>37.63</ele>
        <time>2021-07-29T11:47:45Z</time>
      </trkpt>
      <trkpt lat="49.41436" lon="3.00904">
        <ele>37.63</ele>
        <time>2021-07-29T11:47:46Z</time>
      </trkpt>
      <trkpt lat="49.41427" lon="3.00901">
        <ele>37.15</ele>
        <time>2021-07-29T11:47:47Z</time>
      </trkpt>
      <trkpt lat="49.41427" lon="3.00901">
        <ele>37.15</ele>
        <time>2021-07-29T11:47:48Z</time>
      </trkpt>
      <trkpt lat="49.41334" lon="3.00868">
        <ele>34.74</ele>
        <time>2021-07-29T11:48:01Z</time>
      </trkpt>
      <trkpt lat="49.41291" lon="3.0085">
        <ele>34.26</ele>
        <time>2021-07-29T11:48:06Z</time>
      </trkpt>
      <trkpt lat="49.41282" lon="3.00846">
        <ele>34.74</ele>
        <time>2021-07-29T11:48:07Z</time>
      </trkpt>
      <trkpt lat="49.41273" lon="3.00843">
        <ele>34.74</ele>
        <time>2021-07-29T11:48:08Z</time>
      </trkpt>
      <trkpt lat="49.41265" lon="3.00839">
        <ele>34.74</ele>
        <time>2021-07-29T11:48:09Z</time>
      </trkpt>
      <trkpt lat="49.41257" lon="3.0084">
        <ele>34.26</ele>
        <time>2021-07-29T11:48:10Z</time>
      </trkpt>
      <trkpt lat="49.41249" lon="3.00842">
        <ele>33.78</ele>
        <time>2021-07-29T11:48:11Z</time>
      </trkpt>
      <trkpt lat="49.41117" lon="3.00852">
        <ele>33.3</ele>
        <time>2021-07-29T11:48:25Z</time>
      </trkpt>
      <trkpt lat="49.41054" lon="3.00841">
        <ele>32.34</ele>
        <time>2021-07-29T11:48:32Z</time>
      </trkpt>
      <trkpt lat="49.40964" lon="3.00827">
        <ele>32.34</ele>
        <time>2021-07-29T11:48:41Z</time>
      </trkpt>
      <trkpt lat="49.40823" lon="3.00779">
        <ele>33.78</ele>
        <time>2021-07-29T11:48:53Z</time>
      </trkpt>
      <trkpt lat="49.40759" lon="3.0077">
        <ele>33.3</ele>
        <time>2021-07-29T11:49:01Z</time>
      </trkpt>
      <trkpt lat="49.40662" lon="3.00774">
        <ele>30.9</ele>
        <time>2021-07-29T11:49:15Z</time>
      </trkpt>
      <trkpt lat="49.40633" lon="3.00774">
        <ele>29.46</ele>
        <time>2021-07-29T11:49:18Z</time>
      </trkpt>
      <trkpt lat="49.40623" lon="3.0077">
        <ele>29.94</ele>
        <time>2021-07-29T11:49:19Z</time>
      </trkpt>
      <trkpt lat="49.40615" lon="3.00768">
        <ele>29.46</ele>
        <time>2021-07-29T11:49:20Z</time>
      </trkpt>
      <trkpt lat="49.40606" lon="3.00762">
        <ele>28.98</ele>
        <time>2021-07-29T11:49:21Z</time>
      </trkpt>
      <trkpt lat="49.40596" lon="3.00752">
        <ele>29.46</ele>
        <time>2021-07-29T11:49:22Z</time>
      </trkpt>
      <trkpt lat="49.40589" lon="3.00741">
        <ele>29.94</ele>
        <time>2021-07-29T11:49:23Z</time>
      </trkpt>
      <trkpt lat="49.40583" lon="3.00727">
        <ele>30.42</ele>
        <time>2021-07-29T11:49:24Z</time>
      </trkpt>
      <trkpt lat="49.40543" lon="3.00616">
        <ele>29.94</ele>
        <time>2021-07-29T11:49:31Z</time>
      </trkpt>
      <trkpt lat="49.40539" lon="3.006">
        <ele>29.46</ele>
        <time>2021-07-29T11:49:32Z</time>
      </trkpt>
      <trkpt lat="49.40533" lon="3.00572">
        <ele>29.46</ele>
        <time>2021-07-29T11:49:34Z</time>
      </trkpt>
      <trkpt lat="49.4053" lon="3.00561">
        <ele>29.94</ele>
        <time>2021-07-29T11:49:35Z</time>
      </trkpt>
      <trkpt lat="49.40528" lon="3.00551">
        <ele>29.94</ele>
        <time>2021-07-29T11:49:36Z</time>
      </trkpt>
      <trkpt lat="49.40524" lon="3.00547">
        <ele>30.42</ele>
        <time>2021-07-29T11:49:37Z</time>
      </trkpt>
      <trkpt lat="49.40518" lon="3.00541">
        <ele>30.42</ele>
        <time>2021-07-29T11:49:38Z</time>
      </trkpt>
      <trkpt lat="49.40514" lon="3.00537">
        <ele>30.42</ele>
        <time>2021-07-29T11:49:39Z</time>
      </trkpt>
      <trkpt lat="49.4051" lon="3.00535">
        <ele>30.9</ele>
        <time>2021-07-29T11:49:40Z</time>
      </trkpt>
      <trkpt lat="49.40444" lon="3.00508">
        <ele>29.46</ele>
        <time>2021-07-29T11:49:53Z</time>
      </trkpt>
      <trkpt lat="49.40439" lon="3.00505">
        <ele>29.94</ele>
        <time>2021-07-29T11:50:03Z</time>
      </trkpt>
      <trkpt lat="49.40423" lon="3.00497">
        <ele>29.94</ele>
        <time>2021-07-29T11:50:23Z</time>
      </trkpt>
      <trkpt lat="49.40418" lon="3.00487">
        <ele>29.94</ele>
        <time>2021-07-29T11:50:24Z</time>
      </trkpt>
      <trkpt lat="49.40419" lon="3.00482">
        <ele>29.94</ele>
        <time>2021-07-29T11:50:25Z</time>
      </trkpt>
      <trkpt lat="49.40419" lon="3.00482">
        <ele>29.94</ele>
        <time>2021-07-29T11:50:26Z</time>
      </trkpt>
      <trkpt lat="49.4042" lon="3.00477">
        <ele>29.94</ele>
        <time>2021-07-29T11:50:27Z</time>
      </trkpt>
      <trkpt lat="49.4043" lon="3.00432">
        <ele>29.94</ele>
        <time>2021-07-29T11:50:39Z</time>
      </trkpt>
      <trkpt lat="49.4043" lon="3.00432">
        <ele>30.9</ele>
        <time>2021-07-29T11:56:03Z</time>
      </trkpt>
      <trkpt lat="49.4043" lon="3.00432">
        <ele>30.9</ele>
        <time>2021-07-29T11:56:08Z</time>
      </trkpt>
      <trkpt lat="49.4043" lon="3.00429">
        <ele>30.9</ele>
        <time>2021-07-29T11:56:09Z</time>
      </trkpt>
      <trkpt lat="49.4043" lon="3.00427">
        <ele>30.9</ele>
        <time>2021-07-29T11:56:10Z</time>
      </trkpt>
      <trkpt lat="49.40431" lon="3.00424">
        <ele>30.9</ele>
        <time>2021-07-29T11:56:11Z</time>
      </trkpt>
      <trkpt lat="49.40432" lon="3.0042">
        <ele>30.9</ele>
        <time>2021-07-29T11:56:12Z</time>
      </trkpt>
      <trkpt lat="49.40433" lon="3.00415">
        <ele>30.9</ele>
        <time>2021-07-29T11:56:13Z</time>
      </trkpt>
      <trkpt lat="49.40433" lon="3.0041">
        <ele>30.42</ele>
        <time>2021-07-29T11:56:14Z</time>
      </trkpt>
      <trkpt lat="49.4044" lon="3.00376">
        <ele>30.9</ele>
        <time>2021-07-29T11:56:19Z</time>
      </trkpt>
      <trkpt lat="49.40441" lon="3.00368">
        <ele>30.9</ele>
        <time>2021-07-29T11:56:20Z</time>
      </trkpt>
      <trkpt lat="49.40442" lon="3.00359">
        <ele>30.9</ele>
        <time>2021-07-29T11:56:21Z</time>
      </trkpt>
      <trkpt lat="49.40417" lon="3.00211">
        <ele>31.86</ele>
        <time>2021-07-29T11:56:34Z</time>
      </trkpt>
      <trkpt lat="49.40358" lon="2.99941">
        <ele>32.34</ele>
        <time>2021-07-29T11:56:53Z</time>
      </trkpt>
      <trkpt lat="49.40286" lon="2.996">
        <ele>32.82</ele>
        <time>2021-07-29T11:57:15Z</time>
      </trkpt>
      <trkpt lat="49.40242" lon="2.99372">
        <ele>32.82</ele>
        <time>2021-07-29T11:57:30Z</time>
      </trkpt>
      <trkpt lat="49.4024" lon="2.99364">
        <ele>32.82</ele>
        <time>2021-07-29T11:57:31Z</time>
      </trkpt>
      <trkpt lat="49.40242" lon="2.99347">
        <ele>33.3</ele>
        <time>2021-07-29T11:57:33Z</time>
      </trkpt>
      <trkpt lat="49.40244" lon="2.99335">
        <ele>33.3</ele>
        <time>2021-07-29T11:57:34Z</time>
      </trkpt>
      <trkpt lat="49.40243" lon="2.99328">
        <ele>33.3</ele>
        <time>2021-07-29T11:57:35Z</time>
      </trkpt>
      <trkpt lat="49.40229" lon="2.99316">
        <ele>33.3</ele>
        <time>2021-07-29T11:57:37Z</time>
      </trkpt>
      <trkpt lat="49.40226" lon="2.99306">
        <ele>33.3</ele>
        <time>2021-07-29T11:57:38Z</time>
      </trkpt>
      <trkpt lat="49.40223" lon="2.99295">
        <ele>33.78</ele>
        <time>2021-07-29T11:57:39Z</time>
      </trkpt>
      <trkpt lat="49.40183" lon="2.99107">
        <ele>39.07</ele>
        <time>2021-07-29T11:57:52Z</time>
      </trkpt>
      <trkpt lat="49.4016" lon="2.98916">
        <ele>39.55</ele>
        <time>2021-07-29T11:58:03Z</time>
      </trkpt>
      <trkpt lat="49.40167" lon="2.98729">
        <ele>40.03</ele>
        <time>2021-07-29T11:58:15Z</time>
      </trkpt>
      <trkpt lat="49.40184" lon="2.98404">
        <ele>35.71</ele>
        <time>2021-07-29T11:58:32Z</time>
      </trkpt>
      <trkpt lat="49.40204" lon="2.9795">
        <ele>38.11</ele>
        <time>2021-07-29T11:58:54Z</time>
      </trkpt>
      <trkpt lat="49.40222" lon="2.97579">
        <ele>37.15</ele>
        <time>2021-07-29T11:59:14Z</time>
      </trkpt>
      <trkpt lat="49.40238" lon="2.97215">
        <ele>36.19</ele>
        <time>2021-07-29T11:59:34Z</time>
      </trkpt>
      <trkpt lat="49.40262" lon="2.96748">
        <ele>35.23</ele>
        <time>2021-07-29T12:00:00Z</time>
      </trkpt>
      <trkpt lat="49.40244" lon="2.96569">
        <ele>33.78</ele>
        <time>2021-07-29T12:00:10Z</time>
      </trkpt>
      <trkpt lat="49.40219" lon="2.96368">
        <ele>34.74</ele>
        <time>2021-07-29T12:00:20Z</time>
      </trkpt>
      <trkpt lat="49.40219" lon="2.96368">
        <ele>34.26</ele>
        <time>2021-07-29T12:00:21Z</time>
      </trkpt>
      <trkpt lat="49.40222" lon="2.96347">
        <ele>34.74</ele>
        <time>2021-07-29T12:00:22Z</time>
      </trkpt>
      <trkpt lat="49.40288" lon="2.96087">
        <ele>34.74</ele>
        <time>2021-07-29T12:00:34Z</time>
      </trkpt>
      <trkpt lat="49.40396" lon="2.9568">
        <ele>35.23</ele>
        <time>2021-07-29T12:00:51Z</time>
      </trkpt>
      <trkpt lat="49.40535" lon="2.95163">
        <ele>34.26</ele>
        <time>2021-07-29T12:01:10Z</time>
      </trkpt>
      <trkpt lat="49.40671" lon="2.94656">
        <ele>33.3</ele>
        <time>2021-07-29T12:01:29Z</time>
      </trkpt>
      <trkpt lat="49.4079" lon="2.94212">
        <ele>31.38</ele>
        <time>2021-07-29T12:01:45Z</time>
      </trkpt>
      <trkpt lat="49.40936" lon="2.93669">
        <ele>32.82</ele>
        <time>2021-07-29T12:02:05Z</time>
      </trkpt>
      <trkpt lat="49.41067" lon="2.93182">
        <ele>35.23</ele>
        <time>2021-07-29T12:02:22Z</time>
      </trkpt>
      <trkpt lat="49.41204" lon="2.92681">
        <ele>34.74</ele>
        <time>2021-07-29T12:02:42Z</time>
      </trkpt>
      <trkpt lat="49.41332" lon="2.92247">
        <ele>30.42</ele>
        <time>2021-07-29T12:03:00Z</time>
      </trkpt>
      <trkpt lat="49.41348" lon="2.92216">
        <ele>29.94</ele>
        <time>2021-07-29T12:03:01Z</time>
      </trkpt>
      <trkpt lat="49.41354" lon="2.92207">
        <ele>28.98</ele>
        <time>2021-07-29T12:03:03Z</time>
      </trkpt>
      <trkpt lat="49.41357" lon="2.92201">
        <ele>29.46</ele>
        <time>2021-07-29T12:03:04Z</time>
      </trkpt>
      <trkpt lat="49.4136" lon="2.92199">
        <ele>31.86</ele>
        <time>2021-07-29T12:03:12Z</time>
      </trkpt>
      <trkpt lat="49.41379" lon="2.9218">
        <ele>31.86</ele>
        <time>2021-07-29T12:05:15Z</time>
      </trkpt>
      <trkpt lat="49.41383" lon="2.92174">
        <ele>31.86</ele>
        <time>2021-07-29T12:05:16Z</time>
      </trkpt>
      <trkpt lat="49.41387" lon="2.92167">
        <ele>31.86</ele>
        <time>2021-07-29T12:05:17Z</time>
      </trkpt>
      <trkpt lat="49.41391" lon="2.92159">
        <ele>31.86</ele>
        <time>2021-07-29T12:05:18Z</time>
      </trkpt>
      <trkpt lat="49.41393" lon="2.92148">
        <ele>31.86</ele>
        <time>2021-07-29T12:05:19Z</time>
      </trkpt>
      <trkpt lat="49.41395" lon="2.92136">
        <ele>31.86</ele>
        <time>2021-07-29T12:05:20Z</time>
      </trkpt>
      <trkpt lat="49.41397" lon="2.92123">
        <ele>31.86</ele>
        <time>2021-07-29T12:05:21Z</time>
      </trkpt>
      <trkpt lat="49.41426" lon="2.9194">
        <ele>32.34</ele>
        <time>2021-07-29T12:05:31Z</time>
      </trkpt>
      <trkpt lat="49.41525" lon="2.91619">
        <ele>33.3</ele>
        <time>2021-07-29T12:05:45Z</time>
      </trkpt>
      <trkpt lat="49.41601" lon="2.9138">
        <ele>34.74</ele>
        <time>2021-07-29T12:05:56Z</time>
      </trkpt>
      <trkpt lat="49.41752" lon="2.90912">
        <ele>34.26</ele>
        <time>2021-07-29T12:06:15Z</time>
      </trkpt>
      <trkpt lat="49.41822" lon="2.90801">
        <ele>33.3</ele>
        <time>2021-07-29T12:06:21Z</time>
      </trkpt>
      <trkpt lat="49.41964" lon="2.90688">
        <ele>36.19</ele>
        <time>2021-07-29T12:06:29Z</time>
      </trkpt>
      <trkpt lat="49.41964" lon="2.90688">
        <ele>36.19</ele>
        <time>2021-07-29T12:06:30Z</time>
      </trkpt>
      <trkpt lat="49.42058" lon="2.90525">
        <ele>40.51</ele>
        <time>2021-07-29T12:06:38Z</time>
      </trkpt>
      <trkpt lat="49.4215" lon="2.90255">
        <ele>35.23</ele>
        <time>2021-07-29T12:06:48Z</time>
      </trkpt>
      <trkpt lat="49.42175" lon="2.90052">
        <ele>33.3</ele>
        <time>2021-07-29T12:06:55Z</time>
      </trkpt>
      <trkpt lat="49.4215" lon="2.89811">
        <ele>30.9</ele>
        <time>2021-07-29T12:07:03Z</time>
      </trkpt>
      <trkpt lat="49.42155" lon="2.89635">
        <ele>33.3</ele>
        <time>2021-07-29T12:07:09Z</time>
      </trkpt>
      <trkpt lat="49.42222" lon="2.89395">
        <ele>34.74</ele>
        <time>2021-07-29T12:07:18Z</time>
      </trkpt>
      <trkpt lat="49.42438" lon="2.88698">
        <ele>32.34</ele>
        <time>2021-07-29T12:07:44Z</time>
      </trkpt>
      <trkpt lat="49.42579" lon="2.88244">
        <ele>30.9</ele>
        <time>2021-07-29T12:08:02Z</time>
      </trkpt>
      <trkpt lat="49.42608" lon="2.88134">
        <ele>29.94</ele>
        <time>2021-07-29T12:08:07Z</time>
      </trkpt>
      <trkpt lat="49.42613" lon="2.88113">
        <ele>29.94</ele>
        <time>2021-07-29T12:08:08Z</time>
      </trkpt>
      <trkpt lat="49.42616" lon="2.88092">
        <ele>28.98</ele>
        <time>2021-07-29T12:08:09Z</time>
      </trkpt>
      <trkpt lat="49.42615" lon="2.88071">
        <ele>28.5</ele>
        <time>2021-07-29T12:08:10Z</time>
      </trkpt>
      <trkpt lat="49.42613" lon="2.88048">
        <ele>28.5</ele>
        <time>2021-07-29T12:08:11Z</time>
      </trkpt>
      <trkpt lat="49.42611" lon="2.88024">
        <ele>28.5</ele>
        <time>2021-07-29T12:08:12Z</time>
      </trkpt>
      <trkpt lat="49.42573" lon="2.877">
        <ele>27.05</ele>
        <time>2021-07-29T12:08:27Z</time>
      </trkpt>
      <trkpt lat="49.42573" lon="2.87683">
        <ele>27.05</ele>
        <time>2021-07-29T12:08:28Z</time>
      </trkpt>
      <trkpt lat="49.42573" lon="2.87672">
        <ele>28.02</ele>
        <time>2021-07-29T12:08:29Z</time>
      </trkpt>
      <trkpt lat="49.42587" lon="2.87656">
        <ele>28.5</ele>
        <time>2021-07-29T12:08:30Z</time>
      </trkpt>
      <trkpt lat="49.42591" lon="2.87639">
        <ele>28.02</ele>
        <time>2021-07-29T12:08:31Z</time>
      </trkpt>
      <trkpt lat="49.42596" lon="2.87627">
        <ele>27.05</ele>
        <time>2021-07-29T12:08:32Z</time>
      </trkpt>
      <trkpt lat="49.42604" lon="2.87613">
        <ele>26.09</ele>
        <time>2021-07-29T12:08:33Z</time>
      </trkpt>
      <trkpt lat="49.42612" lon="2.87599">
        <ele>26.57</ele>
        <time>2021-07-29T12:08:34Z</time>
      </trkpt>
      <trkpt lat="49.42619" lon="2.87585">
        <ele>27.05</ele>
        <time>2021-07-29T12:08:35Z</time>
      </trkpt>
      <trkpt lat="49.42648" lon="2.87556">
        <ele>27.05</ele>
        <time>2021-07-29T12:08:38Z</time>
      </trkpt>
      <trkpt lat="49.42657" lon="2.87554">
        <ele>27.53</ele>
        <time>2021-07-29T12:08:39Z</time>
      </trkpt>
      <trkpt lat="49.42682" lon="2.87546">
        <ele>28.98</ele>
        <time>2021-07-29T12:08:41Z</time>
      </trkpt>
      <trkpt lat="49.42682" lon="2.87546">
        <ele>28.98</ele>
        <time>2021-07-29T12:08:42Z</time>
      </trkpt>
      <trkpt lat="49.42689" lon="2.87539">
        <ele>28.98</ele>
        <time>2021-07-29T12:08:43Z</time>
      </trkpt>
      <trkpt lat="49.42692" lon="2.8753">
        <ele>28.98</ele>
        <time>2021-07-29T12:08:44Z</time>
      </trkpt>
      <trkpt lat="49.42697" lon="2.87517">
        <ele>28.98</ele>
        <time>2021-07-29T12:08:45Z</time>
      </trkpt>
      <trkpt lat="49.42702" lon="2.87506">
        <ele>28.5</ele>
        <time>2021-07-29T12:08:46Z</time>
      </trkpt>
      <trkpt lat="49.42708" lon="2.87494">
        <ele>28.5</ele>
        <time>2021-07-29T12:08:47Z</time>
      </trkpt>
      <trkpt lat="49.42714" lon="2.87481">
        <ele>28.5</ele>
        <time>2021-07-29T12:08:48Z</time>
      </trkpt>
      <trkpt lat="49.42721" lon="2.87468">
        <ele>29.94</ele>
        <time>2021-07-29T12:08:49Z</time>
      </trkpt>
      <trkpt lat="49.42851" lon="2.87343">
        <ele>34.74</ele>
        <time>2021-07-29T12:09:01Z</time>
      </trkpt>
      <trkpt lat="49.4305" lon="2.87153">
        <ele>37.15</ele>
        <time>2021-07-29T12:09:17Z</time>
      </trkpt>
      <trkpt lat="49.43209" lon="2.86937">
        <ele>37.63</ele>
        <time>2021-07-29T12:09:30Z</time>
      </trkpt>
      <trkpt lat="49.43358" lon="2.86632">
        <ele>38.59</ele>
        <time>2021-07-29T12:09:44Z</time>
      </trkpt>
      <trkpt lat="49.43462" lon="2.86295">
        <ele>42.44</ele>
        <time>2021-07-29T12:09:57Z</time>
      </trkpt>
      <trkpt lat="49.43521" lon="2.85951">
        <ele>42.44</ele>
        <time>2021-07-29T12:10:09Z</time>
      </trkpt>
      <trkpt lat="49.43549" lon="2.85542">
        <ele>43.88</ele>
        <time>2021-07-29T12:10:23Z</time>
      </trkpt>
      <trkpt lat="49.43607" lon="2.85017">
        <ele>42.92</ele>
        <time>2021-07-29T12:10:41Z</time>
      </trkpt>
      <trkpt lat="49.43655" lon="2.84734">
        <ele>40.99</ele>
        <time>2021-07-29T12:10:51Z</time>
      </trkpt>
      <trkpt lat="49.43703" lon="2.84502">
        <ele>36.67</ele>
        <time>2021-07-29T12:11:04Z</time>
      </trkpt>
      <trkpt lat="49.43713" lon="2.84473">
        <ele>36.19</ele>
        <time>2021-07-29T12:11:07Z</time>
      </trkpt>
      <trkpt lat="49.43716" lon="2.84467">
        <ele>35.71</ele>
        <time>2021-07-29T12:11:08Z</time>
      </trkpt>
      <trkpt lat="49.4373" lon="2.84447">
        <ele>35.71</ele>
        <time>2021-07-29T12:11:11Z</time>
      </trkpt>
      <trkpt lat="49.43738" lon="2.84425">
        <ele>35.71</ele>
        <time>2021-07-29T12:11:12Z</time>
      </trkpt>
      <trkpt lat="49.43738" lon="2.84425">
        <ele>35.71</ele>
        <time>2021-07-29T12:11:13Z</time>
      </trkpt>
      <trkpt lat="49.43738" lon="2.84413">
        <ele>35.71</ele>
        <time>2021-07-29T12:11:14Z</time>
      </trkpt>
      <trkpt lat="49.43734" lon="2.84402">
        <ele>35.71</ele>
        <time>2021-07-29T12:11:15Z</time>
      </trkpt>
      <trkpt lat="49.4373" lon="2.8439">
        <ele>35.71</ele>
        <time>2021-07-29T12:11:16Z</time>
      </trkpt>
      <trkpt lat="49.43731" lon="2.84373">
        <ele>35.23</ele>
        <time>2021-07-29T12:11:17Z</time>
      </trkpt>
      <trkpt lat="49.43732" lon="2.84357">
        <ele>34.74</ele>
        <time>2021-07-29T12:11:18Z</time>
      </trkpt>
      <trkpt lat="49.43734" lon="2.84342">
        <ele>34.74</ele>
        <time>2021-07-29T12:11:19Z</time>
      </trkpt>
      <trkpt lat="49.43737" lon="2.84309">
        <ele>35.23</ele>
        <time>2021-07-29T12:11:20Z</time>
      </trkpt>
      <trkpt lat="49.43769" lon="2.84127">
        <ele>38.11</ele>
        <time>2021-07-29T12:11:30Z</time>
      </trkpt>
      <trkpt lat="49.43812" lon="2.83835">
        <ele>40.03</ele>
        <time>2021-07-29T12:11:42Z</time>
      </trkpt>
      <trkpt lat="49.43828" lon="2.83473">
        <ele>44.36</ele>
        <time>2021-07-29T12:11:55Z</time>
      </trkpt>
      <trkpt lat="49.43823" lon="2.82927">
        <ele>55.41</ele>
        <time>2021-07-29T12:12:14Z</time>
      </trkpt>
      <trkpt lat="49.4385" lon="2.8245">
        <ele>67.91</ele>
        <time>2021-07-29T12:12:31Z</time>
      </trkpt>
      <trkpt lat="49.43836" lon="2.82113">
        <ele>77.04</ele>
        <time>2021-07-29T12:12:42Z</time>
      </trkpt>
      <trkpt lat="49.43786" lon="2.81958">
        <ele>78.97</ele>
        <time>2021-07-29T12:12:49Z</time>
      </trkpt>
      <trkpt lat="49.43692" lon="2.81806">
        <ele>81.37</ele>
        <time>2021-07-29T12:12:56Z</time>
      </trkpt>
      <trkpt lat="49.43497" lon="2.81617">
        <ele>83.77</ele>
        <time>2021-07-29T12:13:07Z</time>
      </trkpt>
      <trkpt lat="49.4331" lon="2.81369">
        <ele>80.41</ele>
        <time>2021-07-29T12:13:18Z</time>
      </trkpt>
      <trkpt lat="49.4305" lon="2.80914">
        <ele>75.6</ele>
        <time>2021-07-29T12:13:35Z</time>
      </trkpt>
      <trkpt lat="49.42734" lon="2.80374">
        <ele>70.31</ele>
        <time>2021-07-29T12:13:55Z</time>
      </trkpt>
      <trkpt lat="49.42363" lon="2.79895">
        <ele>64.07</ele>
        <time>2021-07-29T12:14:16Z</time>
      </trkpt>
      <trkpt lat="49.41998" lon="2.79425">
        <ele>59.74</ele>
        <time>2021-07-29T12:14:37Z</time>
      </trkpt>
      <trkpt lat="49.41719" lon="2.79043">
        <ele>54.45</ele>
        <time>2021-07-29T12:14:53Z</time>
      </trkpt>
      <trkpt lat="49.41593" lon="2.78777">
        <ele>54.45</ele>
        <time>2021-07-29T12:15:04Z</time>
      </trkpt>
      <trkpt lat="49.41498" lon="2.78481">
        <ele>54.93</ele>
        <time>2021-07-29T12:15:15Z</time>
      </trkpt>
      <trkpt lat="49.41393" lon="2.78121">
        <ele>56.37</ele>
        <time>2021-07-29T12:15:28Z</time>
      </trkpt>
      <trkpt lat="49.41254" lon="2.77826">
        <ele>62.62</ele>
        <time>2021-07-29T12:15:40Z</time>
      </trkpt>
      <trkpt lat="49.41043" lon="2.77422">
        <ele>69.35</ele>
        <time>2021-07-29T12:15:58Z</time>
      </trkpt>
      <trkpt lat="49.40908" lon="2.77065">
        <ele>71.76</ele>
        <time>2021-07-29T12:16:11Z</time>
      </trkpt>
      <trkpt lat="49.40794" lon="2.76641">
        <ele>77.04</ele>
        <time>2021-07-29T12:16:26Z</time>
      </trkpt>
      <trkpt lat="49.40663" lon="2.7604">
        <ele>71.27</ele>
        <time>2021-07-29T12:16:47Z</time>
      </trkpt>
      <trkpt lat="49.40551" lon="2.75527">
        <ele>64.07</ele>
        <time>2021-07-29T12:17:04Z</time>
      </trkpt>
      <trkpt lat="49.40447" lon="2.75056">
        <ele>62.14</ele>
        <time>2021-07-29T12:17:22Z</time>
      </trkpt>
      <trkpt lat="49.40372" lon="2.74706">
        <ele>56.37</ele>
        <time>2021-07-29T12:17:35Z</time>
      </trkpt>
      <trkpt lat="49.40348" lon="2.74573">
        <ele>55.89</ele>
        <time>2021-07-29T12:17:43Z</time>
      </trkpt>
      <trkpt lat="49.40346" lon="2.74538">
        <ele>56.37</ele>
        <time>2021-07-29T12:17:45Z</time>
      </trkpt>
      <trkpt lat="49.40354" lon="2.74507">
        <ele>57.34</ele>
        <time>2021-07-29T12:17:47Z</time>
      </trkpt>
      <trkpt lat="49.40354" lon="2.74507">
        <ele>57.34</ele>
        <time>2021-07-29T12:17:48Z</time>
      </trkpt>
      <trkpt lat="49.40347" lon="2.74488">
        <ele>57.34</ele>
        <time>2021-07-29T12:17:49Z</time>
      </trkpt>
      <trkpt lat="49.40324" lon="2.7446">
        <ele>59.26</ele>
        <time>2021-07-29T12:17:52Z</time>
      </trkpt>
      <trkpt lat="49.40319" lon="2.74445">
        <ele>59.74</ele>
        <time>2021-07-29T12:17:53Z</time>
      </trkpt>
      <trkpt lat="49.40276" lon="2.7424">
        <ele>60.7</ele>
        <time>2021-07-29T12:18:03Z</time>
      </trkpt>
      <trkpt lat="49.40254" lon="2.73958">
        <ele>66.47</ele>
        <time>2021-07-29T12:18:14Z</time>
      </trkpt>
      <trkpt lat="49.40259" lon="2.73418">
        <ele>74.16</ele>
        <time>2021-07-29T12:18:33Z</time>
      </trkpt>
      <trkpt lat="49.40267" lon="2.72738">
        <ele>89.54</ele>
        <time>2021-07-29T12:18:56Z</time>
      </trkpt>
      <trkpt lat="49.40275" lon="2.71945">
        <ele>91.46</ele>
        <time>2021-07-29T12:19:21Z</time>
      </trkpt>
      <trkpt lat="49.40276" lon="2.71164">
        <ele>96.75</ele>
        <time>2021-07-29T12:19:48Z</time>
      </trkpt>
      <trkpt lat="49.40227" lon="2.70893">
        <ele>92.9</ele>
        <time>2021-07-29T12:19:57Z</time>
      </trkpt>
      <trkpt lat="49.40111" lon="2.70473">
        <ele>83.77</ele>
        <time>2021-07-29T12:20:12Z</time>
      </trkpt>
      <trkpt lat="49.40072" lon="2.70164">
        <ele>76.08</ele>
        <time>2021-07-29T12:20:22Z</time>
      </trkpt>
      <trkpt lat="49.4008" lon="2.69881">
        <ele>72.24</ele>
        <time>2021-07-29T12:20:31Z</time>
      </trkpt>
      <trkpt lat="49.40136" lon="2.69561">
        <ele>70.31</ele>
        <time>2021-07-29T12:20:42Z</time>
      </trkpt>
      <trkpt lat="49.40252" lon="2.68988">
        <ele>67.43</ele>
        <time>2021-07-29T12:21:03Z</time>
      </trkpt>
      <trkpt lat="49.40304" lon="2.68608">
        <ele>69.83</ele>
        <time>2021-07-29T12:21:16Z</time>
      </trkpt>
      <trkpt lat="49.4032" lon="2.68107">
        <ele>75.6</ele>
        <time>2021-07-29T12:21:32Z</time>
      </trkpt>
      <trkpt lat="49.40328" lon="2.6735">
        <ele>81.37</ele>
        <time>2021-07-29T12:21:56Z</time>
      </trkpt>
      <trkpt lat="49.40337" lon="2.66623">
        <ele>86.66</ele>
        <time>2021-07-29T12:22:20Z</time>
      </trkpt>
      <trkpt lat="49.40346" lon="2.65805">
        <ele>87.14</ele>
        <time>2021-07-29T12:22:46Z</time>
      </trkpt>
      <trkpt lat="49.40351" lon="2.65293">
        <ele>90.5</ele>
        <time>2021-07-29T12:23:04Z</time>
      </trkpt>
      <trkpt lat="49.40352" lon="2.6514">
        <ele>91.94</ele>
        <time>2021-07-29T12:23:12Z</time>
      </trkpt>
      <trkpt lat="49.40352" lon="2.65094">
        <ele>91.46</ele>
        <time>2021-07-29T12:23:15Z</time>
      </trkpt>
      <trkpt lat="49.40352" lon="2.65082">
        <ele>91.46</ele>
        <time>2021-07-29T12:23:16Z</time>
      </trkpt>
      <trkpt lat="49.40352" lon="2.6507">
        <ele>91.46</ele>
        <time>2021-07-29T12:23:17Z</time>
      </trkpt>
      <trkpt lat="49.40367" lon="2.65054">
        <ele>91.94</ele>
        <time>2021-07-29T12:23:19Z</time>
      </trkpt>
      <trkpt lat="49.4037" lon="2.65046">
        <ele>91.94</ele>
        <time>2021-07-29T12:23:20Z</time>
      </trkpt>
      <trkpt lat="49.40373" lon="2.65034">
        <ele>91.94</ele>
        <time>2021-07-29T12:23:21Z</time>
      </trkpt>
      <trkpt lat="49.40373" lon="2.65025">
        <ele>92.42</ele>
        <time>2021-07-29T12:23:22Z</time>
      </trkpt>
      <trkpt lat="49.40372" lon="2.65015">
        <ele>92.9</ele>
        <time>2021-07-29T12:23:23Z</time>
      </trkpt>
      <trkpt lat="49.40365" lon="2.65009">
        <ele>92.9</ele>
        <time>2021-07-29T12:23:24Z</time>
      </trkpt>
      <trkpt lat="49.40359" lon="2.65004">
        <ele>93.39</ele>
        <time>2021-07-29T12:23:25Z</time>
      </trkpt>
      <trkpt lat="49.40354" lon="2.64974">
        <ele>93.39</ele>
        <time>2021-07-29T12:23:26Z</time>
      </trkpt>
      <trkpt lat="49.40354" lon="2.64974">
        <ele>93.39</ele>
        <time>2021-07-29T12:23:27Z</time>
      </trkpt>
      <trkpt lat="49.40354" lon="2.64961">
        <ele>92.42</ele>
        <time>2021-07-29T12:23:28Z</time>
      </trkpt>
      <trkpt lat="49.40354" lon="2.64945">
        <ele>92.42</ele>
        <time>2021-07-29T12:23:29Z</time>
      </trkpt>
      <trkpt lat="49.40357" lon="2.64733">
        <ele>95.79</ele>
        <time>2021-07-29T12:23:40Z</time>
      </trkpt>
      <trkpt lat="49.40361" lon="2.64384">
        <ele>98.67</ele>
        <time>2021-07-29T12:23:54Z</time>
      </trkpt>
      <trkpt lat="49.40367" lon="2.63838">
        <ele>100.11</ele>
        <time>2021-07-29T12:24:13Z</time>
      </trkpt>
      <trkpt lat="49.40373" lon="2.63349">
        <ele>99.63</ele>
        <time>2021-07-29T12:24:30Z</time>
      </trkpt>
      <trkpt lat="49.4038" lon="2.62854">
        <ele>103</ele>
        <time>2021-07-29T12:24:49Z</time>
      </trkpt>
      <trkpt lat="49.40379" lon="2.62736">
        <ele>104.44</ele>
        <time>2021-07-29T12:24:57Z</time>
      </trkpt>
      <trkpt lat="49.40378" lon="2.62719">
        <ele>104.44</ele>
        <time>2021-07-29T12:24:59Z</time>
      </trkpt>
      <trkpt lat="49.40379" lon="2.62713">
        <ele>104.44</ele>
        <time>2021-07-29T12:25:00Z</time>
      </trkpt>
      <trkpt lat="49.4038" lon="2.62706">
        <ele>103.96</ele>
        <time>2021-07-29T12:25:01Z</time>
      </trkpt>
      <trkpt lat="49.40381" lon="2.62699">
        <ele>103.96</ele>
        <time>2021-07-29T12:25:02Z</time>
      </trkpt>
      <trkpt lat="49.40383" lon="2.62692">
        <ele>103.96</ele>
        <time>2021-07-29T12:25:03Z</time>
      </trkpt>
      <trkpt lat="49.40391" lon="2.62667">
        <ele>103.96</ele>
        <time>2021-07-29T12:25:06Z</time>
      </trkpt>
      <trkpt lat="49.40391" lon="2.62657">
        <ele>103.96</ele>
        <time>2021-07-29T12:25:07Z</time>
      </trkpt>
      <trkpt lat="49.40391" lon="2.62645">
        <ele>103.96</ele>
        <time>2021-07-29T12:25:08Z</time>
      </trkpt>
      <trkpt lat="49.40391" lon="2.62634">
        <ele>103.96</ele>
        <time>2021-07-29T12:25:09Z</time>
      </trkpt>
      <trkpt lat="49.40384" lon="2.62621">
        <ele>103.96</ele>
        <time>2021-07-29T12:25:10Z</time>
      </trkpt>
      <trkpt lat="49.40379" lon="2.62612">
        <ele>103.96</ele>
        <time>2021-07-29T12:25:11Z</time>
      </trkpt>
      <trkpt lat="49.40373" lon="2.62601">
        <ele>104.44</ele>
        <time>2021-07-29T12:25:12Z</time>
      </trkpt>
      <trkpt lat="49.40314" lon="2.6246">
        <ele>103.48</ele>
        <time>2021-07-29T12:25:21Z</time>
      </trkpt>
      <trkpt lat="49.40227" lon="2.62185">
        <ele>100.6</ele>
        <time>2021-07-29T12:25:34Z</time>
      </trkpt>
      <trkpt lat="49.4012" lon="2.6185">
        <ele>98.67</ele>
        <time>2021-07-29T12:25:47Z</time>
      </trkpt>
      <trkpt lat="49.39891" lon="2.61136">
        <ele>97.23</ele>
        <time>2021-07-29T12:26:13Z</time>
      </trkpt>
      <trkpt lat="49.39719" lon="2.60596">
        <ele>97.23</ele>
        <time>2021-07-29T12:26:33Z</time>
      </trkpt>
      <trkpt lat="49.3955" lon="2.60068">
        <ele>98.19</ele>
        <time>2021-07-29T12:26:53Z</time>
      </trkpt>
      <trkpt lat="49.39351" lon="2.59445">
        <ele>93.87</ele>
        <time>2021-07-29T12:27:16Z</time>
      </trkpt>
      <trkpt lat="49.39161" lon="2.5885">
        <ele>95.79</ele>
        <time>2021-07-29T12:27:38Z</time>
      </trkpt>
      <trkpt lat="49.38995" lon="2.58329">
        <ele>94.83</ele>
        <time>2021-07-29T12:27:57Z</time>
      </trkpt>
      <trkpt lat="49.38884" lon="2.57985">
        <ele>93.87</ele>
        <time>2021-07-29T12:28:11Z</time>
      </trkpt>
      <trkpt lat="49.38863" lon="2.57921">
        <ele>92.9</ele>
        <time>2021-07-29T12:28:15Z</time>
      </trkpt>
      <trkpt lat="49.38859" lon="2.5791">
        <ele>93.87</ele>
        <time>2021-07-29T12:28:16Z</time>
      </trkpt>
      <trkpt lat="49.38856" lon="2.579">
        <ele>93.39</ele>
        <time>2021-07-29T12:28:17Z</time>
      </trkpt>
      <trkpt lat="49.38863" lon="2.57861">
        <ele>93.87</ele>
        <time>2021-07-29T12:28:20Z</time>
      </trkpt>
      <trkpt lat="49.38863" lon="2.57853">
        <ele>94.35</ele>
        <time>2021-07-29T12:28:21Z</time>
      </trkpt>
      <trkpt lat="49.38856" lon="2.57843">
        <ele>94.35</ele>
        <time>2021-07-29T12:28:22Z</time>
      </trkpt>
      <trkpt lat="49.38851" lon="2.57837">
        <ele>94.35</ele>
        <time>2021-07-29T12:28:23Z</time>
      </trkpt>
      <trkpt lat="49.3885" lon="2.57835">
        <ele>94.83</ele>
        <time>2021-07-29T12:28:24Z</time>
      </trkpt>
      <trkpt lat="49.38834" lon="2.57826">
        <ele>94.83</ele>
        <time>2021-07-29T12:28:25Z</time>
      </trkpt>
      <trkpt lat="49.3883" lon="2.57815">
        <ele>95.79</ele>
        <time>2021-07-29T12:28:26Z</time>
      </trkpt>
      <trkpt lat="49.38826" lon="2.57802">
        <ele>95.79</ele>
        <time>2021-07-29T12:28:27Z</time>
      </trkpt>
      <trkpt lat="49.38821" lon="2.57787">
        <ele>95.31</ele>
        <time>2021-07-29T12:28:28Z</time>
      </trkpt>
      <trkpt lat="49.38771" lon="2.57625">
        <ele>92.9</ele>
        <time>2021-07-29T12:28:37Z</time>
      </trkpt>
      <trkpt lat="49.38663" lon="2.57293">
        <ele>94.35</ele>
        <time>2021-07-29T12:28:52Z</time>
      </trkpt>
      <trkpt lat="49.38537" lon="2.56898">
        <ele>91.46</ele>
        <time>2021-07-29T12:29:08Z</time>
      </trkpt>
      <trkpt lat="49.38344" lon="2.5629">
        <ele>90.5</ele>
        <time>2021-07-29T12:29:31Z</time>
      </trkpt>
      <trkpt lat="49.38164" lon="2.55729">
        <ele>87.14</ele>
        <time>2021-07-29T12:29:51Z</time>
      </trkpt>
      <trkpt lat="49.37988" lon="2.55174">
        <ele>78.48</ele>
        <time>2021-07-29T12:30:10Z</time>
      </trkpt>
      <trkpt lat="49.37854" lon="2.5474">
        <ele>74.16</ele>
        <time>2021-07-29T12:30:26Z</time>
      </trkpt>
      <trkpt lat="49.3778" lon="2.54385">
        <ele>73.68</ele>
        <time>2021-07-29T12:30:39Z</time>
      </trkpt>
      <trkpt lat="49.37654" lon="2.53653">
        <ele>73.68</ele>
        <time>2021-07-29T12:31:05Z</time>
      </trkpt>
      <trkpt lat="49.37556" lon="2.53081">
        <ele>67.91</ele>
        <time>2021-07-29T12:31:25Z</time>
      </trkpt>
      <trkpt lat="49.37495" lon="2.52721">
        <ele>66.47</ele>
        <time>2021-07-29T12:31:38Z</time>
      </trkpt>
      <trkpt lat="49.37458" lon="2.52502">
        <ele>65.03</ele>
        <time>2021-07-29T12:31:48Z</time>
      </trkpt>
      <trkpt lat="49.37455" lon="2.52476">
        <ele>65.51</ele>
        <time>2021-07-29T12:31:49Z</time>
      </trkpt>
      <trkpt lat="49.37454" lon="2.52465">
        <ele>65.51</ele>
        <time>2021-07-29T12:31:50Z</time>
      </trkpt>
      <trkpt lat="49.37454" lon="2.52465">
        <ele>65.51</ele>
        <time>2021-07-29T12:31:51Z</time>
      </trkpt>
      <trkpt lat="49.37462" lon="2.52441">
        <ele>65.51</ele>
        <time>2021-07-29T12:31:52Z</time>
      </trkpt>
      <trkpt lat="49.37462" lon="2.52441">
        <ele>65.51</ele>
        <time>2021-07-29T12:31:53Z</time>
      </trkpt>
      <trkpt lat="49.3748" lon="2.52433">
        <ele>65.51</ele>
        <time>2021-07-29T12:31:54Z</time>
      </trkpt>
      <trkpt lat="49.37489" lon="2.52432">
        <ele>65.99</ele>
        <time>2021-07-29T12:31:55Z</time>
      </trkpt>
      <trkpt lat="49.37489" lon="2.52432">
        <ele>65.51</ele>
        <time>2021-07-29T12:31:56Z</time>
      </trkpt>
      <trkpt lat="49.37616" lon="2.5242">
        <ele>72.24</ele>
        <time>2021-07-29T12:32:06Z</time>
      </trkpt>
      <trkpt lat="49.3778" lon="2.52371">
        <ele>76.08</ele>
        <time>2021-07-29T12:32:17Z</time>
      </trkpt>
      <trkpt lat="49.37873" lon="2.52328">
        <ele>74.16</ele>
        <time>2021-07-29T12:32:24Z</time>
      </trkpt>
      <trkpt lat="49.37883" lon="2.52323">
        <ele>74.16</ele>
        <time>2021-07-29T12:32:25Z</time>
      </trkpt>
      <trkpt lat="49.37893" lon="2.52319">
        <ele>73.68</ele>
        <time>2021-07-29T12:32:26Z</time>
      </trkpt>
      <trkpt lat="49.37904" lon="2.52327">
        <ele>73.2</ele>
        <time>2021-07-29T12:32:27Z</time>
      </trkpt>
      <trkpt lat="49.37911" lon="2.52334">
        <ele>73.68</ele>
        <time>2021-07-29T12:32:28Z</time>
      </trkpt>
      <trkpt lat="49.37918" lon="2.52334">
        <ele>74.64</ele>
        <time>2021-07-29T12:32:29Z</time>
      </trkpt>
      <trkpt lat="49.37924" lon="2.5233">
        <ele>75.6</ele>
        <time>2021-07-29T12:32:30Z</time>
      </trkpt>
      <trkpt lat="49.37929" lon="2.52323">
        <ele>76.08</ele>
        <time>2021-07-29T12:32:31Z</time>
      </trkpt>
      <trkpt lat="49.37934" lon="2.52317">
        <ele>76.56</ele>
        <time>2021-07-29T12:32:32Z</time>
      </trkpt>
      <trkpt lat="49.37933" lon="2.52309">
        <ele>75.6</ele>
        <time>2021-07-29T12:32:33Z</time>
      </trkpt>
      <trkpt lat="49.37933" lon="2.52299">
        <ele>75.6</ele>
        <time>2021-07-29T12:32:34Z</time>
      </trkpt>
      <trkpt lat="49.37932" lon="2.52286">
        <ele>75.6</ele>
        <time>2021-07-29T12:32:35Z</time>
      </trkpt>
      <trkpt lat="49.37934" lon="2.52276">
        <ele>75.6</ele>
        <time>2021-07-29T12:32:36Z</time>
      </trkpt>
      <trkpt lat="49.37935" lon="2.52263">
        <ele>75.6</ele>
        <time>2021-07-29T12:32:37Z</time>
      </trkpt>
      <trkpt lat="49.37937" lon="2.5225">
        <ele>75.6</ele>
        <time>2021-07-29T12:32:38Z</time>
      </trkpt>
      <trkpt lat="49.37985" lon="2.52112">
        <ele>73.68</ele>
        <time>2021-07-29T12:32:46Z</time>
      </trkpt>
      <trkpt lat="49.38076" lon="2.51866">
        <ele>71.76</ele>
        <time>2021-07-29T12:32:56Z</time>
      </trkpt>
      <trkpt lat="49.38185" lon="2.51556">
        <ele>72.72</ele>
        <time>2021-07-29T12:33:07Z</time>
      </trkpt>
      <trkpt lat="49.38227" lon="2.51261">
        <ele>72.72</ele>
        <time>2021-07-29T12:33:15Z</time>
      </trkpt>
      <trkpt lat="49.38256" lon="2.50827">
        <ele>72.72</ele>
        <time>2021-07-29T12:33:28Z</time>
      </trkpt>
      <trkpt lat="49.38343" lon="2.50319">
        <ele>73.2</ele>
        <time>2021-07-29T12:33:42Z</time>
      </trkpt>
      <trkpt lat="49.38472" lon="2.49549">
        <ele>75.6</ele>
        <time>2021-07-29T12:34:03Z</time>
      </trkpt>
      <trkpt lat="49.38501" lon="2.4913">
        <ele>77.04</ele>
        <time>2021-07-29T12:34:14Z</time>
      </trkpt>
      <trkpt lat="49.3848" lon="2.48668">
        <ele>79.45</ele>
        <time>2021-07-29T12:34:26Z</time>
      </trkpt>
      <trkpt lat="49.38433" lon="2.48169">
        <ele>79.45</ele>
        <time>2021-07-29T12:34:39Z</time>
      </trkpt>
      <trkpt lat="49.3845" lon="2.47821">
        <ele>76.56</ele>
        <time>2021-07-29T12:34:48Z</time>
      </trkpt>
      <trkpt lat="49.3853" lon="2.47335">
        <ele>73.68</ele>
        <time>2021-07-29T12:35:01Z</time>
      </trkpt>
      <trkpt lat="49.38633" lon="2.46684">
        <ele>72.72</ele>
        <time>2021-07-29T12:35:18Z</time>
      </trkpt>
      <trkpt lat="49.38627" lon="2.46428">
        <ele>74.16</ele>
        <time>2021-07-29T12:35:26Z</time>
      </trkpt>
      <trkpt lat="49.38572" lon="2.46147">
        <ele>71.27</ele>
        <time>2021-07-29T12:35:34Z</time>
      </trkpt>
      <trkpt lat="49.38459" lon="2.45865">
        <ele>69.35</ele>
        <time>2021-07-29T12:35:42Z</time>
      </trkpt>
      <trkpt lat="49.38131" lon="2.4524">
        <ele>58.78</ele>
        <time>2021-07-29T12:36:03Z</time>
      </trkpt>
      <trkpt lat="49.38025" lon="2.44974">
        <ele>57.34</ele>
        <time>2021-07-29T12:36:12Z</time>
      </trkpt>
      <trkpt lat="49.37969" lon="2.4468">
        <ele>56.37</ele>
        <time>2021-07-29T12:36:20Z</time>
      </trkpt>
      <trkpt lat="49.37965" lon="2.4437">
        <ele>51.09</ele>
        <time>2021-07-29T12:36:28Z</time>
      </trkpt>
      <trkpt lat="49.38029" lon="2.43869">
        <ele>46.28</ele>
        <time>2021-07-29T12:36:40Z</time>
      </trkpt>
      <trkpt lat="49.38113" lon="2.43623">
        <ele>46.28</ele>
        <time>2021-07-29T12:36:48Z</time>
      </trkpt>
      <trkpt lat="49.38246" lon="2.43383">
        <ele>46.28</ele>
        <time>2021-07-29T12:36:56Z</time>
      </trkpt>
      <trkpt lat="49.38574" lon="2.42888">
        <ele>51.09</ele>
        <time>2021-07-29T12:37:15Z</time>
      </trkpt>
      <trkpt lat="49.3871" lon="2.42583">
        <ele>52.53</ele>
        <time>2021-07-29T12:37:25Z</time>
      </trkpt>
      <trkpt lat="49.38794" lon="2.42267">
        <ele>51.57</ele>
        <time>2021-07-29T12:37:34Z</time>
      </trkpt>
      <trkpt lat="49.38847" lon="2.41858">
        <ele>52.05</ele>
        <time>2021-07-29T12:37:45Z</time>
      </trkpt>
      <trkpt lat="49.38922" lon="2.41061">
        <ele>56.86</ele>
        <time>2021-07-29T12:38:07Z</time>
      </trkpt>
      <trkpt lat="49.38937" lon="2.4063">
        <ele>61.18</ele>
        <time>2021-07-29T12:38:19Z</time>
      </trkpt>
      <trkpt lat="49.38947" lon="2.40223">
        <ele>56.86</ele>
        <time>2021-07-29T12:38:30Z</time>
      </trkpt>
      <trkpt lat="49.38993" lon="2.3964">
        <ele>52.53</ele>
        <time>2021-07-29T12:38:44Z</time>
      </trkpt>
      <trkpt lat="49.39014" lon="2.38941">
        <ele>53.97</ele>
        <time>2021-07-29T12:39:03Z</time>
      </trkpt>
      <trkpt lat="49.39051" lon="2.38651">
        <ele>53.97</ele>
        <time>2021-07-29T12:39:11Z</time>
      </trkpt>
      <trkpt lat="49.39143" lon="2.38363">
        <ele>56.37</ele>
        <time>2021-07-29T12:39:20Z</time>
      </trkpt>
      <trkpt lat="49.39278" lon="2.38124">
        <ele>57.34</ele>
        <time>2021-07-29T12:39:29Z</time>
      </trkpt>
      <trkpt lat="49.39467" lon="2.37919">
        <ele>60.7</ele>
        <time>2021-07-29T12:39:39Z</time>
      </trkpt>
      <trkpt lat="49.39866" lon="2.37516">
        <ele>64.55</ele>
        <time>2021-07-29T12:40:00Z</time>
      </trkpt>
      <trkpt lat="49.40117" lon="2.37223">
        <ele>60.22</ele>
        <time>2021-07-29T12:40:13Z</time>
      </trkpt>
      <trkpt lat="49.40316" lon="2.36887">
        <ele>63.1</ele>
        <time>2021-07-29T12:40:25Z</time>
      </trkpt>
      <trkpt lat="49.40471" lon="2.36503">
        <ele>63.58</ele>
        <time>2021-07-29T12:40:37Z</time>
      </trkpt>
      <trkpt lat="49.40577" lon="2.36087">
        <ele>64.55</ele>
        <time>2021-07-29T12:40:49Z</time>
      </trkpt>
      <trkpt lat="49.4071" lon="2.35457">
        <ele>66.95</ele>
        <time>2021-07-29T12:41:07Z</time>
      </trkpt>
      <trkpt lat="49.4089" lon="2.34581">
        <ele>70.79</ele>
        <time>2021-07-29T12:41:32Z</time>
      </trkpt>
      <trkpt lat="49.4097" lon="2.34029">
        <ele>70.79</ele>
        <time>2021-07-29T12:41:47Z</time>
      </trkpt>
      <trkpt lat="49.41108" lon="2.32988">
        <ele>71.27</ele>
        <time>2021-07-29T12:42:15Z</time>
      </trkpt>
      <trkpt lat="49.41192" lon="2.32348">
        <ele>71.76</ele>
        <time>2021-07-29T12:42:32Z</time>
      </trkpt>
      <trkpt lat="49.41307" lon="2.3146">
        <ele>69.35</ele>
        <time>2021-07-29T12:42:56Z</time>
      </trkpt>
      <trkpt lat="49.41424" lon="2.3058">
        <ele>65.99</ele>
        <time>2021-07-29T12:43:19Z</time>
      </trkpt>
      <trkpt lat="49.41501" lon="2.29875">
        <ele>65.51</ele>
        <time>2021-07-29T12:43:39Z</time>
      </trkpt>
      <trkpt lat="49.41499" lon="2.29457">
        <ele>66.47</ele>
        <time>2021-07-29T12:43:50Z</time>
      </trkpt>
      <trkpt lat="49.4145" lon="2.29024">
        <ele>65.51</ele>
        <time>2021-07-29T12:44:02Z</time>
      </trkpt>
      <trkpt lat="49.41381" lon="2.28459">
        <ele>64.07</ele>
        <time>2021-07-29T12:44:18Z</time>
      </trkpt>
      <trkpt lat="49.41381" lon="2.28024">
        <ele>63.1</ele>
        <time>2021-07-29T12:44:30Z</time>
      </trkpt>
      <trkpt lat="49.41423" lon="2.27204">
        <ele>61.66</ele>
        <time>2021-07-29T12:44:52Z</time>
      </trkpt>
      <trkpt lat="49.41478" lon="2.26499">
        <ele>59.74</ele>
        <time>2021-07-29T12:45:11Z</time>
      </trkpt>
      <trkpt lat="49.41563" lon="2.26144">
        <ele>58.78</ele>
        <time>2021-07-29T12:45:21Z</time>
      </trkpt>
      <trkpt lat="49.41698" lon="2.25791">
        <ele>62.62</ele>
        <time>2021-07-29T12:45:32Z</time>
      </trkpt>
      <trkpt lat="49.41806" lon="2.25467">
        <ele>65.03</ele>
        <time>2021-07-29T12:45:42Z</time>
      </trkpt>
      <trkpt lat="49.41844" lon="2.25182">
        <ele>65.51</ele>
        <time>2021-07-29T12:45:50Z</time>
      </trkpt>
      <trkpt lat="49.41841" lon="2.24886">
        <ele>63.1</ele>
        <time>2021-07-29T12:45:58Z</time>
      </trkpt>
      <trkpt lat="49.41781" lon="2.24527">
        <ele>61.18</ele>
        <time>2021-07-29T12:46:08Z</time>
      </trkpt>
      <trkpt lat="49.41657" lon="2.23919">
        <ele>59.74</ele>
        <time>2021-07-29T12:46:25Z</time>
      </trkpt>
      <trkpt lat="49.41498" lon="2.23144">
        <ele>61.18</ele>
        <time>2021-07-29T12:46:46Z</time>
      </trkpt>
      <trkpt lat="49.41359" lon="2.22428">
        <ele>56.37</ele>
        <time>2021-07-29T12:47:05Z</time>
      </trkpt>
      <trkpt lat="49.41315" lon="2.22006">
        <ele>55.89</ele>
        <time>2021-07-29T12:47:17Z</time>
      </trkpt>
      <trkpt lat="49.41263" lon="2.21287">
        <ele>59.26</ele>
        <time>2021-07-29T12:47:36Z</time>
      </trkpt>
      <trkpt lat="49.41205" lon="2.20404">
        <ele>57.82</ele>
        <time>2021-07-29T12:47:59Z</time>
      </trkpt>
      <trkpt lat="49.41211" lon="2.19855">
        <ele>56.86</ele>
        <time>2021-07-29T12:48:13Z</time>
      </trkpt>
      <trkpt lat="49.41258" lon="2.19322">
        <ele>61.18</ele>
        <time>2021-07-29T12:48:27Z</time>
      </trkpt>
      <trkpt lat="49.41348" lon="2.18828">
        <ele>65.03</ele>
        <time>2021-07-29T12:48:41Z</time>
      </trkpt>
      <trkpt lat="49.41503" lon="2.18158">
        <ele>66.47</ele>
        <time>2021-07-29T12:49:00Z</time>
      </trkpt>
      <trkpt lat="49.41693" lon="2.17336">
        <ele>69.35</ele>
        <time>2021-07-29T12:49:23Z</time>
      </trkpt>
      <trkpt lat="49.41836" lon="2.16723">
        <ele>66.47</ele>
        <time>2021-07-29T12:49:40Z</time>
      </trkpt>
      <trkpt lat="49.41956" lon="2.1631">
        <ele>70.31</ele>
        <time>2021-07-29T12:49:52Z</time>
      </trkpt>
      <trkpt lat="49.42135" lon="2.15736">
        <ele>64.55</ele>
        <time>2021-07-29T12:50:09Z</time>
      </trkpt>
      <trkpt lat="49.42259" lon="2.15188">
        <ele>61.66</ele>
        <time>2021-07-29T12:50:24Z</time>
      </trkpt>
      <trkpt lat="49.42386" lon="2.14609">
        <ele>67.43</ele>
        <time>2021-07-29T12:50:41Z</time>
      </trkpt>
      <trkpt lat="49.42551" lon="2.13855">
        <ele>76.08</ele>
        <time>2021-07-29T12:51:04Z</time>
      </trkpt>
      <trkpt lat="49.42605" lon="2.13507">
        <ele>76.56</ele>
        <time>2021-07-29T12:51:15Z</time>
      </trkpt>
      <trkpt lat="49.42667" lon="2.13136">
        <ele>77.04</ele>
        <time>2021-07-29T12:51:28Z</time>
      </trkpt>
      <trkpt lat="49.42765" lon="2.1288">
        <ele>82.81</ele>
        <time>2021-07-29T12:51:39Z</time>
      </trkpt>
      <trkpt lat="49.42928" lon="2.12637">
        <ele>82.81</ele>
        <time>2021-07-29T12:51:51Z</time>
      </trkpt>
      <trkpt lat="49.43151" lon="2.12346">
        <ele>86.66</ele>
        <time>2021-07-29T12:52:09Z</time>
      </trkpt>
      <trkpt lat="49.43239" lon="2.12252">
        <ele>87.14</ele>
        <time>2021-07-29T12:52:17Z</time>
      </trkpt>
      <trkpt lat="49.43248" lon="2.1225">
        <ele>87.62</ele>
        <time>2021-07-29T12:52:19Z</time>
      </trkpt>
      <trkpt lat="49.43255" lon="2.12249">
        <ele>88.58</ele>
        <time>2021-07-29T12:52:20Z</time>
      </trkpt>
      <trkpt lat="49.43262" lon="2.12248">
        <ele>88.58</ele>
        <time>2021-07-29T12:52:21Z</time>
      </trkpt>
      <trkpt lat="49.43269" lon="2.12248">
        <ele>88.58</ele>
        <time>2021-07-29T12:52:22Z</time>
      </trkpt>
      <trkpt lat="49.4328" lon="2.12249">
        <ele>88.58</ele>
        <time>2021-07-29T12:52:23Z</time>
      </trkpt>
      <trkpt lat="49.4328" lon="2.12249">
        <ele>88.58</ele>
        <time>2021-07-29T12:52:24Z</time>
      </trkpt>
      <trkpt lat="49.43286" lon="2.12253">
        <ele>88.58</ele>
        <time>2021-07-29T12:52:25Z</time>
      </trkpt>
      <trkpt lat="49.43291" lon="2.12258">
        <ele>88.1</ele>
        <time>2021-07-29T12:52:26Z</time>
      </trkpt>
      <trkpt lat="49.43297" lon="2.12264">
        <ele>88.1</ele>
        <time>2021-07-29T12:52:27Z</time>
      </trkpt>
      <trkpt lat="49.43303" lon="2.12271">
        <ele>88.1</ele>
        <time>2021-07-29T12:52:28Z</time>
      </trkpt>
      <trkpt lat="49.43308" lon="2.12279">
        <ele>88.1</ele>
        <time>2021-07-29T12:52:29Z</time>
      </trkpt>
      <trkpt lat="49.43313" lon="2.1229">
        <ele>87.62</ele>
        <time>2021-07-29T12:52:30Z</time>
      </trkpt>
      <trkpt lat="49.43319" lon="2.12302">
        <ele>87.62</ele>
        <time>2021-07-29T12:52:31Z</time>
      </trkpt>
      <trkpt lat="49.43324" lon="2.12313">
        <ele>87.62</ele>
        <time>2021-07-29T12:52:32Z</time>
      </trkpt>
      <trkpt lat="49.43329" lon="2.12327">
        <ele>87.14</ele>
        <time>2021-07-29T12:52:33Z</time>
      </trkpt>
      <trkpt lat="49.43354" lon="2.12544">
        <ele>86.18</ele>
        <time>2021-07-29T12:52:48Z</time>
      </trkpt>
      <trkpt lat="49.4336" lon="2.12601">
        <ele>87.14</ele>
        <time>2021-07-29T12:52:56Z</time>
      </trkpt>
      <trkpt lat="49.43364" lon="2.12626">
        <ele>87.62</ele>
        <time>2021-07-29T12:53:04Z</time>
      </trkpt>
      <trkpt lat="49.43374" lon="2.12708">
        <ele>86.66</ele>
        <time>2021-07-29T12:53:13Z</time>
      </trkpt>
      <trkpt lat="49.43394" lon="2.12885">
        <ele>84.25</ele>
        <time>2021-07-29T12:53:23Z</time>
      </trkpt>
      <trkpt lat="49.43396" lon="2.13025">
        <ele>81.85</ele>
        <time>2021-07-29T12:53:30Z</time>
      </trkpt>
      <trkpt lat="49.43393" lon="2.13047">
        <ele>80.89</ele>
        <time>2021-07-29T12:53:31Z</time>
      </trkpt>
      <trkpt lat="49.43388" lon="2.13067">
        <ele>79.93</ele>
        <time>2021-07-29T12:53:32Z</time>
      </trkpt>
      <trkpt lat="49.43382" lon="2.13089">
        <ele>78.97</ele>
        <time>2021-07-29T12:53:33Z</time>
      </trkpt>
      <trkpt lat="49.43376" lon="2.13109">
        <ele>78.97</ele>
        <time>2021-07-29T12:53:34Z</time>
      </trkpt>
      <trkpt lat="49.43366" lon="2.13125">
        <ele>78.97</ele>
        <time>2021-07-29T12:53:35Z</time>
      </trkpt>
      <trkpt lat="49.43355" lon="2.13142">
        <ele>79.45</ele>
        <time>2021-07-29T12:53:36Z</time>
      </trkpt>
      <trkpt lat="49.43343" lon="2.1316">
        <ele>78.97</ele>
        <time>2021-07-29T12:53:37Z</time>
      </trkpt>
      <trkpt lat="49.43331" lon="2.13179">
        <ele>78.97</ele>
        <time>2021-07-29T12:53:38Z</time>
      </trkpt>
      <trkpt lat="49.43317" lon="2.13192">
        <ele>78.97</ele>
        <time>2021-07-29T12:53:39Z</time>
      </trkpt>
      <trkpt lat="49.43302" lon="2.13206">
        <ele>78.97</ele>
        <time>2021-07-29T12:53:40Z</time>
      </trkpt>
      <trkpt lat="49.43286" lon="2.13214">
        <ele>78.97</ele>
        <time>2021-07-29T12:53:41Z</time>
      </trkpt>
      <trkpt lat="49.43269" lon="2.13222">
        <ele>79.45</ele>
        <time>2021-07-29T12:53:42Z</time>
      </trkpt>
      <trkpt lat="49.43253" lon="2.13227">
        <ele>78.97</ele>
        <time>2021-07-29T12:53:43Z</time>
      </trkpt>
      <trkpt lat="49.43219" lon="2.13226">
        <ele>78.97</ele>
        <time>2021-07-29T12:53:44Z</time>
      </trkpt>
      <trkpt lat="49.43201" lon="2.13223">
        <ele>78</ele>
        <time>2021-07-29T12:53:45Z</time>
      </trkpt>
      <trkpt lat="49.43183" lon="2.13217">
        <ele>77.52</ele>
        <time>2021-07-29T12:53:46Z</time>
      </trkpt>
      <trkpt lat="49.43183" lon="2.13217">
        <ele>78</ele>
        <time>2021-07-29T12:53:47Z</time>
      </trkpt>
      <trkpt lat="49.43167" lon="2.13207">
        <ele>78</ele>
        <time>2021-07-29T12:53:48Z</time>
      </trkpt>
      <trkpt lat="49.4315" lon="2.13195">
        <ele>78.48</ele>
        <time>2021-07-29T12:53:49Z</time>
      </trkpt>
      <trkpt lat="49.43134" lon="2.13179">
        <ele>78</ele>
        <time>2021-07-29T12:53:50Z</time>
      </trkpt>
      <trkpt lat="49.42947" lon="2.12999">
        <ele>76.56</ele>
        <time>2021-07-29T12:54:01Z</time>
      </trkpt>
      <trkpt lat="49.42684" lon="2.12807">
        <ele>73.2</ele>
        <time>2021-07-29T12:54:14Z</time>
      </trkpt>
      <trkpt lat="49.42431" lon="2.12695">
        <ele>69.83</ele>
        <time>2021-07-29T12:54:25Z</time>
      </trkpt>
      <trkpt lat="49.41972" lon="2.12566">
        <ele>61.18</ele>
        <time>2021-07-29T12:54:43Z</time>
      </trkpt>
      <trkpt lat="49.41681" lon="2.12553">
        <ele>58.78</ele>
        <time>2021-07-29T12:54:54Z</time>
      </trkpt>
      <trkpt lat="49.41328" lon="2.12611">
        <ele>60.7</ele>
        <time>2021-07-29T12:55:07Z</time>
      </trkpt>
      <trkpt lat="49.40964" lon="2.12654">
        <ele>65.99</ele>
        <time>2021-07-29T12:55:23Z</time>
      </trkpt>
      <trkpt lat="49.40607" lon="2.1262">
        <ele>75.6</ele>
        <time>2021-07-29T12:55:38Z</time>
      </trkpt>
      <trkpt lat="49.40311" lon="2.12544">
        <ele>83.77</ele>
        <time>2021-07-29T12:55:51Z</time>
      </trkpt>
      <trkpt lat="49.4018" lon="2.12475">
        <ele>91.46</ele>
        <time>2021-07-29T12:55:59Z</time>
      </trkpt>
      <trkpt lat="49.40153" lon="2.12457">
        <ele>89.54</ele>
        <time>2021-07-29T12:56:01Z</time>
      </trkpt>
      <trkpt lat="49.40144" lon="2.12444">
        <ele>89.06</ele>
        <time>2021-07-29T12:56:02Z</time>
      </trkpt>
      <trkpt lat="49.40133" lon="2.1243">
        <ele>89.06</ele>
        <time>2021-07-29T12:56:03Z</time>
      </trkpt>
      <trkpt lat="49.40123" lon="2.12416">
        <ele>88.1</ele>
        <time>2021-07-29T12:56:04Z</time>
      </trkpt>
      <trkpt lat="49.4011" lon="2.12374">
        <ele>87.14</ele>
        <time>2021-07-29T12:56:05Z</time>
      </trkpt>
      <trkpt lat="49.4011" lon="2.12374">
        <ele>84.73</ele>
        <time>2021-07-29T12:56:06Z</time>
      </trkpt>
      <trkpt lat="49.40107" lon="2.1235">
        <ele>82.81</ele>
        <time>2021-07-29T12:56:07Z</time>
      </trkpt>
      <trkpt lat="49.40108" lon="2.12303">
        <ele>81.37</ele>
        <time>2021-07-29T12:56:08Z</time>
      </trkpt>
      <trkpt lat="49.40108" lon="2.12303">
        <ele>79.93</ele>
        <time>2021-07-29T12:56:09Z</time>
      </trkpt>
      <trkpt lat="49.4011" lon="2.12281">
        <ele>78.97</ele>
        <time>2021-07-29T12:56:10Z</time>
      </trkpt>
      <trkpt lat="49.40116" lon="2.1226">
        <ele>77.04</ele>
        <time>2021-07-29T12:56:11Z</time>
      </trkpt>
      <trkpt lat="49.40123" lon="2.12238">
        <ele>75.6</ele>
        <time>2021-07-29T12:56:12Z</time>
      </trkpt>
      <trkpt lat="49.40132" lon="2.12221">
        <ele>75.6</ele>
        <time>2021-07-29T12:56:13Z</time>
      </trkpt>
      <trkpt lat="49.40141" lon="2.12204">
        <ele>74.64</ele>
        <time>2021-07-29T12:56:14Z</time>
      </trkpt>
      <trkpt lat="49.40151" lon="2.12186">
        <ele>74.64</ele>
        <time>2021-07-29T12:56:15Z</time>
      </trkpt>
      <trkpt lat="49.40163" lon="2.12166">
        <ele>74.64</ele>
        <time>2021-07-29T12:56:16Z</time>
      </trkpt>
      <trkpt lat="49.40246" lon="2.12118">
        <ele>75.12</ele>
        <time>2021-07-29T12:56:24Z</time>
      </trkpt>
      <trkpt lat="49.40267" lon="2.12108">
        <ele>71.76</ele>
        <time>2021-07-29T12:56:32Z</time>
      </trkpt>
      <trkpt lat="49.40296" lon="2.12091">
        <ele>71.27</ele>
        <time>2021-07-29T12:56:37Z</time>
      </trkpt>
      <trkpt lat="49.40369" lon="2.12047">
        <ele>69.83</ele>
        <time>2021-07-29T12:56:45Z</time>
      </trkpt>
      <trkpt lat="49.40402" lon="2.12028">
        <ele>68.87</ele>
        <time>2021-07-29T12:56:48Z</time>
      </trkpt>
      <trkpt lat="49.40413" lon="2.12028">
        <ele>68.87</ele>
        <time>2021-07-29T12:56:49Z</time>
      </trkpt>
      <trkpt lat="49.40423" lon="2.12029">
        <ele>67.91</ele>
        <time>2021-07-29T12:56:50Z</time>
      </trkpt>
      <trkpt lat="49.40439" lon="2.1203">
        <ele>67.43</ele>
        <time>2021-07-29T12:56:51Z</time>
      </trkpt>
      <trkpt lat="49.40447" lon="2.12035">
        <ele>66.95</ele>
        <time>2021-07-29T12:56:52Z</time>
      </trkpt>
      <trkpt lat="49.40455" lon="2.1204">
        <ele>66.95</ele>
        <time>2021-07-29T12:56:53Z</time>
      </trkpt>
      <trkpt lat="49.40455" lon="2.1204">
        <ele>66.47</ele>
        <time>2021-07-29T12:56:54Z</time>
      </trkpt>
      <trkpt lat="49.40462" lon="2.12045">
        <ele>66.47</ele>
        <time>2021-07-29T12:56:55Z</time>
      </trkpt>
      <trkpt lat="49.40466" lon="2.12055">
        <ele>66.47</ele>
        <time>2021-07-29T12:56:56Z</time>
      </trkpt>
      <trkpt lat="49.40471" lon="2.12068">
        <ele>67.91</ele>
        <time>2021-07-29T12:56:57Z</time>
      </trkpt>
      <trkpt lat="49.40474" lon="2.12083">
        <ele>68.39</ele>
        <time>2021-07-29T12:56:58Z</time>
      </trkpt>
      <trkpt lat="49.40472" lon="2.12099">
        <ele>68.39</ele>
        <time>2021-07-29T12:56:59Z</time>
      </trkpt>
      <trkpt lat="49.4047" lon="2.12115">
        <ele>69.35</ele>
        <time>2021-07-29T12:57:00Z</time>
      </trkpt>
      <trkpt lat="49.40468" lon="2.12131">
        <ele>70.31</ele>
        <time>2021-07-29T12:57:01Z</time>
      </trkpt>
      <trkpt lat="49.40467" lon="2.12148">
        <ele>68.87</ele>
        <time>2021-07-29T12:57:02Z</time>
      </trkpt>
      <trkpt lat="49.40461" lon="2.12166">
        <ele>69.35</ele>
        <time>2021-07-29T12:57:03Z</time>
      </trkpt>
      <trkpt lat="49.40372" lon="2.12386">
        <ele>70.79</ele>
        <time>2021-07-29T12:57:15Z</time>
      </trkpt>
      <trkpt lat="49.4025" lon="2.12688">
        <ele>76.56</ele>
        <time>2021-07-29T12:57:30Z</time>
      </trkpt>
      <trkpt lat="49.40124" lon="2.12996">
        <ele>79.93</ele>
        <time>2021-07-29T12:57:46Z</time>
      </trkpt>
      <trkpt lat="49.40092" lon="2.13067">
        <ele>82.81</ele>
        <time>2021-07-29T12:57:53Z</time>
      </trkpt>
      <trkpt lat="49.40089" lon="2.13072">
        <ele>83.77</ele>
        <time>2021-07-29T12:57:55Z</time>
      </trkpt>
      <trkpt lat="49.40087" lon="2.13078">
        <ele>84.25</ele>
        <time>2021-07-29T12:57:56Z</time>
      </trkpt>
      <trkpt lat="49.40084" lon="2.13083">
        <ele>84.25</ele>
        <time>2021-07-29T12:57:57Z</time>
      </trkpt>
      <trkpt lat="49.40079" lon="2.13092">
        <ele>84.25</ele>
        <time>2021-07-29T12:57:58Z</time>
      </trkpt>
      <trkpt lat="49.40074" lon="2.13092">
        <ele>84.25</ele>
        <time>2021-07-29T12:57:59Z</time>
      </trkpt>
      <trkpt lat="49.40069" lon="2.13092">
        <ele>84.25</ele>
        <time>2021-07-29T12:58:00Z</time>
      </trkpt>
      <trkpt lat="49.40062" lon="2.13095">
        <ele>84.25</ele>
        <time>2021-07-29T12:58:01Z</time>
      </trkpt>
      <trkpt lat="49.40056" lon="2.13099">
        <ele>83.77</ele>
        <time>2021-07-29T12:58:02Z</time>
      </trkpt>
      <trkpt lat="49.40051" lon="2.13107">
        <ele>83.77</ele>
        <time>2021-07-29T12:58:03Z</time>
      </trkpt>
      <trkpt lat="49.40046" lon="2.13115">
        <ele>83.29</ele>
        <time>2021-07-29T12:58:04Z</time>
      </trkpt>
      <trkpt lat="49.40044" lon="2.13139">
        <ele>83.29</ele>
        <time>2021-07-29T12:58:05Z</time>
      </trkpt>
      <trkpt lat="49.40044" lon="2.13139">
        <ele>83.29</ele>
        <time>2021-07-29T12:58:06Z</time>
      </trkpt>
      <trkpt lat="49.40046" lon="2.1315">
        <ele>83.29</ele>
        <time>2021-07-29T12:58:07Z</time>
      </trkpt>
      <trkpt lat="49.40055" lon="2.13171">
        <ele>83.77</ele>
        <time>2021-07-29T12:58:08Z</time>
      </trkpt>
      <trkpt lat="49.40055" lon="2.13171">
        <ele>82.81</ele>
        <time>2021-07-29T12:58:09Z</time>
      </trkpt>
      <trkpt lat="49.40062" lon="2.13175">
        <ele>82.33</ele>
        <time>2021-07-29T12:58:10Z</time>
      </trkpt>
      <trkpt lat="49.4007" lon="2.13177">
        <ele>81.85</ele>
        <time>2021-07-29T12:58:11Z</time>
      </trkpt>
      <trkpt lat="49.40078" lon="2.13176">
        <ele>81.85</ele>
        <time>2021-07-29T12:58:12Z</time>
      </trkpt>
      <trkpt lat="49.40085" lon="2.13169">
        <ele>81.37</ele>
        <time>2021-07-29T12:58:13Z</time>
      </trkpt>
      <trkpt lat="49.40096" lon="2.1315">
        <ele>80.89</ele>
        <time>2021-07-29T12:58:14Z</time>
      </trkpt>
      <trkpt lat="49.40096" lon="2.1315">
        <ele>80.41</ele>
        <time>2021-07-29T12:58:15Z</time>
      </trkpt>
      <trkpt lat="49.40098" lon="2.13126">
        <ele>79.93</ele>
        <time>2021-07-29T12:58:16Z</time>
      </trkpt>
      <trkpt lat="49.40098" lon="2.13126">
        <ele>78.97</ele>
        <time>2021-07-29T12:58:17Z</time>
      </trkpt>
      <trkpt lat="49.40091" lon="2.13105">
        <ele>79.45</ele>
        <time>2021-07-29T12:58:18Z</time>
      </trkpt>
      <trkpt lat="49.40085" lon="2.13098">
        <ele>79.93</ele>
        <time>2021-07-29T12:58:19Z</time>
      </trkpt>
      <trkpt lat="49.40079" lon="2.13092">
        <ele>79.93</ele>
        <time>2021-07-29T12:58:20Z</time>
      </trkpt>
      <trkpt lat="49.40071" lon="2.13092">
        <ele>79.93</ele>
        <time>2021-07-29T12:58:21Z</time>
      </trkpt>
      <trkpt lat="49.40071" lon="2.13092">
        <ele>80.41</ele>
        <time>2021-07-29T12:58:22Z</time>
      </trkpt>
      <trkpt lat="49.40061" lon="2.13085">
        <ele>79.93</ele>
        <time>2021-07-29T12:58:23Z</time>
      </trkpt>
      <trkpt lat="49.40054" lon="2.13077">
        <ele>79.93</ele>
        <time>2021-07-29T12:58:24Z</time>
      </trkpt>
      <trkpt lat="49.40045" lon="2.13067">
        <ele>79.45</ele>
        <time>2021-07-29T12:58:25Z</time>
      </trkpt>
      <trkpt lat="49.40037" lon="2.13057">
        <ele>80.41</ele>
        <time>2021-07-29T12:58:26Z</time>
      </trkpt>
      <trkpt lat="49.40029" lon="2.13047">
        <ele>80.89</ele>
        <time>2021-07-29T12:58:27Z</time>
      </trkpt>
      <trkpt lat="49.39929" lon="2.1286">
        <ele>88.58</ele>
        <time>2021-07-29T12:58:39Z</time>
      </trkpt>
      <trkpt lat="49.39766" lon="2.12563">
        <ele>93.39</ele>
        <time>2021-07-29T12:58:56Z</time>
      </trkpt>
      <trkpt lat="49.3964" lon="2.12277">
        <ele>95.79</ele>
        <time>2021-07-29T12:59:10Z</time>
      </trkpt>
      <trkpt lat="49.39565" lon="2.11999">
        <ele>93.87</ele>
        <time>2021-07-29T12:59:21Z</time>
      </trkpt>
      <trkpt lat="49.39487" lon="2.11558">
        <ele>94.83</ele>
        <time>2021-07-29T12:59:36Z</time>
      </trkpt>
      <trkpt lat="49.39399" lon="2.1124">
        <ele>100.11</ele>
        <time>2021-07-29T12:59:47Z</time>
      </trkpt>
      <trkpt lat="49.39234" lon="2.10858">
        <ele>107.81</ele>
        <time>2021-07-29T13:00:01Z</time>
      </trkpt>
      <trkpt lat="49.39073" lon="2.10466">
        <ele>113.09</ele>
        <time>2021-07-29T13:00:15Z</time>
      </trkpt>
      <trkpt lat="49.39037" lon="2.10229">
        <ele>117.42</ele>
        <time>2021-07-29T13:00:23Z</time>
      </trkpt>
      <trkpt lat="49.39054" lon="2.09958">
        <ele>121.74</ele>
        <time>2021-07-29T13:00:31Z</time>
      </trkpt>
      <trkpt lat="49.39054" lon="2.09958">
        <ele>121.74</ele>
        <time>2021-07-29T13:00:32Z</time>
      </trkpt>
      <trkpt lat="49.39155" lon="2.09593">
        <ele>131.36</ele>
        <time>2021-07-29T13:00:45Z</time>
      </trkpt>
      <trkpt lat="49.39255" lon="2.09237">
        <ele>128.95</ele>
        <time>2021-07-29T13:00:57Z</time>
      </trkpt>
      <trkpt lat="49.39303" lon="2.08884">
        <ele>113.09</ele>
        <time>2021-07-29T13:01:07Z</time>
      </trkpt>
      <trkpt lat="49.39305" lon="2.08511">
        <ele>104.92</ele>
        <time>2021-07-29T13:01:17Z</time>
      </trkpt>
      <trkpt lat="49.39257" lon="2.08175">
        <ele>99.15</ele>
        <time>2021-07-29T13:01:27Z</time>
      </trkpt>
      <trkpt lat="49.39167" lon="2.0784">
        <ele>94.83</ele>
        <time>2021-07-29T13:01:38Z</time>
      </trkpt>
      <trkpt lat="49.39049" lon="2.07567">
        <ele>90.98</ele>
        <time>2021-07-29T13:01:48Z</time>
      </trkpt>
      <trkpt lat="49.38883" lon="2.07309">
        <ele>88.58</ele>
        <time>2021-07-29T13:01:59Z</time>
      </trkpt>
      <trkpt lat="49.38715" lon="2.07036">
        <ele>92.42</ele>
        <time>2021-07-29T13:02:10Z</time>
      </trkpt>
      <trkpt lat="49.38621" lon="2.06779">
        <ele>98.19</ele>
        <time>2021-07-29T13:02:19Z</time>
      </trkpt>
      <trkpt lat="49.38565" lon="2.06471">
        <ele>103.96</ele>
        <time>2021-07-29T13:02:29Z</time>
      </trkpt>
      <trkpt lat="49.38495" lon="2.05704">
        <ele>97.23</ele>
        <time>2021-07-29T13:02:52Z</time>
      </trkpt>
      <trkpt lat="49.38442" lon="2.0513">
        <ele>94.35</ele>
        <time>2021-07-29T13:03:10Z</time>
      </trkpt>
      <trkpt lat="49.38382" lon="2.04461">
        <ele>92.9</ele>
        <time>2021-07-29T13:03:32Z</time>
      </trkpt>
      <trkpt lat="49.38325" lon="2.03837">
        <ele>96.75</ele>
        <time>2021-07-29T13:03:53Z</time>
      </trkpt>
      <trkpt lat="49.38265" lon="2.03191">
        <ele>102.52</ele>
        <time>2021-07-29T13:04:13Z</time>
      </trkpt>
      <trkpt lat="49.38224" lon="2.02671">
        <ele>100.11</ele>
        <time>2021-07-29T13:04:31Z</time>
      </trkpt>
      <trkpt lat="49.38239" lon="2.02394">
        <ele>95.79</ele>
        <time>2021-07-29T13:04:40Z</time>
      </trkpt>
      <trkpt lat="49.38311" lon="2.02073">
        <ele>96.75</ele>
        <time>2021-07-29T13:04:50Z</time>
      </trkpt>
      <trkpt lat="49.38408" lon="2.0184">
        <ele>90.5</ele>
        <time>2021-07-29T13:05:00Z</time>
      </trkpt>
      <trkpt lat="49.38655" lon="2.01383">
        <ele>89.54</ele>
        <time>2021-07-29T13:05:20Z</time>
      </trkpt>
      <trkpt lat="49.38879" lon="2.0097">
        <ele>90.98</ele>
        <time>2021-07-29T13:05:40Z</time>
      </trkpt>
      <trkpt lat="49.3905" lon="2.00659">
        <ele>89.06</ele>
        <time>2021-07-29T13:05:54Z</time>
      </trkpt>
      <trkpt lat="49.39174" lon="2.00452">
        <ele>94.35</ele>
        <time>2021-07-29T13:06:04Z</time>
      </trkpt>
      <trkpt lat="49.39345" lon="2.00166">
        <ele>92.42</ele>
        <time>2021-07-29T13:06:18Z</time>
      </trkpt>
      <trkpt lat="49.39508" lon="1.99875">
        <ele>86.66</ele>
        <time>2021-07-29T13:06:32Z</time>
      </trkpt>
      <trkpt lat="49.39676" lon="1.99547">
        <ele>97.71</ele>
        <time>2021-07-29T13:06:48Z</time>
      </trkpt>
      <trkpt lat="49.3979" lon="1.99319">
        <ele>104.44</ele>
        <time>2021-07-29T13:06:57Z</time>
      </trkpt>
      <trkpt lat="49.39974" lon="1.99002">
        <ele>105.4</ele>
        <time>2021-07-29T13:07:09Z</time>
      </trkpt>
      <trkpt lat="49.40161" lon="1.98784">
        <ele>104.92</ele>
        <time>2021-07-29T13:07:19Z</time>
      </trkpt>
      <trkpt lat="49.40384" lon="1.98626">
        <ele>99.63</ele>
        <time>2021-07-29T13:07:29Z</time>
      </trkpt>
      <trkpt lat="49.40656" lon="1.98518">
        <ele>91.46</ele>
        <time>2021-07-29T13:07:40Z</time>
      </trkpt>
      <trkpt lat="49.41098" lon="1.98354">
        <ele>80.41</ele>
        <time>2021-07-29T13:07:58Z</time>
      </trkpt>
      <trkpt lat="49.41519" lon="1.98188">
        <ele>82.81</ele>
        <time>2021-07-29T13:08:17Z</time>
      </trkpt>
      <trkpt lat="49.41655" lon="1.98069">
        <ele>82.33</ele>
        <time>2021-07-29T13:08:24Z</time>
      </trkpt>
      <trkpt lat="49.41766" lon="1.97897">
        <ele>83.29</ele>
        <time>2021-07-29T13:08:31Z</time>
      </trkpt>
      <trkpt lat="49.41853" lon="1.97655">
        <ele>86.66</ele>
        <time>2021-07-29T13:08:39Z</time>
      </trkpt>
      <trkpt lat="49.42005" lon="1.97054">
        <ele>76.56</ele>
        <time>2021-07-29T13:08:58Z</time>
      </trkpt>
      <trkpt lat="49.42049" lon="1.96874">
        <ele>78.97</ele>
        <time>2021-07-29T13:09:05Z</time>
      </trkpt>
      <trkpt lat="49.42072" lon="1.96801">
        <ele>79.45</ele>
        <time>2021-07-29T13:09:11Z</time>
      </trkpt>
      <trkpt lat="49.42075" lon="1.96797">
        <ele>80.89</ele>
        <time>2021-07-29T13:09:19Z</time>
      </trkpt>
      <trkpt lat="49.42082" lon="1.96787">
        <ele>80.89</ele>
        <time>2021-07-29T13:09:20Z</time>
      </trkpt>
      <trkpt lat="49.42086" lon="1.96782">
        <ele>80.89</ele>
        <time>2021-07-29T13:09:21Z</time>
      </trkpt>
      <trkpt lat="49.42086" lon="1.96782">
        <ele>80.89</ele>
        <time>2021-07-29T13:09:22Z</time>
      </trkpt>
      <trkpt lat="49.42091" lon="1.96777">
        <ele>81.37</ele>
        <time>2021-07-29T13:09:23Z</time>
      </trkpt>
      <trkpt lat="49.42093" lon="1.96769">
        <ele>81.37</ele>
        <time>2021-07-29T13:09:24Z</time>
      </trkpt>
      <trkpt lat="49.42096" lon="1.9676">
        <ele>81.37</ele>
        <time>2021-07-29T13:09:25Z</time>
      </trkpt>
      <trkpt lat="49.42094" lon="1.96749">
        <ele>81.37</ele>
        <time>2021-07-29T13:09:26Z</time>
      </trkpt>
      <trkpt lat="49.4209" lon="1.96739">
        <ele>81.37</ele>
        <time>2021-07-29T13:09:27Z</time>
      </trkpt>
      <trkpt lat="49.42088" lon="1.96735">
        <ele>81.37</ele>
        <time>2021-07-29T13:09:28Z</time>
      </trkpt>
      <trkpt lat="49.42073" lon="1.96717">
        <ele>81.37</ele>
        <time>2021-07-29T13:09:29Z</time>
      </trkpt>
      <trkpt lat="49.42073" lon="1.96701">
        <ele>80.89</ele>
        <time>2021-07-29T13:09:30Z</time>
      </trkpt>
      <trkpt lat="49.42072" lon="1.96518">
        <ele>83.77</ele>
        <time>2021-07-29T13:09:39Z</time>
      </trkpt>
      <trkpt lat="49.42052" lon="1.96181">
        <ele>85.21</ele>
        <time>2021-07-29T13:09:52Z</time>
      </trkpt>
      <trkpt lat="49.41994" lon="1.95667">
        <ele>99.15</ele>
        <time>2021-07-29T13:10:12Z</time>
      </trkpt>
      <trkpt lat="49.41941" lon="1.95253">
        <ele>88.58</ele>
        <time>2021-07-29T13:10:27Z</time>
      </trkpt>
      <trkpt lat="49.41909" lon="1.95016">
        <ele>93.87</ele>
        <time>2021-07-29T13:10:37Z</time>
      </trkpt>
      <trkpt lat="49.41866" lon="1.94687">
        <ele>100.6</ele>
        <time>2021-07-29T13:10:54Z</time>
      </trkpt>
      <trkpt lat="49.41837" lon="1.94484">
        <ele>104.44</ele>
        <time>2021-07-29T13:11:05Z</time>
      </trkpt>
      <trkpt lat="49.41811" lon="1.94285">
        <ele>104.44</ele>
        <time>2021-07-29T13:11:16Z</time>
      </trkpt>
      <trkpt lat="49.41757" lon="1.93899">
        <ele>103.96</ele>
        <time>2021-07-29T13:11:36Z</time>
      </trkpt>
      <trkpt lat="49.41756" lon="1.93781">
        <ele>103.48</ele>
        <time>2021-07-29T13:11:42Z</time>
      </trkpt>
      <trkpt lat="49.41756" lon="1.93763">
        <ele>102.52</ele>
        <time>2021-07-29T13:11:43Z</time>
      </trkpt>
      <trkpt lat="49.41758" lon="1.93742">
        <ele>102.04</ele>
        <time>2021-07-29T13:11:44Z</time>
      </trkpt>
      <trkpt lat="49.41763" lon="1.93723">
        <ele>102.04</ele>
        <time>2021-07-29T13:11:45Z</time>
      </trkpt>
      <trkpt lat="49.41768" lon="1.93705">
        <ele>102.04</ele>
        <time>2021-07-29T13:11:46Z</time>
      </trkpt>
      <trkpt lat="49.41777" lon="1.9369">
        <ele>102.04</ele>
        <time>2021-07-29T13:11:47Z</time>
      </trkpt>
      <trkpt lat="49.41786" lon="1.93675">
        <ele>101.56</ele>
        <time>2021-07-29T13:11:48Z</time>
      </trkpt>
      <trkpt lat="49.41796" lon="1.93661">
        <ele>101.56</ele>
        <time>2021-07-29T13:11:49Z</time>
      </trkpt>
      <trkpt lat="49.41807" lon="1.93651">
        <ele>101.56</ele>
        <time>2021-07-29T13:11:50Z</time>
      </trkpt>
      <trkpt lat="49.41819" lon="1.93642">
        <ele>100.6</ele>
        <time>2021-07-29T13:11:51Z</time>
      </trkpt>
      <trkpt lat="49.41844" lon="1.93628">
        <ele>101.56</ele>
        <time>2021-07-29T13:11:52Z</time>
      </trkpt>
      <trkpt lat="49.41844" lon="1.93628">
        <ele>101.56</ele>
        <time>2021-07-29T13:11:53Z</time>
      </trkpt>
      <trkpt lat="49.4204" lon="1.9355">
        <ele>99.15</ele>
        <time>2021-07-29T13:12:06Z</time>
      </trkpt>
      <trkpt lat="49.42144" lon="1.93507">
        <ele>96.27</ele>
        <time>2021-07-29T13:12:14Z</time>
      </trkpt>
      <trkpt lat="49.42303" lon="1.93442">
        <ele>92.42</ele>
        <time>2021-07-29T13:12:27Z</time>
      </trkpt>
      <trkpt lat="49.42479" lon="1.93366">
        <ele>88.1</ele>
        <time>2021-07-29T13:12:38Z</time>
      </trkpt>
      <trkpt lat="49.42596" lon="1.93238">
        <ele>82.81</ele>
        <time>2021-07-29T13:12:45Z</time>
      </trkpt>
      <trkpt lat="49.42857" lon="1.92917">
        <ele>82.33</ele>
        <time>2021-07-29T13:13:04Z</time>
      </trkpt>
      <trkpt lat="49.4307" lon="1.92653">
        <ele>81.85</ele>
        <time>2021-07-29T13:13:19Z</time>
      </trkpt>
      <trkpt lat="49.43243" lon="1.9244">
        <ele>78.97</ele>
        <time>2021-07-29T13:13:33Z</time>
      </trkpt>
      <trkpt lat="49.43384" lon="1.92259">
        <ele>80.89</ele>
        <time>2021-07-29T13:13:46Z</time>
      </trkpt>
      <trkpt lat="49.43437" lon="1.92141">
        <ele>79.93</ele>
        <time>2021-07-29T13:13:54Z</time>
      </trkpt>
      <trkpt lat="49.43465" lon="1.91909">
        <ele>83.77</ele>
        <time>2021-07-29T13:14:06Z</time>
      </trkpt>
      <trkpt lat="49.43496" lon="1.91635">
        <ele>86.18</ele>
        <time>2021-07-29T13:14:20Z</time>
      </trkpt>
      <trkpt lat="49.43498" lon="1.9161">
        <ele>86.18</ele>
        <time>2021-07-29T13:14:24Z</time>
      </trkpt>
      <trkpt lat="49.43501" lon="1.91579">
        <ele>86.66</ele>
        <time>2021-07-29T13:14:39Z</time>
      </trkpt>
      <trkpt lat="49.43514" lon="1.9147">
        <ele>86.18</ele>
        <time>2021-07-29T13:14:47Z</time>
      </trkpt>
      <trkpt lat="49.43529" lon="1.9132">
        <ele>87.62</ele>
        <time>2021-07-29T13:14:57Z</time>
      </trkpt>
      <trkpt lat="49.43566" lon="1.90975">
        <ele>85.21</ele>
        <time>2021-07-29T13:15:13Z</time>
      </trkpt>
      <trkpt lat="49.43607" lon="1.90589">
        <ele>90.98</ele>
        <time>2021-07-29T13:15:31Z</time>
      </trkpt>
      <trkpt lat="49.43634" lon="1.90335">
        <ele>93.87</ele>
        <time>2021-07-29T13:15:45Z</time>
      </trkpt>
      <trkpt lat="49.43676" lon="1.8993">
        <ele>100.6</ele>
        <time>2021-07-29T13:16:07Z</time>
      </trkpt>
      <trkpt lat="49.43712" lon="1.89585">
        <ele>103.96</ele>
        <time>2021-07-29T13:16:25Z</time>
      </trkpt>
      <trkpt lat="49.43756" lon="1.89288">
        <ele>99.63</ele>
        <time>2021-07-29T13:16:38Z</time>
      </trkpt>
      <trkpt lat="49.43823" lon="1.8887">
        <ele>93.39</ele>
        <time>2021-07-29T13:16:52Z</time>
      </trkpt>
      <trkpt lat="49.43904" lon="1.88352">
        <ele>90.02</ele>
        <time>2021-07-29T13:17:10Z</time>
      </trkpt>
      <trkpt lat="49.43974" lon="1.87894">
        <ele>86.18</ele>
        <time>2021-07-29T13:17:27Z</time>
      </trkpt>
      <trkpt lat="49.44044" lon="1.87451">
        <ele>91.94</ele>
        <time>2021-07-29T13:17:46Z</time>
      </trkpt>
      <trkpt lat="49.44099" lon="1.86998">
        <ele>103</ele>
        <time>2021-07-29T13:18:06Z</time>
      </trkpt>
      <trkpt lat="49.44072" lon="1.86843">
        <ele>102.52</ele>
        <time>2021-07-29T13:18:14Z</time>
      </trkpt>
      <trkpt lat="49.44035" lon="1.866">
        <ele>97.71</ele>
        <time>2021-07-29T13:18:23Z</time>
      </trkpt>
      <trkpt lat="49.44039" lon="1.86219">
        <ele>94.83</ele>
        <time>2021-07-29T13:18:35Z</time>
      </trkpt>
      <trkpt lat="49.44048" lon="1.85775">
        <ele>103.96</ele>
        <time>2021-07-29T13:18:49Z</time>
      </trkpt>
      <trkpt lat="49.44074" lon="1.85468">
        <ele>105.88</ele>
        <time>2021-07-29T13:19:00Z</time>
      </trkpt>
      <trkpt lat="49.44158" lon="1.84947">
        <ele>101.56</ele>
        <time>2021-07-29T13:19:17Z</time>
      </trkpt>
      <trkpt lat="49.44237" lon="1.8449">
        <ele>95.31</ele>
        <time>2021-07-29T13:19:32Z</time>
      </trkpt>
      <trkpt lat="49.44333" lon="1.83938">
        <ele>97.71</ele>
        <time>2021-07-29T13:19:50Z</time>
      </trkpt>
      <trkpt lat="49.44405" lon="1.83471">
        <ele>101.56</ele>
        <time>2021-07-29T13:20:06Z</time>
      </trkpt>
      <trkpt lat="49.44428" lon="1.82896">
        <ele>102.04</ele>
        <time>2021-07-29T13:20:25Z</time>
      </trkpt>
      <trkpt lat="49.44446" lon="1.82454">
        <ele>105.4</ele>
        <time>2021-07-29T13:20:42Z</time>
      </trkpt>
      <trkpt lat="49.44467" lon="1.81917">
        <ele>107.32</ele>
        <time>2021-07-29T13:21:03Z</time>
      </trkpt>
      <trkpt lat="49.44486" lon="1.8143">
        <ele>110.21</ele>
        <time>2021-07-29T13:21:22Z</time>
      </trkpt>
      <trkpt lat="49.44498" lon="1.81142">
        <ele>114.53</ele>
        <time>2021-07-29T13:21:36Z</time>
      </trkpt>
      <trkpt lat="49.44536" lon="1.80912">
        <ele>115.5</ele>
        <time>2021-07-29T13:21:47Z</time>
      </trkpt>
      <trkpt lat="49.44579" lon="1.80798">
        <ele>113.09</ele>
        <time>2021-07-29T13:21:56Z</time>
      </trkpt>
      <trkpt lat="49.44653" lon="1.8059">
        <ele>111.17</ele>
        <time>2021-07-29T13:22:10Z</time>
      </trkpt>
      <trkpt lat="49.44747" lon="1.80335">
        <ele>108.77</ele>
        <time>2021-07-29T13:22:24Z</time>
      </trkpt>
      <trkpt lat="49.44874" lon="1.7999">
        <ele>107.32</ele>
        <time>2021-07-29T13:22:42Z</time>
      </trkpt>
      <trkpt lat="49.4499" lon="1.79674">
        <ele>107.81</ele>
        <time>2021-07-29T13:22:57Z</time>
      </trkpt>
      <trkpt lat="49.45106" lon="1.79439">
        <ele>103.96</ele>
        <time>2021-07-29T13:23:09Z</time>
      </trkpt>
      <trkpt lat="49.45283" lon="1.79144">
        <ele>97.23</ele>
        <time>2021-07-29T13:23:26Z</time>
      </trkpt>
      <trkpt lat="49.45493" lon="1.78792">
        <ele>93.87</ele>
        <time>2021-07-29T13:23:44Z</time>
      </trkpt>
      <trkpt lat="49.45694" lon="1.78458">
        <ele>87.62</ele>
        <time>2021-07-29T13:24:00Z</time>
      </trkpt>
      <trkpt lat="49.45861" lon="1.78181">
        <ele>85.69</ele>
        <time>2021-07-29T13:24:13Z</time>
      </trkpt>
      <trkpt lat="49.45943" lon="1.78037">
        <ele>85.69</ele>
        <time>2021-07-29T13:24:20Z</time>
      </trkpt>
      <trkpt lat="49.45957" lon="1.77997">
        <ele>85.69</ele>
        <time>2021-07-29T13:24:21Z</time>
      </trkpt>
      <trkpt lat="49.45957" lon="1.77997">
        <ele>85.21</ele>
        <time>2021-07-29T13:24:22Z</time>
      </trkpt>
      <trkpt lat="49.45961" lon="1.77976">
        <ele>85.69</ele>
        <time>2021-07-29T13:24:23Z</time>
      </trkpt>
      <trkpt lat="49.45965" lon="1.77956">
        <ele>85.69</ele>
        <time>2021-07-29T13:24:24Z</time>
      </trkpt>
      <trkpt lat="49.45969" lon="1.77936">
        <ele>85.69</ele>
        <time>2021-07-29T13:24:25Z</time>
      </trkpt>
      <trkpt lat="49.46011" lon="1.77662">
        <ele>82.33</ele>
        <time>2021-07-29T13:24:38Z</time>
      </trkpt>
      <trkpt lat="49.46069" lon="1.77264">
        <ele>82.81</ele>
        <time>2021-07-29T13:24:53Z</time>
      </trkpt>
      <trkpt lat="49.46149" lon="1.7673">
        <ele>83.77</ele>
        <time>2021-07-29T13:25:12Z</time>
      </trkpt>
      <trkpt lat="49.46218" lon="1.76271">
        <ele>80.89</ele>
        <time>2021-07-29T13:25:30Z</time>
      </trkpt>
      <trkpt lat="49.46305" lon="1.7571">
        <ele>79.93</ele>
        <time>2021-07-29T13:25:50Z</time>
      </trkpt>
      <trkpt lat="49.46312" lon="1.75683">
        <ele>80.89</ele>
        <time>2021-07-29T13:25:51Z</time>
      </trkpt>
      <trkpt lat="49.46322" lon="1.75658">
        <ele>80.89</ele>
        <time>2021-07-29T13:25:52Z</time>
      </trkpt>
      <trkpt lat="49.46332" lon="1.75635">
        <ele>80.41</ele>
        <time>2021-07-29T13:25:53Z</time>
      </trkpt>
      <trkpt lat="49.46344" lon="1.75611">
        <ele>81.37</ele>
        <time>2021-07-29T13:25:54Z</time>
      </trkpt>
      <trkpt lat="49.46358" lon="1.75592">
        <ele>82.33</ele>
        <time>2021-07-29T13:25:55Z</time>
      </trkpt>
      <trkpt lat="49.46373" lon="1.75574">
        <ele>82.81</ele>
        <time>2021-07-29T13:25:56Z</time>
      </trkpt>
      <trkpt lat="49.46744" lon="1.75188">
        <ele>82.81</ele>
        <time>2021-07-29T13:26:20Z</time>
      </trkpt>
      <trkpt lat="49.46996" lon="1.74926">
        <ele>80.41</ele>
        <time>2021-07-29T13:26:36Z</time>
      </trkpt>
      <trkpt lat="49.47216" lon="1.74697">
        <ele>81.37</ele>
        <time>2021-07-29T13:26:52Z</time>
      </trkpt>
      <trkpt lat="49.47228" lon="1.74687">
        <ele>81.37</ele>
        <time>2021-07-29T13:26:53Z</time>
      </trkpt>
      <trkpt lat="49.4724" lon="1.74678">
        <ele>81.37</ele>
        <time>2021-07-29T13:26:54Z</time>
      </trkpt>
      <trkpt lat="49.47253" lon="1.74667">
        <ele>80.89</ele>
        <time>2021-07-29T13:26:55Z</time>
      </trkpt>
      <trkpt lat="49.47295" lon="1.74652">
        <ele>80.41</ele>
        <time>2021-07-29T13:26:58Z</time>
      </trkpt>
      <trkpt lat="49.47306" lon="1.74647">
        <ele>80.41</ele>
        <time>2021-07-29T13:26:59Z</time>
      </trkpt>
      <trkpt lat="49.47316" lon="1.74637">
        <ele>80.89</ele>
        <time>2021-07-29T13:27:00Z</time>
      </trkpt>
      <trkpt lat="49.47328" lon="1.74625">
        <ele>81.37</ele>
        <time>2021-07-29T13:27:01Z</time>
      </trkpt>
      <trkpt lat="49.47337" lon="1.7461">
        <ele>80.41</ele>
        <time>2021-07-29T13:27:02Z</time>
      </trkpt>
      <trkpt lat="49.47344" lon="1.74594">
        <ele>81.37</ele>
        <time>2021-07-29T13:27:03Z</time>
      </trkpt>
      <trkpt lat="49.47359" lon="1.74564">
        <ele>80.89</ele>
        <time>2021-07-29T13:27:05Z</time>
      </trkpt>
      <trkpt lat="49.47456" lon="1.7445">
        <ele>81.37</ele>
        <time>2021-07-29T13:27:15Z</time>
      </trkpt>
      <trkpt lat="49.47598" lon="1.74301">
        <ele>83.29</ele>
        <time>2021-07-29T13:27:30Z</time>
      </trkpt>
      <trkpt lat="49.47632" lon="1.74265">
        <ele>83.77</ele>
        <time>2021-07-29T13:27:36Z</time>
      </trkpt>
      <trkpt lat="49.47638" lon="1.74259">
        <ele>83.29</ele>
        <time>2021-07-29T13:27:51Z</time>
      </trkpt>
      <trkpt lat="49.4765" lon="1.74251">
        <ele>83.77</ele>
        <time>2021-07-29T13:27:59Z</time>
      </trkpt>
      <trkpt lat="49.47654" lon="1.74248">
        <ele>83.77</ele>
        <time>2021-07-29T13:28:00Z</time>
      </trkpt>
      <trkpt lat="49.47658" lon="1.74246">
        <ele>83.77</ele>
        <time>2021-07-29T13:28:01Z</time>
      </trkpt>
      <trkpt lat="49.47662" lon="1.74243">
        <ele>83.77</ele>
        <time>2021-07-29T13:28:02Z</time>
      </trkpt>
      <trkpt lat="49.47669" lon="1.74249">
        <ele>83.77</ele>
        <time>2021-07-29T13:28:03Z</time>
      </trkpt>
      <trkpt lat="49.47673" lon="1.74248">
        <ele>83.77</ele>
        <time>2021-07-29T13:28:04Z</time>
      </trkpt>
      <trkpt lat="49.47679" lon="1.74244">
        <ele>84.25</ele>
        <time>2021-07-29T13:28:05Z</time>
      </trkpt>
      <trkpt lat="49.47678" lon="1.7423">
        <ele>84.25</ele>
        <time>2021-07-29T13:28:06Z</time>
      </trkpt>
      <trkpt lat="49.47682" lon="1.74224">
        <ele>84.25</ele>
        <time>2021-07-29T13:28:07Z</time>
      </trkpt>
      <trkpt lat="49.47687" lon="1.74218">
        <ele>84.25</ele>
        <time>2021-07-29T13:28:08Z</time>
      </trkpt>
      <trkpt lat="49.47693" lon="1.74211">
        <ele>84.25</ele>
        <time>2021-07-29T13:28:09Z</time>
      </trkpt>
      <trkpt lat="49.47776" lon="1.74117">
        <ele>85.21</ele>
        <time>2021-07-29T13:28:19Z</time>
      </trkpt>
      <trkpt lat="49.47991" lon="1.73891">
        <ele>81.85</ele>
        <time>2021-07-29T13:28:40Z</time>
      </trkpt>
      <trkpt lat="49.48062" lon="1.73814">
        <ele>84.25</ele>
        <time>2021-07-29T13:28:49Z</time>
      </trkpt>
      <trkpt lat="49.48065" lon="1.73811">
        <ele>84.73</ele>
        <time>2021-07-29T13:28:58Z</time>
      </trkpt>
      <trkpt lat="49.48081" lon="1.73795">
        <ele>85.21</ele>
        <time>2021-07-29T13:29:05Z</time>
      </trkpt>
      <trkpt lat="49.48106" lon="1.73776">
        <ele>85.69</ele>
        <time>2021-07-29T13:29:11Z</time>
      </trkpt>
      <trkpt lat="49.4811" lon="1.73773">
        <ele>86.18</ele>
        <time>2021-07-29T13:29:12Z</time>
      </trkpt>
      <trkpt lat="49.48115" lon="1.73771">
        <ele>86.18</ele>
        <time>2021-07-29T13:29:13Z</time>
      </trkpt>
      <trkpt lat="49.48124" lon="1.73766">
        <ele>86.66</ele>
        <time>2021-07-29T13:29:16Z</time>
      </trkpt>
      <trkpt lat="49.48138" lon="1.73772">
        <ele>86.66</ele>
        <time>2021-07-29T13:29:17Z</time>
      </trkpt>
      <trkpt lat="49.48139" lon="1.73754">
        <ele>86.66</ele>
        <time>2021-07-29T13:29:18Z</time>
      </trkpt>
      <trkpt lat="49.48141" lon="1.73751">
        <ele>86.66</ele>
        <time>2021-07-29T13:29:19Z</time>
      </trkpt>
      <trkpt lat="49.48145" lon="1.73744">
        <ele>86.66</ele>
        <time>2021-07-29T13:29:20Z</time>
      </trkpt>
      <trkpt lat="49.4815" lon="1.73737">
        <ele>86.18</ele>
        <time>2021-07-29T13:29:21Z</time>
      </trkpt>
      <trkpt lat="49.48155" lon="1.73729">
        <ele>86.18</ele>
        <time>2021-07-29T13:29:22Z</time>
      </trkpt>
      <trkpt lat="49.48161" lon="1.73721">
        <ele>86.18</ele>
        <time>2021-07-29T13:29:23Z</time>
      </trkpt>
      <trkpt lat="49.48167" lon="1.73713">
        <ele>86.18</ele>
        <time>2021-07-29T13:29:24Z</time>
      </trkpt>
      <trkpt lat="49.48174" lon="1.73706">
        <ele>86.66</ele>
        <time>2021-07-29T13:29:25Z</time>
      </trkpt>
      <trkpt lat="49.48254" lon="1.73616">
        <ele>86.18</ele>
        <time>2021-07-29T13:29:34Z</time>
      </trkpt>
      <trkpt lat="49.48275" lon="1.73584">
        <ele>86.18</ele>
        <time>2021-07-29T13:29:40Z</time>
      </trkpt>
      <trkpt lat="49.48288" lon="1.73558">
        <ele>86.66</ele>
        <time>2021-07-29T13:30:20Z</time>
      </trkpt>
      <trkpt lat="49.4835" lon="1.73472">
        <ele>87.14</ele>
        <time>2021-07-29T13:30:29Z</time>
      </trkpt>
      <trkpt lat="49.4841" lon="1.73388">
        <ele>85.69</ele>
        <time>2021-07-29T13:30:36Z</time>
      </trkpt>
      <trkpt lat="49.48417" lon="1.73376">
        <ele>86.18</ele>
        <time>2021-07-29T13:30:37Z</time>
      </trkpt>
      <trkpt lat="49.48422" lon="1.73362">
        <ele>86.66</ele>
        <time>2021-07-29T13:30:38Z</time>
      </trkpt>
      <trkpt lat="49.48457" lon="1.73205">
        <ele>85.21</ele>
        <time>2021-07-29T13:30:50Z</time>
      </trkpt>
      <trkpt lat="49.48503" lon="1.73002">
        <ele>85.21</ele>
        <time>2021-07-29T13:31:05Z</time>
      </trkpt>
      <trkpt lat="49.48507" lon="1.72981">
        <ele>84.73</ele>
        <time>2021-07-29T13:31:12Z</time>
      </trkpt>
      <trkpt lat="49.48514" lon="1.72949">
        <ele>84.73</ele>
        <time>2021-07-29T13:31:52Z</time>
      </trkpt>
      <trkpt lat="49.48533" lon="1.7286">
        <ele>86.18</ele>
        <time>2021-07-29T13:31:59Z</time>
      </trkpt>
      <trkpt lat="49.48555" lon="1.72757">
        <ele>86.18</ele>
        <time>2021-07-29T13:32:06Z</time>
      </trkpt>
      <trkpt lat="49.48558" lon="1.72743">
        <ele>85.69</ele>
        <time>2021-07-29T13:32:14Z</time>
      </trkpt>
      <trkpt lat="49.4856" lon="1.72734">
        <ele>85.69</ele>
        <time>2021-07-29T13:32:36Z</time>
      </trkpt>
      <trkpt lat="49.48561" lon="1.72728">
        <ele>85.69</ele>
        <time>2021-07-29T13:32:37Z</time>
      </trkpt>
      <trkpt lat="49.48568" lon="1.7263">
        <ele>86.66</ele>
        <time>2021-07-29T13:32:45Z</time>
      </trkpt>
      <trkpt lat="49.48568" lon="1.72435">
        <ele>86.18</ele>
        <time>2021-07-29T13:32:55Z</time>
      </trkpt>
      <trkpt lat="49.48559" lon="1.72089">
        <ele>90.5</ele>
        <time>2021-07-29T13:33:10Z</time>
      </trkpt>
      <trkpt lat="49.48504" lon="1.71844">
        <ele>91.94</ele>
        <time>2021-07-29T13:33:20Z</time>
      </trkpt>
      <trkpt lat="49.48457" lon="1.71724">
        <ele>92.9</ele>
        <time>2021-07-29T13:33:26Z</time>
      </trkpt>
      <trkpt lat="49.48447" lon="1.71703">
        <ele>93.87</ele>
        <time>2021-07-29T13:33:32Z</time>
      </trkpt>
      <trkpt lat="49.48434" lon="1.71677">
        <ele>94.83</ele>
        <time>2021-07-29T13:33:59Z</time>
      </trkpt>
      <trkpt lat="49.48394" lon="1.7157">
        <ele>91.94</ele>
        <time>2021-07-29T13:34:08Z</time>
      </trkpt>
      <trkpt lat="49.48358" lon="1.71394">
        <ele>90.5</ele>
        <time>2021-07-29T13:34:20Z</time>
      </trkpt>
      <trkpt lat="49.48355" lon="1.71372">
        <ele>91.94</ele>
        <time>2021-07-29T13:34:27Z</time>
      </trkpt>
      <trkpt lat="49.48353" lon="1.71326">
        <ele>91.46</ele>
        <time>2021-07-29T13:34:50Z</time>
      </trkpt>
      <trkpt lat="49.48353" lon="1.71326">
        <ele>91.46</ele>
        <time>2021-07-29T13:34:51Z</time>
      </trkpt>
      <trkpt lat="49.48381" lon="1.71151">
        <ele>91.46</ele>
        <time>2021-07-29T13:35:02Z</time>
      </trkpt>
      <trkpt lat="49.48433" lon="1.70836">
        <ele>97.23</ele>
        <time>2021-07-29T13:35:18Z</time>
      </trkpt>
      <trkpt lat="49.48492" lon="1.70499">
        <ele>106.36</ele>
        <time>2021-07-29T13:35:35Z</time>
      </trkpt>
      <trkpt lat="49.48536" lon="1.70227">
        <ele>112.61</ele>
        <time>2021-07-29T13:35:49Z</time>
      </trkpt>
      <trkpt lat="49.48539" lon="1.70211">
        <ele>112.61</ele>
        <time>2021-07-29T13:35:50Z</time>
      </trkpt>
      <trkpt lat="49.48541" lon="1.70201">
        <ele>113.09</ele>
        <time>2021-07-29T13:35:51Z</time>
      </trkpt>
      <trkpt lat="49.48543" lon="1.70192">
        <ele>113.09</ele>
        <time>2021-07-29T13:35:52Z</time>
      </trkpt>
      <trkpt lat="49.48538" lon="1.70181">
        <ele>114.05</ele>
        <time>2021-07-29T13:35:53Z</time>
      </trkpt>
      <trkpt lat="49.48533" lon="1.70177">
        <ele>114.53</ele>
        <time>2021-07-29T13:35:54Z</time>
      </trkpt>
      <trkpt lat="49.48527" lon="1.70174">
        <ele>114.53</ele>
        <time>2021-07-29T13:35:55Z</time>
      </trkpt>
      <trkpt lat="49.48519" lon="1.70162">
        <ele>114.53</ele>
        <time>2021-07-29T13:35:56Z</time>
      </trkpt>
      <trkpt lat="49.48516" lon="1.70151">
        <ele>114.53</ele>
        <time>2021-07-29T13:35:57Z</time>
      </trkpt>
      <trkpt lat="49.48484" lon="1.70022">
        <ele>115.5</ele>
        <time>2021-07-29T13:36:07Z</time>
      </trkpt>
      <trkpt lat="49.48435" lon="1.69807">
        <ele>117.9</ele>
        <time>2021-07-29T13:36:18Z</time>
      </trkpt>
      <trkpt lat="49.48358" lon="1.69496">
        <ele>123.67</ele>
        <time>2021-07-29T13:36:31Z</time>
      </trkpt>
      <trkpt lat="49.48236" lon="1.68993">
        <ele>115.98</ele>
        <time>2021-07-29T13:36:50Z</time>
      </trkpt>
      <trkpt lat="49.48071" lon="1.68307">
        <ele>117.9</ele>
        <time>2021-07-29T13:37:15Z</time>
      </trkpt>
      <trkpt lat="49.47953" lon="1.67814">
        <ele>123.19</ele>
        <time>2021-07-29T13:37:33Z</time>
      </trkpt>
      <trkpt lat="49.47846" lon="1.67374">
        <ele>117.42</ele>
        <time>2021-07-29T13:37:48Z</time>
      </trkpt>
      <trkpt lat="49.47732" lon="1.66972">
        <ele>123.19</ele>
        <time>2021-07-29T13:38:02Z</time>
      </trkpt>
      <trkpt lat="49.47511" lon="1.66563">
        <ele>133.76</ele>
        <time>2021-07-29T13:38:18Z</time>
      </trkpt>
      <trkpt lat="49.47377" lon="1.66307">
        <ele>133.28</ele>
        <time>2021-07-29T13:38:30Z</time>
      </trkpt>
      <trkpt lat="49.4737" lon="1.66279">
        <ele>133.28</ele>
        <time>2021-07-29T13:38:31Z</time>
      </trkpt>
      <trkpt lat="49.47364" lon="1.66251">
        <ele>134.72</ele>
        <time>2021-07-29T13:38:32Z</time>
      </trkpt>
      <trkpt lat="49.47295" lon="1.65699">
        <ele>151.54</ele>
        <time>2021-07-29T13:38:51Z</time>
      </trkpt>
      <trkpt lat="49.47242" lon="1.65258">
        <ele>168.85</ele>
        <time>2021-07-29T13:39:06Z</time>
      </trkpt>
      <trkpt lat="49.47241" lon="1.65233">
        <ele>173.66</ele>
        <time>2021-07-29T13:39:08Z</time>
      </trkpt>
      <trkpt lat="49.47241" lon="1.65208">
        <ele>176.54</ele>
        <time>2021-07-29T13:39:09Z</time>
      </trkpt>
      <trkpt lat="49.47242" lon="1.65186">
        <ele>178.46</ele>
        <time>2021-07-29T13:39:10Z</time>
      </trkpt>
      <trkpt lat="49.47248" lon="1.65165">
        <ele>179.42</ele>
        <time>2021-07-29T13:39:11Z</time>
      </trkpt>
      <trkpt lat="49.47255" lon="1.65142">
        <ele>179.42</ele>
        <time>2021-07-29T13:39:12Z</time>
      </trkpt>
      <trkpt lat="49.47265" lon="1.65123">
        <ele>178.94</ele>
        <time>2021-07-29T13:39:13Z</time>
      </trkpt>
      <trkpt lat="49.47276" lon="1.65104">
        <ele>178.94</ele>
        <time>2021-07-29T13:39:14Z</time>
      </trkpt>
      <trkpt lat="49.47287" lon="1.65088">
        <ele>180.38</ele>
        <time>2021-07-29T13:39:15Z</time>
      </trkpt>
      <trkpt lat="49.47302" lon="1.65075">
        <ele>181.35</ele>
        <time>2021-07-29T13:39:16Z</time>
      </trkpt>
      <trkpt lat="49.47317" lon="1.65064">
        <ele>184.23</ele>
        <time>2021-07-29T13:39:17Z</time>
      </trkpt>
      <trkpt lat="49.47378" lon="1.65026">
        <ele>189.52</ele>
        <time>2021-07-29T13:39:21Z</time>
      </trkpt>
      <trkpt lat="49.47391" lon="1.65015">
        <ele>192.4</ele>
        <time>2021-07-29T13:39:22Z</time>
      </trkpt>
      <trkpt lat="49.47404" lon="1.65001">
        <ele>193.84</ele>
        <time>2021-07-29T13:39:23Z</time>
      </trkpt>
      <trkpt lat="49.47414" lon="1.64985">
        <ele>194.32</ele>
        <time>2021-07-29T13:39:24Z</time>
      </trkpt>
      <trkpt lat="49.47422" lon="1.64966">
        <ele>195.28</ele>
        <time>2021-07-29T13:39:25Z</time>
      </trkpt>
      <trkpt lat="49.47429" lon="1.64946">
        <ele>195.28</ele>
        <time>2021-07-29T13:39:26Z</time>
      </trkpt>
      <trkpt lat="49.47434" lon="1.64922">
        <ele>196.73</ele>
        <time>2021-07-29T13:39:27Z</time>
      </trkpt>
      <trkpt lat="49.47439" lon="1.64897">
        <ele>197.69</ele>
        <time>2021-07-29T13:39:28Z</time>
      </trkpt>
      <trkpt lat="49.47445" lon="1.64797">
        <ele>201.53</ele>
        <time>2021-07-29T13:39:32Z</time>
      </trkpt>
      <trkpt lat="49.47446" lon="1.64771">
        <ele>202.49</ele>
        <time>2021-07-29T13:39:33Z</time>
      </trkpt>
      <trkpt lat="49.47442" lon="1.64746">
        <ele>202.49</ele>
        <time>2021-07-29T13:39:34Z</time>
      </trkpt>
      <trkpt lat="49.47436" lon="1.64724">
        <ele>202.98</ele>
        <time>2021-07-29T13:39:35Z</time>
      </trkpt>
      <trkpt lat="49.47425" lon="1.64706">
        <ele>203.94</ele>
        <time>2021-07-29T13:39:36Z</time>
      </trkpt>
      <trkpt lat="49.47414" lon="1.64688">
        <ele>204.42</ele>
        <time>2021-07-29T13:39:37Z</time>
      </trkpt>
      <trkpt lat="49.47237" lon="1.64428">
        <ele>220.76</ele>
        <time>2021-07-29T13:39:51Z</time>
      </trkpt>
      <trkpt lat="49.47051" lon="1.64156">
        <ele>223.16</ele>
        <time>2021-07-29T13:40:04Z</time>
      </trkpt>
      <trkpt lat="49.46803" lon="1.63762">
        <ele>221.24</ele>
        <time>2021-07-29T13:40:20Z</time>
      </trkpt>
      <trkpt lat="49.46667" lon="1.63423">
        <ele>223.16</ele>
        <time>2021-07-29T13:40:35Z</time>
      </trkpt>
      <trkpt lat="49.46662" lon="1.63398">
        <ele>222.68</ele>
        <time>2021-07-29T13:40:36Z</time>
      </trkpt>
      <trkpt lat="49.46656" lon="1.63373">
        <ele>224.12</ele>
        <time>2021-07-29T13:40:37Z</time>
      </trkpt>
      <trkpt lat="49.46608" lon="1.62991">
        <ele>220.76</ele>
        <time>2021-07-29T13:40:52Z</time>
      </trkpt>
      <trkpt lat="49.46601" lon="1.6268">
        <ele>211.15</ele>
        <time>2021-07-29T13:41:03Z</time>
      </trkpt>
      <trkpt lat="49.46615" lon="1.62034">
        <ele>197.69</ele>
        <time>2021-07-29T13:41:24Z</time>
      </trkpt>
      <trkpt lat="49.46626" lon="1.61505">
        <ele>209.7</ele>
        <time>2021-07-29T13:41:42Z</time>
      </trkpt>
      <trkpt lat="49.46644" lon="1.61064">
        <ele>213.07</ele>
        <time>2021-07-29T13:41:56Z</time>
      </trkpt>
      <trkpt lat="49.4665" lon="1.60993">
        <ele>212.59</ele>
        <time>2021-07-29T13:42:02Z</time>
      </trkpt>
      <trkpt lat="49.46665" lon="1.60857">
        <ele>210.19</ele>
        <time>2021-07-29T13:42:12Z</time>
      </trkpt>
      <trkpt lat="49.46677" lon="1.60728">
        <ele>207.78</ele>
        <time>2021-07-29T13:42:24Z</time>
      </trkpt>
      <trkpt lat="49.46683" lon="1.60576">
        <ele>202.49</ele>
        <time>2021-07-29T13:42:31Z</time>
      </trkpt>
      <trkpt lat="49.46685" lon="1.60346">
        <ele>191.92</ele>
        <time>2021-07-29T13:42:40Z</time>
      </trkpt>
      <trkpt lat="49.46687" lon="1.60029">
        <ele>191.44</ele>
        <time>2021-07-29T13:42:51Z</time>
      </trkpt>
      <trkpt lat="49.46683" lon="1.59668">
        <ele>202.49</ele>
        <time>2021-07-29T13:43:03Z</time>
      </trkpt>
      <trkpt lat="49.46682" lon="1.59642">
        <ele>203.46</ele>
        <time>2021-07-29T13:43:05Z</time>
      </trkpt>
      <trkpt lat="49.46627" lon="1.59364">
        <ele>205.38</ele>
        <time>2021-07-29T13:43:15Z</time>
      </trkpt>
      <trkpt lat="49.46536" lon="1.58899">
        <ele>204.9</ele>
        <time>2021-07-29T13:43:31Z</time>
      </trkpt>
      <trkpt lat="49.46496" lon="1.58528">
        <ele>195.77</ele>
        <time>2021-07-29T13:43:43Z</time>
      </trkpt>
      <trkpt lat="49.46466" lon="1.58098">
        <ele>196.25</ele>
        <time>2021-07-29T13:43:58Z</time>
      </trkpt>
      <trkpt lat="49.46452" lon="1.57931">
        <ele>201.05</ele>
        <time>2021-07-29T13:44:06Z</time>
      </trkpt>
      <trkpt lat="49.46437" lon="1.57735">
        <ele>202.49</ele>
        <time>2021-07-29T13:44:15Z</time>
      </trkpt>
      <trkpt lat="49.46415" lon="1.57417">
        <ele>193.36</ele>
        <time>2021-07-29T13:44:26Z</time>
      </trkpt>
      <trkpt lat="49.46369" lon="1.56813">
        <ele>195.28</ele>
        <time>2021-07-29T13:44:45Z</time>
      </trkpt>
      <trkpt lat="49.46337" lon="1.56373">
        <ele>192.88</ele>
        <time>2021-07-29T13:45:01Z</time>
      </trkpt>
      <trkpt lat="49.46288" lon="1.55681">
        <ele>187.59</ele>
        <time>2021-07-29T13:45:22Z</time>
      </trkpt>
      <trkpt lat="49.4624" lon="1.55046">
        <ele>179.42</ele>
        <time>2021-07-29T13:45:41Z</time>
      </trkpt>
      <trkpt lat="49.46209" lon="1.54618">
        <ele>178.94</ele>
        <time>2021-07-29T13:45:56Z</time>
      </trkpt>
      <trkpt lat="49.46176" lon="1.54162">
        <ele>180.38</ele>
        <time>2021-07-29T13:46:12Z</time>
      </trkpt>
      <trkpt lat="49.46139" lon="1.53651">
        <ele>179.42</ele>
        <time>2021-07-29T13:46:30Z</time>
      </trkpt>
      <trkpt lat="49.46095" lon="1.53031">
        <ele>177.02</ele>
        <time>2021-07-29T13:46:52Z</time>
      </trkpt>
      <trkpt lat="49.46059" lon="1.52563">
        <ele>178.46</ele>
        <time>2021-07-29T13:47:09Z</time>
      </trkpt>
      <trkpt lat="49.46029" lon="1.52157">
        <ele>176.06</ele>
        <time>2021-07-29T13:47:24Z</time>
      </trkpt>
      <trkpt lat="49.46011" lon="1.51927">
        <ele>175.1</ele>
        <time>2021-07-29T13:47:37Z</time>
      </trkpt>
      <trkpt lat="49.45996" lon="1.5171">
        <ele>172.69</ele>
        <time>2021-07-29T13:47:51Z</time>
      </trkpt>
      <trkpt lat="49.45994" lon="1.51687">
        <ele>172.21</ele>
        <time>2021-07-29T13:47:56Z</time>
      </trkpt>
      <trkpt lat="49.45994" lon="1.51681">
        <ele>172.21</ele>
        <time>2021-07-29T13:47:57Z</time>
      </trkpt>
      <trkpt lat="49.45994" lon="1.51674">
        <ele>171.73</ele>
        <time>2021-07-29T13:47:58Z</time>
      </trkpt>
      <trkpt lat="49.45993" lon="1.51667">
        <ele>171.73</ele>
        <time>2021-07-29T13:47:59Z</time>
      </trkpt>
      <trkpt lat="49.45992" lon="1.51659">
        <ele>171.73</ele>
        <time>2021-07-29T13:48:00Z</time>
      </trkpt>
      <trkpt lat="49.45992" lon="1.51651">
        <ele>171.73</ele>
        <time>2021-07-29T13:48:01Z</time>
      </trkpt>
      <trkpt lat="49.45991" lon="1.51641">
        <ele>171.25</ele>
        <time>2021-07-29T13:48:02Z</time>
      </trkpt>
      <trkpt lat="49.4599" lon="1.51629">
        <ele>171.25</ele>
        <time>2021-07-29T13:48:03Z</time>
      </trkpt>
      <trkpt lat="49.4599" lon="1.51617">
        <ele>171.25</ele>
        <time>2021-07-29T13:48:04Z</time>
      </trkpt>
      <trkpt lat="49.45988" lon="1.51603">
        <ele>171.25</ele>
        <time>2021-07-29T13:48:05Z</time>
      </trkpt>
      <trkpt lat="49.45976" lon="1.51407">
        <ele>170.29</ele>
        <time>2021-07-29T13:48:16Z</time>
      </trkpt>
      <trkpt lat="49.45956" lon="1.51152">
        <ele>174.62</ele>
        <time>2021-07-29T13:48:29Z</time>
      </trkpt>
      <trkpt lat="49.45951" lon="1.51063">
        <ele>177.5</ele>
        <time>2021-07-29T13:48:33Z</time>
      </trkpt>
      <trkpt lat="49.45951" lon="1.51041">
        <ele>177.5</ele>
        <time>2021-07-29T13:48:34Z</time>
      </trkpt>
      <trkpt lat="49.45953" lon="1.51018">
        <ele>177.5</ele>
        <time>2021-07-29T13:48:35Z</time>
      </trkpt>
      <trkpt lat="49.46" lon="1.50721">
        <ele>178.46</ele>
        <time>2021-07-29T13:48:47Z</time>
      </trkpt>
      <trkpt lat="49.46038" lon="1.50361">
        <ele>179.9</ele>
        <time>2021-07-29T13:48:59Z</time>
      </trkpt>
      <trkpt lat="49.46056" lon="1.49846">
        <ele>175.58</ele>
        <time>2021-07-29T13:49:16Z</time>
      </trkpt>
      <trkpt lat="49.46076" lon="1.49274">
        <ele>169.33</ele>
        <time>2021-07-29T13:49:35Z</time>
      </trkpt>
      <trkpt lat="49.46084" lon="1.48751">
        <ele>160.2</ele>
        <time>2021-07-29T13:49:52Z</time>
      </trkpt>
      <trkpt lat="49.46103" lon="1.48447">
        <ele>159.24</ele>
        <time>2021-07-29T13:50:01Z</time>
      </trkpt>
      <trkpt lat="49.46188" lon="1.48054">
        <ele>163.56</ele>
        <time>2021-07-29T13:50:16Z</time>
      </trkpt>
      <trkpt lat="49.46311" lon="1.47534">
        <ele>163.08</ele>
        <time>2021-07-29T13:50:34Z</time>
      </trkpt>
      <trkpt lat="49.46397" lon="1.47145">
        <ele>168.37</ele>
        <time>2021-07-29T13:50:48Z</time>
      </trkpt>
      <trkpt lat="49.46387" lon="1.46848">
        <ele>169.33</ele>
        <time>2021-07-29T13:50:58Z</time>
      </trkpt>
      <trkpt lat="49.46406" lon="1.46298">
        <ele>166.45</ele>
        <time>2021-07-29T13:51:16Z</time>
      </trkpt>
      <trkpt lat="49.46455" lon="1.45803">
        <ele>169.81</ele>
        <time>2021-07-29T13:51:32Z</time>
      </trkpt>
      <trkpt lat="49.4653" lon="1.45088">
        <ele>169.33</ele>
        <time>2021-07-29T13:51:56Z</time>
      </trkpt>
      <trkpt lat="49.46567" lon="1.44721">
        <ele>169.81</ele>
        <time>2021-07-29T13:52:09Z</time>
      </trkpt>
      <trkpt lat="49.46601" lon="1.44405">
        <ele>169.81</ele>
        <time>2021-07-29T13:52:22Z</time>
      </trkpt>
      <trkpt lat="49.46632" lon="1.4411">
        <ele>169.33</ele>
        <time>2021-07-29T13:52:37Z</time>
      </trkpt>
      <trkpt lat="49.46635" lon="1.44048">
        <ele>169.33</ele>
        <time>2021-07-29T13:52:40Z</time>
      </trkpt>
      <trkpt lat="49.46632" lon="1.44029">
        <ele>168.85</ele>
        <time>2021-07-29T13:52:41Z</time>
      </trkpt>
      <trkpt lat="49.46628" lon="1.4401">
        <ele>168.37</ele>
        <time>2021-07-29T13:52:42Z</time>
      </trkpt>
      <trkpt lat="49.46625" lon="1.43991">
        <ele>168.85</ele>
        <time>2021-07-29T13:52:43Z</time>
      </trkpt>
      <trkpt lat="49.46619" lon="1.43974">
        <ele>168.37</ele>
        <time>2021-07-29T13:52:44Z</time>
      </trkpt>
      <trkpt lat="49.46505" lon="1.4364">
        <ele>164.04</ele>
        <time>2021-07-29T13:53:01Z</time>
      </trkpt>
      <trkpt lat="49.46394" lon="1.43314">
        <ele>165</ele>
        <time>2021-07-29T13:53:18Z</time>
      </trkpt>
      <trkpt lat="49.46307" lon="1.43048">
        <ele>162.6</ele>
        <time>2021-07-29T13:53:30Z</time>
      </trkpt>
      <trkpt lat="49.46175" lon="1.42663">
        <ele>154.91</ele>
        <time>2021-07-29T13:53:44Z</time>
      </trkpt>
      <trkpt lat="49.46049" lon="1.42319">
        <ele>152.51</ele>
        <time>2021-07-29T13:53:58Z</time>
      </trkpt>
      <trkpt lat="49.45952" lon="1.42138">
        <ele>142.41</ele>
        <time>2021-07-29T13:54:06Z</time>
      </trkpt>
      <trkpt lat="49.45942" lon="1.42112">
        <ele>140.97</ele>
        <time>2021-07-29T13:54:07Z</time>
      </trkpt>
      <trkpt lat="49.45934" lon="1.42085">
        <ele>140.49</ele>
        <time>2021-07-29T13:54:08Z</time>
      </trkpt>
      <trkpt lat="49.45887" lon="1.41762">
        <ele>128.47</ele>
        <time>2021-07-29T13:54:19Z</time>
      </trkpt>
      <trkpt lat="49.4582" lon="1.41114">
        <ele>102.52</ele>
        <time>2021-07-29T13:54:40Z</time>
      </trkpt>
      <trkpt lat="49.45822" lon="1.41086">
        <ele>101.08</ele>
        <time>2021-07-29T13:54:41Z</time>
      </trkpt>
      <trkpt lat="49.45831" lon="1.40942">
        <ele>95.79</ele>
        <time>2021-07-29T13:54:46Z</time>
      </trkpt>
      <trkpt lat="49.45833" lon="1.40913">
        <ele>93.87</ele>
        <time>2021-07-29T13:54:47Z</time>
      </trkpt>
      <trkpt lat="49.45828" lon="1.40884">
        <ele>91.46</ele>
        <time>2021-07-29T13:54:48Z</time>
      </trkpt>
      <trkpt lat="49.45824" lon="1.40856">
        <ele>89.06</ele>
        <time>2021-07-29T13:54:49Z</time>
      </trkpt>
      <trkpt lat="49.45819" lon="1.40829">
        <ele>87.62</ele>
        <time>2021-07-29T13:54:50Z</time>
      </trkpt>
      <trkpt lat="49.45759" lon="1.40535">
        <ele>78.97</ele>
        <time>2021-07-29T13:54:59Z</time>
      </trkpt>
      <trkpt lat="49.45744" lon="1.40264">
        <ele>84.73</ele>
        <time>2021-07-29T13:55:07Z</time>
      </trkpt>
      <trkpt lat="49.45713" lon="1.40019">
        <ele>88.58</ele>
        <time>2021-07-29T13:55:15Z</time>
      </trkpt>
      <trkpt lat="49.45626" lon="1.39816">
        <ele>87.14</ele>
        <time>2021-07-29T13:55:22Z</time>
      </trkpt>
      <trkpt lat="49.45526" lon="1.39583">
        <ele>74.16</ele>
        <time>2021-07-29T13:55:32Z</time>
      </trkpt>
      <trkpt lat="49.45506" lon="1.39369">
        <ele>70.31</ele>
        <time>2021-07-29T13:55:39Z</time>
      </trkpt>
      <trkpt lat="49.45515" lon="1.39184">
        <ele>65.03</ele>
        <time>2021-07-29T13:55:46Z</time>
      </trkpt>
      <trkpt lat="49.45521" lon="1.39115">
        <ele>63.1</ele>
        <time>2021-07-29T13:55:50Z</time>
      </trkpt>
      <trkpt lat="49.45524" lon="1.39103">
        <ele>62.62</ele>
        <time>2021-07-29T13:55:51Z</time>
      </trkpt>
      <trkpt lat="49.45527" lon="1.39091">
        <ele>62.14</ele>
        <time>2021-07-29T13:55:52Z</time>
      </trkpt>
      <trkpt lat="49.45535" lon="1.39069">
        <ele>61.66</ele>
        <time>2021-07-29T13:55:54Z</time>
      </trkpt>
      <trkpt lat="49.45536" lon="1.39063">
        <ele>61.66</ele>
        <time>2021-07-29T13:55:55Z</time>
      </trkpt>
      <trkpt lat="49.45531" lon="1.39049">
        <ele>61.66</ele>
        <time>2021-07-29T13:55:56Z</time>
      </trkpt>
      <trkpt lat="49.45529" lon="1.39037">
        <ele>61.66</ele>
        <time>2021-07-29T13:55:57Z</time>
      </trkpt>
      <trkpt lat="49.45528" lon="1.39026">
        <ele>61.66</ele>
        <time>2021-07-29T13:55:58Z</time>
      </trkpt>
      <trkpt lat="49.45527" lon="1.39012">
        <ele>62.14</ele>
        <time>2021-07-29T13:55:59Z</time>
      </trkpt>
      <trkpt lat="49.45526" lon="1.38997">
        <ele>62.14</ele>
        <time>2021-07-29T13:56:00Z</time>
      </trkpt>
      <trkpt lat="49.45526" lon="1.3898">
        <ele>61.66</ele>
        <time>2021-07-29T13:56:01Z</time>
      </trkpt>
      <trkpt lat="49.45518" lon="1.38808">
        <ele>58.3</ele>
        <time>2021-07-29T13:56:09Z</time>
      </trkpt>
      <trkpt lat="49.45465" lon="1.38612">
        <ele>57.82</ele>
        <time>2021-07-29T13:56:17Z</time>
      </trkpt>
      <trkpt lat="49.45321" lon="1.38374">
        <ele>54.93</ele>
        <time>2021-07-29T13:56:27Z</time>
      </trkpt>
      <trkpt lat="49.45103" lon="1.3803">
        <ele>56.86</ele>
        <time>2021-07-29T13:56:45Z</time>
      </trkpt>
      <trkpt lat="49.44886" lon="1.37692">
        <ele>58.3</ele>
        <time>2021-07-29T13:57:02Z</time>
      </trkpt>
      <trkpt lat="49.44746" lon="1.37438">
        <ele>59.26</ele>
        <time>2021-07-29T13:57:14Z</time>
      </trkpt>
      <trkpt lat="49.44695" lon="1.37227">
        <ele>69.35</ele>
        <time>2021-07-29T13:57:21Z</time>
      </trkpt>
      <trkpt lat="49.44683" lon="1.36987">
        <ele>83.77</ele>
        <time>2021-07-29T13:57:31Z</time>
      </trkpt>
      <trkpt lat="49.44667" lon="1.3643">
        <ele>114.53</ele>
        <time>2021-07-29T13:57:51Z</time>
      </trkpt>
      <trkpt lat="49.4466" lon="1.36032">
        <ele>133.28</ele>
        <time>2021-07-29T13:58:05Z</time>
      </trkpt>
      <trkpt lat="49.44676" lon="1.35834">
        <ele>133.28</ele>
        <time>2021-07-29T13:58:12Z</time>
      </trkpt>
      <trkpt lat="49.44778" lon="1.35367">
        <ele>133.28</ele>
        <time>2021-07-29T13:58:27Z</time>
      </trkpt>
      <trkpt lat="49.44883" lon="1.34891">
        <ele>138.09</ele>
        <time>2021-07-29T13:58:43Z</time>
      </trkpt>
      <trkpt lat="49.45026" lon="1.34248">
        <ele>138.09</ele>
        <time>2021-07-29T13:59:05Z</time>
      </trkpt>
      <trkpt lat="49.45129" lon="1.33784">
        <ele>140.49</ele>
        <time>2021-07-29T13:59:23Z</time>
      </trkpt>
      <trkpt lat="49.45261" lon="1.33187">
        <ele>147.22</ele>
        <time>2021-07-29T13:59:46Z</time>
      </trkpt>
      <trkpt lat="49.45397" lon="1.32579">
        <ele>149.62</ele>
        <time>2021-07-29T14:00:06Z</time>
      </trkpt>
      <trkpt lat="49.4554" lon="1.31944">
        <ele>153.47</ele>
        <time>2021-07-29T14:00:29Z</time>
      </trkpt>
      <trkpt lat="49.45673" lon="1.31343">
        <ele>154.43</ele>
        <time>2021-07-29T14:00:49Z</time>
      </trkpt>
      <trkpt lat="49.45779" lon="1.30863">
        <ele>158.27</ele>
        <time>2021-07-29T14:01:05Z</time>
      </trkpt>
      <trkpt lat="49.45919" lon="1.30231">
        <ele>155.87</ele>
        <time>2021-07-29T14:01:27Z</time>
      </trkpt>
      <trkpt lat="49.45962" lon="1.30034">
        <ele>153.47</ele>
        <time>2021-07-29T14:01:35Z</time>
      </trkpt>
      <trkpt lat="49.45996" lon="1.29934">
        <ele>149.62</ele>
        <time>2021-07-29T14:01:42Z</time>
      </trkpt>
      <trkpt lat="49.45999" lon="1.29926">
        <ele>149.62</ele>
        <time>2021-07-29T14:01:43Z</time>
      </trkpt>
      <trkpt lat="49.46005" lon="1.29924">
        <ele>149.62</ele>
        <time>2021-07-29T14:01:44Z</time>
      </trkpt>
      <trkpt lat="49.46011" lon="1.29916">
        <ele>150.1</ele>
        <time>2021-07-29T14:01:45Z</time>
      </trkpt>
      <trkpt lat="49.46015" lon="1.29909">
        <ele>149.62</ele>
        <time>2021-07-29T14:01:46Z</time>
      </trkpt>
      <trkpt lat="49.46014" lon="1.29901">
        <ele>150.1</ele>
        <time>2021-07-29T14:01:47Z</time>
      </trkpt>
      <trkpt lat="49.46014" lon="1.29889">
        <ele>150.1</ele>
        <time>2021-07-29T14:01:48Z</time>
      </trkpt>
      <trkpt lat="49.46016" lon="1.29879">
        <ele>150.1</ele>
        <time>2021-07-29T14:01:49Z</time>
      </trkpt>
      <trkpt lat="49.46018" lon="1.2987">
        <ele>150.1</ele>
        <time>2021-07-29T14:01:50Z</time>
      </trkpt>
      <trkpt lat="49.4602" lon="1.29859">
        <ele>150.1</ele>
        <time>2021-07-29T14:01:51Z</time>
      </trkpt>
      <trkpt lat="49.46021" lon="1.29847">
        <ele>150.1</ele>
        <time>2021-07-29T14:01:52Z</time>
      </trkpt>
      <trkpt lat="49.46021" lon="1.29836">
        <ele>150.1</ele>
        <time>2021-07-29T14:01:53Z</time>
      </trkpt>
      <trkpt lat="49.46021" lon="1.29824">
        <ele>150.1</ele>
        <time>2021-07-29T14:01:54Z</time>
      </trkpt>
      <trkpt lat="49.46021" lon="1.29811">
        <ele>150.58</ele>
        <time>2021-07-29T14:01:55Z</time>
      </trkpt>
      <trkpt lat="49.46019" lon="1.29743">
        <ele>152.03</ele>
        <time>2021-07-29T14:02:00Z</time>
      </trkpt>
      <trkpt lat="49.46019" lon="1.29715">
        <ele>151.06</ele>
        <time>2021-07-29T14:02:01Z</time>
      </trkpt>
      <trkpt lat="49.46019" lon="1.29715">
        <ele>150.1</ele>
        <time>2021-07-29T14:02:02Z</time>
      </trkpt>
      <trkpt lat="49.45988" lon="1.29519">
        <ele>150.1</ele>
        <time>2021-07-29T14:02:16Z</time>
      </trkpt>
      <trkpt lat="49.45988" lon="1.29505">
        <ele>150.58</ele>
        <time>2021-07-29T14:02:17Z</time>
      </trkpt>
      <trkpt lat="49.45987" lon="1.29493">
        <ele>151.06</ele>
        <time>2021-07-29T14:02:18Z</time>
      </trkpt>
      <trkpt lat="49.45992" lon="1.29472">
        <ele>151.06</ele>
        <time>2021-07-29T14:02:19Z</time>
      </trkpt>
      <trkpt lat="49.45992" lon="1.29472">
        <ele>151.06</ele>
        <time>2021-07-29T14:02:20Z</time>
      </trkpt>
      <trkpt lat="49.45995" lon="1.29459">
        <ele>151.06</ele>
        <time>2021-07-29T14:02:21Z</time>
      </trkpt>
      <trkpt lat="49.4602" lon="1.29319">
        <ele>151.06</ele>
        <time>2021-07-29T14:02:30Z</time>
      </trkpt>
      <trkpt lat="49.46024" lon="1.29196">
        <ele>151.54</ele>
        <time>2021-07-29T14:02:38Z</time>
      </trkpt>
      <trkpt lat="49.46024" lon="1.2918">
        <ele>151.06</ele>
        <time>2021-07-29T14:02:39Z</time>
      </trkpt>
      <trkpt lat="49.46023" lon="1.29167">
        <ele>151.06</ele>
        <time>2021-07-29T14:02:40Z</time>
      </trkpt>
      <trkpt lat="49.4602" lon="1.29154">
        <ele>150.1</ele>
        <time>2021-07-29T14:02:41Z</time>
      </trkpt>
      <trkpt lat="49.46017" lon="1.2914">
        <ele>149.62</ele>
        <time>2021-07-29T14:02:42Z</time>
      </trkpt>
      <trkpt lat="49.46006" lon="1.29081">
        <ele>149.14</ele>
        <time>2021-07-29T14:02:49Z</time>
      </trkpt>
      <trkpt lat="49.4601" lon="1.29068">
        <ele>149.14</ele>
        <time>2021-07-29T14:02:51Z</time>
      </trkpt>
      <trkpt lat="49.46009" lon="1.2906">
        <ele>149.14</ele>
        <time>2021-07-29T14:02:52Z</time>
      </trkpt>
      <trkpt lat="49.46009" lon="1.29057">
        <ele>149.14</ele>
        <time>2021-07-29T14:02:53Z</time>
      </trkpt>
      <trkpt lat="49.45998" lon="1.29045">
        <ele>148.66</ele>
        <time>2021-07-29T14:02:54Z</time>
      </trkpt>
      <trkpt lat="49.45998" lon="1.29037">
        <ele>148.66</ele>
        <time>2021-07-29T14:02:55Z</time>
      </trkpt>
      <trkpt lat="49.45998" lon="1.29027">
        <ele>148.66</ele>
        <time>2021-07-29T14:02:56Z</time>
      </trkpt>
      <trkpt lat="49.45998" lon="1.29015">
        <ele>148.66</ele>
        <time>2021-07-29T14:02:57Z</time>
      </trkpt>
      <trkpt lat="49.45998" lon="1.29003">
        <ele>148.66</ele>
        <time>2021-07-29T14:02:58Z</time>
      </trkpt>
      <trkpt lat="49.45998" lon="1.2899">
        <ele>148.66</ele>
        <time>2021-07-29T14:02:59Z</time>
      </trkpt>
      <trkpt lat="49.46004" lon="1.28914">
        <ele>149.14</ele>
        <time>2021-07-29T14:03:04Z</time>
      </trkpt>
      <trkpt lat="49.46058" lon="1.2871">
        <ele>149.14</ele>
        <time>2021-07-29T14:03:15Z</time>
      </trkpt>
      <trkpt lat="49.46061" lon="1.28692">
        <ele>149.14</ele>
        <time>2021-07-29T14:03:16Z</time>
      </trkpt>
      <trkpt lat="49.46064" lon="1.28672">
        <ele>149.62</ele>
        <time>2021-07-29T14:03:17Z</time>
      </trkpt>
      <trkpt lat="49.46079" lon="1.28416">
        <ele>149.62</ele>
        <time>2021-07-29T14:03:28Z</time>
      </trkpt>
      <trkpt lat="49.46103" lon="1.27964">
        <ele>153.95</ele>
        <time>2021-07-29T14:03:44Z</time>
      </trkpt>
      <trkpt lat="49.46144" lon="1.27215">
        <ele>153.47</ele>
        <time>2021-07-29T14:04:08Z</time>
      </trkpt>
      <trkpt lat="49.46161" lon="1.26838">
        <ele>149.14</ele>
        <time>2021-07-29T14:04:19Z</time>
      </trkpt>
      <trkpt lat="49.46159" lon="1.26805">
        <ele>148.66</ele>
        <time>2021-07-29T14:04:20Z</time>
      </trkpt>
      <trkpt lat="49.46117" lon="1.26422">
        <ele>150.1</ele>
        <time>2021-07-29T14:04:33Z</time>
      </trkpt>
      <trkpt lat="49.46146" lon="1.26187">
        <ele>153.47</ele>
        <time>2021-07-29T14:04:41Z</time>
      </trkpt>
      <trkpt lat="49.46199" lon="1.25841">
        <ele>158.75</ele>
        <time>2021-07-29T14:04:54Z</time>
      </trkpt>
      <trkpt lat="49.46213" lon="1.25743">
        <ele>157.31</ele>
        <time>2021-07-29T14:05:00Z</time>
      </trkpt>
      <trkpt lat="49.46218" lon="1.25723">
        <ele>156.83</ele>
        <time>2021-07-29T14:05:07Z</time>
      </trkpt>
      <trkpt lat="49.46222" lon="1.25688">
        <ele>156.35</ele>
        <time>2021-07-29T14:05:16Z</time>
      </trkpt>
      <trkpt lat="49.46225" lon="1.25671">
        <ele>155.87</ele>
        <time>2021-07-29T14:05:30Z</time>
      </trkpt>
      <trkpt lat="49.46225" lon="1.25671">
        <ele>155.39</ele>
        <time>2021-07-29T14:12:58Z</time>
      </trkpt>
      <trkpt lat="49.46227" lon="1.25655">
        <ele>155.39</ele>
        <time>2021-07-29T14:13:29Z</time>
      </trkpt>
      <trkpt lat="49.46228" lon="1.25644">
        <ele>155.39</ele>
        <time>2021-07-29T14:13:32Z</time>
      </trkpt>
      <trkpt lat="49.4623" lon="1.25631">
        <ele>155.39</ele>
        <time>2021-07-29T14:13:33Z</time>
      </trkpt>
      <trkpt lat="49.46232" lon="1.25623">
        <ele>154.91</ele>
        <time>2021-07-29T14:13:34Z</time>
      </trkpt>
      <trkpt lat="49.46247" lon="1.25528">
        <ele>151.06</ele>
        <time>2021-07-29T14:13:42Z</time>
      </trkpt>
      <trkpt lat="49.46275" lon="1.25331">
        <ele>147.7</ele>
        <time>2021-07-29T14:13:52Z</time>
      </trkpt>
      <trkpt lat="49.4632" lon="1.25026">
        <ele>147.7</ele>
        <time>2021-07-29T14:14:04Z</time>
      </trkpt>
      <trkpt lat="49.46365" lon="1.24662">
        <ele>152.99</ele>
        <time>2021-07-29T14:14:18Z</time>
      </trkpt>
      <trkpt lat="49.46339" lon="1.24367">
        <ele>150.1</ele>
        <time>2021-07-29T14:14:28Z</time>
      </trkpt>
      <trkpt lat="49.46275" lon="1.23723">
        <ele>149.62</ele>
        <time>2021-07-29T14:14:49Z</time>
      </trkpt>
      <trkpt lat="49.46214" lon="1.23119">
        <ele>142.89</ele>
        <time>2021-07-29T14:15:09Z</time>
      </trkpt>
      <trkpt lat="49.46191" lon="1.22891">
        <ele>140.97</ele>
        <time>2021-07-29T14:15:18Z</time>
      </trkpt>
      <trkpt lat="49.46182" lon="1.22791">
        <ele>139.53</ele>
        <time>2021-07-29T14:15:25Z</time>
      </trkpt>
      <trkpt lat="49.46181" lon="1.22779">
        <ele>139.05</ele>
        <time>2021-07-29T14:15:27Z</time>
      </trkpt>
      <trkpt lat="49.4618" lon="1.22774">
        <ele>139.53</ele>
        <time>2021-07-29T14:15:28Z</time>
      </trkpt>
      <trkpt lat="49.46191" lon="1.2276">
        <ele>139.53</ele>
        <time>2021-07-29T14:15:29Z</time>
      </trkpt>
      <trkpt lat="49.46191" lon="1.2276">
        <ele>139.53</ele>
        <time>2021-07-29T14:15:30Z</time>
      </trkpt>
      <trkpt lat="49.46192" lon="1.22752">
        <ele>139.53</ele>
        <time>2021-07-29T14:15:31Z</time>
      </trkpt>
      <trkpt lat="49.46185" lon="1.22732">
        <ele>139.53</ele>
        <time>2021-07-29T14:15:32Z</time>
      </trkpt>
      <trkpt lat="49.46185" lon="1.22731">
        <ele>139.05</ele>
        <time>2021-07-29T14:15:33Z</time>
      </trkpt>
      <trkpt lat="49.46166" lon="1.22731">
        <ele>139.05</ele>
        <time>2021-07-29T14:15:34Z</time>
      </trkpt>
      <trkpt lat="49.46166" lon="1.22731">
        <ele>139.05</ele>
        <time>2021-07-29T14:15:35Z</time>
      </trkpt>
      <trkpt lat="49.46161" lon="1.22723">
        <ele>139.53</ele>
        <time>2021-07-29T14:15:36Z</time>
      </trkpt>
      <trkpt lat="49.46155" lon="1.22713">
        <ele>140.01</ele>
        <time>2021-07-29T14:15:37Z</time>
      </trkpt>
      <trkpt lat="49.46144" lon="1.22691">
        <ele>140.01</ele>
        <time>2021-07-29T14:15:38Z</time>
      </trkpt>
      <trkpt lat="49.46077" lon="1.22571">
        <ele>143.85</ele>
        <time>2021-07-29T14:15:48Z</time>
      </trkpt>
      <trkpt lat="49.45936" lon="1.22325">
        <ele>149.62</ele>
        <time>2021-07-29T14:16:03Z</time>
      </trkpt>
      <trkpt lat="49.45755" lon="1.22002">
        <ele>155.39</ele>
        <time>2021-07-29T14:16:20Z</time>
      </trkpt>
      <trkpt lat="49.45577" lon="1.21688">
        <ele>163.56</ele>
        <time>2021-07-29T14:16:37Z</time>
      </trkpt>
      <trkpt lat="49.45488" lon="1.21533">
        <ele>164.04</ele>
        <time>2021-07-29T14:16:49Z</time>
      </trkpt>
      <trkpt lat="49.4535" lon="1.2131">
        <ele>160.68</ele>
        <time>2021-07-29T14:17:05Z</time>
      </trkpt>
      <trkpt lat="49.45184" lon="1.21041">
        <ele>159.24</ele>
        <time>2021-07-29T14:17:22Z</time>
      </trkpt>
      <trkpt lat="49.45046" lon="1.20819">
        <ele>156.35</ele>
        <time>2021-07-29T14:17:34Z</time>
      </trkpt>
      <trkpt lat="49.44808" lon="1.20445">
        <ele>160.68</ele>
        <time>2021-07-29T14:17:52Z</time>
      </trkpt>
      <trkpt lat="49.44677" lon="1.20308">
        <ele>159.24</ele>
        <time>2021-07-29T14:18:01Z</time>
      </trkpt>
      <trkpt lat="49.44664" lon="1.20293">
        <ele>158.75</ele>
        <time>2021-07-29T14:18:02Z</time>
      </trkpt>
      <trkpt lat="49.44652" lon="1.20274">
        <ele>158.27</ele>
        <time>2021-07-29T14:18:03Z</time>
      </trkpt>
      <trkpt lat="49.44531" lon="1.20048">
        <ele>152.99</ele>
        <time>2021-07-29T14:18:15Z</time>
      </trkpt>
      <trkpt lat="49.4439" lon="1.19836">
        <ele>144.82</ele>
        <time>2021-07-29T14:18:28Z</time>
      </trkpt>
      <trkpt lat="49.44381" lon="1.19817">
        <ele>144.34</ele>
        <time>2021-07-29T14:18:29Z</time>
      </trkpt>
      <trkpt lat="49.44373" lon="1.19797">
        <ele>143.85</ele>
        <time>2021-07-29T14:18:30Z</time>
      </trkpt>
      <trkpt lat="49.44366" lon="1.19774">
        <ele>143.85</ele>
        <time>2021-07-29T14:18:31Z</time>
      </trkpt>
      <trkpt lat="49.4436" lon="1.1975">
        <ele>143.85</ele>
        <time>2021-07-29T14:18:32Z</time>
      </trkpt>
      <trkpt lat="49.44282" lon="1.19376">
        <ele>147.7</ele>
        <time>2021-07-29T14:18:48Z</time>
      </trkpt>
      <trkpt lat="49.44257" lon="1.19281">
        <ele>148.18</ele>
        <time>2021-07-29T14:18:53Z</time>
      </trkpt>
      <trkpt lat="49.44253" lon="1.19267">
        <ele>148.18</ele>
        <time>2021-07-29T14:18:54Z</time>
      </trkpt>
      <trkpt lat="49.44255" lon="1.19249">
        <ele>148.66</ele>
        <time>2021-07-29T14:18:55Z</time>
      </trkpt>
      <trkpt lat="49.44253" lon="1.1923">
        <ele>148.66</ele>
        <time>2021-07-29T14:18:56Z</time>
      </trkpt>
      <trkpt lat="49.44249" lon="1.19221">
        <ele>148.66</ele>
        <time>2021-07-29T14:18:57Z</time>
      </trkpt>
      <trkpt lat="49.44241" lon="1.19203">
        <ele>148.66</ele>
        <time>2021-07-29T14:18:58Z</time>
      </trkpt>
      <trkpt lat="49.44239" lon="1.19187">
        <ele>149.14</ele>
        <time>2021-07-29T14:18:59Z</time>
      </trkpt>
      <trkpt lat="49.4422" lon="1.18974">
        <ele>148.66</ele>
        <time>2021-07-29T14:19:10Z</time>
      </trkpt>
      <trkpt lat="49.44183" lon="1.18673">
        <ele>145.78</ele>
        <time>2021-07-29T14:19:24Z</time>
      </trkpt>
      <trkpt lat="49.44168" lon="1.18426">
        <ele>140.97</ele>
        <time>2021-07-29T14:19:36Z</time>
      </trkpt>
      <trkpt lat="49.44183" lon="1.18171">
        <ele>137.61</ele>
        <time>2021-07-29T14:19:47Z</time>
      </trkpt>
      <trkpt lat="49.44184" lon="1.1793">
        <ele>135.68</ele>
        <time>2021-07-29T14:19:57Z</time>
      </trkpt>
      <trkpt lat="49.44197" lon="1.17753">
        <ele>136.16</ele>
        <time>2021-07-29T14:20:05Z</time>
      </trkpt>
      <trkpt lat="49.44202" lon="1.1774">
        <ele>136.16</ele>
        <time>2021-07-29T14:20:06Z</time>
      </trkpt>
      <trkpt lat="49.44208" lon="1.17728">
        <ele>135.68</ele>
        <time>2021-07-29T14:20:07Z</time>
      </trkpt>
      <trkpt lat="49.44214" lon="1.17718">
        <ele>136.16</ele>
        <time>2021-07-29T14:20:08Z</time>
      </trkpt>
      <trkpt lat="49.44225" lon="1.1771">
        <ele>136.16</ele>
        <time>2021-07-29T14:20:09Z</time>
      </trkpt>
      <trkpt lat="49.44236" lon="1.17702">
        <ele>136.16</ele>
        <time>2021-07-29T14:20:10Z</time>
      </trkpt>
      <trkpt lat="49.44247" lon="1.17694">
        <ele>135.2</ele>
        <time>2021-07-29T14:20:11Z</time>
      </trkpt>
      <trkpt lat="49.44366" lon="1.17624">
        <ele>127.51</ele>
        <time>2021-07-29T14:20:20Z</time>
      </trkpt>
      <trkpt lat="49.44471" lon="1.17567">
        <ele>119.82</ele>
        <time>2021-07-29T14:20:27Z</time>
      </trkpt>
      <trkpt lat="49.44483" lon="1.17555">
        <ele>119.34</ele>
        <time>2021-07-29T14:20:28Z</time>
      </trkpt>
      <trkpt lat="49.44495" lon="1.1754">
        <ele>118.38</ele>
        <time>2021-07-29T14:20:29Z</time>
      </trkpt>
      <trkpt lat="49.44504" lon="1.17522">
        <ele>117.9</ele>
        <time>2021-07-29T14:20:30Z</time>
      </trkpt>
      <trkpt lat="49.44509" lon="1.17501">
        <ele>116.94</ele>
        <time>2021-07-29T14:20:31Z</time>
      </trkpt>
      <trkpt lat="49.44512" lon="1.17478">
        <ele>116.46</ele>
        <time>2021-07-29T14:20:32Z</time>
      </trkpt>
      <trkpt lat="49.44514" lon="1.17455">
        <ele>115.98</ele>
        <time>2021-07-29T14:20:33Z</time>
      </trkpt>
      <trkpt lat="49.44523" lon="1.17385">
        <ele>112.61</ele>
        <time>2021-07-29T14:20:36Z</time>
      </trkpt>
      <trkpt lat="49.44528" lon="1.17362">
        <ele>112.13</ele>
        <time>2021-07-29T14:20:37Z</time>
      </trkpt>
      <trkpt lat="49.44535" lon="1.17341">
        <ele>111.65</ele>
        <time>2021-07-29T14:20:38Z</time>
      </trkpt>
      <trkpt lat="49.44543" lon="1.17322">
        <ele>110.69</ele>
        <time>2021-07-29T14:20:39Z</time>
      </trkpt>
      <trkpt lat="49.44554" lon="1.17308">
        <ele>110.21</ele>
        <time>2021-07-29T14:20:40Z</time>
      </trkpt>
      <trkpt lat="49.44566" lon="1.17293">
        <ele>109.73</ele>
        <time>2021-07-29T14:20:41Z</time>
      </trkpt>
      <trkpt lat="49.44592" lon="1.17264">
        <ele>107.32</ele>
        <time>2021-07-29T14:20:43Z</time>
      </trkpt>
      <trkpt lat="49.44603" lon="1.17246">
        <ele>105.4</ele>
        <time>2021-07-29T14:20:44Z</time>
      </trkpt>
      <trkpt lat="49.4461" lon="1.17229">
        <ele>103.48</ele>
        <time>2021-07-29T14:20:45Z</time>
      </trkpt>
      <trkpt lat="49.44614" lon="1.1721">
        <ele>102.04</ele>
        <time>2021-07-29T14:20:46Z</time>
      </trkpt>
      <trkpt lat="49.44618" lon="1.17191">
        <ele>102.04</ele>
        <time>2021-07-29T14:20:47Z</time>
      </trkpt>
      <trkpt lat="49.44619" lon="1.1717">
        <ele>102.04</ele>
        <time>2021-07-29T14:20:48Z</time>
      </trkpt>
      <trkpt lat="49.44616" lon="1.1715">
        <ele>102.04</ele>
        <time>2021-07-29T14:20:49Z</time>
      </trkpt>
      <trkpt lat="49.44609" lon="1.17133">
        <ele>101.56</ele>
        <time>2021-07-29T14:20:50Z</time>
      </trkpt>
      <trkpt lat="49.44601" lon="1.17118">
        <ele>102.04</ele>
        <time>2021-07-29T14:20:51Z</time>
      </trkpt>
      <trkpt lat="49.44591" lon="1.17103">
        <ele>101.56</ele>
        <time>2021-07-29T14:20:52Z</time>
      </trkpt>
      <trkpt lat="49.44485" lon="1.16947">
        <ele>94.35</ele>
        <time>2021-07-29T14:21:01Z</time>
      </trkpt>
      <trkpt lat="49.44395" lon="1.16728">
        <ele>86.66</ele>
        <time>2021-07-29T14:21:11Z</time>
      </trkpt>
      <trkpt lat="49.44318" lon="1.16452">
        <ele>79.45</ele>
        <time>2021-07-29T14:21:22Z</time>
      </trkpt>
      <trkpt lat="49.44248" lon="1.16172">
        <ele>72.72</ele>
        <time>2021-07-29T14:21:37Z</time>
      </trkpt>
      <trkpt lat="49.44225" lon="1.16009">
        <ele>63.58</ele>
        <time>2021-07-29T14:21:47Z</time>
      </trkpt>
      <trkpt lat="49.44225" lon="1.1599">
        <ele>62.62</ele>
        <time>2021-07-29T14:21:48Z</time>
      </trkpt>
      <trkpt lat="49.44227" lon="1.15972">
        <ele>61.66</ele>
        <time>2021-07-29T14:21:49Z</time>
      </trkpt>
      <trkpt lat="49.44231" lon="1.15953">
        <ele>61.66</ele>
        <time>2021-07-29T14:21:50Z</time>
      </trkpt>
      <trkpt lat="49.4424" lon="1.15913">
        <ele>61.66</ele>
        <time>2021-07-29T14:21:51Z</time>
      </trkpt>
      <trkpt lat="49.4424" lon="1.15913">
        <ele>62.14</ele>
        <time>2021-07-29T14:21:52Z</time>
      </trkpt>
      <trkpt lat="49.44305" lon="1.15711">
        <ele>55.41</ele>
        <time>2021-07-29T14:22:03Z</time>
      </trkpt>
      <trkpt lat="49.44319" lon="1.15684">
        <ele>54.45</ele>
        <time>2021-07-29T14:22:04Z</time>
      </trkpt>
      <trkpt lat="49.44319" lon="1.15684">
        <ele>53.97</ele>
        <time>2021-07-29T14:22:05Z</time>
      </trkpt>
      <trkpt lat="49.44329" lon="1.15672">
        <ele>53.97</ele>
        <time>2021-07-29T14:22:06Z</time>
      </trkpt>
      <trkpt lat="49.44339" lon="1.15659">
        <ele>53.49</ele>
        <time>2021-07-29T14:22:07Z</time>
      </trkpt>
      <trkpt lat="49.44415" lon="1.15589">
        <ele>49.16</ele>
        <time>2021-07-29T14:22:14Z</time>
      </trkpt>
      <trkpt lat="49.44425" lon="1.15576">
        <ele>48.2</ele>
        <time>2021-07-29T14:22:15Z</time>
      </trkpt>
      <trkpt lat="49.44469" lon="1.15482">
        <ele>42.92</ele>
        <time>2021-07-29T14:22:21Z</time>
      </trkpt>
      <trkpt lat="49.44475" lon="1.15466">
        <ele>42.44</ele>
        <time>2021-07-29T14:22:22Z</time>
      </trkpt>
      <trkpt lat="49.4448" lon="1.15446">
        <ele>41.47</ele>
        <time>2021-07-29T14:22:23Z</time>
      </trkpt>
      <trkpt lat="49.44482" lon="1.15425">
        <ele>41.47</ele>
        <time>2021-07-29T14:22:24Z</time>
      </trkpt>
      <trkpt lat="49.44479" lon="1.15405">
        <ele>41.95</ele>
        <time>2021-07-29T14:22:25Z</time>
      </trkpt>
      <trkpt lat="49.44476" lon="1.15387">
        <ele>41.47</ele>
        <time>2021-07-29T14:22:26Z</time>
      </trkpt>
      <trkpt lat="49.44467" lon="1.15368">
        <ele>40.99</ele>
        <time>2021-07-29T14:22:27Z</time>
      </trkpt>
      <trkpt lat="49.44449" lon="1.15343">
        <ele>40.03</ele>
        <time>2021-07-29T14:22:28Z</time>
      </trkpt>
      <trkpt lat="49.44449" lon="1.15343">
        <ele>39.07</ele>
        <time>2021-07-29T14:22:29Z</time>
      </trkpt>
      <trkpt lat="49.44437" lon="1.15333">
        <ele>37.63</ele>
        <time>2021-07-29T14:22:30Z</time>
      </trkpt>
      <trkpt lat="49.44424" lon="1.15322">
        <ele>37.15</ele>
        <time>2021-07-29T14:22:31Z</time>
      </trkpt>
      <trkpt lat="49.4423" lon="1.15189">
        <ele>35.71</ele>
        <time>2021-07-29T14:22:45Z</time>
      </trkpt>
      <trkpt lat="49.44003" lon="1.15046">
        <ele>31.86</ele>
        <time>2021-07-29T14:23:01Z</time>
      </trkpt>
      <trkpt lat="49.43896" lon="1.14993">
        <ele>28.02</ele>
        <time>2021-07-29T14:23:09Z</time>
      </trkpt>
      <trkpt lat="49.43847" lon="1.14974">
        <ele>24.17</ele>
        <time>2021-07-29T14:23:14Z</time>
      </trkpt>
      <trkpt lat="49.43837" lon="1.14966">
        <ele>24.17</ele>
        <time>2021-07-29T14:23:15Z</time>
      </trkpt>
      <trkpt lat="49.43828" lon="1.14958">
        <ele>23.21</ele>
        <time>2021-07-29T14:23:16Z</time>
      </trkpt>
      <trkpt lat="49.4382" lon="1.14948">
        <ele>21.77</ele>
        <time>2021-07-29T14:23:17Z</time>
      </trkpt>
      <trkpt lat="49.43812" lon="1.14935">
        <ele>20.81</ele>
        <time>2021-07-29T14:23:18Z</time>
      </trkpt>
      <trkpt lat="49.43804" lon="1.14922">
        <ele>18.4</ele>
        <time>2021-07-29T14:23:19Z</time>
      </trkpt>
      <trkpt lat="49.43799" lon="1.14907">
        <ele>16</ele>
        <time>2021-07-29T14:23:20Z</time>
      </trkpt>
      <trkpt lat="49.43796" lon="1.14892">
        <ele>16</ele>
        <time>2021-07-29T14:23:21Z</time>
      </trkpt>
      <trkpt lat="49.43795" lon="1.14884">
        <ele>16</ele>
        <time>2021-07-29T14:23:22Z</time>
      </trkpt>
      <trkpt lat="49.43794" lon="1.14879">
        <ele>16.48</ele>
        <time>2021-07-29T14:23:23Z</time>
      </trkpt>
      <trkpt lat="49.43794" lon="1.14879">
        <ele>16.48</ele>
        <time>2021-07-29T14:23:42Z</time>
      </trkpt>
      <trkpt lat="49.4379" lon="1.1486">
        <ele>16.48</ele>
        <time>2021-07-29T14:23:51Z</time>
      </trkpt>
      <trkpt lat="49.4379" lon="1.14855">
        <ele>16</ele>
        <time>2021-07-29T14:23:52Z</time>
      </trkpt>
      <trkpt lat="49.43794" lon="1.14828">
        <ele>15.52</ele>
        <time>2021-07-29T14:23:55Z</time>
      </trkpt>
      <trkpt lat="49.438" lon="1.14775">
        <ele>13.12</ele>
        <time>2021-07-29T14:24:02Z</time>
      </trkpt>
      <trkpt lat="49.43803" lon="1.14751">
        <ele>12.15</ele>
        <time>2021-07-29T14:24:49Z</time>
      </trkpt>
      <trkpt lat="49.43805" lon="1.14626">
        <ele>12.15</ele>
        <time>2021-07-29T14:24:57Z</time>
      </trkpt>
      <trkpt lat="49.43781" lon="1.14429">
        <ele>11.67</ele>
        <time>2021-07-29T14:25:09Z</time>
      </trkpt>
      <trkpt lat="49.43778" lon="1.14413">
        <ele>11.67</ele>
        <time>2021-07-29T14:25:17Z</time>
      </trkpt>
      <trkpt lat="49.4377" lon="1.14376">
        <ele>11.67</ele>
        <time>2021-07-29T14:25:42Z</time>
      </trkpt>
      <trkpt lat="49.43742" lon="1.14293">
        <ele>11.19</ele>
        <time>2021-07-29T14:25:51Z</time>
      </trkpt>
      <trkpt lat="49.43737" lon="1.14284">
        <ele>11.19</ele>
        <time>2021-07-29T14:25:52Z</time>
      </trkpt>
      <trkpt lat="49.43731" lon="1.14276">
        <ele>11.19</ele>
        <time>2021-07-29T14:25:53Z</time>
      </trkpt>
      <trkpt lat="49.43724" lon="1.14267">
        <ele>12.15</ele>
        <time>2021-07-29T14:25:54Z</time>
      </trkpt>
      <trkpt lat="49.43707" lon="1.1425">
        <ele>11.67</ele>
        <time>2021-07-29T14:25:55Z</time>
      </trkpt>
      <trkpt lat="49.43648" lon="1.14187">
        <ele>10.23</ele>
        <time>2021-07-29T14:26:05Z</time>
      </trkpt>
      <trkpt lat="49.43648" lon="1.14187">
        <ele>11.19</ele>
        <time>2021-07-29T14:26:20Z</time>
      </trkpt>
      <trkpt lat="49.43628" lon="1.1415">
        <ele>10.71</ele>
        <time>2021-07-29T14:26:44Z</time>
      </trkpt>
      <trkpt lat="49.43623" lon="1.14141">
        <ele>9.75</ele>
        <time>2021-07-29T14:26:46Z</time>
      </trkpt>
      <trkpt lat="49.43618" lon="1.1411">
        <ele>8.79</ele>
        <time>2021-07-29T14:26:47Z</time>
      </trkpt>
      <trkpt lat="49.43615" lon="1.14093">
        <ele>7.35</ele>
        <time>2021-07-29T14:26:48Z</time>
      </trkpt>
      <trkpt lat="49.43615" lon="1.14093">
        <ele>7.35</ele>
        <time>2021-07-29T14:26:49Z</time>
      </trkpt>
      <trkpt lat="49.43612" lon="1.14076">
        <ele>7.35</ele>
        <time>2021-07-29T14:26:50Z</time>
      </trkpt>
      <trkpt lat="49.4361" lon="1.14059">
        <ele>7.35</ele>
        <time>2021-07-29T14:26:51Z</time>
      </trkpt>
      <trkpt lat="49.43611" lon="1.14042">
        <ele>7.35</ele>
        <time>2021-07-29T14:26:52Z</time>
      </trkpt>
      <trkpt lat="49.43631" lon="1.1378">
        <ele>6.39</ele>
        <time>2021-07-29T14:27:06Z</time>
      </trkpt>
      <trkpt lat="49.43643" lon="1.13539">
        <ele>5.42</ele>
        <time>2021-07-29T14:27:19Z</time>
      </trkpt>
      <trkpt lat="49.43668" lon="1.13206">
        <ele>3.98</ele>
        <time>2021-07-29T14:27:34Z</time>
      </trkpt>
      <trkpt lat="49.43681" lon="1.1294">
        <ele>3.5</ele>
        <time>2021-07-29T14:27:47Z</time>
      </trkpt>
      <trkpt lat="49.43685" lon="1.12864">
        <ele>3.5</ele>
        <time>2021-07-29T14:27:55Z</time>
      </trkpt>
      <trkpt lat="49.43686" lon="1.12764">
        <ele>3.02</ele>
        <time>2021-07-29T14:28:04Z</time>
      </trkpt>
      <trkpt lat="49.43685" lon="1.12661">
        <ele>2.54</ele>
        <time>2021-07-29T14:28:13Z</time>
      </trkpt>
      <trkpt lat="49.43693" lon="1.12562">
        <ele>3.02</ele>
        <time>2021-07-29T14:28:22Z</time>
      </trkpt>
      <trkpt lat="49.43722" lon="1.12483">
        <ele>2.54</ele>
        <time>2021-07-29T14:28:30Z</time>
      </trkpt>
      <trkpt lat="49.43767" lon="1.12425">
        <ele>0.14</ele>
        <time>2021-07-29T14:28:38Z</time>
      </trkpt>
      <trkpt lat="49.43804" lon="1.12387">
        <ele>0.14</ele>
        <time>2021-07-29T14:28:42Z</time>
      </trkpt>
      <trkpt lat="49.43812" lon="1.12376">
        <ele>-0.34</ele>
        <time>2021-07-29T14:28:43Z</time>
      </trkpt>
      <trkpt lat="49.4382" lon="1.12365">
        <ele>-0.82</ele>
        <time>2021-07-29T14:28:44Z</time>
      </trkpt>
      <trkpt lat="49.43835" lon="1.1234">
        <ele>-0.82</ele>
        <time>2021-07-29T14:28:45Z</time>
      </trkpt>
      <trkpt lat="49.43835" lon="1.1234">
        <ele>-0.34</ele>
        <time>2021-07-29T14:28:46Z</time>
      </trkpt>
      <trkpt lat="49.4384" lon="1.12323">
        <ele>0.14</ele>
        <time>2021-07-29T14:28:47Z</time>
      </trkpt>
      <trkpt lat="49.43841" lon="1.12305">
        <ele>0.14</ele>
        <time>2021-07-29T14:28:48Z</time>
      </trkpt>
      <trkpt lat="49.43843" lon="1.12286">
        <ele>0.62</ele>
        <time>2021-07-29T14:28:49Z</time>
      </trkpt>
      <trkpt lat="49.43845" lon="1.12268">
        <ele>1.1</ele>
        <time>2021-07-29T14:28:50Z</time>
      </trkpt>
      <trkpt lat="49.43863" lon="1.12125">
        <ele>3.02</ele>
        <time>2021-07-29T14:28:58Z</time>
      </trkpt>
      <trkpt lat="49.4389" lon="1.11931">
        <ele>3.5</ele>
        <time>2021-07-29T14:29:07Z</time>
      </trkpt>
      <trkpt lat="49.43893" lon="1.11619">
        <ele>3.5</ele>
        <time>2021-07-29T14:29:20Z</time>
      </trkpt>
      <trkpt lat="49.43896" lon="1.11363">
        <ele>8.79</ele>
        <time>2021-07-29T14:29:31Z</time>
      </trkpt>
      <trkpt lat="49.4389" lon="1.11326">
        <ele>9.75</ele>
        <time>2021-07-29T14:29:33Z</time>
      </trkpt>
      <trkpt lat="49.43884" lon="1.11308">
        <ele>10.23</ele>
        <time>2021-07-29T14:29:34Z</time>
      </trkpt>
      <trkpt lat="49.43874" lon="1.11273">
        <ele>10.71</ele>
        <time>2021-07-29T14:29:35Z</time>
      </trkpt>
      <trkpt lat="49.43869" lon="1.11257">
        <ele>11.19</ele>
        <time>2021-07-29T14:29:36Z</time>
      </trkpt>
      <trkpt lat="49.43862" lon="1.11242">
        <ele>12.15</ele>
        <time>2021-07-29T14:29:37Z</time>
      </trkpt>
      <trkpt lat="49.43853" lon="1.11227">
        <ele>12.15</ele>
        <time>2021-07-29T14:29:38Z</time>
      </trkpt>
      <trkpt lat="49.43776" lon="1.11115">
        <ele>12.63</ele>
        <time>2021-07-29T14:29:47Z</time>
      </trkpt>
      <trkpt lat="49.43697" lon="1.10943">
        <ele>8.79</ele>
        <time>2021-07-29T14:29:56Z</time>
      </trkpt>
      <trkpt lat="49.43593" lon="1.106">
        <ele>18.88</ele>
        <time>2021-07-29T14:30:11Z</time>
      </trkpt>
      <trkpt lat="49.43589" lon="1.10577">
        <ele>11.19</ele>
        <time>2021-07-29T14:30:17Z</time>
      </trkpt>
      <trkpt lat="49.43586" lon="1.10569">
        <ele>12.15</ele>
        <time>2021-07-29T14:30:18Z</time>
      </trkpt>
      <trkpt lat="49.43583" lon="1.10562">
        <ele>12.63</ele>
        <time>2021-07-29T14:30:19Z</time>
      </trkpt>
      <trkpt lat="49.43581" lon="1.10556">
        <ele>12.63</ele>
        <time>2021-07-29T14:30:20Z</time>
      </trkpt>
      <trkpt lat="49.43575" lon="1.10545">
        <ele>13.12</ele>
        <time>2021-07-29T14:30:21Z</time>
      </trkpt>
      <trkpt lat="49.43575" lon="1.10545">
        <ele>13.12</ele>
        <time>2021-07-29T14:30:22Z</time>
      </trkpt>
      <trkpt lat="49.4357" lon="1.1054">
        <ele>13.6</ele>
        <time>2021-07-29T14:30:23Z</time>
      </trkpt>
      <trkpt lat="49.43555" lon="1.10523">
        <ele>16</ele>
        <time>2021-07-29T14:30:31Z</time>
      </trkpt>
      <trkpt lat="49.4355" lon="1.10519">
        <ele>15.52</ele>
        <time>2021-07-29T14:30:48Z</time>
      </trkpt>
      <trkpt lat="49.43544" lon="1.10512">
        <ele>15.04</ele>
        <time>2021-07-29T14:31:30Z</time>
      </trkpt>
      <trkpt lat="49.43541" lon="1.10509">
        <ele>15.04</ele>
        <time>2021-07-29T14:31:31Z</time>
      </trkpt>
      <trkpt lat="49.43537" lon="1.10505">
        <ele>14.56</ele>
        <time>2021-07-29T14:31:32Z</time>
      </trkpt>
      <trkpt lat="49.43533" lon="1.10501">
        <ele>14.56</ele>
        <time>2021-07-29T14:31:33Z</time>
      </trkpt>
      <trkpt lat="49.43529" lon="1.10496">
        <ele>14.56</ele>
        <time>2021-07-29T14:31:34Z</time>
      </trkpt>
      <trkpt lat="49.43526" lon="1.10489">
        <ele>14.08</ele>
        <time>2021-07-29T14:31:35Z</time>
      </trkpt>
      <trkpt lat="49.43519" lon="1.10479">
        <ele>13.12</ele>
        <time>2021-07-29T14:31:36Z</time>
      </trkpt>
      <trkpt lat="49.4352" lon="1.1047">
        <ele>12.15</ele>
        <time>2021-07-29T14:31:37Z</time>
      </trkpt>
      <trkpt lat="49.43521" lon="1.10459">
        <ele>12.15</ele>
        <time>2021-07-29T14:31:38Z</time>
      </trkpt>
      <trkpt lat="49.43548" lon="1.10337">
        <ele>7.35</ele>
        <time>2021-07-29T14:31:46Z</time>
      </trkpt>
      <trkpt lat="49.43615" lon="1.10107">
        <ele>3.98</ele>
        <time>2021-07-29T14:31:58Z</time>
      </trkpt>
      <trkpt lat="49.43627" lon="1.10076">
        <ele>3.5</ele>
        <time>2021-07-29T14:32:00Z</time>
      </trkpt>
      <trkpt lat="49.4363" lon="1.10062">
        <ele>2.54</ele>
        <time>2021-07-29T14:32:01Z</time>
      </trkpt>
      <trkpt lat="49.43684" lon="1.09841">
        <ele>2.06</ele>
        <time>2021-07-29T14:32:14Z</time>
      </trkpt>
      <trkpt lat="49.4371" lon="1.09719">
        <ele>2.54</ele>
        <time>2021-07-29T14:32:23Z</time>
      </trkpt>
      <trkpt lat="49.43716" lon="1.09692">
        <ele>3.5</ele>
        <time>2021-07-29T14:32:30Z</time>
      </trkpt>
      <trkpt lat="49.43723" lon="1.09659">
        <ele>3.98</ele>
        <time>2021-07-29T14:33:12Z</time>
      </trkpt>
      <trkpt lat="49.43745" lon="1.0955">
        <ele>3.98</ele>
        <time>2021-07-29T14:33:21Z</time>
      </trkpt>
      <trkpt lat="49.43788" lon="1.09341">
        <ele>2.06</ele>
        <time>2021-07-29T14:33:35Z</time>
      </trkpt>
      <trkpt lat="49.43819" lon="1.09216">
        <ele>3.02</ele>
        <time>2021-07-29T14:33:49Z</time>
      </trkpt>
      <trkpt lat="49.43821" lon="1.09207">
        <ele>3.5</ele>
        <time>2021-07-29T14:33:50Z</time>
      </trkpt>
      <trkpt lat="49.43822" lon="1.09199">
        <ele>3.5</ele>
        <time>2021-07-29T14:33:51Z</time>
      </trkpt>
      <trkpt lat="49.43824" lon="1.09193">
        <ele>3.5</ele>
        <time>2021-07-29T14:33:52Z</time>
      </trkpt>
      <trkpt lat="49.43817" lon="1.09187">
        <ele>3.98</ele>
        <time>2021-07-29T14:33:53Z</time>
      </trkpt>
      <trkpt lat="49.43812" lon="1.09184">
        <ele>3.98</ele>
        <time>2021-07-29T14:33:54Z</time>
      </trkpt>
      <trkpt lat="49.43808" lon="1.09181">
        <ele>4.46</ele>
        <time>2021-07-29T14:33:55Z</time>
      </trkpt>
      <trkpt lat="49.43714" lon="1.09117">
        <ele>8.79</ele>
        <time>2021-07-29T14:34:11Z</time>
      </trkpt>
      <trkpt lat="49.43625" lon="1.09055">
        <ele>8.79</ele>
        <time>2021-07-29T14:34:26Z</time>
      </trkpt>
      <trkpt lat="49.43611" lon="1.09045">
        <ele>9.75</ele>
        <time>2021-07-29T14:34:35Z</time>
      </trkpt>
      <trkpt lat="49.43603" lon="1.09039">
        <ele>10.23</ele>
        <time>2021-07-29T14:35:12Z</time>
      </trkpt>
      <trkpt lat="49.43601" lon="1.09037">
        <ele>10.23</ele>
        <time>2021-07-29T14:35:13Z</time>
      </trkpt>
      <trkpt lat="49.43602" lon="1.09034">
        <ele>10.23</ele>
        <time>2021-07-29T14:35:14Z</time>
      </trkpt>
      <trkpt lat="49.43604" lon="1.09028">
        <ele>10.23</ele>
        <time>2021-07-29T14:35:15Z</time>
      </trkpt>
      <trkpt lat="49.43606" lon="1.09022">
        <ele>10.23</ele>
        <time>2021-07-29T14:35:16Z</time>
      </trkpt>
      <trkpt lat="49.4361" lon="1.09007">
        <ele>9.75</ele>
        <time>2021-07-29T14:35:17Z</time>
      </trkpt>
      <trkpt lat="49.43637" lon="1.0892">
        <ele>7.83</ele>
        <time>2021-07-29T14:35:26Z</time>
      </trkpt>
      <trkpt lat="49.43662" lon="1.08838">
        <ele>7.35</ele>
        <time>2021-07-29T14:35:37Z</time>
      </trkpt>
      <trkpt lat="49.43663" lon="1.08834">
        <ele>7.35</ele>
        <time>2021-07-29T14:35:51Z</time>
      </trkpt>
      <trkpt lat="49.43672" lon="1.08801">
        <ele>7.35</ele>
        <time>2021-07-29T14:36:04Z</time>
      </trkpt>
      <trkpt lat="49.43684" lon="1.08764">
        <ele>7.35</ele>
        <time>2021-07-29T14:36:10Z</time>
      </trkpt>
      <trkpt lat="49.43688" lon="1.08753">
        <ele>7.83</ele>
        <time>2021-07-29T14:36:11Z</time>
      </trkpt>
      <trkpt lat="49.43694" lon="1.08745">
        <ele>7.83</ele>
        <time>2021-07-29T14:36:12Z</time>
      </trkpt>
      <trkpt lat="49.43694" lon="1.08745">
        <ele>7.35</ele>
        <time>2021-07-29T14:36:13Z</time>
      </trkpt>
      <trkpt lat="49.43701" lon="1.08751">
        <ele>7.35</ele>
        <time>2021-07-29T14:36:14Z</time>
      </trkpt>
      <trkpt lat="49.43701" lon="1.08751">
        <ele>7.35</ele>
        <time>2021-07-29T14:36:15Z</time>
      </trkpt>
      <trkpt lat="49.43779" lon="1.08798">
        <ele>9.75</ele>
        <time>2021-07-29T14:36:28Z</time>
      </trkpt>
      <trkpt lat="49.438" lon="1.0881">
        <ele>10.23</ele>
        <time>2021-07-29T14:36:36Z</time>
      </trkpt>
      <trkpt lat="49.43819" lon="1.08821">
        <ele>9.75</ele>
        <time>2021-07-29T14:37:04Z</time>
      </trkpt>
      <trkpt lat="49.43852" lon="1.08841">
        <ele>8.79</ele>
        <time>2021-07-29T14:37:14Z</time>
      </trkpt>
      <trkpt lat="49.43881" lon="1.08857">
        <ele>7.83</ele>
        <time>2021-07-29T14:37:25Z</time>
      </trkpt>
      <trkpt lat="49.43941" lon="1.08893">
        <ele>6.39</ele>
        <time>2021-07-29T14:37:39Z</time>
      </trkpt>
      <trkpt lat="49.43986" lon="1.08921">
        <ele>4.94</ele>
        <time>2021-07-29T14:37:51Z</time>
      </trkpt>
      <trkpt lat="49.43987" lon="1.08922">
        <ele>5.42</ele>
        <time>2021-07-29T14:38:08Z</time>
      </trkpt>
      <trkpt lat="49.44009" lon="1.08936">
        <ele>5.91</ele>
        <time>2021-07-29T14:38:22Z</time>
      </trkpt>
      <trkpt lat="49.44009" lon="1.08936">
        <ele>6.39</ele>
        <time>2021-07-29T14:38:26Z</time>
      </trkpt>
      <trkpt lat="49.44013" lon="1.08939">
        <ele>6.39</ele>
        <time>2021-07-29T14:38:27Z</time>
      </trkpt>
      <trkpt lat="49.44026" lon="1.08949">
        <ele>6.39</ele>
        <time>2021-07-29T14:38:31Z</time>
      </trkpt>
      <trkpt lat="49.4411" lon="1.09001">
        <ele>6.87</ele>
        <time>2021-07-29T14:38:44Z</time>
      </trkpt>
      <trkpt lat="49.44158" lon="1.09029">
        <ele>5.91</ele>
        <time>2021-07-29T14:38:55Z</time>
      </trkpt>
      <trkpt lat="49.44171" lon="1.09036">
        <ele>6.87</ele>
        <time>2021-07-29T14:39:14Z</time>
      </trkpt>
      <trkpt lat="49.44179" lon="1.09041">
        <ele>7.35</ele>
        <time>2021-07-29T14:39:16Z</time>
      </trkpt>
      <trkpt lat="49.44183" lon="1.09044">
        <ele>7.35</ele>
        <time>2021-07-29T14:39:17Z</time>
      </trkpt>
      <trkpt lat="49.44211" lon="1.0906">
        <ele>6.39</ele>
        <time>2021-07-29T14:39:22Z</time>
      </trkpt>
      <trkpt lat="49.4422" lon="1.09066">
        <ele>5.91</ele>
        <time>2021-07-29T14:39:24Z</time>
      </trkpt>
      <trkpt lat="49.44225" lon="1.09069">
        <ele>6.39</ele>
        <time>2021-07-29T14:39:25Z</time>
      </trkpt>
      <trkpt lat="49.44234" lon="1.09074">
        <ele>6.87</ele>
        <time>2021-07-29T14:39:27Z</time>
      </trkpt>
    </trkseg>
  </trk>
  <trk>
    <name><![CDATA[Journal actif: 2021-07-29 12:39]]></name>
    <trkseg>
      <trkpt lat="49.44268" lon="1.09094">
        <ele>7.35</ele>
        <time>2021-07-29T14:39:34Z</time>
      </trkpt>
      <trkpt lat="49.44337" lon="1.09135">
        <ele>7.83</ele>
        <time>2021-07-29T14:39:48Z</time>
      </trkpt>
      <trkpt lat="49.44389" lon="1.09166">
        <ele>9.27</ele>
        <time>2021-07-29T14:40:00Z</time>
      </trkpt>
      <trkpt lat="49.44398" lon="1.09171">
        <ele>11.19</ele>
        <time>2021-07-29T14:40:12Z</time>
      </trkpt>
      <trkpt lat="49.44409" lon="1.09178">
        <ele>11.67</ele>
        <time>2021-07-29T14:40:25Z</time>
      </trkpt>
      <trkpt lat="49.44417" lon="1.09183">
        <ele>12.15</ele>
        <time>2021-07-29T14:40:27Z</time>
      </trkpt>
      <trkpt lat="49.44421" lon="1.09186">
        <ele>12.63</ele>
        <time>2021-07-29T14:40:28Z</time>
      </trkpt>
      <trkpt lat="49.44446" lon="1.09201">
        <ele>14.08</ele>
        <time>2021-07-29T14:40:37Z</time>
      </trkpt>
      <trkpt lat="49.44451" lon="1.09204">
        <ele>14.56</ele>
        <time>2021-07-29T14:41:27Z</time>
      </trkpt>
      <trkpt lat="49.44459" lon="1.09209">
        <ele>14.56</ele>
        <time>2021-07-29T14:41:37Z</time>
      </trkpt>
      <trkpt lat="49.44464" lon="1.09213">
        <ele>14.56</ele>
        <time>2021-07-29T14:41:41Z</time>
      </trkpt>
      <trkpt lat="49.4447" lon="1.09203">
        <ele>14.56</ele>
        <time>2021-07-29T14:41:42Z</time>
      </trkpt>
      <trkpt lat="49.4447" lon="1.09203">
        <ele>14.56</ele>
        <time>2021-07-29T14:41:43Z</time>
      </trkpt>
      <trkpt lat="49.44471" lon="1.09196">
        <ele>14.56</ele>
        <time>2021-07-29T14:41:44Z</time>
      </trkpt>
      <trkpt lat="49.44472" lon="1.09189">
        <ele>14.56</ele>
        <time>2021-07-29T14:41:45Z</time>
      </trkpt>
      <trkpt lat="49.44493" lon="1.09081">
        <ele>15.52</ele>
        <time>2021-07-29T14:41:55Z</time>
      </trkpt>
      <trkpt lat="49.44537" lon="1.08848">
        <ele>16</ele>
        <time>2021-07-29T14:42:13Z</time>
      </trkpt>
      <trkpt lat="49.44566" lon="1.08693">
        <ele>16.48</ele>
        <time>2021-07-29T14:42:25Z</time>
      </trkpt>
      <trkpt lat="49.44571" lon="1.08675">
        <ele>16.48</ele>
        <time>2021-07-29T14:42:29Z</time>
      </trkpt>
      <trkpt lat="49.44573" lon="1.08668">
        <ele>16.48</ele>
        <time>2021-07-29T14:42:30Z</time>
      </trkpt>
      <trkpt lat="49.44577" lon="1.08655">
        <ele>16.48</ele>
        <time>2021-07-29T14:42:32Z</time>
      </trkpt>
      <trkpt lat="49.44579" lon="1.08648">
        <ele>16.96</ele>
        <time>2021-07-29T14:42:33Z</time>
      </trkpt>
      <trkpt lat="49.44579" lon="1.08647">
        <ele>16.96</ele>
        <time>2021-07-29T14:42:34Z</time>
      </trkpt>
      <trkpt lat="49.44575" lon="1.08642">
        <ele>17.44</ele>
        <time>2021-07-29T14:42:35Z</time>
      </trkpt>
      <trkpt lat="49.44571" lon="1.08639">
        <ele>17.44</ele>
        <time>2021-07-29T14:42:36Z</time>
      </trkpt>
      <trkpt lat="49.44567" lon="1.08634">
        <ele>17.44</ele>
        <time>2021-07-29T14:42:37Z</time>
      </trkpt>
      <trkpt lat="49.44564" lon="1.08631">
        <ele>17.44</ele>
        <time>2021-07-29T14:42:38Z</time>
      </trkpt>
      <trkpt lat="49.44543" lon="1.08616">
        <ele>15.52</ele>
        <time>2021-07-29T14:42:48Z</time>
      </trkpt>
      <trkpt lat="49.44523" lon="1.08601">
        <ele>13.6</ele>
        <time>2021-07-29T14:42:57Z</time>
      </trkpt>
      <trkpt lat="49.44466" lon="1.08565">
        <ele>6.39</ele>
        <time>2021-07-29T14:43:08Z</time>
      </trkpt>
      <trkpt lat="49.44372" lon="1.08508">
        <ele>-3.71</ele>
        <time>2021-07-29T14:43:22Z</time>
      </trkpt>
      <trkpt lat="49.44322" lon="1.08479">
        <ele>-8.51</ele>
        <time>2021-07-29T14:43:30Z</time>
      </trkpt>
      <trkpt lat="49.44318" lon="1.08476">
        <ele>-4.67</ele>
        <time>2021-07-29T14:43:41Z</time>
      </trkpt>
      <trkpt lat="49.44304" lon="1.08468">
        <ele>-5.63</ele>
        <time>2021-07-29T14:43:59Z</time>
      </trkpt>
      <trkpt lat="49.44284" lon="1.08454">
        <ele>-5.63</ele>
        <time>2021-07-29T14:44:16Z</time>
      </trkpt>
      <trkpt lat="49.44245" lon="1.08419">
        <ele>-4.67</ele>
        <time>2021-07-29T14:44:24Z</time>
      </trkpt>
      <trkpt lat="49.4424" lon="1.08411">
        <ele>-4.67</ele>
        <time>2021-07-29T14:44:25Z</time>
      </trkpt>
      <trkpt lat="49.44236" lon="1.08405">
        <ele>-4.67</ele>
        <time>2021-07-29T14:44:26Z</time>
      </trkpt>
      <trkpt lat="49.44232" lon="1.08386">
        <ele>-5.15</ele>
        <time>2021-07-29T14:44:27Z</time>
      </trkpt>
      <trkpt lat="49.44233" lon="1.08378">
        <ele>-4.19</ele>
        <time>2021-07-29T14:44:28Z</time>
      </trkpt>
      <trkpt lat="49.44235" lon="1.08369">
        <ele>-4.19</ele>
        <time>2021-07-29T14:44:29Z</time>
      </trkpt>
      <trkpt lat="49.44237" lon="1.0836">
        <ele>-3.71</ele>
        <time>2021-07-29T14:44:30Z</time>
      </trkpt>
      <trkpt lat="49.44249" lon="1.0829">
        <ele>-1.79</ele>
        <time>2021-07-29T14:44:40Z</time>
      </trkpt>
      <trkpt lat="49.44251" lon="1.08281">
        <ele>-1.3</ele>
        <time>2021-07-29T14:44:42Z</time>
      </trkpt>
      <trkpt lat="49.44248" lon="1.08265">
        <ele>-1.3</ele>
        <time>2021-07-29T14:44:43Z</time>
      </trkpt>
      <trkpt lat="49.44245" lon="1.0826">
        <ele>-0.82</ele>
        <time>2021-07-29T14:44:44Z</time>
      </trkpt>
      <trkpt lat="49.44241" lon="1.08255">
        <ele>-0.82</ele>
        <time>2021-07-29T14:44:45Z</time>
      </trkpt>
      <trkpt lat="49.44236" lon="1.0825">
        <ele>-0.34</ele>
        <time>2021-07-29T14:44:46Z</time>
      </trkpt>
      <trkpt lat="49.44236" lon="1.0825">
        <ele>0.62</ele>
        <time>2021-07-29T14:44:47Z</time>
      </trkpt>
      <trkpt lat="49.4423" lon="1.08245">
        <ele>1.1</ele>
        <time>2021-07-29T14:44:48Z</time>
      </trkpt>
      <trkpt lat="49.44115" lon="1.08176">
        <ele>6.87</ele>
        <time>2021-07-29T14:44:59Z</time>
      </trkpt>
      <trkpt lat="49.43983" lon="1.08079">
        <ele>9.27</ele>
        <time>2021-07-29T14:45:14Z</time>
      </trkpt>
      <trkpt lat="49.43955" lon="1.08055">
        <ele>8.31</ele>
        <time>2021-07-29T14:45:21Z</time>
      </trkpt>
      <trkpt lat="49.43915" lon="1.08024">
        <ele>7.35</ele>
        <time>2021-07-29T14:45:29Z</time>
      </trkpt>
      <trkpt lat="49.43822" lon="1.07936">
        <ele>7.35</ele>
        <time>2021-07-29T14:45:42Z</time>
      </trkpt>
      <trkpt lat="49.43817" lon="1.07931">
        <ele>7.35</ele>
        <time>2021-07-29T14:45:43Z</time>
      </trkpt>
      <trkpt lat="49.43788" lon="1.079">
        <ele>8.79</ele>
        <time>2021-07-29T14:45:53Z</time>
      </trkpt>
      <trkpt lat="49.43788" lon="1.079">
        <ele>8.79</ele>
        <time>2021-07-29T14:46:19Z</time>
      </trkpt>
      <trkpt lat="49.43768" lon="1.07882">
        <ele>8.31</ele>
        <time>2021-07-29T14:46:28Z</time>
      </trkpt>
      <trkpt lat="49.43684" lon="1.07809">
        <ele>8.79</ele>
        <time>2021-07-29T14:46:41Z</time>
      </trkpt>
      <trkpt lat="49.4362" lon="1.07751">
        <ele>9.27</ele>
        <time>2021-07-29T14:46:55Z</time>
      </trkpt>
      <trkpt lat="49.43556" lon="1.07695">
        <ele>8.79</ele>
        <time>2021-07-29T14:47:06Z</time>
      </trkpt>
      <trkpt lat="49.43518" lon="1.07659">
        <ele>8.79</ele>
        <time>2021-07-29T14:47:14Z</time>
      </trkpt>
      <trkpt lat="49.43485" lon="1.07623">
        <ele>8.31</ele>
        <time>2021-07-29T14:47:22Z</time>
      </trkpt>
      <trkpt lat="49.43482" lon="1.07618">
        <ele>8.31</ele>
        <time>2021-07-29T14:47:23Z</time>
      </trkpt>
      <trkpt lat="49.4348" lon="1.07611">
        <ele>8.31</ele>
        <time>2021-07-29T14:47:24Z</time>
      </trkpt>
      <trkpt lat="49.43478" lon="1.07604">
        <ele>8.31</ele>
        <time>2021-07-29T14:47:25Z</time>
      </trkpt>
      <trkpt lat="49.43477" lon="1.07597">
        <ele>8.31</ele>
        <time>2021-07-29T14:47:26Z</time>
      </trkpt>
      <trkpt lat="49.43478" lon="1.07589">
        <ele>8.31</ele>
        <time>2021-07-29T14:47:27Z</time>
      </trkpt>
      <trkpt lat="49.43489" lon="1.0746">
        <ele>8.79</ele>
        <time>2021-07-29T14:47:38Z</time>
      </trkpt>
      <trkpt lat="49.43487" lon="1.07265">
        <ele>8.31</ele>
        <time>2021-07-29T14:47:51Z</time>
      </trkpt>
      <trkpt lat="49.43491" lon="1.07226">
        <ele>8.31</ele>
        <time>2021-07-29T14:47:56Z</time>
      </trkpt>
      <trkpt lat="49.43492" lon="1.0722">
        <ele>8.31</ele>
        <time>2021-07-29T14:47:57Z</time>
      </trkpt>
      <trkpt lat="49.43501" lon="1.0721">
        <ele>8.31</ele>
        <time>2021-07-29T14:47:59Z</time>
      </trkpt>
      <trkpt lat="49.43506" lon="1.07198">
        <ele>8.79</ele>
        <time>2021-07-29T14:48:00Z</time>
      </trkpt>
      <trkpt lat="49.43508" lon="1.07187">
        <ele>8.79</ele>
        <time>2021-07-29T14:48:01Z</time>
      </trkpt>
      <trkpt lat="49.4351" lon="1.07172">
        <ele>8.79</ele>
        <time>2021-07-29T14:48:02Z</time>
      </trkpt>
      <trkpt lat="49.43506" lon="1.07161">
        <ele>8.79</ele>
        <time>2021-07-29T14:48:03Z</time>
      </trkpt>
      <trkpt lat="49.43502" lon="1.07152">
        <ele>8.79</ele>
        <time>2021-07-29T14:48:04Z</time>
      </trkpt>
      <trkpt lat="49.43496" lon="1.07144">
        <ele>8.79</ele>
        <time>2021-07-29T14:48:05Z</time>
      </trkpt>
      <trkpt lat="49.4349" lon="1.07137">
        <ele>8.79</ele>
        <time>2021-07-29T14:48:06Z</time>
      </trkpt>
      <trkpt lat="49.43488" lon="1.07123">
        <ele>8.79</ele>
        <time>2021-07-29T14:48:07Z</time>
      </trkpt>
      <trkpt lat="49.43486" lon="1.0711">
        <ele>8.31</ele>
        <time>2021-07-29T14:48:08Z</time>
      </trkpt>
      <trkpt lat="49.43484" lon="1.07082">
        <ele>7.83</ele>
        <time>2021-07-29T14:48:09Z</time>
      </trkpt>
      <trkpt lat="49.43467" lon="1.0693">
        <ele>5.91</ele>
        <time>2021-07-29T14:48:19Z</time>
      </trkpt>
      <trkpt lat="49.43428" lon="1.06666">
        <ele>3.5</ele>
        <time>2021-07-29T14:48:31Z</time>
      </trkpt>
      <trkpt lat="49.43359" lon="1.0623">
        <ele>3.02</ele>
        <time>2021-07-29T14:48:47Z</time>
      </trkpt>
      <trkpt lat="49.43293" lon="1.06048">
        <ele>6.39</ele>
        <time>2021-07-29T14:48:55Z</time>
      </trkpt>
      <trkpt lat="49.43157" lon="1.05824">
        <ele>5.42</ele>
        <time>2021-07-29T14:49:05Z</time>
      </trkpt>
      <trkpt lat="49.43014" lon="1.05691">
        <ele>3.02</ele>
        <time>2021-07-29T14:49:14Z</time>
      </trkpt>
      <trkpt lat="49.42863" lon="1.05629">
        <ele>-0.82</ele>
        <time>2021-07-29T14:49:22Z</time>
      </trkpt>
      <trkpt lat="49.42711" lon="1.05585">
        <ele>-0.34</ele>
        <time>2021-07-29T14:49:33Z</time>
      </trkpt>
      <trkpt lat="49.42576" lon="1.05474">
        <ele>3.98</ele>
        <time>2021-07-29T14:49:42Z</time>
      </trkpt>
      <trkpt lat="49.4245" lon="1.05298">
        <ele>6.39</ele>
        <time>2021-07-29T14:49:51Z</time>
      </trkpt>
      <trkpt lat="49.42329" lon="1.052">
        <ele>4.94</ele>
        <time>2021-07-29T14:49:58Z</time>
      </trkpt>
      <trkpt lat="49.42172" lon="1.05144">
        <ele>5.91</ele>
        <time>2021-07-29T14:50:06Z</time>
      </trkpt>
      <trkpt lat="49.4203" lon="1.05034">
        <ele>7.83</ele>
        <time>2021-07-29T14:50:14Z</time>
      </trkpt>
      <trkpt lat="49.41816" lon="1.04803">
        <ele>11.67</ele>
        <time>2021-07-29T14:50:26Z</time>
      </trkpt>
      <trkpt lat="49.41578" lon="1.04547">
        <ele>8.79</ele>
        <time>2021-07-29T14:50:41Z</time>
      </trkpt>
      <trkpt lat="49.4136" lon="1.04313">
        <ele>6.87</ele>
        <time>2021-07-29T14:50:54Z</time>
      </trkpt>
      <trkpt lat="49.41173" lon="1.04111">
        <ele>12.15</ele>
        <time>2021-07-29T14:51:06Z</time>
      </trkpt>
      <trkpt lat="49.40968" lon="1.03901">
        <ele>12.63</ele>
        <time>2021-07-29T14:51:19Z</time>
      </trkpt>
      <trkpt lat="49.40649" lon="1.03621">
        <ele>15.52</ele>
        <time>2021-07-29T14:51:38Z</time>
      </trkpt>
      <trkpt lat="49.40426" lon="1.03446">
        <ele>13.6</ele>
        <time>2021-07-29T14:51:52Z</time>
      </trkpt>
      <trkpt lat="49.40216" lon="1.03307">
        <ele>17.92</ele>
        <time>2021-07-29T14:52:03Z</time>
      </trkpt>
      <trkpt lat="49.39966" lon="1.03189">
        <ele>19.36</ele>
        <time>2021-07-29T14:52:15Z</time>
      </trkpt>
      <trkpt lat="49.39806" lon="1.03189">
        <ele>25.13</ele>
        <time>2021-07-29T14:52:23Z</time>
      </trkpt>
      <trkpt lat="49.39664" lon="1.03257">
        <ele>29.46</ele>
        <time>2021-07-29T14:52:30Z</time>
      </trkpt>
      <trkpt lat="49.3954" lon="1.03384">
        <ele>32.82</ele>
        <time>2021-07-29T14:52:37Z</time>
      </trkpt>
      <trkpt lat="49.39373" lon="1.03668">
        <ele>40.03</ele>
        <time>2021-07-29T14:52:49Z</time>
      </trkpt>
      <trkpt lat="49.39173" lon="1.04024">
        <ele>50.61</ele>
        <time>2021-07-29T14:53:05Z</time>
      </trkpt>
      <trkpt lat="49.38961" lon="1.04394">
        <ele>54.93</ele>
        <time>2021-07-29T14:53:23Z</time>
      </trkpt>
      <trkpt lat="49.38809" lon="1.04588">
        <ele>58.78</ele>
        <time>2021-07-29T14:53:33Z</time>
      </trkpt>
      <trkpt lat="49.38607" lon="1.04745">
        <ele>61.18</ele>
        <time>2021-07-29T14:53:43Z</time>
      </trkpt>
      <trkpt lat="49.38406" lon="1.04812">
        <ele>64.55</ele>
        <time>2021-07-29T14:53:53Z</time>
      </trkpt>
      <trkpt lat="49.38144" lon="1.04835">
        <ele>63.58</ele>
        <time>2021-07-29T14:54:06Z</time>
      </trkpt>
      <trkpt lat="49.37949" lon="1.04803">
        <ele>63.1</ele>
        <time>2021-07-29T14:54:15Z</time>
      </trkpt>
      <trkpt lat="49.37671" lon="1.04688">
        <ele>69.83</ele>
        <time>2021-07-29T14:54:28Z</time>
      </trkpt>
      <trkpt lat="49.37409" lon="1.04516">
        <ele>79.45</ele>
        <time>2021-07-29T14:54:41Z</time>
      </trkpt>
      <trkpt lat="49.37078" lon="1.04277">
        <ele>85.21</ele>
        <time>2021-07-29T14:54:59Z</time>
      </trkpt>
      <trkpt lat="49.36615" lon="1.03947">
        <ele>79.93</ele>
        <time>2021-07-29T14:55:22Z</time>
      </trkpt>
      <trkpt lat="49.36401" lon="1.03797">
        <ele>86.18</ele>
        <time>2021-07-29T14:55:34Z</time>
      </trkpt>
      <trkpt lat="49.36107" lon="1.03577">
        <ele>99.15</ele>
        <time>2021-07-29T14:55:52Z</time>
      </trkpt>
      <trkpt lat="49.35902" lon="1.03434">
        <ele>110.69</ele>
        <time>2021-07-29T14:56:06Z</time>
      </trkpt>
      <trkpt lat="49.35669" lon="1.0327">
        <ele>112.13</ele>
        <time>2021-07-29T14:56:20Z</time>
      </trkpt>
      <trkpt lat="49.35546" lon="1.03159">
        <ele>111.65</ele>
        <time>2021-07-29T14:56:27Z</time>
      </trkpt>
      <trkpt lat="49.35409" lon="1.02972">
        <ele>115.01</ele>
        <time>2021-07-29T14:56:35Z</time>
      </trkpt>
      <trkpt lat="49.3516" lon="1.02565">
        <ele>118.86</ele>
        <time>2021-07-29T14:56:50Z</time>
      </trkpt>
      <trkpt lat="49.34835" lon="1.02026">
        <ele>125.11</ele>
        <time>2021-07-29T14:57:11Z</time>
      </trkpt>
      <trkpt lat="49.3457" lon="1.0158">
        <ele>122.71</ele>
        <time>2021-07-29T14:57:27Z</time>
      </trkpt>
      <trkpt lat="49.34475" lon="1.01317">
        <ele>122.71</ele>
        <time>2021-07-29T14:57:35Z</time>
      </trkpt>
      <trkpt lat="49.34362" lon="1.00837">
        <ele>131.36</ele>
        <time>2021-07-29T14:57:49Z</time>
      </trkpt>
      <trkpt lat="49.3419" lon="1.00093">
        <ele>136.64</ele>
        <time>2021-07-29T14:58:11Z</time>
      </trkpt>
      <trkpt lat="49.3401" lon="0.99305">
        <ele>140.97</ele>
        <time>2021-07-29T14:58:34Z</time>
      </trkpt>
      <trkpt lat="49.33896" lon="0.98734">
        <ele>140.49</ele>
        <time>2021-07-29T14:58:51Z</time>
      </trkpt>
      <trkpt lat="49.33859" lon="0.9837">
        <ele>136.64</ele>
        <time>2021-07-29T14:59:02Z</time>
      </trkpt>
      <trkpt lat="49.33839" lon="0.97922">
        <ele>128.95</ele>
        <time>2021-07-29T14:59:16Z</time>
      </trkpt>
      <trkpt lat="49.33808" lon="0.9731">
        <ele>125.11</ele>
        <time>2021-07-29T14:59:33Z</time>
      </trkpt>
      <trkpt lat="49.33817" lon="0.96978">
        <ele>117.42</ele>
        <time>2021-07-29T14:59:42Z</time>
      </trkpt>
      <trkpt lat="49.33871" lon="0.96648">
        <ele>107.32</ele>
        <time>2021-07-29T14:59:51Z</time>
      </trkpt>
      <trkpt lat="49.33921" lon="0.96283">
        <ele>99.15</ele>
        <time>2021-07-29T15:00:01Z</time>
      </trkpt>
      <trkpt lat="49.33914" lon="0.95941">
        <ele>96.75</ele>
        <time>2021-07-29T15:00:10Z</time>
      </trkpt>
      <trkpt lat="49.33889" lon="0.95515">
        <ele>107.32</ele>
        <time>2021-07-29T15:00:22Z</time>
      </trkpt>
      <trkpt lat="49.33907" lon="0.95119">
        <ele>114.05</ele>
        <time>2021-07-29T15:00:34Z</time>
      </trkpt>
      <trkpt lat="49.33963" lon="0.94699">
        <ele>118.86</ele>
        <time>2021-07-29T15:00:48Z</time>
      </trkpt>
      <trkpt lat="49.34043" lon="0.94062">
        <ele>125.59</ele>
        <time>2021-07-29T15:01:10Z</time>
      </trkpt>
      <trkpt lat="49.34123" lon="0.93509">
        <ele>127.03</ele>
        <time>2021-07-29T15:01:29Z</time>
      </trkpt>
      <trkpt lat="49.34172" lon="0.93237">
        <ele>125.11</ele>
        <time>2021-07-29T15:01:39Z</time>
      </trkpt>
      <trkpt lat="49.34258" lon="0.93067">
        <ele>120.3</ele>
        <time>2021-07-29T15:01:49Z</time>
      </trkpt>
      <trkpt lat="49.34269" lon="0.93031">
        <ele>120.78</ele>
        <time>2021-07-29T15:01:51Z</time>
      </trkpt>
      <trkpt lat="49.34269" lon="0.93031">
        <ele>120.3</ele>
        <time>2021-07-29T15:01:52Z</time>
      </trkpt>
      <trkpt lat="49.34283" lon="0.9301">
        <ele>119.82</ele>
        <time>2021-07-29T15:01:57Z</time>
      </trkpt>
      <trkpt lat="49.34287" lon="0.93009">
        <ele>119.34</ele>
        <time>2021-07-29T15:01:58Z</time>
      </trkpt>
      <trkpt lat="49.34292" lon="0.93009">
        <ele>119.82</ele>
        <time>2021-07-29T15:01:59Z</time>
      </trkpt>
      <trkpt lat="49.34295" lon="0.93008">
        <ele>120.3</ele>
        <time>2021-07-29T15:02:00Z</time>
      </trkpt>
      <trkpt lat="49.34305" lon="0.93019">
        <ele>119.82</ele>
        <time>2021-07-29T15:02:01Z</time>
      </trkpt>
      <trkpt lat="49.34319" lon="0.93032">
        <ele>120.3</ele>
        <time>2021-07-29T15:02:02Z</time>
      </trkpt>
      <trkpt lat="49.34319" lon="0.93032">
        <ele>120.3</ele>
        <time>2021-07-29T15:02:03Z</time>
      </trkpt>
      <trkpt lat="49.34419" lon="0.93139">
        <ele>119.82</ele>
        <time>2021-07-29T15:02:13Z</time>
      </trkpt>
      <trkpt lat="49.34455" lon="0.93184">
        <ele>120.78</ele>
        <time>2021-07-29T15:02:19Z</time>
      </trkpt>
      <trkpt lat="49.34459" lon="0.93191">
        <ele>120.3</ele>
        <time>2021-07-29T15:02:20Z</time>
      </trkpt>
      <trkpt lat="49.34467" lon="0.93207">
        <ele>120.78</ele>
        <time>2021-07-29T15:02:24Z</time>
      </trkpt>
      <trkpt lat="49.34469" lon="0.93211">
        <ele>120.78</ele>
        <time>2021-07-29T15:02:25Z</time>
      </trkpt>
      <trkpt lat="49.34466" lon="0.93242">
        <ele>120.78</ele>
        <time>2021-07-29T15:02:27Z</time>
      </trkpt>
      <trkpt lat="49.34466" lon="0.93242">
        <ele>120.78</ele>
        <time>2021-07-29T15:02:28Z</time>
      </trkpt>
      <trkpt lat="49.34469" lon="0.93249">
        <ele>120.78</ele>
        <time>2021-07-29T15:02:29Z</time>
      </trkpt>
      <trkpt lat="49.34472" lon="0.93255">
        <ele>120.78</ele>
        <time>2021-07-29T15:02:30Z</time>
      </trkpt>
      <trkpt lat="49.34478" lon="0.93255">
        <ele>120.3</ele>
        <time>2021-07-29T15:02:31Z</time>
      </trkpt>
      <trkpt lat="49.34483" lon="0.93255">
        <ele>119.82</ele>
        <time>2021-07-29T15:02:32Z</time>
      </trkpt>
      <trkpt lat="49.34488" lon="0.93249">
        <ele>119.34</ele>
        <time>2021-07-29T15:02:33Z</time>
      </trkpt>
      <trkpt lat="49.3449" lon="0.93241">
        <ele>119.34</ele>
        <time>2021-07-29T15:02:34Z</time>
      </trkpt>
      <trkpt lat="49.34493" lon="0.93227">
        <ele>118.86</ele>
        <time>2021-07-29T15:02:35Z</time>
      </trkpt>
      <trkpt lat="49.3456" lon="0.93134">
        <ele>114.53</ele>
        <time>2021-07-29T15:02:44Z</time>
      </trkpt>
      <trkpt lat="49.34689" lon="0.92962">
        <ele>118.86</ele>
        <time>2021-07-29T15:02:56Z</time>
      </trkpt>
      <trkpt lat="49.34869" lon="0.92712">
        <ele>126.55</ele>
        <time>2021-07-29T15:03:11Z</time>
      </trkpt>
      <trkpt lat="49.34924" lon="0.92568">
        <ele>127.99</ele>
        <time>2021-07-29T15:03:18Z</time>
      </trkpt>
      <trkpt lat="49.35011" lon="0.92277">
        <ele>124.15</ele>
        <time>2021-07-29T15:03:30Z</time>
      </trkpt>
      <trkpt lat="49.35092" lon="0.91984">
        <ele>122.22</ele>
        <time>2021-07-29T15:03:42Z</time>
      </trkpt>
      <trkpt lat="49.35194" lon="0.91677">
        <ele>124.63</ele>
        <time>2021-07-29T15:03:57Z</time>
      </trkpt>
      <trkpt lat="49.35296" lon="0.91458">
        <ele>127.99</ele>
        <time>2021-07-29T15:04:09Z</time>
      </trkpt>
      <trkpt lat="49.35302" lon="0.91442">
        <ele>127.99</ele>
        <time>2021-07-29T15:04:10Z</time>
      </trkpt>
      <trkpt lat="49.35306" lon="0.91424">
        <ele>127.99</ele>
        <time>2021-07-29T15:04:11Z</time>
      </trkpt>
      <trkpt lat="49.35337" lon="0.91213">
        <ele>131.36</ele>
        <time>2021-07-29T15:04:22Z</time>
      </trkpt>
      <trkpt lat="49.35369" lon="0.90954">
        <ele>135.68</ele>
        <time>2021-07-29T15:04:35Z</time>
      </trkpt>
      <trkpt lat="49.35376" lon="0.90744">
        <ele>138.57</ele>
        <time>2021-07-29T15:04:45Z</time>
      </trkpt>
      <trkpt lat="49.35391" lon="0.90388">
        <ele>139.53</ele>
        <time>2021-07-29T15:05:00Z</time>
      </trkpt>
      <trkpt lat="49.3544" lon="0.90123">
        <ele>136.16</ele>
        <time>2021-07-29T15:05:11Z</time>
      </trkpt>
      <trkpt lat="49.35552" lon="0.8978">
        <ele>128.95</ele>
        <time>2021-07-29T15:05:25Z</time>
      </trkpt>
      <trkpt lat="49.35619" lon="0.89564">
        <ele>129.43</ele>
        <time>2021-07-29T15:05:34Z</time>
      </trkpt>
      <trkpt lat="49.35644" lon="0.89433">
        <ele>129.43</ele>
        <time>2021-07-29T15:05:40Z</time>
      </trkpt>
      <trkpt lat="49.35648" lon="0.89393">
        <ele>129.43</ele>
        <time>2021-07-29T15:05:41Z</time>
      </trkpt>
      <trkpt lat="49.35648" lon="0.89393">
        <ele>131.36</ele>
        <time>2021-07-29T15:05:42Z</time>
      </trkpt>
      <trkpt lat="49.35649" lon="0.89375">
        <ele>132.32</ele>
        <time>2021-07-29T15:05:43Z</time>
      </trkpt>
      <trkpt lat="49.35649" lon="0.89356">
        <ele>133.28</ele>
        <time>2021-07-29T15:05:44Z</time>
      </trkpt>
      <trkpt lat="49.35651" lon="0.8921">
        <ele>130.4</ele>
        <time>2021-07-29T15:05:53Z</time>
      </trkpt>
      <trkpt lat="49.35651" lon="0.89206">
        <ele>130.4</ele>
        <time>2021-07-29T15:06:05Z</time>
      </trkpt>
      <trkpt lat="49.35651" lon="0.89174">
        <ele>130.4</ele>
        <time>2021-07-29T15:06:34Z</time>
      </trkpt>
      <trkpt lat="49.35651" lon="0.89036">
        <ele>129.92</ele>
        <time>2021-07-29T15:06:43Z</time>
      </trkpt>
      <trkpt lat="49.35654" lon="0.8872">
        <ele>128.95</ele>
        <time>2021-07-29T15:06:58Z</time>
      </trkpt>
      <trkpt lat="49.35647" lon="0.88494">
        <ele>126.07</ele>
        <time>2021-07-29T15:07:07Z</time>
      </trkpt>
      <trkpt lat="49.35659" lon="0.88429">
        <ele>125.11</ele>
        <time>2021-07-29T15:07:10Z</time>
      </trkpt>
      <trkpt lat="49.35714" lon="0.88243">
        <ele>125.11</ele>
        <time>2021-07-29T15:07:20Z</time>
      </trkpt>
      <trkpt lat="49.35827" lon="0.87867">
        <ele>129.92</ele>
        <time>2021-07-29T15:07:36Z</time>
      </trkpt>
      <trkpt lat="49.35857" lon="0.87653">
        <ele>131.84</ele>
        <time>2021-07-29T15:07:46Z</time>
      </trkpt>
      <trkpt lat="49.35874" lon="0.87313">
        <ele>129.43</ele>
        <time>2021-07-29T15:07:59Z</time>
      </trkpt>
      <trkpt lat="49.35899" lon="0.86826">
        <ele>132.8</ele>
        <time>2021-07-29T15:08:16Z</time>
      </trkpt>
      <trkpt lat="49.35906" lon="0.86695">
        <ele>136.16</ele>
        <time>2021-07-29T15:08:22Z</time>
      </trkpt>
      <trkpt lat="49.35908" lon="0.8665">
        <ele>134.24</ele>
        <time>2021-07-29T15:08:29Z</time>
      </trkpt>
    </trkseg>
  </trk>
  <trk>
    <name><![CDATA[Journal actif: 2021-07-29 13:12]]></name>
    <trkseg>
      <trkpt lat="49.35908" lon="0.8665">
        <ele>146.26</ele>
        <time>2021-07-29T15:12:53Z</time>
      </trkpt>
      <trkpt lat="49.35908" lon="0.8665">
        <ele>146.26</ele>
        <time>2021-07-29T15:13:32Z</time>
      </trkpt>
      <trkpt lat="49.35908" lon="0.8665">
        <ele>146.74</ele>
        <time>2021-07-29T15:14:09Z</time>
      </trkpt>
      <trkpt lat="49.35908" lon="0.8665">
        <ele>146.26</ele>
        <time>2021-07-29T15:14:32Z</time>
      </trkpt>
      <trkpt lat="49.35909" lon="0.86636">
        <ele>146.74</ele>
        <time>2021-07-29T15:14:40Z</time>
      </trkpt>
      <trkpt lat="49.35914" lon="0.86528">
        <ele>142.89</ele>
        <time>2021-07-29T15:14:49Z</time>
      </trkpt>
      <trkpt lat="49.35925" lon="0.86302">
        <ele>140.97</ele>
        <time>2021-07-29T15:15:01Z</time>
      </trkpt>
      <trkpt lat="49.35944" lon="0.85899">
        <ele>140.01</ele>
        <time>2021-07-29T15:15:18Z</time>
      </trkpt>
      <trkpt lat="49.35968" lon="0.85559">
        <ele>134.72</ele>
        <time>2021-07-29T15:15:33Z</time>
      </trkpt>
      <trkpt lat="49.35994" lon="0.85207">
        <ele>131.84</ele>
        <time>2021-07-29T15:15:49Z</time>
      </trkpt>
      <trkpt lat="49.35996" lon="0.85088">
        <ele>130.4</ele>
        <time>2021-07-29T15:15:57Z</time>
      </trkpt>
      <trkpt lat="49.35977" lon="0.84926">
        <ele>132.8</ele>
        <time>2021-07-29T15:16:09Z</time>
      </trkpt>
      <trkpt lat="49.3596" lon="0.84799">
        <ele>130.4</ele>
        <time>2021-07-29T15:16:17Z</time>
      </trkpt>
      <trkpt lat="49.3593" lon="0.84563">
        <ele>130.88</ele>
        <time>2021-07-29T15:16:30Z</time>
      </trkpt>
      <trkpt lat="49.35879" lon="0.84163">
        <ele>134.24</ele>
        <time>2021-07-29T15:16:49Z</time>
      </trkpt>
      <trkpt lat="49.35848" lon="0.83884">
        <ele>131.36</ele>
        <time>2021-07-29T15:17:01Z</time>
      </trkpt>
      <trkpt lat="49.35835" lon="0.83553">
        <ele>127.99</ele>
        <time>2021-07-29T15:17:14Z</time>
      </trkpt>
      <trkpt lat="49.35808" lon="0.83333">
        <ele>125.59</ele>
        <time>2021-07-29T15:17:24Z</time>
      </trkpt>
      <trkpt lat="49.35746" lon="0.8305">
        <ele>122.22</ele>
        <time>2021-07-29T15:17:36Z</time>
      </trkpt>
      <trkpt lat="49.35743" lon="0.83008">
        <ele>122.71</ele>
        <time>2021-07-29T15:17:39Z</time>
      </trkpt>
      <trkpt lat="49.35743" lon="0.82997">
        <ele>122.22</ele>
        <time>2021-07-29T15:17:40Z</time>
      </trkpt>
      <trkpt lat="49.35743" lon="0.82987">
        <ele>122.22</ele>
        <time>2021-07-29T15:17:41Z</time>
      </trkpt>
      <trkpt lat="49.35744" lon="0.82979">
        <ele>121.74</ele>
        <time>2021-07-29T15:17:42Z</time>
      </trkpt>
      <trkpt lat="49.35746" lon="0.8297">
        <ele>122.22</ele>
        <time>2021-07-29T15:17:43Z</time>
      </trkpt>
      <trkpt lat="49.35747" lon="0.82964">
        <ele>122.22</ele>
        <time>2021-07-29T15:17:44Z</time>
      </trkpt>
      <trkpt lat="49.35754" lon="0.82956">
        <ele>122.22</ele>
        <time>2021-07-29T15:17:45Z</time>
      </trkpt>
      <trkpt lat="49.3576" lon="0.8295">
        <ele>122.22</ele>
        <time>2021-07-29T15:17:46Z</time>
      </trkpt>
      <trkpt lat="49.35765" lon="0.82944">
        <ele>121.74</ele>
        <time>2021-07-29T15:17:47Z</time>
      </trkpt>
      <trkpt lat="49.35771" lon="0.82938">
        <ele>121.74</ele>
        <time>2021-07-29T15:17:48Z</time>
      </trkpt>
      <trkpt lat="49.35776" lon="0.82932">
        <ele>121.74</ele>
        <time>2021-07-29T15:17:49Z</time>
      </trkpt>
      <trkpt lat="49.3582" lon="0.82896">
        <ele>122.22</ele>
        <time>2021-07-29T15:17:57Z</time>
      </trkpt>
      <trkpt lat="49.35869" lon="0.82859">
        <ele>125.11</ele>
        <time>2021-07-29T15:18:06Z</time>
      </trkpt>
      <trkpt lat="49.3595" lon="0.82764">
        <ele>127.51</ele>
        <time>2021-07-29T15:18:15Z</time>
      </trkpt>
      <trkpt lat="49.36065" lon="0.8256">
        <ele>129.43</ele>
        <time>2021-07-29T15:18:27Z</time>
      </trkpt>
      <trkpt lat="49.36134" lon="0.82472">
        <ele>129.92</ele>
        <time>2021-07-29T15:18:34Z</time>
      </trkpt>
      <trkpt lat="49.36149" lon="0.82465">
        <ele>131.84</ele>
        <time>2021-07-29T15:18:40Z</time>
      </trkpt>
      <trkpt lat="49.36152" lon="0.82466">
        <ele>131.84</ele>
        <time>2021-07-29T15:18:41Z</time>
      </trkpt>
      <trkpt lat="49.36157" lon="0.82468">
        <ele>131.84</ele>
        <time>2021-07-29T15:18:42Z</time>
      </trkpt>
      <trkpt lat="49.36164" lon="0.82468">
        <ele>131.84</ele>
        <time>2021-07-29T15:18:43Z</time>
      </trkpt>
      <trkpt lat="49.3617" lon="0.82467">
        <ele>131.84</ele>
        <time>2021-07-29T15:18:44Z</time>
      </trkpt>
      <trkpt lat="49.36177" lon="0.82464">
        <ele>131.84</ele>
        <time>2021-07-29T15:18:45Z</time>
      </trkpt>
      <trkpt lat="49.36183" lon="0.82458">
        <ele>131.84</ele>
        <time>2021-07-29T15:18:46Z</time>
      </trkpt>
      <trkpt lat="49.36187" lon="0.82449">
        <ele>132.32</ele>
        <time>2021-07-29T15:18:47Z</time>
      </trkpt>
      <trkpt lat="49.36189" lon="0.82438">
        <ele>132.32</ele>
        <time>2021-07-29T15:18:48Z</time>
      </trkpt>
      <trkpt lat="49.36191" lon="0.82427">
        <ele>132.32</ele>
        <time>2021-07-29T15:18:49Z</time>
      </trkpt>
      <trkpt lat="49.3619" lon="0.82417">
        <ele>132.32</ele>
        <time>2021-07-29T15:18:50Z</time>
      </trkpt>
      <trkpt lat="49.36186" lon="0.82406">
        <ele>131.84</ele>
        <time>2021-07-29T15:18:51Z</time>
      </trkpt>
      <trkpt lat="49.36185" lon="0.82381">
        <ele>131.36</ele>
        <time>2021-07-29T15:18:52Z</time>
      </trkpt>
      <trkpt lat="49.36185" lon="0.82381">
        <ele>130.88</ele>
        <time>2021-07-29T15:18:53Z</time>
      </trkpt>
      <trkpt lat="49.36187" lon="0.82368">
        <ele>130.88</ele>
        <time>2021-07-29T15:18:54Z</time>
      </trkpt>
      <trkpt lat="49.3622" lon="0.82228">
        <ele>129.92</ele>
        <time>2021-07-29T15:19:02Z</time>
      </trkpt>
      <trkpt lat="49.36287" lon="0.81994">
        <ele>131.84</ele>
        <time>2021-07-29T15:19:12Z</time>
      </trkpt>
      <trkpt lat="49.36344" lon="0.81772">
        <ele>136.64</ele>
        <time>2021-07-29T15:19:22Z</time>
      </trkpt>
      <trkpt lat="49.36372" lon="0.81609">
        <ele>139.05</ele>
        <time>2021-07-29T15:19:31Z</time>
      </trkpt>
      <trkpt lat="49.36386" lon="0.8158">
        <ele>142.41</ele>
        <time>2021-07-29T15:19:39Z</time>
      </trkpt>
      <trkpt lat="49.36388" lon="0.81573">
        <ele>142.41</ele>
        <time>2021-07-29T15:19:40Z</time>
      </trkpt>
      <trkpt lat="49.36394" lon="0.81567">
        <ele>141.93</ele>
        <time>2021-07-29T15:19:41Z</time>
      </trkpt>
      <trkpt lat="49.36402" lon="0.81563">
        <ele>141.93</ele>
        <time>2021-07-29T15:19:42Z</time>
      </trkpt>
      <trkpt lat="49.36542" lon="0.81504">
        <ele>138.57</ele>
        <time>2021-07-29T15:19:54Z</time>
      </trkpt>
      <trkpt lat="49.36668" lon="0.81467">
        <ele>132.32</ele>
        <time>2021-07-29T15:20:05Z</time>
      </trkpt>
      <trkpt lat="49.36674" lon="0.81468">
        <ele>132.8</ele>
        <time>2021-07-29T15:20:06Z</time>
      </trkpt>
      <trkpt lat="49.36679" lon="0.81468">
        <ele>132.32</ele>
        <time>2021-07-29T15:20:07Z</time>
      </trkpt>
      <trkpt lat="49.36683" lon="0.81471">
        <ele>132.32</ele>
        <time>2021-07-29T15:20:08Z</time>
      </trkpt>
      <trkpt lat="49.36683" lon="0.81471">
        <ele>132.8</ele>
        <time>2021-07-29T15:20:09Z</time>
      </trkpt>
      <trkpt lat="49.36688" lon="0.81476">
        <ele>132.32</ele>
        <time>2021-07-29T15:20:10Z</time>
      </trkpt>
      <trkpt lat="49.36698" lon="0.81486">
        <ele>132.32</ele>
        <time>2021-07-29T15:20:11Z</time>
      </trkpt>
      <trkpt lat="49.36698" lon="0.81486">
        <ele>131.84</ele>
        <time>2021-07-29T15:20:12Z</time>
      </trkpt>
      <trkpt lat="49.36708" lon="0.81508">
        <ele>131.84</ele>
        <time>2021-07-29T15:20:13Z</time>
      </trkpt>
      <trkpt lat="49.36708" lon="0.81508">
        <ele>131.84</ele>
        <time>2021-07-29T15:20:14Z</time>
      </trkpt>
      <trkpt lat="49.3671" lon="0.81521">
        <ele>132.32</ele>
        <time>2021-07-29T15:20:15Z</time>
      </trkpt>
      <trkpt lat="49.36711" lon="0.81535">
        <ele>132.32</ele>
        <time>2021-07-29T15:20:16Z</time>
      </trkpt>
      <trkpt lat="49.36713" lon="0.8155">
        <ele>132.8</ele>
        <time>2021-07-29T15:20:17Z</time>
      </trkpt>
      <trkpt lat="49.3671" lon="0.81562">
        <ele>132.8</ele>
        <time>2021-07-29T15:20:18Z</time>
      </trkpt>
      <trkpt lat="49.36708" lon="0.81575">
        <ele>133.28</ele>
        <time>2021-07-29T15:20:19Z</time>
      </trkpt>
      <trkpt lat="49.36705" lon="0.81588">
        <ele>133.28</ele>
        <time>2021-07-29T15:20:20Z</time>
      </trkpt>
      <trkpt lat="49.3665" lon="0.8174">
        <ele>136.64</ele>
        <time>2021-07-29T15:20:30Z</time>
      </trkpt>
      <trkpt lat="49.36616" lon="0.81839">
        <ele>137.13</ele>
        <time>2021-07-29T15:20:36Z</time>
      </trkpt>
      <trkpt lat="49.36608" lon="0.81849">
        <ele>136.64</ele>
        <time>2021-07-29T15:20:37Z</time>
      </trkpt>
      <trkpt lat="49.36592" lon="0.81868">
        <ele>135.2</ele>
        <time>2021-07-29T15:20:38Z</time>
      </trkpt>
      <trkpt lat="49.36592" lon="0.81868">
        <ele>133.28</ele>
        <time>2021-07-29T15:20:39Z</time>
      </trkpt>
      <trkpt lat="49.36583" lon="0.81876">
        <ele>132.8</ele>
        <time>2021-07-29T15:20:40Z</time>
      </trkpt>
      <trkpt lat="49.36573" lon="0.81877">
        <ele>131.84</ele>
        <time>2021-07-29T15:20:41Z</time>
      </trkpt>
      <trkpt lat="49.36562" lon="0.81878">
        <ele>130.88</ele>
        <time>2021-07-29T15:20:42Z</time>
      </trkpt>
      <trkpt lat="49.36549" lon="0.81875">
        <ele>130.4</ele>
        <time>2021-07-29T15:20:43Z</time>
      </trkpt>
      <trkpt lat="49.36538" lon="0.81872">
        <ele>129.92</ele>
        <time>2021-07-29T15:20:44Z</time>
      </trkpt>
      <trkpt lat="49.36527" lon="0.81862">
        <ele>129.92</ele>
        <time>2021-07-29T15:20:45Z</time>
      </trkpt>
      <trkpt lat="49.36515" lon="0.8185">
        <ele>129.43</ele>
        <time>2021-07-29T15:20:46Z</time>
      </trkpt>
      <trkpt lat="49.36508" lon="0.81835">
        <ele>129.43</ele>
        <time>2021-07-29T15:20:47Z</time>
      </trkpt>
      <trkpt lat="49.36503" lon="0.81817">
        <ele>129.92</ele>
        <time>2021-07-29T15:20:48Z</time>
      </trkpt>
      <trkpt lat="49.36502" lon="0.81798">
        <ele>131.84</ele>
        <time>2021-07-29T15:20:49Z</time>
      </trkpt>
      <trkpt lat="49.36501" lon="0.81778">
        <ele>131.84</ele>
        <time>2021-07-29T15:20:50Z</time>
      </trkpt>
      <trkpt lat="49.365" lon="0.81756">
        <ele>132.32</ele>
        <time>2021-07-29T15:20:51Z</time>
      </trkpt>
      <trkpt lat="49.36509" lon="0.81473">
        <ele>132.8</ele>
        <time>2021-07-29T15:21:02Z</time>
      </trkpt>
      <trkpt lat="49.36535" lon="0.81038">
        <ele>133.28</ele>
        <time>2021-07-29T15:21:16Z</time>
      </trkpt>
      <trkpt lat="49.36575" lon="0.80419">
        <ele>136.16</ele>
        <time>2021-07-29T15:21:34Z</time>
      </trkpt>
      <trkpt lat="49.3664" lon="0.79663">
        <ele>142.89</ele>
        <time>2021-07-29T15:21:54Z</time>
      </trkpt>
      <trkpt lat="49.36743" lon="0.78861">
        <ele>142.89</ele>
        <time>2021-07-29T15:22:17Z</time>
      </trkpt>
      <trkpt lat="49.36853" lon="0.78039">
        <ele>139.05</ele>
        <time>2021-07-29T15:22:39Z</time>
      </trkpt>
      <trkpt lat="49.36951" lon="0.77154">
        <ele>140.01</ele>
        <time>2021-07-29T15:23:03Z</time>
      </trkpt>
      <trkpt lat="49.36996" lon="0.76399">
        <ele>141.45</ele>
        <time>2021-07-29T15:23:24Z</time>
      </trkpt>
      <trkpt lat="49.36995" lon="0.75636">
        <ele>142.41</ele>
        <time>2021-07-29T15:23:45Z</time>
      </trkpt>
      <trkpt lat="49.36979" lon="0.74842">
        <ele>142.89</ele>
        <time>2021-07-29T15:24:06Z</time>
      </trkpt>
      <trkpt lat="49.36989" lon="0.74308">
        <ele>140.49</ele>
        <time>2021-07-29T15:24:21Z</time>
      </trkpt>
      <trkpt lat="49.37032" lon="0.73517">
        <ele>136.64</ele>
        <time>2021-07-29T15:24:41Z</time>
      </trkpt>
      <trkpt lat="49.37061" lon="0.72789">
        <ele>138.09</ele>
        <time>2021-07-29T15:24:59Z</time>
      </trkpt>
      <trkpt lat="49.37057" lon="0.72296">
        <ele>139.05</ele>
        <time>2021-07-29T15:25:12Z</time>
      </trkpt>
      <trkpt lat="49.37043" lon="0.71699">
        <ele>138.57</ele>
        <time>2021-07-29T15:25:30Z</time>
      </trkpt>
      <trkpt lat="49.3704" lon="0.71189">
        <ele>137.13</ele>
        <time>2021-07-29T15:25:45Z</time>
      </trkpt>
      <trkpt lat="49.37046" lon="0.71007">
        <ele>137.13</ele>
        <time>2021-07-29T15:25:53Z</time>
      </trkpt>
      <trkpt lat="49.37068" lon="0.70941">
        <ele>138.09</ele>
        <time>2021-07-29T15:25:59Z</time>
      </trkpt>
      <trkpt lat="49.37072" lon="0.7088">
        <ele>138.57</ele>
        <time>2021-07-29T15:26:10Z</time>
      </trkpt>
      <trkpt lat="49.37073" lon="0.70843">
        <ele>138.09</ele>
        <time>2021-07-29T15:26:18Z</time>
      </trkpt>
      <trkpt lat="49.37074" lon="0.70804">
        <ele>136.64</ele>
        <time>2021-07-29T15:26:24Z</time>
      </trkpt>
      <trkpt lat="49.37074" lon="0.70804">
        <ele>136.64</ele>
        <time>2021-07-29T15:26:25Z</time>
      </trkpt>
      <trkpt lat="49.3709" lon="0.70808">
        <ele>136.16</ele>
        <time>2021-07-29T15:26:26Z</time>
      </trkpt>
      <trkpt lat="49.3709" lon="0.70808">
        <ele>135.68</ele>
        <time>2021-07-29T15:26:27Z</time>
      </trkpt>
      <trkpt lat="49.37093" lon="0.70804">
        <ele>135.2</ele>
        <time>2021-07-29T15:26:28Z</time>
      </trkpt>
      <trkpt lat="49.37103" lon="0.70794">
        <ele>132.8</ele>
        <time>2021-07-29T15:26:38Z</time>
      </trkpt>
      <trkpt lat="49.37103" lon="0.70794">
        <ele>133.28</ele>
        <time>2021-07-29T15:32:50Z</time>
      </trkpt>
      <trkpt lat="49.37103" lon="0.70794">
        <ele>133.28</ele>
        <time>2021-07-29T15:34:31Z</time>
      </trkpt>
      <trkpt lat="49.37103" lon="0.70794">
        <ele>133.28</ele>
        <time>2021-07-29T15:36:38Z</time>
      </trkpt>
      <trkpt lat="49.37103" lon="0.70794">
        <ele>133.28</ele>
        <time>2021-07-29T15:39:04Z</time>
      </trkpt>
      <trkpt lat="49.37103" lon="0.70794">
        <ele>133.28</ele>
        <time>2021-07-29T15:44:36Z</time>
      </trkpt>
      <trkpt lat="49.37103" lon="0.70794">
        <ele>131.84</ele>
        <time>2021-07-29T15:51:35Z</time>
      </trkpt>
      <trkpt lat="49.37103" lon="0.70794">
        <ele>131.36</ele>
        <time>2021-07-29T15:57:35Z</time>
      </trkpt>
      <trkpt lat="49.37103" lon="0.70794">
        <ele>131.36</ele>
        <time>2021-07-29T16:00:27Z</time>
      </trkpt>
      <trkpt lat="49.37103" lon="0.70794">
        <ele>131.84</ele>
        <time>2021-07-29T16:02:01Z</time>
      </trkpt>
      <trkpt lat="49.37103" lon="0.70794">
        <ele>131.84</ele>
        <time>2021-07-29T16:03:21Z</time>
      </trkpt>
      <trkpt lat="49.37103" lon="0.70794">
        <ele>130.88</ele>
        <time>2021-07-29T16:09:23Z</time>
      </trkpt>
      <trkpt lat="49.37103" lon="0.70794">
        <ele>130.88</ele>
        <time>2021-07-29T16:11:28Z</time>
      </trkpt>
      <trkpt lat="49.37103" lon="0.70794">
        <ele>130.4</ele>
        <time>2021-07-29T16:12:34Z</time>
      </trkpt>
      <trkpt lat="49.37103" lon="0.70794">
        <ele>130.4</ele>
        <time>2021-07-29T16:15:51Z</time>
      </trkpt>
      <trkpt lat="49.37103" lon="0.70794">
        <ele>129.92</ele>
        <time>2021-07-29T16:18:50Z</time>
      </trkpt>
      <trkpt lat="49.37103" lon="0.70794">
        <ele>129.92</ele>
        <time>2021-07-29T16:21:22Z</time>
      </trkpt>
      <trkpt lat="49.37103" lon="0.70794">
        <ele>129.92</ele>
        <time>2021-07-29T16:24:01Z</time>
      </trkpt>
      <trkpt lat="49.37103" lon="0.70794">
        <ele>129.92</ele>
        <time>2021-07-29T16:26:12Z</time>
      </trkpt>
      <trkpt lat="49.37103" lon="0.70794">
        <ele>129.92</ele>
        <time>2021-07-29T16:27:22Z</time>
      </trkpt>
      <trkpt lat="49.37103" lon="0.70794">
        <ele>129.92</ele>
        <time>2021-07-29T16:29:33Z</time>
      </trkpt>
      <trkpt lat="49.37103" lon="0.70794">
        <ele>129.43</ele>
        <time>2021-07-29T16:32:58Z</time>
      </trkpt>
      <trkpt lat="49.37103" lon="0.70794">
        <ele>129.43</ele>
        <time>2021-07-29T16:35:52Z</time>
      </trkpt>
      <trkpt lat="49.37103" lon="0.70794">
        <ele>129.92</ele>
        <time>2021-07-29T16:36:46Z</time>
      </trkpt>
      <trkpt lat="49.37103" lon="0.70794">
        <ele>129.92</ele>
        <time>2021-07-29T16:38:23Z</time>
      </trkpt>
      <trkpt lat="49.37103" lon="0.70794">
        <ele>129.92</ele>
        <time>2021-07-29T16:40:13Z</time>
      </trkpt>
      <trkpt lat="49.37103" lon="0.70794">
        <ele>129.92</ele>
        <time>2021-07-29T16:42:31Z</time>
      </trkpt>
      <trkpt lat="49.37103" lon="0.70794">
        <ele>130.4</ele>
        <time>2021-07-29T16:43:54Z</time>
      </trkpt>
      <trkpt lat="49.37108" lon="0.70789">
        <ele>129.92</ele>
        <time>2021-07-29T16:44:15Z</time>
      </trkpt>
      <trkpt lat="49.37108" lon="0.70789">
        <ele>129.92</ele>
        <time>2021-07-29T16:44:17Z</time>
      </trkpt>
      <trkpt lat="49.37106" lon="0.7077">
        <ele>129.92</ele>
        <time>2021-07-29T16:44:18Z</time>
      </trkpt>
      <trkpt lat="49.37106" lon="0.70767">
        <ele>129.92</ele>
        <time>2021-07-29T16:44:19Z</time>
      </trkpt>
      <trkpt lat="49.37106" lon="0.70716">
        <ele>129.92</ele>
        <time>2021-07-29T16:44:31Z</time>
      </trkpt>
      <trkpt lat="49.37104" lon="0.70711">
        <ele>129.92</ele>
        <time>2021-07-29T16:44:32Z</time>
      </trkpt>
      <trkpt lat="49.37097" lon="0.70691">
        <ele>128.47</ele>
        <time>2021-07-29T16:44:35Z</time>
      </trkpt>
      <trkpt lat="49.37082" lon="0.70651">
        <ele>129.43</ele>
        <time>2021-07-29T16:44:40Z</time>
      </trkpt>
      <trkpt lat="49.37081" lon="0.70633">
        <ele>128.95</ele>
        <time>2021-07-29T16:44:41Z</time>
      </trkpt>
      <trkpt lat="49.37081" lon="0.70633">
        <ele>128.95</ele>
        <time>2021-07-29T16:44:42Z</time>
      </trkpt>
      <trkpt lat="49.37088" lon="0.70514">
        <ele>126.07</ele>
        <time>2021-07-29T16:44:50Z</time>
      </trkpt>
      <trkpt lat="49.37101" lon="0.7027">
        <ele>124.63</ele>
        <time>2021-07-29T16:45:01Z</time>
      </trkpt>
      <trkpt lat="49.37117" lon="0.69992">
        <ele>124.15</ele>
        <time>2021-07-29T16:45:11Z</time>
      </trkpt>
      <trkpt lat="49.37157" lon="0.6948">
        <ele>125.59</ele>
        <time>2021-07-29T16:45:26Z</time>
      </trkpt>
      <trkpt lat="49.37198" lon="0.68851">
        <ele>126.55</ele>
        <time>2021-07-29T16:45:43Z</time>
      </trkpt>
      <trkpt lat="49.37209" lon="0.68176">
        <ele>124.63</ele>
        <time>2021-07-29T16:46:00Z</time>
      </trkpt>
      <trkpt lat="49.37198" lon="0.67171">
        <ele>122.22</ele>
        <time>2021-07-29T16:46:25Z</time>
      </trkpt>
      <trkpt lat="49.37222" lon="0.66539">
        <ele>122.71</ele>
        <time>2021-07-29T16:46:41Z</time>
      </trkpt>
      <trkpt lat="49.3729" lon="0.65913">
        <ele>125.59</ele>
        <time>2021-07-29T16:46:58Z</time>
      </trkpt>
      <trkpt lat="49.37407" lon="0.65224">
        <ele>126.55</ele>
        <time>2021-07-29T16:47:17Z</time>
      </trkpt>
      <trkpt lat="49.37505" lon="0.64604">
        <ele>121.74</ele>
        <time>2021-07-29T16:47:33Z</time>
      </trkpt>
      <trkpt lat="49.37611" lon="0.63758">
        <ele>121.26</ele>
        <time>2021-07-29T16:47:54Z</time>
      </trkpt>
      <trkpt lat="49.37653" lon="0.63405">
        <ele>122.71</ele>
        <time>2021-07-29T16:48:04Z</time>
      </trkpt>
      <trkpt lat="49.37673" lon="0.63247">
        <ele>124.15</ele>
        <time>2021-07-29T16:48:11Z</time>
      </trkpt>
      <trkpt lat="49.37692" lon="0.63238">
        <ele>125.11</ele>
        <time>2021-07-29T16:48:12Z</time>
      </trkpt>
      <trkpt lat="49.37698" lon="0.6322">
        <ele>125.59</ele>
        <time>2021-07-29T16:48:13Z</time>
      </trkpt>
      <trkpt lat="49.37705" lon="0.6321">
        <ele>125.11</ele>
        <time>2021-07-29T16:48:14Z</time>
      </trkpt>
      <trkpt lat="49.37714" lon="0.632">
        <ele>124.15</ele>
        <time>2021-07-29T16:48:15Z</time>
      </trkpt>
      <trkpt lat="49.37723" lon="0.6319">
        <ele>124.63</ele>
        <time>2021-07-29T16:48:16Z</time>
      </trkpt>
      <trkpt lat="49.37733" lon="0.6318">
        <ele>125.11</ele>
        <time>2021-07-29T16:48:17Z</time>
      </trkpt>
      <trkpt lat="49.37743" lon="0.63172">
        <ele>125.11</ele>
        <time>2021-07-29T16:48:18Z</time>
      </trkpt>
      <trkpt lat="49.37774" lon="0.6315">
        <ele>125.59</ele>
        <time>2021-07-29T16:48:21Z</time>
      </trkpt>
      <trkpt lat="49.37786" lon="0.63142">
        <ele>126.07</ele>
        <time>2021-07-29T16:48:22Z</time>
      </trkpt>
      <trkpt lat="49.37796" lon="0.63135">
        <ele>126.55</ele>
        <time>2021-07-29T16:48:23Z</time>
      </trkpt>
      <trkpt lat="49.37804" lon="0.63123">
        <ele>127.03</ele>
        <time>2021-07-29T16:48:24Z</time>
      </trkpt>
      <trkpt lat="49.37811" lon="0.63111">
        <ele>127.51</ele>
        <time>2021-07-29T16:48:25Z</time>
      </trkpt>
      <trkpt lat="49.37816" lon="0.63096">
        <ele>127.51</ele>
        <time>2021-07-29T16:48:26Z</time>
      </trkpt>
      <trkpt lat="49.37818" lon="0.63079">
        <ele>125.59</ele>
        <time>2021-07-29T16:48:27Z</time>
      </trkpt>
      <trkpt lat="49.37817" lon="0.63063">
        <ele>125.59</ele>
        <time>2021-07-29T16:48:28Z</time>
      </trkpt>
      <trkpt lat="49.37816" lon="0.63046">
        <ele>125.59</ele>
        <time>2021-07-29T16:48:29Z</time>
      </trkpt>
      <trkpt lat="49.37813" lon="0.6303">
        <ele>126.55</ele>
        <time>2021-07-29T16:48:30Z</time>
      </trkpt>
      <trkpt lat="49.37807" lon="0.63015">
        <ele>127.03</ele>
        <time>2021-07-29T16:48:31Z</time>
      </trkpt>
      <trkpt lat="49.37801" lon="0.62999">
        <ele>127.03</ele>
        <time>2021-07-29T16:48:32Z</time>
      </trkpt>
      <trkpt lat="49.37751" lon="0.62867">
        <ele>127.03</ele>
        <time>2021-07-29T16:48:39Z</time>
      </trkpt>
      <trkpt lat="49.37751" lon="0.62867">
        <ele>126.07</ele>
        <time>2021-07-29T16:48:40Z</time>
      </trkpt>
      <trkpt lat="49.37746" lon="0.62827">
        <ele>125.59</ele>
        <time>2021-07-29T16:48:41Z</time>
      </trkpt>
      <trkpt lat="49.37745" lon="0.62806">
        <ele>125.11</ele>
        <time>2021-07-29T16:48:42Z</time>
      </trkpt>
      <trkpt lat="49.37745" lon="0.62806">
        <ele>124.15</ele>
        <time>2021-07-29T16:48:43Z</time>
      </trkpt>
      <trkpt lat="49.37745" lon="0.62763">
        <ele>123.67</ele>
        <time>2021-07-29T16:48:44Z</time>
      </trkpt>
      <trkpt lat="49.37748" lon="0.6274">
        <ele>123.19</ele>
        <time>2021-07-29T16:48:45Z</time>
      </trkpt>
      <trkpt lat="49.37748" lon="0.6274">
        <ele>123.19</ele>
        <time>2021-07-29T16:48:46Z</time>
      </trkpt>
      <trkpt lat="49.37773" lon="0.62607">
        <ele>124.15</ele>
        <time>2021-07-29T16:48:54Z</time>
      </trkpt>
      <trkpt lat="49.37786" lon="0.62555">
        <ele>124.15</ele>
        <time>2021-07-29T16:49:01Z</time>
      </trkpt>
      <trkpt lat="49.37798" lon="0.62515">
        <ele>123.67</ele>
        <time>2021-07-29T16:49:09Z</time>
      </trkpt>
      <trkpt lat="49.37829" lon="0.62429">
        <ele>124.15</ele>
        <time>2021-07-29T16:49:17Z</time>
      </trkpt>
      <trkpt lat="49.37888" lon="0.6226">
        <ele>127.03</ele>
        <time>2021-07-29T16:49:29Z</time>
      </trkpt>
      <trkpt lat="49.37889" lon="0.62226">
        <ele>127.99</ele>
        <time>2021-07-29T16:49:38Z</time>
      </trkpt>
      <trkpt lat="49.37899" lon="0.62212">
        <ele>128.95</ele>
        <time>2021-07-29T16:49:41Z</time>
      </trkpt>
      <trkpt lat="49.37902" lon="0.62208">
        <ele>128.95</ele>
        <time>2021-07-29T16:49:42Z</time>
      </trkpt>
      <trkpt lat="49.37903" lon="0.62196">
        <ele>128.95</ele>
        <time>2021-07-29T16:49:43Z</time>
      </trkpt>
      <trkpt lat="49.37903" lon="0.62188">
        <ele>128.95</ele>
        <time>2021-07-29T16:49:44Z</time>
      </trkpt>
      <trkpt lat="49.37902" lon="0.6218">
        <ele>128.95</ele>
        <time>2021-07-29T16:49:45Z</time>
      </trkpt>
      <trkpt lat="49.37897" lon="0.62172">
        <ele>128.95</ele>
        <time>2021-07-29T16:49:46Z</time>
      </trkpt>
      <trkpt lat="49.37891" lon="0.62168">
        <ele>128.47</ele>
        <time>2021-07-29T16:49:47Z</time>
      </trkpt>
      <trkpt lat="49.37886" lon="0.62166">
        <ele>128.47</ele>
        <time>2021-07-29T16:49:48Z</time>
      </trkpt>
      <trkpt lat="49.3788" lon="0.6217">
        <ele>128.47</ele>
        <time>2021-07-29T16:49:49Z</time>
      </trkpt>
      <trkpt lat="49.37875" lon="0.62174">
        <ele>128.95</ele>
        <time>2021-07-29T16:49:50Z</time>
      </trkpt>
      <trkpt lat="49.37871" lon="0.62184">
        <ele>128.95</ele>
        <time>2021-07-29T16:49:51Z</time>
      </trkpt>
      <trkpt lat="49.37871" lon="0.62194">
        <ele>129.43</ele>
        <time>2021-07-29T16:49:52Z</time>
      </trkpt>
      <trkpt lat="49.37856" lon="0.62216">
        <ele>129.43</ele>
        <time>2021-07-29T16:49:53Z</time>
      </trkpt>
      <trkpt lat="49.37847" lon="0.62222">
        <ele>129.43</ele>
        <time>2021-07-29T16:49:54Z</time>
      </trkpt>
      <trkpt lat="49.37739" lon="0.62308">
        <ele>128.47</ele>
        <time>2021-07-29T16:50:06Z</time>
      </trkpt>
      <trkpt lat="49.37721" lon="0.62322">
        <ele>129.43</ele>
        <time>2021-07-29T16:50:08Z</time>
      </trkpt>
      <trkpt lat="49.37713" lon="0.62328">
        <ele>129.43</ele>
        <time>2021-07-29T16:50:09Z</time>
      </trkpt>
      <trkpt lat="49.37701" lon="0.62338">
        <ele>129.43</ele>
        <time>2021-07-29T16:50:10Z</time>
      </trkpt>
      <trkpt lat="49.3769" lon="0.62328">
        <ele>128.95</ele>
        <time>2021-07-29T16:50:12Z</time>
      </trkpt>
      <trkpt lat="49.37684" lon="0.62328">
        <ele>128.95</ele>
        <time>2021-07-29T16:50:13Z</time>
      </trkpt>
      <trkpt lat="49.37679" lon="0.62331">
        <ele>128.47</ele>
        <time>2021-07-29T16:50:14Z</time>
      </trkpt>
      <trkpt lat="49.37676" lon="0.62337">
        <ele>128.95</ele>
        <time>2021-07-29T16:50:15Z</time>
      </trkpt>
      <trkpt lat="49.37673" lon="0.62344">
        <ele>128.95</ele>
        <time>2021-07-29T16:50:16Z</time>
      </trkpt>
      <trkpt lat="49.37672" lon="0.62345">
        <ele>128.95</ele>
        <time>2021-07-29T16:50:17Z</time>
      </trkpt>
      <trkpt lat="49.37672" lon="0.62345">
        <ele>128.95</ele>
        <time>2021-07-29T16:50:18Z</time>
      </trkpt>
      <trkpt lat="49.37663" lon="0.62378">
        <ele>129.43</ele>
        <time>2021-07-29T16:50:19Z</time>
      </trkpt>
      <trkpt lat="49.37656" lon="0.62384">
        <ele>128.95</ele>
        <time>2021-07-29T16:50:20Z</time>
      </trkpt>
      <trkpt lat="49.37555" lon="0.6247">
        <ele>128.47</ele>
        <time>2021-07-29T16:50:30Z</time>
      </trkpt>
      <trkpt lat="49.37368" lon="0.62642">
        <ele>131.36</ele>
        <time>2021-07-29T16:50:44Z</time>
      </trkpt>
      <trkpt lat="49.3712" lon="0.62866">
        <ele>131.36</ele>
        <time>2021-07-29T16:51:00Z</time>
      </trkpt>
      <trkpt lat="49.36911" lon="0.63029">
        <ele>131.36</ele>
        <time>2021-07-29T16:51:12Z</time>
      </trkpt>
      <trkpt lat="49.36742" lon="0.63152">
        <ele>133.76</ele>
        <time>2021-07-29T16:51:24Z</time>
      </trkpt>
      <trkpt lat="49.36501" lon="0.63327">
        <ele>132.8</ele>
        <time>2021-07-29T16:51:38Z</time>
      </trkpt>
      <trkpt lat="49.36185" lon="0.6354">
        <ele>133.76</ele>
        <time>2021-07-29T16:51:55Z</time>
      </trkpt>
      <trkpt lat="49.35852" lon="0.63697">
        <ele>131.84</ele>
        <time>2021-07-29T16:52:12Z</time>
      </trkpt>
      <trkpt lat="49.35638" lon="0.63776">
        <ele>132.32</ele>
        <time>2021-07-29T16:52:24Z</time>
      </trkpt>
      <trkpt lat="49.35565" lon="0.63789">
        <ele>131.84</ele>
        <time>2021-07-29T16:52:31Z</time>
      </trkpt>
      <trkpt lat="49.35554" lon="0.63791">
        <ele>132.32</ele>
        <time>2021-07-29T16:52:37Z</time>
      </trkpt>
      <trkpt lat="49.35551" lon="0.63791">
        <ele>132.32</ele>
        <time>2021-07-29T16:52:40Z</time>
      </trkpt>
      <trkpt lat="49.35547" lon="0.6379">
        <ele>132.8</ele>
        <time>2021-07-29T16:52:41Z</time>
      </trkpt>
      <trkpt lat="49.35543" lon="0.63785">
        <ele>132.8</ele>
        <time>2021-07-29T16:52:42Z</time>
      </trkpt>
      <trkpt lat="49.35539" lon="0.63779">
        <ele>132.8</ele>
        <time>2021-07-29T16:52:43Z</time>
      </trkpt>
      <trkpt lat="49.35535" lon="0.63773">
        <ele>132.8</ele>
        <time>2021-07-29T16:52:44Z</time>
      </trkpt>
      <trkpt lat="49.35526" lon="0.63753">
        <ele>132.8</ele>
        <time>2021-07-29T16:52:45Z</time>
      </trkpt>
      <trkpt lat="49.35526" lon="0.63753">
        <ele>132.32</ele>
        <time>2021-07-29T16:52:46Z</time>
      </trkpt>
      <trkpt lat="49.35521" lon="0.63723">
        <ele>132.8</ele>
        <time>2021-07-29T16:52:47Z</time>
      </trkpt>
      <trkpt lat="49.35496" lon="0.63579">
        <ele>133.28</ele>
        <time>2021-07-29T16:52:56Z</time>
      </trkpt>
      <trkpt lat="49.35473" lon="0.63284">
        <ele>133.28</ele>
        <time>2021-07-29T16:53:09Z</time>
      </trkpt>
      <trkpt lat="49.35442" lon="0.62878">
        <ele>129.92</ele>
        <time>2021-07-29T16:53:24Z</time>
      </trkpt>
      <trkpt lat="49.35401" lon="0.62343">
        <ele>127.99</ele>
        <time>2021-07-29T16:53:41Z</time>
      </trkpt>
      <trkpt lat="49.35353" lon="0.61693">
        <ele>120.3</ele>
        <time>2021-07-29T16:54:01Z</time>
      </trkpt>
      <trkpt lat="49.35311" lon="0.61147">
        <ele>117.42</ele>
        <time>2021-07-29T16:54:18Z</time>
      </trkpt>
      <trkpt lat="49.35272" lon="0.60611">
        <ele>113.09</ele>
        <time>2021-07-29T16:54:35Z</time>
      </trkpt>
      <trkpt lat="49.35253" lon="0.60531">
        <ele>111.17</ele>
        <time>2021-07-29T16:54:38Z</time>
      </trkpt>
      <trkpt lat="49.35243" lon="0.60503">
        <ele>110.21</ele>
        <time>2021-07-29T16:54:39Z</time>
      </trkpt>
      <trkpt lat="49.35234" lon="0.60477">
        <ele>109.25</ele>
        <time>2021-07-29T16:54:40Z</time>
      </trkpt>
      <trkpt lat="49.35137" lon="0.60286">
        <ele>103.48</ele>
        <time>2021-07-29T16:54:47Z</time>
      </trkpt>
      <trkpt lat="49.35137" lon="0.60286">
        <ele>101.56</ele>
        <time>2021-07-29T16:54:48Z</time>
      </trkpt>
      <trkpt lat="49.3512" lon="0.6027">
        <ele>101.56</ele>
        <time>2021-07-29T16:54:49Z</time>
      </trkpt>
      <trkpt lat="49.35103" lon="0.60255">
        <ele>100.11</ele>
        <time>2021-07-29T16:54:50Z</time>
      </trkpt>
      <trkpt lat="49.35086" lon="0.60241">
        <ele>98.67</ele>
        <time>2021-07-29T16:54:51Z</time>
      </trkpt>
      <trkpt lat="49.34991" lon="0.60179">
        <ele>93.87</ele>
        <time>2021-07-29T16:54:56Z</time>
      </trkpt>
      <trkpt lat="49.34974" lon="0.60162">
        <ele>92.42</ele>
        <time>2021-07-29T16:54:57Z</time>
      </trkpt>
      <trkpt lat="49.34959" lon="0.60143">
        <ele>90.5</ele>
        <time>2021-07-29T16:54:58Z</time>
      </trkpt>
      <trkpt lat="49.34944" lon="0.60123">
        <ele>88.58</ele>
        <time>2021-07-29T16:54:59Z</time>
      </trkpt>
      <trkpt lat="49.34932" lon="0.60098">
        <ele>87.62</ele>
        <time>2021-07-29T16:55:00Z</time>
      </trkpt>
      <trkpt lat="49.34912" lon="0.60044">
        <ele>86.18</ele>
        <time>2021-07-29T16:55:01Z</time>
      </trkpt>
      <trkpt lat="49.34912" lon="0.60044">
        <ele>84.73</ele>
        <time>2021-07-29T16:55:02Z</time>
      </trkpt>
      <trkpt lat="49.34907" lon="0.60016">
        <ele>83.29</ele>
        <time>2021-07-29T16:55:03Z</time>
      </trkpt>
      <trkpt lat="49.34902" lon="0.59986">
        <ele>81.37</ele>
        <time>2021-07-29T16:55:04Z</time>
      </trkpt>
      <trkpt lat="49.34898" lon="0.59957">
        <ele>80.41</ele>
        <time>2021-07-29T16:55:05Z</time>
      </trkpt>
      <trkpt lat="49.34878" lon="0.5984">
        <ele>75.6</ele>
        <time>2021-07-29T16:55:09Z</time>
      </trkpt>
      <trkpt lat="49.34871" lon="0.59812">
        <ele>74.64</ele>
        <time>2021-07-29T16:55:10Z</time>
      </trkpt>
      <trkpt lat="49.34862" lon="0.59786">
        <ele>73.2</ele>
        <time>2021-07-29T16:55:11Z</time>
      </trkpt>
      <trkpt lat="49.3485" lon="0.5976">
        <ele>72.24</ele>
        <time>2021-07-29T16:55:12Z</time>
      </trkpt>
      <trkpt lat="49.34839" lon="0.59735">
        <ele>71.27</ele>
        <time>2021-07-29T16:55:13Z</time>
      </trkpt>
      <trkpt lat="49.34825" lon="0.59719">
        <ele>70.31</ele>
        <time>2021-07-29T16:55:14Z</time>
      </trkpt>
      <trkpt lat="49.34809" lon="0.59702">
        <ele>68.87</ele>
        <time>2021-07-29T16:55:15Z</time>
      </trkpt>
      <trkpt lat="49.34777" lon="0.5967">
        <ele>67.91</ele>
        <time>2021-07-29T16:55:16Z</time>
      </trkpt>
      <trkpt lat="49.34777" lon="0.5967">
        <ele>66.95</ele>
        <time>2021-07-29T16:55:17Z</time>
      </trkpt>
      <trkpt lat="49.3469" lon="0.59602">
        <ele>61.66</ele>
        <time>2021-07-29T16:55:22Z</time>
      </trkpt>
      <trkpt lat="49.34674" lon="0.59583">
        <ele>60.22</ele>
        <time>2021-07-29T16:55:23Z</time>
      </trkpt>
      <trkpt lat="49.34661" lon="0.59561">
        <ele>59.26</ele>
        <time>2021-07-29T16:55:24Z</time>
      </trkpt>
      <trkpt lat="49.34649" lon="0.59537">
        <ele>58.3</ele>
        <time>2021-07-29T16:55:25Z</time>
      </trkpt>
      <trkpt lat="49.34638" lon="0.59511">
        <ele>57.34</ele>
        <time>2021-07-29T16:55:26Z</time>
      </trkpt>
      <trkpt lat="49.34464" lon="0.59125">
        <ele>40.03</ele>
        <time>2021-07-29T16:55:41Z</time>
      </trkpt>
      <trkpt lat="49.34349" lon="0.58918">
        <ele>29.46</ele>
        <time>2021-07-29T16:55:51Z</time>
      </trkpt>
      <trkpt lat="49.34316" lon="0.58863">
        <ele>28.98</ele>
        <time>2021-07-29T16:55:56Z</time>
      </trkpt>
      <trkpt lat="49.34311" lon="0.58856">
        <ele>28.5</ele>
        <time>2021-07-29T16:55:57Z</time>
      </trkpt>
      <trkpt lat="49.34311" lon="0.58816">
        <ele>28.98</ele>
        <time>2021-07-29T16:56:00Z</time>
      </trkpt>
      <trkpt lat="49.34306" lon="0.5881">
        <ele>28.98</ele>
        <time>2021-07-29T16:56:01Z</time>
      </trkpt>
      <trkpt lat="49.3429" lon="0.58804">
        <ele>28.98</ele>
        <time>2021-07-29T16:56:03Z</time>
      </trkpt>
      <trkpt lat="49.3429" lon="0.58796">
        <ele>28.98</ele>
        <time>2021-07-29T16:56:04Z</time>
      </trkpt>
      <trkpt lat="49.34289" lon="0.58787">
        <ele>28.5</ele>
        <time>2021-07-29T16:56:05Z</time>
      </trkpt>
      <trkpt lat="49.34289" lon="0.58776">
        <ele>28.5</ele>
        <time>2021-07-29T16:56:06Z</time>
      </trkpt>
      <trkpt lat="49.3429" lon="0.58764">
        <ele>28.5</ele>
        <time>2021-07-29T16:56:07Z</time>
      </trkpt>
      <trkpt lat="49.34292" lon="0.58752">
        <ele>28.98</ele>
        <time>2021-07-29T16:56:08Z</time>
      </trkpt>
      <trkpt lat="49.34294" lon="0.58738">
        <ele>28.02</ele>
        <time>2021-07-29T16:56:09Z</time>
      </trkpt>
      <trkpt lat="49.34296" lon="0.58723">
        <ele>28.02</ele>
        <time>2021-07-29T16:56:10Z</time>
      </trkpt>
      <trkpt lat="49.3434" lon="0.58552">
        <ele>30.42</ele>
        <time>2021-07-29T16:56:21Z</time>
      </trkpt>
      <trkpt lat="49.34409" lon="0.58281">
        <ele>29.94</ele>
        <time>2021-07-29T16:56:34Z</time>
      </trkpt>
      <trkpt lat="49.34489" lon="0.57968">
        <ele>28.02</ele>
        <time>2021-07-29T16:56:49Z</time>
      </trkpt>
      <trkpt lat="49.34605" lon="0.5752">
        <ele>27.53</ele>
        <time>2021-07-29T16:57:08Z</time>
      </trkpt>
      <trkpt lat="49.34758" lon="0.56915">
        <ele>26.09</ele>
        <time>2021-07-29T16:57:33Z</time>
      </trkpt>
      <trkpt lat="49.34846" lon="0.56576">
        <ele>27.05</ele>
        <time>2021-07-29T16:57:48Z</time>
      </trkpt>
      <trkpt lat="49.34905" lon="0.56356">
        <ele>28.02</ele>
        <time>2021-07-29T16:57:57Z</time>
      </trkpt>
      <trkpt lat="49.35013" lon="0.55974">
        <ele>24.65</ele>
        <time>2021-07-29T16:58:14Z</time>
      </trkpt>
      <trkpt lat="49.35039" lon="0.55804">
        <ele>22.73</ele>
        <time>2021-07-29T16:58:22Z</time>
      </trkpt>
      <trkpt lat="49.35021" lon="0.55595">
        <ele>20.81</ele>
        <time>2021-07-29T16:58:31Z</time>
      </trkpt>
      <trkpt lat="49.34938" lon="0.55306">
        <ele>13.12</ele>
        <time>2021-07-29T16:58:43Z</time>
      </trkpt>
      <trkpt lat="49.34751" lon="0.54665">
        <ele>12.63</ele>
        <time>2021-07-29T16:59:08Z</time>
      </trkpt>
      <trkpt lat="49.34698" lon="0.54417">
        <ele>11.67</ele>
        <time>2021-07-29T16:59:18Z</time>
      </trkpt>
      <trkpt lat="49.34691" lon="0.54307">
        <ele>11.67</ele>
        <time>2021-07-29T16:59:25Z</time>
      </trkpt>
      <trkpt lat="49.3469" lon="0.5427">
        <ele>11.67</ele>
        <time>2021-07-29T16:59:30Z</time>
      </trkpt>
      <trkpt lat="49.34696" lon="0.54263">
        <ele>11.67</ele>
        <time>2021-07-29T16:59:31Z</time>
      </trkpt>
      <trkpt lat="49.34703" lon="0.54253">
        <ele>11.67</ele>
        <time>2021-07-29T16:59:33Z</time>
      </trkpt>
      <trkpt lat="49.34704" lon="0.54246">
        <ele>11.67</ele>
        <time>2021-07-29T16:59:34Z</time>
      </trkpt>
      <trkpt lat="49.34705" lon="0.54239">
        <ele>12.15</ele>
        <time>2021-07-29T16:59:35Z</time>
      </trkpt>
      <trkpt lat="49.34702" lon="0.54233">
        <ele>12.15</ele>
        <time>2021-07-29T16:59:36Z</time>
      </trkpt>
      <trkpt lat="49.34699" lon="0.54226">
        <ele>12.15</ele>
        <time>2021-07-29T16:59:37Z</time>
      </trkpt>
      <trkpt lat="49.34698" lon="0.54224">
        <ele>12.63</ele>
        <time>2021-07-29T16:59:38Z</time>
      </trkpt>
      <trkpt lat="49.34689" lon="0.54211">
        <ele>12.63</ele>
        <time>2021-07-29T16:59:39Z</time>
      </trkpt>
      <trkpt lat="49.34688" lon="0.54202">
        <ele>13.12</ele>
        <time>2021-07-29T16:59:40Z</time>
      </trkpt>
      <trkpt lat="49.34688" lon="0.54192">
        <ele>13.12</ele>
        <time>2021-07-29T16:59:41Z</time>
      </trkpt>
      <trkpt lat="49.34688" lon="0.54181">
        <ele>13.12</ele>
        <time>2021-07-29T16:59:42Z</time>
      </trkpt>
      <trkpt lat="49.34688" lon="0.54171">
        <ele>13.12</ele>
        <time>2021-07-29T16:59:43Z</time>
      </trkpt>
      <trkpt lat="49.34691" lon="0.54053">
        <ele>11.67</ele>
        <time>2021-07-29T16:59:51Z</time>
      </trkpt>
      <trkpt lat="49.34732" lon="0.53812">
        <ele>12.15</ele>
        <time>2021-07-29T17:00:03Z</time>
      </trkpt>
      <trkpt lat="49.34861" lon="0.53344">
        <ele>11.19</ele>
        <time>2021-07-29T17:00:24Z</time>
      </trkpt>
      <trkpt lat="49.34911" lon="0.53158">
        <ele>10.71</ele>
        <time>2021-07-29T17:00:35Z</time>
      </trkpt>
      <trkpt lat="49.3492" lon="0.53103">
        <ele>10.23</ele>
        <time>2021-07-29T17:00:43Z</time>
      </trkpt>
      <trkpt lat="49.3492" lon="0.53101">
        <ele>10.23</ele>
        <time>2021-07-29T17:01:00Z</time>
      </trkpt>
      <trkpt lat="49.34926" lon="0.53056">
        <ele>10.23</ele>
        <time>2021-07-29T17:01:08Z</time>
      </trkpt>
      <trkpt lat="49.34934" lon="0.52937">
        <ele>8.31</ele>
        <time>2021-07-29T17:01:17Z</time>
      </trkpt>
      <trkpt lat="49.34912" lon="0.52736">
        <ele>9.75</ele>
        <time>2021-07-29T17:01:29Z</time>
      </trkpt>
      <trkpt lat="49.34893" lon="0.52481">
        <ele>8.79</ele>
        <time>2021-07-29T17:01:43Z</time>
      </trkpt>
      <trkpt lat="49.34922" lon="0.52309">
        <ele>8.31</ele>
        <time>2021-07-29T17:01:52Z</time>
      </trkpt>
      <trkpt lat="49.34983" lon="0.52174">
        <ele>11.19</ele>
        <time>2021-07-29T17:02:01Z</time>
      </trkpt>
      <trkpt lat="49.35005" lon="0.52124">
        <ele>10.23</ele>
        <time>2021-07-29T17:02:07Z</time>
      </trkpt>
      <trkpt lat="49.35018" lon="0.52113">
        <ele>10.71</ele>
        <time>2021-07-29T17:02:16Z</time>
      </trkpt>
      <trkpt lat="49.35022" lon="0.52114">
        <ele>10.71</ele>
        <time>2021-07-29T17:02:17Z</time>
      </trkpt>
      <trkpt lat="49.35027" lon="0.52108">
        <ele>10.71</ele>
        <time>2021-07-29T17:02:18Z</time>
      </trkpt>
      <trkpt lat="49.35031" lon="0.52102">
        <ele>10.71</ele>
        <time>2021-07-29T17:02:19Z</time>
      </trkpt>
      <trkpt lat="49.35034" lon="0.52094">
        <ele>10.71</ele>
        <time>2021-07-29T17:02:20Z</time>
      </trkpt>
      <trkpt lat="49.35033" lon="0.52084">
        <ele>10.71</ele>
        <time>2021-07-29T17:02:21Z</time>
      </trkpt>
      <trkpt lat="49.35031" lon="0.52075">
        <ele>10.23</ele>
        <time>2021-07-29T17:02:22Z</time>
      </trkpt>
      <trkpt lat="49.35031" lon="0.52074">
        <ele>10.23</ele>
        <time>2021-07-29T17:02:23Z</time>
      </trkpt>
      <trkpt lat="49.35024" lon="0.52053">
        <ele>10.23</ele>
        <time>2021-07-29T17:02:24Z</time>
      </trkpt>
      <trkpt lat="49.35026" lon="0.52043">
        <ele>10.23</ele>
        <time>2021-07-29T17:02:25Z</time>
      </trkpt>
      <trkpt lat="49.35028" lon="0.52031">
        <ele>10.23</ele>
        <time>2021-07-29T17:02:26Z</time>
      </trkpt>
      <trkpt lat="49.3503" lon="0.52019">
        <ele>9.75</ele>
        <time>2021-07-29T17:02:27Z</time>
      </trkpt>
      <trkpt lat="49.35036" lon="0.51995">
        <ele>9.75</ele>
        <time>2021-07-29T17:02:28Z</time>
      </trkpt>
      <trkpt lat="49.35036" lon="0.51995">
        <ele>9.75</ele>
        <time>2021-07-29T17:02:29Z</time>
      </trkpt>
      <trkpt lat="49.35039" lon="0.51982">
        <ele>8.79</ele>
        <time>2021-07-29T17:02:30Z</time>
      </trkpt>
      <trkpt lat="49.35044" lon="0.51967">
        <ele>8.31</ele>
        <time>2021-07-29T17:02:31Z</time>
      </trkpt>
      <trkpt lat="49.3512" lon="0.5175">
        <ele>7.35</ele>
        <time>2021-07-29T17:02:45Z</time>
      </trkpt>
      <trkpt lat="49.35203" lon="0.51515">
        <ele>6.87</ele>
        <time>2021-07-29T17:03:00Z</time>
      </trkpt>
      <trkpt lat="49.35228" lon="0.51444">
        <ele>6.39</ele>
        <time>2021-07-29T17:03:09Z</time>
      </trkpt>
      <trkpt lat="49.35249" lon="0.51392">
        <ele>6.39</ele>
        <time>2021-07-29T17:03:20Z</time>
      </trkpt>
      <trkpt lat="49.35258" lon="0.51363">
        <ele>7.35</ele>
        <time>2021-07-29T17:03:27Z</time>
      </trkpt>
      <trkpt lat="49.3526" lon="0.51359">
        <ele>7.35</ele>
        <time>2021-07-29T17:03:28Z</time>
      </trkpt>
      <trkpt lat="49.35263" lon="0.51354">
        <ele>7.35</ele>
        <time>2021-07-29T17:03:29Z</time>
      </trkpt>
      <trkpt lat="49.35265" lon="0.51348">
        <ele>7.35</ele>
        <time>2021-07-29T17:03:30Z</time>
      </trkpt>
      <trkpt lat="49.35268" lon="0.51341">
        <ele>7.35</ele>
        <time>2021-07-29T17:03:31Z</time>
      </trkpt>
      <trkpt lat="49.35272" lon="0.51333">
        <ele>7.35</ele>
        <time>2021-07-29T17:03:32Z</time>
      </trkpt>
      <trkpt lat="49.35275" lon="0.51325">
        <ele>7.35</ele>
        <time>2021-07-29T17:03:33Z</time>
      </trkpt>
      <trkpt lat="49.35305" lon="0.51263">
        <ele>7.83</ele>
        <time>2021-07-29T17:03:44Z</time>
      </trkpt>
      <trkpt lat="49.35318" lon="0.51253">
        <ele>7.83</ele>
        <time>2021-07-29T17:04:10Z</time>
      </trkpt>
      <trkpt lat="49.35318" lon="0.51248">
        <ele>7.83</ele>
        <time>2021-07-29T17:04:11Z</time>
      </trkpt>
      <trkpt lat="49.35335" lon="0.51208">
        <ele>7.35</ele>
        <time>2021-07-29T17:04:17Z</time>
      </trkpt>
      <trkpt lat="49.3534" lon="0.51201">
        <ele>7.35</ele>
        <time>2021-07-29T17:04:18Z</time>
      </trkpt>
      <trkpt lat="49.35352" lon="0.5119">
        <ele>7.35</ele>
        <time>2021-07-29T17:04:19Z</time>
      </trkpt>
      <trkpt lat="49.35359" lon="0.51186">
        <ele>7.35</ele>
        <time>2021-07-29T17:04:20Z</time>
      </trkpt>
      <trkpt lat="49.35359" lon="0.51186">
        <ele>7.35</ele>
        <time>2021-07-29T17:04:21Z</time>
      </trkpt>
      <trkpt lat="49.35453" lon="0.51127">
        <ele>6.87</ele>
        <time>2021-07-29T17:04:34Z</time>
      </trkpt>
      <trkpt lat="49.3549" lon="0.5111">
        <ele>6.39</ele>
        <time>2021-07-29T17:04:40Z</time>
      </trkpt>
      <trkpt lat="49.35496" lon="0.51101">
        <ele>5.91</ele>
        <time>2021-07-29T17:04:41Z</time>
      </trkpt>
      <trkpt lat="49.35566" lon="0.51059">
        <ele>6.39</ele>
        <time>2021-07-29T17:04:50Z</time>
      </trkpt>
      <trkpt lat="49.35612" lon="0.51031">
        <ele>5.91</ele>
        <time>2021-07-29T17:04:58Z</time>
      </trkpt>
      <trkpt lat="49.35711" lon="0.50969">
        <ele>3.98</ele>
        <time>2021-07-29T17:05:11Z</time>
      </trkpt>
      <trkpt lat="49.35815" lon="0.50904">
        <ele>3.98</ele>
        <time>2021-07-29T17:05:25Z</time>
      </trkpt>
      <trkpt lat="49.35821" lon="0.50902">
        <ele>4.46</ele>
        <time>2021-07-29T17:05:26Z</time>
      </trkpt>
      <trkpt lat="49.35837" lon="0.50899">
        <ele>4.94</ele>
        <time>2021-07-29T17:05:32Z</time>
      </trkpt>
      <trkpt lat="49.35843" lon="0.50894">
        <ele>4.94</ele>
        <time>2021-07-29T17:05:35Z</time>
      </trkpt>
      <trkpt lat="49.35845" lon="0.50889">
        <ele>4.94</ele>
        <time>2021-07-29T17:05:36Z</time>
      </trkpt>
      <trkpt lat="49.35847" lon="0.50882">
        <ele>4.94</ele>
        <time>2021-07-29T17:05:37Z</time>
      </trkpt>
      <trkpt lat="49.3588" lon="0.50782">
        <ele>3.98</ele>
        <time>2021-07-29T17:05:45Z</time>
      </trkpt>
      <trkpt lat="49.35958" lon="0.50549">
        <ele>3.5</ele>
        <time>2021-07-29T17:06:01Z</time>
      </trkpt>
      <trkpt lat="49.35962" lon="0.50524">
        <ele>3.5</ele>
        <time>2021-07-29T17:06:06Z</time>
      </trkpt>
      <trkpt lat="49.35961" lon="0.50522">
        <ele>3.5</ele>
        <time>2021-07-29T17:06:07Z</time>
      </trkpt>
      <trkpt lat="49.35953" lon="0.50509">
        <ele>3.5</ele>
        <time>2021-07-29T17:06:08Z</time>
      </trkpt>
      <trkpt lat="49.35892" lon="0.50423">
        <ele>3.98</ele>
        <time>2021-07-29T17:06:19Z</time>
      </trkpt>
      <trkpt lat="49.35741" lon="0.5022">
        <ele>3.02</ele>
        <time>2021-07-29T17:06:37Z</time>
      </trkpt>
      <trkpt lat="49.3562" lon="0.50057">
        <ele>3.02</ele>
        <time>2021-07-29T17:06:53Z</time>
      </trkpt>
      <trkpt lat="49.35526" lon="0.49951">
        <ele>2.06</ele>
        <time>2021-07-29T17:07:06Z</time>
      </trkpt>
      <trkpt lat="49.35517" lon="0.49942">
        <ele>3.02</ele>
        <time>2021-07-29T17:07:08Z</time>
      </trkpt>
      <trkpt lat="49.35513" lon="0.49938">
        <ele>3.5</ele>
        <time>2021-07-29T17:07:09Z</time>
      </trkpt>
      <trkpt lat="49.35511" lon="0.49924">
        <ele>3.5</ele>
        <time>2021-07-29T17:07:10Z</time>
      </trkpt>
      <trkpt lat="49.3551" lon="0.49918">
        <ele>3.98</ele>
        <time>2021-07-29T17:07:11Z</time>
      </trkpt>
      <trkpt lat="49.35507" lon="0.49915">
        <ele>3.98</ele>
        <time>2021-07-29T17:07:12Z</time>
      </trkpt>
      <trkpt lat="49.35507" lon="0.49915">
        <ele>4.46</ele>
        <time>2021-07-29T17:07:13Z</time>
      </trkpt>
      <trkpt lat="49.355" lon="0.49917">
        <ele>3.98</ele>
        <time>2021-07-29T17:07:14Z</time>
      </trkpt>
      <trkpt lat="49.35483" lon="0.49911">
        <ele>3.98</ele>
        <time>2021-07-29T17:07:15Z</time>
      </trkpt>
      <trkpt lat="49.35477" lon="0.49906">
        <ele>3.5</ele>
        <time>2021-07-29T17:07:16Z</time>
      </trkpt>
      <trkpt lat="49.35471" lon="0.49901">
        <ele>3.5</ele>
        <time>2021-07-29T17:07:17Z</time>
      </trkpt>
      <trkpt lat="49.35464" lon="0.49895">
        <ele>3.5</ele>
        <time>2021-07-29T17:07:18Z</time>
      </trkpt>
      <trkpt lat="49.35464" lon="0.49895">
        <ele>3.98</ele>
        <time>2021-07-29T17:07:19Z</time>
      </trkpt>
      <trkpt lat="49.35352" lon="0.49808">
        <ele>4.94</ele>
        <time>2021-07-29T17:07:33Z</time>
      </trkpt>
      <trkpt lat="49.35289" lon="0.49744">
        <ele>6.39</ele>
        <time>2021-07-29T17:07:42Z</time>
      </trkpt>
      <trkpt lat="49.35281" lon="0.49733">
        <ele>7.83</ele>
        <time>2021-07-29T17:07:43Z</time>
      </trkpt>
      <trkpt lat="49.35274" lon="0.49719">
        <ele>9.27</ele>
        <time>2021-07-29T17:07:44Z</time>
      </trkpt>
      <trkpt lat="49.35268" lon="0.49704">
        <ele>9.75</ele>
        <time>2021-07-29T17:07:45Z</time>
      </trkpt>
      <trkpt lat="49.35264" lon="0.49688">
        <ele>9.75</ele>
        <time>2021-07-29T17:07:46Z</time>
      </trkpt>
      <trkpt lat="49.35259" lon="0.49671">
        <ele>11.19</ele>
        <time>2021-07-29T17:07:47Z</time>
      </trkpt>
      <trkpt lat="49.35256" lon="0.49652">
        <ele>11.67</ele>
        <time>2021-07-29T17:07:48Z</time>
      </trkpt>
      <trkpt lat="49.35255" lon="0.49631">
        <ele>13.12</ele>
        <time>2021-07-29T17:07:49Z</time>
      </trkpt>
      <trkpt lat="49.35255" lon="0.49611">
        <ele>14.08</ele>
        <time>2021-07-29T17:07:50Z</time>
      </trkpt>
      <trkpt lat="49.35254" lon="0.49589">
        <ele>14.56</ele>
        <time>2021-07-29T17:07:51Z</time>
      </trkpt>
      <trkpt lat="49.35257" lon="0.49568">
        <ele>15.52</ele>
        <time>2021-07-29T17:07:52Z</time>
      </trkpt>
      <trkpt lat="49.3526" lon="0.49545">
        <ele>16</ele>
        <time>2021-07-29T17:07:53Z</time>
      </trkpt>
      <trkpt lat="49.3529" lon="0.49401">
        <ele>20.81</ele>
        <time>2021-07-29T17:08:01Z</time>
      </trkpt>
      <trkpt lat="49.35298" lon="0.49362">
        <ele>22.25</ele>
        <time>2021-07-29T17:08:04Z</time>
      </trkpt>
      <trkpt lat="49.353" lon="0.4935">
        <ele>22.25</ele>
        <time>2021-07-29T17:08:05Z</time>
      </trkpt>
      <trkpt lat="49.35306" lon="0.49308">
        <ele>21.77</ele>
        <time>2021-07-29T17:08:08Z</time>
      </trkpt>
      <trkpt lat="49.35308" lon="0.49291">
        <ele>21.77</ele>
        <time>2021-07-29T17:08:09Z</time>
      </trkpt>
      <trkpt lat="49.35309" lon="0.49274">
        <ele>22.25</ele>
        <time>2021-07-29T17:08:10Z</time>
      </trkpt>
      <trkpt lat="49.35314" lon="0.49257">
        <ele>22.25</ele>
        <time>2021-07-29T17:08:11Z</time>
      </trkpt>
      <trkpt lat="49.35319" lon="0.49239">
        <ele>22.25</ele>
        <time>2021-07-29T17:08:12Z</time>
      </trkpt>
      <trkpt lat="49.3541" lon="0.49019">
        <ele>18.88</ele>
        <time>2021-07-29T17:08:24Z</time>
      </trkpt>
      <trkpt lat="49.35492" lon="0.48826">
        <ele>18.4</ele>
        <time>2021-07-29T17:08:35Z</time>
      </trkpt>
      <trkpt lat="49.35613" lon="0.4853">
        <ele>14.56</ele>
        <time>2021-07-29T17:08:50Z</time>
      </trkpt>
      <trkpt lat="49.3571" lon="0.48295">
        <ele>14.08</ele>
        <time>2021-07-29T17:08:59Z</time>
      </trkpt>
      <trkpt lat="49.35871" lon="0.479">
        <ele>12.15</ele>
        <time>2021-07-29T17:09:15Z</time>
      </trkpt>
      <trkpt lat="49.36052" lon="0.47466">
        <ele>11.19</ele>
        <time>2021-07-29T17:09:34Z</time>
      </trkpt>
      <trkpt lat="49.36198" lon="0.4711">
        <ele>14.56</ele>
        <time>2021-07-29T17:09:51Z</time>
      </trkpt>
      <trkpt lat="49.36265" lon="0.46921">
        <ele>8.79</ele>
        <time>2021-07-29T17:10:01Z</time>
      </trkpt>
      <trkpt lat="49.36298" lon="0.46849">
        <ele>9.27</ele>
        <time>2021-07-29T17:10:06Z</time>
      </trkpt>
      <trkpt lat="49.36302" lon="0.46838">
        <ele>10.71</ele>
        <time>2021-07-29T17:10:07Z</time>
      </trkpt>
      <trkpt lat="49.36304" lon="0.46825">
        <ele>11.67</ele>
        <time>2021-07-29T17:10:08Z</time>
      </trkpt>
      <trkpt lat="49.36307" lon="0.46811">
        <ele>12.15</ele>
        <time>2021-07-29T17:10:09Z</time>
      </trkpt>
      <trkpt lat="49.3631" lon="0.46796">
        <ele>11.67</ele>
        <time>2021-07-29T17:10:10Z</time>
      </trkpt>
      <trkpt lat="49.36314" lon="0.46782">
        <ele>11.19</ele>
        <time>2021-07-29T17:10:11Z</time>
      </trkpt>
      <trkpt lat="49.36316" lon="0.46737">
        <ele>9.27</ele>
        <time>2021-07-29T17:10:14Z</time>
      </trkpt>
      <trkpt lat="49.36321" lon="0.46702">
        <ele>9.27</ele>
        <time>2021-07-29T17:10:17Z</time>
      </trkpt>
      <trkpt lat="49.36323" lon="0.46694">
        <ele>8.79</ele>
        <time>2021-07-29T17:10:18Z</time>
      </trkpt>
      <trkpt lat="49.36324" lon="0.46687">
        <ele>8.79</ele>
        <time>2021-07-29T17:10:19Z</time>
      </trkpt>
      <trkpt lat="49.36338" lon="0.46683">
        <ele>9.27</ele>
        <time>2021-07-29T17:10:20Z</time>
      </trkpt>
      <trkpt lat="49.36339" lon="0.46683">
        <ele>8.79</ele>
        <time>2021-07-29T17:10:21Z</time>
      </trkpt>
      <trkpt lat="49.36345" lon="0.4668">
        <ele>8.79</ele>
        <time>2021-07-29T17:10:22Z</time>
      </trkpt>
      <trkpt lat="49.36352" lon="0.46672">
        <ele>8.31</ele>
        <time>2021-07-29T17:10:23Z</time>
      </trkpt>
      <trkpt lat="49.36355" lon="0.46664">
        <ele>7.83</ele>
        <time>2021-07-29T17:10:24Z</time>
      </trkpt>
      <trkpt lat="49.36355" lon="0.46651">
        <ele>7.35</ele>
        <time>2021-07-29T17:10:25Z</time>
      </trkpt>
      <trkpt lat="49.3635" lon="0.46646">
        <ele>7.35</ele>
        <time>2021-07-29T17:10:26Z</time>
      </trkpt>
      <trkpt lat="49.36345" lon="0.4664">
        <ele>7.83</ele>
        <time>2021-07-29T17:10:27Z</time>
      </trkpt>
      <trkpt lat="49.3634" lon="0.46616">
        <ele>7.35</ele>
        <time>2021-07-29T17:10:28Z</time>
      </trkpt>
      <trkpt lat="49.36342" lon="0.46606">
        <ele>7.35</ele>
        <time>2021-07-29T17:10:29Z</time>
      </trkpt>
      <trkpt lat="49.36346" lon="0.46594">
        <ele>6.87</ele>
        <time>2021-07-29T17:10:30Z</time>
      </trkpt>
      <trkpt lat="49.36349" lon="0.46579">
        <ele>6.87</ele>
        <time>2021-07-29T17:10:31Z</time>
      </trkpt>
      <trkpt lat="49.36398" lon="0.46398">
        <ele>8.79</ele>
        <time>2021-07-29T17:10:43Z</time>
      </trkpt>
      <trkpt lat="49.36422" lon="0.46292">
        <ele>14.08</ele>
        <time>2021-07-29T17:10:50Z</time>
      </trkpt>
      <trkpt lat="49.36423" lon="0.46279">
        <ele>14.56</ele>
        <time>2021-07-29T17:10:51Z</time>
      </trkpt>
      <trkpt lat="49.36422" lon="0.46269">
        <ele>15.52</ele>
        <time>2021-07-29T17:10:52Z</time>
      </trkpt>
      <trkpt lat="49.3642" lon="0.46256">
        <ele>16.48</ele>
        <time>2021-07-29T17:10:53Z</time>
      </trkpt>
      <trkpt lat="49.36417" lon="0.46246">
        <ele>17.44</ele>
        <time>2021-07-29T17:10:54Z</time>
      </trkpt>
      <trkpt lat="49.36412" lon="0.46233">
        <ele>18.88</ele>
        <time>2021-07-29T17:10:55Z</time>
      </trkpt>
      <trkpt lat="49.36339" lon="0.46062">
        <ele>28.5</ele>
        <time>2021-07-29T17:11:07Z</time>
      </trkpt>
      <trkpt lat="49.36243" lon="0.45864">
        <ele>36.19</ele>
        <time>2021-07-29T17:11:17Z</time>
      </trkpt>
      <trkpt lat="49.36111" lon="0.45701">
        <ele>51.57</ele>
        <time>2021-07-29T17:11:28Z</time>
      </trkpt>
      <trkpt lat="49.36013" lon="0.45573">
        <ele>60.7</ele>
        <time>2021-07-29T17:11:35Z</time>
      </trkpt>
      <trkpt lat="49.36001" lon="0.45552">
        <ele>62.14</ele>
        <time>2021-07-29T17:11:36Z</time>
      </trkpt>
      <trkpt lat="49.35991" lon="0.45528">
        <ele>63.1</ele>
        <time>2021-07-29T17:11:37Z</time>
      </trkpt>
      <trkpt lat="49.35983" lon="0.45504">
        <ele>64.07</ele>
        <time>2021-07-29T17:11:38Z</time>
      </trkpt>
      <trkpt lat="49.35979" lon="0.45477">
        <ele>65.03</ele>
        <time>2021-07-29T17:11:39Z</time>
      </trkpt>
      <trkpt lat="49.35974" lon="0.45449">
        <ele>65.99</ele>
        <time>2021-07-29T17:11:40Z</time>
      </trkpt>
      <trkpt lat="49.35974" lon="0.45423">
        <ele>66.47</ele>
        <time>2021-07-29T17:11:41Z</time>
      </trkpt>
      <trkpt lat="49.35975" lon="0.45397">
        <ele>67.91</ele>
        <time>2021-07-29T17:11:42Z</time>
      </trkpt>
      <trkpt lat="49.35983" lon="0.45217">
        <ele>73.2</ele>
        <time>2021-07-29T17:11:49Z</time>
      </trkpt>
      <trkpt lat="49.35983" lon="0.45193">
        <ele>76.08</ele>
        <time>2021-07-29T17:11:50Z</time>
      </trkpt>
      <trkpt lat="49.35979" lon="0.45167">
        <ele>78.48</ele>
        <time>2021-07-29T17:11:51Z</time>
      </trkpt>
      <trkpt lat="49.35945" lon="0.44962">
        <ele>88.1</ele>
        <time>2021-07-29T17:11:58Z</time>
      </trkpt>
      <trkpt lat="49.35945" lon="0.44962">
        <ele>89.54</ele>
        <time>2021-07-29T17:11:59Z</time>
      </trkpt>
      <trkpt lat="49.35943" lon="0.44935">
        <ele>90.5</ele>
        <time>2021-07-29T17:12:00Z</time>
      </trkpt>
      <trkpt lat="49.35946" lon="0.44907">
        <ele>92.42</ele>
        <time>2021-07-29T17:12:01Z</time>
      </trkpt>
      <trkpt lat="49.3595" lon="0.4488">
        <ele>93.39</ele>
        <time>2021-07-29T17:12:02Z</time>
      </trkpt>
      <trkpt lat="49.35958" lon="0.44854">
        <ele>94.35</ele>
        <time>2021-07-29T17:12:03Z</time>
      </trkpt>
      <trkpt lat="49.35967" lon="0.4483">
        <ele>95.31</ele>
        <time>2021-07-29T17:12:04Z</time>
      </trkpt>
      <trkpt lat="49.35978" lon="0.44807">
        <ele>96.75</ele>
        <time>2021-07-29T17:12:05Z</time>
      </trkpt>
      <trkpt lat="49.35991" lon="0.44786">
        <ele>97.71</ele>
        <time>2021-07-29T17:12:06Z</time>
      </trkpt>
      <trkpt lat="49.36006" lon="0.44769">
        <ele>99.15</ele>
        <time>2021-07-29T17:12:07Z</time>
      </trkpt>
      <trkpt lat="49.36022" lon="0.44754">
        <ele>100.6</ele>
        <time>2021-07-29T17:12:08Z</time>
      </trkpt>
      <trkpt lat="49.36188" lon="0.44581">
        <ele>114.05</ele>
        <time>2021-07-29T17:12:18Z</time>
      </trkpt>
      <trkpt lat="49.36188" lon="0.44581">
        <ele>114.05</ele>
        <time>2021-07-29T17:12:19Z</time>
      </trkpt>
      <trkpt lat="49.36197" lon="0.4456">
        <ele>115.5</ele>
        <time>2021-07-29T17:12:20Z</time>
      </trkpt>
      <trkpt lat="49.36206" lon="0.44537">
        <ele>116.94</ele>
        <time>2021-07-29T17:12:21Z</time>
      </trkpt>
      <trkpt lat="49.36212" lon="0.44511">
        <ele>117.42</ele>
        <time>2021-07-29T17:12:22Z</time>
      </trkpt>
      <trkpt lat="49.36215" lon="0.44486">
        <ele>116.94</ele>
        <time>2021-07-29T17:12:23Z</time>
      </trkpt>
      <trkpt lat="49.36217" lon="0.44458">
        <ele>116.46</ele>
        <time>2021-07-29T17:12:24Z</time>
      </trkpt>
      <trkpt lat="49.36241" lon="0.44118">
        <ele>122.22</ele>
        <time>2021-07-29T17:12:35Z</time>
      </trkpt>
      <trkpt lat="49.36276" lon="0.43637">
        <ele>124.63</ele>
        <time>2021-07-29T17:12:51Z</time>
      </trkpt>
      <trkpt lat="49.36334" lon="0.42839">
        <ele>125.59</ele>
        <time>2021-07-29T17:13:18Z</time>
      </trkpt>
      <trkpt lat="49.36377" lon="0.42238">
        <ele>118.86</ele>
        <time>2021-07-29T17:13:37Z</time>
      </trkpt>
      <trkpt lat="49.36432" lon="0.41455">
        <ele>116.46</ele>
        <time>2021-07-29T17:14:02Z</time>
      </trkpt>
      <trkpt lat="49.36452" lon="0.41185">
        <ele>117.42</ele>
        <time>2021-07-29T17:14:14Z</time>
      </trkpt>
      <trkpt lat="49.36472" lon="0.41073">
        <ele>115.5</ele>
        <time>2021-07-29T17:14:21Z</time>
      </trkpt>
      <trkpt lat="49.3651" lon="0.40874">
        <ele>114.53</ele>
        <time>2021-07-29T17:14:37Z</time>
      </trkpt>
      <trkpt lat="49.36511" lon="0.40854">
        <ele>114.05</ele>
        <time>2021-07-29T17:14:40Z</time>
      </trkpt>
      <trkpt lat="49.3651" lon="0.40842">
        <ele>114.05</ele>
        <time>2021-07-29T17:14:41Z</time>
      </trkpt>
      <trkpt lat="49.3651" lon="0.40842">
        <ele>114.05</ele>
        <time>2021-07-29T17:14:42Z</time>
      </trkpt>
      <trkpt lat="49.36509" lon="0.40835">
        <ele>114.05</ele>
        <time>2021-07-29T17:14:43Z</time>
      </trkpt>
      <trkpt lat="49.36508" lon="0.40831">
        <ele>114.05</ele>
        <time>2021-07-29T17:14:44Z</time>
      </trkpt>
      <trkpt lat="49.365" lon="0.40817">
        <ele>114.05</ele>
        <time>2021-07-29T17:14:45Z</time>
      </trkpt>
      <trkpt lat="49.36449" lon="0.40716">
        <ele>114.05</ele>
        <time>2021-07-29T17:14:55Z</time>
      </trkpt>
      <trkpt lat="49.36329" lon="0.40469">
        <ele>114.53</ele>
        <time>2021-07-29T17:15:11Z</time>
      </trkpt>
      <trkpt lat="49.36202" lon="0.40212">
        <ele>116.94</ele>
        <time>2021-07-29T17:15:25Z</time>
      </trkpt>
      <trkpt lat="49.36002" lon="0.39805">
        <ele>121.74</ele>
        <time>2021-07-29T17:15:45Z</time>
      </trkpt>
      <trkpt lat="49.35879" lon="0.39547">
        <ele>123.67</ele>
        <time>2021-07-29T17:15:59Z</time>
      </trkpt>
      <trkpt lat="49.35873" lon="0.39529">
        <ele>123.67</ele>
        <time>2021-07-29T17:16:00Z</time>
      </trkpt>
      <trkpt lat="49.35871" lon="0.3951">
        <ele>124.15</ele>
        <time>2021-07-29T17:16:01Z</time>
      </trkpt>
      <trkpt lat="49.35869" lon="0.39494">
        <ele>125.11</ele>
        <time>2021-07-29T17:16:02Z</time>
      </trkpt>
      <trkpt lat="49.35867" lon="0.39479">
        <ele>125.11</ele>
        <time>2021-07-29T17:16:03Z</time>
      </trkpt>
      <trkpt lat="49.35866" lon="0.39467">
        <ele>124.63</ele>
        <time>2021-07-29T17:16:04Z</time>
      </trkpt>
      <trkpt lat="49.35865" lon="0.39457">
        <ele>125.11</ele>
        <time>2021-07-29T17:16:05Z</time>
      </trkpt>
      <trkpt lat="49.35864" lon="0.39449">
        <ele>125.11</ele>
        <time>2021-07-29T17:16:06Z</time>
      </trkpt>
      <trkpt lat="49.35863" lon="0.39444">
        <ele>125.11</ele>
        <time>2021-07-29T17:16:07Z</time>
      </trkpt>
      <trkpt lat="49.3587" lon="0.39431">
        <ele>125.11</ele>
        <time>2021-07-29T17:16:08Z</time>
      </trkpt>
      <trkpt lat="49.35869" lon="0.39421">
        <ele>125.11</ele>
        <time>2021-07-29T17:16:09Z</time>
      </trkpt>
      <trkpt lat="49.35868" lon="0.39411">
        <ele>125.11</ele>
        <time>2021-07-29T17:16:10Z</time>
      </trkpt>
      <trkpt lat="49.35865" lon="0.39402">
        <ele>125.11</ele>
        <time>2021-07-29T17:16:11Z</time>
      </trkpt>
      <trkpt lat="49.3586" lon="0.39395">
        <ele>125.11</ele>
        <time>2021-07-29T17:16:12Z</time>
      </trkpt>
      <trkpt lat="49.35854" lon="0.3939">
        <ele>125.11</ele>
        <time>2021-07-29T17:16:13Z</time>
      </trkpt>
      <trkpt lat="49.35848" lon="0.3939">
        <ele>125.11</ele>
        <time>2021-07-29T17:16:14Z</time>
      </trkpt>
      <trkpt lat="49.35842" lon="0.3939">
        <ele>125.11</ele>
        <time>2021-07-29T17:16:15Z</time>
      </trkpt>
      <trkpt lat="49.35837" lon="0.39389">
        <ele>124.63</ele>
        <time>2021-07-29T17:16:16Z</time>
      </trkpt>
      <trkpt lat="49.35832" lon="0.39388">
        <ele>124.63</ele>
        <time>2021-07-29T17:16:17Z</time>
      </trkpt>
      <trkpt lat="49.35826" lon="0.39385">
        <ele>124.63</ele>
        <time>2021-07-29T17:16:18Z</time>
      </trkpt>
      <trkpt lat="49.35819" lon="0.39382">
        <ele>124.15</ele>
        <time>2021-07-29T17:16:19Z</time>
      </trkpt>
      <trkpt lat="49.35811" lon="0.39379">
        <ele>124.15</ele>
        <time>2021-07-29T17:16:20Z</time>
      </trkpt>
      <trkpt lat="49.35733" lon="0.39287">
        <ele>124.15</ele>
        <time>2021-07-29T17:16:29Z</time>
      </trkpt>
      <trkpt lat="49.35622" lon="0.39033">
        <ele>126.07</ele>
        <time>2021-07-29T17:16:43Z</time>
      </trkpt>
      <trkpt lat="49.35529" lon="0.38748">
        <ele>124.63</ele>
        <time>2021-07-29T17:16:56Z</time>
      </trkpt>
      <trkpt lat="49.35388" lon="0.38242">
        <ele>127.99</ele>
        <time>2021-07-29T17:17:17Z</time>
      </trkpt>
      <trkpt lat="49.35294" lon="0.37904">
        <ele>125.11</ele>
        <time>2021-07-29T17:17:31Z</time>
      </trkpt>
      <trkpt lat="49.35264" lon="0.37794">
        <ele>124.15</ele>
        <time>2021-07-29T17:17:39Z</time>
      </trkpt>
      <trkpt lat="49.35212" lon="0.37606">
        <ele>122.71</ele>
        <time>2021-07-29T17:17:55Z</time>
      </trkpt>
      <trkpt lat="49.35152" lon="0.3739">
        <ele>120.3</ele>
        <time>2021-07-29T17:18:08Z</time>
      </trkpt>
      <trkpt lat="49.35118" lon="0.37271">
        <ele>120.78</ele>
        <time>2021-07-29T17:18:18Z</time>
      </trkpt>
      <trkpt lat="49.3511" lon="0.37242">
        <ele>121.74</ele>
        <time>2021-07-29T17:18:26Z</time>
      </trkpt>
      <trkpt lat="49.35096" lon="0.37182">
        <ele>122.22</ele>
        <time>2021-07-29T17:18:36Z</time>
      </trkpt>
      <trkpt lat="49.35075" lon="0.37092">
        <ele>123.19</ele>
        <time>2021-07-29T17:18:49Z</time>
      </trkpt>
      <trkpt lat="49.35071" lon="0.37073">
        <ele>123.19</ele>
        <time>2021-07-29T17:18:51Z</time>
      </trkpt>
      <trkpt lat="49.3507" lon="0.37064">
        <ele>122.71</ele>
        <time>2021-07-29T17:18:52Z</time>
      </trkpt>
      <trkpt lat="49.35069" lon="0.37054">
        <ele>122.71</ele>
        <time>2021-07-29T17:18:53Z</time>
      </trkpt>
      <trkpt lat="49.35071" lon="0.37033">
        <ele>122.71</ele>
        <time>2021-07-29T17:18:55Z</time>
      </trkpt>
      <trkpt lat="49.35073" lon="0.37022">
        <ele>122.71</ele>
        <time>2021-07-29T17:18:56Z</time>
      </trkpt>
      <trkpt lat="49.35073" lon="0.3701">
        <ele>122.71</ele>
        <time>2021-07-29T17:18:57Z</time>
      </trkpt>
      <trkpt lat="49.35069" lon="0.36998">
        <ele>122.71</ele>
        <time>2021-07-29T17:18:58Z</time>
      </trkpt>
      <trkpt lat="49.35065" lon="0.36991">
        <ele>122.71</ele>
        <time>2021-07-29T17:18:59Z</time>
      </trkpt>
      <trkpt lat="49.35058" lon="0.36989">
        <ele>122.71</ele>
        <time>2021-07-29T17:19:00Z</time>
      </trkpt>
      <trkpt lat="49.35051" lon="0.36986">
        <ele>123.19</ele>
        <time>2021-07-29T17:19:01Z</time>
      </trkpt>
      <trkpt lat="49.35042" lon="0.3697">
        <ele>123.19</ele>
        <time>2021-07-29T17:19:02Z</time>
      </trkpt>
      <trkpt lat="49.35039" lon="0.36958">
        <ele>122.71</ele>
        <time>2021-07-29T17:19:03Z</time>
      </trkpt>
      <trkpt lat="49.34984" lon="0.36775">
        <ele>121.74</ele>
        <time>2021-07-29T17:19:14Z</time>
      </trkpt>
      <trkpt lat="49.34911" lon="0.36513">
        <ele>121.26</ele>
        <time>2021-07-29T17:19:30Z</time>
      </trkpt>
      <trkpt lat="49.34858" lon="0.36327">
        <ele>121.26</ele>
        <time>2021-07-29T17:19:44Z</time>
      </trkpt>
      <trkpt lat="49.34842" lon="0.36271">
        <ele>121.26</ele>
        <time>2021-07-29T17:19:52Z</time>
      </trkpt>
      <trkpt lat="49.34824" lon="0.36199">
        <ele>120.78</ele>
        <time>2021-07-29T17:20:04Z</time>
      </trkpt>
      <trkpt lat="49.34822" lon="0.36191">
        <ele>120.78</ele>
        <time>2021-07-29T17:20:05Z</time>
      </trkpt>
      <trkpt lat="49.3482" lon="0.36185">
        <ele>120.78</ele>
        <time>2021-07-29T17:20:06Z</time>
      </trkpt>
      <trkpt lat="49.34829" lon="0.36152">
        <ele>120.78</ele>
        <time>2021-07-29T17:20:11Z</time>
      </trkpt>
      <trkpt lat="49.34827" lon="0.36144">
        <ele>120.78</ele>
        <time>2021-07-29T17:20:12Z</time>
      </trkpt>
      <trkpt lat="49.34825" lon="0.36139">
        <ele>120.78</ele>
        <time>2021-07-29T17:20:13Z</time>
      </trkpt>
      <trkpt lat="49.34822" lon="0.36133">
        <ele>120.78</ele>
        <time>2021-07-29T17:20:14Z</time>
      </trkpt>
      <trkpt lat="49.34818" lon="0.3613">
        <ele>120.3</ele>
        <time>2021-07-29T17:20:15Z</time>
      </trkpt>
      <trkpt lat="49.34813" lon="0.3613">
        <ele>120.3</ele>
        <time>2021-07-29T17:20:16Z</time>
      </trkpt>
      <trkpt lat="49.34808" lon="0.36129">
        <ele>120.78</ele>
        <time>2021-07-29T17:20:17Z</time>
      </trkpt>
      <trkpt lat="49.34804" lon="0.36128">
        <ele>120.78</ele>
        <time>2021-07-29T17:20:18Z</time>
      </trkpt>
      <trkpt lat="49.348" lon="0.36134">
        <ele>120.3</ele>
        <time>2021-07-29T17:20:19Z</time>
      </trkpt>
      <trkpt lat="49.34797" lon="0.36141">
        <ele>119.82</ele>
        <time>2021-07-29T17:20:20Z</time>
      </trkpt>
      <trkpt lat="49.34795" lon="0.36148">
        <ele>119.82</ele>
        <time>2021-07-29T17:20:21Z</time>
      </trkpt>
      <trkpt lat="49.34795" lon="0.36156">
        <ele>119.34</ele>
        <time>2021-07-29T17:20:22Z</time>
      </trkpt>
      <trkpt lat="49.34796" lon="0.36165">
        <ele>119.34</ele>
        <time>2021-07-29T17:20:23Z</time>
      </trkpt>
      <trkpt lat="49.34799" lon="0.36172">
        <ele>119.34</ele>
        <time>2021-07-29T17:20:24Z</time>
      </trkpt>
      <trkpt lat="49.34804" lon="0.36179">
        <ele>119.34</ele>
        <time>2021-07-29T17:20:25Z</time>
      </trkpt>
      <trkpt lat="49.3482" lon="0.36187">
        <ele>119.34</ele>
        <time>2021-07-29T17:20:27Z</time>
      </trkpt>
      <trkpt lat="49.34823" lon="0.36196">
        <ele>119.34</ele>
        <time>2021-07-29T17:20:28Z</time>
      </trkpt>
      <trkpt lat="49.34862" lon="0.3634">
        <ele>120.3</ele>
        <time>2021-07-29T17:20:41Z</time>
      </trkpt>
      <trkpt lat="49.34865" lon="0.3635">
        <ele>120.3</ele>
        <time>2021-07-29T17:20:42Z</time>
      </trkpt>
      <trkpt lat="49.34867" lon="0.36357">
        <ele>120.3</ele>
        <time>2021-07-29T17:20:43Z</time>
      </trkpt>
      <trkpt lat="49.34869" lon="0.36363">
        <ele>120.3</ele>
        <time>2021-07-29T17:20:44Z</time>
      </trkpt>
      <trkpt lat="49.3487" lon="0.36367">
        <ele>120.3</ele>
        <time>2021-07-29T17:20:45Z</time>
      </trkpt>
      <trkpt lat="49.34864" lon="0.3637">
        <ele>120.3</ele>
        <time>2021-07-29T17:20:46Z</time>
      </trkpt>
      <trkpt lat="49.34863" lon="0.36371">
        <ele>120.3</ele>
        <time>2021-07-29T17:21:04Z</time>
      </trkpt>
      <trkpt lat="49.34863" lon="0.36371">
        <ele>120.3</ele>
        <time>2021-07-29T17:21:10Z</time>
      </trkpt>
      <trkpt lat="49.34861" lon="0.36372">
        <ele>120.3</ele>
        <time>2021-07-29T17:21:11Z</time>
      </trkpt>
      <trkpt lat="49.34859" lon="0.36373">
        <ele>120.3</ele>
        <time>2021-07-29T17:21:12Z</time>
      </trkpt>
      <trkpt lat="49.34856" lon="0.36374">
        <ele>120.3</ele>
        <time>2021-07-29T17:21:13Z</time>
      </trkpt>
      <trkpt lat="49.34854" lon="0.36376">
        <ele>120.3</ele>
        <time>2021-07-29T17:21:14Z</time>
      </trkpt>
      <trkpt lat="49.34797" lon="0.36409">
        <ele>121.74</ele>
        <time>2021-07-29T17:21:28Z</time>
      </trkpt>
      <trkpt lat="49.3468" lon="0.36477">
        <ele>124.15</ele>
        <time>2021-07-29T17:21:54Z</time>
      </trkpt>
      <trkpt lat="49.34589" lon="0.36529">
        <ele>125.59</ele>
        <time>2021-07-29T17:22:13Z</time>
      </trkpt>
      <trkpt lat="49.34564" lon="0.36545">
        <ele>126.07</ele>
        <time>2021-07-29T17:22:22Z</time>
      </trkpt>
      <trkpt lat="49.34545" lon="0.36557">
        <ele>127.03</ele>
        <time>2021-07-29T17:22:36Z</time>
      </trkpt>
      <trkpt lat="49.34541" lon="0.36559">
        <ele>127.03</ele>
        <time>2021-07-29T17:22:37Z</time>
      </trkpt>
      <trkpt lat="49.34538" lon="0.36567">
        <ele>127.51</ele>
        <time>2021-07-29T17:22:38Z</time>
      </trkpt>
      <trkpt lat="49.34538" lon="0.36567">
        <ele>127.03</ele>
        <time>2021-07-29T17:22:39Z</time>
      </trkpt>
      <trkpt lat="49.34538" lon="0.3657">
        <ele>127.03</ele>
        <time>2021-07-29T17:22:40Z</time>
      </trkpt>
      <trkpt lat="49.34539" lon="0.36585">
        <ele>126.55</ele>
        <time>2021-07-29T17:22:52Z</time>
      </trkpt>
      <trkpt lat="49.34544" lon="0.36652">
        <ele>127.03</ele>
        <time>2021-07-29T17:23:04Z</time>
      </trkpt>
      <trkpt lat="49.34544" lon="0.36669">
        <ele>127.99</ele>
        <time>2021-07-29T17:23:16Z</time>
      </trkpt>
      <trkpt lat="49.34544" lon="0.36729">
        <ele>127.99</ele>
        <time>2021-07-29T17:23:27Z</time>
      </trkpt>
      <trkpt lat="49.34544" lon="0.36752">
        <ele>128.47</ele>
        <time>2021-07-29T17:23:37Z</time>
      </trkpt>
      <trkpt lat="49.34544" lon="0.36752">
        <ele>128.95</ele>
        <time>2021-07-29T17:23:43Z</time>
      </trkpt>
      <trkpt lat="49.3454" lon="0.36757">
        <ele>128.95</ele>
        <time>2021-07-29T17:23:44Z</time>
      </trkpt>
      <trkpt lat="49.34538" lon="0.36759">
        <ele>128.95</ele>
        <time>2021-07-29T17:23:45Z</time>
      </trkpt>
      <trkpt lat="49.34496" lon="0.36788">
        <ele>130.4</ele>
        <time>2021-07-29T17:24:03Z</time>
      </trkpt>
      <trkpt lat="49.34486" lon="0.36796">
        <ele>130.88</ele>
        <time>2021-07-29T17:24:13Z</time>
      </trkpt>
      <trkpt lat="49.34486" lon="0.36796">
        <ele>131.36</ele>
        <time>2021-07-29T17:24:38Z</time>
      </trkpt>
      <trkpt lat="49.34486" lon="0.36796">
        <ele>131.36</ele>
        <time>2021-07-29T17:31:30Z</time>
      </trkpt>
      <trkpt lat="49.34486" lon="0.36796">
        <ele>130.4</ele>
        <time>2021-07-29T17:36:16Z</time>
      </trkpt>
      <trkpt lat="49.34486" lon="0.36796">
        <ele>129.43</ele>
        <time>2021-07-29T17:39:50Z</time>
      </trkpt>
      <trkpt lat="49.34486" lon="0.36796">
        <ele>128.47</ele>
        <time>2021-07-29T17:41:55Z</time>
      </trkpt>
      <trkpt lat="49.34486" lon="0.36796">
        <ele>127.51</ele>
        <time>2021-07-29T17:46:13Z</time>
      </trkpt>
      <trkpt lat="49.34486" lon="0.36796">
        <ele>127.03</ele>
        <time>2021-07-29T17:49:45Z</time>
      </trkpt>
      <trkpt lat="49.34486" lon="0.36796">
        <ele>126.55</ele>
        <time>2021-07-29T17:50:44Z</time>
      </trkpt>
      <trkpt lat="49.34486" lon="0.36812">
        <ele>126.55</ele>
        <time>2021-07-29T17:50:56Z</time>
      </trkpt>
      <trkpt lat="49.34484" lon="0.36805">
        <ele>126.55</ele>
        <time>2021-07-29T17:51:14Z</time>
      </trkpt>
      <trkpt lat="49.34487" lon="0.36795">
        <ele>126.55</ele>
        <time>2021-07-29T17:51:19Z</time>
      </trkpt>
      <trkpt lat="49.34491" lon="0.36792">
        <ele>126.55</ele>
        <time>2021-07-29T17:51:20Z</time>
      </trkpt>
      <trkpt lat="49.34494" lon="0.3679">
        <ele>126.55</ele>
        <time>2021-07-29T17:51:21Z</time>
      </trkpt>
      <trkpt lat="49.34494" lon="0.3679">
        <ele>126.55</ele>
        <time>2021-07-29T17:51:22Z</time>
      </trkpt>
      <trkpt lat="49.34496" lon="0.36788">
        <ele>126.55</ele>
        <time>2021-07-29T17:51:23Z</time>
      </trkpt>
      <trkpt lat="49.3454" lon="0.36757">
        <ele>125.59</ele>
        <time>2021-07-29T17:51:40Z</time>
      </trkpt>
      <trkpt lat="49.34544" lon="0.36711">
        <ele>125.59</ele>
        <time>2021-07-29T17:51:50Z</time>
      </trkpt>
      <trkpt lat="49.34544" lon="0.36666">
        <ele>125.11</ele>
        <time>2021-07-29T17:51:57Z</time>
      </trkpt>
      <trkpt lat="49.34538" lon="0.36567">
        <ele>124.63</ele>
        <time>2021-07-29T17:52:13Z</time>
      </trkpt>
      <trkpt lat="49.34537" lon="0.36563">
        <ele>124.15</ele>
        <time>2021-07-29T17:52:14Z</time>
      </trkpt>
      <trkpt lat="49.34537" lon="0.36562">
        <ele>124.15</ele>
        <time>2021-07-29T17:52:15Z</time>
      </trkpt>
      <trkpt lat="49.34541" lon="0.36559">
        <ele>124.15</ele>
        <time>2021-07-29T17:52:16Z</time>
      </trkpt>
      <trkpt lat="49.34543" lon="0.36558">
        <ele>124.15</ele>
        <time>2021-07-29T17:52:17Z</time>
      </trkpt>
      <trkpt lat="49.34545" lon="0.36557">
        <ele>124.15</ele>
        <time>2021-07-29T17:52:18Z</time>
      </trkpt>
      <trkpt lat="49.34596" lon="0.36524">
        <ele>123.19</ele>
        <time>2021-07-29T17:52:33Z</time>
      </trkpt>
      <trkpt lat="49.34674" lon="0.3648">
        <ele>122.71</ele>
        <time>2021-07-29T17:52:52Z</time>
      </trkpt>
      <trkpt lat="49.34765" lon="0.36428">
        <ele>121.74</ele>
        <time>2021-07-29T17:53:11Z</time>
      </trkpt>
      <trkpt lat="49.34857" lon="0.36374">
        <ele>120.3</ele>
        <time>2021-07-29T17:53:31Z</time>
      </trkpt>
      <trkpt lat="49.34865" lon="0.36369">
        <ele>120.78</ele>
        <time>2021-07-29T17:53:40Z</time>
      </trkpt>
      <trkpt lat="49.34865" lon="0.36369">
        <ele>120.78</ele>
        <time>2021-07-29T17:54:14Z</time>
      </trkpt>
      <trkpt lat="49.34868" lon="0.36367">
        <ele>121.26</ele>
        <time>2021-07-29T17:54:15Z</time>
      </trkpt>
      <trkpt lat="49.34868" lon="0.36358">
        <ele>120.78</ele>
        <time>2021-07-29T17:54:16Z</time>
      </trkpt>
      <trkpt lat="49.34866" lon="0.36352">
        <ele>120.78</ele>
        <time>2021-07-29T17:54:17Z</time>
      </trkpt>
      <trkpt lat="49.34861" lon="0.36337">
        <ele>120.78</ele>
        <time>2021-07-29T17:54:18Z</time>
      </trkpt>
      <trkpt lat="49.34832" lon="0.36235">
        <ele>120.3</ele>
        <time>2021-07-29T17:54:30Z</time>
      </trkpt>
      <trkpt lat="49.34824" lon="0.36201">
        <ele>120.3</ele>
        <time>2021-07-29T17:54:34Z</time>
      </trkpt>
      <trkpt lat="49.34822" lon="0.36192">
        <ele>120.3</ele>
        <time>2021-07-29T17:54:35Z</time>
      </trkpt>
      <trkpt lat="49.3482" lon="0.36184">
        <ele>120.3</ele>
        <time>2021-07-29T17:54:36Z</time>
      </trkpt>
      <trkpt lat="49.34828" lon="0.36167">
        <ele>120.3</ele>
        <time>2021-07-29T17:54:38Z</time>
      </trkpt>
      <trkpt lat="49.34829" lon="0.36155">
        <ele>119.82</ele>
        <time>2021-07-29T17:54:39Z</time>
      </trkpt>
      <trkpt lat="49.34827" lon="0.36144">
        <ele>119.82</ele>
        <time>2021-07-29T17:54:40Z</time>
      </trkpt>
      <trkpt lat="49.34824" lon="0.36138">
        <ele>119.82</ele>
        <time>2021-07-29T17:54:41Z</time>
      </trkpt>
      <trkpt lat="49.34821" lon="0.36131">
        <ele>119.82</ele>
        <time>2021-07-29T17:54:42Z</time>
      </trkpt>
      <trkpt lat="49.34816" lon="0.3613">
        <ele>119.82</ele>
        <time>2021-07-29T17:54:43Z</time>
      </trkpt>
      <trkpt lat="49.34811" lon="0.36129">
        <ele>119.82</ele>
        <time>2021-07-29T17:54:44Z</time>
      </trkpt>
      <trkpt lat="49.34805" lon="0.36129">
        <ele>119.82</ele>
        <time>2021-07-29T17:54:45Z</time>
      </trkpt>
      <trkpt lat="49.34802" lon="0.36132">
        <ele>119.34</ele>
        <time>2021-07-29T17:54:46Z</time>
      </trkpt>
      <trkpt lat="49.34798" lon="0.36139">
        <ele>119.34</ele>
        <time>2021-07-29T17:54:47Z</time>
      </trkpt>
      <trkpt lat="49.34795" lon="0.36145">
        <ele>119.34</ele>
        <time>2021-07-29T17:54:48Z</time>
      </trkpt>
      <trkpt lat="49.34795" lon="0.36145">
        <ele>119.34</ele>
        <time>2021-07-29T17:54:49Z</time>
      </trkpt>
      <trkpt lat="49.34787" lon="0.36164">
        <ele>119.34</ele>
        <time>2021-07-29T17:54:50Z</time>
      </trkpt>
      <trkpt lat="49.34781" lon="0.36167">
        <ele>119.34</ele>
        <time>2021-07-29T17:54:51Z</time>
      </trkpt>
      <trkpt lat="49.34774" lon="0.3617">
        <ele>119.34</ele>
        <time>2021-07-29T17:54:52Z</time>
      </trkpt>
      <trkpt lat="49.34767" lon="0.36174">
        <ele>119.82</ele>
        <time>2021-07-29T17:54:53Z</time>
      </trkpt>
      <trkpt lat="49.34653" lon="0.36235">
        <ele>118.38</ele>
        <time>2021-07-29T17:55:05Z</time>
      </trkpt>
      <trkpt lat="49.34606" lon="0.36254">
        <ele>120.78</ele>
        <time>2021-07-29T17:55:09Z</time>
      </trkpt>
      <trkpt lat="49.34592" lon="0.36257">
        <ele>121.74</ele>
        <time>2021-07-29T17:55:10Z</time>
      </trkpt>
      <trkpt lat="49.34566" lon="0.36257">
        <ele>121.74</ele>
        <time>2021-07-29T17:55:11Z</time>
      </trkpt>
      <trkpt lat="49.34566" lon="0.36257">
        <ele>122.22</ele>
        <time>2021-07-29T17:55:12Z</time>
      </trkpt>
      <trkpt lat="49.34541" lon="0.36248">
        <ele>122.22</ele>
        <time>2021-07-29T17:55:13Z</time>
      </trkpt>
      <trkpt lat="49.34541" lon="0.36248">
        <ele>122.71</ele>
        <time>2021-07-29T17:55:14Z</time>
      </trkpt>
      <trkpt lat="49.34527" lon="0.36243">
        <ele>123.19</ele>
        <time>2021-07-29T17:55:15Z</time>
      </trkpt>
      <trkpt lat="49.34504" lon="0.36224">
        <ele>124.15</ele>
        <time>2021-07-29T17:55:16Z</time>
      </trkpt>
      <trkpt lat="49.34504" lon="0.36224">
        <ele>124.15</ele>
        <time>2021-07-29T17:55:17Z</time>
      </trkpt>
      <trkpt lat="49.34492" lon="0.36214">
        <ele>123.19</ele>
        <time>2021-07-29T17:55:18Z</time>
      </trkpt>
      <trkpt lat="49.34483" lon="0.36199">
        <ele>122.71</ele>
        <time>2021-07-29T17:55:19Z</time>
      </trkpt>
      <trkpt lat="49.34474" lon="0.36184">
        <ele>123.67</ele>
        <time>2021-07-29T17:55:20Z</time>
      </trkpt>
      <trkpt lat="49.34358" lon="0.36011">
        <ele>127.99</ele>
        <time>2021-07-29T17:55:33Z</time>
      </trkpt>
      <trkpt lat="49.34203" lon="0.35863">
        <ele>129.92</ele>
        <time>2021-07-29T17:55:48Z</time>
      </trkpt>
      <trkpt lat="49.34102" lon="0.35771">
        <ele>128.95</ele>
        <time>2021-07-29T17:56:00Z</time>
      </trkpt>
      <trkpt lat="49.34099" lon="0.35764">
        <ele>128.95</ele>
        <time>2021-07-29T17:56:01Z</time>
      </trkpt>
      <trkpt lat="49.34091" lon="0.35742">
        <ele>128.47</ele>
        <time>2021-07-29T17:56:04Z</time>
      </trkpt>
      <trkpt lat="49.34086" lon="0.35736">
        <ele>127.99</ele>
        <time>2021-07-29T17:56:05Z</time>
      </trkpt>
      <trkpt lat="49.34081" lon="0.35731">
        <ele>127.99</ele>
        <time>2021-07-29T17:56:06Z</time>
      </trkpt>
      <trkpt lat="49.34078" lon="0.35729">
        <ele>127.99</ele>
        <time>2021-07-29T17:56:07Z</time>
      </trkpt>
      <trkpt lat="49.34066" lon="0.35733">
        <ele>127.99</ele>
        <time>2021-07-29T17:56:08Z</time>
      </trkpt>
      <trkpt lat="49.34059" lon="0.35731">
        <ele>127.99</ele>
        <time>2021-07-29T17:56:09Z</time>
      </trkpt>
      <trkpt lat="49.34049" lon="0.35724">
        <ele>127.99</ele>
        <time>2021-07-29T17:56:10Z</time>
      </trkpt>
      <trkpt lat="49.34042" lon="0.35716">
        <ele>127.51</ele>
        <time>2021-07-29T17:56:11Z</time>
      </trkpt>
      <trkpt lat="49.34027" lon="0.35698">
        <ele>127.51</ele>
        <time>2021-07-29T17:56:12Z</time>
      </trkpt>
      <trkpt lat="49.3392" lon="0.35571">
        <ele>126.07</ele>
        <time>2021-07-29T17:56:23Z</time>
      </trkpt>
      <trkpt lat="49.33812" lon="0.3546">
        <ele>127.51</ele>
        <time>2021-07-29T17:56:34Z</time>
      </trkpt>
      <trkpt lat="49.33745" lon="0.35404">
        <ele>127.51</ele>
        <time>2021-07-29T17:56:41Z</time>
      </trkpt>
      <trkpt lat="49.33737" lon="0.35398">
        <ele>127.51</ele>
        <time>2021-07-29T17:56:42Z</time>
      </trkpt>
      <trkpt lat="49.33726" lon="0.3539">
        <ele>127.99</ele>
        <time>2021-07-29T17:56:43Z</time>
      </trkpt>
      <trkpt lat="49.33712" lon="0.35366">
        <ele>127.51</ele>
        <time>2021-07-29T17:56:46Z</time>
      </trkpt>
      <trkpt lat="49.33712" lon="0.35366">
        <ele>127.51</ele>
        <time>2021-07-29T17:56:47Z</time>
      </trkpt>
      <trkpt lat="49.33697" lon="0.35361">
        <ele>127.51</ele>
        <time>2021-07-29T17:56:49Z</time>
      </trkpt>
      <trkpt lat="49.33689" lon="0.35353">
        <ele>127.51</ele>
        <time>2021-07-29T17:56:50Z</time>
      </trkpt>
      <trkpt lat="49.336" lon="0.35276">
        <ele>125.59</ele>
        <time>2021-07-29T17:56:59Z</time>
      </trkpt>
      <trkpt lat="49.33439" lon="0.35153">
        <ele>126.55</ele>
        <time>2021-07-29T17:57:11Z</time>
      </trkpt>
      <trkpt lat="49.33357" lon="0.35046">
        <ele>124.15</ele>
        <time>2021-07-29T17:57:18Z</time>
      </trkpt>
      <trkpt lat="49.33246" lon="0.34788">
        <ele>126.55</ele>
        <time>2021-07-29T17:57:30Z</time>
      </trkpt>
      <trkpt lat="49.33132" lon="0.34402">
        <ele>129.43</ele>
        <time>2021-07-29T17:57:45Z</time>
      </trkpt>
      <trkpt lat="49.33098" lon="0.3434">
        <ele>130.4</ele>
        <time>2021-07-29T17:57:51Z</time>
      </trkpt>
      <trkpt lat="49.33095" lon="0.34334">
        <ele>130.4</ele>
        <time>2021-07-29T17:57:52Z</time>
      </trkpt>
      <trkpt lat="49.33092" lon="0.34329">
        <ele>130.88</ele>
        <time>2021-07-29T17:57:53Z</time>
      </trkpt>
      <trkpt lat="49.33095" lon="0.34306">
        <ele>130.88</ele>
        <time>2021-07-29T17:57:54Z</time>
      </trkpt>
      <trkpt lat="49.33092" lon="0.34286">
        <ele>130.88</ele>
        <time>2021-07-29T17:57:56Z</time>
      </trkpt>
      <trkpt lat="49.33092" lon="0.34286">
        <ele>130.88</ele>
        <time>2021-07-29T17:57:57Z</time>
      </trkpt>
      <trkpt lat="49.33087" lon="0.34279">
        <ele>131.36</ele>
        <time>2021-07-29T17:57:58Z</time>
      </trkpt>
      <trkpt lat="49.33082" lon="0.34272">
        <ele>131.36</ele>
        <time>2021-07-29T17:57:59Z</time>
      </trkpt>
      <trkpt lat="49.33077" lon="0.34273">
        <ele>131.36</ele>
        <time>2021-07-29T17:58:00Z</time>
      </trkpt>
      <trkpt lat="49.3307" lon="0.34275">
        <ele>131.84</ele>
        <time>2021-07-29T17:58:01Z</time>
      </trkpt>
      <trkpt lat="49.33057" lon="0.34263">
        <ele>131.36</ele>
        <time>2021-07-29T17:58:02Z</time>
      </trkpt>
      <trkpt lat="49.33052" lon="0.34252">
        <ele>131.36</ele>
        <time>2021-07-29T17:58:03Z</time>
      </trkpt>
      <trkpt lat="49.32986" lon="0.34125">
        <ele>129.43</ele>
        <time>2021-07-29T17:58:12Z</time>
      </trkpt>
      <trkpt lat="49.32872" lon="0.33904">
        <ele>128.95</ele>
        <time>2021-07-29T17:58:23Z</time>
      </trkpt>
      <trkpt lat="49.32719" lon="0.33597">
        <ele>127.99</ele>
        <time>2021-07-29T17:58:36Z</time>
      </trkpt>
      <trkpt lat="49.32638" lon="0.33323">
        <ele>126.55</ele>
        <time>2021-07-29T17:58:46Z</time>
      </trkpt>
      <trkpt lat="49.32599" lon="0.33031">
        <ele>127.99</ele>
        <time>2021-07-29T17:58:56Z</time>
      </trkpt>
      <trkpt lat="49.32611" lon="0.32732">
        <ele>129.92</ele>
        <time>2021-07-29T17:59:06Z</time>
      </trkpt>
      <trkpt lat="49.32661" lon="0.32466">
        <ele>129.92</ele>
        <time>2021-07-29T17:59:15Z</time>
      </trkpt>
      <trkpt lat="49.32784" lon="0.32118">
        <ele>131.84</ele>
        <time>2021-07-29T17:59:28Z</time>
      </trkpt>
      <trkpt lat="49.3298" lon="0.31603">
        <ele>129.43</ele>
        <time>2021-07-29T17:59:47Z</time>
      </trkpt>
      <trkpt lat="49.33076" lon="0.31407">
        <ele>131.84</ele>
        <time>2021-07-29T17:59:56Z</time>
      </trkpt>
      <trkpt lat="49.33124" lon="0.31339">
        <ele>133.28</ele>
        <time>2021-07-29T18:00:01Z</time>
      </trkpt>
      <trkpt lat="49.33124" lon="0.31339">
        <ele>133.28</ele>
        <time>2021-07-29T18:00:02Z</time>
      </trkpt>
      <trkpt lat="49.33131" lon="0.31335">
        <ele>133.28</ele>
        <time>2021-07-29T18:00:03Z</time>
      </trkpt>
      <trkpt lat="49.33146" lon="0.31331">
        <ele>133.28</ele>
        <time>2021-07-29T18:00:05Z</time>
      </trkpt>
      <trkpt lat="49.33152" lon="0.31326">
        <ele>133.76</ele>
        <time>2021-07-29T18:00:06Z</time>
      </trkpt>
      <trkpt lat="49.33159" lon="0.3132">
        <ele>133.76</ele>
        <time>2021-07-29T18:00:07Z</time>
      </trkpt>
      <trkpt lat="49.33162" lon="0.31312">
        <ele>133.28</ele>
        <time>2021-07-29T18:00:08Z</time>
      </trkpt>
      <trkpt lat="49.33163" lon="0.31302">
        <ele>133.28</ele>
        <time>2021-07-29T18:00:09Z</time>
      </trkpt>
      <trkpt lat="49.33164" lon="0.31292">
        <ele>133.28</ele>
        <time>2021-07-29T18:00:10Z</time>
      </trkpt>
      <trkpt lat="49.33162" lon="0.31288">
        <ele>133.28</ele>
        <time>2021-07-29T18:00:11Z</time>
      </trkpt>
      <trkpt lat="49.33157" lon="0.3128">
        <ele>133.76</ele>
        <time>2021-07-29T18:00:12Z</time>
      </trkpt>
      <trkpt lat="49.33149" lon="0.31271">
        <ele>133.76</ele>
        <time>2021-07-29T18:00:13Z</time>
      </trkpt>
      <trkpt lat="49.33149" lon="0.31271">
        <ele>133.28</ele>
        <time>2021-07-29T18:00:14Z</time>
      </trkpt>
      <trkpt lat="49.3314" lon="0.31264">
        <ele>133.28</ele>
        <time>2021-07-29T18:00:15Z</time>
      </trkpt>
      <trkpt lat="49.33134" lon="0.31255">
        <ele>133.28</ele>
        <time>2021-07-29T18:00:16Z</time>
      </trkpt>
      <trkpt lat="49.33128" lon="0.31245">
        <ele>132.8</ele>
        <time>2021-07-29T18:00:17Z</time>
      </trkpt>
      <trkpt lat="49.33123" lon="0.31228">
        <ele>132.8</ele>
        <time>2021-07-29T18:00:18Z</time>
      </trkpt>
      <trkpt lat="49.33074" lon="0.31052">
        <ele>132.32</ele>
        <time>2021-07-29T18:00:29Z</time>
      </trkpt>
      <trkpt lat="49.32998" lon="0.30781">
        <ele>130.4</ele>
        <time>2021-07-29T18:00:41Z</time>
      </trkpt>
      <trkpt lat="49.32883" lon="0.30371">
        <ele>135.2</ele>
        <time>2021-07-29T18:00:59Z</time>
      </trkpt>
      <trkpt lat="49.32747" lon="0.29883">
        <ele>135.68</ele>
        <time>2021-07-29T18:01:17Z</time>
      </trkpt>
      <trkpt lat="49.32702" lon="0.29636">
        <ele>138.57</ele>
        <time>2021-07-29T18:01:26Z</time>
      </trkpt>
      <trkpt lat="49.32644" lon="0.29311">
        <ele>144.34</ele>
        <time>2021-07-29T18:01:38Z</time>
      </trkpt>
      <trkpt lat="49.32536" lon="0.29033">
        <ele>143.37</ele>
        <time>2021-07-29T18:01:49Z</time>
      </trkpt>
      <trkpt lat="49.32427" lon="0.28734">
        <ele>139.53</ele>
        <time>2021-07-29T18:02:00Z</time>
      </trkpt>
      <trkpt lat="49.32297" lon="0.28267">
        <ele>145.3</ele>
        <time>2021-07-29T18:02:17Z</time>
      </trkpt>
      <trkpt lat="49.3214" lon="0.27706">
        <ele>148.66</ele>
        <time>2021-07-29T18:02:39Z</time>
      </trkpt>
      <trkpt lat="49.3202" lon="0.27278">
        <ele>146.26</ele>
        <time>2021-07-29T18:02:54Z</time>
      </trkpt>
      <trkpt lat="49.31961" lon="0.27068">
        <ele>142.89</ele>
        <time>2021-07-29T18:03:04Z</time>
      </trkpt>
      <trkpt lat="49.31885" lon="0.26821">
        <ele>133.76</ele>
        <time>2021-07-29T18:03:18Z</time>
      </trkpt>
      <trkpt lat="49.31791" lon="0.26692">
        <ele>129.43</ele>
        <time>2021-07-29T18:03:27Z</time>
      </trkpt>
      <trkpt lat="49.31719" lon="0.26559">
        <ele>125.11</ele>
        <time>2021-07-29T18:03:36Z</time>
      </trkpt>
      <trkpt lat="49.31579" lon="0.26227">
        <ele>110.21</ele>
        <time>2021-07-29T18:03:52Z</time>
      </trkpt>
      <trkpt lat="49.31567" lon="0.2621">
        <ele>109.73</ele>
        <time>2021-07-29T18:03:53Z</time>
      </trkpt>
      <trkpt lat="49.31553" lon="0.26193">
        <ele>109.73</ele>
        <time>2021-07-29T18:03:54Z</time>
      </trkpt>
      <trkpt lat="49.31537" lon="0.26176">
        <ele>110.69</ele>
        <time>2021-07-29T18:03:55Z</time>
      </trkpt>
      <trkpt lat="49.3152" lon="0.26168">
        <ele>110.69</ele>
        <time>2021-07-29T18:03:56Z</time>
      </trkpt>
      <trkpt lat="49.31504" lon="0.2616">
        <ele>109.73</ele>
        <time>2021-07-29T18:03:57Z</time>
      </trkpt>
      <trkpt lat="49.31486" lon="0.26151">
        <ele>108.77</ele>
        <time>2021-07-29T18:03:58Z</time>
      </trkpt>
      <trkpt lat="49.31468" lon="0.26145">
        <ele>107.81</ele>
        <time>2021-07-29T18:03:59Z</time>
      </trkpt>
      <trkpt lat="49.3123" lon="0.26071">
        <ele>86.66</ele>
        <time>2021-07-29T18:04:12Z</time>
      </trkpt>
      <trkpt lat="49.31099" lon="0.25952">
        <ele>78.48</ele>
        <time>2021-07-29T18:04:20Z</time>
      </trkpt>
      <trkpt lat="49.31083" lon="0.25942">
        <ele>78.48</ele>
        <time>2021-07-29T18:04:21Z</time>
      </trkpt>
      <trkpt lat="49.31066" lon="0.25936">
        <ele>78</ele>
        <time>2021-07-29T18:04:22Z</time>
      </trkpt>
      <trkpt lat="49.31047" lon="0.25928">
        <ele>78</ele>
        <time>2021-07-29T18:04:23Z</time>
      </trkpt>
      <trkpt lat="49.31029" lon="0.25922">
        <ele>76.56</ele>
        <time>2021-07-29T18:04:24Z</time>
      </trkpt>
      <trkpt lat="49.30727" lon="0.25869">
        <ele>56.37</ele>
        <time>2021-07-29T18:04:39Z</time>
      </trkpt>
      <trkpt lat="49.3056" lon="0.25761">
        <ele>48.2</ele>
        <time>2021-07-29T18:04:47Z</time>
      </trkpt>
      <trkpt lat="49.30502" lon="0.25697">
        <ele>41.95</ele>
        <time>2021-07-29T18:04:52Z</time>
      </trkpt>
      <trkpt lat="49.30491" lon="0.25682">
        <ele>40.03</ele>
        <time>2021-07-29T18:04:53Z</time>
      </trkpt>
      <trkpt lat="49.3048" lon="0.25661">
        <ele>39.55</ele>
        <time>2021-07-29T18:04:54Z</time>
      </trkpt>
      <trkpt lat="49.3047" lon="0.2564">
        <ele>38.11</ele>
        <time>2021-07-29T18:04:55Z</time>
      </trkpt>
      <trkpt lat="49.30462" lon="0.25616">
        <ele>37.15</ele>
        <time>2021-07-29T18:04:56Z</time>
      </trkpt>
      <trkpt lat="49.30454" lon="0.25592">
        <ele>36.19</ele>
        <time>2021-07-29T18:04:57Z</time>
      </trkpt>
      <trkpt lat="49.3039" lon="0.25287">
        <ele>30.42</ele>
        <time>2021-07-29T18:05:07Z</time>
      </trkpt>
      <trkpt lat="49.30289" lon="0.24753">
        <ele>30.42</ele>
        <time>2021-07-29T18:05:27Z</time>
      </trkpt>
      <trkpt lat="49.30222" lon="0.24329">
        <ele>27.05</ele>
        <time>2021-07-29T18:05:41Z</time>
      </trkpt>
      <trkpt lat="49.3016" lon="0.2394">
        <ele>28.98</ele>
        <time>2021-07-29T18:05:56Z</time>
      </trkpt>
      <trkpt lat="49.30094" lon="0.23526">
        <ele>33.78</ele>
        <time>2021-07-29T18:06:12Z</time>
      </trkpt>
      <trkpt lat="49.30016" lon="0.2304">
        <ele>28.02</ele>
        <time>2021-07-29T18:06:30Z</time>
      </trkpt>
      <trkpt lat="49.2995" lon="0.22633">
        <ele>29.46</ele>
        <time>2021-07-29T18:06:45Z</time>
      </trkpt>
      <trkpt lat="49.2987" lon="0.22135">
        <ele>29.94</ele>
        <time>2021-07-29T18:07:03Z</time>
      </trkpt>
      <trkpt lat="49.29847" lon="0.21908">
        <ele>31.86</ele>
        <time>2021-07-29T18:07:13Z</time>
      </trkpt>
      <trkpt lat="49.29835" lon="0.21761">
        <ele>32.34</ele>
        <time>2021-07-29T18:07:22Z</time>
      </trkpt>
      <trkpt lat="49.29827" lon="0.21675">
        <ele>30.9</ele>
        <time>2021-07-29T18:07:30Z</time>
      </trkpt>
      <trkpt lat="49.29817" lon="0.21576">
        <ele>27.53</ele>
        <time>2021-07-29T18:07:42Z</time>
      </trkpt>
      <trkpt lat="49.29809" lon="0.21494">
        <ele>25.61</ele>
        <time>2021-07-29T18:07:50Z</time>
      </trkpt>
      <trkpt lat="49.29788" lon="0.21272">
        <ele>23.21</ele>
        <time>2021-07-29T18:08:01Z</time>
      </trkpt>
      <trkpt lat="49.29758" lon="0.20949">
        <ele>25.13</ele>
        <time>2021-07-29T18:08:17Z</time>
      </trkpt>
      <trkpt lat="49.29708" lon="0.20556">
        <ele>20.32</ele>
        <time>2021-07-29T18:08:34Z</time>
      </trkpt>
      <trkpt lat="49.2962" lon="0.20257">
        <ele>18.88</ele>
        <time>2021-07-29T18:08:47Z</time>
      </trkpt>
      <trkpt lat="49.29507" lon="0.19923">
        <ele>16.48</ele>
        <time>2021-07-29T18:09:04Z</time>
      </trkpt>
      <trkpt lat="49.29493" lon="0.19886">
        <ele>16</ele>
        <time>2021-07-29T18:09:07Z</time>
      </trkpt>
      <trkpt lat="49.29489" lon="0.19876">
        <ele>16</ele>
        <time>2021-07-29T18:09:08Z</time>
      </trkpt>
      <trkpt lat="49.29473" lon="0.1984">
        <ele>16</ele>
        <time>2021-07-29T18:09:10Z</time>
      </trkpt>
      <trkpt lat="49.29444" lon="0.19724">
        <ele>14.56</ele>
        <time>2021-07-29T18:09:20Z</time>
      </trkpt>
      <trkpt lat="49.29429" lon="0.19692">
        <ele>13.6</ele>
        <time>2021-07-29T18:09:23Z</time>
      </trkpt>
      <trkpt lat="49.29425" lon="0.19684">
        <ele>13.6</ele>
        <time>2021-07-29T18:09:24Z</time>
      </trkpt>
      <trkpt lat="49.2941" lon="0.19635">
        <ele>12.15</ele>
        <time>2021-07-29T18:09:29Z</time>
      </trkpt>
      <trkpt lat="49.29408" lon="0.19624">
        <ele>12.15</ele>
        <time>2021-07-29T18:09:30Z</time>
      </trkpt>
      <trkpt lat="49.29397" lon="0.19588">
        <ele>13.12</ele>
        <time>2021-07-29T18:09:33Z</time>
      </trkpt>
      <trkpt lat="49.29393" lon="0.19575">
        <ele>12.15</ele>
        <time>2021-07-29T18:09:34Z</time>
      </trkpt>
      <trkpt lat="49.29319" lon="0.19437">
        <ele>11.67</ele>
        <time>2021-07-29T18:09:44Z</time>
      </trkpt>
      <trkpt lat="49.29219" lon="0.1932">
        <ele>9.75</ele>
        <time>2021-07-29T18:09:55Z</time>
      </trkpt>
      <trkpt lat="49.29169" lon="0.19264">
        <ele>9.75</ele>
        <time>2021-07-29T18:10:01Z</time>
      </trkpt>
      <trkpt lat="49.29096" lon="0.19182">
        <ele>10.71</ele>
        <time>2021-07-29T18:10:14Z</time>
      </trkpt>
      <trkpt lat="49.29042" lon="0.19119">
        <ele>10.23</ele>
        <time>2021-07-29T18:10:25Z</time>
      </trkpt>
      <trkpt lat="49.29038" lon="0.19115">
        <ele>10.71</ele>
        <time>2021-07-29T18:10:38Z</time>
      </trkpt>
      <trkpt lat="49.29031" lon="0.19093">
        <ele>10.71</ele>
        <time>2021-07-29T18:10:41Z</time>
      </trkpt>
      <trkpt lat="49.29031" lon="0.19093">
        <ele>10.23</ele>
        <time>2021-07-29T18:10:42Z</time>
      </trkpt>
      <trkpt lat="49.28968" lon="0.19037">
        <ele>10.23</ele>
        <time>2021-07-29T18:10:54Z</time>
      </trkpt>
      <trkpt lat="49.28925" lon="0.18985">
        <ele>10.23</ele>
        <time>2021-07-29T18:11:04Z</time>
      </trkpt>
      <trkpt lat="49.2891" lon="0.18967">
        <ele>9.75</ele>
        <time>2021-07-29T18:11:13Z</time>
      </trkpt>
      <trkpt lat="49.289" lon="0.18955">
        <ele>8.79</ele>
        <time>2021-07-29T18:11:29Z</time>
      </trkpt>
      <trkpt lat="49.28893" lon="0.18946">
        <ele>8.31</ele>
        <time>2021-07-29T18:12:02Z</time>
      </trkpt>
      <trkpt lat="49.28893" lon="0.18946">
        <ele>8.79</ele>
        <time>2021-07-29T18:12:21Z</time>
      </trkpt>
      <trkpt lat="49.28879" lon="0.1893">
        <ele>9.27</ele>
        <time>2021-07-29T18:12:42Z</time>
      </trkpt>
      <trkpt lat="49.28875" lon="0.18927">
        <ele>9.27</ele>
        <time>2021-07-29T18:12:58Z</time>
      </trkpt>
      <trkpt lat="49.28862" lon="0.18913">
        <ele>9.27</ele>
        <time>2021-07-29T18:13:11Z</time>
      </trkpt>
      <trkpt lat="49.28851" lon="0.189">
        <ele>9.27</ele>
        <time>2021-07-29T18:13:33Z</time>
      </trkpt>
      <trkpt lat="49.28838" lon="0.18885">
        <ele>9.75</ele>
        <time>2021-07-29T18:13:49Z</time>
      </trkpt>
      <trkpt lat="49.28832" lon="0.18877">
        <ele>9.75</ele>
        <time>2021-07-29T18:14:01Z</time>
      </trkpt>
      <trkpt lat="49.28819" lon="0.18862">
        <ele>9.75</ele>
        <time>2021-07-29T18:14:15Z</time>
      </trkpt>
      <trkpt lat="49.28804" lon="0.18844">
        <ele>9.75</ele>
        <time>2021-07-29T18:14:34Z</time>
      </trkpt>
      <trkpt lat="49.28784" lon="0.18824">
        <ele>10.23</ele>
        <time>2021-07-29T18:14:46Z</time>
      </trkpt>
      <trkpt lat="49.28756" lon="0.18791">
        <ele>10.23</ele>
        <time>2021-07-29T18:15:02Z</time>
      </trkpt>
      <trkpt lat="49.28751" lon="0.18785">
        <ele>10.23</ele>
        <time>2021-07-29T18:15:18Z</time>
      </trkpt>
      <trkpt lat="49.28708" lon="0.18737">
        <ele>8.79</ele>
        <time>2021-07-29T18:15:36Z</time>
      </trkpt>
      <trkpt lat="49.28701" lon="0.18725">
        <ele>9.27</ele>
        <time>2021-07-29T18:15:49Z</time>
      </trkpt>
      <trkpt lat="49.28685" lon="0.18699">
        <ele>9.75</ele>
        <time>2021-07-29T18:16:01Z</time>
      </trkpt>
      <trkpt lat="49.28659" lon="0.1866">
        <ele>10.23</ele>
        <time>2021-07-29T18:16:13Z</time>
      </trkpt>
      <trkpt lat="49.28654" lon="0.18651">
        <ele>10.23</ele>
        <time>2021-07-29T18:16:44Z</time>
      </trkpt>
      <trkpt lat="49.28647" lon="0.18637">
        <ele>9.75</ele>
        <time>2021-07-29T18:16:55Z</time>
      </trkpt>
      <trkpt lat="49.28636" lon="0.186">
        <ele>9.75</ele>
        <time>2021-07-29T18:17:08Z</time>
      </trkpt>
      <trkpt lat="49.28617" lon="0.18549">
        <ele>8.79</ele>
        <time>2021-07-29T18:17:18Z</time>
      </trkpt>
      <trkpt lat="49.28575" lon="0.18455">
        <ele>9.75</ele>
        <time>2021-07-29T18:17:32Z</time>
      </trkpt>
      <trkpt lat="49.28526" lon="0.18352">
        <ele>8.31</ele>
        <time>2021-07-29T18:17:47Z</time>
      </trkpt>
      <trkpt lat="49.28523" lon="0.18346">
        <ele>7.83</ele>
        <time>2021-07-29T18:17:48Z</time>
      </trkpt>
      <trkpt lat="49.28495" lon="0.18289">
        <ele>7.83</ele>
        <time>2021-07-29T18:18:01Z</time>
      </trkpt>
      <trkpt lat="49.28473" lon="0.18243">
        <ele>6.87</ele>
        <time>2021-07-29T18:18:09Z</time>
      </trkpt>
      <trkpt lat="49.28451" lon="0.18204">
        <ele>6.39</ele>
        <time>2021-07-29T18:18:14Z</time>
      </trkpt>
      <trkpt lat="49.28392" lon="0.18123">
        <ele>9.27</ele>
        <time>2021-07-29T18:18:27Z</time>
      </trkpt>
      <trkpt lat="49.28354" lon="0.18089">
        <ele>9.75</ele>
        <time>2021-07-29T18:18:38Z</time>
      </trkpt>
      <trkpt lat="49.28354" lon="0.18089">
        <ele>10.71</ele>
        <time>2021-07-29T18:19:03Z</time>
      </trkpt>
      <trkpt lat="49.28322" lon="0.18059">
        <ele>11.19</ele>
        <time>2021-07-29T18:19:11Z</time>
      </trkpt>
      <trkpt lat="49.28246" lon="0.17983">
        <ele>12.63</ele>
        <time>2021-07-29T18:19:21Z</time>
      </trkpt>
      <trkpt lat="49.28087" lon="0.17794">
        <ele>28.5</ele>
        <time>2021-07-29T18:19:38Z</time>
      </trkpt>
      <trkpt lat="49.27928" lon="0.17603">
        <ele>40.51</ele>
        <time>2021-07-29T18:19:54Z</time>
      </trkpt>
      <trkpt lat="49.27873" lon="0.17535">
        <ele>42.92</ele>
        <time>2021-07-29T18:20:01Z</time>
      </trkpt>
      <trkpt lat="49.27868" lon="0.17528">
        <ele>42.92</ele>
        <time>2021-07-29T18:20:02Z</time>
      </trkpt>
      <trkpt lat="49.27864" lon="0.17505">
        <ele>43.4</ele>
        <time>2021-07-29T18:20:04Z</time>
      </trkpt>
      <trkpt lat="49.27861" lon="0.17495">
        <ele>43.88</ele>
        <time>2021-07-29T18:20:05Z</time>
      </trkpt>
      <trkpt lat="49.27853" lon="0.1749">
        <ele>43.88</ele>
        <time>2021-07-29T18:20:06Z</time>
      </trkpt>
      <trkpt lat="49.27842" lon="0.1749">
        <ele>43.88</ele>
        <time>2021-07-29T18:20:08Z</time>
      </trkpt>
      <trkpt lat="49.27828" lon="0.17487">
        <ele>43.88</ele>
        <time>2021-07-29T18:20:09Z</time>
      </trkpt>
      <trkpt lat="49.27815" lon="0.17469">
        <ele>44.36</ele>
        <time>2021-07-29T18:20:10Z</time>
      </trkpt>
      <trkpt lat="49.2773" lon="0.17364">
        <ele>48.68</ele>
        <time>2021-07-29T18:20:21Z</time>
      </trkpt>
      <trkpt lat="49.27616" lon="0.17227">
        <ele>53.97</ele>
        <time>2021-07-29T18:20:31Z</time>
      </trkpt>
      <trkpt lat="49.27441" lon="0.17014">
        <ele>55.89</ele>
        <time>2021-07-29T18:20:44Z</time>
      </trkpt>
      <trkpt lat="49.27167" lon="0.16698">
        <ele>70.79</ele>
        <time>2021-07-29T18:21:01Z</time>
      </trkpt>
      <trkpt lat="49.27043" lon="0.166">
        <ele>73.68</ele>
        <time>2021-07-29T18:21:08Z</time>
      </trkpt>
      <trkpt lat="49.27028" lon="0.16582">
        <ele>73.2</ele>
        <time>2021-07-29T18:21:09Z</time>
      </trkpt>
      <trkpt lat="49.26871" lon="0.16354">
        <ele>86.66</ele>
        <time>2021-07-29T18:21:19Z</time>
      </trkpt>
      <trkpt lat="49.26647" lon="0.16006">
        <ele>108.77</ele>
        <time>2021-07-29T18:21:37Z</time>
      </trkpt>
      <trkpt lat="49.26612" lon="0.15946">
        <ele>111.17</ele>
        <time>2021-07-29T18:21:40Z</time>
      </trkpt>
      <trkpt lat="49.26605" lon="0.15929">
        <ele>111.17</ele>
        <time>2021-07-29T18:21:41Z</time>
      </trkpt>
      <trkpt lat="49.26598" lon="0.1591">
        <ele>112.13</ele>
        <time>2021-07-29T18:21:42Z</time>
      </trkpt>
      <trkpt lat="49.26592" lon="0.15885">
        <ele>112.61</ele>
        <time>2021-07-29T18:21:43Z</time>
      </trkpt>
      <trkpt lat="49.26586" lon="0.15862">
        <ele>112.61</ele>
        <time>2021-07-29T18:21:44Z</time>
      </trkpt>
      <trkpt lat="49.26578" lon="0.15813">
        <ele>111.17</ele>
        <time>2021-07-29T18:21:45Z</time>
      </trkpt>
      <trkpt lat="49.26551" lon="0.15577">
        <ele>110.69</ele>
        <time>2021-07-29T18:21:54Z</time>
      </trkpt>
      <trkpt lat="49.26476" lon="0.14866">
        <ele>118.38</ele>
        <time>2021-07-29T18:22:15Z</time>
      </trkpt>
      <trkpt lat="49.26401" lon="0.14159">
        <ele>118.86</ele>
        <time>2021-07-29T18:22:37Z</time>
      </trkpt>
      <trkpt lat="49.26324" lon="0.13415">
        <ele>120.3</ele>
        <time>2021-07-29T18:22:59Z</time>
      </trkpt>
      <trkpt lat="49.26249" lon="0.12696">
        <ele>121.74</ele>
        <time>2021-07-29T18:23:21Z</time>
      </trkpt>
      <trkpt lat="49.26164" lon="0.11873">
        <ele>121.26</ele>
        <time>2021-07-29T18:23:46Z</time>
      </trkpt>
      <trkpt lat="49.26104" lon="0.11259">
        <ele>127.03</ele>
        <time>2021-07-29T18:24:06Z</time>
      </trkpt>
      <trkpt lat="49.26068" lon="0.10958">
        <ele>127.03</ele>
        <time>2021-07-29T18:24:17Z</time>
      </trkpt>
      <trkpt lat="49.26064" lon="0.10939">
        <ele>127.03</ele>
        <time>2021-07-29T18:24:18Z</time>
      </trkpt>
      <trkpt lat="49.26048" lon="0.10879">
        <ele>128.47</ele>
        <time>2021-07-29T18:24:22Z</time>
      </trkpt>
      <trkpt lat="49.26045" lon="0.10867">
        <ele>128.95</ele>
        <time>2021-07-29T18:24:23Z</time>
      </trkpt>
      <trkpt lat="49.26048" lon="0.1084">
        <ele>128.95</ele>
        <time>2021-07-29T18:24:25Z</time>
      </trkpt>
      <trkpt lat="49.26047" lon="0.10828">
        <ele>128.95</ele>
        <time>2021-07-29T18:24:26Z</time>
      </trkpt>
      <trkpt lat="49.26041" lon="0.10818">
        <ele>129.43</ele>
        <time>2021-07-29T18:24:27Z</time>
      </trkpt>
      <trkpt lat="49.26036" lon="0.10809">
        <ele>129.43</ele>
        <time>2021-07-29T18:24:28Z</time>
      </trkpt>
      <trkpt lat="49.26034" lon="0.10792">
        <ele>129.43</ele>
        <time>2021-07-29T18:24:29Z</time>
      </trkpt>
      <trkpt lat="49.26034" lon="0.10763">
        <ele>130.4</ele>
        <time>2021-07-29T18:24:30Z</time>
      </trkpt>
      <trkpt lat="49.26034" lon="0.10747">
        <ele>129.43</ele>
        <time>2021-07-29T18:24:31Z</time>
      </trkpt>
      <trkpt lat="49.26034" lon="0.10747">
        <ele>128.95</ele>
        <time>2021-07-29T18:24:32Z</time>
      </trkpt>
      <trkpt lat="49.2604" lon="0.10656">
        <ele>127.99</ele>
        <time>2021-07-29T18:24:37Z</time>
      </trkpt>
      <trkpt lat="49.26014" lon="0.10405">
        <ele>128.47</ele>
        <time>2021-07-29T18:24:48Z</time>
      </trkpt>
      <trkpt lat="49.25972" lon="0.10013">
        <ele>130.4</ele>
        <time>2021-07-29T18:25:02Z</time>
      </trkpt>
      <trkpt lat="49.25909" lon="0.09434">
        <ele>136.64</ele>
        <time>2021-07-29T18:25:22Z</time>
      </trkpt>
      <trkpt lat="49.25843" lon="0.08956">
        <ele>131.84</ele>
        <time>2021-07-29T18:25:37Z</time>
      </trkpt>
      <trkpt lat="49.25793" lon="0.085">
        <ele>133.76</ele>
        <time>2021-07-29T18:25:51Z</time>
      </trkpt>
      <trkpt lat="49.25736" lon="0.07904">
        <ele>131.36</ele>
        <time>2021-07-29T18:26:10Z</time>
      </trkpt>
      <trkpt lat="49.25684" lon="0.07355">
        <ele>131.84</ele>
        <time>2021-07-29T18:26:27Z</time>
      </trkpt>
      <trkpt lat="49.25606" lon="0.06548">
        <ele>139.05</ele>
        <time>2021-07-29T18:26:52Z</time>
      </trkpt>
      <trkpt lat="49.25545" lon="0.05927">
        <ele>139.53</ele>
        <time>2021-07-29T18:27:12Z</time>
      </trkpt>
      <trkpt lat="49.25523" lon="0.05685">
        <ele>138.09</ele>
        <time>2021-07-29T18:27:22Z</time>
      </trkpt>
      <trkpt lat="49.25517" lon="0.0561">
        <ele>137.61</ele>
        <time>2021-07-29T18:27:27Z</time>
      </trkpt>
      <trkpt lat="49.25517" lon="0.056">
        <ele>137.61</ele>
        <time>2021-07-29T18:27:28Z</time>
      </trkpt>
      <trkpt lat="49.25522" lon="0.05588">
        <ele>137.61</ele>
        <time>2021-07-29T18:27:29Z</time>
      </trkpt>
      <trkpt lat="49.25522" lon="0.05588">
        <ele>137.61</ele>
        <time>2021-07-29T18:27:30Z</time>
      </trkpt>
      <trkpt lat="49.25525" lon="0.05574">
        <ele>137.13</ele>
        <time>2021-07-29T18:27:31Z</time>
      </trkpt>
      <trkpt lat="49.25525" lon="0.05568">
        <ele>136.64</ele>
        <time>2021-07-29T18:27:32Z</time>
      </trkpt>
      <trkpt lat="49.25514" lon="0.05547">
        <ele>136.64</ele>
        <time>2021-07-29T18:27:33Z</time>
      </trkpt>
      <trkpt lat="49.25514" lon="0.05547">
        <ele>136.64</ele>
        <time>2021-07-29T18:27:34Z</time>
      </trkpt>
      <trkpt lat="49.25513" lon="0.05536">
        <ele>136.64</ele>
        <time>2021-07-29T18:27:35Z</time>
      </trkpt>
      <trkpt lat="49.25511" lon="0.05522">
        <ele>136.64</ele>
        <time>2021-07-29T18:27:36Z</time>
      </trkpt>
      <trkpt lat="49.25508" lon="0.05508">
        <ele>137.13</ele>
        <time>2021-07-29T18:27:37Z</time>
      </trkpt>
      <trkpt lat="49.25487" lon="0.05308">
        <ele>132.8</ele>
        <time>2021-07-29T18:27:47Z</time>
      </trkpt>
      <trkpt lat="49.25446" lon="0.04942">
        <ele>127.03</ele>
        <time>2021-07-29T18:28:01Z</time>
      </trkpt>
      <trkpt lat="49.25396" lon="0.04725">
        <ele>124.15</ele>
        <time>2021-07-29T18:28:09Z</time>
      </trkpt>
      <trkpt lat="49.25247" lon="0.04233">
        <ele>117.9</ele>
        <time>2021-07-29T18:28:27Z</time>
      </trkpt>
      <trkpt lat="49.25141" lon="0.03943">
        <ele>109.25</ele>
        <time>2021-07-29T18:28:38Z</time>
      </trkpt>
      <trkpt lat="49.25129" lon="0.03881">
        <ele>107.32</ele>
        <time>2021-07-29T18:28:39Z</time>
      </trkpt>
      <trkpt lat="49.25105" lon="0.03565">
        <ele>91.46</ele>
        <time>2021-07-29T18:28:50Z</time>
      </trkpt>
      <trkpt lat="49.25037" lon="0.03287">
        <ele>80.41</ele>
        <time>2021-07-29T18:28:58Z</time>
      </trkpt>
      <trkpt lat="49.24994" lon="0.03131">
        <ele>73.68</ele>
        <time>2021-07-29T18:29:05Z</time>
      </trkpt>
      <trkpt lat="49.24992" lon="0.03107">
        <ele>73.2</ele>
        <time>2021-07-29T18:29:06Z</time>
      </trkpt>
      <trkpt lat="49.24991" lon="0.03081">
        <ele>72.24</ele>
        <time>2021-07-29T18:29:07Z</time>
      </trkpt>
      <trkpt lat="49.24991" lon="0.03056">
        <ele>71.27</ele>
        <time>2021-07-29T18:29:08Z</time>
      </trkpt>
      <trkpt lat="49.24994" lon="0.03031">
        <ele>70.79</ele>
        <time>2021-07-29T18:29:09Z</time>
      </trkpt>
      <trkpt lat="49.25035" lon="0.02711">
        <ele>57.82</ele>
        <time>2021-07-29T18:29:20Z</time>
      </trkpt>
      <trkpt lat="49.25037" lon="0.02656">
        <ele>57.34</ele>
        <time>2021-07-29T18:29:21Z</time>
      </trkpt>
      <trkpt lat="49.25037" lon="0.02656">
        <ele>56.86</ele>
        <time>2021-07-29T18:29:22Z</time>
      </trkpt>
      <trkpt lat="49.25019" lon="0.0241">
        <ele>51.09</ele>
        <time>2021-07-29T18:29:32Z</time>
      </trkpt>
      <trkpt lat="49.24997" lon="0.02107">
        <ele>48.68</ele>
        <time>2021-07-29T18:29:47Z</time>
      </trkpt>
      <trkpt lat="49.24976" lon="0.01823">
        <ele>46.28</ele>
        <time>2021-07-29T18:30:02Z</time>
      </trkpt>
      <trkpt lat="49.24948" lon="0.0142">
        <ele>41.95</ele>
        <time>2021-07-29T18:30:21Z</time>
      </trkpt>
      <trkpt lat="49.24927" lon="0.0113">
        <ele>44.36</ele>
        <time>2021-07-29T18:30:32Z</time>
      </trkpt>
      <trkpt lat="49.24899" lon="0.00749">
        <ele>44.84</ele>
        <time>2021-07-29T18:30:44Z</time>
      </trkpt>
      <trkpt lat="49.2488" lon="0.00389">
        <ele>41.47</ele>
        <time>2021-07-29T18:30:55Z</time>
      </trkpt>
      <trkpt lat="49.24902" lon="0.00083">
        <ele>37.63</ele>
        <time>2021-07-29T18:31:04Z</time>
      </trkpt>
      <trkpt lat="49.24905" lon="-0.00142">
        <ele>33.78</ele>
        <time>2021-07-29T18:31:11Z</time>
      </trkpt>
      <trkpt lat="49.24867" lon="-0.003">
        <ele>33.78</ele>
        <time>2021-07-29T18:31:17Z</time>
      </trkpt>
      <trkpt lat="49.24794" lon="-0.00431">
        <ele>34.74</ele>
        <time>2021-07-29T18:31:25Z</time>
      </trkpt>
      <trkpt lat="49.24677" lon="-0.00533">
        <ele>34.26</ele>
        <time>2021-07-29T18:31:35Z</time>
      </trkpt>
      <trkpt lat="49.24593" lon="-0.00635">
        <ele>33.3</ele>
        <time>2021-07-29T18:31:43Z</time>
      </trkpt>
      <trkpt lat="49.24504" lon="-0.00874">
        <ele>30.42</ele>
        <time>2021-07-29T18:31:54Z</time>
      </trkpt>
      <trkpt lat="49.2435" lon="-0.01311">
        <ele>30.9</ele>
        <time>2021-07-29T18:32:14Z</time>
      </trkpt>
      <trkpt lat="49.24266" lon="-0.0155">
        <ele>32.34</ele>
        <time>2021-07-29T18:32:23Z</time>
      </trkpt>
      <trkpt lat="49.24146" lon="-0.01896">
        <ele>30.42</ele>
        <time>2021-07-29T18:32:35Z</time>
      </trkpt>
      <trkpt lat="49.23974" lon="-0.02389">
        <ele>29.46</ele>
        <time>2021-07-29T18:32:53Z</time>
      </trkpt>
      <trkpt lat="49.23856" lon="-0.02723">
        <ele>34.26</ele>
        <time>2021-07-29T18:33:05Z</time>
      </trkpt>
      <trkpt lat="49.23776" lon="-0.02954">
        <ele>38.11</ele>
        <time>2021-07-29T18:33:17Z</time>
      </trkpt>
      <trkpt lat="49.23666" lon="-0.03263">
        <ele>38.11</ele>
        <time>2021-07-29T18:33:32Z</time>
      </trkpt>
      <trkpt lat="49.23564" lon="-0.03473">
        <ele>24.65</ele>
        <time>2021-07-29T18:33:43Z</time>
      </trkpt>
      <trkpt lat="49.23476" lon="-0.03637">
        <ele>17.44</ele>
        <time>2021-07-29T18:33:54Z</time>
      </trkpt>
      <trkpt lat="49.23402" lon="-0.03778">
        <ele>17.92</ele>
        <time>2021-07-29T18:34:05Z</time>
      </trkpt>
      <trkpt lat="49.23398" lon="-0.03786">
        <ele>18.4</ele>
        <time>2021-07-29T18:34:06Z</time>
      </trkpt>
      <trkpt lat="49.23394" lon="-0.03794">
        <ele>18.4</ele>
        <time>2021-07-29T18:34:07Z</time>
      </trkpt>
      <trkpt lat="49.23391" lon="-0.03812">
        <ele>18.88</ele>
        <time>2021-07-29T18:34:09Z</time>
      </trkpt>
      <trkpt lat="49.2339" lon="-0.03828">
        <ele>18.88</ele>
        <time>2021-07-29T18:34:10Z</time>
      </trkpt>
      <trkpt lat="49.23386" lon="-0.03831">
        <ele>18.88</ele>
        <time>2021-07-29T18:34:11Z</time>
      </trkpt>
      <trkpt lat="49.23384" lon="-0.03832">
        <ele>18.4</ele>
        <time>2021-07-29T18:34:12Z</time>
      </trkpt>
      <trkpt lat="49.23374" lon="-0.03835">
        <ele>17.92</ele>
        <time>2021-07-29T18:34:13Z</time>
      </trkpt>
      <trkpt lat="49.2337" lon="-0.03842">
        <ele>17.92</ele>
        <time>2021-07-29T18:34:14Z</time>
      </trkpt>
      <trkpt lat="49.23365" lon="-0.03849">
        <ele>18.4</ele>
        <time>2021-07-29T18:34:15Z</time>
      </trkpt>
      <trkpt lat="49.23359" lon="-0.03858">
        <ele>18.4</ele>
        <time>2021-07-29T18:34:16Z</time>
      </trkpt>
      <trkpt lat="49.2328" lon="-0.04007">
        <ele>21.77</ele>
        <time>2021-07-29T18:34:30Z</time>
      </trkpt>
      <trkpt lat="49.23245" lon="-0.04069">
        <ele>23.21</ele>
        <time>2021-07-29T18:34:38Z</time>
      </trkpt>
      <trkpt lat="49.23235" lon="-0.04089">
        <ele>23.69</ele>
        <time>2021-07-29T18:34:47Z</time>
      </trkpt>
      <trkpt lat="49.23191" lon="-0.04173">
        <ele>25.13</ele>
        <time>2021-07-29T18:34:57Z</time>
      </trkpt>
      <trkpt lat="49.23143" lon="-0.04299">
        <ele>25.61</ele>
        <time>2021-07-29T18:35:09Z</time>
      </trkpt>
      <trkpt lat="49.23117" lon="-0.04426">
        <ele>27.05</ele>
        <time>2021-07-29T18:35:21Z</time>
      </trkpt>
      <trkpt lat="49.2309" lon="-0.0455">
        <ele>28.02</ele>
        <time>2021-07-29T18:35:32Z</time>
      </trkpt>
      <trkpt lat="49.23046" lon="-0.04699">
        <ele>35.71</ele>
        <time>2021-07-29T18:35:43Z</time>
      </trkpt>
      <trkpt lat="49.2299" lon="-0.04885">
        <ele>40.51</ele>
        <time>2021-07-29T18:35:54Z</time>
      </trkpt>
      <trkpt lat="49.22911" lon="-0.0513">
        <ele>34.26</ele>
        <time>2021-07-29T18:36:09Z</time>
      </trkpt>
      <trkpt lat="49.22856" lon="-0.05309">
        <ele>36.67</ele>
        <time>2021-07-29T18:36:20Z</time>
      </trkpt>
      <trkpt lat="49.22785" lon="-0.05546">
        <ele>32.34</ele>
        <time>2021-07-29T18:36:31Z</time>
      </trkpt>
      <trkpt lat="49.2267" lon="-0.0592">
        <ele>35.71</ele>
        <time>2021-07-29T18:36:46Z</time>
      </trkpt>
      <trkpt lat="49.22576" lon="-0.0624">
        <ele>25.61</ele>
        <time>2021-07-29T18:36:58Z</time>
      </trkpt>
      <trkpt lat="49.22487" lon="-0.06658">
        <ele>14.56</ele>
        <time>2021-07-29T18:37:13Z</time>
      </trkpt>
      <trkpt lat="49.22407" lon="-0.0703">
        <ele>4.46</ele>
        <time>2021-07-29T18:37:26Z</time>
      </trkpt>
      <trkpt lat="49.22301" lon="-0.07506">
        <ele>1.1</ele>
        <time>2021-07-29T18:37:44Z</time>
      </trkpt>
      <trkpt lat="49.22269" lon="-0.07683">
        <ele>2.54</ele>
        <time>2021-07-29T18:37:52Z</time>
      </trkpt>
      <trkpt lat="49.22252" lon="-0.07788">
        <ele>3.98</ele>
        <time>2021-07-29T18:37:58Z</time>
      </trkpt>
      <trkpt lat="49.22251" lon="-0.07798">
        <ele>4.46</ele>
        <time>2021-07-29T18:37:59Z</time>
      </trkpt>
      <trkpt lat="49.22251" lon="-0.07804">
        <ele>4.46</ele>
        <time>2021-07-29T18:38:00Z</time>
      </trkpt>
      <trkpt lat="49.22252" lon="-0.07812">
        <ele>4.46</ele>
        <time>2021-07-29T18:38:01Z</time>
      </trkpt>
      <trkpt lat="49.22253" lon="-0.0782">
        <ele>4.46</ele>
        <time>2021-07-29T18:38:02Z</time>
      </trkpt>
      <trkpt lat="49.22255" lon="-0.07829">
        <ele>4.94</ele>
        <time>2021-07-29T18:38:03Z</time>
      </trkpt>
      <trkpt lat="49.22252" lon="-0.07837">
        <ele>4.94</ele>
        <time>2021-07-29T18:38:04Z</time>
      </trkpt>
      <trkpt lat="49.22248" lon="-0.07843">
        <ele>4.94</ele>
        <time>2021-07-29T18:38:05Z</time>
      </trkpt>
      <trkpt lat="49.22248" lon="-0.07843">
        <ele>4.94</ele>
        <time>2021-07-29T18:38:06Z</time>
      </trkpt>
      <trkpt lat="49.22238" lon="-0.07858">
        <ele>4.94</ele>
        <time>2021-07-29T18:38:07Z</time>
      </trkpt>
      <trkpt lat="49.22236" lon="-0.07868">
        <ele>4.94</ele>
        <time>2021-07-29T18:38:08Z</time>
      </trkpt>
      <trkpt lat="49.22232" lon="-0.07879">
        <ele>4.94</ele>
        <time>2021-07-29T18:38:09Z</time>
      </trkpt>
      <trkpt lat="49.2219" lon="-0.08047">
        <ele>4.94</ele>
        <time>2021-07-29T18:38:19Z</time>
      </trkpt>
      <trkpt lat="49.22132" lon="-0.08283">
        <ele>0.62</ele>
        <time>2021-07-29T18:38:29Z</time>
      </trkpt>
      <trkpt lat="49.22042" lon="-0.08685">
        <ele>0.14</ele>
        <time>2021-07-29T18:38:43Z</time>
      </trkpt>
      <trkpt lat="49.21969" lon="-0.09026">
        <ele>2.06</ele>
        <time>2021-07-29T18:38:54Z</time>
      </trkpt>
      <trkpt lat="49.21832" lon="-0.09653">
        <ele>18.88</ele>
        <time>2021-07-29T18:39:14Z</time>
      </trkpt>
      <trkpt lat="49.21765" lon="-0.0995">
        <ele>19.84</ele>
        <time>2021-07-29T18:39:26Z</time>
      </trkpt>
      <trkpt lat="49.21687" lon="-0.10146">
        <ele>17.44</ele>
        <time>2021-07-29T18:39:35Z</time>
      </trkpt>
      <trkpt lat="49.21508" lon="-0.1057">
        <ele>15.52</ele>
        <time>2021-07-29T18:39:51Z</time>
      </trkpt>
      <trkpt lat="49.21294" lon="-0.11072">
        <ele>14.08</ele>
        <time>2021-07-29T18:40:09Z</time>
      </trkpt>
      <trkpt lat="49.2118" lon="-0.11315">
        <ele>16</ele>
        <time>2021-07-29T18:40:21Z</time>
      </trkpt>
      <trkpt lat="49.20943" lon="-0.1166">
        <ele>14.08</ele>
        <time>2021-07-29T18:40:41Z</time>
      </trkpt>
      <trkpt lat="49.2076" lon="-0.11924">
        <ele>3.5</ele>
        <time>2021-07-29T18:40:56Z</time>
      </trkpt>
      <trkpt lat="49.20511" lon="-0.12279">
        <ele>-3.71</ele>
        <time>2021-07-29T18:41:13Z</time>
      </trkpt>
    </trkseg>
  </trk>
  <trk>
    <name><![CDATA[Journal actif: 2021-07-29 16:41]]></name>
    <trkseg>
      <trkpt lat="49.2037" lon="-0.12479">
        <ele>-1.3</ele>
        <time>2021-07-29T18:41:24Z</time>
      </trkpt>
      <trkpt lat="49.20097" lon="-0.12868">
        <ele>0.14</ele>
        <time>2021-07-29T18:41:43Z</time>
      </trkpt>
      <trkpt lat="49.19966" lon="-0.13058">
        <ele>3.02</ele>
        <time>2021-07-29T18:41:53Z</time>
      </trkpt>
      <trkpt lat="49.19785" lon="-0.13315">
        <ele>7.35</ele>
        <time>2021-07-29T18:42:07Z</time>
      </trkpt>
      <trkpt lat="49.19551" lon="-0.13653">
        <ele>12.63</ele>
        <time>2021-07-29T18:42:23Z</time>
      </trkpt>
      <trkpt lat="49.19447" lon="-0.13885">
        <ele>6.39</ele>
        <time>2021-07-29T18:42:32Z</time>
      </trkpt>
      <trkpt lat="49.19236" lon="-0.14407">
        <ele>4.46</ele>
        <time>2021-07-29T18:42:50Z</time>
      </trkpt>
      <trkpt lat="49.18902" lon="-0.15219">
        <ele>5.42</ele>
        <time>2021-07-29T18:43:18Z</time>
      </trkpt>
      <trkpt lat="49.18748" lon="-0.15541">
        <ele>6.87</ele>
        <time>2021-07-29T18:43:30Z</time>
      </trkpt>
      <trkpt lat="49.18626" lon="-0.15756">
        <ele>10.23</ele>
        <time>2021-07-29T18:43:40Z</time>
      </trkpt>
      <trkpt lat="49.1857" lon="-0.15891">
        <ele>10.23</ele>
        <time>2021-07-29T18:43:47Z</time>
      </trkpt>
      <trkpt lat="49.18491" lon="-0.16115">
        <ele>10.23</ele>
        <time>2021-07-29T18:44:00Z</time>
      </trkpt>
      <trkpt lat="49.1848" lon="-0.16152">
        <ele>9.27</ele>
        <time>2021-07-29T18:44:02Z</time>
      </trkpt>
      <trkpt lat="49.18435" lon="-0.16402">
        <ele>6.39</ele>
        <time>2021-07-29T18:44:13Z</time>
      </trkpt>
      <trkpt lat="49.18411" lon="-0.16603">
        <ele>5.42</ele>
        <time>2021-07-29T18:44:22Z</time>
      </trkpt>
      <trkpt lat="49.1837" lon="-0.17057">
        <ele>3.98</ele>
        <time>2021-07-29T18:44:38Z</time>
      </trkpt>
      <trkpt lat="49.18336" lon="-0.17343">
        <ele>4.94</ele>
        <time>2021-07-29T18:44:48Z</time>
      </trkpt>
      <trkpt lat="49.18311" lon="-0.1752">
        <ele>5.42</ele>
        <time>2021-07-29T18:44:56Z</time>
      </trkpt>
      <trkpt lat="49.18271" lon="-0.17856">
        <ele>19.36</ele>
        <time>2021-07-29T18:45:15Z</time>
      </trkpt>
      <trkpt lat="49.18244" lon="-0.1808">
        <ele>28.5</ele>
        <time>2021-07-29T18:45:30Z</time>
      </trkpt>
      <trkpt lat="49.1824" lon="-0.18155">
        <ele>30.9</ele>
        <time>2021-07-29T18:45:39Z</time>
      </trkpt>
      <trkpt lat="49.18231" lon="-0.18236">
        <ele>31.86</ele>
        <time>2021-07-29T18:45:50Z</time>
      </trkpt>
      <trkpt lat="49.18229" lon="-0.18244">
        <ele>31.86</ele>
        <time>2021-07-29T18:45:51Z</time>
      </trkpt>
      <trkpt lat="49.18227" lon="-0.18251">
        <ele>31.86</ele>
        <time>2021-07-29T18:45:52Z</time>
      </trkpt>
      <trkpt lat="49.18224" lon="-0.1826">
        <ele>31.38</ele>
        <time>2021-07-29T18:45:53Z</time>
      </trkpt>
      <trkpt lat="49.18221" lon="-0.18267">
        <ele>31.38</ele>
        <time>2021-07-29T18:45:54Z</time>
      </trkpt>
      <trkpt lat="49.18216" lon="-0.18274">
        <ele>31.38</ele>
        <time>2021-07-29T18:45:55Z</time>
      </trkpt>
      <trkpt lat="49.18157" lon="-0.18372">
        <ele>30.9</ele>
        <time>2021-07-29T18:46:08Z</time>
      </trkpt>
      <trkpt lat="49.18091" lon="-0.18464">
        <ele>31.38</ele>
        <time>2021-07-29T18:46:26Z</time>
      </trkpt>
      <trkpt lat="49.18079" lon="-0.18479">
        <ele>31.38</ele>
        <time>2021-07-29T18:46:29Z</time>
      </trkpt>
      <trkpt lat="49.18075" lon="-0.18484">
        <ele>31.38</ele>
        <time>2021-07-29T18:46:30Z</time>
      </trkpt>
      <trkpt lat="49.18053" lon="-0.18516">
        <ele>30.9</ele>
        <time>2021-07-29T18:46:35Z</time>
      </trkpt>
      <trkpt lat="49.18048" lon="-0.18523">
        <ele>30.9</ele>
        <time>2021-07-29T18:46:36Z</time>
      </trkpt>
      <trkpt lat="49.1798" lon="-0.18613">
        <ele>32.34</ele>
        <time>2021-07-29T18:46:47Z</time>
      </trkpt>
      <trkpt lat="49.17975" lon="-0.18619">
        <ele>32.34</ele>
        <time>2021-07-29T18:46:48Z</time>
      </trkpt>
      <trkpt lat="49.17963" lon="-0.18669">
        <ele>32.34</ele>
        <time>2021-07-29T18:46:52Z</time>
      </trkpt>
      <trkpt lat="49.17963" lon="-0.18669">
        <ele>32.34</ele>
        <time>2021-07-29T18:46:53Z</time>
      </trkpt>
      <trkpt lat="49.17963" lon="-0.18682">
        <ele>32.34</ele>
        <time>2021-07-29T18:46:54Z</time>
      </trkpt>
      <trkpt lat="49.17959" lon="-0.1888">
        <ele>32.34</ele>
        <time>2021-07-29T18:47:06Z</time>
      </trkpt>
      <trkpt lat="49.17949" lon="-0.19157">
        <ele>30.9</ele>
        <time>2021-07-29T18:47:20Z</time>
      </trkpt>
      <trkpt lat="49.17939" lon="-0.19507">
        <ele>22.73</ele>
        <time>2021-07-29T18:47:35Z</time>
      </trkpt>
      <trkpt lat="49.17923" lon="-0.19847">
        <ele>13.12</ele>
        <time>2021-07-29T18:47:49Z</time>
      </trkpt>
      <trkpt lat="49.17905" lon="-0.19963">
        <ele>8.79</ele>
        <time>2021-07-29T18:47:56Z</time>
      </trkpt>
      <trkpt lat="49.17903" lon="-0.19977">
        <ele>8.79</ele>
        <time>2021-07-29T18:47:57Z</time>
      </trkpt>
      <trkpt lat="49.17917" lon="-0.20137">
        <ele>7.35</ele>
        <time>2021-07-29T18:48:07Z</time>
      </trkpt>
      <trkpt lat="49.17918" lon="-0.20162">
        <ele>6.39</ele>
        <time>2021-07-29T18:48:09Z</time>
      </trkpt>
      <trkpt lat="49.17918" lon="-0.20172">
        <ele>6.39</ele>
        <time>2021-07-29T18:48:10Z</time>
      </trkpt>
      <trkpt lat="49.17933" lon="-0.20187">
        <ele>5.91</ele>
        <time>2021-07-29T18:48:12Z</time>
      </trkpt>
      <trkpt lat="49.17935" lon="-0.20197">
        <ele>5.91</ele>
        <time>2021-07-29T18:48:13Z</time>
      </trkpt>
      <trkpt lat="49.17933" lon="-0.2021">
        <ele>5.91</ele>
        <time>2021-07-29T18:48:14Z</time>
      </trkpt>
      <trkpt lat="49.17931" lon="-0.2022">
        <ele>5.42</ele>
        <time>2021-07-29T18:48:15Z</time>
      </trkpt>
      <trkpt lat="49.17923" lon="-0.20224">
        <ele>5.42</ele>
        <time>2021-07-29T18:48:16Z</time>
      </trkpt>
      <trkpt lat="49.17916" lon="-0.20242">
        <ele>4.94</ele>
        <time>2021-07-29T18:48:17Z</time>
      </trkpt>
      <trkpt lat="49.17916" lon="-0.20255">
        <ele>4.94</ele>
        <time>2021-07-29T18:48:18Z</time>
      </trkpt>
      <trkpt lat="49.17915" lon="-0.20268">
        <ele>4.46</ele>
        <time>2021-07-29T18:48:19Z</time>
      </trkpt>
      <trkpt lat="49.17915" lon="-0.20283">
        <ele>4.94</ele>
        <time>2021-07-29T18:48:20Z</time>
      </trkpt>
      <trkpt lat="49.17907" lon="-0.20482">
        <ele>2.06</ele>
        <time>2021-07-29T18:48:30Z</time>
      </trkpt>
      <trkpt lat="49.17898" lon="-0.20808">
        <ele>5.42</ele>
        <time>2021-07-29T18:48:43Z</time>
      </trkpt>
      <trkpt lat="49.17881" lon="-0.21338">
        <ele>7.35</ele>
        <time>2021-07-29T18:49:02Z</time>
      </trkpt>
      <trkpt lat="49.17871" lon="-0.21525">
        <ele>8.79</ele>
        <time>2021-07-29T18:49:10Z</time>
      </trkpt>
      <trkpt lat="49.17871" lon="-0.21563">
        <ele>9.27</ele>
        <time>2021-07-29T18:49:13Z</time>
      </trkpt>
      <trkpt lat="49.17871" lon="-0.21565">
        <ele>9.27</ele>
        <time>2021-07-29T18:49:14Z</time>
      </trkpt>
      <trkpt lat="49.17871" lon="-0.21585">
        <ele>9.27</ele>
        <time>2021-07-29T18:49:15Z</time>
      </trkpt>
      <trkpt lat="49.17869" lon="-0.21596">
        <ele>9.75</ele>
        <time>2021-07-29T18:49:16Z</time>
      </trkpt>
      <trkpt lat="49.17867" lon="-0.21608">
        <ele>9.75</ele>
        <time>2021-07-29T18:49:17Z</time>
      </trkpt>
      <trkpt lat="49.17836" lon="-0.21776">
        <ele>11.19</ele>
        <time>2021-07-29T18:49:27Z</time>
      </trkpt>
      <trkpt lat="49.17799" lon="-0.22037">
        <ele>13.12</ele>
        <time>2021-07-29T18:49:40Z</time>
      </trkpt>
      <trkpt lat="49.1778" lon="-0.22166">
        <ele>12.15</ele>
        <time>2021-07-29T18:49:47Z</time>
      </trkpt>
      <trkpt lat="49.17779" lon="-0.22191">
        <ele>12.15</ele>
        <time>2021-07-29T18:49:48Z</time>
      </trkpt>
      <trkpt lat="49.17782" lon="-0.22199">
        <ele>12.63</ele>
        <time>2021-07-29T18:49:50Z</time>
      </trkpt>
      <trkpt lat="49.17779" lon="-0.22212">
        <ele>12.63</ele>
        <time>2021-07-29T18:49:51Z</time>
      </trkpt>
      <trkpt lat="49.17771" lon="-0.22233">
        <ele>12.63</ele>
        <time>2021-07-29T18:49:53Z</time>
      </trkpt>
      <trkpt lat="49.1777" lon="-0.22246">
        <ele>12.63</ele>
        <time>2021-07-29T18:49:54Z</time>
      </trkpt>
      <trkpt lat="49.17757" lon="-0.22466">
        <ele>14.08</ele>
        <time>2021-07-29T18:50:06Z</time>
      </trkpt>
      <trkpt lat="49.17732" lon="-0.2267">
        <ele>12.63</ele>
        <time>2021-07-29T18:50:17Z</time>
      </trkpt>
      <trkpt lat="49.17658" lon="-0.22939">
        <ele>14.08</ele>
        <time>2021-07-29T18:50:30Z</time>
      </trkpt>
      <trkpt lat="49.17559" lon="-0.2329">
        <ele>18.88</ele>
        <time>2021-07-29T18:50:46Z</time>
      </trkpt>
      <trkpt lat="49.17473" lon="-0.23612">
        <ele>20.81</ele>
        <time>2021-07-29T18:50:59Z</time>
      </trkpt>
      <trkpt lat="49.17452" lon="-0.24027">
        <ele>22.25</ele>
        <time>2021-07-29T18:51:14Z</time>
      </trkpt>
      <trkpt lat="49.17417" lon="-0.24725">
        <ele>23.69</ele>
        <time>2021-07-29T18:51:37Z</time>
      </trkpt>
      <trkpt lat="49.17381" lon="-0.2546">
        <ele>19.36</ele>
        <time>2021-07-29T18:51:59Z</time>
      </trkpt>
      <trkpt lat="49.17347" lon="-0.2615">
        <ele>16.96</ele>
        <time>2021-07-29T18:52:19Z</time>
      </trkpt>
      <trkpt lat="49.17332" lon="-0.26444">
        <ele>18.88</ele>
        <time>2021-07-29T18:52:29Z</time>
      </trkpt>
      <trkpt lat="49.17328" lon="-0.2652">
        <ele>19.84</ele>
        <time>2021-07-29T18:52:33Z</time>
      </trkpt>
      <trkpt lat="49.17328" lon="-0.26533">
        <ele>19.36</ele>
        <time>2021-07-29T18:52:34Z</time>
      </trkpt>
      <trkpt lat="49.17337" lon="-0.26544">
        <ele>19.84</ele>
        <time>2021-07-29T18:52:35Z</time>
      </trkpt>
      <trkpt lat="49.1734" lon="-0.26555">
        <ele>19.84</ele>
        <time>2021-07-29T18:52:36Z</time>
      </trkpt>
      <trkpt lat="49.17338" lon="-0.26569">
        <ele>19.84</ele>
        <time>2021-07-29T18:52:37Z</time>
      </trkpt>
      <trkpt lat="49.17335" lon="-0.26579">
        <ele>19.84</ele>
        <time>2021-07-29T18:52:38Z</time>
      </trkpt>
      <trkpt lat="49.17324" lon="-0.26602">
        <ele>19.84</ele>
        <time>2021-07-29T18:52:39Z</time>
      </trkpt>
      <trkpt lat="49.17324" lon="-0.26602">
        <ele>19.84</ele>
        <time>2021-07-29T18:52:40Z</time>
      </trkpt>
      <trkpt lat="49.17323" lon="-0.26614">
        <ele>19.84</ele>
        <time>2021-07-29T18:52:41Z</time>
      </trkpt>
      <trkpt lat="49.17323" lon="-0.26628">
        <ele>19.84</ele>
        <time>2021-07-29T18:52:42Z</time>
      </trkpt>
      <trkpt lat="49.17314" lon="-0.26798">
        <ele>21.29</ele>
        <time>2021-07-29T18:52:51Z</time>
      </trkpt>
      <trkpt lat="49.17297" lon="-0.2712">
        <ele>21.29</ele>
        <time>2021-07-29T18:53:03Z</time>
      </trkpt>
      <trkpt lat="49.17276" lon="-0.27521">
        <ele>22.73</ele>
        <time>2021-07-29T18:53:19Z</time>
      </trkpt>
      <trkpt lat="49.17265" lon="-0.27776">
        <ele>21.77</ele>
        <time>2021-07-29T18:53:30Z</time>
      </trkpt>
      <trkpt lat="49.17254" lon="-0.28019">
        <ele>19.36</ele>
        <time>2021-07-29T18:53:44Z</time>
      </trkpt>
      <trkpt lat="49.17251" lon="-0.28074">
        <ele>19.36</ele>
        <time>2021-07-29T18:53:51Z</time>
      </trkpt>
      <trkpt lat="49.17237" lon="-0.28131">
        <ele>18.88</ele>
        <time>2021-07-29T18:54:02Z</time>
      </trkpt>
      <trkpt lat="49.17231" lon="-0.28181">
        <ele>18.4</ele>
        <time>2021-07-29T18:54:08Z</time>
      </trkpt>
      <trkpt lat="49.17231" lon="-0.28188">
        <ele>18.4</ele>
        <time>2021-07-29T18:54:09Z</time>
      </trkpt>
      <trkpt lat="49.17242" lon="-0.28215">
        <ele>18.4</ele>
        <time>2021-07-29T18:54:15Z</time>
      </trkpt>
      <trkpt lat="49.17242" lon="-0.28223">
        <ele>17.92</ele>
        <time>2021-07-29T18:54:18Z</time>
      </trkpt>
      <trkpt lat="49.17236" lon="-0.28239">
        <ele>17.92</ele>
        <time>2021-07-29T18:54:19Z</time>
      </trkpt>
      <trkpt lat="49.17236" lon="-0.28372">
        <ele>16.96</ele>
        <time>2021-07-29T18:54:28Z</time>
      </trkpt>
      <trkpt lat="49.17227" lon="-0.2858">
        <ele>17.44</ele>
        <time>2021-07-29T18:54:38Z</time>
      </trkpt>
      <trkpt lat="49.17214" lon="-0.28864">
        <ele>18.4</ele>
        <time>2021-07-29T18:54:49Z</time>
      </trkpt>
      <trkpt lat="49.172" lon="-0.2918">
        <ele>22.25</ele>
        <time>2021-07-29T18:55:00Z</time>
      </trkpt>
      <trkpt lat="49.17201" lon="-0.29275">
        <ele>22.73</ele>
        <time>2021-07-29T18:55:06Z</time>
      </trkpt>
      <trkpt lat="49.17202" lon="-0.29284">
        <ele>23.69</ele>
        <time>2021-07-29T18:55:14Z</time>
      </trkpt>
      <trkpt lat="49.1721" lon="-0.29339">
        <ele>24.17</ele>
        <time>2021-07-29T18:55:22Z</time>
      </trkpt>
      <trkpt lat="49.1726" lon="-0.29482">
        <ele>21.77</ele>
        <time>2021-07-29T18:55:32Z</time>
      </trkpt>
      <trkpt lat="49.1731" lon="-0.29609">
        <ele>19.36</ele>
        <time>2021-07-29T18:55:43Z</time>
      </trkpt>
      <trkpt lat="49.17323" lon="-0.29643">
        <ele>19.36</ele>
        <time>2021-07-29T18:55:51Z</time>
      </trkpt>
      <trkpt lat="49.17339" lon="-0.29682">
        <ele>19.36</ele>
        <time>2021-07-29T18:56:03Z</time>
      </trkpt>
      <trkpt lat="49.17356" lon="-0.29691">
        <ele>18.4</ele>
        <time>2021-07-29T18:56:07Z</time>
      </trkpt>
      <trkpt lat="49.17361" lon="-0.29697">
        <ele>18.4</ele>
        <time>2021-07-29T18:56:08Z</time>
      </trkpt>
      <trkpt lat="49.17366" lon="-0.29703">
        <ele>18.4</ele>
        <time>2021-07-29T18:56:09Z</time>
      </trkpt>
      <trkpt lat="49.1737" lon="-0.29711">
        <ele>18.4</ele>
        <time>2021-07-29T18:56:10Z</time>
      </trkpt>
      <trkpt lat="49.17373" lon="-0.29722">
        <ele>18.4</ele>
        <time>2021-07-29T18:56:11Z</time>
      </trkpt>
      <trkpt lat="49.17373" lon="-0.2973">
        <ele>18.4</ele>
        <time>2021-07-29T18:56:12Z</time>
      </trkpt>
      <trkpt lat="49.1737" lon="-0.29743">
        <ele>17.92</ele>
        <time>2021-07-29T18:56:13Z</time>
      </trkpt>
      <trkpt lat="49.17368" lon="-0.29754">
        <ele>17.92</ele>
        <time>2021-07-29T18:56:14Z</time>
      </trkpt>
      <trkpt lat="49.17364" lon="-0.29761">
        <ele>17.92</ele>
        <time>2021-07-29T18:56:15Z</time>
      </trkpt>
      <trkpt lat="49.17358" lon="-0.29768">
        <ele>17.92</ele>
        <time>2021-07-29T18:56:16Z</time>
      </trkpt>
      <trkpt lat="49.17352" lon="-0.29773">
        <ele>18.4</ele>
        <time>2021-07-29T18:56:17Z</time>
      </trkpt>
      <trkpt lat="49.17345" lon="-0.29776">
        <ele>18.4</ele>
        <time>2021-07-29T18:56:18Z</time>
      </trkpt>
      <trkpt lat="49.1734" lon="-0.29776">
        <ele>18.4</ele>
        <time>2021-07-29T18:56:19Z</time>
      </trkpt>
      <trkpt lat="49.17335" lon="-0.29773">
        <ele>18.4</ele>
        <time>2021-07-29T18:56:20Z</time>
      </trkpt>
      <trkpt lat="49.17329" lon="-0.29769">
        <ele>18.88</ele>
        <time>2021-07-29T18:56:21Z</time>
      </trkpt>
      <trkpt lat="49.17319" lon="-0.29769">
        <ele>18.4</ele>
        <time>2021-07-29T18:56:22Z</time>
      </trkpt>
      <trkpt lat="49.17314" lon="-0.29771">
        <ele>18.88</ele>
        <time>2021-07-29T18:56:23Z</time>
      </trkpt>
      <trkpt lat="49.17309" lon="-0.29774">
        <ele>18.88</ele>
        <time>2021-07-29T18:56:24Z</time>
      </trkpt>
      <trkpt lat="49.17297" lon="-0.29782">
        <ele>19.36</ele>
        <time>2021-07-29T18:56:25Z</time>
      </trkpt>
      <trkpt lat="49.17297" lon="-0.29782">
        <ele>19.36</ele>
        <time>2021-07-29T18:56:26Z</time>
      </trkpt>
      <trkpt lat="49.17216" lon="-0.29856">
        <ele>23.21</ele>
        <time>2021-07-29T18:56:37Z</time>
      </trkpt>
      <trkpt lat="49.17073" lon="-0.29984">
        <ele>25.13</ele>
        <time>2021-07-29T18:56:50Z</time>
      </trkpt>
      <trkpt lat="49.17022" lon="-0.30045">
        <ele>23.69</ele>
        <time>2021-07-29T18:56:55Z</time>
      </trkpt>
      <trkpt lat="49.17014" lon="-0.30054">
        <ele>24.17</ele>
        <time>2021-07-29T18:56:56Z</time>
      </trkpt>
      <trkpt lat="49.17007" lon="-0.30066">
        <ele>24.17</ele>
        <time>2021-07-29T18:56:57Z</time>
      </trkpt>
      <trkpt lat="49.17001" lon="-0.30078">
        <ele>23.69</ele>
        <time>2021-07-29T18:56:58Z</time>
      </trkpt>
      <trkpt lat="49.16996" lon="-0.30092">
        <ele>22.73</ele>
        <time>2021-07-29T18:56:59Z</time>
      </trkpt>
      <trkpt lat="49.16994" lon="-0.3011">
        <ele>21.77</ele>
        <time>2021-07-29T18:57:00Z</time>
      </trkpt>
      <trkpt lat="49.16993" lon="-0.30127">
        <ele>21.77</ele>
        <time>2021-07-29T18:57:01Z</time>
      </trkpt>
      <trkpt lat="49.16997" lon="-0.30144">
        <ele>21.29</ele>
        <time>2021-07-29T18:57:02Z</time>
      </trkpt>
      <trkpt lat="49.17" lon="-0.30161">
        <ele>20.32</ele>
        <time>2021-07-29T18:57:03Z</time>
      </trkpt>
      <trkpt lat="49.17008" lon="-0.30196">
        <ele>18.88</ele>
        <time>2021-07-29T18:57:04Z</time>
      </trkpt>
      <trkpt lat="49.17082" lon="-0.30397">
        <ele>11.67</ele>
        <time>2021-07-29T18:57:16Z</time>
      </trkpt>
      <trkpt lat="49.17219" lon="-0.30678">
        <ele>7.35</ele>
        <time>2021-07-29T18:57:28Z</time>
      </trkpt>
      <trkpt lat="49.17367" lon="-0.3095">
        <ele>7.83</ele>
        <time>2021-07-29T18:57:42Z</time>
      </trkpt>
      <trkpt lat="49.17502" lon="-0.3121">
        <ele>9.27</ele>
        <time>2021-07-29T18:57:56Z</time>
      </trkpt>
      <trkpt lat="49.17554" lon="-0.31314">
        <ele>10.23</ele>
        <time>2021-07-29T18:58:01Z</time>
      </trkpt>
      <trkpt lat="49.17584" lon="-0.31384">
        <ele>15.04</ele>
        <time>2021-07-29T18:58:04Z</time>
      </trkpt>
      <trkpt lat="49.17592" lon="-0.31402">
        <ele>16.48</ele>
        <time>2021-07-29T18:58:05Z</time>
      </trkpt>
      <trkpt lat="49.176" lon="-0.3142">
        <ele>17.44</ele>
        <time>2021-07-29T18:58:06Z</time>
      </trkpt>
      <trkpt lat="49.17684" lon="-0.31614">
        <ele>22.25</ele>
        <time>2021-07-29T18:58:14Z</time>
      </trkpt>
      <trkpt lat="49.17811" lon="-0.31904">
        <ele>25.61</ele>
        <time>2021-07-29T18:58:28Z</time>
      </trkpt>
      <trkpt lat="49.17922" lon="-0.32163">
        <ele>27.53</ele>
        <time>2021-07-29T18:58:41Z</time>
      </trkpt>
      <trkpt lat="49.18005" lon="-0.32328">
        <ele>27.53</ele>
        <time>2021-07-29T18:58:52Z</time>
      </trkpt>
      <trkpt lat="49.18129" lon="-0.32466">
        <ele>35.23</ele>
        <time>2021-07-29T18:59:02Z</time>
      </trkpt>
      <trkpt lat="49.18269" lon="-0.32599">
        <ele>40.03</ele>
        <time>2021-07-29T18:59:13Z</time>
      </trkpt>
      <trkpt lat="49.18495" lon="-0.32815">
        <ele>52.05</ele>
        <time>2021-07-29T18:59:30Z</time>
      </trkpt>
      <trkpt lat="49.18652" lon="-0.32964">
        <ele>62.62</ele>
        <time>2021-07-29T18:59:42Z</time>
      </trkpt>
      <trkpt lat="49.18865" lon="-0.33168">
        <ele>53.01</ele>
        <time>2021-07-29T18:59:57Z</time>
      </trkpt>
      <trkpt lat="49.19089" lon="-0.33372">
        <ele>44.84</ele>
        <time>2021-07-29T19:00:12Z</time>
      </trkpt>
      <trkpt lat="49.19306" lon="-0.33581">
        <ele>45.32</ele>
        <time>2021-07-29T19:00:27Z</time>
      </trkpt>
      <trkpt lat="49.19491" lon="-0.3376">
        <ele>55.41</ele>
        <time>2021-07-29T19:00:41Z</time>
      </trkpt>
      <trkpt lat="49.19679" lon="-0.33973">
        <ele>63.1</ele>
        <time>2021-07-29T19:00:54Z</time>
      </trkpt>
      <trkpt lat="49.1981" lon="-0.34173">
        <ele>65.03</ele>
        <time>2021-07-29T19:01:07Z</time>
      </trkpt>
      <trkpt lat="49.19945" lon="-0.34434">
        <ele>66.95</ele>
        <time>2021-07-29T19:01:20Z</time>
      </trkpt>
      <trkpt lat="49.20061" lon="-0.34725">
        <ele>70.31</ele>
        <time>2021-07-29T19:01:33Z</time>
      </trkpt>
      <trkpt lat="49.20154" lon="-0.35012">
        <ele>71.76</ele>
        <time>2021-07-29T19:01:45Z</time>
      </trkpt>
    </trkseg>
  </trk>
  <trk>
    <name><![CDATA[Journal actif: 2021-07-29 17:01]]></name>
    <trkseg>
      <trkpt lat="49.2019" lon="-0.35151">
        <ele>73.68</ele>
        <time>2021-07-29T19:01:50Z</time>
      </trkpt>
      <trkpt lat="49.20256" lon="-0.35447">
        <ele>71.76</ele>
        <time>2021-07-29T19:02:03Z</time>
      </trkpt>
      <trkpt lat="49.20288" lon="-0.35729">
        <ele>72.24</ele>
        <time>2021-07-29T19:02:16Z</time>
      </trkpt>
      <trkpt lat="49.20291" lon="-0.35859">
        <ele>67.43</ele>
        <time>2021-07-29T19:02:21Z</time>
      </trkpt>
      <trkpt lat="49.2028" lon="-0.36138">
        <ele>63.1</ele>
        <time>2021-07-29T19:02:30Z</time>
      </trkpt>
      <trkpt lat="49.20239" lon="-0.36415">
        <ele>56.37</ele>
        <time>2021-07-29T19:02:41Z</time>
      </trkpt>
      <trkpt lat="49.20186" lon="-0.36641">
        <ele>52.53</ele>
        <time>2021-07-29T19:02:50Z</time>
      </trkpt>
      <trkpt lat="49.20085" lon="-0.36907">
        <ele>47.24</ele>
        <time>2021-07-29T19:03:03Z</time>
      </trkpt>
      <trkpt lat="49.19979" lon="-0.37113">
        <ele>44.84</ele>
        <time>2021-07-29T19:03:13Z</time>
      </trkpt>
      <trkpt lat="49.19825" lon="-0.37407">
        <ele>40.51</ele>
        <time>2021-07-29T19:03:26Z</time>
      </trkpt>
      <trkpt lat="49.19666" lon="-0.37744">
        <ele>36.67</ele>
        <time>2021-07-29T19:03:41Z</time>
      </trkpt>
      <trkpt lat="49.19594" lon="-0.38006">
        <ele>38.59</ele>
        <time>2021-07-29T19:03:52Z</time>
      </trkpt>
      <trkpt lat="49.19557" lon="-0.38312">
        <ele>41.95</ele>
        <time>2021-07-29T19:04:02Z</time>
      </trkpt>
      <trkpt lat="49.19564" lon="-0.38657">
        <ele>47.72</ele>
        <time>2021-07-29T19:04:13Z</time>
      </trkpt>
      <trkpt lat="49.19588" lon="-0.39159">
        <ele>51.57</ele>
        <time>2021-07-29T19:04:28Z</time>
      </trkpt>
      <trkpt lat="49.19594" lon="-0.39642">
        <ele>56.37</ele>
        <time>2021-07-29T19:04:44Z</time>
      </trkpt>
      <trkpt lat="49.19565" lon="-0.40078">
        <ele>59.74</ele>
        <time>2021-07-29T19:04:57Z</time>
      </trkpt>
      <trkpt lat="49.19491" lon="-0.40545">
        <ele>63.1</ele>
        <time>2021-07-29T19:05:11Z</time>
      </trkpt>
      <trkpt lat="49.19403" lon="-0.40911">
        <ele>63.1</ele>
        <time>2021-07-29T19:05:23Z</time>
      </trkpt>
      <trkpt lat="49.19297" lon="-0.4125">
        <ele>65.03</ele>
        <time>2021-07-29T19:05:36Z</time>
      </trkpt>
      <trkpt lat="49.1916" lon="-0.41652">
        <ele>67.43</ele>
        <time>2021-07-29T19:05:52Z</time>
      </trkpt>
      <trkpt lat="49.19095" lon="-0.41967">
        <ele>68.39</ele>
        <time>2021-07-29T19:06:03Z</time>
      </trkpt>
      <trkpt lat="49.19064" lon="-0.42352">
        <ele>68.87</ele>
        <time>2021-07-29T19:06:15Z</time>
      </trkpt>
      <trkpt lat="49.1909" lon="-0.4276">
        <ele>65.99</ele>
        <time>2021-07-29T19:06:26Z</time>
      </trkpt>
      <trkpt lat="49.1915" lon="-0.431">
        <ele>64.55</ele>
        <time>2021-07-29T19:06:38Z</time>
      </trkpt>
      <trkpt lat="49.19243" lon="-0.4358">
        <ele>64.55</ele>
        <time>2021-07-29T19:06:54Z</time>
      </trkpt>
      <trkpt lat="49.19262" lon="-0.43685">
        <ele>65.51</ele>
        <time>2021-07-29T19:06:59Z</time>
      </trkpt>
      <trkpt lat="49.19266" lon="-0.43705">
        <ele>65.99</ele>
        <time>2021-07-29T19:07:00Z</time>
      </trkpt>
      <trkpt lat="49.19287" lon="-0.43709">
        <ele>65.03</ele>
        <time>2021-07-29T19:07:01Z</time>
      </trkpt>
      <trkpt lat="49.19304" lon="-0.4373">
        <ele>64.55</ele>
        <time>2021-07-29T19:07:02Z</time>
      </trkpt>
      <trkpt lat="49.19304" lon="-0.4373">
        <ele>64.07</ele>
        <time>2021-07-29T19:07:03Z</time>
      </trkpt>
      <trkpt lat="49.19327" lon="-0.43746">
        <ele>64.07</ele>
        <time>2021-07-29T19:07:04Z</time>
      </trkpt>
      <trkpt lat="49.19327" lon="-0.43746">
        <ele>64.07</ele>
        <time>2021-07-29T19:07:05Z</time>
      </trkpt>
      <trkpt lat="49.19356" lon="-0.43768">
        <ele>64.07</ele>
        <time>2021-07-29T19:07:10Z</time>
      </trkpt>
      <trkpt lat="49.19372" lon="-0.43779">
        <ele>64.07</ele>
        <time>2021-07-29T19:07:19Z</time>
      </trkpt>
      <trkpt lat="49.19376" lon="-0.43783">
        <ele>63.58</ele>
        <time>2021-07-29T19:07:20Z</time>
      </trkpt>
      <trkpt lat="49.19387" lon="-0.43796">
        <ele>63.1</ele>
        <time>2021-07-29T19:07:22Z</time>
      </trkpt>
      <trkpt lat="49.19393" lon="-0.43802">
        <ele>62.62</ele>
        <time>2021-07-29T19:07:23Z</time>
      </trkpt>
      <trkpt lat="49.19399" lon="-0.43809">
        <ele>62.62</ele>
        <time>2021-07-29T19:07:24Z</time>
      </trkpt>
      <trkpt lat="49.19417" lon="-0.43813">
        <ele>62.14</ele>
        <time>2021-07-29T19:07:25Z</time>
      </trkpt>
      <trkpt lat="49.19417" lon="-0.43813">
        <ele>62.14</ele>
        <time>2021-07-29T19:07:26Z</time>
      </trkpt>
      <trkpt lat="49.19432" lon="-0.43808">
        <ele>62.62</ele>
        <time>2021-07-29T19:07:27Z</time>
      </trkpt>
      <trkpt lat="49.19438" lon="-0.43813">
        <ele>62.62</ele>
        <time>2021-07-29T19:07:28Z</time>
      </trkpt>
      <trkpt lat="49.19438" lon="-0.43813">
        <ele>62.62</ele>
        <time>2021-07-29T19:07:29Z</time>
      </trkpt>
      <trkpt lat="49.19448" lon="-0.43826">
        <ele>62.62</ele>
        <time>2021-07-29T19:07:30Z</time>
      </trkpt>
      <trkpt lat="49.19451" lon="-0.43835">
        <ele>62.14</ele>
        <time>2021-07-29T19:07:31Z</time>
      </trkpt>
      <trkpt lat="49.19451" lon="-0.43835">
        <ele>62.14</ele>
        <time>2021-07-29T19:07:32Z</time>
      </trkpt>
      <trkpt lat="49.19454" lon="-0.43847">
        <ele>61.66</ele>
        <time>2021-07-29T19:07:33Z</time>
      </trkpt>
      <trkpt lat="49.19454" lon="-0.43855">
        <ele>61.18</ele>
        <time>2021-07-29T19:07:34Z</time>
      </trkpt>
      <trkpt lat="49.19451" lon="-0.43867">
        <ele>61.18</ele>
        <time>2021-07-29T19:07:35Z</time>
      </trkpt>
      <trkpt lat="49.19448" lon="-0.43879">
        <ele>60.7</ele>
        <time>2021-07-29T19:07:36Z</time>
      </trkpt>
      <trkpt lat="49.19443" lon="-0.43885">
        <ele>60.7</ele>
        <time>2021-07-29T19:07:37Z</time>
      </trkpt>
      <trkpt lat="49.19436" lon="-0.43892">
        <ele>59.74</ele>
        <time>2021-07-29T19:07:38Z</time>
      </trkpt>
      <trkpt lat="49.19429" lon="-0.43896">
        <ele>60.22</ele>
        <time>2021-07-29T19:07:39Z</time>
      </trkpt>
      <trkpt lat="49.19418" lon="-0.43894">
        <ele>59.74</ele>
        <time>2021-07-29T19:07:40Z</time>
      </trkpt>
      <trkpt lat="49.19406" lon="-0.43899">
        <ele>58.3</ele>
        <time>2021-07-29T19:07:41Z</time>
      </trkpt>
      <trkpt lat="49.19396" lon="-0.43907">
        <ele>57.34</ele>
        <time>2021-07-29T19:07:42Z</time>
      </trkpt>
      <trkpt lat="49.19386" lon="-0.43913">
        <ele>57.34</ele>
        <time>2021-07-29T19:07:43Z</time>
      </trkpt>
      <trkpt lat="49.19267" lon="-0.43981">
        <ele>56.37</ele>
        <time>2021-07-29T19:07:53Z</time>
      </trkpt>
      <trkpt lat="49.19233" lon="-0.43997">
        <ele>56.37</ele>
        <time>2021-07-29T19:07:59Z</time>
      </trkpt>
      <trkpt lat="49.19198" lon="-0.44016">
        <ele>57.34</ele>
        <time>2021-07-29T19:08:10Z</time>
      </trkpt>
      <trkpt lat="49.19193" lon="-0.44019">
        <ele>57.34</ele>
        <time>2021-07-29T19:08:11Z</time>
      </trkpt>
      <trkpt lat="49.19188" lon="-0.44021">
        <ele>57.34</ele>
        <time>2021-07-29T19:08:12Z</time>
      </trkpt>
      <trkpt lat="49.19182" lon="-0.44045">
        <ele>56.86</ele>
        <time>2021-07-29T19:08:15Z</time>
      </trkpt>
      <trkpt lat="49.19176" lon="-0.44057">
        <ele>56.86</ele>
        <time>2021-07-29T19:08:16Z</time>
      </trkpt>
      <trkpt lat="49.19171" lon="-0.44062">
        <ele>57.34</ele>
        <time>2021-07-29T19:08:17Z</time>
      </trkpt>
      <trkpt lat="49.19162" lon="-0.44062">
        <ele>57.34</ele>
        <time>2021-07-29T19:08:18Z</time>
      </trkpt>
      <trkpt lat="49.19156" lon="-0.44061">
        <ele>57.34</ele>
        <time>2021-07-29T19:08:19Z</time>
      </trkpt>
      <trkpt lat="49.1914" lon="-0.44047">
        <ele>57.34</ele>
        <time>2021-07-29T19:08:20Z</time>
      </trkpt>
      <trkpt lat="49.1914" lon="-0.44047">
        <ele>56.86</ele>
        <time>2021-07-29T19:08:21Z</time>
      </trkpt>
      <trkpt lat="49.19133" lon="-0.4405">
        <ele>56.86</ele>
        <time>2021-07-29T19:08:22Z</time>
      </trkpt>
      <trkpt lat="49.19125" lon="-0.44053">
        <ele>56.86</ele>
        <time>2021-07-29T19:08:23Z</time>
      </trkpt>
      <trkpt lat="49.19023" lon="-0.44099">
        <ele>57.34</ele>
        <time>2021-07-29T19:08:32Z</time>
      </trkpt>
      <trkpt lat="49.18854" lon="-0.4417">
        <ele>50.61</ele>
        <time>2021-07-29T19:08:44Z</time>
      </trkpt>
      <trkpt lat="49.18817" lon="-0.44175">
        <ele>51.57</ele>
        <time>2021-07-29T19:08:50Z</time>
      </trkpt>
      <trkpt lat="49.188" lon="-0.44175">
        <ele>52.05</ele>
        <time>2021-07-29T19:09:13Z</time>
      </trkpt>
      <trkpt lat="49.18732" lon="-0.44169">
        <ele>53.97</ele>
        <time>2021-07-29T19:09:22Z</time>
      </trkpt>
      <trkpt lat="49.18571" lon="-0.44118">
        <ele>53.01</ele>
        <time>2021-07-29T19:09:38Z</time>
      </trkpt>
      <trkpt lat="49.18414" lon="-0.44071">
        <ele>53.01</ele>
        <time>2021-07-29T19:09:55Z</time>
      </trkpt>
      <trkpt lat="49.18381" lon="-0.44063">
        <ele>53.49</ele>
        <time>2021-07-29T19:10:01Z</time>
      </trkpt>
      <trkpt lat="49.18372" lon="-0.44061">
        <ele>53.49</ele>
        <time>2021-07-29T19:10:06Z</time>
      </trkpt>
      <trkpt lat="49.18368" lon="-0.4406">
        <ele>53.49</ele>
        <time>2021-07-29T19:10:07Z</time>
      </trkpt>
      <trkpt lat="49.18363" lon="-0.44059">
        <ele>53.49</ele>
        <time>2021-07-29T19:10:08Z</time>
      </trkpt>
      <trkpt lat="49.18357" lon="-0.44057">
        <ele>53.49</ele>
        <time>2021-07-29T19:10:09Z</time>
      </trkpt>
      <trkpt lat="49.1835" lon="-0.44058">
        <ele>53.49</ele>
        <time>2021-07-29T19:10:10Z</time>
      </trkpt>
      <trkpt lat="49.18253" lon="-0.44077">
        <ele>57.34</ele>
        <time>2021-07-29T19:10:21Z</time>
      </trkpt>
      <trkpt lat="49.18154" lon="-0.44057">
        <ele>57.82</ele>
        <time>2021-07-29T19:10:32Z</time>
      </trkpt>
      <trkpt lat="49.18056" lon="-0.43964">
        <ele>57.34</ele>
        <time>2021-07-29T19:10:42Z</time>
      </trkpt>
      <trkpt lat="49.17963" lon="-0.43795">
        <ele>55.41</ele>
        <time>2021-07-29T19:10:53Z</time>
      </trkpt>
      <trkpt lat="49.17827" lon="-0.43543">
        <ele>51.09</ele>
        <time>2021-07-29T19:11:06Z</time>
      </trkpt>
      <trkpt lat="49.17766" lon="-0.43429">
        <ele>49.65</ele>
        <time>2021-07-29T19:11:14Z</time>
      </trkpt>
      <trkpt lat="49.17677" lon="-0.43272">
        <ele>49.65</ele>
        <time>2021-07-29T19:11:25Z</time>
      </trkpt>
      <trkpt lat="49.17618" lon="-0.43178">
        <ele>49.16</ele>
        <time>2021-07-29T19:11:34Z</time>
      </trkpt>
      <trkpt lat="49.1761" lon="-0.43166">
        <ele>50.13</ele>
        <time>2021-07-29T19:12:09Z</time>
      </trkpt>
      <trkpt lat="49.1761" lon="-0.43166">
        <ele>50.13</ele>
        <time>2021-07-29T19:12:10Z</time>
      </trkpt>
      <trkpt lat="49.17607" lon="-0.43161">
        <ele>50.13</ele>
        <time>2021-07-29T19:12:11Z</time>
      </trkpt>
      <trkpt lat="49.17596" lon="-0.4316">
        <ele>49.65</ele>
        <time>2021-07-29T19:12:12Z</time>
      </trkpt>
      <trkpt lat="49.17591" lon="-0.43169">
        <ele>49.65</ele>
        <time>2021-07-29T19:12:13Z</time>
      </trkpt>
      <trkpt lat="49.17581" lon="-0.43184">
        <ele>50.13</ele>
        <time>2021-07-29T19:12:14Z</time>
      </trkpt>
      <trkpt lat="49.17581" lon="-0.43184">
        <ele>50.13</ele>
        <time>2021-07-29T19:12:15Z</time>
      </trkpt>
      <trkpt lat="49.17565" lon="-0.43208">
        <ele>50.61</ele>
        <time>2021-07-29T19:12:18Z</time>
      </trkpt>
      <trkpt lat="49.17554" lon="-0.43224">
        <ele>50.61</ele>
        <time>2021-07-29T19:12:19Z</time>
      </trkpt>
      <trkpt lat="49.17551" lon="-0.43234">
        <ele>50.61</ele>
        <time>2021-07-29T19:12:20Z</time>
      </trkpt>
      <trkpt lat="49.17551" lon="-0.43244">
        <ele>50.61</ele>
        <time>2021-07-29T19:12:21Z</time>
      </trkpt>
      <trkpt lat="49.17551" lon="-0.43244">
        <ele>50.61</ele>
        <time>2021-07-29T19:12:22Z</time>
      </trkpt>
      <trkpt lat="49.17551" lon="-0.43255">
        <ele>50.61</ele>
        <time>2021-07-29T19:12:23Z</time>
      </trkpt>
      <trkpt lat="49.17551" lon="-0.43266">
        <ele>51.09</ele>
        <time>2021-07-29T19:12:24Z</time>
      </trkpt>
      <trkpt lat="49.17563" lon="-0.43421">
        <ele>52.05</ele>
        <time>2021-07-29T19:12:36Z</time>
      </trkpt>
      <trkpt lat="49.17568" lon="-0.43485">
        <ele>52.05</ele>
        <time>2021-07-29T19:12:43Z</time>
      </trkpt>
      <trkpt lat="49.17572" lon="-0.43554">
        <ele>52.05</ele>
        <time>2021-07-29T19:12:51Z</time>
      </trkpt>
      <trkpt lat="49.17583" lon="-0.43699">
        <ele>51.09</ele>
        <time>2021-07-29T19:13:02Z</time>
      </trkpt>
      <trkpt lat="49.17592" lon="-0.43794">
        <ele>54.45</ele>
        <time>2021-07-29T19:13:10Z</time>
      </trkpt>
      <trkpt lat="49.17598" lon="-0.43885">
        <ele>56.86</ele>
        <time>2021-07-29T19:13:21Z</time>
      </trkpt>
      <trkpt lat="49.176" lon="-0.43917">
        <ele>57.82</ele>
        <time>2021-07-29T19:13:30Z</time>
      </trkpt>
      <trkpt lat="49.17607" lon="-0.44011">
        <ele>59.26</ele>
        <time>2021-07-29T19:13:41Z</time>
      </trkpt>
      <trkpt lat="49.17613" lon="-0.44099">
        <ele>61.66</ele>
        <time>2021-07-29T19:13:49Z</time>
      </trkpt>
      <trkpt lat="49.17613" lon="-0.44107">
        <ele>61.66</ele>
        <time>2021-07-29T19:13:50Z</time>
      </trkpt>
      <trkpt lat="49.17612" lon="-0.4412">
        <ele>61.66</ele>
        <time>2021-07-29T19:13:51Z</time>
      </trkpt>
      <trkpt lat="49.17612" lon="-0.4412">
        <ele>61.66</ele>
        <time>2021-07-29T19:13:52Z</time>
      </trkpt>
      <trkpt lat="49.1761" lon="-0.44129">
        <ele>61.66</ele>
        <time>2021-07-29T19:13:53Z</time>
      </trkpt>
      <trkpt lat="49.1761" lon="-0.44129">
        <ele>62.14</ele>
        <time>2021-07-29T19:13:54Z</time>
      </trkpt>
      <trkpt lat="49.17587" lon="-0.44167">
        <ele>64.07</ele>
        <time>2021-07-29T19:14:03Z</time>
      </trkpt>
      <trkpt lat="49.17564" lon="-0.4417">
        <ele>65.03</ele>
        <time>2021-07-29T19:14:13Z</time>
      </trkpt>
      <trkpt lat="49.17502" lon="-0.44182">
        <ele>65.99</ele>
        <time>2021-07-29T19:14:26Z</time>
      </trkpt>
      <trkpt lat="49.17497" lon="-0.44175">
        <ele>65.51</ele>
        <time>2021-07-29T19:14:43Z</time>
      </trkpt>
      <trkpt lat="49.17499" lon="-0.44172">
        <ele>65.99</ele>
        <time>2021-07-29T19:14:59Z</time>
      </trkpt>
      <trkpt lat="49.17504" lon="-0.44168">
        <ele>65.99</ele>
        <time>2021-07-29T19:15:44Z</time>
      </trkpt>
      <trkpt lat="49.17507" lon="-0.44167">
        <ele>66.95</ele>
        <time>2021-07-29T19:16:31Z</time>
      </trkpt>
      <trkpt lat="49.17506" lon="-0.4417">
        <ele>67.91</ele>
        <time>2021-07-29T19:17:08Z</time>
      </trkpt>
      <trkpt lat="49.17505" lon="-0.44176">
        <ele>68.87</ele>
        <time>2021-07-29T19:17:49Z</time>
      </trkpt>
      <trkpt lat="49.17503" lon="-0.44181">
        <ele>69.35</ele>
        <time>2021-07-29T19:18:25Z</time>
      </trkpt>
      <trkpt lat="49.17502" lon="-0.4418">
        <ele>69.35</ele>
        <time>2021-07-29T19:19:01Z</time>
      </trkpt>
      <trkpt lat="49.17501" lon="-0.44182">
        <ele>70.31</ele>
        <time>2021-07-29T19:19:41Z</time>
      </trkpt>
      <trkpt lat="49.17501" lon="-0.44182">
        <ele>70.79</ele>
        <time>2021-07-29T19:20:16Z</time>
      </trkpt>
      <trkpt lat="49.175" lon="-0.44183">
        <ele>71.27</ele>
        <time>2021-07-29T19:20:56Z</time>
      </trkpt>
      <trkpt lat="49.17499" lon="-0.44184">
        <ele>71.76</ele>
        <time>2021-07-29T19:21:34Z</time>
      </trkpt>
      <trkpt lat="49.17499" lon="-0.44183">
        <ele>72.24</ele>
        <time>2021-07-29T19:22:08Z</time>
      </trkpt>
      <trkpt lat="49.17499" lon="-0.44182">
        <ele>72.72</ele>
        <time>2021-07-29T19:22:41Z</time>
      </trkpt>
      <trkpt lat="49.17499" lon="-0.44181">
        <ele>72.72</ele>
        <time>2021-07-29T19:22:46Z</time>
      </trkpt>
      <trkpt lat="49.17532" lon="-0.44185">
        <ele>72.72</ele>
        <time>2021-07-29T19:22:59Z</time>
      </trkpt>
      <trkpt lat="49.1759" lon="-0.4417">
        <ele>70.79</ele>
        <time>2021-07-29T19:23:16Z</time>
      </trkpt>
      <trkpt lat="49.17592" lon="-0.44167">
        <ele>70.79</ele>
        <time>2021-07-29T19:23:17Z</time>
      </trkpt>
      <trkpt lat="49.17607" lon="-0.44138">
        <ele>69.83</ele>
        <time>2021-07-29T19:23:30Z</time>
      </trkpt>
      <trkpt lat="49.17607" lon="-0.44138">
        <ele>69.83</ele>
        <time>2021-07-29T19:23:31Z</time>
      </trkpt>
      <trkpt lat="49.17607" lon="-0.44138">
        <ele>69.83</ele>
        <time>2021-07-29T19:23:32Z</time>
      </trkpt>
      <trkpt lat="49.17607" lon="-0.44138">
        <ele>69.83</ele>
        <time>2021-07-29T19:23:33Z</time>
      </trkpt>
      <trkpt lat="49.17607" lon="-0.44138">
        <ele>69.83</ele>
        <time>2021-07-29T19:23:34Z</time>
      </trkpt>
      <trkpt lat="49.17607" lon="-0.44138">
        <ele>69.35</ele>
        <time>2021-07-29T19:23:35Z</time>
      </trkpt>
      <trkpt lat="49.17607" lon="-0.44138">
        <ele>69.35</ele>
        <time>2021-07-29T19:23:36Z</time>
      </trkpt>
      <trkpt lat="49.17608" lon="-0.44134">
        <ele>69.35</ele>
        <time>2021-07-29T19:23:37Z</time>
      </trkpt>
      <trkpt lat="49.1761" lon="-0.44129">
        <ele>69.35</ele>
        <time>2021-07-29T19:23:38Z</time>
      </trkpt>
      <trkpt lat="49.17611" lon="-0.44124">
        <ele>68.87</ele>
        <time>2021-07-29T19:23:39Z</time>
      </trkpt>
      <trkpt lat="49.17613" lon="-0.44118">
        <ele>68.87</ele>
        <time>2021-07-29T19:23:40Z</time>
      </trkpt>
      <trkpt lat="49.17614" lon="-0.44115">
        <ele>68.87</ele>
        <time>2021-07-29T19:23:41Z</time>
      </trkpt>
      <trkpt lat="49.17613" lon="-0.44109">
        <ele>68.39</ele>
        <time>2021-07-29T19:23:42Z</time>
      </trkpt>
      <trkpt lat="49.17613" lon="-0.44102">
        <ele>68.39</ele>
        <time>2021-07-29T19:23:43Z</time>
      </trkpt>
      <trkpt lat="49.17612" lon="-0.44094">
        <ele>67.91</ele>
        <time>2021-07-29T19:23:44Z</time>
      </trkpt>
      <trkpt lat="49.17612" lon="-0.44086">
        <ele>67.91</ele>
        <time>2021-07-29T19:23:45Z</time>
      </trkpt>
      <trkpt lat="49.17606" lon="-0.44002">
        <ele>65.03</ele>
        <time>2021-07-29T19:23:54Z</time>
      </trkpt>
      <trkpt lat="49.17605" lon="-0.43992">
        <ele>65.03</ele>
        <time>2021-07-29T19:23:55Z</time>
      </trkpt>
      <trkpt lat="49.17599" lon="-0.43897">
        <ele>64.07</ele>
        <time>2021-07-29T19:24:07Z</time>
      </trkpt>
      <trkpt lat="49.17594" lon="-0.4382">
        <ele>60.22</ele>
        <time>2021-07-29T19:24:20Z</time>
      </trkpt>
      <trkpt lat="49.17584" lon="-0.43704">
        <ele>56.37</ele>
        <time>2021-07-29T19:24:31Z</time>
      </trkpt>
      <trkpt lat="49.17568" lon="-0.43491">
        <ele>53.01</ele>
        <time>2021-07-29T19:24:45Z</time>
      </trkpt>
      <trkpt lat="49.17551" lon="-0.43251">
        <ele>52.53</ele>
        <time>2021-07-29T19:25:00Z</time>
      </trkpt>
      <trkpt lat="49.17551" lon="-0.43229">
        <ele>52.05</ele>
        <time>2021-07-29T19:25:01Z</time>
      </trkpt>
      <trkpt lat="49.17551" lon="-0.43229">
        <ele>51.57</ele>
        <time>2021-07-29T19:25:02Z</time>
      </trkpt>
      <trkpt lat="49.17559" lon="-0.43217">
        <ele>51.57</ele>
        <time>2021-07-29T19:25:03Z</time>
      </trkpt>
      <trkpt lat="49.17565" lon="-0.43208">
        <ele>52.05</ele>
        <time>2021-07-29T19:25:04Z</time>
      </trkpt>
      <trkpt lat="49.17571" lon="-0.43199">
        <ele>52.05</ele>
        <time>2021-07-29T19:25:05Z</time>
      </trkpt>
      <trkpt lat="49.17593" lon="-0.43166">
        <ele>51.57</ele>
        <time>2021-07-29T19:25:12Z</time>
      </trkpt>
      <trkpt lat="49.17596" lon="-0.4316">
        <ele>51.57</ele>
        <time>2021-07-29T19:25:15Z</time>
      </trkpt>
      <trkpt lat="49.17599" lon="-0.43159">
        <ele>51.57</ele>
        <time>2021-07-29T19:25:16Z</time>
      </trkpt>
      <trkpt lat="49.17603" lon="-0.43158">
        <ele>52.05</ele>
        <time>2021-07-29T19:25:17Z</time>
      </trkpt>
      <trkpt lat="49.17605" lon="-0.43158">
        <ele>52.05</ele>
        <time>2021-07-29T19:25:18Z</time>
      </trkpt>
      <trkpt lat="49.1761" lon="-0.43165">
        <ele>52.53</ele>
        <time>2021-07-29T19:25:19Z</time>
      </trkpt>
      <trkpt lat="49.17615" lon="-0.43173">
        <ele>52.53</ele>
        <time>2021-07-29T19:25:20Z</time>
      </trkpt>
      <trkpt lat="49.17621" lon="-0.43182">
        <ele>53.01</ele>
        <time>2021-07-29T19:25:21Z</time>
      </trkpt>
      <trkpt lat="49.17701" lon="-0.43311">
        <ele>50.13</ele>
        <time>2021-07-29T19:25:31Z</time>
      </trkpt>
      <trkpt lat="49.17845" lon="-0.43576">
        <ele>52.05</ele>
        <time>2021-07-29T19:25:46Z</time>
      </trkpt>
      <trkpt lat="49.18017" lon="-0.43898">
        <ele>54.45</ele>
        <time>2021-07-29T19:26:04Z</time>
      </trkpt>
      <trkpt lat="49.18118" lon="-0.44034">
        <ele>55.41</ele>
        <time>2021-07-29T19:26:14Z</time>
      </trkpt>
      <trkpt lat="49.18197" lon="-0.44074">
        <ele>54.45</ele>
        <time>2021-07-29T19:26:22Z</time>
      </trkpt>
      <trkpt lat="49.18282" lon="-0.44073">
        <ele>53.97</ele>
        <time>2021-07-29T19:26:33Z</time>
      </trkpt>
      <trkpt lat="49.18301" lon="-0.44069">
        <ele>54.93</ele>
        <time>2021-07-29T19:26:43Z</time>
      </trkpt>
      <trkpt lat="49.18316" lon="-0.44066">
        <ele>54.93</ele>
        <time>2021-07-29T19:27:04Z</time>
      </trkpt>
      <trkpt lat="49.18326" lon="-0.44064">
        <ele>54.45</ele>
        <time>2021-07-29T19:27:16Z</time>
      </trkpt>
      <trkpt lat="49.18341" lon="-0.4406">
        <ele>54.45</ele>
        <time>2021-07-29T19:27:26Z</time>
      </trkpt>
      <trkpt lat="49.18345" lon="-0.44059">
        <ele>54.45</ele>
        <time>2021-07-29T19:27:27Z</time>
      </trkpt>
      <trkpt lat="49.18349" lon="-0.44059">
        <ele>54.45</ele>
        <time>2021-07-29T19:27:28Z</time>
      </trkpt>
      <trkpt lat="49.18353" lon="-0.44058">
        <ele>53.97</ele>
        <time>2021-07-29T19:27:29Z</time>
      </trkpt>
      <trkpt lat="49.18422" lon="-0.44073">
        <ele>51.57</ele>
        <time>2021-07-29T19:27:38Z</time>
      </trkpt>
      <trkpt lat="49.1857" lon="-0.44118">
        <ele>50.13</ele>
        <time>2021-07-29T19:27:53Z</time>
      </trkpt>
      <trkpt lat="49.18718" lon="-0.44165">
        <ele>49.65</ele>
        <time>2021-07-29T19:28:07Z</time>
      </trkpt>
      <trkpt lat="49.18815" lon="-0.44175">
        <ele>48.68</ele>
        <time>2021-07-29T19:28:16Z</time>
      </trkpt>
      <trkpt lat="49.18932" lon="-0.4414">
        <ele>51.57</ele>
        <time>2021-07-29T19:28:24Z</time>
      </trkpt>
      <trkpt lat="49.19029" lon="-0.44096">
        <ele>52.53</ele>
        <time>2021-07-29T19:28:33Z</time>
      </trkpt>
      <trkpt lat="49.19108" lon="-0.44061">
        <ele>53.49</ele>
        <time>2021-07-29T19:28:45Z</time>
      </trkpt>
      <trkpt lat="49.19118" lon="-0.44056">
        <ele>53.97</ele>
        <time>2021-07-29T19:29:00Z</time>
      </trkpt>
      <trkpt lat="49.19136" lon="-0.44048">
        <ele>54.45</ele>
        <time>2021-07-29T19:29:07Z</time>
      </trkpt>
      <trkpt lat="49.19139" lon="-0.44047">
        <ele>54.45</ele>
        <time>2021-07-29T19:29:08Z</time>
      </trkpt>
      <trkpt lat="49.19148" lon="-0.44014">
        <ele>55.41</ele>
        <time>2021-07-29T19:29:11Z</time>
      </trkpt>
      <trkpt lat="49.19152" lon="-0.44009">
        <ele>55.41</ele>
        <time>2021-07-29T19:29:12Z</time>
      </trkpt>
      <trkpt lat="49.19158" lon="-0.44008">
        <ele>55.89</ele>
        <time>2021-07-29T19:29:13Z</time>
      </trkpt>
      <trkpt lat="49.19162" lon="-0.44008">
        <ele>55.89</ele>
        <time>2021-07-29T19:29:14Z</time>
      </trkpt>
      <trkpt lat="49.19166" lon="-0.44008">
        <ele>55.89</ele>
        <time>2021-07-29T19:29:15Z</time>
      </trkpt>
      <trkpt lat="49.19171" lon="-0.44008">
        <ele>55.89</ele>
        <time>2021-07-29T19:29:16Z</time>
      </trkpt>
      <trkpt lat="49.19174" lon="-0.44008">
        <ele>55.89</ele>
        <time>2021-07-29T19:29:17Z</time>
      </trkpt>
      <trkpt lat="49.19174" lon="-0.44008">
        <ele>55.89</ele>
        <time>2021-07-29T19:29:18Z</time>
      </trkpt>
      <trkpt lat="49.19191" lon="-0.4402">
        <ele>55.89</ele>
        <time>2021-07-29T19:29:19Z</time>
      </trkpt>
      <trkpt lat="49.19197" lon="-0.44016">
        <ele>55.89</ele>
        <time>2021-07-29T19:29:20Z</time>
      </trkpt>
      <trkpt lat="49.19204" lon="-0.44012">
        <ele>56.37</ele>
        <time>2021-07-29T19:29:21Z</time>
      </trkpt>
      <trkpt lat="49.19212" lon="-0.44008">
        <ele>56.37</ele>
        <time>2021-07-29T19:29:22Z</time>
      </trkpt>
      <trkpt lat="49.19317" lon="-0.43957">
        <ele>56.37</ele>
        <time>2021-07-29T19:29:32Z</time>
      </trkpt>
      <trkpt lat="49.19366" lon="-0.43921">
        <ele>58.3</ele>
        <time>2021-07-29T19:29:38Z</time>
      </trkpt>
      <trkpt lat="49.19382" lon="-0.439">
        <ele>57.82</ele>
        <time>2021-07-29T19:29:39Z</time>
      </trkpt>
      <trkpt lat="49.19382" lon="-0.439">
        <ele>58.3</ele>
        <time>2021-07-29T19:29:40Z</time>
      </trkpt>
      <trkpt lat="49.19387" lon="-0.43892">
        <ele>58.78</ele>
        <time>2021-07-29T19:29:41Z</time>
      </trkpt>
      <trkpt lat="49.1939" lon="-0.43883">
        <ele>59.26</ele>
        <time>2021-07-29T19:29:42Z</time>
      </trkpt>
      <trkpt lat="49.19393" lon="-0.43877">
        <ele>59.74</ele>
        <time>2021-07-29T19:29:49Z</time>
      </trkpt>
      <trkpt lat="49.19395" lon="-0.43872">
        <ele>60.22</ele>
        <time>2021-07-29T19:29:52Z</time>
      </trkpt>
      <trkpt lat="49.19397" lon="-0.43868">
        <ele>60.22</ele>
        <time>2021-07-29T19:29:53Z</time>
      </trkpt>
      <trkpt lat="49.19396" lon="-0.43861">
        <ele>60.7</ele>
        <time>2021-07-29T19:29:54Z</time>
      </trkpt>
      <trkpt lat="49.19395" lon="-0.43847">
        <ele>61.18</ele>
        <time>2021-07-29T19:29:56Z</time>
      </trkpt>
      <trkpt lat="49.19398" lon="-0.43833">
        <ele>61.18</ele>
        <time>2021-07-29T19:29:57Z</time>
      </trkpt>
      <trkpt lat="49.19394" lon="-0.4382">
        <ele>61.66</ele>
        <time>2021-07-29T19:29:58Z</time>
      </trkpt>
      <trkpt lat="49.19388" lon="-0.43812">
        <ele>61.66</ele>
        <time>2021-07-29T19:29:59Z</time>
      </trkpt>
      <trkpt lat="49.19382" lon="-0.43803">
        <ele>62.14</ele>
        <time>2021-07-29T19:30:00Z</time>
      </trkpt>
      <trkpt lat="49.19376" lon="-0.43794">
        <ele>62.14</ele>
        <time>2021-07-29T19:30:01Z</time>
      </trkpt>
      <trkpt lat="49.19359" lon="-0.43785">
        <ele>62.62</ele>
        <time>2021-07-29T19:30:02Z</time>
      </trkpt>
      <trkpt lat="49.19348" lon="-0.43788">
        <ele>62.62</ele>
        <time>2021-07-29T19:30:03Z</time>
      </trkpt>
      <trkpt lat="49.19348" lon="-0.43788">
        <ele>63.58</ele>
        <time>2021-07-29T19:30:04Z</time>
      </trkpt>
      <trkpt lat="49.19327" lon="-0.43798">
        <ele>64.07</ele>
        <time>2021-07-29T19:30:05Z</time>
      </trkpt>
      <trkpt lat="49.19319" lon="-0.4381">
        <ele>63.58</ele>
        <time>2021-07-29T19:30:06Z</time>
      </trkpt>
      <trkpt lat="49.19319" lon="-0.4381">
        <ele>63.58</ele>
        <time>2021-07-29T19:30:07Z</time>
      </trkpt>
      <trkpt lat="49.19315" lon="-0.43823">
        <ele>62.62</ele>
        <time>2021-07-29T19:30:08Z</time>
      </trkpt>
      <trkpt lat="49.19312" lon="-0.4384">
        <ele>62.14</ele>
        <time>2021-07-29T19:30:09Z</time>
      </trkpt>
      <trkpt lat="49.19309" lon="-0.43858">
        <ele>61.66</ele>
        <time>2021-07-29T19:30:10Z</time>
      </trkpt>
      <trkpt lat="49.1931" lon="-0.43872">
        <ele>62.14</ele>
        <time>2021-07-29T19:30:11Z</time>
      </trkpt>
      <trkpt lat="49.19313" lon="-0.4389">
        <ele>62.62</ele>
        <time>2021-07-29T19:30:12Z</time>
      </trkpt>
      <trkpt lat="49.19316" lon="-0.4391">
        <ele>63.1</ele>
        <time>2021-07-29T19:30:13Z</time>
      </trkpt>
      <trkpt lat="49.19318" lon="-0.43929">
        <ele>63.58</ele>
        <time>2021-07-29T19:30:14Z</time>
      </trkpt>
      <trkpt lat="49.19364" lon="-0.44198">
        <ele>63.58</ele>
        <time>2021-07-29T19:30:27Z</time>
      </trkpt>
      <trkpt lat="49.19412" lon="-0.44444">
        <ele>63.58</ele>
        <time>2021-07-29T19:30:37Z</time>
      </trkpt>
      <trkpt lat="49.19502" lon="-0.44906">
        <ele>60.22</ele>
        <time>2021-07-29T19:30:53Z</time>
      </trkpt>
      <trkpt lat="49.19644" lon="-0.4563">
        <ele>63.1</ele>
        <time>2021-07-29T19:31:18Z</time>
      </trkpt>
      <trkpt lat="49.19725" lon="-0.46133">
        <ele>62.62</ele>
        <time>2021-07-29T19:31:35Z</time>
      </trkpt>
      <trkpt lat="49.19755" lon="-0.46622">
        <ele>55.41</ele>
        <time>2021-07-29T19:31:51Z</time>
      </trkpt>
      <trkpt lat="49.19771" lon="-0.47189">
        <ele>52.05</ele>
        <time>2021-07-29T19:32:09Z</time>
      </trkpt>
      <trkpt lat="49.19808" lon="-0.47713">
        <ele>53.97</ele>
        <time>2021-07-29T19:32:25Z</time>
      </trkpt>
      <trkpt lat="49.19887" lon="-0.4804">
        <ele>50.61</ele>
        <time>2021-07-29T19:32:35Z</time>
      </trkpt>
      <trkpt lat="49.20074" lon="-0.48679">
        <ele>53.97</ele>
        <time>2021-07-29T19:32:55Z</time>
      </trkpt>
      <trkpt lat="49.20282" lon="-0.494">
        <ele>56.37</ele>
        <time>2021-07-29T19:33:18Z</time>
      </trkpt>
      <trkpt lat="49.20525" lon="-0.5025">
        <ele>60.22</ele>
        <time>2021-07-29T19:33:44Z</time>
      </trkpt>
      <trkpt lat="49.20766" lon="-0.51094">
        <ele>64.07</ele>
        <time>2021-07-29T19:34:09Z</time>
      </trkpt>
      <trkpt lat="49.20951" lon="-0.51689">
        <ele>66.47</ele>
        <time>2021-07-29T19:34:27Z</time>
      </trkpt>
      <trkpt lat="49.2111" lon="-0.52018">
        <ele>65.99</ele>
        <time>2021-07-29T19:34:38Z</time>
      </trkpt>
      <trkpt lat="49.21534" lon="-0.528">
        <ele>68.87</ele>
        <time>2021-07-29T19:35:05Z</time>
      </trkpt>
      <trkpt lat="49.21712" lon="-0.5322">
        <ele>65.51</ele>
        <time>2021-07-29T19:35:18Z</time>
      </trkpt>
      <trkpt lat="49.21886" lon="-0.53726">
        <ele>64.55</ele>
        <time>2021-07-29T19:35:33Z</time>
      </trkpt>
      <trkpt lat="49.22073" lon="-0.54285">
        <ele>67.43</ele>
        <time>2021-07-29T19:35:50Z</time>
      </trkpt>
      <trkpt lat="49.22308" lon="-0.55002">
        <ele>69.83</ele>
        <time>2021-07-29T19:36:12Z</time>
      </trkpt>
      <trkpt lat="49.22397" lon="-0.55341">
        <ele>71.76</ele>
        <time>2021-07-29T19:36:22Z</time>
      </trkpt>
      <trkpt lat="49.22447" lon="-0.55732">
        <ele>65.03</ele>
        <time>2021-07-29T19:36:32Z</time>
      </trkpt>
      <trkpt lat="49.22489" lon="-0.56135">
        <ele>56.37</ele>
        <time>2021-07-29T19:36:42Z</time>
      </trkpt>
      <trkpt lat="49.2257" lon="-0.56477">
        <ele>53.97</ele>
        <time>2021-07-29T19:36:51Z</time>
      </trkpt>
      <trkpt lat="49.22695" lon="-0.56812">
        <ele>60.22</ele>
        <time>2021-07-29T19:37:01Z</time>
      </trkpt>
      <trkpt lat="49.22856" lon="-0.57097">
        <ele>64.55</ele>
        <time>2021-07-29T19:37:11Z</time>
      </trkpt>
      <trkpt lat="49.23068" lon="-0.57377">
        <ele>68.87</ele>
        <time>2021-07-29T19:37:21Z</time>
      </trkpt>
      <trkpt lat="49.23233" lon="-0.57671">
        <ele>71.27</ele>
        <time>2021-07-29T19:37:32Z</time>
      </trkpt>
      <trkpt lat="49.23402" lon="-0.58103">
        <ele>72.24</ele>
        <time>2021-07-29T19:37:45Z</time>
      </trkpt>
      <trkpt lat="49.23635" lon="-0.58743">
        <ele>73.68</ele>
        <time>2021-07-29T19:38:04Z</time>
      </trkpt>
      <trkpt lat="49.23899" lon="-0.59494">
        <ele>77.04</ele>
        <time>2021-07-29T19:38:26Z</time>
      </trkpt>
      <trkpt lat="49.2396" lon="-0.59838">
        <ele>78.48</ele>
        <time>2021-07-29T19:38:35Z</time>
      </trkpt>
      <trkpt lat="49.24033" lon="-0.60213">
        <ele>73.68</ele>
        <time>2021-07-29T19:38:45Z</time>
      </trkpt>
      <trkpt lat="49.2416" lon="-0.60529">
        <ele>67.91</ele>
        <time>2021-07-29T19:38:53Z</time>
      </trkpt>
      <trkpt lat="49.24338" lon="-0.60827">
        <ele>62.62</ele>
        <time>2021-07-29T19:39:04Z</time>
      </trkpt>
      <trkpt lat="49.24473" lon="-0.61126">
        <ele>55.89</ele>
        <time>2021-07-29T19:39:13Z</time>
      </trkpt>
      <trkpt lat="49.24625" lon="-0.61596">
        <ele>59.26</ele>
        <time>2021-07-29T19:39:27Z</time>
      </trkpt>
      <trkpt lat="49.24723" lon="-0.61996">
        <ele>57.34</ele>
        <time>2021-07-29T19:39:38Z</time>
      </trkpt>
      <trkpt lat="49.24812" lon="-0.62585">
        <ele>51.57</ele>
        <time>2021-07-29T19:39:53Z</time>
      </trkpt>
      <trkpt lat="49.24913" lon="-0.63028">
        <ele>41.47</ele>
        <time>2021-07-29T19:40:05Z</time>
      </trkpt>
      <trkpt lat="49.25103" lon="-0.63703">
        <ele>40.03</ele>
        <time>2021-07-29T19:40:24Z</time>
      </trkpt>
      <trkpt lat="49.25202" lon="-0.64084">
        <ele>53.49</ele>
        <time>2021-07-29T19:40:36Z</time>
      </trkpt>
      <trkpt lat="49.25266" lon="-0.64458">
        <ele>62.14</ele>
        <time>2021-07-29T19:40:48Z</time>
      </trkpt>
      <trkpt lat="49.25316" lon="-0.64687">
        <ele>67.91</ele>
        <time>2021-07-29T19:40:57Z</time>
      </trkpt>
      <trkpt lat="49.2535" lon="-0.64793">
        <ele>69.35</ele>
        <time>2021-07-29T19:41:02Z</time>
      </trkpt>
      <trkpt lat="49.25357" lon="-0.6481">
        <ele>70.79</ele>
        <time>2021-07-29T19:41:03Z</time>
      </trkpt>
      <trkpt lat="49.25366" lon="-0.64822">
        <ele>70.79</ele>
        <time>2021-07-29T19:41:04Z</time>
      </trkpt>
      <trkpt lat="49.25377" lon="-0.64834">
        <ele>69.83</ele>
        <time>2021-07-29T19:41:05Z</time>
      </trkpt>
      <trkpt lat="49.25389" lon="-0.64841">
        <ele>70.31</ele>
        <time>2021-07-29T19:41:06Z</time>
      </trkpt>
      <trkpt lat="49.25403" lon="-0.64843">
        <ele>71.27</ele>
        <time>2021-07-29T19:41:07Z</time>
      </trkpt>
      <trkpt lat="49.25417" lon="-0.64843">
        <ele>71.76</ele>
        <time>2021-07-29T19:41:08Z</time>
      </trkpt>
      <trkpt lat="49.25431" lon="-0.64842">
        <ele>72.72</ele>
        <time>2021-07-29T19:41:09Z</time>
      </trkpt>
      <trkpt lat="49.25445" lon="-0.64838">
        <ele>72.72</ele>
        <time>2021-07-29T19:41:10Z</time>
      </trkpt>
      <trkpt lat="49.2557" lon="-0.64783">
        <ele>69.35</ele>
        <time>2021-07-29T19:41:20Z</time>
      </trkpt>
      <trkpt lat="49.2561" lon="-0.64727">
        <ele>67.91</ele>
        <time>2021-07-29T19:41:26Z</time>
      </trkpt>
      <trkpt lat="49.25613" lon="-0.64718">
        <ele>68.39</ele>
        <time>2021-07-29T19:41:27Z</time>
      </trkpt>
      <trkpt lat="49.25617" lon="-0.64708">
        <ele>67.91</ele>
        <time>2021-07-29T19:41:28Z</time>
      </trkpt>
      <trkpt lat="49.25617" lon="-0.64701">
        <ele>68.39</ele>
        <time>2021-07-29T19:41:29Z</time>
      </trkpt>
      <trkpt lat="49.25617" lon="-0.64688">
        <ele>68.39</ele>
        <time>2021-07-29T19:41:30Z</time>
      </trkpt>
      <trkpt lat="49.25618" lon="-0.64671">
        <ele>68.39</ele>
        <time>2021-07-29T19:41:31Z</time>
      </trkpt>
      <trkpt lat="49.25622" lon="-0.6466">
        <ele>68.39</ele>
        <time>2021-07-29T19:41:32Z</time>
      </trkpt>
      <trkpt lat="49.25625" lon="-0.64647">
        <ele>67.91</ele>
        <time>2021-07-29T19:41:33Z</time>
      </trkpt>
      <trkpt lat="49.25632" lon="-0.64639">
        <ele>67.91</ele>
        <time>2021-07-29T19:41:34Z</time>
      </trkpt>
      <trkpt lat="49.2564" lon="-0.64633">
        <ele>67.91</ele>
        <time>2021-07-29T19:41:35Z</time>
      </trkpt>
      <trkpt lat="49.25647" lon="-0.64628">
        <ele>67.43</ele>
        <time>2021-07-29T19:41:36Z</time>
      </trkpt>
      <trkpt lat="49.25655" lon="-0.64633">
        <ele>67.43</ele>
        <time>2021-07-29T19:41:37Z</time>
      </trkpt>
      <trkpt lat="49.25664" lon="-0.64638">
        <ele>67.91</ele>
        <time>2021-07-29T19:41:38Z</time>
      </trkpt>
      <trkpt lat="49.25671" lon="-0.64646">
        <ele>68.39</ele>
        <time>2021-07-29T19:41:39Z</time>
      </trkpt>
      <trkpt lat="49.25678" lon="-0.64657">
        <ele>68.87</ele>
        <time>2021-07-29T19:41:40Z</time>
      </trkpt>
      <trkpt lat="49.25685" lon="-0.64667">
        <ele>67.91</ele>
        <time>2021-07-29T19:41:41Z</time>
      </trkpt>
      <trkpt lat="49.25688" lon="-0.64681">
        <ele>68.39</ele>
        <time>2021-07-29T19:41:42Z</time>
      </trkpt>
      <trkpt lat="49.25691" lon="-0.64697">
        <ele>68.39</ele>
        <time>2021-07-29T19:41:43Z</time>
      </trkpt>
      <trkpt lat="49.25694" lon="-0.64712">
        <ele>68.39</ele>
        <time>2021-07-29T19:41:44Z</time>
      </trkpt>
      <trkpt lat="49.25693" lon="-0.64726">
        <ele>68.87</ele>
        <time>2021-07-29T19:41:45Z</time>
      </trkpt>
      <trkpt lat="49.25694" lon="-0.64758">
        <ele>69.35</ele>
        <time>2021-07-29T19:41:47Z</time>
      </trkpt>
      <trkpt lat="49.25699" lon="-0.64772">
        <ele>68.39</ele>
        <time>2021-07-29T19:41:48Z</time>
      </trkpt>
      <trkpt lat="49.25704" lon="-0.64785">
        <ele>66.95</ele>
        <time>2021-07-29T19:41:49Z</time>
      </trkpt>
      <trkpt lat="49.25762" lon="-0.64952">
        <ele>65.03</ele>
        <time>2021-07-29T19:41:58Z</time>
      </trkpt>
      <trkpt lat="49.2585" lon="-0.65167">
        <ele>64.55</ele>
        <time>2021-07-29T19:42:07Z</time>
      </trkpt>
      <trkpt lat="49.26018" lon="-0.65577">
        <ele>61.66</ele>
        <time>2021-07-29T19:42:21Z</time>
      </trkpt>
      <trkpt lat="49.26233" lon="-0.66101">
        <ele>57.34</ele>
        <time>2021-07-29T19:42:37Z</time>
      </trkpt>
      <trkpt lat="49.26422" lon="-0.66578">
        <ele>55.41</ele>
        <time>2021-07-29T19:42:51Z</time>
      </trkpt>
      <trkpt lat="49.26492" lon="-0.66917">
        <ele>55.41</ele>
        <time>2021-07-29T19:43:00Z</time>
      </trkpt>
      <trkpt lat="49.26575" lon="-0.6734">
        <ele>51.09</ele>
        <time>2021-07-29T19:43:11Z</time>
      </trkpt>
      <trkpt lat="49.26738" lon="-0.67812">
        <ele>48.2</ele>
        <time>2021-07-29T19:43:24Z</time>
      </trkpt>
      <trkpt lat="49.26854" lon="-0.68145">
        <ele>52.05</ele>
        <time>2021-07-29T19:43:34Z</time>
      </trkpt>
      <trkpt lat="49.26934" lon="-0.68355">
        <ele>51.09</ele>
        <time>2021-07-29T19:43:43Z</time>
      </trkpt>
      <trkpt lat="49.27071" lon="-0.68685">
        <ele>45.8</ele>
        <time>2021-07-29T19:44:00Z</time>
      </trkpt>
      <trkpt lat="49.2714" lon="-0.68848">
        <ele>44.84</ele>
        <time>2021-07-29T19:44:12Z</time>
      </trkpt>
      <trkpt lat="49.27177" lon="-0.68933">
        <ele>43.88</ele>
        <time>2021-07-29T19:44:23Z</time>
      </trkpt>
      <trkpt lat="49.27186" lon="-0.68954">
        <ele>46.76</ele>
        <time>2021-07-29T19:44:31Z</time>
      </trkpt>
      <trkpt lat="49.272" lon="-0.68974">
        <ele>48.2</ele>
        <time>2021-07-29T19:44:37Z</time>
      </trkpt>
      <trkpt lat="49.27204" lon="-0.68978">
        <ele>48.2</ele>
        <time>2021-07-29T19:44:38Z</time>
      </trkpt>
      <trkpt lat="49.27208" lon="-0.68982">
        <ele>48.2</ele>
        <time>2021-07-29T19:44:39Z</time>
      </trkpt>
      <trkpt lat="49.27212" lon="-0.68985">
        <ele>48.2</ele>
        <time>2021-07-29T19:44:40Z</time>
      </trkpt>
      <trkpt lat="49.27217" lon="-0.68988">
        <ele>48.2</ele>
        <time>2021-07-29T19:44:41Z</time>
      </trkpt>
      <trkpt lat="49.2722" lon="-0.68991">
        <ele>47.72</ele>
        <time>2021-07-29T19:44:42Z</time>
      </trkpt>
      <trkpt lat="49.27229" lon="-0.68993">
        <ele>47.72</ele>
        <time>2021-07-29T19:44:43Z</time>
      </trkpt>
      <trkpt lat="49.27229" lon="-0.68993">
        <ele>47.72</ele>
        <time>2021-07-29T19:44:44Z</time>
      </trkpt>
      <trkpt lat="49.27233" lon="-0.68994">
        <ele>47.72</ele>
        <time>2021-07-29T19:44:45Z</time>
      </trkpt>
      <trkpt lat="49.27244" lon="-0.68995">
        <ele>48.2</ele>
        <time>2021-07-29T19:44:46Z</time>
      </trkpt>
      <trkpt lat="49.27244" lon="-0.68995">
        <ele>48.68</ele>
        <time>2021-07-29T19:44:47Z</time>
      </trkpt>
      <trkpt lat="49.27249" lon="-0.68994">
        <ele>49.16</ele>
        <time>2021-07-29T19:44:48Z</time>
      </trkpt>
      <trkpt lat="49.27254" lon="-0.68989">
        <ele>49.16</ele>
        <time>2021-07-29T19:44:49Z</time>
      </trkpt>
      <trkpt lat="49.27263" lon="-0.68981">
        <ele>49.65</ele>
        <time>2021-07-29T19:44:50Z</time>
      </trkpt>
      <trkpt lat="49.27263" lon="-0.68981">
        <ele>49.65</ele>
        <time>2021-07-29T19:44:51Z</time>
      </trkpt>
      <trkpt lat="49.27298" lon="-0.68934">
        <ele>52.05</ele>
        <time>2021-07-29T19:45:02Z</time>
      </trkpt>
      <trkpt lat="49.27301" lon="-0.68929">
        <ele>52.53</ele>
        <time>2021-07-29T19:45:03Z</time>
      </trkpt>
      <trkpt lat="49.27308" lon="-0.68914">
        <ele>53.01</ele>
        <time>2021-07-29T19:45:04Z</time>
      </trkpt>
      <trkpt lat="49.27309" lon="-0.68909">
        <ele>53.49</ele>
        <time>2021-07-29T19:45:06Z</time>
      </trkpt>
      <trkpt lat="49.27312" lon="-0.68901">
        <ele>53.97</ele>
        <time>2021-07-29T19:45:07Z</time>
      </trkpt>
      <trkpt lat="49.27315" lon="-0.68896">
        <ele>54.45</ele>
        <time>2021-07-29T19:45:08Z</time>
      </trkpt>
      <trkpt lat="49.27323" lon="-0.68898">
        <ele>54.45</ele>
        <time>2021-07-29T19:45:09Z</time>
      </trkpt>
      <trkpt lat="49.27329" lon="-0.68896">
        <ele>54.45</ele>
        <time>2021-07-29T19:45:10Z</time>
      </trkpt>
      <trkpt lat="49.27333" lon="-0.68892">
        <ele>54.45</ele>
        <time>2021-07-29T19:45:11Z</time>
      </trkpt>
      <trkpt lat="49.2734" lon="-0.68887">
        <ele>54.93</ele>
        <time>2021-07-29T19:45:12Z</time>
      </trkpt>
      <trkpt lat="49.2734" lon="-0.68887">
        <ele>54.93</ele>
        <time>2021-07-29T19:45:13Z</time>
      </trkpt>
      <trkpt lat="49.27343" lon="-0.68884">
        <ele>55.41</ele>
        <time>2021-07-29T19:45:14Z</time>
      </trkpt>
      <trkpt lat="49.27345" lon="-0.68882">
        <ele>55.41</ele>
        <time>2021-07-29T19:45:15Z</time>
      </trkpt>
      <trkpt lat="49.27362" lon="-0.68863">
        <ele>56.86</ele>
        <time>2021-07-29T19:45:27Z</time>
      </trkpt>
      <trkpt lat="49.27406" lon="-0.68811">
        <ele>59.26</ele>
        <time>2021-07-29T19:45:39Z</time>
      </trkpt>
      <trkpt lat="49.27418" lon="-0.6879">
        <ele>59.74</ele>
        <time>2021-07-29T19:45:43Z</time>
      </trkpt>
      <trkpt lat="49.27421" lon="-0.68782">
        <ele>60.22</ele>
        <time>2021-07-29T19:45:44Z</time>
      </trkpt>
      <trkpt lat="49.27423" lon="-0.68775">
        <ele>60.22</ele>
        <time>2021-07-29T19:45:45Z</time>
      </trkpt>
      <trkpt lat="49.27425" lon="-0.68768">
        <ele>60.22</ele>
        <time>2021-07-29T19:45:46Z</time>
      </trkpt>
      <trkpt lat="49.27428" lon="-0.68761">
        <ele>60.22</ele>
        <time>2021-07-29T19:45:47Z</time>
      </trkpt>
      <trkpt lat="49.27428" lon="-0.68756">
        <ele>60.22</ele>
        <time>2021-07-29T19:45:48Z</time>
      </trkpt>
      <trkpt lat="49.27428" lon="-0.68748">
        <ele>60.22</ele>
        <time>2021-07-29T19:45:49Z</time>
      </trkpt>
      <trkpt lat="49.27433" lon="-0.68736">
        <ele>60.7</ele>
        <time>2021-07-29T19:45:50Z</time>
      </trkpt>
      <trkpt lat="49.27437" lon="-0.68733">
        <ele>60.7</ele>
        <time>2021-07-29T19:45:51Z</time>
      </trkpt>
      <trkpt lat="49.27439" lon="-0.68731">
        <ele>61.18</ele>
        <time>2021-07-29T19:45:52Z</time>
      </trkpt>
      <trkpt lat="49.27451" lon="-0.68737">
        <ele>61.66</ele>
        <time>2021-07-29T19:45:53Z</time>
      </trkpt>
      <trkpt lat="49.27456" lon="-0.68733">
        <ele>61.66</ele>
        <time>2021-07-29T19:45:54Z</time>
      </trkpt>
      <trkpt lat="49.27462" lon="-0.68728">
        <ele>62.14</ele>
        <time>2021-07-29T19:45:55Z</time>
      </trkpt>
      <trkpt lat="49.27469" lon="-0.68722">
        <ele>62.62</ele>
        <time>2021-07-29T19:45:56Z</time>
      </trkpt>
      <trkpt lat="49.27476" lon="-0.68716">
        <ele>62.62</ele>
        <time>2021-07-29T19:45:57Z</time>
      </trkpt>
      <trkpt lat="49.27484" lon="-0.68709">
        <ele>63.1</ele>
        <time>2021-07-29T19:45:58Z</time>
      </trkpt>
      <trkpt lat="49.27572" lon="-0.68599">
        <ele>66.47</ele>
        <time>2021-07-29T19:46:09Z</time>
      </trkpt>
      <trkpt lat="49.27686" lon="-0.68485">
        <ele>68.39</ele>
        <time>2021-07-29T19:46:22Z</time>
      </trkpt>
      <trkpt lat="49.27738" lon="-0.68463">
        <ele>68.39</ele>
        <time>2021-07-29T19:46:30Z</time>
      </trkpt>
      <trkpt lat="49.27743" lon="-0.68462">
        <ele>68.87</ele>
        <time>2021-07-29T19:46:40Z</time>
      </trkpt>
      <trkpt lat="49.27769" lon="-0.68457">
        <ele>68.39</ele>
        <time>2021-07-29T19:47:09Z</time>
      </trkpt>
      <trkpt lat="49.2782" lon="-0.68459">
        <ele>67.43</ele>
        <time>2021-07-29T19:47:29Z</time>
      </trkpt>
      <trkpt lat="49.27856" lon="-0.68474">
        <ele>64.55</ele>
        <time>2021-07-29T19:47:48Z</time>
      </trkpt>
      <trkpt lat="49.27858" lon="-0.68474">
        <ele>64.55</ele>
        <time>2021-07-29T19:48:05Z</time>
      </trkpt>
      <trkpt lat="49.27886" lon="-0.68486">
        <ele>65.51</ele>
        <time>2021-07-29T19:48:18Z</time>
      </trkpt>
      <trkpt lat="49.27945" lon="-0.6851">
        <ele>61.18</ele>
        <time>2021-07-29T19:48:28Z</time>
      </trkpt>
      <trkpt lat="49.28041" lon="-0.68548">
        <ele>55.41</ele>
        <time>2021-07-29T19:48:41Z</time>
      </trkpt>
      <trkpt lat="49.28134" lon="-0.68586">
        <ele>51.57</ele>
        <time>2021-07-29T19:48:53Z</time>
      </trkpt>
      <trkpt lat="49.28144" lon="-0.68591">
        <ele>50.13</ele>
        <time>2021-07-29T19:49:02Z</time>
      </trkpt>
      <trkpt lat="49.28163" lon="-0.68603">
        <ele>49.16</ele>
        <time>2021-07-29T19:50:11Z</time>
      </trkpt>
      <trkpt lat="49.28233" lon="-0.68662">
        <ele>45.8</ele>
        <time>2021-07-29T19:50:21Z</time>
      </trkpt>
      <trkpt lat="49.28266" lon="-0.68696">
        <ele>43.88</ele>
        <time>2021-07-29T19:50:29Z</time>
      </trkpt>
      <trkpt lat="49.28296" lon="-0.68739">
        <ele>41.95</ele>
        <time>2021-07-29T19:50:37Z</time>
      </trkpt>
      <trkpt lat="49.28303" lon="-0.68752">
        <ele>41.95</ele>
        <time>2021-07-29T19:50:38Z</time>
      </trkpt>
      <trkpt lat="49.28303" lon="-0.68752">
        <ele>41.47</ele>
        <time>2021-07-29T19:50:39Z</time>
      </trkpt>
      <trkpt lat="49.28309" lon="-0.68762">
        <ele>40.99</ele>
        <time>2021-07-29T19:50:40Z</time>
      </trkpt>
      <trkpt lat="49.28311" lon="-0.68766">
        <ele>40.51</ele>
        <time>2021-07-29T19:50:41Z</time>
      </trkpt>
      <trkpt lat="49.28313" lon="-0.6877">
        <ele>40.03</ele>
        <time>2021-07-29T19:50:42Z</time>
      </trkpt>
      <trkpt lat="49.28313" lon="-0.6877">
        <ele>39.55</ele>
        <time>2021-07-29T19:50:43Z</time>
      </trkpt>
      <trkpt lat="49.28315" lon="-0.68774">
        <ele>39.07</ele>
        <time>2021-07-29T19:50:44Z</time>
      </trkpt>
      <trkpt lat="49.28318" lon="-0.68781">
        <ele>39.07</ele>
        <time>2021-07-29T19:50:45Z</time>
      </trkpt>
      <trkpt lat="49.28318" lon="-0.68781">
        <ele>38.11</ele>
        <time>2021-07-29T19:50:46Z</time>
      </trkpt>
      <trkpt lat="49.28323" lon="-0.68793">
        <ele>37.63</ele>
        <time>2021-07-29T19:50:47Z</time>
      </trkpt>
      <trkpt lat="49.28323" lon="-0.68793">
        <ele>37.63</ele>
        <time>2021-07-29T19:50:48Z</time>
      </trkpt>
      <trkpt lat="49.28326" lon="-0.688">
        <ele>37.15</ele>
        <time>2021-07-29T19:50:49Z</time>
      </trkpt>
      <trkpt lat="49.28329" lon="-0.68808">
        <ele>37.15</ele>
        <time>2021-07-29T19:50:50Z</time>
      </trkpt>
      <trkpt lat="49.28332" lon="-0.68819">
        <ele>37.63</ele>
        <time>2021-07-29T19:50:51Z</time>
      </trkpt>
      <trkpt lat="49.28334" lon="-0.6883">
        <ele>37.63</ele>
        <time>2021-07-29T19:50:52Z</time>
      </trkpt>
      <trkpt lat="49.28337" lon="-0.68842">
        <ele>38.11</ele>
        <time>2021-07-29T19:50:53Z</time>
      </trkpt>
      <trkpt lat="49.28383" lon="-0.69032">
        <ele>38.59</ele>
        <time>2021-07-29T19:51:06Z</time>
      </trkpt>
      <trkpt lat="49.28411" lon="-0.69157">
        <ele>40.03</ele>
        <time>2021-07-29T19:51:17Z</time>
      </trkpt>
      <trkpt lat="49.2842" lon="-0.69216">
        <ele>40.51</ele>
        <time>2021-07-29T19:51:25Z</time>
      </trkpt>
      <trkpt lat="49.28421" lon="-0.69223">
        <ele>40.03</ele>
        <time>2021-07-29T19:51:26Z</time>
      </trkpt>
      <trkpt lat="49.28428" lon="-0.69235">
        <ele>40.03</ele>
        <time>2021-07-29T19:51:27Z</time>
      </trkpt>
      <trkpt lat="49.28438" lon="-0.69248">
        <ele>39.07</ele>
        <time>2021-07-29T19:51:30Z</time>
      </trkpt>
      <trkpt lat="49.28441" lon="-0.69258">
        <ele>39.07</ele>
        <time>2021-07-29T19:51:31Z</time>
      </trkpt>
      <trkpt lat="49.28444" lon="-0.69268">
        <ele>38.59</ele>
        <time>2021-07-29T19:51:32Z</time>
      </trkpt>
      <trkpt lat="49.28439" lon="-0.69299">
        <ele>38.59</ele>
        <time>2021-07-29T19:51:34Z</time>
      </trkpt>
      <trkpt lat="49.28444" lon="-0.6931">
        <ele>38.11</ele>
        <time>2021-07-29T19:51:35Z</time>
      </trkpt>
      <trkpt lat="49.28467" lon="-0.69456">
        <ele>35.71</ele>
        <time>2021-07-29T19:51:43Z</time>
      </trkpt>
      <trkpt lat="49.28455" lon="-0.69675">
        <ele>28.5</ele>
        <time>2021-07-29T19:51:53Z</time>
      </trkpt>
      <trkpt lat="49.28423" lon="-0.69963">
        <ele>31.86</ele>
        <time>2021-07-29T19:52:07Z</time>
      </trkpt>
      <trkpt lat="49.28392" lon="-0.70261">
        <ele>34.26</ele>
        <time>2021-07-29T19:52:23Z</time>
      </trkpt>
      <trkpt lat="49.2838" lon="-0.70369">
        <ele>34.74</ele>
        <time>2021-07-29T19:52:31Z</time>
      </trkpt>
      <trkpt lat="49.28379" lon="-0.70377">
        <ele>35.23</ele>
        <time>2021-07-29T19:52:32Z</time>
      </trkpt>
      <trkpt lat="49.28379" lon="-0.70379">
        <ele>35.71</ele>
        <time>2021-07-29T19:52:33Z</time>
      </trkpt>
      <trkpt lat="49.2839" lon="-0.70393">
        <ele>35.71</ele>
        <time>2021-07-29T19:52:34Z</time>
      </trkpt>
      <trkpt lat="49.2839" lon="-0.70393">
        <ele>36.19</ele>
        <time>2021-07-29T19:52:35Z</time>
      </trkpt>
      <trkpt lat="49.28394" lon="-0.70398">
        <ele>36.19</ele>
        <time>2021-07-29T19:52:36Z</time>
      </trkpt>
      <trkpt lat="49.284" lon="-0.70396">
        <ele>36.19</ele>
        <time>2021-07-29T19:52:37Z</time>
      </trkpt>
      <trkpt lat="49.28509" lon="-0.70385">
        <ele>36.67</ele>
        <time>2021-07-29T19:52:46Z</time>
      </trkpt>
      <trkpt lat="49.28663" lon="-0.70383">
        <ele>35.71</ele>
        <time>2021-07-29T19:52:57Z</time>
      </trkpt>
      <trkpt lat="49.28736" lon="-0.70383">
        <ele>35.71</ele>
        <time>2021-07-29T19:53:06Z</time>
      </trkpt>
      <trkpt lat="49.28755" lon="-0.70383">
        <ele>35.23</ele>
        <time>2021-07-29T19:53:07Z</time>
      </trkpt>
      <trkpt lat="49.28755" lon="-0.70383">
        <ele>35.71</ele>
        <time>2021-07-29T19:53:08Z</time>
      </trkpt>
      <trkpt lat="49.28853" lon="-0.70375">
        <ele>37.15</ele>
        <time>2021-07-29T19:53:18Z</time>
      </trkpt>
      <trkpt lat="49.28865" lon="-0.70373">
        <ele>37.15</ele>
        <time>2021-07-29T19:53:19Z</time>
      </trkpt>
      <trkpt lat="49.2887" lon="-0.70362">
        <ele>37.63</ele>
        <time>2021-07-29T19:53:20Z</time>
      </trkpt>
      <trkpt lat="49.2887" lon="-0.70362">
        <ele>38.11</ele>
        <time>2021-07-29T19:53:21Z</time>
      </trkpt>
      <trkpt lat="49.28876" lon="-0.70361">
        <ele>38.11</ele>
        <time>2021-07-29T19:53:22Z</time>
      </trkpt>
      <trkpt lat="49.28879" lon="-0.7036">
        <ele>38.59</ele>
        <time>2021-07-29T19:53:23Z</time>
      </trkpt>
      <trkpt lat="49.28889" lon="-0.70367">
        <ele>39.07</ele>
        <time>2021-07-29T19:53:24Z</time>
      </trkpt>
      <trkpt lat="49.28897" lon="-0.70365">
        <ele>39.07</ele>
        <time>2021-07-29T19:53:25Z</time>
      </trkpt>
      <trkpt lat="49.29009" lon="-0.7034">
        <ele>38.59</ele>
        <time>2021-07-29T19:53:36Z</time>
      </trkpt>
      <trkpt lat="49.29123" lon="-0.70325">
        <ele>40.03</ele>
        <time>2021-07-29T19:53:48Z</time>
      </trkpt>
      <trkpt lat="49.29201" lon="-0.70305">
        <ele>40.99</ele>
        <time>2021-07-29T19:53:58Z</time>
      </trkpt>
      <trkpt lat="49.29301" lon="-0.70274">
        <ele>39.07</ele>
        <time>2021-07-29T19:54:08Z</time>
      </trkpt>
      <trkpt lat="49.29442" lon="-0.70281">
        <ele>35.71</ele>
        <time>2021-07-29T19:54:19Z</time>
      </trkpt>
      <trkpt lat="49.29696" lon="-0.703">
        <ele>29.46</ele>
        <time>2021-07-29T19:54:35Z</time>
      </trkpt>
      <trkpt lat="49.29818" lon="-0.70308">
        <ele>27.05</ele>
        <time>2021-07-29T19:54:43Z</time>
      </trkpt>
      <trkpt lat="49.29995" lon="-0.7031">
        <ele>21.29</ele>
        <time>2021-07-29T19:54:58Z</time>
      </trkpt>
      <trkpt lat="49.30125" lon="-0.70313">
        <ele>17.92</ele>
        <time>2021-07-29T19:55:09Z</time>
      </trkpt>
      <trkpt lat="49.30216" lon="-0.70339">
        <ele>18.4</ele>
        <time>2021-07-29T19:55:18Z</time>
      </trkpt>
      <trkpt lat="49.30221" lon="-0.7034">
        <ele>18.4</ele>
        <time>2021-07-29T19:55:19Z</time>
      </trkpt>
      <trkpt lat="49.30227" lon="-0.70338">
        <ele>19.36</ele>
        <time>2021-07-29T19:55:20Z</time>
      </trkpt>
      <trkpt lat="49.30296" lon="-0.70284">
        <ele>22.25</ele>
        <time>2021-07-29T19:55:29Z</time>
      </trkpt>
      <trkpt lat="49.30296" lon="-0.70284">
        <ele>22.25</ele>
        <time>2021-07-29T19:55:30Z</time>
      </trkpt>
      <trkpt lat="49.30304" lon="-0.70284">
        <ele>22.25</ele>
        <time>2021-07-29T19:55:31Z</time>
      </trkpt>
      <trkpt lat="49.30311" lon="-0.70286">
        <ele>21.77</ele>
        <time>2021-07-29T19:55:32Z</time>
      </trkpt>
      <trkpt lat="49.30318" lon="-0.70287">
        <ele>21.77</ele>
        <time>2021-07-29T19:55:33Z</time>
      </trkpt>
      <trkpt lat="49.30402" lon="-0.70328">
        <ele>21.29</ele>
        <time>2021-07-29T19:55:43Z</time>
      </trkpt>
      <trkpt lat="49.30489" lon="-0.70356">
        <ele>22.25</ele>
        <time>2021-07-29T19:55:52Z</time>
      </trkpt>
      <trkpt lat="49.305" lon="-0.70357">
        <ele>22.73</ele>
        <time>2021-07-29T19:55:53Z</time>
      </trkpt>
      <trkpt lat="49.30512" lon="-0.70359">
        <ele>23.69</ele>
        <time>2021-07-29T19:55:54Z</time>
      </trkpt>
      <trkpt lat="49.30582" lon="-0.70369">
        <ele>28.5</ele>
        <time>2021-07-29T19:55:58Z</time>
      </trkpt>
      <trkpt lat="49.30597" lon="-0.70369">
        <ele>29.46</ele>
        <time>2021-07-29T19:55:59Z</time>
      </trkpt>
      <trkpt lat="49.30698" lon="-0.70314">
        <ele>39.07</ele>
        <time>2021-07-29T19:56:07Z</time>
      </trkpt>
      <trkpt lat="49.30721" lon="-0.7029">
        <ele>41.47</ele>
        <time>2021-07-29T19:56:08Z</time>
      </trkpt>
      <trkpt lat="49.30721" lon="-0.7029">
        <ele>45.32</ele>
        <time>2021-07-29T19:56:09Z</time>
      </trkpt>
      <trkpt lat="49.3073" lon="-0.70277">
        <ele>47.24</ele>
        <time>2021-07-29T19:56:10Z</time>
      </trkpt>
      <trkpt lat="49.30742" lon="-0.7026">
        <ele>48.2</ele>
        <time>2021-07-29T19:56:11Z</time>
      </trkpt>
      <trkpt lat="49.30863" lon="-0.70101">
        <ele>44.84</ele>
        <time>2021-07-29T19:56:20Z</time>
      </trkpt>
      <trkpt lat="49.31052" lon="-0.69968">
        <ele>42.92</ele>
        <time>2021-07-29T19:56:31Z</time>
      </trkpt>
      <trkpt lat="49.31219" lon="-0.69919">
        <ele>38.59</ele>
        <time>2021-07-29T19:56:40Z</time>
      </trkpt>
      <trkpt lat="49.31413" lon="-0.69923">
        <ele>33.78</ele>
        <time>2021-07-29T19:56:50Z</time>
      </trkpt>
      <trkpt lat="49.3161" lon="-0.69979">
        <ele>26.57</ele>
        <time>2021-07-29T19:57:01Z</time>
      </trkpt>
      <trkpt lat="49.31725" lon="-0.7003">
        <ele>24.17</ele>
        <time>2021-07-29T19:57:10Z</time>
      </trkpt>
      <trkpt lat="49.31907" lon="-0.70148">
        <ele>21.29</ele>
        <time>2021-07-29T19:57:24Z</time>
      </trkpt>
      <trkpt lat="49.32104" lon="-0.70274">
        <ele>17.92</ele>
        <time>2021-07-29T19:57:36Z</time>
      </trkpt>
      <trkpt lat="49.32104" lon="-0.70274">
        <ele>15.52</ele>
        <time>2021-07-29T19:57:37Z</time>
      </trkpt>
      <trkpt lat="49.32121" lon="-0.70279">
        <ele>15.52</ele>
        <time>2021-07-29T19:57:38Z</time>
      </trkpt>
      <trkpt lat="49.32154" lon="-0.70286">
        <ele>16.48</ele>
        <time>2021-07-29T19:57:39Z</time>
      </trkpt>
      <trkpt lat="49.32154" lon="-0.70286">
        <ele>19.36</ele>
        <time>2021-07-29T19:57:40Z</time>
      </trkpt>
      <trkpt lat="49.32187" lon="-0.70283">
        <ele>19.84</ele>
        <time>2021-07-29T19:57:41Z</time>
      </trkpt>
      <trkpt lat="49.32475" lon="-0.70247">
        <ele>27.05</ele>
        <time>2021-07-29T19:57:58Z</time>
      </trkpt>
      <trkpt lat="49.32674" lon="-0.70168">
        <ele>24.17</ele>
        <time>2021-07-29T19:58:09Z</time>
      </trkpt>
      <trkpt lat="49.32725" lon="-0.70143">
        <ele>23.69</ele>
        <time>2021-07-29T19:58:12Z</time>
      </trkpt>
      <trkpt lat="49.3274" lon="-0.70131">
        <ele>25.13</ele>
        <time>2021-07-29T19:58:13Z</time>
      </trkpt>
      <trkpt lat="49.32754" lon="-0.70119">
        <ele>27.05</ele>
        <time>2021-07-29T19:58:14Z</time>
      </trkpt>
      <trkpt lat="49.32766" lon="-0.70104">
        <ele>26.57</ele>
        <time>2021-07-29T19:58:15Z</time>
      </trkpt>
      <trkpt lat="49.32778" lon="-0.70087">
        <ele>26.57</ele>
        <time>2021-07-29T19:58:16Z</time>
      </trkpt>
      <trkpt lat="49.32857" lon="-0.69991">
        <ele>26.57</ele>
        <time>2021-07-29T19:58:22Z</time>
      </trkpt>
      <trkpt lat="49.32873" lon="-0.6998">
        <ele>26.09</ele>
        <time>2021-07-29T19:58:23Z</time>
      </trkpt>
      <trkpt lat="49.3289" lon="-0.69971">
        <ele>26.09</ele>
        <time>2021-07-29T19:58:24Z</time>
      </trkpt>
      <trkpt lat="49.32907" lon="-0.69963">
        <ele>27.05</ele>
        <time>2021-07-29T19:58:25Z</time>
      </trkpt>
      <trkpt lat="49.32924" lon="-0.69955">
        <ele>27.53</ele>
        <time>2021-07-29T19:58:26Z</time>
      </trkpt>
      <trkpt lat="49.33033" lon="-0.69942">
        <ele>22.25</ele>
        <time>2021-07-29T19:58:33Z</time>
      </trkpt>
      <trkpt lat="49.33184" lon="-0.69932">
        <ele>20.81</ele>
        <time>2021-07-29T19:58:44Z</time>
      </trkpt>
      <trkpt lat="49.3332" lon="-0.69871">
        <ele>24.17</ele>
        <time>2021-07-29T19:58:54Z</time>
      </trkpt>
      <trkpt lat="49.33419" lon="-0.69856">
        <ele>29.46</ele>
        <time>2021-07-29T19:59:03Z</time>
      </trkpt>
      <trkpt lat="49.33482" lon="-0.69836">
        <ele>34.74</ele>
        <time>2021-07-29T19:59:09Z</time>
      </trkpt>
      <trkpt lat="49.33482" lon="-0.69836">
        <ele>34.74</ele>
        <time>2021-07-29T19:59:10Z</time>
      </trkpt>
      <trkpt lat="49.3349" lon="-0.69828">
        <ele>35.23</ele>
        <time>2021-07-29T19:59:11Z</time>
      </trkpt>
      <trkpt lat="49.33529" lon="-0.69785">
        <ele>37.63</ele>
        <time>2021-07-29T19:59:16Z</time>
      </trkpt>
      <trkpt lat="49.33535" lon="-0.69774">
        <ele>38.11</ele>
        <time>2021-07-29T19:59:17Z</time>
      </trkpt>
      <trkpt lat="49.33558" lon="-0.69725">
        <ele>43.4</ele>
        <time>2021-07-29T19:59:24Z</time>
      </trkpt>
      <trkpt lat="49.33561" lon="-0.69716">
        <ele>45.32</ele>
        <time>2021-07-29T19:59:37Z</time>
      </trkpt>
      <trkpt lat="49.33583" lon="-0.69663">
        <ele>47.24</ele>
        <time>2021-07-29T19:59:44Z</time>
      </trkpt>
      <trkpt lat="49.33583" lon="-0.69663">
        <ele>47.72</ele>
        <time>2021-07-29T19:59:45Z</time>
      </trkpt>
      <trkpt lat="49.33587" lon="-0.69655">
        <ele>47.72</ele>
        <time>2021-07-29T19:59:46Z</time>
      </trkpt>
      <trkpt lat="49.33593" lon="-0.69648">
        <ele>48.2</ele>
        <time>2021-07-29T19:59:47Z</time>
      </trkpt>
      <trkpt lat="49.33599" lon="-0.69641">
        <ele>48.68</ele>
        <time>2021-07-29T19:59:48Z</time>
      </trkpt>
      <trkpt lat="49.33686" lon="-0.6955">
        <ele>53.97</ele>
        <time>2021-07-29T20:00:00Z</time>
      </trkpt>
      <trkpt lat="49.33768" lon="-0.69435">
        <ele>58.78</ele>
        <time>2021-07-29T20:00:11Z</time>
      </trkpt>
      <trkpt lat="49.3383" lon="-0.69356">
        <ele>58.78</ele>
        <time>2021-07-29T20:00:21Z</time>
      </trkpt>
      <trkpt lat="49.33916" lon="-0.69251">
        <ele>58.78</ele>
        <time>2021-07-29T20:00:32Z</time>
      </trkpt>
      <trkpt lat="49.34011" lon="-0.69182">
        <ele>58.78</ele>
        <time>2021-07-29T20:00:45Z</time>
      </trkpt>
      <trkpt lat="49.34102" lon="-0.69139">
        <ele>61.18</ele>
        <time>2021-07-29T20:00:57Z</time>
      </trkpt>
      <trkpt lat="49.34221" lon="-0.691">
        <ele>64.55</ele>
        <time>2021-07-29T20:01:10Z</time>
      </trkpt>
      <trkpt lat="49.34286" lon="-0.69087">
        <ele>65.99</ele>
        <time>2021-07-29T20:01:19Z</time>
      </trkpt>
      <trkpt lat="49.3429" lon="-0.6909">
        <ele>65.51</ele>
        <time>2021-07-29T20:01:20Z</time>
      </trkpt>
      <trkpt lat="49.34295" lon="-0.69093">
        <ele>65.51</ele>
        <time>2021-07-29T20:01:21Z</time>
      </trkpt>
      <trkpt lat="49.34299" lon="-0.69096">
        <ele>65.51</ele>
        <time>2021-07-29T20:01:22Z</time>
      </trkpt>
      <trkpt lat="49.34302" lon="-0.69098">
        <ele>65.51</ele>
        <time>2021-07-29T20:01:23Z</time>
      </trkpt>
      <trkpt lat="49.34326" lon="-0.6912">
        <ele>65.03</ele>
        <time>2021-07-29T20:01:34Z</time>
      </trkpt>
      <trkpt lat="49.34368" lon="-0.69161">
        <ele>64.55</ele>
        <time>2021-07-29T20:01:44Z</time>
      </trkpt>
      <trkpt lat="49.34373" lon="-0.69166">
        <ele>64.55</ele>
        <time>2021-07-29T20:01:45Z</time>
      </trkpt>
      <trkpt lat="49.34379" lon="-0.69171">
        <ele>64.55</ele>
        <time>2021-07-29T20:01:46Z</time>
      </trkpt>
      <trkpt lat="49.34385" lon="-0.69168">
        <ele>64.55</ele>
        <time>2021-07-29T20:01:47Z</time>
      </trkpt>
      <trkpt lat="49.34393" lon="-0.69165">
        <ele>64.55</ele>
        <time>2021-07-29T20:01:48Z</time>
      </trkpt>
      <trkpt lat="49.34522" lon="-0.69097">
        <ele>63.58</ele>
        <time>2021-07-29T20:02:05Z</time>
      </trkpt>
      <trkpt lat="49.34591" lon="-0.69057">
        <ele>62.14</ele>
        <time>2021-07-29T20:02:17Z</time>
      </trkpt>
      <trkpt lat="49.34597" lon="-0.69012">
        <ele>61.18</ele>
        <time>2021-07-29T20:02:27Z</time>
      </trkpt>
      <trkpt lat="49.34597" lon="-0.6898">
        <ele>61.66</ele>
        <time>2021-07-29T20:02:38Z</time>
      </trkpt>
      <trkpt lat="49.34597" lon="-0.6898">
        <ele>61.66</ele>
        <time>2021-07-29T20:03:35Z</time>
      </trkpt>
      <trkpt lat="49.34597" lon="-0.6898">
        <ele>61.18</ele>
        <time>2021-07-29T20:03:51Z</time>
      </trkpt>
      <trkpt lat="49.34597" lon="-0.6898">
        <ele>61.66</ele>
        <time>2021-07-29T20:04:06Z</time>
      </trkpt>
      <trkpt lat="49.34597" lon="-0.6898">
        <ele>61.66</ele>
        <time>2021-07-29T20:04:41Z</time>
      </trkpt>
      <trkpt lat="49.34597" lon="-0.6898">
        <ele>61.66</ele>
        <time>2021-07-29T20:04:55Z</time>
      </trkpt>
      <trkpt lat="49.34596" lon="-0.68987">
        <ele>62.14</ele>
        <time>2021-07-29T20:04:56Z</time>
      </trkpt>
      <trkpt lat="49.34596" lon="-0.68987">
        <ele>62.14</ele>
        <time>2021-07-29T20:04:57Z</time>
      </trkpt>
      <trkpt lat="49.34595" lon="-0.68997">
        <ele>62.14</ele>
        <time>2021-07-29T20:04:58Z</time>
      </trkpt>
      <trkpt lat="49.34595" lon="-0.68997">
        <ele>62.14</ele>
        <time>2021-07-29T20:04:59Z</time>
      </trkpt>
      <trkpt lat="49.34596" lon="-0.69001">
        <ele>62.62</ele>
        <time>2021-07-29T20:05:00Z</time>
      </trkpt>
      <trkpt lat="49.34597" lon="-0.69012">
        <ele>62.62</ele>
        <time>2021-07-29T20:05:13Z</time>
      </trkpt>
      <trkpt lat="49.34597" lon="-0.69012">
        <ele>62.14</ele>
        <time>2021-07-29T20:09:57Z</time>
      </trkpt>
      <trkpt lat="49.34591" lon="-0.69057">
        <ele>63.58</ele>
        <time>2021-07-29T20:10:09Z</time>
      </trkpt>
      <trkpt lat="49.34548" lon="-0.69083">
        <ele>65.03</ele>
        <time>2021-07-29T20:10:21Z</time>
      </trkpt>
      <trkpt lat="49.34471" lon="-0.69126">
        <ele>66.47</ele>
        <time>2021-07-29T20:10:36Z</time>
      </trkpt>
      <trkpt lat="49.34382" lon="-0.69169">
        <ele>66.47</ele>
        <time>2021-07-29T20:10:54Z</time>
      </trkpt>
      <trkpt lat="49.34349" lon="-0.69142">
        <ele>66.47</ele>
        <time>2021-07-29T20:11:04Z</time>
      </trkpt>
      <trkpt lat="49.34317" lon="-0.69112">
        <ele>66.47</ele>
        <time>2021-07-29T20:11:14Z</time>
      </trkpt>
      <trkpt lat="49.34315" lon="-0.6911">
        <ele>66.47</ele>
        <time>2021-07-29T20:11:15Z</time>
      </trkpt>
      <trkpt lat="49.34306" lon="-0.69114">
        <ele>66.47</ele>
        <time>2021-07-29T20:11:16Z</time>
      </trkpt>
      <trkpt lat="49.34306" lon="-0.69114">
        <ele>66.47</ele>
        <time>2021-07-29T20:11:17Z</time>
      </trkpt>
      <trkpt lat="49.34306" lon="-0.69117">
        <ele>66.47</ele>
        <time>2021-07-29T20:11:18Z</time>
      </trkpt>
      <trkpt lat="49.34306" lon="-0.69119">
        <ele>66.47</ele>
        <time>2021-07-29T20:11:19Z</time>
      </trkpt>
      <trkpt lat="49.34307" lon="-0.69176">
        <ele>66.47</ele>
        <time>2021-07-29T20:11:32Z</time>
      </trkpt>
      <trkpt lat="49.34307" lon="-0.6922">
        <ele>66.95</ele>
        <time>2021-07-29T20:11:44Z</time>
      </trkpt>
    </trkseg>
  </trk>
  <trk>
    <name><![CDATA[Journal actif: 2021-07-29 18:12]]></name>
    <trkseg>
      <trkpt lat="49.34307" lon="-0.6922">
        <ele>66.95</ele>
        <time>2021-07-29T20:12:55Z</time>
      </trkpt>
      <trkpt lat="49.34308" lon="-0.69247">
        <ele>67.43</ele>
        <time>2021-07-29T20:13:05Z</time>
      </trkpt>
      <trkpt lat="49.3431" lon="-0.69341">
        <ele>68.39</ele>
        <time>2021-07-29T20:13:15Z</time>
      </trkpt>
      <trkpt lat="49.34317" lon="-0.69415">
        <ele>68.87</ele>
        <time>2021-07-29T20:13:21Z</time>
      </trkpt>
      <trkpt lat="49.34318" lon="-0.69427">
        <ele>68.87</ele>
        <time>2021-07-29T20:13:22Z</time>
      </trkpt>
      <trkpt lat="49.34299" lon="-0.69541">
        <ele>68.87</ele>
        <time>2021-07-29T20:13:32Z</time>
      </trkpt>
      <trkpt lat="49.34276" lon="-0.6968">
        <ele>68.39</ele>
        <time>2021-07-29T20:13:44Z</time>
      </trkpt>
      <trkpt lat="49.34251" lon="-0.69888">
        <ele>64.07</ele>
        <time>2021-07-29T20:13:58Z</time>
      </trkpt>
      <trkpt lat="49.3425" lon="-0.69901">
        <ele>64.07</ele>
        <time>2021-07-29T20:13:59Z</time>
      </trkpt>
      <trkpt lat="49.34249" lon="-0.69912">
        <ele>63.58</ele>
        <time>2021-07-29T20:14:00Z</time>
      </trkpt>
      <trkpt lat="49.34242" lon="-0.69922">
        <ele>63.58</ele>
        <time>2021-07-29T20:14:01Z</time>
      </trkpt>
      <trkpt lat="49.34237" lon="-0.69923">
        <ele>63.58</ele>
        <time>2021-07-29T20:14:02Z</time>
      </trkpt>
      <trkpt lat="49.34231" lon="-0.69926">
        <ele>63.58</ele>
        <time>2021-07-29T20:14:03Z</time>
      </trkpt>
      <trkpt lat="49.34225" lon="-0.69928">
        <ele>63.58</ele>
        <time>2021-07-29T20:14:04Z</time>
      </trkpt>
      <trkpt lat="49.34128" lon="-0.69961">
        <ele>64.55</ele>
        <time>2021-07-29T20:14:15Z</time>
      </trkpt>
      <trkpt lat="49.33939" lon="-0.70027">
        <ele>61.18</ele>
        <time>2021-07-29T20:14:30Z</time>
      </trkpt>
      <trkpt lat="49.33799" lon="-0.70075">
        <ele>58.3</ele>
        <time>2021-07-29T20:14:41Z</time>
      </trkpt>
      <trkpt lat="49.33782" lon="-0.70081">
        <ele>58.78</ele>
        <time>2021-07-29T20:14:45Z</time>
      </trkpt>
      <trkpt lat="49.33772" lon="-0.70068">
        <ele>58.78</ele>
        <time>2021-07-29T20:14:46Z</time>
      </trkpt>
      <trkpt lat="49.33772" lon="-0.70068">
        <ele>58.3</ele>
        <time>2021-07-29T20:14:47Z</time>
      </trkpt>
      <trkpt lat="49.33738" lon="-0.69939">
        <ele>54.45</ele>
        <time>2021-07-29T20:14:57Z</time>
      </trkpt>
      <trkpt lat="49.33714" lon="-0.69806">
        <ele>51.57</ele>
        <time>2021-07-29T20:15:07Z</time>
      </trkpt>
      <trkpt lat="49.33699" lon="-0.69716">
        <ele>49.65</ele>
        <time>2021-07-29T20:15:16Z</time>
      </trkpt>
      <trkpt lat="49.33698" lon="-0.69713">
        <ele>51.09</ele>
        <time>2021-07-29T20:15:28Z</time>
      </trkpt>
      <trkpt lat="49.33698" lon="-0.69714">
        <ele>51.09</ele>
        <time>2021-07-29T20:15:29Z</time>
      </trkpt>
      <trkpt lat="49.33696" lon="-0.69715">
        <ele>51.09</ele>
        <time>2021-07-29T20:15:30Z</time>
      </trkpt>
      <trkpt lat="49.33693" lon="-0.69717">
        <ele>51.09</ele>
        <time>2021-07-29T20:15:31Z</time>
      </trkpt>
      <trkpt lat="49.33689" lon="-0.6972">
        <ele>50.61</ele>
        <time>2021-07-29T20:15:32Z</time>
      </trkpt>
      <trkpt lat="49.33632" lon="-0.69759">
        <ele>49.16</ele>
        <time>2021-07-29T20:15:43Z</time>
      </trkpt>
      <trkpt lat="49.33626" lon="-0.69757">
        <ele>49.16</ele>
        <time>2021-07-29T20:15:44Z</time>
      </trkpt>
      <trkpt lat="49.33611" lon="-0.69751">
        <ele>48.68</ele>
        <time>2021-07-29T20:15:48Z</time>
      </trkpt>
      <trkpt lat="49.33604" lon="-0.69766">
        <ele>48.68</ele>
        <time>2021-07-29T20:15:49Z</time>
      </trkpt>
      <trkpt lat="49.33604" lon="-0.69771">
        <ele>48.68</ele>
        <time>2021-07-29T20:15:50Z</time>
      </trkpt>
      <trkpt lat="49.33591" lon="-0.69867">
        <ele>50.13</ele>
        <time>2021-07-29T20:15:58Z</time>
      </trkpt>
      <trkpt lat="49.33553" lon="-0.70052">
        <ele>53.49</ele>
        <time>2021-07-29T20:16:09Z</time>
      </trkpt>
      <trkpt lat="49.33509" lon="-0.70286">
        <ele>53.97</ele>
        <time>2021-07-29T20:16:20Z</time>
      </trkpt>
      <trkpt lat="49.33508" lon="-0.70306">
        <ele>53.01</ele>
        <time>2021-07-29T20:16:21Z</time>
      </trkpt>
      <trkpt lat="49.33521" lon="-0.70502">
        <ele>52.05</ele>
        <time>2021-07-29T20:16:31Z</time>
      </trkpt>
      <trkpt lat="49.33535" lon="-0.70646">
        <ele>47.72</ele>
        <time>2021-07-29T20:16:40Z</time>
      </trkpt>
      <trkpt lat="49.33543" lon="-0.70674">
        <ele>47.24</ele>
        <time>2021-07-29T20:16:41Z</time>
      </trkpt>
      <trkpt lat="49.33543" lon="-0.70674">
        <ele>46.76</ele>
        <time>2021-07-29T20:16:42Z</time>
      </trkpt>
      <trkpt lat="49.33613" lon="-0.70831">
        <ele>48.68</ele>
        <time>2021-07-29T20:16:53Z</time>
      </trkpt>
      <trkpt lat="49.33667" lon="-0.71011">
        <ele>51.57</ele>
        <time>2021-07-29T20:17:04Z</time>
      </trkpt>
      <trkpt lat="49.33726" lon="-0.7122">
        <ele>56.86</ele>
        <time>2021-07-29T20:17:16Z</time>
      </trkpt>
      <trkpt lat="49.33745" lon="-0.71307">
        <ele>58.78</ele>
        <time>2021-07-29T20:17:21Z</time>
      </trkpt>
      <trkpt lat="49.33751" lon="-0.71321">
        <ele>59.26</ele>
        <time>2021-07-29T20:17:22Z</time>
      </trkpt>
      <trkpt lat="49.33758" lon="-0.71334">
        <ele>59.26</ele>
        <time>2021-07-29T20:17:23Z</time>
      </trkpt>
      <trkpt lat="49.33766" lon="-0.71347">
        <ele>60.22</ele>
        <time>2021-07-29T20:17:24Z</time>
      </trkpt>
      <trkpt lat="49.33774" lon="-0.7136">
        <ele>62.14</ele>
        <time>2021-07-29T20:17:25Z</time>
      </trkpt>
      <trkpt lat="49.33801" lon="-0.7141">
        <ele>63.58</ele>
        <time>2021-07-29T20:17:29Z</time>
      </trkpt>
      <trkpt lat="49.33857" lon="-0.71559">
        <ele>63.58</ele>
        <time>2021-07-29T20:17:41Z</time>
      </trkpt>
      <trkpt lat="49.33917" lon="-0.71773">
        <ele>66.47</ele>
        <time>2021-07-29T20:17:55Z</time>
      </trkpt>
      <trkpt lat="49.3391" lon="-0.7199">
        <ele>67.91</ele>
        <time>2021-07-29T20:18:06Z</time>
      </trkpt>
      <trkpt lat="49.33907" lon="-0.72028">
        <ele>66.95</ele>
        <time>2021-07-29T20:18:08Z</time>
      </trkpt>
      <trkpt lat="49.33905" lon="-0.72044">
        <ele>66.47</ele>
        <time>2021-07-29T20:18:09Z</time>
      </trkpt>
      <trkpt lat="49.339" lon="-0.72052">
        <ele>66.47</ele>
        <time>2021-07-29T20:18:10Z</time>
      </trkpt>
      <trkpt lat="49.33895" lon="-0.72059">
        <ele>66.47</ele>
        <time>2021-07-29T20:18:11Z</time>
      </trkpt>
      <trkpt lat="49.33891" lon="-0.72063">
        <ele>66.47</ele>
        <time>2021-07-29T20:18:12Z</time>
      </trkpt>
      <trkpt lat="49.33885" lon="-0.72063">
        <ele>66.95</ele>
        <time>2021-07-29T20:18:13Z</time>
      </trkpt>
      <trkpt lat="49.33878" lon="-0.72063">
        <ele>66.95</ele>
        <time>2021-07-29T20:18:14Z</time>
      </trkpt>
      <trkpt lat="49.33845" lon="-0.72062">
        <ele>65.99</ele>
        <time>2021-07-29T20:18:18Z</time>
      </trkpt>
      <trkpt lat="49.33836" lon="-0.72062">
        <ele>65.99</ele>
        <time>2021-07-29T20:18:19Z</time>
      </trkpt>
      <trkpt lat="49.33825" lon="-0.72061">
        <ele>65.03</ele>
        <time>2021-07-29T20:18:20Z</time>
      </trkpt>
      <trkpt lat="49.33819" lon="-0.7207">
        <ele>64.55</ele>
        <time>2021-07-29T20:18:21Z</time>
      </trkpt>
      <trkpt lat="49.33813" lon="-0.72079">
        <ele>64.07</ele>
        <time>2021-07-29T20:18:22Z</time>
      </trkpt>
      <trkpt lat="49.33809" lon="-0.72093">
        <ele>64.07</ele>
        <time>2021-07-29T20:18:23Z</time>
      </trkpt>
      <trkpt lat="49.33805" lon="-0.72107">
        <ele>64.07</ele>
        <time>2021-07-29T20:18:24Z</time>
      </trkpt>
      <trkpt lat="49.33803" lon="-0.72124">
        <ele>63.58</ele>
        <time>2021-07-29T20:18:25Z</time>
      </trkpt>
      <trkpt lat="49.33779" lon="-0.72292">
        <ele>61.66</ele>
        <time>2021-07-29T20:18:33Z</time>
      </trkpt>
      <trkpt lat="49.33729" lon="-0.725">
        <ele>62.14</ele>
        <time>2021-07-29T20:18:41Z</time>
      </trkpt>
      <trkpt lat="49.33686" lon="-0.72705">
        <ele>62.62</ele>
        <time>2021-07-29T20:18:48Z</time>
      </trkpt>
      <trkpt lat="49.33672" lon="-0.73018">
        <ele>62.62</ele>
        <time>2021-07-29T20:18:59Z</time>
      </trkpt>
      <trkpt lat="49.33697" lon="-0.73275">
        <ele>59.26</ele>
        <time>2021-07-29T20:19:09Z</time>
      </trkpt>
      <trkpt lat="49.33717" lon="-0.73428">
        <ele>47.24</ele>
        <time>2021-07-29T20:19:19Z</time>
      </trkpt>
      <trkpt lat="49.33726" lon="-0.73477">
        <ele>44.36</ele>
        <time>2021-07-29T20:19:22Z</time>
      </trkpt>
      <trkpt lat="49.33726" lon="-0.73489">
        <ele>44.36</ele>
        <time>2021-07-29T20:19:23Z</time>
      </trkpt>
      <trkpt lat="49.33726" lon="-0.735">
        <ele>43.4</ele>
        <time>2021-07-29T20:19:24Z</time>
      </trkpt>
      <trkpt lat="49.33725" lon="-0.73511">
        <ele>42.92</ele>
        <time>2021-07-29T20:19:25Z</time>
      </trkpt>
      <trkpt lat="49.33722" lon="-0.73523">
        <ele>41.95</ele>
        <time>2021-07-29T20:19:26Z</time>
      </trkpt>
      <trkpt lat="49.33719" lon="-0.73536">
        <ele>41.47</ele>
        <time>2021-07-29T20:19:27Z</time>
      </trkpt>
      <trkpt lat="49.33714" lon="-0.73548">
        <ele>41.47</ele>
        <time>2021-07-29T20:19:28Z</time>
      </trkpt>
      <trkpt lat="49.33707" lon="-0.73559">
        <ele>41.47</ele>
        <time>2021-07-29T20:19:29Z</time>
      </trkpt>
      <trkpt lat="49.337" lon="-0.7357">
        <ele>40.99</ele>
        <time>2021-07-29T20:19:30Z</time>
      </trkpt>
      <trkpt lat="49.33649" lon="-0.73655">
        <ele>34.26</ele>
        <time>2021-07-29T20:19:37Z</time>
      </trkpt>
      <trkpt lat="49.33644" lon="-0.73667">
        <ele>33.3</ele>
        <time>2021-07-29T20:19:38Z</time>
      </trkpt>
      <trkpt lat="49.3364" lon="-0.73695">
        <ele>32.34</ele>
        <time>2021-07-29T20:19:39Z</time>
      </trkpt>
      <trkpt lat="49.3364" lon="-0.73695">
        <ele>31.38</ele>
        <time>2021-07-29T20:19:40Z</time>
      </trkpt>
      <trkpt lat="49.33639" lon="-0.7371">
        <ele>29.46</ele>
        <time>2021-07-29T20:19:41Z</time>
      </trkpt>
      <trkpt lat="49.33639" lon="-0.73722">
        <ele>28.02</ele>
        <time>2021-07-29T20:19:42Z</time>
      </trkpt>
      <trkpt lat="49.33642" lon="-0.73741">
        <ele>27.05</ele>
        <time>2021-07-29T20:19:43Z</time>
      </trkpt>
      <trkpt lat="49.33642" lon="-0.73741">
        <ele>26.57</ele>
        <time>2021-07-29T20:19:44Z</time>
      </trkpt>
      <trkpt lat="49.33653" lon="-0.7375">
        <ele>26.09</ele>
        <time>2021-07-29T20:19:45Z</time>
      </trkpt>
      <trkpt lat="49.33653" lon="-0.7375">
        <ele>25.13</ele>
        <time>2021-07-29T20:19:46Z</time>
      </trkpt>
      <trkpt lat="49.3366" lon="-0.7375">
        <ele>24.65</ele>
        <time>2021-07-29T20:19:47Z</time>
      </trkpt>
      <trkpt lat="49.33668" lon="-0.7375">
        <ele>23.69</ele>
        <time>2021-07-29T20:19:48Z</time>
      </trkpt>
      <trkpt lat="49.33676" lon="-0.73748">
        <ele>23.21</ele>
        <time>2021-07-29T20:19:49Z</time>
      </trkpt>
      <trkpt lat="49.33804" lon="-0.73697">
        <ele>15.04</ele>
        <time>2021-07-29T20:20:02Z</time>
      </trkpt>
      <trkpt lat="49.33813" lon="-0.73692">
        <ele>16</ele>
        <time>2021-07-29T20:20:03Z</time>
      </trkpt>
      <trkpt lat="49.33822" lon="-0.73688">
        <ele>15.52</ele>
        <time>2021-07-29T20:20:04Z</time>
      </trkpt>
      <trkpt lat="49.33852" lon="-0.7367">
        <ele>16</ele>
        <time>2021-07-29T20:20:08Z</time>
      </trkpt>
      <trkpt lat="49.33858" lon="-0.73669">
        <ele>15.52</ele>
        <time>2021-07-29T20:20:09Z</time>
      </trkpt>
      <trkpt lat="49.33864" lon="-0.7367">
        <ele>15.52</ele>
        <time>2021-07-29T20:20:10Z</time>
      </trkpt>
      <trkpt lat="49.33868" lon="-0.73671">
        <ele>15.04</ele>
        <time>2021-07-29T20:20:11Z</time>
      </trkpt>
      <trkpt lat="49.33873" lon="-0.73677">
        <ele>15.04</ele>
        <time>2021-07-29T20:20:12Z</time>
      </trkpt>
      <trkpt lat="49.33879" lon="-0.73682">
        <ele>15.04</ele>
        <time>2021-07-29T20:20:13Z</time>
      </trkpt>
      <trkpt lat="49.33885" lon="-0.73689">
        <ele>14.56</ele>
        <time>2021-07-29T20:20:14Z</time>
      </trkpt>
      <trkpt lat="49.33902" lon="-0.73706">
        <ele>14.08</ele>
        <time>2021-07-29T20:20:17Z</time>
      </trkpt>
      <trkpt lat="49.33907" lon="-0.73713">
        <ele>14.08</ele>
        <time>2021-07-29T20:20:18Z</time>
      </trkpt>
      <trkpt lat="49.33912" lon="-0.73723">
        <ele>14.08</ele>
        <time>2021-07-29T20:20:19Z</time>
      </trkpt>
      <trkpt lat="49.33917" lon="-0.73732">
        <ele>13.6</ele>
        <time>2021-07-29T20:20:20Z</time>
      </trkpt>
      <trkpt lat="49.33922" lon="-0.73742">
        <ele>13.12</ele>
        <time>2021-07-29T20:20:21Z</time>
      </trkpt>
      <trkpt lat="49.33976" lon="-0.7387">
        <ele>7.35</ele>
        <time>2021-07-29T20:20:30Z</time>
      </trkpt>
      <trkpt lat="49.34095" lon="-0.74148">
        <ele>2.06</ele>
        <time>2021-07-29T20:20:44Z</time>
      </trkpt>
      <trkpt lat="49.34117" lon="-0.74183">
        <ele>1.1</ele>
        <time>2021-07-29T20:20:46Z</time>
      </trkpt>
      <trkpt lat="49.34125" lon="-0.74199">
        <ele>-0.34</ele>
        <time>2021-07-29T20:20:47Z</time>
      </trkpt>
      <trkpt lat="49.34137" lon="-0.7424">
        <ele>-0.34</ele>
        <time>2021-07-29T20:20:48Z</time>
      </trkpt>
      <trkpt lat="49.34194" lon="-0.74483">
        <ele>-1.3</ele>
        <time>2021-07-29T20:21:01Z</time>
      </trkpt>
      <trkpt lat="49.3426" lon="-0.74765">
        <ele>-3.71</ele>
        <time>2021-07-29T20:21:18Z</time>
      </trkpt>
      <trkpt lat="49.34302" lon="-0.75044">
        <ele>-2.75</ele>
        <time>2021-07-29T20:21:35Z</time>
      </trkpt>
      <trkpt lat="49.34331" lon="-0.75215">
        <ele>-1.79</ele>
        <time>2021-07-29T20:21:48Z</time>
      </trkpt>
      <trkpt lat="49.34346" lon="-0.75258">
        <ele>-0.82</ele>
        <time>2021-07-29T20:21:53Z</time>
      </trkpt>
      <trkpt lat="49.34346" lon="-0.75261">
        <ele>-0.82</ele>
        <time>2021-07-29T20:21:54Z</time>
      </trkpt>
      <trkpt lat="49.34361" lon="-0.75385">
        <ele>2.54</ele>
        <time>2021-07-29T20:22:04Z</time>
      </trkpt>
      <trkpt lat="49.34368" lon="-0.75428">
        <ele>4.94</ele>
        <time>2021-07-29T20:22:07Z</time>
      </trkpt>
      <trkpt lat="49.34368" lon="-0.75439">
        <ele>5.42</ele>
        <time>2021-07-29T20:22:08Z</time>
      </trkpt>
      <trkpt lat="49.34368" lon="-0.75451">
        <ele>6.39</ele>
        <time>2021-07-29T20:22:09Z</time>
      </trkpt>
      <trkpt lat="49.34366" lon="-0.75519">
        <ele>7.35</ele>
        <time>2021-07-29T20:22:18Z</time>
      </trkpt>
      <trkpt lat="49.34366" lon="-0.75548">
        <ele>8.79</ele>
        <time>2021-07-29T20:22:33Z</time>
      </trkpt>
      <trkpt lat="49.34369" lon="-0.75653">
        <ele>11.19</ele>
        <time>2021-07-29T20:22:42Z</time>
      </trkpt>
      <trkpt lat="49.34395" lon="-0.75788">
        <ele>11.67</ele>
        <time>2021-07-29T20:22:51Z</time>
      </trkpt>
      <trkpt lat="49.344" lon="-0.75817">
        <ele>11.19</ele>
        <time>2021-07-29T20:22:57Z</time>
      </trkpt>
      <trkpt lat="49.34401" lon="-0.75848">
        <ele>11.67</ele>
        <time>2021-07-29T20:23:04Z</time>
      </trkpt>
      <trkpt lat="49.34402" lon="-0.75859">
        <ele>11.67</ele>
        <time>2021-07-29T20:23:06Z</time>
      </trkpt>
      <trkpt lat="49.34402" lon="-0.75864">
        <ele>12.15</ele>
        <time>2021-07-29T20:23:07Z</time>
      </trkpt>
      <trkpt lat="49.34408" lon="-0.75865">
        <ele>11.67</ele>
        <time>2021-07-29T20:23:08Z</time>
      </trkpt>
      <trkpt lat="49.34448" lon="-0.75884">
        <ele>9.75</ele>
        <time>2021-07-29T20:23:17Z</time>
      </trkpt>
      <trkpt lat="49.34453" lon="-0.75887">
        <ele>9.27</ele>
        <time>2021-07-29T20:23:18Z</time>
      </trkpt>
      <trkpt lat="49.34458" lon="-0.75887">
        <ele>9.27</ele>
        <time>2021-07-29T20:23:19Z</time>
      </trkpt>
      <trkpt lat="49.3447" lon="-0.75883">
        <ele>9.27</ele>
        <time>2021-07-29T20:23:20Z</time>
      </trkpt>
      <trkpt lat="49.34476" lon="-0.75879">
        <ele>9.27</ele>
        <time>2021-07-29T20:23:21Z</time>
      </trkpt>
      <trkpt lat="49.34476" lon="-0.75879">
        <ele>9.27</ele>
        <time>2021-07-29T20:23:22Z</time>
      </trkpt>
      <trkpt lat="49.34482" lon="-0.75874">
        <ele>9.27</ele>
        <time>2021-07-29T20:23:23Z</time>
      </trkpt>
      <trkpt lat="49.34535" lon="-0.75821">
        <ele>9.27</ele>
        <time>2021-07-29T20:23:35Z</time>
      </trkpt>
    </trkseg>
  </trk>
  <trk>
    <name><![CDATA[Journal actif: 2021-07-30 09:41]]></name>
    <trkseg>
      <trkpt lat="49.34591" lon="-0.75882">
        <ele>16</ele>
        <time>2021-07-30T11:41:09Z</time>
      </trkpt>
      <trkpt lat="49.34594" lon="-0.75885">
        <ele>16</ele>
        <time>2021-07-30T11:41:37Z</time>
      </trkpt>
      <trkpt lat="49.34603" lon="-0.7588">
        <ele>14.08</ele>
        <time>2021-07-30T11:41:47Z</time>
      </trkpt>
      <trkpt lat="49.34601" lon="-0.75881">
        <ele>14.56</ele>
        <time>2021-07-30T11:42:00Z</time>
      </trkpt>
      <trkpt lat="49.34599" lon="-0.75889">
        <ele>14.56</ele>
        <time>2021-07-30T11:42:09Z</time>
      </trkpt>
      <trkpt lat="49.34595" lon="-0.75894">
        <ele>14.08</ele>
        <time>2021-07-30T11:42:13Z</time>
      </trkpt>
      <trkpt lat="49.34587" lon="-0.75903">
        <ele>13.6</ele>
        <time>2021-07-30T11:42:20Z</time>
      </trkpt>
      <trkpt lat="49.34579" lon="-0.75897">
        <ele>13.12</ele>
        <time>2021-07-30T11:42:29Z</time>
      </trkpt>
      <trkpt lat="49.34572" lon="-0.75892">
        <ele>12.63</ele>
        <time>2021-07-30T11:42:45Z</time>
      </trkpt>
      <trkpt lat="49.34572" lon="-0.75893">
        <ele>12.15</ele>
        <time>2021-07-30T11:48:41Z</time>
      </trkpt>
      <trkpt lat="49.34572" lon="-0.75888">
        <ele>12.15</ele>
        <time>2021-07-30T11:52:39Z</time>
      </trkpt>
      <trkpt lat="49.3457" lon="-0.75881">
        <ele>12.15</ele>
        <time>2021-07-30T11:52:43Z</time>
      </trkpt>
      <trkpt lat="49.34567" lon="-0.75876">
        <ele>12.15</ele>
        <time>2021-07-30T11:53:01Z</time>
      </trkpt>
      <trkpt lat="49.34566" lon="-0.75873">
        <ele>12.15</ele>
        <time>2021-07-30T11:53:26Z</time>
      </trkpt>
      <trkpt lat="49.34561" lon="-0.75861">
        <ele>12.15</ele>
        <time>2021-07-30T11:53:57Z</time>
      </trkpt>
      <trkpt lat="49.34549" lon="-0.75831">
        <ele>12.15</ele>
        <time>2021-07-30T11:54:41Z</time>
      </trkpt>
      <trkpt lat="49.34541" lon="-0.7582">
        <ele>12.15</ele>
        <time>2021-07-30T11:54:47Z</time>
      </trkpt>
      <trkpt lat="49.34538" lon="-0.75818">
        <ele>12.15</ele>
        <time>2021-07-30T11:54:49Z</time>
      </trkpt>
      <trkpt lat="49.34536" lon="-0.7582">
        <ele>12.15</ele>
        <time>2021-07-30T11:54:50Z</time>
      </trkpt>
      <trkpt lat="49.34534" lon="-0.75822">
        <ele>12.15</ele>
        <time>2021-07-30T11:54:51Z</time>
      </trkpt>
      <trkpt lat="49.34531" lon="-0.75825">
        <ele>12.15</ele>
        <time>2021-07-30T11:54:52Z</time>
      </trkpt>
      <trkpt lat="49.34517" lon="-0.75839">
        <ele>12.63</ele>
        <time>2021-07-30T11:54:57Z</time>
      </trkpt>
      <trkpt lat="49.34513" lon="-0.75843">
        <ele>12.63</ele>
        <time>2021-07-30T11:54:58Z</time>
      </trkpt>
      <trkpt lat="49.34478" lon="-0.75878">
        <ele>14.08</ele>
        <time>2021-07-30T11:55:06Z</time>
      </trkpt>
      <trkpt lat="49.34473" lon="-0.75881">
        <ele>14.08</ele>
        <time>2021-07-30T11:55:07Z</time>
      </trkpt>
      <trkpt lat="49.34468" lon="-0.75884">
        <ele>14.56</ele>
        <time>2021-07-30T11:55:08Z</time>
      </trkpt>
      <trkpt lat="49.34464" lon="-0.75886">
        <ele>14.56</ele>
        <time>2021-07-30T11:55:09Z</time>
      </trkpt>
      <trkpt lat="49.34459" lon="-0.75887">
        <ele>14.56</ele>
        <time>2021-07-30T11:55:10Z</time>
      </trkpt>
      <trkpt lat="49.34453" lon="-0.75887">
        <ele>14.56</ele>
        <time>2021-07-30T11:55:11Z</time>
      </trkpt>
      <trkpt lat="49.34449" lon="-0.75884">
        <ele>15.04</ele>
        <time>2021-07-30T11:55:12Z</time>
      </trkpt>
      <trkpt lat="49.34444" lon="-0.75881">
        <ele>15.04</ele>
        <time>2021-07-30T11:55:13Z</time>
      </trkpt>
      <trkpt lat="49.3444" lon="-0.75879">
        <ele>15.04</ele>
        <time>2021-07-30T11:55:14Z</time>
      </trkpt>
      <trkpt lat="49.34438" lon="-0.75877">
        <ele>15.52</ele>
        <time>2021-07-30T11:55:20Z</time>
      </trkpt>
      <trkpt lat="49.34434" lon="-0.75875">
        <ele>15.52</ele>
        <time>2021-07-30T11:55:21Z</time>
      </trkpt>
      <trkpt lat="49.34434" lon="-0.75875">
        <ele>16</ele>
        <time>2021-07-30T11:55:22Z</time>
      </trkpt>
      <trkpt lat="49.34429" lon="-0.75871">
        <ele>16</ele>
        <time>2021-07-30T11:55:24Z</time>
      </trkpt>
      <trkpt lat="49.34426" lon="-0.75869">
        <ele>16.48</ele>
        <time>2021-07-30T11:55:25Z</time>
      </trkpt>
      <trkpt lat="49.34418" lon="-0.75867">
        <ele>16.48</ele>
        <time>2021-07-30T11:55:26Z</time>
      </trkpt>
      <trkpt lat="49.34418" lon="-0.75867">
        <ele>16.96</ele>
        <time>2021-07-30T11:55:27Z</time>
      </trkpt>
      <trkpt lat="49.34412" lon="-0.75866">
        <ele>16.96</ele>
        <time>2021-07-30T11:55:28Z</time>
      </trkpt>
      <trkpt lat="49.34408" lon="-0.75865">
        <ele>16.96</ele>
        <time>2021-07-30T11:55:36Z</time>
      </trkpt>
      <trkpt lat="49.34408" lon="-0.75865">
        <ele>17.44</ele>
        <time>2021-07-30T11:55:37Z</time>
      </trkpt>
      <trkpt lat="49.34405" lon="-0.75864">
        <ele>17.44</ele>
        <time>2021-07-30T11:55:38Z</time>
      </trkpt>
      <trkpt lat="49.34402" lon="-0.75857">
        <ele>17.44</ele>
        <time>2021-07-30T11:55:39Z</time>
      </trkpt>
      <trkpt lat="49.34402" lon="-0.75851">
        <ele>17.44</ele>
        <time>2021-07-30T11:55:40Z</time>
      </trkpt>
      <trkpt lat="49.34401" lon="-0.75845">
        <ele>17.92</ele>
        <time>2021-07-30T11:55:41Z</time>
      </trkpt>
      <trkpt lat="49.34388" lon="-0.75761">
        <ele>18.4</ele>
        <time>2021-07-30T11:55:52Z</time>
      </trkpt>
      <trkpt lat="49.34368" lon="-0.75626">
        <ele>17.92</ele>
        <time>2021-07-30T11:56:06Z</time>
      </trkpt>
      <trkpt lat="49.34366" lon="-0.75543">
        <ele>17.44</ele>
        <time>2021-07-30T11:56:17Z</time>
      </trkpt>
      <trkpt lat="49.34366" lon="-0.75416">
        <ele>15.52</ele>
        <time>2021-07-30T11:56:30Z</time>
      </trkpt>
      <trkpt lat="49.34347" lon="-0.75296">
        <ele>13.12</ele>
        <time>2021-07-30T11:56:44Z</time>
      </trkpt>
      <trkpt lat="49.34344" lon="-0.7528">
        <ele>12.63</ele>
        <time>2021-07-30T11:56:53Z</time>
      </trkpt>
      <trkpt lat="49.3433" lon="-0.75264">
        <ele>12.15</ele>
        <time>2021-07-30T11:57:08Z</time>
      </trkpt>
      <trkpt lat="49.34296" lon="-0.75268">
        <ele>11.19</ele>
        <time>2021-07-30T11:57:19Z</time>
      </trkpt>
      <trkpt lat="49.34249" lon="-0.75278">
        <ele>11.19</ele>
        <time>2021-07-30T11:57:29Z</time>
      </trkpt>
      <trkpt lat="49.34236" lon="-0.75239">
        <ele>10.71</ele>
        <time>2021-07-30T11:57:37Z</time>
      </trkpt>
      <trkpt lat="49.34234" lon="-0.75223">
        <ele>11.19</ele>
        <time>2021-07-30T11:57:49Z</time>
      </trkpt>
      <trkpt lat="49.34233" lon="-0.75203">
        <ele>11.19</ele>
        <time>2021-07-30T11:58:00Z</time>
      </trkpt>
    </trkseg>
  </trk>
  <trk>
    <name><![CDATA[Journal actif: 2021-07-30 09:59]]></name>
    <trkseg>
      <trkpt lat="49.34318" lon="-0.75265">
        <ele>11.67</ele>
        <time>2021-07-30T11:59:45Z</time>
      </trkpt>
      <trkpt lat="49.34332" lon="-0.75263">
        <ele>11.67</ele>
        <time>2021-07-30T12:00:01Z</time>
      </trkpt>
      <trkpt lat="49.34344" lon="-0.75252">
        <ele>12.15</ele>
        <time>2021-07-30T12:00:07Z</time>
      </trkpt>
      <trkpt lat="49.34345" lon="-0.75257">
        <ele>11.67</ele>
        <time>2021-07-30T12:00:08Z</time>
      </trkpt>
      <trkpt lat="49.34346" lon="-0.75261">
        <ele>11.67</ele>
        <time>2021-07-30T12:00:09Z</time>
      </trkpt>
      <trkpt lat="49.34346" lon="-0.75261">
        <ele>12.15</ele>
        <time>2021-07-30T12:00:10Z</time>
      </trkpt>
      <trkpt lat="49.34346" lon="-0.75261">
        <ele>12.15</ele>
        <time>2021-07-30T12:00:11Z</time>
      </trkpt>
      <trkpt lat="49.34344" lon="-0.75265">
        <ele>12.15</ele>
        <time>2021-07-30T12:00:12Z</time>
      </trkpt>
      <trkpt lat="49.34342" lon="-0.75268">
        <ele>12.15</ele>
        <time>2021-07-30T12:00:13Z</time>
      </trkpt>
      <trkpt lat="49.34342" lon="-0.75269">
        <ele>12.15</ele>
        <time>2021-07-30T12:00:14Z</time>
      </trkpt>
      <trkpt lat="49.34341" lon="-0.75269">
        <ele>12.15</ele>
        <time>2021-07-30T12:00:15Z</time>
      </trkpt>
      <trkpt lat="49.3434" lon="-0.75267">
        <ele>12.15</ele>
        <time>2021-07-30T12:00:16Z</time>
      </trkpt>
      <trkpt lat="49.34338" lon="-0.75266">
        <ele>12.15</ele>
        <time>2021-07-30T12:00:17Z</time>
      </trkpt>
      <trkpt lat="49.34337" lon="-0.75264">
        <ele>11.67</ele>
        <time>2021-07-30T12:00:18Z</time>
      </trkpt>
      <trkpt lat="49.34324" lon="-0.75264">
        <ele>11.19</ele>
        <time>2021-07-30T12:00:28Z</time>
      </trkpt>
      <trkpt lat="49.34247" lon="-0.75279">
        <ele>10.23</ele>
        <time>2021-07-30T12:00:38Z</time>
      </trkpt>
      <trkpt lat="49.34126" lon="-0.75321">
        <ele>6.87</ele>
        <time>2021-07-30T12:00:51Z</time>
      </trkpt>
      <trkpt lat="49.33999" lon="-0.75433">
        <ele>4.94</ele>
        <time>2021-07-30T12:01:03Z</time>
      </trkpt>
      <trkpt lat="49.33912" lon="-0.75564">
        <ele>8.31</ele>
        <time>2021-07-30T12:01:15Z</time>
      </trkpt>
      <trkpt lat="49.33894" lon="-0.75593">
        <ele>8.79</ele>
        <time>2021-07-30T12:01:19Z</time>
      </trkpt>
      <trkpt lat="49.33887" lon="-0.75605">
        <ele>8.79</ele>
        <time>2021-07-30T12:01:20Z</time>
      </trkpt>
      <trkpt lat="49.33887" lon="-0.75605">
        <ele>8.79</ele>
        <time>2021-07-30T12:01:21Z</time>
      </trkpt>
      <trkpt lat="49.33887" lon="-0.75624">
        <ele>8.79</ele>
        <time>2021-07-30T12:01:23Z</time>
      </trkpt>
      <trkpt lat="49.33886" lon="-0.75632">
        <ele>8.31</ele>
        <time>2021-07-30T12:01:24Z</time>
      </trkpt>
      <trkpt lat="49.33884" lon="-0.75638">
        <ele>8.79</ele>
        <time>2021-07-30T12:01:25Z</time>
      </trkpt>
      <trkpt lat="49.33881" lon="-0.75643">
        <ele>8.79</ele>
        <time>2021-07-30T12:01:26Z</time>
      </trkpt>
      <trkpt lat="49.33878" lon="-0.75649">
        <ele>8.31</ele>
        <time>2021-07-30T12:01:27Z</time>
      </trkpt>
      <trkpt lat="49.33872" lon="-0.75653">
        <ele>8.31</ele>
        <time>2021-07-30T12:01:28Z</time>
      </trkpt>
      <trkpt lat="49.33866" lon="-0.75652">
        <ele>8.31</ele>
        <time>2021-07-30T12:01:29Z</time>
      </trkpt>
      <trkpt lat="49.3386" lon="-0.75651">
        <ele>7.83</ele>
        <time>2021-07-30T12:01:30Z</time>
      </trkpt>
      <trkpt lat="49.33855" lon="-0.75644">
        <ele>7.83</ele>
        <time>2021-07-30T12:01:31Z</time>
      </trkpt>
      <trkpt lat="49.33846" lon="-0.75635">
        <ele>7.83</ele>
        <time>2021-07-30T12:01:32Z</time>
      </trkpt>
      <trkpt lat="49.33839" lon="-0.75636">
        <ele>7.83</ele>
        <time>2021-07-30T12:01:33Z</time>
      </trkpt>
      <trkpt lat="49.33832" lon="-0.75638">
        <ele>7.83</ele>
        <time>2021-07-30T12:01:34Z</time>
      </trkpt>
      <trkpt lat="49.33726" lon="-0.75657">
        <ele>5.42</ele>
        <time>2021-07-30T12:01:45Z</time>
      </trkpt>
      <trkpt lat="49.33528" lon="-0.75689">
        <ele>9.27</ele>
        <time>2021-07-30T12:02:01Z</time>
      </trkpt>
      <trkpt lat="49.33347" lon="-0.75719">
        <ele>11.19</ele>
        <time>2021-07-30T12:02:16Z</time>
      </trkpt>
      <trkpt lat="49.33202" lon="-0.75744">
        <ele>12.15</ele>
        <time>2021-07-30T12:02:30Z</time>
      </trkpt>
      <trkpt lat="49.33114" lon="-0.75759">
        <ele>4.46</ele>
        <time>2021-07-30T12:02:39Z</time>
      </trkpt>
      <trkpt lat="49.33074" lon="-0.75766">
        <ele>4.46</ele>
        <time>2021-07-30T12:02:47Z</time>
      </trkpt>
      <trkpt lat="49.33062" lon="-0.75767">
        <ele>5.91</ele>
        <time>2021-07-30T12:02:56Z</time>
      </trkpt>
      <trkpt lat="49.33062" lon="-0.75767">
        <ele>5.91</ele>
        <time>2021-07-30T12:03:00Z</time>
      </trkpt>
      <trkpt lat="49.33059" lon="-0.75768">
        <ele>5.91</ele>
        <time>2021-07-30T12:03:01Z</time>
      </trkpt>
      <trkpt lat="49.33058" lon="-0.75768">
        <ele>5.91</ele>
        <time>2021-07-30T12:03:02Z</time>
      </trkpt>
      <trkpt lat="49.33057" lon="-0.75762">
        <ele>6.39</ele>
        <time>2021-07-30T12:03:05Z</time>
      </trkpt>
      <trkpt lat="49.33058" lon="-0.75765">
        <ele>5.91</ele>
        <time>2021-07-30T12:03:08Z</time>
      </trkpt>
      <trkpt lat="49.3306" lon="-0.75768">
        <ele>5.42</ele>
        <time>2021-07-30T12:03:11Z</time>
      </trkpt>
      <trkpt lat="49.33063" lon="-0.75767">
        <ele>5.42</ele>
        <time>2021-07-30T12:03:12Z</time>
      </trkpt>
      <trkpt lat="49.33067" lon="-0.75767">
        <ele>5.42</ele>
        <time>2021-07-30T12:03:13Z</time>
      </trkpt>
      <trkpt lat="49.33072" lon="-0.75766">
        <ele>5.42</ele>
        <time>2021-07-30T12:03:14Z</time>
      </trkpt>
      <trkpt lat="49.33142" lon="-0.75754">
        <ele>5.42</ele>
        <time>2021-07-30T12:03:22Z</time>
      </trkpt>
      <trkpt lat="49.33332" lon="-0.75721">
        <ele>8.79</ele>
        <time>2021-07-30T12:03:38Z</time>
      </trkpt>
      <trkpt lat="49.33385" lon="-0.75713">
        <ele>13.12</ele>
        <time>2021-07-30T12:03:44Z</time>
      </trkpt>
      <trkpt lat="49.33396" lon="-0.75711">
        <ele>16.48</ele>
        <time>2021-07-30T12:03:53Z</time>
      </trkpt>
      <trkpt lat="49.33396" lon="-0.75711">
        <ele>18.88</ele>
        <time>2021-07-30T12:04:07Z</time>
      </trkpt>
      <trkpt lat="49.33393" lon="-0.75675">
        <ele>18.88</ele>
        <time>2021-07-30T12:04:10Z</time>
      </trkpt>
      <trkpt lat="49.33389" lon="-0.7567">
        <ele>18.88</ele>
        <time>2021-07-30T12:04:12Z</time>
      </trkpt>
      <trkpt lat="49.33394" lon="-0.7565">
        <ele>19.36</ele>
        <time>2021-07-30T12:04:20Z</time>
      </trkpt>
      <trkpt lat="49.33394" lon="-0.7565">
        <ele>18.88</ele>
        <time>2021-07-30T12:05:45Z</time>
      </trkpt>
      <trkpt lat="49.33395" lon="-0.75649">
        <ele>18.88</ele>
        <time>2021-07-30T12:07:52Z</time>
      </trkpt>
      <trkpt lat="49.33395" lon="-0.7565">
        <ele>18.88</ele>
        <time>2021-07-30T12:09:50Z</time>
      </trkpt>
      <trkpt lat="49.33395" lon="-0.7565">
        <ele>18.88</ele>
        <time>2021-07-30T12:11:57Z</time>
      </trkpt>
      <trkpt lat="49.33395" lon="-0.7565">
        <ele>18.88</ele>
        <time>2021-07-30T12:15:28Z</time>
      </trkpt>
      <trkpt lat="49.33396" lon="-0.75649">
        <ele>19.36</ele>
        <time>2021-07-30T12:20:11Z</time>
      </trkpt>
      <trkpt lat="49.33396" lon="-0.75649">
        <ele>19.36</ele>
        <time>2021-07-30T12:22:14Z</time>
      </trkpt>
      <trkpt lat="49.33395" lon="-0.75648">
        <ele>19.84</ele>
        <time>2021-07-30T12:25:39Z</time>
      </trkpt>
      <trkpt lat="49.33395" lon="-0.75649">
        <ele>19.84</ele>
        <time>2021-07-30T12:28:58Z</time>
      </trkpt>
      <trkpt lat="49.33395" lon="-0.75649">
        <ele>19.84</ele>
        <time>2021-07-30T12:31:10Z</time>
      </trkpt>
      <trkpt lat="49.33395" lon="-0.75649">
        <ele>19.84</ele>
        <time>2021-07-30T12:34:39Z</time>
      </trkpt>
      <trkpt lat="49.33395" lon="-0.75649">
        <ele>19.84</ele>
        <time>2021-07-30T12:38:14Z</time>
      </trkpt>
      <trkpt lat="49.33396" lon="-0.75649">
        <ele>19.84</ele>
        <time>2021-07-30T12:41:20Z</time>
      </trkpt>
      <trkpt lat="49.33396" lon="-0.75649">
        <ele>19.84</ele>
        <time>2021-07-30T12:43:39Z</time>
      </trkpt>
      <trkpt lat="49.33396" lon="-0.75649">
        <ele>19.84</ele>
        <time>2021-07-30T12:46:23Z</time>
      </trkpt>
      <trkpt lat="49.33396" lon="-0.75649">
        <ele>19.84</ele>
        <time>2021-07-30T12:49:58Z</time>
      </trkpt>
      <trkpt lat="49.33395" lon="-0.75648">
        <ele>20.32</ele>
        <time>2021-07-30T12:53:59Z</time>
      </trkpt>
      <trkpt lat="49.33395" lon="-0.75648">
        <ele>20.32</ele>
        <time>2021-07-30T12:56:48Z</time>
      </trkpt>
      <trkpt lat="49.33394" lon="-0.7565">
        <ele>20.32</ele>
        <time>2021-07-30T13:01:42Z</time>
      </trkpt>
      <trkpt lat="49.33394" lon="-0.7565">
        <ele>20.32</ele>
        <time>2021-07-30T13:05:40Z</time>
      </trkpt>
      <trkpt lat="49.33394" lon="-0.75649">
        <ele>20.32</ele>
        <time>2021-07-30T13:07:36Z</time>
      </trkpt>
      <trkpt lat="49.33395" lon="-0.75645">
        <ele>20.32</ele>
        <time>2021-07-30T13:07:43Z</time>
      </trkpt>
      <trkpt lat="49.33382" lon="-0.75636">
        <ele>19.84</ele>
        <time>2021-07-30T13:07:55Z</time>
      </trkpt>
      <trkpt lat="49.33384" lon="-0.75655">
        <ele>19.36</ele>
        <time>2021-07-30T13:08:00Z</time>
      </trkpt>
      <trkpt lat="49.33397" lon="-0.75698">
        <ele>18.88</ele>
        <time>2021-07-30T13:08:15Z</time>
      </trkpt>
      <trkpt lat="49.33397" lon="-0.75698">
        <ele>18.88</ele>
        <time>2021-07-30T13:08:25Z</time>
      </trkpt>
      <trkpt lat="49.33396" lon="-0.75711">
        <ele>18.88</ele>
        <time>2021-07-30T13:08:28Z</time>
      </trkpt>
      <trkpt lat="49.33394" lon="-0.75711">
        <ele>18.4</ele>
        <time>2021-07-30T13:08:29Z</time>
      </trkpt>
      <trkpt lat="49.33391" lon="-0.75712">
        <ele>18.4</ele>
        <time>2021-07-30T13:08:30Z</time>
      </trkpt>
      <trkpt lat="49.33387" lon="-0.75712">
        <ele>17.92</ele>
        <time>2021-07-30T13:08:31Z</time>
      </trkpt>
      <trkpt lat="49.33313" lon="-0.75725">
        <ele>14.08</ele>
        <time>2021-07-30T13:08:41Z</time>
      </trkpt>
      <trkpt lat="49.33174" lon="-0.75748">
        <ele>13.12</ele>
        <time>2021-07-30T13:08:54Z</time>
      </trkpt>
      <trkpt lat="49.32944" lon="-0.75784">
        <ele>6.87</ele>
        <time>2021-07-30T13:09:11Z</time>
      </trkpt>
      <trkpt lat="49.328" lon="-0.75778">
        <ele>16.48</ele>
        <time>2021-07-30T13:09:23Z</time>
      </trkpt>
      <trkpt lat="49.32701" lon="-0.75676">
        <ele>22.25</ele>
        <time>2021-07-30T13:09:32Z</time>
      </trkpt>
      <trkpt lat="49.32554" lon="-0.75487">
        <ele>23.21</ele>
        <time>2021-07-30T13:09:45Z</time>
      </trkpt>
      <trkpt lat="49.32309" lon="-0.75169">
        <ele>20.32</ele>
        <time>2021-07-30T13:10:06Z</time>
      </trkpt>
      <trkpt lat="49.32012" lon="-0.74785">
        <ele>19.36</ele>
        <time>2021-07-30T13:10:30Z</time>
      </trkpt>
      <trkpt lat="49.31897" lon="-0.74635">
        <ele>19.84</ele>
        <time>2021-07-30T13:10:41Z</time>
      </trkpt>
      <trkpt lat="49.31757" lon="-0.74456">
        <ele>21.29</ele>
        <time>2021-07-30T13:10:57Z</time>
      </trkpt>
      <trkpt lat="49.31634" lon="-0.74297">
        <ele>28.02</ele>
        <time>2021-07-30T13:11:11Z</time>
      </trkpt>
      <trkpt lat="49.31522" lon="-0.74194">
        <ele>29.46</ele>
        <time>2021-07-30T13:11:21Z</time>
      </trkpt>
      <trkpt lat="49.31333" lon="-0.7412">
        <ele>29.94</ele>
        <time>2021-07-30T13:11:34Z</time>
      </trkpt>
      <trkpt lat="49.31019" lon="-0.74001">
        <ele>31.86</ele>
        <time>2021-07-30T13:11:54Z</time>
      </trkpt>
      <trkpt lat="49.3071" lon="-0.73886">
        <ele>37.63</ele>
        <time>2021-07-30T13:12:13Z</time>
      </trkpt>
      <trkpt lat="49.30523" lon="-0.73784">
        <ele>35.71</ele>
        <time>2021-07-30T13:12:26Z</time>
      </trkpt>
      <trkpt lat="49.30353" lon="-0.73616">
        <ele>32.34</ele>
        <time>2021-07-30T13:12:37Z</time>
      </trkpt>
      <trkpt lat="49.30127" lon="-0.73385">
        <ele>35.23</ele>
        <time>2021-07-30T13:12:52Z</time>
      </trkpt>
      <trkpt lat="49.29836" lon="-0.73071">
        <ele>42.92</ele>
        <time>2021-07-30T13:13:13Z</time>
      </trkpt>
      <trkpt lat="49.29569" lon="-0.72758">
        <ele>45.8</ele>
        <time>2021-07-30T13:13:32Z</time>
      </trkpt>
      <trkpt lat="49.2928" lon="-0.7242">
        <ele>55.89</ele>
        <time>2021-07-30T13:13:52Z</time>
      </trkpt>
      <trkpt lat="49.29064" lon="-0.72169">
        <ele>55.41</ele>
        <time>2021-07-30T13:14:07Z</time>
      </trkpt>
      <trkpt lat="49.28989" lon="-0.72081">
        <ele>58.3</ele>
        <time>2021-07-30T13:14:14Z</time>
      </trkpt>
      <trkpt lat="49.28967" lon="-0.72055">
        <ele>58.78</ele>
        <time>2021-07-30T13:14:21Z</time>
      </trkpt>
      <trkpt lat="49.28949" lon="-0.72033">
        <ele>58.78</ele>
        <time>2021-07-30T13:15:01Z</time>
      </trkpt>
      <trkpt lat="49.28875" lon="-0.71947">
        <ele>57.82</ele>
        <time>2021-07-30T13:15:10Z</time>
      </trkpt>
      <trkpt lat="49.28711" lon="-0.7176">
        <ele>55.89</ele>
        <time>2021-07-30T13:15:26Z</time>
      </trkpt>
      <trkpt lat="49.28668" lon="-0.71708">
        <ele>56.86</ele>
        <time>2021-07-30T13:15:34Z</time>
      </trkpt>
      <trkpt lat="49.28594" lon="-0.71622">
        <ele>56.86</ele>
        <time>2021-07-30T13:15:46Z</time>
      </trkpt>
      <trkpt lat="49.28462" lon="-0.71467">
        <ele>55.89</ele>
        <time>2021-07-30T13:16:03Z</time>
      </trkpt>
      <trkpt lat="49.2833" lon="-0.71316">
        <ele>54.45</ele>
        <time>2021-07-30T13:16:19Z</time>
      </trkpt>
      <trkpt lat="49.28324" lon="-0.71309">
        <ele>54.45</ele>
        <time>2021-07-30T13:16:25Z</time>
      </trkpt>
      <trkpt lat="49.28311" lon="-0.71294">
        <ele>54.45</ele>
        <time>2021-07-30T13:17:32Z</time>
      </trkpt>
      <trkpt lat="49.28311" lon="-0.71282">
        <ele>54.45</ele>
        <time>2021-07-30T13:17:42Z</time>
      </trkpt>
      <trkpt lat="49.28311" lon="-0.71282">
        <ele>54.45</ele>
        <time>2021-07-30T13:17:43Z</time>
      </trkpt>
      <trkpt lat="49.28312" lon="-0.71277">
        <ele>54.45</ele>
        <time>2021-07-30T13:17:44Z</time>
      </trkpt>
      <trkpt lat="49.28337" lon="-0.71184">
        <ele>53.01</ele>
        <time>2021-07-30T13:17:55Z</time>
      </trkpt>
      <trkpt lat="49.28377" lon="-0.71011">
        <ele>50.61</ele>
        <time>2021-07-30T13:18:11Z</time>
      </trkpt>
      <trkpt lat="49.28382" lon="-0.70968">
        <ele>49.65</ele>
        <time>2021-07-30T13:18:18Z</time>
      </trkpt>
      <trkpt lat="49.28386" lon="-0.70935">
        <ele>49.65</ele>
        <time>2021-07-30T13:18:42Z</time>
      </trkpt>
      <trkpt lat="49.28382" lon="-0.70807">
        <ele>50.13</ele>
        <time>2021-07-30T13:18:53Z</time>
      </trkpt>
      <trkpt lat="49.28363" lon="-0.70584">
        <ele>50.61</ele>
        <time>2021-07-30T13:19:09Z</time>
      </trkpt>
      <trkpt lat="49.28374" lon="-0.70436">
        <ele>48.2</ele>
        <time>2021-07-30T13:19:20Z</time>
      </trkpt>
      <trkpt lat="49.28376" lon="-0.70423">
        <ele>47.72</ele>
        <time>2021-07-30T13:19:22Z</time>
      </trkpt>
      <trkpt lat="49.28376" lon="-0.70418">
        <ele>47.24</ele>
        <time>2021-07-30T13:19:23Z</time>
      </trkpt>
      <trkpt lat="49.28373" lon="-0.70407">
        <ele>47.24</ele>
        <time>2021-07-30T13:19:24Z</time>
      </trkpt>
      <trkpt lat="49.2837" lon="-0.70403">
        <ele>46.76</ele>
        <time>2021-07-30T13:19:25Z</time>
      </trkpt>
      <trkpt lat="49.28369" lon="-0.70396">
        <ele>46.76</ele>
        <time>2021-07-30T13:19:26Z</time>
      </trkpt>
      <trkpt lat="49.2837" lon="-0.70389">
        <ele>46.76</ele>
        <time>2021-07-30T13:19:27Z</time>
      </trkpt>
      <trkpt lat="49.28372" lon="-0.70382">
        <ele>46.76</ele>
        <time>2021-07-30T13:19:28Z</time>
      </trkpt>
      <trkpt lat="49.28376" lon="-0.7038">
        <ele>46.28</ele>
        <time>2021-07-30T13:19:29Z</time>
      </trkpt>
      <trkpt lat="49.2838" lon="-0.70379">
        <ele>46.28</ele>
        <time>2021-07-30T13:19:30Z</time>
      </trkpt>
      <trkpt lat="49.28384" lon="-0.70381">
        <ele>45.8</ele>
        <time>2021-07-30T13:19:31Z</time>
      </trkpt>
      <trkpt lat="49.28385" lon="-0.70381">
        <ele>45.8</ele>
        <time>2021-07-30T13:19:32Z</time>
      </trkpt>
      <trkpt lat="49.28385" lon="-0.70381">
        <ele>45.32</ele>
        <time>2021-07-30T13:19:33Z</time>
      </trkpt>
      <trkpt lat="49.28396" lon="-0.70397">
        <ele>44.84</ele>
        <time>2021-07-30T13:19:34Z</time>
      </trkpt>
      <trkpt lat="49.284" lon="-0.70396">
        <ele>44.84</ele>
        <time>2021-07-30T13:19:35Z</time>
      </trkpt>
      <trkpt lat="49.28404" lon="-0.70395">
        <ele>44.36</ele>
        <time>2021-07-30T13:19:36Z</time>
      </trkpt>
      <trkpt lat="49.28409" lon="-0.70394">
        <ele>44.36</ele>
        <time>2021-07-30T13:19:37Z</time>
      </trkpt>
      <trkpt lat="49.28488" lon="-0.70387">
        <ele>40.99</ele>
        <time>2021-07-30T13:19:47Z</time>
      </trkpt>
      <trkpt lat="49.28566" lon="-0.70382">
        <ele>41.47</ele>
        <time>2021-07-30T13:19:58Z</time>
      </trkpt>
      <trkpt lat="49.28571" lon="-0.70381">
        <ele>41.47</ele>
        <time>2021-07-30T13:19:59Z</time>
      </trkpt>
      <trkpt lat="49.28575" lon="-0.70381">
        <ele>41.95</ele>
        <time>2021-07-30T13:20:00Z</time>
      </trkpt>
      <trkpt lat="49.28581" lon="-0.70389">
        <ele>41.95</ele>
        <time>2021-07-30T13:20:01Z</time>
      </trkpt>
      <trkpt lat="49.28581" lon="-0.70389">
        <ele>41.95</ele>
        <time>2021-07-30T13:20:02Z</time>
      </trkpt>
      <trkpt lat="49.28581" lon="-0.70393">
        <ele>41.95</ele>
        <time>2021-07-30T13:20:03Z</time>
      </trkpt>
      <trkpt lat="49.28581" lon="-0.70397">
        <ele>42.44</ele>
        <time>2021-07-30T13:20:04Z</time>
      </trkpt>
      <trkpt lat="49.28581" lon="-0.70401">
        <ele>42.44</ele>
        <time>2021-07-30T13:20:05Z</time>
      </trkpt>
      <trkpt lat="49.28581" lon="-0.70406">
        <ele>42.44</ele>
        <time>2021-07-30T13:20:06Z</time>
      </trkpt>
      <trkpt lat="49.28561" lon="-0.70441">
        <ele>44.36</ele>
        <time>2021-07-30T13:20:17Z</time>
      </trkpt>
      <trkpt lat="49.28536" lon="-0.70462">
        <ele>44.84</ele>
        <time>2021-07-30T13:20:29Z</time>
      </trkpt>
      <trkpt lat="49.28513" lon="-0.70488">
        <ele>47.72</ele>
        <time>2021-07-30T13:20:42Z</time>
      </trkpt>
      <trkpt lat="49.28508" lon="-0.70493">
        <ele>47.24</ele>
        <time>2021-07-30T13:20:45Z</time>
      </trkpt>
      <trkpt lat="49.28507" lon="-0.70496">
        <ele>47.24</ele>
        <time>2021-07-30T13:20:46Z</time>
      </trkpt>
      <trkpt lat="49.28505" lon="-0.70498">
        <ele>46.76</ele>
        <time>2021-07-30T13:20:47Z</time>
      </trkpt>
      <trkpt lat="49.28503" lon="-0.705">
        <ele>46.76</ele>
        <time>2021-07-30T13:20:48Z</time>
      </trkpt>
      <trkpt lat="49.28502" lon="-0.70502">
        <ele>46.76</ele>
        <time>2021-07-30T13:20:49Z</time>
      </trkpt>
      <trkpt lat="49.28498" lon="-0.70506">
        <ele>46.28</ele>
        <time>2021-07-30T13:21:05Z</time>
      </trkpt>
      <trkpt lat="49.2849" lon="-0.70525">
        <ele>46.28</ele>
        <time>2021-07-30T13:21:20Z</time>
      </trkpt>
      <trkpt lat="49.2849" lon="-0.70525">
        <ele>46.28</ele>
        <time>2021-07-30T13:21:21Z</time>
      </trkpt>
      <trkpt lat="49.28494" lon="-0.70511">
        <ele>46.28</ele>
        <time>2021-07-30T13:21:22Z</time>
      </trkpt>
      <trkpt lat="49.28494" lon="-0.70511">
        <ele>46.28</ele>
        <time>2021-07-30T13:21:23Z</time>
      </trkpt>
      <trkpt lat="49.28491" lon="-0.70515">
        <ele>46.28</ele>
        <time>2021-07-30T13:21:24Z</time>
      </trkpt>
      <trkpt lat="49.2849" lon="-0.70517">
        <ele>46.28</ele>
        <time>2021-07-30T13:21:25Z</time>
      </trkpt>
      <trkpt lat="49.2849" lon="-0.70517">
        <ele>46.28</ele>
        <time>2021-07-30T13:21:26Z</time>
      </trkpt>
      <trkpt lat="49.28488" lon="-0.70519">
        <ele>46.28</ele>
        <time>2021-07-30T13:21:27Z</time>
      </trkpt>
      <trkpt lat="49.28488" lon="-0.70519">
        <ele>46.28</ele>
        <time>2021-07-30T13:21:29Z</time>
      </trkpt>
      <trkpt lat="49.28488" lon="-0.70519">
        <ele>46.76</ele>
        <time>2021-07-30T13:21:45Z</time>
      </trkpt>
      <trkpt lat="49.28497" lon="-0.70542">
        <ele>46.76</ele>
        <time>2021-07-30T13:22:05Z</time>
      </trkpt>
      <trkpt lat="49.28497" lon="-0.7056">
        <ele>45.8</ele>
        <time>2021-07-30T13:22:22Z</time>
      </trkpt>
      <trkpt lat="49.28498" lon="-0.70583">
        <ele>45.8</ele>
        <time>2021-07-30T13:22:36Z</time>
      </trkpt>
      <trkpt lat="49.28499" lon="-0.70591">
        <ele>45.8</ele>
        <time>2021-07-30T13:22:39Z</time>
      </trkpt>
      <trkpt lat="49.28499" lon="-0.70594">
        <ele>45.8</ele>
        <time>2021-07-30T13:22:40Z</time>
      </trkpt>
      <trkpt lat="49.28499" lon="-0.70594">
        <ele>45.8</ele>
        <time>2021-07-30T13:22:41Z</time>
      </trkpt>
      <trkpt lat="49.28497" lon="-0.70598">
        <ele>45.8</ele>
        <time>2021-07-30T13:22:42Z</time>
      </trkpt>
      <trkpt lat="49.28496" lon="-0.70598">
        <ele>46.28</ele>
        <time>2021-07-30T13:22:43Z</time>
      </trkpt>
      <trkpt lat="49.28481" lon="-0.706">
        <ele>46.28</ele>
        <time>2021-07-30T13:22:53Z</time>
      </trkpt>
      <trkpt lat="49.28481" lon="-0.706">
        <ele>46.76</ele>
        <time>2021-07-30T13:24:25Z</time>
      </trkpt>
    </trkseg>
  </trk>
  <trk>
    <name><![CDATA[Journal actif: 2021-07-30 12:32]]></name>
    <trkseg>
      <trkpt lat="49.28472" lon="-0.70581">
        <ele>53.97</ele>
        <time>2021-07-30T14:32:20Z</time>
      </trkpt>
      <trkpt lat="49.28479" lon="-0.70593">
        <ele>47.24</ele>
        <time>2021-07-30T14:33:38Z</time>
      </trkpt>
      <trkpt lat="49.2848" lon="-0.70595">
        <ele>47.24</ele>
        <time>2021-07-30T14:33:45Z</time>
      </trkpt>
      <trkpt lat="49.28476" lon="-0.70601">
        <ele>47.24</ele>
        <time>2021-07-30T14:33:49Z</time>
      </trkpt>
      <trkpt lat="49.28471" lon="-0.70601">
        <ele>47.24</ele>
        <time>2021-07-30T14:33:50Z</time>
      </trkpt>
      <trkpt lat="49.28428" lon="-0.70601">
        <ele>46.76</ele>
        <time>2021-07-30T14:34:04Z</time>
      </trkpt>
      <trkpt lat="49.28426" lon="-0.70556">
        <ele>45.8</ele>
        <time>2021-07-30T14:34:14Z</time>
      </trkpt>
      <trkpt lat="49.28426" lon="-0.7055">
        <ele>45.8</ele>
        <time>2021-07-30T14:34:15Z</time>
      </trkpt>
      <trkpt lat="49.28426" lon="-0.70543">
        <ele>45.8</ele>
        <time>2021-07-30T14:34:16Z</time>
      </trkpt>
      <trkpt lat="49.2843" lon="-0.70535">
        <ele>45.8</ele>
        <time>2021-07-30T14:34:17Z</time>
      </trkpt>
      <trkpt lat="49.2843" lon="-0.70535">
        <ele>45.8</ele>
        <time>2021-07-30T14:34:18Z</time>
      </trkpt>
      <trkpt lat="49.28434" lon="-0.70534">
        <ele>45.8</ele>
        <time>2021-07-30T14:34:19Z</time>
      </trkpt>
      <trkpt lat="49.28439" lon="-0.70532">
        <ele>45.8</ele>
        <time>2021-07-30T14:34:20Z</time>
      </trkpt>
      <trkpt lat="49.28471" lon="-0.70526">
        <ele>45.32</ele>
        <time>2021-07-30T14:34:26Z</time>
      </trkpt>
      <trkpt lat="49.28476" lon="-0.70526">
        <ele>45.32</ele>
        <time>2021-07-30T14:34:27Z</time>
      </trkpt>
      <trkpt lat="49.28481" lon="-0.70525">
        <ele>44.84</ele>
        <time>2021-07-30T14:34:28Z</time>
      </trkpt>
      <trkpt lat="49.28486" lon="-0.70521">
        <ele>44.84</ele>
        <time>2021-07-30T14:34:29Z</time>
      </trkpt>
      <trkpt lat="49.28489" lon="-0.70517">
        <ele>44.84</ele>
        <time>2021-07-30T14:34:30Z</time>
      </trkpt>
      <trkpt lat="49.28529" lon="-0.70467">
        <ele>44.36</ele>
        <time>2021-07-30T14:34:41Z</time>
      </trkpt>
      <trkpt lat="49.28539" lon="-0.70459">
        <ele>44.84</ele>
        <time>2021-07-30T14:34:51Z</time>
      </trkpt>
      <trkpt lat="49.28557" lon="-0.70446">
        <ele>44.36</ele>
        <time>2021-07-30T14:35:01Z</time>
      </trkpt>
      <trkpt lat="49.28557" lon="-0.70446">
        <ele>43.4</ele>
        <time>2021-07-30T14:35:16Z</time>
      </trkpt>
      <trkpt lat="49.28557" lon="-0.70446">
        <ele>43.4</ele>
        <time>2021-07-30T14:36:07Z</time>
      </trkpt>
      <trkpt lat="49.28557" lon="-0.70446">
        <ele>41.47</ele>
        <time>2021-07-30T14:37:47Z</time>
      </trkpt>
      <trkpt lat="49.28557" lon="-0.70446">
        <ele>40.99</ele>
        <time>2021-07-30T14:38:43Z</time>
      </trkpt>
      <trkpt lat="49.2853" lon="-0.70412">
        <ele>41.47</ele>
        <time>2021-07-30T14:38:56Z</time>
      </trkpt>
      <trkpt lat="49.28524" lon="-0.70407">
        <ele>40.99</ele>
        <time>2021-07-30T14:39:12Z</time>
      </trkpt>
      <trkpt lat="49.28521" lon="-0.704">
        <ele>40.99</ele>
        <time>2021-07-30T14:39:16Z</time>
      </trkpt>
      <trkpt lat="49.28511" lon="-0.70385">
        <ele>40.99</ele>
        <time>2021-07-30T14:39:28Z</time>
      </trkpt>
      <trkpt lat="49.28446" lon="-0.70391">
        <ele>41.47</ele>
        <time>2021-07-30T14:39:41Z</time>
      </trkpt>
      <trkpt lat="49.28392" lon="-0.70398">
        <ele>41.47</ele>
        <time>2021-07-30T14:39:56Z</time>
      </trkpt>
      <trkpt lat="49.28392" lon="-0.70398">
        <ele>41.47</ele>
        <time>2021-07-30T14:39:57Z</time>
      </trkpt>
      <trkpt lat="49.2839" lon="-0.70404">
        <ele>41.47</ele>
        <time>2021-07-30T14:39:58Z</time>
      </trkpt>
      <trkpt lat="49.28387" lon="-0.70409">
        <ele>41.95</ele>
        <time>2021-07-30T14:39:59Z</time>
      </trkpt>
      <trkpt lat="49.28385" lon="-0.70413">
        <ele>41.95</ele>
        <time>2021-07-30T14:40:00Z</time>
      </trkpt>
      <trkpt lat="49.28377" lon="-0.70416">
        <ele>42.44</ele>
        <time>2021-07-30T14:40:01Z</time>
      </trkpt>
      <trkpt lat="49.28376" lon="-0.70423">
        <ele>42.44</ele>
        <time>2021-07-30T14:40:02Z</time>
      </trkpt>
      <trkpt lat="49.28375" lon="-0.70431">
        <ele>42.44</ele>
        <time>2021-07-30T14:40:03Z</time>
      </trkpt>
      <trkpt lat="49.28373" lon="-0.7044">
        <ele>42.92</ele>
        <time>2021-07-30T14:40:04Z</time>
      </trkpt>
      <trkpt lat="49.28363" lon="-0.70581">
        <ele>44.84</ele>
        <time>2021-07-30T14:40:16Z</time>
      </trkpt>
      <trkpt lat="49.28376" lon="-0.70751">
        <ele>44.36</ele>
        <time>2021-07-30T14:40:28Z</time>
      </trkpt>
      <trkpt lat="49.28385" lon="-0.70863">
        <ele>46.28</ele>
        <time>2021-07-30T14:40:38Z</time>
      </trkpt>
      <trkpt lat="49.28385" lon="-0.7087">
        <ele>47.72</ele>
        <time>2021-07-30T14:40:48Z</time>
      </trkpt>
      <trkpt lat="49.28387" lon="-0.70903">
        <ele>47.72</ele>
        <time>2021-07-30T14:41:11Z</time>
      </trkpt>
      <trkpt lat="49.28375" lon="-0.71026">
        <ele>47.72</ele>
        <time>2021-07-30T14:41:21Z</time>
      </trkpt>
      <trkpt lat="49.28344" lon="-0.71155">
        <ele>49.65</ele>
        <time>2021-07-30T14:41:31Z</time>
      </trkpt>
      <trkpt lat="49.28325" lon="-0.71229">
        <ele>50.13</ele>
        <time>2021-07-30T14:41:43Z</time>
      </trkpt>
      <trkpt lat="49.28324" lon="-0.71232">
        <ele>50.61</ele>
        <time>2021-07-30T14:41:55Z</time>
      </trkpt>
      <trkpt lat="49.28315" lon="-0.71265">
        <ele>51.09</ele>
        <time>2021-07-30T14:42:40Z</time>
      </trkpt>
      <trkpt lat="49.28279" lon="-0.71397">
        <ele>52.53</ele>
        <time>2021-07-30T14:42:50Z</time>
      </trkpt>
      <trkpt lat="49.28254" lon="-0.71545">
        <ele>53.49</ele>
        <time>2021-07-30T14:43:00Z</time>
      </trkpt>
      <trkpt lat="49.28249" lon="-0.71808">
        <ele>54.45</ele>
        <time>2021-07-30T14:43:16Z</time>
      </trkpt>
      <trkpt lat="49.28249" lon="-0.71858">
        <ele>54.45</ele>
        <time>2021-07-30T14:43:20Z</time>
      </trkpt>
      <trkpt lat="49.28249" lon="-0.71867">
        <ele>53.97</ele>
        <time>2021-07-30T14:43:21Z</time>
      </trkpt>
      <trkpt lat="49.2825" lon="-0.71876">
        <ele>53.97</ele>
        <time>2021-07-30T14:43:22Z</time>
      </trkpt>
      <trkpt lat="49.2825" lon="-0.71885">
        <ele>53.97</ele>
        <time>2021-07-30T14:43:23Z</time>
      </trkpt>
      <trkpt lat="49.28257" lon="-0.71895">
        <ele>53.49</ele>
        <time>2021-07-30T14:43:24Z</time>
      </trkpt>
      <trkpt lat="49.28268" lon="-0.7191">
        <ele>53.01</ele>
        <time>2021-07-30T14:43:26Z</time>
      </trkpt>
      <trkpt lat="49.28271" lon="-0.71932">
        <ele>52.53</ele>
        <time>2021-07-30T14:43:27Z</time>
      </trkpt>
      <trkpt lat="49.28271" lon="-0.71932">
        <ele>52.53</ele>
        <time>2021-07-30T14:43:28Z</time>
      </trkpt>
      <trkpt lat="49.28269" lon="-0.71943">
        <ele>52.53</ele>
        <time>2021-07-30T14:43:29Z</time>
      </trkpt>
      <trkpt lat="49.28265" lon="-0.71951">
        <ele>52.53</ele>
        <time>2021-07-30T14:43:30Z</time>
      </trkpt>
      <trkpt lat="49.2826" lon="-0.7196">
        <ele>52.05</ele>
        <time>2021-07-30T14:43:31Z</time>
      </trkpt>
      <trkpt lat="49.28257" lon="-0.71967">
        <ele>52.05</ele>
        <time>2021-07-30T14:43:32Z</time>
      </trkpt>
      <trkpt lat="49.28243" lon="-0.71963">
        <ele>51.57</ele>
        <time>2021-07-30T14:43:33Z</time>
      </trkpt>
      <trkpt lat="49.28237" lon="-0.71961">
        <ele>51.57</ele>
        <time>2021-07-30T14:43:34Z</time>
      </trkpt>
      <trkpt lat="49.28237" lon="-0.71961">
        <ele>51.57</ele>
        <time>2021-07-30T14:43:35Z</time>
      </trkpt>
      <trkpt lat="49.28233" lon="-0.71957">
        <ele>51.57</ele>
        <time>2021-07-30T14:43:36Z</time>
      </trkpt>
      <trkpt lat="49.28228" lon="-0.71948">
        <ele>52.05</ele>
        <time>2021-07-30T14:43:37Z</time>
      </trkpt>
      <trkpt lat="49.28224" lon="-0.7194">
        <ele>52.05</ele>
        <time>2021-07-30T14:43:38Z</time>
      </trkpt>
      <trkpt lat="49.28204" lon="-0.71935">
        <ele>52.53</ele>
        <time>2021-07-30T14:43:39Z</time>
      </trkpt>
      <trkpt lat="49.28196" lon="-0.71936">
        <ele>53.01</ele>
        <time>2021-07-30T14:43:40Z</time>
      </trkpt>
      <trkpt lat="49.28196" lon="-0.71936">
        <ele>53.01</ele>
        <time>2021-07-30T14:43:41Z</time>
      </trkpt>
      <trkpt lat="49.28052" lon="-0.71943">
        <ele>55.89</ele>
        <time>2021-07-30T14:43:56Z</time>
      </trkpt>
      <trkpt lat="49.27985" lon="-0.71914">
        <ele>55.89</ele>
        <time>2021-07-30T14:44:04Z</time>
      </trkpt>
      <trkpt lat="49.27966" lon="-0.71904">
        <ele>54.45</ele>
        <time>2021-07-30T14:44:12Z</time>
      </trkpt>
      <trkpt lat="49.27966" lon="-0.71904">
        <ele>54.45</ele>
        <time>2021-07-30T14:44:13Z</time>
      </trkpt>
      <trkpt lat="49.27908" lon="-0.71869">
        <ele>54.45</ele>
        <time>2021-07-30T14:44:22Z</time>
      </trkpt>
      <trkpt lat="49.2787" lon="-0.71846">
        <ele>54.45</ele>
        <time>2021-07-30T14:44:27Z</time>
      </trkpt>
      <trkpt lat="49.27863" lon="-0.71842">
        <ele>55.41</ele>
        <time>2021-07-30T14:44:28Z</time>
      </trkpt>
      <trkpt lat="49.27853" lon="-0.71836">
        <ele>55.89</ele>
        <time>2021-07-30T14:44:30Z</time>
      </trkpt>
      <trkpt lat="49.27842" lon="-0.71847">
        <ele>55.89</ele>
        <time>2021-07-30T14:44:31Z</time>
      </trkpt>
      <trkpt lat="49.27836" lon="-0.71847">
        <ele>56.37</ele>
        <time>2021-07-30T14:44:32Z</time>
      </trkpt>
      <trkpt lat="49.27833" lon="-0.71835">
        <ele>56.37</ele>
        <time>2021-07-30T14:44:33Z</time>
      </trkpt>
      <trkpt lat="49.27824" lon="-0.71822">
        <ele>56.37</ele>
        <time>2021-07-30T14:44:34Z</time>
      </trkpt>
      <trkpt lat="49.27817" lon="-0.71818">
        <ele>56.86</ele>
        <time>2021-07-30T14:44:35Z</time>
      </trkpt>
      <trkpt lat="49.27809" lon="-0.71814">
        <ele>56.86</ele>
        <time>2021-07-30T14:44:36Z</time>
      </trkpt>
      <trkpt lat="49.278" lon="-0.71809">
        <ele>57.34</ele>
        <time>2021-07-30T14:44:37Z</time>
      </trkpt>
      <trkpt lat="49.27723" lon="-0.71764">
        <ele>57.82</ele>
        <time>2021-07-30T14:44:47Z</time>
      </trkpt>
      <trkpt lat="49.2772" lon="-0.71761">
        <ele>58.3</ele>
        <time>2021-07-30T14:44:48Z</time>
      </trkpt>
      <trkpt lat="49.27712" lon="-0.7177">
        <ele>58.3</ele>
        <time>2021-07-30T14:44:49Z</time>
      </trkpt>
      <trkpt lat="49.27706" lon="-0.7177">
        <ele>58.3</ele>
        <time>2021-07-30T14:44:50Z</time>
      </trkpt>
      <trkpt lat="49.27703" lon="-0.7177">
        <ele>58.3</ele>
        <time>2021-07-30T14:44:51Z</time>
      </trkpt>
      <trkpt lat="49.27698" lon="-0.71759">
        <ele>58.3</ele>
        <time>2021-07-30T14:44:52Z</time>
      </trkpt>
      <trkpt lat="49.27693" lon="-0.71749">
        <ele>58.3</ele>
        <time>2021-07-30T14:44:53Z</time>
      </trkpt>
      <trkpt lat="49.27679" lon="-0.7174">
        <ele>58.3</ele>
        <time>2021-07-30T14:44:54Z</time>
      </trkpt>
      <trkpt lat="49.27672" lon="-0.71735">
        <ele>58.3</ele>
        <time>2021-07-30T14:44:55Z</time>
      </trkpt>
      <trkpt lat="49.27598" lon="-0.7166">
        <ele>52.53</ele>
        <time>2021-07-30T14:45:06Z</time>
      </trkpt>
      <trkpt lat="49.27582" lon="-0.71638">
        <ele>52.53</ele>
        <time>2021-07-30T14:45:13Z</time>
      </trkpt>
      <trkpt lat="49.27568" lon="-0.71618">
        <ele>52.53</ele>
        <time>2021-07-30T14:45:46Z</time>
      </trkpt>
      <trkpt lat="49.27511" lon="-0.7153">
        <ele>53.49</ele>
        <time>2021-07-30T14:45:55Z</time>
      </trkpt>
      <trkpt lat="49.27418" lon="-0.71384">
        <ele>52.53</ele>
        <time>2021-07-30T14:46:08Z</time>
      </trkpt>
      <trkpt lat="49.27369" lon="-0.71306">
        <ele>52.53</ele>
        <time>2021-07-30T14:46:17Z</time>
      </trkpt>
      <trkpt lat="49.27365" lon="-0.713">
        <ele>53.01</ele>
        <time>2021-07-30T14:46:18Z</time>
      </trkpt>
      <trkpt lat="49.27362" lon="-0.71295">
        <ele>53.49</ele>
        <time>2021-07-30T14:46:19Z</time>
      </trkpt>
      <trkpt lat="49.27362" lon="-0.71295">
        <ele>53.49</ele>
        <time>2021-07-30T14:46:20Z</time>
      </trkpt>
      <trkpt lat="49.2735" lon="-0.71289">
        <ele>53.49</ele>
        <time>2021-07-30T14:46:21Z</time>
      </trkpt>
      <trkpt lat="49.2735" lon="-0.71282">
        <ele>53.49</ele>
        <time>2021-07-30T14:46:22Z</time>
      </trkpt>
      <trkpt lat="49.27343" lon="-0.71268">
        <ele>53.49</ele>
        <time>2021-07-30T14:46:24Z</time>
      </trkpt>
      <trkpt lat="49.27339" lon="-0.71262">
        <ele>53.49</ele>
        <time>2021-07-30T14:46:25Z</time>
      </trkpt>
      <trkpt lat="49.27332" lon="-0.7125">
        <ele>53.01</ele>
        <time>2021-07-30T14:46:27Z</time>
      </trkpt>
      <trkpt lat="49.27283" lon="-0.71174">
        <ele>49.16</ele>
        <time>2021-07-30T14:46:39Z</time>
      </trkpt>
      <trkpt lat="49.27202" lon="-0.71046">
        <ele>41.47</ele>
        <time>2021-07-30T14:46:51Z</time>
      </trkpt>
      <trkpt lat="49.27134" lon="-0.70932">
        <ele>39.07</ele>
        <time>2021-07-30T14:47:01Z</time>
      </trkpt>
      <trkpt lat="49.27126" lon="-0.70911">
        <ele>39.07</ele>
        <time>2021-07-30T14:47:07Z</time>
      </trkpt>
      <trkpt lat="49.27115" lon="-0.70885">
        <ele>38.59</ele>
        <time>2021-07-30T14:47:33Z</time>
      </trkpt>
      <trkpt lat="49.2709" lon="-0.70798">
        <ele>36.67</ele>
        <time>2021-07-30T14:47:41Z</time>
      </trkpt>
      <trkpt lat="49.27087" lon="-0.70787">
        <ele>36.67</ele>
        <time>2021-07-30T14:47:42Z</time>
      </trkpt>
      <trkpt lat="49.27083" lon="-0.70778">
        <ele>36.67</ele>
        <time>2021-07-30T14:47:43Z</time>
      </trkpt>
      <trkpt lat="49.27078" lon="-0.70769">
        <ele>36.67</ele>
        <time>2021-07-30T14:47:44Z</time>
      </trkpt>
      <trkpt lat="49.27074" lon="-0.7076">
        <ele>37.15</ele>
        <time>2021-07-30T14:47:45Z</time>
      </trkpt>
      <trkpt lat="49.27067" lon="-0.70753">
        <ele>37.63</ele>
        <time>2021-07-30T14:47:46Z</time>
      </trkpt>
      <trkpt lat="49.27059" lon="-0.70753">
        <ele>37.63</ele>
        <time>2021-07-30T14:47:47Z</time>
      </trkpt>
      <trkpt lat="49.27051" lon="-0.70757">
        <ele>37.63</ele>
        <time>2021-07-30T14:47:48Z</time>
      </trkpt>
      <trkpt lat="49.27044" lon="-0.70761">
        <ele>39.07</ele>
        <time>2021-07-30T14:47:49Z</time>
      </trkpt>
      <trkpt lat="49.26959" lon="-0.70806">
        <ele>45.32</ele>
        <time>2021-07-30T14:47:57Z</time>
      </trkpt>
      <trkpt lat="49.26806" lon="-0.70904">
        <ele>49.65</ele>
        <time>2021-07-30T14:48:08Z</time>
      </trkpt>
      <trkpt lat="49.26726" lon="-0.70954">
        <ele>52.05</ele>
        <time>2021-07-30T14:48:18Z</time>
      </trkpt>
      <trkpt lat="49.26629" lon="-0.71015">
        <ele>52.53</ele>
        <time>2021-07-30T14:48:28Z</time>
      </trkpt>
      <trkpt lat="49.265" lon="-0.71128">
        <ele>53.97</ele>
        <time>2021-07-30T14:48:38Z</time>
      </trkpt>
      <trkpt lat="49.26372" lon="-0.71313">
        <ele>57.34</ele>
        <time>2021-07-30T14:48:48Z</time>
      </trkpt>
      <trkpt lat="49.26158" lon="-0.71625">
        <ele>61.66</ele>
        <time>2021-07-30T14:49:03Z</time>
      </trkpt>
      <trkpt lat="49.26034" lon="-0.71755">
        <ele>63.1</ele>
        <time>2021-07-30T14:49:11Z</time>
      </trkpt>
      <trkpt lat="49.2587" lon="-0.71933">
        <ele>64.07</ele>
        <time>2021-07-30T14:49:26Z</time>
      </trkpt>
      <trkpt lat="49.25686" lon="-0.72166">
        <ele>66.95</ele>
        <time>2021-07-30T14:49:43Z</time>
      </trkpt>
      <trkpt lat="49.25622" lon="-0.72268">
        <ele>70.31</ele>
        <time>2021-07-30T14:49:50Z</time>
      </trkpt>
      <trkpt lat="49.25611" lon="-0.72292">
        <ele>71.27</ele>
        <time>2021-07-30T14:49:52Z</time>
      </trkpt>
      <trkpt lat="49.25607" lon="-0.72304">
        <ele>72.24</ele>
        <time>2021-07-30T14:49:53Z</time>
      </trkpt>
      <trkpt lat="49.25599" lon="-0.72309">
        <ele>72.24</ele>
        <time>2021-07-30T14:49:54Z</time>
      </trkpt>
      <trkpt lat="49.25592" lon="-0.72313">
        <ele>72.24</ele>
        <time>2021-07-30T14:49:55Z</time>
      </trkpt>
      <trkpt lat="49.25584" lon="-0.72312">
        <ele>72.72</ele>
        <time>2021-07-30T14:49:56Z</time>
      </trkpt>
      <trkpt lat="49.25577" lon="-0.72306">
        <ele>71.76</ele>
        <time>2021-07-30T14:49:57Z</time>
      </trkpt>
      <trkpt lat="49.25562" lon="-0.72298">
        <ele>69.35</ele>
        <time>2021-07-30T14:49:58Z</time>
      </trkpt>
      <trkpt lat="49.25553" lon="-0.72303">
        <ele>68.87</ele>
        <time>2021-07-30T14:49:59Z</time>
      </trkpt>
      <trkpt lat="49.25543" lon="-0.7231">
        <ele>68.39</ele>
        <time>2021-07-30T14:50:00Z</time>
      </trkpt>
      <trkpt lat="49.25533" lon="-0.72319">
        <ele>68.87</ele>
        <time>2021-07-30T14:50:01Z</time>
      </trkpt>
      <trkpt lat="49.25474" lon="-0.72365">
        <ele>70.31</ele>
        <time>2021-07-30T14:50:07Z</time>
      </trkpt>
      <trkpt lat="49.25466" lon="-0.7237">
        <ele>72.24</ele>
        <time>2021-07-30T14:50:08Z</time>
      </trkpt>
      <trkpt lat="49.25458" lon="-0.72376">
        <ele>73.68</ele>
        <time>2021-07-30T14:50:09Z</time>
      </trkpt>
      <trkpt lat="49.25455" lon="-0.72408">
        <ele>74.16</ele>
        <time>2021-07-30T14:50:11Z</time>
      </trkpt>
      <trkpt lat="49.25453" lon="-0.7242">
        <ele>74.16</ele>
        <time>2021-07-30T14:50:12Z</time>
      </trkpt>
      <trkpt lat="49.25443" lon="-0.72428">
        <ele>73.68</ele>
        <time>2021-07-30T14:50:13Z</time>
      </trkpt>
      <trkpt lat="49.25436" lon="-0.72433">
        <ele>73.2</ele>
        <time>2021-07-30T14:50:14Z</time>
      </trkpt>
      <trkpt lat="49.25429" lon="-0.72436">
        <ele>72.72</ele>
        <time>2021-07-30T14:50:15Z</time>
      </trkpt>
      <trkpt lat="49.25421" lon="-0.72434">
        <ele>72.24</ele>
        <time>2021-07-30T14:50:16Z</time>
      </trkpt>
      <trkpt lat="49.25411" lon="-0.72439">
        <ele>71.76</ele>
        <time>2021-07-30T14:50:17Z</time>
      </trkpt>
      <trkpt lat="49.25403" lon="-0.72446">
        <ele>73.2</ele>
        <time>2021-07-30T14:50:18Z</time>
      </trkpt>
      <trkpt lat="49.25394" lon="-0.72455">
        <ele>73.2</ele>
        <time>2021-07-30T14:50:19Z</time>
      </trkpt>
      <trkpt lat="49.25379" lon="-0.72487">
        <ele>73.68</ele>
        <time>2021-07-30T14:50:20Z</time>
      </trkpt>
      <trkpt lat="49.25322" lon="-0.72601">
        <ele>72.24</ele>
        <time>2021-07-30T14:50:27Z</time>
      </trkpt>
      <trkpt lat="49.25196" lon="-0.72773">
        <ele>76.08</ele>
        <time>2021-07-30T14:50:36Z</time>
      </trkpt>
      <trkpt lat="49.25051" lon="-0.73037">
        <ele>76.08</ele>
        <time>2021-07-30T14:50:47Z</time>
      </trkpt>
      <trkpt lat="49.2497" lon="-0.73193">
        <ele>75.12</ele>
        <time>2021-07-30T14:50:54Z</time>
      </trkpt>
      <trkpt lat="49.24964" lon="-0.73203">
        <ele>75.12</ele>
        <time>2021-07-30T14:50:55Z</time>
      </trkpt>
      <trkpt lat="49.24969" lon="-0.73233">
        <ele>75.6</ele>
        <time>2021-07-30T14:50:56Z</time>
      </trkpt>
      <trkpt lat="49.24967" lon="-0.73237">
        <ele>76.56</ele>
        <time>2021-07-30T14:50:58Z</time>
      </trkpt>
      <trkpt lat="49.24963" lon="-0.73247">
        <ele>76.08</ele>
        <time>2021-07-30T14:50:59Z</time>
      </trkpt>
      <trkpt lat="49.2496" lon="-0.73256">
        <ele>76.08</ele>
        <time>2021-07-30T14:51:00Z</time>
      </trkpt>
      <trkpt lat="49.2495" lon="-0.73259">
        <ele>76.08</ele>
        <time>2021-07-30T14:51:01Z</time>
      </trkpt>
      <trkpt lat="49.24943" lon="-0.73259">
        <ele>76.08</ele>
        <time>2021-07-30T14:51:02Z</time>
      </trkpt>
      <trkpt lat="49.24934" lon="-0.73265">
        <ele>75.6</ele>
        <time>2021-07-30T14:51:03Z</time>
      </trkpt>
      <trkpt lat="49.24926" lon="-0.73271">
        <ele>75.12</ele>
        <time>2021-07-30T14:51:04Z</time>
      </trkpt>
      <trkpt lat="49.24917" lon="-0.73279">
        <ele>75.6</ele>
        <time>2021-07-30T14:51:05Z</time>
      </trkpt>
      <trkpt lat="49.24909" lon="-0.7329">
        <ele>76.56</ele>
        <time>2021-07-30T14:51:06Z</time>
      </trkpt>
      <trkpt lat="49.2482" lon="-0.73419">
        <ele>77.52</ele>
        <time>2021-07-30T14:51:14Z</time>
      </trkpt>
      <trkpt lat="49.24688" lon="-0.73631">
        <ele>78</ele>
        <time>2021-07-30T14:51:24Z</time>
      </trkpt>
      <trkpt lat="49.24551" lon="-0.73766">
        <ele>77.04</ele>
        <time>2021-07-30T14:51:32Z</time>
      </trkpt>
      <trkpt lat="49.24308" lon="-0.73908">
        <ele>68.87</ele>
        <time>2021-07-30T14:51:44Z</time>
      </trkpt>
      <trkpt lat="49.24178" lon="-0.74047">
        <ele>62.62</ele>
        <time>2021-07-30T14:51:51Z</time>
      </trkpt>
      <trkpt lat="49.2409" lon="-0.74235">
        <ele>57.82</ele>
        <time>2021-07-30T14:51:58Z</time>
      </trkpt>
      <trkpt lat="49.23991" lon="-0.74639">
        <ele>48.2</ele>
        <time>2021-07-30T14:52:10Z</time>
      </trkpt>
      <trkpt lat="49.23855" lon="-0.75215">
        <ele>40.03</ele>
        <time>2021-07-30T14:52:30Z</time>
      </trkpt>
      <trkpt lat="49.23774" lon="-0.75724">
        <ele>36.67</ele>
        <time>2021-07-30T14:52:45Z</time>
      </trkpt>
      <trkpt lat="49.23701" lon="-0.76071">
        <ele>37.15</ele>
        <time>2021-07-30T14:52:57Z</time>
      </trkpt>
      <trkpt lat="49.23587" lon="-0.76348">
        <ele>41.95</ele>
        <time>2021-07-30T14:53:07Z</time>
      </trkpt>
      <trkpt lat="49.23456" lon="-0.76548">
        <ele>43.4</ele>
        <time>2021-07-30T14:53:16Z</time>
      </trkpt>
      <trkpt lat="49.23349" lon="-0.76677">
        <ele>39.07</ele>
        <time>2021-07-30T14:53:24Z</time>
      </trkpt>
      <trkpt lat="49.23336" lon="-0.76702">
        <ele>39.07</ele>
        <time>2021-07-30T14:53:26Z</time>
      </trkpt>
      <trkpt lat="49.23332" lon="-0.76712">
        <ele>39.55</ele>
        <time>2021-07-30T14:53:27Z</time>
      </trkpt>
      <trkpt lat="49.23328" lon="-0.7672">
        <ele>39.55</ele>
        <time>2021-07-30T14:53:28Z</time>
      </trkpt>
      <trkpt lat="49.23326" lon="-0.76731">
        <ele>39.55</ele>
        <time>2021-07-30T14:53:29Z</time>
      </trkpt>
      <trkpt lat="49.2332" lon="-0.76744">
        <ele>39.55</ele>
        <time>2021-07-30T14:53:30Z</time>
      </trkpt>
      <trkpt lat="49.23315" lon="-0.76752">
        <ele>39.55</ele>
        <time>2021-07-30T14:53:31Z</time>
      </trkpt>
      <trkpt lat="49.23307" lon="-0.76755">
        <ele>39.55</ele>
        <time>2021-07-30T14:53:32Z</time>
      </trkpt>
      <trkpt lat="49.23304" lon="-0.76756">
        <ele>39.55</ele>
        <time>2021-07-30T14:53:33Z</time>
      </trkpt>
      <trkpt lat="49.23286" lon="-0.76754">
        <ele>40.03</ele>
        <time>2021-07-30T14:53:34Z</time>
      </trkpt>
      <trkpt lat="49.23279" lon="-0.76762">
        <ele>39.07</ele>
        <time>2021-07-30T14:53:35Z</time>
      </trkpt>
      <trkpt lat="49.2327" lon="-0.76772">
        <ele>38.11</ele>
        <time>2021-07-30T14:53:36Z</time>
      </trkpt>
      <trkpt lat="49.23179" lon="-0.76875">
        <ele>37.63</ele>
        <time>2021-07-30T14:53:44Z</time>
      </trkpt>
      <trkpt lat="49.23035" lon="-0.77043">
        <ele>40.03</ele>
        <time>2021-07-30T14:53:55Z</time>
      </trkpt>
      <trkpt lat="49.2287" lon="-0.77233">
        <ele>44.36</ele>
        <time>2021-07-30T14:54:11Z</time>
      </trkpt>
      <trkpt lat="49.22694" lon="-0.77451">
        <ele>52.05</ele>
        <time>2021-07-30T14:54:30Z</time>
      </trkpt>
      <trkpt lat="49.22688" lon="-0.77463">
        <ele>53.01</ele>
        <time>2021-07-30T14:54:31Z</time>
      </trkpt>
      <trkpt lat="49.22683" lon="-0.77477">
        <ele>54.45</ele>
        <time>2021-07-30T14:54:32Z</time>
      </trkpt>
      <trkpt lat="49.2262" lon="-0.77643">
        <ele>56.86</ele>
        <time>2021-07-30T14:54:43Z</time>
      </trkpt>
      <trkpt lat="49.22495" lon="-0.77883">
        <ele>57.34</ele>
        <time>2021-07-30T14:54:59Z</time>
      </trkpt>
      <trkpt lat="49.22262" lon="-0.78342">
        <ele>62.14</ele>
        <time>2021-07-30T14:55:29Z</time>
      </trkpt>
      <trkpt lat="49.22105" lon="-0.78655">
        <ele>66.95</ele>
        <time>2021-07-30T14:55:50Z</time>
      </trkpt>
      <trkpt lat="49.21959" lon="-0.78944">
        <ele>70.31</ele>
        <time>2021-07-30T14:56:10Z</time>
      </trkpt>
      <trkpt lat="49.21842" lon="-0.79174">
        <ele>75.6</ele>
        <time>2021-07-30T14:56:25Z</time>
      </trkpt>
      <trkpt lat="49.21704" lon="-0.79447">
        <ele>82.33</ele>
        <time>2021-07-30T14:56:43Z</time>
      </trkpt>
      <trkpt lat="49.21634" lon="-0.79595">
        <ele>85.69</ele>
        <time>2021-07-30T14:56:51Z</time>
      </trkpt>
      <trkpt lat="49.21569" lon="-0.79871">
        <ele>95.31</ele>
        <time>2021-07-30T14:57:03Z</time>
      </trkpt>
      <trkpt lat="49.21505" lon="-0.80149">
        <ele>95.31</ele>
        <time>2021-07-30T14:57:13Z</time>
      </trkpt>
      <trkpt lat="49.21399" lon="-0.80617">
        <ele>95.31</ele>
        <time>2021-07-30T14:57:28Z</time>
      </trkpt>
      <trkpt lat="49.21342" lon="-0.80884">
        <ele>102.04</ele>
        <time>2021-07-30T14:57:40Z</time>
      </trkpt>
      <trkpt lat="49.21261" lon="-0.81237">
        <ele>108.77</ele>
        <time>2021-07-30T14:57:54Z</time>
      </trkpt>
      <trkpt lat="49.21175" lon="-0.81612">
        <ele>108.77</ele>
        <time>2021-07-30T14:58:07Z</time>
      </trkpt>
      <trkpt lat="49.21072" lon="-0.82024">
        <ele>109.25</ele>
        <time>2021-07-30T14:58:21Z</time>
      </trkpt>
      <trkpt lat="49.20935" lon="-0.82552">
        <ele>115.5</ele>
        <time>2021-07-30T14:58:40Z</time>
      </trkpt>
      <trkpt lat="49.20809" lon="-0.83046">
        <ele>117.9</ele>
        <time>2021-07-30T14:58:57Z</time>
      </trkpt>
      <trkpt lat="49.2078" lon="-0.8316">
        <ele>112.61</ele>
        <time>2021-07-30T14:59:03Z</time>
      </trkpt>
      <trkpt lat="49.20732" lon="-0.83374">
        <ele>114.53</ele>
        <time>2021-07-30T14:59:15Z</time>
      </trkpt>
      <trkpt lat="49.20658" lon="-0.83717">
        <ele>118.38</ele>
        <time>2021-07-30T14:59:36Z</time>
      </trkpt>
      <trkpt lat="49.20599" lon="-0.83946">
        <ele>111.17</ele>
        <time>2021-07-30T14:59:50Z</time>
      </trkpt>
      <trkpt lat="49.20592" lon="-0.83959">
        <ele>110.21</ele>
        <time>2021-07-30T14:59:51Z</time>
      </trkpt>
      <trkpt lat="49.20496" lon="-0.84104">
        <ele>110.69</ele>
        <time>2021-07-30T15:00:02Z</time>
      </trkpt>
      <trkpt lat="49.20373" lon="-0.84314">
        <ele>116.46</ele>
        <time>2021-07-30T15:00:14Z</time>
      </trkpt>
      <trkpt lat="49.20184" lon="-0.84699">
        <ele>121.74</ele>
        <time>2021-07-30T15:00:32Z</time>
      </trkpt>
      <trkpt lat="49.20012" lon="-0.85053">
        <ele>114.05</ele>
        <time>2021-07-30T15:00:46Z</time>
      </trkpt>
      <trkpt lat="49.19818" lon="-0.85461">
        <ele>119.34</ele>
        <time>2021-07-30T15:01:03Z</time>
      </trkpt>
      <trkpt lat="49.19606" lon="-0.859">
        <ele>123.67</ele>
        <time>2021-07-30T15:01:20Z</time>
      </trkpt>
      <trkpt lat="49.19427" lon="-0.86277">
        <ele>129.43</ele>
        <time>2021-07-30T15:01:35Z</time>
      </trkpt>
      <trkpt lat="49.19378" lon="-0.86384">
        <ele>129.43</ele>
        <time>2021-07-30T15:01:42Z</time>
      </trkpt>
      <trkpt lat="49.19374" lon="-0.86404">
        <ele>130.4</ele>
        <time>2021-07-30T15:01:43Z</time>
      </trkpt>
      <trkpt lat="49.19373" lon="-0.86412">
        <ele>130.88</ele>
        <time>2021-07-30T15:01:44Z</time>
      </trkpt>
      <trkpt lat="49.19375" lon="-0.86422">
        <ele>131.36</ele>
        <time>2021-07-30T15:01:45Z</time>
      </trkpt>
      <trkpt lat="49.19376" lon="-0.86433">
        <ele>132.32</ele>
        <time>2021-07-30T15:01:47Z</time>
      </trkpt>
      <trkpt lat="49.19377" lon="-0.86447">
        <ele>132.8</ele>
        <time>2021-07-30T15:01:48Z</time>
      </trkpt>
      <trkpt lat="49.19375" lon="-0.86457">
        <ele>132.8</ele>
        <time>2021-07-30T15:01:49Z</time>
      </trkpt>
      <trkpt lat="49.19373" lon="-0.86467">
        <ele>132.8</ele>
        <time>2021-07-30T15:01:50Z</time>
      </trkpt>
      <trkpt lat="49.19365" lon="-0.86476">
        <ele>132.8</ele>
        <time>2021-07-30T15:01:51Z</time>
      </trkpt>
      <trkpt lat="49.1936" lon="-0.86481">
        <ele>133.28</ele>
        <time>2021-07-30T15:01:52Z</time>
      </trkpt>
      <trkpt lat="49.19345" lon="-0.86482">
        <ele>133.28</ele>
        <time>2021-07-30T15:01:53Z</time>
      </trkpt>
      <trkpt lat="49.19331" lon="-0.86481">
        <ele>133.28</ele>
        <time>2021-07-30T15:01:54Z</time>
      </trkpt>
      <trkpt lat="49.19326" lon="-0.8649">
        <ele>133.28</ele>
        <time>2021-07-30T15:01:55Z</time>
      </trkpt>
      <trkpt lat="49.19326" lon="-0.8649">
        <ele>131.36</ele>
        <time>2021-07-30T15:01:56Z</time>
      </trkpt>
      <trkpt lat="49.19314" lon="-0.8651">
        <ele>131.36</ele>
        <time>2021-07-30T15:01:57Z</time>
      </trkpt>
      <trkpt lat="49.19314" lon="-0.8651">
        <ele>131.36</ele>
        <time>2021-07-30T15:01:58Z</time>
      </trkpt>
      <trkpt lat="49.19243" lon="-0.86658">
        <ele>132.32</ele>
        <time>2021-07-30T15:02:07Z</time>
      </trkpt>
      <trkpt lat="49.19131" lon="-0.8689">
        <ele>130.88</ele>
        <time>2021-07-30T15:02:18Z</time>
      </trkpt>
      <trkpt lat="49.18983" lon="-0.87196">
        <ele>128.95</ele>
        <time>2021-07-30T15:02:30Z</time>
      </trkpt>
      <trkpt lat="49.18786" lon="-0.87602">
        <ele>129.43</ele>
        <time>2021-07-30T15:02:46Z</time>
      </trkpt>
      <trkpt lat="49.18463" lon="-0.88272">
        <ele>127.03</ele>
        <time>2021-07-30T15:03:10Z</time>
      </trkpt>
      <trkpt lat="49.18207" lon="-0.88802">
        <ele>123.19</ele>
        <time>2021-07-30T15:03:28Z</time>
      </trkpt>
      <trkpt lat="49.18015" lon="-0.89202">
        <ele>123.67</ele>
        <time>2021-07-30T15:03:42Z</time>
      </trkpt>
      <trkpt lat="49.1779" lon="-0.89639">
        <ele>129.43</ele>
        <time>2021-07-30T15:03:59Z</time>
      </trkpt>
      <trkpt lat="49.1756" lon="-0.90043">
        <ele>129.43</ele>
        <time>2021-07-30T15:04:17Z</time>
      </trkpt>
      <trkpt lat="49.17381" lon="-0.90356">
        <ele>131.84</ele>
        <time>2021-07-30T15:04:31Z</time>
      </trkpt>
      <trkpt lat="49.17119" lon="-0.90816">
        <ele>134.24</ele>
        <time>2021-07-30T15:04:51Z</time>
      </trkpt>
      <trkpt lat="49.16987" lon="-0.91048">
        <ele>131.36</ele>
        <time>2021-07-30T15:05:02Z</time>
      </trkpt>
      <trkpt lat="49.16807" lon="-0.91365">
        <ele>130.88</ele>
        <time>2021-07-30T15:05:17Z</time>
      </trkpt>
      <trkpt lat="49.16609" lon="-0.91713">
        <ele>128.47</ele>
        <time>2021-07-30T15:05:32Z</time>
      </trkpt>
      <trkpt lat="49.16539" lon="-0.91833">
        <ele>126.55</ele>
        <time>2021-07-30T15:05:39Z</time>
      </trkpt>
      <trkpt lat="49.16531" lon="-0.91848">
        <ele>124.15</ele>
        <time>2021-07-30T15:05:41Z</time>
      </trkpt>
      <trkpt lat="49.16528" lon="-0.91853">
        <ele>123.19</ele>
        <time>2021-07-30T15:05:42Z</time>
      </trkpt>
      <trkpt lat="49.16526" lon="-0.91857">
        <ele>122.22</ele>
        <time>2021-07-30T15:05:43Z</time>
      </trkpt>
      <trkpt lat="49.16524" lon="-0.91859">
        <ele>118.86</ele>
        <time>2021-07-30T15:05:56Z</time>
      </trkpt>
      <trkpt lat="49.16524" lon="-0.91859">
        <ele>119.34</ele>
        <time>2021-07-30T15:11:03Z</time>
      </trkpt>
      <trkpt lat="49.16524" lon="-0.91859">
        <ele>119.82</ele>
        <time>2021-07-30T15:12:02Z</time>
      </trkpt>
      <trkpt lat="49.16524" lon="-0.91859">
        <ele>119.82</ele>
        <time>2021-07-30T15:13:20Z</time>
      </trkpt>
      <trkpt lat="49.16524" lon="-0.91859">
        <ele>119.82</ele>
        <time>2021-07-30T15:14:17Z</time>
      </trkpt>
      <trkpt lat="49.16524" lon="-0.91859">
        <ele>119.82</ele>
        <time>2021-07-30T15:15:29Z</time>
      </trkpt>
      <trkpt lat="49.16524" lon="-0.91859">
        <ele>119.82</ele>
        <time>2021-07-30T15:16:48Z</time>
      </trkpt>
      <trkpt lat="49.16524" lon="-0.91859">
        <ele>119.82</ele>
        <time>2021-07-30T15:19:01Z</time>
      </trkpt>
      <trkpt lat="49.16524" lon="-0.91859">
        <ele>119.82</ele>
        <time>2021-07-30T15:21:06Z</time>
      </trkpt>
      <trkpt lat="49.16524" lon="-0.91859">
        <ele>119.82</ele>
        <time>2021-07-30T15:22:25Z</time>
      </trkpt>
      <trkpt lat="49.16524" lon="-0.91859">
        <ele>119.82</ele>
        <time>2021-07-30T15:23:52Z</time>
      </trkpt>
      <trkpt lat="49.16524" lon="-0.91859">
        <ele>120.3</ele>
        <time>2021-07-30T15:25:09Z</time>
      </trkpt>
      <trkpt lat="49.16524" lon="-0.91859">
        <ele>119.82</ele>
        <time>2021-07-30T15:26:47Z</time>
      </trkpt>
      <trkpt lat="49.16524" lon="-0.91859">
        <ele>120.3</ele>
        <time>2021-07-30T15:28:13Z</time>
      </trkpt>
      <trkpt lat="49.16524" lon="-0.91859">
        <ele>120.3</ele>
        <time>2021-07-30T15:29:33Z</time>
      </trkpt>
      <trkpt lat="49.16524" lon="-0.91859">
        <ele>120.3</ele>
        <time>2021-07-30T15:32:11Z</time>
      </trkpt>
      <trkpt lat="49.16524" lon="-0.91859">
        <ele>120.3</ele>
        <time>2021-07-30T15:34:05Z</time>
      </trkpt>
      <trkpt lat="49.16524" lon="-0.91859">
        <ele>120.3</ele>
        <time>2021-07-30T15:35:32Z</time>
      </trkpt>
      <trkpt lat="49.16524" lon="-0.91859">
        <ele>119.82</ele>
        <time>2021-07-30T15:36:59Z</time>
      </trkpt>
      <trkpt lat="49.16524" lon="-0.91859">
        <ele>119.82</ele>
        <time>2021-07-30T15:38:52Z</time>
      </trkpt>
      <trkpt lat="49.16524" lon="-0.91859">
        <ele>119.82</ele>
        <time>2021-07-30T15:40:22Z</time>
      </trkpt>
      <trkpt lat="49.16524" lon="-0.91859">
        <ele>119.82</ele>
        <time>2021-07-30T15:41:48Z</time>
      </trkpt>
      <trkpt lat="49.16524" lon="-0.91859">
        <ele>119.34</ele>
        <time>2021-07-30T15:43:12Z</time>
      </trkpt>
      <trkpt lat="49.16524" lon="-0.91859">
        <ele>119.34</ele>
        <time>2021-07-30T15:44:37Z</time>
      </trkpt>
      <trkpt lat="49.16524" lon="-0.91859">
        <ele>119.34</ele>
        <time>2021-07-30T15:46:01Z</time>
      </trkpt>
      <trkpt lat="49.16524" lon="-0.91859">
        <ele>118.86</ele>
        <time>2021-07-30T15:48:07Z</time>
      </trkpt>
      <trkpt lat="49.16524" lon="-0.91859">
        <ele>118.86</ele>
        <time>2021-07-30T15:50:02Z</time>
      </trkpt>
      <trkpt lat="49.16524" lon="-0.91859">
        <ele>118.38</ele>
        <time>2021-07-30T15:51:34Z</time>
      </trkpt>
      <trkpt lat="49.1651" lon="-0.91885">
        <ele>118.86</ele>
        <time>2021-07-30T15:51:45Z</time>
      </trkpt>
      <trkpt lat="49.1646" lon="-0.9197">
        <ele>120.78</ele>
        <time>2021-07-30T15:51:54Z</time>
      </trkpt>
      <trkpt lat="49.16351" lon="-0.92159">
        <ele>121.74</ele>
        <time>2021-07-30T15:52:08Z</time>
      </trkpt>
      <trkpt lat="49.16233" lon="-0.92364">
        <ele>127.03</ele>
        <time>2021-07-30T15:52:20Z</time>
      </trkpt>
      <trkpt lat="49.16036" lon="-0.92701">
        <ele>131.84</ele>
        <time>2021-07-30T15:52:39Z</time>
      </trkpt>
      <trkpt lat="49.15916" lon="-0.92901">
        <ele>132.8</ele>
        <time>2021-07-30T15:52:52Z</time>
      </trkpt>
      <trkpt lat="49.15753" lon="-0.93175">
        <ele>125.11</ele>
        <time>2021-07-30T15:53:11Z</time>
      </trkpt>
      <trkpt lat="49.15616" lon="-0.93412">
        <ele>120.3</ele>
        <time>2021-07-30T15:53:25Z</time>
      </trkpt>
      <trkpt lat="49.1539" lon="-0.93823">
        <ele>111.17</ele>
        <time>2021-07-30T15:53:46Z</time>
      </trkpt>
      <trkpt lat="49.15187" lon="-0.94191">
        <ele>103.96</ele>
        <time>2021-07-30T15:54:05Z</time>
      </trkpt>
      <trkpt lat="49.14987" lon="-0.94551">
        <ele>96.27</ele>
        <time>2021-07-30T15:54:22Z</time>
      </trkpt>
      <trkpt lat="49.14749" lon="-0.94906">
        <ele>78.97</ele>
        <time>2021-07-30T15:54:40Z</time>
      </trkpt>
      <trkpt lat="49.14532" lon="-0.9523">
        <ele>83.77</ele>
        <time>2021-07-30T15:54:56Z</time>
      </trkpt>
      <trkpt lat="49.14302" lon="-0.95574">
        <ele>103</ele>
        <time>2021-07-30T15:55:14Z</time>
      </trkpt>
      <trkpt lat="49.14108" lon="-0.9586">
        <ele>118.86</ele>
        <time>2021-07-30T15:55:31Z</time>
      </trkpt>
      <trkpt lat="49.13861" lon="-0.9624">
        <ele>136.16</ele>
        <time>2021-07-30T15:55:51Z</time>
      </trkpt>
      <trkpt lat="49.1378" lon="-0.96504">
        <ele>146.74</ele>
        <time>2021-07-30T15:56:01Z</time>
      </trkpt>
      <trkpt lat="49.13657" lon="-0.96989">
        <ele>153.95</ele>
        <time>2021-07-30T15:56:20Z</time>
      </trkpt>
      <trkpt lat="49.13512" lon="-0.97536">
        <ele>153.95</ele>
        <time>2021-07-30T15:56:39Z</time>
      </trkpt>
      <trkpt lat="49.13417" lon="-0.97903">
        <ele>152.99</ele>
        <time>2021-07-30T15:56:53Z</time>
      </trkpt>
      <trkpt lat="49.13274" lon="-0.98471">
        <ele>154.91</ele>
        <time>2021-07-30T15:57:11Z</time>
      </trkpt>
      <trkpt lat="49.13102" lon="-0.99123">
        <ele>163.08</ele>
        <time>2021-07-30T15:57:32Z</time>
      </trkpt>
      <trkpt lat="49.13011" lon="-0.99447">
        <ele>169.81</ele>
        <time>2021-07-30T15:57:44Z</time>
      </trkpt>
      <trkpt lat="49.12886" lon="-0.99915">
        <ele>165</ele>
        <time>2021-07-30T15:58:01Z</time>
      </trkpt>
      <trkpt lat="49.12732" lon="-1.00475">
        <ele>147.7</ele>
        <time>2021-07-30T15:58:22Z</time>
      </trkpt>
      <trkpt lat="49.1261" lon="-1.00915">
        <ele>140.01</ele>
        <time>2021-07-30T15:58:38Z</time>
      </trkpt>
      <trkpt lat="49.1247" lon="-1.0143">
        <ele>128.47</ele>
        <time>2021-07-30T15:58:57Z</time>
      </trkpt>
      <trkpt lat="49.12306" lon="-1.02026">
        <ele>122.71</ele>
        <time>2021-07-30T15:59:19Z</time>
      </trkpt>
      <trkpt lat="49.12146" lon="-1.02585">
        <ele>115.5</ele>
        <time>2021-07-30T15:59:40Z</time>
      </trkpt>
      <trkpt lat="49.11954" lon="-1.03223">
        <ele>105.4</ele>
        <time>2021-07-30T16:00:04Z</time>
      </trkpt>
      <trkpt lat="49.11817" lon="-1.03681">
        <ele>107.32</ele>
        <time>2021-07-30T16:00:23Z</time>
      </trkpt>
      <trkpt lat="49.1173" lon="-1.03974">
        <ele>111.17</ele>
        <time>2021-07-30T16:00:36Z</time>
      </trkpt>
      <trkpt lat="49.11697" lon="-1.04071">
        <ele>109.73</ele>
        <time>2021-07-30T16:00:43Z</time>
      </trkpt>
      <trkpt lat="49.11695" lon="-1.04083">
        <ele>109.25</ele>
        <time>2021-07-30T16:00:45Z</time>
      </trkpt>
      <trkpt lat="49.11694" lon="-1.04089">
        <ele>109.25</ele>
        <time>2021-07-30T16:00:46Z</time>
      </trkpt>
      <trkpt lat="49.11694" lon="-1.04097">
        <ele>109.73</ele>
        <time>2021-07-30T16:00:47Z</time>
      </trkpt>
      <trkpt lat="49.11693" lon="-1.04105">
        <ele>109.73</ele>
        <time>2021-07-30T16:00:48Z</time>
      </trkpt>
      <trkpt lat="49.11691" lon="-1.04114">
        <ele>109.73</ele>
        <time>2021-07-30T16:00:49Z</time>
      </trkpt>
      <trkpt lat="49.11689" lon="-1.04136">
        <ele>109.73</ele>
        <time>2021-07-30T16:00:50Z</time>
      </trkpt>
      <trkpt lat="49.11688" lon="-1.04148">
        <ele>109.73</ele>
        <time>2021-07-30T16:00:52Z</time>
      </trkpt>
      <trkpt lat="49.11685" lon="-1.04174">
        <ele>109.25</ele>
        <time>2021-07-30T16:00:54Z</time>
      </trkpt>
      <trkpt lat="49.11684" lon="-1.04188">
        <ele>109.73</ele>
        <time>2021-07-30T16:00:55Z</time>
      </trkpt>
      <trkpt lat="49.11669" lon="-1.04376">
        <ele>107.32</ele>
        <time>2021-07-30T16:01:05Z</time>
      </trkpt>
      <trkpt lat="49.1166" lon="-1.0468">
        <ele>103.48</ele>
        <time>2021-07-30T16:01:17Z</time>
      </trkpt>
      <trkpt lat="49.11646" lon="-1.05217">
        <ele>97.71</ele>
        <time>2021-07-30T16:01:36Z</time>
      </trkpt>
      <trkpt lat="49.11644" lon="-1.05373">
        <ele>97.23</ele>
        <time>2021-07-30T16:01:43Z</time>
      </trkpt>
      <trkpt lat="49.11643" lon="-1.05431">
        <ele>96.27</ele>
        <time>2021-07-30T16:01:47Z</time>
      </trkpt>
      <trkpt lat="49.11642" lon="-1.05441">
        <ele>96.27</ele>
        <time>2021-07-30T16:01:48Z</time>
      </trkpt>
      <trkpt lat="49.11642" lon="-1.05445">
        <ele>96.75</ele>
        <time>2021-07-30T16:01:49Z</time>
      </trkpt>
      <trkpt lat="49.11651" lon="-1.05457">
        <ele>96.75</ele>
        <time>2021-07-30T16:01:50Z</time>
      </trkpt>
      <trkpt lat="49.11642" lon="-1.05473">
        <ele>96.75</ele>
        <time>2021-07-30T16:01:51Z</time>
      </trkpt>
      <trkpt lat="49.11642" lon="-1.05473">
        <ele>96.75</ele>
        <time>2021-07-30T16:01:52Z</time>
      </trkpt>
      <trkpt lat="49.11642" lon="-1.05481">
        <ele>96.75</ele>
        <time>2021-07-30T16:01:53Z</time>
      </trkpt>
      <trkpt lat="49.11642" lon="-1.0549">
        <ele>96.75</ele>
        <time>2021-07-30T16:01:54Z</time>
      </trkpt>
      <trkpt lat="49.11642" lon="-1.055">
        <ele>97.23</ele>
        <time>2021-07-30T16:01:55Z</time>
      </trkpt>
      <trkpt lat="49.11633" lon="-1.05659">
        <ele>94.35</ele>
        <time>2021-07-30T16:02:05Z</time>
      </trkpt>
      <trkpt lat="49.11622" lon="-1.05984">
        <ele>90.5</ele>
        <time>2021-07-30T16:02:24Z</time>
      </trkpt>
      <trkpt lat="49.11614" lon="-1.06285">
        <ele>84.73</ele>
        <time>2021-07-30T16:02:41Z</time>
      </trkpt>
      <trkpt lat="49.11607" lon="-1.06494">
        <ele>80.89</ele>
        <time>2021-07-30T16:02:55Z</time>
      </trkpt>
      <trkpt lat="49.11596" lon="-1.06898">
        <ele>75.12</ele>
        <time>2021-07-30T16:03:17Z</time>
      </trkpt>
      <trkpt lat="49.11584" lon="-1.07233">
        <ele>71.27</ele>
        <time>2021-07-30T16:03:36Z</time>
      </trkpt>
      <trkpt lat="49.11577" lon="-1.07387">
        <ele>70.79</ele>
        <time>2021-07-30T16:03:48Z</time>
      </trkpt>
      <trkpt lat="49.11575" lon="-1.07428">
        <ele>70.79</ele>
        <time>2021-07-30T16:03:53Z</time>
      </trkpt>
      <trkpt lat="49.1157" lon="-1.07444">
        <ele>70.31</ele>
        <time>2021-07-30T16:03:54Z</time>
      </trkpt>
      <trkpt lat="49.11575" lon="-1.07469">
        <ele>70.31</ele>
        <time>2021-07-30T16:03:56Z</time>
      </trkpt>
      <trkpt lat="49.11578" lon="-1.07481">
        <ele>70.31</ele>
        <time>2021-07-30T16:03:57Z</time>
      </trkpt>
      <trkpt lat="49.11571" lon="-1.07695">
        <ele>65.99</ele>
        <time>2021-07-30T16:04:10Z</time>
      </trkpt>
      <trkpt lat="49.11565" lon="-1.07877">
        <ele>63.58</ele>
        <time>2021-07-30T16:04:22Z</time>
      </trkpt>
      <trkpt lat="49.11565" lon="-1.07877">
        <ele>64.07</ele>
        <time>2021-07-30T16:04:43Z</time>
      </trkpt>
      <trkpt lat="49.11564" lon="-1.07912">
        <ele>63.58</ele>
        <time>2021-07-30T16:04:50Z</time>
      </trkpt>
      <trkpt lat="49.1156" lon="-1.08078">
        <ele>60.7</ele>
        <time>2021-07-30T16:05:02Z</time>
      </trkpt>
      <trkpt lat="49.11554" lon="-1.0825">
        <ele>57.82</ele>
        <time>2021-07-30T16:05:14Z</time>
      </trkpt>
      <trkpt lat="49.11556" lon="-1.08267">
        <ele>57.34</ele>
        <time>2021-07-30T16:05:16Z</time>
      </trkpt>
      <trkpt lat="49.1156" lon="-1.08282">
        <ele>56.37</ele>
        <time>2021-07-30T16:05:19Z</time>
      </trkpt>
      <trkpt lat="49.1156" lon="-1.0829">
        <ele>56.37</ele>
        <time>2021-07-30T16:05:20Z</time>
      </trkpt>
      <trkpt lat="49.11552" lon="-1.08299">
        <ele>55.89</ele>
        <time>2021-07-30T16:05:21Z</time>
      </trkpt>
      <trkpt lat="49.11552" lon="-1.08299">
        <ele>55.89</ele>
        <time>2021-07-30T16:05:22Z</time>
      </trkpt>
      <trkpt lat="49.1155" lon="-1.08301">
        <ele>55.89</ele>
        <time>2021-07-30T16:05:23Z</time>
      </trkpt>
      <trkpt lat="49.11539" lon="-1.08308">
        <ele>55.89</ele>
        <time>2021-07-30T16:05:24Z</time>
      </trkpt>
      <trkpt lat="49.11537" lon="-1.08316">
        <ele>55.41</ele>
        <time>2021-07-30T16:05:25Z</time>
      </trkpt>
      <trkpt lat="49.11534" lon="-1.08324">
        <ele>55.41</ele>
        <time>2021-07-30T16:05:26Z</time>
      </trkpt>
      <trkpt lat="49.11512" lon="-1.08451">
        <ele>53.49</ele>
        <time>2021-07-30T16:05:36Z</time>
      </trkpt>
      <trkpt lat="49.11503" lon="-1.08691">
        <ele>49.16</ele>
        <time>2021-07-30T16:05:55Z</time>
      </trkpt>
      <trkpt lat="49.11499" lon="-1.08825">
        <ele>46.28</ele>
        <time>2021-07-30T16:06:08Z</time>
      </trkpt>
      <trkpt lat="49.11499" lon="-1.08831">
        <ele>46.28</ele>
        <time>2021-07-30T16:06:22Z</time>
      </trkpt>
      <trkpt lat="49.11499" lon="-1.08849">
        <ele>45.8</ele>
        <time>2021-07-30T16:07:05Z</time>
      </trkpt>
      <trkpt lat="49.11498" lon="-1.08874">
        <ele>45.8</ele>
        <time>2021-07-30T16:07:54Z</time>
      </trkpt>
      <trkpt lat="49.11498" lon="-1.08874">
        <ele>45.8</ele>
        <time>2021-07-30T16:08:10Z</time>
      </trkpt>
      <trkpt lat="49.11496" lon="-1.08911">
        <ele>45.32</ele>
        <time>2021-07-30T16:08:24Z</time>
      </trkpt>
      <trkpt lat="49.11496" lon="-1.08925">
        <ele>45.32</ele>
        <time>2021-07-30T16:08:38Z</time>
      </trkpt>
      <trkpt lat="49.11495" lon="-1.08947">
        <ele>44.84</ele>
        <time>2021-07-30T16:09:09Z</time>
      </trkpt>
      <trkpt lat="49.11492" lon="-1.09032">
        <ele>41.47</ele>
        <time>2021-07-30T16:09:22Z</time>
      </trkpt>
      <trkpt lat="49.1149" lon="-1.09185">
        <ele>36.19</ele>
        <time>2021-07-30T16:09:37Z</time>
      </trkpt>
      <trkpt lat="49.11475" lon="-1.09303">
        <ele>30.42</ele>
        <time>2021-07-30T16:09:50Z</time>
      </trkpt>
      <trkpt lat="49.11457" lon="-1.09413">
        <ele>26.57</ele>
        <time>2021-07-30T16:10:04Z</time>
      </trkpt>
      <trkpt lat="49.1146" lon="-1.09501">
        <ele>25.61</ele>
        <time>2021-07-30T16:10:16Z</time>
      </trkpt>
      <trkpt lat="49.11462" lon="-1.09556">
        <ele>24.17</ele>
        <time>2021-07-30T16:10:26Z</time>
      </trkpt>
      <trkpt lat="49.11456" lon="-1.09681">
        <ele>22.25</ele>
        <time>2021-07-30T16:10:40Z</time>
      </trkpt>
      <trkpt lat="49.1145" lon="-1.09784">
        <ele>20.81</ele>
        <time>2021-07-30T16:10:50Z</time>
      </trkpt>
      <trkpt lat="49.1145" lon="-1.09793">
        <ele>20.81</ele>
        <time>2021-07-30T16:10:51Z</time>
      </trkpt>
      <trkpt lat="49.1145" lon="-1.098">
        <ele>21.29</ele>
        <time>2021-07-30T16:10:52Z</time>
      </trkpt>
      <trkpt lat="49.11451" lon="-1.09808">
        <ele>21.29</ele>
        <time>2021-07-30T16:10:53Z</time>
      </trkpt>
      <trkpt lat="49.11451" lon="-1.09814">
        <ele>21.29</ele>
        <time>2021-07-30T16:10:54Z</time>
      </trkpt>
      <trkpt lat="49.1146" lon="-1.09818">
        <ele>21.77</ele>
        <time>2021-07-30T16:10:55Z</time>
      </trkpt>
      <trkpt lat="49.11464" lon="-1.09824">
        <ele>21.77</ele>
        <time>2021-07-30T16:10:56Z</time>
      </trkpt>
      <trkpt lat="49.11467" lon="-1.0983">
        <ele>21.77</ele>
        <time>2021-07-30T16:10:57Z</time>
      </trkpt>
      <trkpt lat="49.11467" lon="-1.0984">
        <ele>21.77</ele>
        <time>2021-07-30T16:10:58Z</time>
      </trkpt>
      <trkpt lat="49.11466" lon="-1.09846">
        <ele>21.29</ele>
        <time>2021-07-30T16:10:59Z</time>
      </trkpt>
      <trkpt lat="49.11462" lon="-1.0985">
        <ele>21.77</ele>
        <time>2021-07-30T16:11:00Z</time>
      </trkpt>
      <trkpt lat="49.11458" lon="-1.09855">
        <ele>21.77</ele>
        <time>2021-07-30T16:11:01Z</time>
      </trkpt>
      <trkpt lat="49.11453" lon="-1.09856">
        <ele>21.29</ele>
        <time>2021-07-30T16:11:02Z</time>
      </trkpt>
      <trkpt lat="49.11451" lon="-1.09855">
        <ele>21.29</ele>
        <time>2021-07-30T16:11:03Z</time>
      </trkpt>
      <trkpt lat="49.1144" lon="-1.09846">
        <ele>20.81</ele>
        <time>2021-07-30T16:11:04Z</time>
      </trkpt>
      <trkpt lat="49.11435" lon="-1.09849">
        <ele>20.81</ele>
        <time>2021-07-30T16:11:05Z</time>
      </trkpt>
      <trkpt lat="49.1143" lon="-1.09852">
        <ele>20.32</ele>
        <time>2021-07-30T16:11:06Z</time>
      </trkpt>
      <trkpt lat="49.11424" lon="-1.09856">
        <ele>20.81</ele>
        <time>2021-07-30T16:11:07Z</time>
      </trkpt>
      <trkpt lat="49.11418" lon="-1.0986">
        <ele>20.32</ele>
        <time>2021-07-30T16:11:08Z</time>
      </trkpt>
      <trkpt lat="49.11412" lon="-1.09867">
        <ele>20.32</ele>
        <time>2021-07-30T16:11:09Z</time>
      </trkpt>
      <trkpt lat="49.11381" lon="-1.09904">
        <ele>20.81</ele>
        <time>2021-07-30T16:11:14Z</time>
      </trkpt>
      <trkpt lat="49.11337" lon="-1.09964">
        <ele>20.32</ele>
        <time>2021-07-30T16:11:22Z</time>
      </trkpt>
      <trkpt lat="49.11331" lon="-1.09973">
        <ele>20.32</ele>
        <time>2021-07-30T16:11:23Z</time>
      </trkpt>
      <trkpt lat="49.1125" lon="-1.10082">
        <ele>22.25</ele>
        <time>2021-07-30T16:11:32Z</time>
      </trkpt>
      <trkpt lat="49.11031" lon="-1.1038">
        <ele>37.15</ele>
        <time>2021-07-30T16:11:55Z</time>
      </trkpt>
      <trkpt lat="49.10824" lon="-1.10658">
        <ele>38.11</ele>
        <time>2021-07-30T16:12:15Z</time>
      </trkpt>
      <trkpt lat="49.10741" lon="-1.10771">
        <ele>43.88</ele>
        <time>2021-07-30T16:12:26Z</time>
      </trkpt>
      <trkpt lat="49.10643" lon="-1.10902">
        <ele>44.36</ele>
        <time>2021-07-30T16:12:40Z</time>
      </trkpt>
      <trkpt lat="49.10627" lon="-1.10925">
        <ele>44.36</ele>
        <time>2021-07-30T16:12:44Z</time>
      </trkpt>
      <trkpt lat="49.1062" lon="-1.10935">
        <ele>44.84</ele>
        <time>2021-07-30T16:12:46Z</time>
      </trkpt>
      <trkpt lat="49.10617" lon="-1.1094">
        <ele>44.36</ele>
        <time>2021-07-30T16:12:47Z</time>
      </trkpt>
      <trkpt lat="49.10566" lon="-1.11009">
        <ele>43.4</ele>
        <time>2021-07-30T16:12:55Z</time>
      </trkpt>
      <trkpt lat="49.1046" lon="-1.11155">
        <ele>49.65</ele>
        <time>2021-07-30T16:13:05Z</time>
      </trkpt>
      <trkpt lat="49.10353" lon="-1.113">
        <ele>53.49</ele>
        <time>2021-07-30T16:13:16Z</time>
      </trkpt>
      <trkpt lat="49.1033" lon="-1.11341">
        <ele>55.41</ele>
        <time>2021-07-30T16:13:22Z</time>
      </trkpt>
      <trkpt lat="49.10328" lon="-1.11344">
        <ele>55.41</ele>
        <time>2021-07-30T16:13:23Z</time>
      </trkpt>
      <trkpt lat="49.10327" lon="-1.11348">
        <ele>55.41</ele>
        <time>2021-07-30T16:13:24Z</time>
      </trkpt>
      <trkpt lat="49.10322" lon="-1.11361">
        <ele>55.89</ele>
        <time>2021-07-30T16:13:26Z</time>
      </trkpt>
      <trkpt lat="49.10321" lon="-1.11369">
        <ele>55.89</ele>
        <time>2021-07-30T16:13:27Z</time>
      </trkpt>
      <trkpt lat="49.10314" lon="-1.11375">
        <ele>55.89</ele>
        <time>2021-07-30T16:13:28Z</time>
      </trkpt>
      <trkpt lat="49.10294" lon="-1.11383">
        <ele>56.86</ele>
        <time>2021-07-30T16:13:31Z</time>
      </trkpt>
      <trkpt lat="49.10288" lon="-1.11391">
        <ele>57.34</ele>
        <time>2021-07-30T16:13:32Z</time>
      </trkpt>
      <trkpt lat="49.10223" lon="-1.11477">
        <ele>59.26</ele>
        <time>2021-07-30T16:13:41Z</time>
      </trkpt>
      <trkpt lat="49.10178" lon="-1.11543">
        <ele>59.74</ele>
        <time>2021-07-30T16:13:54Z</time>
      </trkpt>
      <trkpt lat="49.10159" lon="-1.11589">
        <ele>58.78</ele>
        <time>2021-07-30T16:14:08Z</time>
      </trkpt>
      <trkpt lat="49.10159" lon="-1.11613">
        <ele>58.3</ele>
        <time>2021-07-30T16:14:10Z</time>
      </trkpt>
      <trkpt lat="49.10159" lon="-1.11613">
        <ele>58.3</ele>
        <time>2021-07-30T16:14:11Z</time>
      </trkpt>
      <trkpt lat="49.10158" lon="-1.11621">
        <ele>58.3</ele>
        <time>2021-07-30T16:14:12Z</time>
      </trkpt>
      <trkpt lat="49.10156" lon="-1.1163">
        <ele>58.3</ele>
        <time>2021-07-30T16:14:13Z</time>
      </trkpt>
      <trkpt lat="49.10147" lon="-1.11645">
        <ele>57.82</ele>
        <time>2021-07-30T16:14:14Z</time>
      </trkpt>
      <trkpt lat="49.10147" lon="-1.11645">
        <ele>57.82</ele>
        <time>2021-07-30T16:14:15Z</time>
      </trkpt>
      <trkpt lat="49.10142" lon="-1.1165">
        <ele>57.82</ele>
        <time>2021-07-30T16:14:16Z</time>
      </trkpt>
      <trkpt lat="49.10136" lon="-1.11653">
        <ele>58.3</ele>
        <time>2021-07-30T16:14:17Z</time>
      </trkpt>
      <trkpt lat="49.10131" lon="-1.11655">
        <ele>58.3</ele>
        <time>2021-07-30T16:14:18Z</time>
      </trkpt>
      <trkpt lat="49.10125" lon="-1.11653">
        <ele>58.3</ele>
        <time>2021-07-30T16:14:19Z</time>
      </trkpt>
      <trkpt lat="49.10119" lon="-1.1165">
        <ele>58.3</ele>
        <time>2021-07-30T16:14:20Z</time>
      </trkpt>
      <trkpt lat="49.10114" lon="-1.11649">
        <ele>58.3</ele>
        <time>2021-07-30T16:14:21Z</time>
      </trkpt>
      <trkpt lat="49.1011" lon="-1.11642">
        <ele>58.3</ele>
        <time>2021-07-30T16:14:22Z</time>
      </trkpt>
      <trkpt lat="49.10106" lon="-1.11635">
        <ele>58.3</ele>
        <time>2021-07-30T16:14:23Z</time>
      </trkpt>
      <trkpt lat="49.10101" lon="-1.11628">
        <ele>58.3</ele>
        <time>2021-07-30T16:14:24Z</time>
      </trkpt>
      <trkpt lat="49.10098" lon="-1.1162">
        <ele>58.3</ele>
        <time>2021-07-30T16:14:25Z</time>
      </trkpt>
      <trkpt lat="49.10097" lon="-1.11611">
        <ele>58.3</ele>
        <time>2021-07-30T16:14:26Z</time>
      </trkpt>
      <trkpt lat="49.10099" lon="-1.116">
        <ele>58.78</ele>
        <time>2021-07-30T16:14:27Z</time>
      </trkpt>
      <trkpt lat="49.101" lon="-1.1159">
        <ele>58.78</ele>
        <time>2021-07-30T16:14:28Z</time>
      </trkpt>
      <trkpt lat="49.10106" lon="-1.11571">
        <ele>58.78</ele>
        <time>2021-07-30T16:14:29Z</time>
      </trkpt>
      <trkpt lat="49.10106" lon="-1.11571">
        <ele>58.78</ele>
        <time>2021-07-30T16:14:30Z</time>
      </trkpt>
      <trkpt lat="49.10112" lon="-1.11563">
        <ele>58.78</ele>
        <time>2021-07-30T16:14:31Z</time>
      </trkpt>
      <trkpt lat="49.10119" lon="-1.11559">
        <ele>58.78</ele>
        <time>2021-07-30T16:14:32Z</time>
      </trkpt>
      <trkpt lat="49.10126" lon="-1.11557">
        <ele>58.78</ele>
        <time>2021-07-30T16:14:33Z</time>
      </trkpt>
      <trkpt lat="49.10134" lon="-1.11559">
        <ele>58.78</ele>
        <time>2021-07-30T16:14:34Z</time>
      </trkpt>
      <trkpt lat="49.10141" lon="-1.11562">
        <ele>58.78</ele>
        <time>2021-07-30T16:14:35Z</time>
      </trkpt>
      <trkpt lat="49.10148" lon="-1.11567">
        <ele>59.26</ele>
        <time>2021-07-30T16:14:36Z</time>
      </trkpt>
      <trkpt lat="49.10153" lon="-1.11574">
        <ele>58.3</ele>
        <time>2021-07-30T16:14:37Z</time>
      </trkpt>
      <trkpt lat="49.10157" lon="-1.11581">
        <ele>58.78</ele>
        <time>2021-07-30T16:14:38Z</time>
      </trkpt>
      <trkpt lat="49.10159" lon="-1.11584">
        <ele>58.78</ele>
        <time>2021-07-30T16:14:39Z</time>
      </trkpt>
      <trkpt lat="49.10165" lon="-1.11598">
        <ele>58.3</ele>
        <time>2021-07-30T16:14:40Z</time>
      </trkpt>
      <trkpt lat="49.10171" lon="-1.11602">
        <ele>58.3</ele>
        <time>2021-07-30T16:14:41Z</time>
      </trkpt>
      <trkpt lat="49.10178" lon="-1.11605">
        <ele>57.82</ele>
        <time>2021-07-30T16:14:42Z</time>
      </trkpt>
      <trkpt lat="49.10291" lon="-1.11639">
        <ele>45.8</ele>
        <time>2021-07-30T16:14:52Z</time>
      </trkpt>
      <trkpt lat="49.10443" lon="-1.11664">
        <ele>39.55</ele>
        <time>2021-07-30T16:15:02Z</time>
      </trkpt>
      <trkpt lat="49.10624" lon="-1.11733">
        <ele>32.34</ele>
        <time>2021-07-30T16:15:14Z</time>
      </trkpt>
      <trkpt lat="49.10786" lon="-1.11851">
        <ele>22.73</ele>
        <time>2021-07-30T16:15:23Z</time>
      </trkpt>
      <trkpt lat="49.10922" lon="-1.12035">
        <ele>17.44</ele>
        <time>2021-07-30T16:15:32Z</time>
      </trkpt>
      <trkpt lat="49.11017" lon="-1.12251">
        <ele>24.65</ele>
        <time>2021-07-30T16:15:41Z</time>
      </trkpt>
      <trkpt lat="49.11072" lon="-1.12495">
        <ele>40.51</ele>
        <time>2021-07-30T16:15:51Z</time>
      </trkpt>
      <trkpt lat="49.11087" lon="-1.12757">
        <ele>50.61</ele>
        <time>2021-07-30T16:16:01Z</time>
      </trkpt>
      <trkpt lat="49.11062" lon="-1.13038">
        <ele>61.66</ele>
        <time>2021-07-30T16:16:12Z</time>
      </trkpt>
      <trkpt lat="49.11028" lon="-1.13267">
        <ele>72.72</ele>
        <time>2021-07-30T16:16:25Z</time>
      </trkpt>
      <trkpt lat="49.11027" lon="-1.13281">
        <ele>72.72</ele>
        <time>2021-07-30T16:16:26Z</time>
      </trkpt>
      <trkpt lat="49.11027" lon="-1.13295">
        <ele>72.72</ele>
        <time>2021-07-30T16:16:27Z</time>
      </trkpt>
      <trkpt lat="49.1103" lon="-1.13308">
        <ele>73.2</ele>
        <time>2021-07-30T16:16:28Z</time>
      </trkpt>
      <trkpt lat="49.11034" lon="-1.13319">
        <ele>73.68</ele>
        <time>2021-07-30T16:16:29Z</time>
      </trkpt>
      <trkpt lat="49.11037" lon="-1.13331">
        <ele>74.16</ele>
        <time>2021-07-30T16:16:30Z</time>
      </trkpt>
      <trkpt lat="49.1104" lon="-1.13343">
        <ele>75.12</ele>
        <time>2021-07-30T16:16:31Z</time>
      </trkpt>
      <trkpt lat="49.11047" lon="-1.13363">
        <ele>75.6</ele>
        <time>2021-07-30T16:16:32Z</time>
      </trkpt>
      <trkpt lat="49.11052" lon="-1.13368">
        <ele>76.08</ele>
        <time>2021-07-30T16:16:33Z</time>
      </trkpt>
      <trkpt lat="49.11057" lon="-1.13373">
        <ele>76.08</ele>
        <time>2021-07-30T16:16:34Z</time>
      </trkpt>
      <trkpt lat="49.1106" lon="-1.13378">
        <ele>76.08</ele>
        <time>2021-07-30T16:16:35Z</time>
      </trkpt>
      <trkpt lat="49.11064" lon="-1.13382">
        <ele>76.08</ele>
        <time>2021-07-30T16:16:36Z</time>
      </trkpt>
      <trkpt lat="49.11064" lon="-1.13382">
        <ele>76.08</ele>
        <time>2021-07-30T16:16:37Z</time>
      </trkpt>
      <trkpt lat="49.11069" lon="-1.13383">
        <ele>75.6</ele>
        <time>2021-07-30T16:16:38Z</time>
      </trkpt>
      <trkpt lat="49.11075" lon="-1.1338">
        <ele>75.6</ele>
        <time>2021-07-30T16:16:39Z</time>
      </trkpt>
      <trkpt lat="49.11081" lon="-1.13377">
        <ele>76.56</ele>
        <time>2021-07-30T16:16:40Z</time>
      </trkpt>
      <trkpt lat="49.11089" lon="-1.13375">
        <ele>76.08</ele>
        <time>2021-07-30T16:16:41Z</time>
      </trkpt>
      <trkpt lat="49.11095" lon="-1.13377">
        <ele>76.08</ele>
        <time>2021-07-30T16:16:42Z</time>
      </trkpt>
      <trkpt lat="49.11099" lon="-1.13378">
        <ele>76.08</ele>
        <time>2021-07-30T16:16:43Z</time>
      </trkpt>
      <trkpt lat="49.11103" lon="-1.13388">
        <ele>76.56</ele>
        <time>2021-07-30T16:16:44Z</time>
      </trkpt>
      <trkpt lat="49.11107" lon="-1.13396">
        <ele>76.56</ele>
        <time>2021-07-30T16:16:45Z</time>
      </trkpt>
      <trkpt lat="49.1111" lon="-1.13404">
        <ele>76.56</ele>
        <time>2021-07-30T16:16:46Z</time>
      </trkpt>
      <trkpt lat="49.11111" lon="-1.1341">
        <ele>76.56</ele>
        <time>2021-07-30T16:16:47Z</time>
      </trkpt>
      <trkpt lat="49.11109" lon="-1.13419">
        <ele>77.04</ele>
        <time>2021-07-30T16:16:48Z</time>
      </trkpt>
      <trkpt lat="49.11107" lon="-1.13428">
        <ele>77.04</ele>
        <time>2021-07-30T16:16:49Z</time>
      </trkpt>
      <trkpt lat="49.11104" lon="-1.13436">
        <ele>76.56</ele>
        <time>2021-07-30T16:16:50Z</time>
      </trkpt>
      <trkpt lat="49.11101" lon="-1.13443">
        <ele>76.56</ele>
        <time>2021-07-30T16:16:51Z</time>
      </trkpt>
      <trkpt lat="49.11096" lon="-1.13449">
        <ele>77.04</ele>
        <time>2021-07-30T16:16:52Z</time>
      </trkpt>
      <trkpt lat="49.1109" lon="-1.13451">
        <ele>77.04</ele>
        <time>2021-07-30T16:16:53Z</time>
      </trkpt>
      <trkpt lat="49.11083" lon="-1.1345">
        <ele>76.56</ele>
        <time>2021-07-30T16:16:54Z</time>
      </trkpt>
      <trkpt lat="49.11076" lon="-1.13449">
        <ele>76.56</ele>
        <time>2021-07-30T16:16:55Z</time>
      </trkpt>
      <trkpt lat="49.11073" lon="-1.13449">
        <ele>76.56</ele>
        <time>2021-07-30T16:16:56Z</time>
      </trkpt>
      <trkpt lat="49.11051" lon="-1.1344">
        <ele>76.08</ele>
        <time>2021-07-30T16:16:57Z</time>
      </trkpt>
      <trkpt lat="49.11051" lon="-1.1344">
        <ele>76.08</ele>
        <time>2021-07-30T16:16:58Z</time>
      </trkpt>
      <trkpt lat="49.10955" lon="-1.13514">
        <ele>79.45</ele>
        <time>2021-07-30T16:17:09Z</time>
      </trkpt>
      <trkpt lat="49.1095" lon="-1.13521">
        <ele>78.97</ele>
        <time>2021-07-30T16:17:10Z</time>
      </trkpt>
      <trkpt lat="49.10945" lon="-1.13528">
        <ele>78.97</ele>
        <time>2021-07-30T16:17:11Z</time>
      </trkpt>
      <trkpt lat="49.10939" lon="-1.13547">
        <ele>78.97</ele>
        <time>2021-07-30T16:17:13Z</time>
      </trkpt>
      <trkpt lat="49.10934" lon="-1.1356">
        <ele>78.97</ele>
        <time>2021-07-30T16:17:14Z</time>
      </trkpt>
      <trkpt lat="49.1092" lon="-1.13571">
        <ele>78.97</ele>
        <time>2021-07-30T16:17:16Z</time>
      </trkpt>
      <trkpt lat="49.1091" lon="-1.13582">
        <ele>78.48</ele>
        <time>2021-07-30T16:17:17Z</time>
      </trkpt>
      <trkpt lat="49.1091" lon="-1.13593">
        <ele>78.48</ele>
        <time>2021-07-30T16:17:18Z</time>
      </trkpt>
      <trkpt lat="49.10894" lon="-1.13748">
        <ele>79.45</ele>
        <time>2021-07-30T16:17:27Z</time>
      </trkpt>
      <trkpt lat="49.1085" lon="-1.13909">
        <ele>80.41</ele>
        <time>2021-07-30T16:17:35Z</time>
      </trkpt>
      <trkpt lat="49.10762" lon="-1.14125">
        <ele>80.41</ele>
        <time>2021-07-30T16:17:46Z</time>
      </trkpt>
      <trkpt lat="49.10719" lon="-1.1423">
        <ele>81.37</ele>
        <time>2021-07-30T16:17:53Z</time>
      </trkpt>
      <trkpt lat="49.10714" lon="-1.14245">
        <ele>81.85</ele>
        <time>2021-07-30T16:17:55Z</time>
      </trkpt>
      <trkpt lat="49.10712" lon="-1.14251">
        <ele>81.85</ele>
        <time>2021-07-30T16:17:56Z</time>
      </trkpt>
      <trkpt lat="49.1071" lon="-1.14257">
        <ele>82.33</ele>
        <time>2021-07-30T16:17:57Z</time>
      </trkpt>
      <trkpt lat="49.10708" lon="-1.14263">
        <ele>82.33</ele>
        <time>2021-07-30T16:17:58Z</time>
      </trkpt>
      <trkpt lat="49.10708" lon="-1.1427">
        <ele>82.81</ele>
        <time>2021-07-30T16:17:59Z</time>
      </trkpt>
      <trkpt lat="49.10707" lon="-1.14278">
        <ele>82.81</ele>
        <time>2021-07-30T16:18:00Z</time>
      </trkpt>
      <trkpt lat="49.10713" lon="-1.14289">
        <ele>82.81</ele>
        <time>2021-07-30T16:18:01Z</time>
      </trkpt>
      <trkpt lat="49.10717" lon="-1.14298">
        <ele>83.29</ele>
        <time>2021-07-30T16:18:02Z</time>
      </trkpt>
      <trkpt lat="49.10716" lon="-1.14308">
        <ele>83.77</ele>
        <time>2021-07-30T16:18:03Z</time>
      </trkpt>
      <trkpt lat="49.10707" lon="-1.14318">
        <ele>84.25</ele>
        <time>2021-07-30T16:18:04Z</time>
      </trkpt>
      <trkpt lat="49.10698" lon="-1.14321">
        <ele>84.73</ele>
        <time>2021-07-30T16:18:05Z</time>
      </trkpt>
      <trkpt lat="49.10692" lon="-1.14329">
        <ele>83.77</ele>
        <time>2021-07-30T16:18:06Z</time>
      </trkpt>
      <trkpt lat="49.10685" lon="-1.14339">
        <ele>83.77</ele>
        <time>2021-07-30T16:18:07Z</time>
      </trkpt>
      <trkpt lat="49.10634" lon="-1.14434">
        <ele>82.81</ele>
        <time>2021-07-30T16:18:15Z</time>
      </trkpt>
      <trkpt lat="49.10548" lon="-1.14639">
        <ele>85.69</ele>
        <time>2021-07-30T16:18:26Z</time>
      </trkpt>
      <trkpt lat="49.10425" lon="-1.14941">
        <ele>85.69</ele>
        <time>2021-07-30T16:18:39Z</time>
      </trkpt>
      <trkpt lat="49.10368" lon="-1.15151">
        <ele>85.69</ele>
        <time>2021-07-30T16:18:47Z</time>
      </trkpt>
      <trkpt lat="49.1028" lon="-1.1573">
        <ele>93.39</ele>
        <time>2021-07-30T16:19:07Z</time>
      </trkpt>
      <trkpt lat="49.10279" lon="-1.15925">
        <ele>97.23</ele>
        <time>2021-07-30T16:19:15Z</time>
      </trkpt>
      <trkpt lat="49.10322" lon="-1.16304">
        <ele>101.56</ele>
        <time>2021-07-30T16:19:28Z</time>
      </trkpt>
      <trkpt lat="49.1038" lon="-1.16808">
        <ele>103.48</ele>
        <time>2021-07-30T16:19:45Z</time>
      </trkpt>
      <trkpt lat="49.10412" lon="-1.17079">
        <ele>104.92</ele>
        <time>2021-07-30T16:19:56Z</time>
      </trkpt>
      <trkpt lat="49.10444" lon="-1.17299">
        <ele>105.4</ele>
        <time>2021-07-30T16:20:10Z</time>
      </trkpt>
      <trkpt lat="49.10475" lon="-1.17534">
        <ele>107.81</ele>
        <time>2021-07-30T16:20:26Z</time>
      </trkpt>
      <trkpt lat="49.10479" lon="-1.17586">
        <ele>106.36</ele>
        <time>2021-07-30T16:20:34Z</time>
      </trkpt>
      <trkpt lat="49.10479" lon="-1.17605">
        <ele>105.4</ele>
        <time>2021-07-30T16:20:35Z</time>
      </trkpt>
      <trkpt lat="49.10472" lon="-1.17691">
        <ele>103</ele>
        <time>2021-07-30T16:20:42Z</time>
      </trkpt>
      <trkpt lat="49.1044" lon="-1.17931">
        <ele>102.04</ele>
        <time>2021-07-30T16:20:56Z</time>
      </trkpt>
      <trkpt lat="49.10398" lon="-1.18306">
        <ele>100.6</ele>
        <time>2021-07-30T16:21:14Z</time>
      </trkpt>
      <trkpt lat="49.10356" lon="-1.18687">
        <ele>98.67</ele>
        <time>2021-07-30T16:21:29Z</time>
      </trkpt>
      <trkpt lat="49.10314" lon="-1.1907">
        <ele>82.81</ele>
        <time>2021-07-30T16:21:42Z</time>
      </trkpt>
      <trkpt lat="49.10238" lon="-1.19725">
        <ele>56.86</ele>
        <time>2021-07-30T16:22:02Z</time>
      </trkpt>
      <trkpt lat="49.1018" lon="-1.19932">
        <ele>55.89</ele>
        <time>2021-07-30T16:22:09Z</time>
      </trkpt>
      <trkpt lat="49.10088" lon="-1.20101">
        <ele>64.55</ele>
        <time>2021-07-30T16:22:17Z</time>
      </trkpt>
      <trkpt lat="49.09974" lon="-1.20325">
        <ele>77.04</ele>
        <time>2021-07-30T16:22:27Z</time>
      </trkpt>
      <trkpt lat="49.09845" lon="-1.207">
        <ele>85.69</ele>
        <time>2021-07-30T16:22:42Z</time>
      </trkpt>
      <trkpt lat="49.09662" lon="-1.21247">
        <ele>90.5</ele>
        <time>2021-07-30T16:23:04Z</time>
      </trkpt>
      <trkpt lat="49.09546" lon="-1.21666">
        <ele>91.94</ele>
        <time>2021-07-30T16:23:19Z</time>
      </trkpt>
      <trkpt lat="49.09451" lon="-1.22171">
        <ele>98.67</ele>
        <time>2021-07-30T16:23:37Z</time>
      </trkpt>
      <trkpt lat="49.09394" lon="-1.2247">
        <ele>102.04</ele>
        <time>2021-07-30T16:23:48Z</time>
      </trkpt>
      <trkpt lat="49.09335" lon="-1.22783">
        <ele>97.23</ele>
        <time>2021-07-30T16:24:03Z</time>
      </trkpt>
      <trkpt lat="49.09327" lon="-1.22842">
        <ele>95.79</ele>
        <time>2021-07-30T16:24:07Z</time>
      </trkpt>
      <trkpt lat="49.09327" lon="-1.22855">
        <ele>95.79</ele>
        <time>2021-07-30T16:24:08Z</time>
      </trkpt>
      <trkpt lat="49.09327" lon="-1.22867">
        <ele>95.79</ele>
        <time>2021-07-30T16:24:09Z</time>
      </trkpt>
      <trkpt lat="49.09333" lon="-1.2289">
        <ele>96.27</ele>
        <time>2021-07-30T16:24:11Z</time>
      </trkpt>
      <trkpt lat="49.09333" lon="-1.22899">
        <ele>96.75</ele>
        <time>2021-07-30T16:24:12Z</time>
      </trkpt>
      <trkpt lat="49.09325" lon="-1.22916">
        <ele>96.75</ele>
        <time>2021-07-30T16:24:13Z</time>
      </trkpt>
      <trkpt lat="49.09317" lon="-1.22923">
        <ele>96.75</ele>
        <time>2021-07-30T16:24:14Z</time>
      </trkpt>
      <trkpt lat="49.09313" lon="-1.22933">
        <ele>96.27</ele>
        <time>2021-07-30T16:24:15Z</time>
      </trkpt>
      <trkpt lat="49.09313" lon="-1.22933">
        <ele>95.79</ele>
        <time>2021-07-30T16:24:16Z</time>
      </trkpt>
      <trkpt lat="49.09309" lon="-1.22943">
        <ele>95.79</ele>
        <time>2021-07-30T16:24:17Z</time>
      </trkpt>
      <trkpt lat="49.09305" lon="-1.22955">
        <ele>95.79</ele>
        <time>2021-07-30T16:24:18Z</time>
      </trkpt>
      <trkpt lat="49.09277" lon="-1.23095">
        <ele>89.54</ele>
        <time>2021-07-30T16:24:26Z</time>
      </trkpt>
      <trkpt lat="49.09229" lon="-1.23353">
        <ele>85.69</ele>
        <time>2021-07-30T16:24:36Z</time>
      </trkpt>
      <trkpt lat="49.09152" lon="-1.23762">
        <ele>80.89</ele>
        <time>2021-07-30T16:24:50Z</time>
      </trkpt>
      <trkpt lat="49.0906" lon="-1.24253">
        <ele>84.25</ele>
        <time>2021-07-30T16:25:07Z</time>
      </trkpt>
      <trkpt lat="49.08974" lon="-1.24701">
        <ele>96.27</ele>
        <time>2021-07-30T16:25:24Z</time>
      </trkpt>
      <trkpt lat="49.0894" lon="-1.2488">
        <ele>100.11</ele>
        <time>2021-07-30T16:25:32Z</time>
      </trkpt>
      <trkpt lat="49.08935" lon="-1.24907">
        <ele>100.6</ele>
        <time>2021-07-30T16:25:34Z</time>
      </trkpt>
      <trkpt lat="49.08933" lon="-1.24918">
        <ele>100.6</ele>
        <time>2021-07-30T16:25:35Z</time>
      </trkpt>
      <trkpt lat="49.08938" lon="-1.24939">
        <ele>100.6</ele>
        <time>2021-07-30T16:25:36Z</time>
      </trkpt>
      <trkpt lat="49.08936" lon="-1.24947">
        <ele>100.6</ele>
        <time>2021-07-30T16:25:37Z</time>
      </trkpt>
      <trkpt lat="49.08936" lon="-1.24947">
        <ele>101.08</ele>
        <time>2021-07-30T16:25:38Z</time>
      </trkpt>
      <trkpt lat="49.08934" lon="-1.24952">
        <ele>101.08</ele>
        <time>2021-07-30T16:25:39Z</time>
      </trkpt>
      <trkpt lat="49.08923" lon="-1.2497">
        <ele>100.6</ele>
        <time>2021-07-30T16:25:40Z</time>
      </trkpt>
      <trkpt lat="49.08921" lon="-1.2498">
        <ele>100.6</ele>
        <time>2021-07-30T16:25:41Z</time>
      </trkpt>
      <trkpt lat="49.08921" lon="-1.2498">
        <ele>100.11</ele>
        <time>2021-07-30T16:25:42Z</time>
      </trkpt>
      <trkpt lat="49.08919" lon="-1.2499">
        <ele>99.63</ele>
        <time>2021-07-30T16:25:43Z</time>
      </trkpt>
      <trkpt lat="49.08913" lon="-1.25017">
        <ele>100.11</ele>
        <time>2021-07-30T16:25:44Z</time>
      </trkpt>
      <trkpt lat="49.08883" lon="-1.25175">
        <ele>98.67</ele>
        <time>2021-07-30T16:25:53Z</time>
      </trkpt>
      <trkpt lat="49.08816" lon="-1.2553">
        <ele>92.42</ele>
        <time>2021-07-30T16:26:07Z</time>
      </trkpt>
      <trkpt lat="49.08771" lon="-1.25871">
        <ele>75.6</ele>
        <time>2021-07-30T16:26:20Z</time>
      </trkpt>
      <trkpt lat="49.08794" lon="-1.26104">
        <ele>67.43</ele>
        <time>2021-07-30T16:26:28Z</time>
      </trkpt>
      <trkpt lat="49.08814" lon="-1.26355">
        <ele>78.97</ele>
        <time>2021-07-30T16:26:37Z</time>
      </trkpt>
      <trkpt lat="49.08778" lon="-1.26584">
        <ele>84.73</ele>
        <time>2021-07-30T16:26:46Z</time>
      </trkpt>
      <trkpt lat="49.08689" lon="-1.27001">
        <ele>84.73</ele>
        <time>2021-07-30T16:27:02Z</time>
      </trkpt>
      <trkpt lat="49.08575" lon="-1.2753">
        <ele>92.9</ele>
        <time>2021-07-30T16:27:21Z</time>
      </trkpt>
      <trkpt lat="49.085" lon="-1.27881">
        <ele>105.4</ele>
        <time>2021-07-30T16:27:35Z</time>
      </trkpt>
      <trkpt lat="49.08413" lon="-1.2829">
        <ele>115.98</ele>
        <time>2021-07-30T16:27:51Z</time>
      </trkpt>
      <trkpt lat="49.08333" lon="-1.28654">
        <ele>121.74</ele>
        <time>2021-07-30T16:28:06Z</time>
      </trkpt>
      <trkpt lat="49.0824" lon="-1.29089">
        <ele>117.42</ele>
        <time>2021-07-30T16:28:23Z</time>
      </trkpt>
      <trkpt lat="49.08158" lon="-1.29484">
        <ele>114.05</ele>
        <time>2021-07-30T16:28:39Z</time>
      </trkpt>
      <trkpt lat="49.0805" lon="-1.30011">
        <ele>95.31</ele>
        <time>2021-07-30T16:29:00Z</time>
      </trkpt>
      <trkpt lat="49.08014" lon="-1.30329">
        <ele>82.33</ele>
        <time>2021-07-30T16:29:12Z</time>
      </trkpt>
      <trkpt lat="49.07934" lon="-1.30725">
        <ele>81.37</ele>
        <time>2021-07-30T16:29:25Z</time>
      </trkpt>
      <trkpt lat="49.07888" lon="-1.31023">
        <ele>95.31</ele>
        <time>2021-07-30T16:29:35Z</time>
      </trkpt>
      <trkpt lat="49.07892" lon="-1.31303">
        <ele>108.77</ele>
        <time>2021-07-30T16:29:45Z</time>
      </trkpt>
      <trkpt lat="49.07865" lon="-1.31517">
        <ele>115.01</ele>
        <time>2021-07-30T16:29:53Z</time>
      </trkpt>
      <trkpt lat="49.07753" lon="-1.31937">
        <ele>120.3</ele>
        <time>2021-07-30T16:30:08Z</time>
      </trkpt>
      <trkpt lat="49.07618" lon="-1.32445">
        <ele>124.63</ele>
        <time>2021-07-30T16:30:26Z</time>
      </trkpt>
      <trkpt lat="49.07532" lon="-1.32765">
        <ele>123.19</ele>
        <time>2021-07-30T16:30:38Z</time>
      </trkpt>
      <trkpt lat="49.07421" lon="-1.33185">
        <ele>125.11</ele>
        <time>2021-07-30T16:30:52Z</time>
      </trkpt>
      <trkpt lat="49.07395" lon="-1.33429">
        <ele>130.88</ele>
        <time>2021-07-30T16:31:00Z</time>
      </trkpt>
      <trkpt lat="49.07389" lon="-1.33879">
        <ele>126.55</ele>
        <time>2021-07-30T16:31:16Z</time>
      </trkpt>
      <trkpt lat="49.07383" lon="-1.34297">
        <ele>127.51</ele>
        <time>2021-07-30T16:31:31Z</time>
      </trkpt>
      <trkpt lat="49.07379" lon="-1.34613">
        <ele>127.51</ele>
        <time>2021-07-30T16:31:45Z</time>
      </trkpt>
      <trkpt lat="49.07372" lon="-1.35028">
        <ele>132.32</ele>
        <time>2021-07-30T16:32:03Z</time>
      </trkpt>
      <trkpt lat="49.07368" lon="-1.35401">
        <ele>137.61</ele>
        <time>2021-07-30T16:32:23Z</time>
      </trkpt>
      <trkpt lat="49.07361" lon="-1.35705">
        <ele>138.57</ele>
        <time>2021-07-30T16:32:35Z</time>
      </trkpt>
      <trkpt lat="49.07352" lon="-1.36073">
        <ele>145.3</ele>
        <time>2021-07-30T16:32:50Z</time>
      </trkpt>
      <trkpt lat="49.07323" lon="-1.36272">
        <ele>147.22</ele>
        <time>2021-07-30T16:32:58Z</time>
      </trkpt>
      <trkpt lat="49.07179" lon="-1.3684">
        <ele>135.68</ele>
        <time>2021-07-30T16:33:20Z</time>
      </trkpt>
      <trkpt lat="49.07041" lon="-1.37379">
        <ele>124.63</ele>
        <time>2021-07-30T16:33:40Z</time>
      </trkpt>
      <trkpt lat="49.06942" lon="-1.37774">
        <ele>114.05</ele>
        <time>2021-07-30T16:33:58Z</time>
      </trkpt>
      <trkpt lat="49.06827" lon="-1.38225">
        <ele>98.19</ele>
        <time>2021-07-30T16:34:16Z</time>
      </trkpt>
      <trkpt lat="49.06715" lon="-1.38661">
        <ele>102.52</ele>
        <time>2021-07-30T16:34:33Z</time>
      </trkpt>
      <trkpt lat="49.06604" lon="-1.39085">
        <ele>111.17</ele>
        <time>2021-07-30T16:34:52Z</time>
      </trkpt>
      <trkpt lat="49.0653" lon="-1.39375">
        <ele>116.94</ele>
        <time>2021-07-30T16:35:05Z</time>
      </trkpt>
      <trkpt lat="49.06484" lon="-1.39658">
        <ele>121.74</ele>
        <time>2021-07-30T16:35:16Z</time>
      </trkpt>
      <trkpt lat="49.06481" lon="-1.39938">
        <ele>129.92</ele>
        <time>2021-07-30T16:35:27Z</time>
      </trkpt>
      <trkpt lat="49.06527" lon="-1.40249">
        <ele>137.13</ele>
        <time>2021-07-30T16:35:38Z</time>
      </trkpt>
      <trkpt lat="49.06566" lon="-1.40475">
        <ele>131.36</ele>
        <time>2021-07-30T16:35:47Z</time>
      </trkpt>
      <trkpt lat="49.06645" lon="-1.40912">
        <ele>118.38</ele>
        <time>2021-07-30T16:36:04Z</time>
      </trkpt>
      <trkpt lat="49.06744" lon="-1.41486">
        <ele>114.05</ele>
        <time>2021-07-30T16:36:25Z</time>
      </trkpt>
      <trkpt lat="49.06802" lon="-1.41864">
        <ele>116.94</ele>
        <time>2021-07-30T16:36:37Z</time>
      </trkpt>
      <trkpt lat="49.06839" lon="-1.42116">
        <ele>126.55</ele>
        <time>2021-07-30T16:36:47Z</time>
      </trkpt>
      <trkpt lat="49.06887" lon="-1.42462">
        <ele>133.76</ele>
        <time>2021-07-30T16:37:00Z</time>
      </trkpt>
      <trkpt lat="49.0693" lon="-1.42795">
        <ele>130.88</ele>
        <time>2021-07-30T16:37:14Z</time>
      </trkpt>
      <trkpt lat="49.0694" lon="-1.42908">
        <ele>130.88</ele>
        <time>2021-07-30T16:37:22Z</time>
      </trkpt>
      <trkpt lat="49.06941" lon="-1.42955">
        <ele>129.43</ele>
        <time>2021-07-30T16:37:30Z</time>
      </trkpt>
      <trkpt lat="49.06951" lon="-1.42972">
        <ele>129.43</ele>
        <time>2021-07-30T16:37:39Z</time>
      </trkpt>
      <trkpt lat="49.06959" lon="-1.42981">
        <ele>129.43</ele>
        <time>2021-07-30T16:37:42Z</time>
      </trkpt>
      <trkpt lat="49.06962" lon="-1.42988">
        <ele>129.43</ele>
        <time>2021-07-30T16:37:43Z</time>
      </trkpt>
      <trkpt lat="49.06966" lon="-1.42996">
        <ele>129.43</ele>
        <time>2021-07-30T16:37:44Z</time>
      </trkpt>
      <trkpt lat="49.06967" lon="-1.43006">
        <ele>128.95</ele>
        <time>2021-07-30T16:37:45Z</time>
      </trkpt>
      <trkpt lat="49.06968" lon="-1.43017">
        <ele>128.95</ele>
        <time>2021-07-30T16:37:46Z</time>
      </trkpt>
      <trkpt lat="49.06963" lon="-1.43036">
        <ele>128.95</ele>
        <time>2021-07-30T16:37:47Z</time>
      </trkpt>
      <trkpt lat="49.06963" lon="-1.43036">
        <ele>128.47</ele>
        <time>2021-07-30T16:37:48Z</time>
      </trkpt>
      <trkpt lat="49.06959" lon="-1.43044">
        <ele>128.95</ele>
        <time>2021-07-30T16:37:49Z</time>
      </trkpt>
      <trkpt lat="49.06947" lon="-1.43055">
        <ele>128.95</ele>
        <time>2021-07-30T16:37:50Z</time>
      </trkpt>
      <trkpt lat="49.06947" lon="-1.43055">
        <ele>128.95</ele>
        <time>2021-07-30T16:37:51Z</time>
      </trkpt>
      <trkpt lat="49.0694" lon="-1.43058">
        <ele>128.47</ele>
        <time>2021-07-30T16:37:52Z</time>
      </trkpt>
      <trkpt lat="49.06933" lon="-1.4306">
        <ele>128.47</ele>
        <time>2021-07-30T16:37:53Z</time>
      </trkpt>
      <trkpt lat="49.06921" lon="-1.43051">
        <ele>127.99</ele>
        <time>2021-07-30T16:37:54Z</time>
      </trkpt>
      <trkpt lat="49.06921" lon="-1.43051">
        <ele>128.47</ele>
        <time>2021-07-30T16:37:55Z</time>
      </trkpt>
      <trkpt lat="49.06917" lon="-1.43045">
        <ele>128.47</ele>
        <time>2021-07-30T16:37:56Z</time>
      </trkpt>
      <trkpt lat="49.06912" lon="-1.43039">
        <ele>128.47</ele>
        <time>2021-07-30T16:37:57Z</time>
      </trkpt>
      <trkpt lat="49.0691" lon="-1.43032">
        <ele>128.47</ele>
        <time>2021-07-30T16:37:58Z</time>
      </trkpt>
      <trkpt lat="49.0691" lon="-1.43022">
        <ele>128.95</ele>
        <time>2021-07-30T16:37:59Z</time>
      </trkpt>
      <trkpt lat="49.06909" lon="-1.43001">
        <ele>128.95</ele>
        <time>2021-07-30T16:38:00Z</time>
      </trkpt>
      <trkpt lat="49.06909" lon="-1.43001">
        <ele>128.95</ele>
        <time>2021-07-30T16:38:01Z</time>
      </trkpt>
      <trkpt lat="49.06912" lon="-1.42992">
        <ele>129.43</ele>
        <time>2021-07-30T16:38:02Z</time>
      </trkpt>
      <trkpt lat="49.06916" lon="-1.42983">
        <ele>129.43</ele>
        <time>2021-07-30T16:38:03Z</time>
      </trkpt>
      <trkpt lat="49.06919" lon="-1.42975">
        <ele>129.43</ele>
        <time>2021-07-30T16:38:04Z</time>
      </trkpt>
      <trkpt lat="49.06922" lon="-1.42965">
        <ele>129.43</ele>
        <time>2021-07-30T16:38:05Z</time>
      </trkpt>
      <trkpt lat="49.06926" lon="-1.42956">
        <ele>129.43</ele>
        <time>2021-07-30T16:38:06Z</time>
      </trkpt>
      <trkpt lat="49.0693" lon="-1.42945">
        <ele>129.43</ele>
        <time>2021-07-30T16:38:07Z</time>
      </trkpt>
      <trkpt lat="49.06932" lon="-1.42932">
        <ele>129.43</ele>
        <time>2021-07-30T16:38:08Z</time>
      </trkpt>
      <trkpt lat="49.06932" lon="-1.42918">
        <ele>129.92</ele>
        <time>2021-07-30T16:38:09Z</time>
      </trkpt>
      <trkpt lat="49.06926" lon="-1.42734">
        <ele>129.43</ele>
        <time>2021-07-30T16:38:19Z</time>
      </trkpt>
      <trkpt lat="49.06864" lon="-1.42416">
        <ele>124.15</ele>
        <time>2021-07-30T16:38:35Z</time>
      </trkpt>
      <trkpt lat="49.0685" lon="-1.42349">
        <ele>122.22</ele>
        <time>2021-07-30T16:38:40Z</time>
      </trkpt>
      <trkpt lat="49.06849" lon="-1.42343">
        <ele>121.74</ele>
        <time>2021-07-30T16:38:41Z</time>
      </trkpt>
      <trkpt lat="49.06848" lon="-1.42339">
        <ele>121.74</ele>
        <time>2021-07-30T16:38:42Z</time>
      </trkpt>
      <trkpt lat="49.06848" lon="-1.42339">
        <ele>121.74</ele>
        <time>2021-07-30T16:38:48Z</time>
      </trkpt>
      <trkpt lat="49.06841" lon="-1.42333">
        <ele>121.74</ele>
        <time>2021-07-30T16:38:49Z</time>
      </trkpt>
      <trkpt lat="49.06837" lon="-1.42334">
        <ele>122.22</ele>
        <time>2021-07-30T16:38:50Z</time>
      </trkpt>
      <trkpt lat="49.06837" lon="-1.42334">
        <ele>122.22</ele>
        <time>2021-07-30T16:38:51Z</time>
      </trkpt>
      <trkpt lat="49.06832" lon="-1.42336">
        <ele>122.22</ele>
        <time>2021-07-30T16:38:52Z</time>
      </trkpt>
      <trkpt lat="49.06826" lon="-1.42338">
        <ele>121.74</ele>
        <time>2021-07-30T16:38:53Z</time>
      </trkpt>
      <trkpt lat="49.06756" lon="-1.4237">
        <ele>121.74</ele>
        <time>2021-07-30T16:39:00Z</time>
      </trkpt>
      <trkpt lat="49.06664" lon="-1.42462">
        <ele>124.63</ele>
        <time>2021-07-30T16:39:08Z</time>
      </trkpt>
      <trkpt lat="49.06523" lon="-1.42643">
        <ele>121.26</ele>
        <time>2021-07-30T16:39:20Z</time>
      </trkpt>
      <trkpt lat="49.06385" lon="-1.42729">
        <ele>115.01</ele>
        <time>2021-07-30T16:39:29Z</time>
      </trkpt>
      <trkpt lat="49.06243" lon="-1.42821">
        <ele>108.77</ele>
        <time>2021-07-30T16:39:40Z</time>
      </trkpt>
      <trkpt lat="49.06115" lon="-1.42932">
        <ele>104.92</ele>
        <time>2021-07-30T16:39:53Z</time>
      </trkpt>
      <trkpt lat="49.06083" lon="-1.42968">
        <ele>103.48</ele>
        <time>2021-07-30T16:39:59Z</time>
      </trkpt>
      <trkpt lat="49.06032" lon="-1.43055">
        <ele>103.48</ele>
        <time>2021-07-30T16:40:08Z</time>
      </trkpt>
      <trkpt lat="49.0601" lon="-1.43097">
        <ele>104.44</ele>
        <time>2021-07-30T16:40:13Z</time>
      </trkpt>
      <trkpt lat="49.06007" lon="-1.43103">
        <ele>104.44</ele>
        <time>2021-07-30T16:40:14Z</time>
      </trkpt>
      <trkpt lat="49.06001" lon="-1.4312">
        <ele>104.44</ele>
        <time>2021-07-30T16:40:15Z</time>
      </trkpt>
      <trkpt lat="49.06001" lon="-1.4312">
        <ele>103.96</ele>
        <time>2021-07-30T16:40:16Z</time>
      </trkpt>
      <trkpt lat="49.06003" lon="-1.43132">
        <ele>103.96</ele>
        <time>2021-07-30T16:40:17Z</time>
      </trkpt>
      <trkpt lat="49.06" lon="-1.43136">
        <ele>103.96</ele>
        <time>2021-07-30T16:40:18Z</time>
      </trkpt>
      <trkpt lat="49.06" lon="-1.43136">
        <ele>103.96</ele>
        <time>2021-07-30T16:40:19Z</time>
      </trkpt>
      <trkpt lat="49.05996" lon="-1.43137">
        <ele>103.96</ele>
        <time>2021-07-30T16:40:20Z</time>
      </trkpt>
      <trkpt lat="49.05992" lon="-1.43137">
        <ele>103.96</ele>
        <time>2021-07-30T16:40:21Z</time>
      </trkpt>
      <trkpt lat="49.05989" lon="-1.43137">
        <ele>103.96</ele>
        <time>2021-07-30T16:40:22Z</time>
      </trkpt>
      <trkpt lat="49.05987" lon="-1.43132">
        <ele>103.96</ele>
        <time>2021-07-30T16:40:23Z</time>
      </trkpt>
      <trkpt lat="49.05986" lon="-1.43129">
        <ele>104.44</ele>
        <time>2021-07-30T16:40:24Z</time>
      </trkpt>
      <trkpt lat="49.05982" lon="-1.43106">
        <ele>104.44</ele>
        <time>2021-07-30T16:40:25Z</time>
      </trkpt>
      <trkpt lat="49.05982" lon="-1.43106">
        <ele>104.44</ele>
        <time>2021-07-30T16:40:26Z</time>
      </trkpt>
      <trkpt lat="49.0597" lon="-1.43093">
        <ele>104.92</ele>
        <time>2021-07-30T16:40:27Z</time>
      </trkpt>
      <trkpt lat="49.05904" lon="-1.43025">
        <ele>103.96</ele>
        <time>2021-07-30T16:40:36Z</time>
      </trkpt>
      <trkpt lat="49.05867" lon="-1.42991">
        <ele>100.6</ele>
        <time>2021-07-30T16:40:41Z</time>
      </trkpt>
      <trkpt lat="49.05822" lon="-1.4295">
        <ele>101.56</ele>
        <time>2021-07-30T16:40:51Z</time>
      </trkpt>
      <trkpt lat="49.05795" lon="-1.42927">
        <ele>101.08</ele>
        <time>2021-07-30T16:40:57Z</time>
      </trkpt>
      <trkpt lat="49.05784" lon="-1.42925">
        <ele>101.08</ele>
        <time>2021-07-30T16:40:58Z</time>
      </trkpt>
      <trkpt lat="49.05779" lon="-1.42926">
        <ele>102.04</ele>
        <time>2021-07-30T16:41:01Z</time>
      </trkpt>
      <trkpt lat="49.05776" lon="-1.42924">
        <ele>102.52</ele>
        <time>2021-07-30T16:41:02Z</time>
      </trkpt>
      <trkpt lat="49.05772" lon="-1.42922">
        <ele>102.52</ele>
        <time>2021-07-30T16:41:03Z</time>
      </trkpt>
      <trkpt lat="49.05771" lon="-1.42917">
        <ele>102.52</ele>
        <time>2021-07-30T16:41:04Z</time>
      </trkpt>
      <trkpt lat="49.05771" lon="-1.42902">
        <ele>102.52</ele>
        <time>2021-07-30T16:41:05Z</time>
      </trkpt>
      <trkpt lat="49.05771" lon="-1.42902">
        <ele>102.52</ele>
        <time>2021-07-30T16:41:06Z</time>
      </trkpt>
      <trkpt lat="49.05774" lon="-1.42896">
        <ele>102.04</ele>
        <time>2021-07-30T16:41:07Z</time>
      </trkpt>
      <trkpt lat="49.05779" lon="-1.42894">
        <ele>102.04</ele>
        <time>2021-07-30T16:41:08Z</time>
      </trkpt>
      <trkpt lat="49.05784" lon="-1.42896">
        <ele>101.56</ele>
        <time>2021-07-30T16:41:09Z</time>
      </trkpt>
      <trkpt lat="49.05787" lon="-1.42901">
        <ele>101.56</ele>
        <time>2021-07-30T16:41:10Z</time>
      </trkpt>
      <trkpt lat="49.05789" lon="-1.42906">
        <ele>101.56</ele>
        <time>2021-07-30T16:41:11Z</time>
      </trkpt>
      <trkpt lat="49.05789" lon="-1.42914">
        <ele>101.56</ele>
        <time>2021-07-30T16:41:12Z</time>
      </trkpt>
      <trkpt lat="49.05786" lon="-1.42923">
        <ele>101.56</ele>
        <time>2021-07-30T16:41:13Z</time>
      </trkpt>
      <trkpt lat="49.05782" lon="-1.42927">
        <ele>101.08</ele>
        <time>2021-07-30T16:41:14Z</time>
      </trkpt>
      <trkpt lat="49.05774" lon="-1.42945">
        <ele>102.04</ele>
        <time>2021-07-30T16:41:15Z</time>
      </trkpt>
      <trkpt lat="49.0573" lon="-1.43066">
        <ele>103.48</ele>
        <time>2021-07-30T16:41:25Z</time>
      </trkpt>
      <trkpt lat="49.05638" lon="-1.43375">
        <ele>95.31</ele>
        <time>2021-07-30T16:41:44Z</time>
      </trkpt>
      <trkpt lat="49.05545" lon="-1.43668">
        <ele>87.62</ele>
        <time>2021-07-30T16:42:02Z</time>
      </trkpt>
      <trkpt lat="49.05446" lon="-1.43921">
        <ele>81.37</ele>
        <time>2021-07-30T16:42:20Z</time>
      </trkpt>
      <trkpt lat="49.05375" lon="-1.44097">
        <ele>77.52</ele>
        <time>2021-07-30T16:42:34Z</time>
      </trkpt>
      <trkpt lat="49.05368" lon="-1.44116">
        <ele>77.52</ele>
        <time>2021-07-30T16:42:36Z</time>
      </trkpt>
      <trkpt lat="49.05364" lon="-1.44126">
        <ele>77.52</ele>
        <time>2021-07-30T16:42:37Z</time>
      </trkpt>
      <trkpt lat="49.05247" lon="-1.44305">
        <ele>74.16</ele>
        <time>2021-07-30T16:42:57Z</time>
      </trkpt>
      <trkpt lat="49.05154" lon="-1.44444">
        <ele>71.76</ele>
        <time>2021-07-30T16:43:10Z</time>
      </trkpt>
      <trkpt lat="49.05089" lon="-1.44544">
        <ele>73.68</ele>
        <time>2021-07-30T16:43:22Z</time>
      </trkpt>
      <trkpt lat="49.05001" lon="-1.44677">
        <ele>74.16</ele>
        <time>2021-07-30T16:43:39Z</time>
      </trkpt>
      <trkpt lat="49.04987" lon="-1.44698">
        <ele>74.16</ele>
        <time>2021-07-30T16:43:47Z</time>
      </trkpt>
      <trkpt lat="49.0497" lon="-1.44723">
        <ele>73.2</ele>
        <time>2021-07-30T16:44:45Z</time>
      </trkpt>
      <trkpt lat="49.04888" lon="-1.44812">
        <ele>65.51</ele>
        <time>2021-07-30T16:44:55Z</time>
      </trkpt>
      <trkpt lat="49.04762" lon="-1.44912">
        <ele>59.26</ele>
        <time>2021-07-30T16:45:08Z</time>
      </trkpt>
      <trkpt lat="49.04652" lon="-1.44959">
        <ele>55.41</ele>
        <time>2021-07-30T16:45:17Z</time>
      </trkpt>
      <trkpt lat="49.04556" lon="-1.44942">
        <ele>53.49</ele>
        <time>2021-07-30T16:45:26Z</time>
      </trkpt>
      <trkpt lat="49.04398" lon="-1.4488">
        <ele>46.28</ele>
        <time>2021-07-30T16:45:38Z</time>
      </trkpt>
      <trkpt lat="49.04385" lon="-1.44878">
        <ele>45.32</ele>
        <time>2021-07-30T16:45:39Z</time>
      </trkpt>
      <trkpt lat="49.04371" lon="-1.44879">
        <ele>44.36</ele>
        <time>2021-07-30T16:45:40Z</time>
      </trkpt>
      <trkpt lat="49.04358" lon="-1.44879">
        <ele>44.36</ele>
        <time>2021-07-30T16:45:41Z</time>
      </trkpt>
      <trkpt lat="49.04345" lon="-1.4488">
        <ele>43.4</ele>
        <time>2021-07-30T16:45:42Z</time>
      </trkpt>
      <trkpt lat="49.04332" lon="-1.4488">
        <ele>42.44</ele>
        <time>2021-07-30T16:45:43Z</time>
      </trkpt>
      <trkpt lat="49.04319" lon="-1.44886">
        <ele>41.47</ele>
        <time>2021-07-30T16:45:44Z</time>
      </trkpt>
      <trkpt lat="49.04306" lon="-1.44894">
        <ele>40.99</ele>
        <time>2021-07-30T16:45:45Z</time>
      </trkpt>
      <trkpt lat="49.04241" lon="-1.44937">
        <ele>38.11</ele>
        <time>2021-07-30T16:45:51Z</time>
      </trkpt>
      <trkpt lat="49.04233" lon="-1.44938">
        <ele>37.15</ele>
        <time>2021-07-30T16:45:52Z</time>
      </trkpt>
      <trkpt lat="49.04224" lon="-1.4494">
        <ele>37.15</ele>
        <time>2021-07-30T16:45:53Z</time>
      </trkpt>
      <trkpt lat="49.04214" lon="-1.44937">
        <ele>36.19</ele>
        <time>2021-07-30T16:45:54Z</time>
      </trkpt>
      <trkpt lat="49.04205" lon="-1.44933">
        <ele>34.74</ele>
        <time>2021-07-30T16:45:55Z</time>
      </trkpt>
      <trkpt lat="49.04195" lon="-1.44925">
        <ele>33.3</ele>
        <time>2021-07-30T16:45:56Z</time>
      </trkpt>
      <trkpt lat="49.04185" lon="-1.44917">
        <ele>31.38</ele>
        <time>2021-07-30T16:45:57Z</time>
      </trkpt>
      <trkpt lat="49.0403" lon="-1.44774">
        <ele>20.81</ele>
        <time>2021-07-30T16:46:11Z</time>
      </trkpt>
      <trkpt lat="49.03987" lon="-1.44729">
        <ele>18.88</ele>
        <time>2021-07-30T16:46:17Z</time>
      </trkpt>
      <trkpt lat="49.03973" lon="-1.44728">
        <ele>18.88</ele>
        <time>2021-07-30T16:46:18Z</time>
      </trkpt>
      <trkpt lat="49.03973" lon="-1.44728">
        <ele>18.88</ele>
        <time>2021-07-30T16:46:19Z</time>
      </trkpt>
      <trkpt lat="49.03969" lon="-1.44725">
        <ele>18.4</ele>
        <time>2021-07-30T16:46:20Z</time>
      </trkpt>
      <trkpt lat="49.03967" lon="-1.44708">
        <ele>18.4</ele>
        <time>2021-07-30T16:46:21Z</time>
      </trkpt>
      <trkpt lat="49.03963" lon="-1.44705">
        <ele>18.4</ele>
        <time>2021-07-30T16:46:22Z</time>
      </trkpt>
      <trkpt lat="49.03892" lon="-1.44636">
        <ele>16.96</ele>
        <time>2021-07-30T16:46:32Z</time>
      </trkpt>
      <trkpt lat="49.03757" lon="-1.44514">
        <ele>15.04</ele>
        <time>2021-07-30T16:46:46Z</time>
      </trkpt>
      <trkpt lat="49.03653" lon="-1.44427">
        <ele>14.56</ele>
        <time>2021-07-30T16:46:58Z</time>
      </trkpt>
      <trkpt lat="49.0364" lon="-1.44416">
        <ele>15.52</ele>
        <time>2021-07-30T16:47:02Z</time>
      </trkpt>
      <trkpt lat="49.03632" lon="-1.44419">
        <ele>15.52</ele>
        <time>2021-07-30T16:47:03Z</time>
      </trkpt>
      <trkpt lat="49.03628" lon="-1.44422">
        <ele>15.52</ele>
        <time>2021-07-30T16:47:04Z</time>
      </trkpt>
      <trkpt lat="49.03621" lon="-1.44423">
        <ele>15.52</ele>
        <time>2021-07-30T16:47:05Z</time>
      </trkpt>
      <trkpt lat="49.03616" lon="-1.44418">
        <ele>15.52</ele>
        <time>2021-07-30T16:47:06Z</time>
      </trkpt>
      <trkpt lat="49.03608" lon="-1.44409">
        <ele>15.52</ele>
        <time>2021-07-30T16:47:07Z</time>
      </trkpt>
      <trkpt lat="49.03592" lon="-1.44412">
        <ele>15.52</ele>
        <time>2021-07-30T16:47:08Z</time>
      </trkpt>
      <trkpt lat="49.03582" lon="-1.44415">
        <ele>15.52</ele>
        <time>2021-07-30T16:47:09Z</time>
      </trkpt>
      <trkpt lat="49.035" lon="-1.44458">
        <ele>17.44</ele>
        <time>2021-07-30T16:47:17Z</time>
      </trkpt>
      <trkpt lat="49.03361" lon="-1.4457">
        <ele>17.44</ele>
        <time>2021-07-30T16:47:28Z</time>
      </trkpt>
      <trkpt lat="49.03191" lon="-1.4472">
        <ele>24.17</ele>
        <time>2021-07-30T16:47:43Z</time>
      </trkpt>
      <trkpt lat="49.0308" lon="-1.44889">
        <ele>27.53</ele>
        <time>2021-07-30T16:47:53Z</time>
      </trkpt>
      <trkpt lat="49.0301" lon="-1.45107">
        <ele>35.71</ele>
        <time>2021-07-30T16:48:02Z</time>
      </trkpt>
      <trkpt lat="49.02953" lon="-1.45308">
        <ele>44.84</ele>
        <time>2021-07-30T16:48:10Z</time>
      </trkpt>
      <trkpt lat="49.02942" lon="-1.4533">
        <ele>45.8</ele>
        <time>2021-07-30T16:48:11Z</time>
      </trkpt>
      <trkpt lat="49.02931" lon="-1.45352">
        <ele>47.72</ele>
        <time>2021-07-30T16:48:12Z</time>
      </trkpt>
      <trkpt lat="49.02917" lon="-1.45371">
        <ele>48.68</ele>
        <time>2021-07-30T16:48:13Z</time>
      </trkpt>
      <trkpt lat="49.02904" lon="-1.45389">
        <ele>50.13</ele>
        <time>2021-07-30T16:48:14Z</time>
      </trkpt>
      <trkpt lat="49.02889" lon="-1.45404">
        <ele>51.09</ele>
        <time>2021-07-30T16:48:15Z</time>
      </trkpt>
      <trkpt lat="49.02873" lon="-1.45417">
        <ele>51.57</ele>
        <time>2021-07-30T16:48:16Z</time>
      </trkpt>
      <trkpt lat="49.02856" lon="-1.4543">
        <ele>51.57</ele>
        <time>2021-07-30T16:48:17Z</time>
      </trkpt>
      <trkpt lat="49.0284" lon="-1.45441">
        <ele>52.53</ele>
        <time>2021-07-30T16:48:18Z</time>
      </trkpt>
      <trkpt lat="49.02821" lon="-1.45449">
        <ele>52.53</ele>
        <time>2021-07-30T16:48:19Z</time>
      </trkpt>
      <trkpt lat="49.02803" lon="-1.45453">
        <ele>53.01</ele>
        <time>2021-07-30T16:48:20Z</time>
      </trkpt>
      <trkpt lat="49.02784" lon="-1.45457">
        <ele>53.01</ele>
        <time>2021-07-30T16:48:21Z</time>
      </trkpt>
      <trkpt lat="49.02765" lon="-1.45459">
        <ele>54.45</ele>
        <time>2021-07-30T16:48:22Z</time>
      </trkpt>
      <trkpt lat="49.02746" lon="-1.45456">
        <ele>57.34</ele>
        <time>2021-07-30T16:48:23Z</time>
      </trkpt>
      <trkpt lat="49.02728" lon="-1.45453">
        <ele>58.3</ele>
        <time>2021-07-30T16:48:24Z</time>
      </trkpt>
      <trkpt lat="49.02709" lon="-1.45451">
        <ele>59.26</ele>
        <time>2021-07-30T16:48:25Z</time>
      </trkpt>
      <trkpt lat="49.02691" lon="-1.45445">
        <ele>60.22</ele>
        <time>2021-07-30T16:48:26Z</time>
      </trkpt>
      <trkpt lat="49.02673" lon="-1.45435">
        <ele>62.14</ele>
        <time>2021-07-30T16:48:27Z</time>
      </trkpt>
      <trkpt lat="49.0251" lon="-1.45354">
        <ele>70.79</ele>
        <time>2021-07-30T16:48:37Z</time>
      </trkpt>
      <trkpt lat="49.02424" lon="-1.45339">
        <ele>72.72</ele>
        <time>2021-07-30T16:48:44Z</time>
      </trkpt>
      <trkpt lat="49.02418" lon="-1.45338">
        <ele>72.72</ele>
        <time>2021-07-30T16:48:45Z</time>
      </trkpt>
      <trkpt lat="49.02415" lon="-1.45337">
        <ele>73.2</ele>
        <time>2021-07-30T16:48:46Z</time>
      </trkpt>
      <trkpt lat="49.0241" lon="-1.45357">
        <ele>73.2</ele>
        <time>2021-07-30T16:48:47Z</time>
      </trkpt>
      <trkpt lat="49.02406" lon="-1.45363">
        <ele>73.2</ele>
        <time>2021-07-30T16:48:48Z</time>
      </trkpt>
      <trkpt lat="49.02396" lon="-1.45369">
        <ele>73.2</ele>
        <time>2021-07-30T16:48:49Z</time>
      </trkpt>
      <trkpt lat="49.02389" lon="-1.45371">
        <ele>73.2</ele>
        <time>2021-07-30T16:48:50Z</time>
      </trkpt>
      <trkpt lat="49.02373" lon="-1.45371">
        <ele>73.2</ele>
        <time>2021-07-30T16:48:51Z</time>
      </trkpt>
      <trkpt lat="49.02373" lon="-1.45371">
        <ele>73.2</ele>
        <time>2021-07-30T16:48:52Z</time>
      </trkpt>
      <trkpt lat="49.02357" lon="-1.45381">
        <ele>73.2</ele>
        <time>2021-07-30T16:48:53Z</time>
      </trkpt>
      <trkpt lat="49.02357" lon="-1.45381">
        <ele>73.68</ele>
        <time>2021-07-30T16:48:54Z</time>
      </trkpt>
      <trkpt lat="49.0233" lon="-1.45399">
        <ele>71.76</ele>
        <time>2021-07-30T16:48:57Z</time>
      </trkpt>
      <trkpt lat="49.02321" lon="-1.45404">
        <ele>72.72</ele>
        <time>2021-07-30T16:48:58Z</time>
      </trkpt>
      <trkpt lat="49.0231" lon="-1.45407">
        <ele>71.76</ele>
        <time>2021-07-30T16:48:59Z</time>
      </trkpt>
      <trkpt lat="49.02188" lon="-1.45437">
        <ele>70.31</ele>
        <time>2021-07-30T16:49:09Z</time>
      </trkpt>
      <trkpt lat="49.02062" lon="-1.45505">
        <ele>62.62</ele>
        <time>2021-07-30T16:49:20Z</time>
      </trkpt>
      <trkpt lat="49.01837" lon="-1.45537">
        <ele>48.2</ele>
        <time>2021-07-30T16:49:35Z</time>
      </trkpt>
      <trkpt lat="49.01571" lon="-1.45577">
        <ele>32.34</ele>
        <time>2021-07-30T16:49:53Z</time>
      </trkpt>
      <trkpt lat="49.01394" lon="-1.45619">
        <ele>29.46</ele>
        <time>2021-07-30T16:50:04Z</time>
      </trkpt>
      <trkpt lat="49.01168" lon="-1.45669">
        <ele>27.53</ele>
        <time>2021-07-30T16:50:15Z</time>
      </trkpt>
      <trkpt lat="49.00961" lon="-1.45715">
        <ele>27.05</ele>
        <time>2021-07-30T16:50:25Z</time>
      </trkpt>
      <trkpt lat="49.00797" lon="-1.45753">
        <ele>22.73</ele>
        <time>2021-07-30T16:50:37Z</time>
      </trkpt>
      <trkpt lat="49.00699" lon="-1.45775">
        <ele>20.32</ele>
        <time>2021-07-30T16:50:46Z</time>
      </trkpt>
      <trkpt lat="49.00476" lon="-1.45827">
        <ele>10.71</ele>
        <time>2021-07-30T16:51:03Z</time>
      </trkpt>
      <trkpt lat="49.00264" lon="-1.45875">
        <ele>9.75</ele>
        <time>2021-07-30T16:51:20Z</time>
      </trkpt>
      <trkpt lat="49.00129" lon="-1.45905">
        <ele>14.08</ele>
        <time>2021-07-30T16:51:33Z</time>
      </trkpt>
      <trkpt lat="48.99955" lon="-1.45946">
        <ele>12.63</ele>
        <time>2021-07-30T16:51:50Z</time>
      </trkpt>
      <trkpt lat="48.99759" lon="-1.45989">
        <ele>6.87</ele>
        <time>2021-07-30T16:52:08Z</time>
      </trkpt>
      <trkpt lat="48.99672" lon="-1.46025">
        <ele>7.35</ele>
        <time>2021-07-30T16:52:17Z</time>
      </trkpt>
      <trkpt lat="48.99567" lon="-1.46088">
        <ele>5.91</ele>
        <time>2021-07-30T16:52:30Z</time>
      </trkpt>
      <trkpt lat="48.99561" lon="-1.46095">
        <ele>6.39</ele>
        <time>2021-07-30T16:52:31Z</time>
      </trkpt>
      <trkpt lat="48.99556" lon="-1.46104">
        <ele>6.39</ele>
        <time>2021-07-30T16:52:32Z</time>
      </trkpt>
      <trkpt lat="48.99551" lon="-1.46113">
        <ele>5.91</ele>
        <time>2021-07-30T16:52:33Z</time>
      </trkpt>
      <trkpt lat="48.99546" lon="-1.46123">
        <ele>5.91</ele>
        <time>2021-07-30T16:52:34Z</time>
      </trkpt>
      <trkpt lat="48.99544" lon="-1.46135">
        <ele>5.91</ele>
        <time>2021-07-30T16:52:35Z</time>
      </trkpt>
      <trkpt lat="48.99497" lon="-1.46288">
        <ele>9.75</ele>
        <time>2021-07-30T16:52:47Z</time>
      </trkpt>
      <trkpt lat="48.99444" lon="-1.46368">
        <ele>10.71</ele>
        <time>2021-07-30T16:52:57Z</time>
      </trkpt>
      <trkpt lat="48.99345" lon="-1.46451">
        <ele>11.19</ele>
        <time>2021-07-30T16:53:06Z</time>
      </trkpt>
      <trkpt lat="48.99242" lon="-1.46557">
        <ele>12.15</ele>
        <time>2021-07-30T16:53:14Z</time>
      </trkpt>
      <trkpt lat="48.99136" lon="-1.4671">
        <ele>12.63</ele>
        <time>2021-07-30T16:53:22Z</time>
      </trkpt>
      <trkpt lat="48.9905" lon="-1.46792">
        <ele>9.75</ele>
        <time>2021-07-30T16:53:28Z</time>
      </trkpt>
      <trkpt lat="48.99035" lon="-1.46802">
        <ele>9.27</ele>
        <time>2021-07-30T16:53:29Z</time>
      </trkpt>
      <trkpt lat="48.98873" lon="-1.46858">
        <ele>8.79</ele>
        <time>2021-07-30T16:53:39Z</time>
      </trkpt>
      <trkpt lat="48.98691" lon="-1.46858">
        <ele>9.27</ele>
        <time>2021-07-30T16:53:49Z</time>
      </trkpt>
      <trkpt lat="48.98334" lon="-1.46843">
        <ele>14.56</ele>
        <time>2021-07-30T16:54:08Z</time>
      </trkpt>
      <trkpt lat="48.97908" lon="-1.46821">
        <ele>21.77</ele>
        <time>2021-07-30T16:54:31Z</time>
      </trkpt>
      <trkpt lat="48.97682" lon="-1.46809">
        <ele>13.6</ele>
        <time>2021-07-30T16:54:44Z</time>
      </trkpt>
      <trkpt lat="48.97503" lon="-1.468">
        <ele>17.92</ele>
        <time>2021-07-30T16:54:56Z</time>
      </trkpt>
      <trkpt lat="48.97313" lon="-1.4679">
        <ele>23.69</ele>
        <time>2021-07-30T16:55:11Z</time>
      </trkpt>
      <trkpt lat="48.97238" lon="-1.46786">
        <ele>26.57</ele>
        <time>2021-07-30T16:55:20Z</time>
      </trkpt>
      <trkpt lat="48.97151" lon="-1.46781">
        <ele>27.53</ele>
        <time>2021-07-30T16:55:34Z</time>
      </trkpt>
      <trkpt lat="48.97099" lon="-1.4678">
        <ele>28.5</ele>
        <time>2021-07-30T16:55:43Z</time>
      </trkpt>
      <trkpt lat="48.97079" lon="-1.46783">
        <ele>29.46</ele>
        <time>2021-07-30T16:56:00Z</time>
      </trkpt>
      <trkpt lat="48.9705" lon="-1.46795">
        <ele>29.46</ele>
        <time>2021-07-30T16:56:10Z</time>
      </trkpt>
      <trkpt lat="48.96982" lon="-1.46836">
        <ele>33.78</ele>
        <time>2021-07-30T16:56:19Z</time>
      </trkpt>
      <trkpt lat="48.96904" lon="-1.46887">
        <ele>37.63</ele>
        <time>2021-07-30T16:56:29Z</time>
      </trkpt>
      <trkpt lat="48.96848" lon="-1.46924">
        <ele>40.03</ele>
        <time>2021-07-30T16:56:41Z</time>
      </trkpt>
      <trkpt lat="48.96792" lon="-1.46957">
        <ele>41.47</ele>
        <time>2021-07-30T16:56:51Z</time>
      </trkpt>
      <trkpt lat="48.9668" lon="-1.4703">
        <ele>45.32</ele>
        <time>2021-07-30T16:57:02Z</time>
      </trkpt>
      <trkpt lat="48.96558" lon="-1.47107">
        <ele>47.24</ele>
        <time>2021-07-30T16:57:12Z</time>
      </trkpt>
      <trkpt lat="48.96353" lon="-1.47241">
        <ele>52.05</ele>
        <time>2021-07-30T16:57:24Z</time>
      </trkpt>
      <trkpt lat="48.96129" lon="-1.47385">
        <ele>54.93</ele>
        <time>2021-07-30T16:57:37Z</time>
      </trkpt>
      <trkpt lat="48.95813" lon="-1.47589">
        <ele>48.2</ele>
        <time>2021-07-30T16:57:54Z</time>
      </trkpt>
      <trkpt lat="48.95487" lon="-1.478">
        <ele>54.93</ele>
        <time>2021-07-30T16:58:13Z</time>
      </trkpt>
      <trkpt lat="48.9517" lon="-1.48004">
        <ele>45.32</ele>
        <time>2021-07-30T16:58:31Z</time>
      </trkpt>
      <trkpt lat="48.94896" lon="-1.48181">
        <ele>51.09</ele>
        <time>2021-07-30T16:58:48Z</time>
      </trkpt>
      <trkpt lat="48.94466" lon="-1.4846">
        <ele>61.66</ele>
        <time>2021-07-30T16:59:12Z</time>
      </trkpt>
      <trkpt lat="48.94007" lon="-1.48751">
        <ele>59.26</ele>
        <time>2021-07-30T16:59:37Z</time>
      </trkpt>
      <trkpt lat="48.93684" lon="-1.48953">
        <ele>58.78</ele>
        <time>2021-07-30T16:59:55Z</time>
      </trkpt>
      <trkpt lat="48.93627" lon="-1.48991">
        <ele>59.26</ele>
        <time>2021-07-30T17:00:00Z</time>
      </trkpt>
      <trkpt lat="48.9352" lon="-1.49057">
        <ele>60.22</ele>
        <time>2021-07-30T17:00:11Z</time>
      </trkpt>
      <trkpt lat="48.93345" lon="-1.49168">
        <ele>60.7</ele>
        <time>2021-07-30T17:00:27Z</time>
      </trkpt>
      <trkpt lat="48.93147" lon="-1.4929">
        <ele>64.07</ele>
        <time>2021-07-30T17:00:44Z</time>
      </trkpt>
      <trkpt lat="48.93001" lon="-1.49384">
        <ele>63.58</ele>
        <time>2021-07-30T17:00:54Z</time>
      </trkpt>
      <trkpt lat="48.92702" lon="-1.49572">
        <ele>50.13</ele>
        <time>2021-07-30T17:01:10Z</time>
      </trkpt>
      <trkpt lat="48.92376" lon="-1.49777">
        <ele>39.55</ele>
        <time>2021-07-30T17:01:29Z</time>
      </trkpt>
      <trkpt lat="48.91979" lon="-1.50026">
        <ele>54.93</ele>
        <time>2021-07-30T17:01:51Z</time>
      </trkpt>
      <trkpt lat="48.91713" lon="-1.50192">
        <ele>66.95</ele>
        <time>2021-07-30T17:02:07Z</time>
      </trkpt>
      <trkpt lat="48.91434" lon="-1.50368">
        <ele>65.51</ele>
        <time>2021-07-30T17:02:25Z</time>
      </trkpt>
      <trkpt lat="48.91319" lon="-1.50425">
        <ele>63.1</ele>
        <time>2021-07-30T17:02:34Z</time>
      </trkpt>
      <trkpt lat="48.91298" lon="-1.50432">
        <ele>63.58</ele>
        <time>2021-07-30T17:02:37Z</time>
      </trkpt>
      <trkpt lat="48.91293" lon="-1.50434">
        <ele>64.07</ele>
        <time>2021-07-30T17:02:38Z</time>
      </trkpt>
      <trkpt lat="48.91289" lon="-1.50435">
        <ele>64.55</ele>
        <time>2021-07-30T17:02:39Z</time>
      </trkpt>
      <trkpt lat="48.91278" lon="-1.50456">
        <ele>64.55</ele>
        <time>2021-07-30T17:02:43Z</time>
      </trkpt>
      <trkpt lat="48.91275" lon="-1.50458">
        <ele>64.55</ele>
        <time>2021-07-30T17:02:44Z</time>
      </trkpt>
      <trkpt lat="48.91271" lon="-1.50459">
        <ele>64.55</ele>
        <time>2021-07-30T17:02:45Z</time>
      </trkpt>
      <trkpt lat="48.91267" lon="-1.50457">
        <ele>64.55</ele>
        <time>2021-07-30T17:02:46Z</time>
      </trkpt>
      <trkpt lat="48.91263" lon="-1.50454">
        <ele>64.55</ele>
        <time>2021-07-30T17:02:47Z</time>
      </trkpt>
      <trkpt lat="48.91261" lon="-1.50448">
        <ele>64.07</ele>
        <time>2021-07-30T17:02:48Z</time>
      </trkpt>
      <trkpt lat="48.9126" lon="-1.5044">
        <ele>63.58</ele>
        <time>2021-07-30T17:02:49Z</time>
      </trkpt>
      <trkpt lat="48.91251" lon="-1.50429">
        <ele>63.1</ele>
        <time>2021-07-30T17:02:50Z</time>
      </trkpt>
      <trkpt lat="48.91244" lon="-1.50427">
        <ele>63.1</ele>
        <time>2021-07-30T17:02:51Z</time>
      </trkpt>
      <trkpt lat="48.91228" lon="-1.50423">
        <ele>63.1</ele>
        <time>2021-07-30T17:02:52Z</time>
      </trkpt>
      <trkpt lat="48.91142" lon="-1.5039">
        <ele>61.18</ele>
        <time>2021-07-30T17:02:59Z</time>
      </trkpt>
      <trkpt lat="48.91" lon="-1.50298">
        <ele>58.78</ele>
        <time>2021-07-30T17:03:10Z</time>
      </trkpt>
      <trkpt lat="48.90864" lon="-1.5024">
        <ele>52.05</ele>
        <time>2021-07-30T17:03:18Z</time>
      </trkpt>
      <trkpt lat="48.90715" lon="-1.5025">
        <ele>51.57</ele>
        <time>2021-07-30T17:03:26Z</time>
      </trkpt>
      <trkpt lat="48.90556" lon="-1.50252">
        <ele>50.61</ele>
        <time>2021-07-30T17:03:35Z</time>
      </trkpt>
      <trkpt lat="48.90382" lon="-1.50174">
        <ele>50.13</ele>
        <time>2021-07-30T17:03:46Z</time>
      </trkpt>
      <trkpt lat="48.90254" lon="-1.50116">
        <ele>53.01</ele>
        <time>2021-07-30T17:03:56Z</time>
      </trkpt>
      <trkpt lat="48.90203" lon="-1.50104">
        <ele>53.49</ele>
        <time>2021-07-30T17:04:04Z</time>
      </trkpt>
      <trkpt lat="48.90196" lon="-1.50103">
        <ele>53.49</ele>
        <time>2021-07-30T17:04:05Z</time>
      </trkpt>
      <trkpt lat="48.9019" lon="-1.50101">
        <ele>53.97</ele>
        <time>2021-07-30T17:04:06Z</time>
      </trkpt>
      <trkpt lat="48.90178" lon="-1.50109">
        <ele>54.45</ele>
        <time>2021-07-30T17:04:08Z</time>
      </trkpt>
      <trkpt lat="48.90172" lon="-1.50114">
        <ele>54.45</ele>
        <time>2021-07-30T17:04:09Z</time>
      </trkpt>
      <trkpt lat="48.90163" lon="-1.50117">
        <ele>54.93</ele>
        <time>2021-07-30T17:04:10Z</time>
      </trkpt>
      <trkpt lat="48.90156" lon="-1.50117">
        <ele>55.41</ele>
        <time>2021-07-30T17:04:11Z</time>
      </trkpt>
      <trkpt lat="48.90147" lon="-1.50113">
        <ele>55.89</ele>
        <time>2021-07-30T17:04:12Z</time>
      </trkpt>
      <trkpt lat="48.90137" lon="-1.50095">
        <ele>55.89</ele>
        <time>2021-07-30T17:04:13Z</time>
      </trkpt>
      <trkpt lat="48.90137" lon="-1.50095">
        <ele>55.89</ele>
        <time>2021-07-30T17:04:14Z</time>
      </trkpt>
      <trkpt lat="48.90129" lon="-1.50071">
        <ele>56.37</ele>
        <time>2021-07-30T17:04:16Z</time>
      </trkpt>
      <trkpt lat="48.90122" lon="-1.50065">
        <ele>56.86</ele>
        <time>2021-07-30T17:04:17Z</time>
      </trkpt>
      <trkpt lat="48.90114" lon="-1.50058">
        <ele>57.34</ele>
        <time>2021-07-30T17:04:18Z</time>
      </trkpt>
      <trkpt lat="48.90106" lon="-1.50051">
        <ele>58.78</ele>
        <time>2021-07-30T17:04:19Z</time>
      </trkpt>
      <trkpt lat="48.90097" lon="-1.50047">
        <ele>59.74</ele>
        <time>2021-07-30T17:04:20Z</time>
      </trkpt>
      <trkpt lat="48.89979" lon="-1.50023">
        <ele>64.55</ele>
        <time>2021-07-30T17:04:29Z</time>
      </trkpt>
      <trkpt lat="48.89821" lon="-1.50045">
        <ele>67.91</ele>
        <time>2021-07-30T17:04:39Z</time>
      </trkpt>
      <trkpt lat="48.89694" lon="-1.50115">
        <ele>69.83</ele>
        <time>2021-07-30T17:04:48Z</time>
      </trkpt>
      <trkpt lat="48.89627" lon="-1.50169">
        <ele>67.43</ele>
        <time>2021-07-30T17:04:55Z</time>
      </trkpt>
      <trkpt lat="48.89604" lon="-1.50191">
        <ele>66.95</ele>
        <time>2021-07-30T17:05:02Z</time>
      </trkpt>
      <trkpt lat="48.896" lon="-1.50209">
        <ele>66.95</ele>
        <time>2021-07-30T17:05:06Z</time>
      </trkpt>
      <trkpt lat="48.89599" lon="-1.50218">
        <ele>66.95</ele>
        <time>2021-07-30T17:05:07Z</time>
      </trkpt>
      <trkpt lat="48.89596" lon="-1.50225">
        <ele>66.95</ele>
        <time>2021-07-30T17:05:08Z</time>
      </trkpt>
      <trkpt lat="48.89588" lon="-1.50225">
        <ele>66.47</ele>
        <time>2021-07-30T17:05:09Z</time>
      </trkpt>
      <trkpt lat="48.89578" lon="-1.50222">
        <ele>66.47</ele>
        <time>2021-07-30T17:05:10Z</time>
      </trkpt>
      <trkpt lat="48.89574" lon="-1.50228">
        <ele>65.99</ele>
        <time>2021-07-30T17:05:11Z</time>
      </trkpt>
      <trkpt lat="48.89569" lon="-1.50234">
        <ele>65.99</ele>
        <time>2021-07-30T17:05:12Z</time>
      </trkpt>
      <trkpt lat="48.89556" lon="-1.50251">
        <ele>65.51</ele>
        <time>2021-07-30T17:05:13Z</time>
      </trkpt>
      <trkpt lat="48.89493" lon="-1.50344">
        <ele>62.14</ele>
        <time>2021-07-30T17:05:21Z</time>
      </trkpt>
      <trkpt lat="48.89408" lon="-1.50531">
        <ele>57.82</ele>
        <time>2021-07-30T17:05:30Z</time>
      </trkpt>
      <trkpt lat="48.89276" lon="-1.50926">
        <ele>47.24</ele>
        <time>2021-07-30T17:05:44Z</time>
      </trkpt>
      <trkpt lat="48.89106" lon="-1.51434">
        <ele>39.55</ele>
        <time>2021-07-30T17:06:03Z</time>
      </trkpt>
      <trkpt lat="48.88983" lon="-1.51808">
        <ele>32.34</ele>
        <time>2021-07-30T17:06:18Z</time>
      </trkpt>
      <trkpt lat="48.88923" lon="-1.51984">
        <ele>24.17</ele>
        <time>2021-07-30T17:06:27Z</time>
      </trkpt>
      <trkpt lat="48.88895" lon="-1.52079">
        <ele>20.32</ele>
        <time>2021-07-30T17:06:34Z</time>
      </trkpt>
      <trkpt lat="48.88892" lon="-1.52088">
        <ele>20.32</ele>
        <time>2021-07-30T17:06:35Z</time>
      </trkpt>
      <trkpt lat="48.88889" lon="-1.52097">
        <ele>20.32</ele>
        <time>2021-07-30T17:06:36Z</time>
      </trkpt>
      <trkpt lat="48.88888" lon="-1.52101">
        <ele>20.32</ele>
        <time>2021-07-30T17:06:37Z</time>
      </trkpt>
      <trkpt lat="48.88894" lon="-1.52117">
        <ele>20.32</ele>
        <time>2021-07-30T17:06:38Z</time>
      </trkpt>
      <trkpt lat="48.8889" lon="-1.52132">
        <ele>20.81</ele>
        <time>2021-07-30T17:06:39Z</time>
      </trkpt>
      <trkpt lat="48.88888" lon="-1.52135">
        <ele>20.81</ele>
        <time>2021-07-30T17:06:40Z</time>
      </trkpt>
      <trkpt lat="48.88873" lon="-1.52135">
        <ele>20.81</ele>
        <time>2021-07-30T17:06:41Z</time>
      </trkpt>
      <trkpt lat="48.88869" lon="-1.52141">
        <ele>20.32</ele>
        <time>2021-07-30T17:06:42Z</time>
      </trkpt>
      <trkpt lat="48.88864" lon="-1.5215">
        <ele>20.32</ele>
        <time>2021-07-30T17:06:43Z</time>
      </trkpt>
      <trkpt lat="48.88803" lon="-1.52248">
        <ele>20.32</ele>
        <time>2021-07-30T17:06:50Z</time>
      </trkpt>
      <trkpt lat="48.88615" lon="-1.52486">
        <ele>33.78</ele>
        <time>2021-07-30T17:07:04Z</time>
      </trkpt>
      <trkpt lat="48.88459" lon="-1.52681">
        <ele>40.03</ele>
        <time>2021-07-30T17:07:16Z</time>
      </trkpt>
      <trkpt lat="48.88426" lon="-1.5272">
        <ele>41.47</ele>
        <time>2021-07-30T17:07:21Z</time>
      </trkpt>
      <trkpt lat="48.88421" lon="-1.52726">
        <ele>41.95</ele>
        <time>2021-07-30T17:07:22Z</time>
      </trkpt>
      <trkpt lat="48.8842" lon="-1.52727">
        <ele>42.44</ele>
        <time>2021-07-30T17:07:23Z</time>
      </trkpt>
      <trkpt lat="48.88417" lon="-1.52746">
        <ele>42.92</ele>
        <time>2021-07-30T17:07:24Z</time>
      </trkpt>
      <trkpt lat="48.88412" lon="-1.52751">
        <ele>42.92</ele>
        <time>2021-07-30T17:07:25Z</time>
      </trkpt>
      <trkpt lat="48.884" lon="-1.52744">
        <ele>43.4</ele>
        <time>2021-07-30T17:07:26Z</time>
      </trkpt>
      <trkpt lat="48.88396" lon="-1.52751">
        <ele>43.4</ele>
        <time>2021-07-30T17:07:27Z</time>
      </trkpt>
      <trkpt lat="48.88327" lon="-1.52844">
        <ele>44.84</ele>
        <time>2021-07-30T17:07:37Z</time>
      </trkpt>
      <trkpt lat="48.8822" lon="-1.52968">
        <ele>48.68</ele>
        <time>2021-07-30T17:07:50Z</time>
      </trkpt>
      <trkpt lat="48.88078" lon="-1.53072">
        <ele>54.93</ele>
        <time>2021-07-30T17:08:04Z</time>
      </trkpt>
      <trkpt lat="48.88024" lon="-1.53112">
        <ele>58.3</ele>
        <time>2021-07-30T17:08:11Z</time>
      </trkpt>
      <trkpt lat="48.87953" lon="-1.53162">
        <ele>61.18</ele>
        <time>2021-07-30T17:08:19Z</time>
      </trkpt>
      <trkpt lat="48.8779" lon="-1.53282">
        <ele>65.99</ele>
        <time>2021-07-30T17:08:32Z</time>
      </trkpt>
      <trkpt lat="48.87544" lon="-1.53459">
        <ele>69.35</ele>
        <time>2021-07-30T17:08:48Z</time>
      </trkpt>
      <trkpt lat="48.87343" lon="-1.53603">
        <ele>71.76</ele>
        <time>2021-07-30T17:09:01Z</time>
      </trkpt>
      <trkpt lat="48.87213" lon="-1.53697">
        <ele>75.12</ele>
        <time>2021-07-30T17:09:10Z</time>
      </trkpt>
      <trkpt lat="48.87021" lon="-1.53837">
        <ele>77.04</ele>
        <time>2021-07-30T17:09:24Z</time>
      </trkpt>
      <trkpt lat="48.86909" lon="-1.5392">
        <ele>77.04</ele>
        <time>2021-07-30T17:09:33Z</time>
      </trkpt>
      <trkpt lat="48.86835" lon="-1.53972">
        <ele>77.04</ele>
        <time>2021-07-30T17:09:42Z</time>
      </trkpt>
      <trkpt lat="48.86691" lon="-1.54066">
        <ele>76.08</ele>
        <time>2021-07-30T17:09:58Z</time>
      </trkpt>
      <trkpt lat="48.86617" lon="-1.54093">
        <ele>75.6</ele>
        <time>2021-07-30T17:10:08Z</time>
      </trkpt>
      <trkpt lat="48.86613" lon="-1.54094">
        <ele>75.6</ele>
        <time>2021-07-30T17:10:09Z</time>
      </trkpt>
      <trkpt lat="48.86609" lon="-1.54094">
        <ele>75.6</ele>
        <time>2021-07-30T17:10:10Z</time>
      </trkpt>
      <trkpt lat="48.86606" lon="-1.54105">
        <ele>75.12</ele>
        <time>2021-07-30T17:10:11Z</time>
      </trkpt>
      <trkpt lat="48.86605" lon="-1.54109">
        <ele>74.64</ele>
        <time>2021-07-30T17:10:12Z</time>
      </trkpt>
      <trkpt lat="48.86595" lon="-1.54118">
        <ele>74.16</ele>
        <time>2021-07-30T17:10:13Z</time>
      </trkpt>
      <trkpt lat="48.86588" lon="-1.54136">
        <ele>74.16</ele>
        <time>2021-07-30T17:10:14Z</time>
      </trkpt>
      <trkpt lat="48.86585" lon="-1.54144">
        <ele>73.68</ele>
        <time>2021-07-30T17:10:15Z</time>
      </trkpt>
      <trkpt lat="48.86585" lon="-1.54144">
        <ele>74.16</ele>
        <time>2021-07-30T17:10:16Z</time>
      </trkpt>
      <trkpt lat="48.86582" lon="-1.54151">
        <ele>74.16</ele>
        <time>2021-07-30T17:10:17Z</time>
      </trkpt>
      <trkpt lat="48.86571" lon="-1.54163">
        <ele>74.64</ele>
        <time>2021-07-30T17:10:18Z</time>
      </trkpt>
      <trkpt lat="48.86501" lon="-1.5422">
        <ele>75.12</ele>
        <time>2021-07-30T17:10:27Z</time>
      </trkpt>
      <trkpt lat="48.8645" lon="-1.5429">
        <ele>74.16</ele>
        <time>2021-07-30T17:10:33Z</time>
      </trkpt>
      <trkpt lat="48.86436" lon="-1.54317">
        <ele>73.2</ele>
        <time>2021-07-30T17:10:34Z</time>
      </trkpt>
      <trkpt lat="48.86322" lon="-1.54565">
        <ele>70.31</ele>
        <time>2021-07-30T17:10:52Z</time>
      </trkpt>
      <trkpt lat="48.86233" lon="-1.54752">
        <ele>70.79</ele>
        <time>2021-07-30T17:11:04Z</time>
      </trkpt>
      <trkpt lat="48.86082" lon="-1.55072">
        <ele>66.47</ele>
        <time>2021-07-30T17:11:20Z</time>
      </trkpt>
      <trkpt lat="48.85957" lon="-1.55337">
        <ele>64.07</ele>
        <time>2021-07-30T17:11:35Z</time>
      </trkpt>
      <trkpt lat="48.85908" lon="-1.55441">
        <ele>63.1</ele>
        <time>2021-07-30T17:11:43Z</time>
      </trkpt>
      <trkpt lat="48.85896" lon="-1.55466">
        <ele>62.62</ele>
        <time>2021-07-30T17:11:49Z</time>
      </trkpt>
      <trkpt lat="48.85893" lon="-1.55472">
        <ele>63.1</ele>
        <time>2021-07-30T17:11:50Z</time>
      </trkpt>
      <trkpt lat="48.8589" lon="-1.55478">
        <ele>63.1</ele>
        <time>2021-07-30T17:11:51Z</time>
      </trkpt>
      <trkpt lat="48.85887" lon="-1.55485">
        <ele>63.1</ele>
        <time>2021-07-30T17:11:52Z</time>
      </trkpt>
      <trkpt lat="48.85886" lon="-1.55487">
        <ele>63.1</ele>
        <time>2021-07-30T17:11:53Z</time>
      </trkpt>
      <trkpt lat="48.85888" lon="-1.55507">
        <ele>63.1</ele>
        <time>2021-07-30T17:11:54Z</time>
      </trkpt>
      <trkpt lat="48.85886" lon="-1.55515">
        <ele>63.1</ele>
        <time>2021-07-30T17:11:55Z</time>
      </trkpt>
      <trkpt lat="48.85878" lon="-1.55516">
        <ele>63.1</ele>
        <time>2021-07-30T17:11:56Z</time>
      </trkpt>
      <trkpt lat="48.85869" lon="-1.55523">
        <ele>62.62</ele>
        <time>2021-07-30T17:11:57Z</time>
      </trkpt>
      <trkpt lat="48.85864" lon="-1.55532">
        <ele>62.62</ele>
        <time>2021-07-30T17:11:58Z</time>
      </trkpt>
      <trkpt lat="48.85859" lon="-1.55544">
        <ele>61.66</ele>
        <time>2021-07-30T17:11:59Z</time>
      </trkpt>
      <trkpt lat="48.85785" lon="-1.55703">
        <ele>61.18</ele>
        <time>2021-07-30T17:12:08Z</time>
      </trkpt>
      <trkpt lat="48.85702" lon="-1.55879">
        <ele>59.26</ele>
        <time>2021-07-30T17:12:18Z</time>
      </trkpt>
      <trkpt lat="48.85641" lon="-1.56011">
        <ele>60.22</ele>
        <time>2021-07-30T17:12:29Z</time>
      </trkpt>
      <trkpt lat="48.85559" lon="-1.56188">
        <ele>64.55</ele>
        <time>2021-07-30T17:12:42Z</time>
      </trkpt>
      <trkpt lat="48.85534" lon="-1.56241">
        <ele>65.51</ele>
        <time>2021-07-30T17:12:50Z</time>
      </trkpt>
      <trkpt lat="48.85492" lon="-1.56329">
        <ele>66.47</ele>
        <time>2021-07-30T17:13:02Z</time>
      </trkpt>
      <trkpt lat="48.85431" lon="-1.56453">
        <ele>64.07</ele>
        <time>2021-07-30T17:13:19Z</time>
      </trkpt>
      <trkpt lat="48.85408" lon="-1.56502">
        <ele>63.58</ele>
        <time>2021-07-30T17:13:30Z</time>
      </trkpt>
      <trkpt lat="48.85405" lon="-1.56513">
        <ele>64.07</ele>
        <time>2021-07-30T17:13:32Z</time>
      </trkpt>
      <trkpt lat="48.85402" lon="-1.56519">
        <ele>64.07</ele>
        <time>2021-07-30T17:13:33Z</time>
      </trkpt>
      <trkpt lat="48.85401" lon="-1.56521">
        <ele>64.07</ele>
        <time>2021-07-30T17:13:34Z</time>
      </trkpt>
      <trkpt lat="48.85393" lon="-1.5653">
        <ele>63.1</ele>
        <time>2021-07-30T17:13:35Z</time>
      </trkpt>
      <trkpt lat="48.8539" lon="-1.56538">
        <ele>63.1</ele>
        <time>2021-07-30T17:13:36Z</time>
      </trkpt>
      <trkpt lat="48.8534" lon="-1.56649">
        <ele>61.66</ele>
        <time>2021-07-30T17:13:47Z</time>
      </trkpt>
      <trkpt lat="48.85319" lon="-1.56695">
        <ele>60.7</ele>
        <time>2021-07-30T17:13:57Z</time>
      </trkpt>
      <trkpt lat="48.85289" lon="-1.56759">
        <ele>59.74</ele>
        <time>2021-07-30T17:14:09Z</time>
      </trkpt>
      <trkpt lat="48.85266" lon="-1.56816">
        <ele>59.26</ele>
        <time>2021-07-30T17:14:21Z</time>
      </trkpt>
      <trkpt lat="48.85263" lon="-1.56837">
        <ele>58.78</ele>
        <time>2021-07-30T17:14:27Z</time>
      </trkpt>
      <trkpt lat="48.85262" lon="-1.56841">
        <ele>58.78</ele>
        <time>2021-07-30T17:14:28Z</time>
      </trkpt>
      <trkpt lat="48.85253" lon="-1.5684">
        <ele>58.78</ele>
        <time>2021-07-30T17:14:29Z</time>
      </trkpt>
      <trkpt lat="48.8525" lon="-1.56845">
        <ele>58.78</ele>
        <time>2021-07-30T17:14:30Z</time>
      </trkpt>
      <trkpt lat="48.85246" lon="-1.56851">
        <ele>58.78</ele>
        <time>2021-07-30T17:14:31Z</time>
      </trkpt>
      <trkpt lat="48.85242" lon="-1.56858">
        <ele>58.3</ele>
        <time>2021-07-30T17:14:32Z</time>
      </trkpt>
      <trkpt lat="48.85239" lon="-1.56865">
        <ele>58.3</ele>
        <time>2021-07-30T17:14:33Z</time>
      </trkpt>
      <trkpt lat="48.85177" lon="-1.56993">
        <ele>56.37</ele>
        <time>2021-07-30T17:14:47Z</time>
      </trkpt>
      <trkpt lat="48.85142" lon="-1.57068">
        <ele>55.41</ele>
        <time>2021-07-30T17:14:58Z</time>
      </trkpt>
      <trkpt lat="48.8511" lon="-1.57139">
        <ele>53.97</ele>
        <time>2021-07-30T17:15:07Z</time>
      </trkpt>
      <trkpt lat="48.85022" lon="-1.57322">
        <ele>48.68</ele>
        <time>2021-07-30T17:15:26Z</time>
      </trkpt>
      <trkpt lat="48.8497" lon="-1.57438">
        <ele>44.84</ele>
        <time>2021-07-30T17:15:40Z</time>
      </trkpt>
      <trkpt lat="48.84955" lon="-1.57485">
        <ele>44.36</ele>
        <time>2021-07-30T17:15:48Z</time>
      </trkpt>
      <trkpt lat="48.84953" lon="-1.5749">
        <ele>44.36</ele>
        <time>2021-07-30T17:15:49Z</time>
      </trkpt>
      <trkpt lat="48.84946" lon="-1.57495">
        <ele>44.36</ele>
        <time>2021-07-30T17:15:51Z</time>
      </trkpt>
      <trkpt lat="48.84943" lon="-1.57499">
        <ele>44.36</ele>
        <time>2021-07-30T17:15:52Z</time>
      </trkpt>
      <trkpt lat="48.8494" lon="-1.57505">
        <ele>43.88</ele>
        <time>2021-07-30T17:15:53Z</time>
      </trkpt>
      <trkpt lat="48.84894" lon="-1.57594">
        <ele>40.51</ele>
        <time>2021-07-30T17:16:07Z</time>
      </trkpt>
      <trkpt lat="48.84844" lon="-1.57701">
        <ele>35.71</ele>
        <time>2021-07-30T17:16:23Z</time>
      </trkpt>
      <trkpt lat="48.84804" lon="-1.57776">
        <ele>31.86</ele>
        <time>2021-07-30T17:16:37Z</time>
      </trkpt>
      <trkpt lat="48.848" lon="-1.57792">
        <ele>31.86</ele>
        <time>2021-07-30T17:16:39Z</time>
      </trkpt>
      <trkpt lat="48.84765" lon="-1.57864">
        <ele>28.5</ele>
        <time>2021-07-30T17:16:51Z</time>
      </trkpt>
      <trkpt lat="48.8476" lon="-1.57875">
        <ele>28.98</ele>
        <time>2021-07-30T17:16:57Z</time>
      </trkpt>
      <trkpt lat="48.84746" lon="-1.57906">
        <ele>27.53</ele>
        <time>2021-07-30T17:17:15Z</time>
      </trkpt>
      <trkpt lat="48.84713" lon="-1.57985">
        <ele>26.57</ele>
        <time>2021-07-30T17:17:26Z</time>
      </trkpt>
      <trkpt lat="48.84687" lon="-1.5804">
        <ele>26.09</ele>
        <time>2021-07-30T17:17:33Z</time>
      </trkpt>
      <trkpt lat="48.84683" lon="-1.58047">
        <ele>26.09</ele>
        <time>2021-07-30T17:17:34Z</time>
      </trkpt>
      <trkpt lat="48.84676" lon="-1.58059">
        <ele>26.09</ele>
        <time>2021-07-30T17:17:36Z</time>
      </trkpt>
      <trkpt lat="48.84636" lon="-1.58139">
        <ele>26.09</ele>
        <time>2021-07-30T17:17:46Z</time>
      </trkpt>
      <trkpt lat="48.84545" lon="-1.58334">
        <ele>28.98</ele>
        <time>2021-07-30T17:18:00Z</time>
      </trkpt>
      <trkpt lat="48.8452" lon="-1.58386">
        <ele>29.46</ele>
        <time>2021-07-30T17:18:06Z</time>
      </trkpt>
      <trkpt lat="48.84512" lon="-1.58398">
        <ele>29.94</ele>
        <time>2021-07-30T17:18:08Z</time>
      </trkpt>
      <trkpt lat="48.84508" lon="-1.58407">
        <ele>29.94</ele>
        <time>2021-07-30T17:18:09Z</time>
      </trkpt>
      <trkpt lat="48.84447" lon="-1.58544">
        <ele>31.86</ele>
        <time>2021-07-30T17:18:20Z</time>
      </trkpt>
      <trkpt lat="48.84402" lon="-1.58642">
        <ele>31.86</ele>
        <time>2021-07-30T17:18:31Z</time>
      </trkpt>
      <trkpt lat="48.84378" lon="-1.58691">
        <ele>32.82</ele>
        <time>2021-07-30T17:18:40Z</time>
      </trkpt>
      <trkpt lat="48.84355" lon="-1.58737">
        <ele>33.78</ele>
        <time>2021-07-30T17:18:50Z</time>
      </trkpt>
      <trkpt lat="48.84355" lon="-1.58737">
        <ele>33.78</ele>
        <time>2021-07-30T17:18:51Z</time>
      </trkpt>
      <trkpt lat="48.84316" lon="-1.58821">
        <ele>33.3</ele>
        <time>2021-07-30T17:19:01Z</time>
      </trkpt>
      <trkpt lat="48.84301" lon="-1.58856">
        <ele>33.78</ele>
        <time>2021-07-30T17:19:10Z</time>
      </trkpt>
      <trkpt lat="48.8427" lon="-1.58918">
        <ele>34.74</ele>
        <time>2021-07-30T17:19:20Z</time>
      </trkpt>
      <trkpt lat="48.84227" lon="-1.59006">
        <ele>36.19</ele>
        <time>2021-07-30T17:19:33Z</time>
      </trkpt>
      <trkpt lat="48.84206" lon="-1.59055">
        <ele>35.71</ele>
        <time>2021-07-30T17:19:45Z</time>
      </trkpt>
      <trkpt lat="48.84157" lon="-1.59161">
        <ele>36.19</ele>
        <time>2021-07-30T17:19:56Z</time>
      </trkpt>
      <trkpt lat="48.84088" lon="-1.59306">
        <ele>33.78</ele>
        <time>2021-07-30T17:20:12Z</time>
      </trkpt>
      <trkpt lat="48.84052" lon="-1.59381">
        <ele>32.34</ele>
        <time>2021-07-30T17:20:20Z</time>
      </trkpt>
      <trkpt lat="48.84047" lon="-1.59389">
        <ele>31.86</ele>
        <time>2021-07-30T17:20:21Z</time>
      </trkpt>
      <trkpt lat="48.84041" lon="-1.59397">
        <ele>31.86</ele>
        <time>2021-07-30T17:20:22Z</time>
      </trkpt>
      <trkpt lat="48.83959" lon="-1.59494">
        <ele>32.34</ele>
        <time>2021-07-30T17:20:36Z</time>
      </trkpt>
      <trkpt lat="48.83954" lon="-1.59498">
        <ele>32.34</ele>
        <time>2021-07-30T17:20:37Z</time>
      </trkpt>
      <trkpt lat="48.83944" lon="-1.59507">
        <ele>32.34</ele>
        <time>2021-07-30T17:20:38Z</time>
      </trkpt>
      <trkpt lat="48.83944" lon="-1.59507">
        <ele>32.34</ele>
        <time>2021-07-30T17:20:39Z</time>
      </trkpt>
      <trkpt lat="48.83939" lon="-1.59507">
        <ele>31.86</ele>
        <time>2021-07-30T17:20:40Z</time>
      </trkpt>
      <trkpt lat="48.83934" lon="-1.59506">
        <ele>31.86</ele>
        <time>2021-07-30T17:20:41Z</time>
      </trkpt>
      <trkpt lat="48.83928" lon="-1.59505">
        <ele>31.86</ele>
        <time>2021-07-30T17:20:42Z</time>
      </trkpt>
      <trkpt lat="48.8392" lon="-1.59502">
        <ele>31.86</ele>
        <time>2021-07-30T17:20:43Z</time>
      </trkpt>
      <trkpt lat="48.83917" lon="-1.59495">
        <ele>32.34</ele>
        <time>2021-07-30T17:20:44Z</time>
      </trkpt>
      <trkpt lat="48.83914" lon="-1.59488">
        <ele>32.34</ele>
        <time>2021-07-30T17:20:45Z</time>
      </trkpt>
      <trkpt lat="48.83914" lon="-1.59488">
        <ele>32.82</ele>
        <time>2021-07-30T17:20:46Z</time>
      </trkpt>
      <trkpt lat="48.83911" lon="-1.59481">
        <ele>32.82</ele>
        <time>2021-07-30T17:20:47Z</time>
      </trkpt>
      <trkpt lat="48.8391" lon="-1.59476">
        <ele>32.82</ele>
        <time>2021-07-30T17:20:48Z</time>
      </trkpt>
      <trkpt lat="48.8391" lon="-1.59467">
        <ele>32.82</ele>
        <time>2021-07-30T17:20:49Z</time>
      </trkpt>
      <trkpt lat="48.83909" lon="-1.59458">
        <ele>32.82</ele>
        <time>2021-07-30T17:20:50Z</time>
      </trkpt>
      <trkpt lat="48.83906" lon="-1.59359">
        <ele>30.9</ele>
        <time>2021-07-30T17:21:00Z</time>
      </trkpt>
      <trkpt lat="48.83903" lon="-1.59344">
        <ele>30.9</ele>
        <time>2021-07-30T17:21:01Z</time>
      </trkpt>
      <trkpt lat="48.83903" lon="-1.59344">
        <ele>30.9</ele>
        <time>2021-07-30T17:21:02Z</time>
      </trkpt>
      <trkpt lat="48.83901" lon="-1.59338">
        <ele>30.42</ele>
        <time>2021-07-30T17:21:03Z</time>
      </trkpt>
      <trkpt lat="48.83898" lon="-1.59334">
        <ele>30.42</ele>
        <time>2021-07-30T17:21:04Z</time>
      </trkpt>
      <trkpt lat="48.83892" lon="-1.5933">
        <ele>30.42</ele>
        <time>2021-07-30T17:21:05Z</time>
      </trkpt>
      <trkpt lat="48.83892" lon="-1.5933">
        <ele>29.94</ele>
        <time>2021-07-30T17:21:06Z</time>
      </trkpt>
      <trkpt lat="48.83888" lon="-1.59332">
        <ele>30.42</ele>
        <time>2021-07-30T17:21:07Z</time>
      </trkpt>
      <trkpt lat="48.83884" lon="-1.59334">
        <ele>30.42</ele>
        <time>2021-07-30T17:21:08Z</time>
      </trkpt>
      <trkpt lat="48.8388" lon="-1.59335">
        <ele>29.94</ele>
        <time>2021-07-30T17:21:09Z</time>
      </trkpt>
      <trkpt lat="48.83877" lon="-1.5934">
        <ele>28.5</ele>
        <time>2021-07-30T17:21:10Z</time>
      </trkpt>
      <trkpt lat="48.83874" lon="-1.59347">
        <ele>27.53</ele>
        <time>2021-07-30T17:21:11Z</time>
      </trkpt>
      <trkpt lat="48.83871" lon="-1.59357">
        <ele>27.05</ele>
        <time>2021-07-30T17:21:12Z</time>
      </trkpt>
      <trkpt lat="48.83872" lon="-1.59366">
        <ele>26.09</ele>
        <time>2021-07-30T17:21:13Z</time>
      </trkpt>
      <trkpt lat="48.83881" lon="-1.59487">
        <ele>21.29</ele>
        <time>2021-07-30T17:21:28Z</time>
      </trkpt>
      <trkpt lat="48.83882" lon="-1.59496">
        <ele>20.81</ele>
        <time>2021-07-30T17:21:29Z</time>
      </trkpt>
      <trkpt lat="48.83922" lon="-1.59634">
        <ele>16</ele>
        <time>2021-07-30T17:21:46Z</time>
      </trkpt>
      <trkpt lat="48.8392" lon="-1.5972">
        <ele>12.15</ele>
        <time>2021-07-30T17:22:00Z</time>
      </trkpt>
      <trkpt lat="48.83915" lon="-1.59743">
        <ele>9.27</ele>
        <time>2021-07-30T17:22:10Z</time>
      </trkpt>
      <trkpt lat="48.83909" lon="-1.59762">
        <ele>8.79</ele>
        <time>2021-07-30T17:22:20Z</time>
      </trkpt>
      <trkpt lat="48.83892" lon="-1.59796">
        <ele>6.87</ele>
        <time>2021-07-30T17:22:33Z</time>
      </trkpt>
      <trkpt lat="48.83874" lon="-1.59836">
        <ele>5.42</ele>
        <time>2021-07-30T17:22:44Z</time>
      </trkpt>
      <trkpt lat="48.83871" lon="-1.59843">
        <ele>4.46</ele>
        <time>2021-07-30T17:22:48Z</time>
      </trkpt>
      <trkpt lat="48.83871" lon="-1.59845">
        <ele>4.46</ele>
        <time>2021-07-30T17:22:49Z</time>
      </trkpt>
    </trkseg>
  </trk>
  <trk>
    <name><![CDATA[Journal actif: 2021-07-30 15:22]]></name>
    <trkseg>
      <trkpt lat="48.8387" lon="-1.59847">
        <ele>3.98</ele>
        <time>2021-07-30T17:22:52Z</time>
      </trkpt>
      <trkpt lat="48.83855" lon="-1.59882">
        <ele>6.39</ele>
        <time>2021-07-30T17:23:03Z</time>
      </trkpt>
      <trkpt lat="48.83849" lon="-1.59894">
        <ele>5.91</ele>
        <time>2021-07-30T17:23:17Z</time>
      </trkpt>
      <trkpt lat="48.83819" lon="-1.59917">
        <ele>3.98</ele>
        <time>2021-07-30T17:23:25Z</time>
      </trkpt>
      <trkpt lat="48.83778" lon="-1.59971">
        <ele>4.46</ele>
        <time>2021-07-30T17:23:35Z</time>
      </trkpt>
      <trkpt lat="48.83741" lon="-1.60062">
        <ele>4.46</ele>
        <time>2021-07-30T17:23:45Z</time>
      </trkpt>
      <trkpt lat="48.83726" lon="-1.60106">
        <ele>3.5</ele>
        <time>2021-07-30T17:23:57Z</time>
      </trkpt>
      <trkpt lat="48.83714" lon="-1.60121">
        <ele>2.54</ele>
        <time>2021-07-30T17:24:08Z</time>
      </trkpt>
      <trkpt lat="48.83691" lon="-1.60181">
        <ele>4.46</ele>
        <time>2021-07-30T17:24:18Z</time>
      </trkpt>
      <trkpt lat="48.83643" lon="-1.60318">
        <ele>4.46</ele>
        <time>2021-07-30T17:24:38Z</time>
      </trkpt>
      <trkpt lat="48.8364" lon="-1.60324">
        <ele>4.46</ele>
        <time>2021-07-30T17:24:39Z</time>
      </trkpt>
      <trkpt lat="48.83636" lon="-1.60329">
        <ele>4.46</ele>
        <time>2021-07-30T17:24:40Z</time>
      </trkpt>
      <trkpt lat="48.83616" lon="-1.60358">
        <ele>4.46</ele>
        <time>2021-07-30T17:24:45Z</time>
      </trkpt>
      <trkpt lat="48.83616" lon="-1.60358">
        <ele>4.46</ele>
        <time>2021-07-30T17:24:46Z</time>
      </trkpt>
      <trkpt lat="48.83596" lon="-1.60414">
        <ele>3.98</ele>
        <time>2021-07-30T17:24:57Z</time>
      </trkpt>
      <trkpt lat="48.8357" lon="-1.60481">
        <ele>3.02</ele>
        <time>2021-07-30T17:25:09Z</time>
      </trkpt>
      <trkpt lat="48.8356" lon="-1.60509">
        <ele>3.5</ele>
        <time>2021-07-30T17:25:19Z</time>
      </trkpt>
      <trkpt lat="48.83549" lon="-1.60538">
        <ele>3.5</ele>
        <time>2021-07-30T17:25:30Z</time>
      </trkpt>
      <trkpt lat="48.83523" lon="-1.60619">
        <ele>3.5</ele>
        <time>2021-07-30T17:25:44Z</time>
      </trkpt>
      <trkpt lat="48.83506" lon="-1.60676">
        <ele>3.5</ele>
        <time>2021-07-30T17:25:55Z</time>
      </trkpt>
      <trkpt lat="48.83483" lon="-1.6075">
        <ele>3.5</ele>
        <time>2021-07-30T17:26:07Z</time>
      </trkpt>
      <trkpt lat="48.83479" lon="-1.60755">
        <ele>3.02</ele>
        <time>2021-07-30T17:26:08Z</time>
      </trkpt>
      <trkpt lat="48.83475" lon="-1.60759">
        <ele>3.02</ele>
        <time>2021-07-30T17:26:09Z</time>
      </trkpt>
      <trkpt lat="48.83471" lon="-1.60764">
        <ele>3.02</ele>
        <time>2021-07-30T17:26:10Z</time>
      </trkpt>
      <trkpt lat="48.83466" lon="-1.60769">
        <ele>3.02</ele>
        <time>2021-07-30T17:26:11Z</time>
      </trkpt>
      <trkpt lat="48.83458" lon="-1.60777">
        <ele>3.02</ele>
        <time>2021-07-30T17:26:12Z</time>
      </trkpt>
      <trkpt lat="48.83423" lon="-1.60805">
        <ele>3.5</ele>
        <time>2021-07-30T17:26:23Z</time>
      </trkpt>
      <trkpt lat="48.83421" lon="-1.60806">
        <ele>3.98</ele>
        <time>2021-07-30T17:26:24Z</time>
      </trkpt>
      <trkpt lat="48.83419" lon="-1.60808">
        <ele>3.98</ele>
        <time>2021-07-30T17:26:25Z</time>
      </trkpt>
      <trkpt lat="48.83419" lon="-1.60808">
        <ele>3.98</ele>
        <time>2021-07-30T17:26:26Z</time>
      </trkpt>
      <trkpt lat="48.83419" lon="-1.60808">
        <ele>3.98</ele>
        <time>2021-07-30T17:26:27Z</time>
      </trkpt>
      <trkpt lat="48.83419" lon="-1.60808">
        <ele>4.46</ele>
        <time>2021-07-30T17:26:48Z</time>
      </trkpt>
      <trkpt lat="48.83693" lon="-1.59958">
        <ele>-0.82</ele>
        <time>2021-07-30T18:33:27Z</time>
      </trkpt>
      <trkpt lat="48.83662" lon="-1.59947">
        <ele>7.83</ele>
        <time>2021-07-30T18:33:38Z</time>
      </trkpt>
      <trkpt lat="48.83626" lon="-1.59869">
        <ele>10.23</ele>
        <time>2021-07-30T18:33:52Z</time>
      </trkpt>
      <trkpt lat="48.83567" lon="-1.59723">
        <ele>8.79</ele>
        <time>2021-07-30T18:34:10Z</time>
      </trkpt>
      <trkpt lat="48.83559" lon="-1.59646">
        <ele>8.31</ele>
        <time>2021-07-30T18:34:20Z</time>
      </trkpt>
      <trkpt lat="48.8356" lon="-1.596">
        <ele>7.35</ele>
        <time>2021-07-30T18:34:27Z</time>
      </trkpt>
      <trkpt lat="48.8356" lon="-1.59594">
        <ele>7.35</ele>
        <time>2021-07-30T18:34:28Z</time>
      </trkpt>
      <trkpt lat="48.8356" lon="-1.59587">
        <ele>7.35</ele>
        <time>2021-07-30T18:34:29Z</time>
      </trkpt>
      <trkpt lat="48.83554" lon="-1.59575">
        <ele>7.35</ele>
        <time>2021-07-30T18:34:31Z</time>
      </trkpt>
      <trkpt lat="48.83552" lon="-1.59568">
        <ele>7.35</ele>
        <time>2021-07-30T18:34:32Z</time>
      </trkpt>
      <trkpt lat="48.83552" lon="-1.59564">
        <ele>7.35</ele>
        <time>2021-07-30T18:34:33Z</time>
      </trkpt>
      <trkpt lat="48.83555" lon="-1.59555">
        <ele>7.35</ele>
        <time>2021-07-30T18:34:34Z</time>
      </trkpt>
      <trkpt lat="48.83555" lon="-1.59546">
        <ele>6.87</ele>
        <time>2021-07-30T18:34:35Z</time>
      </trkpt>
      <trkpt lat="48.83554" lon="-1.59541">
        <ele>6.87</ele>
        <time>2021-07-30T18:34:36Z</time>
      </trkpt>
      <trkpt lat="48.83553" lon="-1.59535">
        <ele>6.87</ele>
        <time>2021-07-30T18:34:37Z</time>
      </trkpt>
      <trkpt lat="48.83552" lon="-1.59529">
        <ele>6.87</ele>
        <time>2021-07-30T18:34:38Z</time>
      </trkpt>
      <trkpt lat="48.8355" lon="-1.59522">
        <ele>6.87</ele>
        <time>2021-07-30T18:34:39Z</time>
      </trkpt>
      <trkpt lat="48.83548" lon="-1.59515">
        <ele>6.87</ele>
        <time>2021-07-30T18:34:40Z</time>
      </trkpt>
      <trkpt lat="48.83507" lon="-1.59426">
        <ele>7.83</ele>
        <time>2021-07-30T18:34:54Z</time>
      </trkpt>
      <trkpt lat="48.83451" lon="-1.59316">
        <ele>6.87</ele>
        <time>2021-07-30T18:35:09Z</time>
      </trkpt>
      <trkpt lat="48.83406" lon="-1.59197">
        <ele>11.67</ele>
        <time>2021-07-30T18:35:20Z</time>
      </trkpt>
      <trkpt lat="48.83358" lon="-1.59067">
        <ele>15.52</ele>
        <time>2021-07-30T18:35:33Z</time>
      </trkpt>
      <trkpt lat="48.83356" lon="-1.59059">
        <ele>15.52</ele>
        <time>2021-07-30T18:35:34Z</time>
      </trkpt>
      <trkpt lat="48.83355" lon="-1.59051">
        <ele>16</ele>
        <time>2021-07-30T18:35:35Z</time>
      </trkpt>
      <trkpt lat="48.83354" lon="-1.59042">
        <ele>16.48</ele>
        <time>2021-07-30T18:35:36Z</time>
      </trkpt>
      <trkpt lat="48.83353" lon="-1.59033">
        <ele>16.48</ele>
        <time>2021-07-30T18:35:37Z</time>
      </trkpt>
      <trkpt lat="48.83352" lon="-1.59025">
        <ele>16.96</ele>
        <time>2021-07-30T18:35:38Z</time>
      </trkpt>
      <trkpt lat="48.83355" lon="-1.59016">
        <ele>17.44</ele>
        <time>2021-07-30T18:35:39Z</time>
      </trkpt>
      <trkpt lat="48.83357" lon="-1.59005">
        <ele>17.92</ele>
        <time>2021-07-30T18:35:40Z</time>
      </trkpt>
      <trkpt lat="48.83373" lon="-1.58933">
        <ele>19.36</ele>
        <time>2021-07-30T18:35:46Z</time>
      </trkpt>
      <trkpt lat="48.83374" lon="-1.58907">
        <ele>19.36</ele>
        <time>2021-07-30T18:35:47Z</time>
      </trkpt>
      <trkpt lat="48.83374" lon="-1.58907">
        <ele>19.36</ele>
        <time>2021-07-30T18:35:48Z</time>
      </trkpt>
      <trkpt lat="48.83374" lon="-1.58893">
        <ele>19.84</ele>
        <time>2021-07-30T18:35:49Z</time>
      </trkpt>
      <trkpt lat="48.83373" lon="-1.5888">
        <ele>21.29</ele>
        <time>2021-07-30T18:35:50Z</time>
      </trkpt>
      <trkpt lat="48.8337" lon="-1.58867">
        <ele>22.73</ele>
        <time>2021-07-30T18:35:51Z</time>
      </trkpt>
      <trkpt lat="48.83343" lon="-1.58748">
        <ele>29.94</ele>
        <time>2021-07-30T18:36:02Z</time>
      </trkpt>
      <trkpt lat="48.83332" lon="-1.58738">
        <ele>31.38</ele>
        <time>2021-07-30T18:36:07Z</time>
      </trkpt>
      <trkpt lat="48.83331" lon="-1.58732">
        <ele>31.38</ele>
        <time>2021-07-30T18:36:08Z</time>
      </trkpt>
      <trkpt lat="48.83331" lon="-1.58729">
        <ele>31.38</ele>
        <time>2021-07-30T18:36:09Z</time>
      </trkpt>
      <trkpt lat="48.83332" lon="-1.58711">
        <ele>31.38</ele>
        <time>2021-07-30T18:36:10Z</time>
      </trkpt>
      <trkpt lat="48.83332" lon="-1.58711">
        <ele>31.86</ele>
        <time>2021-07-30T18:36:11Z</time>
      </trkpt>
      <trkpt lat="48.83328" lon="-1.58696">
        <ele>31.86</ele>
        <time>2021-07-30T18:36:12Z</time>
      </trkpt>
      <trkpt lat="48.83328" lon="-1.58696">
        <ele>31.86</ele>
        <time>2021-07-30T18:36:13Z</time>
      </trkpt>
      <trkpt lat="48.83296" lon="-1.58577">
        <ele>32.34</ele>
        <time>2021-07-30T18:36:25Z</time>
      </trkpt>
      <trkpt lat="48.83254" lon="-1.58485">
        <ele>28.5</ele>
        <time>2021-07-30T18:36:34Z</time>
      </trkpt>
      <trkpt lat="48.83193" lon="-1.58392">
        <ele>22.25</ele>
        <time>2021-07-30T18:36:42Z</time>
      </trkpt>
      <trkpt lat="48.83188" lon="-1.5838">
        <ele>21.77</ele>
        <time>2021-07-30T18:36:43Z</time>
      </trkpt>
      <trkpt lat="48.83163" lon="-1.58297">
        <ele>18.4</ele>
        <time>2021-07-30T18:36:52Z</time>
      </trkpt>
      <trkpt lat="48.83151" lon="-1.58264">
        <ele>17.44</ele>
        <time>2021-07-30T18:36:58Z</time>
      </trkpt>
      <trkpt lat="48.83148" lon="-1.5826">
        <ele>17.44</ele>
        <time>2021-07-30T18:36:59Z</time>
      </trkpt>
      <trkpt lat="48.83144" lon="-1.58255">
        <ele>16.96</ele>
        <time>2021-07-30T18:37:00Z</time>
      </trkpt>
      <trkpt lat="48.83072" lon="-1.58185">
        <ele>17.44</ele>
        <time>2021-07-30T18:37:10Z</time>
      </trkpt>
      <trkpt lat="48.83017" lon="-1.58143">
        <ele>23.21</ele>
        <time>2021-07-30T18:37:19Z</time>
      </trkpt>
      <trkpt lat="48.82953" lon="-1.58091">
        <ele>28.5</ele>
        <time>2021-07-30T18:37:26Z</time>
      </trkpt>
      <trkpt lat="48.82947" lon="-1.58086">
        <ele>28.98</ele>
        <time>2021-07-30T18:37:27Z</time>
      </trkpt>
      <trkpt lat="48.82942" lon="-1.58082">
        <ele>29.46</ele>
        <time>2021-07-30T18:37:28Z</time>
      </trkpt>
      <trkpt lat="48.82936" lon="-1.58076">
        <ele>29.94</ele>
        <time>2021-07-30T18:37:30Z</time>
      </trkpt>
      <trkpt lat="48.82933" lon="-1.58073">
        <ele>30.42</ele>
        <time>2021-07-30T18:37:31Z</time>
      </trkpt>
      <trkpt lat="48.8293" lon="-1.5807">
        <ele>30.42</ele>
        <time>2021-07-30T18:37:32Z</time>
      </trkpt>
      <trkpt lat="48.82928" lon="-1.58067">
        <ele>30.42</ele>
        <time>2021-07-30T18:37:33Z</time>
      </trkpt>
      <trkpt lat="48.82925" lon="-1.58064">
        <ele>30.42</ele>
        <time>2021-07-30T18:37:34Z</time>
      </trkpt>
      <trkpt lat="48.82924" lon="-1.58062">
        <ele>30.42</ele>
        <time>2021-07-30T18:37:35Z</time>
      </trkpt>
      <trkpt lat="48.82922" lon="-1.58061">
        <ele>30.42</ele>
        <time>2021-07-30T18:37:51Z</time>
      </trkpt>
      <trkpt lat="48.82905" lon="-1.5804">
        <ele>30.9</ele>
        <time>2021-07-30T18:38:26Z</time>
      </trkpt>
      <trkpt lat="48.82895" lon="-1.58029">
        <ele>30.9</ele>
        <time>2021-07-30T18:38:36Z</time>
      </trkpt>
      <trkpt lat="48.8289" lon="-1.58024">
        <ele>31.38</ele>
        <time>2021-07-30T18:38:53Z</time>
      </trkpt>
      <trkpt lat="48.82887" lon="-1.58021">
        <ele>31.38</ele>
        <time>2021-07-30T18:38:54Z</time>
      </trkpt>
      <trkpt lat="48.82825" lon="-1.57949">
        <ele>31.86</ele>
        <time>2021-07-30T18:39:05Z</time>
      </trkpt>
      <trkpt lat="48.82754" lon="-1.57888">
        <ele>28.98</ele>
        <time>2021-07-30T18:39:16Z</time>
      </trkpt>
      <trkpt lat="48.8266" lon="-1.57832">
        <ele>20.81</ele>
        <time>2021-07-30T18:39:28Z</time>
      </trkpt>
      <trkpt lat="48.82524" lon="-1.57725">
        <ele>14.08</ele>
        <time>2021-07-30T18:39:43Z</time>
      </trkpt>
      <trkpt lat="48.82411" lon="-1.57584">
        <ele>16</ele>
        <time>2021-07-30T18:39:56Z</time>
      </trkpt>
      <trkpt lat="48.82379" lon="-1.57546">
        <ele>16</ele>
        <time>2021-07-30T18:40:00Z</time>
      </trkpt>
      <trkpt lat="48.8237" lon="-1.57538">
        <ele>17.92</ele>
        <time>2021-07-30T18:40:01Z</time>
      </trkpt>
      <trkpt lat="48.82256" lon="-1.57468">
        <ele>14.08</ele>
        <time>2021-07-30T18:40:14Z</time>
      </trkpt>
      <trkpt lat="48.82195" lon="-1.57417">
        <ele>9.27</ele>
        <time>2021-07-30T18:40:23Z</time>
      </trkpt>
      <trkpt lat="48.82192" lon="-1.57412">
        <ele>8.79</ele>
        <time>2021-07-30T18:40:24Z</time>
      </trkpt>
      <trkpt lat="48.8219" lon="-1.57407">
        <ele>8.79</ele>
        <time>2021-07-30T18:40:25Z</time>
      </trkpt>
      <trkpt lat="48.82187" lon="-1.57402">
        <ele>8.79</ele>
        <time>2021-07-30T18:40:34Z</time>
      </trkpt>
      <trkpt lat="48.82187" lon="-1.57402">
        <ele>8.31</ele>
        <time>2021-07-30T18:41:41Z</time>
      </trkpt>
      <trkpt lat="48.82184" lon="-1.57397">
        <ele>8.31</ele>
        <time>2021-07-30T18:41:42Z</time>
      </trkpt>
      <trkpt lat="48.82183" lon="-1.57395">
        <ele>7.83</ele>
        <time>2021-07-30T18:41:43Z</time>
      </trkpt>
      <trkpt lat="48.82182" lon="-1.57392">
        <ele>7.83</ele>
        <time>2021-07-30T18:41:44Z</time>
      </trkpt>
      <trkpt lat="48.82179" lon="-1.57388">
        <ele>7.35</ele>
        <time>2021-07-30T18:41:45Z</time>
      </trkpt>
      <trkpt lat="48.82177" lon="-1.57383">
        <ele>7.35</ele>
        <time>2021-07-30T18:41:46Z</time>
      </trkpt>
      <trkpt lat="48.82141" lon="-1.57336">
        <ele>3.5</ele>
        <time>2021-07-30T18:41:55Z</time>
      </trkpt>
      <trkpt lat="48.82136" lon="-1.57335">
        <ele>3.5</ele>
        <time>2021-07-30T18:41:56Z</time>
      </trkpt>
      <trkpt lat="48.8205" lon="-1.57308">
        <ele>0.62</ele>
        <time>2021-07-30T18:42:12Z</time>
      </trkpt>
      <trkpt lat="48.81955" lon="-1.5728">
        <ele>0.62</ele>
        <time>2021-07-30T18:42:27Z</time>
      </trkpt>
      <trkpt lat="48.81846" lon="-1.57246">
        <ele>0.14</ele>
        <time>2021-07-30T18:42:45Z</time>
      </trkpt>
      <trkpt lat="48.81728" lon="-1.5721">
        <ele>-0.82</ele>
        <time>2021-07-30T18:43:05Z</time>
      </trkpt>
      <trkpt lat="48.81652" lon="-1.57177">
        <ele>-0.34</ele>
        <time>2021-07-30T18:43:18Z</time>
      </trkpt>
      <trkpt lat="48.81652" lon="-1.57177">
        <ele>-0.34</ele>
        <time>2021-07-30T18:43:19Z</time>
      </trkpt>
      <trkpt lat="48.81648" lon="-1.57173">
        <ele>-0.34</ele>
        <time>2021-07-30T18:43:20Z</time>
      </trkpt>
      <trkpt lat="48.81646" lon="-1.57168">
        <ele>-0.34</ele>
        <time>2021-07-30T18:43:21Z</time>
      </trkpt>
      <trkpt lat="48.81644" lon="-1.57161">
        <ele>-0.34</ele>
        <time>2021-07-30T18:43:22Z</time>
      </trkpt>
      <trkpt lat="48.81642" lon="-1.57155">
        <ele>-0.82</ele>
        <time>2021-07-30T18:43:23Z</time>
      </trkpt>
      <trkpt lat="48.81636" lon="-1.57119">
        <ele>1.1</ele>
        <time>2021-07-30T18:43:33Z</time>
      </trkpt>
      <trkpt lat="48.81634" lon="-1.57094">
        <ele>3.5</ele>
        <time>2021-07-30T18:43:43Z</time>
      </trkpt>
      <trkpt lat="48.81608" lon="-1.57051">
        <ele>6.39</ele>
        <time>2021-07-30T18:43:55Z</time>
      </trkpt>
      <trkpt lat="48.81559" lon="-1.57037">
        <ele>10.23</ele>
        <time>2021-07-30T18:44:10Z</time>
      </trkpt>
      <trkpt lat="48.81531" lon="-1.57001">
        <ele>11.67</ele>
        <time>2021-07-30T18:44:21Z</time>
      </trkpt>
      <trkpt lat="48.81509" lon="-1.57023">
        <ele>12.63</ele>
        <time>2021-07-30T18:44:29Z</time>
      </trkpt>
      <trkpt lat="48.81506" lon="-1.57025">
        <ele>12.63</ele>
        <time>2021-07-30T18:44:30Z</time>
      </trkpt>
      <trkpt lat="48.81501" lon="-1.57023">
        <ele>12.63</ele>
        <time>2021-07-30T18:44:31Z</time>
      </trkpt>
      <trkpt lat="48.81497" lon="-1.57021">
        <ele>12.63</ele>
        <time>2021-07-30T18:44:32Z</time>
      </trkpt>
      <trkpt lat="48.81493" lon="-1.57019">
        <ele>12.63</ele>
        <time>2021-07-30T18:44:33Z</time>
      </trkpt>
      <trkpt lat="48.81431" lon="-1.56968">
        <ele>7.35</ele>
        <time>2021-07-30T18:44:46Z</time>
      </trkpt>
      <trkpt lat="48.81379" lon="-1.56934">
        <ele>3.5</ele>
        <time>2021-07-30T18:44:54Z</time>
      </trkpt>
      <trkpt lat="48.81373" lon="-1.56932">
        <ele>3.5</ele>
        <time>2021-07-30T18:44:55Z</time>
      </trkpt>
      <trkpt lat="48.81368" lon="-1.56933">
        <ele>3.5</ele>
        <time>2021-07-30T18:44:56Z</time>
      </trkpt>
      <trkpt lat="48.81364" lon="-1.56936">
        <ele>3.5</ele>
        <time>2021-07-30T18:44:57Z</time>
      </trkpt>
      <trkpt lat="48.8136" lon="-1.5694">
        <ele>3.5</ele>
        <time>2021-07-30T18:44:58Z</time>
      </trkpt>
      <trkpt lat="48.81349" lon="-1.56947">
        <ele>3.02</ele>
        <time>2021-07-30T18:44:59Z</time>
      </trkpt>
      <trkpt lat="48.81344" lon="-1.56951">
        <ele>2.54</ele>
        <time>2021-07-30T18:45:01Z</time>
      </trkpt>
      <trkpt lat="48.81333" lon="-1.56959">
        <ele>2.06</ele>
        <time>2021-07-30T18:45:02Z</time>
      </trkpt>
      <trkpt lat="48.81333" lon="-1.56959">
        <ele>2.06</ele>
        <time>2021-07-30T18:45:03Z</time>
      </trkpt>
      <trkpt lat="48.81321" lon="-1.56964">
        <ele>2.06</ele>
        <time>2021-07-30T18:45:04Z</time>
      </trkpt>
      <trkpt lat="48.81321" lon="-1.56964">
        <ele>2.06</ele>
        <time>2021-07-30T18:45:05Z</time>
      </trkpt>
      <trkpt lat="48.81222" lon="-1.56991">
        <ele>1.58</ele>
        <time>2021-07-30T18:45:18Z</time>
      </trkpt>
      <trkpt lat="48.81093" lon="-1.57032">
        <ele>1.1</ele>
        <time>2021-07-30T18:45:32Z</time>
      </trkpt>
      <trkpt lat="48.81003" lon="-1.57044">
        <ele>3.98</ele>
        <time>2021-07-30T18:45:44Z</time>
      </trkpt>
      <trkpt lat="48.80895" lon="-1.57046">
        <ele>13.6</ele>
        <time>2021-07-30T18:45:56Z</time>
      </trkpt>
      <trkpt lat="48.8087" lon="-1.57046">
        <ele>14.56</ele>
        <time>2021-07-30T18:46:04Z</time>
      </trkpt>
      <trkpt lat="48.80815" lon="-1.57048">
        <ele>19.84</ele>
        <time>2021-07-30T18:46:13Z</time>
      </trkpt>
      <trkpt lat="48.8074" lon="-1.57044">
        <ele>20.81</ele>
        <time>2021-07-30T18:46:23Z</time>
      </trkpt>
      <trkpt lat="48.80733" lon="-1.57041">
        <ele>20.32</ele>
        <time>2021-07-30T18:46:24Z</time>
      </trkpt>
      <trkpt lat="48.80726" lon="-1.57039">
        <ele>19.84</ele>
        <time>2021-07-30T18:46:25Z</time>
      </trkpt>
      <trkpt lat="48.80721" lon="-1.57035">
        <ele>19.36</ele>
        <time>2021-07-30T18:46:26Z</time>
      </trkpt>
      <trkpt lat="48.80716" lon="-1.57029">
        <ele>18.88</ele>
        <time>2021-07-30T18:46:27Z</time>
      </trkpt>
      <trkpt lat="48.80711" lon="-1.57022">
        <ele>18.4</ele>
        <time>2021-07-30T18:46:28Z</time>
      </trkpt>
      <trkpt lat="48.80705" lon="-1.57016">
        <ele>17.92</ele>
        <time>2021-07-30T18:46:29Z</time>
      </trkpt>
      <trkpt lat="48.80701" lon="-1.5701">
        <ele>17.44</ele>
        <time>2021-07-30T18:46:30Z</time>
      </trkpt>
      <trkpt lat="48.80697" lon="-1.57001">
        <ele>16.96</ele>
        <time>2021-07-30T18:46:31Z</time>
      </trkpt>
      <trkpt lat="48.80694" lon="-1.56992">
        <ele>16.48</ele>
        <time>2021-07-30T18:46:32Z</time>
      </trkpt>
      <trkpt lat="48.80658" lon="-1.56908">
        <ele>11.67</ele>
        <time>2021-07-30T18:46:40Z</time>
      </trkpt>
      <trkpt lat="48.8065" lon="-1.56898">
        <ele>9.75</ele>
        <time>2021-07-30T18:46:41Z</time>
      </trkpt>
      <trkpt lat="48.80644" lon="-1.56889">
        <ele>9.27</ele>
        <time>2021-07-30T18:46:42Z</time>
      </trkpt>
      <trkpt lat="48.80638" lon="-1.56881">
        <ele>8.79</ele>
        <time>2021-07-30T18:46:43Z</time>
      </trkpt>
      <trkpt lat="48.80633" lon="-1.56875">
        <ele>8.31</ele>
        <time>2021-07-30T18:46:44Z</time>
      </trkpt>
      <trkpt lat="48.80625" lon="-1.56871">
        <ele>7.83</ele>
        <time>2021-07-30T18:46:45Z</time>
      </trkpt>
      <trkpt lat="48.80507" lon="-1.56827">
        <ele>0.62</ele>
        <time>2021-07-30T18:46:58Z</time>
      </trkpt>
      <trkpt lat="48.80444" lon="-1.56803">
        <ele>-0.34</ele>
        <time>2021-07-30T18:47:08Z</time>
      </trkpt>
      <trkpt lat="48.80289" lon="-1.56743">
        <ele>-1.79</ele>
        <time>2021-07-30T18:47:24Z</time>
      </trkpt>
      <trkpt lat="48.80095" lon="-1.56666">
        <ele>-0.82</ele>
        <time>2021-07-30T18:47:40Z</time>
      </trkpt>
      <trkpt lat="48.79926" lon="-1.5661">
        <ele>-0.82</ele>
        <time>2021-07-30T18:47:55Z</time>
      </trkpt>
      <trkpt lat="48.79784" lon="-1.56581">
        <ele>-1.3</ele>
        <time>2021-07-30T18:48:08Z</time>
      </trkpt>
      <trkpt lat="48.79609" lon="-1.56549">
        <ele>-1.79</ele>
        <time>2021-07-30T18:48:24Z</time>
      </trkpt>
      <trkpt lat="48.79577" lon="-1.56543">
        <ele>-1.3</ele>
        <time>2021-07-30T18:48:32Z</time>
      </trkpt>
      <trkpt lat="48.79526" lon="-1.56536">
        <ele>-1.3</ele>
        <time>2021-07-30T18:48:44Z</time>
      </trkpt>
      <trkpt lat="48.79515" lon="-1.56535">
        <ele>-1.3</ele>
        <time>2021-07-30T18:48:47Z</time>
      </trkpt>
      <trkpt lat="48.79511" lon="-1.56534">
        <ele>-1.3</ele>
        <time>2021-07-30T18:48:48Z</time>
      </trkpt>
      <trkpt lat="48.79488" lon="-1.56541">
        <ele>-1.3</ele>
        <time>2021-07-30T18:48:54Z</time>
      </trkpt>
      <trkpt lat="48.79485" lon="-1.56526">
        <ele>-1.3</ele>
        <time>2021-07-30T18:48:55Z</time>
      </trkpt>
      <trkpt lat="48.7948" lon="-1.56525">
        <ele>-1.3</ele>
        <time>2021-07-30T18:48:56Z</time>
      </trkpt>
      <trkpt lat="48.79451" lon="-1.5652">
        <ele>-1.3</ele>
        <time>2021-07-30T18:49:07Z</time>
      </trkpt>
      <trkpt lat="48.79429" lon="-1.56515">
        <ele>-0.82</ele>
        <time>2021-07-30T18:49:17Z</time>
      </trkpt>
      <trkpt lat="48.79361" lon="-1.56501">
        <ele>-0.34</ele>
        <time>2021-07-30T18:49:28Z</time>
      </trkpt>
      <trkpt lat="48.79332" lon="-1.56496">
        <ele>-0.34</ele>
        <time>2021-07-30T18:49:36Z</time>
      </trkpt>
      <trkpt lat="48.79306" lon="-1.5649">
        <ele>0.14</ele>
        <time>2021-07-30T18:49:46Z</time>
      </trkpt>
      <trkpt lat="48.79235" lon="-1.56475">
        <ele>-0.34</ele>
        <time>2021-07-30T18:49:56Z</time>
      </trkpt>
      <trkpt lat="48.79101" lon="-1.5645">
        <ele>-1.3</ele>
        <time>2021-07-30T18:50:09Z</time>
      </trkpt>
      <trkpt lat="48.78986" lon="-1.56447">
        <ele>-0.82</ele>
        <time>2021-07-30T18:50:21Z</time>
      </trkpt>
      <trkpt lat="48.78916" lon="-1.56484">
        <ele>0.62</ele>
        <time>2021-07-30T18:50:31Z</time>
      </trkpt>
      <trkpt lat="48.78877" lon="-1.5651">
        <ele>1.58</ele>
        <time>2021-07-30T18:50:42Z</time>
      </trkpt>
      <trkpt lat="48.78867" lon="-1.56516">
        <ele>2.06</ele>
        <time>2021-07-30T18:50:52Z</time>
      </trkpt>
      <trkpt lat="48.7885" lon="-1.56527">
        <ele>2.06</ele>
        <time>2021-07-30T18:51:01Z</time>
      </trkpt>
      <trkpt lat="48.78802" lon="-1.56559">
        <ele>2.54</ele>
        <time>2021-07-30T18:51:11Z</time>
      </trkpt>
      <trkpt lat="48.78678" lon="-1.56638">
        <ele>2.54</ele>
        <time>2021-07-30T18:51:25Z</time>
      </trkpt>
      <trkpt lat="48.78474" lon="-1.56751">
        <ele>1.1</ele>
        <time>2021-07-30T18:51:44Z</time>
      </trkpt>
      <trkpt lat="48.78336" lon="-1.56754">
        <ele>1.1</ele>
        <time>2021-07-30T18:51:57Z</time>
      </trkpt>
      <trkpt lat="48.78125" lon="-1.56754">
        <ele>1.1</ele>
        <time>2021-07-30T18:52:17Z</time>
      </trkpt>
      <trkpt lat="48.77932" lon="-1.56755">
        <ele>-0.34</ele>
        <time>2021-07-30T18:52:36Z</time>
      </trkpt>
      <trkpt lat="48.77828" lon="-1.56755">
        <ele>0.14</ele>
        <time>2021-07-30T18:52:49Z</time>
      </trkpt>
      <trkpt lat="48.77728" lon="-1.56757">
        <ele>-0.82</ele>
        <time>2021-07-30T18:53:05Z</time>
      </trkpt>
      <trkpt lat="48.77662" lon="-1.56758">
        <ele>-0.34</ele>
        <time>2021-07-30T18:53:20Z</time>
      </trkpt>
      <trkpt lat="48.77628" lon="-1.56759">
        <ele>0.14</ele>
        <time>2021-07-30T18:53:32Z</time>
      </trkpt>
      <trkpt lat="48.77618" lon="-1.56759">
        <ele>0.14</ele>
        <time>2021-07-30T18:53:44Z</time>
      </trkpt>
      <trkpt lat="48.77598" lon="-1.5676">
        <ele>0.62</ele>
        <time>2021-07-30T18:54:00Z</time>
      </trkpt>
      <trkpt lat="48.77583" lon="-1.5676">
        <ele>0.62</ele>
        <time>2021-07-30T18:54:03Z</time>
      </trkpt>
      <trkpt lat="48.77578" lon="-1.56761">
        <ele>0.62</ele>
        <time>2021-07-30T18:54:04Z</time>
      </trkpt>
      <trkpt lat="48.77569" lon="-1.56763">
        <ele>1.1</ele>
        <time>2021-07-30T18:54:06Z</time>
      </trkpt>
      <trkpt lat="48.77566" lon="-1.56767">
        <ele>1.1</ele>
        <time>2021-07-30T18:54:07Z</time>
      </trkpt>
      <trkpt lat="48.77559" lon="-1.56759">
        <ele>0.62</ele>
        <time>2021-07-30T18:54:08Z</time>
      </trkpt>
      <trkpt lat="48.77504" lon="-1.56761">
        <ele>0.62</ele>
        <time>2021-07-30T18:54:20Z</time>
      </trkpt>
      <trkpt lat="48.77417" lon="-1.56763">
        <ele>0.62</ele>
        <time>2021-07-30T18:54:34Z</time>
      </trkpt>
      <trkpt lat="48.77294" lon="-1.56758">
        <ele>1.1</ele>
        <time>2021-07-30T18:54:49Z</time>
      </trkpt>
      <trkpt lat="48.77102" lon="-1.56757">
        <ele>1.58</ele>
        <time>2021-07-30T18:55:09Z</time>
      </trkpt>
      <trkpt lat="48.77055" lon="-1.56759">
        <ele>1.58</ele>
        <time>2021-07-30T18:55:17Z</time>
      </trkpt>
      <trkpt lat="48.77009" lon="-1.56765">
        <ele>1.58</ele>
        <time>2021-07-30T18:55:28Z</time>
      </trkpt>
      <trkpt lat="48.769" lon="-1.56785">
        <ele>0.62</ele>
        <time>2021-07-30T18:55:43Z</time>
      </trkpt>
      <trkpt lat="48.76805" lon="-1.56798">
        <ele>0.62</ele>
        <time>2021-07-30T18:55:57Z</time>
      </trkpt>
      <trkpt lat="48.76699" lon="-1.56813">
        <ele>1.58</ele>
        <time>2021-07-30T18:56:09Z</time>
      </trkpt>
      <trkpt lat="48.76528" lon="-1.56839">
        <ele>2.54</ele>
        <time>2021-07-30T18:56:25Z</time>
      </trkpt>
      <trkpt lat="48.76379" lon="-1.56861">
        <ele>2.54</ele>
        <time>2021-07-30T18:56:39Z</time>
      </trkpt>
      <trkpt lat="48.76262" lon="-1.56879">
        <ele>2.06</ele>
        <time>2021-07-30T18:56:52Z</time>
      </trkpt>
      <trkpt lat="48.76121" lon="-1.56899">
        <ele>0.14</ele>
        <time>2021-07-30T18:57:05Z</time>
      </trkpt>
      <trkpt lat="48.76111" lon="-1.56899">
        <ele>0.14</ele>
        <time>2021-07-30T18:57:06Z</time>
      </trkpt>
      <trkpt lat="48.76101" lon="-1.56898">
        <ele>1.1</ele>
        <time>2021-07-30T18:57:07Z</time>
      </trkpt>
      <trkpt lat="48.76082" lon="-1.56889">
        <ele>1.58</ele>
        <time>2021-07-30T18:57:08Z</time>
      </trkpt>
      <trkpt lat="48.76082" lon="-1.56889">
        <ele>2.06</ele>
        <time>2021-07-30T18:57:09Z</time>
      </trkpt>
      <trkpt lat="48.76073" lon="-1.5688">
        <ele>2.06</ele>
        <time>2021-07-30T18:57:10Z</time>
      </trkpt>
      <trkpt lat="48.76064" lon="-1.5687">
        <ele>2.54</ele>
        <time>2021-07-30T18:57:11Z</time>
      </trkpt>
      <trkpt lat="48.76054" lon="-1.56859">
        <ele>3.5</ele>
        <time>2021-07-30T18:57:12Z</time>
      </trkpt>
      <trkpt lat="48.76044" lon="-1.56848">
        <ele>4.46</ele>
        <time>2021-07-30T18:57:13Z</time>
      </trkpt>
      <trkpt lat="48.75925" lon="-1.56692">
        <ele>17.44</ele>
        <time>2021-07-30T18:57:24Z</time>
      </trkpt>
      <trkpt lat="48.75792" lon="-1.56612">
        <ele>31.86</ele>
        <time>2021-07-30T18:57:33Z</time>
      </trkpt>
      <trkpt lat="48.7567" lon="-1.56577">
        <ele>45.8</ele>
        <time>2021-07-30T18:57:43Z</time>
      </trkpt>
      <trkpt lat="48.75519" lon="-1.56543">
        <ele>49.65</ele>
        <time>2021-07-30T18:57:55Z</time>
      </trkpt>
      <trkpt lat="48.75482" lon="-1.56525">
        <ele>52.05</ele>
        <time>2021-07-30T18:58:01Z</time>
      </trkpt>
      <trkpt lat="48.75423" lon="-1.56495">
        <ele>54.93</ele>
        <time>2021-07-30T18:58:09Z</time>
      </trkpt>
      <trkpt lat="48.75291" lon="-1.56424">
        <ele>53.49</ele>
        <time>2021-07-30T18:58:24Z</time>
      </trkpt>
      <trkpt lat="48.75232" lon="-1.56398">
        <ele>54.45</ele>
        <time>2021-07-30T18:58:34Z</time>
      </trkpt>
      <trkpt lat="48.75214" lon="-1.56382">
        <ele>53.97</ele>
        <time>2021-07-30T18:58:37Z</time>
      </trkpt>
      <trkpt lat="48.75209" lon="-1.56377">
        <ele>53.97</ele>
        <time>2021-07-30T18:58:38Z</time>
      </trkpt>
      <trkpt lat="48.75201" lon="-1.56361">
        <ele>53.97</ele>
        <time>2021-07-30T18:58:39Z</time>
      </trkpt>
      <trkpt lat="48.75201" lon="-1.56361">
        <ele>53.97</ele>
        <time>2021-07-30T18:58:40Z</time>
      </trkpt>
      <trkpt lat="48.75197" lon="-1.56352">
        <ele>53.49</ele>
        <time>2021-07-30T18:58:41Z</time>
      </trkpt>
      <trkpt lat="48.75193" lon="-1.56343">
        <ele>53.49</ele>
        <time>2021-07-30T18:58:42Z</time>
      </trkpt>
      <trkpt lat="48.7513" lon="-1.56198">
        <ele>49.65</ele>
        <time>2021-07-30T18:58:57Z</time>
      </trkpt>
      <trkpt lat="48.75113" lon="-1.56165">
        <ele>48.2</ele>
        <time>2021-07-30T18:59:00Z</time>
      </trkpt>
      <trkpt lat="48.75107" lon="-1.56156">
        <ele>47.72</ele>
        <time>2021-07-30T18:59:01Z</time>
      </trkpt>
      <trkpt lat="48.75032" lon="-1.56091">
        <ele>46.28</ele>
        <time>2021-07-30T18:59:13Z</time>
      </trkpt>
      <trkpt lat="48.75001" lon="-1.5606">
        <ele>45.32</ele>
        <time>2021-07-30T18:59:19Z</time>
      </trkpt>
      <trkpt lat="48.74995" lon="-1.56057">
        <ele>45.32</ele>
        <time>2021-07-30T18:59:20Z</time>
      </trkpt>
      <trkpt lat="48.7494" lon="-1.56035">
        <ele>44.84</ele>
        <time>2021-07-30T18:59:28Z</time>
      </trkpt>
      <trkpt lat="48.74906" lon="-1.56027">
        <ele>43.88</ele>
        <time>2021-07-30T18:59:33Z</time>
      </trkpt>
      <trkpt lat="48.749" lon="-1.56026">
        <ele>43.4</ele>
        <time>2021-07-30T18:59:34Z</time>
      </trkpt>
      <trkpt lat="48.74889" lon="-1.56018">
        <ele>43.4</ele>
        <time>2021-07-30T18:59:35Z</time>
      </trkpt>
      <trkpt lat="48.74889" lon="-1.56018">
        <ele>43.4</ele>
        <time>2021-07-30T18:59:36Z</time>
      </trkpt>
      <trkpt lat="48.74885" lon="-1.56014">
        <ele>43.4</ele>
        <time>2021-07-30T18:59:37Z</time>
      </trkpt>
      <trkpt lat="48.74883" lon="-1.56005">
        <ele>43.88</ele>
        <time>2021-07-30T18:59:38Z</time>
      </trkpt>
      <trkpt lat="48.74881" lon="-1.55996">
        <ele>43.4</ele>
        <time>2021-07-30T18:59:39Z</time>
      </trkpt>
      <trkpt lat="48.7488" lon="-1.55988">
        <ele>43.4</ele>
        <time>2021-07-30T18:59:40Z</time>
      </trkpt>
      <trkpt lat="48.7487" lon="-1.55903">
        <ele>47.24</ele>
        <time>2021-07-30T18:59:49Z</time>
      </trkpt>
      <trkpt lat="48.7487" lon="-1.55896">
        <ele>47.24</ele>
        <time>2021-07-30T18:59:50Z</time>
      </trkpt>
      <trkpt lat="48.74869" lon="-1.55889">
        <ele>47.72</ele>
        <time>2021-07-30T18:59:51Z</time>
      </trkpt>
      <trkpt lat="48.74862" lon="-1.55874">
        <ele>47.72</ele>
        <time>2021-07-30T18:59:52Z</time>
      </trkpt>
      <trkpt lat="48.74862" lon="-1.55874">
        <ele>47.24</ele>
        <time>2021-07-30T18:59:53Z</time>
      </trkpt>
      <trkpt lat="48.74857" lon="-1.5587">
        <ele>47.24</ele>
        <time>2021-07-30T18:59:54Z</time>
      </trkpt>
      <trkpt lat="48.7483" lon="-1.55846">
        <ele>46.76</ele>
        <time>2021-07-30T18:59:59Z</time>
      </trkpt>
      <trkpt lat="48.74821" lon="-1.55839">
        <ele>46.76</ele>
        <time>2021-07-30T19:00:00Z</time>
      </trkpt>
      <trkpt lat="48.74816" lon="-1.55839">
        <ele>46.76</ele>
        <time>2021-07-30T19:00:01Z</time>
      </trkpt>
      <trkpt lat="48.74816" lon="-1.55839">
        <ele>46.28</ele>
        <time>2021-07-30T19:00:02Z</time>
      </trkpt>
      <trkpt lat="48.74812" lon="-1.55843">
        <ele>46.28</ele>
        <time>2021-07-30T19:00:03Z</time>
      </trkpt>
      <trkpt lat="48.74807" lon="-1.55849">
        <ele>45.8</ele>
        <time>2021-07-30T19:00:04Z</time>
      </trkpt>
      <trkpt lat="48.74724" lon="-1.55924">
        <ele>44.36</ele>
        <time>2021-07-30T19:00:16Z</time>
      </trkpt>
      <trkpt lat="48.74628" lon="-1.55949">
        <ele>38.11</ele>
        <time>2021-07-30T19:00:26Z</time>
      </trkpt>
      <trkpt lat="48.7459" lon="-1.55958">
        <ele>37.63</ele>
        <time>2021-07-30T19:00:29Z</time>
      </trkpt>
      <trkpt lat="48.7459" lon="-1.55958">
        <ele>37.63</ele>
        <time>2021-07-30T19:00:30Z</time>
      </trkpt>
      <trkpt lat="48.74573" lon="-1.55958">
        <ele>38.11</ele>
        <time>2021-07-30T19:00:31Z</time>
      </trkpt>
      <trkpt lat="48.74502" lon="-1.55953">
        <ele>34.74</ele>
        <time>2021-07-30T19:00:41Z</time>
      </trkpt>
      <trkpt lat="48.74434" lon="-1.55955">
        <ele>33.78</ele>
        <time>2021-07-30T19:00:48Z</time>
      </trkpt>
      <trkpt lat="48.74422" lon="-1.55955">
        <ele>33.78</ele>
        <time>2021-07-30T19:00:49Z</time>
      </trkpt>
      <trkpt lat="48.74412" lon="-1.55951">
        <ele>34.26</ele>
        <time>2021-07-30T19:00:50Z</time>
      </trkpt>
      <trkpt lat="48.74391" lon="-1.55943">
        <ele>34.74</ele>
        <time>2021-07-30T19:00:52Z</time>
      </trkpt>
      <trkpt lat="48.74381" lon="-1.55938">
        <ele>36.67</ele>
        <time>2021-07-30T19:00:53Z</time>
      </trkpt>
      <trkpt lat="48.74371" lon="-1.55934">
        <ele>36.19</ele>
        <time>2021-07-30T19:00:54Z</time>
      </trkpt>
      <trkpt lat="48.74362" lon="-1.5593">
        <ele>37.15</ele>
        <time>2021-07-30T19:00:55Z</time>
      </trkpt>
      <trkpt lat="48.74352" lon="-1.55926">
        <ele>37.63</ele>
        <time>2021-07-30T19:00:56Z</time>
      </trkpt>
      <trkpt lat="48.74346" lon="-1.55919">
        <ele>38.11</ele>
        <time>2021-07-30T19:00:57Z</time>
      </trkpt>
      <trkpt lat="48.74338" lon="-1.55911">
        <ele>39.07</ele>
        <time>2021-07-30T19:00:58Z</time>
      </trkpt>
      <trkpt lat="48.74331" lon="-1.55903">
        <ele>39.07</ele>
        <time>2021-07-30T19:00:59Z</time>
      </trkpt>
      <trkpt lat="48.74315" lon="-1.55885">
        <ele>40.99</ele>
        <time>2021-07-30T19:01:01Z</time>
      </trkpt>
      <trkpt lat="48.74294" lon="-1.55871">
        <ele>41.95</ele>
        <time>2021-07-30T19:01:02Z</time>
      </trkpt>
      <trkpt lat="48.74294" lon="-1.55871">
        <ele>42.44</ele>
        <time>2021-07-30T19:01:03Z</time>
      </trkpt>
      <trkpt lat="48.74259" lon="-1.55855">
        <ele>44.84</ele>
        <time>2021-07-30T19:01:06Z</time>
      </trkpt>
      <trkpt lat="48.74249" lon="-1.55847">
        <ele>45.32</ele>
        <time>2021-07-30T19:01:07Z</time>
      </trkpt>
      <trkpt lat="48.7424" lon="-1.55839">
        <ele>46.28</ele>
        <time>2021-07-30T19:01:08Z</time>
      </trkpt>
      <trkpt lat="48.74232" lon="-1.55831">
        <ele>46.76</ele>
        <time>2021-07-30T19:01:09Z</time>
      </trkpt>
      <trkpt lat="48.74224" lon="-1.55818">
        <ele>47.24</ele>
        <time>2021-07-30T19:01:10Z</time>
      </trkpt>
      <trkpt lat="48.74218" lon="-1.55802">
        <ele>48.2</ele>
        <time>2021-07-30T19:01:11Z</time>
      </trkpt>
      <trkpt lat="48.74212" lon="-1.55787">
        <ele>48.68</ele>
        <time>2021-07-30T19:01:12Z</time>
      </trkpt>
      <trkpt lat="48.74206" lon="-1.55773">
        <ele>48.68</ele>
        <time>2021-07-30T19:01:13Z</time>
      </trkpt>
      <trkpt lat="48.742" lon="-1.55759">
        <ele>48.2</ele>
        <time>2021-07-30T19:01:14Z</time>
      </trkpt>
      <trkpt lat="48.74193" lon="-1.55743">
        <ele>48.68</ele>
        <time>2021-07-30T19:01:15Z</time>
      </trkpt>
      <trkpt lat="48.74186" lon="-1.55731">
        <ele>49.65</ele>
        <time>2021-07-30T19:01:16Z</time>
      </trkpt>
      <trkpt lat="48.74178" lon="-1.55722">
        <ele>51.09</ele>
        <time>2021-07-30T19:01:17Z</time>
      </trkpt>
      <trkpt lat="48.74168" lon="-1.55719">
        <ele>52.05</ele>
        <time>2021-07-30T19:01:18Z</time>
      </trkpt>
      <trkpt lat="48.74158" lon="-1.55716">
        <ele>54.45</ele>
        <time>2021-07-30T19:01:19Z</time>
      </trkpt>
      <trkpt lat="48.74146" lon="-1.55713">
        <ele>53.97</ele>
        <time>2021-07-30T19:01:20Z</time>
      </trkpt>
      <trkpt lat="48.74135" lon="-1.5571">
        <ele>55.41</ele>
        <time>2021-07-30T19:01:21Z</time>
      </trkpt>
      <trkpt lat="48.74125" lon="-1.55706">
        <ele>57.34</ele>
        <time>2021-07-30T19:01:22Z</time>
      </trkpt>
      <trkpt lat="48.74075" lon="-1.55673">
        <ele>61.18</ele>
        <time>2021-07-30T19:01:27Z</time>
      </trkpt>
      <trkpt lat="48.74068" lon="-1.5567">
        <ele>61.18</ele>
        <time>2021-07-30T19:01:28Z</time>
      </trkpt>
      <trkpt lat="48.74053" lon="-1.55663">
        <ele>61.66</ele>
        <time>2021-07-30T19:01:38Z</time>
      </trkpt>
      <trkpt lat="48.74014" lon="-1.55635">
        <ele>66.47</ele>
        <time>2021-07-30T19:01:47Z</time>
      </trkpt>
      <trkpt lat="48.73941" lon="-1.5556">
        <ele>68.39</ele>
        <time>2021-07-30T19:01:55Z</time>
      </trkpt>
      <trkpt lat="48.73826" lon="-1.55386">
        <ele>72.72</ele>
        <time>2021-07-30T19:02:09Z</time>
      </trkpt>
      <trkpt lat="48.73733" lon="-1.55181">
        <ele>72.72</ele>
        <time>2021-07-30T19:02:21Z</time>
      </trkpt>
      <trkpt lat="48.73712" lon="-1.55147">
        <ele>73.68</ele>
        <time>2021-07-30T19:02:23Z</time>
      </trkpt>
      <trkpt lat="48.73702" lon="-1.55132">
        <ele>73.2</ele>
        <time>2021-07-30T19:02:24Z</time>
      </trkpt>
      <trkpt lat="48.7367" lon="-1.55092">
        <ele>74.16</ele>
        <time>2021-07-30T19:02:27Z</time>
      </trkpt>
      <trkpt lat="48.73662" lon="-1.55074">
        <ele>74.16</ele>
        <time>2021-07-30T19:02:28Z</time>
      </trkpt>
      <trkpt lat="48.73638" lon="-1.55023">
        <ele>75.12</ele>
        <time>2021-07-30T19:02:31Z</time>
      </trkpt>
      <trkpt lat="48.73628" lon="-1.55011">
        <ele>75.6</ele>
        <time>2021-07-30T19:02:32Z</time>
      </trkpt>
      <trkpt lat="48.73564" lon="-1.54935">
        <ele>76.56</ele>
        <time>2021-07-30T19:02:38Z</time>
      </trkpt>
      <trkpt lat="48.73554" lon="-1.54921">
        <ele>76.56</ele>
        <time>2021-07-30T19:02:39Z</time>
      </trkpt>
      <trkpt lat="48.73489" lon="-1.54808">
        <ele>76.08</ele>
        <time>2021-07-30T19:02:48Z</time>
      </trkpt>
      <trkpt lat="48.73484" lon="-1.54794">
        <ele>76.08</ele>
        <time>2021-07-30T19:02:55Z</time>
      </trkpt>
      <trkpt lat="48.73484" lon="-1.54794">
        <ele>75.6</ele>
        <time>2021-07-30T19:03:45Z</time>
      </trkpt>
      <trkpt lat="48.73483" lon="-1.54791">
        <ele>75.6</ele>
        <time>2021-07-30T19:03:46Z</time>
      </trkpt>
      <trkpt lat="48.73481" lon="-1.54787">
        <ele>75.6</ele>
        <time>2021-07-30T19:03:47Z</time>
      </trkpt>
      <trkpt lat="48.73475" lon="-1.54768">
        <ele>75.6</ele>
        <time>2021-07-30T19:03:50Z</time>
      </trkpt>
      <trkpt lat="48.73472" lon="-1.5476">
        <ele>75.6</ele>
        <time>2021-07-30T19:03:51Z</time>
      </trkpt>
      <trkpt lat="48.7347" lon="-1.54751">
        <ele>75.6</ele>
        <time>2021-07-30T19:03:52Z</time>
      </trkpt>
      <trkpt lat="48.73461" lon="-1.54689">
        <ele>75.6</ele>
        <time>2021-07-30T19:03:57Z</time>
      </trkpt>
      <trkpt lat="48.73459" lon="-1.54677">
        <ele>77.04</ele>
        <time>2021-07-30T19:03:58Z</time>
      </trkpt>
      <trkpt lat="48.73453" lon="-1.54665">
        <ele>77.04</ele>
        <time>2021-07-30T19:03:59Z</time>
      </trkpt>
      <trkpt lat="48.73448" lon="-1.54652">
        <ele>77.04</ele>
        <time>2021-07-30T19:04:00Z</time>
      </trkpt>
      <trkpt lat="48.73442" lon="-1.54638">
        <ele>77.04</ele>
        <time>2021-07-30T19:04:01Z</time>
      </trkpt>
      <trkpt lat="48.73431" lon="-1.54614">
        <ele>76.56</ele>
        <time>2021-07-30T19:04:03Z</time>
      </trkpt>
      <trkpt lat="48.73427" lon="-1.54602">
        <ele>76.56</ele>
        <time>2021-07-30T19:04:04Z</time>
      </trkpt>
      <trkpt lat="48.73423" lon="-1.54589">
        <ele>76.56</ele>
        <time>2021-07-30T19:04:05Z</time>
      </trkpt>
      <trkpt lat="48.7342" lon="-1.54573">
        <ele>76.56</ele>
        <time>2021-07-30T19:04:06Z</time>
      </trkpt>
      <trkpt lat="48.73418" lon="-1.54556">
        <ele>76.56</ele>
        <time>2021-07-30T19:04:07Z</time>
      </trkpt>
      <trkpt lat="48.73411" lon="-1.54359">
        <ele>77.52</ele>
        <time>2021-07-30T19:04:18Z</time>
      </trkpt>
      <trkpt lat="48.7337" lon="-1.54113">
        <ele>79.93</ele>
        <time>2021-07-30T19:04:32Z</time>
      </trkpt>
      <trkpt lat="48.73359" lon="-1.54053">
        <ele>81.37</ele>
        <time>2021-07-30T19:04:38Z</time>
      </trkpt>
      <trkpt lat="48.73358" lon="-1.54047">
        <ele>81.85</ele>
        <time>2021-07-30T19:04:50Z</time>
      </trkpt>
      <trkpt lat="48.73353" lon="-1.54018">
        <ele>82.33</ele>
        <time>2021-07-30T19:05:07Z</time>
      </trkpt>
      <trkpt lat="48.73347" lon="-1.53901">
        <ele>81.37</ele>
        <time>2021-07-30T19:05:16Z</time>
      </trkpt>
      <trkpt lat="48.73354" lon="-1.53707">
        <ele>80.89</ele>
        <time>2021-07-30T19:05:26Z</time>
      </trkpt>
      <trkpt lat="48.73369" lon="-1.53585">
        <ele>81.85</ele>
        <time>2021-07-30T19:05:35Z</time>
      </trkpt>
      <trkpt lat="48.73393" lon="-1.53474">
        <ele>80.89</ele>
        <time>2021-07-30T19:05:47Z</time>
      </trkpt>
      <trkpt lat="48.73424" lon="-1.53322">
        <ele>83.29</ele>
        <time>2021-07-30T19:06:00Z</time>
      </trkpt>
      <trkpt lat="48.73454" lon="-1.53186">
        <ele>84.25</ele>
        <time>2021-07-30T19:06:10Z</time>
      </trkpt>
      <trkpt lat="48.73456" lon="-1.5318">
        <ele>84.73</ele>
        <time>2021-07-30T19:06:11Z</time>
      </trkpt>
      <trkpt lat="48.73453" lon="-1.53174">
        <ele>84.73</ele>
        <time>2021-07-30T19:06:12Z</time>
      </trkpt>
      <trkpt lat="48.7345" lon="-1.53166">
        <ele>84.25</ele>
        <time>2021-07-30T19:06:13Z</time>
      </trkpt>
      <trkpt lat="48.73445" lon="-1.53158">
        <ele>84.25</ele>
        <time>2021-07-30T19:06:14Z</time>
      </trkpt>
      <trkpt lat="48.73409" lon="-1.53081">
        <ele>81.37</ele>
        <time>2021-07-30T19:06:20Z</time>
      </trkpt>
      <trkpt lat="48.73409" lon="-1.53081">
        <ele>81.37</ele>
        <time>2021-07-30T19:06:21Z</time>
      </trkpt>
      <trkpt lat="48.73394" lon="-1.53076">
        <ele>80.41</ele>
        <time>2021-07-30T19:06:22Z</time>
      </trkpt>
      <trkpt lat="48.73394" lon="-1.53076">
        <ele>79.93</ele>
        <time>2021-07-30T19:06:23Z</time>
      </trkpt>
      <trkpt lat="48.73385" lon="-1.53077">
        <ele>79.93</ele>
        <time>2021-07-30T19:06:24Z</time>
      </trkpt>
      <trkpt lat="48.73376" lon="-1.53086">
        <ele>79.93</ele>
        <time>2021-07-30T19:06:25Z</time>
      </trkpt>
      <trkpt lat="48.73368" lon="-1.53095">
        <ele>79.45</ele>
        <time>2021-07-30T19:06:26Z</time>
      </trkpt>
      <trkpt lat="48.73328" lon="-1.53134">
        <ele>78.48</ele>
        <time>2021-07-30T19:06:31Z</time>
      </trkpt>
      <trkpt lat="48.73321" lon="-1.53139">
        <ele>77.52</ele>
        <time>2021-07-30T19:06:32Z</time>
      </trkpt>
      <trkpt lat="48.73313" lon="-1.5314">
        <ele>77.04</ele>
        <time>2021-07-30T19:06:33Z</time>
      </trkpt>
      <trkpt lat="48.73306" lon="-1.53141">
        <ele>76.56</ele>
        <time>2021-07-30T19:06:34Z</time>
      </trkpt>
      <trkpt lat="48.73298" lon="-1.53143">
        <ele>76.08</ele>
        <time>2021-07-30T19:06:35Z</time>
      </trkpt>
      <trkpt lat="48.73292" lon="-1.53143">
        <ele>75.12</ele>
        <time>2021-07-30T19:06:36Z</time>
      </trkpt>
      <trkpt lat="48.73285" lon="-1.53139">
        <ele>74.64</ele>
        <time>2021-07-30T19:06:37Z</time>
      </trkpt>
      <trkpt lat="48.73278" lon="-1.53136">
        <ele>74.16</ele>
        <time>2021-07-30T19:06:38Z</time>
      </trkpt>
      <trkpt lat="48.7319" lon="-1.53085">
        <ele>69.35</ele>
        <time>2021-07-30T19:06:51Z</time>
      </trkpt>
      <trkpt lat="48.73185" lon="-1.5308">
        <ele>68.87</ele>
        <time>2021-07-30T19:06:52Z</time>
      </trkpt>
      <trkpt lat="48.73181" lon="-1.53072">
        <ele>68.39</ele>
        <time>2021-07-30T19:06:53Z</time>
      </trkpt>
      <trkpt lat="48.73178" lon="-1.53064">
        <ele>67.91</ele>
        <time>2021-07-30T19:06:54Z</time>
      </trkpt>
      <trkpt lat="48.73174" lon="-1.53056">
        <ele>67.43</ele>
        <time>2021-07-30T19:06:55Z</time>
      </trkpt>
      <trkpt lat="48.7317" lon="-1.53048">
        <ele>66.95</ele>
        <time>2021-07-30T19:06:56Z</time>
      </trkpt>
      <trkpt lat="48.73168" lon="-1.5304">
        <ele>66.47</ele>
        <time>2021-07-30T19:06:57Z</time>
      </trkpt>
      <trkpt lat="48.73167" lon="-1.5303">
        <ele>65.99</ele>
        <time>2021-07-30T19:06:58Z</time>
      </trkpt>
      <trkpt lat="48.73155" lon="-1.52882">
        <ele>60.22</ele>
        <time>2021-07-30T19:07:11Z</time>
      </trkpt>
      <trkpt lat="48.73155" lon="-1.52869">
        <ele>59.26</ele>
        <time>2021-07-30T19:07:12Z</time>
      </trkpt>
      <trkpt lat="48.73155" lon="-1.52855">
        <ele>58.78</ele>
        <time>2021-07-30T19:07:13Z</time>
      </trkpt>
      <trkpt lat="48.73158" lon="-1.52841">
        <ele>57.82</ele>
        <time>2021-07-30T19:07:14Z</time>
      </trkpt>
      <trkpt lat="48.73161" lon="-1.52826">
        <ele>56.86</ele>
        <time>2021-07-30T19:07:15Z</time>
      </trkpt>
      <trkpt lat="48.73164" lon="-1.52809">
        <ele>55.41</ele>
        <time>2021-07-30T19:07:16Z</time>
      </trkpt>
      <trkpt lat="48.73171" lon="-1.52775">
        <ele>54.45</ele>
        <time>2021-07-30T19:07:18Z</time>
      </trkpt>
      <trkpt lat="48.73174" lon="-1.52759">
        <ele>53.97</ele>
        <time>2021-07-30T19:07:19Z</time>
      </trkpt>
      <trkpt lat="48.73188" lon="-1.52551">
        <ele>43.88</ele>
        <time>2021-07-30T19:07:31Z</time>
      </trkpt>
      <trkpt lat="48.73191" lon="-1.52535">
        <ele>42.44</ele>
        <time>2021-07-30T19:07:32Z</time>
      </trkpt>
      <trkpt lat="48.73197" lon="-1.525">
        <ele>40.03</ele>
        <time>2021-07-30T19:07:34Z</time>
      </trkpt>
      <trkpt lat="48.732" lon="-1.52484">
        <ele>40.03</ele>
        <time>2021-07-30T19:07:35Z</time>
      </trkpt>
      <trkpt lat="48.73201" lon="-1.5247">
        <ele>38.59</ele>
        <time>2021-07-30T19:07:36Z</time>
      </trkpt>
      <trkpt lat="48.73201" lon="-1.52454">
        <ele>37.15</ele>
        <time>2021-07-30T19:07:37Z</time>
      </trkpt>
      <trkpt lat="48.73201" lon="-1.52437">
        <ele>36.19</ele>
        <time>2021-07-30T19:07:38Z</time>
      </trkpt>
      <trkpt lat="48.73198" lon="-1.52423">
        <ele>35.71</ele>
        <time>2021-07-30T19:07:39Z</time>
      </trkpt>
      <trkpt lat="48.73194" lon="-1.52408">
        <ele>34.26</ele>
        <time>2021-07-30T19:07:40Z</time>
      </trkpt>
      <trkpt lat="48.7319" lon="-1.52391">
        <ele>33.78</ele>
        <time>2021-07-30T19:07:41Z</time>
      </trkpt>
      <trkpt lat="48.73163" lon="-1.52256">
        <ele>27.53</ele>
        <time>2021-07-30T19:07:49Z</time>
      </trkpt>
      <trkpt lat="48.73162" lon="-1.52241">
        <ele>26.57</ele>
        <time>2021-07-30T19:07:50Z</time>
      </trkpt>
      <trkpt lat="48.73161" lon="-1.52227">
        <ele>25.61</ele>
        <time>2021-07-30T19:07:51Z</time>
      </trkpt>
      <trkpt lat="48.73161" lon="-1.52213">
        <ele>25.13</ele>
        <time>2021-07-30T19:07:52Z</time>
      </trkpt>
      <trkpt lat="48.73161" lon="-1.52202">
        <ele>24.17</ele>
        <time>2021-07-30T19:07:53Z</time>
      </trkpt>
      <trkpt lat="48.73159" lon="-1.52159">
        <ele>21.29</ele>
        <time>2021-07-30T19:08:00Z</time>
      </trkpt>
      <trkpt lat="48.73156" lon="-1.52154">
        <ele>21.29</ele>
        <time>2021-07-30T19:08:01Z</time>
      </trkpt>
      <trkpt lat="48.73153" lon="-1.52148">
        <ele>20.81</ele>
        <time>2021-07-30T19:08:02Z</time>
      </trkpt>
      <trkpt lat="48.73149" lon="-1.52141">
        <ele>20.81</ele>
        <time>2021-07-30T19:08:03Z</time>
      </trkpt>
      <trkpt lat="48.73145" lon="-1.52134">
        <ele>19.84</ele>
        <time>2021-07-30T19:08:04Z</time>
      </trkpt>
      <trkpt lat="48.73126" lon="-1.52102">
        <ele>19.84</ele>
        <time>2021-07-30T19:08:08Z</time>
      </trkpt>
      <trkpt lat="48.73122" lon="-1.52094">
        <ele>19.36</ele>
        <time>2021-07-30T19:08:09Z</time>
      </trkpt>
      <trkpt lat="48.73117" lon="-1.52086">
        <ele>18.88</ele>
        <time>2021-07-30T19:08:10Z</time>
      </trkpt>
      <trkpt lat="48.73059" lon="-1.519">
        <ele>13.12</ele>
        <time>2021-07-30T19:08:27Z</time>
      </trkpt>
      <trkpt lat="48.73049" lon="-1.51881">
        <ele>11.67</ele>
        <time>2021-07-30T19:08:29Z</time>
      </trkpt>
      <trkpt lat="48.73049" lon="-1.51881">
        <ele>11.19</ele>
        <time>2021-07-30T19:08:30Z</time>
      </trkpt>
      <trkpt lat="48.73046" lon="-1.51878">
        <ele>10.71</ele>
        <time>2021-07-30T19:08:31Z</time>
      </trkpt>
      <trkpt lat="48.73043" lon="-1.51876">
        <ele>10.71</ele>
        <time>2021-07-30T19:08:32Z</time>
      </trkpt>
      <trkpt lat="48.73041" lon="-1.51874">
        <ele>10.71</ele>
        <time>2021-07-30T19:08:33Z</time>
      </trkpt>
      <trkpt lat="48.73026" lon="-1.51863">
        <ele>9.27</ele>
        <time>2021-07-30T19:08:42Z</time>
      </trkpt>
      <trkpt lat="48.72956" lon="-1.51817">
        <ele>5.91</ele>
        <time>2021-07-30T19:08:56Z</time>
      </trkpt>
      <trkpt lat="48.72882" lon="-1.51754">
        <ele>6.39</ele>
        <time>2021-07-30T19:09:06Z</time>
      </trkpt>
      <trkpt lat="48.72882" lon="-1.51754">
        <ele>6.39</ele>
        <time>2021-07-30T19:09:07Z</time>
      </trkpt>
      <trkpt lat="48.72877" lon="-1.51744">
        <ele>6.87</ele>
        <time>2021-07-30T19:09:08Z</time>
      </trkpt>
      <trkpt lat="48.72872" lon="-1.51734">
        <ele>6.87</ele>
        <time>2021-07-30T19:09:09Z</time>
      </trkpt>
      <trkpt lat="48.7287" lon="-1.51721">
        <ele>6.87</ele>
        <time>2021-07-30T19:09:10Z</time>
      </trkpt>
      <trkpt lat="48.72868" lon="-1.51706">
        <ele>6.87</ele>
        <time>2021-07-30T19:09:11Z</time>
      </trkpt>
      <trkpt lat="48.72865" lon="-1.51692">
        <ele>6.87</ele>
        <time>2021-07-30T19:09:12Z</time>
      </trkpt>
      <trkpt lat="48.72848" lon="-1.51585">
        <ele>10.23</ele>
        <time>2021-07-30T19:09:22Z</time>
      </trkpt>
      <trkpt lat="48.72819" lon="-1.51496">
        <ele>15.04</ele>
        <time>2021-07-30T19:09:29Z</time>
      </trkpt>
      <trkpt lat="48.72805" lon="-1.51468">
        <ele>16.48</ele>
        <time>2021-07-30T19:09:30Z</time>
      </trkpt>
      <trkpt lat="48.72796" lon="-1.51456">
        <ele>16.96</ele>
        <time>2021-07-30T19:09:31Z</time>
      </trkpt>
      <trkpt lat="48.72796" lon="-1.51456">
        <ele>17.44</ele>
        <time>2021-07-30T19:09:32Z</time>
      </trkpt>
      <trkpt lat="48.72787" lon="-1.51444">
        <ele>18.4</ele>
        <time>2021-07-30T19:09:33Z</time>
      </trkpt>
      <trkpt lat="48.72693" lon="-1.51324">
        <ele>23.69</ele>
        <time>2021-07-30T19:09:43Z</time>
      </trkpt>
      <trkpt lat="48.72628" lon="-1.51178">
        <ele>27.53</ele>
        <time>2021-07-30T19:09:52Z</time>
      </trkpt>
      <trkpt lat="48.72541" lon="-1.50995">
        <ele>32.34</ele>
        <time>2021-07-30T19:10:02Z</time>
      </trkpt>
      <trkpt lat="48.7243" lon="-1.50818">
        <ele>32.34</ele>
        <time>2021-07-30T19:10:12Z</time>
      </trkpt>
      <trkpt lat="48.72374" lon="-1.50737">
        <ele>30.9</ele>
        <time>2021-07-30T19:10:17Z</time>
      </trkpt>
      <trkpt lat="48.72363" lon="-1.50724">
        <ele>31.86</ele>
        <time>2021-07-30T19:10:18Z</time>
      </trkpt>
      <trkpt lat="48.72349" lon="-1.50718">
        <ele>32.82</ele>
        <time>2021-07-30T19:10:19Z</time>
      </trkpt>
      <trkpt lat="48.72337" lon="-1.50713">
        <ele>32.34</ele>
        <time>2021-07-30T19:10:20Z</time>
      </trkpt>
      <trkpt lat="48.72323" lon="-1.50708">
        <ele>32.82</ele>
        <time>2021-07-30T19:10:21Z</time>
      </trkpt>
      <trkpt lat="48.7231" lon="-1.50706">
        <ele>33.3</ele>
        <time>2021-07-30T19:10:22Z</time>
      </trkpt>
      <trkpt lat="48.72172" lon="-1.50684">
        <ele>39.55</ele>
        <time>2021-07-30T19:10:31Z</time>
      </trkpt>
      <trkpt lat="48.72059" lon="-1.50593">
        <ele>39.55</ele>
        <time>2021-07-30T19:10:40Z</time>
      </trkpt>
      <trkpt lat="48.71947" lon="-1.50414">
        <ele>34.74</ele>
        <time>2021-07-30T19:10:51Z</time>
      </trkpt>
      <trkpt lat="48.71935" lon="-1.50401">
        <ele>34.26</ele>
        <time>2021-07-30T19:10:52Z</time>
      </trkpt>
      <trkpt lat="48.71923" lon="-1.50387">
        <ele>35.23</ele>
        <time>2021-07-30T19:10:53Z</time>
      </trkpt>
      <trkpt lat="48.71761" lon="-1.50261">
        <ele>34.26</ele>
        <time>2021-07-30T19:11:05Z</time>
      </trkpt>
      <trkpt lat="48.71682" lon="-1.50149">
        <ele>32.34</ele>
        <time>2021-07-30T19:11:12Z</time>
      </trkpt>
      <trkpt lat="48.71656" lon="-1.50122">
        <ele>31.86</ele>
        <time>2021-07-30T19:11:13Z</time>
      </trkpt>
      <trkpt lat="48.71528" lon="-1.50025">
        <ele>39.55</ele>
        <time>2021-07-30T19:11:24Z</time>
      </trkpt>
      <trkpt lat="48.71396" lon="-1.4995">
        <ele>39.55</ele>
        <time>2021-07-30T19:11:35Z</time>
      </trkpt>
      <trkpt lat="48.71338" lon="-1.49935">
        <ele>37.63</ele>
        <time>2021-07-30T19:11:42Z</time>
      </trkpt>
      <trkpt lat="48.71321" lon="-1.49932">
        <ele>37.15</ele>
        <time>2021-07-30T19:11:45Z</time>
      </trkpt>
      <trkpt lat="48.7126" lon="-1.49929">
        <ele>34.74</ele>
        <time>2021-07-30T19:11:57Z</time>
      </trkpt>
      <trkpt lat="48.71246" lon="-1.49888">
        <ele>34.26</ele>
        <time>2021-07-30T19:12:07Z</time>
      </trkpt>
      <trkpt lat="48.71217" lon="-1.49783">
        <ele>36.67</ele>
        <time>2021-07-30T19:12:17Z</time>
      </trkpt>
      <trkpt lat="48.71179" lon="-1.49713">
        <ele>38.59</ele>
        <time>2021-07-30T19:12:24Z</time>
      </trkpt>
      <trkpt lat="48.71172" lon="-1.49706">
        <ele>39.07</ele>
        <time>2021-07-30T19:12:25Z</time>
      </trkpt>
      <trkpt lat="48.71166" lon="-1.497">
        <ele>39.07</ele>
        <time>2021-07-30T19:12:26Z</time>
      </trkpt>
      <trkpt lat="48.71159" lon="-1.49697">
        <ele>39.07</ele>
        <time>2021-07-30T19:12:27Z</time>
      </trkpt>
      <trkpt lat="48.71153" lon="-1.49693">
        <ele>39.55</ele>
        <time>2021-07-30T19:12:28Z</time>
      </trkpt>
      <trkpt lat="48.71138" lon="-1.49688">
        <ele>39.55</ele>
        <time>2021-07-30T19:12:29Z</time>
      </trkpt>
      <trkpt lat="48.71131" lon="-1.49687">
        <ele>40.03</ele>
        <time>2021-07-30T19:12:30Z</time>
      </trkpt>
      <trkpt lat="48.71095" lon="-1.49672">
        <ele>40.99</ele>
        <time>2021-07-30T19:12:36Z</time>
      </trkpt>
      <trkpt lat="48.71087" lon="-1.49666">
        <ele>41.47</ele>
        <time>2021-07-30T19:12:37Z</time>
      </trkpt>
      <trkpt lat="48.7108" lon="-1.49659">
        <ele>41.95</ele>
        <time>2021-07-30T19:12:38Z</time>
      </trkpt>
      <trkpt lat="48.70998" lon="-1.49548">
        <ele>42.44</ele>
        <time>2021-07-30T19:12:49Z</time>
      </trkpt>
      <trkpt lat="48.70882" lon="-1.49406">
        <ele>43.4</ele>
        <time>2021-07-30T19:13:03Z</time>
      </trkpt>
      <trkpt lat="48.70719" lon="-1.49254">
        <ele>43.4</ele>
        <time>2021-07-30T19:13:18Z</time>
      </trkpt>
      <trkpt lat="48.70556" lon="-1.49093">
        <ele>35.71</ele>
        <time>2021-07-30T19:13:32Z</time>
      </trkpt>
      <trkpt lat="48.70385" lon="-1.48875">
        <ele>22.25</ele>
        <time>2021-07-30T19:13:45Z</time>
      </trkpt>
      <trkpt lat="48.70172" lon="-1.48587">
        <ele>13.12</ele>
        <time>2021-07-30T19:14:02Z</time>
      </trkpt>
      <trkpt lat="48.70033" lon="-1.48405">
        <ele>11.19</ele>
        <time>2021-07-30T19:14:13Z</time>
      </trkpt>
      <trkpt lat="48.70018" lon="-1.48392">
        <ele>11.67</ele>
        <time>2021-07-30T19:14:14Z</time>
      </trkpt>
      <trkpt lat="48.70004" lon="-1.48382">
        <ele>10.71</ele>
        <time>2021-07-30T19:14:15Z</time>
      </trkpt>
      <trkpt lat="48.6999" lon="-1.48381">
        <ele>10.71</ele>
        <time>2021-07-30T19:14:16Z</time>
      </trkpt>
      <trkpt lat="48.69973" lon="-1.48379">
        <ele>11.19</ele>
        <time>2021-07-30T19:14:17Z</time>
      </trkpt>
      <trkpt lat="48.69959" lon="-1.48378">
        <ele>12.15</ele>
        <time>2021-07-30T19:14:18Z</time>
      </trkpt>
      <trkpt lat="48.6993" lon="-1.48375">
        <ele>13.12</ele>
        <time>2021-07-30T19:14:20Z</time>
      </trkpt>
      <trkpt lat="48.69915" lon="-1.48374">
        <ele>13.6</ele>
        <time>2021-07-30T19:14:21Z</time>
      </trkpt>
      <trkpt lat="48.69901" lon="-1.48368">
        <ele>14.08</ele>
        <time>2021-07-30T19:14:22Z</time>
      </trkpt>
      <trkpt lat="48.69886" lon="-1.48361">
        <ele>14.08</ele>
        <time>2021-07-30T19:14:23Z</time>
      </trkpt>
      <trkpt lat="48.69872" lon="-1.48348">
        <ele>13.6</ele>
        <time>2021-07-30T19:14:24Z</time>
      </trkpt>
      <trkpt lat="48.69857" lon="-1.48335">
        <ele>15.04</ele>
        <time>2021-07-30T19:14:25Z</time>
      </trkpt>
      <trkpt lat="48.69727" lon="-1.48237">
        <ele>14.56</ele>
        <time>2021-07-30T19:14:34Z</time>
      </trkpt>
      <trkpt lat="48.69484" lon="-1.48111">
        <ele>15.04</ele>
        <time>2021-07-30T19:14:47Z</time>
      </trkpt>
      <trkpt lat="48.69343" lon="-1.48073">
        <ele>12.63</ele>
        <time>2021-07-30T19:14:56Z</time>
      </trkpt>
      <trkpt lat="48.69127" lon="-1.48001">
        <ele>10.23</ele>
        <time>2021-07-30T19:15:08Z</time>
      </trkpt>
      <trkpt lat="48.69111" lon="-1.47999">
        <ele>11.19</ele>
        <time>2021-07-30T19:15:09Z</time>
      </trkpt>
      <trkpt lat="48.69014" lon="-1.47986">
        <ele>12.15</ele>
        <time>2021-07-30T19:15:16Z</time>
      </trkpt>
      <trkpt lat="48.68895" lon="-1.47968">
        <ele>10.23</ele>
        <time>2021-07-30T19:15:27Z</time>
      </trkpt>
      <trkpt lat="48.68824" lon="-1.47966">
        <ele>12.15</ele>
        <time>2021-07-30T19:15:36Z</time>
      </trkpt>
      <trkpt lat="48.68749" lon="-1.47973">
        <ele>11.67</ele>
        <time>2021-07-30T19:15:46Z</time>
      </trkpt>
      <trkpt lat="48.6865" lon="-1.47988">
        <ele>13.6</ele>
        <time>2021-07-30T19:15:58Z</time>
      </trkpt>
      <trkpt lat="48.68639" lon="-1.47987">
        <ele>13.6</ele>
        <time>2021-07-30T19:16:00Z</time>
      </trkpt>
      <trkpt lat="48.68635" lon="-1.47987">
        <ele>13.6</ele>
        <time>2021-07-30T19:16:01Z</time>
      </trkpt>
      <trkpt lat="48.68631" lon="-1.47987">
        <ele>13.6</ele>
        <time>2021-07-30T19:16:02Z</time>
      </trkpt>
      <trkpt lat="48.6863" lon="-1.47995">
        <ele>13.6</ele>
        <time>2021-07-30T19:16:03Z</time>
      </trkpt>
      <trkpt lat="48.68629" lon="-1.48">
        <ele>13.12</ele>
        <time>2021-07-30T19:16:04Z</time>
      </trkpt>
      <trkpt lat="48.68629" lon="-1.48007">
        <ele>12.63</ele>
        <time>2021-07-30T19:16:05Z</time>
      </trkpt>
      <trkpt lat="48.68628" lon="-1.48014">
        <ele>12.63</ele>
        <time>2021-07-30T19:16:06Z</time>
      </trkpt>
      <trkpt lat="48.68626" lon="-1.48056">
        <ele>13.12</ele>
        <time>2021-07-30T19:16:11Z</time>
      </trkpt>
      <trkpt lat="48.68626" lon="-1.48066">
        <ele>13.12</ele>
        <time>2021-07-30T19:16:12Z</time>
      </trkpt>
      <trkpt lat="48.68628" lon="-1.48074">
        <ele>13.12</ele>
        <time>2021-07-30T19:16:13Z</time>
      </trkpt>
      <trkpt lat="48.68629" lon="-1.48083">
        <ele>13.12</ele>
        <time>2021-07-30T19:16:14Z</time>
      </trkpt>
      <trkpt lat="48.68631" lon="-1.48092">
        <ele>13.12</ele>
        <time>2021-07-30T19:16:15Z</time>
      </trkpt>
      <trkpt lat="48.68634" lon="-1.48099">
        <ele>13.12</ele>
        <time>2021-07-30T19:16:16Z</time>
      </trkpt>
      <trkpt lat="48.68685" lon="-1.48231">
        <ele>10.23</ele>
        <time>2021-07-30T19:16:33Z</time>
      </trkpt>
      <trkpt lat="48.6871" lon="-1.48292">
        <ele>10.71</ele>
        <time>2021-07-30T19:16:45Z</time>
      </trkpt>
      <trkpt lat="48.68734" lon="-1.48354">
        <ele>10.23</ele>
        <time>2021-07-30T19:16:53Z</time>
      </trkpt>
      <trkpt lat="48.68749" lon="-1.48392">
        <ele>9.75</ele>
        <time>2021-07-30T19:16:58Z</time>
      </trkpt>
      <trkpt lat="48.68754" lon="-1.48405">
        <ele>9.75</ele>
        <time>2021-07-30T19:17:00Z</time>
      </trkpt>
      <trkpt lat="48.68757" lon="-1.48413">
        <ele>9.75</ele>
        <time>2021-07-30T19:17:01Z</time>
      </trkpt>
      <trkpt lat="48.68761" lon="-1.48422">
        <ele>9.75</ele>
        <time>2021-07-30T19:17:02Z</time>
      </trkpt>
      <trkpt lat="48.68844" lon="-1.48578">
        <ele>6.87</ele>
        <time>2021-07-30T19:17:15Z</time>
      </trkpt>
      <trkpt lat="48.68911" lon="-1.48667">
        <ele>5.91</ele>
        <time>2021-07-30T19:17:25Z</time>
      </trkpt>
      <trkpt lat="48.68966" lon="-1.4874">
        <ele>4.94</ele>
        <time>2021-07-30T19:17:33Z</time>
      </trkpt>
      <trkpt lat="48.6897" lon="-1.4875">
        <ele>5.42</ele>
        <time>2021-07-30T19:17:34Z</time>
      </trkpt>
      <trkpt lat="48.68973" lon="-1.48759">
        <ele>4.94</ele>
        <time>2021-07-30T19:17:35Z</time>
      </trkpt>
      <trkpt lat="48.68972" lon="-1.4877">
        <ele>4.46</ele>
        <time>2021-07-30T19:17:36Z</time>
      </trkpt>
      <trkpt lat="48.6897" lon="-1.48779">
        <ele>4.94</ele>
        <time>2021-07-30T19:17:37Z</time>
      </trkpt>
      <trkpt lat="48.68965" lon="-1.48788">
        <ele>4.94</ele>
        <time>2021-07-30T19:17:38Z</time>
      </trkpt>
      <trkpt lat="48.68959" lon="-1.48798">
        <ele>4.94</ele>
        <time>2021-07-30T19:17:39Z</time>
      </trkpt>
      <trkpt lat="48.6888" lon="-1.48935">
        <ele>3.98</ele>
        <time>2021-07-30T19:17:50Z</time>
      </trkpt>
      <trkpt lat="48.68859" lon="-1.48971">
        <ele>3.5</ele>
        <time>2021-07-30T19:17:53Z</time>
      </trkpt>
      <trkpt lat="48.68856" lon="-1.4898">
        <ele>3.02</ele>
        <time>2021-07-30T19:17:54Z</time>
      </trkpt>
      <trkpt lat="48.68854" lon="-1.48995">
        <ele>2.06</ele>
        <time>2021-07-30T19:17:56Z</time>
      </trkpt>
      <trkpt lat="48.68853" lon="-1.49">
        <ele>1.58</ele>
        <time>2021-07-30T19:17:57Z</time>
      </trkpt>
      <trkpt lat="48.68854" lon="-1.49007">
        <ele>1.58</ele>
        <time>2021-07-30T19:17:58Z</time>
      </trkpt>
      <trkpt lat="48.68855" lon="-1.49014">
        <ele>1.58</ele>
        <time>2021-07-30T19:17:59Z</time>
      </trkpt>
      <trkpt lat="48.68856" lon="-1.49031">
        <ele>2.54</ele>
        <time>2021-07-30T19:18:00Z</time>
      </trkpt>
      <trkpt lat="48.68858" lon="-1.49052">
        <ele>3.02</ele>
        <time>2021-07-30T19:18:03Z</time>
      </trkpt>
      <trkpt lat="48.6886" lon="-1.49064">
        <ele>3.02</ele>
        <time>2021-07-30T19:18:04Z</time>
      </trkpt>
      <trkpt lat="48.68858" lon="-1.49077">
        <ele>3.98</ele>
        <time>2021-07-30T19:18:05Z</time>
      </trkpt>
      <trkpt lat="48.68857" lon="-1.49091">
        <ele>3.5</ele>
        <time>2021-07-30T19:18:06Z</time>
      </trkpt>
      <trkpt lat="48.68855" lon="-1.49105">
        <ele>2.54</ele>
        <time>2021-07-30T19:18:07Z</time>
      </trkpt>
      <trkpt lat="48.68851" lon="-1.49119">
        <ele>2.06</ele>
        <time>2021-07-30T19:18:08Z</time>
      </trkpt>
      <trkpt lat="48.68801" lon="-1.49317">
        <ele>0.62</ele>
        <time>2021-07-30T19:18:20Z</time>
      </trkpt>
      <trkpt lat="48.68753" lon="-1.49553">
        <ele>2.06</ele>
        <time>2021-07-30T19:18:32Z</time>
      </trkpt>
      <trkpt lat="48.68749" lon="-1.49616">
        <ele>3.98</ele>
        <time>2021-07-30T19:18:35Z</time>
      </trkpt>
      <trkpt lat="48.68749" lon="-1.49616">
        <ele>3.98</ele>
        <time>2021-07-30T19:18:36Z</time>
      </trkpt>
      <trkpt lat="48.68748" lon="-1.49626">
        <ele>4.46</ele>
        <time>2021-07-30T19:18:37Z</time>
      </trkpt>
      <trkpt lat="48.68753" lon="-1.49632">
        <ele>4.46</ele>
        <time>2021-07-30T19:18:38Z</time>
      </trkpt>
      <trkpt lat="48.68756" lon="-1.49636">
        <ele>4.46</ele>
        <time>2021-07-30T19:18:39Z</time>
      </trkpt>
      <trkpt lat="48.68759" lon="-1.49641">
        <ele>4.46</ele>
        <time>2021-07-30T19:18:40Z</time>
      </trkpt>
      <trkpt lat="48.68762" lon="-1.49647">
        <ele>4.46</ele>
        <time>2021-07-30T19:18:41Z</time>
      </trkpt>
      <trkpt lat="48.68824" lon="-1.49703">
        <ele>3.98</ele>
        <time>2021-07-30T19:18:51Z</time>
      </trkpt>
      <trkpt lat="48.68955" lon="-1.49826">
        <ele>3.02</ele>
        <time>2021-07-30T19:19:05Z</time>
      </trkpt>
      <trkpt lat="48.69111" lon="-1.49989">
        <ele>3.02</ele>
        <time>2021-07-30T19:19:19Z</time>
      </trkpt>
      <trkpt lat="48.69294" lon="-1.50196">
        <ele>5.91</ele>
        <time>2021-07-30T19:19:34Z</time>
      </trkpt>
      <trkpt lat="48.69403" lon="-1.50336">
        <ele>4.46</ele>
        <time>2021-07-30T19:19:44Z</time>
      </trkpt>
      <trkpt lat="48.69553" lon="-1.5042">
        <ele>1.58</ele>
        <time>2021-07-30T19:19:54Z</time>
      </trkpt>
      <trkpt lat="48.69802" lon="-1.50547">
        <ele>-0.34</ele>
        <time>2021-07-30T19:20:09Z</time>
      </trkpt>
      <trkpt lat="48.69993" lon="-1.50669">
        <ele>2.06</ele>
        <time>2021-07-30T19:20:21Z</time>
      </trkpt>
      <trkpt lat="48.70134" lon="-1.50769">
        <ele>1.58</ele>
        <time>2021-07-30T19:20:31Z</time>
      </trkpt>
      <trkpt lat="48.70146" lon="-1.50775">
        <ele>2.06</ele>
        <time>2021-07-30T19:20:32Z</time>
      </trkpt>
      <trkpt lat="48.70158" lon="-1.50781">
        <ele>1.58</ele>
        <time>2021-07-30T19:20:33Z</time>
      </trkpt>
      <trkpt lat="48.7017" lon="-1.50787">
        <ele>1.58</ele>
        <time>2021-07-30T19:20:34Z</time>
      </trkpt>
      <trkpt lat="48.70327" lon="-1.50813">
        <ele>-0.34</ele>
        <time>2021-07-30T19:20:45Z</time>
      </trkpt>
      <trkpt lat="48.70592" lon="-1.50841">
        <ele>0.62</ele>
        <time>2021-07-30T19:21:02Z</time>
      </trkpt>
      <trkpt lat="48.70791" lon="-1.50868">
        <ele>-0.82</ele>
        <time>2021-07-30T19:21:14Z</time>
      </trkpt>
      <trkpt lat="48.70991" lon="-1.50949">
        <ele>-0.82</ele>
        <time>2021-07-30T19:21:27Z</time>
      </trkpt>
      <trkpt lat="48.71026" lon="-1.50963">
        <ele>-0.82</ele>
        <time>2021-07-30T19:21:32Z</time>
      </trkpt>
      <trkpt lat="48.71027" lon="-1.50963">
        <ele>0.14</ele>
        <time>2021-07-30T19:21:34Z</time>
      </trkpt>
      <trkpt lat="48.71027" lon="-1.50965">
        <ele>0.14</ele>
        <time>2021-07-30T19:21:35Z</time>
      </trkpt>
      <trkpt lat="48.71026" lon="-1.50969">
        <ele>0.14</ele>
        <time>2021-07-30T19:21:36Z</time>
      </trkpt>
      <trkpt lat="48.71025" lon="-1.50975">
        <ele>0.14</ele>
        <time>2021-07-30T19:21:37Z</time>
      </trkpt>
      <trkpt lat="48.71024" lon="-1.50983">
        <ele>0.62</ele>
        <time>2021-07-30T19:21:38Z</time>
      </trkpt>
      <trkpt lat="48.71011" lon="-1.51068">
        <ele>1.1</ele>
        <time>2021-07-30T19:21:46Z</time>
      </trkpt>
      <trkpt lat="48.70983" lon="-1.512">
        <ele>4.46</ele>
        <time>2021-07-30T19:21:59Z</time>
      </trkpt>
      <trkpt lat="48.70966" lon="-1.51279">
        <ele>6.39</ele>
        <time>2021-07-30T19:22:09Z</time>
      </trkpt>
      <trkpt lat="48.70957" lon="-1.51325">
        <ele>6.39</ele>
        <time>2021-07-30T19:22:16Z</time>
      </trkpt>
      <trkpt lat="48.70955" lon="-1.51331">
        <ele>6.39</ele>
        <time>2021-07-30T19:22:17Z</time>
      </trkpt>
      <trkpt lat="48.70954" lon="-1.51336">
        <ele>6.39</ele>
        <time>2021-07-30T19:22:18Z</time>
      </trkpt>
      <trkpt lat="48.70954" lon="-1.5134">
        <ele>6.39</ele>
        <time>2021-07-30T19:22:19Z</time>
      </trkpt>
      <trkpt lat="48.70953" lon="-1.51342">
        <ele>5.91</ele>
        <time>2021-07-30T19:22:20Z</time>
      </trkpt>
      <trkpt lat="48.70953" lon="-1.51342">
        <ele>5.91</ele>
        <time>2021-07-30T19:22:41Z</time>
      </trkpt>
      <trkpt lat="48.70953" lon="-1.51342">
        <ele>5.91</ele>
        <time>2021-07-30T19:27:53Z</time>
      </trkpt>
      <trkpt lat="48.70953" lon="-1.51342">
        <ele>6.39</ele>
        <time>2021-07-30T19:29:03Z</time>
      </trkpt>
      <trkpt lat="48.70953" lon="-1.51342">
        <ele>6.87</ele>
        <time>2021-07-30T19:29:55Z</time>
      </trkpt>
      <trkpt lat="48.70953" lon="-1.51342">
        <ele>6.87</ele>
        <time>2021-07-30T19:31:26Z</time>
      </trkpt>
      <trkpt lat="48.70953" lon="-1.51342">
        <ele>7.35</ele>
        <time>2021-07-30T19:32:30Z</time>
      </trkpt>
    </trkseg>
  </trk>
  <trk>
    <name><![CDATA[Journal actif: 2021-07-30 17:32]]></name>
    <trkseg>
      <trkpt lat="48.70953" lon="-1.51342">
        <ele>7.35</ele>
        <time>2021-07-30T19:32:35Z</time>
      </trkpt>
      <trkpt lat="48.70953" lon="-1.51342">
        <ele>6.39</ele>
        <time>2021-07-30T19:33:06Z</time>
      </trkpt>
      <trkpt lat="48.70953" lon="-1.51342">
        <ele>7.83</ele>
        <time>2021-07-30T19:33:22Z</time>
      </trkpt>
      <trkpt lat="48.70953" lon="-1.51342">
        <ele>8.79</ele>
        <time>2021-07-30T19:33:38Z</time>
      </trkpt>
      <trkpt lat="48.70953" lon="-1.51342">
        <ele>8.79</ele>
        <time>2021-07-30T19:33:40Z</time>
      </trkpt>
      <trkpt lat="48.70954" lon="-1.51338">
        <ele>8.79</ele>
        <time>2021-07-30T19:33:41Z</time>
      </trkpt>
      <trkpt lat="48.70954" lon="-1.51338">
        <ele>8.79</ele>
        <time>2021-07-30T19:33:42Z</time>
      </trkpt>
      <trkpt lat="48.70955" lon="-1.51334">
        <ele>8.79</ele>
        <time>2021-07-30T19:33:43Z</time>
      </trkpt>
      <trkpt lat="48.70956" lon="-1.51328">
        <ele>8.31</ele>
        <time>2021-07-30T19:33:47Z</time>
      </trkpt>
      <trkpt lat="48.70956" lon="-1.51326">
        <ele>8.31</ele>
        <time>2021-07-30T19:33:48Z</time>
      </trkpt>
      <trkpt lat="48.70967" lon="-1.51278">
        <ele>7.83</ele>
        <time>2021-07-30T19:33:58Z</time>
      </trkpt>
      <trkpt lat="48.71" lon="-1.51119">
        <ele>5.91</ele>
        <time>2021-07-30T19:34:10Z</time>
      </trkpt>
      <trkpt lat="48.71034" lon="-1.50916">
        <ele>5.42</ele>
        <time>2021-07-30T19:34:23Z</time>
      </trkpt>
      <trkpt lat="48.7108" lon="-1.50711">
        <ele>6.39</ele>
        <time>2021-07-30T19:34:35Z</time>
      </trkpt>
      <trkpt lat="48.71097" lon="-1.50619">
        <ele>5.91</ele>
        <time>2021-07-30T19:34:40Z</time>
      </trkpt>
      <trkpt lat="48.71101" lon="-1.50603">
        <ele>5.91</ele>
        <time>2021-07-30T19:34:41Z</time>
      </trkpt>
      <trkpt lat="48.71106" lon="-1.50588">
        <ele>4.94</ele>
        <time>2021-07-30T19:34:42Z</time>
      </trkpt>
      <trkpt lat="48.71118" lon="-1.50568">
        <ele>4.94</ele>
        <time>2021-07-30T19:34:43Z</time>
      </trkpt>
      <trkpt lat="48.71118" lon="-1.50568">
        <ele>3.98</ele>
        <time>2021-07-30T19:34:44Z</time>
      </trkpt>
      <trkpt lat="48.71127" lon="-1.5056">
        <ele>2.54</ele>
        <time>2021-07-30T19:34:45Z</time>
      </trkpt>
      <trkpt lat="48.71136" lon="-1.50554">
        <ele>3.02</ele>
        <time>2021-07-30T19:34:46Z</time>
      </trkpt>
      <trkpt lat="48.71157" lon="-1.50542">
        <ele>3.02</ele>
        <time>2021-07-30T19:34:47Z</time>
      </trkpt>
      <trkpt lat="48.71157" lon="-1.50542">
        <ele>3.98</ele>
        <time>2021-07-30T19:34:48Z</time>
      </trkpt>
      <trkpt lat="48.71255" lon="-1.50509">
        <ele>4.46</ele>
        <time>2021-07-30T19:34:57Z</time>
      </trkpt>
      <trkpt lat="48.71266" lon="-1.50506">
        <ele>4.94</ele>
        <time>2021-07-30T19:34:58Z</time>
      </trkpt>
      <trkpt lat="48.71355" lon="-1.50515">
        <ele>4.94</ele>
        <time>2021-07-30T19:35:05Z</time>
      </trkpt>
      <trkpt lat="48.71355" lon="-1.50515">
        <ele>5.42</ele>
        <time>2021-07-30T19:35:06Z</time>
      </trkpt>
      <trkpt lat="48.71363" lon="-1.5051">
        <ele>6.39</ele>
        <time>2021-07-30T19:35:07Z</time>
      </trkpt>
      <trkpt lat="48.7137" lon="-1.50505">
        <ele>6.87</ele>
        <time>2021-07-30T19:35:08Z</time>
      </trkpt>
      <trkpt lat="48.71372" lon="-1.50497">
        <ele>8.31</ele>
        <time>2021-07-30T19:35:09Z</time>
      </trkpt>
      <trkpt lat="48.71375" lon="-1.50486">
        <ele>8.79</ele>
        <time>2021-07-30T19:35:10Z</time>
      </trkpt>
      <trkpt lat="48.71378" lon="-1.50476">
        <ele>9.75</ele>
        <time>2021-07-30T19:35:11Z</time>
      </trkpt>
      <trkpt lat="48.71378" lon="-1.50465">
        <ele>10.71</ele>
        <time>2021-07-30T19:35:12Z</time>
      </trkpt>
      <trkpt lat="48.71375" lon="-1.50439">
        <ele>11.19</ele>
        <time>2021-07-30T19:35:13Z</time>
      </trkpt>
      <trkpt lat="48.71375" lon="-1.50439">
        <ele>12.15</ele>
        <time>2021-07-30T19:35:14Z</time>
      </trkpt>
      <trkpt lat="48.71356" lon="-1.50286">
        <ele>22.25</ele>
        <time>2021-07-30T19:35:24Z</time>
      </trkpt>
      <trkpt lat="48.71353" lon="-1.5027">
        <ele>22.73</ele>
        <time>2021-07-30T19:35:25Z</time>
      </trkpt>
      <trkpt lat="48.71349" lon="-1.5026">
        <ele>25.13</ele>
        <time>2021-07-30T19:35:26Z</time>
      </trkpt>
      <trkpt lat="48.71344" lon="-1.50249">
        <ele>26.57</ele>
        <time>2021-07-30T19:35:27Z</time>
      </trkpt>
      <trkpt lat="48.71338" lon="-1.5024">
        <ele>28.02</ele>
        <time>2021-07-30T19:35:28Z</time>
      </trkpt>
      <trkpt lat="48.71321" lon="-1.50215">
        <ele>30.42</ele>
        <time>2021-07-30T19:35:31Z</time>
      </trkpt>
      <trkpt lat="48.71316" lon="-1.50207">
        <ele>30.42</ele>
        <time>2021-07-30T19:35:32Z</time>
      </trkpt>
      <trkpt lat="48.71311" lon="-1.50198">
        <ele>30.9</ele>
        <time>2021-07-30T19:35:33Z</time>
      </trkpt>
      <trkpt lat="48.71307" lon="-1.50187">
        <ele>30.9</ele>
        <time>2021-07-30T19:35:34Z</time>
      </trkpt>
      <trkpt lat="48.71303" lon="-1.50174">
        <ele>31.38</ele>
        <time>2021-07-30T19:35:35Z</time>
      </trkpt>
      <trkpt lat="48.71263" lon="-1.50009">
        <ele>30.9</ele>
        <time>2021-07-30T19:35:46Z</time>
      </trkpt>
      <trkpt lat="48.71254" lon="-1.49948">
        <ele>33.78</ele>
        <time>2021-07-30T19:35:51Z</time>
      </trkpt>
      <trkpt lat="48.71254" lon="-1.4994">
        <ele>34.26</ele>
        <time>2021-07-30T19:35:52Z</time>
      </trkpt>
      <trkpt lat="48.71254" lon="-1.49936">
        <ele>34.74</ele>
        <time>2021-07-30T19:35:53Z</time>
      </trkpt>
      <trkpt lat="48.71254" lon="-1.49933">
        <ele>34.26</ele>
        <time>2021-07-30T19:35:54Z</time>
      </trkpt>
      <trkpt lat="48.71254" lon="-1.49928">
        <ele>34.26</ele>
        <time>2021-07-30T19:35:55Z</time>
      </trkpt>
      <trkpt lat="48.71253" lon="-1.49918">
        <ele>34.74</ele>
        <time>2021-07-30T19:35:57Z</time>
      </trkpt>
      <trkpt lat="48.71235" lon="-1.49839">
        <ele>38.11</ele>
        <time>2021-07-30T19:36:06Z</time>
      </trkpt>
      <trkpt lat="48.71223" lon="-1.49797">
        <ele>40.03</ele>
        <time>2021-07-30T19:36:09Z</time>
      </trkpt>
      <trkpt lat="48.71219" lon="-1.49788">
        <ele>40.51</ele>
        <time>2021-07-30T19:36:10Z</time>
      </trkpt>
      <trkpt lat="48.71213" lon="-1.49775">
        <ele>40.03</ele>
        <time>2021-07-30T19:36:11Z</time>
      </trkpt>
      <trkpt lat="48.7118" lon="-1.49714">
        <ele>40.99</ele>
        <time>2021-07-30T19:36:17Z</time>
      </trkpt>
      <trkpt lat="48.71173" lon="-1.49707">
        <ele>41.47</ele>
        <time>2021-07-30T19:36:18Z</time>
      </trkpt>
      <trkpt lat="48.71167" lon="-1.49701">
        <ele>41.95</ele>
        <time>2021-07-30T19:36:19Z</time>
      </trkpt>
      <trkpt lat="48.71159" lon="-1.49696">
        <ele>42.44</ele>
        <time>2021-07-30T19:36:20Z</time>
      </trkpt>
      <trkpt lat="48.7115" lon="-1.49692">
        <ele>42.44</ele>
        <time>2021-07-30T19:36:21Z</time>
      </trkpt>
      <trkpt lat="48.71133" lon="-1.49687">
        <ele>42.92</ele>
        <time>2021-07-30T19:36:22Z</time>
      </trkpt>
      <trkpt lat="48.7111" lon="-1.49682">
        <ele>42.92</ele>
        <time>2021-07-30T19:36:25Z</time>
      </trkpt>
      <trkpt lat="48.7111" lon="-1.49682">
        <ele>42.92</ele>
        <time>2021-07-30T19:36:26Z</time>
      </trkpt>
      <trkpt lat="48.71094" lon="-1.49671">
        <ele>43.4</ele>
        <time>2021-07-30T19:36:27Z</time>
      </trkpt>
      <trkpt lat="48.71094" lon="-1.49671">
        <ele>43.88</ele>
        <time>2021-07-30T19:36:28Z</time>
      </trkpt>
      <trkpt lat="48.71085" lon="-1.49664">
        <ele>43.4</ele>
        <time>2021-07-30T19:36:29Z</time>
      </trkpt>
      <trkpt lat="48.71077" lon="-1.49656">
        <ele>43.88</ele>
        <time>2021-07-30T19:36:30Z</time>
      </trkpt>
      <trkpt lat="48.71068" lon="-1.49645">
        <ele>43.88</ele>
        <time>2021-07-30T19:36:31Z</time>
      </trkpt>
      <trkpt lat="48.71059" lon="-1.49635">
        <ele>43.88</ele>
        <time>2021-07-30T19:36:32Z</time>
      </trkpt>
      <trkpt lat="48.71052" lon="-1.49624">
        <ele>43.88</ele>
        <time>2021-07-30T19:36:33Z</time>
      </trkpt>
      <trkpt lat="48.70963" lon="-1.495">
        <ele>45.32</ele>
        <time>2021-07-30T19:36:44Z</time>
      </trkpt>
      <trkpt lat="48.70931" lon="-1.49462">
        <ele>47.24</ele>
        <time>2021-07-30T19:36:50Z</time>
      </trkpt>
      <trkpt lat="48.70881" lon="-1.49405">
        <ele>45.8</ele>
        <time>2021-07-30T19:36:58Z</time>
      </trkpt>
      <trkpt lat="48.70788" lon="-1.49315">
        <ele>45.32</ele>
        <time>2021-07-30T19:37:07Z</time>
      </trkpt>
      <trkpt lat="48.70645" lon="-1.49188">
        <ele>44.84</ele>
        <time>2021-07-30T19:37:20Z</time>
      </trkpt>
      <trkpt lat="48.70517" lon="-1.49047">
        <ele>33.78</ele>
        <time>2021-07-30T19:37:32Z</time>
      </trkpt>
      <trkpt lat="48.70293" lon="-1.48752">
        <ele>20.32</ele>
        <time>2021-07-30T19:37:51Z</time>
      </trkpt>
      <trkpt lat="48.7008" lon="-1.4846">
        <ele>13.12</ele>
        <time>2021-07-30T19:38:10Z</time>
      </trkpt>
      <trkpt lat="48.70046" lon="-1.48414">
        <ele>13.12</ele>
        <time>2021-07-30T19:38:13Z</time>
      </trkpt>
      <trkpt lat="48.70031" lon="-1.48403">
        <ele>13.6</ele>
        <time>2021-07-30T19:38:14Z</time>
      </trkpt>
      <trkpt lat="48.70017" lon="-1.48391">
        <ele>14.08</ele>
        <time>2021-07-30T19:38:15Z</time>
      </trkpt>
      <trkpt lat="48.70003" lon="-1.48382">
        <ele>14.08</ele>
        <time>2021-07-30T19:38:16Z</time>
      </trkpt>
      <trkpt lat="48.69987" lon="-1.4838">
        <ele>13.12</ele>
        <time>2021-07-30T19:38:17Z</time>
      </trkpt>
      <trkpt lat="48.69971" lon="-1.48379">
        <ele>12.63</ele>
        <time>2021-07-30T19:38:18Z</time>
      </trkpt>
      <trkpt lat="48.69956" lon="-1.48377">
        <ele>12.63</ele>
        <time>2021-07-30T19:38:19Z</time>
      </trkpt>
      <trkpt lat="48.69897" lon="-1.48367">
        <ele>13.6</ele>
        <time>2021-07-30T19:38:22Z</time>
      </trkpt>
      <trkpt lat="48.69884" lon="-1.48359">
        <ele>14.08</ele>
        <time>2021-07-30T19:38:23Z</time>
      </trkpt>
      <trkpt lat="48.69884" lon="-1.48359">
        <ele>14.56</ele>
        <time>2021-07-30T19:38:24Z</time>
      </trkpt>
      <trkpt lat="48.69871" lon="-1.48347">
        <ele>15.04</ele>
        <time>2021-07-30T19:38:25Z</time>
      </trkpt>
      <trkpt lat="48.69858" lon="-1.48335">
        <ele>16</ele>
        <time>2021-07-30T19:38:26Z</time>
      </trkpt>
      <trkpt lat="48.69846" lon="-1.48324">
        <ele>16.96</ele>
        <time>2021-07-30T19:38:27Z</time>
      </trkpt>
      <trkpt lat="48.69724" lon="-1.48236">
        <ele>16</ele>
        <time>2021-07-30T19:38:36Z</time>
      </trkpt>
      <trkpt lat="48.6957" lon="-1.48155">
        <ele>13.6</ele>
        <time>2021-07-30T19:38:46Z</time>
      </trkpt>
      <trkpt lat="48.69391" lon="-1.48086">
        <ele>14.56</ele>
        <time>2021-07-30T19:38:58Z</time>
      </trkpt>
      <trkpt lat="48.6923" lon="-1.48037">
        <ele>14.56</ele>
        <time>2021-07-30T19:39:08Z</time>
      </trkpt>
      <trkpt lat="48.69087" lon="-1.47998">
        <ele>16.48</ele>
        <time>2021-07-30T19:39:17Z</time>
      </trkpt>
      <trkpt lat="48.68987" lon="-1.47979">
        <ele>15.52</ele>
        <time>2021-07-30T19:39:25Z</time>
      </trkpt>
      <trkpt lat="48.68858" lon="-1.47967">
        <ele>11.67</ele>
        <time>2021-07-30T19:39:38Z</time>
      </trkpt>
      <trkpt lat="48.68774" lon="-1.47969">
        <ele>10.23</ele>
        <time>2021-07-30T19:39:49Z</time>
      </trkpt>
      <trkpt lat="48.68655" lon="-1.47989">
        <ele>9.75</ele>
        <time>2021-07-30T19:40:01Z</time>
      </trkpt>
      <trkpt lat="48.68584" lon="-1.47972">
        <ele>9.75</ele>
        <time>2021-07-30T19:40:11Z</time>
      </trkpt>
      <trkpt lat="48.68576" lon="-1.47967">
        <ele>10.71</ele>
        <time>2021-07-30T19:40:12Z</time>
      </trkpt>
      <trkpt lat="48.68561" lon="-1.4795">
        <ele>11.19</ele>
        <time>2021-07-30T19:40:13Z</time>
      </trkpt>
      <trkpt lat="48.6851" lon="-1.47884">
        <ele>6.87</ele>
        <time>2021-07-30T19:40:23Z</time>
      </trkpt>
      <trkpt lat="48.68492" lon="-1.47864">
        <ele>8.79</ele>
        <time>2021-07-30T19:40:30Z</time>
      </trkpt>
      <trkpt lat="48.68479" lon="-1.47848">
        <ele>9.75</ele>
        <time>2021-07-30T19:40:38Z</time>
      </trkpt>
      <trkpt lat="48.68471" lon="-1.47839">
        <ele>9.75</ele>
        <time>2021-07-30T19:40:40Z</time>
      </trkpt>
      <trkpt lat="48.6844" lon="-1.47802">
        <ele>10.23</ele>
        <time>2021-07-30T19:40:46Z</time>
      </trkpt>
      <trkpt lat="48.68436" lon="-1.47794">
        <ele>10.23</ele>
        <time>2021-07-30T19:40:47Z</time>
      </trkpt>
      <trkpt lat="48.68433" lon="-1.47786">
        <ele>10.23</ele>
        <time>2021-07-30T19:40:48Z</time>
      </trkpt>
      <trkpt lat="48.68431" lon="-1.47775">
        <ele>10.23</ele>
        <time>2021-07-30T19:40:49Z</time>
      </trkpt>
      <trkpt lat="48.68428" lon="-1.47764">
        <ele>10.23</ele>
        <time>2021-07-30T19:40:50Z</time>
      </trkpt>
      <trkpt lat="48.68426" lon="-1.47752">
        <ele>10.23</ele>
        <time>2021-07-30T19:40:51Z</time>
      </trkpt>
      <trkpt lat="48.68427" lon="-1.47739">
        <ele>10.23</ele>
        <time>2021-07-30T19:40:52Z</time>
      </trkpt>
      <trkpt lat="48.68428" lon="-1.47726">
        <ele>10.71</ele>
        <time>2021-07-30T19:40:53Z</time>
      </trkpt>
      <trkpt lat="48.68429" lon="-1.4771">
        <ele>10.71</ele>
        <time>2021-07-30T19:40:54Z</time>
      </trkpt>
      <trkpt lat="48.68446" lon="-1.47567">
        <ele>11.19</ele>
        <time>2021-07-30T19:41:06Z</time>
      </trkpt>
      <trkpt lat="48.68475" lon="-1.47394">
        <ele>10.71</ele>
        <time>2021-07-30T19:41:18Z</time>
      </trkpt>
      <trkpt lat="48.68496" lon="-1.47284">
        <ele>9.27</ele>
        <time>2021-07-30T19:41:25Z</time>
      </trkpt>
      <trkpt lat="48.68496" lon="-1.47284">
        <ele>9.27</ele>
        <time>2021-07-30T19:41:26Z</time>
      </trkpt>
      <trkpt lat="48.68496" lon="-1.47275">
        <ele>8.79</ele>
        <time>2021-07-30T19:41:27Z</time>
      </trkpt>
      <trkpt lat="48.68492" lon="-1.47266">
        <ele>8.79</ele>
        <time>2021-07-30T19:41:28Z</time>
      </trkpt>
      <trkpt lat="48.68488" lon="-1.47259">
        <ele>8.31</ele>
        <time>2021-07-30T19:41:29Z</time>
      </trkpt>
      <trkpt lat="48.68482" lon="-1.47253">
        <ele>7.83</ele>
        <time>2021-07-30T19:41:30Z</time>
      </trkpt>
      <trkpt lat="48.68445" lon="-1.47208">
        <ele>8.79</ele>
        <time>2021-07-30T19:41:36Z</time>
      </trkpt>
      <trkpt lat="48.68442" lon="-1.47198">
        <ele>8.79</ele>
        <time>2021-07-30T19:41:37Z</time>
      </trkpt>
      <trkpt lat="48.6844" lon="-1.47188">
        <ele>9.27</ele>
        <time>2021-07-30T19:41:38Z</time>
      </trkpt>
      <trkpt lat="48.68439" lon="-1.47178">
        <ele>9.27</ele>
        <time>2021-07-30T19:41:39Z</time>
      </trkpt>
      <trkpt lat="48.6844" lon="-1.47167">
        <ele>9.27</ele>
        <time>2021-07-30T19:41:40Z</time>
      </trkpt>
      <trkpt lat="48.68441" lon="-1.47154">
        <ele>9.27</ele>
        <time>2021-07-30T19:41:41Z</time>
      </trkpt>
      <trkpt lat="48.68443" lon="-1.47143">
        <ele>9.75</ele>
        <time>2021-07-30T19:41:42Z</time>
      </trkpt>
      <trkpt lat="48.68492" lon="-1.46982">
        <ele>10.71</ele>
        <time>2021-07-30T19:41:54Z</time>
      </trkpt>
      <trkpt lat="48.68529" lon="-1.46832">
        <ele>11.67</ele>
        <time>2021-07-30T19:42:07Z</time>
      </trkpt>
      <trkpt lat="48.68535" lon="-1.46807">
        <ele>12.15</ele>
        <time>2021-07-30T19:42:09Z</time>
      </trkpt>
      <trkpt lat="48.68541" lon="-1.46796">
        <ele>13.6</ele>
        <time>2021-07-30T19:42:10Z</time>
      </trkpt>
      <trkpt lat="48.68555" lon="-1.46773">
        <ele>13.6</ele>
        <time>2021-07-30T19:42:11Z</time>
      </trkpt>
      <trkpt lat="48.68555" lon="-1.46773">
        <ele>13.6</ele>
        <time>2021-07-30T19:42:12Z</time>
      </trkpt>
      <trkpt lat="48.68562" lon="-1.46763">
        <ele>13.6</ele>
        <time>2021-07-30T19:42:13Z</time>
      </trkpt>
      <trkpt lat="48.68571" lon="-1.46753">
        <ele>13.6</ele>
        <time>2021-07-30T19:42:14Z</time>
      </trkpt>
      <trkpt lat="48.68618" lon="-1.46697">
        <ele>14.08</ele>
        <time>2021-07-30T19:42:19Z</time>
      </trkpt>
      <trkpt lat="48.68625" lon="-1.46684">
        <ele>15.04</ele>
        <time>2021-07-30T19:42:20Z</time>
      </trkpt>
      <trkpt lat="48.68632" lon="-1.46671">
        <ele>15.52</ele>
        <time>2021-07-30T19:42:21Z</time>
      </trkpt>
      <trkpt lat="48.68639" lon="-1.46656">
        <ele>15.04</ele>
        <time>2021-07-30T19:42:22Z</time>
      </trkpt>
      <trkpt lat="48.6865" lon="-1.46623">
        <ele>15.52</ele>
        <time>2021-07-30T19:42:23Z</time>
      </trkpt>
      <trkpt lat="48.68654" lon="-1.46602">
        <ele>15.52</ele>
        <time>2021-07-30T19:42:24Z</time>
      </trkpt>
      <trkpt lat="48.68654" lon="-1.46602">
        <ele>15.52</ele>
        <time>2021-07-30T19:42:25Z</time>
      </trkpt>
      <trkpt lat="48.68701" lon="-1.4634">
        <ele>17.92</ele>
        <time>2021-07-30T19:42:38Z</time>
      </trkpt>
      <trkpt lat="48.68744" lon="-1.46115">
        <ele>20.32</ele>
        <time>2021-07-30T19:42:49Z</time>
      </trkpt>
      <trkpt lat="48.6879" lon="-1.45826">
        <ele>28.98</ele>
        <time>2021-07-30T19:43:02Z</time>
      </trkpt>
      <trkpt lat="48.68851" lon="-1.45548">
        <ele>33.3</ele>
        <time>2021-07-30T19:43:16Z</time>
      </trkpt>
      <trkpt lat="48.68924" lon="-1.45313">
        <ele>33.3</ele>
        <time>2021-07-30T19:43:26Z</time>
      </trkpt>
      <trkpt lat="48.68924" lon="-1.45313">
        <ele>33.3</ele>
        <time>2021-07-30T19:43:27Z</time>
      </trkpt>
      <trkpt lat="48.68926" lon="-1.45292">
        <ele>33.78</ele>
        <time>2021-07-30T19:43:28Z</time>
      </trkpt>
      <trkpt lat="48.68925" lon="-1.45273">
        <ele>33.78</ele>
        <time>2021-07-30T19:43:29Z</time>
      </trkpt>
      <trkpt lat="48.68921" lon="-1.4523">
        <ele>33.78</ele>
        <time>2021-07-30T19:43:30Z</time>
      </trkpt>
      <trkpt lat="48.6888" lon="-1.44936">
        <ele>34.74</ele>
        <time>2021-07-30T19:43:44Z</time>
      </trkpt>
      <trkpt lat="48.68872" lon="-1.44738">
        <ele>33.78</ele>
        <time>2021-07-30T19:43:52Z</time>
      </trkpt>
      <trkpt lat="48.68871" lon="-1.44717">
        <ele>34.26</ele>
        <time>2021-07-30T19:43:53Z</time>
      </trkpt>
      <trkpt lat="48.68871" lon="-1.44695">
        <ele>34.26</ele>
        <time>2021-07-30T19:43:54Z</time>
      </trkpt>
      <trkpt lat="48.68869" lon="-1.44674">
        <ele>33.3</ele>
        <time>2021-07-30T19:43:55Z</time>
      </trkpt>
      <trkpt lat="48.68858" lon="-1.44629">
        <ele>32.82</ele>
        <time>2021-07-30T19:43:56Z</time>
      </trkpt>
      <trkpt lat="48.68858" lon="-1.44629">
        <ele>33.78</ele>
        <time>2021-07-30T19:43:57Z</time>
      </trkpt>
      <trkpt lat="48.68835" lon="-1.4446">
        <ele>35.71</ele>
        <time>2021-07-30T19:44:05Z</time>
      </trkpt>
      <trkpt lat="48.68832" lon="-1.44161">
        <ele>39.55</ele>
        <time>2021-07-30T19:44:19Z</time>
      </trkpt>
      <trkpt lat="48.68807" lon="-1.43926">
        <ele>38.11</ele>
        <time>2021-07-30T19:44:29Z</time>
      </trkpt>
      <trkpt lat="48.68748" lon="-1.43694">
        <ele>37.15</ele>
        <time>2021-07-30T19:44:38Z</time>
      </trkpt>
      <trkpt lat="48.68712" lon="-1.43574">
        <ele>36.19</ele>
        <time>2021-07-30T19:44:44Z</time>
      </trkpt>
      <trkpt lat="48.68646" lon="-1.43386">
        <ele>35.23</ele>
        <time>2021-07-30T19:44:51Z</time>
      </trkpt>
      <trkpt lat="48.68535" lon="-1.42889">
        <ele>22.73</ele>
        <time>2021-07-30T19:45:13Z</time>
      </trkpt>
      <trkpt lat="48.68518" lon="-1.42806">
        <ele>23.69</ele>
        <time>2021-07-30T19:45:17Z</time>
      </trkpt>
      <trkpt lat="48.68518" lon="-1.42785">
        <ele>24.65</ele>
        <time>2021-07-30T19:45:18Z</time>
      </trkpt>
      <trkpt lat="48.68518" lon="-1.42765">
        <ele>25.61</ele>
        <time>2021-07-30T19:45:19Z</time>
      </trkpt>
      <trkpt lat="48.6852" lon="-1.42745">
        <ele>26.57</ele>
        <time>2021-07-30T19:45:20Z</time>
      </trkpt>
      <trkpt lat="48.68523" lon="-1.42725">
        <ele>28.5</ele>
        <time>2021-07-30T19:45:21Z</time>
      </trkpt>
      <trkpt lat="48.68547" lon="-1.42485">
        <ele>28.5</ele>
        <time>2021-07-30T19:45:32Z</time>
      </trkpt>
      <trkpt lat="48.68548" lon="-1.42415">
        <ele>27.05</ele>
        <time>2021-07-30T19:45:35Z</time>
      </trkpt>
      <trkpt lat="48.68543" lon="-1.42392">
        <ele>26.09</ele>
        <time>2021-07-30T19:45:36Z</time>
      </trkpt>
      <trkpt lat="48.68482" lon="-1.42164">
        <ele>20.81</ele>
        <time>2021-07-30T19:45:46Z</time>
      </trkpt>
      <trkpt lat="48.68354" lon="-1.41851">
        <ele>20.32</ele>
        <time>2021-07-30T19:46:01Z</time>
      </trkpt>
      <trkpt lat="48.68275" lon="-1.41613">
        <ele>26.57</ele>
        <time>2021-07-30T19:46:12Z</time>
      </trkpt>
      <trkpt lat="48.68236" lon="-1.41457">
        <ele>27.05</ele>
        <time>2021-07-30T19:46:21Z</time>
      </trkpt>
      <trkpt lat="48.68211" lon="-1.41363">
        <ele>26.09</ele>
        <time>2021-07-30T19:46:28Z</time>
      </trkpt>
      <trkpt lat="48.68173" lon="-1.4127">
        <ele>22.73</ele>
        <time>2021-07-30T19:46:38Z</time>
      </trkpt>
      <trkpt lat="48.68136" lon="-1.41145">
        <ele>17.44</ele>
        <time>2021-07-30T19:46:50Z</time>
      </trkpt>
      <trkpt lat="48.68105" lon="-1.40997">
        <ele>13.12</ele>
        <time>2021-07-30T19:47:01Z</time>
      </trkpt>
      <trkpt lat="48.6806" lon="-1.40784">
        <ele>9.27</ele>
        <time>2021-07-30T19:47:13Z</time>
      </trkpt>
      <trkpt lat="48.67997" lon="-1.40406">
        <ele>8.79</ele>
        <time>2021-07-30T19:47:32Z</time>
      </trkpt>
      <trkpt lat="48.67973" lon="-1.40127">
        <ele>10.71</ele>
        <time>2021-07-30T19:47:46Z</time>
      </trkpt>
      <trkpt lat="48.6798" lon="-1.39808">
        <ele>11.19</ele>
        <time>2021-07-30T19:48:01Z</time>
      </trkpt>
      <trkpt lat="48.68037" lon="-1.39468">
        <ele>10.23</ele>
        <time>2021-07-30T19:48:17Z</time>
      </trkpt>
      <trkpt lat="48.68085" lon="-1.39245">
        <ele>9.27</ele>
        <time>2021-07-30T19:48:29Z</time>
      </trkpt>
      <trkpt lat="48.68214" lon="-1.38849">
        <ele>10.71</ele>
        <time>2021-07-30T19:48:48Z</time>
      </trkpt>
      <trkpt lat="48.68245" lon="-1.38774">
        <ele>10.71</ele>
        <time>2021-07-30T19:48:53Z</time>
      </trkpt>
      <trkpt lat="48.68254" lon="-1.38757">
        <ele>10.71</ele>
        <time>2021-07-30T19:48:54Z</time>
      </trkpt>
      <trkpt lat="48.68282" lon="-1.38704">
        <ele>10.23</ele>
        <time>2021-07-30T19:48:57Z</time>
      </trkpt>
      <trkpt lat="48.6829" lon="-1.38684">
        <ele>10.71</ele>
        <time>2021-07-30T19:48:58Z</time>
      </trkpt>
      <trkpt lat="48.68298" lon="-1.38664">
        <ele>11.19</ele>
        <time>2021-07-30T19:48:59Z</time>
      </trkpt>
      <trkpt lat="48.68306" lon="-1.38644">
        <ele>12.15</ele>
        <time>2021-07-30T19:49:00Z</time>
      </trkpt>
      <trkpt lat="48.68313" lon="-1.38623">
        <ele>12.63</ele>
        <time>2021-07-30T19:49:01Z</time>
      </trkpt>
      <trkpt lat="48.68394" lon="-1.38421">
        <ele>16</ele>
        <time>2021-07-30T19:49:11Z</time>
      </trkpt>
      <trkpt lat="48.68613" lon="-1.38121">
        <ele>11.19</ele>
        <time>2021-07-30T19:49:29Z</time>
      </trkpt>
      <trkpt lat="48.68631" lon="-1.38096">
        <ele>11.19</ele>
        <time>2021-07-30T19:49:31Z</time>
      </trkpt>
      <trkpt lat="48.68641" lon="-1.38082">
        <ele>11.19</ele>
        <time>2021-07-30T19:49:32Z</time>
      </trkpt>
      <trkpt lat="48.68641" lon="-1.38082">
        <ele>11.19</ele>
        <time>2021-07-30T19:49:33Z</time>
      </trkpt>
      <trkpt lat="48.68644" lon="-1.38079">
        <ele>11.19</ele>
        <time>2021-07-30T19:49:34Z</time>
      </trkpt>
      <trkpt lat="48.68647" lon="-1.38077">
        <ele>10.71</ele>
        <time>2021-07-30T19:49:44Z</time>
      </trkpt>
      <trkpt lat="48.68651" lon="-1.38072">
        <ele>11.19</ele>
        <time>2021-07-30T19:55:28Z</time>
      </trkpt>
      <trkpt lat="48.68693" lon="-1.38039">
        <ele>11.19</ele>
        <time>2021-07-30T19:55:37Z</time>
      </trkpt>
      <trkpt lat="48.68801" lon="-1.37999">
        <ele>7.83</ele>
        <time>2021-07-30T19:55:48Z</time>
      </trkpt>
    </trkseg>
  </trk>
  <trk>
    <name><![CDATA[Journal actif: 2021-07-30 17:55]]></name>
    <trkseg>
      <trkpt lat="48.6891" lon="-1.37969">
        <ele>7.83</ele>
        <time>2021-07-30T19:55:57Z</time>
      </trkpt>
      <trkpt lat="48.69012" lon="-1.37908">
        <ele>9.75</ele>
        <time>2021-07-30T19:56:06Z</time>
      </trkpt>
      <trkpt lat="48.69094" lon="-1.37793">
        <ele>9.27</ele>
        <time>2021-07-30T19:56:14Z</time>
      </trkpt>
      <trkpt lat="48.69243" lon="-1.37564">
        <ele>11.67</ele>
        <time>2021-07-30T19:56:28Z</time>
      </trkpt>
      <trkpt lat="48.69338" lon="-1.37439">
        <ele>12.15</ele>
        <time>2021-07-30T19:56:38Z</time>
      </trkpt>
      <trkpt lat="48.69365" lon="-1.374">
        <ele>9.75</ele>
        <time>2021-07-30T19:56:46Z</time>
      </trkpt>
      <trkpt lat="48.69366" lon="-1.37388">
        <ele>9.27</ele>
        <time>2021-07-30T19:56:48Z</time>
      </trkpt>
      <trkpt lat="48.69363" lon="-1.37381">
        <ele>8.79</ele>
        <time>2021-07-30T19:56:49Z</time>
      </trkpt>
      <trkpt lat="48.6936" lon="-1.37376">
        <ele>8.31</ele>
        <time>2021-07-30T19:56:50Z</time>
      </trkpt>
      <trkpt lat="48.69298" lon="-1.37288">
        <ele>7.83</ele>
        <time>2021-07-30T19:57:01Z</time>
      </trkpt>
      <trkpt lat="48.69282" lon="-1.37263">
        <ele>6.87</ele>
        <time>2021-07-30T19:57:04Z</time>
      </trkpt>
      <trkpt lat="48.69279" lon="-1.37255">
        <ele>6.87</ele>
        <time>2021-07-30T19:57:05Z</time>
      </trkpt>
      <trkpt lat="48.69276" lon="-1.37248">
        <ele>6.87</ele>
        <time>2021-07-30T19:57:06Z</time>
      </trkpt>
      <trkpt lat="48.69273" lon="-1.37241">
        <ele>7.35</ele>
        <time>2021-07-30T19:57:07Z</time>
      </trkpt>
      <trkpt lat="48.69272" lon="-1.37235">
        <ele>7.35</ele>
        <time>2021-07-30T19:57:08Z</time>
      </trkpt>
      <trkpt lat="48.69273" lon="-1.37228">
        <ele>7.35</ele>
        <time>2021-07-30T19:57:09Z</time>
      </trkpt>
      <trkpt lat="48.69275" lon="-1.37219">
        <ele>7.35</ele>
        <time>2021-07-30T19:57:10Z</time>
      </trkpt>
      <trkpt lat="48.69292" lon="-1.37091">
        <ele>11.19</ele>
        <time>2021-07-30T19:57:19Z</time>
      </trkpt>
      <trkpt lat="48.69275" lon="-1.36932">
        <ele>14.08</ele>
        <time>2021-07-30T19:57:28Z</time>
      </trkpt>
      <trkpt lat="48.69225" lon="-1.36754">
        <ele>11.19</ele>
        <time>2021-07-30T19:57:38Z</time>
      </trkpt>
      <trkpt lat="48.69203" lon="-1.36711">
        <ele>9.27</ele>
        <time>2021-07-30T19:57:42Z</time>
      </trkpt>
      <trkpt lat="48.69197" lon="-1.36705">
        <ele>9.27</ele>
        <time>2021-07-30T19:57:43Z</time>
      </trkpt>
      <trkpt lat="48.69191" lon="-1.36702">
        <ele>9.27</ele>
        <time>2021-07-30T19:57:44Z</time>
      </trkpt>
      <trkpt lat="48.69186" lon="-1.367">
        <ele>9.75</ele>
        <time>2021-07-30T19:57:45Z</time>
      </trkpt>
      <trkpt lat="48.69182" lon="-1.36697">
        <ele>9.27</ele>
        <time>2021-07-30T19:57:46Z</time>
      </trkpt>
      <trkpt lat="48.69177" lon="-1.36695">
        <ele>8.79</ele>
        <time>2021-07-30T19:57:47Z</time>
      </trkpt>
      <trkpt lat="48.69172" lon="-1.36695">
        <ele>8.31</ele>
        <time>2021-07-30T19:57:48Z</time>
      </trkpt>
      <trkpt lat="48.69158" lon="-1.367">
        <ele>7.83</ele>
        <time>2021-07-30T19:57:50Z</time>
      </trkpt>
      <trkpt lat="48.6915" lon="-1.367">
        <ele>7.83</ele>
        <time>2021-07-30T19:57:51Z</time>
      </trkpt>
      <trkpt lat="48.69143" lon="-1.36699">
        <ele>7.83</ele>
        <time>2021-07-30T19:57:52Z</time>
      </trkpt>
      <trkpt lat="48.69137" lon="-1.36693">
        <ele>8.31</ele>
        <time>2021-07-30T19:57:53Z</time>
      </trkpt>
      <trkpt lat="48.69131" lon="-1.36685">
        <ele>8.31</ele>
        <time>2021-07-30T19:57:54Z</time>
      </trkpt>
      <trkpt lat="48.69126" lon="-1.36677">
        <ele>8.79</ele>
        <time>2021-07-30T19:57:55Z</time>
      </trkpt>
      <trkpt lat="48.69119" lon="-1.36658">
        <ele>9.27</ele>
        <time>2021-07-30T19:57:56Z</time>
      </trkpt>
      <trkpt lat="48.69119" lon="-1.36647">
        <ele>9.75</ele>
        <time>2021-07-30T19:57:57Z</time>
      </trkpt>
      <trkpt lat="48.69119" lon="-1.36635">
        <ele>9.75</ele>
        <time>2021-07-30T19:57:58Z</time>
      </trkpt>
      <trkpt lat="48.69119" lon="-1.36635">
        <ele>10.71</ele>
        <time>2021-07-30T19:57:59Z</time>
      </trkpt>
      <trkpt lat="48.69119" lon="-1.36632">
        <ele>10.71</ele>
        <time>2021-07-30T19:58:00Z</time>
      </trkpt>
      <trkpt lat="48.69123" lon="-1.36611">
        <ele>11.19</ele>
        <time>2021-07-30T19:58:01Z</time>
      </trkpt>
      <trkpt lat="48.6912" lon="-1.366">
        <ele>11.19</ele>
        <time>2021-07-30T19:58:02Z</time>
      </trkpt>
      <trkpt lat="48.69117" lon="-1.36589">
        <ele>11.19</ele>
        <time>2021-07-30T19:58:03Z</time>
      </trkpt>
      <trkpt lat="48.69114" lon="-1.36577">
        <ele>11.67</ele>
        <time>2021-07-30T19:58:04Z</time>
      </trkpt>
      <trkpt lat="48.69107" lon="-1.36564">
        <ele>10.71</ele>
        <time>2021-07-30T19:58:05Z</time>
      </trkpt>
      <trkpt lat="48.69046" lon="-1.36433">
        <ele>17.44</ele>
        <time>2021-07-30T19:58:15Z</time>
      </trkpt>
      <trkpt lat="48.69025" lon="-1.36356">
        <ele>19.84</ele>
        <time>2021-07-30T19:58:20Z</time>
      </trkpt>
      <trkpt lat="48.69022" lon="-1.3634">
        <ele>20.81</ele>
        <time>2021-07-30T19:58:21Z</time>
      </trkpt>
      <trkpt lat="48.68988" lon="-1.36134">
        <ele>30.9</ele>
        <time>2021-07-30T19:58:34Z</time>
      </trkpt>
      <trkpt lat="48.68966" lon="-1.36003">
        <ele>36.19</ele>
        <time>2021-07-30T19:58:43Z</time>
      </trkpt>
      <trkpt lat="48.68965" lon="-1.35997">
        <ele>36.67</ele>
        <time>2021-07-30T19:58:44Z</time>
      </trkpt>
      <trkpt lat="48.68965" lon="-1.35997">
        <ele>36.67</ele>
        <time>2021-07-30T19:58:45Z</time>
      </trkpt>
      <trkpt lat="48.6896" lon="-1.36">
        <ele>36.67</ele>
        <time>2021-07-30T19:58:46Z</time>
      </trkpt>
      <trkpt lat="48.68955" lon="-1.36">
        <ele>37.15</ele>
        <time>2021-07-30T19:58:47Z</time>
      </trkpt>
      <trkpt lat="48.68958" lon="-1.36001">
        <ele>37.15</ele>
        <time>2021-07-30T19:58:48Z</time>
      </trkpt>
      <trkpt lat="48.68952" lon="-1.35999">
        <ele>37.15</ele>
        <time>2021-07-30T19:58:49Z</time>
      </trkpt>
      <trkpt lat="48.68951" lon="-1.36004">
        <ele>37.15</ele>
        <time>2021-07-30T19:58:50Z</time>
      </trkpt>
      <trkpt lat="48.6895" lon="-1.3601">
        <ele>37.15</ele>
        <time>2021-07-30T19:58:51Z</time>
      </trkpt>
      <trkpt lat="48.68937" lon="-1.36124">
        <ele>40.51</ele>
        <time>2021-07-30T19:59:00Z</time>
      </trkpt>
      <trkpt lat="48.68918" lon="-1.3629">
        <ele>47.24</ele>
        <time>2021-07-30T19:59:11Z</time>
      </trkpt>
      <trkpt lat="48.68886" lon="-1.36454">
        <ele>55.89</ele>
        <time>2021-07-30T19:59:20Z</time>
      </trkpt>
      <trkpt lat="48.68869" lon="-1.36506">
        <ele>57.82</ele>
        <time>2021-07-30T19:59:23Z</time>
      </trkpt>
      <trkpt lat="48.68862" lon="-1.36521">
        <ele>59.26</ele>
        <time>2021-07-30T19:59:24Z</time>
      </trkpt>
      <trkpt lat="48.68854" lon="-1.36532">
        <ele>60.7</ele>
        <time>2021-07-30T19:59:25Z</time>
      </trkpt>
      <trkpt lat="48.68839" lon="-1.36548">
        <ele>62.14</ele>
        <time>2021-07-30T19:59:26Z</time>
      </trkpt>
      <trkpt lat="48.68839" lon="-1.36548">
        <ele>62.14</ele>
        <time>2021-07-30T19:59:27Z</time>
      </trkpt>
      <trkpt lat="48.6883" lon="-1.36554">
        <ele>62.62</ele>
        <time>2021-07-30T19:59:28Z</time>
      </trkpt>
      <trkpt lat="48.68814" lon="-1.36557">
        <ele>62.62</ele>
        <time>2021-07-30T19:59:29Z</time>
      </trkpt>
      <trkpt lat="48.68808" lon="-1.36557">
        <ele>63.1</ele>
        <time>2021-07-30T19:59:30Z</time>
      </trkpt>
      <trkpt lat="48.68808" lon="-1.36557">
        <ele>63.58</ele>
        <time>2021-07-30T19:59:31Z</time>
      </trkpt>
      <trkpt lat="48.68797" lon="-1.36566">
        <ele>63.58</ele>
        <time>2021-07-30T19:59:32Z</time>
      </trkpt>
      <trkpt lat="48.68791" lon="-1.36561">
        <ele>64.07</ele>
        <time>2021-07-30T19:59:33Z</time>
      </trkpt>
      <trkpt lat="48.68787" lon="-1.36564">
        <ele>64.55</ele>
        <time>2021-07-30T19:59:34Z</time>
      </trkpt>
      <trkpt lat="48.68781" lon="-1.36568">
        <ele>64.07</ele>
        <time>2021-07-30T19:59:35Z</time>
      </trkpt>
      <trkpt lat="48.68775" lon="-1.36572">
        <ele>64.55</ele>
        <time>2021-07-30T19:59:36Z</time>
      </trkpt>
      <trkpt lat="48.68694" lon="-1.36627">
        <ele>67.43</ele>
        <time>2021-07-30T19:59:45Z</time>
      </trkpt>
      <trkpt lat="48.68618" lon="-1.36675">
        <ele>77.52</ele>
        <time>2021-07-30T19:59:54Z</time>
      </trkpt>
      <trkpt lat="48.68608" lon="-1.36711">
        <ele>77.04</ele>
        <time>2021-07-30T20:00:05Z</time>
      </trkpt>
    </trkseg>
  </trk>
  <trk>
    <name><![CDATA[Journal actif: 2021-07-30 18:01]]></name>
    <trkseg>
      <trkpt lat="48.68637" lon="-1.36758">
        <ele>67.43</ele>
        <time>2021-07-30T20:01:39Z</time>
      </trkpt>
      <trkpt lat="48.68627" lon="-1.3675">
        <ele>70.31</ele>
        <time>2021-07-30T20:01:50Z</time>
      </trkpt>
      <trkpt lat="48.68623" lon="-1.36749">
        <ele>70.79</ele>
        <time>2021-07-30T20:01:51Z</time>
      </trkpt>
      <trkpt lat="48.68619" lon="-1.36748">
        <ele>71.27</ele>
        <time>2021-07-30T20:01:52Z</time>
      </trkpt>
      <trkpt lat="48.68616" lon="-1.36747">
        <ele>72.24</ele>
        <time>2021-07-30T20:01:53Z</time>
      </trkpt>
      <trkpt lat="48.68613" lon="-1.36743">
        <ele>72.72</ele>
        <time>2021-07-30T20:01:54Z</time>
      </trkpt>
      <trkpt lat="48.68609" lon="-1.36739">
        <ele>73.68</ele>
        <time>2021-07-30T20:01:55Z</time>
      </trkpt>
      <trkpt lat="48.68604" lon="-1.36734">
        <ele>74.16</ele>
        <time>2021-07-30T20:01:56Z</time>
      </trkpt>
      <trkpt lat="48.68605" lon="-1.36728">
        <ele>75.12</ele>
        <time>2021-07-30T20:01:57Z</time>
      </trkpt>
      <trkpt lat="48.68605" lon="-1.36728">
        <ele>75.6</ele>
        <time>2021-07-30T20:01:58Z</time>
      </trkpt>
      <trkpt lat="48.68607" lon="-1.36715">
        <ele>76.56</ele>
        <time>2021-07-30T20:01:59Z</time>
      </trkpt>
      <trkpt lat="48.68607" lon="-1.36715">
        <ele>77.04</ele>
        <time>2021-07-30T20:02:00Z</time>
      </trkpt>
      <trkpt lat="48.68608" lon="-1.3671">
        <ele>77.52</ele>
        <time>2021-07-30T20:02:01Z</time>
      </trkpt>
      <trkpt lat="48.68609" lon="-1.36706">
        <ele>77.52</ele>
        <time>2021-07-30T20:02:02Z</time>
      </trkpt>
      <trkpt lat="48.68609" lon="-1.36703">
        <ele>78</ele>
        <time>2021-07-30T20:02:03Z</time>
      </trkpt>
      <trkpt lat="48.68609" lon="-1.36702">
        <ele>78</ele>
        <time>2021-07-30T20:02:04Z</time>
      </trkpt>
      <trkpt lat="48.68609" lon="-1.36701">
        <ele>78.48</ele>
        <time>2021-07-30T20:02:05Z</time>
      </trkpt>
      <trkpt lat="48.68597" lon="-1.36684">
        <ele>78.97</ele>
        <time>2021-07-30T20:02:07Z</time>
      </trkpt>
      <trkpt lat="48.68588" lon="-1.36688">
        <ele>79.45</ele>
        <time>2021-07-30T20:02:08Z</time>
      </trkpt>
      <trkpt lat="48.68582" lon="-1.3669">
        <ele>79.93</ele>
        <time>2021-07-30T20:02:09Z</time>
      </trkpt>
      <trkpt lat="48.68576" lon="-1.36688">
        <ele>80.41</ele>
        <time>2021-07-30T20:02:10Z</time>
      </trkpt>
      <trkpt lat="48.68576" lon="-1.36688">
        <ele>81.37</ele>
        <time>2021-07-30T20:02:11Z</time>
      </trkpt>
      <trkpt lat="48.68569" lon="-1.36686">
        <ele>81.85</ele>
        <time>2021-07-30T20:02:12Z</time>
      </trkpt>
      <trkpt lat="48.68561" lon="-1.36684">
        <ele>82.33</ele>
        <time>2021-07-30T20:02:13Z</time>
      </trkpt>
      <trkpt lat="48.68545" lon="-1.36676">
        <ele>83.77</ele>
        <time>2021-07-30T20:02:14Z</time>
      </trkpt>
      <trkpt lat="48.68545" lon="-1.36676">
        <ele>85.21</ele>
        <time>2021-07-30T20:02:15Z</time>
      </trkpt>
      <trkpt lat="48.68529" lon="-1.36661">
        <ele>85.21</ele>
        <time>2021-07-30T20:02:16Z</time>
      </trkpt>
      <trkpt lat="48.68529" lon="-1.36661">
        <ele>85.69</ele>
        <time>2021-07-30T20:02:17Z</time>
      </trkpt>
      <trkpt lat="48.68521" lon="-1.36652">
        <ele>86.18</ele>
        <time>2021-07-30T20:02:18Z</time>
      </trkpt>
      <trkpt lat="48.68516" lon="-1.36643">
        <ele>87.62</ele>
        <time>2021-07-30T20:02:19Z</time>
      </trkpt>
      <trkpt lat="48.68506" lon="-1.36621">
        <ele>88.58</ele>
        <time>2021-07-30T20:02:20Z</time>
      </trkpt>
      <trkpt lat="48.68506" lon="-1.36621">
        <ele>89.54</ele>
        <time>2021-07-30T20:02:21Z</time>
      </trkpt>
      <trkpt lat="48.68503" lon="-1.36606">
        <ele>90.02</ele>
        <time>2021-07-30T20:02:22Z</time>
      </trkpt>
      <trkpt lat="48.68501" lon="-1.36592">
        <ele>91.94</ele>
        <time>2021-07-30T20:02:23Z</time>
      </trkpt>
      <trkpt lat="48.68497" lon="-1.36566">
        <ele>91.94</ele>
        <time>2021-07-30T20:02:24Z</time>
      </trkpt>
      <trkpt lat="48.68483" lon="-1.36488">
        <ele>95.31</ele>
        <time>2021-07-30T20:02:33Z</time>
      </trkpt>
      <trkpt lat="48.68481" lon="-1.3648">
        <ele>95.79</ele>
        <time>2021-07-30T20:02:34Z</time>
      </trkpt>
      <trkpt lat="48.68479" lon="-1.36472">
        <ele>95.79</ele>
        <time>2021-07-30T20:02:35Z</time>
      </trkpt>
      <trkpt lat="48.68476" lon="-1.3646">
        <ele>95.79</ele>
        <time>2021-07-30T20:02:36Z</time>
      </trkpt>
      <trkpt lat="48.68476" lon="-1.3646">
        <ele>95.79</ele>
        <time>2021-07-30T20:02:37Z</time>
      </trkpt>
      <trkpt lat="48.68475" lon="-1.36455">
        <ele>96.27</ele>
        <time>2021-07-30T20:02:38Z</time>
      </trkpt>
      <trkpt lat="48.68474" lon="-1.36452">
        <ele>96.27</ele>
        <time>2021-07-30T20:02:39Z</time>
      </trkpt>
      <trkpt lat="48.68447" lon="-1.36437">
        <ele>96.75</ele>
        <time>2021-07-30T20:02:40Z</time>
      </trkpt>
      <trkpt lat="48.68417" lon="-1.36467">
        <ele>96.27</ele>
        <time>2021-07-30T20:02:51Z</time>
      </trkpt>
      <trkpt lat="48.68406" lon="-1.36477">
        <ele>94.35</ele>
        <time>2021-07-30T20:03:03Z</time>
      </trkpt>
      <trkpt lat="48.68406" lon="-1.36477">
        <ele>94.35</ele>
        <time>2021-07-30T20:03:51Z</time>
      </trkpt>
      <trkpt lat="48.68399" lon="-1.36474">
        <ele>94.35</ele>
        <time>2021-07-30T20:03:52Z</time>
      </trkpt>
      <trkpt lat="48.68413" lon="-1.36471">
        <ele>94.35</ele>
        <time>2021-07-30T20:04:03Z</time>
      </trkpt>
      <trkpt lat="48.68431" lon="-1.36455">
        <ele>95.31</ele>
        <time>2021-07-30T20:04:20Z</time>
      </trkpt>
      <trkpt lat="48.68436" lon="-1.3645">
        <ele>95.31</ele>
        <time>2021-07-30T20:04:22Z</time>
      </trkpt>
      <trkpt lat="48.68439" lon="-1.36447">
        <ele>95.31</ele>
        <time>2021-07-30T20:04:23Z</time>
      </trkpt>
      <trkpt lat="48.68442" lon="-1.36443">
        <ele>95.31</ele>
        <time>2021-07-30T20:04:24Z</time>
      </trkpt>
      <trkpt lat="48.68444" lon="-1.3644">
        <ele>95.31</ele>
        <time>2021-07-30T20:04:25Z</time>
      </trkpt>
      <trkpt lat="48.68447" lon="-1.36438">
        <ele>95.31</ele>
        <time>2021-07-30T20:04:26Z</time>
      </trkpt>
      <trkpt lat="48.68458" lon="-1.3642">
        <ele>95.79</ele>
        <time>2021-07-30T20:04:27Z</time>
      </trkpt>
      <trkpt lat="48.68452" lon="-1.36396">
        <ele>95.79</ele>
        <time>2021-07-30T20:04:28Z</time>
      </trkpt>
      <trkpt lat="48.68434" lon="-1.36362">
        <ele>96.75</ele>
        <time>2021-07-30T20:04:35Z</time>
      </trkpt>
      <trkpt lat="48.68432" lon="-1.36355">
        <ele>96.75</ele>
        <time>2021-07-30T20:04:36Z</time>
      </trkpt>
      <trkpt lat="48.68412" lon="-1.36295">
        <ele>95.79</ele>
        <time>2021-07-30T20:04:45Z</time>
      </trkpt>
      <trkpt lat="48.68403" lon="-1.36286">
        <ele>95.79</ele>
        <time>2021-07-30T20:04:46Z</time>
      </trkpt>
      <trkpt lat="48.68403" lon="-1.36286">
        <ele>95.79</ele>
        <time>2021-07-30T20:04:47Z</time>
      </trkpt>
      <trkpt lat="48.68346" lon="-1.36224">
        <ele>95.79</ele>
        <time>2021-07-30T20:04:57Z</time>
      </trkpt>
      <trkpt lat="48.68327" lon="-1.36199">
        <ele>97.23</ele>
        <time>2021-07-30T20:05:01Z</time>
      </trkpt>
      <trkpt lat="48.68322" lon="-1.3619">
        <ele>97.23</ele>
        <time>2021-07-30T20:05:02Z</time>
      </trkpt>
      <trkpt lat="48.68313" lon="-1.36168">
        <ele>97.23</ele>
        <time>2021-07-30T20:05:03Z</time>
      </trkpt>
      <trkpt lat="48.68313" lon="-1.36168">
        <ele>97.23</ele>
        <time>2021-07-30T20:05:04Z</time>
      </trkpt>
      <trkpt lat="48.68308" lon="-1.36157">
        <ele>97.23</ele>
        <time>2021-07-30T20:05:05Z</time>
      </trkpt>
      <trkpt lat="48.68304" lon="-1.36143">
        <ele>97.71</ele>
        <time>2021-07-30T20:05:06Z</time>
      </trkpt>
      <trkpt lat="48.68298" lon="-1.36116">
        <ele>98.19</ele>
        <time>2021-07-30T20:05:07Z</time>
      </trkpt>
      <trkpt lat="48.68259" lon="-1.359">
        <ele>99.15</ele>
        <time>2021-07-30T20:05:23Z</time>
      </trkpt>
      <trkpt lat="48.68226" lon="-1.35722">
        <ele>100.11</ele>
        <time>2021-07-30T20:05:36Z</time>
      </trkpt>
      <trkpt lat="48.68218" lon="-1.35659">
        <ele>102.04</ele>
        <time>2021-07-30T20:05:44Z</time>
      </trkpt>
      <trkpt lat="48.68218" lon="-1.35658">
        <ele>102.52</ele>
        <time>2021-07-30T20:05:45Z</time>
      </trkpt>
      <trkpt lat="48.68213" lon="-1.35636">
        <ele>103.48</ele>
        <time>2021-07-30T20:05:47Z</time>
      </trkpt>
      <trkpt lat="48.68211" lon="-1.35629">
        <ele>103.96</ele>
        <time>2021-07-30T20:05:48Z</time>
      </trkpt>
      <trkpt lat="48.68209" lon="-1.35622">
        <ele>103.96</ele>
        <time>2021-07-30T20:05:49Z</time>
      </trkpt>
      <trkpt lat="48.68207" lon="-1.35615">
        <ele>104.44</ele>
        <time>2021-07-30T20:05:50Z</time>
      </trkpt>
      <trkpt lat="48.68205" lon="-1.35609">
        <ele>104.92</ele>
        <time>2021-07-30T20:05:51Z</time>
      </trkpt>
      <trkpt lat="48.68203" lon="-1.35602">
        <ele>104.92</ele>
        <time>2021-07-30T20:05:52Z</time>
      </trkpt>
      <trkpt lat="48.68201" lon="-1.35595">
        <ele>105.4</ele>
        <time>2021-07-30T20:05:53Z</time>
      </trkpt>
      <trkpt lat="48.68197" lon="-1.35592">
        <ele>105.4</ele>
        <time>2021-07-30T20:05:54Z</time>
      </trkpt>
      <trkpt lat="48.68169" lon="-1.35557">
        <ele>105.88</ele>
        <time>2021-07-30T20:06:02Z</time>
      </trkpt>
      <trkpt lat="48.68165" lon="-1.35556">
        <ele>105.88</ele>
        <time>2021-07-30T20:06:03Z</time>
      </trkpt>
      <trkpt lat="48.68161" lon="-1.35555">
        <ele>105.88</ele>
        <time>2021-07-30T20:06:04Z</time>
      </trkpt>
      <trkpt lat="48.68152" lon="-1.35554">
        <ele>105.88</ele>
        <time>2021-07-30T20:06:06Z</time>
      </trkpt>
      <trkpt lat="48.68147" lon="-1.35544">
        <ele>105.88</ele>
        <time>2021-07-30T20:06:07Z</time>
      </trkpt>
      <trkpt lat="48.68124" lon="-1.35538">
        <ele>105.88</ele>
        <time>2021-07-30T20:06:11Z</time>
      </trkpt>
      <trkpt lat="48.68118" lon="-1.35537">
        <ele>105.4</ele>
        <time>2021-07-30T20:06:12Z</time>
      </trkpt>
      <trkpt lat="48.68112" lon="-1.35536">
        <ele>105.4</ele>
        <time>2021-07-30T20:06:13Z</time>
      </trkpt>
      <trkpt lat="48.6807" lon="-1.35532">
        <ele>103.48</ele>
        <time>2021-07-30T20:06:22Z</time>
      </trkpt>
      <trkpt lat="48.68022" lon="-1.35526">
        <ele>100.11</ele>
        <time>2021-07-30T20:06:30Z</time>
      </trkpt>
      <trkpt lat="48.67908" lon="-1.35516">
        <ele>96.27</ele>
        <time>2021-07-30T20:06:42Z</time>
      </trkpt>
      <trkpt lat="48.67735" lon="-1.35502">
        <ele>93.87</ele>
        <time>2021-07-30T20:06:57Z</time>
      </trkpt>
      <trkpt lat="48.67603" lon="-1.35491">
        <ele>96.27</ele>
        <time>2021-07-30T20:07:09Z</time>
      </trkpt>
      <trkpt lat="48.675" lon="-1.35482">
        <ele>96.27</ele>
        <time>2021-07-30T20:07:20Z</time>
      </trkpt>
      <trkpt lat="48.6734" lon="-1.35468">
        <ele>97.71</ele>
        <time>2021-07-30T20:07:34Z</time>
      </trkpt>
      <trkpt lat="48.67321" lon="-1.35466">
        <ele>98.19</ele>
        <time>2021-07-30T20:07:40Z</time>
      </trkpt>
      <trkpt lat="48.67299" lon="-1.35464">
        <ele>98.19</ele>
        <time>2021-07-30T20:08:01Z</time>
      </trkpt>
      <trkpt lat="48.67279" lon="-1.35462">
        <ele>98.19</ele>
        <time>2021-07-30T20:08:04Z</time>
      </trkpt>
      <trkpt lat="48.67271" lon="-1.35462">
        <ele>98.19</ele>
        <time>2021-07-30T20:08:05Z</time>
      </trkpt>
      <trkpt lat="48.67164" lon="-1.35452">
        <ele>97.23</ele>
        <time>2021-07-30T20:08:15Z</time>
      </trkpt>
      <trkpt lat="48.66994" lon="-1.35449">
        <ele>90.5</ele>
        <time>2021-07-30T20:08:28Z</time>
      </trkpt>
      <trkpt lat="48.66981" lon="-1.35452">
        <ele>90.02</ele>
        <time>2021-07-30T20:08:29Z</time>
      </trkpt>
      <trkpt lat="48.66968" lon="-1.35455">
        <ele>88.1</ele>
        <time>2021-07-30T20:08:30Z</time>
      </trkpt>
      <trkpt lat="48.66958" lon="-1.35467">
        <ele>86.66</ele>
        <time>2021-07-30T20:08:31Z</time>
      </trkpt>
      <trkpt lat="48.66949" lon="-1.35478">
        <ele>85.21</ele>
        <time>2021-07-30T20:08:32Z</time>
      </trkpt>
      <trkpt lat="48.66943" lon="-1.35495">
        <ele>81.85</ele>
        <time>2021-07-30T20:08:33Z</time>
      </trkpt>
      <trkpt lat="48.66939" lon="-1.35513">
        <ele>79.93</ele>
        <time>2021-07-30T20:08:34Z</time>
      </trkpt>
      <trkpt lat="48.66935" lon="-1.3553">
        <ele>78.97</ele>
        <time>2021-07-30T20:08:35Z</time>
      </trkpt>
      <trkpt lat="48.66936" lon="-1.35549">
        <ele>78.48</ele>
        <time>2021-07-30T20:08:36Z</time>
      </trkpt>
      <trkpt lat="48.66935" lon="-1.3561">
        <ele>76.56</ele>
        <time>2021-07-30T20:08:39Z</time>
      </trkpt>
      <trkpt lat="48.66933" lon="-1.35628">
        <ele>76.56</ele>
        <time>2021-07-30T20:08:40Z</time>
      </trkpt>
      <trkpt lat="48.66927" lon="-1.35641">
        <ele>78</ele>
        <time>2021-07-30T20:08:41Z</time>
      </trkpt>
      <trkpt lat="48.66921" lon="-1.35656">
        <ele>79.45</ele>
        <time>2021-07-30T20:08:42Z</time>
      </trkpt>
      <trkpt lat="48.66913" lon="-1.35663">
        <ele>79.45</ele>
        <time>2021-07-30T20:08:43Z</time>
      </trkpt>
      <trkpt lat="48.66892" lon="-1.3567">
        <ele>78</ele>
        <time>2021-07-30T20:08:44Z</time>
      </trkpt>
      <trkpt lat="48.66892" lon="-1.3567">
        <ele>76.08</ele>
        <time>2021-07-30T20:08:45Z</time>
      </trkpt>
      <trkpt lat="48.66882" lon="-1.35665">
        <ele>75.12</ele>
        <time>2021-07-30T20:08:46Z</time>
      </trkpt>
      <trkpt lat="48.66872" lon="-1.35655">
        <ele>73.2</ele>
        <time>2021-07-30T20:08:47Z</time>
      </trkpt>
      <trkpt lat="48.66863" lon="-1.35646">
        <ele>71.76</ele>
        <time>2021-07-30T20:08:48Z</time>
      </trkpt>
      <trkpt lat="48.66856" lon="-1.3563">
        <ele>71.27</ele>
        <time>2021-07-30T20:08:49Z</time>
      </trkpt>
      <trkpt lat="48.66851" lon="-1.3561">
        <ele>71.27</ele>
        <time>2021-07-30T20:08:50Z</time>
      </trkpt>
      <trkpt lat="48.66793" lon="-1.35441">
        <ele>59.74</ele>
        <time>2021-07-30T20:08:59Z</time>
      </trkpt>
      <trkpt lat="48.66755" lon="-1.35399">
        <ele>55.89</ele>
        <time>2021-07-30T20:09:02Z</time>
      </trkpt>
      <trkpt lat="48.66741" lon="-1.35386">
        <ele>54.45</ele>
        <time>2021-07-30T20:09:03Z</time>
      </trkpt>
      <trkpt lat="48.66726" lon="-1.35374">
        <ele>52.53</ele>
        <time>2021-07-30T20:09:04Z</time>
      </trkpt>
      <trkpt lat="48.6671" lon="-1.35368">
        <ele>51.09</ele>
        <time>2021-07-30T20:09:05Z</time>
      </trkpt>
      <trkpt lat="48.66694" lon="-1.35362">
        <ele>50.13</ele>
        <time>2021-07-30T20:09:06Z</time>
      </trkpt>
      <trkpt lat="48.66675" lon="-1.35359">
        <ele>48.2</ele>
        <time>2021-07-30T20:09:07Z</time>
      </trkpt>
      <trkpt lat="48.66657" lon="-1.35357">
        <ele>46.76</ele>
        <time>2021-07-30T20:09:08Z</time>
      </trkpt>
      <trkpt lat="48.6664" lon="-1.35359">
        <ele>46.28</ele>
        <time>2021-07-30T20:09:09Z</time>
      </trkpt>
      <trkpt lat="48.66426" lon="-1.35383">
        <ele>31.86</ele>
        <time>2021-07-30T20:09:21Z</time>
      </trkpt>
      <trkpt lat="48.66321" lon="-1.35377">
        <ele>28.98</ele>
        <time>2021-07-30T20:09:28Z</time>
      </trkpt>
      <trkpt lat="48.66311" lon="-1.35379">
        <ele>27.53</ele>
        <time>2021-07-30T20:09:29Z</time>
      </trkpt>
      <trkpt lat="48.66301" lon="-1.35381">
        <ele>27.05</ele>
        <time>2021-07-30T20:09:30Z</time>
      </trkpt>
      <trkpt lat="48.66295" lon="-1.35382">
        <ele>26.09</ele>
        <time>2021-07-30T20:09:31Z</time>
      </trkpt>
      <trkpt lat="48.66281" lon="-1.35391">
        <ele>24.65</ele>
        <time>2021-07-30T20:09:36Z</time>
      </trkpt>
      <trkpt lat="48.66276" lon="-1.35389">
        <ele>24.65</ele>
        <time>2021-07-30T20:09:37Z</time>
      </trkpt>
      <trkpt lat="48.66276" lon="-1.35389">
        <ele>25.61</ele>
        <time>2021-07-30T20:09:38Z</time>
      </trkpt>
      <trkpt lat="48.66256" lon="-1.35371">
        <ele>25.61</ele>
        <time>2021-07-30T20:09:40Z</time>
      </trkpt>
      <trkpt lat="48.66256" lon="-1.35371">
        <ele>26.09</ele>
        <time>2021-07-30T20:09:41Z</time>
      </trkpt>
      <trkpt lat="48.66152" lon="-1.35363">
        <ele>24.17</ele>
        <time>2021-07-30T20:09:49Z</time>
      </trkpt>
      <trkpt lat="48.65977" lon="-1.35349">
        <ele>22.25</ele>
        <time>2021-07-30T20:09:59Z</time>
      </trkpt>
      <trkpt lat="48.65725" lon="-1.3533">
        <ele>24.17</ele>
        <time>2021-07-30T20:10:14Z</time>
      </trkpt>
      <trkpt lat="48.65547" lon="-1.35312">
        <ele>26.09</ele>
        <time>2021-07-30T20:10:27Z</time>
      </trkpt>
      <trkpt lat="48.65536" lon="-1.35314">
        <ele>26.09</ele>
        <time>2021-07-30T20:10:28Z</time>
      </trkpt>
      <trkpt lat="48.65536" lon="-1.35314">
        <ele>26.09</ele>
        <time>2021-07-30T20:10:29Z</time>
      </trkpt>
      <trkpt lat="48.65529" lon="-1.35324">
        <ele>26.09</ele>
        <time>2021-07-30T20:10:30Z</time>
      </trkpt>
      <trkpt lat="48.65521" lon="-1.35326">
        <ele>26.09</ele>
        <time>2021-07-30T20:10:31Z</time>
      </trkpt>
      <trkpt lat="48.65514" lon="-1.35325">
        <ele>27.05</ele>
        <time>2021-07-30T20:10:32Z</time>
      </trkpt>
      <trkpt lat="48.65512" lon="-1.35325">
        <ele>27.05</ele>
        <time>2021-07-30T20:10:33Z</time>
      </trkpt>
      <trkpt lat="48.65501" lon="-1.35303">
        <ele>26.09</ele>
        <time>2021-07-30T20:10:34Z</time>
      </trkpt>
      <trkpt lat="48.65493" lon="-1.35302">
        <ele>26.09</ele>
        <time>2021-07-30T20:10:35Z</time>
      </trkpt>
      <trkpt lat="48.65483" lon="-1.35301">
        <ele>26.09</ele>
        <time>2021-07-30T20:10:36Z</time>
      </trkpt>
      <trkpt lat="48.65474" lon="-1.353">
        <ele>26.57</ele>
        <time>2021-07-30T20:10:37Z</time>
      </trkpt>
      <trkpt lat="48.65363" lon="-1.35285">
        <ele>21.77</ele>
        <time>2021-07-30T20:10:46Z</time>
      </trkpt>
      <trkpt lat="48.65222" lon="-1.3521">
        <ele>14.56</ele>
        <time>2021-07-30T20:10:55Z</time>
      </trkpt>
      <trkpt lat="48.65133" lon="-1.35107">
        <ele>8.31</ele>
        <time>2021-07-30T20:11:02Z</time>
      </trkpt>
      <trkpt lat="48.65082" lon="-1.35">
        <ele>7.35</ele>
        <time>2021-07-30T20:11:08Z</time>
      </trkpt>
      <trkpt lat="48.65077" lon="-1.34989">
        <ele>7.35</ele>
        <time>2021-07-30T20:11:09Z</time>
      </trkpt>
      <trkpt lat="48.65069" lon="-1.34988">
        <ele>7.83</ele>
        <time>2021-07-30T20:11:10Z</time>
      </trkpt>
      <trkpt lat="48.65062" lon="-1.34987">
        <ele>7.83</ele>
        <time>2021-07-30T20:11:11Z</time>
      </trkpt>
      <trkpt lat="48.65055" lon="-1.34986">
        <ele>8.31</ele>
        <time>2021-07-30T20:11:12Z</time>
      </trkpt>
      <trkpt lat="48.65044" lon="-1.34996">
        <ele>8.79</ele>
        <time>2021-07-30T20:11:13Z</time>
      </trkpt>
      <trkpt lat="48.6504" lon="-1.35004">
        <ele>8.31</ele>
        <time>2021-07-30T20:11:14Z</time>
      </trkpt>
      <trkpt lat="48.65017" lon="-1.35016">
        <ele>7.83</ele>
        <time>2021-07-30T20:11:17Z</time>
      </trkpt>
      <trkpt lat="48.65017" lon="-1.35016">
        <ele>7.83</ele>
        <time>2021-07-30T20:11:18Z</time>
      </trkpt>
      <trkpt lat="48.65012" lon="-1.35025">
        <ele>7.35</ele>
        <time>2021-07-30T20:11:19Z</time>
      </trkpt>
      <trkpt lat="48.64978" lon="-1.35108">
        <ele>4.94</ele>
        <time>2021-07-30T20:11:28Z</time>
      </trkpt>
      <trkpt lat="48.64952" lon="-1.35174">
        <ele>3.02</ele>
        <time>2021-07-30T20:11:34Z</time>
      </trkpt>
      <trkpt lat="48.6495" lon="-1.35186">
        <ele>2.54</ele>
        <time>2021-07-30T20:11:35Z</time>
      </trkpt>
      <trkpt lat="48.64948" lon="-1.35199">
        <ele>2.06</ele>
        <time>2021-07-30T20:11:36Z</time>
      </trkpt>
      <trkpt lat="48.64947" lon="-1.3521">
        <ele>2.06</ele>
        <time>2021-07-30T20:11:37Z</time>
      </trkpt>
      <trkpt lat="48.64945" lon="-1.35221">
        <ele>2.06</ele>
        <time>2021-07-30T20:11:38Z</time>
      </trkpt>
      <trkpt lat="48.64944" lon="-1.35232">
        <ele>2.06</ele>
        <time>2021-07-30T20:11:39Z</time>
      </trkpt>
      <trkpt lat="48.64955" lon="-1.35244">
        <ele>2.54</ele>
        <time>2021-07-30T20:11:40Z</time>
      </trkpt>
      <trkpt lat="48.64958" lon="-1.35253">
        <ele>2.54</ele>
        <time>2021-07-30T20:11:41Z</time>
      </trkpt>
      <trkpt lat="48.6496" lon="-1.35266">
        <ele>2.54</ele>
        <time>2021-07-30T20:11:42Z</time>
      </trkpt>
      <trkpt lat="48.64958" lon="-1.35274">
        <ele>2.54</ele>
        <time>2021-07-30T20:11:43Z</time>
      </trkpt>
      <trkpt lat="48.64956" lon="-1.3528">
        <ele>2.06</ele>
        <time>2021-07-30T20:11:44Z</time>
      </trkpt>
      <trkpt lat="48.6495" lon="-1.35284">
        <ele>2.54</ele>
        <time>2021-07-30T20:11:45Z</time>
      </trkpt>
      <trkpt lat="48.64946" lon="-1.35286">
        <ele>2.54</ele>
        <time>2021-07-30T20:11:46Z</time>
      </trkpt>
      <trkpt lat="48.64942" lon="-1.35284">
        <ele>3.02</ele>
        <time>2021-07-30T20:11:47Z</time>
      </trkpt>
      <trkpt lat="48.64937" lon="-1.3528">
        <ele>3.5</ele>
        <time>2021-07-30T20:11:48Z</time>
      </trkpt>
      <trkpt lat="48.64931" lon="-1.35275">
        <ele>3.98</ele>
        <time>2021-07-30T20:11:49Z</time>
      </trkpt>
      <trkpt lat="48.64925" lon="-1.35271">
        <ele>3.98</ele>
        <time>2021-07-30T20:11:50Z</time>
      </trkpt>
      <trkpt lat="48.64918" lon="-1.35267">
        <ele>4.46</ele>
        <time>2021-07-30T20:11:51Z</time>
      </trkpt>
      <trkpt lat="48.6491" lon="-1.35263">
        <ele>4.94</ele>
        <time>2021-07-30T20:11:52Z</time>
      </trkpt>
      <trkpt lat="48.64806" lon="-1.35248">
        <ele>11.67</ele>
        <time>2021-07-30T20:12:00Z</time>
      </trkpt>
      <trkpt lat="48.64649" lon="-1.35235">
        <ele>17.44</ele>
        <time>2021-07-30T20:12:10Z</time>
      </trkpt>
      <trkpt lat="48.6435" lon="-1.35211">
        <ele>17.92</ele>
        <time>2021-07-30T20:12:26Z</time>
      </trkpt>
      <trkpt lat="48.63938" lon="-1.35175">
        <ele>14.08</ele>
        <time>2021-07-30T20:12:48Z</time>
      </trkpt>
      <trkpt lat="48.63697" lon="-1.35152">
        <ele>11.19</ele>
        <time>2021-07-30T20:13:01Z</time>
      </trkpt>
      <trkpt lat="48.63678" lon="-1.35145">
        <ele>11.19</ele>
        <time>2021-07-30T20:13:02Z</time>
      </trkpt>
      <trkpt lat="48.6366" lon="-1.35137">
        <ele>9.75</ele>
        <time>2021-07-30T20:13:03Z</time>
      </trkpt>
      <trkpt lat="48.63642" lon="-1.35127">
        <ele>8.79</ele>
        <time>2021-07-30T20:13:04Z</time>
      </trkpt>
      <trkpt lat="48.63626" lon="-1.35116">
        <ele>8.31</ele>
        <time>2021-07-30T20:13:05Z</time>
      </trkpt>
      <trkpt lat="48.63545" lon="-1.35076">
        <ele>4.94</ele>
        <time>2021-07-30T20:13:10Z</time>
      </trkpt>
      <trkpt lat="48.63528" lon="-1.35073">
        <ele>4.46</ele>
        <time>2021-07-30T20:13:11Z</time>
      </trkpt>
      <trkpt lat="48.63284" lon="-1.35065">
        <ele>8.31</ele>
        <time>2021-07-30T20:13:26Z</time>
      </trkpt>
      <trkpt lat="48.63184" lon="-1.35063">
        <ele>11.19</ele>
        <time>2021-07-30T20:13:36Z</time>
      </trkpt>
      <trkpt lat="48.63129" lon="-1.35063">
        <ele>9.27</ele>
        <time>2021-07-30T20:13:44Z</time>
      </trkpt>
      <trkpt lat="48.63125" lon="-1.35063">
        <ele>9.27</ele>
        <time>2021-07-30T20:13:45Z</time>
      </trkpt>
      <trkpt lat="48.63122" lon="-1.35069">
        <ele>8.79</ele>
        <time>2021-07-30T20:13:46Z</time>
      </trkpt>
      <trkpt lat="48.63122" lon="-1.35073">
        <ele>7.83</ele>
        <time>2021-07-30T20:13:47Z</time>
      </trkpt>
      <trkpt lat="48.63122" lon="-1.35085">
        <ele>7.35</ele>
        <time>2021-07-30T20:13:48Z</time>
      </trkpt>
      <trkpt lat="48.63122" lon="-1.35085">
        <ele>6.87</ele>
        <time>2021-07-30T20:13:49Z</time>
      </trkpt>
      <trkpt lat="48.63123" lon="-1.3517">
        <ele>3.02</ele>
        <time>2021-07-30T20:13:59Z</time>
      </trkpt>
      <trkpt lat="48.63125" lon="-1.35205">
        <ele>3.02</ele>
        <time>2021-07-30T20:14:02Z</time>
      </trkpt>
      <trkpt lat="48.63127" lon="-1.35216">
        <ele>3.02</ele>
        <time>2021-07-30T20:14:03Z</time>
      </trkpt>
      <trkpt lat="48.63136" lon="-1.3527">
        <ele>3.02</ele>
        <time>2021-07-30T20:14:08Z</time>
      </trkpt>
      <trkpt lat="48.63143" lon="-1.35287">
        <ele>3.02</ele>
        <time>2021-07-30T20:14:09Z</time>
      </trkpt>
      <trkpt lat="48.63143" lon="-1.35287">
        <ele>3.02</ele>
        <time>2021-07-30T20:14:10Z</time>
      </trkpt>
      <trkpt lat="48.63167" lon="-1.35329">
        <ele>3.02</ele>
        <time>2021-07-30T20:14:15Z</time>
      </trkpt>
      <trkpt lat="48.63172" lon="-1.35338">
        <ele>3.02</ele>
        <time>2021-07-30T20:14:16Z</time>
      </trkpt>
      <trkpt lat="48.63176" lon="-1.35346">
        <ele>3.02</ele>
        <time>2021-07-30T20:14:17Z</time>
      </trkpt>
      <trkpt lat="48.63181" lon="-1.35355">
        <ele>2.54</ele>
        <time>2021-07-30T20:14:18Z</time>
      </trkpt>
      <trkpt lat="48.63185" lon="-1.35366">
        <ele>2.06</ele>
        <time>2021-07-30T20:14:19Z</time>
      </trkpt>
      <trkpt lat="48.63186" lon="-1.35377">
        <ele>2.06</ele>
        <time>2021-07-30T20:14:20Z</time>
      </trkpt>
      <trkpt lat="48.63188" lon="-1.3539">
        <ele>2.06</ele>
        <time>2021-07-30T20:14:21Z</time>
      </trkpt>
      <trkpt lat="48.63195" lon="-1.35487">
        <ele>3.98</ele>
        <time>2021-07-30T20:14:30Z</time>
      </trkpt>
      <trkpt lat="48.63198" lon="-1.35648">
        <ele>11.19</ele>
        <time>2021-07-30T20:14:39Z</time>
      </trkpt>
      <trkpt lat="48.63197" lon="-1.35915">
        <ele>21.77</ele>
        <time>2021-07-30T20:14:50Z</time>
      </trkpt>
      <trkpt lat="48.63198" lon="-1.35933">
        <ele>23.69</ele>
        <time>2021-07-30T20:14:52Z</time>
      </trkpt>
      <trkpt lat="48.63199" lon="-1.35951">
        <ele>24.17</ele>
        <time>2021-07-30T20:14:53Z</time>
      </trkpt>
      <trkpt lat="48.63207" lon="-1.35981">
        <ele>25.13</ele>
        <time>2021-07-30T20:14:54Z</time>
      </trkpt>
      <trkpt lat="48.63207" lon="-1.35981">
        <ele>25.13</ele>
        <time>2021-07-30T20:14:55Z</time>
      </trkpt>
      <trkpt lat="48.63211" lon="-1.35997">
        <ele>24.65</ele>
        <time>2021-07-30T20:14:56Z</time>
      </trkpt>
      <trkpt lat="48.6324" lon="-1.36101">
        <ele>25.61</ele>
        <time>2021-07-30T20:15:05Z</time>
      </trkpt>
      <trkpt lat="48.6326" lon="-1.36223">
        <ele>29.46</ele>
        <time>2021-07-30T20:15:15Z</time>
      </trkpt>
      <trkpt lat="48.63263" lon="-1.36347">
        <ele>30.42</ele>
        <time>2021-07-30T20:15:23Z</time>
      </trkpt>
      <trkpt lat="48.63263" lon="-1.36347">
        <ele>30.42</ele>
        <time>2021-07-30T20:15:24Z</time>
      </trkpt>
      <trkpt lat="48.63258" lon="-1.36361">
        <ele>30.9</ele>
        <time>2021-07-30T20:15:25Z</time>
      </trkpt>
      <trkpt lat="48.63258" lon="-1.36361">
        <ele>30.9</ele>
        <time>2021-07-30T20:15:26Z</time>
      </trkpt>
      <trkpt lat="48.63253" lon="-1.36369">
        <ele>30.9</ele>
        <time>2021-07-30T20:15:27Z</time>
      </trkpt>
      <trkpt lat="48.63247" lon="-1.36377">
        <ele>31.38</ele>
        <time>2021-07-30T20:15:28Z</time>
      </trkpt>
      <trkpt lat="48.63241" lon="-1.36387">
        <ele>31.38</ele>
        <time>2021-07-30T20:15:29Z</time>
      </trkpt>
      <trkpt lat="48.63235" lon="-1.36396">
        <ele>31.86</ele>
        <time>2021-07-30T20:15:30Z</time>
      </trkpt>
      <trkpt lat="48.63229" lon="-1.36406">
        <ele>32.34</ele>
        <time>2021-07-30T20:15:31Z</time>
      </trkpt>
      <trkpt lat="48.63223" lon="-1.36419">
        <ele>32.34</ele>
        <time>2021-07-30T20:15:32Z</time>
      </trkpt>
      <trkpt lat="48.63219" lon="-1.36433">
        <ele>31.86</ele>
        <time>2021-07-30T20:15:33Z</time>
      </trkpt>
      <trkpt lat="48.63216" lon="-1.36446">
        <ele>31.86</ele>
        <time>2021-07-30T20:15:34Z</time>
      </trkpt>
      <trkpt lat="48.63202" lon="-1.3649">
        <ele>30.42</ele>
        <time>2021-07-30T20:15:37Z</time>
      </trkpt>
      <trkpt lat="48.63197" lon="-1.36504">
        <ele>30.9</ele>
        <time>2021-07-30T20:15:38Z</time>
      </trkpt>
      <trkpt lat="48.63192" lon="-1.36519">
        <ele>30.42</ele>
        <time>2021-07-30T20:15:39Z</time>
      </trkpt>
      <trkpt lat="48.63186" lon="-1.36532">
        <ele>30.9</ele>
        <time>2021-07-30T20:15:40Z</time>
      </trkpt>
      <trkpt lat="48.63177" lon="-1.36544">
        <ele>30.42</ele>
        <time>2021-07-30T20:15:41Z</time>
      </trkpt>
      <trkpt lat="48.63141" lon="-1.36597">
        <ele>28.98</ele>
        <time>2021-07-30T20:15:44Z</time>
      </trkpt>
      <trkpt lat="48.63141" lon="-1.36597">
        <ele>28.98</ele>
        <time>2021-07-30T20:15:45Z</time>
      </trkpt>
      <trkpt lat="48.63132" lon="-1.36611">
        <ele>28.5</ele>
        <time>2021-07-30T20:15:46Z</time>
      </trkpt>
      <trkpt lat="48.63029" lon="-1.36851">
        <ele>22.25</ele>
        <time>2021-07-30T20:15:59Z</time>
      </trkpt>
      <trkpt lat="48.63003" lon="-1.36913">
        <ele>21.77</ele>
        <time>2021-07-30T20:16:03Z</time>
      </trkpt>
      <trkpt lat="48.62996" lon="-1.36926">
        <ele>22.73</ele>
        <time>2021-07-30T20:16:04Z</time>
      </trkpt>
      <trkpt lat="48.62989" lon="-1.36939">
        <ele>22.73</ele>
        <time>2021-07-30T20:16:05Z</time>
      </trkpt>
      <trkpt lat="48.62876" lon="-1.37089">
        <ele>23.69</ele>
        <time>2021-07-30T20:16:18Z</time>
      </trkpt>
      <trkpt lat="48.62867" lon="-1.37103">
        <ele>23.21</ele>
        <time>2021-07-30T20:16:19Z</time>
      </trkpt>
      <trkpt lat="48.62862" lon="-1.37119">
        <ele>22.73</ele>
        <time>2021-07-30T20:16:20Z</time>
      </trkpt>
      <trkpt lat="48.62857" lon="-1.37136">
        <ele>23.21</ele>
        <time>2021-07-30T20:16:21Z</time>
      </trkpt>
      <trkpt lat="48.62851" lon="-1.37153">
        <ele>23.21</ele>
        <time>2021-07-30T20:16:22Z</time>
      </trkpt>
      <trkpt lat="48.62848" lon="-1.37171">
        <ele>23.21</ele>
        <time>2021-07-30T20:16:23Z</time>
      </trkpt>
      <trkpt lat="48.62835" lon="-1.37252">
        <ele>22.25</ele>
        <time>2021-07-30T20:16:28Z</time>
      </trkpt>
      <trkpt lat="48.62836" lon="-1.37267">
        <ele>22.25</ele>
        <time>2021-07-30T20:16:29Z</time>
      </trkpt>
      <trkpt lat="48.62837" lon="-1.37283">
        <ele>22.73</ele>
        <time>2021-07-30T20:16:30Z</time>
      </trkpt>
      <trkpt lat="48.62845" lon="-1.37315">
        <ele>23.21</ele>
        <time>2021-07-30T20:16:31Z</time>
      </trkpt>
      <trkpt lat="48.62845" lon="-1.37315">
        <ele>23.21</ele>
        <time>2021-07-30T20:16:32Z</time>
      </trkpt>
      <trkpt lat="48.6285" lon="-1.37331">
        <ele>22.73</ele>
        <time>2021-07-30T20:16:33Z</time>
      </trkpt>
      <trkpt lat="48.62909" lon="-1.37541">
        <ele>17.92</ele>
        <time>2021-07-30T20:16:45Z</time>
      </trkpt>
      <trkpt lat="48.6293" lon="-1.37677">
        <ele>15.04</ele>
        <time>2021-07-30T20:16:52Z</time>
      </trkpt>
      <trkpt lat="48.6293" lon="-1.37696">
        <ele>13.6</ele>
        <time>2021-07-30T20:16:53Z</time>
      </trkpt>
      <trkpt lat="48.62928" lon="-1.37714">
        <ele>12.63</ele>
        <time>2021-07-30T20:16:54Z</time>
      </trkpt>
      <trkpt lat="48.62926" lon="-1.37732">
        <ele>11.67</ele>
        <time>2021-07-30T20:16:55Z</time>
      </trkpt>
      <trkpt lat="48.62924" lon="-1.37751">
        <ele>11.67</ele>
        <time>2021-07-30T20:16:56Z</time>
      </trkpt>
      <trkpt lat="48.62922" lon="-1.3777">
        <ele>11.19</ele>
        <time>2021-07-30T20:16:57Z</time>
      </trkpt>
      <trkpt lat="48.62921" lon="-1.37807">
        <ele>10.23</ele>
        <time>2021-07-30T20:16:58Z</time>
      </trkpt>
      <trkpt lat="48.62921" lon="-1.37807">
        <ele>10.71</ele>
        <time>2021-07-30T20:16:59Z</time>
      </trkpt>
      <trkpt lat="48.62934" lon="-1.38006">
        <ele>17.44</ele>
        <time>2021-07-30T20:17:08Z</time>
      </trkpt>
      <trkpt lat="48.62947" lon="-1.3824">
        <ele>20.81</ele>
        <time>2021-07-30T20:17:18Z</time>
      </trkpt>
      <trkpt lat="48.62948" lon="-1.38339">
        <ele>19.36</ele>
        <time>2021-07-30T20:17:23Z</time>
      </trkpt>
      <trkpt lat="48.62949" lon="-1.38355">
        <ele>19.36</ele>
        <time>2021-07-30T20:17:24Z</time>
      </trkpt>
      <trkpt lat="48.62954" lon="-1.38372">
        <ele>19.84</ele>
        <time>2021-07-30T20:17:25Z</time>
      </trkpt>
      <trkpt lat="48.6302" lon="-1.38553">
        <ele>19.84</ele>
        <time>2021-07-30T20:17:36Z</time>
      </trkpt>
      <trkpt lat="48.63099" lon="-1.38703">
        <ele>19.84</ele>
        <time>2021-07-30T20:17:48Z</time>
      </trkpt>
      <trkpt lat="48.63115" lon="-1.38735">
        <ele>19.36</ele>
        <time>2021-07-30T20:17:54Z</time>
      </trkpt>
      <trkpt lat="48.63112" lon="-1.38738">
        <ele>18.88</ele>
        <time>2021-07-30T20:17:55Z</time>
      </trkpt>
      <trkpt lat="48.63109" lon="-1.3874">
        <ele>18.88</ele>
        <time>2021-07-30T20:17:56Z</time>
      </trkpt>
      <trkpt lat="48.63106" lon="-1.38743">
        <ele>18.4</ele>
        <time>2021-07-30T20:17:57Z</time>
      </trkpt>
      <trkpt lat="48.63103" lon="-1.38746">
        <ele>18.4</ele>
        <time>2021-07-30T20:17:58Z</time>
      </trkpt>
      <trkpt lat="48.631" lon="-1.38749">
        <ele>18.4</ele>
        <time>2021-07-30T20:17:59Z</time>
      </trkpt>
      <trkpt lat="48.63037" lon="-1.38766">
        <ele>17.44</ele>
        <time>2021-07-30T20:18:08Z</time>
      </trkpt>
      <trkpt lat="48.6292" lon="-1.38789">
        <ele>19.36</ele>
        <time>2021-07-30T20:18:19Z</time>
      </trkpt>
      <trkpt lat="48.62798" lon="-1.38807">
        <ele>25.13</ele>
        <time>2021-07-30T20:18:31Z</time>
      </trkpt>
      <trkpt lat="48.62701" lon="-1.38828">
        <ele>25.61</ele>
        <time>2021-07-30T20:18:42Z</time>
      </trkpt>
      <trkpt lat="48.62699" lon="-1.38829">
        <ele>26.57</ele>
        <time>2021-07-30T20:18:54Z</time>
      </trkpt>
      <trkpt lat="48.62699" lon="-1.38829">
        <ele>26.57</ele>
        <time>2021-07-30T20:19:06Z</time>
      </trkpt>
      <trkpt lat="48.62697" lon="-1.38835">
        <ele>26.09</ele>
        <time>2021-07-30T20:19:07Z</time>
      </trkpt>
      <trkpt lat="48.62698" lon="-1.3884">
        <ele>26.09</ele>
        <time>2021-07-30T20:19:08Z</time>
      </trkpt>
      <trkpt lat="48.62698" lon="-1.38846">
        <ele>26.09</ele>
        <time>2021-07-30T20:19:09Z</time>
      </trkpt>
      <trkpt lat="48.62699" lon="-1.38853">
        <ele>25.13</ele>
        <time>2021-07-30T20:19:10Z</time>
      </trkpt>
      <trkpt lat="48.62699" lon="-1.38861">
        <ele>25.61</ele>
        <time>2021-07-30T20:19:11Z</time>
      </trkpt>
      <trkpt lat="48.62707" lon="-1.38979">
        <ele>26.09</ele>
        <time>2021-07-30T20:19:19Z</time>
      </trkpt>
      <trkpt lat="48.62703" lon="-1.39221">
        <ele>23.21</ele>
        <time>2021-07-30T20:19:30Z</time>
      </trkpt>
      <trkpt lat="48.62695" lon="-1.39588">
        <ele>19.84</ele>
        <time>2021-07-30T20:19:44Z</time>
      </trkpt>
      <trkpt lat="48.62722" lon="-1.39881">
        <ele>18.88</ele>
        <time>2021-07-30T20:19:55Z</time>
      </trkpt>
      <trkpt lat="48.62768" lon="-1.40349">
        <ele>13.6</ele>
        <time>2021-07-30T20:20:12Z</time>
      </trkpt>
      <trkpt lat="48.62785" lon="-1.40545">
        <ele>12.63</ele>
        <time>2021-07-30T20:20:20Z</time>
      </trkpt>
      <trkpt lat="48.62785" lon="-1.40689">
        <ele>13.6</ele>
        <time>2021-07-30T20:20:30Z</time>
      </trkpt>
      <trkpt lat="48.62789" lon="-1.40763">
        <ele>15.04</ele>
        <time>2021-07-30T20:20:38Z</time>
      </trkpt>
      <trkpt lat="48.62802" lon="-1.40872">
        <ele>19.36</ele>
        <time>2021-07-30T20:20:47Z</time>
      </trkpt>
      <trkpt lat="48.6282" lon="-1.41021">
        <ele>20.32</ele>
        <time>2021-07-30T20:20:59Z</time>
      </trkpt>
      <trkpt lat="48.62842" lon="-1.41159">
        <ele>17.44</ele>
        <time>2021-07-30T20:21:12Z</time>
      </trkpt>
      <trkpt lat="48.62843" lon="-1.41171">
        <ele>16.96</ele>
        <time>2021-07-30T20:21:13Z</time>
      </trkpt>
      <trkpt lat="48.6284" lon="-1.41198">
        <ele>15.52</ele>
        <time>2021-07-30T20:21:14Z</time>
      </trkpt>
      <trkpt lat="48.6284" lon="-1.41198">
        <ele>14.56</ele>
        <time>2021-07-30T20:21:15Z</time>
      </trkpt>
      <trkpt lat="48.62828" lon="-1.41391">
        <ele>11.19</ele>
        <time>2021-07-30T20:21:25Z</time>
      </trkpt>
      <trkpt lat="48.62845" lon="-1.41731">
        <ele>8.79</ele>
        <time>2021-07-30T20:21:39Z</time>
      </trkpt>
      <trkpt lat="48.62842" lon="-1.41756">
        <ele>8.31</ele>
        <time>2021-07-30T20:21:40Z</time>
      </trkpt>
      <trkpt lat="48.62838" lon="-1.4178">
        <ele>7.83</ele>
        <time>2021-07-30T20:21:41Z</time>
      </trkpt>
      <trkpt lat="48.62798" lon="-1.4201">
        <ele>9.75</ele>
        <time>2021-07-30T20:21:50Z</time>
      </trkpt>
      <trkpt lat="48.62796" lon="-1.42035">
        <ele>11.19</ele>
        <time>2021-07-30T20:21:51Z</time>
      </trkpt>
      <trkpt lat="48.628" lon="-1.42058">
        <ele>11.67</ele>
        <time>2021-07-30T20:21:52Z</time>
      </trkpt>
      <trkpt lat="48.62808" lon="-1.42108">
        <ele>12.15</ele>
        <time>2021-07-30T20:21:53Z</time>
      </trkpt>
      <trkpt lat="48.62808" lon="-1.42108">
        <ele>12.15</ele>
        <time>2021-07-30T20:21:54Z</time>
      </trkpt>
      <trkpt lat="48.6284" lon="-1.42352">
        <ele>9.75</ele>
        <time>2021-07-30T20:22:04Z</time>
      </trkpt>
      <trkpt lat="48.6288" lon="-1.42581">
        <ele>5.91</ele>
        <time>2021-07-30T20:22:13Z</time>
      </trkpt>
      <trkpt lat="48.62938" lon="-1.42915">
        <ele>2.06</ele>
        <time>2021-07-30T20:22:26Z</time>
      </trkpt>
      <trkpt lat="48.62944" lon="-1.43029">
        <ele>1.58</ele>
        <time>2021-07-30T20:22:33Z</time>
      </trkpt>
      <trkpt lat="48.62945" lon="-1.432">
        <ele>0.62</ele>
        <time>2021-07-30T20:22:43Z</time>
      </trkpt>
      <trkpt lat="48.62952" lon="-1.433">
        <ele>1.1</ele>
        <time>2021-07-30T20:22:48Z</time>
      </trkpt>
      <trkpt lat="48.62956" lon="-1.43316">
        <ele>1.1</ele>
        <time>2021-07-30T20:22:49Z</time>
      </trkpt>
      <trkpt lat="48.62961" lon="-1.4333">
        <ele>0.14</ele>
        <time>2021-07-30T20:22:50Z</time>
      </trkpt>
      <trkpt lat="48.63017" lon="-1.43491">
        <ele>1.58</ele>
        <time>2021-07-30T20:23:03Z</time>
      </trkpt>
      <trkpt lat="48.63025" lon="-1.43515">
        <ele>1.58</ele>
        <time>2021-07-30T20:23:05Z</time>
      </trkpt>
      <trkpt lat="48.63025" lon="-1.43515">
        <ele>1.58</ele>
        <time>2021-07-30T20:23:06Z</time>
      </trkpt>
      <trkpt lat="48.63024" lon="-1.43522">
        <ele>1.58</ele>
        <time>2021-07-30T20:23:07Z</time>
      </trkpt>
      <trkpt lat="48.63023" lon="-1.43525">
        <ele>2.06</ele>
        <time>2021-07-30T20:23:08Z</time>
      </trkpt>
      <trkpt lat="48.63014" lon="-1.43536">
        <ele>2.54</ele>
        <time>2021-07-30T20:23:09Z</time>
      </trkpt>
      <trkpt lat="48.63014" lon="-1.43536">
        <ele>2.54</ele>
        <time>2021-07-30T20:23:10Z</time>
      </trkpt>
      <trkpt lat="48.62946" lon="-1.43623">
        <ele>4.46</ele>
        <time>2021-07-30T20:23:20Z</time>
      </trkpt>
      <trkpt lat="48.62845" lon="-1.43765">
        <ele>3.02</ele>
        <time>2021-07-30T20:23:31Z</time>
      </trkpt>
      <trkpt lat="48.62788" lon="-1.43932">
        <ele>1.58</ele>
        <time>2021-07-30T20:23:40Z</time>
      </trkpt>
      <trkpt lat="48.6277" lon="-1.44035">
        <ele>1.1</ele>
        <time>2021-07-30T20:23:45Z</time>
      </trkpt>
      <trkpt lat="48.6276" lon="-1.44075">
        <ele>1.1</ele>
        <time>2021-07-30T20:23:46Z</time>
      </trkpt>
      <trkpt lat="48.6276" lon="-1.44075">
        <ele>1.58</ele>
        <time>2021-07-30T20:23:47Z</time>
      </trkpt>
      <trkpt lat="48.62658" lon="-1.44286">
        <ele>3.02</ele>
        <time>2021-07-30T20:23:58Z</time>
      </trkpt>
      <trkpt lat="48.62551" lon="-1.44444">
        <ele>2.06</ele>
        <time>2021-07-30T20:24:10Z</time>
      </trkpt>
      <trkpt lat="48.62516" lon="-1.44509">
        <ele>3.02</ele>
        <time>2021-07-30T20:24:17Z</time>
      </trkpt>
      <trkpt lat="48.62484" lon="-1.44545">
        <ele>2.54</ele>
        <time>2021-07-30T20:24:28Z</time>
      </trkpt>
      <trkpt lat="48.62484" lon="-1.44545">
        <ele>2.54</ele>
        <time>2021-07-30T20:24:34Z</time>
      </trkpt>
      <trkpt lat="48.62482" lon="-1.44547">
        <ele>3.02</ele>
        <time>2021-07-30T20:24:38Z</time>
      </trkpt>
      <trkpt lat="48.62481" lon="-1.44547">
        <ele>3.02</ele>
        <time>2021-07-30T20:24:39Z</time>
      </trkpt>
      <trkpt lat="48.62481" lon="-1.44547">
        <ele>2.54</ele>
        <time>2021-07-30T20:24:40Z</time>
      </trkpt>
      <trkpt lat="48.6248" lon="-1.44548">
        <ele>2.54</ele>
        <time>2021-07-30T20:24:41Z</time>
      </trkpt>
      <trkpt lat="48.6248" lon="-1.44548">
        <ele>2.54</ele>
        <time>2021-07-30T20:24:42Z</time>
      </trkpt>
      <trkpt lat="48.62487" lon="-1.44543">
        <ele>2.54</ele>
        <time>2021-07-30T20:25:01Z</time>
      </trkpt>
      <trkpt lat="48.62471" lon="-1.44509">
        <ele>2.06</ele>
        <time>2021-07-30T20:25:19Z</time>
      </trkpt>
      <trkpt lat="48.62453" lon="-1.44462">
        <ele>3.02</ele>
        <time>2021-07-30T20:25:35Z</time>
      </trkpt>
      <trkpt lat="48.62452" lon="-1.44455">
        <ele>3.02</ele>
        <time>2021-07-30T20:25:45Z</time>
      </trkpt>
      <trkpt lat="48.62446" lon="-1.44433">
        <ele>3.02</ele>
        <time>2021-07-30T20:25:57Z</time>
      </trkpt>
      <trkpt lat="48.6245" lon="-1.44439">
        <ele>3.5</ele>
        <time>2021-07-30T20:28:00Z</time>
      </trkpt>
      <trkpt lat="48.62449" lon="-1.4444">
        <ele>3.5</ele>
        <time>2021-07-30T20:28:02Z</time>
      </trkpt>
      <trkpt lat="48.6245" lon="-1.44442">
        <ele>3.5</ele>
        <time>2021-07-30T20:28:15Z</time>
      </trkpt>
      <trkpt lat="48.6245" lon="-1.44447">
        <ele>3.5</ele>
        <time>2021-07-30T20:28:27Z</time>
      </trkpt>
      <trkpt lat="48.62451" lon="-1.44445">
        <ele>3.5</ele>
        <time>2021-07-30T20:28:28Z</time>
      </trkpt>
      <trkpt lat="48.6245" lon="-1.44435">
        <ele>3.98</ele>
        <time>2021-07-30T20:28:45Z</time>
      </trkpt>
      <trkpt lat="48.6245" lon="-1.44436">
        <ele>3.98</ele>
        <time>2021-07-30T20:29:12Z</time>
      </trkpt>
      <trkpt lat="48.62451" lon="-1.44438">
        <ele>3.02</ele>
        <time>2021-07-30T20:38:56Z</time>
      </trkpt>
      <trkpt lat="48.62451" lon="-1.4444">
        <ele>3.02</ele>
        <time>2021-07-30T20:45:33Z</time>
      </trkpt>
      <trkpt lat="48.62451" lon="-1.4444">
        <ele>2.54</ele>
        <time>2021-07-30T20:50:08Z</time>
      </trkpt>
      <trkpt lat="48.62451" lon="-1.44438">
        <ele>2.06</ele>
        <time>2021-07-30T20:55:40Z</time>
      </trkpt>
      <trkpt lat="48.6245" lon="-1.44436">
        <ele>2.54</ele>
        <time>2021-07-30T21:00:45Z</time>
      </trkpt>
      <trkpt lat="48.62449" lon="-1.44436">
        <ele>2.54</ele>
        <time>2021-07-30T21:08:46Z</time>
      </trkpt>
      <trkpt lat="48.6245" lon="-1.44436">
        <ele>2.54</ele>
        <time>2021-07-30T21:18:20Z</time>
      </trkpt>
      <trkpt lat="48.6245" lon="-1.44436">
        <ele>2.54</ele>
        <time>2021-07-30T21:24:13Z</time>
      </trkpt>
      <trkpt lat="48.62449" lon="-1.44436">
        <ele>3.02</ele>
        <time>2021-07-30T21:29:58Z</time>
      </trkpt>
      <trkpt lat="48.62449" lon="-1.44438">
        <ele>3.5</ele>
        <time>2021-07-30T21:33:43Z</time>
      </trkpt>
      <trkpt lat="48.6245" lon="-1.44437">
        <ele>3.98</ele>
        <time>2021-07-30T21:37:06Z</time>
      </trkpt>
      <trkpt lat="48.62451" lon="-1.44436">
        <ele>3.98</ele>
        <time>2021-07-30T21:39:09Z</time>
      </trkpt>
      <trkpt lat="48.62451" lon="-1.44436">
        <ele>4.46</ele>
        <time>2021-07-30T21:42:49Z</time>
      </trkpt>
      <trkpt lat="48.62452" lon="-1.44435">
        <ele>5.91</ele>
        <time>2021-07-30T21:51:16Z</time>
      </trkpt>
    </trkseg>
  </trk>
  <trk>
    <name><![CDATA[Journal actif: 2021-07-31 09:37]]></name>
    <trkseg>
      <trkpt lat="48.62449" lon="-1.44478">
        <ele>48.68</ele>
        <time>2021-07-31T11:37:08Z</time>
      </trkpt>
      <trkpt lat="48.62454" lon="-1.4447">
        <ele>17.92</ele>
        <time>2021-07-31T11:37:55Z</time>
      </trkpt>
      <trkpt lat="48.62455" lon="-1.4447">
        <ele>15.52</ele>
        <time>2021-07-31T11:38:30Z</time>
      </trkpt>
      <trkpt lat="48.6246" lon="-1.44483">
        <ele>13.6</ele>
        <time>2021-07-31T11:38:50Z</time>
      </trkpt>
      <trkpt lat="48.62468" lon="-1.44503">
        <ele>11.19</ele>
        <time>2021-07-31T11:39:40Z</time>
      </trkpt>
      <trkpt lat="48.62468" lon="-1.44506">
        <ele>9.27</ele>
        <time>2021-07-31T11:39:59Z</time>
      </trkpt>
      <trkpt lat="48.62472" lon="-1.44515">
        <ele>6.87</ele>
        <time>2021-07-31T11:40:43Z</time>
      </trkpt>
      <trkpt lat="48.62481" lon="-1.44535">
        <ele>0.62</ele>
        <time>2021-07-31T11:41:03Z</time>
      </trkpt>
      <trkpt lat="48.62481" lon="-1.44535">
        <ele>0.62</ele>
        <time>2021-07-31T11:41:22Z</time>
      </trkpt>
      <trkpt lat="48.62487" lon="-1.44543">
        <ele>1.1</ele>
        <time>2021-07-31T11:41:24Z</time>
      </trkpt>
      <trkpt lat="48.62482" lon="-1.44547">
        <ele>1.1</ele>
        <time>2021-07-31T11:41:25Z</time>
      </trkpt>
      <trkpt lat="48.62479" lon="-1.44549">
        <ele>1.1</ele>
        <time>2021-07-31T11:41:26Z</time>
      </trkpt>
      <trkpt lat="48.62475" lon="-1.44551">
        <ele>1.58</ele>
        <time>2021-07-31T11:41:27Z</time>
      </trkpt>
      <trkpt lat="48.62472" lon="-1.44554">
        <ele>1.58</ele>
        <time>2021-07-31T11:41:28Z</time>
      </trkpt>
      <trkpt lat="48.62417" lon="-1.44593">
        <ele>2.54</ele>
        <time>2021-07-31T11:41:38Z</time>
      </trkpt>
      <trkpt lat="48.62335" lon="-1.4467">
        <ele>3.5</ele>
        <time>2021-07-31T11:41:49Z</time>
      </trkpt>
      <trkpt lat="48.62328" lon="-1.4468">
        <ele>3.5</ele>
        <time>2021-07-31T11:41:50Z</time>
      </trkpt>
      <trkpt lat="48.62322" lon="-1.44693">
        <ele>3.02</ele>
        <time>2021-07-31T11:41:51Z</time>
      </trkpt>
      <trkpt lat="48.62316" lon="-1.44706">
        <ele>3.02</ele>
        <time>2021-07-31T11:41:52Z</time>
      </trkpt>
      <trkpt lat="48.62312" lon="-1.44721">
        <ele>3.02</ele>
        <time>2021-07-31T11:41:53Z</time>
      </trkpt>
      <trkpt lat="48.62309" lon="-1.44738">
        <ele>3.02</ele>
        <time>2021-07-31T11:41:54Z</time>
      </trkpt>
      <trkpt lat="48.62307" lon="-1.44755">
        <ele>3.02</ele>
        <time>2021-07-31T11:41:55Z</time>
      </trkpt>
      <trkpt lat="48.62305" lon="-1.44774">
        <ele>3.02</ele>
        <time>2021-07-31T11:41:56Z</time>
      </trkpt>
      <trkpt lat="48.62278" lon="-1.45043">
        <ele>3.98</ele>
        <time>2021-07-31T11:42:11Z</time>
      </trkpt>
      <trkpt lat="48.62262" lon="-1.45152">
        <ele>3.98</ele>
        <time>2021-07-31T11:42:20Z</time>
      </trkpt>
      <trkpt lat="48.6226" lon="-1.45167">
        <ele>3.5</ele>
        <time>2021-07-31T11:42:30Z</time>
      </trkpt>
      <trkpt lat="48.62259" lon="-1.45174">
        <ele>3.5</ele>
        <time>2021-07-31T11:42:31Z</time>
      </trkpt>
      <trkpt lat="48.62259" lon="-1.45174">
        <ele>3.5</ele>
        <time>2021-07-31T11:42:32Z</time>
      </trkpt>
      <trkpt lat="48.62271" lon="-1.45178">
        <ele>3.02</ele>
        <time>2021-07-31T11:42:45Z</time>
      </trkpt>
      <trkpt lat="48.62272" lon="-1.45178">
        <ele>3.02</ele>
        <time>2021-07-31T11:45:10Z</time>
      </trkpt>
      <trkpt lat="48.62267" lon="-1.45173">
        <ele>3.02</ele>
        <time>2021-07-31T11:45:32Z</time>
      </trkpt>
      <trkpt lat="48.62265" lon="-1.45182">
        <ele>3.5</ele>
        <time>2021-07-31T11:45:43Z</time>
      </trkpt>
      <trkpt lat="48.62255" lon="-1.45195">
        <ele>3.98</ele>
        <time>2021-07-31T11:45:49Z</time>
      </trkpt>
      <trkpt lat="48.62255" lon="-1.45195">
        <ele>3.98</ele>
        <time>2021-07-31T11:45:50Z</time>
      </trkpt>
      <trkpt lat="48.62254" lon="-1.45202">
        <ele>3.98</ele>
        <time>2021-07-31T11:45:51Z</time>
      </trkpt>
      <trkpt lat="48.62242" lon="-1.45259">
        <ele>4.46</ele>
        <time>2021-07-31T11:45:58Z</time>
      </trkpt>
      <trkpt lat="48.62238" lon="-1.45268">
        <ele>4.46</ele>
        <time>2021-07-31T11:45:59Z</time>
      </trkpt>
      <trkpt lat="48.62179" lon="-1.4541">
        <ele>5.42</ele>
        <time>2021-07-31T11:46:11Z</time>
      </trkpt>
      <trkpt lat="48.62129" lon="-1.45623">
        <ele>4.46</ele>
        <time>2021-07-31T11:46:25Z</time>
      </trkpt>
      <trkpt lat="48.62067" lon="-1.45787">
        <ele>5.91</ele>
        <time>2021-07-31T11:46:35Z</time>
      </trkpt>
      <trkpt lat="48.61969" lon="-1.45915">
        <ele>4.94</ele>
        <time>2021-07-31T11:46:45Z</time>
      </trkpt>
      <trkpt lat="48.61936" lon="-1.45955">
        <ele>4.94</ele>
        <time>2021-07-31T11:46:53Z</time>
      </trkpt>
    </trkseg>
  </trk>
  <trk>
    <name><![CDATA[Journal actif: 2021-07-31 09:47]]></name>
    <trkseg>
      <trkpt lat="48.61871" lon="-1.46039">
        <ele>5.42</ele>
        <time>2021-07-31T11:47:06Z</time>
      </trkpt>
      <trkpt lat="48.61791" lon="-1.46164">
        <ele>4.94</ele>
        <time>2021-07-31T11:47:24Z</time>
      </trkpt>
      <trkpt lat="48.61701" lon="-1.46293">
        <ele>3.02</ele>
        <time>2021-07-31T11:47:37Z</time>
      </trkpt>
      <trkpt lat="48.61648" lon="-1.4635">
        <ele>1.58</ele>
        <time>2021-07-31T11:47:43Z</time>
      </trkpt>
      <trkpt lat="48.61641" lon="-1.46362">
        <ele>2.54</ele>
        <time>2021-07-31T11:47:44Z</time>
      </trkpt>
      <trkpt lat="48.61627" lon="-1.4639">
        <ele>3.02</ele>
        <time>2021-07-31T11:47:45Z</time>
      </trkpt>
      <trkpt lat="48.61627" lon="-1.4639">
        <ele>3.02</ele>
        <time>2021-07-31T11:47:46Z</time>
      </trkpt>
      <trkpt lat="48.61622" lon="-1.46406">
        <ele>2.54</ele>
        <time>2021-07-31T11:47:47Z</time>
      </trkpt>
      <trkpt lat="48.61619" lon="-1.46423">
        <ele>2.06</ele>
        <time>2021-07-31T11:47:48Z</time>
      </trkpt>
      <trkpt lat="48.61613" lon="-1.46456">
        <ele>2.06</ele>
        <time>2021-07-31T11:47:49Z</time>
      </trkpt>
      <trkpt lat="48.61563" lon="-1.46691">
        <ele>3.5</ele>
        <time>2021-07-31T11:48:04Z</time>
      </trkpt>
      <trkpt lat="48.61525" lon="-1.4685">
        <ele>3.98</ele>
        <time>2021-07-31T11:48:13Z</time>
      </trkpt>
      <trkpt lat="48.61523" lon="-1.46868">
        <ele>3.02</ele>
        <time>2021-07-31T11:48:14Z</time>
      </trkpt>
      <trkpt lat="48.61521" lon="-1.46884">
        <ele>3.5</ele>
        <time>2021-07-31T11:48:15Z</time>
      </trkpt>
      <trkpt lat="48.61522" lon="-1.46902">
        <ele>3.5</ele>
        <time>2021-07-31T11:48:16Z</time>
      </trkpt>
      <trkpt lat="48.61524" lon="-1.46922">
        <ele>3.5</ele>
        <time>2021-07-31T11:48:17Z</time>
      </trkpt>
      <trkpt lat="48.61538" lon="-1.47159">
        <ele>3.98</ele>
        <time>2021-07-31T11:48:28Z</time>
      </trkpt>
      <trkpt lat="48.61562" lon="-1.47421">
        <ele>4.46</ele>
        <time>2021-07-31T11:48:41Z</time>
      </trkpt>
      <trkpt lat="48.61565" lon="-1.4747">
        <ele>4.94</ele>
        <time>2021-07-31T11:48:44Z</time>
      </trkpt>
      <trkpt lat="48.61566" lon="-1.47489">
        <ele>4.46</ele>
        <time>2021-07-31T11:48:45Z</time>
      </trkpt>
      <trkpt lat="48.61571" lon="-1.47525">
        <ele>4.46</ele>
        <time>2021-07-31T11:48:46Z</time>
      </trkpt>
      <trkpt lat="48.61575" lon="-1.47543">
        <ele>3.98</ele>
        <time>2021-07-31T11:48:47Z</time>
      </trkpt>
      <trkpt lat="48.61575" lon="-1.47543">
        <ele>3.98</ele>
        <time>2021-07-31T11:48:48Z</time>
      </trkpt>
      <trkpt lat="48.61578" lon="-1.4756">
        <ele>3.5</ele>
        <time>2021-07-31T11:48:49Z</time>
      </trkpt>
      <trkpt lat="48.61582" lon="-1.47578">
        <ele>3.5</ele>
        <time>2021-07-31T11:48:50Z</time>
      </trkpt>
      <trkpt lat="48.61597" lon="-1.47838">
        <ele>3.5</ele>
        <time>2021-07-31T11:49:04Z</time>
      </trkpt>
      <trkpt lat="48.61601" lon="-1.48317">
        <ele>2.06</ele>
        <time>2021-07-31T11:49:28Z</time>
      </trkpt>
      <trkpt lat="48.61607" lon="-1.48748">
        <ele>2.54</ele>
        <time>2021-07-31T11:49:50Z</time>
      </trkpt>
      <trkpt lat="48.61599" lon="-1.48948">
        <ele>3.5</ele>
        <time>2021-07-31T11:50:02Z</time>
      </trkpt>
      <trkpt lat="48.61551" lon="-1.49266">
        <ele>4.46</ele>
        <time>2021-07-31T11:50:22Z</time>
      </trkpt>
      <trkpt lat="48.61485" lon="-1.4964">
        <ele>3.02</ele>
        <time>2021-07-31T11:50:43Z</time>
      </trkpt>
      <trkpt lat="48.61457" lon="-1.49792">
        <ele>2.06</ele>
        <time>2021-07-31T11:50:53Z</time>
      </trkpt>
      <trkpt lat="48.61447" lon="-1.4984">
        <ele>2.06</ele>
        <time>2021-07-31T11:50:58Z</time>
      </trkpt>
      <trkpt lat="48.61445" lon="-1.49846">
        <ele>2.54</ele>
        <time>2021-07-31T11:50:59Z</time>
      </trkpt>
      <trkpt lat="48.61444" lon="-1.49852">
        <ele>2.54</ele>
        <time>2021-07-31T11:51:00Z</time>
      </trkpt>
      <trkpt lat="48.61443" lon="-1.49856">
        <ele>2.54</ele>
        <time>2021-07-31T11:51:01Z</time>
      </trkpt>
      <trkpt lat="48.61443" lon="-1.4986">
        <ele>2.54</ele>
        <time>2021-07-31T11:51:02Z</time>
      </trkpt>
      <trkpt lat="48.61442" lon="-1.49863">
        <ele>2.54</ele>
        <time>2021-07-31T11:51:03Z</time>
      </trkpt>
      <trkpt lat="48.61412" lon="-1.49877">
        <ele>3.02</ele>
        <time>2021-07-31T11:51:15Z</time>
      </trkpt>
      <trkpt lat="48.6141" lon="-1.49876">
        <ele>3.02</ele>
        <time>2021-07-31T11:51:35Z</time>
      </trkpt>
      <trkpt lat="48.6141" lon="-1.49874">
        <ele>2.54</ele>
        <time>2021-07-31T11:59:46Z</time>
      </trkpt>
      <trkpt lat="48.61409" lon="-1.49872">
        <ele>3.02</ele>
        <time>2021-07-31T12:03:01Z</time>
      </trkpt>
      <trkpt lat="48.61409" lon="-1.49873">
        <ele>3.5</ele>
        <time>2021-07-31T12:05:52Z</time>
      </trkpt>
      <trkpt lat="48.61408" lon="-1.49872">
        <ele>3.5</ele>
        <time>2021-07-31T12:08:48Z</time>
      </trkpt>
      <trkpt lat="48.61407" lon="-1.49871">
        <ele>3.98</ele>
        <time>2021-07-31T12:10:51Z</time>
      </trkpt>
      <trkpt lat="48.61407" lon="-1.49872">
        <ele>4.46</ele>
        <time>2021-07-31T12:12:33Z</time>
      </trkpt>
      <trkpt lat="48.61407" lon="-1.49872">
        <ele>4.46</ele>
        <time>2021-07-31T12:14:57Z</time>
      </trkpt>
      <trkpt lat="48.61407" lon="-1.49872">
        <ele>4.46</ele>
        <time>2021-07-31T12:16:52Z</time>
      </trkpt>
      <trkpt lat="48.61407" lon="-1.49872">
        <ele>4.46</ele>
        <time>2021-07-31T12:19:13Z</time>
      </trkpt>
      <trkpt lat="48.61407" lon="-1.49872">
        <ele>4.94</ele>
        <time>2021-07-31T12:21:41Z</time>
      </trkpt>
      <trkpt lat="48.61408" lon="-1.49871">
        <ele>5.42</ele>
        <time>2021-07-31T12:24:04Z</time>
      </trkpt>
      <trkpt lat="48.61408" lon="-1.49871">
        <ele>5.91</ele>
        <time>2021-07-31T12:26:59Z</time>
      </trkpt>
    </trkseg>
  </trk>
  <trk>
    <name><![CDATA[Journal actif: 2021-07-31 10:28]]></name>
    <trkseg>
      <trkpt lat="48.61408" lon="-1.49871">
        <ele>6.39</ele>
        <time>2021-07-31T12:28:35Z</time>
      </trkpt>
      <trkpt lat="48.61403" lon="-1.49864">
        <ele>4.46</ele>
        <time>2021-07-31T12:28:51Z</time>
      </trkpt>
      <trkpt lat="48.61421" lon="-1.49843">
        <ele>4.46</ele>
        <time>2021-07-31T12:29:01Z</time>
      </trkpt>
      <trkpt lat="48.61439" lon="-1.49852">
        <ele>5.42</ele>
        <time>2021-07-31T12:29:17Z</time>
      </trkpt>
      <trkpt lat="48.61441" lon="-1.49854">
        <ele>5.42</ele>
        <time>2021-07-31T12:29:23Z</time>
      </trkpt>
      <trkpt lat="48.61443" lon="-1.49857">
        <ele>5.42</ele>
        <time>2021-07-31T12:29:25Z</time>
      </trkpt>
      <trkpt lat="48.61442" lon="-1.49861">
        <ele>5.42</ele>
        <time>2021-07-31T12:29:26Z</time>
      </trkpt>
      <trkpt lat="48.61441" lon="-1.49866">
        <ele>5.42</ele>
        <time>2021-07-31T12:29:27Z</time>
      </trkpt>
      <trkpt lat="48.6144" lon="-1.49871">
        <ele>5.42</ele>
        <time>2021-07-31T12:29:28Z</time>
      </trkpt>
      <trkpt lat="48.61434" lon="-1.49889">
        <ele>5.42</ele>
        <time>2021-07-31T12:29:31Z</time>
      </trkpt>
      <trkpt lat="48.61432" lon="-1.49895">
        <ele>5.91</ele>
        <time>2021-07-31T12:29:32Z</time>
      </trkpt>
      <trkpt lat="48.61429" lon="-1.49903">
        <ele>5.91</ele>
        <time>2021-07-31T12:29:33Z</time>
      </trkpt>
      <trkpt lat="48.61427" lon="-1.4991">
        <ele>5.91</ele>
        <time>2021-07-31T12:29:34Z</time>
      </trkpt>
      <trkpt lat="48.61423" lon="-1.49915">
        <ele>5.91</ele>
        <time>2021-07-31T12:29:35Z</time>
      </trkpt>
      <trkpt lat="48.61419" lon="-1.49921">
        <ele>5.91</ele>
        <time>2021-07-31T12:29:36Z</time>
      </trkpt>
      <trkpt lat="48.61414" lon="-1.49923">
        <ele>5.91</ele>
        <time>2021-07-31T12:29:37Z</time>
      </trkpt>
      <trkpt lat="48.61408" lon="-1.49924">
        <ele>5.91</ele>
        <time>2021-07-31T12:29:38Z</time>
      </trkpt>
      <trkpt lat="48.61403" lon="-1.49924">
        <ele>5.91</ele>
        <time>2021-07-31T12:29:39Z</time>
      </trkpt>
      <trkpt lat="48.61398" lon="-1.49925">
        <ele>5.91</ele>
        <time>2021-07-31T12:29:40Z</time>
      </trkpt>
      <trkpt lat="48.61393" lon="-1.49922">
        <ele>5.91</ele>
        <time>2021-07-31T12:29:41Z</time>
      </trkpt>
      <trkpt lat="48.61388" lon="-1.4992">
        <ele>5.91</ele>
        <time>2021-07-31T12:29:42Z</time>
      </trkpt>
      <trkpt lat="48.61383" lon="-1.49918">
        <ele>5.91</ele>
        <time>2021-07-31T12:29:43Z</time>
      </trkpt>
      <trkpt lat="48.61303" lon="-1.49864">
        <ele>5.42</ele>
        <time>2021-07-31T12:29:54Z</time>
      </trkpt>
      <trkpt lat="48.61242" lon="-1.49823">
        <ele>6.39</ele>
        <time>2021-07-31T12:30:01Z</time>
      </trkpt>
      <trkpt lat="48.61234" lon="-1.49817">
        <ele>6.87</ele>
        <time>2021-07-31T12:30:02Z</time>
      </trkpt>
      <trkpt lat="48.61226" lon="-1.49815">
        <ele>6.87</ele>
        <time>2021-07-31T12:30:03Z</time>
      </trkpt>
      <trkpt lat="48.61217" lon="-1.49815">
        <ele>6.39</ele>
        <time>2021-07-31T12:30:04Z</time>
      </trkpt>
      <trkpt lat="48.61202" lon="-1.49825">
        <ele>5.91</ele>
        <time>2021-07-31T12:30:05Z</time>
      </trkpt>
      <trkpt lat="48.61195" lon="-1.49831">
        <ele>5.91</ele>
        <time>2021-07-31T12:30:06Z</time>
      </trkpt>
      <trkpt lat="48.61195" lon="-1.49831">
        <ele>5.91</ele>
        <time>2021-07-31T12:30:07Z</time>
      </trkpt>
      <trkpt lat="48.61182" lon="-1.49848">
        <ele>5.91</ele>
        <time>2021-07-31T12:30:08Z</time>
      </trkpt>
      <trkpt lat="48.61128" lon="-1.49969">
        <ele>5.91</ele>
        <time>2021-07-31T12:30:21Z</time>
      </trkpt>
      <trkpt lat="48.61125" lon="-1.49976">
        <ele>5.91</ele>
        <time>2021-07-31T12:30:22Z</time>
      </trkpt>
      <trkpt lat="48.61122" lon="-1.49983">
        <ele>5.91</ele>
        <time>2021-07-31T12:30:23Z</time>
      </trkpt>
      <trkpt lat="48.61124" lon="-1.50008">
        <ele>6.39</ele>
        <time>2021-07-31T12:30:25Z</time>
      </trkpt>
      <trkpt lat="48.61124" lon="-1.50008">
        <ele>6.39</ele>
        <time>2021-07-31T12:30:26Z</time>
      </trkpt>
      <trkpt lat="48.61119" lon="-1.50017">
        <ele>6.39</ele>
        <time>2021-07-31T12:30:27Z</time>
      </trkpt>
      <trkpt lat="48.61103" lon="-1.50021">
        <ele>5.91</ele>
        <time>2021-07-31T12:30:30Z</time>
      </trkpt>
      <trkpt lat="48.611" lon="-1.50028">
        <ele>5.91</ele>
        <time>2021-07-31T12:30:31Z</time>
      </trkpt>
      <trkpt lat="48.61096" lon="-1.50035">
        <ele>5.91</ele>
        <time>2021-07-31T12:30:32Z</time>
      </trkpt>
      <trkpt lat="48.61092" lon="-1.50043">
        <ele>5.91</ele>
        <time>2021-07-31T12:30:33Z</time>
      </trkpt>
      <trkpt lat="48.61087" lon="-1.50051">
        <ele>5.91</ele>
        <time>2021-07-31T12:30:34Z</time>
      </trkpt>
      <trkpt lat="48.61035" lon="-1.50175">
        <ele>6.39</ele>
        <time>2021-07-31T12:30:44Z</time>
      </trkpt>
      <trkpt lat="48.60967" lon="-1.50346">
        <ele>3.98</ele>
        <time>2021-07-31T12:30:54Z</time>
      </trkpt>
      <trkpt lat="48.60967" lon="-1.50346">
        <ele>3.98</ele>
        <time>2021-07-31T12:30:55Z</time>
      </trkpt>
      <trkpt lat="48.60961" lon="-1.50355">
        <ele>3.98</ele>
        <time>2021-07-31T12:30:56Z</time>
      </trkpt>
      <trkpt lat="48.60945" lon="-1.50362">
        <ele>3.98</ele>
        <time>2021-07-31T12:30:57Z</time>
      </trkpt>
      <trkpt lat="48.60935" lon="-1.50363">
        <ele>4.46</ele>
        <time>2021-07-31T12:30:58Z</time>
      </trkpt>
      <trkpt lat="48.60935" lon="-1.50363">
        <ele>4.46</ele>
        <time>2021-07-31T12:30:59Z</time>
      </trkpt>
      <trkpt lat="48.60926" lon="-1.50359">
        <ele>3.98</ele>
        <time>2021-07-31T12:31:00Z</time>
      </trkpt>
      <trkpt lat="48.60917" lon="-1.50355">
        <ele>3.02</ele>
        <time>2021-07-31T12:31:01Z</time>
      </trkpt>
      <trkpt lat="48.60907" lon="-1.5035">
        <ele>3.02</ele>
        <time>2021-07-31T12:31:02Z</time>
      </trkpt>
      <trkpt lat="48.6087" lon="-1.50335">
        <ele>4.46</ele>
        <time>2021-07-31T12:31:06Z</time>
      </trkpt>
      <trkpt lat="48.60861" lon="-1.50336">
        <ele>4.94</ele>
        <time>2021-07-31T12:31:07Z</time>
      </trkpt>
      <trkpt lat="48.60853" lon="-1.50337">
        <ele>4.46</ele>
        <time>2021-07-31T12:31:08Z</time>
      </trkpt>
      <trkpt lat="48.60845" lon="-1.50338">
        <ele>3.98</ele>
        <time>2021-07-31T12:31:09Z</time>
      </trkpt>
      <trkpt lat="48.60837" lon="-1.50343">
        <ele>3.98</ele>
        <time>2021-07-31T12:31:10Z</time>
      </trkpt>
      <trkpt lat="48.60831" lon="-1.50353">
        <ele>3.98</ele>
        <time>2021-07-31T12:31:11Z</time>
      </trkpt>
      <trkpt lat="48.60826" lon="-1.50363">
        <ele>3.98</ele>
        <time>2021-07-31T12:31:12Z</time>
      </trkpt>
      <trkpt lat="48.60821" lon="-1.50373">
        <ele>3.98</ele>
        <time>2021-07-31T12:31:13Z</time>
      </trkpt>
      <trkpt lat="48.6082" lon="-1.50386">
        <ele>3.98</ele>
        <time>2021-07-31T12:31:14Z</time>
      </trkpt>
      <trkpt lat="48.60819" lon="-1.504">
        <ele>3.5</ele>
        <time>2021-07-31T12:31:15Z</time>
      </trkpt>
      <trkpt lat="48.60804" lon="-1.50589">
        <ele>3.98</ele>
        <time>2021-07-31T12:31:26Z</time>
      </trkpt>
      <trkpt lat="48.60797" lon="-1.50832">
        <ele>3.98</ele>
        <time>2021-07-31T12:31:37Z</time>
      </trkpt>
      <trkpt lat="48.60815" lon="-1.50963">
        <ele>3.02</ele>
        <time>2021-07-31T12:31:45Z</time>
      </trkpt>
      <trkpt lat="48.60813" lon="-1.5098">
        <ele>3.02</ele>
        <time>2021-07-31T12:31:46Z</time>
      </trkpt>
      <trkpt lat="48.60812" lon="-1.50991">
        <ele>3.5</ele>
        <time>2021-07-31T12:31:47Z</time>
      </trkpt>
      <trkpt lat="48.60811" lon="-1.51002">
        <ele>3.5</ele>
        <time>2021-07-31T12:31:48Z</time>
      </trkpt>
      <trkpt lat="48.6081" lon="-1.51008">
        <ele>3.98</ele>
        <time>2021-07-31T12:31:49Z</time>
      </trkpt>
      <trkpt lat="48.60806" lon="-1.51015">
        <ele>4.46</ele>
        <time>2021-07-31T12:31:50Z</time>
      </trkpt>
      <trkpt lat="48.60803" lon="-1.51023">
        <ele>4.94</ele>
        <time>2021-07-31T12:31:51Z</time>
      </trkpt>
      <trkpt lat="48.60799" lon="-1.51028">
        <ele>4.94</ele>
        <time>2021-07-31T12:31:52Z</time>
      </trkpt>
      <trkpt lat="48.60791" lon="-1.51032">
        <ele>5.42</ele>
        <time>2021-07-31T12:31:53Z</time>
      </trkpt>
      <trkpt lat="48.60783" lon="-1.51035">
        <ele>4.94</ele>
        <time>2021-07-31T12:31:54Z</time>
      </trkpt>
      <trkpt lat="48.60662" lon="-1.5108">
        <ele>4.94</ele>
        <time>2021-07-31T12:32:05Z</time>
      </trkpt>
      <trkpt lat="48.60416" lon="-1.51165">
        <ele>6.39</ele>
        <time>2021-07-31T12:32:23Z</time>
      </trkpt>
      <trkpt lat="48.60281" lon="-1.5121">
        <ele>5.91</ele>
        <time>2021-07-31T12:32:33Z</time>
      </trkpt>
      <trkpt lat="48.60158" lon="-1.51247">
        <ele>6.87</ele>
        <time>2021-07-31T12:32:47Z</time>
      </trkpt>
      <trkpt lat="48.60064" lon="-1.51276">
        <ele>5.91</ele>
        <time>2021-07-31T12:32:59Z</time>
      </trkpt>
      <trkpt lat="48.59993" lon="-1.51298">
        <ele>6.39</ele>
        <time>2021-07-31T12:33:10Z</time>
      </trkpt>
      <trkpt lat="48.59862" lon="-1.51306">
        <ele>8.79</ele>
        <time>2021-07-31T12:33:24Z</time>
      </trkpt>
      <trkpt lat="48.59782" lon="-1.51302">
        <ele>9.75</ele>
        <time>2021-07-31T12:33:36Z</time>
      </trkpt>
      <trkpt lat="48.59716" lon="-1.51282">
        <ele>9.75</ele>
        <time>2021-07-31T12:33:46Z</time>
      </trkpt>
      <trkpt lat="48.59706" lon="-1.51279">
        <ele>9.27</ele>
        <time>2021-07-31T12:33:59Z</time>
      </trkpt>
      <trkpt lat="48.59706" lon="-1.51279">
        <ele>9.27</ele>
        <time>2021-07-31T12:38:46Z</time>
      </trkpt>
      <trkpt lat="48.59701" lon="-1.51277">
        <ele>9.27</ele>
        <time>2021-07-31T12:38:47Z</time>
      </trkpt>
      <trkpt lat="48.59701" lon="-1.51277">
        <ele>9.27</ele>
        <time>2021-07-31T12:38:48Z</time>
      </trkpt>
      <trkpt lat="48.59695" lon="-1.51275">
        <ele>9.27</ele>
        <time>2021-07-31T12:38:49Z</time>
      </trkpt>
      <trkpt lat="48.59695" lon="-1.51275">
        <ele>9.27</ele>
        <time>2021-07-31T12:38:50Z</time>
      </trkpt>
      <trkpt lat="48.59618" lon="-1.51252">
        <ele>9.75</ele>
        <time>2021-07-31T12:39:02Z</time>
      </trkpt>
      <trkpt lat="48.59475" lon="-1.51218">
        <ele>11.19</ele>
        <time>2021-07-31T12:39:22Z</time>
      </trkpt>
      <trkpt lat="48.59406" lon="-1.51177">
        <ele>10.71</ele>
        <time>2021-07-31T12:39:33Z</time>
      </trkpt>
      <trkpt lat="48.59355" lon="-1.51133">
        <ele>10.71</ele>
        <time>2021-07-31T12:39:42Z</time>
      </trkpt>
      <trkpt lat="48.59294" lon="-1.5108">
        <ele>10.71</ele>
        <time>2021-07-31T12:39:53Z</time>
      </trkpt>
      <trkpt lat="48.59178" lon="-1.51032">
        <ele>11.19</ele>
        <time>2021-07-31T12:40:03Z</time>
      </trkpt>
      <trkpt lat="48.59005" lon="-1.50997">
        <ele>13.6</ele>
        <time>2021-07-31T12:40:17Z</time>
      </trkpt>
      <trkpt lat="48.58848" lon="-1.51029">
        <ele>14.56</ele>
        <time>2021-07-31T12:40:28Z</time>
      </trkpt>
      <trkpt lat="48.58552" lon="-1.51103">
        <ele>13.12</ele>
        <time>2021-07-31T12:40:47Z</time>
      </trkpt>
      <trkpt lat="48.58433" lon="-1.51132">
        <ele>16</ele>
        <time>2021-07-31T12:40:57Z</time>
      </trkpt>
      <trkpt lat="48.58401" lon="-1.5114">
        <ele>16.48</ele>
        <time>2021-07-31T12:41:02Z</time>
      </trkpt>
      <trkpt lat="48.58395" lon="-1.51141">
        <ele>16</ele>
        <time>2021-07-31T12:41:03Z</time>
      </trkpt>
      <trkpt lat="48.58391" lon="-1.51142">
        <ele>16</ele>
        <time>2021-07-31T12:41:04Z</time>
      </trkpt>
      <trkpt lat="48.58387" lon="-1.51143">
        <ele>15.52</ele>
        <time>2021-07-31T12:41:05Z</time>
      </trkpt>
      <trkpt lat="48.5838" lon="-1.51132">
        <ele>15.52</ele>
        <time>2021-07-31T12:41:06Z</time>
      </trkpt>
      <trkpt lat="48.58378" lon="-1.51124">
        <ele>15.52</ele>
        <time>2021-07-31T12:41:07Z</time>
      </trkpt>
      <trkpt lat="48.58377" lon="-1.51116">
        <ele>15.52</ele>
        <time>2021-07-31T12:41:08Z</time>
      </trkpt>
      <trkpt lat="48.58368" lon="-1.51069">
        <ele>16.48</ele>
        <time>2021-07-31T12:41:12Z</time>
      </trkpt>
      <trkpt lat="48.58368" lon="-1.51069">
        <ele>16.48</ele>
        <time>2021-07-31T12:41:13Z</time>
      </trkpt>
      <trkpt lat="48.58367" lon="-1.51058">
        <ele>16.96</ele>
        <time>2021-07-31T12:41:14Z</time>
      </trkpt>
      <trkpt lat="48.58376" lon="-1.50874">
        <ele>22.25</ele>
        <time>2021-07-31T12:41:27Z</time>
      </trkpt>
      <trkpt lat="48.58387" lon="-1.50643">
        <ele>32.82</ele>
        <time>2021-07-31T12:41:44Z</time>
      </trkpt>
      <trkpt lat="48.58392" lon="-1.50528">
        <ele>32.82</ele>
        <time>2021-07-31T12:41:54Z</time>
      </trkpt>
      <trkpt lat="48.58392" lon="-1.50522">
        <ele>32.82</ele>
        <time>2021-07-31T12:41:55Z</time>
      </trkpt>
      <trkpt lat="48.58392" lon="-1.50522">
        <ele>32.82</ele>
        <time>2021-07-31T12:41:56Z</time>
      </trkpt>
      <trkpt lat="48.58392" lon="-1.50517">
        <ele>32.82</ele>
        <time>2021-07-31T12:41:57Z</time>
      </trkpt>
      <trkpt lat="48.584" lon="-1.50518">
        <ele>32.82</ele>
        <time>2021-07-31T12:41:58Z</time>
      </trkpt>
      <trkpt lat="48.58403" lon="-1.50519">
        <ele>32.82</ele>
        <time>2021-07-31T12:41:59Z</time>
      </trkpt>
      <trkpt lat="48.58403" lon="-1.50519">
        <ele>32.82</ele>
        <time>2021-07-31T12:42:00Z</time>
      </trkpt>
      <trkpt lat="48.58408" lon="-1.50521">
        <ele>32.82</ele>
        <time>2021-07-31T12:42:01Z</time>
      </trkpt>
      <trkpt lat="48.58486" lon="-1.5055">
        <ele>34.74</ele>
        <time>2021-07-31T12:42:14Z</time>
      </trkpt>
      <trkpt lat="48.58535" lon="-1.50565">
        <ele>35.71</ele>
        <time>2021-07-31T12:42:24Z</time>
      </trkpt>
      <trkpt lat="48.58537" lon="-1.50565">
        <ele>35.71</ele>
        <time>2021-07-31T12:42:29Z</time>
      </trkpt>
      <trkpt lat="48.58541" lon="-1.50566">
        <ele>35.23</ele>
        <time>2021-07-31T12:42:30Z</time>
      </trkpt>
      <trkpt lat="48.58541" lon="-1.50566">
        <ele>35.23</ele>
        <time>2021-07-31T12:42:31Z</time>
      </trkpt>
      <trkpt lat="48.58543" lon="-1.50553">
        <ele>34.74</ele>
        <time>2021-07-31T12:42:32Z</time>
      </trkpt>
      <trkpt lat="48.58541" lon="-1.50488">
        <ele>32.82</ele>
        <time>2021-07-31T12:42:46Z</time>
      </trkpt>
      <trkpt lat="48.58541" lon="-1.5047">
        <ele>32.34</ele>
        <time>2021-07-31T12:42:56Z</time>
      </trkpt>
      <trkpt lat="48.58542" lon="-1.50468">
        <ele>32.34</ele>
        <time>2021-07-31T12:42:57Z</time>
      </trkpt>
      <trkpt lat="48.58547" lon="-1.50465">
        <ele>31.86</ele>
        <time>2021-07-31T12:43:09Z</time>
      </trkpt>
      <trkpt lat="48.58548" lon="-1.50465">
        <ele>31.86</ele>
        <time>2021-07-31T12:45:41Z</time>
      </trkpt>
      <trkpt lat="48.58548" lon="-1.50465">
        <ele>31.86</ele>
        <time>2021-07-31T12:52:54Z</time>
      </trkpt>
      <trkpt lat="48.58548" lon="-1.50465">
        <ele>31.86</ele>
        <time>2021-07-31T13:02:28Z</time>
      </trkpt>
      <trkpt lat="48.58548" lon="-1.50465">
        <ele>31.38</ele>
        <time>2021-07-31T13:20:54Z</time>
      </trkpt>
      <trkpt lat="48.58549" lon="-1.50466">
        <ele>31.86</ele>
        <time>2021-07-31T13:25:20Z</time>
      </trkpt>
      <trkpt lat="48.58546" lon="-1.50469">
        <ele>31.38</ele>
        <time>2021-07-31T13:25:40Z</time>
      </trkpt>
      <trkpt lat="48.58543" lon="-1.50468">
        <ele>31.86</ele>
        <time>2021-07-31T13:26:04Z</time>
      </trkpt>
      <trkpt lat="48.58541" lon="-1.50521">
        <ele>32.34</ele>
        <time>2021-07-31T13:26:16Z</time>
      </trkpt>
      <trkpt lat="48.5854" lon="-1.5056">
        <ele>33.3</ele>
        <time>2021-07-31T13:26:27Z</time>
      </trkpt>
      <trkpt lat="48.58536" lon="-1.50565">
        <ele>33.78</ele>
        <time>2021-07-31T13:26:31Z</time>
      </trkpt>
      <trkpt lat="48.58534" lon="-1.50564">
        <ele>33.78</ele>
        <time>2021-07-31T13:26:32Z</time>
      </trkpt>
      <trkpt lat="48.58531" lon="-1.50563">
        <ele>33.78</ele>
        <time>2021-07-31T13:26:33Z</time>
      </trkpt>
      <trkpt lat="48.58516" lon="-1.5056">
        <ele>33.3</ele>
        <time>2021-07-31T13:26:36Z</time>
      </trkpt>
      <trkpt lat="48.58459" lon="-1.5054">
        <ele>32.34</ele>
        <time>2021-07-31T13:26:46Z</time>
      </trkpt>
      <trkpt lat="48.58405" lon="-1.5052">
        <ele>30.9</ele>
        <time>2021-07-31T13:26:58Z</time>
      </trkpt>
      <trkpt lat="48.58397" lon="-1.50517">
        <ele>30.9</ele>
        <time>2021-07-31T13:26:59Z</time>
      </trkpt>
      <trkpt lat="48.58392" lon="-1.50524">
        <ele>30.9</ele>
        <time>2021-07-31T13:27:00Z</time>
      </trkpt>
      <trkpt lat="48.58392" lon="-1.50536">
        <ele>30.9</ele>
        <time>2021-07-31T13:27:02Z</time>
      </trkpt>
      <trkpt lat="48.58389" lon="-1.50597">
        <ele>30.42</ele>
        <time>2021-07-31T13:27:14Z</time>
      </trkpt>
      <trkpt lat="48.58384" lon="-1.50703">
        <ele>26.57</ele>
        <time>2021-07-31T13:27:25Z</time>
      </trkpt>
      <trkpt lat="48.58373" lon="-1.50924">
        <ele>14.56</ele>
        <time>2021-07-31T13:27:39Z</time>
      </trkpt>
      <trkpt lat="48.58367" lon="-1.51062">
        <ele>8.79</ele>
        <time>2021-07-31T13:27:50Z</time>
      </trkpt>
      <trkpt lat="48.58369" lon="-1.51074">
        <ele>8.31</ele>
        <time>2021-07-31T13:27:51Z</time>
      </trkpt>
      <trkpt lat="48.58371" lon="-1.51086">
        <ele>8.31</ele>
        <time>2021-07-31T13:27:52Z</time>
      </trkpt>
      <trkpt lat="48.5838" lon="-1.51132">
        <ele>9.27</ele>
        <time>2021-07-31T13:27:59Z</time>
      </trkpt>
      <trkpt lat="48.58381" lon="-1.51136">
        <ele>8.79</ele>
        <time>2021-07-31T13:28:16Z</time>
      </trkpt>
      <trkpt lat="48.58382" lon="-1.51142">
        <ele>8.79</ele>
        <time>2021-07-31T13:28:26Z</time>
      </trkpt>
      <trkpt lat="48.58382" lon="-1.51144">
        <ele>8.79</ele>
        <time>2021-07-31T13:28:27Z</time>
      </trkpt>
      <trkpt lat="48.58382" lon="-1.51144">
        <ele>8.79</ele>
        <time>2021-07-31T13:28:28Z</time>
      </trkpt>
      <trkpt lat="48.58379" lon="-1.51144">
        <ele>8.79</ele>
        <time>2021-07-31T13:28:29Z</time>
      </trkpt>
      <trkpt lat="48.58375" lon="-1.51145">
        <ele>8.79</ele>
        <time>2021-07-31T13:28:30Z</time>
      </trkpt>
      <trkpt lat="48.5837" lon="-1.51146">
        <ele>8.79</ele>
        <time>2021-07-31T13:28:31Z</time>
      </trkpt>
      <trkpt lat="48.58296" lon="-1.51159">
        <ele>10.23</ele>
        <time>2021-07-31T13:28:40Z</time>
      </trkpt>
      <trkpt lat="48.58148" lon="-1.51184">
        <ele>8.79</ele>
        <time>2021-07-31T13:28:52Z</time>
      </trkpt>
      <trkpt lat="48.57907" lon="-1.51222">
        <ele>9.75</ele>
        <time>2021-07-31T13:29:09Z</time>
      </trkpt>
      <trkpt lat="48.57637" lon="-1.51253">
        <ele>8.31</ele>
        <time>2021-07-31T13:29:27Z</time>
      </trkpt>
      <trkpt lat="48.57211" lon="-1.51267">
        <ele>9.27</ele>
        <time>2021-07-31T13:29:54Z</time>
      </trkpt>
      <trkpt lat="48.56861" lon="-1.51279">
        <ele>9.27</ele>
        <time>2021-07-31T13:30:14Z</time>
      </trkpt>
      <trkpt lat="48.56583" lon="-1.51263">
        <ele>11.19</ele>
        <time>2021-07-31T13:30:29Z</time>
      </trkpt>
      <trkpt lat="48.5647" lon="-1.51205">
        <ele>14.56</ele>
        <time>2021-07-31T13:30:36Z</time>
      </trkpt>
      <trkpt lat="48.56333" lon="-1.5107">
        <ele>18.88</ele>
        <time>2021-07-31T13:30:46Z</time>
      </trkpt>
      <trkpt lat="48.5621" lon="-1.50972">
        <ele>18.4</ele>
        <time>2021-07-31T13:30:55Z</time>
      </trkpt>
      <trkpt lat="48.56077" lon="-1.50941">
        <ele>10.71</ele>
        <time>2021-07-31T13:31:04Z</time>
      </trkpt>
      <trkpt lat="48.55907" lon="-1.50929">
        <ele>12.15</ele>
        <time>2021-07-31T13:31:18Z</time>
      </trkpt>
      <trkpt lat="48.55808" lon="-1.50928">
        <ele>11.67</ele>
        <time>2021-07-31T13:31:30Z</time>
      </trkpt>
      <trkpt lat="48.55751" lon="-1.50936">
        <ele>12.63</ele>
        <time>2021-07-31T13:31:42Z</time>
      </trkpt>
      <trkpt lat="48.55748" lon="-1.50938">
        <ele>12.63</ele>
        <time>2021-07-31T13:31:43Z</time>
      </trkpt>
      <trkpt lat="48.55744" lon="-1.50943">
        <ele>12.63</ele>
        <time>2021-07-31T13:31:44Z</time>
      </trkpt>
      <trkpt lat="48.55708" lon="-1.51029">
        <ele>11.67</ele>
        <time>2021-07-31T13:31:53Z</time>
      </trkpt>
      <trkpt lat="48.55618" lon="-1.5114">
        <ele>11.67</ele>
        <time>2021-07-31T13:32:04Z</time>
      </trkpt>
      <trkpt lat="48.55493" lon="-1.51234">
        <ele>11.19</ele>
        <time>2021-07-31T13:32:19Z</time>
      </trkpt>
      <trkpt lat="48.55388" lon="-1.5126">
        <ele>11.67</ele>
        <time>2021-07-31T13:32:32Z</time>
      </trkpt>
      <trkpt lat="48.55309" lon="-1.51277">
        <ele>12.15</ele>
        <time>2021-07-31T13:32:43Z</time>
      </trkpt>
      <trkpt lat="48.55291" lon="-1.51288">
        <ele>11.67</ele>
        <time>2021-07-31T13:32:49Z</time>
      </trkpt>
      <trkpt lat="48.55283" lon="-1.51293">
        <ele>12.15</ele>
        <time>2021-07-31T13:32:57Z</time>
      </trkpt>
      <trkpt lat="48.55267" lon="-1.51314">
        <ele>12.15</ele>
        <time>2021-07-31T13:33:01Z</time>
      </trkpt>
      <trkpt lat="48.55267" lon="-1.51314">
        <ele>12.15</ele>
        <time>2021-07-31T13:33:02Z</time>
      </trkpt>
      <trkpt lat="48.55266" lon="-1.51322">
        <ele>12.15</ele>
        <time>2021-07-31T13:33:03Z</time>
      </trkpt>
      <trkpt lat="48.55265" lon="-1.5133">
        <ele>12.15</ele>
        <time>2021-07-31T13:33:04Z</time>
      </trkpt>
      <trkpt lat="48.55264" lon="-1.51339">
        <ele>12.15</ele>
        <time>2021-07-31T13:33:05Z</time>
      </trkpt>
      <trkpt lat="48.55262" lon="-1.51348">
        <ele>12.15</ele>
        <time>2021-07-31T13:33:06Z</time>
      </trkpt>
      <trkpt lat="48.55244" lon="-1.51493">
        <ele>14.08</ele>
        <time>2021-07-31T13:33:17Z</time>
      </trkpt>
      <trkpt lat="48.55231" lon="-1.51605">
        <ele>14.08</ele>
        <time>2021-07-31T13:33:26Z</time>
      </trkpt>
      <trkpt lat="48.5523" lon="-1.51612">
        <ele>13.6</ele>
        <time>2021-07-31T13:33:27Z</time>
      </trkpt>
      <trkpt lat="48.55234" lon="-1.5162">
        <ele>13.12</ele>
        <time>2021-07-31T13:33:28Z</time>
      </trkpt>
      <trkpt lat="48.55239" lon="-1.51624">
        <ele>12.63</ele>
        <time>2021-07-31T13:33:29Z</time>
      </trkpt>
      <trkpt lat="48.55243" lon="-1.51628">
        <ele>12.63</ele>
        <time>2021-07-31T13:33:30Z</time>
      </trkpt>
      <trkpt lat="48.55309" lon="-1.51693">
        <ele>8.79</ele>
        <time>2021-07-31T13:33:39Z</time>
      </trkpt>
      <trkpt lat="48.55386" lon="-1.51772">
        <ele>8.79</ele>
        <time>2021-07-31T13:33:46Z</time>
      </trkpt>
      <trkpt lat="48.55397" lon="-1.51785">
        <ele>8.79</ele>
        <time>2021-07-31T13:33:47Z</time>
      </trkpt>
      <trkpt lat="48.55406" lon="-1.51802">
        <ele>8.31</ele>
        <time>2021-07-31T13:33:48Z</time>
      </trkpt>
      <trkpt lat="48.55415" lon="-1.5182">
        <ele>9.27</ele>
        <time>2021-07-31T13:33:49Z</time>
      </trkpt>
      <trkpt lat="48.55424" lon="-1.51837">
        <ele>8.79</ele>
        <time>2021-07-31T13:33:50Z</time>
      </trkpt>
      <trkpt lat="48.55505" lon="-1.52068">
        <ele>10.23</ele>
        <time>2021-07-31T13:34:02Z</time>
      </trkpt>
      <trkpt lat="48.55573" lon="-1.52242">
        <ele>10.71</ele>
        <time>2021-07-31T13:34:12Z</time>
      </trkpt>
      <trkpt lat="48.55629" lon="-1.52413">
        <ele>12.15</ele>
        <time>2021-07-31T13:34:21Z</time>
      </trkpt>
      <trkpt lat="48.55665" lon="-1.52597">
        <ele>10.71</ele>
        <time>2021-07-31T13:34:30Z</time>
      </trkpt>
      <trkpt lat="48.55746" lon="-1.52748">
        <ele>11.19</ele>
        <time>2021-07-31T13:34:39Z</time>
      </trkpt>
      <trkpt lat="48.55913" lon="-1.52906">
        <ele>11.67</ele>
        <time>2021-07-31T13:34:52Z</time>
      </trkpt>
      <trkpt lat="48.56029" lon="-1.53028">
        <ele>12.63</ele>
        <time>2021-07-31T13:35:04Z</time>
      </trkpt>
      <trkpt lat="48.56036" lon="-1.53036">
        <ele>13.6</ele>
        <time>2021-07-31T13:35:05Z</time>
      </trkpt>
      <trkpt lat="48.56041" lon="-1.53044">
        <ele>14.56</ele>
        <time>2021-07-31T13:35:06Z</time>
      </trkpt>
      <trkpt lat="48.56067" lon="-1.53048">
        <ele>13.6</ele>
        <time>2021-07-31T13:35:09Z</time>
      </trkpt>
      <trkpt lat="48.56077" lon="-1.53061">
        <ele>13.6</ele>
        <time>2021-07-31T13:35:10Z</time>
      </trkpt>
      <trkpt lat="48.56077" lon="-1.53061">
        <ele>14.08</ele>
        <time>2021-07-31T13:35:11Z</time>
      </trkpt>
      <trkpt lat="48.56079" lon="-1.5307">
        <ele>14.08</ele>
        <time>2021-07-31T13:35:12Z</time>
      </trkpt>
      <trkpt lat="48.56079" lon="-1.53075">
        <ele>14.56</ele>
        <time>2021-07-31T13:35:13Z</time>
      </trkpt>
      <trkpt lat="48.56079" lon="-1.53075">
        <ele>15.04</ele>
        <time>2021-07-31T13:35:14Z</time>
      </trkpt>
      <trkpt lat="48.56085" lon="-1.53105">
        <ele>15.04</ele>
        <time>2021-07-31T13:35:15Z</time>
      </trkpt>
      <trkpt lat="48.56154" lon="-1.5321">
        <ele>16</ele>
        <time>2021-07-31T13:35:25Z</time>
      </trkpt>
      <trkpt lat="48.5622" lon="-1.53306">
        <ele>15.52</ele>
        <time>2021-07-31T13:35:34Z</time>
      </trkpt>
      <trkpt lat="48.56224" lon="-1.53313">
        <ele>15.52</ele>
        <time>2021-07-31T13:35:35Z</time>
      </trkpt>
      <trkpt lat="48.56231" lon="-1.53324">
        <ele>15.04</ele>
        <time>2021-07-31T13:35:36Z</time>
      </trkpt>
      <trkpt lat="48.56241" lon="-1.53324">
        <ele>15.04</ele>
        <time>2021-07-31T13:35:37Z</time>
      </trkpt>
      <trkpt lat="48.56248" lon="-1.5332">
        <ele>15.04</ele>
        <time>2021-07-31T13:35:39Z</time>
      </trkpt>
      <trkpt lat="48.56255" lon="-1.53324">
        <ele>15.04</ele>
        <time>2021-07-31T13:35:40Z</time>
      </trkpt>
      <trkpt lat="48.56261" lon="-1.53327">
        <ele>15.04</ele>
        <time>2021-07-31T13:35:41Z</time>
      </trkpt>
      <trkpt lat="48.56265" lon="-1.5334">
        <ele>15.52</ele>
        <time>2021-07-31T13:35:42Z</time>
      </trkpt>
      <trkpt lat="48.56266" lon="-1.53351">
        <ele>15.52</ele>
        <time>2021-07-31T13:35:43Z</time>
      </trkpt>
      <trkpt lat="48.56266" lon="-1.53358">
        <ele>15.52</ele>
        <time>2021-07-31T13:35:44Z</time>
      </trkpt>
      <trkpt lat="48.56257" lon="-1.5337">
        <ele>15.52</ele>
        <time>2021-07-31T13:35:45Z</time>
      </trkpt>
      <trkpt lat="48.56257" lon="-1.5337">
        <ele>15.04</ele>
        <time>2021-07-31T13:35:46Z</time>
      </trkpt>
      <trkpt lat="48.56254" lon="-1.53374">
        <ele>14.56</ele>
        <time>2021-07-31T13:35:47Z</time>
      </trkpt>
      <trkpt lat="48.56249" lon="-1.53375">
        <ele>14.08</ele>
        <time>2021-07-31T13:35:48Z</time>
      </trkpt>
      <trkpt lat="48.56244" lon="-1.53373">
        <ele>14.08</ele>
        <time>2021-07-31T13:35:49Z</time>
      </trkpt>
      <trkpt lat="48.5623" lon="-1.53368">
        <ele>14.08</ele>
        <time>2021-07-31T13:35:52Z</time>
      </trkpt>
      <trkpt lat="48.56216" lon="-1.53373">
        <ele>13.6</ele>
        <time>2021-07-31T13:35:53Z</time>
      </trkpt>
      <trkpt lat="48.56207" lon="-1.53376">
        <ele>12.63</ele>
        <time>2021-07-31T13:35:54Z</time>
      </trkpt>
      <trkpt lat="48.56197" lon="-1.5338">
        <ele>10.23</ele>
        <time>2021-07-31T13:35:55Z</time>
      </trkpt>
      <trkpt lat="48.56189" lon="-1.53392">
        <ele>9.75</ele>
        <time>2021-07-31T13:35:56Z</time>
      </trkpt>
      <trkpt lat="48.56181" lon="-1.53405">
        <ele>8.79</ele>
        <time>2021-07-31T13:35:57Z</time>
      </trkpt>
      <trkpt lat="48.56176" lon="-1.53419">
        <ele>8.79</ele>
        <time>2021-07-31T13:35:58Z</time>
      </trkpt>
      <trkpt lat="48.56173" lon="-1.53434">
        <ele>8.79</ele>
        <time>2021-07-31T13:35:59Z</time>
      </trkpt>
      <trkpt lat="48.56172" lon="-1.53451">
        <ele>9.75</ele>
        <time>2021-07-31T13:36:00Z</time>
      </trkpt>
      <trkpt lat="48.56171" lon="-1.53469">
        <ele>10.71</ele>
        <time>2021-07-31T13:36:01Z</time>
      </trkpt>
      <trkpt lat="48.56172" lon="-1.53688">
        <ele>14.56</ele>
        <time>2021-07-31T13:36:12Z</time>
      </trkpt>
      <trkpt lat="48.56194" lon="-1.54045">
        <ele>16</ele>
        <time>2021-07-31T13:36:26Z</time>
      </trkpt>
      <trkpt lat="48.56223" lon="-1.54403">
        <ele>16</ele>
        <time>2021-07-31T13:36:39Z</time>
      </trkpt>
      <trkpt lat="48.5629" lon="-1.54941">
        <ele>20.32</ele>
        <time>2021-07-31T13:36:57Z</time>
      </trkpt>
      <trkpt lat="48.56378" lon="-1.55487">
        <ele>28.02</ele>
        <time>2021-07-31T13:37:16Z</time>
      </trkpt>
      <trkpt lat="48.56459" lon="-1.55887">
        <ele>32.34</ele>
        <time>2021-07-31T13:37:29Z</time>
      </trkpt>
      <trkpt lat="48.56569" lon="-1.56443">
        <ele>42.92</ele>
        <time>2021-07-31T13:37:45Z</time>
      </trkpt>
      <trkpt lat="48.56644" lon="-1.56939">
        <ele>65.51</ele>
        <time>2021-07-31T13:37:59Z</time>
      </trkpt>
      <trkpt lat="48.56687" lon="-1.57453">
        <ele>77.04</ele>
        <time>2021-07-31T13:38:14Z</time>
      </trkpt>
      <trkpt lat="48.56696" lon="-1.5806">
        <ele>73.68</ele>
        <time>2021-07-31T13:38:30Z</time>
      </trkpt>
      <trkpt lat="48.56678" lon="-1.58463">
        <ele>72.24</ele>
        <time>2021-07-31T13:38:42Z</time>
      </trkpt>
      <trkpt lat="48.56632" lon="-1.59066">
        <ele>72.24</ele>
        <time>2021-07-31T13:38:59Z</time>
      </trkpt>
      <trkpt lat="48.56571" lon="-1.59805">
        <ele>70.31</ele>
        <time>2021-07-31T13:39:20Z</time>
      </trkpt>
      <trkpt lat="48.56512" lon="-1.60533">
        <ele>80.41</ele>
        <time>2021-07-31T13:39:41Z</time>
      </trkpt>
      <trkpt lat="48.56439" lon="-1.61222">
        <ele>87.62</ele>
        <time>2021-07-31T13:40:01Z</time>
      </trkpt>
      <trkpt lat="48.56331" lon="-1.61934">
        <ele>91.94</ele>
        <time>2021-07-31T13:40:21Z</time>
      </trkpt>
      <trkpt lat="48.56297" lon="-1.624">
        <ele>97.23</ele>
        <time>2021-07-31T13:40:34Z</time>
      </trkpt>
      <trkpt lat="48.56306" lon="-1.62861">
        <ele>97.23</ele>
        <time>2021-07-31T13:40:47Z</time>
      </trkpt>
      <trkpt lat="48.5636" lon="-1.63512">
        <ele>92.9</ele>
        <time>2021-07-31T13:41:05Z</time>
      </trkpt>
      <trkpt lat="48.56369" lon="-1.64029">
        <ele>91.94</ele>
        <time>2021-07-31T13:41:19Z</time>
      </trkpt>
      <trkpt lat="48.56369" lon="-1.65029">
        <ele>87.14</ele>
        <time>2021-07-31T13:41:46Z</time>
      </trkpt>
      <trkpt lat="48.56368" lon="-1.65867">
        <ele>86.66</ele>
        <time>2021-07-31T13:42:09Z</time>
      </trkpt>
      <trkpt lat="48.56353" lon="-1.66527">
        <ele>78.97</ele>
        <time>2021-07-31T13:42:27Z</time>
      </trkpt>
      <trkpt lat="48.56308" lon="-1.67202">
        <ele>68.87</ele>
        <time>2021-07-31T13:42:45Z</time>
      </trkpt>
      <trkpt lat="48.56236" lon="-1.67877">
        <ele>72.72</ele>
        <time>2021-07-31T13:43:04Z</time>
      </trkpt>
      <trkpt lat="48.56128" lon="-1.68559">
        <ele>68.39</ele>
        <time>2021-07-31T13:43:22Z</time>
      </trkpt>
      <trkpt lat="48.5599" lon="-1.69245">
        <ele>58.3</ele>
        <time>2021-07-31T13:43:42Z</time>
      </trkpt>
      <trkpt lat="48.55841" lon="-1.69971">
        <ele>49.65</ele>
        <time>2021-07-31T13:44:02Z</time>
      </trkpt>
      <trkpt lat="48.55718" lon="-1.70633">
        <ele>42.92</ele>
        <time>2021-07-31T13:44:20Z</time>
      </trkpt>
      <trkpt lat="48.55615" lon="-1.71367">
        <ele>36.19</ele>
        <time>2021-07-31T13:44:40Z</time>
      </trkpt>
      <trkpt lat="48.55564" lon="-1.71941">
        <ele>30.42</ele>
        <time>2021-07-31T13:44:56Z</time>
      </trkpt>
      <trkpt lat="48.55537" lon="-1.72523">
        <ele>23.21</ele>
        <time>2021-07-31T13:45:12Z</time>
      </trkpt>
      <trkpt lat="48.55515" lon="-1.73147">
        <ele>13.12</ele>
        <time>2021-07-31T13:45:29Z</time>
      </trkpt>
      <trkpt lat="48.55498" lon="-1.73628">
        <ele>9.75</ele>
        <time>2021-07-31T13:45:42Z</time>
      </trkpt>
      <trkpt lat="48.5548" lon="-1.74181">
        <ele>7.35</ele>
        <time>2021-07-31T13:45:58Z</time>
      </trkpt>
      <trkpt lat="48.55448" lon="-1.74923">
        <ele>3.5</ele>
        <time>2021-07-31T13:46:19Z</time>
      </trkpt>
      <trkpt lat="48.55403" lon="-1.75403">
        <ele>7.35</ele>
        <time>2021-07-31T13:46:33Z</time>
      </trkpt>
      <trkpt lat="48.55332" lon="-1.75924">
        <ele>11.19</ele>
        <time>2021-07-31T13:46:49Z</time>
      </trkpt>
      <trkpt lat="48.55239" lon="-1.76445">
        <ele>9.75</ele>
        <time>2021-07-31T13:47:04Z</time>
      </trkpt>
      <trkpt lat="48.55097" lon="-1.77232">
        <ele>5.91</ele>
        <time>2021-07-31T13:47:26Z</time>
      </trkpt>
      <trkpt lat="48.54983" lon="-1.77942">
        <ele>4.94</ele>
        <time>2021-07-31T13:47:46Z</time>
      </trkpt>
      <trkpt lat="48.54897" lon="-1.78731">
        <ele>6.87</ele>
        <time>2021-07-31T13:48:08Z</time>
      </trkpt>
      <trkpt lat="48.54849" lon="-1.79465">
        <ele>7.35</ele>
        <time>2021-07-31T13:48:28Z</time>
      </trkpt>
      <trkpt lat="48.54808" lon="-1.8061">
        <ele>6.39</ele>
        <time>2021-07-31T13:48:59Z</time>
      </trkpt>
      <trkpt lat="48.54787" lon="-1.81262">
        <ele>11.19</ele>
        <time>2021-07-31T13:49:17Z</time>
      </trkpt>
      <trkpt lat="48.54761" lon="-1.82051">
        <ele>16</ele>
        <time>2021-07-31T13:49:38Z</time>
      </trkpt>
      <trkpt lat="48.54737" lon="-1.82764">
        <ele>14.08</ele>
        <time>2021-07-31T13:49:59Z</time>
      </trkpt>
      <trkpt lat="48.54716" lon="-1.83364">
        <ele>7.35</ele>
        <time>2021-07-31T13:50:15Z</time>
      </trkpt>
      <trkpt lat="48.5466" lon="-1.84116">
        <ele>1.58</ele>
        <time>2021-07-31T13:50:35Z</time>
      </trkpt>
      <trkpt lat="48.54592" lon="-1.84763">
        <ele>3.98</ele>
        <time>2021-07-31T13:50:53Z</time>
      </trkpt>
      <trkpt lat="48.54518" lon="-1.85424">
        <ele>9.27</ele>
        <time>2021-07-31T13:51:12Z</time>
      </trkpt>
      <trkpt lat="48.54459" lon="-1.85946">
        <ele>10.71</ele>
        <time>2021-07-31T13:51:29Z</time>
      </trkpt>
      <trkpt lat="48.54408" lon="-1.86527">
        <ele>6.39</ele>
        <time>2021-07-31T13:51:45Z</time>
      </trkpt>
      <trkpt lat="48.54375" lon="-1.87146">
        <ele>11.19</ele>
        <time>2021-07-31T13:52:02Z</time>
      </trkpt>
      <trkpt lat="48.54355" lon="-1.87673">
        <ele>14.56</ele>
        <time>2021-07-31T13:52:17Z</time>
      </trkpt>
      <trkpt lat="48.54353" lon="-1.88705">
        <ele>20.32</ele>
        <time>2021-07-31T13:52:45Z</time>
      </trkpt>
      <trkpt lat="48.54354" lon="-1.89014">
        <ele>20.81</ele>
        <time>2021-07-31T13:52:54Z</time>
      </trkpt>
      <trkpt lat="48.54354" lon="-1.89108">
        <ele>22.25</ele>
        <time>2021-07-31T13:52:59Z</time>
      </trkpt>
      <trkpt lat="48.54358" lon="-1.89235">
        <ele>23.69</ele>
        <time>2021-07-31T13:53:15Z</time>
      </trkpt>
      <trkpt lat="48.54361" lon="-1.89329">
        <ele>23.69</ele>
        <time>2021-07-31T13:53:26Z</time>
      </trkpt>
      <trkpt lat="48.54362" lon="-1.89335">
        <ele>23.69</ele>
        <time>2021-07-31T13:53:37Z</time>
      </trkpt>
      <trkpt lat="48.54363" lon="-1.89379">
        <ele>23.69</ele>
        <time>2021-07-31T13:54:10Z</time>
      </trkpt>
      <trkpt lat="48.54366" lon="-1.89466">
        <ele>23.69</ele>
        <time>2021-07-31T13:54:24Z</time>
      </trkpt>
      <trkpt lat="48.54368" lon="-1.89535">
        <ele>23.21</ele>
        <time>2021-07-31T13:54:39Z</time>
      </trkpt>
      <trkpt lat="48.5437" lon="-1.89577">
        <ele>22.73</ele>
        <time>2021-07-31T13:55:17Z</time>
      </trkpt>
      <trkpt lat="48.54372" lon="-1.89638">
        <ele>22.25</ele>
        <time>2021-07-31T13:55:36Z</time>
      </trkpt>
      <trkpt lat="48.54373" lon="-1.8967">
        <ele>22.25</ele>
        <time>2021-07-31T13:56:01Z</time>
      </trkpt>
      <trkpt lat="48.54376" lon="-1.89754">
        <ele>21.29</ele>
        <time>2021-07-31T13:56:23Z</time>
      </trkpt>
      <trkpt lat="48.54378" lon="-1.89811">
        <ele>20.81</ele>
        <time>2021-07-31T13:56:36Z</time>
      </trkpt>
      <trkpt lat="48.5438" lon="-1.89855">
        <ele>20.32</ele>
        <time>2021-07-31T13:56:53Z</time>
      </trkpt>
      <trkpt lat="48.54381" lon="-1.89876">
        <ele>20.32</ele>
        <time>2021-07-31T13:57:34Z</time>
      </trkpt>
      <trkpt lat="48.54382" lon="-1.89888">
        <ele>20.32</ele>
        <time>2021-07-31T13:58:13Z</time>
      </trkpt>
      <trkpt lat="48.54382" lon="-1.89888">
        <ele>20.32</ele>
        <time>2021-07-31T13:58:39Z</time>
      </trkpt>
      <trkpt lat="48.54383" lon="-1.89916">
        <ele>19.84</ele>
        <time>2021-07-31T13:58:58Z</time>
      </trkpt>
      <trkpt lat="48.54385" lon="-1.89941">
        <ele>19.84</ele>
        <time>2021-07-31T13:59:14Z</time>
      </trkpt>
      <trkpt lat="48.54386" lon="-1.89952">
        <ele>19.36</ele>
        <time>2021-07-31T13:59:43Z</time>
      </trkpt>
      <trkpt lat="48.54389" lon="-1.90009">
        <ele>18.88</ele>
        <time>2021-07-31T14:00:01Z</time>
      </trkpt>
      <trkpt lat="48.5439" lon="-1.90035">
        <ele>18.4</ele>
        <time>2021-07-31T14:00:19Z</time>
      </trkpt>
      <trkpt lat="48.54392" lon="-1.90058">
        <ele>18.4</ele>
        <time>2021-07-31T14:00:54Z</time>
      </trkpt>
      <trkpt lat="48.54392" lon="-1.90068">
        <ele>18.4</ele>
        <time>2021-07-31T14:01:15Z</time>
      </trkpt>
      <trkpt lat="48.54396" lon="-1.90135">
        <ele>17.44</ele>
        <time>2021-07-31T14:01:42Z</time>
      </trkpt>
      <trkpt lat="48.54398" lon="-1.90165">
        <ele>17.44</ele>
        <time>2021-07-31T14:02:15Z</time>
      </trkpt>
      <trkpt lat="48.54399" lon="-1.90179">
        <ele>17.44</ele>
        <time>2021-07-31T14:02:34Z</time>
      </trkpt>
      <trkpt lat="48.54399" lon="-1.90179">
        <ele>17.44</ele>
        <time>2021-07-31T14:03:39Z</time>
      </trkpt>
      <trkpt lat="48.544" lon="-1.90197">
        <ele>16.96</ele>
        <time>2021-07-31T14:04:21Z</time>
      </trkpt>
      <trkpt lat="48.544" lon="-1.90197">
        <ele>16.96</ele>
        <time>2021-07-31T14:05:51Z</time>
      </trkpt>
      <trkpt lat="48.54401" lon="-1.90218">
        <ele>16.96</ele>
        <time>2021-07-31T14:06:16Z</time>
      </trkpt>
      <trkpt lat="48.54402" lon="-1.90223">
        <ele>16.48</ele>
        <time>2021-07-31T14:06:35Z</time>
      </trkpt>
      <trkpt lat="48.54402" lon="-1.90231">
        <ele>16.48</ele>
        <time>2021-07-31T14:06:55Z</time>
      </trkpt>
      <trkpt lat="48.54404" lon="-1.90257">
        <ele>16.48</ele>
        <time>2021-07-31T14:07:08Z</time>
      </trkpt>
      <trkpt lat="48.54406" lon="-1.90284">
        <ele>16</ele>
        <time>2021-07-31T14:07:23Z</time>
      </trkpt>
      <trkpt lat="48.54408" lon="-1.90322">
        <ele>15.52</ele>
        <time>2021-07-31T14:07:37Z</time>
      </trkpt>
      <trkpt lat="48.5441" lon="-1.90358">
        <ele>15.04</ele>
        <time>2021-07-31T14:07:52Z</time>
      </trkpt>
      <trkpt lat="48.54414" lon="-1.9042">
        <ele>14.56</ele>
        <time>2021-07-31T14:08:10Z</time>
      </trkpt>
      <trkpt lat="48.54419" lon="-1.90496">
        <ele>13.6</ele>
        <time>2021-07-31T14:08:29Z</time>
      </trkpt>
      <trkpt lat="48.54423" lon="-1.90556">
        <ele>12.63</ele>
        <time>2021-07-31T14:08:45Z</time>
      </trkpt>
      <trkpt lat="48.54427" lon="-1.90618">
        <ele>12.15</ele>
        <time>2021-07-31T14:09:02Z</time>
      </trkpt>
      <trkpt lat="48.54431" lon="-1.9068">
        <ele>11.67</ele>
        <time>2021-07-31T14:09:23Z</time>
      </trkpt>
      <trkpt lat="48.54436" lon="-1.90761">
        <ele>11.67</ele>
        <time>2021-07-31T14:09:40Z</time>
      </trkpt>
      <trkpt lat="48.5444" lon="-1.90817">
        <ele>11.19</ele>
        <time>2021-07-31T14:09:55Z</time>
      </trkpt>
      <trkpt lat="48.54444" lon="-1.90885">
        <ele>10.71</ele>
        <time>2021-07-31T14:10:09Z</time>
      </trkpt>
      <trkpt lat="48.54451" lon="-1.90999">
        <ele>11.19</ele>
        <time>2021-07-31T14:10:27Z</time>
      </trkpt>
      <trkpt lat="48.54456" lon="-1.91075">
        <ele>11.67</ele>
        <time>2021-07-31T14:10:43Z</time>
      </trkpt>
      <trkpt lat="48.54466" lon="-1.91309">
        <ele>13.6</ele>
        <time>2021-07-31T14:11:08Z</time>
      </trkpt>
      <trkpt lat="48.54469" lon="-1.91483">
        <ele>15.04</ele>
        <time>2021-07-31T14:11:23Z</time>
      </trkpt>
      <trkpt lat="48.54472" lon="-1.91685">
        <ele>17.92</ele>
        <time>2021-07-31T14:11:33Z</time>
      </trkpt>
      <trkpt lat="48.54492" lon="-1.91936">
        <ele>20.32</ele>
        <time>2021-07-31T14:11:45Z</time>
      </trkpt>
      <trkpt lat="48.54545" lon="-1.92078">
        <ele>18.4</ele>
        <time>2021-07-31T14:11:52Z</time>
      </trkpt>
      <trkpt lat="48.54664" lon="-1.92285">
        <ele>20.81</ele>
        <time>2021-07-31T14:12:03Z</time>
      </trkpt>
      <trkpt lat="48.54678" lon="-1.92299">
        <ele>21.29</ele>
        <time>2021-07-31T14:12:04Z</time>
      </trkpt>
      <trkpt lat="48.54691" lon="-1.92312">
        <ele>21.77</ele>
        <time>2021-07-31T14:12:05Z</time>
      </trkpt>
      <trkpt lat="48.54707" lon="-1.92323">
        <ele>21.77</ele>
        <time>2021-07-31T14:12:06Z</time>
      </trkpt>
      <trkpt lat="48.54723" lon="-1.92333">
        <ele>22.25</ele>
        <time>2021-07-31T14:12:07Z</time>
      </trkpt>
      <trkpt lat="48.54943" lon="-1.92444">
        <ele>21.77</ele>
        <time>2021-07-31T14:12:18Z</time>
      </trkpt>
      <trkpt lat="48.55199" lon="-1.92566">
        <ele>16.96</ele>
        <time>2021-07-31T14:12:30Z</time>
      </trkpt>
      <trkpt lat="48.55384" lon="-1.92692">
        <ele>12.63</ele>
        <time>2021-07-31T14:12:40Z</time>
      </trkpt>
      <trkpt lat="48.55646" lon="-1.92873">
        <ele>9.75</ele>
        <time>2021-07-31T14:12:54Z</time>
      </trkpt>
      <trkpt lat="48.55799" lon="-1.9289">
        <ele>5.91</ele>
        <time>2021-07-31T14:13:01Z</time>
      </trkpt>
      <trkpt lat="48.55943" lon="-1.9283">
        <ele>7.35</ele>
        <time>2021-07-31T14:13:08Z</time>
      </trkpt>
      <trkpt lat="48.56235" lon="-1.92598">
        <ele>11.19</ele>
        <time>2021-07-31T14:13:24Z</time>
      </trkpt>
      <trkpt lat="48.5638" lon="-1.92529">
        <ele>11.19</ele>
        <time>2021-07-31T14:13:31Z</time>
      </trkpt>
      <trkpt lat="48.56529" lon="-1.92544">
        <ele>10.23</ele>
        <time>2021-07-31T14:13:38Z</time>
      </trkpt>
      <trkpt lat="48.56645" lon="-1.92625">
        <ele>14.56</ele>
        <time>2021-07-31T14:13:44Z</time>
      </trkpt>
      <trkpt lat="48.56751" lon="-1.92774">
        <ele>18.4</ele>
        <time>2021-07-31T14:13:51Z</time>
      </trkpt>
      <trkpt lat="48.56925" lon="-1.93065">
        <ele>16.48</ele>
        <time>2021-07-31T14:14:02Z</time>
      </trkpt>
      <trkpt lat="48.57119" lon="-1.93324">
        <ele>8.79</ele>
        <time>2021-07-31T14:14:14Z</time>
      </trkpt>
      <trkpt lat="48.57327" lon="-1.93705">
        <ele>12.63</ele>
        <time>2021-07-31T14:14:27Z</time>
      </trkpt>
      <trkpt lat="48.57495" lon="-1.94024">
        <ele>30.9</ele>
        <time>2021-07-31T14:14:41Z</time>
      </trkpt>
      <trkpt lat="48.57667" lon="-1.94351">
        <ele>40.03</ele>
        <time>2021-07-31T14:14:55Z</time>
      </trkpt>
      <trkpt lat="48.57877" lon="-1.94736">
        <ele>40.51</ele>
        <time>2021-07-31T14:15:10Z</time>
      </trkpt>
      <trkpt lat="48.58025" lon="-1.94918">
        <ele>31.38</ele>
        <time>2021-07-31T14:15:18Z</time>
      </trkpt>
      <trkpt lat="48.58207" lon="-1.95046">
        <ele>28.02</ele>
        <time>2021-07-31T14:15:26Z</time>
      </trkpt>
      <trkpt lat="48.5839" lon="-1.95161">
        <ele>39.55</ele>
        <time>2021-07-31T14:15:35Z</time>
      </trkpt>
      <trkpt lat="48.58661" lon="-1.9534">
        <ele>43.88</ele>
        <time>2021-07-31T14:15:50Z</time>
      </trkpt>
      <trkpt lat="48.58828" lon="-1.95513">
        <ele>37.15</ele>
        <time>2021-07-31T14:15:59Z</time>
      </trkpt>
      <trkpt lat="48.59078" lon="-1.95821">
        <ele>22.25</ele>
        <time>2021-07-31T14:16:11Z</time>
      </trkpt>
      <trkpt lat="48.59417" lon="-1.96224">
        <ele>16</ele>
        <time>2021-07-31T14:16:27Z</time>
      </trkpt>
      <trkpt lat="48.59683" lon="-1.96484">
        <ele>27.53</ele>
        <time>2021-07-31T14:16:39Z</time>
      </trkpt>
      <trkpt lat="48.60055" lon="-1.96867">
        <ele>28.5</ele>
        <time>2021-07-31T14:16:59Z</time>
      </trkpt>
      <trkpt lat="48.60352" lon="-1.97242">
        <ele>33.78</ele>
        <time>2021-07-31T14:17:16Z</time>
      </trkpt>
      <trkpt lat="48.60685" lon="-1.97685">
        <ele>48.2</ele>
        <time>2021-07-31T14:17:37Z</time>
      </trkpt>
      <trkpt lat="48.60903" lon="-1.97922">
        <ele>53.01</ele>
        <time>2021-07-31T14:17:50Z</time>
      </trkpt>
      <trkpt lat="48.61184" lon="-1.98144">
        <ele>42.44</ele>
        <time>2021-07-31T14:18:05Z</time>
      </trkpt>
      <trkpt lat="48.61498" lon="-1.98375">
        <ele>28.98</ele>
        <time>2021-07-31T14:18:25Z</time>
      </trkpt>
      <trkpt lat="48.61808" lon="-1.98605">
        <ele>28.02</ele>
        <time>2021-07-31T14:18:42Z</time>
      </trkpt>
      <trkpt lat="48.61963" lon="-1.98754">
        <ele>28.98</ele>
        <time>2021-07-31T14:18:51Z</time>
      </trkpt>
      <trkpt lat="48.62077" lon="-1.989">
        <ele>27.53</ele>
        <time>2021-07-31T14:19:00Z</time>
      </trkpt>
      <trkpt lat="48.62077" lon="-1.989">
        <ele>27.05</ele>
        <time>2021-07-31T14:19:01Z</time>
      </trkpt>
      <trkpt lat="48.62106" lon="-1.98916">
        <ele>26.09</ele>
        <time>2021-07-31T14:19:02Z</time>
      </trkpt>
      <trkpt lat="48.62106" lon="-1.98916">
        <ele>26.09</ele>
        <time>2021-07-31T14:19:03Z</time>
      </trkpt>
      <trkpt lat="48.62139" lon="-1.98921">
        <ele>27.05</ele>
        <time>2021-07-31T14:19:04Z</time>
      </trkpt>
      <trkpt lat="48.62139" lon="-1.98921">
        <ele>28.02</ele>
        <time>2021-07-31T14:19:05Z</time>
      </trkpt>
      <trkpt lat="48.6217" lon="-1.98913">
        <ele>28.98</ele>
        <time>2021-07-31T14:19:06Z</time>
      </trkpt>
      <trkpt lat="48.62186" lon="-1.98909">
        <ele>29.94</ele>
        <time>2021-07-31T14:19:07Z</time>
      </trkpt>
      <trkpt lat="48.6231" lon="-1.98877">
        <ele>32.34</ele>
        <time>2021-07-31T14:19:18Z</time>
      </trkpt>
      <trkpt lat="48.62401" lon="-1.98871">
        <ele>31.38</ele>
        <time>2021-07-31T14:19:28Z</time>
      </trkpt>
      <trkpt lat="48.62447" lon="-1.98868">
        <ele>32.82</ele>
        <time>2021-07-31T14:19:40Z</time>
      </trkpt>
      <trkpt lat="48.62479" lon="-1.98866">
        <ele>33.78</ele>
        <time>2021-07-31T14:19:50Z</time>
      </trkpt>
      <trkpt lat="48.62509" lon="-1.98864">
        <ele>35.23</ele>
        <time>2021-07-31T14:20:03Z</time>
      </trkpt>
      <trkpt lat="48.62544" lon="-1.98859">
        <ele>35.71</ele>
        <time>2021-07-31T14:20:16Z</time>
      </trkpt>
      <trkpt lat="48.62554" lon="-1.98855">
        <ele>35.71</ele>
        <time>2021-07-31T14:20:17Z</time>
      </trkpt>
      <trkpt lat="48.62554" lon="-1.98855">
        <ele>36.19</ele>
        <time>2021-07-31T14:20:18Z</time>
      </trkpt>
      <trkpt lat="48.62572" lon="-1.98833">
        <ele>36.67</ele>
        <time>2021-07-31T14:20:21Z</time>
      </trkpt>
      <trkpt lat="48.62578" lon="-1.98827">
        <ele>37.15</ele>
        <time>2021-07-31T14:20:22Z</time>
      </trkpt>
      <trkpt lat="48.62591" lon="-1.98816">
        <ele>37.15</ele>
        <time>2021-07-31T14:20:23Z</time>
      </trkpt>
      <trkpt lat="48.62591" lon="-1.98816">
        <ele>37.63</ele>
        <time>2021-07-31T14:20:24Z</time>
      </trkpt>
      <trkpt lat="48.62606" lon="-1.98816">
        <ele>37.63</ele>
        <time>2021-07-31T14:20:25Z</time>
      </trkpt>
      <trkpt lat="48.62606" lon="-1.98816">
        <ele>38.11</ele>
        <time>2021-07-31T14:20:26Z</time>
      </trkpt>
      <trkpt lat="48.62614" lon="-1.98816">
        <ele>38.11</ele>
        <time>2021-07-31T14:20:27Z</time>
      </trkpt>
      <trkpt lat="48.62629" lon="-1.98826">
        <ele>38.11</ele>
        <time>2021-07-31T14:20:28Z</time>
      </trkpt>
      <trkpt lat="48.62629" lon="-1.98826">
        <ele>37.63</ele>
        <time>2021-07-31T14:20:29Z</time>
      </trkpt>
      <trkpt lat="48.62636" lon="-1.98836">
        <ele>37.15</ele>
        <time>2021-07-31T14:20:30Z</time>
      </trkpt>
      <trkpt lat="48.62642" lon="-1.98848">
        <ele>36.67</ele>
        <time>2021-07-31T14:20:31Z</time>
      </trkpt>
      <trkpt lat="48.62655" lon="-1.98861">
        <ele>37.15</ele>
        <time>2021-07-31T14:20:32Z</time>
      </trkpt>
      <trkpt lat="48.62655" lon="-1.98861">
        <ele>37.15</ele>
        <time>2021-07-31T14:20:33Z</time>
      </trkpt>
      <trkpt lat="48.62661" lon="-1.98864">
        <ele>37.15</ele>
        <time>2021-07-31T14:20:34Z</time>
      </trkpt>
      <trkpt lat="48.62666" lon="-1.98868">
        <ele>37.15</ele>
        <time>2021-07-31T14:20:35Z</time>
      </trkpt>
      <trkpt lat="48.62671" lon="-1.9887">
        <ele>37.15</ele>
        <time>2021-07-31T14:20:36Z</time>
      </trkpt>
      <trkpt lat="48.62675" lon="-1.98872">
        <ele>36.67</ele>
        <time>2021-07-31T14:20:37Z</time>
      </trkpt>
      <trkpt lat="48.6268" lon="-1.98873">
        <ele>36.19</ele>
        <time>2021-07-31T14:20:38Z</time>
      </trkpt>
      <trkpt lat="48.62742" lon="-1.98876">
        <ele>32.34</ele>
        <time>2021-07-31T14:20:45Z</time>
      </trkpt>
      <trkpt lat="48.62956" lon="-1.98894">
        <ele>12.63</ele>
        <time>2021-07-31T14:21:02Z</time>
      </trkpt>
      <trkpt lat="48.63138" lon="-1.98911">
        <ele>8.31</ele>
        <time>2021-07-31T14:21:17Z</time>
      </trkpt>
      <trkpt lat="48.63193" lon="-1.98916">
        <ele>6.39</ele>
        <time>2021-07-31T14:21:25Z</time>
      </trkpt>
      <trkpt lat="48.63266" lon="-1.98924">
        <ele>11.19</ele>
        <time>2021-07-31T14:21:36Z</time>
      </trkpt>
      <trkpt lat="48.63394" lon="-1.98937">
        <ele>10.23</ele>
        <time>2021-07-31T14:21:47Z</time>
      </trkpt>
      <trkpt lat="48.63528" lon="-1.98957">
        <ele>3.02</ele>
        <time>2021-07-31T14:21:59Z</time>
      </trkpt>
      <trkpt lat="48.63552" lon="-1.98965">
        <ele>3.02</ele>
        <time>2021-07-31T14:22:02Z</time>
      </trkpt>
      <trkpt lat="48.63568" lon="-1.98961">
        <ele>2.54</ele>
        <time>2021-07-31T14:22:03Z</time>
      </trkpt>
      <trkpt lat="48.63575" lon="-1.98958">
        <ele>2.54</ele>
        <time>2021-07-31T14:22:04Z</time>
      </trkpt>
      <trkpt lat="48.63582" lon="-1.98955">
        <ele>2.06</ele>
        <time>2021-07-31T14:22:05Z</time>
      </trkpt>
      <trkpt lat="48.63589" lon="-1.98953">
        <ele>2.54</ele>
        <time>2021-07-31T14:22:06Z</time>
      </trkpt>
      <trkpt lat="48.63595" lon="-1.9895">
        <ele>2.54</ele>
        <time>2021-07-31T14:22:07Z</time>
      </trkpt>
      <trkpt lat="48.63601" lon="-1.98947">
        <ele>2.54</ele>
        <time>2021-07-31T14:22:08Z</time>
      </trkpt>
      <trkpt lat="48.63603" lon="-1.98947">
        <ele>2.54</ele>
        <time>2021-07-31T14:22:09Z</time>
      </trkpt>
      <trkpt lat="48.63614" lon="-1.98939">
        <ele>1.58</ele>
        <time>2021-07-31T14:22:10Z</time>
      </trkpt>
      <trkpt lat="48.63619" lon="-1.98946">
        <ele>1.1</ele>
        <time>2021-07-31T14:22:11Z</time>
      </trkpt>
      <trkpt lat="48.63625" lon="-1.98951">
        <ele>0.62</ele>
        <time>2021-07-31T14:22:12Z</time>
      </trkpt>
      <trkpt lat="48.63625" lon="-1.98951">
        <ele>0.14</ele>
        <time>2021-07-31T14:22:14Z</time>
      </trkpt>
      <trkpt lat="48.63639" lon="-1.98962">
        <ele>0.14</ele>
        <time>2021-07-31T14:22:15Z</time>
      </trkpt>
      <trkpt lat="48.63767" lon="-1.98981">
        <ele>-0.34</ele>
        <time>2021-07-31T14:22:31Z</time>
      </trkpt>
      <trkpt lat="48.63794" lon="-1.98983">
        <ele>1.1</ele>
        <time>2021-07-31T14:22:37Z</time>
      </trkpt>
      <trkpt lat="48.63799" lon="-1.98983">
        <ele>1.1</ele>
        <time>2021-07-31T14:22:38Z</time>
      </trkpt>
      <trkpt lat="48.6381" lon="-1.98978">
        <ele>1.1</ele>
        <time>2021-07-31T14:22:40Z</time>
      </trkpt>
      <trkpt lat="48.63815" lon="-1.98977">
        <ele>1.1</ele>
        <time>2021-07-31T14:22:41Z</time>
      </trkpt>
      <trkpt lat="48.63824" lon="-1.9898">
        <ele>0.62</ele>
        <time>2021-07-31T14:22:42Z</time>
      </trkpt>
      <trkpt lat="48.63828" lon="-1.98986">
        <ele>0.14</ele>
        <time>2021-07-31T14:22:44Z</time>
      </trkpt>
      <trkpt lat="48.63835" lon="-1.98987">
        <ele>-0.34</ele>
        <time>2021-07-31T14:22:45Z</time>
      </trkpt>
      <trkpt lat="48.63918" lon="-1.99001">
        <ele>-0.34</ele>
        <time>2021-07-31T14:22:56Z</time>
      </trkpt>
      <trkpt lat="48.64015" lon="-1.99012">
        <ele>-1.3</ele>
        <time>2021-07-31T14:23:09Z</time>
      </trkpt>
      <trkpt lat="48.64063" lon="-1.99018">
        <ele>2.06</ele>
        <time>2021-07-31T14:23:17Z</time>
      </trkpt>
      <trkpt lat="48.64068" lon="-1.99018">
        <ele>2.06</ele>
        <time>2021-07-31T14:23:20Z</time>
      </trkpt>
      <trkpt lat="48.64082" lon="-1.99001">
        <ele>2.06</ele>
        <time>2021-07-31T14:23:21Z</time>
      </trkpt>
      <trkpt lat="48.64091" lon="-1.99006">
        <ele>2.06</ele>
        <time>2021-07-31T14:23:22Z</time>
      </trkpt>
      <trkpt lat="48.64094" lon="-1.99009">
        <ele>2.06</ele>
        <time>2021-07-31T14:23:23Z</time>
      </trkpt>
      <trkpt lat="48.64104" lon="-1.99021">
        <ele>1.58</ele>
        <time>2021-07-31T14:23:24Z</time>
      </trkpt>
      <trkpt lat="48.64122" lon="-1.99021">
        <ele>2.54</ele>
        <time>2021-07-31T14:23:25Z</time>
      </trkpt>
      <trkpt lat="48.64131" lon="-1.99022">
        <ele>2.54</ele>
        <time>2021-07-31T14:23:26Z</time>
      </trkpt>
      <trkpt lat="48.64264" lon="-1.99035">
        <ele>3.98</ele>
        <time>2021-07-31T14:23:37Z</time>
      </trkpt>
      <trkpt lat="48.64417" lon="-1.99032">
        <ele>2.06</ele>
        <time>2021-07-31T14:23:48Z</time>
      </trkpt>
      <trkpt lat="48.64528" lon="-1.98986">
        <ele>-1.3</ele>
        <time>2021-07-31T14:23:57Z</time>
      </trkpt>
      <trkpt lat="48.64549" lon="-1.98967">
        <ele>-2.27</ele>
        <time>2021-07-31T14:24:04Z</time>
      </trkpt>
      <trkpt lat="48.64586" lon="-1.98933">
        <ele>-7.55</ele>
        <time>2021-07-31T14:24:15Z</time>
      </trkpt>
      <trkpt lat="48.64635" lon="-1.98865">
        <ele>-7.55</ele>
        <time>2021-07-31T14:24:23Z</time>
      </trkpt>
      <trkpt lat="48.64711" lon="-1.98688">
        <ele>-11.4</ele>
        <time>2021-07-31T14:24:34Z</time>
      </trkpt>
      <trkpt lat="48.64739" lon="-1.98588">
        <ele>-5.63</ele>
        <time>2021-07-31T14:24:42Z</time>
      </trkpt>
      <trkpt lat="48.64753" lon="-1.98513">
        <ele>-0.82</ele>
        <time>2021-07-31T14:24:55Z</time>
      </trkpt>
      <trkpt lat="48.64759" lon="-1.98464">
        <ele>2.06</ele>
        <time>2021-07-31T14:25:07Z</time>
      </trkpt>
      <trkpt lat="48.64762" lon="-1.98435">
        <ele>3.02</ele>
        <time>2021-07-31T14:25:10Z</time>
      </trkpt>
      <trkpt lat="48.64763" lon="-1.98427">
        <ele>3.5</ele>
        <time>2021-07-31T14:25:11Z</time>
      </trkpt>
      <trkpt lat="48.64761" lon="-1.98419">
        <ele>3.5</ele>
        <time>2021-07-31T14:25:12Z</time>
      </trkpt>
      <trkpt lat="48.64759" lon="-1.98411">
        <ele>3.98</ele>
        <time>2021-07-31T14:25:13Z</time>
      </trkpt>
      <trkpt lat="48.64758" lon="-1.98404">
        <ele>3.98</ele>
        <time>2021-07-31T14:25:14Z</time>
      </trkpt>
      <trkpt lat="48.64757" lon="-1.98397">
        <ele>4.46</ele>
        <time>2021-07-31T14:25:15Z</time>
      </trkpt>
      <trkpt lat="48.64761" lon="-1.98387">
        <ele>5.42</ele>
        <time>2021-07-31T14:25:16Z</time>
      </trkpt>
      <trkpt lat="48.64761" lon="-1.98387">
        <ele>5.42</ele>
        <time>2021-07-31T14:25:17Z</time>
      </trkpt>
      <trkpt lat="48.64767" lon="-1.98376">
        <ele>5.42</ele>
        <time>2021-07-31T14:25:18Z</time>
      </trkpt>
      <trkpt lat="48.64773" lon="-1.9836">
        <ele>5.42</ele>
        <time>2021-07-31T14:25:20Z</time>
      </trkpt>
      <trkpt lat="48.64775" lon="-1.98349">
        <ele>5.42</ele>
        <time>2021-07-31T14:25:21Z</time>
      </trkpt>
      <trkpt lat="48.64777" lon="-1.98337">
        <ele>5.42</ele>
        <time>2021-07-31T14:25:22Z</time>
      </trkpt>
      <trkpt lat="48.64796" lon="-1.98188">
        <ele>8.79</ele>
        <time>2021-07-31T14:25:32Z</time>
      </trkpt>
      <trkpt lat="48.64841" lon="-1.97945">
        <ele>12.15</ele>
        <time>2021-07-31T14:25:43Z</time>
      </trkpt>
      <trkpt lat="48.6488" lon="-1.97793">
        <ele>16.48</ele>
        <time>2021-07-31T14:25:52Z</time>
      </trkpt>
      <trkpt lat="48.64887" lon="-1.97766">
        <ele>17.44</ele>
        <time>2021-07-31T14:25:55Z</time>
      </trkpt>
      <trkpt lat="48.64889" lon="-1.9775">
        <ele>17.44</ele>
        <time>2021-07-31T14:25:56Z</time>
      </trkpt>
      <trkpt lat="48.64886" lon="-1.97743">
        <ele>17.92</ele>
        <time>2021-07-31T14:25:57Z</time>
      </trkpt>
      <trkpt lat="48.64884" lon="-1.97723">
        <ele>17.92</ele>
        <time>2021-07-31T14:25:59Z</time>
      </trkpt>
      <trkpt lat="48.64884" lon="-1.97723">
        <ele>17.92</ele>
        <time>2021-07-31T14:26:00Z</time>
      </trkpt>
      <trkpt lat="48.64887" lon="-1.97716">
        <ele>18.4</ele>
        <time>2021-07-31T14:26:01Z</time>
      </trkpt>
      <trkpt lat="48.64904" lon="-1.97699">
        <ele>18.4</ele>
        <time>2021-07-31T14:26:03Z</time>
      </trkpt>
      <trkpt lat="48.64904" lon="-1.97699">
        <ele>18.4</ele>
        <time>2021-07-31T14:26:04Z</time>
      </trkpt>
      <trkpt lat="48.64907" lon="-1.97689">
        <ele>18.4</ele>
        <time>2021-07-31T14:26:05Z</time>
      </trkpt>
      <trkpt lat="48.64946" lon="-1.9755">
        <ele>16.48</ele>
        <time>2021-07-31T14:26:16Z</time>
      </trkpt>
      <trkpt lat="48.65004" lon="-1.97338">
        <ele>16</ele>
        <time>2021-07-31T14:26:27Z</time>
      </trkpt>
      <trkpt lat="48.65068" lon="-1.97175">
        <ele>18.4</ele>
        <time>2021-07-31T14:26:36Z</time>
      </trkpt>
      <trkpt lat="48.65091" lon="-1.97124">
        <ele>20.81</ele>
        <time>2021-07-31T14:26:43Z</time>
      </trkpt>
      <trkpt lat="48.65098" lon="-1.97109">
        <ele>23.69</ele>
        <time>2021-07-31T14:26:49Z</time>
      </trkpt>
      <trkpt lat="48.65101" lon="-1.97104">
        <ele>23.21</ele>
        <time>2021-07-31T14:26:50Z</time>
      </trkpt>
      <trkpt lat="48.65104" lon="-1.97097">
        <ele>22.25</ele>
        <time>2021-07-31T14:26:51Z</time>
      </trkpt>
      <trkpt lat="48.65107" lon="-1.97091">
        <ele>21.77</ele>
        <time>2021-07-31T14:26:52Z</time>
      </trkpt>
      <trkpt lat="48.6511" lon="-1.97071">
        <ele>21.29</ele>
        <time>2021-07-31T14:26:54Z</time>
      </trkpt>
      <trkpt lat="48.65113" lon="-1.97049">
        <ele>21.29</ele>
        <time>2021-07-31T14:26:55Z</time>
      </trkpt>
      <trkpt lat="48.65113" lon="-1.97049">
        <ele>21.29</ele>
        <time>2021-07-31T14:26:56Z</time>
      </trkpt>
      <trkpt lat="48.65119" lon="-1.97042">
        <ele>22.25</ele>
        <time>2021-07-31T14:26:57Z</time>
      </trkpt>
      <trkpt lat="48.65126" lon="-1.97039">
        <ele>22.25</ele>
        <time>2021-07-31T14:26:58Z</time>
      </trkpt>
      <trkpt lat="48.65133" lon="-1.97038">
        <ele>22.73</ele>
        <time>2021-07-31T14:26:59Z</time>
      </trkpt>
      <trkpt lat="48.65138" lon="-1.97042">
        <ele>22.73</ele>
        <time>2021-07-31T14:27:00Z</time>
      </trkpt>
      <trkpt lat="48.65144" lon="-1.97049">
        <ele>22.73</ele>
        <time>2021-07-31T14:27:01Z</time>
      </trkpt>
      <trkpt lat="48.6515" lon="-1.97057">
        <ele>22.25</ele>
        <time>2021-07-31T14:27:02Z</time>
      </trkpt>
      <trkpt lat="48.65152" lon="-1.97065">
        <ele>21.77</ele>
        <time>2021-07-31T14:27:03Z</time>
      </trkpt>
      <trkpt lat="48.65154" lon="-1.97087">
        <ele>21.77</ele>
        <time>2021-07-31T14:27:04Z</time>
      </trkpt>
      <trkpt lat="48.65156" lon="-1.97099">
        <ele>21.77</ele>
        <time>2021-07-31T14:27:05Z</time>
      </trkpt>
      <trkpt lat="48.65156" lon="-1.97099">
        <ele>22.25</ele>
        <time>2021-07-31T14:27:06Z</time>
      </trkpt>
      <trkpt lat="48.65159" lon="-1.97112">
        <ele>22.73</ele>
        <time>2021-07-31T14:27:07Z</time>
      </trkpt>
      <trkpt lat="48.65163" lon="-1.97126">
        <ele>22.25</ele>
        <time>2021-07-31T14:27:08Z</time>
      </trkpt>
      <trkpt lat="48.6522" lon="-1.97261">
        <ele>28.02</ele>
        <time>2021-07-31T14:27:17Z</time>
      </trkpt>
      <trkpt lat="48.65225" lon="-1.97272">
        <ele>28.98</ele>
        <time>2021-07-31T14:27:18Z</time>
      </trkpt>
      <trkpt lat="48.6523" lon="-1.9728">
        <ele>30.42</ele>
        <time>2021-07-31T14:27:19Z</time>
      </trkpt>
      <trkpt lat="48.65234" lon="-1.97287">
        <ele>31.38</ele>
        <time>2021-07-31T14:27:20Z</time>
      </trkpt>
      <trkpt lat="48.65238" lon="-1.97292">
        <ele>31.86</ele>
        <time>2021-07-31T14:27:21Z</time>
      </trkpt>
      <trkpt lat="48.65245" lon="-1.97289">
        <ele>31.86</ele>
        <time>2021-07-31T14:27:22Z</time>
      </trkpt>
      <trkpt lat="48.65258" lon="-1.97284">
        <ele>31.86</ele>
        <time>2021-07-31T14:27:23Z</time>
      </trkpt>
      <trkpt lat="48.65258" lon="-1.97284">
        <ele>31.86</ele>
        <time>2021-07-31T14:27:24Z</time>
      </trkpt>
      <trkpt lat="48.65261" lon="-1.97284">
        <ele>31.38</ele>
        <time>2021-07-31T14:27:25Z</time>
      </trkpt>
      <trkpt lat="48.65279" lon="-1.97312">
        <ele>31.86</ele>
        <time>2021-07-31T14:27:27Z</time>
      </trkpt>
      <trkpt lat="48.65286" lon="-1.97313">
        <ele>31.86</ele>
        <time>2021-07-31T14:27:28Z</time>
      </trkpt>
      <trkpt lat="48.65286" lon="-1.97313">
        <ele>31.86</ele>
        <time>2021-07-31T14:27:29Z</time>
      </trkpt>
      <trkpt lat="48.65304" lon="-1.97318">
        <ele>31.86</ele>
        <time>2021-07-31T14:27:30Z</time>
      </trkpt>
      <trkpt lat="48.65304" lon="-1.97318">
        <ele>30.9</ele>
        <time>2021-07-31T14:27:31Z</time>
      </trkpt>
      <trkpt lat="48.65468" lon="-1.97369">
        <ele>28.5</ele>
        <time>2021-07-31T14:27:48Z</time>
      </trkpt>
      <trkpt lat="48.6554" lon="-1.97388">
        <ele>27.53</ele>
        <time>2021-07-31T14:27:58Z</time>
      </trkpt>
      <trkpt lat="48.65634" lon="-1.97415">
        <ele>27.53</ele>
        <time>2021-07-31T14:28:10Z</time>
      </trkpt>
      <trkpt lat="48.65664" lon="-1.97426">
        <ele>28.5</ele>
        <time>2021-07-31T14:28:17Z</time>
      </trkpt>
      <trkpt lat="48.65684" lon="-1.97436">
        <ele>28.02</ele>
        <time>2021-07-31T14:28:27Z</time>
      </trkpt>
      <trkpt lat="48.65734" lon="-1.97484">
        <ele>27.05</ele>
        <time>2021-07-31T14:28:35Z</time>
      </trkpt>
      <trkpt lat="48.65742" lon="-1.97491">
        <ele>27.05</ele>
        <time>2021-07-31T14:28:36Z</time>
      </trkpt>
      <trkpt lat="48.65847" lon="-1.97561">
        <ele>24.65</ele>
        <time>2021-07-31T14:28:48Z</time>
      </trkpt>
      <trkpt lat="48.65973" lon="-1.9765">
        <ele>18.88</ele>
        <time>2021-07-31T14:29:01Z</time>
      </trkpt>
      <trkpt lat="48.6608" lon="-1.97699">
        <ele>13.12</ele>
        <time>2021-07-31T14:29:13Z</time>
      </trkpt>
      <trkpt lat="48.66133" lon="-1.97722">
        <ele>14.56</ele>
        <time>2021-07-31T14:29:20Z</time>
      </trkpt>
      <trkpt lat="48.66137" lon="-1.97724">
        <ele>15.04</ele>
        <time>2021-07-31T14:29:21Z</time>
      </trkpt>
      <trkpt lat="48.66137" lon="-1.97724">
        <ele>15.52</ele>
        <time>2021-07-31T14:29:23Z</time>
      </trkpt>
      <trkpt lat="48.66137" lon="-1.97724">
        <ele>15.52</ele>
        <time>2021-07-31T14:29:25Z</time>
      </trkpt>
      <trkpt lat="48.66175" lon="-1.97735">
        <ele>15.04</ele>
        <time>2021-07-31T14:29:27Z</time>
      </trkpt>
      <trkpt lat="48.66298" lon="-1.97739">
        <ele>12.15</ele>
        <time>2021-07-31T14:29:39Z</time>
      </trkpt>
      <trkpt lat="48.66411" lon="-1.9778">
        <ele>15.52</ele>
        <time>2021-07-31T14:29:49Z</time>
      </trkpt>
      <trkpt lat="48.66542" lon="-1.97844">
        <ele>15.04</ele>
        <time>2021-07-31T14:30:01Z</time>
      </trkpt>
      <trkpt lat="48.66624" lon="-1.97909">
        <ele>13.6</ele>
        <time>2021-07-31T14:30:09Z</time>
      </trkpt>
      <trkpt lat="48.66665" lon="-1.97919">
        <ele>11.67</ele>
        <time>2021-07-31T14:30:17Z</time>
      </trkpt>
      <trkpt lat="48.66768" lon="-1.97958">
        <ele>8.79</ele>
        <time>2021-07-31T14:30:29Z</time>
      </trkpt>
      <trkpt lat="48.66846" lon="-1.98001">
        <ele>13.12</ele>
        <time>2021-07-31T14:30:40Z</time>
      </trkpt>
      <trkpt lat="48.66868" lon="-1.98017">
        <ele>20.81</ele>
        <time>2021-07-31T14:30:50Z</time>
      </trkpt>
      <trkpt lat="48.6691" lon="-1.9807">
        <ele>20.32</ele>
        <time>2021-07-31T14:30:58Z</time>
      </trkpt>
      <trkpt lat="48.67002" lon="-1.98187">
        <ele>20.81</ele>
        <time>2021-07-31T14:31:09Z</time>
      </trkpt>
      <trkpt lat="48.67067" lon="-1.98272">
        <ele>18.88</ele>
        <time>2021-07-31T14:31:19Z</time>
      </trkpt>
      <trkpt lat="48.67071" lon="-1.98278">
        <ele>18.4</ele>
        <time>2021-07-31T14:31:20Z</time>
      </trkpt>
      <trkpt lat="48.6708" lon="-1.98276">
        <ele>17.92</ele>
        <time>2021-07-31T14:31:21Z</time>
      </trkpt>
      <trkpt lat="48.67085" lon="-1.98273">
        <ele>17.92</ele>
        <time>2021-07-31T14:31:22Z</time>
      </trkpt>
      <trkpt lat="48.6709" lon="-1.98271">
        <ele>17.92</ele>
        <time>2021-07-31T14:31:23Z</time>
      </trkpt>
      <trkpt lat="48.67168" lon="-1.98226">
        <ele>19.84</ele>
        <time>2021-07-31T14:31:33Z</time>
      </trkpt>
      <trkpt lat="48.67248" lon="-1.98179">
        <ele>22.73</ele>
        <time>2021-07-31T14:31:41Z</time>
      </trkpt>
      <trkpt lat="48.67326" lon="-1.98136">
        <ele>23.21</ele>
        <time>2021-07-31T14:31:53Z</time>
      </trkpt>
      <trkpt lat="48.67421" lon="-1.9808">
        <ele>23.21</ele>
        <time>2021-07-31T14:32:04Z</time>
      </trkpt>
      <trkpt lat="48.67625" lon="-1.9796">
        <ele>13.6</ele>
        <time>2021-07-31T14:32:29Z</time>
      </trkpt>
      <trkpt lat="48.6771" lon="-1.97927">
        <ele>13.6</ele>
        <time>2021-07-31T14:32:40Z</time>
      </trkpt>
      <trkpt lat="48.67841" lon="-1.97887">
        <ele>16</ele>
        <time>2021-07-31T14:32:52Z</time>
      </trkpt>
      <trkpt lat="48.67851" lon="-1.97882">
        <ele>16.48</ele>
        <time>2021-07-31T14:32:53Z</time>
      </trkpt>
      <trkpt lat="48.6786" lon="-1.97876">
        <ele>16.48</ele>
        <time>2021-07-31T14:32:54Z</time>
      </trkpt>
      <trkpt lat="48.67979" lon="-1.97757">
        <ele>15.52</ele>
        <time>2021-07-31T14:33:07Z</time>
      </trkpt>
      <trkpt lat="48.68011" lon="-1.97715">
        <ele>17.92</ele>
        <time>2021-07-31T14:33:12Z</time>
      </trkpt>
      <trkpt lat="48.68016" lon="-1.97704">
        <ele>17.92</ele>
        <time>2021-07-31T14:33:13Z</time>
      </trkpt>
      <trkpt lat="48.6802" lon="-1.97693">
        <ele>17.44</ele>
        <time>2021-07-31T14:33:14Z</time>
      </trkpt>
      <trkpt lat="48.68025" lon="-1.97682">
        <ele>17.44</ele>
        <time>2021-07-31T14:33:15Z</time>
      </trkpt>
      <trkpt lat="48.68028" lon="-1.9767">
        <ele>17.44</ele>
        <time>2021-07-31T14:33:16Z</time>
      </trkpt>
      <trkpt lat="48.6803" lon="-1.97658">
        <ele>17.44</ele>
        <time>2021-07-31T14:33:17Z</time>
      </trkpt>
      <trkpt lat="48.68047" lon="-1.97505">
        <ele>14.08</ele>
        <time>2021-07-31T14:33:28Z</time>
      </trkpt>
      <trkpt lat="48.6805" lon="-1.9741">
        <ele>12.15</ele>
        <time>2021-07-31T14:33:34Z</time>
      </trkpt>
      <trkpt lat="48.68079" lon="-1.97277">
        <ele>15.04</ele>
        <time>2021-07-31T14:33:44Z</time>
      </trkpt>
      <trkpt lat="48.68119" lon="-1.97138">
        <ele>16.96</ele>
        <time>2021-07-31T14:33:56Z</time>
      </trkpt>
      <trkpt lat="48.6816" lon="-1.96961">
        <ele>15.52</ele>
        <time>2021-07-31T14:34:10Z</time>
      </trkpt>
      <trkpt lat="48.68171" lon="-1.96906">
        <ele>14.56</ele>
        <time>2021-07-31T14:34:15Z</time>
      </trkpt>
      <trkpt lat="48.68173" lon="-1.96898">
        <ele>14.08</ele>
        <time>2021-07-31T14:34:16Z</time>
      </trkpt>
      <trkpt lat="48.68174" lon="-1.96892">
        <ele>13.6</ele>
        <time>2021-07-31T14:34:17Z</time>
      </trkpt>
      <trkpt lat="48.68175" lon="-1.96888">
        <ele>13.6</ele>
        <time>2021-07-31T14:34:18Z</time>
      </trkpt>
      <trkpt lat="48.68177" lon="-1.96876">
        <ele>14.08</ele>
        <time>2021-07-31T14:34:28Z</time>
      </trkpt>
      <trkpt lat="48.68182" lon="-1.96815">
        <ele>16.48</ele>
        <time>2021-07-31T14:34:44Z</time>
      </trkpt>
      <trkpt lat="48.68182" lon="-1.9681">
        <ele>16.48</ele>
        <time>2021-07-31T14:34:49Z</time>
      </trkpt>
      <trkpt lat="48.68182" lon="-1.96807">
        <ele>16</ele>
        <time>2021-07-31T14:34:50Z</time>
      </trkpt>
      <trkpt lat="48.68189" lon="-1.968">
        <ele>16.48</ele>
        <time>2021-07-31T14:34:51Z</time>
      </trkpt>
      <trkpt lat="48.68192" lon="-1.96799">
        <ele>16.48</ele>
        <time>2021-07-31T14:34:52Z</time>
      </trkpt>
      <trkpt lat="48.68196" lon="-1.96798">
        <ele>16</ele>
        <time>2021-07-31T14:34:53Z</time>
      </trkpt>
      <trkpt lat="48.68205" lon="-1.96795">
        <ele>16</ele>
        <time>2021-07-31T14:34:54Z</time>
      </trkpt>
      <trkpt lat="48.68231" lon="-1.96791">
        <ele>16.96</ele>
        <time>2021-07-31T14:35:00Z</time>
      </trkpt>
      <trkpt lat="48.68249" lon="-1.96786">
        <ele>16</ele>
        <time>2021-07-31T14:35:05Z</time>
      </trkpt>
      <trkpt lat="48.68257" lon="-1.96783">
        <ele>16</ele>
        <time>2021-07-31T14:35:07Z</time>
      </trkpt>
      <trkpt lat="48.68262" lon="-1.96782">
        <ele>16</ele>
        <time>2021-07-31T14:35:08Z</time>
      </trkpt>
      <trkpt lat="48.68267" lon="-1.9678">
        <ele>16</ele>
        <time>2021-07-31T14:35:09Z</time>
      </trkpt>
      <trkpt lat="48.68271" lon="-1.96779">
        <ele>16</ele>
        <time>2021-07-31T14:35:10Z</time>
      </trkpt>
      <trkpt lat="48.68274" lon="-1.96778">
        <ele>16</ele>
        <time>2021-07-31T14:35:11Z</time>
      </trkpt>
      <trkpt lat="48.68289" lon="-1.96771">
        <ele>14.08</ele>
        <time>2021-07-31T14:35:19Z</time>
      </trkpt>
      <trkpt lat="48.68289" lon="-1.96771">
        <ele>13.6</ele>
        <time>2021-07-31T14:35:20Z</time>
      </trkpt>
      <trkpt lat="48.68292" lon="-1.96763">
        <ele>13.6</ele>
        <time>2021-07-31T14:35:21Z</time>
      </trkpt>
      <trkpt lat="48.68292" lon="-1.96763">
        <ele>13.6</ele>
        <time>2021-07-31T14:35:22Z</time>
      </trkpt>
      <trkpt lat="48.68293" lon="-1.96758">
        <ele>14.56</ele>
        <time>2021-07-31T14:35:23Z</time>
      </trkpt>
      <trkpt lat="48.68294" lon="-1.96751">
        <ele>15.04</ele>
        <time>2021-07-31T14:35:24Z</time>
      </trkpt>
      <trkpt lat="48.68295" lon="-1.96729">
        <ele>15.52</ele>
        <time>2021-07-31T14:35:27Z</time>
      </trkpt>
      <trkpt lat="48.68296" lon="-1.96722">
        <ele>16</ele>
        <time>2021-07-31T14:35:28Z</time>
      </trkpt>
      <trkpt lat="48.68296" lon="-1.96717">
        <ele>16</ele>
        <time>2021-07-31T14:35:29Z</time>
      </trkpt>
      <trkpt lat="48.68296" lon="-1.96713">
        <ele>16.48</ele>
        <time>2021-07-31T14:35:36Z</time>
      </trkpt>
      <trkpt lat="48.68297" lon="-1.9671">
        <ele>16.48</ele>
        <time>2021-07-31T14:35:37Z</time>
      </trkpt>
      <trkpt lat="48.68298" lon="-1.967">
        <ele>16.96</ele>
        <time>2021-07-31T14:35:38Z</time>
      </trkpt>
      <trkpt lat="48.683" lon="-1.96699">
        <ele>16.96</ele>
        <time>2021-07-31T14:35:39Z</time>
      </trkpt>
      <trkpt lat="48.68301" lon="-1.96699">
        <ele>17.44</ele>
        <time>2021-07-31T14:35:40Z</time>
      </trkpt>
      <trkpt lat="48.68304" lon="-1.96698">
        <ele>18.88</ele>
        <time>2021-07-31T14:35:52Z</time>
      </trkpt>
      <trkpt lat="48.68304" lon="-1.96698">
        <ele>18.88</ele>
        <time>2021-07-31T14:36:00Z</time>
      </trkpt>
      <trkpt lat="48.68304" lon="-1.96698">
        <ele>18.88</ele>
        <time>2021-07-31T14:36:01Z</time>
      </trkpt>
      <trkpt lat="48.68304" lon="-1.96698">
        <ele>18.88</ele>
        <time>2021-07-31T14:36:20Z</time>
      </trkpt>
      <trkpt lat="48.68304" lon="-1.96698">
        <ele>18.88</ele>
        <time>2021-07-31T14:36:39Z</time>
      </trkpt>
      <trkpt lat="48.68304" lon="-1.96698">
        <ele>19.36</ele>
        <time>2021-07-31T14:37:11Z</time>
      </trkpt>
      <trkpt lat="48.68304" lon="-1.96698">
        <ele>19.84</ele>
        <time>2021-07-31T14:38:19Z</time>
      </trkpt>
      <trkpt lat="48.68304" lon="-1.96698">
        <ele>19.84</ele>
        <time>2021-07-31T14:40:09Z</time>
      </trkpt>
    </trkseg>
  </trk>
  <trk>
    <name><![CDATA[Journal actif: 2021-07-31 14:16]]></name>
    <trkseg>
      <trkpt lat="48.68463" lon="-1.967">
        <ele>40.03</ele>
        <time>2021-07-31T16:16:05Z</time>
      </trkpt>
      <trkpt lat="48.68462" lon="-1.967">
        <ele>39.07</ele>
        <time>2021-07-31T16:16:27Z</time>
      </trkpt>
      <trkpt lat="48.68462" lon="-1.96701">
        <ele>38.59</ele>
        <time>2021-07-31T16:18:41Z</time>
      </trkpt>
      <trkpt lat="48.6846" lon="-1.96692">
        <ele>39.07</ele>
        <time>2021-07-31T16:19:52Z</time>
      </trkpt>
      <trkpt lat="48.68458" lon="-1.9669">
        <ele>39.07</ele>
        <time>2021-07-31T16:19:56Z</time>
      </trkpt>
      <trkpt lat="48.68455" lon="-1.96681">
        <ele>39.07</ele>
        <time>2021-07-31T16:20:11Z</time>
      </trkpt>
      <trkpt lat="48.6844" lon="-1.9666">
        <ele>38.59</ele>
        <time>2021-07-31T16:20:20Z</time>
      </trkpt>
      <trkpt lat="48.68404" lon="-1.96619">
        <ele>37.15</ele>
        <time>2021-07-31T16:20:37Z</time>
      </trkpt>
      <trkpt lat="48.68395" lon="-1.96609">
        <ele>35.71</ele>
        <time>2021-07-31T16:20:46Z</time>
      </trkpt>
      <trkpt lat="48.68391" lon="-1.96606">
        <ele>35.71</ele>
        <time>2021-07-31T16:20:47Z</time>
      </trkpt>
      <trkpt lat="48.6839" lon="-1.96608">
        <ele>35.71</ele>
        <time>2021-07-31T16:20:48Z</time>
      </trkpt>
      <trkpt lat="48.68388" lon="-1.9661">
        <ele>35.23</ele>
        <time>2021-07-31T16:20:49Z</time>
      </trkpt>
      <trkpt lat="48.68387" lon="-1.96612">
        <ele>34.74</ele>
        <time>2021-07-31T16:20:50Z</time>
      </trkpt>
      <trkpt lat="48.68385" lon="-1.96615">
        <ele>34.74</ele>
        <time>2021-07-31T16:20:51Z</time>
      </trkpt>
      <trkpt lat="48.68382" lon="-1.96617">
        <ele>34.26</ele>
        <time>2021-07-31T16:20:52Z</time>
      </trkpt>
      <trkpt lat="48.68336" lon="-1.96674">
        <ele>31.38</ele>
        <time>2021-07-31T16:21:06Z</time>
      </trkpt>
      <trkpt lat="48.68305" lon="-1.96697">
        <ele>29.94</ele>
        <time>2021-07-31T16:21:14Z</time>
      </trkpt>
      <trkpt lat="48.68301" lon="-1.96699">
        <ele>29.94</ele>
        <time>2021-07-31T16:21:15Z</time>
      </trkpt>
      <trkpt lat="48.68297" lon="-1.96713">
        <ele>29.94</ele>
        <time>2021-07-31T16:21:16Z</time>
      </trkpt>
      <trkpt lat="48.68296" lon="-1.96726">
        <ele>29.46</ele>
        <time>2021-07-31T16:21:17Z</time>
      </trkpt>
      <trkpt lat="48.68296" lon="-1.96726">
        <ele>29.46</ele>
        <time>2021-07-31T16:21:18Z</time>
      </trkpt>
      <trkpt lat="48.68295" lon="-1.96733">
        <ele>28.98</ele>
        <time>2021-07-31T16:21:19Z</time>
      </trkpt>
      <trkpt lat="48.68289" lon="-1.96771">
        <ele>28.98</ele>
        <time>2021-07-31T16:21:26Z</time>
      </trkpt>
      <trkpt lat="48.68285" lon="-1.96773">
        <ele>28.98</ele>
        <time>2021-07-31T16:21:27Z</time>
      </trkpt>
      <trkpt lat="48.68221" lon="-1.96792">
        <ele>28.5</ele>
        <time>2021-07-31T16:21:42Z</time>
      </trkpt>
      <trkpt lat="48.6821" lon="-1.96794">
        <ele>28.98</ele>
        <time>2021-07-31T16:21:55Z</time>
      </trkpt>
      <trkpt lat="48.68186" lon="-1.96802">
        <ele>29.94</ele>
        <time>2021-07-31T16:22:09Z</time>
      </trkpt>
      <trkpt lat="48.68182" lon="-1.9685">
        <ele>29.94</ele>
        <time>2021-07-31T16:22:18Z</time>
      </trkpt>
      <trkpt lat="48.68157" lon="-1.96973">
        <ele>28.5</ele>
        <time>2021-07-31T16:22:29Z</time>
      </trkpt>
      <trkpt lat="48.68104" lon="-1.97192">
        <ele>26.09</ele>
        <time>2021-07-31T16:22:46Z</time>
      </trkpt>
      <trkpt lat="48.68047" lon="-1.97435">
        <ele>21.77</ele>
        <time>2021-07-31T16:23:01Z</time>
      </trkpt>
      <trkpt lat="48.68039" lon="-1.97596">
        <ele>21.77</ele>
        <time>2021-07-31T16:23:13Z</time>
      </trkpt>
      <trkpt lat="48.68022" lon="-1.97689">
        <ele>23.21</ele>
        <time>2021-07-31T16:23:20Z</time>
      </trkpt>
      <trkpt lat="48.68017" lon="-1.977">
        <ele>22.73</ele>
        <time>2021-07-31T16:23:21Z</time>
      </trkpt>
      <trkpt lat="48.68013" lon="-1.97712">
        <ele>22.25</ele>
        <time>2021-07-31T16:23:22Z</time>
      </trkpt>
      <trkpt lat="48.68008" lon="-1.97724">
        <ele>21.29</ele>
        <time>2021-07-31T16:23:23Z</time>
      </trkpt>
      <trkpt lat="48.68001" lon="-1.97733">
        <ele>20.81</ele>
        <time>2021-07-31T16:23:24Z</time>
      </trkpt>
      <trkpt lat="48.67995" lon="-1.97741">
        <ele>20.32</ele>
        <time>2021-07-31T16:23:25Z</time>
      </trkpt>
      <trkpt lat="48.67987" lon="-1.97749">
        <ele>19.84</ele>
        <time>2021-07-31T16:23:26Z</time>
      </trkpt>
      <trkpt lat="48.67871" lon="-1.97865">
        <ele>23.21</ele>
        <time>2021-07-31T16:23:39Z</time>
      </trkpt>
      <trkpt lat="48.67854" lon="-1.9788">
        <ele>23.69</ele>
        <time>2021-07-31T16:23:41Z</time>
      </trkpt>
      <trkpt lat="48.67846" lon="-1.97885">
        <ele>23.21</ele>
        <time>2021-07-31T16:23:42Z</time>
      </trkpt>
      <trkpt lat="48.67836" lon="-1.9789">
        <ele>23.69</ele>
        <time>2021-07-31T16:23:43Z</time>
      </trkpt>
      <trkpt lat="48.67726" lon="-1.97922">
        <ele>16.48</ele>
        <time>2021-07-31T16:23:56Z</time>
      </trkpt>
      <trkpt lat="48.67678" lon="-1.97937">
        <ele>13.6</ele>
        <time>2021-07-31T16:24:05Z</time>
      </trkpt>
      <trkpt lat="48.67672" lon="-1.97938">
        <ele>12.15</ele>
        <time>2021-07-31T16:24:19Z</time>
      </trkpt>
      <trkpt lat="48.67643" lon="-1.97951">
        <ele>10.71</ele>
        <time>2021-07-31T16:24:26Z</time>
      </trkpt>
      <trkpt lat="48.67559" lon="-1.97999">
        <ele>15.04</ele>
        <time>2021-07-31T16:24:37Z</time>
      </trkpt>
      <trkpt lat="48.67466" lon="-1.98054">
        <ele>18.88</ele>
        <time>2021-07-31T16:24:48Z</time>
      </trkpt>
    </trkseg>
  </trk>
  <trk>
    <name><![CDATA[Journal actif: 2021-07-31 14:28]]></name>
    <trkseg>
      <trkpt lat="48.66352" lon="-1.98837">
        <ele>38.59</ele>
        <time>2021-07-31T16:28:07Z</time>
      </trkpt>
      <trkpt lat="48.66344" lon="-1.98839">
        <ele>35.23</ele>
        <time>2021-07-31T16:28:30Z</time>
      </trkpt>
      <trkpt lat="48.66285" lon="-1.98854">
        <ele>32.34</ele>
        <time>2021-07-31T16:28:42Z</time>
      </trkpt>
      <trkpt lat="48.66281" lon="-1.98856">
        <ele>31.38</ele>
        <time>2021-07-31T16:28:43Z</time>
      </trkpt>
      <trkpt lat="48.66278" lon="-1.9886">
        <ele>29.94</ele>
        <time>2021-07-31T16:28:44Z</time>
      </trkpt>
      <trkpt lat="48.66267" lon="-1.98871">
        <ele>25.13</ele>
        <time>2021-07-31T16:28:48Z</time>
      </trkpt>
      <trkpt lat="48.66263" lon="-1.9887">
        <ele>24.65</ele>
        <time>2021-07-31T16:28:49Z</time>
      </trkpt>
      <trkpt lat="48.6626" lon="-1.98867">
        <ele>24.65</ele>
        <time>2021-07-31T16:28:50Z</time>
      </trkpt>
      <trkpt lat="48.66193" lon="-1.98807">
        <ele>23.69</ele>
        <time>2021-07-31T16:29:01Z</time>
      </trkpt>
      <trkpt lat="48.6606" lon="-1.98692">
        <ele>24.17</ele>
        <time>2021-07-31T16:29:17Z</time>
      </trkpt>
      <trkpt lat="48.65892" lon="-1.98545">
        <ele>28.02</ele>
        <time>2021-07-31T16:29:35Z</time>
      </trkpt>
      <trkpt lat="48.65851" lon="-1.9851">
        <ele>29.46</ele>
        <time>2021-07-31T16:29:42Z</time>
      </trkpt>
      <trkpt lat="48.65845" lon="-1.98519">
        <ele>29.46</ele>
        <time>2021-07-31T16:29:45Z</time>
      </trkpt>
      <trkpt lat="48.65843" lon="-1.9852">
        <ele>28.98</ele>
        <time>2021-07-31T16:29:46Z</time>
      </trkpt>
      <trkpt lat="48.65843" lon="-1.9852">
        <ele>28.98</ele>
        <time>2021-07-31T16:29:47Z</time>
      </trkpt>
      <trkpt lat="48.65834" lon="-1.98535">
        <ele>28.02</ele>
        <time>2021-07-31T16:29:53Z</time>
      </trkpt>
      <trkpt lat="48.65834" lon="-1.98538">
        <ele>28.02</ele>
        <time>2021-07-31T16:29:54Z</time>
      </trkpt>
      <trkpt lat="48.65834" lon="-1.98569">
        <ele>27.05</ele>
        <time>2021-07-31T16:30:04Z</time>
      </trkpt>
      <trkpt lat="48.65836" lon="-1.98612">
        <ele>26.57</ele>
        <time>2021-07-31T16:30:14Z</time>
      </trkpt>
      <trkpt lat="48.65843" lon="-1.98797">
        <ele>16.96</ele>
        <time>2021-07-31T16:30:29Z</time>
      </trkpt>
      <trkpt lat="48.65847" lon="-1.98968">
        <ele>10.23</ele>
        <time>2021-07-31T16:30:42Z</time>
      </trkpt>
      <trkpt lat="48.65847" lon="-1.98989">
        <ele>9.27</ele>
        <time>2021-07-31T16:30:44Z</time>
      </trkpt>
      <trkpt lat="48.65847" lon="-1.99">
        <ele>8.79</ele>
        <time>2021-07-31T16:30:45Z</time>
      </trkpt>
      <trkpt lat="48.65846" lon="-1.99012">
        <ele>8.79</ele>
        <time>2021-07-31T16:30:46Z</time>
      </trkpt>
      <trkpt lat="48.65802" lon="-1.99256">
        <ele>6.87</ele>
        <time>2021-07-31T16:31:02Z</time>
      </trkpt>
      <trkpt lat="48.65778" lon="-1.99398">
        <ele>6.39</ele>
        <time>2021-07-31T16:31:14Z</time>
      </trkpt>
      <trkpt lat="48.65776" lon="-1.99411">
        <ele>6.87</ele>
        <time>2021-07-31T16:31:22Z</time>
      </trkpt>
      <trkpt lat="48.65771" lon="-1.99435">
        <ele>6.87</ele>
        <time>2021-07-31T16:31:56Z</time>
      </trkpt>
      <trkpt lat="48.6577" lon="-1.99441">
        <ele>6.87</ele>
        <time>2021-07-31T16:31:58Z</time>
      </trkpt>
      <trkpt lat="48.6577" lon="-1.99445">
        <ele>6.87</ele>
        <time>2021-07-31T16:31:59Z</time>
      </trkpt>
      <trkpt lat="48.65766" lon="-1.99444">
        <ele>6.87</ele>
        <time>2021-07-31T16:32:00Z</time>
      </trkpt>
      <trkpt lat="48.65762" lon="-1.99442">
        <ele>6.87</ele>
        <time>2021-07-31T16:32:01Z</time>
      </trkpt>
      <trkpt lat="48.65758" lon="-1.99441">
        <ele>6.87</ele>
        <time>2021-07-31T16:32:02Z</time>
      </trkpt>
      <trkpt lat="48.657" lon="-1.99421">
        <ele>7.35</ele>
        <time>2021-07-31T16:32:11Z</time>
      </trkpt>
      <trkpt lat="48.6557" lon="-1.99378">
        <ele>7.35</ele>
        <time>2021-07-31T16:32:26Z</time>
      </trkpt>
      <trkpt lat="48.65567" lon="-1.99377">
        <ele>7.35</ele>
        <time>2021-07-31T16:32:33Z</time>
      </trkpt>
      <trkpt lat="48.65545" lon="-1.99369">
        <ele>6.87</ele>
        <time>2021-07-31T16:33:13Z</time>
      </trkpt>
      <trkpt lat="48.65461" lon="-1.99339">
        <ele>7.35</ele>
        <time>2021-07-31T16:33:23Z</time>
      </trkpt>
      <trkpt lat="48.65334" lon="-1.99296">
        <ele>7.83</ele>
        <time>2021-07-31T16:33:38Z</time>
      </trkpt>
      <trkpt lat="48.65176" lon="-1.99243">
        <ele>8.31</ele>
        <time>2021-07-31T16:33:56Z</time>
      </trkpt>
      <trkpt lat="48.65042" lon="-1.99198">
        <ele>8.79</ele>
        <time>2021-07-31T16:34:12Z</time>
      </trkpt>
      <trkpt lat="48.64896" lon="-1.99145">
        <ele>9.27</ele>
        <time>2021-07-31T16:34:28Z</time>
      </trkpt>
      <trkpt lat="48.64886" lon="-1.9914">
        <ele>8.79</ele>
        <time>2021-07-31T16:34:31Z</time>
      </trkpt>
      <trkpt lat="48.64886" lon="-1.9914">
        <ele>8.79</ele>
        <time>2021-07-31T16:34:32Z</time>
      </trkpt>
      <trkpt lat="48.64874" lon="-1.99148">
        <ele>8.79</ele>
        <time>2021-07-31T16:34:33Z</time>
      </trkpt>
      <trkpt lat="48.64871" lon="-1.99144">
        <ele>8.79</ele>
        <time>2021-07-31T16:34:34Z</time>
      </trkpt>
      <trkpt lat="48.6486" lon="-1.99127">
        <ele>8.79</ele>
        <time>2021-07-31T16:34:35Z</time>
      </trkpt>
      <trkpt lat="48.64769" lon="-1.99035">
        <ele>8.79</ele>
        <time>2021-07-31T16:34:46Z</time>
      </trkpt>
      <trkpt lat="48.64668" lon="-1.98924">
        <ele>8.31</ele>
        <time>2021-07-31T16:34:59Z</time>
      </trkpt>
      <trkpt lat="48.64654" lon="-1.98907">
        <ele>8.79</ele>
        <time>2021-07-31T16:35:06Z</time>
      </trkpt>
      <trkpt lat="48.64644" lon="-1.98895">
        <ele>9.27</ele>
        <time>2021-07-31T16:35:31Z</time>
      </trkpt>
      <trkpt lat="48.6464" lon="-1.9889">
        <ele>9.27</ele>
        <time>2021-07-31T16:35:32Z</time>
      </trkpt>
      <trkpt lat="48.64637" lon="-1.98885">
        <ele>9.27</ele>
        <time>2021-07-31T16:35:33Z</time>
      </trkpt>
      <trkpt lat="48.64626" lon="-1.98882">
        <ele>9.27</ele>
        <time>2021-07-31T16:35:34Z</time>
      </trkpt>
      <trkpt lat="48.64621" lon="-1.98888">
        <ele>8.79</ele>
        <time>2021-07-31T16:35:35Z</time>
      </trkpt>
      <trkpt lat="48.64616" lon="-1.98895">
        <ele>8.79</ele>
        <time>2021-07-31T16:35:36Z</time>
      </trkpt>
      <trkpt lat="48.6455" lon="-1.98967">
        <ele>8.79</ele>
        <time>2021-07-31T16:35:43Z</time>
      </trkpt>
      <trkpt lat="48.64424" lon="-1.9903">
        <ele>12.63</ele>
        <time>2021-07-31T16:35:52Z</time>
      </trkpt>
      <trkpt lat="48.64218" lon="-1.99031">
        <ele>9.27</ele>
        <time>2021-07-31T16:36:06Z</time>
      </trkpt>
      <trkpt lat="48.64122" lon="-1.99021">
        <ele>7.35</ele>
        <time>2021-07-31T16:36:15Z</time>
      </trkpt>
      <trkpt lat="48.64101" lon="-1.99022">
        <ele>7.35</ele>
        <time>2021-07-31T16:36:19Z</time>
      </trkpt>
      <trkpt lat="48.64093" lon="-1.99029">
        <ele>7.35</ele>
        <time>2021-07-31T16:36:20Z</time>
      </trkpt>
      <trkpt lat="48.64085" lon="-1.99036">
        <ele>7.35</ele>
        <time>2021-07-31T16:36:22Z</time>
      </trkpt>
      <trkpt lat="48.64079" lon="-1.99036">
        <ele>7.35</ele>
        <time>2021-07-31T16:36:23Z</time>
      </trkpt>
      <trkpt lat="48.64075" lon="-1.99037">
        <ele>7.35</ele>
        <time>2021-07-31T16:36:24Z</time>
      </trkpt>
      <trkpt lat="48.64067" lon="-1.99018">
        <ele>7.35</ele>
        <time>2021-07-31T16:36:25Z</time>
      </trkpt>
      <trkpt lat="48.64061" lon="-1.99018">
        <ele>6.87</ele>
        <time>2021-07-31T16:36:26Z</time>
      </trkpt>
      <trkpt lat="48.64053" lon="-1.99018">
        <ele>6.87</ele>
        <time>2021-07-31T16:36:27Z</time>
      </trkpt>
      <trkpt lat="48.64045" lon="-1.99018">
        <ele>6.87</ele>
        <time>2021-07-31T16:36:28Z</time>
      </trkpt>
      <trkpt lat="48.63934" lon="-1.99004">
        <ele>5.91</ele>
        <time>2021-07-31T16:36:39Z</time>
      </trkpt>
      <trkpt lat="48.63842" lon="-1.98999">
        <ele>5.91</ele>
        <time>2021-07-31T16:36:51Z</time>
      </trkpt>
      <trkpt lat="48.63835" lon="-1.98999">
        <ele>5.91</ele>
        <time>2021-07-31T16:36:52Z</time>
      </trkpt>
      <trkpt lat="48.63829" lon="-1.98999">
        <ele>5.91</ele>
        <time>2021-07-31T16:36:53Z</time>
      </trkpt>
      <trkpt lat="48.63819" lon="-1.99005">
        <ele>6.39</ele>
        <time>2021-07-31T16:36:55Z</time>
      </trkpt>
      <trkpt lat="48.63806" lon="-1.98996">
        <ele>6.39</ele>
        <time>2021-07-31T16:36:56Z</time>
      </trkpt>
      <trkpt lat="48.63805" lon="-1.98996">
        <ele>6.39</ele>
        <time>2021-07-31T16:36:57Z</time>
      </trkpt>
      <trkpt lat="48.63798" lon="-1.98995">
        <ele>6.39</ele>
        <time>2021-07-31T16:36:58Z</time>
      </trkpt>
      <trkpt lat="48.6379" lon="-1.98994">
        <ele>5.91</ele>
        <time>2021-07-31T16:36:59Z</time>
      </trkpt>
      <trkpt lat="48.63783" lon="-1.98993">
        <ele>5.91</ele>
        <time>2021-07-31T16:37:00Z</time>
      </trkpt>
      <trkpt lat="48.63775" lon="-1.98992">
        <ele>5.91</ele>
        <time>2021-07-31T16:37:01Z</time>
      </trkpt>
      <trkpt lat="48.63669" lon="-1.98979">
        <ele>6.87</ele>
        <time>2021-07-31T16:37:11Z</time>
      </trkpt>
      <trkpt lat="48.63605" lon="-1.98962">
        <ele>8.79</ele>
        <time>2021-07-31T16:37:19Z</time>
      </trkpt>
      <trkpt lat="48.63601" lon="-1.98964">
        <ele>9.27</ele>
        <time>2021-07-31T16:37:20Z</time>
      </trkpt>
      <trkpt lat="48.63597" lon="-1.98966">
        <ele>9.27</ele>
        <time>2021-07-31T16:37:21Z</time>
      </trkpt>
      <trkpt lat="48.63593" lon="-1.98968">
        <ele>9.27</ele>
        <time>2021-07-31T16:37:22Z</time>
      </trkpt>
      <trkpt lat="48.63588" lon="-1.98971">
        <ele>9.27</ele>
        <time>2021-07-31T16:37:23Z</time>
      </trkpt>
      <trkpt lat="48.63584" lon="-1.98973">
        <ele>9.27</ele>
        <time>2021-07-31T16:37:24Z</time>
      </trkpt>
      <trkpt lat="48.63569" lon="-1.98981">
        <ele>9.27</ele>
        <time>2021-07-31T16:37:31Z</time>
      </trkpt>
      <trkpt lat="48.63563" lon="-1.98984">
        <ele>9.75</ele>
        <time>2021-07-31T16:37:33Z</time>
      </trkpt>
      <trkpt lat="48.63558" lon="-1.98986">
        <ele>9.75</ele>
        <time>2021-07-31T16:37:34Z</time>
      </trkpt>
      <trkpt lat="48.63554" lon="-1.98989">
        <ele>9.75</ele>
        <time>2021-07-31T16:37:35Z</time>
      </trkpt>
      <trkpt lat="48.63549" lon="-1.98986">
        <ele>10.23</ele>
        <time>2021-07-31T16:37:36Z</time>
      </trkpt>
      <trkpt lat="48.63545" lon="-1.98982">
        <ele>10.23</ele>
        <time>2021-07-31T16:37:37Z</time>
      </trkpt>
      <trkpt lat="48.63539" lon="-1.98976">
        <ele>10.71</ele>
        <time>2021-07-31T16:37:38Z</time>
      </trkpt>
      <trkpt lat="48.63533" lon="-1.9897">
        <ele>11.19</ele>
        <time>2021-07-31T16:37:39Z</time>
      </trkpt>
      <trkpt lat="48.63525" lon="-1.98967">
        <ele>11.67</ele>
        <time>2021-07-31T16:37:40Z</time>
      </trkpt>
      <trkpt lat="48.63516" lon="-1.98965">
        <ele>12.15</ele>
        <time>2021-07-31T16:37:41Z</time>
      </trkpt>
      <trkpt lat="48.63507" lon="-1.98963">
        <ele>12.63</ele>
        <time>2021-07-31T16:37:42Z</time>
      </trkpt>
      <trkpt lat="48.6334" lon="-1.98946">
        <ele>21.77</ele>
        <time>2021-07-31T16:37:58Z</time>
      </trkpt>
      <trkpt lat="48.63212" lon="-1.98932">
        <ele>24.17</ele>
        <time>2021-07-31T16:38:10Z</time>
      </trkpt>
      <trkpt lat="48.63127" lon="-1.98924">
        <ele>27.05</ele>
        <time>2021-07-31T16:38:21Z</time>
      </trkpt>
      <trkpt lat="48.62971" lon="-1.98908">
        <ele>30.9</ele>
        <time>2021-07-31T16:38:33Z</time>
      </trkpt>
      <trkpt lat="48.6277" lon="-1.98896">
        <ele>35.71</ele>
        <time>2021-07-31T16:38:48Z</time>
      </trkpt>
      <trkpt lat="48.6272" lon="-1.98899">
        <ele>37.15</ele>
        <time>2021-07-31T16:38:55Z</time>
      </trkpt>
      <trkpt lat="48.62662" lon="-1.98904">
        <ele>40.03</ele>
        <time>2021-07-31T16:39:07Z</time>
      </trkpt>
      <trkpt lat="48.62655" lon="-1.98905">
        <ele>40.03</ele>
        <time>2021-07-31T16:39:11Z</time>
      </trkpt>
      <trkpt lat="48.62652" lon="-1.98905">
        <ele>40.03</ele>
        <time>2021-07-31T16:39:12Z</time>
      </trkpt>
      <trkpt lat="48.62644" lon="-1.98912">
        <ele>40.51</ele>
        <time>2021-07-31T16:39:13Z</time>
      </trkpt>
      <trkpt lat="48.62642" lon="-1.98919">
        <ele>40.51</ele>
        <time>2021-07-31T16:39:14Z</time>
      </trkpt>
      <trkpt lat="48.6264" lon="-1.98926">
        <ele>40.51</ele>
        <time>2021-07-31T16:39:15Z</time>
      </trkpt>
      <trkpt lat="48.62636" lon="-1.98933">
        <ele>40.51</ele>
        <time>2021-07-31T16:39:16Z</time>
      </trkpt>
      <trkpt lat="48.62631" lon="-1.98938">
        <ele>40.99</ele>
        <time>2021-07-31T16:39:17Z</time>
      </trkpt>
      <trkpt lat="48.62624" lon="-1.98944">
        <ele>40.51</ele>
        <time>2021-07-31T16:39:18Z</time>
      </trkpt>
      <trkpt lat="48.62618" lon="-1.98951">
        <ele>40.51</ele>
        <time>2021-07-31T16:39:19Z</time>
      </trkpt>
      <trkpt lat="48.6261" lon="-1.98953">
        <ele>40.51</ele>
        <time>2021-07-31T16:39:20Z</time>
      </trkpt>
      <trkpt lat="48.62601" lon="-1.98953">
        <ele>40.51</ele>
        <time>2021-07-31T16:39:21Z</time>
      </trkpt>
      <trkpt lat="48.62592" lon="-1.98953">
        <ele>40.03</ele>
        <time>2021-07-31T16:39:22Z</time>
      </trkpt>
      <trkpt lat="48.62584" lon="-1.98947">
        <ele>39.55</ele>
        <time>2021-07-31T16:39:23Z</time>
      </trkpt>
      <trkpt lat="48.62575" lon="-1.98938">
        <ele>40.51</ele>
        <time>2021-07-31T16:39:24Z</time>
      </trkpt>
      <trkpt lat="48.62568" lon="-1.9893">
        <ele>40.99</ele>
        <time>2021-07-31T16:39:25Z</time>
      </trkpt>
      <trkpt lat="48.62565" lon="-1.98921">
        <ele>40.99</ele>
        <time>2021-07-31T16:39:26Z</time>
      </trkpt>
      <trkpt lat="48.6256" lon="-1.98911">
        <ele>41.47</ele>
        <time>2021-07-31T16:39:27Z</time>
      </trkpt>
      <trkpt lat="48.62552" lon="-1.98901">
        <ele>41.47</ele>
        <time>2021-07-31T16:39:28Z</time>
      </trkpt>
      <trkpt lat="48.62544" lon="-1.98897">
        <ele>41.95</ele>
        <time>2021-07-31T16:39:29Z</time>
      </trkpt>
      <trkpt lat="48.62536" lon="-1.98894">
        <ele>41.95</ele>
        <time>2021-07-31T16:39:30Z</time>
      </trkpt>
      <trkpt lat="48.62529" lon="-1.98892">
        <ele>41.47</ele>
        <time>2021-07-31T16:39:31Z</time>
      </trkpt>
      <trkpt lat="48.62521" lon="-1.98891">
        <ele>41.47</ele>
        <time>2021-07-31T16:39:32Z</time>
      </trkpt>
      <trkpt lat="48.62426" lon="-1.98889">
        <ele>40.51</ele>
        <time>2021-07-31T16:39:42Z</time>
      </trkpt>
      <trkpt lat="48.62255" lon="-1.98903">
        <ele>40.51</ele>
        <time>2021-07-31T16:39:55Z</time>
      </trkpt>
      <trkpt lat="48.62102" lon="-1.98983">
        <ele>36.19</ele>
        <time>2021-07-31T16:40:06Z</time>
      </trkpt>
      <trkpt lat="48.62001" lon="-1.99108">
        <ele>37.15</ele>
        <time>2021-07-31T16:40:15Z</time>
      </trkpt>
      <trkpt lat="48.61995" lon="-1.99123">
        <ele>37.15</ele>
        <time>2021-07-31T16:40:16Z</time>
      </trkpt>
      <trkpt lat="48.61989" lon="-1.99137">
        <ele>36.19</ele>
        <time>2021-07-31T16:40:17Z</time>
      </trkpt>
      <trkpt lat="48.61982" lon="-1.99151">
        <ele>36.19</ele>
        <time>2021-07-31T16:40:18Z</time>
      </trkpt>
      <trkpt lat="48.6198" lon="-1.99164">
        <ele>35.71</ele>
        <time>2021-07-31T16:40:19Z</time>
      </trkpt>
      <trkpt lat="48.6198" lon="-1.99199">
        <ele>35.23</ele>
        <time>2021-07-31T16:40:20Z</time>
      </trkpt>
      <trkpt lat="48.61985" lon="-1.99212">
        <ele>34.74</ele>
        <time>2021-07-31T16:40:21Z</time>
      </trkpt>
      <trkpt lat="48.61992" lon="-1.99224">
        <ele>34.26</ele>
        <time>2021-07-31T16:40:22Z</time>
      </trkpt>
      <trkpt lat="48.61992" lon="-1.99224">
        <ele>33.78</ele>
        <time>2021-07-31T16:40:23Z</time>
      </trkpt>
      <trkpt lat="48.62012" lon="-1.99241">
        <ele>33.3</ele>
        <time>2021-07-31T16:40:24Z</time>
      </trkpt>
      <trkpt lat="48.62012" lon="-1.99241">
        <ele>33.78</ele>
        <time>2021-07-31T16:40:25Z</time>
      </trkpt>
      <trkpt lat="48.62025" lon="-1.99246">
        <ele>33.78</ele>
        <time>2021-07-31T16:40:26Z</time>
      </trkpt>
      <trkpt lat="48.62051" lon="-1.99246">
        <ele>34.26</ele>
        <time>2021-07-31T16:40:27Z</time>
      </trkpt>
      <trkpt lat="48.62051" lon="-1.99246">
        <ele>35.23</ele>
        <time>2021-07-31T16:40:28Z</time>
      </trkpt>
      <trkpt lat="48.62075" lon="-1.99235">
        <ele>35.71</ele>
        <time>2021-07-31T16:40:29Z</time>
      </trkpt>
      <trkpt lat="48.62084" lon="-1.99224">
        <ele>37.15</ele>
        <time>2021-07-31T16:40:30Z</time>
      </trkpt>
      <trkpt lat="48.62092" lon="-1.99213">
        <ele>37.63</ele>
        <time>2021-07-31T16:40:31Z</time>
      </trkpt>
      <trkpt lat="48.62092" lon="-1.99213">
        <ele>38.59</ele>
        <time>2021-07-31T16:40:32Z</time>
      </trkpt>
      <trkpt lat="48.62097" lon="-1.99184">
        <ele>39.07</ele>
        <time>2021-07-31T16:40:33Z</time>
      </trkpt>
      <trkpt lat="48.62098" lon="-1.99169">
        <ele>39.55</ele>
        <time>2021-07-31T16:40:34Z</time>
      </trkpt>
      <trkpt lat="48.62098" lon="-1.99169">
        <ele>39.55</ele>
        <time>2021-07-31T16:40:35Z</time>
      </trkpt>
      <trkpt lat="48.62097" lon="-1.99156">
        <ele>39.07</ele>
        <time>2021-07-31T16:40:36Z</time>
      </trkpt>
      <trkpt lat="48.62095" lon="-1.99141">
        <ele>38.59</ele>
        <time>2021-07-31T16:40:37Z</time>
      </trkpt>
      <trkpt lat="48.62042" lon="-1.98979">
        <ele>37.63</ele>
        <time>2021-07-31T16:40:47Z</time>
      </trkpt>
      <trkpt lat="48.61957" lon="-1.98779">
        <ele>33.3</ele>
        <time>2021-07-31T16:40:57Z</time>
      </trkpt>
      <trkpt lat="48.61838" lon="-1.98645">
        <ele>32.82</ele>
        <time>2021-07-31T16:41:05Z</time>
      </trkpt>
      <trkpt lat="48.6162" lon="-1.98479">
        <ele>33.78</ele>
        <time>2021-07-31T16:41:19Z</time>
      </trkpt>
      <trkpt lat="48.61301" lon="-1.98244">
        <ele>41.47</ele>
        <time>2021-07-31T16:41:38Z</time>
      </trkpt>
      <trkpt lat="48.60887" lon="-1.9792">
        <ele>54.93</ele>
        <time>2021-07-31T16:42:01Z</time>
      </trkpt>
      <trkpt lat="48.6064" lon="-1.97649">
        <ele>47.72</ele>
        <time>2021-07-31T16:42:15Z</time>
      </trkpt>
      <trkpt lat="48.60478" lon="-1.97429">
        <ele>40.03</ele>
        <time>2021-07-31T16:42:26Z</time>
      </trkpt>
      <trkpt lat="48.6016" lon="-1.97009">
        <ele>29.94</ele>
        <time>2021-07-31T16:42:44Z</time>
      </trkpt>
      <trkpt lat="48.59855" lon="-1.96667">
        <ele>28.98</ele>
        <time>2021-07-31T16:43:00Z</time>
      </trkpt>
      <trkpt lat="48.5954" lon="-1.96358">
        <ele>21.77</ele>
        <time>2021-07-31T16:43:16Z</time>
      </trkpt>
      <trkpt lat="48.5928" lon="-1.96083">
        <ele>18.4</ele>
        <time>2021-07-31T16:43:29Z</time>
      </trkpt>
      <trkpt lat="48.58924" lon="-1.95649">
        <ele>33.78</ele>
        <time>2021-07-31T16:43:49Z</time>
      </trkpt>
      <trkpt lat="48.5867" lon="-1.95362">
        <ele>45.8</ele>
        <time>2021-07-31T16:44:03Z</time>
      </trkpt>
      <trkpt lat="48.58445" lon="-1.95207">
        <ele>38.59</ele>
        <time>2021-07-31T16:44:13Z</time>
      </trkpt>
      <trkpt lat="48.58053" lon="-1.94959">
        <ele>31.86</ele>
        <time>2021-07-31T16:44:30Z</time>
      </trkpt>
      <trkpt lat="48.57901" lon="-1.94797">
        <ele>40.51</ele>
        <time>2021-07-31T16:44:38Z</time>
      </trkpt>
      <trkpt lat="48.5776" lon="-1.9455">
        <ele>38.59</ele>
        <time>2021-07-31T16:44:47Z</time>
      </trkpt>
      <trkpt lat="48.57395" lon="-1.93855">
        <ele>16</ele>
        <time>2021-07-31T16:45:11Z</time>
      </trkpt>
      <trkpt lat="48.57121" lon="-1.93345">
        <ele>5.91</ele>
        <time>2021-07-31T16:45:28Z</time>
      </trkpt>
      <trkpt lat="48.56936" lon="-1.93098">
        <ele>15.04</ele>
        <time>2021-07-31T16:45:38Z</time>
      </trkpt>
      <trkpt lat="48.56778" lon="-1.92853">
        <ele>18.4</ele>
        <time>2021-07-31T16:45:47Z</time>
      </trkpt>
      <trkpt lat="48.56634" lon="-1.9263">
        <ele>12.15</ele>
        <time>2021-07-31T16:45:57Z</time>
      </trkpt>
      <trkpt lat="48.56502" lon="-1.9255">
        <ele>9.27</ele>
        <time>2021-07-31T16:46:03Z</time>
      </trkpt>
      <trkpt lat="48.56357" lon="-1.9255">
        <ele>8.79</ele>
        <time>2021-07-31T16:46:09Z</time>
      </trkpt>
      <trkpt lat="48.56208" lon="-1.92634">
        <ele>9.27</ele>
        <time>2021-07-31T16:46:16Z</time>
      </trkpt>
      <trkpt lat="48.55868" lon="-1.92894">
        <ele>8.31</ele>
        <time>2021-07-31T16:46:33Z</time>
      </trkpt>
      <trkpt lat="48.55745" lon="-1.92917">
        <ele>11.19</ele>
        <time>2021-07-31T16:46:39Z</time>
      </trkpt>
      <trkpt lat="48.5564" lon="-1.92892">
        <ele>13.6</ele>
        <time>2021-07-31T16:46:46Z</time>
      </trkpt>
      <trkpt lat="48.55491" lon="-1.92788">
        <ele>13.6</ele>
        <time>2021-07-31T16:46:55Z</time>
      </trkpt>
      <trkpt lat="48.55201" lon="-1.92583">
        <ele>18.88</ele>
        <time>2021-07-31T16:47:12Z</time>
      </trkpt>
      <trkpt lat="48.54923" lon="-1.92454">
        <ele>22.73</ele>
        <time>2021-07-31T16:47:28Z</time>
      </trkpt>
      <trkpt lat="48.54786" lon="-1.92435">
        <ele>23.69</ele>
        <time>2021-07-31T16:47:37Z</time>
      </trkpt>
      <trkpt lat="48.54658" lon="-1.92468">
        <ele>22.73</ele>
        <time>2021-07-31T16:47:46Z</time>
      </trkpt>
      <trkpt lat="48.54645" lon="-1.92476">
        <ele>22.73</ele>
        <time>2021-07-31T16:47:47Z</time>
      </trkpt>
      <trkpt lat="48.54633" lon="-1.92485">
        <ele>22.73</ele>
        <time>2021-07-31T16:47:48Z</time>
      </trkpt>
      <trkpt lat="48.5462" lon="-1.92493">
        <ele>22.73</ele>
        <time>2021-07-31T16:47:49Z</time>
      </trkpt>
      <trkpt lat="48.54611" lon="-1.92507">
        <ele>23.69</ele>
        <time>2021-07-31T16:47:50Z</time>
      </trkpt>
      <trkpt lat="48.54602" lon="-1.92523">
        <ele>24.65</ele>
        <time>2021-07-31T16:47:51Z</time>
      </trkpt>
      <trkpt lat="48.54583" lon="-1.92556">
        <ele>26.09</ele>
        <time>2021-07-31T16:47:52Z</time>
      </trkpt>
      <trkpt lat="48.54576" lon="-1.92576">
        <ele>24.65</ele>
        <time>2021-07-31T16:47:53Z</time>
      </trkpt>
      <trkpt lat="48.54569" lon="-1.92597">
        <ele>24.65</ele>
        <time>2021-07-31T16:47:54Z</time>
      </trkpt>
      <trkpt lat="48.54569" lon="-1.92597">
        <ele>24.17</ele>
        <time>2021-07-31T16:47:55Z</time>
      </trkpt>
      <trkpt lat="48.54499" lon="-1.92892">
        <ele>24.65</ele>
        <time>2021-07-31T16:48:08Z</time>
      </trkpt>
      <trkpt lat="48.5449" lon="-1.93008">
        <ele>24.65</ele>
        <time>2021-07-31T16:48:15Z</time>
      </trkpt>
      <trkpt lat="48.5449" lon="-1.93024">
        <ele>25.13</ele>
        <time>2021-07-31T16:48:22Z</time>
      </trkpt>
      <trkpt lat="48.54491" lon="-1.93053">
        <ele>25.61</ele>
        <time>2021-07-31T16:48:51Z</time>
      </trkpt>
      <trkpt lat="48.54492" lon="-1.93146">
        <ele>26.09</ele>
        <time>2021-07-31T16:49:02Z</time>
      </trkpt>
      <trkpt lat="48.54494" lon="-1.93316">
        <ele>27.53</ele>
        <time>2021-07-31T16:49:15Z</time>
      </trkpt>
      <trkpt lat="48.54498" lon="-1.935">
        <ele>28.02</ele>
        <time>2021-07-31T16:49:27Z</time>
      </trkpt>
      <trkpt lat="48.54495" lon="-1.93774">
        <ele>26.57</ele>
        <time>2021-07-31T16:49:43Z</time>
      </trkpt>
      <trkpt lat="48.54487" lon="-1.93897">
        <ele>24.17</ele>
        <time>2021-07-31T16:49:51Z</time>
      </trkpt>
      <trkpt lat="48.54466" lon="-1.94125">
        <ele>21.77</ele>
        <time>2021-07-31T16:50:09Z</time>
      </trkpt>
      <trkpt lat="48.54425" lon="-1.94358">
        <ele>21.29</ele>
        <time>2021-07-31T16:50:28Z</time>
      </trkpt>
      <trkpt lat="48.54363" lon="-1.9464">
        <ele>25.61</ele>
        <time>2021-07-31T16:50:46Z</time>
      </trkpt>
      <trkpt lat="48.54348" lon="-1.9471">
        <ele>26.57</ele>
        <time>2021-07-31T16:50:53Z</time>
      </trkpt>
      <trkpt lat="48.54345" lon="-1.94721">
        <ele>27.05</ele>
        <time>2021-07-31T16:51:09Z</time>
      </trkpt>
      <trkpt lat="48.54331" lon="-1.94786">
        <ele>28.5</ele>
        <time>2021-07-31T16:51:22Z</time>
      </trkpt>
      <trkpt lat="48.54311" lon="-1.9487">
        <ele>30.42</ele>
        <time>2021-07-31T16:51:39Z</time>
      </trkpt>
      <trkpt lat="48.54288" lon="-1.94969">
        <ele>32.82</ele>
        <time>2021-07-31T16:51:51Z</time>
      </trkpt>
      <trkpt lat="48.5424" lon="-1.95172">
        <ele>36.19</ele>
        <time>2021-07-31T16:52:04Z</time>
      </trkpt>
      <trkpt lat="48.54181" lon="-1.95433">
        <ele>39.55</ele>
        <time>2021-07-31T16:52:19Z</time>
      </trkpt>
      <trkpt lat="48.54138" lon="-1.95615">
        <ele>40.03</ele>
        <time>2021-07-31T16:52:29Z</time>
      </trkpt>
      <trkpt lat="48.54094" lon="-1.95805">
        <ele>39.07</ele>
        <time>2021-07-31T16:52:40Z</time>
      </trkpt>
      <trkpt lat="48.54081" lon="-1.95862">
        <ele>38.59</ele>
        <time>2021-07-31T16:52:46Z</time>
      </trkpt>
      <trkpt lat="48.54059" lon="-1.95953">
        <ele>39.07</ele>
        <time>2021-07-31T16:53:02Z</time>
      </trkpt>
      <trkpt lat="48.5404" lon="-1.96037">
        <ele>38.59</ele>
        <time>2021-07-31T16:53:17Z</time>
      </trkpt>
      <trkpt lat="48.53997" lon="-1.96189">
        <ele>36.67</ele>
        <time>2021-07-31T16:53:35Z</time>
      </trkpt>
      <trkpt lat="48.53916" lon="-1.96423">
        <ele>34.26</ele>
        <time>2021-07-31T16:53:57Z</time>
      </trkpt>
      <trkpt lat="48.53854" lon="-1.96585">
        <ele>33.3</ele>
        <time>2021-07-31T16:54:15Z</time>
      </trkpt>
      <trkpt lat="48.53816" lon="-1.96692">
        <ele>33.3</ele>
        <time>2021-07-31T16:54:32Z</time>
      </trkpt>
      <trkpt lat="48.53786" lon="-1.96797">
        <ele>33.78</ele>
        <time>2021-07-31T16:54:47Z</time>
      </trkpt>
      <trkpt lat="48.53765" lon="-1.96894">
        <ele>34.74</ele>
        <time>2021-07-31T16:55:04Z</time>
      </trkpt>
      <trkpt lat="48.5375" lon="-1.96985">
        <ele>35.71</ele>
        <time>2021-07-31T16:55:15Z</time>
      </trkpt>
      <trkpt lat="48.53721" lon="-1.97157">
        <ele>35.71</ele>
        <time>2021-07-31T16:55:27Z</time>
      </trkpt>
      <trkpt lat="48.53669" lon="-1.97461">
        <ele>39.07</ele>
        <time>2021-07-31T16:55:43Z</time>
      </trkpt>
      <trkpt lat="48.53653" lon="-1.97741">
        <ele>39.07</ele>
        <time>2021-07-31T16:55:54Z</time>
      </trkpt>
      <trkpt lat="48.53673" lon="-1.98166">
        <ele>52.05</ele>
        <time>2021-07-31T16:56:10Z</time>
      </trkpt>
      <trkpt lat="48.53699" lon="-1.98648">
        <ele>51.57</ele>
        <time>2021-07-31T16:56:25Z</time>
      </trkpt>
      <trkpt lat="48.5371" lon="-1.99093">
        <ele>53.97</ele>
        <time>2021-07-31T16:56:39Z</time>
      </trkpt>
      <trkpt lat="48.53692" lon="-1.99691">
        <ele>47.24</ele>
        <time>2021-07-31T16:56:55Z</time>
      </trkpt>
      <trkpt lat="48.53643" lon="-2.00241">
        <ele>48.68</ele>
        <time>2021-07-31T16:57:10Z</time>
      </trkpt>
      <trkpt lat="48.53576" lon="-2.00741">
        <ele>54.93</ele>
        <time>2021-07-31T16:57:25Z</time>
      </trkpt>
      <trkpt lat="48.53494" lon="-2.01194">
        <ele>64.55</ele>
        <time>2021-07-31T16:57:40Z</time>
      </trkpt>
      <trkpt lat="48.53346" lon="-2.01858">
        <ele>77.52</ele>
        <time>2021-07-31T16:58:01Z</time>
      </trkpt>
      <trkpt lat="48.53209" lon="-2.02311">
        <ele>86.66</ele>
        <time>2021-07-31T16:58:17Z</time>
      </trkpt>
      <trkpt lat="48.53014" lon="-2.02776">
        <ele>90.98</ele>
        <time>2021-07-31T16:58:33Z</time>
      </trkpt>
      <trkpt lat="48.52791" lon="-2.03209">
        <ele>86.18</ele>
        <time>2021-07-31T16:58:49Z</time>
      </trkpt>
      <trkpt lat="48.52619" lon="-2.03458">
        <ele>83.29</ele>
        <time>2021-07-31T16:58:59Z</time>
      </trkpt>
      <trkpt lat="48.52425" lon="-2.03645">
        <ele>79.93</ele>
        <time>2021-07-31T16:59:09Z</time>
      </trkpt>
      <trkpt lat="48.5222" lon="-2.03767">
        <ele>75.6</ele>
        <time>2021-07-31T16:59:19Z</time>
      </trkpt>
      <trkpt lat="48.52003" lon="-2.03829">
        <ele>66.95</ele>
        <time>2021-07-31T16:59:29Z</time>
      </trkpt>
      <trkpt lat="48.5169" lon="-2.03871">
        <ele>55.89</ele>
        <time>2021-07-31T16:59:42Z</time>
      </trkpt>
      <trkpt lat="48.51227" lon="-2.03928">
        <ele>64.55</ele>
        <time>2021-07-31T17:00:01Z</time>
      </trkpt>
      <trkpt lat="48.50825" lon="-2.03946">
        <ele>69.83</ele>
        <time>2021-07-31T17:00:18Z</time>
      </trkpt>
      <trkpt lat="48.50463" lon="-2.03932">
        <ele>66.47</ele>
        <time>2021-07-31T17:00:33Z</time>
      </trkpt>
      <trkpt lat="48.50134" lon="-2.03978">
        <ele>57.34</ele>
        <time>2021-07-31T17:00:46Z</time>
      </trkpt>
      <trkpt lat="48.49571" lon="-2.04087">
        <ele>60.7</ele>
        <time>2021-07-31T17:01:08Z</time>
      </trkpt>
      <trkpt lat="48.49189" lon="-2.04138">
        <ele>70.31</ele>
        <time>2021-07-31T17:01:26Z</time>
      </trkpt>
      <trkpt lat="48.48868" lon="-2.04149">
        <ele>74.16</ele>
        <time>2021-07-31T17:01:40Z</time>
      </trkpt>
      <trkpt lat="48.48466" lon="-2.04184">
        <ele>67.43</ele>
        <time>2021-07-31T17:01:56Z</time>
      </trkpt>
      <trkpt lat="48.4822" lon="-2.04291">
        <ele>55.89</ele>
        <time>2021-07-31T17:02:06Z</time>
      </trkpt>
      <trkpt lat="48.47776" lon="-2.04561">
        <ele>51.57</ele>
        <time>2021-07-31T17:02:25Z</time>
      </trkpt>
      <trkpt lat="48.47504" lon="-2.04775">
        <ele>56.37</ele>
        <time>2021-07-31T17:02:38Z</time>
      </trkpt>
      <trkpt lat="48.47299" lon="-2.05043">
        <ele>59.26</ele>
        <time>2021-07-31T17:02:49Z</time>
      </trkpt>
      <trkpt lat="48.47165" lon="-2.05306">
        <ele>63.1</ele>
        <time>2021-07-31T17:03:00Z</time>
      </trkpt>
      <trkpt lat="48.47033" lon="-2.05691">
        <ele>67.43</ele>
        <time>2021-07-31T17:03:13Z</time>
      </trkpt>
      <trkpt lat="48.46897" lon="-2.05999">
        <ele>73.2</ele>
        <time>2021-07-31T17:03:24Z</time>
      </trkpt>
      <trkpt lat="48.4671" lon="-2.06291">
        <ele>73.68</ele>
        <time>2021-07-31T17:03:36Z</time>
      </trkpt>
      <trkpt lat="48.46338" lon="-2.0683">
        <ele>85.69</ele>
        <time>2021-07-31T17:03:59Z</time>
      </trkpt>
      <trkpt lat="48.45922" lon="-2.07444">
        <ele>102.52</ele>
        <time>2021-07-31T17:04:25Z</time>
      </trkpt>
      <trkpt lat="48.45656" lon="-2.0791">
        <ele>111.17</ele>
        <time>2021-07-31T17:04:43Z</time>
      </trkpt>
      <trkpt lat="48.45321" lon="-2.08509">
        <ele>117.9</ele>
        <time>2021-07-31T17:05:05Z</time>
      </trkpt>
      <trkpt lat="48.45034" lon="-2.09027">
        <ele>121.74</ele>
        <time>2021-07-31T17:05:24Z</time>
      </trkpt>
      <trkpt lat="48.44953" lon="-2.09231">
        <ele>125.11</ele>
        <time>2021-07-31T17:05:32Z</time>
      </trkpt>
      <trkpt lat="48.44936" lon="-2.093">
        <ele>128.47</ele>
        <time>2021-07-31T17:05:38Z</time>
      </trkpt>
      <trkpt lat="48.44933" lon="-2.09335">
        <ele>128.47</ele>
        <time>2021-07-31T17:05:41Z</time>
      </trkpt>
      <trkpt lat="48.44933" lon="-2.09345">
        <ele>128.47</ele>
        <time>2021-07-31T17:05:42Z</time>
      </trkpt>
      <trkpt lat="48.44932" lon="-2.09351">
        <ele>128.47</ele>
        <time>2021-07-31T17:05:43Z</time>
      </trkpt>
      <trkpt lat="48.44941" lon="-2.09366">
        <ele>127.99</ele>
        <time>2021-07-31T17:05:51Z</time>
      </trkpt>
      <trkpt lat="48.44947" lon="-2.09376">
        <ele>127.51</ele>
        <time>2021-07-31T17:05:52Z</time>
      </trkpt>
      <trkpt lat="48.44947" lon="-2.09381">
        <ele>127.51</ele>
        <time>2021-07-31T17:05:53Z</time>
      </trkpt>
      <trkpt lat="48.44947" lon="-2.09388">
        <ele>127.03</ele>
        <time>2021-07-31T17:05:54Z</time>
      </trkpt>
      <trkpt lat="48.44947" lon="-2.09395">
        <ele>127.03</ele>
        <time>2021-07-31T17:05:55Z</time>
      </trkpt>
      <trkpt lat="48.44939" lon="-2.09401">
        <ele>127.51</ele>
        <time>2021-07-31T17:05:56Z</time>
      </trkpt>
      <trkpt lat="48.44934" lon="-2.09406">
        <ele>127.99</ele>
        <time>2021-07-31T17:05:57Z</time>
      </trkpt>
      <trkpt lat="48.44932" lon="-2.09408">
        <ele>127.99</ele>
        <time>2021-07-31T17:05:58Z</time>
      </trkpt>
      <trkpt lat="48.44927" lon="-2.09402">
        <ele>127.99</ele>
        <time>2021-07-31T17:05:59Z</time>
      </trkpt>
      <trkpt lat="48.44922" lon="-2.09397">
        <ele>128.47</ele>
        <time>2021-07-31T17:06:00Z</time>
      </trkpt>
      <trkpt lat="48.44919" lon="-2.09395">
        <ele>128.47</ele>
        <time>2021-07-31T17:06:01Z</time>
      </trkpt>
      <trkpt lat="48.44919" lon="-2.09389">
        <ele>128.47</ele>
        <time>2021-07-31T17:06:02Z</time>
      </trkpt>
      <trkpt lat="48.44906" lon="-2.09364">
        <ele>128.95</ele>
        <time>2021-07-31T17:06:03Z</time>
      </trkpt>
      <trkpt lat="48.44899" lon="-2.09358">
        <ele>128.95</ele>
        <time>2021-07-31T17:06:04Z</time>
      </trkpt>
      <trkpt lat="48.44899" lon="-2.09358">
        <ele>128.95</ele>
        <time>2021-07-31T17:06:05Z</time>
      </trkpt>
      <trkpt lat="48.44892" lon="-2.09351">
        <ele>128.95</ele>
        <time>2021-07-31T17:06:06Z</time>
      </trkpt>
      <trkpt lat="48.44791" lon="-2.09265">
        <ele>127.03</ele>
        <time>2021-07-31T17:06:17Z</time>
      </trkpt>
      <trkpt lat="48.44701" lon="-2.09181">
        <ele>125.11</ele>
        <time>2021-07-31T17:06:27Z</time>
      </trkpt>
      <trkpt lat="48.44695" lon="-2.09174">
        <ele>125.11</ele>
        <time>2021-07-31T17:06:28Z</time>
      </trkpt>
      <trkpt lat="48.44682" lon="-2.09166">
        <ele>124.63</ele>
        <time>2021-07-31T17:06:33Z</time>
      </trkpt>
      <trkpt lat="48.4468" lon="-2.09169">
        <ele>124.15</ele>
        <time>2021-07-31T17:06:34Z</time>
      </trkpt>
      <trkpt lat="48.44671" lon="-2.09181">
        <ele>124.15</ele>
        <time>2021-07-31T17:06:36Z</time>
      </trkpt>
      <trkpt lat="48.44665" lon="-2.09182">
        <ele>124.15</ele>
        <time>2021-07-31T17:06:37Z</time>
      </trkpt>
      <trkpt lat="48.44658" lon="-2.09185">
        <ele>124.15</ele>
        <time>2021-07-31T17:06:38Z</time>
      </trkpt>
      <trkpt lat="48.44648" lon="-2.09184">
        <ele>124.63</ele>
        <time>2021-07-31T17:06:39Z</time>
      </trkpt>
      <trkpt lat="48.44635" lon="-2.09174">
        <ele>124.63</ele>
        <time>2021-07-31T17:06:40Z</time>
      </trkpt>
      <trkpt lat="48.44629" lon="-2.09163">
        <ele>125.11</ele>
        <time>2021-07-31T17:06:41Z</time>
      </trkpt>
      <trkpt lat="48.44629" lon="-2.09163">
        <ele>125.11</ele>
        <time>2021-07-31T17:06:42Z</time>
      </trkpt>
      <trkpt lat="48.44627" lon="-2.09152">
        <ele>125.59</ele>
        <time>2021-07-31T17:06:43Z</time>
      </trkpt>
      <trkpt lat="48.44618" lon="-2.09126">
        <ele>125.11</ele>
        <time>2021-07-31T17:06:44Z</time>
      </trkpt>
      <trkpt lat="48.4461" lon="-2.09121">
        <ele>125.11</ele>
        <time>2021-07-31T17:06:45Z</time>
      </trkpt>
      <trkpt lat="48.44601" lon="-2.09114">
        <ele>125.11</ele>
        <time>2021-07-31T17:06:46Z</time>
      </trkpt>
      <trkpt lat="48.44512" lon="-2.09046">
        <ele>123.67</ele>
        <time>2021-07-31T17:06:55Z</time>
      </trkpt>
      <trkpt lat="48.44375" lon="-2.08946">
        <ele>120.78</ele>
        <time>2021-07-31T17:07:04Z</time>
      </trkpt>
      <trkpt lat="48.44166" lon="-2.08855">
        <ele>118.86</ele>
        <time>2021-07-31T17:07:15Z</time>
      </trkpt>
      <trkpt lat="48.43958" lon="-2.08837">
        <ele>116.46</ele>
        <time>2021-07-31T17:07:25Z</time>
      </trkpt>
      <trkpt lat="48.43614" lon="-2.08849">
        <ele>113.57</ele>
        <time>2021-07-31T17:07:42Z</time>
      </trkpt>
      <trkpt lat="48.43196" lon="-2.08863">
        <ele>106.84</ele>
        <time>2021-07-31T17:08:02Z</time>
      </trkpt>
      <trkpt lat="48.42953" lon="-2.08871">
        <ele>105.4</ele>
        <time>2021-07-31T17:08:14Z</time>
      </trkpt>
      <trkpt lat="48.4291" lon="-2.08878">
        <ele>102.04</ele>
        <time>2021-07-31T17:08:19Z</time>
      </trkpt>
      <trkpt lat="48.42897" lon="-2.08887">
        <ele>101.56</ele>
        <time>2021-07-31T17:08:20Z</time>
      </trkpt>
      <trkpt lat="48.42897" lon="-2.08887">
        <ele>101.56</ele>
        <time>2021-07-31T17:08:21Z</time>
      </trkpt>
      <trkpt lat="48.42891" lon="-2.08894">
        <ele>102.52</ele>
        <time>2021-07-31T17:08:22Z</time>
      </trkpt>
      <trkpt lat="48.4288" lon="-2.0891">
        <ele>102.52</ele>
        <time>2021-07-31T17:08:23Z</time>
      </trkpt>
      <trkpt lat="48.4287" lon="-2.08931">
        <ele>103.48</ele>
        <time>2021-07-31T17:08:25Z</time>
      </trkpt>
      <trkpt lat="48.4287" lon="-2.08931">
        <ele>103.96</ele>
        <time>2021-07-31T17:08:26Z</time>
      </trkpt>
      <trkpt lat="48.42855" lon="-2.08939">
        <ele>104.44</ele>
        <time>2021-07-31T17:08:27Z</time>
      </trkpt>
      <trkpt lat="48.42855" lon="-2.08939">
        <ele>103.96</ele>
        <time>2021-07-31T17:08:28Z</time>
      </trkpt>
      <trkpt lat="48.42848" lon="-2.08942">
        <ele>103.48</ele>
        <time>2021-07-31T17:08:29Z</time>
      </trkpt>
      <trkpt lat="48.42833" lon="-2.08937">
        <ele>103.48</ele>
        <time>2021-07-31T17:08:30Z</time>
      </trkpt>
      <trkpt lat="48.42833" lon="-2.08937">
        <ele>103.48</ele>
        <time>2021-07-31T17:08:31Z</time>
      </trkpt>
      <trkpt lat="48.42826" lon="-2.08928">
        <ele>103.48</ele>
        <time>2021-07-31T17:08:32Z</time>
      </trkpt>
      <trkpt lat="48.42821" lon="-2.08918">
        <ele>103.96</ele>
        <time>2021-07-31T17:08:33Z</time>
      </trkpt>
      <trkpt lat="48.42815" lon="-2.08891">
        <ele>103.48</ele>
        <time>2021-07-31T17:08:34Z</time>
      </trkpt>
      <trkpt lat="48.42793" lon="-2.08884">
        <ele>103</ele>
        <time>2021-07-31T17:08:35Z</time>
      </trkpt>
      <trkpt lat="48.42793" lon="-2.08884">
        <ele>102.52</ele>
        <time>2021-07-31T17:08:36Z</time>
      </trkpt>
      <trkpt lat="48.4277" lon="-2.08882">
        <ele>102.52</ele>
        <time>2021-07-31T17:08:37Z</time>
      </trkpt>
      <trkpt lat="48.42656" lon="-2.08884">
        <ele>100.6</ele>
        <time>2021-07-31T17:08:46Z</time>
      </trkpt>
      <trkpt lat="48.42436" lon="-2.08888">
        <ele>97.23</ele>
        <time>2021-07-31T17:08:58Z</time>
      </trkpt>
      <trkpt lat="48.42129" lon="-2.08867">
        <ele>100.11</ele>
        <time>2021-07-31T17:09:13Z</time>
      </trkpt>
      <trkpt lat="48.41602" lon="-2.08826">
        <ele>99.15</ele>
        <time>2021-07-31T17:09:38Z</time>
      </trkpt>
      <trkpt lat="48.41258" lon="-2.08799">
        <ele>97.23</ele>
        <time>2021-07-31T17:09:55Z</time>
      </trkpt>
      <trkpt lat="48.40963" lon="-2.08745">
        <ele>96.27</ele>
        <time>2021-07-31T17:10:09Z</time>
      </trkpt>
      <trkpt lat="48.40415" lon="-2.08647">
        <ele>93.87</ele>
        <time>2021-07-31T17:10:38Z</time>
      </trkpt>
      <trkpt lat="48.40062" lon="-2.08606">
        <ele>89.54</ele>
        <time>2021-07-31T17:10:56Z</time>
      </trkpt>
      <trkpt lat="48.39811" lon="-2.08583">
        <ele>77.52</ele>
        <time>2021-07-31T17:11:08Z</time>
      </trkpt>
      <trkpt lat="48.39521" lon="-2.08499">
        <ele>64.55</ele>
        <time>2021-07-31T17:11:22Z</time>
      </trkpt>
      <trkpt lat="48.39291" lon="-2.08437">
        <ele>51.09</ele>
        <time>2021-07-31T17:11:34Z</time>
      </trkpt>
      <trkpt lat="48.39076" lon="-2.08477">
        <ele>42.44</ele>
        <time>2021-07-31T17:11:46Z</time>
      </trkpt>
      <trkpt lat="48.39059" lon="-2.08486">
        <ele>44.36</ele>
        <time>2021-07-31T17:11:47Z</time>
      </trkpt>
      <trkpt lat="48.39043" lon="-2.085">
        <ele>48.68</ele>
        <time>2021-07-31T17:11:48Z</time>
      </trkpt>
      <trkpt lat="48.38889" lon="-2.08646">
        <ele>57.34</ele>
        <time>2021-07-31T17:11:58Z</time>
      </trkpt>
      <trkpt lat="48.38746" lon="-2.08761">
        <ele>67.91</ele>
        <time>2021-07-31T17:12:08Z</time>
      </trkpt>
      <trkpt lat="48.3859" lon="-2.08799">
        <ele>75.6</ele>
        <time>2021-07-31T17:12:17Z</time>
      </trkpt>
      <trkpt lat="48.38353" lon="-2.08832">
        <ele>81.85</ele>
        <time>2021-07-31T17:12:29Z</time>
      </trkpt>
      <trkpt lat="48.38146" lon="-2.08924">
        <ele>78</ele>
        <time>2021-07-31T17:12:39Z</time>
      </trkpt>
      <trkpt lat="48.37833" lon="-2.09115">
        <ele>67.91</ele>
        <time>2021-07-31T17:12:54Z</time>
      </trkpt>
      <trkpt lat="48.37595" lon="-2.09305">
        <ele>70.79</ele>
        <time>2021-07-31T17:13:07Z</time>
      </trkpt>
      <trkpt lat="48.37256" lon="-2.09563">
        <ele>75.12</ele>
        <time>2021-07-31T17:13:26Z</time>
      </trkpt>
      <trkpt lat="48.37006" lon="-2.09674">
        <ele>76.08</ele>
        <time>2021-07-31T17:13:37Z</time>
      </trkpt>
      <trkpt lat="48.36766" lon="-2.09715">
        <ele>70.79</ele>
        <time>2021-07-31T17:13:49Z</time>
      </trkpt>
      <trkpt lat="48.36329" lon="-2.09747">
        <ele>55.89</ele>
        <time>2021-07-31T17:14:09Z</time>
      </trkpt>
      <trkpt lat="48.35895" lon="-2.09784">
        <ele>41.47</ele>
        <time>2021-07-31T17:14:30Z</time>
      </trkpt>
      <trkpt lat="48.3564" lon="-2.09861">
        <ele>42.92</ele>
        <time>2021-07-31T17:14:43Z</time>
      </trkpt>
      <trkpt lat="48.35363" lon="-2.09906">
        <ele>47.24</ele>
        <time>2021-07-31T17:14:57Z</time>
      </trkpt>
      <trkpt lat="48.35075" lon="-2.09963">
        <ele>49.16</ele>
        <time>2021-07-31T17:15:12Z</time>
      </trkpt>
      <trkpt lat="48.34807" lon="-2.10097">
        <ele>51.09</ele>
        <time>2021-07-31T17:15:26Z</time>
      </trkpt>
      <trkpt lat="48.3457" lon="-2.10296">
        <ele>53.97</ele>
        <time>2021-07-31T17:15:40Z</time>
      </trkpt>
      <trkpt lat="48.34416" lon="-2.1039">
        <ele>58.3</ele>
        <time>2021-07-31T17:15:48Z</time>
      </trkpt>
      <trkpt lat="48.34172" lon="-2.10475">
        <ele>67.91</ele>
        <time>2021-07-31T17:16:01Z</time>
      </trkpt>
      <trkpt lat="48.33988" lon="-2.10605">
        <ele>70.79</ele>
        <time>2021-07-31T17:16:11Z</time>
      </trkpt>
      <trkpt lat="48.33794" lon="-2.10834">
        <ele>69.83</ele>
        <time>2021-07-31T17:16:22Z</time>
      </trkpt>
      <trkpt lat="48.33471" lon="-2.11237">
        <ele>65.51</ele>
        <time>2021-07-31T17:16:38Z</time>
      </trkpt>
      <trkpt lat="48.33171" lon="-2.11504">
        <ele>71.76</ele>
        <time>2021-07-31T17:16:53Z</time>
      </trkpt>
      <trkpt lat="48.32882" lon="-2.11723">
        <ele>78.48</ele>
        <time>2021-07-31T17:17:07Z</time>
      </trkpt>
      <trkpt lat="48.3262" lon="-2.11893">
        <ele>77.04</ele>
        <time>2021-07-31T17:17:20Z</time>
      </trkpt>
      <trkpt lat="48.32333" lon="-2.12018">
        <ele>73.68</ele>
        <time>2021-07-31T17:17:33Z</time>
      </trkpt>
      <trkpt lat="48.32055" lon="-2.12079">
        <ele>70.31</ele>
        <time>2021-07-31T17:17:44Z</time>
      </trkpt>
      <trkpt lat="48.3191" lon="-2.12171">
        <ele>66.47</ele>
        <time>2021-07-31T17:17:52Z</time>
      </trkpt>
      <trkpt lat="48.31759" lon="-2.12339">
        <ele>61.66</ele>
        <time>2021-07-31T17:18:01Z</time>
      </trkpt>
      <trkpt lat="48.3162" lon="-2.12553">
        <ele>55.89</ele>
        <time>2021-07-31T17:18:11Z</time>
      </trkpt>
      <trkpt lat="48.31398" lon="-2.12951">
        <ele>46.76</ele>
        <time>2021-07-31T17:18:27Z</time>
      </trkpt>
      <trkpt lat="48.31264" lon="-2.13095">
        <ele>48.2</ele>
        <time>2021-07-31T17:18:35Z</time>
      </trkpt>
      <trkpt lat="48.3108" lon="-2.1319">
        <ele>52.05</ele>
        <time>2021-07-31T17:18:45Z</time>
      </trkpt>
      <trkpt lat="48.30952" lon="-2.13254">
        <ele>56.86</ele>
        <time>2021-07-31T17:18:53Z</time>
      </trkpt>
      <trkpt lat="48.30839" lon="-2.13355">
        <ele>64.07</ele>
        <time>2021-07-31T17:19:01Z</time>
      </trkpt>
      <trkpt lat="48.30737" lon="-2.13521">
        <ele>65.03</ele>
        <time>2021-07-31T17:19:09Z</time>
      </trkpt>
      <trkpt lat="48.30541" lon="-2.13926">
        <ele>64.07</ele>
        <time>2021-07-31T17:19:27Z</time>
      </trkpt>
      <trkpt lat="48.30513" lon="-2.13981">
        <ele>65.51</ele>
        <time>2021-07-31T17:19:32Z</time>
      </trkpt>
      <trkpt lat="48.30508" lon="-2.13989">
        <ele>66.47</ele>
        <time>2021-07-31T17:19:39Z</time>
      </trkpt>
      <trkpt lat="48.30492" lon="-2.14014">
        <ele>67.43</ele>
        <time>2021-07-31T17:23:27Z</time>
      </trkpt>
      <trkpt lat="48.30455" lon="-2.14063">
        <ele>68.39</ele>
        <time>2021-07-31T17:23:35Z</time>
      </trkpt>
      <trkpt lat="48.3045" lon="-2.14068">
        <ele>68.39</ele>
        <time>2021-07-31T17:23:36Z</time>
      </trkpt>
      <trkpt lat="48.30435" lon="-2.14107">
        <ele>68.39</ele>
        <time>2021-07-31T17:23:37Z</time>
      </trkpt>
      <trkpt lat="48.30436" lon="-2.14116">
        <ele>68.39</ele>
        <time>2021-07-31T17:23:38Z</time>
      </trkpt>
      <trkpt lat="48.30437" lon="-2.14125">
        <ele>68.87</ele>
        <time>2021-07-31T17:23:39Z</time>
      </trkpt>
      <trkpt lat="48.30446" lon="-2.14137">
        <ele>68.87</ele>
        <time>2021-07-31T17:23:40Z</time>
      </trkpt>
      <trkpt lat="48.30448" lon="-2.14145">
        <ele>68.87</ele>
        <time>2021-07-31T17:23:41Z</time>
      </trkpt>
      <trkpt lat="48.30448" lon="-2.14146">
        <ele>69.35</ele>
        <time>2021-07-31T17:23:42Z</time>
      </trkpt>
      <trkpt lat="48.30446" lon="-2.14154">
        <ele>69.35</ele>
        <time>2021-07-31T17:23:43Z</time>
      </trkpt>
      <trkpt lat="48.30438" lon="-2.14162">
        <ele>69.35</ele>
        <time>2021-07-31T17:23:44Z</time>
      </trkpt>
      <trkpt lat="48.30438" lon="-2.14162">
        <ele>68.87</ele>
        <time>2021-07-31T17:23:45Z</time>
      </trkpt>
      <trkpt lat="48.30432" lon="-2.14159">
        <ele>68.39</ele>
        <time>2021-07-31T17:23:46Z</time>
      </trkpt>
      <trkpt lat="48.30427" lon="-2.14154">
        <ele>68.39</ele>
        <time>2021-07-31T17:23:47Z</time>
      </trkpt>
      <trkpt lat="48.30427" lon="-2.14154">
        <ele>67.91</ele>
        <time>2021-07-31T17:23:48Z</time>
      </trkpt>
      <trkpt lat="48.30427" lon="-2.14154">
        <ele>67.91</ele>
        <time>2021-07-31T17:23:49Z</time>
      </trkpt>
      <trkpt lat="48.30427" lon="-2.14154">
        <ele>67.91</ele>
        <time>2021-07-31T17:23:50Z</time>
      </trkpt>
      <trkpt lat="48.30399" lon="-2.14121">
        <ele>67.91</ele>
        <time>2021-07-31T17:23:51Z</time>
      </trkpt>
      <trkpt lat="48.30394" lon="-2.14126">
        <ele>68.87</ele>
        <time>2021-07-31T17:23:52Z</time>
      </trkpt>
      <trkpt lat="48.3038" lon="-2.14141">
        <ele>68.87</ele>
        <time>2021-07-31T17:23:53Z</time>
      </trkpt>
      <trkpt lat="48.3038" lon="-2.14141">
        <ele>68.87</ele>
        <time>2021-07-31T17:23:54Z</time>
      </trkpt>
      <trkpt lat="48.30371" lon="-2.1415">
        <ele>68.39</ele>
        <time>2021-07-31T17:23:55Z</time>
      </trkpt>
      <trkpt lat="48.30361" lon="-2.14158">
        <ele>67.91</ele>
        <time>2021-07-31T17:23:56Z</time>
      </trkpt>
      <trkpt lat="48.30239" lon="-2.14277">
        <ele>69.83</ele>
        <time>2021-07-31T17:24:07Z</time>
      </trkpt>
      <trkpt lat="48.30145" lon="-2.1442">
        <ele>72.24</ele>
        <time>2021-07-31T17:24:17Z</time>
      </trkpt>
      <trkpt lat="48.3003" lon="-2.14632">
        <ele>69.83</ele>
        <time>2021-07-31T17:24:30Z</time>
      </trkpt>
      <trkpt lat="48.29878" lon="-2.14882">
        <ele>66.47</ele>
        <time>2021-07-31T17:24:47Z</time>
      </trkpt>
      <trkpt lat="48.29715" lon="-2.15152">
        <ele>61.66</ele>
        <time>2021-07-31T17:25:05Z</time>
      </trkpt>
      <trkpt lat="48.2961" lon="-2.15263">
        <ele>62.62</ele>
        <time>2021-07-31T17:25:14Z</time>
      </trkpt>
      <trkpt lat="48.29464" lon="-2.15367">
        <ele>65.99</ele>
        <time>2021-07-31T17:25:25Z</time>
      </trkpt>
      <trkpt lat="48.29283" lon="-2.15389">
        <ele>71.27</ele>
        <time>2021-07-31T17:25:38Z</time>
      </trkpt>
      <trkpt lat="48.291" lon="-2.15401">
        <ele>76.08</ele>
        <time>2021-07-31T17:25:53Z</time>
      </trkpt>
      <trkpt lat="48.28977" lon="-2.15413">
        <ele>75.12</ele>
        <time>2021-07-31T17:26:07Z</time>
      </trkpt>
      <trkpt lat="48.28922" lon="-2.15432">
        <ele>76.08</ele>
        <time>2021-07-31T17:26:16Z</time>
      </trkpt>
      <trkpt lat="48.28885" lon="-2.15443">
        <ele>77.52</ele>
        <time>2021-07-31T17:26:24Z</time>
      </trkpt>
      <trkpt lat="48.2888" lon="-2.15445">
        <ele>77.04</ele>
        <time>2021-07-31T17:26:25Z</time>
      </trkpt>
      <trkpt lat="48.28832" lon="-2.15461">
        <ele>76.08</ele>
        <time>2021-07-31T17:26:37Z</time>
      </trkpt>
      <trkpt lat="48.2875" lon="-2.15459">
        <ele>73.68</ele>
        <time>2021-07-31T17:26:51Z</time>
      </trkpt>
      <trkpt lat="48.28663" lon="-2.1546">
        <ele>72.24</ele>
        <time>2021-07-31T17:27:05Z</time>
      </trkpt>
      <trkpt lat="48.28656" lon="-2.15482">
        <ele>71.27</ele>
        <time>2021-07-31T17:27:14Z</time>
      </trkpt>
      <trkpt lat="48.28656" lon="-2.15527">
        <ele>71.27</ele>
        <time>2021-07-31T17:27:25Z</time>
      </trkpt>
      <trkpt lat="48.2866" lon="-2.15548">
        <ele>71.27</ele>
        <time>2021-07-31T17:27:31Z</time>
      </trkpt>
      <trkpt lat="48.28667" lon="-2.15557">
        <ele>71.76</ele>
        <time>2021-07-31T17:27:34Z</time>
      </trkpt>
      <trkpt lat="48.28667" lon="-2.15557">
        <ele>71.76</ele>
        <time>2021-07-31T17:27:35Z</time>
      </trkpt>
      <trkpt lat="48.28667" lon="-2.15557">
        <ele>71.76</ele>
        <time>2021-07-31T17:27:36Z</time>
      </trkpt>
      <trkpt lat="48.28662" lon="-2.15551">
        <ele>71.76</ele>
        <time>2021-07-31T17:27:37Z</time>
      </trkpt>
      <trkpt lat="48.28661" lon="-2.1555">
        <ele>72.24</ele>
        <time>2021-07-31T17:27:57Z</time>
      </trkpt>
      <trkpt lat="48.28661" lon="-2.1555">
        <ele>72.72</ele>
        <time>2021-07-31T17:29:29Z</time>
      </trkpt>
      <trkpt lat="48.28658" lon="-2.15547">
        <ele>72.72</ele>
        <time>2021-07-31T17:29:30Z</time>
      </trkpt>
      <trkpt lat="48.28658" lon="-2.15547">
        <ele>72.72</ele>
        <time>2021-07-31T17:29:31Z</time>
      </trkpt>
      <trkpt lat="48.28654" lon="-2.15542">
        <ele>72.72</ele>
        <time>2021-07-31T17:29:41Z</time>
      </trkpt>
      <trkpt lat="48.28654" lon="-2.15542">
        <ele>72.72</ele>
        <time>2021-07-31T17:29:42Z</time>
      </trkpt>
      <trkpt lat="48.28658" lon="-2.15552">
        <ele>73.2</ele>
        <time>2021-07-31T17:29:54Z</time>
      </trkpt>
      <trkpt lat="48.28655" lon="-2.15546">
        <ele>73.2</ele>
        <time>2021-07-31T17:30:03Z</time>
      </trkpt>
      <trkpt lat="48.28652" lon="-2.15557">
        <ele>72.72</ele>
        <time>2021-07-31T17:30:08Z</time>
      </trkpt>
      <trkpt lat="48.28653" lon="-2.1556">
        <ele>72.72</ele>
        <time>2021-07-31T17:30:29Z</time>
      </trkpt>
      <trkpt lat="48.28653" lon="-2.15558">
        <ele>72.24</ele>
        <time>2021-07-31T17:34:20Z</time>
      </trkpt>
      <trkpt lat="48.28654" lon="-2.15559">
        <ele>72.72</ele>
        <time>2021-07-31T17:37:02Z</time>
      </trkpt>
      <trkpt lat="48.28654" lon="-2.15559">
        <ele>72.72</ele>
        <time>2021-07-31T17:38:56Z</time>
      </trkpt>
      <trkpt lat="48.28653" lon="-2.1556">
        <ele>72.72</ele>
        <time>2021-07-31T17:41:30Z</time>
      </trkpt>
      <trkpt lat="48.28654" lon="-2.1556">
        <ele>72.72</ele>
        <time>2021-07-31T17:41:35Z</time>
      </trkpt>
      <trkpt lat="48.28659" lon="-2.15563">
        <ele>72.24</ele>
        <time>2021-07-31T17:41:47Z</time>
      </trkpt>
      <trkpt lat="48.28663" lon="-2.1555">
        <ele>72.24</ele>
        <time>2021-07-31T17:41:57Z</time>
      </trkpt>
      <trkpt lat="48.28658" lon="-2.15539">
        <ele>72.24</ele>
        <time>2021-07-31T17:42:02Z</time>
      </trkpt>
      <trkpt lat="48.28663" lon="-2.15513">
        <ele>72.72</ele>
        <time>2021-07-31T17:42:15Z</time>
      </trkpt>
      <trkpt lat="48.28662" lon="-2.15511">
        <ele>72.72</ele>
        <time>2021-07-31T17:42:40Z</time>
      </trkpt>
      <trkpt lat="48.28662" lon="-2.1551">
        <ele>72.72</ele>
        <time>2021-07-31T17:46:02Z</time>
      </trkpt>
      <trkpt lat="48.28661" lon="-2.15509">
        <ele>72.72</ele>
        <time>2021-07-31T17:49:03Z</time>
      </trkpt>
      <trkpt lat="48.28656" lon="-2.15483">
        <ele>72.24</ele>
        <time>2021-07-31T17:49:42Z</time>
      </trkpt>
      <trkpt lat="48.28657" lon="-2.15463">
        <ele>73.68</ele>
        <time>2021-07-31T17:49:49Z</time>
      </trkpt>
      <trkpt lat="48.28653" lon="-2.15461">
        <ele>73.68</ele>
        <time>2021-07-31T17:49:50Z</time>
      </trkpt>
      <trkpt lat="48.2865" lon="-2.15461">
        <ele>73.68</ele>
        <time>2021-07-31T17:49:51Z</time>
      </trkpt>
      <trkpt lat="48.28646" lon="-2.15461">
        <ele>73.68</ele>
        <time>2021-07-31T17:49:52Z</time>
      </trkpt>
      <trkpt lat="48.28641" lon="-2.15461">
        <ele>73.68</ele>
        <time>2021-07-31T17:49:53Z</time>
      </trkpt>
      <trkpt lat="48.28578" lon="-2.15459">
        <ele>76.56</ele>
        <time>2021-07-31T17:50:02Z</time>
      </trkpt>
      <trkpt lat="48.2846" lon="-2.15456">
        <ele>82.33</ele>
        <time>2021-07-31T17:50:15Z</time>
      </trkpt>
      <trkpt lat="48.28452" lon="-2.15454">
        <ele>82.81</ele>
        <time>2021-07-31T17:50:16Z</time>
      </trkpt>
      <trkpt lat="48.28333" lon="-2.15392">
        <ele>81.37</ele>
        <time>2021-07-31T17:50:28Z</time>
      </trkpt>
      <trkpt lat="48.28161" lon="-2.15308">
        <ele>78.48</ele>
        <time>2021-07-31T17:50:42Z</time>
      </trkpt>
      <trkpt lat="48.28148" lon="-2.15304">
        <ele>78.48</ele>
        <time>2021-07-31T17:50:43Z</time>
      </trkpt>
      <trkpt lat="48.28134" lon="-2.15304">
        <ele>78</ele>
        <time>2021-07-31T17:50:44Z</time>
      </trkpt>
      <trkpt lat="48.2812" lon="-2.15304">
        <ele>77.52</ele>
        <time>2021-07-31T17:50:45Z</time>
      </trkpt>
      <trkpt lat="48.28109" lon="-2.1531">
        <ele>76.08</ele>
        <time>2021-07-31T17:50:46Z</time>
      </trkpt>
      <trkpt lat="48.28096" lon="-2.15318">
        <ele>74.16</ele>
        <time>2021-07-31T17:50:47Z</time>
      </trkpt>
      <trkpt lat="48.28083" lon="-2.15325">
        <ele>72.24</ele>
        <time>2021-07-31T17:50:48Z</time>
      </trkpt>
      <trkpt lat="48.28072" lon="-2.15336">
        <ele>72.24</ele>
        <time>2021-07-31T17:50:49Z</time>
      </trkpt>
      <trkpt lat="48.27933" lon="-2.15489">
        <ele>67.43</ele>
        <time>2021-07-31T17:51:02Z</time>
      </trkpt>
      <trkpt lat="48.2792" lon="-2.15495">
        <ele>67.43</ele>
        <time>2021-07-31T17:51:03Z</time>
      </trkpt>
      <trkpt lat="48.27907" lon="-2.15499">
        <ele>67.43</ele>
        <time>2021-07-31T17:51:04Z</time>
      </trkpt>
      <trkpt lat="48.27711" lon="-2.15532">
        <ele>63.58</ele>
        <time>2021-07-31T17:51:17Z</time>
      </trkpt>
      <trkpt lat="48.2759" lon="-2.15508">
        <ele>60.22</ele>
        <time>2021-07-31T17:51:24Z</time>
      </trkpt>
      <trkpt lat="48.27506" lon="-2.15467">
        <ele>61.18</ele>
        <time>2021-07-31T17:51:29Z</time>
      </trkpt>
      <trkpt lat="48.27488" lon="-2.15464">
        <ele>61.18</ele>
        <time>2021-07-31T17:51:30Z</time>
      </trkpt>
      <trkpt lat="48.27474" lon="-2.15462">
        <ele>60.7</ele>
        <time>2021-07-31T17:51:31Z</time>
      </trkpt>
      <trkpt lat="48.27459" lon="-2.15463">
        <ele>60.22</ele>
        <time>2021-07-31T17:51:32Z</time>
      </trkpt>
      <trkpt lat="48.27443" lon="-2.15467">
        <ele>59.74</ele>
        <time>2021-07-31T17:51:33Z</time>
      </trkpt>
      <trkpt lat="48.27427" lon="-2.15472">
        <ele>58.3</ele>
        <time>2021-07-31T17:51:34Z</time>
      </trkpt>
      <trkpt lat="48.2741" lon="-2.15476">
        <ele>58.78</ele>
        <time>2021-07-31T17:51:35Z</time>
      </trkpt>
      <trkpt lat="48.27276" lon="-2.15497">
        <ele>56.37</ele>
        <time>2021-07-31T17:51:43Z</time>
      </trkpt>
      <trkpt lat="48.27067" lon="-2.1548">
        <ele>64.55</ele>
        <time>2021-07-31T17:51:55Z</time>
      </trkpt>
      <trkpt lat="48.26903" lon="-2.15426">
        <ele>72.24</ele>
        <time>2021-07-31T17:52:07Z</time>
      </trkpt>
      <trkpt lat="48.26812" lon="-2.15383">
        <ele>78.48</ele>
        <time>2021-07-31T17:52:15Z</time>
      </trkpt>
      <trkpt lat="48.26794" lon="-2.15375">
        <ele>79.93</ele>
        <time>2021-07-31T17:52:19Z</time>
      </trkpt>
      <trkpt lat="48.26794" lon="-2.15375">
        <ele>78.48</ele>
        <time>2021-07-31T17:52:20Z</time>
      </trkpt>
      <trkpt lat="48.26793" lon="-2.15384">
        <ele>78</ele>
        <time>2021-07-31T17:52:21Z</time>
      </trkpt>
      <trkpt lat="48.26791" lon="-2.15396">
        <ele>78.48</ele>
        <time>2021-07-31T17:52:22Z</time>
      </trkpt>
      <trkpt lat="48.26791" lon="-2.15396">
        <ele>78.97</ele>
        <time>2021-07-31T17:52:23Z</time>
      </trkpt>
      <trkpt lat="48.26779" lon="-2.15485">
        <ele>81.85</ele>
        <time>2021-07-31T17:52:31Z</time>
      </trkpt>
      <trkpt lat="48.26778" lon="-2.15661">
        <ele>88.1</ele>
        <time>2021-07-31T17:52:40Z</time>
      </trkpt>
      <trkpt lat="48.26778" lon="-2.15661">
        <ele>89.06</ele>
        <time>2021-07-31T17:52:41Z</time>
      </trkpt>
      <trkpt lat="48.26779" lon="-2.15678">
        <ele>89.54</ele>
        <time>2021-07-31T17:52:42Z</time>
      </trkpt>
      <trkpt lat="48.26777" lon="-2.15695">
        <ele>90.5</ele>
        <time>2021-07-31T17:52:43Z</time>
      </trkpt>
      <trkpt lat="48.26775" lon="-2.15712">
        <ele>90.98</ele>
        <time>2021-07-31T17:52:44Z</time>
      </trkpt>
      <trkpt lat="48.26772" lon="-2.15728">
        <ele>91.94</ele>
        <time>2021-07-31T17:52:45Z</time>
      </trkpt>
      <trkpt lat="48.26728" lon="-2.15939">
        <ele>100.11</ele>
        <time>2021-07-31T17:52:59Z</time>
      </trkpt>
      <trkpt lat="48.26717" lon="-2.16002">
        <ele>101.08</ele>
        <time>2021-07-31T17:53:06Z</time>
      </trkpt>
      <trkpt lat="48.26716" lon="-2.16006">
        <ele>101.08</ele>
        <time>2021-07-31T17:53:07Z</time>
      </trkpt>
      <trkpt lat="48.26714" lon="-2.16001">
        <ele>101.08</ele>
        <time>2021-07-31T17:53:08Z</time>
      </trkpt>
      <trkpt lat="48.2671" lon="-2.16">
        <ele>100.6</ele>
        <time>2021-07-31T17:53:09Z</time>
      </trkpt>
      <trkpt lat="48.2666" lon="-2.15989">
        <ele>96.27</ele>
        <time>2021-07-31T17:53:16Z</time>
      </trkpt>
      <trkpt lat="48.2665" lon="-2.15991">
        <ele>94.83</ele>
        <time>2021-07-31T17:53:17Z</time>
      </trkpt>
      <trkpt lat="48.26639" lon="-2.15994">
        <ele>93.39</ele>
        <time>2021-07-31T17:53:18Z</time>
      </trkpt>
      <trkpt lat="48.26628" lon="-2.16">
        <ele>92.9</ele>
        <time>2021-07-31T17:53:19Z</time>
      </trkpt>
      <trkpt lat="48.26616" lon="-2.16008">
        <ele>90.98</ele>
        <time>2021-07-31T17:53:20Z</time>
      </trkpt>
      <trkpt lat="48.2648" lon="-2.161">
        <ele>87.14</ele>
        <time>2021-07-31T17:53:29Z</time>
      </trkpt>
      <trkpt lat="48.26139" lon="-2.16343">
        <ele>78.97</ele>
        <time>2021-07-31T17:53:48Z</time>
      </trkpt>
      <trkpt lat="48.25763" lon="-2.16621">
        <ele>68.87</ele>
        <time>2021-07-31T17:54:08Z</time>
      </trkpt>
      <trkpt lat="48.25598" lon="-2.16711">
        <ele>65.51</ele>
        <time>2021-07-31T17:54:17Z</time>
      </trkpt>
      <trkpt lat="48.25333" lon="-2.16725">
        <ele>67.91</ele>
        <time>2021-07-31T17:54:29Z</time>
      </trkpt>
      <trkpt lat="48.25191" lon="-2.16727">
        <ele>78.48</ele>
        <time>2021-07-31T17:54:38Z</time>
      </trkpt>
      <trkpt lat="48.24875" lon="-2.16738">
        <ele>91.46</ele>
        <time>2021-07-31T17:54:56Z</time>
      </trkpt>
      <trkpt lat="48.24612" lon="-2.16768">
        <ele>84.73</ele>
        <time>2021-07-31T17:55:09Z</time>
      </trkpt>
      <trkpt lat="48.24321" lon="-2.16813">
        <ele>78.97</ele>
        <time>2021-07-31T17:55:23Z</time>
      </trkpt>
      <trkpt lat="48.24105" lon="-2.16889">
        <ele>83.29</ele>
        <time>2021-07-31T17:55:33Z</time>
      </trkpt>
      <trkpt lat="48.23939" lon="-2.1699">
        <ele>88.1</ele>
        <time>2021-07-31T17:55:42Z</time>
      </trkpt>
      <trkpt lat="48.23649" lon="-2.17175">
        <ele>98.19</ele>
        <time>2021-07-31T17:55:58Z</time>
      </trkpt>
      <trkpt lat="48.23203" lon="-2.17454">
        <ele>102.04</ele>
        <time>2021-07-31T17:56:21Z</time>
      </trkpt>
      <trkpt lat="48.22933" lon="-2.17575">
        <ele>100.11</ele>
        <time>2021-07-31T17:56:34Z</time>
      </trkpt>
      <trkpt lat="48.22539" lon="-2.17734">
        <ele>105.4</ele>
        <time>2021-07-31T17:56:53Z</time>
      </trkpt>
      <trkpt lat="48.22349" lon="-2.17762">
        <ele>110.69</ele>
        <time>2021-07-31T17:57:02Z</time>
      </trkpt>
      <trkpt lat="48.22046" lon="-2.17733">
        <ele>110.21</ele>
        <time>2021-07-31T17:57:15Z</time>
      </trkpt>
      <trkpt lat="48.21659" lon="-2.17683">
        <ele>106.36</ele>
        <time>2021-07-31T17:57:31Z</time>
      </trkpt>
      <trkpt lat="48.21357" lon="-2.17644">
        <ele>102.04</ele>
        <time>2021-07-31T17:57:44Z</time>
      </trkpt>
      <trkpt lat="48.21116" lon="-2.17594">
        <ele>100.11</ele>
        <time>2021-07-31T17:57:55Z</time>
      </trkpt>
      <trkpt lat="48.2082" lon="-2.17528">
        <ele>91.46</ele>
        <time>2021-07-31T17:58:09Z</time>
      </trkpt>
      <trkpt lat="48.20632" lon="-2.17529">
        <ele>91.46</ele>
        <time>2021-07-31T17:58:19Z</time>
      </trkpt>
      <trkpt lat="48.20335" lon="-2.17575">
        <ele>98.19</ele>
        <time>2021-07-31T17:58:34Z</time>
      </trkpt>
      <trkpt lat="48.20198" lon="-2.17524">
        <ele>97.71</ele>
        <time>2021-07-31T17:58:41Z</time>
      </trkpt>
      <trkpt lat="48.19986" lon="-2.17377">
        <ele>100.6</ele>
        <time>2021-07-31T17:58:53Z</time>
      </trkpt>
      <trkpt lat="48.19658" lon="-2.17124">
        <ele>101.08</ele>
        <time>2021-07-31T17:59:12Z</time>
      </trkpt>
      <trkpt lat="48.1949" lon="-2.17028">
        <ele>103.48</ele>
        <time>2021-07-31T17:59:22Z</time>
      </trkpt>
      <trkpt lat="48.19349" lon="-2.1703">
        <ele>106.36</ele>
        <time>2021-07-31T17:59:30Z</time>
      </trkpt>
      <trkpt lat="48.19073" lon="-2.17089">
        <ele>110.21</ele>
        <time>2021-07-31T17:59:46Z</time>
      </trkpt>
      <trkpt lat="48.19005" lon="-2.17081">
        <ele>110.21</ele>
        <time>2021-07-31T17:59:52Z</time>
      </trkpt>
      <trkpt lat="48.18994" lon="-2.1708">
        <ele>110.21</ele>
        <time>2021-07-31T17:59:53Z</time>
      </trkpt>
      <trkpt lat="48.18989" lon="-2.17079">
        <ele>110.69</ele>
        <time>2021-07-31T17:59:54Z</time>
      </trkpt>
      <trkpt lat="48.18989" lon="-2.17079">
        <ele>110.69</ele>
        <time>2021-07-31T17:59:55Z</time>
      </trkpt>
      <trkpt lat="48.1898" lon="-2.17084">
        <ele>110.69</ele>
        <time>2021-07-31T17:59:57Z</time>
      </trkpt>
      <trkpt lat="48.18972" lon="-2.17086">
        <ele>110.69</ele>
        <time>2021-07-31T17:59:58Z</time>
      </trkpt>
      <trkpt lat="48.18965" lon="-2.17087">
        <ele>110.69</ele>
        <time>2021-07-31T17:59:59Z</time>
      </trkpt>
      <trkpt lat="48.18962" lon="-2.17087">
        <ele>110.69</ele>
        <time>2021-07-31T18:00:00Z</time>
      </trkpt>
      <trkpt lat="48.18955" lon="-2.17077">
        <ele>110.69</ele>
        <time>2021-07-31T18:00:01Z</time>
      </trkpt>
      <trkpt lat="48.18951" lon="-2.1707">
        <ele>110.69</ele>
        <time>2021-07-31T18:00:02Z</time>
      </trkpt>
      <trkpt lat="48.18945" lon="-2.17063">
        <ele>110.69</ele>
        <time>2021-07-31T18:00:03Z</time>
      </trkpt>
      <trkpt lat="48.18944" lon="-2.17057">
        <ele>111.17</ele>
        <time>2021-07-31T18:00:04Z</time>
      </trkpt>
      <trkpt lat="48.1893" lon="-2.17035">
        <ele>111.17</ele>
        <time>2021-07-31T18:00:05Z</time>
      </trkpt>
      <trkpt lat="48.18923" lon="-2.17029">
        <ele>110.69</ele>
        <time>2021-07-31T18:00:06Z</time>
      </trkpt>
      <trkpt lat="48.18923" lon="-2.17029">
        <ele>110.69</ele>
        <time>2021-07-31T18:00:07Z</time>
      </trkpt>
      <trkpt lat="48.18915" lon="-2.17021">
        <ele>110.21</ele>
        <time>2021-07-31T18:00:08Z</time>
      </trkpt>
      <trkpt lat="48.18869" lon="-2.16983">
        <ele>111.17</ele>
        <time>2021-07-31T18:00:13Z</time>
      </trkpt>
      <trkpt lat="48.18861" lon="-2.16978">
        <ele>111.65</ele>
        <time>2021-07-31T18:00:14Z</time>
      </trkpt>
      <trkpt lat="48.18855" lon="-2.16974">
        <ele>112.13</ele>
        <time>2021-07-31T18:00:15Z</time>
      </trkpt>
      <trkpt lat="48.18849" lon="-2.1697">
        <ele>112.61</ele>
        <time>2021-07-31T18:00:16Z</time>
      </trkpt>
      <trkpt lat="48.18829" lon="-2.16982">
        <ele>112.61</ele>
        <time>2021-07-31T18:00:17Z</time>
      </trkpt>
      <trkpt lat="48.18829" lon="-2.16982">
        <ele>113.09</ele>
        <time>2021-07-31T18:00:18Z</time>
      </trkpt>
      <trkpt lat="48.18822" lon="-2.16991">
        <ele>114.05</ele>
        <time>2021-07-31T18:00:19Z</time>
      </trkpt>
      <trkpt lat="48.18814" lon="-2.17001">
        <ele>113.09</ele>
        <time>2021-07-31T18:00:20Z</time>
      </trkpt>
      <trkpt lat="48.18726" lon="-2.17127">
        <ele>109.73</ele>
        <time>2021-07-31T18:00:29Z</time>
      </trkpt>
      <trkpt lat="48.18637" lon="-2.17314">
        <ele>113.57</ele>
        <time>2021-07-31T18:00:38Z</time>
      </trkpt>
      <trkpt lat="48.18478" lon="-2.17722">
        <ele>116.94</ele>
        <time>2021-07-31T18:00:54Z</time>
      </trkpt>
      <trkpt lat="48.18276" lon="-2.18198">
        <ele>113.09</ele>
        <time>2021-07-31T18:01:12Z</time>
      </trkpt>
      <trkpt lat="48.18098" lon="-2.18584">
        <ele>99.63</ele>
        <time>2021-07-31T18:01:25Z</time>
      </trkpt>
      <trkpt lat="48.17872" lon="-2.1908">
        <ele>97.23</ele>
        <time>2021-07-31T18:01:41Z</time>
      </trkpt>
      <trkpt lat="48.17801" lon="-2.19337">
        <ele>99.15</ele>
        <time>2021-07-31T18:01:49Z</time>
      </trkpt>
      <trkpt lat="48.17774" lon="-2.19606">
        <ele>100.11</ele>
        <time>2021-07-31T18:01:57Z</time>
      </trkpt>
      <trkpt lat="48.17797" lon="-2.19862">
        <ele>97.23</ele>
        <time>2021-07-31T18:02:05Z</time>
      </trkpt>
      <trkpt lat="48.17837" lon="-2.20025">
        <ele>97.23</ele>
        <time>2021-07-31T18:02:11Z</time>
      </trkpt>
      <trkpt lat="48.17851" lon="-2.20064">
        <ele>97.71</ele>
        <time>2021-07-31T18:02:13Z</time>
      </trkpt>
      <trkpt lat="48.1786" lon="-2.20077">
        <ele>96.27</ele>
        <time>2021-07-31T18:02:14Z</time>
      </trkpt>
      <trkpt lat="48.17869" lon="-2.20091">
        <ele>95.79</ele>
        <time>2021-07-31T18:02:15Z</time>
      </trkpt>
      <trkpt lat="48.17878" lon="-2.20101">
        <ele>97.23</ele>
        <time>2021-07-31T18:02:16Z</time>
      </trkpt>
      <trkpt lat="48.17887" lon="-2.20111">
        <ele>98.19</ele>
        <time>2021-07-31T18:02:17Z</time>
      </trkpt>
      <trkpt lat="48.17899" lon="-2.20116">
        <ele>99.63</ele>
        <time>2021-07-31T18:02:18Z</time>
      </trkpt>
      <trkpt lat="48.17908" lon="-2.20119">
        <ele>100.6</ele>
        <time>2021-07-31T18:02:19Z</time>
      </trkpt>
      <trkpt lat="48.17922" lon="-2.20115">
        <ele>100.6</ele>
        <time>2021-07-31T18:02:20Z</time>
      </trkpt>
      <trkpt lat="48.17931" lon="-2.20107">
        <ele>100.6</ele>
        <time>2021-07-31T18:02:21Z</time>
      </trkpt>
      <trkpt lat="48.17938" lon="-2.20094">
        <ele>101.56</ele>
        <time>2021-07-31T18:02:22Z</time>
      </trkpt>
      <trkpt lat="48.17944" lon="-2.20081">
        <ele>102.52</ele>
        <time>2021-07-31T18:02:23Z</time>
      </trkpt>
      <trkpt lat="48.17945" lon="-2.20071">
        <ele>102.04</ele>
        <time>2021-07-31T18:02:24Z</time>
      </trkpt>
      <trkpt lat="48.17945" lon="-2.20055">
        <ele>101.56</ele>
        <time>2021-07-31T18:02:25Z</time>
      </trkpt>
      <trkpt lat="48.17941" lon="-2.20043">
        <ele>100.6</ele>
        <time>2021-07-31T18:02:26Z</time>
      </trkpt>
      <trkpt lat="48.17933" lon="-2.20027">
        <ele>98.67</ele>
        <time>2021-07-31T18:02:27Z</time>
      </trkpt>
      <trkpt lat="48.17927" lon="-2.20014">
        <ele>96.75</ele>
        <time>2021-07-31T18:02:28Z</time>
      </trkpt>
      <trkpt lat="48.17921" lon="-2.20001">
        <ele>95.31</ele>
        <time>2021-07-31T18:02:29Z</time>
      </trkpt>
      <trkpt lat="48.17907" lon="-2.19982">
        <ele>96.75</ele>
        <time>2021-07-31T18:02:34Z</time>
      </trkpt>
      <trkpt lat="48.17907" lon="-2.19982">
        <ele>97.23</ele>
        <time>2021-07-31T18:02:37Z</time>
      </trkpt>
      <trkpt lat="48.17904" lon="-2.19978">
        <ele>97.23</ele>
        <time>2021-07-31T18:02:38Z</time>
      </trkpt>
      <trkpt lat="48.17902" lon="-2.19976">
        <ele>97.71</ele>
        <time>2021-07-31T18:02:39Z</time>
      </trkpt>
      <trkpt lat="48.17899" lon="-2.19977">
        <ele>97.71</ele>
        <time>2021-07-31T18:02:40Z</time>
      </trkpt>
      <trkpt lat="48.17893" lon="-2.19981">
        <ele>97.71</ele>
        <time>2021-07-31T18:02:41Z</time>
      </trkpt>
      <trkpt lat="48.17887" lon="-2.19984">
        <ele>97.23</ele>
        <time>2021-07-31T18:02:42Z</time>
      </trkpt>
      <trkpt lat="48.17811" lon="-2.20035">
        <ele>95.31</ele>
        <time>2021-07-31T18:02:50Z</time>
      </trkpt>
      <trkpt lat="48.17702" lon="-2.20123">
        <ele>95.79</ele>
        <time>2021-07-31T18:02:59Z</time>
      </trkpt>
      <trkpt lat="48.17692" lon="-2.20136">
        <ele>96.27</ele>
        <time>2021-07-31T18:03:00Z</time>
      </trkpt>
      <trkpt lat="48.17682" lon="-2.20149">
        <ele>96.27</ele>
        <time>2021-07-31T18:03:01Z</time>
      </trkpt>
      <trkpt lat="48.17578" lon="-2.20327">
        <ele>98.67</ele>
        <time>2021-07-31T18:03:11Z</time>
      </trkpt>
      <trkpt lat="48.17441" lon="-2.20484">
        <ele>98.67</ele>
        <time>2021-07-31T18:03:21Z</time>
      </trkpt>
      <trkpt lat="48.17262" lon="-2.20643">
        <ele>92.9</ele>
        <time>2021-07-31T18:03:32Z</time>
      </trkpt>
      <trkpt lat="48.1702" lon="-2.20802">
        <ele>95.79</ele>
        <time>2021-07-31T18:03:45Z</time>
      </trkpt>
      <trkpt lat="48.16715" lon="-2.20936">
        <ele>93.87</ele>
        <time>2021-07-31T18:04:01Z</time>
      </trkpt>
      <trkpt lat="48.16505" lon="-2.21028">
        <ele>96.27</ele>
        <time>2021-07-31T18:04:14Z</time>
      </trkpt>
      <trkpt lat="48.16308" lon="-2.21112">
        <ele>93.87</ele>
        <time>2021-07-31T18:04:26Z</time>
      </trkpt>
      <trkpt lat="48.16112" lon="-2.21165">
        <ele>89.54</ele>
        <time>2021-07-31T18:04:37Z</time>
      </trkpt>
      <trkpt lat="48.15802" lon="-2.21185">
        <ele>84.73</ele>
        <time>2021-07-31T18:04:52Z</time>
      </trkpt>
      <trkpt lat="48.15508" lon="-2.21224">
        <ele>80.41</ele>
        <time>2021-07-31T18:05:07Z</time>
      </trkpt>
      <trkpt lat="48.15308" lon="-2.21326">
        <ele>80.41</ele>
        <time>2021-07-31T18:05:16Z</time>
      </trkpt>
      <trkpt lat="48.15068" lon="-2.21486">
        <ele>80.41</ele>
        <time>2021-07-31T18:05:29Z</time>
      </trkpt>
      <trkpt lat="48.14796" lon="-2.2163">
        <ele>82.33</ele>
        <time>2021-07-31T18:05:44Z</time>
      </trkpt>
      <trkpt lat="48.14486" lon="-2.21789">
        <ele>89.06</ele>
        <time>2021-07-31T18:06:01Z</time>
      </trkpt>
      <trkpt lat="48.14225" lon="-2.21945">
        <ele>94.35</ele>
        <time>2021-07-31T18:06:16Z</time>
      </trkpt>
      <trkpt lat="48.14148" lon="-2.22008">
        <ele>94.35</ele>
        <time>2021-07-31T18:06:23Z</time>
      </trkpt>
      <trkpt lat="48.14032" lon="-2.22132">
        <ele>95.79</ele>
        <time>2021-07-31T18:06:33Z</time>
      </trkpt>
      <trkpt lat="48.13883" lon="-2.22342">
        <ele>89.06</ele>
        <time>2021-07-31T18:06:45Z</time>
      </trkpt>
      <trkpt lat="48.13725" lon="-2.22635">
        <ele>79.93</ele>
        <time>2021-07-31T18:06:59Z</time>
      </trkpt>
      <trkpt lat="48.13689" lon="-2.22701">
        <ele>78.97</ele>
        <time>2021-07-31T18:07:04Z</time>
      </trkpt>
      <trkpt lat="48.13685" lon="-2.22709">
        <ele>78.48</ele>
        <time>2021-07-31T18:07:05Z</time>
      </trkpt>
      <trkpt lat="48.13682" lon="-2.22715">
        <ele>78.48</ele>
        <time>2021-07-31T18:07:06Z</time>
      </trkpt>
      <trkpt lat="48.13683" lon="-2.22728">
        <ele>78.48</ele>
        <time>2021-07-31T18:07:07Z</time>
      </trkpt>
      <trkpt lat="48.13686" lon="-2.22733">
        <ele>78</ele>
        <time>2021-07-31T18:07:08Z</time>
      </trkpt>
      <trkpt lat="48.13688" lon="-2.22737">
        <ele>78</ele>
        <time>2021-07-31T18:07:09Z</time>
      </trkpt>
      <trkpt lat="48.1369" lon="-2.22742">
        <ele>78.48</ele>
        <time>2021-07-31T18:07:11Z</time>
      </trkpt>
      <trkpt lat="48.13691" lon="-2.22744">
        <ele>78.48</ele>
        <time>2021-07-31T18:07:12Z</time>
      </trkpt>
      <trkpt lat="48.13673" lon="-2.22732">
        <ele>78.48</ele>
        <time>2021-07-31T18:07:13Z</time>
      </trkpt>
      <trkpt lat="48.13673" lon="-2.22732">
        <ele>78</ele>
        <time>2021-07-31T18:07:14Z</time>
      </trkpt>
      <trkpt lat="48.13671" lon="-2.22734">
        <ele>78</ele>
        <time>2021-07-31T18:07:15Z</time>
      </trkpt>
      <trkpt lat="48.13668" lon="-2.22739">
        <ele>77.52</ele>
        <time>2021-07-31T18:07:16Z</time>
      </trkpt>
      <trkpt lat="48.13668" lon="-2.22739">
        <ele>77.52</ele>
        <time>2021-07-31T18:07:17Z</time>
      </trkpt>
      <trkpt lat="48.13668" lon="-2.22739">
        <ele>76.56</ele>
        <time>2021-07-31T18:07:21Z</time>
      </trkpt>
      <trkpt lat="48.13668" lon="-2.22739">
        <ele>76.56</ele>
        <time>2021-07-31T18:07:22Z</time>
      </trkpt>
      <trkpt lat="48.13668" lon="-2.22737">
        <ele>76.08</ele>
        <time>2021-07-31T18:07:23Z</time>
      </trkpt>
      <trkpt lat="48.13674" lon="-2.22729">
        <ele>76.08</ele>
        <time>2021-07-31T18:07:24Z</time>
      </trkpt>
      <trkpt lat="48.13677" lon="-2.22725">
        <ele>76.08</ele>
        <time>2021-07-31T18:07:25Z</time>
      </trkpt>
      <trkpt lat="48.13683" lon="-2.22712">
        <ele>76.56</ele>
        <time>2021-07-31T18:07:26Z</time>
      </trkpt>
      <trkpt lat="48.13716" lon="-2.22652">
        <ele>76.08</ele>
        <time>2021-07-31T18:07:32Z</time>
      </trkpt>
      <trkpt lat="48.13787" lon="-2.22519">
        <ele>80.89</ele>
        <time>2021-07-31T18:07:40Z</time>
      </trkpt>
      <trkpt lat="48.13954" lon="-2.22233">
        <ele>91.46</ele>
        <time>2021-07-31T18:07:54Z</time>
      </trkpt>
      <trkpt lat="48.14113" lon="-2.2204">
        <ele>98.19</ele>
        <time>2021-07-31T18:08:06Z</time>
      </trkpt>
      <trkpt lat="48.14192" lon="-2.2197">
        <ele>98.67</ele>
        <time>2021-07-31T18:08:13Z</time>
      </trkpt>
      <trkpt lat="48.14198" lon="-2.21965">
        <ele>98.67</ele>
        <time>2021-07-31T18:08:14Z</time>
      </trkpt>
      <trkpt lat="48.14203" lon="-2.21961">
        <ele>98.19</ele>
        <time>2021-07-31T18:08:15Z</time>
      </trkpt>
      <trkpt lat="48.14207" lon="-2.21958">
        <ele>97.71</ele>
        <time>2021-07-31T18:08:16Z</time>
      </trkpt>
      <trkpt lat="48.14205" lon="-2.21943">
        <ele>97.71</ele>
        <time>2021-07-31T18:08:17Z</time>
      </trkpt>
      <trkpt lat="48.14201" lon="-2.21937">
        <ele>97.23</ele>
        <time>2021-07-31T18:08:18Z</time>
      </trkpt>
      <trkpt lat="48.14198" lon="-2.21931">
        <ele>97.23</ele>
        <time>2021-07-31T18:08:19Z</time>
      </trkpt>
      <trkpt lat="48.14194" lon="-2.21927">
        <ele>97.23</ele>
        <time>2021-07-31T18:08:20Z</time>
      </trkpt>
      <trkpt lat="48.14187" lon="-2.2192">
        <ele>97.23</ele>
        <time>2021-07-31T18:08:22Z</time>
      </trkpt>
      <trkpt lat="48.14183" lon="-2.21916">
        <ele>97.23</ele>
        <time>2021-07-31T18:08:23Z</time>
      </trkpt>
      <trkpt lat="48.14175" lon="-2.21913">
        <ele>96.75</ele>
        <time>2021-07-31T18:08:24Z</time>
      </trkpt>
      <trkpt lat="48.14168" lon="-2.21914">
        <ele>96.75</ele>
        <time>2021-07-31T18:08:25Z</time>
      </trkpt>
      <trkpt lat="48.1416" lon="-2.21914">
        <ele>96.75</ele>
        <time>2021-07-31T18:08:26Z</time>
      </trkpt>
      <trkpt lat="48.14035" lon="-2.2193">
        <ele>93.39</ele>
        <time>2021-07-31T18:08:37Z</time>
      </trkpt>
      <trkpt lat="48.13843" lon="-2.21984">
        <ele>90.98</ele>
        <time>2021-07-31T18:08:52Z</time>
      </trkpt>
      <trkpt lat="48.13779" lon="-2.22007">
        <ele>89.06</ele>
        <time>2021-07-31T18:09:00Z</time>
      </trkpt>
      <trkpt lat="48.13666" lon="-2.22049">
        <ele>83.77</ele>
        <time>2021-07-31T18:09:11Z</time>
      </trkpt>
      <trkpt lat="48.13526" lon="-2.221">
        <ele>80.41</ele>
        <time>2021-07-31T18:09:24Z</time>
      </trkpt>
      <trkpt lat="48.13444" lon="-2.22129">
        <ele>78.97</ele>
        <time>2021-07-31T18:09:35Z</time>
      </trkpt>
      <trkpt lat="48.1332" lon="-2.22171">
        <ele>74.64</ele>
        <time>2021-07-31T18:09:47Z</time>
      </trkpt>
      <trkpt lat="48.13311" lon="-2.22173">
        <ele>74.64</ele>
        <time>2021-07-31T18:09:48Z</time>
      </trkpt>
      <trkpt lat="48.13302" lon="-2.22175">
        <ele>75.6</ele>
        <time>2021-07-31T18:09:49Z</time>
      </trkpt>
      <trkpt lat="48.13183" lon="-2.22185">
        <ele>76.56</ele>
        <time>2021-07-31T18:10:02Z</time>
      </trkpt>
      <trkpt lat="48.1316" lon="-2.22193">
        <ele>73.2</ele>
        <time>2021-07-31T18:10:10Z</time>
      </trkpt>
      <trkpt lat="48.13158" lon="-2.22194">
        <ele>72.72</ele>
        <time>2021-07-31T18:10:11Z</time>
      </trkpt>
      <trkpt lat="48.13156" lon="-2.22187">
        <ele>72.72</ele>
        <time>2021-07-31T18:10:12Z</time>
      </trkpt>
      <trkpt lat="48.13155" lon="-2.22183">
        <ele>72.72</ele>
        <time>2021-07-31T18:10:13Z</time>
      </trkpt>
      <trkpt lat="48.13154" lon="-2.22179">
        <ele>73.2</ele>
        <time>2021-07-31T18:10:14Z</time>
      </trkpt>
      <trkpt lat="48.13153" lon="-2.22175">
        <ele>73.68</ele>
        <time>2021-07-31T18:10:15Z</time>
      </trkpt>
      <trkpt lat="48.13142" lon="-2.22082">
        <ele>80.89</ele>
        <time>2021-07-31T18:10:25Z</time>
      </trkpt>
      <trkpt lat="48.13125" lon="-2.21911">
        <ele>76.56</ele>
        <time>2021-07-31T18:10:37Z</time>
      </trkpt>
      <trkpt lat="48.13105" lon="-2.2171">
        <ele>71.27</ele>
        <time>2021-07-31T18:10:50Z</time>
      </trkpt>
      <trkpt lat="48.13104" lon="-2.21701">
        <ele>71.76</ele>
        <time>2021-07-31T18:10:51Z</time>
      </trkpt>
      <trkpt lat="48.13101" lon="-2.2169">
        <ele>71.27</ele>
        <time>2021-07-31T18:10:52Z</time>
      </trkpt>
      <trkpt lat="48.13098" lon="-2.21682">
        <ele>70.79</ele>
        <time>2021-07-31T18:10:53Z</time>
      </trkpt>
      <trkpt lat="48.13087" lon="-2.21657">
        <ele>70.79</ele>
        <time>2021-07-31T18:10:57Z</time>
      </trkpt>
      <trkpt lat="48.13083" lon="-2.21653">
        <ele>70.79</ele>
        <time>2021-07-31T18:10:58Z</time>
      </trkpt>
      <trkpt lat="48.1308" lon="-2.21649">
        <ele>70.79</ele>
        <time>2021-07-31T18:10:59Z</time>
      </trkpt>
      <trkpt lat="48.1307" lon="-2.21654">
        <ele>70.79</ele>
        <time>2021-07-31T18:11:00Z</time>
      </trkpt>
      <trkpt lat="48.1307" lon="-2.21654">
        <ele>70.79</ele>
        <time>2021-07-31T18:11:01Z</time>
      </trkpt>
      <trkpt lat="48.13063" lon="-2.21657">
        <ele>70.79</ele>
        <time>2021-07-31T18:11:02Z</time>
      </trkpt>
      <trkpt lat="48.13057" lon="-2.21662">
        <ele>71.27</ele>
        <time>2021-07-31T18:11:03Z</time>
      </trkpt>
      <trkpt lat="48.12969" lon="-2.21771">
        <ele>72.24</ele>
        <time>2021-07-31T18:11:14Z</time>
      </trkpt>
      <trkpt lat="48.12872" lon="-2.21881">
        <ele>67.43</ele>
        <time>2021-07-31T18:11:24Z</time>
      </trkpt>
      <trkpt lat="48.12872" lon="-2.21881">
        <ele>66.47</ele>
        <time>2021-07-31T18:11:25Z</time>
      </trkpt>
      <trkpt lat="48.12863" lon="-2.21886">
        <ele>65.51</ele>
        <time>2021-07-31T18:11:26Z</time>
      </trkpt>
      <trkpt lat="48.12855" lon="-2.21891">
        <ele>65.03</ele>
        <time>2021-07-31T18:11:27Z</time>
      </trkpt>
      <trkpt lat="48.12843" lon="-2.21889">
        <ele>64.07</ele>
        <time>2021-07-31T18:11:28Z</time>
      </trkpt>
      <trkpt lat="48.12833" lon="-2.21887">
        <ele>63.1</ele>
        <time>2021-07-31T18:11:29Z</time>
      </trkpt>
      <trkpt lat="48.12822" lon="-2.21882">
        <ele>63.1</ele>
        <time>2021-07-31T18:11:30Z</time>
      </trkpt>
      <trkpt lat="48.12778" lon="-2.21848">
        <ele>60.7</ele>
        <time>2021-07-31T18:11:34Z</time>
      </trkpt>
      <trkpt lat="48.12766" lon="-2.21834">
        <ele>60.22</ele>
        <time>2021-07-31T18:11:35Z</time>
      </trkpt>
      <trkpt lat="48.12755" lon="-2.21821">
        <ele>60.7</ele>
        <time>2021-07-31T18:11:36Z</time>
      </trkpt>
      <trkpt lat="48.12744" lon="-2.21806">
        <ele>61.18</ele>
        <time>2021-07-31T18:11:37Z</time>
      </trkpt>
      <trkpt lat="48.12735" lon="-2.21786">
        <ele>61.18</ele>
        <time>2021-07-31T18:11:38Z</time>
      </trkpt>
      <trkpt lat="48.12725" lon="-2.21766">
        <ele>60.7</ele>
        <time>2021-07-31T18:11:39Z</time>
      </trkpt>
      <trkpt lat="48.12666" lon="-2.21645">
        <ele>58.3</ele>
        <time>2021-07-31T18:11:45Z</time>
      </trkpt>
      <trkpt lat="48.12655" lon="-2.21629">
        <ele>57.82</ele>
        <time>2021-07-31T18:11:46Z</time>
      </trkpt>
      <trkpt lat="48.12644" lon="-2.21616">
        <ele>57.82</ele>
        <time>2021-07-31T18:11:47Z</time>
      </trkpt>
      <trkpt lat="48.1263" lon="-2.21606">
        <ele>57.34</ele>
        <time>2021-07-31T18:11:48Z</time>
      </trkpt>
      <trkpt lat="48.12614" lon="-2.21596">
        <ele>57.34</ele>
        <time>2021-07-31T18:11:49Z</time>
      </trkpt>
      <trkpt lat="48.12599" lon="-2.21588">
        <ele>57.82</ele>
        <time>2021-07-31T18:11:50Z</time>
      </trkpt>
      <trkpt lat="48.12356" lon="-2.2153">
        <ele>64.55</ele>
        <time>2021-07-31T18:12:03Z</time>
      </trkpt>
      <trkpt lat="48.12165" lon="-2.21515">
        <ele>66.47</ele>
        <time>2021-07-31T18:12:14Z</time>
      </trkpt>
      <trkpt lat="48.11984" lon="-2.2153">
        <ele>68.87</ele>
        <time>2021-07-31T18:12:23Z</time>
      </trkpt>
      <trkpt lat="48.11762" lon="-2.21518">
        <ele>74.16</ele>
        <time>2021-07-31T18:12:35Z</time>
      </trkpt>
      <trkpt lat="48.11708" lon="-2.21505">
        <ele>73.68</ele>
        <time>2021-07-31T18:12:37Z</time>
      </trkpt>
      <trkpt lat="48.11708" lon="-2.21505">
        <ele>73.68</ele>
        <time>2021-07-31T18:12:38Z</time>
      </trkpt>
      <trkpt lat="48.11546" lon="-2.21415">
        <ele>73.68</ele>
        <time>2021-07-31T18:12:47Z</time>
      </trkpt>
      <trkpt lat="48.11456" lon="-2.21386">
        <ele>78.97</ele>
        <time>2021-07-31T18:12:52Z</time>
      </trkpt>
      <trkpt lat="48.11438" lon="-2.21385">
        <ele>79.93</ele>
        <time>2021-07-31T18:12:53Z</time>
      </trkpt>
      <trkpt lat="48.1142" lon="-2.21387">
        <ele>81.37</ele>
        <time>2021-07-31T18:12:54Z</time>
      </trkpt>
      <trkpt lat="48.11192" lon="-2.21459">
        <ele>86.18</ele>
        <time>2021-07-31T18:13:06Z</time>
      </trkpt>
      <trkpt lat="48.11099" lon="-2.21481">
        <ele>90.5</ele>
        <time>2021-07-31T18:13:11Z</time>
      </trkpt>
      <trkpt lat="48.11082" lon="-2.2148">
        <ele>90.98</ele>
        <time>2021-07-31T18:13:12Z</time>
      </trkpt>
      <trkpt lat="48.11046" lon="-2.21471">
        <ele>90.5</ele>
        <time>2021-07-31T18:13:13Z</time>
      </trkpt>
      <trkpt lat="48.11031" lon="-2.21458">
        <ele>90.5</ele>
        <time>2021-07-31T18:13:14Z</time>
      </trkpt>
      <trkpt lat="48.11017" lon="-2.21444">
        <ele>91.46</ele>
        <time>2021-07-31T18:13:15Z</time>
      </trkpt>
      <trkpt lat="48.11017" lon="-2.21444">
        <ele>90.98</ele>
        <time>2021-07-31T18:13:16Z</time>
      </trkpt>
      <trkpt lat="48.11003" lon="-2.21428">
        <ele>90.98</ele>
        <time>2021-07-31T18:13:17Z</time>
      </trkpt>
      <trkpt lat="48.10876" lon="-2.213">
        <ele>90.5</ele>
        <time>2021-07-31T18:13:26Z</time>
      </trkpt>
      <trkpt lat="48.1086" lon="-2.21291">
        <ele>90.02</ele>
        <time>2021-07-31T18:13:27Z</time>
      </trkpt>
      <trkpt lat="48.10685" lon="-2.21211">
        <ele>86.18</ele>
        <time>2021-07-31T18:13:36Z</time>
      </trkpt>
      <trkpt lat="48.10499" lon="-2.21104">
        <ele>81.37</ele>
        <time>2021-07-31T18:13:46Z</time>
      </trkpt>
      <trkpt lat="48.10237" lon="-2.20964">
        <ele>78.48</ele>
        <time>2021-07-31T18:13:59Z</time>
      </trkpt>
      <trkpt lat="48.10005" lon="-2.20826">
        <ele>74.16</ele>
        <time>2021-07-31T18:14:12Z</time>
      </trkpt>
      <trkpt lat="48.09766" lon="-2.20576">
        <ele>81.37</ele>
        <time>2021-07-31T18:14:27Z</time>
      </trkpt>
      <trkpt lat="48.09504" lon="-2.20298">
        <ele>75.12</ele>
        <time>2021-07-31T18:14:42Z</time>
      </trkpt>
      <trkpt lat="48.09403" lon="-2.20192">
        <ele>81.85</ele>
        <time>2021-07-31T18:14:50Z</time>
      </trkpt>
      <trkpt lat="48.09204" lon="-2.19987">
        <ele>100.11</ele>
        <time>2021-07-31T18:15:05Z</time>
      </trkpt>
      <trkpt lat="48.09082" lon="-2.19924">
        <ele>100.6</ele>
        <time>2021-07-31T18:15:13Z</time>
      </trkpt>
      <trkpt lat="48.08841" lon="-2.19847">
        <ele>104.44</ele>
        <time>2021-07-31T18:15:27Z</time>
      </trkpt>
      <trkpt lat="48.08476" lon="-2.19731">
        <ele>108.77</ele>
        <time>2021-07-31T18:15:47Z</time>
      </trkpt>
      <trkpt lat="48.0829" lon="-2.19676">
        <ele>113.57</ele>
        <time>2021-07-31T18:15:58Z</time>
      </trkpt>
      <trkpt lat="48.08171" lon="-2.19653">
        <ele>112.13</ele>
        <time>2021-07-31T18:16:07Z</time>
      </trkpt>
      <trkpt lat="48.07963" lon="-2.19608">
        <ele>107.32</ele>
        <time>2021-07-31T18:16:20Z</time>
      </trkpt>
      <trkpt lat="48.07761" lon="-2.19619">
        <ele>100.11</ele>
        <time>2021-07-31T18:16:32Z</time>
      </trkpt>
      <trkpt lat="48.07537" lon="-2.19631">
        <ele>90.02</ele>
        <time>2021-07-31T18:16:45Z</time>
      </trkpt>
      <trkpt lat="48.07521" lon="-2.19626">
        <ele>90.98</ele>
        <time>2021-07-31T18:16:46Z</time>
      </trkpt>
      <trkpt lat="48.07506" lon="-2.19621">
        <ele>91.94</ele>
        <time>2021-07-31T18:16:47Z</time>
      </trkpt>
      <trkpt lat="48.07492" lon="-2.19611">
        <ele>93.39</ele>
        <time>2021-07-31T18:16:48Z</time>
      </trkpt>
      <trkpt lat="48.07478" lon="-2.19599">
        <ele>93.87</ele>
        <time>2021-07-31T18:16:49Z</time>
      </trkpt>
      <trkpt lat="48.07463" lon="-2.19587">
        <ele>95.31</ele>
        <time>2021-07-31T18:16:50Z</time>
      </trkpt>
      <trkpt lat="48.0745" lon="-2.19573">
        <ele>97.23</ele>
        <time>2021-07-31T18:16:51Z</time>
      </trkpt>
      <trkpt lat="48.07437" lon="-2.19558">
        <ele>98.67</ele>
        <time>2021-07-31T18:16:52Z</time>
      </trkpt>
      <trkpt lat="48.07373" lon="-2.19478">
        <ele>103.48</ele>
        <time>2021-07-31T18:16:57Z</time>
      </trkpt>
      <trkpt lat="48.07358" lon="-2.19468">
        <ele>103.48</ele>
        <time>2021-07-31T18:16:58Z</time>
      </trkpt>
      <trkpt lat="48.07343" lon="-2.19458">
        <ele>103.48</ele>
        <time>2021-07-31T18:16:59Z</time>
      </trkpt>
      <trkpt lat="48.0712" lon="-2.19368">
        <ele>106.84</ele>
        <time>2021-07-31T18:17:12Z</time>
      </trkpt>
      <trkpt lat="48.06977" lon="-2.19286">
        <ele>108.29</ele>
        <time>2021-07-31T18:17:21Z</time>
      </trkpt>
      <trkpt lat="48.06747" lon="-2.1906">
        <ele>113.57</ele>
        <time>2021-07-31T18:17:37Z</time>
      </trkpt>
      <trkpt lat="48.06629" lon="-2.18943">
        <ele>115.5</ele>
        <time>2021-07-31T18:17:48Z</time>
      </trkpt>
      <trkpt lat="48.06531" lon="-2.18825">
        <ele>115.01</ele>
        <time>2021-07-31T18:17:57Z</time>
      </trkpt>
      <trkpt lat="48.06363" lon="-2.18612">
        <ele>114.53</ele>
        <time>2021-07-31T18:18:11Z</time>
      </trkpt>
      <trkpt lat="48.06239" lon="-2.18503">
        <ele>113.57</ele>
        <time>2021-07-31T18:18:19Z</time>
      </trkpt>
      <trkpt lat="48.0617" lon="-2.18459">
        <ele>114.53</ele>
        <time>2021-07-31T18:18:23Z</time>
      </trkpt>
      <trkpt lat="48.06015" lon="-2.1843">
        <ele>116.46</ele>
        <time>2021-07-31T18:18:32Z</time>
      </trkpt>
      <trkpt lat="48.05955" lon="-2.18439">
        <ele>116.46</ele>
        <time>2021-07-31T18:18:36Z</time>
      </trkpt>
      <trkpt lat="48.0594" lon="-2.18443">
        <ele>115.5</ele>
        <time>2021-07-31T18:18:37Z</time>
      </trkpt>
      <trkpt lat="48.05927" lon="-2.18451">
        <ele>115.5</ele>
        <time>2021-07-31T18:18:38Z</time>
      </trkpt>
      <trkpt lat="48.05915" lon="-2.18462">
        <ele>116.94</ele>
        <time>2021-07-31T18:18:39Z</time>
      </trkpt>
      <trkpt lat="48.05895" lon="-2.1849">
        <ele>116.46</ele>
        <time>2021-07-31T18:18:40Z</time>
      </trkpt>
      <trkpt lat="48.05814" lon="-2.18582">
        <ele>114.05</ele>
        <time>2021-07-31T18:18:48Z</time>
      </trkpt>
      <trkpt lat="48.05802" lon="-2.18594">
        <ele>114.05</ele>
        <time>2021-07-31T18:18:49Z</time>
      </trkpt>
      <trkpt lat="48.0579" lon="-2.18601">
        <ele>114.05</ele>
        <time>2021-07-31T18:18:50Z</time>
      </trkpt>
      <trkpt lat="48.05777" lon="-2.18607">
        <ele>114.53</ele>
        <time>2021-07-31T18:18:51Z</time>
      </trkpt>
      <trkpt lat="48.05575" lon="-2.18668">
        <ele>120.3</ele>
        <time>2021-07-31T18:19:05Z</time>
      </trkpt>
      <trkpt lat="48.05436" lon="-2.18647">
        <ele>121.74</ele>
        <time>2021-07-31T18:19:14Z</time>
      </trkpt>
      <trkpt lat="48.05127" lon="-2.18557">
        <ele>134.24</ele>
        <time>2021-07-31T18:19:32Z</time>
      </trkpt>
      <trkpt lat="48.05012" lon="-2.18552">
        <ele>136.16</ele>
        <time>2021-07-31T18:19:39Z</time>
      </trkpt>
      <trkpt lat="48.04771" lon="-2.18561">
        <ele>143.37</ele>
        <time>2021-07-31T18:19:52Z</time>
      </trkpt>
      <trkpt lat="48.04644" lon="-2.18527">
        <ele>149.62</ele>
        <time>2021-07-31T18:19:59Z</time>
      </trkpt>
      <trkpt lat="48.0446" lon="-2.18435">
        <ele>156.83</ele>
        <time>2021-07-31T18:20:09Z</time>
      </trkpt>
      <trkpt lat="48.04196" lon="-2.18355">
        <ele>166.93</ele>
        <time>2021-07-31T18:20:23Z</time>
      </trkpt>
      <trkpt lat="48.03971" lon="-2.18254">
        <ele>168.85</ele>
        <time>2021-07-31T18:20:35Z</time>
      </trkpt>
      <trkpt lat="48.03818" lon="-2.18127">
        <ele>166.45</ele>
        <time>2021-07-31T18:20:44Z</time>
      </trkpt>
      <trkpt lat="48.03649" lon="-2.18008">
        <ele>162.12</ele>
        <time>2021-07-31T18:20:53Z</time>
      </trkpt>
      <trkpt lat="48.03207" lon="-2.17731">
        <ele>159.72</ele>
        <time>2021-07-31T18:21:15Z</time>
      </trkpt>
      <trkpt lat="48.02931" lon="-2.17559">
        <ele>162.6</ele>
        <time>2021-07-31T18:21:30Z</time>
      </trkpt>
      <trkpt lat="48.02555" lon="-2.17326">
        <ele>157.31</ele>
        <time>2021-07-31T18:21:50Z</time>
      </trkpt>
      <trkpt lat="48.02469" lon="-2.17288">
        <ele>158.27</ele>
        <time>2021-07-31T18:21:58Z</time>
      </trkpt>
      <trkpt lat="48.02401" lon="-2.17261">
        <ele>158.27</ele>
        <time>2021-07-31T18:22:06Z</time>
      </trkpt>
      <trkpt lat="48.02305" lon="-2.17226">
        <ele>156.83</ele>
        <time>2021-07-31T18:22:18Z</time>
      </trkpt>
      <trkpt lat="48.02165" lon="-2.17154">
        <ele>149.14</ele>
        <time>2021-07-31T18:22:34Z</time>
      </trkpt>
      <trkpt lat="48.02128" lon="-2.17118">
        <ele>147.7</ele>
        <time>2021-07-31T18:22:41Z</time>
      </trkpt>
      <trkpt lat="48.02114" lon="-2.17112">
        <ele>147.7</ele>
        <time>2021-07-31T18:22:42Z</time>
      </trkpt>
      <trkpt lat="48.02114" lon="-2.17112">
        <ele>147.7</ele>
        <time>2021-07-31T18:22:43Z</time>
      </trkpt>
      <trkpt lat="48.02107" lon="-2.17109">
        <ele>147.7</ele>
        <time>2021-07-31T18:22:44Z</time>
      </trkpt>
      <trkpt lat="48.021" lon="-2.17106">
        <ele>147.7</ele>
        <time>2021-07-31T18:22:45Z</time>
      </trkpt>
      <trkpt lat="48.02092" lon="-2.17102">
        <ele>147.22</ele>
        <time>2021-07-31T18:22:46Z</time>
      </trkpt>
      <trkpt lat="48.02085" lon="-2.171">
        <ele>147.22</ele>
        <time>2021-07-31T18:22:47Z</time>
      </trkpt>
      <trkpt lat="48.01997" lon="-2.17096">
        <ele>149.14</ele>
        <time>2021-07-31T18:22:59Z</time>
      </trkpt>
      <trkpt lat="48.01985" lon="-2.17096">
        <ele>149.62</ele>
        <time>2021-07-31T18:23:09Z</time>
      </trkpt>
      <trkpt lat="48.01934" lon="-2.17081">
        <ele>151.54</ele>
        <time>2021-07-31T18:23:21Z</time>
      </trkpt>
      <trkpt lat="48.01885" lon="-2.17057">
        <ele>154.43</ele>
        <time>2021-07-31T18:23:34Z</time>
      </trkpt>
      <trkpt lat="48.01829" lon="-2.17034">
        <ele>156.83</ele>
        <time>2021-07-31T18:23:45Z</time>
      </trkpt>
      <trkpt lat="48.017" lon="-2.16986">
        <ele>157.79</ele>
        <time>2021-07-31T18:24:03Z</time>
      </trkpt>
      <trkpt lat="48.01644" lon="-2.16967">
        <ele>157.79</ele>
        <time>2021-07-31T18:24:13Z</time>
      </trkpt>
      <trkpt lat="48.01513" lon="-2.16919">
        <ele>156.83</ele>
        <time>2021-07-31T18:24:27Z</time>
      </trkpt>
      <trkpt lat="48.01464" lon="-2.16901">
        <ele>156.83</ele>
        <time>2021-07-31T18:24:34Z</time>
      </trkpt>
      <trkpt lat="48.01432" lon="-2.16906">
        <ele>155.87</ele>
        <time>2021-07-31T18:24:47Z</time>
      </trkpt>
      <trkpt lat="48.01426" lon="-2.16891">
        <ele>156.35</ele>
        <time>2021-07-31T18:24:50Z</time>
      </trkpt>
      <trkpt lat="48.01422" lon="-2.16889">
        <ele>156.35</ele>
        <time>2021-07-31T18:24:51Z</time>
      </trkpt>
      <trkpt lat="48.01417" lon="-2.16887">
        <ele>156.35</ele>
        <time>2021-07-31T18:24:52Z</time>
      </trkpt>
      <trkpt lat="48.01351" lon="-2.16865">
        <ele>156.83</ele>
        <time>2021-07-31T18:25:00Z</time>
      </trkpt>
      <trkpt lat="48.01236" lon="-2.16811">
        <ele>155.87</ele>
        <time>2021-07-31T18:25:10Z</time>
      </trkpt>
      <trkpt lat="48.01147" lon="-2.16706">
        <ele>150.1</ele>
        <time>2021-07-31T18:25:19Z</time>
      </trkpt>
      <trkpt lat="48.01014" lon="-2.16507">
        <ele>154.91</ele>
        <time>2021-07-31T18:25:32Z</time>
      </trkpt>
      <trkpt lat="48.00849" lon="-2.16258">
        <ele>156.83</ele>
        <time>2021-07-31T18:25:46Z</time>
      </trkpt>
      <trkpt lat="48.00626" lon="-2.15917">
        <ele>154.43</ele>
        <time>2021-07-31T18:26:04Z</time>
      </trkpt>
      <trkpt lat="48.00465" lon="-2.15673">
        <ele>152.99</ele>
        <time>2021-07-31T18:26:16Z</time>
      </trkpt>
      <trkpt lat="48.00285" lon="-2.15401">
        <ele>145.3</ele>
        <time>2021-07-31T18:26:29Z</time>
      </trkpt>
      <trkpt lat="48.00112" lon="-2.15141">
        <ele>135.68</ele>
        <time>2021-07-31T18:26:41Z</time>
      </trkpt>
      <trkpt lat="47.99953" lon="-2.14899">
        <ele>125.11</ele>
        <time>2021-07-31T18:26:53Z</time>
      </trkpt>
      <trkpt lat="47.99865" lon="-2.14767">
        <ele>118.38</ele>
        <time>2021-07-31T18:27:00Z</time>
      </trkpt>
      <trkpt lat="47.99865" lon="-2.14767">
        <ele>116.94</ele>
        <time>2021-07-31T18:27:01Z</time>
      </trkpt>
      <trkpt lat="47.99856" lon="-2.14757">
        <ele>115.98</ele>
        <time>2021-07-31T18:27:02Z</time>
      </trkpt>
      <trkpt lat="47.99846" lon="-2.14749">
        <ele>115.01</ele>
        <time>2021-07-31T18:27:03Z</time>
      </trkpt>
      <trkpt lat="47.99836" lon="-2.14745">
        <ele>114.05</ele>
        <time>2021-07-31T18:27:04Z</time>
      </trkpt>
      <trkpt lat="47.99824" lon="-2.1474">
        <ele>113.09</ele>
        <time>2021-07-31T18:27:05Z</time>
      </trkpt>
      <trkpt lat="47.99813" lon="-2.14736">
        <ele>111.65</ele>
        <time>2021-07-31T18:27:06Z</time>
      </trkpt>
      <trkpt lat="47.99804" lon="-2.14732">
        <ele>110.69</ele>
        <time>2021-07-31T18:27:07Z</time>
      </trkpt>
      <trkpt lat="47.99799" lon="-2.14725">
        <ele>110.21</ele>
        <time>2021-07-31T18:27:08Z</time>
      </trkpt>
      <trkpt lat="47.99794" lon="-2.14716">
        <ele>109.73</ele>
        <time>2021-07-31T18:27:09Z</time>
      </trkpt>
      <trkpt lat="47.99792" lon="-2.14708">
        <ele>108.77</ele>
        <time>2021-07-31T18:27:10Z</time>
      </trkpt>
      <trkpt lat="47.99792" lon="-2.14696">
        <ele>108.29</ele>
        <time>2021-07-31T18:27:11Z</time>
      </trkpt>
      <trkpt lat="47.99793" lon="-2.14686">
        <ele>107.32</ele>
        <time>2021-07-31T18:27:12Z</time>
      </trkpt>
      <trkpt lat="47.99796" lon="-2.14675">
        <ele>106.84</ele>
        <time>2021-07-31T18:27:13Z</time>
      </trkpt>
      <trkpt lat="47.99798" lon="-2.14664">
        <ele>105.88</ele>
        <time>2021-07-31T18:27:14Z</time>
      </trkpt>
      <trkpt lat="47.99809" lon="-2.14619">
        <ele>103.48</ele>
        <time>2021-07-31T18:27:18Z</time>
      </trkpt>
      <trkpt lat="47.99811" lon="-2.14611">
        <ele>102.52</ele>
        <time>2021-07-31T18:27:19Z</time>
      </trkpt>
      <trkpt lat="47.99808" lon="-2.14598">
        <ele>102.04</ele>
        <time>2021-07-31T18:27:20Z</time>
      </trkpt>
      <trkpt lat="47.99807" lon="-2.14594">
        <ele>101.56</ele>
        <time>2021-07-31T18:27:21Z</time>
      </trkpt>
      <trkpt lat="47.99801" lon="-2.14587">
        <ele>101.08</ele>
        <time>2021-07-31T18:27:22Z</time>
      </trkpt>
      <trkpt lat="47.99797" lon="-2.14583">
        <ele>100.6</ele>
        <time>2021-07-31T18:27:23Z</time>
      </trkpt>
      <trkpt lat="47.99792" lon="-2.14581">
        <ele>99.63</ele>
        <time>2021-07-31T18:27:24Z</time>
      </trkpt>
      <trkpt lat="47.99786" lon="-2.14581">
        <ele>99.15</ele>
        <time>2021-07-31T18:27:25Z</time>
      </trkpt>
      <trkpt lat="47.99781" lon="-2.14584">
        <ele>98.67</ele>
        <time>2021-07-31T18:27:26Z</time>
      </trkpt>
      <trkpt lat="47.99775" lon="-2.14589">
        <ele>98.19</ele>
        <time>2021-07-31T18:27:27Z</time>
      </trkpt>
      <trkpt lat="47.99714" lon="-2.14627">
        <ele>93.39</ele>
        <time>2021-07-31T18:27:34Z</time>
      </trkpt>
      <trkpt lat="47.99714" lon="-2.14627">
        <ele>92.42</ele>
        <time>2021-07-31T18:27:35Z</time>
      </trkpt>
      <trkpt lat="47.99707" lon="-2.1463">
        <ele>91.46</ele>
        <time>2021-07-31T18:27:36Z</time>
      </trkpt>
      <trkpt lat="47.99701" lon="-2.14626">
        <ele>90.5</ele>
        <time>2021-07-31T18:27:37Z</time>
      </trkpt>
      <trkpt lat="47.99691" lon="-2.14608">
        <ele>90.02</ele>
        <time>2021-07-31T18:27:38Z</time>
      </trkpt>
      <trkpt lat="47.99691" lon="-2.14608">
        <ele>89.54</ele>
        <time>2021-07-31T18:27:39Z</time>
      </trkpt>
      <trkpt lat="47.99688" lon="-2.14595">
        <ele>89.06</ele>
        <time>2021-07-31T18:27:40Z</time>
      </trkpt>
      <trkpt lat="47.99687" lon="-2.14583">
        <ele>88.1</ele>
        <time>2021-07-31T18:27:41Z</time>
      </trkpt>
      <trkpt lat="47.9968" lon="-2.14524">
        <ele>83.29</ele>
        <time>2021-07-31T18:27:45Z</time>
      </trkpt>
      <trkpt lat="47.99676" lon="-2.14504">
        <ele>80.41</ele>
        <time>2021-07-31T18:27:46Z</time>
      </trkpt>
      <trkpt lat="47.9967" lon="-2.14487">
        <ele>78</ele>
        <time>2021-07-31T18:27:47Z</time>
      </trkpt>
      <trkpt lat="47.99664" lon="-2.1447">
        <ele>77.04</ele>
        <time>2021-07-31T18:27:48Z</time>
      </trkpt>
      <trkpt lat="47.99657" lon="-2.14453">
        <ele>77.04</ele>
        <time>2021-07-31T18:27:49Z</time>
      </trkpt>
      <trkpt lat="47.9955" lon="-2.14292">
        <ele>73.2</ele>
        <time>2021-07-31T18:27:59Z</time>
      </trkpt>
      <trkpt lat="47.99467" lon="-2.14172">
        <ele>73.68</ele>
        <time>2021-07-31T18:28:07Z</time>
      </trkpt>
      <trkpt lat="47.99467" lon="-2.14172">
        <ele>74.16</ele>
        <time>2021-07-31T18:28:08Z</time>
      </trkpt>
      <trkpt lat="47.99453" lon="-2.14158">
        <ele>74.64</ele>
        <time>2021-07-31T18:28:09Z</time>
      </trkpt>
      <trkpt lat="47.9943" lon="-2.14144">
        <ele>76.56</ele>
        <time>2021-07-31T18:28:13Z</time>
      </trkpt>
      <trkpt lat="47.99422" lon="-2.14142">
        <ele>77.04</ele>
        <time>2021-07-31T18:28:14Z</time>
      </trkpt>
      <trkpt lat="47.99406" lon="-2.14142">
        <ele>77.04</ele>
        <time>2021-07-31T18:28:15Z</time>
      </trkpt>
      <trkpt lat="47.99406" lon="-2.14142">
        <ele>77.52</ele>
        <time>2021-07-31T18:28:16Z</time>
      </trkpt>
      <trkpt lat="47.994" lon="-2.14145">
        <ele>77.52</ele>
        <time>2021-07-31T18:28:17Z</time>
      </trkpt>
      <trkpt lat="47.99393" lon="-2.14148">
        <ele>78</ele>
        <time>2021-07-31T18:28:18Z</time>
      </trkpt>
      <trkpt lat="47.99325" lon="-2.14202">
        <ele>79.93</ele>
        <time>2021-07-31T18:28:29Z</time>
      </trkpt>
      <trkpt lat="47.99246" lon="-2.14276">
        <ele>81.85</ele>
        <time>2021-07-31T18:28:39Z</time>
      </trkpt>
      <trkpt lat="47.99126" lon="-2.14384">
        <ele>79.93</ele>
        <time>2021-07-31T18:28:48Z</time>
      </trkpt>
      <trkpt lat="47.9905" lon="-2.14434">
        <ele>81.37</ele>
        <time>2021-07-31T18:28:53Z</time>
      </trkpt>
      <trkpt lat="47.99035" lon="-2.14438">
        <ele>81.37</ele>
        <time>2021-07-31T18:28:54Z</time>
      </trkpt>
      <trkpt lat="47.98875" lon="-2.14422">
        <ele>79.93</ele>
        <time>2021-07-31T18:29:03Z</time>
      </trkpt>
      <trkpt lat="47.98765" lon="-2.14359">
        <ele>76.56</ele>
        <time>2021-07-31T18:29:11Z</time>
      </trkpt>
      <trkpt lat="47.98676" lon="-2.14312">
        <ele>74.16</ele>
        <time>2021-07-31T18:29:17Z</time>
      </trkpt>
      <trkpt lat="47.98551" lon="-2.14306">
        <ele>71.76</ele>
        <time>2021-07-31T18:29:25Z</time>
      </trkpt>
      <trkpt lat="47.98523" lon="-2.14307">
        <ele>70.79</ele>
        <time>2021-07-31T18:29:27Z</time>
      </trkpt>
      <trkpt lat="47.98509" lon="-2.14304">
        <ele>71.27</ele>
        <time>2021-07-31T18:29:28Z</time>
      </trkpt>
      <trkpt lat="47.98495" lon="-2.143">
        <ele>71.27</ele>
        <time>2021-07-31T18:29:29Z</time>
      </trkpt>
      <trkpt lat="47.98334" lon="-2.14205">
        <ele>68.39</ele>
        <time>2021-07-31T18:29:42Z</time>
      </trkpt>
      <trkpt lat="47.98282" lon="-2.14174">
        <ele>68.87</ele>
        <time>2021-07-31T18:29:51Z</time>
      </trkpt>
      <trkpt lat="47.9827" lon="-2.14167">
        <ele>68.87</ele>
        <time>2021-07-31T18:29:59Z</time>
      </trkpt>
      <trkpt lat="47.9827" lon="-2.14167">
        <ele>69.35</ele>
        <time>2021-07-31T18:30:11Z</time>
      </trkpt>
      <trkpt lat="47.98268" lon="-2.14166">
        <ele>69.35</ele>
        <time>2021-07-31T18:30:12Z</time>
      </trkpt>
      <trkpt lat="47.98263" lon="-2.14172">
        <ele>69.35</ele>
        <time>2021-07-31T18:30:13Z</time>
      </trkpt>
      <trkpt lat="47.98263" lon="-2.14172">
        <ele>69.35</ele>
        <time>2021-07-31T18:30:14Z</time>
      </trkpt>
      <trkpt lat="47.9826" lon="-2.14178">
        <ele>69.35</ele>
        <time>2021-07-31T18:30:15Z</time>
      </trkpt>
      <trkpt lat="47.9822" lon="-2.14271">
        <ele>72.24</ele>
        <time>2021-07-31T18:30:24Z</time>
      </trkpt>
      <trkpt lat="47.98148" lon="-2.14448">
        <ele>79.45</ele>
        <time>2021-07-31T18:30:35Z</time>
      </trkpt>
      <trkpt lat="47.98052" lon="-2.14679">
        <ele>88.1</ele>
        <time>2021-07-31T18:30:47Z</time>
      </trkpt>
      <trkpt lat="47.97899" lon="-2.1505">
        <ele>92.42</ele>
        <time>2021-07-31T18:31:04Z</time>
      </trkpt>
      <trkpt lat="47.97757" lon="-2.15397">
        <ele>88.58</ele>
        <time>2021-07-31T18:31:18Z</time>
      </trkpt>
      <trkpt lat="47.97662" lon="-2.1563">
        <ele>96.75</ele>
        <time>2021-07-31T18:31:28Z</time>
      </trkpt>
      <trkpt lat="47.97527" lon="-2.1596">
        <ele>96.27</ele>
        <time>2021-07-31T18:31:42Z</time>
      </trkpt>
      <trkpt lat="47.97403" lon="-2.16262">
        <ele>98.19</ele>
        <time>2021-07-31T18:31:56Z</time>
      </trkpt>
      <trkpt lat="47.97328" lon="-2.16445">
        <ele>105.88</ele>
        <time>2021-07-31T18:32:07Z</time>
      </trkpt>
      <trkpt lat="47.97262" lon="-2.16604">
        <ele>110.69</ele>
        <time>2021-07-31T18:32:18Z</time>
      </trkpt>
      <trkpt lat="47.97223" lon="-2.16702">
        <ele>114.53</ele>
        <time>2021-07-31T18:32:28Z</time>
      </trkpt>
      <trkpt lat="47.97199" lon="-2.16761">
        <ele>117.42</ele>
        <time>2021-07-31T18:32:36Z</time>
      </trkpt>
      <trkpt lat="47.97156" lon="-2.16868">
        <ele>121.74</ele>
        <time>2021-07-31T18:32:46Z</time>
      </trkpt>
      <trkpt lat="47.97084" lon="-2.17066">
        <ele>125.59</ele>
        <time>2021-07-31T18:33:02Z</time>
      </trkpt>
      <trkpt lat="47.97064" lon="-2.17151">
        <ele>124.63</ele>
        <time>2021-07-31T18:33:10Z</time>
      </trkpt>
      <trkpt lat="47.9705" lon="-2.17264">
        <ele>122.22</ele>
        <time>2021-07-31T18:33:23Z</time>
      </trkpt>
      <trkpt lat="47.9704" lon="-2.17402">
        <ele>113.09</ele>
        <time>2021-07-31T18:33:33Z</time>
      </trkpt>
      <trkpt lat="47.97029" lon="-2.17651">
        <ele>105.4</ele>
        <time>2021-07-31T18:33:47Z</time>
      </trkpt>
      <trkpt lat="47.97" lon="-2.17832">
        <ele>100.11</ele>
        <time>2021-07-31T18:33:56Z</time>
      </trkpt>
      <trkpt lat="47.96937" lon="-2.18123">
        <ele>109.25</ele>
        <time>2021-07-31T18:34:08Z</time>
      </trkpt>
      <trkpt lat="47.96881" lon="-2.18395">
        <ele>103.48</ele>
        <time>2021-07-31T18:34:19Z</time>
      </trkpt>
      <trkpt lat="47.96818" lon="-2.18694">
        <ele>92.42</ele>
        <time>2021-07-31T18:34:29Z</time>
      </trkpt>
      <trkpt lat="47.96757" lon="-2.19044">
        <ele>92.9</ele>
        <time>2021-07-31T18:34:39Z</time>
      </trkpt>
      <trkpt lat="47.96721" lon="-2.19537">
        <ele>99.15</ele>
        <time>2021-07-31T18:34:54Z</time>
      </trkpt>
      <trkpt lat="47.96695" lon="-2.19908">
        <ele>101.08</ele>
        <time>2021-07-31T18:35:05Z</time>
      </trkpt>
      <trkpt lat="47.96672" lon="-2.20243">
        <ele>103.96</ele>
        <time>2021-07-31T18:35:16Z</time>
      </trkpt>
      <trkpt lat="47.96647" lon="-2.20598">
        <ele>111.65</ele>
        <time>2021-07-31T18:35:27Z</time>
      </trkpt>
      <trkpt lat="47.96608" lon="-2.20894">
        <ele>107.81</ele>
        <time>2021-07-31T18:35:38Z</time>
      </trkpt>
      <trkpt lat="47.96547" lon="-2.21254">
        <ele>100.11</ele>
        <time>2021-07-31T18:35:48Z</time>
      </trkpt>
      <trkpt lat="47.96491" lon="-2.21554">
        <ele>102.52</ele>
        <time>2021-07-31T18:35:59Z</time>
      </trkpt>
      <trkpt lat="47.96408" lon="-2.21785">
        <ele>111.17</ele>
        <time>2021-07-31T18:36:08Z</time>
      </trkpt>
      <trkpt lat="47.96337" lon="-2.2201">
        <ele>117.42</ele>
        <time>2021-07-31T18:36:17Z</time>
      </trkpt>
      <trkpt lat="47.96247" lon="-2.22325">
        <ele>127.51</ele>
        <time>2021-07-31T18:36:29Z</time>
      </trkpt>
      <trkpt lat="47.96228" lon="-2.22433">
        <ele>127.99</ele>
        <time>2021-07-31T18:36:32Z</time>
      </trkpt>
      <trkpt lat="47.96228" lon="-2.22433">
        <ele>128.47</ele>
        <time>2021-07-31T18:36:33Z</time>
      </trkpt>
      <trkpt lat="47.96207" lon="-2.22859">
        <ele>139.05</ele>
        <time>2021-07-31T18:36:48Z</time>
      </trkpt>
      <trkpt lat="47.96198" lon="-2.22913">
        <ele>140.97</ele>
        <time>2021-07-31T18:36:50Z</time>
      </trkpt>
      <trkpt lat="47.96194" lon="-2.2294">
        <ele>141.93</ele>
        <time>2021-07-31T18:36:51Z</time>
      </trkpt>
      <trkpt lat="47.96157" lon="-2.23064">
        <ele>145.3</ele>
        <time>2021-07-31T18:36:56Z</time>
      </trkpt>
      <trkpt lat="47.96148" lon="-2.23087">
        <ele>145.78</ele>
        <time>2021-07-31T18:36:57Z</time>
      </trkpt>
      <trkpt lat="47.96138" lon="-2.23107">
        <ele>146.26</ele>
        <time>2021-07-31T18:36:58Z</time>
      </trkpt>
      <trkpt lat="47.96127" lon="-2.23126">
        <ele>146.74</ele>
        <time>2021-07-31T18:36:59Z</time>
      </trkpt>
      <trkpt lat="47.96115" lon="-2.23145">
        <ele>147.7</ele>
        <time>2021-07-31T18:37:00Z</time>
      </trkpt>
      <trkpt lat="47.96007" lon="-2.23332">
        <ele>152.51</ele>
        <time>2021-07-31T18:37:09Z</time>
      </trkpt>
      <trkpt lat="47.95969" lon="-2.23505">
        <ele>151.06</ele>
        <time>2021-07-31T18:37:15Z</time>
      </trkpt>
      <trkpt lat="47.95968" lon="-2.23568">
        <ele>148.66</ele>
        <time>2021-07-31T18:37:17Z</time>
      </trkpt>
      <trkpt lat="47.9597" lon="-2.236">
        <ele>147.7</ele>
        <time>2021-07-31T18:37:18Z</time>
      </trkpt>
      <trkpt lat="47.95972" lon="-2.23635">
        <ele>146.74</ele>
        <time>2021-07-31T18:37:19Z</time>
      </trkpt>
      <trkpt lat="47.95979" lon="-2.23668">
        <ele>145.3</ele>
        <time>2021-07-31T18:37:20Z</time>
      </trkpt>
      <trkpt lat="47.95987" lon="-2.23701">
        <ele>143.37</ele>
        <time>2021-07-31T18:37:21Z</time>
      </trkpt>
      <trkpt lat="47.95995" lon="-2.23732">
        <ele>141.45</ele>
        <time>2021-07-31T18:37:22Z</time>
      </trkpt>
      <trkpt lat="47.96005" lon="-2.23763">
        <ele>140.49</ele>
        <time>2021-07-31T18:37:23Z</time>
      </trkpt>
      <trkpt lat="47.96154" lon="-2.24129">
        <ele>130.88</ele>
        <time>2021-07-31T18:37:35Z</time>
      </trkpt>
      <trkpt lat="47.96239" lon="-2.24345">
        <ele>124.15</ele>
        <time>2021-07-31T18:37:43Z</time>
      </trkpt>
      <trkpt lat="47.96246" lon="-2.24371">
        <ele>123.19</ele>
        <time>2021-07-31T18:37:44Z</time>
      </trkpt>
      <trkpt lat="47.9625" lon="-2.24398">
        <ele>121.74</ele>
        <time>2021-07-31T18:37:45Z</time>
      </trkpt>
      <trkpt lat="47.96251" lon="-2.24425">
        <ele>120.78</ele>
        <time>2021-07-31T18:37:46Z</time>
      </trkpt>
      <trkpt lat="47.96253" lon="-2.24453">
        <ele>119.82</ele>
        <time>2021-07-31T18:37:47Z</time>
      </trkpt>
      <trkpt lat="47.96248" lon="-2.24762">
        <ele>109.25</ele>
        <time>2021-07-31T18:37:57Z</time>
      </trkpt>
      <trkpt lat="47.96231" lon="-2.25315">
        <ele>107.32</ele>
        <time>2021-07-31T18:38:15Z</time>
      </trkpt>
      <trkpt lat="47.96213" lon="-2.25862">
        <ele>98.67</ele>
        <time>2021-07-31T18:38:33Z</time>
      </trkpt>
      <trkpt lat="47.96196" lon="-2.26548">
        <ele>90.02</ele>
        <time>2021-07-31T18:38:55Z</time>
      </trkpt>
      <trkpt lat="47.96206" lon="-2.26933">
        <ele>97.71</ele>
        <time>2021-07-31T18:39:10Z</time>
      </trkpt>
      <trkpt lat="47.96215" lon="-2.27314">
        <ele>84.73</ele>
        <time>2021-07-31T18:39:23Z</time>
      </trkpt>
      <trkpt lat="47.96208" lon="-2.2757">
        <ele>88.1</ele>
        <time>2021-07-31T18:39:33Z</time>
      </trkpt>
      <trkpt lat="47.96181" lon="-2.27885">
        <ele>90.02</ele>
        <time>2021-07-31T18:39:46Z</time>
      </trkpt>
      <trkpt lat="47.96143" lon="-2.28298">
        <ele>77.04</ele>
        <time>2021-07-31T18:40:00Z</time>
      </trkpt>
      <trkpt lat="47.9611" lon="-2.28419">
        <ele>83.29</ele>
        <time>2021-07-31T18:40:06Z</time>
      </trkpt>
      <trkpt lat="47.95997" lon="-2.28678">
        <ele>78.97</ele>
        <time>2021-07-31T18:40:20Z</time>
      </trkpt>
      <trkpt lat="47.95897" lon="-2.28904">
        <ele>77.52</ele>
        <time>2021-07-31T18:40:33Z</time>
      </trkpt>
      <trkpt lat="47.95773" lon="-2.29185">
        <ele>81.37</ele>
        <time>2021-07-31T18:40:48Z</time>
      </trkpt>
      <trkpt lat="47.95742" lon="-2.29271">
        <ele>83.77</ele>
        <time>2021-07-31T18:40:56Z</time>
      </trkpt>
      <trkpt lat="47.95735" lon="-2.2929">
        <ele>84.25</ele>
        <time>2021-07-31T18:40:59Z</time>
      </trkpt>
      <trkpt lat="47.95718" lon="-2.29376">
        <ele>85.21</ele>
        <time>2021-07-31T18:41:09Z</time>
      </trkpt>
      <trkpt lat="47.95715" lon="-2.29405">
        <ele>84.73</ele>
        <time>2021-07-31T18:41:17Z</time>
      </trkpt>
      <trkpt lat="47.95714" lon="-2.29418">
        <ele>84.25</ele>
        <time>2021-07-31T18:41:19Z</time>
      </trkpt>
      <trkpt lat="47.95711" lon="-2.29425">
        <ele>84.25</ele>
        <time>2021-07-31T18:41:20Z</time>
      </trkpt>
      <trkpt lat="47.95709" lon="-2.29432">
        <ele>84.25</ele>
        <time>2021-07-31T18:41:21Z</time>
      </trkpt>
      <trkpt lat="47.95706" lon="-2.29441">
        <ele>83.77</ele>
        <time>2021-07-31T18:41:22Z</time>
      </trkpt>
      <trkpt lat="47.95702" lon="-2.29449">
        <ele>83.77</ele>
        <time>2021-07-31T18:41:23Z</time>
      </trkpt>
      <trkpt lat="47.95655" lon="-2.29581">
        <ele>81.37</ele>
        <time>2021-07-31T18:41:34Z</time>
      </trkpt>
      <trkpt lat="47.95592" lon="-2.2978">
        <ele>78</ele>
        <time>2021-07-31T18:41:45Z</time>
      </trkpt>
      <trkpt lat="47.95506" lon="-2.30032">
        <ele>74.16</ele>
        <time>2021-07-31T18:41:56Z</time>
      </trkpt>
      <trkpt lat="47.95496" lon="-2.30054">
        <ele>73.2</ele>
        <time>2021-07-31T18:41:57Z</time>
      </trkpt>
      <trkpt lat="47.95316" lon="-2.30329">
        <ele>75.12</ele>
        <time>2021-07-31T18:42:10Z</time>
      </trkpt>
      <trkpt lat="47.95069" lon="-2.30714">
        <ele>71.27</ele>
        <time>2021-07-31T18:42:27Z</time>
      </trkpt>
      <trkpt lat="47.95056" lon="-2.30739">
        <ele>71.27</ele>
        <time>2021-07-31T18:42:28Z</time>
      </trkpt>
      <trkpt lat="47.94957" lon="-2.31054">
        <ele>77.04</ele>
        <time>2021-07-31T18:42:39Z</time>
      </trkpt>
      <trkpt lat="47.94837" lon="-2.31448">
        <ele>99.63</ele>
        <time>2021-07-31T18:42:53Z</time>
      </trkpt>
      <trkpt lat="47.94802" lon="-2.31656">
        <ele>102.04</ele>
        <time>2021-07-31T18:43:01Z</time>
      </trkpt>
      <trkpt lat="47.94796" lon="-2.32032">
        <ele>101.08</ele>
        <time>2021-07-31T18:43:14Z</time>
      </trkpt>
      <trkpt lat="47.94738" lon="-2.32218">
        <ele>105.88</ele>
        <time>2021-07-31T18:43:21Z</time>
      </trkpt>
      <trkpt lat="47.94574" lon="-2.32686">
        <ele>102.04</ele>
        <time>2021-07-31T18:43:37Z</time>
      </trkpt>
      <trkpt lat="47.94451" lon="-2.33067">
        <ele>95.31</ele>
        <time>2021-07-31T18:43:51Z</time>
      </trkpt>
      <trkpt lat="47.94348" lon="-2.3355">
        <ele>93.39</ele>
        <time>2021-07-31T18:44:08Z</time>
      </trkpt>
      <trkpt lat="47.94242" lon="-2.34052">
        <ele>87.14</ele>
        <time>2021-07-31T18:44:26Z</time>
      </trkpt>
      <trkpt lat="47.94126" lon="-2.34525">
        <ele>87.14</ele>
        <time>2021-07-31T18:44:43Z</time>
      </trkpt>
      <trkpt lat="47.93986" lon="-2.35051">
        <ele>94.83</ele>
        <time>2021-07-31T18:45:03Z</time>
      </trkpt>
      <trkpt lat="47.93874" lon="-2.35475">
        <ele>85.21</ele>
        <time>2021-07-31T18:45:18Z</time>
      </trkpt>
      <trkpt lat="47.93805" lon="-2.35735">
        <ele>90.02</ele>
        <time>2021-07-31T18:45:28Z</time>
      </trkpt>
      <trkpt lat="47.93755" lon="-2.35929">
        <ele>94.35</ele>
        <time>2021-07-31T18:45:39Z</time>
      </trkpt>
      <trkpt lat="47.93701" lon="-2.36157">
        <ele>96.27</ele>
        <time>2021-07-31T18:45:54Z</time>
      </trkpt>
      <trkpt lat="47.93655" lon="-2.36382">
        <ele>96.75</ele>
        <time>2021-07-31T18:46:09Z</time>
      </trkpt>
      <trkpt lat="47.93608" lon="-2.36614">
        <ele>89.54</ele>
        <time>2021-07-31T18:46:20Z</time>
      </trkpt>
      <trkpt lat="47.93549" lon="-2.36907">
        <ele>97.23</ele>
        <time>2021-07-31T18:46:32Z</time>
      </trkpt>
      <trkpt lat="47.93473" lon="-2.37276">
        <ele>102.52</ele>
        <time>2021-07-31T18:46:47Z</time>
      </trkpt>
      <trkpt lat="47.9342" lon="-2.37537">
        <ele>103.96</ele>
        <time>2021-07-31T18:47:01Z</time>
      </trkpt>
      <trkpt lat="47.93337" lon="-2.37948">
        <ele>101.56</ele>
        <time>2021-07-31T18:47:21Z</time>
      </trkpt>
      <trkpt lat="47.93325" lon="-2.38022">
        <ele>101.56</ele>
        <time>2021-07-31T18:47:27Z</time>
      </trkpt>
      <trkpt lat="47.93323" lon="-2.38049">
        <ele>100.6</ele>
        <time>2021-07-31T18:47:35Z</time>
      </trkpt>
      <trkpt lat="47.93334" lon="-2.38072">
        <ele>100.6</ele>
        <time>2021-07-31T18:47:39Z</time>
      </trkpt>
      <trkpt lat="47.93336" lon="-2.38093">
        <ele>100.11</ele>
        <time>2021-07-31T18:47:40Z</time>
      </trkpt>
      <trkpt lat="47.93334" lon="-2.38104">
        <ele>100.11</ele>
        <time>2021-07-31T18:47:41Z</time>
      </trkpt>
      <trkpt lat="47.93334" lon="-2.38104">
        <ele>99.63</ele>
        <time>2021-07-31T18:47:42Z</time>
      </trkpt>
      <trkpt lat="47.93331" lon="-2.38115">
        <ele>99.15</ele>
        <time>2021-07-31T18:47:43Z</time>
      </trkpt>
      <trkpt lat="47.93325" lon="-2.3812">
        <ele>99.15</ele>
        <time>2021-07-31T18:47:44Z</time>
      </trkpt>
      <trkpt lat="47.93317" lon="-2.38125">
        <ele>99.15</ele>
        <time>2021-07-31T18:47:45Z</time>
      </trkpt>
      <trkpt lat="47.9331" lon="-2.3813">
        <ele>99.15</ele>
        <time>2021-07-31T18:47:46Z</time>
      </trkpt>
      <trkpt lat="47.93304" lon="-2.38132">
        <ele>98.67</ele>
        <time>2021-07-31T18:47:47Z</time>
      </trkpt>
      <trkpt lat="47.93296" lon="-2.38127">
        <ele>98.67</ele>
        <time>2021-07-31T18:47:48Z</time>
      </trkpt>
      <trkpt lat="47.9329" lon="-2.38122">
        <ele>98.67</ele>
        <time>2021-07-31T18:47:49Z</time>
      </trkpt>
      <trkpt lat="47.93286" lon="-2.38113">
        <ele>98.19</ele>
        <time>2021-07-31T18:47:50Z</time>
      </trkpt>
      <trkpt lat="47.93282" lon="-2.38102">
        <ele>98.19</ele>
        <time>2021-07-31T18:47:51Z</time>
      </trkpt>
      <trkpt lat="47.93269" lon="-2.38088">
        <ele>97.71</ele>
        <time>2021-07-31T18:47:52Z</time>
      </trkpt>
      <trkpt lat="47.93261" lon="-2.38088">
        <ele>97.23</ele>
        <time>2021-07-31T18:47:53Z</time>
      </trkpt>
      <trkpt lat="47.9325" lon="-2.38088">
        <ele>95.79</ele>
        <time>2021-07-31T18:47:54Z</time>
      </trkpt>
      <trkpt lat="47.93238" lon="-2.3809">
        <ele>94.35</ele>
        <time>2021-07-31T18:47:55Z</time>
      </trkpt>
      <trkpt lat="47.9312" lon="-2.38113">
        <ele>90.02</ele>
        <time>2021-07-31T18:48:04Z</time>
      </trkpt>
      <trkpt lat="47.92951" lon="-2.38204">
        <ele>82.81</ele>
        <time>2021-07-31T18:48:15Z</time>
      </trkpt>
      <trkpt lat="47.92889" lon="-2.38254">
        <ele>79.45</ele>
        <time>2021-07-31T18:48:20Z</time>
      </trkpt>
      <trkpt lat="47.92881" lon="-2.38263">
        <ele>79.93</ele>
        <time>2021-07-31T18:48:21Z</time>
      </trkpt>
      <trkpt lat="47.92876" lon="-2.38275">
        <ele>79.45</ele>
        <time>2021-07-31T18:48:22Z</time>
      </trkpt>
      <trkpt lat="47.92872" lon="-2.38288">
        <ele>79.45</ele>
        <time>2021-07-31T18:48:23Z</time>
      </trkpt>
      <trkpt lat="47.92867" lon="-2.38309">
        <ele>79.45</ele>
        <time>2021-07-31T18:48:24Z</time>
      </trkpt>
      <trkpt lat="47.92867" lon="-2.38309">
        <ele>79.45</ele>
        <time>2021-07-31T18:48:25Z</time>
      </trkpt>
      <trkpt lat="47.92863" lon="-2.38326">
        <ele>78.97</ele>
        <time>2021-07-31T18:48:26Z</time>
      </trkpt>
      <trkpt lat="47.92861" lon="-2.3833">
        <ele>78.97</ele>
        <time>2021-07-31T18:48:27Z</time>
      </trkpt>
      <trkpt lat="47.92861" lon="-2.3833">
        <ele>78.48</ele>
        <time>2021-07-31T18:48:28Z</time>
      </trkpt>
      <trkpt lat="47.92853" lon="-2.38334">
        <ele>78</ele>
        <time>2021-07-31T18:48:29Z</time>
      </trkpt>
      <trkpt lat="47.92848" lon="-2.38337">
        <ele>78</ele>
        <time>2021-07-31T18:48:30Z</time>
      </trkpt>
      <trkpt lat="47.92842" lon="-2.38332">
        <ele>77.52</ele>
        <time>2021-07-31T18:48:31Z</time>
      </trkpt>
      <trkpt lat="47.92835" lon="-2.38326">
        <ele>77.52</ele>
        <time>2021-07-31T18:48:32Z</time>
      </trkpt>
      <trkpt lat="47.92835" lon="-2.38326">
        <ele>76.56</ele>
        <time>2021-07-31T18:48:33Z</time>
      </trkpt>
      <trkpt lat="47.92815" lon="-2.38315">
        <ele>76.08</ele>
        <time>2021-07-31T18:48:34Z</time>
      </trkpt>
      <trkpt lat="47.92807" lon="-2.38319">
        <ele>75.6</ele>
        <time>2021-07-31T18:48:35Z</time>
      </trkpt>
      <trkpt lat="47.92798" lon="-2.38325">
        <ele>76.56</ele>
        <time>2021-07-31T18:48:36Z</time>
      </trkpt>
      <trkpt lat="47.9279" lon="-2.38331">
        <ele>76.56</ele>
        <time>2021-07-31T18:48:37Z</time>
      </trkpt>
      <trkpt lat="47.92681" lon="-2.38418">
        <ele>73.2</ele>
        <time>2021-07-31T18:48:46Z</time>
      </trkpt>
      <trkpt lat="47.92475" lon="-2.38561">
        <ele>66.95</ele>
        <time>2021-07-31T18:48:58Z</time>
      </trkpt>
      <trkpt lat="47.9232" lon="-2.38604">
        <ele>63.58</ele>
        <time>2021-07-31T18:49:07Z</time>
      </trkpt>
      <trkpt lat="47.92075" lon="-2.38647">
        <ele>58.3</ele>
        <time>2021-07-31T18:49:18Z</time>
      </trkpt>
      <trkpt lat="47.91968" lon="-2.38698">
        <ele>56.86</ele>
        <time>2021-07-31T18:49:26Z</time>
      </trkpt>
      <trkpt lat="47.91916" lon="-2.38719">
        <ele>59.26</ele>
        <time>2021-07-31T18:49:32Z</time>
      </trkpt>
      <trkpt lat="47.91905" lon="-2.38731">
        <ele>59.74</ele>
        <time>2021-07-31T18:49:40Z</time>
      </trkpt>
      <trkpt lat="47.9189" lon="-2.38746">
        <ele>60.22</ele>
        <time>2021-07-31T18:49:43Z</time>
      </trkpt>
      <trkpt lat="47.91885" lon="-2.38756">
        <ele>60.22</ele>
        <time>2021-07-31T18:49:44Z</time>
      </trkpt>
      <trkpt lat="47.9188" lon="-2.38768">
        <ele>60.7</ele>
        <time>2021-07-31T18:49:45Z</time>
      </trkpt>
      <trkpt lat="47.91873" lon="-2.38783">
        <ele>60.7</ele>
        <time>2021-07-31T18:49:46Z</time>
      </trkpt>
      <trkpt lat="47.91869" lon="-2.388">
        <ele>59.74</ele>
        <time>2021-07-31T18:49:47Z</time>
      </trkpt>
      <trkpt lat="47.91829" lon="-2.38987">
        <ele>53.97</ele>
        <time>2021-07-31T18:49:57Z</time>
      </trkpt>
      <trkpt lat="47.91813" lon="-2.3925">
        <ele>51.09</ele>
        <time>2021-07-31T18:50:09Z</time>
      </trkpt>
      <trkpt lat="47.91807" lon="-2.39589">
        <ele>49.16</ele>
        <time>2021-07-31T18:50:24Z</time>
      </trkpt>
      <trkpt lat="47.91816" lon="-2.39964">
        <ele>47.24</ele>
        <time>2021-07-31T18:50:40Z</time>
      </trkpt>
      <trkpt lat="47.91855" lon="-2.40243">
        <ele>46.28</ele>
        <time>2021-07-31T18:50:53Z</time>
      </trkpt>
      <trkpt lat="47.91919" lon="-2.40471">
        <ele>49.16</ele>
        <time>2021-07-31T18:51:06Z</time>
      </trkpt>
      <trkpt lat="47.91934" lon="-2.40507">
        <ele>51.09</ele>
        <time>2021-07-31T18:51:11Z</time>
      </trkpt>
      <trkpt lat="47.91938" lon="-2.40517">
        <ele>51.57</ele>
        <time>2021-07-31T18:51:12Z</time>
      </trkpt>
      <trkpt lat="47.91944" lon="-2.40523">
        <ele>52.05</ele>
        <time>2021-07-31T18:51:13Z</time>
      </trkpt>
      <trkpt lat="47.91951" lon="-2.4053">
        <ele>53.01</ele>
        <time>2021-07-31T18:51:14Z</time>
      </trkpt>
      <trkpt lat="47.9196" lon="-2.40531">
        <ele>53.49</ele>
        <time>2021-07-31T18:51:15Z</time>
      </trkpt>
      <trkpt lat="47.91968" lon="-2.40532">
        <ele>55.41</ele>
        <time>2021-07-31T18:51:16Z</time>
      </trkpt>
      <trkpt lat="47.91978" lon="-2.40525">
        <ele>55.41</ele>
        <time>2021-07-31T18:51:17Z</time>
      </trkpt>
      <trkpt lat="47.91985" lon="-2.40517">
        <ele>55.89</ele>
        <time>2021-07-31T18:51:18Z</time>
      </trkpt>
      <trkpt lat="47.91992" lon="-2.40506">
        <ele>56.37</ele>
        <time>2021-07-31T18:51:19Z</time>
      </trkpt>
      <trkpt lat="47.91994" lon="-2.40495">
        <ele>55.89</ele>
        <time>2021-07-31T18:51:20Z</time>
      </trkpt>
      <trkpt lat="47.91996" lon="-2.40483">
        <ele>55.41</ele>
        <time>2021-07-31T18:51:21Z</time>
      </trkpt>
      <trkpt lat="47.91994" lon="-2.40471">
        <ele>54.93</ele>
        <time>2021-07-31T18:51:22Z</time>
      </trkpt>
      <trkpt lat="47.91992" lon="-2.40459">
        <ele>55.41</ele>
        <time>2021-07-31T18:51:23Z</time>
      </trkpt>
      <trkpt lat="47.91988" lon="-2.40446">
        <ele>55.41</ele>
        <time>2021-07-31T18:51:24Z</time>
      </trkpt>
      <trkpt lat="47.91984" lon="-2.40433">
        <ele>54.93</ele>
        <time>2021-07-31T18:51:25Z</time>
      </trkpt>
      <trkpt lat="47.91977" lon="-2.40424">
        <ele>54.45</ele>
        <time>2021-07-31T18:51:26Z</time>
      </trkpt>
      <trkpt lat="47.91969" lon="-2.40415">
        <ele>54.45</ele>
        <time>2021-07-31T18:51:27Z</time>
      </trkpt>
      <trkpt lat="47.91961" lon="-2.4041">
        <ele>54.45</ele>
        <time>2021-07-31T18:51:28Z</time>
      </trkpt>
      <trkpt lat="47.91953" lon="-2.40408">
        <ele>53.97</ele>
        <time>2021-07-31T18:51:29Z</time>
      </trkpt>
      <trkpt lat="47.91944" lon="-2.40405">
        <ele>53.97</ele>
        <time>2021-07-31T18:51:30Z</time>
      </trkpt>
      <trkpt lat="47.91932" lon="-2.40401">
        <ele>53.97</ele>
        <time>2021-07-31T18:51:31Z</time>
      </trkpt>
      <trkpt lat="47.91824" lon="-2.40456">
        <ele>53.97</ele>
        <time>2021-07-31T18:51:40Z</time>
      </trkpt>
      <trkpt lat="47.91667" lon="-2.4053">
        <ele>49.16</ele>
        <time>2021-07-31T18:51:52Z</time>
      </trkpt>
      <trkpt lat="47.91527" lon="-2.406">
        <ele>46.76</ele>
        <time>2021-07-31T18:52:00Z</time>
      </trkpt>
      <trkpt lat="47.91165" lon="-2.40784">
        <ele>66.47</ele>
        <time>2021-07-31T18:52:18Z</time>
      </trkpt>
      <trkpt lat="47.90853" lon="-2.40911">
        <ele>76.56</ele>
        <time>2021-07-31T18:52:33Z</time>
      </trkpt>
      <trkpt lat="47.90414" lon="-2.41076">
        <ele>76.08</ele>
        <time>2021-07-31T18:52:52Z</time>
      </trkpt>
      <trkpt lat="47.89941" lon="-2.41248">
        <ele>59.74</ele>
        <time>2021-07-31T18:53:11Z</time>
      </trkpt>
      <trkpt lat="47.89614" lon="-2.41314">
        <ele>49.16</ele>
        <time>2021-07-31T18:53:24Z</time>
      </trkpt>
      <trkpt lat="47.89159" lon="-2.41397">
        <ele>36.67</ele>
        <time>2021-07-31T18:53:41Z</time>
      </trkpt>
      <trkpt lat="47.88772" lon="-2.41503">
        <ele>47.72</ele>
        <time>2021-07-31T18:53:58Z</time>
      </trkpt>
      <trkpt lat="47.8833" lon="-2.41605">
        <ele>48.68</ele>
        <time>2021-07-31T18:54:16Z</time>
      </trkpt>
      <trkpt lat="47.87854" lon="-2.41716">
        <ele>42.92</ele>
        <time>2021-07-31T18:54:35Z</time>
      </trkpt>
      <trkpt lat="47.87356" lon="-2.41844">
        <ele>53.01</ele>
        <time>2021-07-31T18:54:55Z</time>
      </trkpt>
      <trkpt lat="47.8711" lon="-2.41855">
        <ele>64.55</ele>
        <time>2021-07-31T18:55:07Z</time>
      </trkpt>
      <trkpt lat="47.86864" lon="-2.41797">
        <ele>71.76</ele>
        <time>2021-07-31T18:55:18Z</time>
      </trkpt>
      <trkpt lat="47.86557" lon="-2.41719">
        <ele>73.2</ele>
        <time>2021-07-31T18:55:31Z</time>
      </trkpt>
      <trkpt lat="47.86247" lon="-2.41708">
        <ele>72.72</ele>
        <time>2021-07-31T18:55:44Z</time>
      </trkpt>
      <trkpt lat="47.85797" lon="-2.41752">
        <ele>69.83</ele>
        <time>2021-07-31T18:56:02Z</time>
      </trkpt>
      <trkpt lat="47.85467" lon="-2.41831">
        <ele>67.43</ele>
        <time>2021-07-31T18:56:14Z</time>
      </trkpt>
      <trkpt lat="47.85193" lon="-2.41967">
        <ele>62.14</ele>
        <time>2021-07-31T18:56:26Z</time>
      </trkpt>
      <trkpt lat="47.84415" lon="-2.42397">
        <ele>33.78</ele>
        <time>2021-07-31T18:56:58Z</time>
      </trkpt>
      <trkpt lat="47.8385" lon="-2.42711">
        <ele>29.46</ele>
        <time>2021-07-31T18:57:22Z</time>
      </trkpt>
      <trkpt lat="47.83083" lon="-2.43134">
        <ele>29.94</ele>
        <time>2021-07-31T18:57:55Z</time>
      </trkpt>
      <trkpt lat="47.82656" lon="-2.43345">
        <ele>45.32</ele>
        <time>2021-07-31T18:58:14Z</time>
      </trkpt>
      <trkpt lat="47.82428" lon="-2.43374">
        <ele>57.82</ele>
        <time>2021-07-31T18:58:24Z</time>
      </trkpt>
      <trkpt lat="47.82115" lon="-2.43424">
        <ele>73.2</ele>
        <time>2021-07-31T18:58:38Z</time>
      </trkpt>
      <trkpt lat="47.8193" lon="-2.43531">
        <ele>83.29</ele>
        <time>2021-07-31T18:58:47Z</time>
      </trkpt>
      <trkpt lat="47.81532" lon="-2.4389">
        <ele>103.96</ele>
        <time>2021-07-31T18:59:07Z</time>
      </trkpt>
      <trkpt lat="47.81282" lon="-2.44116">
        <ele>104.44</ele>
        <time>2021-07-31T18:59:20Z</time>
      </trkpt>
      <trkpt lat="47.8107" lon="-2.4427">
        <ele>94.83</ele>
        <time>2021-07-31T18:59:29Z</time>
      </trkpt>
      <trkpt lat="47.80834" lon="-2.44341">
        <ele>83.29</ele>
        <time>2021-07-31T18:59:37Z</time>
      </trkpt>
      <trkpt lat="47.80412" lon="-2.4442">
        <ele>67.91</ele>
        <time>2021-07-31T18:59:54Z</time>
      </trkpt>
      <trkpt lat="47.80221" lon="-2.44535">
        <ele>64.55</ele>
        <time>2021-07-31T19:00:02Z</time>
      </trkpt>
      <trkpt lat="47.79862" lon="-2.44842">
        <ele>58.78</ele>
        <time>2021-07-31T19:00:19Z</time>
      </trkpt>
      <trkpt lat="47.79495" lon="-2.45152">
        <ele>40.03</ele>
        <time>2021-07-31T19:00:36Z</time>
      </trkpt>
      <trkpt lat="47.79226" lon="-2.45324">
        <ele>30.42</ele>
        <time>2021-07-31T19:00:48Z</time>
      </trkpt>
      <trkpt lat="47.78866" lon="-2.45474">
        <ele>34.26</ele>
        <time>2021-07-31T19:01:04Z</time>
      </trkpt>
      <trkpt lat="47.78444" lon="-2.45646">
        <ele>57.34</ele>
        <time>2021-07-31T19:01:24Z</time>
      </trkpt>
      <trkpt lat="47.78162" lon="-2.45826">
        <ele>66.95</ele>
        <time>2021-07-31T19:01:38Z</time>
      </trkpt>
      <trkpt lat="47.77941" lon="-2.46034">
        <ele>74.64</ele>
        <time>2021-07-31T19:01:49Z</time>
      </trkpt>
      <trkpt lat="47.77737" lon="-2.46302">
        <ele>82.81</ele>
        <time>2021-07-31T19:02:00Z</time>
      </trkpt>
      <trkpt lat="47.77553" lon="-2.46621">
        <ele>88.58</ele>
        <time>2021-07-31T19:02:12Z</time>
      </trkpt>
      <trkpt lat="47.77408" lon="-2.46984">
        <ele>89.54</ele>
        <time>2021-07-31T19:02:24Z</time>
      </trkpt>
      <trkpt lat="47.77241" lon="-2.47546">
        <ele>88.58</ele>
        <time>2021-07-31T19:02:41Z</time>
      </trkpt>
      <trkpt lat="47.77064" lon="-2.48132">
        <ele>91.46</ele>
        <time>2021-07-31T19:02:59Z</time>
      </trkpt>
      <trkpt lat="47.76897" lon="-2.48571">
        <ele>90.5</ele>
        <time>2021-07-31T19:03:13Z</time>
      </trkpt>
      <trkpt lat="47.7675" lon="-2.49055">
        <ele>88.1</ele>
        <time>2021-07-31T19:03:28Z</time>
      </trkpt>
      <trkpt lat="47.76707" lon="-2.49429">
        <ele>88.1</ele>
        <time>2021-07-31T19:03:39Z</time>
      </trkpt>
      <trkpt lat="47.76644" lon="-2.49888">
        <ele>87.62</ele>
        <time>2021-07-31T19:03:52Z</time>
      </trkpt>
      <trkpt lat="47.76481" lon="-2.50737">
        <ele>90.02</ele>
        <time>2021-07-31T19:04:15Z</time>
      </trkpt>
      <trkpt lat="47.76348" lon="-2.51424">
        <ele>96.27</ele>
        <time>2021-07-31T19:04:36Z</time>
      </trkpt>
      <trkpt lat="47.76248" lon="-2.51976">
        <ele>100.6</ele>
        <time>2021-07-31T19:04:52Z</time>
      </trkpt>
      <trkpt lat="47.76172" lon="-2.52575">
        <ele>101.08</ele>
        <time>2021-07-31T19:05:09Z</time>
      </trkpt>
      <trkpt lat="47.76064" lon="-2.53538">
        <ele>96.27</ele>
        <time>2021-07-31T19:05:36Z</time>
      </trkpt>
      <trkpt lat="47.75976" lon="-2.5393">
        <ele>92.9</ele>
        <time>2021-07-31T19:05:46Z</time>
      </trkpt>
      <trkpt lat="47.75865" lon="-2.54228">
        <ele>91.94</ele>
        <time>2021-07-31T19:05:56Z</time>
      </trkpt>
      <trkpt lat="47.75701" lon="-2.54525">
        <ele>91.94</ele>
        <time>2021-07-31T19:06:06Z</time>
      </trkpt>
      <trkpt lat="47.75381" lon="-2.54973">
        <ele>87.14</ele>
        <time>2021-07-31T19:06:23Z</time>
      </trkpt>
      <trkpt lat="47.75207" lon="-2.55257">
        <ele>84.25</ele>
        <time>2021-07-31T19:06:33Z</time>
      </trkpt>
      <trkpt lat="47.75061" lon="-2.55621">
        <ele>73.68</ele>
        <time>2021-07-31T19:06:43Z</time>
      </trkpt>
      <trkpt lat="47.74901" lon="-2.56143">
        <ele>55.41</ele>
        <time>2021-07-31T19:06:59Z</time>
      </trkpt>
      <trkpt lat="47.74764" lon="-2.56646">
        <ele>42.92</ele>
        <time>2021-07-31T19:07:15Z</time>
      </trkpt>
      <trkpt lat="47.74657" lon="-2.56939">
        <ele>41.47</ele>
        <time>2021-07-31T19:07:24Z</time>
      </trkpt>
      <trkpt lat="47.74504" lon="-2.57227">
        <ele>48.2</ele>
        <time>2021-07-31T19:07:34Z</time>
      </trkpt>
      <trkpt lat="47.74324" lon="-2.57456">
        <ele>53.97</ele>
        <time>2021-07-31T19:07:44Z</time>
      </trkpt>
      <trkpt lat="47.74126" lon="-2.57621">
        <ele>56.37</ele>
        <time>2021-07-31T19:07:54Z</time>
      </trkpt>
      <trkpt lat="47.73884" lon="-2.57767">
        <ele>61.18</ele>
        <time>2021-07-31T19:08:06Z</time>
      </trkpt>
      <trkpt lat="47.73529" lon="-2.57976">
        <ele>69.35</ele>
        <time>2021-07-31T19:08:22Z</time>
      </trkpt>
      <trkpt lat="47.73043" lon="-2.58266">
        <ele>85.21</ele>
        <time>2021-07-31T19:08:45Z</time>
      </trkpt>
      <trkpt lat="47.72819" lon="-2.58443">
        <ele>93.87</ele>
        <time>2021-07-31T19:08:56Z</time>
      </trkpt>
      <trkpt lat="47.7264" lon="-2.58666">
        <ele>102.04</ele>
        <time>2021-07-31T19:09:06Z</time>
      </trkpt>
      <trkpt lat="47.72478" lon="-2.58971">
        <ele>108.77</ele>
        <time>2021-07-31T19:09:17Z</time>
      </trkpt>
      <trkpt lat="47.72179" lon="-2.59615">
        <ele>122.71</ele>
        <time>2021-07-31T19:09:39Z</time>
      </trkpt>
      <trkpt lat="47.71861" lon="-2.603">
        <ele>130.4</ele>
        <time>2021-07-31T19:10:02Z</time>
      </trkpt>
      <trkpt lat="47.71651" lon="-2.60707">
        <ele>132.8</ele>
        <time>2021-07-31T19:10:16Z</time>
      </trkpt>
      <trkpt lat="47.71438" lon="-2.60985">
        <ele>132.32</ele>
        <time>2021-07-31T19:10:27Z</time>
      </trkpt>
      <trkpt lat="47.70951" lon="-2.61544">
        <ele>126.55</ele>
        <time>2021-07-31T19:10:51Z</time>
      </trkpt>
      <trkpt lat="47.7072" lon="-2.61738">
        <ele>120.3</ele>
        <time>2021-07-31T19:11:00Z</time>
      </trkpt>
      <trkpt lat="47.70518" lon="-2.61838">
        <ele>115.5</ele>
        <time>2021-07-31T19:11:09Z</time>
      </trkpt>
      <trkpt lat="47.702" lon="-2.61977">
        <ele>98.67</ele>
        <time>2021-07-31T19:11:21Z</time>
      </trkpt>
      <trkpt lat="47.70042" lon="-2.62123">
        <ele>95.79</ele>
        <time>2021-07-31T19:11:28Z</time>
      </trkpt>
      <trkpt lat="47.69902" lon="-2.62331">
        <ele>99.15</ele>
        <time>2021-07-31T19:11:36Z</time>
      </trkpt>
      <trkpt lat="47.69802" lon="-2.62578">
        <ele>104.92</ele>
        <time>2021-07-31T19:11:44Z</time>
      </trkpt>
      <trkpt lat="47.69654" lon="-2.63018">
        <ele>119.82</ele>
        <time>2021-07-31T19:11:59Z</time>
      </trkpt>
      <trkpt lat="47.69514" lon="-2.63309">
        <ele>124.63</ele>
        <time>2021-07-31T19:12:11Z</time>
      </trkpt>
      <trkpt lat="47.69263" lon="-2.63766">
        <ele>123.19</ele>
        <time>2021-07-31T19:12:30Z</time>
      </trkpt>
      <trkpt lat="47.69084" lon="-2.6406">
        <ele>118.86</ele>
        <time>2021-07-31T19:12:41Z</time>
      </trkpt>
      <trkpt lat="47.68821" lon="-2.6439">
        <ele>121.26</ele>
        <time>2021-07-31T19:12:54Z</time>
      </trkpt>
      <trkpt lat="47.68478" lon="-2.64737">
        <ele>111.17</ele>
        <time>2021-07-31T19:13:10Z</time>
      </trkpt>
      <trkpt lat="47.68062" lon="-2.65169">
        <ele>97.23</ele>
        <time>2021-07-31T19:13:29Z</time>
      </trkpt>
      <trkpt lat="47.67915" lon="-2.65393">
        <ele>86.66</ele>
        <time>2021-07-31T19:13:38Z</time>
      </trkpt>
      <trkpt lat="47.67785" lon="-2.65693">
        <ele>74.16</ele>
        <time>2021-07-31T19:13:47Z</time>
      </trkpt>
      <trkpt lat="47.67702" lon="-2.66016">
        <ele>65.51</ele>
        <time>2021-07-31T19:13:56Z</time>
      </trkpt>
      <trkpt lat="47.67657" lon="-2.664">
        <ele>55.89</ele>
        <time>2021-07-31T19:14:06Z</time>
      </trkpt>
      <trkpt lat="47.67586" lon="-2.67013">
        <ele>43.4</ele>
        <time>2021-07-31T19:14:22Z</time>
      </trkpt>
      <trkpt lat="47.67442" lon="-2.6758">
        <ele>32.34</ele>
        <time>2021-07-31T19:14:38Z</time>
      </trkpt>
      <trkpt lat="47.67314" lon="-2.68124">
        <ele>29.46</ele>
        <time>2021-07-31T19:14:54Z</time>
      </trkpt>
      <trkpt lat="47.67261" lon="-2.68545">
        <ele>30.42</ele>
        <time>2021-07-31T19:15:06Z</time>
      </trkpt>
      <trkpt lat="47.6722" lon="-2.69216">
        <ele>38.11</ele>
        <time>2021-07-31T19:15:25Z</time>
      </trkpt>
      <trkpt lat="47.67189" lon="-2.69957">
        <ele>44.84</ele>
        <time>2021-07-31T19:15:46Z</time>
      </trkpt>
      <trkpt lat="47.67218" lon="-2.70401">
        <ele>41.47</ele>
        <time>2021-07-31T19:15:58Z</time>
      </trkpt>
      <trkpt lat="47.67307" lon="-2.71052">
        <ele>32.82</ele>
        <time>2021-07-31T19:16:16Z</time>
      </trkpt>
      <trkpt lat="47.67341" lon="-2.71389">
        <ele>27.53</ele>
        <time>2021-07-31T19:16:26Z</time>
      </trkpt>
      <trkpt lat="47.67334" lon="-2.71673">
        <ele>27.05</ele>
        <time>2021-07-31T19:16:37Z</time>
      </trkpt>
      <trkpt lat="47.67325" lon="-2.71847">
        <ele>22.25</ele>
        <time>2021-07-31T19:16:45Z</time>
      </trkpt>
      <trkpt lat="47.67321" lon="-2.71863">
        <ele>22.25</ele>
        <time>2021-07-31T19:16:46Z</time>
      </trkpt>
      <trkpt lat="47.67317" lon="-2.71878">
        <ele>21.29</ele>
        <time>2021-07-31T19:16:47Z</time>
      </trkpt>
      <trkpt lat="47.67307" lon="-2.7191">
        <ele>20.32</ele>
        <time>2021-07-31T19:16:48Z</time>
      </trkpt>
      <trkpt lat="47.67307" lon="-2.7191">
        <ele>19.84</ele>
        <time>2021-07-31T19:16:49Z</time>
      </trkpt>
      <trkpt lat="47.67299" lon="-2.71926">
        <ele>20.32</ele>
        <time>2021-07-31T19:16:50Z</time>
      </trkpt>
      <trkpt lat="47.67282" lon="-2.71955">
        <ele>21.29</ele>
        <time>2021-07-31T19:16:51Z</time>
      </trkpt>
      <trkpt lat="47.67169" lon="-2.72161">
        <ele>18.88</ele>
        <time>2021-07-31T19:17:05Z</time>
      </trkpt>
      <trkpt lat="47.67115" lon="-2.72262">
        <ele>18.4</ele>
        <time>2021-07-31T19:17:14Z</time>
      </trkpt>
      <trkpt lat="47.67093" lon="-2.72302">
        <ele>17.44</ele>
        <time>2021-07-31T19:17:22Z</time>
      </trkpt>
      <trkpt lat="47.67079" lon="-2.72328">
        <ele>16.96</ele>
        <time>2021-07-31T19:17:30Z</time>
      </trkpt>
      <trkpt lat="47.67078" lon="-2.72336">
        <ele>16.96</ele>
        <time>2021-07-31T19:17:31Z</time>
      </trkpt>
      <trkpt lat="47.67077" lon="-2.72344">
        <ele>16.96</ele>
        <time>2021-07-31T19:17:32Z</time>
      </trkpt>
      <trkpt lat="47.67075" lon="-2.72353">
        <ele>16.48</ele>
        <time>2021-07-31T19:17:33Z</time>
      </trkpt>
      <trkpt lat="47.67075" lon="-2.72375">
        <ele>16.48</ele>
        <time>2021-07-31T19:17:34Z</time>
      </trkpt>
      <trkpt lat="47.67076" lon="-2.72398">
        <ele>16.48</ele>
        <time>2021-07-31T19:17:36Z</time>
      </trkpt>
      <trkpt lat="47.67076" lon="-2.7241">
        <ele>16.96</ele>
        <time>2021-07-31T19:17:38Z</time>
      </trkpt>
      <trkpt lat="47.67078" lon="-2.7242">
        <ele>16.96</ele>
        <time>2021-07-31T19:17:39Z</time>
      </trkpt>
      <trkpt lat="47.67081" lon="-2.72429">
        <ele>16.96</ele>
        <time>2021-07-31T19:17:40Z</time>
      </trkpt>
      <trkpt lat="47.67086" lon="-2.72439">
        <ele>16.48</ele>
        <time>2021-07-31T19:17:41Z</time>
      </trkpt>
      <trkpt lat="47.67092" lon="-2.72451">
        <ele>16.48</ele>
        <time>2021-07-31T19:17:42Z</time>
      </trkpt>
      <trkpt lat="47.67155" lon="-2.72585">
        <ele>14.08</ele>
        <time>2021-07-31T19:17:50Z</time>
      </trkpt>
      <trkpt lat="47.67229" lon="-2.72823">
        <ele>15.52</ele>
        <time>2021-07-31T19:18:00Z</time>
      </trkpt>
      <trkpt lat="47.67321" lon="-2.73036">
        <ele>23.21</ele>
        <time>2021-07-31T19:18:09Z</time>
      </trkpt>
      <trkpt lat="47.67453" lon="-2.7321">
        <ele>24.17</ele>
        <time>2021-07-31T19:18:18Z</time>
      </trkpt>
      <trkpt lat="47.67682" lon="-2.73449">
        <ele>20.81</ele>
        <time>2021-07-31T19:18:32Z</time>
      </trkpt>
      <trkpt lat="47.67779" lon="-2.73617">
        <ele>18.4</ele>
        <time>2021-07-31T19:18:40Z</time>
      </trkpt>
      <trkpt lat="47.67825" lon="-2.73777">
        <ele>16.96</ele>
        <time>2021-07-31T19:18:47Z</time>
      </trkpt>
      <trkpt lat="47.67857" lon="-2.73906">
        <ele>16</ele>
        <time>2021-07-31T19:18:57Z</time>
      </trkpt>
      <trkpt lat="47.67882" lon="-2.7398">
        <ele>14.56</ele>
        <time>2021-07-31T19:19:07Z</time>
      </trkpt>
      <trkpt lat="47.67884" lon="-2.73982">
        <ele>14.56</ele>
        <time>2021-07-31T19:19:10Z</time>
      </trkpt>
      <trkpt lat="47.67887" lon="-2.73985">
        <ele>14.56</ele>
        <time>2021-07-31T19:19:11Z</time>
      </trkpt>
      <trkpt lat="47.67903" lon="-2.73995">
        <ele>15.04</ele>
        <time>2021-07-31T19:19:14Z</time>
      </trkpt>
      <trkpt lat="47.67909" lon="-2.73998">
        <ele>15.04</ele>
        <time>2021-07-31T19:19:15Z</time>
      </trkpt>
      <trkpt lat="47.67915" lon="-2.74004">
        <ele>15.52</ele>
        <time>2021-07-31T19:19:16Z</time>
      </trkpt>
      <trkpt lat="47.67918" lon="-2.74014">
        <ele>15.52</ele>
        <time>2021-07-31T19:19:17Z</time>
      </trkpt>
      <trkpt lat="47.67921" lon="-2.74023">
        <ele>15.52</ele>
        <time>2021-07-31T19:19:18Z</time>
      </trkpt>
      <trkpt lat="47.67923" lon="-2.74033">
        <ele>15.52</ele>
        <time>2021-07-31T19:19:19Z</time>
      </trkpt>
      <trkpt lat="47.67923" lon="-2.74045">
        <ele>16</ele>
        <time>2021-07-31T19:19:20Z</time>
      </trkpt>
      <trkpt lat="47.67923" lon="-2.74058">
        <ele>15.52</ele>
        <time>2021-07-31T19:19:21Z</time>
      </trkpt>
      <trkpt lat="47.67917" lon="-2.74068">
        <ele>15.52</ele>
        <time>2021-07-31T19:19:22Z</time>
      </trkpt>
      <trkpt lat="47.67909" lon="-2.74092">
        <ele>15.52</ele>
        <time>2021-07-31T19:19:23Z</time>
      </trkpt>
      <trkpt lat="47.67907" lon="-2.74106">
        <ele>15.52</ele>
        <time>2021-07-31T19:19:24Z</time>
      </trkpt>
      <trkpt lat="47.67907" lon="-2.74106">
        <ele>16</ele>
        <time>2021-07-31T19:19:25Z</time>
      </trkpt>
      <trkpt lat="47.67906" lon="-2.74121">
        <ele>16.96</ele>
        <time>2021-07-31T19:19:26Z</time>
      </trkpt>
      <trkpt lat="47.67904" lon="-2.74136">
        <ele>17.44</ele>
        <time>2021-07-31T19:19:27Z</time>
      </trkpt>
      <trkpt lat="47.6791" lon="-2.74171">
        <ele>17.92</ele>
        <time>2021-07-31T19:19:28Z</time>
      </trkpt>
      <trkpt lat="47.67955" lon="-2.74296">
        <ele>19.36</ele>
        <time>2021-07-31T19:19:36Z</time>
      </trkpt>
      <trkpt lat="47.68036" lon="-2.74387">
        <ele>22.73</ele>
        <time>2021-07-31T19:19:42Z</time>
      </trkpt>
      <trkpt lat="47.68263" lon="-2.74563">
        <ele>27.53</ele>
        <time>2021-07-31T19:19:55Z</time>
      </trkpt>
      <trkpt lat="47.68439" lon="-2.74736">
        <ele>30.9</ele>
        <time>2021-07-31T19:20:05Z</time>
      </trkpt>
      <trkpt lat="47.68735" lon="-2.75045">
        <ele>32.34</ele>
        <time>2021-07-31T19:20:22Z</time>
      </trkpt>
      <trkpt lat="47.68752" lon="-2.75057">
        <ele>30.9</ele>
        <time>2021-07-31T19:20:24Z</time>
      </trkpt>
      <trkpt lat="47.68766" lon="-2.75068">
        <ele>31.38</ele>
        <time>2021-07-31T19:20:25Z</time>
      </trkpt>
      <trkpt lat="47.68779" lon="-2.75073">
        <ele>32.34</ele>
        <time>2021-07-31T19:20:26Z</time>
      </trkpt>
      <trkpt lat="47.68825" lon="-2.75083">
        <ele>32.82</ele>
        <time>2021-07-31T19:20:30Z</time>
      </trkpt>
      <trkpt lat="47.68832" lon="-2.75079">
        <ele>32.82</ele>
        <time>2021-07-31T19:20:31Z</time>
      </trkpt>
      <trkpt lat="47.68837" lon="-2.75076">
        <ele>32.82</ele>
        <time>2021-07-31T19:20:32Z</time>
      </trkpt>
      <trkpt lat="47.68841" lon="-2.75074">
        <ele>32.82</ele>
        <time>2021-07-31T19:20:33Z</time>
      </trkpt>
      <trkpt lat="47.68843" lon="-2.75072">
        <ele>32.82</ele>
        <time>2021-07-31T19:20:34Z</time>
      </trkpt>
      <trkpt lat="47.68846" lon="-2.75071">
        <ele>32.82</ele>
        <time>2021-07-31T19:20:35Z</time>
      </trkpt>
      <trkpt lat="47.68849" lon="-2.75069">
        <ele>32.34</ele>
        <time>2021-07-31T19:20:36Z</time>
      </trkpt>
      <trkpt lat="47.68856" lon="-2.75057">
        <ele>32.34</ele>
        <time>2021-07-31T19:20:37Z</time>
      </trkpt>
      <trkpt lat="47.68856" lon="-2.75057">
        <ele>32.34</ele>
        <time>2021-07-31T19:20:38Z</time>
      </trkpt>
      <trkpt lat="47.68861" lon="-2.75051">
        <ele>32.34</ele>
        <time>2021-07-31T19:20:39Z</time>
      </trkpt>
      <trkpt lat="47.68876" lon="-2.75042">
        <ele>32.34</ele>
        <time>2021-07-31T19:20:40Z</time>
      </trkpt>
      <trkpt lat="47.68885" lon="-2.75041">
        <ele>32.34</ele>
        <time>2021-07-31T19:20:41Z</time>
      </trkpt>
      <trkpt lat="47.68893" lon="-2.75042">
        <ele>32.34</ele>
        <time>2021-07-31T19:20:42Z</time>
      </trkpt>
      <trkpt lat="47.68902" lon="-2.75048">
        <ele>32.34</ele>
        <time>2021-07-31T19:20:43Z</time>
      </trkpt>
      <trkpt lat="47.6891" lon="-2.75056">
        <ele>33.78</ele>
        <time>2021-07-31T19:20:44Z</time>
      </trkpt>
      <trkpt lat="47.68915" lon="-2.75065">
        <ele>33.78</ele>
        <time>2021-07-31T19:20:45Z</time>
      </trkpt>
      <trkpt lat="47.68915" lon="-2.75065">
        <ele>32.82</ele>
        <time>2021-07-31T19:20:46Z</time>
      </trkpt>
      <trkpt lat="47.68922" lon="-2.75095">
        <ele>33.3</ele>
        <time>2021-07-31T19:20:47Z</time>
      </trkpt>
      <trkpt lat="47.68921" lon="-2.7511">
        <ele>33.78</ele>
        <time>2021-07-31T19:20:48Z</time>
      </trkpt>
      <trkpt lat="47.68921" lon="-2.7511">
        <ele>33.78</ele>
        <time>2021-07-31T19:20:49Z</time>
      </trkpt>
      <trkpt lat="47.68918" lon="-2.75124">
        <ele>33.78</ele>
        <time>2021-07-31T19:20:50Z</time>
      </trkpt>
      <trkpt lat="47.68913" lon="-2.75137">
        <ele>34.26</ele>
        <time>2021-07-31T19:20:51Z</time>
      </trkpt>
      <trkpt lat="47.68909" lon="-2.7515">
        <ele>33.78</ele>
        <time>2021-07-31T19:20:52Z</time>
      </trkpt>
      <trkpt lat="47.68905" lon="-2.75164">
        <ele>32.82</ele>
        <time>2021-07-31T19:20:53Z</time>
      </trkpt>
      <trkpt lat="47.68902" lon="-2.75176">
        <ele>33.3</ele>
        <time>2021-07-31T19:20:54Z</time>
      </trkpt>
      <trkpt lat="47.68902" lon="-2.75187">
        <ele>33.78</ele>
        <time>2021-07-31T19:20:55Z</time>
      </trkpt>
      <trkpt lat="47.68903" lon="-2.75202">
        <ele>34.74</ele>
        <time>2021-07-31T19:20:56Z</time>
      </trkpt>
      <trkpt lat="47.68928" lon="-2.75359">
        <ele>36.67</ele>
        <time>2021-07-31T19:21:04Z</time>
      </trkpt>
      <trkpt lat="47.68944" lon="-2.75569">
        <ele>38.59</ele>
        <time>2021-07-31T19:21:12Z</time>
      </trkpt>
      <trkpt lat="47.6891" lon="-2.75775">
        <ele>40.99</ele>
        <time>2021-07-31T19:21:19Z</time>
      </trkpt>
      <trkpt lat="47.68826" lon="-2.75957">
        <ele>39.55</ele>
        <time>2021-07-31T19:21:26Z</time>
      </trkpt>
      <trkpt lat="47.68692" lon="-2.76106">
        <ele>37.15</ele>
        <time>2021-07-31T19:21:34Z</time>
      </trkpt>
      <trkpt lat="47.68601" lon="-2.76205">
        <ele>37.63</ele>
        <time>2021-07-31T19:21:42Z</time>
      </trkpt>
      <trkpt lat="47.6847" lon="-2.7634">
        <ele>40.51</ele>
        <time>2021-07-31T19:21:54Z</time>
      </trkpt>
      <trkpt lat="47.68424" lon="-2.76453">
        <ele>39.07</ele>
        <time>2021-07-31T19:22:03Z</time>
      </trkpt>
      <trkpt lat="47.68411" lon="-2.76533">
        <ele>39.55</ele>
        <time>2021-07-31T19:22:10Z</time>
      </trkpt>
      <trkpt lat="47.68414" lon="-2.76598">
        <ele>40.03</ele>
        <time>2021-07-31T19:22:21Z</time>
      </trkpt>
      <trkpt lat="47.68416" lon="-2.76609">
        <ele>40.03</ele>
        <time>2021-07-31T19:22:22Z</time>
      </trkpt>
      <trkpt lat="47.68425" lon="-2.76626">
        <ele>39.55</ele>
        <time>2021-07-31T19:22:24Z</time>
      </trkpt>
      <trkpt lat="47.68429" lon="-2.76641">
        <ele>39.07</ele>
        <time>2021-07-31T19:22:25Z</time>
      </trkpt>
      <trkpt lat="47.68429" lon="-2.76665">
        <ele>39.07</ele>
        <time>2021-07-31T19:22:26Z</time>
      </trkpt>
      <trkpt lat="47.68429" lon="-2.76665">
        <ele>38.59</ele>
        <time>2021-07-31T19:22:27Z</time>
      </trkpt>
      <trkpt lat="47.68425" lon="-2.76677">
        <ele>38.59</ele>
        <time>2021-07-31T19:22:28Z</time>
      </trkpt>
      <trkpt lat="47.68417" lon="-2.76683">
        <ele>38.59</ele>
        <time>2021-07-31T19:22:29Z</time>
      </trkpt>
      <trkpt lat="47.68409" lon="-2.76689">
        <ele>37.63</ele>
        <time>2021-07-31T19:22:30Z</time>
      </trkpt>
      <trkpt lat="47.68401" lon="-2.76695">
        <ele>38.11</ele>
        <time>2021-07-31T19:22:31Z</time>
      </trkpt>
      <trkpt lat="47.68394" lon="-2.76693">
        <ele>37.63</ele>
        <time>2021-07-31T19:22:32Z</time>
      </trkpt>
      <trkpt lat="47.68385" lon="-2.7669">
        <ele>38.11</ele>
        <time>2021-07-31T19:22:33Z</time>
      </trkpt>
      <trkpt lat="47.68375" lon="-2.76693">
        <ele>38.11</ele>
        <time>2021-07-31T19:22:34Z</time>
      </trkpt>
      <trkpt lat="47.68365" lon="-2.76697">
        <ele>37.15</ele>
        <time>2021-07-31T19:22:35Z</time>
      </trkpt>
      <trkpt lat="47.68266" lon="-2.76752">
        <ele>34.26</ele>
        <time>2021-07-31T19:22:42Z</time>
      </trkpt>
      <trkpt lat="47.68153" lon="-2.76891">
        <ele>32.34</ele>
        <time>2021-07-31T19:22:50Z</time>
      </trkpt>
      <trkpt lat="47.67922" lon="-2.77204">
        <ele>28.02</ele>
        <time>2021-07-31T19:23:07Z</time>
      </trkpt>
      <trkpt lat="47.67783" lon="-2.7736">
        <ele>25.13</ele>
        <time>2021-07-31T19:23:18Z</time>
      </trkpt>
      <trkpt lat="47.67729" lon="-2.77404">
        <ele>25.13</ele>
        <time>2021-07-31T19:23:25Z</time>
      </trkpt>
      <trkpt lat="47.67702" lon="-2.77425">
        <ele>25.13</ele>
        <time>2021-07-31T19:23:30Z</time>
      </trkpt>
      <trkpt lat="47.67697" lon="-2.7743">
        <ele>25.13</ele>
        <time>2021-07-31T19:23:31Z</time>
      </trkpt>
      <trkpt lat="47.67692" lon="-2.77436">
        <ele>25.13</ele>
        <time>2021-07-31T19:23:32Z</time>
      </trkpt>
      <trkpt lat="47.67691" lon="-2.77441">
        <ele>24.65</ele>
        <time>2021-07-31T19:23:33Z</time>
      </trkpt>
      <trkpt lat="47.67689" lon="-2.77445">
        <ele>25.13</ele>
        <time>2021-07-31T19:23:34Z</time>
      </trkpt>
      <trkpt lat="47.67688" lon="-2.77449">
        <ele>25.13</ele>
        <time>2021-07-31T19:23:35Z</time>
      </trkpt>
      <trkpt lat="47.6769" lon="-2.77456">
        <ele>25.13</ele>
        <time>2021-07-31T19:23:36Z</time>
      </trkpt>
      <trkpt lat="47.67693" lon="-2.77459">
        <ele>25.13</ele>
        <time>2021-07-31T19:23:37Z</time>
      </trkpt>
      <trkpt lat="47.67695" lon="-2.77461">
        <ele>25.13</ele>
        <time>2021-07-31T19:23:38Z</time>
      </trkpt>
      <trkpt lat="47.67697" lon="-2.77463">
        <ele>25.13</ele>
        <time>2021-07-31T19:23:39Z</time>
      </trkpt>
      <trkpt lat="47.67698" lon="-2.77465">
        <ele>25.13</ele>
        <time>2021-07-31T19:23:40Z</time>
      </trkpt>
      <trkpt lat="47.67721" lon="-2.7748">
        <ele>26.57</ele>
        <time>2021-07-31T19:23:48Z</time>
      </trkpt>
      <trkpt lat="47.67731" lon="-2.77483">
        <ele>27.05</ele>
        <time>2021-07-31T19:23:50Z</time>
      </trkpt>
      <trkpt lat="47.67736" lon="-2.77484">
        <ele>27.53</ele>
        <time>2021-07-31T19:23:51Z</time>
      </trkpt>
      <trkpt lat="47.67741" lon="-2.77483">
        <ele>27.53</ele>
        <time>2021-07-31T19:23:52Z</time>
      </trkpt>
      <trkpt lat="47.67818" lon="-2.77458">
        <ele>27.53</ele>
        <time>2021-07-31T19:24:04Z</time>
      </trkpt>
      <trkpt lat="47.67931" lon="-2.7742">
        <ele>30.42</ele>
        <time>2021-07-31T19:24:15Z</time>
      </trkpt>
      <trkpt lat="47.68089" lon="-2.77437">
        <ele>32.34</ele>
        <time>2021-07-31T19:24:30Z</time>
      </trkpt>
      <trkpt lat="47.68106" lon="-2.77449">
        <ele>32.34</ele>
        <time>2021-07-31T19:24:31Z</time>
      </trkpt>
      <trkpt lat="47.68126" lon="-2.77465">
        <ele>32.34</ele>
        <time>2021-07-31T19:24:35Z</time>
      </trkpt>
      <trkpt lat="47.68132" lon="-2.77472">
        <ele>32.82</ele>
        <time>2021-07-31T19:24:36Z</time>
      </trkpt>
      <trkpt lat="47.68133" lon="-2.77474">
        <ele>32.82</ele>
        <time>2021-07-31T19:24:37Z</time>
      </trkpt>
      <trkpt lat="47.68133" lon="-2.77474">
        <ele>32.82</ele>
        <time>2021-07-31T19:24:38Z</time>
      </trkpt>
      <trkpt lat="47.68133" lon="-2.77474">
        <ele>32.82</ele>
        <time>2021-07-31T19:24:39Z</time>
      </trkpt>
      <trkpt lat="47.68133" lon="-2.77474">
        <ele>31.86</ele>
        <time>2021-07-31T19:24:52Z</time>
      </trkpt>
      <trkpt lat="47.68133" lon="-2.77474">
        <ele>31.86</ele>
        <time>2021-07-31T19:24:54Z</time>
      </trkpt>
      <trkpt lat="47.68133" lon="-2.77474">
        <ele>31.86</ele>
        <time>2021-07-31T19:24:55Z</time>
      </trkpt>
      <trkpt lat="47.68159" lon="-2.77449">
        <ele>31.86</ele>
        <time>2021-07-31T19:25:03Z</time>
      </trkpt>
      <trkpt lat="47.6816" lon="-2.7745">
        <ele>31.86</ele>
        <time>2021-07-31T19:25:05Z</time>
      </trkpt>
      <trkpt lat="47.68164" lon="-2.77458">
        <ele>32.34</ele>
        <time>2021-07-31T19:25:14Z</time>
      </trkpt>
      <trkpt lat="47.68157" lon="-2.77465">
        <ele>31.86</ele>
        <time>2021-07-31T19:25:20Z</time>
      </trkpt>
      <trkpt lat="47.68121" lon="-2.77459">
        <ele>31.38</ele>
        <time>2021-07-31T19:25:27Z</time>
      </trkpt>
      <trkpt lat="47.68121" lon="-2.77459">
        <ele>31.38</ele>
        <time>2021-07-31T19:25:28Z</time>
      </trkpt>
      <trkpt lat="47.68044" lon="-2.77423">
        <ele>29.46</ele>
        <time>2021-07-31T19:25:38Z</time>
      </trkpt>
      <trkpt lat="47.67902" lon="-2.77423">
        <ele>25.13</ele>
        <time>2021-07-31T19:25:51Z</time>
      </trkpt>
      <trkpt lat="47.67766" lon="-2.7748">
        <ele>26.57</ele>
        <time>2021-07-31T19:26:03Z</time>
      </trkpt>
      <trkpt lat="47.67766" lon="-2.7748">
        <ele>26.09</ele>
        <time>2021-07-31T19:26:04Z</time>
      </trkpt>
      <trkpt lat="47.67755" lon="-2.77482">
        <ele>25.13</ele>
        <time>2021-07-31T19:26:05Z</time>
      </trkpt>
      <trkpt lat="47.67745" lon="-2.77483">
        <ele>24.17</ele>
        <time>2021-07-31T19:26:06Z</time>
      </trkpt>
      <trkpt lat="47.67735" lon="-2.77484">
        <ele>23.21</ele>
        <time>2021-07-31T19:26:07Z</time>
      </trkpt>
      <trkpt lat="47.67726" lon="-2.77482">
        <ele>22.73</ele>
        <time>2021-07-31T19:26:08Z</time>
      </trkpt>
      <trkpt lat="47.67718" lon="-2.77479">
        <ele>22.25</ele>
        <time>2021-07-31T19:26:09Z</time>
      </trkpt>
      <trkpt lat="47.67711" lon="-2.77477">
        <ele>22.25</ele>
        <time>2021-07-31T19:26:10Z</time>
      </trkpt>
      <trkpt lat="47.67693" lon="-2.77459">
        <ele>22.73</ele>
        <time>2021-07-31T19:26:18Z</time>
      </trkpt>
      <trkpt lat="47.67683" lon="-2.77456">
        <ele>22.73</ele>
        <time>2021-07-31T19:26:22Z</time>
      </trkpt>
      <trkpt lat="47.67676" lon="-2.77463">
        <ele>22.73</ele>
        <time>2021-07-31T19:26:23Z</time>
      </trkpt>
      <trkpt lat="47.67676" lon="-2.77463">
        <ele>22.25</ele>
        <time>2021-07-31T19:26:24Z</time>
      </trkpt>
      <trkpt lat="47.67676" lon="-2.77463">
        <ele>22.25</ele>
        <time>2021-07-31T19:26:25Z</time>
      </trkpt>
      <trkpt lat="47.67668" lon="-2.77484">
        <ele>22.25</ele>
        <time>2021-07-31T19:26:26Z</time>
      </trkpt>
      <trkpt lat="47.67671" lon="-2.77492">
        <ele>22.73</ele>
        <time>2021-07-31T19:26:27Z</time>
      </trkpt>
      <trkpt lat="47.67674" lon="-2.77502">
        <ele>22.73</ele>
        <time>2021-07-31T19:26:28Z</time>
      </trkpt>
      <trkpt lat="47.67676" lon="-2.7751">
        <ele>23.21</ele>
        <time>2021-07-31T19:26:29Z</time>
      </trkpt>
      <trkpt lat="47.67675" lon="-2.77518">
        <ele>23.21</ele>
        <time>2021-07-31T19:26:30Z</time>
      </trkpt>
      <trkpt lat="47.67671" lon="-2.77545">
        <ele>24.65</ele>
        <time>2021-07-31T19:26:37Z</time>
      </trkpt>
      <trkpt lat="47.67676" lon="-2.77556">
        <ele>24.65</ele>
        <time>2021-07-31T19:26:38Z</time>
      </trkpt>
      <trkpt lat="47.6768" lon="-2.77558">
        <ele>24.65</ele>
        <time>2021-07-31T19:26:39Z</time>
      </trkpt>
      <trkpt lat="47.67689" lon="-2.77563">
        <ele>24.65</ele>
        <time>2021-07-31T19:26:40Z</time>
      </trkpt>
      <trkpt lat="47.67736" lon="-2.77595">
        <ele>26.09</ele>
        <time>2021-07-31T19:26:55Z</time>
      </trkpt>
      <trkpt lat="47.67795" lon="-2.77639">
        <ele>27.53</ele>
        <time>2021-07-31T19:27:07Z</time>
      </trkpt>
      <trkpt lat="47.67835" lon="-2.77669">
        <ele>27.53</ele>
        <time>2021-07-31T19:27:14Z</time>
      </trkpt>
      <trkpt lat="47.67843" lon="-2.77671">
        <ele>27.53</ele>
        <time>2021-07-31T19:27:15Z</time>
      </trkpt>
      <trkpt lat="47.6785" lon="-2.7767">
        <ele>27.53</ele>
        <time>2021-07-31T19:27:16Z</time>
      </trkpt>
      <trkpt lat="47.67856" lon="-2.7767">
        <ele>27.53</ele>
        <time>2021-07-31T19:27:17Z</time>
      </trkpt>
      <trkpt lat="47.67864" lon="-2.7767">
        <ele>27.53</ele>
        <time>2021-07-31T19:27:18Z</time>
      </trkpt>
      <trkpt lat="47.67992" lon="-2.77666">
        <ele>28.98</ele>
        <time>2021-07-31T19:27:34Z</time>
      </trkpt>
      <trkpt lat="47.68098" lon="-2.77666">
        <ele>31.38</ele>
        <time>2021-07-31T19:27:47Z</time>
      </trkpt>
      <trkpt lat="47.68137" lon="-2.77679">
        <ele>32.82</ele>
        <time>2021-07-31T19:27:57Z</time>
      </trkpt>
      <trkpt lat="47.68186" lon="-2.77677">
        <ele>33.3</ele>
        <time>2021-07-31T19:28:07Z</time>
      </trkpt>
      <trkpt lat="47.68184" lon="-2.77699">
        <ele>34.74</ele>
        <time>2021-07-31T19:28:19Z</time>
      </trkpt>
      <trkpt lat="47.68177" lon="-2.77715">
        <ele>35.23</ele>
        <time>2021-07-31T19:29:16Z</time>
      </trkpt>
    </trkseg>
  </trk>
  <trk>
    <name><![CDATA[Journal actif: 2021-08-02 11:51]]></name>
    <trkseg>
      <trkpt lat="47.68175" lon="-2.77715">
        <ele>43.88</ele>
        <time>2021-08-02T13:51:01Z</time>
      </trkpt>
      <trkpt lat="47.68177" lon="-2.77713">
        <ele>43.88</ele>
        <time>2021-08-02T13:51:26Z</time>
      </trkpt>
      <trkpt lat="47.68182" lon="-2.77706">
        <ele>42.44</ele>
        <time>2021-08-02T13:51:39Z</time>
      </trkpt>
      <trkpt lat="47.68183" lon="-2.77696">
        <ele>42.44</ele>
        <time>2021-08-02T13:51:43Z</time>
      </trkpt>
      <trkpt lat="47.68169" lon="-2.77691">
        <ele>40.99</ele>
        <time>2021-08-02T13:51:50Z</time>
      </trkpt>
      <trkpt lat="47.68127" lon="-2.77675">
        <ele>40.03</ele>
        <time>2021-08-02T13:52:00Z</time>
      </trkpt>
      <trkpt lat="47.68123" lon="-2.77674">
        <ele>40.03</ele>
        <time>2021-08-02T13:52:01Z</time>
      </trkpt>
      <trkpt lat="47.68119" lon="-2.77672">
        <ele>40.03</ele>
        <time>2021-08-02T13:52:02Z</time>
      </trkpt>
      <trkpt lat="47.68114" lon="-2.77671">
        <ele>39.55</ele>
        <time>2021-08-02T13:52:03Z</time>
      </trkpt>
      <trkpt lat="47.68105" lon="-2.77668">
        <ele>39.55</ele>
        <time>2021-08-02T13:52:04Z</time>
      </trkpt>
      <trkpt lat="47.68105" lon="-2.77668">
        <ele>39.55</ele>
        <time>2021-08-02T13:52:05Z</time>
      </trkpt>
      <trkpt lat="47.68099" lon="-2.77667">
        <ele>39.07</ele>
        <time>2021-08-02T13:52:06Z</time>
      </trkpt>
      <trkpt lat="47.68094" lon="-2.77665">
        <ele>39.07</ele>
        <time>2021-08-02T13:52:07Z</time>
      </trkpt>
      <trkpt lat="47.68088" lon="-2.77663">
        <ele>39.07</ele>
        <time>2021-08-02T13:52:08Z</time>
      </trkpt>
      <trkpt lat="47.6799" lon="-2.77666">
        <ele>36.67</ele>
        <time>2021-08-02T13:52:22Z</time>
      </trkpt>
      <trkpt lat="47.67857" lon="-2.7767">
        <ele>34.26</ele>
        <time>2021-08-02T13:52:38Z</time>
      </trkpt>
      <trkpt lat="47.6785" lon="-2.7767">
        <ele>34.26</ele>
        <time>2021-08-02T13:52:39Z</time>
      </trkpt>
      <trkpt lat="47.67843" lon="-2.77671">
        <ele>34.26</ele>
        <time>2021-08-02T13:52:40Z</time>
      </trkpt>
      <trkpt lat="47.67834" lon="-2.77669">
        <ele>33.78</ele>
        <time>2021-08-02T13:52:41Z</time>
      </trkpt>
      <trkpt lat="47.67749" lon="-2.77604">
        <ele>32.34</ele>
        <time>2021-08-02T13:52:52Z</time>
      </trkpt>
      <trkpt lat="47.67715" lon="-2.7758">
        <ele>31.38</ele>
        <time>2021-08-02T13:52:59Z</time>
      </trkpt>
      <trkpt lat="47.67676" lon="-2.77556">
        <ele>30.9</ele>
        <time>2021-08-02T13:53:05Z</time>
      </trkpt>
      <trkpt lat="47.67671" lon="-2.77554">
        <ele>30.9</ele>
        <time>2021-08-02T13:53:06Z</time>
      </trkpt>
      <trkpt lat="47.67671" lon="-2.77543">
        <ele>30.42</ele>
        <time>2021-08-02T13:53:07Z</time>
      </trkpt>
      <trkpt lat="47.67672" lon="-2.77537">
        <ele>30.42</ele>
        <time>2021-08-02T13:53:08Z</time>
      </trkpt>
      <trkpt lat="47.67673" lon="-2.77531">
        <ele>29.94</ele>
        <time>2021-08-02T13:53:09Z</time>
      </trkpt>
      <trkpt lat="47.67673" lon="-2.77531">
        <ele>29.94</ele>
        <time>2021-08-02T13:53:10Z</time>
      </trkpt>
      <trkpt lat="47.67674" lon="-2.77524">
        <ele>29.46</ele>
        <time>2021-08-02T13:53:11Z</time>
      </trkpt>
      <trkpt lat="47.67675" lon="-2.77517">
        <ele>28.98</ele>
        <time>2021-08-02T13:53:12Z</time>
      </trkpt>
      <trkpt lat="47.67673" lon="-2.77501">
        <ele>28.98</ele>
        <time>2021-08-02T13:53:13Z</time>
      </trkpt>
      <trkpt lat="47.67673" lon="-2.77501">
        <ele>28.02</ele>
        <time>2021-08-02T13:53:14Z</time>
      </trkpt>
      <trkpt lat="47.67672" lon="-2.77495">
        <ele>27.53</ele>
        <time>2021-08-02T13:53:15Z</time>
      </trkpt>
      <trkpt lat="47.6767" lon="-2.77489">
        <ele>27.53</ele>
        <time>2021-08-02T13:53:16Z</time>
      </trkpt>
      <trkpt lat="47.67665" lon="-2.7747">
        <ele>26.09</ele>
        <time>2021-08-02T13:53:25Z</time>
      </trkpt>
      <trkpt lat="47.67661" lon="-2.77463">
        <ele>26.57</ele>
        <time>2021-08-02T13:53:51Z</time>
      </trkpt>
      <trkpt lat="47.67648" lon="-2.77456">
        <ele>26.57</ele>
        <time>2021-08-02T13:53:54Z</time>
      </trkpt>
      <trkpt lat="47.67644" lon="-2.77449">
        <ele>26.09</ele>
        <time>2021-08-02T13:53:55Z</time>
      </trkpt>
      <trkpt lat="47.67642" lon="-2.77441">
        <ele>26.09</ele>
        <time>2021-08-02T13:53:56Z</time>
      </trkpt>
      <trkpt lat="47.6764" lon="-2.77432">
        <ele>25.61</ele>
        <time>2021-08-02T13:53:57Z</time>
      </trkpt>
      <trkpt lat="47.67641" lon="-2.77423">
        <ele>25.13</ele>
        <time>2021-08-02T13:53:58Z</time>
      </trkpt>
      <trkpt lat="47.67641" lon="-2.77413">
        <ele>25.61</ele>
        <time>2021-08-02T13:53:59Z</time>
      </trkpt>
      <trkpt lat="47.67644" lon="-2.77407">
        <ele>25.61</ele>
        <time>2021-08-02T13:54:00Z</time>
      </trkpt>
      <trkpt lat="47.67648" lon="-2.774">
        <ele>25.61</ele>
        <time>2021-08-02T13:54:01Z</time>
      </trkpt>
      <trkpt lat="47.67651" lon="-2.77394">
        <ele>25.61</ele>
        <time>2021-08-02T13:54:02Z</time>
      </trkpt>
      <trkpt lat="47.67652" lon="-2.77392">
        <ele>25.61</ele>
        <time>2021-08-02T13:54:03Z</time>
      </trkpt>
      <trkpt lat="47.67652" lon="-2.77376">
        <ele>25.61</ele>
        <time>2021-08-02T13:54:04Z</time>
      </trkpt>
      <trkpt lat="47.67652" lon="-2.77368">
        <ele>25.61</ele>
        <time>2021-08-02T13:54:05Z</time>
      </trkpt>
      <trkpt lat="47.67651" lon="-2.77359">
        <ele>25.61</ele>
        <time>2021-08-02T13:54:06Z</time>
      </trkpt>
      <trkpt lat="47.67651" lon="-2.7735">
        <ele>25.13</ele>
        <time>2021-08-02T13:54:07Z</time>
      </trkpt>
      <trkpt lat="47.67648" lon="-2.77316">
        <ele>25.61</ele>
        <time>2021-08-02T13:54:13Z</time>
      </trkpt>
      <trkpt lat="47.6765" lon="-2.77325">
        <ele>25.13</ele>
        <time>2021-08-02T13:54:14Z</time>
      </trkpt>
      <trkpt lat="47.67648" lon="-2.77316">
        <ele>25.13</ele>
        <time>2021-08-02T13:54:15Z</time>
      </trkpt>
      <trkpt lat="47.67648" lon="-2.77316">
        <ele>25.13</ele>
        <time>2021-08-02T13:54:16Z</time>
      </trkpt>
      <trkpt lat="47.67648" lon="-2.77319">
        <ele>24.65</ele>
        <time>2021-08-02T13:54:17Z</time>
      </trkpt>
      <trkpt lat="47.67651" lon="-2.77327">
        <ele>24.65</ele>
        <time>2021-08-02T13:54:18Z</time>
      </trkpt>
      <trkpt lat="47.67651" lon="-2.77327">
        <ele>24.65</ele>
        <time>2021-08-02T13:54:19Z</time>
      </trkpt>
      <trkpt lat="47.67669" lon="-2.7738">
        <ele>25.13</ele>
        <time>2021-08-02T13:54:33Z</time>
      </trkpt>
      <trkpt lat="47.67669" lon="-2.7738">
        <ele>25.13</ele>
        <time>2021-08-02T13:54:58Z</time>
      </trkpt>
    </trkseg>
  </trk>
  <trk>
    <name><![CDATA[Journal actif: 2021-08-02 11:55]]></name>
    <trkseg>
      <trkpt lat="47.67669" lon="-2.7738">
        <ele>25.13</ele>
        <time>2021-08-02T13:55:21Z</time>
      </trkpt>
      <trkpt lat="47.67669" lon="-2.7738">
        <ele>24.65</ele>
        <time>2021-08-02T14:00:50Z</time>
      </trkpt>
      <trkpt lat="47.67669" lon="-2.7738">
        <ele>24.65</ele>
        <time>2021-08-02T14:01:05Z</time>
      </trkpt>
      <trkpt lat="47.67669" lon="-2.7738">
        <ele>24.65</ele>
        <time>2021-08-02T14:01:06Z</time>
      </trkpt>
      <trkpt lat="47.67672" lon="-2.77352">
        <ele>23.69</ele>
        <time>2021-08-02T14:01:10Z</time>
      </trkpt>
      <trkpt lat="47.67659" lon="-2.77318">
        <ele>23.21</ele>
        <time>2021-08-02T14:01:25Z</time>
      </trkpt>
      <trkpt lat="47.67658" lon="-2.77319">
        <ele>23.21</ele>
        <time>2021-08-02T14:01:30Z</time>
      </trkpt>
      <trkpt lat="47.67651" lon="-2.77327">
        <ele>23.21</ele>
        <time>2021-08-02T14:01:33Z</time>
      </trkpt>
      <trkpt lat="47.67651" lon="-2.77327">
        <ele>23.21</ele>
        <time>2021-08-02T14:01:34Z</time>
      </trkpt>
      <trkpt lat="47.67652" lon="-2.7733">
        <ele>23.21</ele>
        <time>2021-08-02T14:01:35Z</time>
      </trkpt>
      <trkpt lat="47.67653" lon="-2.77335">
        <ele>23.21</ele>
        <time>2021-08-02T14:01:36Z</time>
      </trkpt>
      <trkpt lat="47.67655" lon="-2.77343">
        <ele>23.21</ele>
        <time>2021-08-02T14:01:37Z</time>
      </trkpt>
      <trkpt lat="47.67665" lon="-2.7737">
        <ele>22.73</ele>
        <time>2021-08-02T14:01:50Z</time>
      </trkpt>
      <trkpt lat="47.67668" lon="-2.77378">
        <ele>22.73</ele>
        <time>2021-08-02T14:02:08Z</time>
      </trkpt>
      <trkpt lat="47.67673" lon="-2.77387">
        <ele>23.21</ele>
        <time>2021-08-02T14:02:12Z</time>
      </trkpt>
      <trkpt lat="47.67678" lon="-2.7739">
        <ele>23.21</ele>
        <time>2021-08-02T14:02:13Z</time>
      </trkpt>
      <trkpt lat="47.6769" lon="-2.77411">
        <ele>22.73</ele>
        <time>2021-08-02T14:02:14Z</time>
      </trkpt>
      <trkpt lat="47.67691" lon="-2.77421">
        <ele>22.25</ele>
        <time>2021-08-02T14:02:15Z</time>
      </trkpt>
      <trkpt lat="47.67693" lon="-2.77434">
        <ele>21.77</ele>
        <time>2021-08-02T14:02:16Z</time>
      </trkpt>
      <trkpt lat="47.67684" lon="-2.77454">
        <ele>21.77</ele>
        <time>2021-08-02T14:02:17Z</time>
      </trkpt>
      <trkpt lat="47.67684" lon="-2.77454">
        <ele>21.77</ele>
        <time>2021-08-02T14:02:18Z</time>
      </trkpt>
      <trkpt lat="47.67679" lon="-2.7746">
        <ele>21.29</ele>
        <time>2021-08-02T14:02:19Z</time>
      </trkpt>
      <trkpt lat="47.67671" lon="-2.77464">
        <ele>21.29</ele>
        <time>2021-08-02T14:02:20Z</time>
      </trkpt>
      <trkpt lat="47.67663" lon="-2.77465">
        <ele>21.29</ele>
        <time>2021-08-02T14:02:21Z</time>
      </trkpt>
      <trkpt lat="47.67656" lon="-2.7746">
        <ele>21.29</ele>
        <time>2021-08-02T14:02:22Z</time>
      </trkpt>
      <trkpt lat="47.67619" lon="-2.77454">
        <ele>21.29</ele>
        <time>2021-08-02T14:02:25Z</time>
      </trkpt>
      <trkpt lat="47.67619" lon="-2.77454">
        <ele>21.77</ele>
        <time>2021-08-02T14:02:26Z</time>
      </trkpt>
      <trkpt lat="47.67499" lon="-2.77454">
        <ele>17.92</ele>
        <time>2021-08-02T14:02:35Z</time>
      </trkpt>
      <trkpt lat="47.67353" lon="-2.77394">
        <ele>16</ele>
        <time>2021-08-02T14:02:45Z</time>
      </trkpt>
      <trkpt lat="47.67237" lon="-2.77281">
        <ele>15.04</ele>
        <time>2021-08-02T14:02:55Z</time>
      </trkpt>
      <trkpt lat="47.67101" lon="-2.77104">
        <ele>12.63</ele>
        <time>2021-08-02T14:03:10Z</time>
      </trkpt>
      <trkpt lat="47.6709" lon="-2.77089">
        <ele>11.67</ele>
        <time>2021-08-02T14:03:16Z</time>
      </trkpt>
      <trkpt lat="47.67076" lon="-2.7707">
        <ele>11.19</ele>
        <time>2021-08-02T14:03:54Z</time>
      </trkpt>
      <trkpt lat="47.67001" lon="-2.76988">
        <ele>10.71</ele>
        <time>2021-08-02T14:04:03Z</time>
      </trkpt>
      <trkpt lat="47.6695" lon="-2.76974">
        <ele>10.23</ele>
        <time>2021-08-02T14:04:10Z</time>
      </trkpt>
      <trkpt lat="47.66923" lon="-2.76974">
        <ele>9.27</ele>
        <time>2021-08-02T14:04:19Z</time>
      </trkpt>
      <trkpt lat="47.66867" lon="-2.76982">
        <ele>8.31</ele>
        <time>2021-08-02T14:04:27Z</time>
      </trkpt>
      <trkpt lat="47.66867" lon="-2.76982">
        <ele>8.31</ele>
        <time>2021-08-02T14:04:28Z</time>
      </trkpt>
      <trkpt lat="47.66861" lon="-2.76983">
        <ele>8.31</ele>
        <time>2021-08-02T14:04:29Z</time>
      </trkpt>
      <trkpt lat="47.66838" lon="-2.76986">
        <ele>7.83</ele>
        <time>2021-08-02T14:04:37Z</time>
      </trkpt>
      <trkpt lat="47.66817" lon="-2.76989">
        <ele>8.79</ele>
        <time>2021-08-02T14:05:07Z</time>
      </trkpt>
      <trkpt lat="47.66801" lon="-2.76993">
        <ele>8.79</ele>
        <time>2021-08-02T14:05:09Z</time>
      </trkpt>
      <trkpt lat="47.66801" lon="-2.76993">
        <ele>8.79</ele>
        <time>2021-08-02T14:05:10Z</time>
      </trkpt>
      <trkpt lat="47.66792" lon="-2.77004">
        <ele>8.79</ele>
        <time>2021-08-02T14:05:11Z</time>
      </trkpt>
      <trkpt lat="47.66792" lon="-2.77004">
        <ele>8.79</ele>
        <time>2021-08-02T14:05:12Z</time>
      </trkpt>
      <trkpt lat="47.66788" lon="-2.7701">
        <ele>8.79</ele>
        <time>2021-08-02T14:05:13Z</time>
      </trkpt>
      <trkpt lat="47.66784" lon="-2.77019">
        <ele>8.79</ele>
        <time>2021-08-02T14:05:14Z</time>
      </trkpt>
      <trkpt lat="47.66781" lon="-2.77027">
        <ele>9.27</ele>
        <time>2021-08-02T14:05:15Z</time>
      </trkpt>
      <trkpt lat="47.6678" lon="-2.77039">
        <ele>9.27</ele>
        <time>2021-08-02T14:05:16Z</time>
      </trkpt>
      <trkpt lat="47.66781" lon="-2.77049">
        <ele>9.75</ele>
        <time>2021-08-02T14:05:17Z</time>
      </trkpt>
      <trkpt lat="47.66784" lon="-2.7706">
        <ele>10.23</ele>
        <time>2021-08-02T14:05:18Z</time>
      </trkpt>
      <trkpt lat="47.66788" lon="-2.77069">
        <ele>10.23</ele>
        <time>2021-08-02T14:05:19Z</time>
      </trkpt>
      <trkpt lat="47.66793" lon="-2.77079">
        <ele>10.71</ele>
        <time>2021-08-02T14:05:20Z</time>
      </trkpt>
      <trkpt lat="47.668" lon="-2.77084">
        <ele>10.71</ele>
        <time>2021-08-02T14:05:21Z</time>
      </trkpt>
      <trkpt lat="47.66807" lon="-2.77089">
        <ele>10.71</ele>
        <time>2021-08-02T14:05:22Z</time>
      </trkpt>
      <trkpt lat="47.66814" lon="-2.77092">
        <ele>10.71</ele>
        <time>2021-08-02T14:05:23Z</time>
      </trkpt>
      <trkpt lat="47.66823" lon="-2.77092">
        <ele>11.19</ele>
        <time>2021-08-02T14:05:24Z</time>
      </trkpt>
      <trkpt lat="47.66831" lon="-2.77089">
        <ele>11.19</ele>
        <time>2021-08-02T14:05:25Z</time>
      </trkpt>
      <trkpt lat="47.66839" lon="-2.77083">
        <ele>11.67</ele>
        <time>2021-08-02T14:05:26Z</time>
      </trkpt>
      <trkpt lat="47.66847" lon="-2.77075">
        <ele>11.67</ele>
        <time>2021-08-02T14:05:27Z</time>
      </trkpt>
      <trkpt lat="47.66852" lon="-2.77063">
        <ele>12.15</ele>
        <time>2021-08-02T14:05:28Z</time>
      </trkpt>
      <trkpt lat="47.66857" lon="-2.7705">
        <ele>12.15</ele>
        <time>2021-08-02T14:05:29Z</time>
      </trkpt>
      <trkpt lat="47.66862" lon="-2.77018">
        <ele>12.63</ele>
        <time>2021-08-02T14:05:30Z</time>
      </trkpt>
      <trkpt lat="47.6688" lon="-2.76857">
        <ele>15.04</ele>
        <time>2021-08-02T14:05:39Z</time>
      </trkpt>
      <trkpt lat="47.6691" lon="-2.76509">
        <ele>19.84</ele>
        <time>2021-08-02T14:05:53Z</time>
      </trkpt>
      <trkpt lat="47.66961" lon="-2.75964">
        <ele>23.21</ele>
        <time>2021-08-02T14:06:12Z</time>
      </trkpt>
      <trkpt lat="47.67002" lon="-2.75589">
        <ele>24.65</ele>
        <time>2021-08-02T14:06:25Z</time>
      </trkpt>
      <trkpt lat="47.67053" lon="-2.75099">
        <ele>28.5</ele>
        <time>2021-08-02T14:06:42Z</time>
      </trkpt>
      <trkpt lat="47.67053" lon="-2.74805">
        <ele>27.53</ele>
        <time>2021-08-02T14:06:53Z</time>
      </trkpt>
      <trkpt lat="47.67019" lon="-2.74503">
        <ele>19.36</ele>
        <time>2021-08-02T14:07:04Z</time>
      </trkpt>
      <trkpt lat="47.66944" lon="-2.74071">
        <ele>9.75</ele>
        <time>2021-08-02T14:07:18Z</time>
      </trkpt>
      <trkpt lat="47.66888" lon="-2.73785">
        <ele>9.75</ele>
        <time>2021-08-02T14:07:28Z</time>
      </trkpt>
      <trkpt lat="47.66796" lon="-2.73369">
        <ele>7.35</ele>
        <time>2021-08-02T14:07:43Z</time>
      </trkpt>
      <trkpt lat="47.667" lon="-2.73006">
        <ele>5.42</ele>
        <time>2021-08-02T14:07:56Z</time>
      </trkpt>
      <trkpt lat="47.66566" lon="-2.72503">
        <ele>5.42</ele>
        <time>2021-08-02T14:08:12Z</time>
      </trkpt>
      <trkpt lat="47.66469" lon="-2.72143">
        <ele>10.71</ele>
        <time>2021-08-02T14:08:26Z</time>
      </trkpt>
      <trkpt lat="47.66326" lon="-2.71614">
        <ele>12.63</ele>
        <time>2021-08-02T14:08:45Z</time>
      </trkpt>
      <trkpt lat="47.66171" lon="-2.71076">
        <ele>12.15</ele>
        <time>2021-08-02T14:09:03Z</time>
      </trkpt>
      <trkpt lat="47.66038" lon="-2.7079">
        <ele>13.6</ele>
        <time>2021-08-02T14:09:14Z</time>
      </trkpt>
      <trkpt lat="47.65892" lon="-2.70605">
        <ele>11.67</ele>
        <time>2021-08-02T14:09:23Z</time>
      </trkpt>
      <trkpt lat="47.65713" lon="-2.70479">
        <ele>5.42</ele>
        <time>2021-08-02T14:09:32Z</time>
      </trkpt>
      <trkpt lat="47.6551" lon="-2.70432">
        <ele>0.14</ele>
        <time>2021-08-02T14:09:41Z</time>
      </trkpt>
      <trkpt lat="47.65303" lon="-2.70431">
        <ele>-2.27</ele>
        <time>2021-08-02T14:09:51Z</time>
      </trkpt>
      <trkpt lat="47.64988" lon="-2.7041">
        <ele>0.14</ele>
        <time>2021-08-02T14:10:06Z</time>
      </trkpt>
      <trkpt lat="47.64827" lon="-2.70327">
        <ele>3.5</ele>
        <time>2021-08-02T14:10:14Z</time>
      </trkpt>
      <trkpt lat="47.64668" lon="-2.70163">
        <ele>3.02</ele>
        <time>2021-08-02T14:10:23Z</time>
      </trkpt>
      <trkpt lat="47.64547" lon="-2.69956">
        <ele>2.54</ele>
        <time>2021-08-02T14:10:31Z</time>
      </trkpt>
      <trkpt lat="47.64417" lon="-2.69601">
        <ele>2.54</ele>
        <time>2021-08-02T14:10:43Z</time>
      </trkpt>
      <trkpt lat="47.64277" lon="-2.69122">
        <ele>11.19</ele>
        <time>2021-08-02T14:10:59Z</time>
      </trkpt>
      <trkpt lat="47.64142" lon="-2.68604">
        <ele>10.23</ele>
        <time>2021-08-02T14:11:15Z</time>
      </trkpt>
      <trkpt lat="47.6397" lon="-2.67965">
        <ele>1.58</ele>
        <time>2021-08-02T14:11:34Z</time>
      </trkpt>
      <trkpt lat="47.63844" lon="-2.67517">
        <ele>8.31</ele>
        <time>2021-08-02T14:11:48Z</time>
      </trkpt>
      <trkpt lat="47.63691" lon="-2.66983">
        <ele>19.84</ele>
        <time>2021-08-02T14:12:05Z</time>
      </trkpt>
      <trkpt lat="47.63558" lon="-2.66528">
        <ele>12.63</ele>
        <time>2021-08-02T14:12:20Z</time>
      </trkpt>
      <trkpt lat="47.63321" lon="-2.65701">
        <ele>12.15</ele>
        <time>2021-08-02T14:12:46Z</time>
      </trkpt>
      <trkpt lat="47.63247" lon="-2.65323">
        <ele>13.6</ele>
        <time>2021-08-02T14:12:57Z</time>
      </trkpt>
      <trkpt lat="47.63181" lon="-2.6488">
        <ele>8.79</ele>
        <time>2021-08-02T14:13:10Z</time>
      </trkpt>
      <trkpt lat="47.63114" lon="-2.64446">
        <ele>3.98</ele>
        <time>2021-08-02T14:13:23Z</time>
      </trkpt>
      <trkpt lat="47.63065" lon="-2.64144">
        <ele>3.98</ele>
        <time>2021-08-02T14:13:34Z</time>
      </trkpt>
      <trkpt lat="47.62988" lon="-2.63882">
        <ele>1.58</ele>
        <time>2021-08-02T14:13:43Z</time>
      </trkpt>
      <trkpt lat="47.62884" lon="-2.6368">
        <ele>1.58</ele>
        <time>2021-08-02T14:13:51Z</time>
      </trkpt>
      <trkpt lat="47.62725" lon="-2.63498">
        <ele>3.02</ele>
        <time>2021-08-02T14:14:00Z</time>
      </trkpt>
      <trkpt lat="47.62332" lon="-2.63121">
        <ele>11.19</ele>
        <time>2021-08-02T14:14:21Z</time>
      </trkpt>
      <trkpt lat="47.62168" lon="-2.62959">
        <ele>17.44</ele>
        <time>2021-08-02T14:14:30Z</time>
      </trkpt>
      <trkpt lat="47.61932" lon="-2.62622">
        <ele>15.52</ele>
        <time>2021-08-02T14:14:44Z</time>
      </trkpt>
      <trkpt lat="47.61543" lon="-2.62041">
        <ele>10.23</ele>
        <time>2021-08-02T14:15:07Z</time>
      </trkpt>
      <trkpt lat="47.6125" lon="-2.61551">
        <ele>6.87</ele>
        <time>2021-08-02T14:15:25Z</time>
      </trkpt>
      <trkpt lat="47.60969" lon="-2.61057">
        <ele>9.75</ele>
        <time>2021-08-02T14:15:44Z</time>
      </trkpt>
      <trkpt lat="47.60661" lon="-2.60511">
        <ele>12.63</ele>
        <time>2021-08-02T14:16:05Z</time>
      </trkpt>
      <trkpt lat="47.60463" lon="-2.60062">
        <ele>14.08</ele>
        <time>2021-08-02T14:16:20Z</time>
      </trkpt>
      <trkpt lat="47.60321" lon="-2.59612">
        <ele>23.69</ele>
        <time>2021-08-02T14:16:36Z</time>
      </trkpt>
      <trkpt lat="47.60145" lon="-2.58981">
        <ele>35.23</ele>
        <time>2021-08-02T14:16:56Z</time>
      </trkpt>
      <trkpt lat="47.59985" lon="-2.58412">
        <ele>32.82</ele>
        <time>2021-08-02T14:17:13Z</time>
      </trkpt>
      <trkpt lat="47.59828" lon="-2.57968">
        <ele>31.86</ele>
        <time>2021-08-02T14:17:26Z</time>
      </trkpt>
      <trkpt lat="47.59655" lon="-2.5749">
        <ele>27.05</ele>
        <time>2021-08-02T14:17:40Z</time>
      </trkpt>
      <trkpt lat="47.59547" lon="-2.57016">
        <ele>19.36</ele>
        <time>2021-08-02T14:17:53Z</time>
      </trkpt>
      <trkpt lat="47.59423" lon="-2.56676">
        <ele>13.12</ele>
        <time>2021-08-02T14:18:03Z</time>
      </trkpt>
      <trkpt lat="47.59304" lon="-2.56336">
        <ele>18.4</ele>
        <time>2021-08-02T14:18:13Z</time>
      </trkpt>
      <trkpt lat="47.59186" lon="-2.55791">
        <ele>25.61</ele>
        <time>2021-08-02T14:18:27Z</time>
      </trkpt>
      <trkpt lat="47.59081" lon="-2.55484">
        <ele>25.61</ele>
        <time>2021-08-02T14:18:37Z</time>
      </trkpt>
      <trkpt lat="47.58887" lon="-2.54954">
        <ele>28.98</ele>
        <time>2021-08-02T14:18:53Z</time>
      </trkpt>
      <trkpt lat="47.58635" lon="-2.54355">
        <ele>32.34</ele>
        <time>2021-08-02T14:19:12Z</time>
      </trkpt>
      <trkpt lat="47.58365" lon="-2.53846">
        <ele>35.23</ele>
        <time>2021-08-02T14:19:30Z</time>
      </trkpt>
      <trkpt lat="47.57952" lon="-2.53127">
        <ele>30.9</ele>
        <time>2021-08-02T14:19:56Z</time>
      </trkpt>
      <trkpt lat="47.57581" lon="-2.52486">
        <ele>30.9</ele>
        <time>2021-08-02T14:20:19Z</time>
      </trkpt>
      <trkpt lat="47.57293" lon="-2.52015">
        <ele>32.82</ele>
        <time>2021-08-02T14:20:37Z</time>
      </trkpt>
      <trkpt lat="47.5702" lon="-2.51748">
        <ele>30.42</ele>
        <time>2021-08-02T14:20:50Z</time>
      </trkpt>
      <trkpt lat="47.56824" lon="-2.5159">
        <ele>26.57</ele>
        <time>2021-08-02T14:20:59Z</time>
      </trkpt>
      <trkpt lat="47.56704" lon="-2.51462">
        <ele>18.4</ele>
        <time>2021-08-02T14:21:05Z</time>
      </trkpt>
      <trkpt lat="47.56493" lon="-2.51093">
        <ele>16</ele>
        <time>2021-08-02T14:21:17Z</time>
      </trkpt>
      <trkpt lat="47.56214" lon="-2.50604">
        <ele>13.6</ele>
        <time>2021-08-02T14:21:36Z</time>
      </trkpt>
      <trkpt lat="47.56034" lon="-2.50281">
        <ele>15.04</ele>
        <time>2021-08-02T14:21:48Z</time>
      </trkpt>
      <trkpt lat="47.55699" lon="-2.49802">
        <ele>20.32</ele>
        <time>2021-08-02T14:22:07Z</time>
      </trkpt>
      <trkpt lat="47.55451" lon="-2.49423">
        <ele>10.71</ele>
        <time>2021-08-02T14:22:23Z</time>
      </trkpt>
      <trkpt lat="47.55285" lon="-2.4908">
        <ele>1.1</ele>
        <time>2021-08-02T14:22:34Z</time>
      </trkpt>
      <trkpt lat="47.55144" lon="-2.4868">
        <ele>-0.34</ele>
        <time>2021-08-02T14:22:46Z</time>
      </trkpt>
      <trkpt lat="47.54953" lon="-2.48034">
        <ele>5.42</ele>
        <time>2021-08-02T14:23:05Z</time>
      </trkpt>
      <trkpt lat="47.54922" lon="-2.4774">
        <ele>6.39</ele>
        <time>2021-08-02T14:23:13Z</time>
      </trkpt>
      <trkpt lat="47.54937" lon="-2.47322">
        <ele>3.02</ele>
        <time>2021-08-02T14:23:24Z</time>
      </trkpt>
      <trkpt lat="47.54937" lon="-2.46709">
        <ele>5.42</ele>
        <time>2021-08-02T14:23:40Z</time>
      </trkpt>
      <trkpt lat="47.54927" lon="-2.46192">
        <ele>24.65</ele>
        <time>2021-08-02T14:23:55Z</time>
      </trkpt>
      <trkpt lat="47.54911" lon="-2.45558">
        <ele>24.65</ele>
        <time>2021-08-02T14:24:13Z</time>
      </trkpt>
      <trkpt lat="47.54882" lon="-2.44998">
        <ele>15.04</ele>
        <time>2021-08-02T14:24:29Z</time>
      </trkpt>
      <trkpt lat="47.54814" lon="-2.44576">
        <ele>3.98</ele>
        <time>2021-08-02T14:24:40Z</time>
      </trkpt>
      <trkpt lat="47.54717" lon="-2.4423">
        <ele>10.71</ele>
        <time>2021-08-02T14:24:50Z</time>
      </trkpt>
      <trkpt lat="47.54522" lon="-2.43717">
        <ele>25.61</ele>
        <time>2021-08-02T14:25:07Z</time>
      </trkpt>
      <trkpt lat="47.54321" lon="-2.43179">
        <ele>28.5</ele>
        <time>2021-08-02T14:25:24Z</time>
      </trkpt>
      <trkpt lat="47.54182" lon="-2.42727">
        <ele>36.67</ele>
        <time>2021-08-02T14:25:38Z</time>
      </trkpt>
      <trkpt lat="47.53997" lon="-2.42094">
        <ele>38.59</ele>
        <time>2021-08-02T14:25:57Z</time>
      </trkpt>
      <trkpt lat="47.53778" lon="-2.41334">
        <ele>43.4</ele>
        <time>2021-08-02T14:26:20Z</time>
      </trkpt>
      <trkpt lat="47.53646" lon="-2.40808">
        <ele>43.4</ele>
        <time>2021-08-02T14:26:36Z</time>
      </trkpt>
      <trkpt lat="47.53616" lon="-2.4046">
        <ele>42.92</ele>
        <time>2021-08-02T14:26:46Z</time>
      </trkpt>
      <trkpt lat="47.53638" lon="-2.40032">
        <ele>42.44</ele>
        <time>2021-08-02T14:26:58Z</time>
      </trkpt>
      <trkpt lat="47.53699" lon="-2.39211">
        <ele>41.95</ele>
        <time>2021-08-02T14:27:21Z</time>
      </trkpt>
      <trkpt lat="47.53769" lon="-2.38299">
        <ele>40.51</ele>
        <time>2021-08-02T14:27:46Z</time>
      </trkpt>
      <trkpt lat="47.53817" lon="-2.37518">
        <ele>35.71</ele>
        <time>2021-08-02T14:28:06Z</time>
      </trkpt>
      <trkpt lat="47.53824" lon="-2.37068">
        <ele>31.38</ele>
        <time>2021-08-02T14:28:19Z</time>
      </trkpt>
      <trkpt lat="47.53821" lon="-2.36254">
        <ele>34.74</ele>
        <time>2021-08-02T14:28:41Z</time>
      </trkpt>
      <trkpt lat="47.53791" lon="-2.35741">
        <ele>37.63</ele>
        <time>2021-08-02T14:28:55Z</time>
      </trkpt>
      <trkpt lat="47.53731" lon="-2.35174">
        <ele>47.24</ele>
        <time>2021-08-02T14:29:11Z</time>
      </trkpt>
      <trkpt lat="47.53659" lon="-2.34535">
        <ele>50.61</ele>
        <time>2021-08-02T14:29:30Z</time>
      </trkpt>
      <trkpt lat="47.53589" lon="-2.34057">
        <ele>45.8</ele>
        <time>2021-08-02T14:29:43Z</time>
      </trkpt>
      <trkpt lat="47.5349" lon="-2.33667">
        <ele>46.28</ele>
        <time>2021-08-02T14:29:54Z</time>
      </trkpt>
      <trkpt lat="47.53346" lon="-2.33317">
        <ele>47.24</ele>
        <time>2021-08-02T14:30:05Z</time>
      </trkpt>
      <trkpt lat="47.53133" lon="-2.3294">
        <ele>44.36</ele>
        <time>2021-08-02T14:30:18Z</time>
      </trkpt>
      <trkpt lat="47.52984" lon="-2.32632">
        <ele>42.44</ele>
        <time>2021-08-02T14:30:28Z</time>
      </trkpt>
      <trkpt lat="47.52888" lon="-2.32316">
        <ele>36.19</ele>
        <time>2021-08-02T14:30:37Z</time>
      </trkpt>
      <trkpt lat="47.52838" lon="-2.31951">
        <ele>31.86</ele>
        <time>2021-08-02T14:30:47Z</time>
      </trkpt>
      <trkpt lat="47.52839" lon="-2.31615">
        <ele>33.3</ele>
        <time>2021-08-02T14:30:56Z</time>
      </trkpt>
      <trkpt lat="47.5288" lon="-2.31294">
        <ele>35.71</ele>
        <time>2021-08-02T14:31:05Z</time>
      </trkpt>
      <trkpt lat="47.52977" lon="-2.30943">
        <ele>37.63</ele>
        <time>2021-08-02T14:31:15Z</time>
      </trkpt>
      <trkpt lat="47.53081" lon="-2.30542">
        <ele>34.26</ele>
        <time>2021-08-02T14:31:26Z</time>
      </trkpt>
      <trkpt lat="47.53142" lon="-2.30105">
        <ele>26.09</ele>
        <time>2021-08-02T14:31:38Z</time>
      </trkpt>
      <trkpt lat="47.53195" lon="-2.29578">
        <ele>16</ele>
        <time>2021-08-02T14:31:53Z</time>
      </trkpt>
      <trkpt lat="47.53174" lon="-2.29283">
        <ele>6.87</ele>
        <time>2021-08-02T14:32:01Z</time>
      </trkpt>
      <trkpt lat="47.53103" lon="-2.29004">
        <ele>1.1</ele>
        <time>2021-08-02T14:32:09Z</time>
      </trkpt>
      <trkpt lat="47.52994" lon="-2.28763">
        <ele>0.62</ele>
        <time>2021-08-02T14:32:17Z</time>
      </trkpt>
      <trkpt lat="47.52852" lon="-2.28578">
        <ele>5.91</ele>
        <time>2021-08-02T14:32:25Z</time>
      </trkpt>
      <trkpt lat="47.52691" lon="-2.28452">
        <ele>13.6</ele>
        <time>2021-08-02T14:32:33Z</time>
      </trkpt>
      <trkpt lat="47.52285" lon="-2.28205">
        <ele>30.42</ele>
        <time>2021-08-02T14:32:52Z</time>
      </trkpt>
      <trkpt lat="47.51849" lon="-2.27944">
        <ele>30.9</ele>
        <time>2021-08-02T14:33:11Z</time>
      </trkpt>
      <trkpt lat="47.51379" lon="-2.27659">
        <ele>18.4</ele>
        <time>2021-08-02T14:33:31Z</time>
      </trkpt>
      <trkpt lat="47.51097" lon="-2.27424">
        <ele>18.88</ele>
        <time>2021-08-02T14:33:44Z</time>
      </trkpt>
      <trkpt lat="47.50558" lon="-2.26926">
        <ele>30.42</ele>
        <time>2021-08-02T14:34:10Z</time>
      </trkpt>
      <trkpt lat="47.50298" lon="-2.26656">
        <ele>33.78</ele>
        <time>2021-08-02T14:34:23Z</time>
      </trkpt>
      <trkpt lat="47.50102" lon="-2.26369">
        <ele>34.26</ele>
        <time>2021-08-02T14:34:34Z</time>
      </trkpt>
      <trkpt lat="47.49946" lon="-2.26041">
        <ele>35.23</ele>
        <time>2021-08-02T14:34:45Z</time>
      </trkpt>
      <trkpt lat="47.49814" lon="-2.25652">
        <ele>36.67</ele>
        <time>2021-08-02T14:34:57Z</time>
      </trkpt>
      <trkpt lat="47.49614" lon="-2.25006">
        <ele>38.11</ele>
        <time>2021-08-02T14:35:16Z</time>
      </trkpt>
      <trkpt lat="47.49452" lon="-2.24585">
        <ele>39.07</ele>
        <time>2021-08-02T14:35:29Z</time>
      </trkpt>
      <trkpt lat="47.49184" lon="-2.23849">
        <ele>37.15</ele>
        <time>2021-08-02T14:35:51Z</time>
      </trkpt>
      <trkpt lat="47.48938" lon="-2.23154">
        <ele>35.71</ele>
        <time>2021-08-02T14:36:12Z</time>
      </trkpt>
      <trkpt lat="47.48751" lon="-2.22502">
        <ele>27.53</ele>
        <time>2021-08-02T14:36:31Z</time>
      </trkpt>
      <trkpt lat="47.48634" lon="-2.21973">
        <ele>19.84</ele>
        <time>2021-08-02T14:36:46Z</time>
      </trkpt>
      <trkpt lat="47.48607" lon="-2.21603">
        <ele>10.23</ele>
        <time>2021-08-02T14:36:56Z</time>
      </trkpt>
      <trkpt lat="47.48596" lon="-2.20906">
        <ele>10.71</ele>
        <time>2021-08-02T14:37:15Z</time>
      </trkpt>
      <trkpt lat="47.48558" lon="-2.20497">
        <ele>18.4</ele>
        <time>2021-08-02T14:37:27Z</time>
      </trkpt>
      <trkpt lat="47.48468" lon="-2.20075">
        <ele>28.02</ele>
        <time>2021-08-02T14:37:40Z</time>
      </trkpt>
      <trkpt lat="47.48286" lon="-2.19446">
        <ele>22.25</ele>
        <time>2021-08-02T14:37:59Z</time>
      </trkpt>
      <trkpt lat="47.48113" lon="-2.189">
        <ele>19.84</ele>
        <time>2021-08-02T14:38:15Z</time>
      </trkpt>
      <trkpt lat="47.47932" lon="-2.18453">
        <ele>27.53</ele>
        <time>2021-08-02T14:38:31Z</time>
      </trkpt>
      <trkpt lat="47.47707" lon="-2.18074">
        <ele>26.57</ele>
        <time>2021-08-02T14:38:45Z</time>
      </trkpt>
      <trkpt lat="47.47516" lon="-2.17815">
        <ele>19.36</ele>
        <time>2021-08-02T14:38:55Z</time>
      </trkpt>
      <trkpt lat="47.47299" lon="-2.17523">
        <ele>15.52</ele>
        <time>2021-08-02T14:39:05Z</time>
      </trkpt>
      <trkpt lat="47.47206" lon="-2.17298">
        <ele>19.36</ele>
        <time>2021-08-02T14:39:13Z</time>
      </trkpt>
      <trkpt lat="47.47129" lon="-2.16984">
        <ele>20.32</ele>
        <time>2021-08-02T14:39:22Z</time>
      </trkpt>
      <trkpt lat="47.47037" lon="-2.16517">
        <ele>23.21</ele>
        <time>2021-08-02T14:39:35Z</time>
      </trkpt>
      <trkpt lat="47.46924" lon="-2.16189">
        <ele>24.65</ele>
        <time>2021-08-02T14:39:45Z</time>
      </trkpt>
      <trkpt lat="47.4678" lon="-2.15903">
        <ele>27.05</ele>
        <time>2021-08-02T14:39:55Z</time>
      </trkpt>
      <trkpt lat="47.46493" lon="-2.15471">
        <ele>28.02</ele>
        <time>2021-08-02T14:40:12Z</time>
      </trkpt>
      <trkpt lat="47.4609" lon="-2.1488">
        <ele>30.42</ele>
        <time>2021-08-02T14:40:35Z</time>
      </trkpt>
      <trkpt lat="47.45763" lon="-2.14363">
        <ele>26.57</ele>
        <time>2021-08-02T14:40:54Z</time>
      </trkpt>
      <trkpt lat="47.45514" lon="-2.13907">
        <ele>21.77</ele>
        <time>2021-08-02T14:41:11Z</time>
      </trkpt>
      <trkpt lat="47.4513" lon="-2.13166">
        <ele>20.32</ele>
        <time>2021-08-02T14:41:37Z</time>
      </trkpt>
      <trkpt lat="47.44839" lon="-2.12555">
        <ele>25.61</ele>
        <time>2021-08-02T14:41:58Z</time>
      </trkpt>
      <trkpt lat="47.4474" lon="-2.12221">
        <ele>26.57</ele>
        <time>2021-08-02T14:42:08Z</time>
      </trkpt>
      <trkpt lat="47.44692" lon="-2.11896">
        <ele>24.65</ele>
        <time>2021-08-02T14:42:17Z</time>
      </trkpt>
      <trkpt lat="47.44692" lon="-2.11526">
        <ele>21.77</ele>
        <time>2021-08-02T14:42:27Z</time>
      </trkpt>
      <trkpt lat="47.44751" lon="-2.11059">
        <ele>17.92</ele>
        <time>2021-08-02T14:42:40Z</time>
      </trkpt>
      <trkpt lat="47.44794" lon="-2.10546">
        <ele>14.08</ele>
        <time>2021-08-02T14:42:54Z</time>
      </trkpt>
      <trkpt lat="47.44796" lon="-2.10043">
        <ele>10.71</ele>
        <time>2021-08-02T14:43:08Z</time>
      </trkpt>
      <trkpt lat="47.44745" lon="-2.09494">
        <ele>14.08</ele>
        <time>2021-08-02T14:43:24Z</time>
      </trkpt>
      <trkpt lat="47.44654" lon="-2.09006">
        <ele>19.36</ele>
        <time>2021-08-02T14:43:39Z</time>
      </trkpt>
      <trkpt lat="47.44544" lon="-2.08607">
        <ele>20.32</ele>
        <time>2021-08-02T14:43:52Z</time>
      </trkpt>
      <trkpt lat="47.44418" lon="-2.08303">
        <ele>17.92</ele>
        <time>2021-08-02T14:44:02Z</time>
      </trkpt>
      <trkpt lat="47.44248" lon="-2.08031">
        <ele>14.56</ele>
        <time>2021-08-02T14:44:11Z</time>
      </trkpt>
      <trkpt lat="47.43972" lon="-2.0769">
        <ele>7.83</ele>
        <time>2021-08-02T14:44:27Z</time>
      </trkpt>
      <trkpt lat="47.43711" lon="-2.07334">
        <ele>6.87</ele>
        <time>2021-08-02T14:44:42Z</time>
      </trkpt>
      <trkpt lat="47.43463" lon="-2.06937">
        <ele>15.52</ele>
        <time>2021-08-02T14:44:57Z</time>
      </trkpt>
      <trkpt lat="47.4319" lon="-2.06528">
        <ele>23.69</ele>
        <time>2021-08-02T14:45:13Z</time>
      </trkpt>
      <trkpt lat="47.42829" lon="-2.06098">
        <ele>33.3</ele>
        <time>2021-08-02T14:45:32Z</time>
      </trkpt>
      <trkpt lat="47.42444" lon="-2.05706">
        <ele>37.63</ele>
        <time>2021-08-02T14:45:51Z</time>
      </trkpt>
      <trkpt lat="47.42243" lon="-2.05433">
        <ele>40.51</ele>
        <time>2021-08-02T14:46:02Z</time>
      </trkpt>
      <trkpt lat="47.42077" lon="-2.0511">
        <ele>39.07</ele>
        <time>2021-08-02T14:46:13Z</time>
      </trkpt>
      <trkpt lat="47.41952" lon="-2.04754">
        <ele>41.95</ele>
        <time>2021-08-02T14:46:24Z</time>
      </trkpt>
      <trkpt lat="47.41865" lon="-2.0436">
        <ele>40.99</ele>
        <time>2021-08-02T14:46:36Z</time>
      </trkpt>
      <trkpt lat="47.4174" lon="-2.03719">
        <ele>40.51</ele>
        <time>2021-08-02T14:46:56Z</time>
      </trkpt>
      <trkpt lat="47.41637" lon="-2.03254">
        <ele>41.47</ele>
        <time>2021-08-02T14:47:10Z</time>
      </trkpt>
      <trkpt lat="47.41508" lon="-2.02853">
        <ele>42.44</ele>
        <time>2021-08-02T14:47:22Z</time>
      </trkpt>
      <trkpt lat="47.41291" lon="-2.02373">
        <ele>44.36</ele>
        <time>2021-08-02T14:47:38Z</time>
      </trkpt>
      <trkpt lat="47.41012" lon="-2.01837">
        <ele>51.57</ele>
        <time>2021-08-02T14:47:56Z</time>
      </trkpt>
      <trkpt lat="47.40784" lon="-2.01497">
        <ele>51.09</ele>
        <time>2021-08-02T14:48:09Z</time>
      </trkpt>
      <trkpt lat="47.40475" lon="-2.01096">
        <ele>53.97</ele>
        <time>2021-08-02T14:48:27Z</time>
      </trkpt>
      <trkpt lat="47.40151" lon="-2.00767">
        <ele>56.37</ele>
        <time>2021-08-02T14:48:43Z</time>
      </trkpt>
      <trkpt lat="47.39718" lon="-2.00332">
        <ele>62.14</ele>
        <time>2021-08-02T14:49:04Z</time>
      </trkpt>
      <trkpt lat="47.39513" lon="-2.00022">
        <ele>65.51</ele>
        <time>2021-08-02T14:49:15Z</time>
      </trkpt>
      <trkpt lat="47.39363" lon="-1.99715">
        <ele>66.47</ele>
        <time>2021-08-02T14:49:27Z</time>
      </trkpt>
      <trkpt lat="47.39184" lon="-1.99294">
        <ele>66.47</ele>
        <time>2021-08-02T14:49:41Z</time>
      </trkpt>
      <trkpt lat="47.38963" lon="-1.98748">
        <ele>66.95</ele>
        <time>2021-08-02T14:49:59Z</time>
      </trkpt>
      <trkpt lat="47.38627" lon="-1.97965">
        <ele>69.35</ele>
        <time>2021-08-02T14:50:25Z</time>
      </trkpt>
      <trkpt lat="47.38451" lon="-1.97518">
        <ele>70.31</ele>
        <time>2021-08-02T14:50:39Z</time>
      </trkpt>
      <trkpt lat="47.38355" lon="-1.97135">
        <ele>67.43</ele>
        <time>2021-08-02T14:50:50Z</time>
      </trkpt>
      <trkpt lat="47.38222" lon="-1.96684">
        <ele>67.43</ele>
        <time>2021-08-02T14:51:03Z</time>
      </trkpt>
      <trkpt lat="47.38046" lon="-1.96275">
        <ele>64.55</ele>
        <time>2021-08-02T14:51:16Z</time>
      </trkpt>
      <trkpt lat="47.37872" lon="-1.95837">
        <ele>70.31</ele>
        <time>2021-08-02T14:51:30Z</time>
      </trkpt>
      <trkpt lat="47.37771" lon="-1.95436">
        <ele>72.24</ele>
        <time>2021-08-02T14:51:42Z</time>
      </trkpt>
      <trkpt lat="47.3769" lon="-1.94857">
        <ele>74.16</ele>
        <time>2021-08-02T14:51:57Z</time>
      </trkpt>
      <trkpt lat="47.37589" lon="-1.94075">
        <ele>73.68</ele>
        <time>2021-08-02T14:52:20Z</time>
      </trkpt>
      <trkpt lat="47.37519" lon="-1.93694">
        <ele>76.56</ele>
        <time>2021-08-02T14:52:31Z</time>
      </trkpt>
      <trkpt lat="47.37396" lon="-1.93307">
        <ele>78.97</ele>
        <time>2021-08-02T14:52:43Z</time>
      </trkpt>
      <trkpt lat="47.3719" lon="-1.9274">
        <ele>78.97</ele>
        <time>2021-08-02T14:53:01Z</time>
      </trkpt>
      <trkpt lat="47.37083" lon="-1.92269">
        <ele>81.37</ele>
        <time>2021-08-02T14:53:15Z</time>
      </trkpt>
      <trkpt lat="47.36925" lon="-1.91524">
        <ele>77.04</ele>
        <time>2021-08-02T14:53:36Z</time>
      </trkpt>
      <trkpt lat="47.36821" lon="-1.91163">
        <ele>77.52</ele>
        <time>2021-08-02T14:53:46Z</time>
      </trkpt>
      <trkpt lat="47.36671" lon="-1.90843">
        <ele>77.04</ele>
        <time>2021-08-02T14:53:56Z</time>
      </trkpt>
      <trkpt lat="47.3638" lon="-1.90397">
        <ele>68.39</ele>
        <time>2021-08-02T14:54:12Z</time>
      </trkpt>
      <trkpt lat="47.36111" lon="-1.89994">
        <ele>77.04</ele>
        <time>2021-08-02T14:54:28Z</time>
      </trkpt>
      <trkpt lat="47.35786" lon="-1.89506">
        <ele>84.25</ele>
        <time>2021-08-02T14:54:48Z</time>
      </trkpt>
      <trkpt lat="47.35566" lon="-1.8912">
        <ele>86.66</ele>
        <time>2021-08-02T14:55:02Z</time>
      </trkpt>
      <trkpt lat="47.35326" lon="-1.88562">
        <ele>84.25</ele>
        <time>2021-08-02T14:55:20Z</time>
      </trkpt>
      <trkpt lat="47.3519" lon="-1.88205">
        <ele>80.89</ele>
        <time>2021-08-02T14:55:32Z</time>
      </trkpt>
      <trkpt lat="47.35002" lon="-1.87611">
        <ele>81.37</ele>
        <time>2021-08-02T14:55:52Z</time>
      </trkpt>
      <trkpt lat="47.34914" lon="-1.873">
        <ele>84.25</ele>
        <time>2021-08-02T14:56:03Z</time>
      </trkpt>
      <trkpt lat="47.34838" lon="-1.8702">
        <ele>85.69</ele>
        <time>2021-08-02T14:56:11Z</time>
      </trkpt>
      <trkpt lat="47.34714" lon="-1.86639">
        <ele>88.1</ele>
        <time>2021-08-02T14:56:23Z</time>
      </trkpt>
      <trkpt lat="47.34542" lon="-1.86051">
        <ele>87.62</ele>
        <time>2021-08-02T14:56:38Z</time>
      </trkpt>
      <trkpt lat="47.34474" lon="-1.85661">
        <ele>86.18</ele>
        <time>2021-08-02T14:56:49Z</time>
      </trkpt>
      <trkpt lat="47.34381" lon="-1.84958">
        <ele>85.69</ele>
        <time>2021-08-02T14:57:08Z</time>
      </trkpt>
      <trkpt lat="47.34314" lon="-1.84475">
        <ele>84.73</ele>
        <time>2021-08-02T14:57:22Z</time>
      </trkpt>
      <trkpt lat="47.34216" lon="-1.83836">
        <ele>82.81</ele>
        <time>2021-08-02T14:57:42Z</time>
      </trkpt>
      <trkpt lat="47.34143" lon="-1.83336">
        <ele>84.25</ele>
        <time>2021-08-02T14:57:58Z</time>
      </trkpt>
      <trkpt lat="47.34093" lon="-1.82973">
        <ele>85.21</ele>
        <time>2021-08-02T14:58:10Z</time>
      </trkpt>
      <trkpt lat="47.34044" lon="-1.82638">
        <ele>85.69</ele>
        <time>2021-08-02T14:58:22Z</time>
      </trkpt>
      <trkpt lat="47.33935" lon="-1.81951">
        <ele>83.77</ele>
        <time>2021-08-02T14:58:42Z</time>
      </trkpt>
      <trkpt lat="47.33872" lon="-1.81567">
        <ele>82.81</ele>
        <time>2021-08-02T14:58:56Z</time>
      </trkpt>
      <trkpt lat="47.33771" lon="-1.81014">
        <ele>80.89</ele>
        <time>2021-08-02T14:59:15Z</time>
      </trkpt>
      <trkpt lat="47.33689" lon="-1.80563">
        <ele>80.41</ele>
        <time>2021-08-02T14:59:31Z</time>
      </trkpt>
      <trkpt lat="47.33607" lon="-1.80147">
        <ele>81.85</ele>
        <time>2021-08-02T14:59:45Z</time>
      </trkpt>
      <trkpt lat="47.33492" lon="-1.79681">
        <ele>80.89</ele>
        <time>2021-08-02T15:00:00Z</time>
      </trkpt>
      <trkpt lat="47.33348" lon="-1.7925">
        <ele>81.37</ele>
        <time>2021-08-02T15:00:12Z</time>
      </trkpt>
      <trkpt lat="47.33174" lon="-1.7886">
        <ele>82.33</ele>
        <time>2021-08-02T15:00:25Z</time>
      </trkpt>
      <trkpt lat="47.32952" lon="-1.78472">
        <ele>81.85</ele>
        <time>2021-08-02T15:00:38Z</time>
      </trkpt>
      <trkpt lat="47.32662" lon="-1.78088">
        <ele>77.52</ele>
        <time>2021-08-02T15:00:53Z</time>
      </trkpt>
      <trkpt lat="47.32343" lon="-1.77765">
        <ele>71.76</ele>
        <time>2021-08-02T15:01:08Z</time>
      </trkpt>
      <trkpt lat="47.31923" lon="-1.77398">
        <ele>73.2</ele>
        <time>2021-08-02T15:01:27Z</time>
      </trkpt>
      <trkpt lat="47.31417" lon="-1.76961">
        <ele>76.56</ele>
        <time>2021-08-02T15:01:50Z</time>
      </trkpt>
      <trkpt lat="47.31042" lon="-1.76604">
        <ele>82.33</ele>
        <time>2021-08-02T15:02:08Z</time>
      </trkpt>
      <trkpt lat="47.30731" lon="-1.76267">
        <ele>82.33</ele>
        <time>2021-08-02T15:02:25Z</time>
      </trkpt>
      <trkpt lat="47.30546" lon="-1.76062">
        <ele>76.56</ele>
        <time>2021-08-02T15:02:35Z</time>
      </trkpt>
      <trkpt lat="47.30248" lon="-1.75716">
        <ele>78</ele>
        <time>2021-08-02T15:02:50Z</time>
      </trkpt>
      <trkpt lat="47.30064" lon="-1.75473">
        <ele>78.48</ele>
        <time>2021-08-02T15:03:01Z</time>
      </trkpt>
      <trkpt lat="47.29854" lon="-1.75192">
        <ele>77.04</ele>
        <time>2021-08-02T15:03:13Z</time>
      </trkpt>
      <trkpt lat="47.29565" lon="-1.74807">
        <ele>79.45</ele>
        <time>2021-08-02T15:03:29Z</time>
      </trkpt>
      <trkpt lat="47.29252" lon="-1.74376">
        <ele>78.97</ele>
        <time>2021-08-02T15:03:47Z</time>
      </trkpt>
      <trkpt lat="47.29058" lon="-1.74074">
        <ele>78.48</ele>
        <time>2021-08-02T15:04:00Z</time>
      </trkpt>
      <trkpt lat="47.28894" lon="-1.73827">
        <ele>78.48</ele>
        <time>2021-08-02T15:04:11Z</time>
      </trkpt>
      <trkpt lat="47.28632" lon="-1.73494">
        <ele>77.52</ele>
        <time>2021-08-02T15:04:25Z</time>
      </trkpt>
      <trkpt lat="47.28373" lon="-1.73167">
        <ele>84.73</ele>
        <time>2021-08-02T15:04:41Z</time>
      </trkpt>
      <trkpt lat="47.2811" lon="-1.72818">
        <ele>84.73</ele>
        <time>2021-08-02T15:04:57Z</time>
      </trkpt>
      <trkpt lat="47.28001" lon="-1.72668">
        <ele>83.29</ele>
        <time>2021-08-02T15:05:06Z</time>
      </trkpt>
      <trkpt lat="47.27874" lon="-1.72494">
        <ele>78.48</ele>
        <time>2021-08-02T15:05:19Z</time>
      </trkpt>
      <trkpt lat="47.27752" lon="-1.72329">
        <ele>76.08</ele>
        <time>2021-08-02T15:05:30Z</time>
      </trkpt>
      <trkpt lat="47.27544" lon="-1.72075">
        <ele>74.16</ele>
        <time>2021-08-02T15:05:45Z</time>
      </trkpt>
      <trkpt lat="47.27344" lon="-1.71849">
        <ele>69.83</ele>
        <time>2021-08-02T15:05:59Z</time>
      </trkpt>
      <trkpt lat="47.27072" lon="-1.71548">
        <ele>66.95</ele>
        <time>2021-08-02T15:06:15Z</time>
      </trkpt>
      <trkpt lat="47.26781" lon="-1.71198">
        <ele>65.51</ele>
        <time>2021-08-02T15:06:31Z</time>
      </trkpt>
      <trkpt lat="47.26544" lon="-1.70864">
        <ele>65.03</ele>
        <time>2021-08-02T15:06:47Z</time>
      </trkpt>
      <trkpt lat="47.26339" lon="-1.70525">
        <ele>63.58</ele>
        <time>2021-08-02T15:07:02Z</time>
      </trkpt>
      <trkpt lat="47.26121" lon="-1.70108">
        <ele>59.26</ele>
        <time>2021-08-02T15:07:19Z</time>
      </trkpt>
      <trkpt lat="47.25916" lon="-1.69631">
        <ele>56.37</ele>
        <time>2021-08-02T15:07:37Z</time>
      </trkpt>
      <trkpt lat="47.25753" lon="-1.69177">
        <ele>53.01</ele>
        <time>2021-08-02T15:07:52Z</time>
      </trkpt>
      <trkpt lat="47.25613" lon="-1.68668">
        <ele>46.76</ele>
        <time>2021-08-02T15:08:07Z</time>
      </trkpt>
      <trkpt lat="47.25486" lon="-1.68239">
        <ele>44.36</ele>
        <time>2021-08-02T15:08:20Z</time>
      </trkpt>
      <trkpt lat="47.25379" lon="-1.68075">
        <ele>50.61</ele>
        <time>2021-08-02T15:08:27Z</time>
      </trkpt>
      <trkpt lat="47.2519" lon="-1.67919">
        <ele>53.01</ele>
        <time>2021-08-02T15:08:36Z</time>
      </trkpt>
      <trkpt lat="47.24881" lon="-1.67668">
        <ele>58.3</ele>
        <time>2021-08-02T15:08:52Z</time>
      </trkpt>
      <trkpt lat="47.24551" lon="-1.67336">
        <ele>53.01</ele>
        <time>2021-08-02T15:09:07Z</time>
      </trkpt>
      <trkpt lat="47.24303" lon="-1.67028">
        <ele>49.16</ele>
        <time>2021-08-02T15:09:21Z</time>
      </trkpt>
      <trkpt lat="47.24053" lon="-1.66651">
        <ele>49.65</ele>
        <time>2021-08-02T15:09:36Z</time>
      </trkpt>
      <trkpt lat="47.2389" lon="-1.66345">
        <ele>51.57</ele>
        <time>2021-08-02T15:09:48Z</time>
      </trkpt>
      <trkpt lat="47.23734" lon="-1.65958">
        <ele>52.53</ele>
        <time>2021-08-02T15:10:03Z</time>
      </trkpt>
      <trkpt lat="47.23575" lon="-1.65506">
        <ele>51.09</ele>
        <time>2021-08-02T15:10:21Z</time>
      </trkpt>
      <trkpt lat="47.23381" lon="-1.64971">
        <ele>50.13</ele>
        <time>2021-08-02T15:10:42Z</time>
      </trkpt>
      <trkpt lat="47.2324" lon="-1.64646">
        <ele>48.68</ele>
        <time>2021-08-02T15:10:54Z</time>
      </trkpt>
      <trkpt lat="47.2305" lon="-1.64228">
        <ele>46.28</ele>
        <time>2021-08-02T15:11:10Z</time>
      </trkpt>
      <trkpt lat="47.22926" lon="-1.63898">
        <ele>45.8</ele>
        <time>2021-08-02T15:11:24Z</time>
      </trkpt>
      <trkpt lat="47.22846" lon="-1.63658">
        <ele>43.88</ele>
        <time>2021-08-02T15:11:36Z</time>
      </trkpt>
      <trkpt lat="47.22822" lon="-1.63585">
        <ele>44.36</ele>
        <time>2021-08-02T15:11:41Z</time>
      </trkpt>
      <trkpt lat="47.22822" lon="-1.63585">
        <ele>44.36</ele>
        <time>2021-08-02T15:11:42Z</time>
      </trkpt>
      <trkpt lat="47.22805" lon="-1.63589">
        <ele>44.84</ele>
        <time>2021-08-02T15:11:43Z</time>
      </trkpt>
      <trkpt lat="47.22802" lon="-1.63588">
        <ele>44.84</ele>
        <time>2021-08-02T15:11:44Z</time>
      </trkpt>
      <trkpt lat="47.22802" lon="-1.63588">
        <ele>44.36</ele>
        <time>2021-08-02T15:11:45Z</time>
      </trkpt>
      <trkpt lat="47.22798" lon="-1.63585">
        <ele>44.84</ele>
        <time>2021-08-02T15:12:02Z</time>
      </trkpt>
      <trkpt lat="47.22775" lon="-1.63574">
        <ele>44.84</ele>
        <time>2021-08-02T15:12:07Z</time>
      </trkpt>
      <trkpt lat="47.22774" lon="-1.63568">
        <ele>44.84</ele>
        <time>2021-08-02T15:12:08Z</time>
      </trkpt>
      <trkpt lat="47.22777" lon="-1.63559">
        <ele>44.84</ele>
        <time>2021-08-02T15:12:09Z</time>
      </trkpt>
      <trkpt lat="47.2278" lon="-1.63556">
        <ele>44.84</ele>
        <time>2021-08-02T15:12:10Z</time>
      </trkpt>
      <trkpt lat="47.2278" lon="-1.63556">
        <ele>44.84</ele>
        <time>2021-08-02T15:12:11Z</time>
      </trkpt>
      <trkpt lat="47.22783" lon="-1.63553">
        <ele>44.84</ele>
        <time>2021-08-02T15:12:12Z</time>
      </trkpt>
      <trkpt lat="47.22784" lon="-1.63547">
        <ele>44.84</ele>
        <time>2021-08-02T15:12:13Z</time>
      </trkpt>
      <trkpt lat="47.22786" lon="-1.63541">
        <ele>44.84</ele>
        <time>2021-08-02T15:12:14Z</time>
      </trkpt>
      <trkpt lat="47.22789" lon="-1.63533">
        <ele>44.84</ele>
        <time>2021-08-02T15:12:15Z</time>
      </trkpt>
      <trkpt lat="47.22785" lon="-1.63514">
        <ele>44.84</ele>
        <time>2021-08-02T15:12:16Z</time>
      </trkpt>
      <trkpt lat="47.22782" lon="-1.63503">
        <ele>44.36</ele>
        <time>2021-08-02T15:12:17Z</time>
      </trkpt>
      <trkpt lat="47.22782" lon="-1.63503">
        <ele>44.36</ele>
        <time>2021-08-02T15:12:18Z</time>
      </trkpt>
      <trkpt lat="47.22742" lon="-1.6335">
        <ele>40.99</ele>
        <time>2021-08-02T15:12:27Z</time>
      </trkpt>
      <trkpt lat="47.22691" lon="-1.63117">
        <ele>37.15</ele>
        <time>2021-08-02T15:12:37Z</time>
      </trkpt>
      <trkpt lat="47.22628" lon="-1.62813">
        <ele>37.15</ele>
        <time>2021-08-02T15:12:50Z</time>
      </trkpt>
      <trkpt lat="47.2255" lon="-1.62419">
        <ele>39.55</ele>
        <time>2021-08-02T15:13:06Z</time>
      </trkpt>
      <trkpt lat="47.225" lon="-1.62306">
        <ele>47.72</ele>
        <time>2021-08-02T15:13:12Z</time>
      </trkpt>
      <trkpt lat="47.22416" lon="-1.6223">
        <ele>44.84</ele>
        <time>2021-08-02T15:13:20Z</time>
      </trkpt>
      <trkpt lat="47.22308" lon="-1.62207">
        <ele>40.99</ele>
        <time>2021-08-02T15:13:28Z</time>
      </trkpt>
      <trkpt lat="47.22125" lon="-1.62246">
        <ele>30.9</ele>
        <time>2021-08-02T15:13:37Z</time>
      </trkpt>
      <trkpt lat="47.2195" lon="-1.62338">
        <ele>32.34</ele>
        <time>2021-08-02T15:13:47Z</time>
      </trkpt>
      <trkpt lat="47.21573" lon="-1.62546">
        <ele>34.74</ele>
        <time>2021-08-02T15:14:04Z</time>
      </trkpt>
      <trkpt lat="47.21385" lon="-1.62616">
        <ele>29.94</ele>
        <time>2021-08-02T15:14:14Z</time>
      </trkpt>
      <trkpt lat="47.21131" lon="-1.62693">
        <ele>27.53</ele>
        <time>2021-08-02T15:14:28Z</time>
      </trkpt>
      <trkpt lat="47.20945" lon="-1.62685">
        <ele>26.09</ele>
        <time>2021-08-02T15:14:37Z</time>
      </trkpt>
      <trkpt lat="47.20747" lon="-1.62602">
        <ele>24.17</ele>
        <time>2021-08-02T15:14:47Z</time>
      </trkpt>
      <trkpt lat="47.20654" lon="-1.62528">
        <ele>24.17</ele>
        <time>2021-08-02T15:14:55Z</time>
      </trkpt>
      <trkpt lat="47.20419" lon="-1.62328">
        <ele>19.84</ele>
        <time>2021-08-02T15:15:14Z</time>
      </trkpt>
      <trkpt lat="47.20227" lon="-1.62153">
        <ele>17.44</ele>
        <time>2021-08-02T15:15:28Z</time>
      </trkpt>
      <trkpt lat="47.20086" lon="-1.61963">
        <ele>19.36</ele>
        <time>2021-08-02T15:15:38Z</time>
      </trkpt>
      <trkpt lat="47.19959" lon="-1.61734">
        <ele>21.29</ele>
        <time>2021-08-02T15:15:48Z</time>
      </trkpt>
      <trkpt lat="47.19815" lon="-1.6156">
        <ele>32.34</ele>
        <time>2021-08-02T15:15:58Z</time>
      </trkpt>
      <trkpt lat="47.19654" lon="-1.61439">
        <ele>41.95</ele>
        <time>2021-08-02T15:16:08Z</time>
      </trkpt>
      <trkpt lat="47.19441" lon="-1.6137">
        <ele>54.93</ele>
        <time>2021-08-02T15:16:20Z</time>
      </trkpt>
      <trkpt lat="47.19223" lon="-1.61366">
        <ele>53.01</ele>
        <time>2021-08-02T15:16:32Z</time>
      </trkpt>
      <trkpt lat="47.18949" lon="-1.61369">
        <ele>40.51</ele>
        <time>2021-08-02T15:16:47Z</time>
      </trkpt>
      <trkpt lat="47.18737" lon="-1.61371">
        <ele>25.61</ele>
        <time>2021-08-02T15:16:59Z</time>
      </trkpt>
      <trkpt lat="47.18498" lon="-1.61374">
        <ele>9.75</ele>
        <time>2021-08-02T15:17:11Z</time>
      </trkpt>
      <trkpt lat="47.18312" lon="-1.61347">
        <ele>3.5</ele>
        <time>2021-08-02T15:17:20Z</time>
      </trkpt>
      <trkpt lat="47.1818" lon="-1.61246">
        <ele>2.54</ele>
        <time>2021-08-02T15:17:27Z</time>
      </trkpt>
      <trkpt lat="47.18094" lon="-1.61098">
        <ele>4.94</ele>
        <time>2021-08-02T15:17:34Z</time>
      </trkpt>
      <trkpt lat="47.18043" lon="-1.60919">
        <ele>4.94</ele>
        <time>2021-08-02T15:17:42Z</time>
      </trkpt>
      <trkpt lat="47.17976" lon="-1.60639">
        <ele>5.42</ele>
        <time>2021-08-02T15:17:55Z</time>
      </trkpt>
      <trkpt lat="47.17868" lon="-1.60304">
        <ele>2.54</ele>
        <time>2021-08-02T15:18:08Z</time>
      </trkpt>
      <trkpt lat="47.17739" lon="-1.60014">
        <ele>2.54</ele>
        <time>2021-08-02T15:18:19Z</time>
      </trkpt>
      <trkpt lat="47.17548" lon="-1.59682">
        <ele>3.02</ele>
        <time>2021-08-02T15:18:33Z</time>
      </trkpt>
      <trkpt lat="47.17283" lon="-1.5923">
        <ele>9.75</ele>
        <time>2021-08-02T15:18:52Z</time>
      </trkpt>
      <trkpt lat="47.17148" lon="-1.58944">
        <ele>13.12</ele>
        <time>2021-08-02T15:19:03Z</time>
      </trkpt>
      <trkpt lat="47.17058" lon="-1.58645">
        <ele>16</ele>
        <time>2021-08-02T15:19:14Z</time>
      </trkpt>
      <trkpt lat="47.16965" lon="-1.58172">
        <ele>18.4</ele>
        <time>2021-08-02T15:19:28Z</time>
      </trkpt>
      <trkpt lat="47.16861" lon="-1.57798">
        <ele>21.29</ele>
        <time>2021-08-02T15:19:40Z</time>
      </trkpt>
      <trkpt lat="47.16751" lon="-1.57518">
        <ele>23.21</ele>
        <time>2021-08-02T15:19:51Z</time>
      </trkpt>
      <trkpt lat="47.16559" lon="-1.5706">
        <ele>21.29</ele>
        <time>2021-08-02T15:20:08Z</time>
      </trkpt>
      <trkpt lat="47.16352" lon="-1.56529">
        <ele>19.36</ele>
        <time>2021-08-02T15:20:26Z</time>
      </trkpt>
      <trkpt lat="47.16211" lon="-1.56052">
        <ele>19.84</ele>
        <time>2021-08-02T15:20:42Z</time>
      </trkpt>
      <trkpt lat="47.16103" lon="-1.55627">
        <ele>21.29</ele>
        <time>2021-08-02T15:20:57Z</time>
      </trkpt>
      <trkpt lat="47.15984" lon="-1.55121">
        <ele>22.73</ele>
        <time>2021-08-02T15:21:13Z</time>
      </trkpt>
      <trkpt lat="47.15919" lon="-1.54669">
        <ele>25.13</ele>
        <time>2021-08-02T15:21:27Z</time>
      </trkpt>
      <trkpt lat="47.15901" lon="-1.54222">
        <ele>25.13</ele>
        <time>2021-08-02T15:21:41Z</time>
      </trkpt>
      <trkpt lat="47.15916" lon="-1.53939">
        <ele>23.69</ele>
        <time>2021-08-02T15:21:50Z</time>
      </trkpt>
      <trkpt lat="47.15932" lon="-1.53785">
        <ele>26.09</ele>
        <time>2021-08-02T15:21:57Z</time>
      </trkpt>
      <trkpt lat="47.15944" lon="-1.53705">
        <ele>26.09</ele>
        <time>2021-08-02T15:22:04Z</time>
      </trkpt>
      <trkpt lat="47.15966" lon="-1.53572">
        <ele>26.09</ele>
        <time>2021-08-02T15:22:22Z</time>
      </trkpt>
      <trkpt lat="47.15988" lon="-1.53475">
        <ele>25.61</ele>
        <time>2021-08-02T15:22:36Z</time>
      </trkpt>
      <trkpt lat="47.15998" lon="-1.53433">
        <ele>24.65</ele>
        <time>2021-08-02T15:22:53Z</time>
      </trkpt>
      <trkpt lat="47.16006" lon="-1.534">
        <ele>24.17</ele>
        <time>2021-08-02T15:23:12Z</time>
      </trkpt>
      <trkpt lat="47.16026" lon="-1.53316">
        <ele>23.21</ele>
        <time>2021-08-02T15:23:29Z</time>
      </trkpt>
      <trkpt lat="47.1605" lon="-1.53237">
        <ele>22.25</ele>
        <time>2021-08-02T15:23:46Z</time>
      </trkpt>
      <trkpt lat="47.1608" lon="-1.53148">
        <ele>21.29</ele>
        <time>2021-08-02T15:23:56Z</time>
      </trkpt>
      <trkpt lat="47.16158" lon="-1.52941">
        <ele>17.44</ele>
        <time>2021-08-02T15:24:14Z</time>
      </trkpt>
      <trkpt lat="47.16242" lon="-1.52763">
        <ele>12.63</ele>
        <time>2021-08-02T15:24:28Z</time>
      </trkpt>
      <trkpt lat="47.16319" lon="-1.52624">
        <ele>9.27</ele>
        <time>2021-08-02T15:24:40Z</time>
      </trkpt>
      <trkpt lat="47.16411" lon="-1.52483">
        <ele>6.39</ele>
        <time>2021-08-02T15:24:53Z</time>
      </trkpt>
      <trkpt lat="47.16529" lon="-1.5233">
        <ele>4.94</ele>
        <time>2021-08-02T15:25:05Z</time>
      </trkpt>
      <trkpt lat="47.16669" lon="-1.52182">
        <ele>1.1</ele>
        <time>2021-08-02T15:25:20Z</time>
      </trkpt>
      <trkpt lat="47.16704" lon="-1.52151">
        <ele>0.14</ele>
        <time>2021-08-02T15:25:26Z</time>
      </trkpt>
      <trkpt lat="47.16756" lon="-1.52104">
        <ele>-0.82</ele>
        <time>2021-08-02T15:25:36Z</time>
      </trkpt>
      <trkpt lat="47.16844" lon="-1.52024">
        <ele>-2.27</ele>
        <time>2021-08-02T15:25:45Z</time>
      </trkpt>
      <trkpt lat="47.17001" lon="-1.51876">
        <ele>-0.82</ele>
        <time>2021-08-02T15:25:57Z</time>
      </trkpt>
      <trkpt lat="47.17221" lon="-1.51612">
        <ele>9.27</ele>
        <time>2021-08-02T15:26:12Z</time>
      </trkpt>
      <trkpt lat="47.1738" lon="-1.51356">
        <ele>12.15</ele>
        <time>2021-08-02T15:26:23Z</time>
      </trkpt>
      <trkpt lat="47.17525" lon="-1.51044">
        <ele>7.83</ele>
        <time>2021-08-02T15:26:34Z</time>
      </trkpt>
      <trkpt lat="47.1772" lon="-1.50666">
        <ele>5.42</ele>
        <time>2021-08-02T15:26:48Z</time>
      </trkpt>
      <trkpt lat="47.17898" lon="-1.50428">
        <ele>8.31</ele>
        <time>2021-08-02T15:26:59Z</time>
      </trkpt>
      <trkpt lat="47.18129" lon="-1.50214">
        <ele>10.23</ele>
        <time>2021-08-02T15:27:11Z</time>
      </trkpt>
      <trkpt lat="47.18335" lon="-1.49992">
        <ele>14.56</ele>
        <time>2021-08-02T15:27:22Z</time>
      </trkpt>
      <trkpt lat="47.18542" lon="-1.49701">
        <ele>18.88</ele>
        <time>2021-08-02T15:27:34Z</time>
      </trkpt>
      <trkpt lat="47.18723" lon="-1.49454">
        <ele>27.05</ele>
        <time>2021-08-02T15:27:46Z</time>
      </trkpt>
      <trkpt lat="47.19026" lon="-1.4912">
        <ele>23.69</ele>
        <time>2021-08-02T15:28:04Z</time>
      </trkpt>
      <trkpt lat="47.19146" lon="-1.4899">
        <ele>17.92</ele>
        <time>2021-08-02T15:28:14Z</time>
      </trkpt>
      <trkpt lat="47.19148" lon="-1.48965">
        <ele>18.4</ele>
        <time>2021-08-02T15:28:15Z</time>
      </trkpt>
      <trkpt lat="47.19154" lon="-1.48949">
        <ele>17.92</ele>
        <time>2021-08-02T15:28:16Z</time>
      </trkpt>
      <trkpt lat="47.19159" lon="-1.48934">
        <ele>18.4</ele>
        <time>2021-08-02T15:28:17Z</time>
      </trkpt>
      <trkpt lat="47.19162" lon="-1.48921">
        <ele>18.88</ele>
        <time>2021-08-02T15:28:18Z</time>
      </trkpt>
      <trkpt lat="47.19164" lon="-1.48906">
        <ele>18.4</ele>
        <time>2021-08-02T15:28:19Z</time>
      </trkpt>
      <trkpt lat="47.19176" lon="-1.48816">
        <ele>21.29</ele>
        <time>2021-08-02T15:28:28Z</time>
      </trkpt>
      <trkpt lat="47.19176" lon="-1.48792">
        <ele>23.21</ele>
        <time>2021-08-02T15:28:39Z</time>
      </trkpt>
      <trkpt lat="47.19176" lon="-1.48785">
        <ele>23.21</ele>
        <time>2021-08-02T15:28:40Z</time>
      </trkpt>
      <trkpt lat="47.19176" lon="-1.48777">
        <ele>23.21</ele>
        <time>2021-08-02T15:28:41Z</time>
      </trkpt>
      <trkpt lat="47.19179" lon="-1.48771">
        <ele>23.69</ele>
        <time>2021-08-02T15:28:42Z</time>
      </trkpt>
      <trkpt lat="47.19183" lon="-1.48764">
        <ele>23.21</ele>
        <time>2021-08-02T15:28:43Z</time>
      </trkpt>
      <trkpt lat="47.19187" lon="-1.48758">
        <ele>23.21</ele>
        <time>2021-08-02T15:28:44Z</time>
      </trkpt>
      <trkpt lat="47.19193" lon="-1.48755">
        <ele>23.21</ele>
        <time>2021-08-02T15:28:45Z</time>
      </trkpt>
      <trkpt lat="47.19199" lon="-1.48755">
        <ele>22.73</ele>
        <time>2021-08-02T15:28:46Z</time>
      </trkpt>
      <trkpt lat="47.19205" lon="-1.48758">
        <ele>21.77</ele>
        <time>2021-08-02T15:28:47Z</time>
      </trkpt>
      <trkpt lat="47.1921" lon="-1.48764">
        <ele>21.77</ele>
        <time>2021-08-02T15:28:48Z</time>
      </trkpt>
      <trkpt lat="47.19222" lon="-1.48775">
        <ele>21.77</ele>
        <time>2021-08-02T15:28:49Z</time>
      </trkpt>
      <trkpt lat="47.19222" lon="-1.48775">
        <ele>21.77</ele>
        <time>2021-08-02T15:28:50Z</time>
      </trkpt>
      <trkpt lat="47.19229" lon="-1.48781">
        <ele>21.29</ele>
        <time>2021-08-02T15:28:51Z</time>
      </trkpt>
      <trkpt lat="47.19236" lon="-1.48786">
        <ele>20.81</ele>
        <time>2021-08-02T15:28:52Z</time>
      </trkpt>
      <trkpt lat="47.19244" lon="-1.48788">
        <ele>19.84</ele>
        <time>2021-08-02T15:28:53Z</time>
      </trkpt>
      <trkpt lat="47.19291" lon="-1.48791">
        <ele>14.08</ele>
        <time>2021-08-02T15:28:57Z</time>
      </trkpt>
      <trkpt lat="47.19303" lon="-1.48788">
        <ele>13.12</ele>
        <time>2021-08-02T15:28:58Z</time>
      </trkpt>
      <trkpt lat="47.19317" lon="-1.48785">
        <ele>12.63</ele>
        <time>2021-08-02T15:28:59Z</time>
      </trkpt>
      <trkpt lat="47.19331" lon="-1.48782">
        <ele>11.19</ele>
        <time>2021-08-02T15:29:00Z</time>
      </trkpt>
      <trkpt lat="47.19346" lon="-1.48779">
        <ele>11.19</ele>
        <time>2021-08-02T15:29:01Z</time>
      </trkpt>
      <trkpt lat="47.19363" lon="-1.4877">
        <ele>10.23</ele>
        <time>2021-08-02T15:29:02Z</time>
      </trkpt>
      <trkpt lat="47.19504" lon="-1.48657">
        <ele>7.83</ele>
        <time>2021-08-02T15:29:11Z</time>
      </trkpt>
      <trkpt lat="47.1972" lon="-1.48524">
        <ele>9.27</ele>
        <time>2021-08-02T15:29:22Z</time>
      </trkpt>
      <trkpt lat="47.19993" lon="-1.4842">
        <ele>9.27</ele>
        <time>2021-08-02T15:29:35Z</time>
      </trkpt>
      <trkpt lat="47.20221" lon="-1.48384">
        <ele>8.79</ele>
        <time>2021-08-02T15:29:46Z</time>
      </trkpt>
      <trkpt lat="47.20546" lon="-1.48375">
        <ele>8.79</ele>
        <time>2021-08-02T15:30:01Z</time>
      </trkpt>
      <trkpt lat="47.20745" lon="-1.48429">
        <ele>10.71</ele>
        <time>2021-08-02T15:30:11Z</time>
      </trkpt>
      <trkpt lat="47.2096" lon="-1.48505">
        <ele>7.35</ele>
        <time>2021-08-02T15:30:22Z</time>
      </trkpt>
      <trkpt lat="47.21099" lon="-1.48485">
        <ele>5.91</ele>
        <time>2021-08-02T15:30:29Z</time>
      </trkpt>
      <trkpt lat="47.2123" lon="-1.48394">
        <ele>4.46</ele>
        <time>2021-08-02T15:30:36Z</time>
      </trkpt>
      <trkpt lat="47.21331" lon="-1.48234">
        <ele>1.1</ele>
        <time>2021-08-02T15:30:43Z</time>
      </trkpt>
      <trkpt lat="47.21461" lon="-1.48017">
        <ele>4.46</ele>
        <time>2021-08-02T15:30:52Z</time>
      </trkpt>
      <trkpt lat="47.21681" lon="-1.47809">
        <ele>0.62</ele>
        <time>2021-08-02T15:31:04Z</time>
      </trkpt>
      <trkpt lat="47.22048" lon="-1.47476">
        <ele>-0.82</ele>
        <time>2021-08-02T15:31:24Z</time>
      </trkpt>
      <trkpt lat="47.22217" lon="-1.47329">
        <ele>-0.34</ele>
        <time>2021-08-02T15:31:34Z</time>
      </trkpt>
      <trkpt lat="47.22431" lon="-1.4713">
        <ele>0.62</ele>
        <time>2021-08-02T15:31:47Z</time>
      </trkpt>
      <trkpt lat="47.22547" lon="-1.46959">
        <ele>2.54</ele>
        <time>2021-08-02T15:31:56Z</time>
      </trkpt>
      <trkpt lat="47.22603" lon="-1.46791">
        <ele>1.58</ele>
        <time>2021-08-02T15:32:04Z</time>
      </trkpt>
      <trkpt lat="47.22619" lon="-1.46743">
        <ele>2.06</ele>
        <time>2021-08-02T15:32:08Z</time>
      </trkpt>
      <trkpt lat="47.22622" lon="-1.46737">
        <ele>2.06</ele>
        <time>2021-08-02T15:32:09Z</time>
      </trkpt>
      <trkpt lat="47.22624" lon="-1.4673">
        <ele>2.54</ele>
        <time>2021-08-02T15:32:10Z</time>
      </trkpt>
      <trkpt lat="47.22626" lon="-1.46722">
        <ele>2.54</ele>
        <time>2021-08-02T15:32:11Z</time>
      </trkpt>
      <trkpt lat="47.22626" lon="-1.46713">
        <ele>2.54</ele>
        <time>2021-08-02T15:32:12Z</time>
      </trkpt>
      <trkpt lat="47.22627" lon="-1.46705">
        <ele>2.54</ele>
        <time>2021-08-02T15:32:13Z</time>
      </trkpt>
      <trkpt lat="47.22631" lon="-1.46699">
        <ele>2.54</ele>
        <time>2021-08-02T15:32:14Z</time>
      </trkpt>
      <trkpt lat="47.22636" lon="-1.46693">
        <ele>2.54</ele>
        <time>2021-08-02T15:32:15Z</time>
      </trkpt>
      <trkpt lat="47.22695" lon="-1.46604">
        <ele>-0.82</ele>
        <time>2021-08-02T15:32:23Z</time>
      </trkpt>
      <trkpt lat="47.22702" lon="-1.46589">
        <ele>-0.34</ele>
        <time>2021-08-02T15:32:24Z</time>
      </trkpt>
      <trkpt lat="47.22709" lon="-1.46574">
        <ele>-1.3</ele>
        <time>2021-08-02T15:32:25Z</time>
      </trkpt>
      <trkpt lat="47.22714" lon="-1.46557">
        <ele>-1.3</ele>
        <time>2021-08-02T15:32:26Z</time>
      </trkpt>
      <trkpt lat="47.22719" lon="-1.46539">
        <ele>-1.79</ele>
        <time>2021-08-02T15:32:27Z</time>
      </trkpt>
      <trkpt lat="47.22719" lon="-1.46519">
        <ele>-0.34</ele>
        <time>2021-08-02T15:32:28Z</time>
      </trkpt>
      <trkpt lat="47.22719" lon="-1.465">
        <ele>1.58</ele>
        <time>2021-08-02T15:32:29Z</time>
      </trkpt>
      <trkpt lat="47.22718" lon="-1.4648">
        <ele>1.1</ele>
        <time>2021-08-02T15:32:30Z</time>
      </trkpt>
      <trkpt lat="47.22706" lon="-1.46438">
        <ele>0.14</ele>
        <time>2021-08-02T15:32:31Z</time>
      </trkpt>
      <trkpt lat="47.22706" lon="-1.46438">
        <ele>-0.82</ele>
        <time>2021-08-02T15:32:32Z</time>
      </trkpt>
      <trkpt lat="47.22691" lon="-1.46397">
        <ele>-1.79</ele>
        <time>2021-08-02T15:32:33Z</time>
      </trkpt>
      <trkpt lat="47.22691" lon="-1.46397">
        <ele>-2.27</ele>
        <time>2021-08-02T15:32:34Z</time>
      </trkpt>
      <trkpt lat="47.22542" lon="-1.46182">
        <ele>-1.3</ele>
        <time>2021-08-02T15:32:44Z</time>
      </trkpt>
      <trkpt lat="47.22354" lon="-1.45958">
        <ele>-4.67</ele>
        <time>2021-08-02T15:32:56Z</time>
      </trkpt>
      <trkpt lat="47.22055" lon="-1.45664">
        <ele>-1.79</ele>
        <time>2021-08-02T15:33:11Z</time>
      </trkpt>
      <trkpt lat="47.21694" lon="-1.45354">
        <ele>-0.82</ele>
        <time>2021-08-02T15:33:28Z</time>
      </trkpt>
      <trkpt lat="47.21426" lon="-1.45198">
        <ele>-2.75</ele>
        <time>2021-08-02T15:33:40Z</time>
      </trkpt>
      <trkpt lat="47.21119" lon="-1.45103">
        <ele>-0.82</ele>
        <time>2021-08-02T15:33:53Z</time>
      </trkpt>
      <trkpt lat="47.20754" lon="-1.45074">
        <ele>-0.34</ele>
        <time>2021-08-02T15:34:08Z</time>
      </trkpt>
      <trkpt lat="47.20378" lon="-1.45034">
        <ele>2.54</ele>
        <time>2021-08-02T15:34:24Z</time>
      </trkpt>
      <trkpt lat="47.20089" lon="-1.44905">
        <ele>8.31</ele>
        <time>2021-08-02T15:34:36Z</time>
      </trkpt>
      <trkpt lat="47.19905" lon="-1.44765">
        <ele>11.19</ele>
        <time>2021-08-02T15:34:46Z</time>
      </trkpt>
      <trkpt lat="47.19689" lon="-1.44519">
        <ele>13.12</ele>
        <time>2021-08-02T15:34:58Z</time>
      </trkpt>
      <trkpt lat="47.19525" lon="-1.44241">
        <ele>16</ele>
        <time>2021-08-02T15:35:09Z</time>
      </trkpt>
      <trkpt lat="47.1924" lon="-1.43616">
        <ele>22.73</ele>
        <time>2021-08-02T15:35:31Z</time>
      </trkpt>
      <trkpt lat="47.19024" lon="-1.43128">
        <ele>30.42</ele>
        <time>2021-08-02T15:35:48Z</time>
      </trkpt>
      <trkpt lat="47.18737" lon="-1.42475">
        <ele>28.98</ele>
        <time>2021-08-02T15:36:10Z</time>
      </trkpt>
      <trkpt lat="47.18381" lon="-1.41697">
        <ele>24.65</ele>
        <time>2021-08-02T15:36:36Z</time>
      </trkpt>
      <trkpt lat="47.18195" lon="-1.41393">
        <ele>21.77</ele>
        <time>2021-08-02T15:36:48Z</time>
      </trkpt>
      <trkpt lat="47.17894" lon="-1.40943">
        <ele>17.92</ele>
        <time>2021-08-02T15:37:05Z</time>
      </trkpt>
      <trkpt lat="47.1772" lon="-1.40605">
        <ele>15.52</ele>
        <time>2021-08-02T15:37:18Z</time>
      </trkpt>
      <trkpt lat="47.17553" lon="-1.40199">
        <ele>13.6</ele>
        <time>2021-08-02T15:37:32Z</time>
      </trkpt>
      <trkpt lat="47.17354" lon="-1.39671">
        <ele>7.35</ele>
        <time>2021-08-02T15:37:49Z</time>
      </trkpt>
      <trkpt lat="47.17265" lon="-1.39332">
        <ele>4.46</ele>
        <time>2021-08-02T15:37:59Z</time>
      </trkpt>
      <trkpt lat="47.17196" lon="-1.38879">
        <ele>7.35</ele>
        <time>2021-08-02T15:38:12Z</time>
      </trkpt>
      <trkpt lat="47.17099" lon="-1.38248">
        <ele>7.35</ele>
        <time>2021-08-02T15:38:31Z</time>
      </trkpt>
      <trkpt lat="47.16987" lon="-1.37866">
        <ele>2.06</ele>
        <time>2021-08-02T15:38:43Z</time>
      </trkpt>
      <trkpt lat="47.16835" lon="-1.37534">
        <ele>-0.34</ele>
        <time>2021-08-02T15:38:54Z</time>
      </trkpt>
      <trkpt lat="47.16626" lon="-1.37193">
        <ele>2.54</ele>
        <time>2021-08-02T15:39:06Z</time>
      </trkpt>
      <trkpt lat="47.16355" lon="-1.36755">
        <ele>5.91</ele>
        <time>2021-08-02T15:39:24Z</time>
      </trkpt>
      <trkpt lat="47.16247" lon="-1.36478">
        <ele>9.75</ele>
        <time>2021-08-02T15:39:33Z</time>
      </trkpt>
      <trkpt lat="47.16095" lon="-1.35943">
        <ele>14.56</ele>
        <time>2021-08-02T15:39:49Z</time>
      </trkpt>
      <trkpt lat="47.15993" lon="-1.35504">
        <ele>19.36</ele>
        <time>2021-08-02T15:40:02Z</time>
      </trkpt>
      <trkpt lat="47.15954" lon="-1.35132">
        <ele>22.25</ele>
        <time>2021-08-02T15:40:13Z</time>
      </trkpt>
      <trkpt lat="47.15929" lon="-1.34537">
        <ele>27.05</ele>
        <time>2021-08-02T15:40:31Z</time>
      </trkpt>
      <trkpt lat="47.15866" lon="-1.34181">
        <ele>29.46</ele>
        <time>2021-08-02T15:40:42Z</time>
      </trkpt>
      <trkpt lat="47.15722" lon="-1.33642">
        <ele>32.82</ele>
        <time>2021-08-02T15:40:59Z</time>
      </trkpt>
      <trkpt lat="47.15652" lon="-1.33203">
        <ele>34.74</ele>
        <time>2021-08-02T15:41:12Z</time>
      </trkpt>
      <trkpt lat="47.15619" lon="-1.32641">
        <ele>35.71</ele>
        <time>2021-08-02T15:41:28Z</time>
      </trkpt>
      <trkpt lat="47.15587" lon="-1.31878">
        <ele>32.82</ele>
        <time>2021-08-02T15:41:49Z</time>
      </trkpt>
      <trkpt lat="47.15588" lon="-1.31692">
        <ele>32.34</ele>
        <time>2021-08-02T15:41:56Z</time>
      </trkpt>
      <trkpt lat="47.15572" lon="-1.31488">
        <ele>28.5</ele>
        <time>2021-08-02T15:42:07Z</time>
      </trkpt>
      <trkpt lat="47.15569" lon="-1.31448">
        <ele>28.5</ele>
        <time>2021-08-02T15:42:10Z</time>
      </trkpt>
      <trkpt lat="47.15568" lon="-1.3144">
        <ele>28.5</ele>
        <time>2021-08-02T15:42:11Z</time>
      </trkpt>
      <trkpt lat="47.15567" lon="-1.31433">
        <ele>28.02</ele>
        <time>2021-08-02T15:42:12Z</time>
      </trkpt>
      <trkpt lat="47.15566" lon="-1.31428">
        <ele>27.53</ele>
        <time>2021-08-02T15:42:13Z</time>
      </trkpt>
      <trkpt lat="47.15565" lon="-1.31424">
        <ele>27.53</ele>
        <time>2021-08-02T15:42:14Z</time>
      </trkpt>
      <trkpt lat="47.15562" lon="-1.3142">
        <ele>27.05</ele>
        <time>2021-08-02T15:42:15Z</time>
      </trkpt>
      <trkpt lat="47.15556" lon="-1.31411">
        <ele>27.05</ele>
        <time>2021-08-02T15:42:16Z</time>
      </trkpt>
      <trkpt lat="47.15552" lon="-1.31406">
        <ele>27.05</ele>
        <time>2021-08-02T15:42:18Z</time>
      </trkpt>
      <trkpt lat="47.15549" lon="-1.31401">
        <ele>26.57</ele>
        <time>2021-08-02T15:42:19Z</time>
      </trkpt>
      <trkpt lat="47.15545" lon="-1.31395">
        <ele>26.09</ele>
        <time>2021-08-02T15:42:20Z</time>
      </trkpt>
      <trkpt lat="47.15541" lon="-1.3139">
        <ele>26.09</ele>
        <time>2021-08-02T15:42:21Z</time>
      </trkpt>
      <trkpt lat="47.15538" lon="-1.31383">
        <ele>26.09</ele>
        <time>2021-08-02T15:42:22Z</time>
      </trkpt>
      <trkpt lat="47.15537" lon="-1.31376">
        <ele>26.09</ele>
        <time>2021-08-02T15:42:23Z</time>
      </trkpt>
      <trkpt lat="47.15536" lon="-1.31369">
        <ele>26.09</ele>
        <time>2021-08-02T15:42:24Z</time>
      </trkpt>
      <trkpt lat="47.15536" lon="-1.31363">
        <ele>26.09</ele>
        <time>2021-08-02T15:42:25Z</time>
      </trkpt>
      <trkpt lat="47.15536" lon="-1.31357">
        <ele>26.09</ele>
        <time>2021-08-02T15:42:26Z</time>
      </trkpt>
      <trkpt lat="47.15537" lon="-1.31304">
        <ele>26.09</ele>
        <time>2021-08-02T15:42:40Z</time>
      </trkpt>
      <trkpt lat="47.15537" lon="-1.31299">
        <ele>26.57</ele>
        <time>2021-08-02T15:43:04Z</time>
      </trkpt>
      <trkpt lat="47.15537" lon="-1.31299">
        <ele>26.57</ele>
        <time>2021-08-02T15:54:09Z</time>
      </trkpt>
      <trkpt lat="47.15537" lon="-1.31299">
        <ele>27.05</ele>
        <time>2021-08-02T16:04:49Z</time>
      </trkpt>
      <trkpt lat="47.15537" lon="-1.31299">
        <ele>27.53</ele>
        <time>2021-08-02T16:11:18Z</time>
      </trkpt>
      <trkpt lat="47.15537" lon="-1.31299">
        <ele>27.05</ele>
        <time>2021-08-02T16:22:36Z</time>
      </trkpt>
      <trkpt lat="47.15537" lon="-1.31299">
        <ele>27.53</ele>
        <time>2021-08-02T16:23:43Z</time>
      </trkpt>
      <trkpt lat="47.15537" lon="-1.31299">
        <ele>27.53</ele>
        <time>2021-08-02T16:23:44Z</time>
      </trkpt>
      <trkpt lat="47.15537" lon="-1.31289">
        <ele>27.53</ele>
        <time>2021-08-02T16:23:45Z</time>
      </trkpt>
      <trkpt lat="47.15537" lon="-1.31287">
        <ele>27.53</ele>
        <time>2021-08-02T16:23:46Z</time>
      </trkpt>
      <trkpt lat="47.15537" lon="-1.31284">
        <ele>27.53</ele>
        <time>2021-08-02T16:23:47Z</time>
      </trkpt>
      <trkpt lat="47.15537" lon="-1.31282">
        <ele>27.53</ele>
        <time>2021-08-02T16:23:48Z</time>
      </trkpt>
      <trkpt lat="47.15537" lon="-1.31279">
        <ele>27.53</ele>
        <time>2021-08-02T16:23:49Z</time>
      </trkpt>
      <trkpt lat="47.15544" lon="-1.31209">
        <ele>27.05</ele>
        <time>2021-08-02T16:24:03Z</time>
      </trkpt>
      <trkpt lat="47.15556" lon="-1.31146">
        <ele>27.05</ele>
        <time>2021-08-02T16:24:12Z</time>
      </trkpt>
      <trkpt lat="47.15557" lon="-1.3114">
        <ele>27.05</ele>
        <time>2021-08-02T16:24:13Z</time>
      </trkpt>
      <trkpt lat="47.1556" lon="-1.31135">
        <ele>27.05</ele>
        <time>2021-08-02T16:24:14Z</time>
      </trkpt>
      <trkpt lat="47.15563" lon="-1.31131">
        <ele>27.05</ele>
        <time>2021-08-02T16:24:15Z</time>
      </trkpt>
      <trkpt lat="47.15566" lon="-1.31127">
        <ele>27.05</ele>
        <time>2021-08-02T16:24:16Z</time>
      </trkpt>
      <trkpt lat="47.15571" lon="-1.3112">
        <ele>26.57</ele>
        <time>2021-08-02T16:24:17Z</time>
      </trkpt>
      <trkpt lat="47.1562" lon="-1.31066">
        <ele>26.09</ele>
        <time>2021-08-02T16:24:27Z</time>
      </trkpt>
      <trkpt lat="47.15648" lon="-1.31035">
        <ele>26.09</ele>
        <time>2021-08-02T16:24:31Z</time>
      </trkpt>
      <trkpt lat="47.15648" lon="-1.31035">
        <ele>26.09</ele>
        <time>2021-08-02T16:24:32Z</time>
      </trkpt>
      <trkpt lat="47.15652" lon="-1.3102">
        <ele>27.05</ele>
        <time>2021-08-02T16:24:33Z</time>
      </trkpt>
      <trkpt lat="47.15661" lon="-1.3099">
        <ele>26.57</ele>
        <time>2021-08-02T16:24:34Z</time>
      </trkpt>
      <trkpt lat="47.15661" lon="-1.3099">
        <ele>26.09</ele>
        <time>2021-08-02T16:24:35Z</time>
      </trkpt>
      <trkpt lat="47.15701" lon="-1.30804">
        <ele>25.61</ele>
        <time>2021-08-02T16:24:44Z</time>
      </trkpt>
      <trkpt lat="47.15736" lon="-1.30533">
        <ele>25.13</ele>
        <time>2021-08-02T16:24:54Z</time>
      </trkpt>
      <trkpt lat="47.15735" lon="-1.302">
        <ele>27.53</ele>
        <time>2021-08-02T16:25:05Z</time>
      </trkpt>
      <trkpt lat="47.15688" lon="-1.2984">
        <ele>30.42</ele>
        <time>2021-08-02T16:25:16Z</time>
      </trkpt>
      <trkpt lat="47.15611" lon="-1.29349">
        <ele>33.78</ele>
        <time>2021-08-02T16:25:31Z</time>
      </trkpt>
      <trkpt lat="47.15603" lon="-1.28996">
        <ele>35.71</ele>
        <time>2021-08-02T16:25:42Z</time>
      </trkpt>
      <trkpt lat="47.15637" lon="-1.28508">
        <ele>39.07</ele>
        <time>2021-08-02T16:25:57Z</time>
      </trkpt>
      <trkpt lat="47.15657" lon="-1.27988">
        <ele>43.4</ele>
        <time>2021-08-02T16:26:12Z</time>
      </trkpt>
      <trkpt lat="47.15618" lon="-1.27492">
        <ele>42.44</ele>
        <time>2021-08-02T16:26:25Z</time>
      </trkpt>
      <trkpt lat="47.15545" lon="-1.26983">
        <ele>38.11</ele>
        <time>2021-08-02T16:26:40Z</time>
      </trkpt>
      <trkpt lat="47.15497" lon="-1.2647">
        <ele>35.23</ele>
        <time>2021-08-02T16:26:54Z</time>
      </trkpt>
      <trkpt lat="47.15494" lon="-1.25969">
        <ele>37.63</ele>
        <time>2021-08-02T16:27:08Z</time>
      </trkpt>
      <trkpt lat="47.15527" lon="-1.25391">
        <ele>44.36</ele>
        <time>2021-08-02T16:27:25Z</time>
      </trkpt>
      <trkpt lat="47.15552" lon="-1.24858">
        <ele>52.53</ele>
        <time>2021-08-02T16:27:40Z</time>
      </trkpt>
      <trkpt lat="47.15536" lon="-1.24339">
        <ele>58.78</ele>
        <time>2021-08-02T16:27:55Z</time>
      </trkpt>
      <trkpt lat="47.15511" lon="-1.23609">
        <ele>69.83</ele>
        <time>2021-08-02T16:28:17Z</time>
      </trkpt>
      <trkpt lat="47.15489" lon="-1.229">
        <ele>76.08</ele>
        <time>2021-08-02T16:28:37Z</time>
      </trkpt>
      <trkpt lat="47.15437" lon="-1.22252">
        <ele>77.52</ele>
        <time>2021-08-02T16:28:55Z</time>
      </trkpt>
      <trkpt lat="47.15443" lon="-1.21831">
        <ele>76.56</ele>
        <time>2021-08-02T16:29:07Z</time>
      </trkpt>
      <trkpt lat="47.15491" lon="-1.21176">
        <ele>73.68</ele>
        <time>2021-08-02T16:29:25Z</time>
      </trkpt>
      <trkpt lat="47.15492" lon="-1.20814">
        <ele>71.76</ele>
        <time>2021-08-02T16:29:35Z</time>
      </trkpt>
      <trkpt lat="47.15446" lon="-1.20473">
        <ele>69.35</ele>
        <time>2021-08-02T16:29:45Z</time>
      </trkpt>
      <trkpt lat="47.1535" lon="-1.20147">
        <ele>57.34</ele>
        <time>2021-08-02T16:29:55Z</time>
      </trkpt>
      <trkpt lat="47.15189" lon="-1.19817">
        <ele>46.28</ele>
        <time>2021-08-02T16:30:05Z</time>
      </trkpt>
      <trkpt lat="47.15025" lon="-1.19597">
        <ele>45.8</ele>
        <time>2021-08-02T16:30:15Z</time>
      </trkpt>
      <trkpt lat="47.14771" lon="-1.19308">
        <ele>62.62</ele>
        <time>2021-08-02T16:30:29Z</time>
      </trkpt>
      <trkpt lat="47.14584" lon="-1.19032">
        <ele>71.76</ele>
        <time>2021-08-02T16:30:41Z</time>
      </trkpt>
      <trkpt lat="47.14457" lon="-1.18751">
        <ele>77.04</ele>
        <time>2021-08-02T16:30:51Z</time>
      </trkpt>
      <trkpt lat="47.14371" lon="-1.18426">
        <ele>77.52</ele>
        <time>2021-08-02T16:31:01Z</time>
      </trkpt>
      <trkpt lat="47.14273" lon="-1.17819">
        <ele>76.08</ele>
        <time>2021-08-02T16:31:18Z</time>
      </trkpt>
      <trkpt lat="47.14184" lon="-1.17478">
        <ele>74.16</ele>
        <time>2021-08-02T16:31:28Z</time>
      </trkpt>
      <trkpt lat="47.13997" lon="-1.16968">
        <ele>78.97</ele>
        <time>2021-08-02T16:31:44Z</time>
      </trkpt>
      <trkpt lat="47.13899" lon="-1.16626">
        <ele>83.29</ele>
        <time>2021-08-02T16:31:55Z</time>
      </trkpt>
      <trkpt lat="47.13763" lon="-1.16112">
        <ele>88.58</ele>
        <time>2021-08-02T16:32:11Z</time>
      </trkpt>
      <trkpt lat="47.13604" lon="-1.15717">
        <ele>87.62</ele>
        <time>2021-08-02T16:32:24Z</time>
      </trkpt>
      <trkpt lat="47.13346" lon="-1.15116">
        <ele>85.21</ele>
        <time>2021-08-02T16:32:44Z</time>
      </trkpt>
      <trkpt lat="47.13233" lon="-1.14721">
        <ele>86.18</ele>
        <time>2021-08-02T16:32:56Z</time>
      </trkpt>
      <trkpt lat="47.13173" lon="-1.1438">
        <ele>88.58</ele>
        <time>2021-08-02T16:33:06Z</time>
      </trkpt>
      <trkpt lat="47.13123" lon="-1.13901">
        <ele>90.02</ele>
        <time>2021-08-02T16:33:20Z</time>
      </trkpt>
      <trkpt lat="47.13034" lon="-1.13287">
        <ele>91.94</ele>
        <time>2021-08-02T16:33:38Z</time>
      </trkpt>
      <trkpt lat="47.12898" lon="-1.12671">
        <ele>84.73</ele>
        <time>2021-08-02T16:33:56Z</time>
      </trkpt>
      <trkpt lat="47.12721" lon="-1.12015">
        <ele>81.85</ele>
        <time>2021-08-02T16:34:16Z</time>
      </trkpt>
      <trkpt lat="47.12515" lon="-1.1124">
        <ele>85.21</ele>
        <time>2021-08-02T16:34:40Z</time>
      </trkpt>
      <trkpt lat="47.12301" lon="-1.10385">
        <ele>89.54</ele>
        <time>2021-08-02T16:35:05Z</time>
      </trkpt>
      <trkpt lat="47.12161" lon="-1.09778">
        <ele>97.23</ele>
        <time>2021-08-02T16:35:25Z</time>
      </trkpt>
      <trkpt lat="47.12038" lon="-1.09064">
        <ele>101.08</ele>
        <time>2021-08-02T16:35:46Z</time>
      </trkpt>
      <trkpt lat="47.11963" lon="-1.08492">
        <ele>96.75</ele>
        <time>2021-08-02T16:36:03Z</time>
      </trkpt>
      <trkpt lat="47.11856" lon="-1.07696">
        <ele>86.66</ele>
        <time>2021-08-02T16:36:25Z</time>
      </trkpt>
      <trkpt lat="47.11744" lon="-1.07031">
        <ele>85.69</ele>
        <time>2021-08-02T16:36:44Z</time>
      </trkpt>
      <trkpt lat="47.11584" lon="-1.06352">
        <ele>86.66</ele>
        <time>2021-08-02T16:37:04Z</time>
      </trkpt>
      <trkpt lat="47.1139" lon="-1.05712">
        <ele>83.77</ele>
        <time>2021-08-02T16:37:23Z</time>
      </trkpt>
      <trkpt lat="47.11142" lon="-1.04921">
        <ele>80.41</ele>
        <time>2021-08-02T16:37:47Z</time>
      </trkpt>
      <trkpt lat="47.10993" lon="-1.0431">
        <ele>78</ele>
        <time>2021-08-02T16:38:05Z</time>
      </trkpt>
      <trkpt lat="47.10832" lon="-1.03598">
        <ele>80.41</ele>
        <time>2021-08-02T16:38:26Z</time>
      </trkpt>
      <trkpt lat="47.10721" lon="-1.03276">
        <ele>81.85</ele>
        <time>2021-08-02T16:38:38Z</time>
      </trkpt>
      <trkpt lat="47.10571" lon="-1.02986">
        <ele>82.81</ele>
        <time>2021-08-02T16:38:49Z</time>
      </trkpt>
      <trkpt lat="47.10382" lon="-1.02724">
        <ele>80.89</ele>
        <time>2021-08-02T16:39:00Z</time>
      </trkpt>
      <trkpt lat="47.10158" lon="-1.02399">
        <ele>79.93</ele>
        <time>2021-08-02T16:39:13Z</time>
      </trkpt>
      <trkpt lat="47.09997" lon="-1.02052">
        <ele>85.69</ele>
        <time>2021-08-02T16:39:25Z</time>
      </trkpt>
      <trkpt lat="47.09801" lon="-1.01608">
        <ele>93.87</ele>
        <time>2021-08-02T16:39:41Z</time>
      </trkpt>
      <trkpt lat="47.09547" lon="-1.01138">
        <ele>99.63</ele>
        <time>2021-08-02T16:39:59Z</time>
      </trkpt>
      <trkpt lat="47.09392" lon="-1.00811">
        <ele>98.19</ele>
        <time>2021-08-02T16:40:11Z</time>
      </trkpt>
      <trkpt lat="47.09331" lon="-1.00651">
        <ele>97.71</ele>
        <time>2021-08-02T16:40:18Z</time>
      </trkpt>
      <trkpt lat="47.093" lon="-1.00602">
        <ele>97.23</ele>
        <time>2021-08-02T16:40:23Z</time>
      </trkpt>
      <trkpt lat="47.09293" lon="-1.00596">
        <ele>97.23</ele>
        <time>2021-08-02T16:40:24Z</time>
      </trkpt>
      <trkpt lat="47.09279" lon="-1.00587">
        <ele>97.23</ele>
        <time>2021-08-02T16:40:25Z</time>
      </trkpt>
      <trkpt lat="47.09279" lon="-1.00587">
        <ele>96.75</ele>
        <time>2021-08-02T16:40:26Z</time>
      </trkpt>
      <trkpt lat="47.0927" lon="-1.00585">
        <ele>97.71</ele>
        <time>2021-08-02T16:40:28Z</time>
      </trkpt>
      <trkpt lat="47.09256" lon="-1.00593">
        <ele>98.19</ele>
        <time>2021-08-02T16:40:29Z</time>
      </trkpt>
      <trkpt lat="47.0925" lon="-1.00597">
        <ele>98.67</ele>
        <time>2021-08-02T16:40:30Z</time>
      </trkpt>
      <trkpt lat="47.09244" lon="-1.00607">
        <ele>99.63</ele>
        <time>2021-08-02T16:40:31Z</time>
      </trkpt>
      <trkpt lat="47.0924" lon="-1.00616">
        <ele>100.11</ele>
        <time>2021-08-02T16:40:32Z</time>
      </trkpt>
      <trkpt lat="47.09239" lon="-1.00629">
        <ele>100.6</ele>
        <time>2021-08-02T16:40:33Z</time>
      </trkpt>
      <trkpt lat="47.09237" lon="-1.00642">
        <ele>101.08</ele>
        <time>2021-08-02T16:40:34Z</time>
      </trkpt>
      <trkpt lat="47.09236" lon="-1.00654">
        <ele>101.08</ele>
        <time>2021-08-02T16:40:35Z</time>
      </trkpt>
      <trkpt lat="47.09235" lon="-1.00669">
        <ele>101.56</ele>
        <time>2021-08-02T16:40:41Z</time>
      </trkpt>
      <trkpt lat="47.09239" lon="-1.00684">
        <ele>102.04</ele>
        <time>2021-08-02T16:40:58Z</time>
      </trkpt>
      <trkpt lat="47.09242" lon="-1.00687">
        <ele>102.04</ele>
        <time>2021-08-02T16:40:59Z</time>
      </trkpt>
      <trkpt lat="47.09246" lon="-1.00691">
        <ele>102.04</ele>
        <time>2021-08-02T16:41:00Z</time>
      </trkpt>
      <trkpt lat="47.09249" lon="-1.00694">
        <ele>102.04</ele>
        <time>2021-08-02T16:41:01Z</time>
      </trkpt>
    </trkseg>
  </trk>
  <trk>
    <name><![CDATA[Journal actif: 2021-08-02 14:41]]></name>
    <trkseg>
      <trkpt lat="47.09249" lon="-1.00694">
        <ele>102.04</ele>
        <time>2021-08-02T16:41:02Z</time>
      </trkpt>
      <trkpt lat="47.09261" lon="-1.00706">
        <ele>101.56</ele>
        <time>2021-08-02T16:41:03Z</time>
      </trkpt>
      <trkpt lat="47.09267" lon="-1.00704">
        <ele>101.56</ele>
        <time>2021-08-02T16:41:04Z</time>
      </trkpt>
      <trkpt lat="47.09369" lon="-1.00679">
        <ele>101.08</ele>
        <time>2021-08-02T16:41:15Z</time>
      </trkpt>
      <trkpt lat="47.09402" lon="-1.00668">
        <ele>100.6</ele>
        <time>2021-08-02T16:41:19Z</time>
      </trkpt>
      <trkpt lat="47.09407" lon="-1.00662">
        <ele>100.6</ele>
        <time>2021-08-02T16:41:20Z</time>
      </trkpt>
      <trkpt lat="47.09411" lon="-1.00656">
        <ele>100.6</ele>
        <time>2021-08-02T16:41:21Z</time>
      </trkpt>
      <trkpt lat="47.09416" lon="-1.00651">
        <ele>100.6</ele>
        <time>2021-08-02T16:41:22Z</time>
      </trkpt>
      <trkpt lat="47.09419" lon="-1.00646">
        <ele>100.6</ele>
        <time>2021-08-02T16:41:23Z</time>
      </trkpt>
      <trkpt lat="47.09422" lon="-1.00635">
        <ele>100.6</ele>
        <time>2021-08-02T16:41:24Z</time>
      </trkpt>
      <trkpt lat="47.09427" lon="-1.00629">
        <ele>100.6</ele>
        <time>2021-08-02T16:41:25Z</time>
      </trkpt>
      <trkpt lat="47.09434" lon="-1.00624">
        <ele>100.11</ele>
        <time>2021-08-02T16:41:26Z</time>
      </trkpt>
      <trkpt lat="47.09448" lon="-1.00625">
        <ele>100.11</ele>
        <time>2021-08-02T16:41:27Z</time>
      </trkpt>
      <trkpt lat="47.09453" lon="-1.00628">
        <ele>100.11</ele>
        <time>2021-08-02T16:41:28Z</time>
      </trkpt>
      <trkpt lat="47.09465" lon="-1.00638">
        <ele>100.11</ele>
        <time>2021-08-02T16:41:29Z</time>
      </trkpt>
      <trkpt lat="47.09465" lon="-1.00638">
        <ele>99.63</ele>
        <time>2021-08-02T16:41:30Z</time>
      </trkpt>
      <trkpt lat="47.09472" lon="-1.00635">
        <ele>100.11</ele>
        <time>2021-08-02T16:41:31Z</time>
      </trkpt>
      <trkpt lat="47.09481" lon="-1.00632">
        <ele>100.11</ele>
        <time>2021-08-02T16:41:32Z</time>
      </trkpt>
      <trkpt lat="47.09489" lon="-1.00628">
        <ele>100.11</ele>
        <time>2021-08-02T16:41:33Z</time>
      </trkpt>
      <trkpt lat="47.09619" lon="-1.00545">
        <ele>100.11</ele>
        <time>2021-08-02T16:41:46Z</time>
      </trkpt>
      <trkpt lat="47.09652" lon="-1.00521">
        <ele>100.11</ele>
        <time>2021-08-02T16:41:50Z</time>
      </trkpt>
      <trkpt lat="47.09658" lon="-1.00517">
        <ele>100.11</ele>
        <time>2021-08-02T16:41:51Z</time>
      </trkpt>
      <trkpt lat="47.09663" lon="-1.00514">
        <ele>100.6</ele>
        <time>2021-08-02T16:41:52Z</time>
      </trkpt>
      <trkpt lat="47.09665" lon="-1.00506">
        <ele>100.6</ele>
        <time>2021-08-02T16:41:53Z</time>
      </trkpt>
      <trkpt lat="47.09665" lon="-1.00499">
        <ele>100.6</ele>
        <time>2021-08-02T16:41:54Z</time>
      </trkpt>
      <trkpt lat="47.09665" lon="-1.00495">
        <ele>100.6</ele>
        <time>2021-08-02T16:41:55Z</time>
      </trkpt>
      <trkpt lat="47.09665" lon="-1.00495">
        <ele>100.6</ele>
        <time>2021-08-02T16:41:56Z</time>
      </trkpt>
      <trkpt lat="47.09666" lon="-1.00475">
        <ele>100.6</ele>
        <time>2021-08-02T16:41:57Z</time>
      </trkpt>
      <trkpt lat="47.09663" lon="-1.00471">
        <ele>100.6</ele>
        <time>2021-08-02T16:41:58Z</time>
      </trkpt>
      <trkpt lat="47.09659" lon="-1.00467">
        <ele>100.6</ele>
        <time>2021-08-02T16:41:59Z</time>
      </trkpt>
      <trkpt lat="47.09656" lon="-1.00463">
        <ele>100.11</ele>
        <time>2021-08-02T16:42:00Z</time>
      </trkpt>
      <trkpt lat="47.09652" lon="-1.00459">
        <ele>100.11</ele>
        <time>2021-08-02T16:42:01Z</time>
      </trkpt>
      <trkpt lat="47.09648" lon="-1.00454">
        <ele>99.63</ele>
        <time>2021-08-02T16:42:02Z</time>
      </trkpt>
      <trkpt lat="47.09645" lon="-1.0045">
        <ele>99.63</ele>
        <time>2021-08-02T16:42:03Z</time>
      </trkpt>
      <trkpt lat="47.09642" lon="-1.00447">
        <ele>99.63</ele>
        <time>2021-08-02T16:42:04Z</time>
      </trkpt>
      <trkpt lat="47.09636" lon="-1.00443">
        <ele>99.63</ele>
        <time>2021-08-02T16:42:05Z</time>
      </trkpt>
      <trkpt lat="47.09633" lon="-1.00445">
        <ele>99.15</ele>
        <time>2021-08-02T16:42:06Z</time>
      </trkpt>
      <trkpt lat="47.0963" lon="-1.00448">
        <ele>99.15</ele>
        <time>2021-08-02T16:42:07Z</time>
      </trkpt>
      <trkpt lat="47.09627" lon="-1.00452">
        <ele>99.15</ele>
        <time>2021-08-02T16:42:08Z</time>
      </trkpt>
      <trkpt lat="47.09623" lon="-1.00457">
        <ele>99.63</ele>
        <time>2021-08-02T16:42:09Z</time>
      </trkpt>
      <trkpt lat="47.09592" lon="-1.00489">
        <ele>101.08</ele>
        <time>2021-08-02T16:42:19Z</time>
      </trkpt>
      <trkpt lat="47.09587" lon="-1.00482">
        <ele>101.08</ele>
        <time>2021-08-02T16:42:26Z</time>
      </trkpt>
      <trkpt lat="47.09586" lon="-1.0048">
        <ele>101.08</ele>
        <time>2021-08-02T16:42:27Z</time>
      </trkpt>
      <trkpt lat="47.09584" lon="-1.00492">
        <ele>101.08</ele>
        <time>2021-08-02T16:42:28Z</time>
      </trkpt>
      <trkpt lat="47.09581" lon="-1.00494">
        <ele>101.56</ele>
        <time>2021-08-02T16:42:29Z</time>
      </trkpt>
      <trkpt lat="47.09578" lon="-1.00495">
        <ele>101.56</ele>
        <time>2021-08-02T16:42:30Z</time>
      </trkpt>
      <trkpt lat="47.09563" lon="-1.00503">
        <ele>102.52</ele>
        <time>2021-08-02T16:42:35Z</time>
      </trkpt>
      <trkpt lat="47.09561" lon="-1.00502">
        <ele>102.52</ele>
        <time>2021-08-02T16:42:36Z</time>
      </trkpt>
      <trkpt lat="47.09558" lon="-1.00498">
        <ele>102.52</ele>
        <time>2021-08-02T16:42:37Z</time>
      </trkpt>
      <trkpt lat="47.09542" lon="-1.00479">
        <ele>102.04</ele>
        <time>2021-08-02T16:42:44Z</time>
      </trkpt>
      <trkpt lat="47.09542" lon="-1.00478">
        <ele>102.04</ele>
        <time>2021-08-02T16:42:45Z</time>
      </trkpt>
      <trkpt lat="47.0954" lon="-1.00466">
        <ele>102.04</ele>
        <time>2021-08-02T16:42:46Z</time>
      </trkpt>
      <trkpt lat="47.0954" lon="-1.00466">
        <ele>102.04</ele>
        <time>2021-08-02T16:42:47Z</time>
      </trkpt>
      <trkpt lat="47.09541" lon="-1.00465">
        <ele>102.52</ele>
        <time>2021-08-02T16:42:58Z</time>
      </trkpt>
      <trkpt lat="47.09543" lon="-1.00463">
        <ele>102.52</ele>
        <time>2021-08-02T16:42:59Z</time>
      </trkpt>
      <trkpt lat="47.09543" lon="-1.00479">
        <ele>102.52</ele>
        <time>2021-08-02T16:43:00Z</time>
      </trkpt>
      <trkpt lat="47.09545" lon="-1.00482">
        <ele>102.52</ele>
        <time>2021-08-02T16:43:01Z</time>
      </trkpt>
      <trkpt lat="47.09547" lon="-1.00484">
        <ele>103</ele>
        <time>2021-08-02T16:43:02Z</time>
      </trkpt>
      <trkpt lat="47.09549" lon="-1.00487">
        <ele>103</ele>
        <time>2021-08-02T16:43:03Z</time>
      </trkpt>
      <trkpt lat="47.0955" lon="-1.00489">
        <ele>103</ele>
        <time>2021-08-02T16:43:04Z</time>
      </trkpt>
      <trkpt lat="47.09553" lon="-1.00492">
        <ele>102.52</ele>
        <time>2021-08-02T16:43:21Z</time>
      </trkpt>
      <trkpt lat="47.09553" lon="-1.00492">
        <ele>102.04</ele>
        <time>2021-08-02T16:45:13Z</time>
      </trkpt>
    </trkseg>
  </trk>
  <trk>
    <name><![CDATA[Journal actif: 2021-08-02 14:46]]></name>
    <trkseg>
      <trkpt lat="47.09553" lon="-1.00492">
        <ele>101.56</ele>
        <time>2021-08-02T16:46:39Z</time>
      </trkpt>
      <trkpt lat="47.09553" lon="-1.00492">
        <ele>99.63</ele>
        <time>2021-08-02T16:48:35Z</time>
      </trkpt>
      <trkpt lat="47.09553" lon="-1.00492">
        <ele>99.63</ele>
        <time>2021-08-02T16:50:05Z</time>
      </trkpt>
      <trkpt lat="47.09561" lon="-1.00502">
        <ele>99.63</ele>
        <time>2021-08-02T16:50:06Z</time>
      </trkpt>
      <trkpt lat="47.09562" lon="-1.00503">
        <ele>99.63</ele>
        <time>2021-08-02T16:50:07Z</time>
      </trkpt>
      <trkpt lat="47.09569" lon="-1.005">
        <ele>99.63</ele>
        <time>2021-08-02T16:50:08Z</time>
      </trkpt>
      <trkpt lat="47.0957" lon="-1.00499">
        <ele>99.63</ele>
        <time>2021-08-02T16:50:09Z</time>
      </trkpt>
      <trkpt lat="47.0957" lon="-1.00499">
        <ele>99.63</ele>
        <time>2021-08-02T16:50:10Z</time>
      </trkpt>
      <trkpt lat="47.09574" lon="-1.00497">
        <ele>99.63</ele>
        <time>2021-08-02T16:50:11Z</time>
      </trkpt>
      <trkpt lat="47.09577" lon="-1.00496">
        <ele>100.11</ele>
        <time>2021-08-02T16:50:12Z</time>
      </trkpt>
      <trkpt lat="47.09578" lon="-1.00495">
        <ele>100.11</ele>
        <time>2021-08-02T16:50:13Z</time>
      </trkpt>
      <trkpt lat="47.09615" lon="-1.00469">
        <ele>101.08</ele>
        <time>2021-08-02T16:50:30Z</time>
      </trkpt>
      <trkpt lat="47.09624" lon="-1.00455">
        <ele>101.56</ele>
        <time>2021-08-02T16:50:40Z</time>
      </trkpt>
      <trkpt lat="47.09634" lon="-1.00444">
        <ele>102.04</ele>
        <time>2021-08-02T16:50:46Z</time>
      </trkpt>
      <trkpt lat="47.09636" lon="-1.00442">
        <ele>102.04</ele>
        <time>2021-08-02T16:50:47Z</time>
      </trkpt>
      <trkpt lat="47.09639" lon="-1.00444">
        <ele>102.04</ele>
        <time>2021-08-02T16:50:48Z</time>
      </trkpt>
      <trkpt lat="47.09639" lon="-1.00444">
        <ele>102.52</ele>
        <time>2021-08-02T16:50:49Z</time>
      </trkpt>
      <trkpt lat="47.09642" lon="-1.00446">
        <ele>102.52</ele>
        <time>2021-08-02T16:50:50Z</time>
      </trkpt>
      <trkpt lat="47.09669" lon="-1.00479">
        <ele>104.44</ele>
        <time>2021-08-02T16:51:01Z</time>
      </trkpt>
      <trkpt lat="47.09693" lon="-1.00501">
        <ele>104.92</ele>
        <time>2021-08-02T16:51:11Z</time>
      </trkpt>
      <trkpt lat="47.09692" lon="-1.00504">
        <ele>104.44</ele>
        <time>2021-08-02T16:51:12Z</time>
      </trkpt>
      <trkpt lat="47.09692" lon="-1.00504">
        <ele>104.44</ele>
        <time>2021-08-02T16:51:13Z</time>
      </trkpt>
      <trkpt lat="47.09691" lon="-1.0051">
        <ele>104.44</ele>
        <time>2021-08-02T16:51:14Z</time>
      </trkpt>
      <trkpt lat="47.09689" lon="-1.00516">
        <ele>104.44</ele>
        <time>2021-08-02T16:51:15Z</time>
      </trkpt>
      <trkpt lat="47.09688" lon="-1.00519">
        <ele>104.44</ele>
        <time>2021-08-02T16:51:16Z</time>
      </trkpt>
      <trkpt lat="47.09683" lon="-1.00522">
        <ele>104.44</ele>
        <time>2021-08-02T16:51:17Z</time>
      </trkpt>
      <trkpt lat="47.09677" lon="-1.00524">
        <ele>104.44</ele>
        <time>2021-08-02T16:51:18Z</time>
      </trkpt>
      <trkpt lat="47.09662" lon="-1.00515">
        <ele>104.92</ele>
        <time>2021-08-02T16:51:19Z</time>
      </trkpt>
      <trkpt lat="47.09662" lon="-1.00515">
        <ele>104.92</ele>
        <time>2021-08-02T16:51:20Z</time>
      </trkpt>
      <trkpt lat="47.09648" lon="-1.00524">
        <ele>104.44</ele>
        <time>2021-08-02T16:51:21Z</time>
      </trkpt>
      <trkpt lat="47.09556" lon="-1.00588">
        <ele>104.92</ele>
        <time>2021-08-02T16:51:33Z</time>
      </trkpt>
      <trkpt lat="47.09476" lon="-1.00634">
        <ele>104.92</ele>
        <time>2021-08-02T16:51:43Z</time>
      </trkpt>
      <trkpt lat="47.09469" lon="-1.00637">
        <ele>104.92</ele>
        <time>2021-08-02T16:51:44Z</time>
      </trkpt>
      <trkpt lat="47.09462" lon="-1.0064">
        <ele>104.92</ele>
        <time>2021-08-02T16:51:45Z</time>
      </trkpt>
      <trkpt lat="47.09456" lon="-1.00669">
        <ele>104.92</ele>
        <time>2021-08-02T16:51:47Z</time>
      </trkpt>
      <trkpt lat="47.09449" lon="-1.00676">
        <ele>105.4</ele>
        <time>2021-08-02T16:51:48Z</time>
      </trkpt>
      <trkpt lat="47.09443" lon="-1.00679">
        <ele>105.4</ele>
        <time>2021-08-02T16:51:49Z</time>
      </trkpt>
      <trkpt lat="47.09438" lon="-1.00682">
        <ele>105.4</ele>
        <time>2021-08-02T16:51:50Z</time>
      </trkpt>
      <trkpt lat="47.09432" lon="-1.00677">
        <ele>105.4</ele>
        <time>2021-08-02T16:51:51Z</time>
      </trkpt>
      <trkpt lat="47.09428" lon="-1.00673">
        <ele>104.92</ele>
        <time>2021-08-02T16:51:52Z</time>
      </trkpt>
      <trkpt lat="47.09421" lon="-1.00671">
        <ele>104.92</ele>
        <time>2021-08-02T16:51:53Z</time>
      </trkpt>
      <trkpt lat="47.09415" lon="-1.0067">
        <ele>104.92</ele>
        <time>2021-08-02T16:51:54Z</time>
      </trkpt>
      <trkpt lat="47.09408" lon="-1.00669">
        <ele>104.92</ele>
        <time>2021-08-02T16:51:55Z</time>
      </trkpt>
      <trkpt lat="47.09294" lon="-1.00698">
        <ele>105.4</ele>
        <time>2021-08-02T16:52:07Z</time>
      </trkpt>
      <trkpt lat="47.09258" lon="-1.00706">
        <ele>104.44</ele>
        <time>2021-08-02T16:52:11Z</time>
      </trkpt>
      <trkpt lat="47.09251" lon="-1.00715">
        <ele>104.44</ele>
        <time>2021-08-02T16:52:12Z</time>
      </trkpt>
      <trkpt lat="47.09235" lon="-1.00744">
        <ele>104.44</ele>
        <time>2021-08-02T16:52:15Z</time>
      </trkpt>
      <trkpt lat="47.09235" lon="-1.00744">
        <ele>104.44</ele>
        <time>2021-08-02T16:52:16Z</time>
      </trkpt>
      <trkpt lat="47.09229" lon="-1.00747">
        <ele>104.44</ele>
        <time>2021-08-02T16:52:17Z</time>
      </trkpt>
      <trkpt lat="47.09222" lon="-1.00746">
        <ele>104.44</ele>
        <time>2021-08-02T16:52:18Z</time>
      </trkpt>
      <trkpt lat="47.09217" lon="-1.00744">
        <ele>104.44</ele>
        <time>2021-08-02T16:52:19Z</time>
      </trkpt>
      <trkpt lat="47.09213" lon="-1.00736">
        <ele>104.44</ele>
        <time>2021-08-02T16:52:20Z</time>
      </trkpt>
      <trkpt lat="47.09209" lon="-1.00729">
        <ele>104.44</ele>
        <time>2021-08-02T16:52:21Z</time>
      </trkpt>
      <trkpt lat="47.09206" lon="-1.00722">
        <ele>103.96</ele>
        <time>2021-08-02T16:52:22Z</time>
      </trkpt>
      <trkpt lat="47.09207" lon="-1.00714">
        <ele>103.96</ele>
        <time>2021-08-02T16:52:23Z</time>
      </trkpt>
      <trkpt lat="47.09207" lon="-1.00704">
        <ele>103.96</ele>
        <time>2021-08-02T16:52:24Z</time>
      </trkpt>
      <trkpt lat="47.09209" lon="-1.00694">
        <ele>103.96</ele>
        <time>2021-08-02T16:52:25Z</time>
      </trkpt>
      <trkpt lat="47.09219" lon="-1.00675">
        <ele>103.48</ele>
        <time>2021-08-02T16:52:26Z</time>
      </trkpt>
      <trkpt lat="47.09219" lon="-1.00675">
        <ele>103.48</ele>
        <time>2021-08-02T16:52:27Z</time>
      </trkpt>
      <trkpt lat="47.09221" lon="-1.00663">
        <ele>103</ele>
        <time>2021-08-02T16:52:28Z</time>
      </trkpt>
      <trkpt lat="47.09227" lon="-1.00638">
        <ele>103</ele>
        <time>2021-08-02T16:52:29Z</time>
      </trkpt>
      <trkpt lat="47.09227" lon="-1.00638">
        <ele>102.52</ele>
        <time>2021-08-02T16:52:30Z</time>
      </trkpt>
      <trkpt lat="47.09238" lon="-1.00479">
        <ele>98.19</ele>
        <time>2021-08-02T16:52:39Z</time>
      </trkpt>
      <trkpt lat="47.09218" lon="-1.00299">
        <ele>95.31</ele>
        <time>2021-08-02T16:52:47Z</time>
      </trkpt>
      <trkpt lat="47.09159" lon="-1.00012">
        <ele>90.98</ele>
        <time>2021-08-02T16:52:56Z</time>
      </trkpt>
      <trkpt lat="47.0909" lon="-0.99661">
        <ele>84.73</ele>
        <time>2021-08-02T16:53:07Z</time>
      </trkpt>
      <trkpt lat="47.08965" lon="-0.99022">
        <ele>82.33</ele>
        <time>2021-08-02T16:53:25Z</time>
      </trkpt>
      <trkpt lat="47.08825" lon="-0.98386">
        <ele>80.89</ele>
        <time>2021-08-02T16:53:43Z</time>
      </trkpt>
      <trkpt lat="47.0867" lon="-0.97943">
        <ele>82.33</ele>
        <time>2021-08-02T16:53:55Z</time>
      </trkpt>
      <trkpt lat="47.08522" lon="-0.97617">
        <ele>88.1</ele>
        <time>2021-08-02T16:54:07Z</time>
      </trkpt>
      <trkpt lat="47.08231" lon="-0.97025">
        <ele>97.23</ele>
        <time>2021-08-02T16:54:27Z</time>
      </trkpt>
      <trkpt lat="47.08035" lon="-0.96553">
        <ele>103</ele>
        <time>2021-08-02T16:54:42Z</time>
      </trkpt>
      <trkpt lat="47.079" lon="-0.96092">
        <ele>105.4</ele>
        <time>2021-08-02T16:54:55Z</time>
      </trkpt>
      <trkpt lat="47.07761" lon="-0.95463">
        <ele>105.88</ele>
        <time>2021-08-02T16:55:12Z</time>
      </trkpt>
      <trkpt lat="47.07626" lon="-0.94865">
        <ele>104.44</ele>
        <time>2021-08-02T16:55:29Z</time>
      </trkpt>
      <trkpt lat="47.07498" lon="-0.94495">
        <ele>111.65</ele>
        <time>2021-08-02T16:55:41Z</time>
      </trkpt>
      <trkpt lat="47.07319" lon="-0.94138">
        <ele>120.78</ele>
        <time>2021-08-02T16:55:54Z</time>
      </trkpt>
      <trkpt lat="47.07019" lon="-0.93622">
        <ele>113.57</ele>
        <time>2021-08-02T16:56:13Z</time>
      </trkpt>
      <trkpt lat="47.06782" lon="-0.93258">
        <ele>103.96</ele>
        <time>2021-08-02T16:56:26Z</time>
      </trkpt>
      <trkpt lat="47.06459" lon="-0.92867">
        <ele>91.94</ele>
        <time>2021-08-02T16:56:42Z</time>
      </trkpt>
      <trkpt lat="47.06117" lon="-0.92538">
        <ele>82.33</ele>
        <time>2021-08-02T16:56:58Z</time>
      </trkpt>
      <trkpt lat="47.05756" lon="-0.92264">
        <ele>75.12</ele>
        <time>2021-08-02T16:57:14Z</time>
      </trkpt>
      <trkpt lat="47.0544" lon="-0.9206">
        <ele>73.2</ele>
        <time>2021-08-02T16:57:28Z</time>
      </trkpt>
      <trkpt lat="47.04974" lon="-0.91761">
        <ele>81.37</ele>
        <time>2021-08-02T16:57:49Z</time>
      </trkpt>
      <trkpt lat="47.04705" lon="-0.9156">
        <ele>86.66</ele>
        <time>2021-08-02T16:58:01Z</time>
      </trkpt>
      <trkpt lat="47.04281" lon="-0.91169">
        <ele>90.5</ele>
        <time>2021-08-02T16:58:21Z</time>
      </trkpt>
      <trkpt lat="47.0402" lon="-0.90884">
        <ele>97.23</ele>
        <time>2021-08-02T16:58:34Z</time>
      </trkpt>
      <trkpt lat="47.03719" lon="-0.905">
        <ele>108.29</ele>
        <time>2021-08-02T16:58:51Z</time>
      </trkpt>
      <trkpt lat="47.03437" lon="-0.90077">
        <ele>116.46</ele>
        <time>2021-08-02T16:59:09Z</time>
      </trkpt>
      <trkpt lat="47.03123" lon="-0.89575">
        <ele>121.26</ele>
        <time>2021-08-02T16:59:29Z</time>
      </trkpt>
      <trkpt lat="47.02757" lon="-0.88989">
        <ele>124.15</ele>
        <time>2021-08-02T16:59:51Z</time>
      </trkpt>
      <trkpt lat="47.024" lon="-0.88415">
        <ele>126.55</ele>
        <time>2021-08-02T17:00:12Z</time>
      </trkpt>
      <trkpt lat="47.02109" lon="-0.8799">
        <ele>123.67</ele>
        <time>2021-08-02T17:00:28Z</time>
      </trkpt>
      <trkpt lat="47.01805" lon="-0.87637">
        <ele>116.46</ele>
        <time>2021-08-02T17:00:43Z</time>
      </trkpt>
      <trkpt lat="47.01482" lon="-0.8735">
        <ele>115.01</ele>
        <time>2021-08-02T17:00:57Z</time>
      </trkpt>
      <trkpt lat="47.01178" lon="-0.87139">
        <ele>124.63</ele>
        <time>2021-08-02T17:01:10Z</time>
      </trkpt>
      <trkpt lat="47.00787" lon="-0.86899">
        <ele>134.72</ele>
        <time>2021-08-02T17:01:28Z</time>
      </trkpt>
      <trkpt lat="47.00333" lon="-0.86612">
        <ele>140.97</ele>
        <time>2021-08-02T17:01:49Z</time>
      </trkpt>
      <trkpt lat="47.00053" lon="-0.8636">
        <ele>138.57</ele>
        <time>2021-08-02T17:02:02Z</time>
      </trkpt>
      <trkpt lat="46.99808" lon="-0.86066">
        <ele>135.68</ele>
        <time>2021-08-02T17:02:14Z</time>
      </trkpt>
      <trkpt lat="46.99591" lon="-0.85724">
        <ele>134.72</ele>
        <time>2021-08-02T17:02:26Z</time>
      </trkpt>
      <trkpt lat="46.9931" lon="-0.85204">
        <ele>140.97</ele>
        <time>2021-08-02T17:02:44Z</time>
      </trkpt>
      <trkpt lat="46.98944" lon="-0.84521">
        <ele>149.62</ele>
        <time>2021-08-02T17:03:09Z</time>
      </trkpt>
      <trkpt lat="46.98742" lon="-0.84124">
        <ele>150.58</ele>
        <time>2021-08-02T17:03:24Z</time>
      </trkpt>
      <trkpt lat="46.98543" lon="-0.83615">
        <ele>148.66</ele>
        <time>2021-08-02T17:03:39Z</time>
      </trkpt>
      <trkpt lat="46.98382" lon="-0.8303">
        <ele>149.62</ele>
        <time>2021-08-02T17:03:55Z</time>
      </trkpt>
      <trkpt lat="46.98235" lon="-0.82475">
        <ele>159.72</ele>
        <time>2021-08-02T17:04:12Z</time>
      </trkpt>
      <trkpt lat="46.9813" lon="-0.82218">
        <ele>164.52</ele>
        <time>2021-08-02T17:04:22Z</time>
      </trkpt>
      <trkpt lat="46.97973" lon="-0.81961">
        <ele>164.04</ele>
        <time>2021-08-02T17:04:32Z</time>
      </trkpt>
      <trkpt lat="46.97697" lon="-0.81573">
        <ele>155.39</ele>
        <time>2021-08-02T17:04:47Z</time>
      </trkpt>
      <trkpt lat="46.97401" lon="-0.81136">
        <ele>144.34</ele>
        <time>2021-08-02T17:05:03Z</time>
      </trkpt>
      <trkpt lat="46.97213" lon="-0.80761">
        <ele>140.01</ele>
        <time>2021-08-02T17:05:15Z</time>
      </trkpt>
      <trkpt lat="46.96975" lon="-0.80295">
        <ele>136.64</ele>
        <time>2021-08-02T17:05:30Z</time>
      </trkpt>
      <trkpt lat="46.96784" lon="-0.80019">
        <ele>134.72</ele>
        <time>2021-08-02T17:05:40Z</time>
      </trkpt>
      <trkpt lat="46.96574" lon="-0.79665">
        <ele>131.84</ele>
        <time>2021-08-02T17:05:52Z</time>
      </trkpt>
      <trkpt lat="46.96403" lon="-0.79272">
        <ele>128.95</ele>
        <time>2021-08-02T17:06:04Z</time>
      </trkpt>
      <trkpt lat="46.96226" lon="-0.78812">
        <ele>125.59</ele>
        <time>2021-08-02T17:06:18Z</time>
      </trkpt>
      <trkpt lat="46.95998" lon="-0.78373">
        <ele>123.19</ele>
        <time>2021-08-02T17:06:33Z</time>
      </trkpt>
      <trkpt lat="46.95743" lon="-0.77996">
        <ele>127.03</ele>
        <time>2021-08-02T17:06:48Z</time>
      </trkpt>
      <trkpt lat="46.95246" lon="-0.77285">
        <ele>143.85</ele>
        <time>2021-08-02T17:07:18Z</time>
      </trkpt>
      <trkpt lat="46.95011" lon="-0.76887">
        <ele>152.03</ele>
        <time>2021-08-02T17:07:33Z</time>
      </trkpt>
      <trkpt lat="46.94638" lon="-0.76155">
        <ele>162.6</ele>
        <time>2021-08-02T17:07:59Z</time>
      </trkpt>
      <trkpt lat="46.94352" lon="-0.75689">
        <ele>156.35</ele>
        <time>2021-08-02T17:08:16Z</time>
      </trkpt>
      <trkpt lat="46.93912" lon="-0.75037">
        <ele>152.51</ele>
        <time>2021-08-02T17:08:40Z</time>
      </trkpt>
      <trkpt lat="46.9358" lon="-0.74542">
        <ele>159.24</ele>
        <time>2021-08-02T17:08:58Z</time>
      </trkpt>
      <trkpt lat="46.93371" lon="-0.74154">
        <ele>168.37</ele>
        <time>2021-08-02T17:09:11Z</time>
      </trkpt>
      <trkpt lat="46.93205" lon="-0.73729">
        <ele>172.21</ele>
        <time>2021-08-02T17:09:24Z</time>
      </trkpt>
      <trkpt lat="46.93065" lon="-0.73198">
        <ele>170.77</ele>
        <time>2021-08-02T17:09:38Z</time>
      </trkpt>
      <trkpt lat="46.92929" lon="-0.72538">
        <ele>173.17</ele>
        <time>2021-08-02T17:09:57Z</time>
      </trkpt>
      <trkpt lat="46.92824" lon="-0.72095">
        <ele>177.98</ele>
        <time>2021-08-02T17:10:10Z</time>
      </trkpt>
      <trkpt lat="46.92667" lon="-0.71524">
        <ele>178.94</ele>
        <time>2021-08-02T17:10:27Z</time>
      </trkpt>
      <trkpt lat="46.92449" lon="-0.70739">
        <ele>175.58</ele>
        <time>2021-08-02T17:10:49Z</time>
      </trkpt>
      <trkpt lat="46.92283" lon="-0.70239">
        <ele>172.69</ele>
        <time>2021-08-02T17:11:03Z</time>
      </trkpt>
      <trkpt lat="46.92101" lon="-0.6984">
        <ele>168.85</ele>
        <time>2021-08-02T17:11:15Z</time>
      </trkpt>
      <trkpt lat="46.91712" lon="-0.69069">
        <ele>161.16</ele>
        <time>2021-08-02T17:11:39Z</time>
      </trkpt>
      <trkpt lat="46.91475" lon="-0.68625">
        <ele>150.1</ele>
        <time>2021-08-02T17:11:53Z</time>
      </trkpt>
      <trkpt lat="46.91275" lon="-0.68346">
        <ele>140.01</ele>
        <time>2021-08-02T17:12:03Z</time>
      </trkpt>
      <trkpt lat="46.90979" lon="-0.68036">
        <ele>137.13</ele>
        <time>2021-08-02T17:12:17Z</time>
      </trkpt>
      <trkpt lat="46.90787" lon="-0.67797">
        <ele>143.85</ele>
        <time>2021-08-02T17:12:27Z</time>
      </trkpt>
      <trkpt lat="46.90627" lon="-0.67512">
        <ele>150.58</ele>
        <time>2021-08-02T17:12:37Z</time>
      </trkpt>
      <trkpt lat="46.90328" lon="-0.66903">
        <ele>152.03</ele>
        <time>2021-08-02T17:12:57Z</time>
      </trkpt>
      <trkpt lat="46.90087" lon="-0.66395">
        <ele>138.57</ele>
        <time>2021-08-02T17:13:13Z</time>
      </trkpt>
      <trkpt lat="46.89969" lon="-0.66055">
        <ele>131.84</ele>
        <time>2021-08-02T17:13:23Z</time>
      </trkpt>
      <trkpt lat="46.89874" lon="-0.65625">
        <ele>126.55</ele>
        <time>2021-08-02T17:13:35Z</time>
      </trkpt>
      <trkpt lat="46.89803" lon="-0.65068">
        <ele>133.28</ele>
        <time>2021-08-02T17:13:49Z</time>
      </trkpt>
      <trkpt lat="46.8977" lon="-0.64658">
        <ele>140.49</ele>
        <time>2021-08-02T17:14:01Z</time>
      </trkpt>
      <trkpt lat="46.8974" lon="-0.6406">
        <ele>151.06</ele>
        <time>2021-08-02T17:14:17Z</time>
      </trkpt>
      <trkpt lat="46.89745" lon="-0.63487">
        <ele>167.41</ele>
        <time>2021-08-02T17:14:33Z</time>
      </trkpt>
      <trkpt lat="46.89717" lon="-0.63085">
        <ele>174.14</ele>
        <time>2021-08-02T17:14:44Z</time>
      </trkpt>
      <trkpt lat="46.89632" lon="-0.62654">
        <ele>179.42</ele>
        <time>2021-08-02T17:14:55Z</time>
      </trkpt>
      <trkpt lat="46.8951" lon="-0.62248">
        <ele>187.11</ele>
        <time>2021-08-02T17:15:08Z</time>
      </trkpt>
      <trkpt lat="46.89337" lon="-0.61704">
        <ele>187.59</ele>
        <time>2021-08-02T17:15:24Z</time>
      </trkpt>
      <trkpt lat="46.89148" lon="-0.61209">
        <ele>188.08</ele>
        <time>2021-08-02T17:15:38Z</time>
      </trkpt>
      <trkpt lat="46.88961" lon="-0.60782">
        <ele>193.36</ele>
        <time>2021-08-02T17:15:51Z</time>
      </trkpt>
      <trkpt lat="46.8876" lon="-0.60484">
        <ele>197.21</ele>
        <time>2021-08-02T17:16:02Z</time>
      </trkpt>
      <trkpt lat="46.88524" lon="-0.60238">
        <ele>199.61</ele>
        <time>2021-08-02T17:16:13Z</time>
      </trkpt>
      <trkpt lat="46.88236" lon="-0.59911">
        <ele>202.98</ele>
        <time>2021-08-02T17:16:26Z</time>
      </trkpt>
      <trkpt lat="46.88071" lon="-0.59621">
        <ele>205.38</ele>
        <time>2021-08-02T17:16:36Z</time>
      </trkpt>
      <trkpt lat="46.87847" lon="-0.59123">
        <ele>214.03</ele>
        <time>2021-08-02T17:16:53Z</time>
      </trkpt>
      <trkpt lat="46.87611" lon="-0.58654">
        <ele>222.2</ele>
        <time>2021-08-02T17:17:08Z</time>
      </trkpt>
      <trkpt lat="46.87388" lon="-0.58279">
        <ele>227.49</ele>
        <time>2021-08-02T17:17:23Z</time>
      </trkpt>
      <trkpt lat="46.87141" lon="-0.57912">
        <ele>228.93</ele>
        <time>2021-08-02T17:17:37Z</time>
      </trkpt>
      <trkpt lat="46.86893" lon="-0.57635">
        <ele>226.05</ele>
        <time>2021-08-02T17:17:49Z</time>
      </trkpt>
      <trkpt lat="46.86341" lon="-0.57076">
        <ele>221.72</ele>
        <time>2021-08-02T17:18:15Z</time>
      </trkpt>
      <trkpt lat="46.85791" lon="-0.56556">
        <ele>217.4</ele>
        <time>2021-08-02T17:18:41Z</time>
      </trkpt>
      <trkpt lat="46.85574" lon="-0.56304">
        <ele>218.84</ele>
        <time>2021-08-02T17:18:52Z</time>
      </trkpt>
      <trkpt lat="46.8537" lon="-0.55973">
        <ele>221.24</ele>
        <time>2021-08-02T17:19:04Z</time>
      </trkpt>
      <trkpt lat="46.85215" lon="-0.55624">
        <ele>219.8</ele>
        <time>2021-08-02T17:19:15Z</time>
      </trkpt>
      <trkpt lat="46.85099" lon="-0.55237">
        <ele>218.36</ele>
        <time>2021-08-02T17:19:26Z</time>
      </trkpt>
      <trkpt lat="46.85017" lon="-0.54783">
        <ele>217.88</ele>
        <time>2021-08-02T17:19:38Z</time>
      </trkpt>
      <trkpt lat="46.84888" lon="-0.53875">
        <ele>211.63</ele>
        <time>2021-08-02T17:20:01Z</time>
      </trkpt>
      <trkpt lat="46.84852" lon="-0.53481">
        <ele>207.78</ele>
        <time>2021-08-02T17:20:11Z</time>
      </trkpt>
      <trkpt lat="46.84872" lon="-0.53121">
        <ele>202.49</ele>
        <time>2021-08-02T17:20:20Z</time>
      </trkpt>
      <trkpt lat="46.84947" lon="-0.52738">
        <ele>198.17</ele>
        <time>2021-08-02T17:20:29Z</time>
      </trkpt>
      <trkpt lat="46.85061" lon="-0.52419">
        <ele>196.25</ele>
        <time>2021-08-02T17:20:39Z</time>
      </trkpt>
      <trkpt lat="46.85216" lon="-0.5214">
        <ele>191.44</ele>
        <time>2021-08-02T17:20:48Z</time>
      </trkpt>
      <trkpt lat="46.85468" lon="-0.51734">
        <ele>181.35</ele>
        <time>2021-08-02T17:21:01Z</time>
      </trkpt>
      <trkpt lat="46.85703" lon="-0.51288">
        <ele>174.14</ele>
        <time>2021-08-02T17:21:17Z</time>
      </trkpt>
      <trkpt lat="46.85817" lon="-0.50948">
        <ele>168.85</ele>
        <time>2021-08-02T17:21:27Z</time>
      </trkpt>
      <trkpt lat="46.85871" lon="-0.50618">
        <ele>163.56</ele>
        <time>2021-08-02T17:21:36Z</time>
      </trkpt>
      <trkpt lat="46.8588" lon="-0.50283">
        <ele>154.91</ele>
        <time>2021-08-02T17:21:45Z</time>
      </trkpt>
      <trkpt lat="46.85839" lon="-0.49908">
        <ele>145.3</ele>
        <time>2021-08-02T17:21:55Z</time>
      </trkpt>
      <trkpt lat="46.8572" lon="-0.4934">
        <ele>132.8</ele>
        <time>2021-08-02T17:22:10Z</time>
      </trkpt>
      <trkpt lat="46.85602" lon="-0.48782">
        <ele>140.49</ele>
        <time>2021-08-02T17:22:25Z</time>
      </trkpt>
      <trkpt lat="46.85506" lon="-0.48329">
        <ele>154.91</ele>
        <time>2021-08-02T17:22:39Z</time>
      </trkpt>
      <trkpt lat="46.85398" lon="-0.47834">
        <ele>167.89</ele>
        <time>2021-08-02T17:22:56Z</time>
      </trkpt>
      <trkpt lat="46.85299" lon="-0.47594">
        <ele>171.73</ele>
        <time>2021-08-02T17:23:05Z</time>
      </trkpt>
      <trkpt lat="46.8517" lon="-0.47404">
        <ele>175.1</ele>
        <time>2021-08-02T17:23:13Z</time>
      </trkpt>
      <trkpt lat="46.84988" lon="-0.47245">
        <ele>177.5</ele>
        <time>2021-08-02T17:23:22Z</time>
      </trkpt>
      <trkpt lat="46.8458" lon="-0.46934">
        <ele>188.08</ele>
        <time>2021-08-02T17:23:41Z</time>
      </trkpt>
      <trkpt lat="46.84189" lon="-0.46628">
        <ele>187.11</ele>
        <time>2021-08-02T17:23:59Z</time>
      </trkpt>
      <trkpt lat="46.84003" lon="-0.46426">
        <ele>184.23</ele>
        <time>2021-08-02T17:24:08Z</time>
      </trkpt>
      <trkpt lat="46.83833" lon="-0.4614">
        <ele>181.83</ele>
        <time>2021-08-02T17:24:18Z</time>
      </trkpt>
      <trkpt lat="46.8372" lon="-0.45838">
        <ele>178.46</ele>
        <time>2021-08-02T17:24:27Z</time>
      </trkpt>
      <trkpt lat="46.8365" lon="-0.45512">
        <ele>176.06</ele>
        <time>2021-08-02T17:24:36Z</time>
      </trkpt>
      <trkpt lat="46.83626" lon="-0.45137">
        <ele>176.06</ele>
        <time>2021-08-02T17:24:45Z</time>
      </trkpt>
      <trkpt lat="46.83625" lon="-0.44638">
        <ele>174.14</ele>
        <time>2021-08-02T17:24:58Z</time>
      </trkpt>
      <trkpt lat="46.83577" lon="-0.44314">
        <ele>172.69</ele>
        <time>2021-08-02T17:25:07Z</time>
      </trkpt>
      <trkpt lat="46.835" lon="-0.4404">
        <ele>171.73</ele>
        <time>2021-08-02T17:25:16Z</time>
      </trkpt>
      <trkpt lat="46.83423" lon="-0.43827">
        <ele>171.73</ele>
        <time>2021-08-02T17:25:27Z</time>
      </trkpt>
      <trkpt lat="46.83373" lon="-0.43702">
        <ele>174.62</ele>
        <time>2021-08-02T17:25:36Z</time>
      </trkpt>
      <trkpt lat="46.83364" lon="-0.43685">
        <ele>175.58</ele>
        <time>2021-08-02T17:25:38Z</time>
      </trkpt>
      <trkpt lat="46.8336" lon="-0.43677">
        <ele>176.06</ele>
        <time>2021-08-02T17:25:39Z</time>
      </trkpt>
      <trkpt lat="46.83354" lon="-0.43676">
        <ele>176.54</ele>
        <time>2021-08-02T17:25:40Z</time>
      </trkpt>
      <trkpt lat="46.83339" lon="-0.43668">
        <ele>177.02</ele>
        <time>2021-08-02T17:25:42Z</time>
      </trkpt>
      <trkpt lat="46.83335" lon="-0.43661">
        <ele>177.02</ele>
        <time>2021-08-02T17:25:43Z</time>
      </trkpt>
      <trkpt lat="46.83324" lon="-0.43643">
        <ele>177.02</ele>
        <time>2021-08-02T17:25:44Z</time>
      </trkpt>
      <trkpt lat="46.83324" lon="-0.43643">
        <ele>177.02</ele>
        <time>2021-08-02T17:25:45Z</time>
      </trkpt>
      <trkpt lat="46.83323" lon="-0.43632">
        <ele>176.54</ele>
        <time>2021-08-02T17:25:46Z</time>
      </trkpt>
      <trkpt lat="46.83322" lon="-0.43621">
        <ele>176.54</ele>
        <time>2021-08-02T17:25:47Z</time>
      </trkpt>
      <trkpt lat="46.83322" lon="-0.43609">
        <ele>176.06</ele>
        <time>2021-08-02T17:25:48Z</time>
      </trkpt>
      <trkpt lat="46.83318" lon="-0.43597">
        <ele>176.06</ele>
        <time>2021-08-02T17:25:49Z</time>
      </trkpt>
      <trkpt lat="46.83314" lon="-0.43584">
        <ele>174.62</ele>
        <time>2021-08-02T17:25:50Z</time>
      </trkpt>
      <trkpt lat="46.83308" lon="-0.43573">
        <ele>173.66</ele>
        <time>2021-08-02T17:25:51Z</time>
      </trkpt>
      <trkpt lat="46.83301" lon="-0.43561">
        <ele>174.62</ele>
        <time>2021-08-02T17:25:52Z</time>
      </trkpt>
      <trkpt lat="46.83237" lon="-0.4343">
        <ele>172.69</ele>
        <time>2021-08-02T17:26:01Z</time>
      </trkpt>
      <trkpt lat="46.83131" lon="-0.43205">
        <ele>170.77</ele>
        <time>2021-08-02T17:26:12Z</time>
      </trkpt>
      <trkpt lat="46.8297" lon="-0.42861">
        <ele>166.93</ele>
        <time>2021-08-02T17:26:27Z</time>
      </trkpt>
      <trkpt lat="46.82801" lon="-0.42502">
        <ele>156.83</ele>
        <time>2021-08-02T17:26:44Z</time>
      </trkpt>
      <trkpt lat="46.82715" lon="-0.42322">
        <ele>151.54</ele>
        <time>2021-08-02T17:26:56Z</time>
      </trkpt>
      <trkpt lat="46.82615" lon="-0.42109">
        <ele>145.78</ele>
        <time>2021-08-02T17:27:10Z</time>
      </trkpt>
      <trkpt lat="46.82549" lon="-0.4197">
        <ele>144.82</ele>
        <time>2021-08-02T17:27:20Z</time>
      </trkpt>
      <trkpt lat="46.82447" lon="-0.41753">
        <ele>146.26</ele>
        <time>2021-08-02T17:27:35Z</time>
      </trkpt>
      <trkpt lat="46.82292" lon="-0.41419">
        <ele>145.78</ele>
        <time>2021-08-02T17:27:58Z</time>
      </trkpt>
      <trkpt lat="46.82202" lon="-0.4123">
        <ele>145.3</ele>
        <time>2021-08-02T17:28:08Z</time>
      </trkpt>
      <trkpt lat="46.82106" lon="-0.41025">
        <ele>153.95</ele>
        <time>2021-08-02T17:28:18Z</time>
      </trkpt>
      <trkpt lat="46.81966" lon="-0.40727">
        <ele>147.22</ele>
        <time>2021-08-02T17:28:30Z</time>
      </trkpt>
      <trkpt lat="46.81757" lon="-0.40283">
        <ele>145.78</ele>
        <time>2021-08-02T17:28:47Z</time>
      </trkpt>
      <trkpt lat="46.81537" lon="-0.39816">
        <ele>141.45</ele>
        <time>2021-08-02T17:29:05Z</time>
      </trkpt>
      <trkpt lat="46.81404" lon="-0.39532">
        <ele>144.82</ele>
        <time>2021-08-02T17:29:17Z</time>
      </trkpt>
      <trkpt lat="46.81228" lon="-0.39157">
        <ele>147.22</ele>
        <time>2021-08-02T17:29:33Z</time>
      </trkpt>
      <trkpt lat="46.81057" lon="-0.38794">
        <ele>155.39</ele>
        <time>2021-08-02T17:29:49Z</time>
      </trkpt>
      <trkpt lat="46.80829" lon="-0.38312">
        <ele>140.49</ele>
        <time>2021-08-02T17:30:10Z</time>
      </trkpt>
      <trkpt lat="46.80631" lon="-0.37891">
        <ele>146.74</ele>
        <time>2021-08-02T17:30:29Z</time>
      </trkpt>
      <trkpt lat="46.80514" lon="-0.37643">
        <ele>143.85</ele>
        <time>2021-08-02T17:30:40Z</time>
      </trkpt>
      <trkpt lat="46.80334" lon="-0.3726">
        <ele>139.05</ele>
        <time>2021-08-02T17:30:56Z</time>
      </trkpt>
      <trkpt lat="46.80155" lon="-0.36876">
        <ele>136.64</ele>
        <time>2021-08-02T17:31:11Z</time>
      </trkpt>
      <trkpt lat="46.80099" lon="-0.36707">
        <ele>138.09</ele>
        <time>2021-08-02T17:31:19Z</time>
      </trkpt>
      <trkpt lat="46.80015" lon="-0.36336">
        <ele>127.99</ele>
        <time>2021-08-02T17:31:34Z</time>
      </trkpt>
      <trkpt lat="46.79936" lon="-0.36213">
        <ele>130.4</ele>
        <time>2021-08-02T17:31:41Z</time>
      </trkpt>
      <trkpt lat="46.79803" lon="-0.36064">
        <ele>130.4</ele>
        <time>2021-08-02T17:31:55Z</time>
      </trkpt>
      <trkpt lat="46.79694" lon="-0.35938">
        <ele>137.61</ele>
        <time>2021-08-02T17:32:07Z</time>
      </trkpt>
      <trkpt lat="46.79694" lon="-0.35938">
        <ele>138.09</ele>
        <time>2021-08-02T17:32:08Z</time>
      </trkpt>
      <trkpt lat="46.79687" lon="-0.35927">
        <ele>138.57</ele>
        <time>2021-08-02T17:32:09Z</time>
      </trkpt>
      <trkpt lat="46.79645" lon="-0.35829">
        <ele>142.41</ele>
        <time>2021-08-02T17:32:19Z</time>
      </trkpt>
      <trkpt lat="46.79642" lon="-0.3582">
        <ele>141.45</ele>
        <time>2021-08-02T17:32:29Z</time>
      </trkpt>
      <trkpt lat="46.7964" lon="-0.35815">
        <ele>141.45</ele>
        <time>2021-08-02T17:38:01Z</time>
      </trkpt>
      <trkpt lat="46.79627" lon="-0.35725">
        <ele>141.45</ele>
        <time>2021-08-02T17:38:11Z</time>
      </trkpt>
      <trkpt lat="46.79624" lon="-0.35695">
        <ele>142.89</ele>
        <time>2021-08-02T17:38:14Z</time>
      </trkpt>
      <trkpt lat="46.79623" lon="-0.35687">
        <ele>143.37</ele>
        <time>2021-08-02T17:38:15Z</time>
      </trkpt>
      <trkpt lat="46.79584" lon="-0.35594">
        <ele>146.74</ele>
        <time>2021-08-02T17:38:24Z</time>
      </trkpt>
      <trkpt lat="46.79492" lon="-0.35387">
        <ele>150.58</ele>
        <time>2021-08-02T17:38:38Z</time>
      </trkpt>
      <trkpt lat="46.79382" lon="-0.35142">
        <ele>152.51</ele>
        <time>2021-08-02T17:38:51Z</time>
      </trkpt>
      <trkpt lat="46.79257" lon="-0.34853">
        <ele>158.75</ele>
        <time>2021-08-02T17:39:05Z</time>
      </trkpt>
      <trkpt lat="46.79131" lon="-0.34581">
        <ele>163.08</ele>
        <time>2021-08-02T17:39:20Z</time>
      </trkpt>
      <trkpt lat="46.79007" lon="-0.34409">
        <ele>160.68</ele>
        <time>2021-08-02T17:39:30Z</time>
      </trkpt>
      <trkpt lat="46.7877" lon="-0.34114">
        <ele>150.1</ele>
        <time>2021-08-02T17:39:46Z</time>
      </trkpt>
      <trkpt lat="46.78485" lon="-0.33756">
        <ele>144.82</ele>
        <time>2021-08-02T17:40:04Z</time>
      </trkpt>
      <trkpt lat="46.78263" lon="-0.33479">
        <ele>152.51</ele>
        <time>2021-08-02T17:40:21Z</time>
      </trkpt>
      <trkpt lat="46.78052" lon="-0.33215">
        <ele>156.83</ele>
        <time>2021-08-02T17:40:37Z</time>
      </trkpt>
      <trkpt lat="46.77817" lon="-0.32924">
        <ele>161.16</ele>
        <time>2021-08-02T17:40:54Z</time>
      </trkpt>
      <trkpt lat="46.77619" lon="-0.32676">
        <ele>162.6</ele>
        <time>2021-08-02T17:41:08Z</time>
      </trkpt>
      <trkpt lat="46.77421" lon="-0.3243">
        <ele>163.08</ele>
        <time>2021-08-02T17:41:24Z</time>
      </trkpt>
      <trkpt lat="46.77241" lon="-0.32205">
        <ele>165</ele>
        <time>2021-08-02T17:41:37Z</time>
      </trkpt>
      <trkpt lat="46.76999" lon="-0.31903">
        <ele>166.45</ele>
        <time>2021-08-02T17:41:54Z</time>
      </trkpt>
      <trkpt lat="46.76766" lon="-0.31611">
        <ele>176.06</ele>
        <time>2021-08-02T17:42:11Z</time>
      </trkpt>
      <trkpt lat="46.76541" lon="-0.31359">
        <ele>170.77</ele>
        <time>2021-08-02T17:42:27Z</time>
      </trkpt>
      <trkpt lat="46.76379" lon="-0.31277">
        <ele>170.29</ele>
        <time>2021-08-02T17:42:36Z</time>
      </trkpt>
      <trkpt lat="46.7608" lon="-0.31152">
        <ele>164.52</ele>
        <time>2021-08-02T17:42:52Z</time>
      </trkpt>
      <trkpt lat="46.75769" lon="-0.31023">
        <ele>169.81</ele>
        <time>2021-08-02T17:43:09Z</time>
      </trkpt>
      <trkpt lat="46.75452" lon="-0.30891">
        <ele>175.58</ele>
        <time>2021-08-02T17:43:27Z</time>
      </trkpt>
      <trkpt lat="46.75137" lon="-0.3076">
        <ele>178.46</ele>
        <time>2021-08-02T17:43:45Z</time>
      </trkpt>
      <trkpt lat="46.74866" lon="-0.30649">
        <ele>171.73</ele>
        <time>2021-08-02T17:44:00Z</time>
      </trkpt>
      <trkpt lat="46.74519" lon="-0.30506">
        <ele>161.16</ele>
        <time>2021-08-02T17:44:22Z</time>
      </trkpt>
      <trkpt lat="46.74199" lon="-0.30373">
        <ele>156.83</ele>
        <time>2021-08-02T17:44:40Z</time>
      </trkpt>
      <trkpt lat="46.74002" lon="-0.30292">
        <ele>158.75</ele>
        <time>2021-08-02T17:44:50Z</time>
      </trkpt>
      <trkpt lat="46.73714" lon="-0.30172">
        <ele>169.33</ele>
        <time>2021-08-02T17:45:06Z</time>
      </trkpt>
      <trkpt lat="46.73453" lon="-0.30064">
        <ele>177.98</ele>
        <time>2021-08-02T17:45:18Z</time>
      </trkpt>
      <trkpt lat="46.73175" lon="-0.29953">
        <ele>182.31</ele>
        <time>2021-08-02T17:45:30Z</time>
      </trkpt>
      <trkpt lat="46.72935" lon="-0.29902">
        <ele>177.98</ele>
        <time>2021-08-02T17:45:42Z</time>
      </trkpt>
      <trkpt lat="46.72615" lon="-0.29855">
        <ele>167.89</ele>
        <time>2021-08-02T17:45:59Z</time>
      </trkpt>
      <trkpt lat="46.72257" lon="-0.29797">
        <ele>163.08</ele>
        <time>2021-08-02T17:46:17Z</time>
      </trkpt>
      <trkpt lat="46.72125" lon="-0.29731">
        <ele>167.89</ele>
        <time>2021-08-02T17:46:25Z</time>
      </trkpt>
      <trkpt lat="46.71871" lon="-0.29524">
        <ele>174.62</ele>
        <time>2021-08-02T17:46:39Z</time>
      </trkpt>
      <trkpt lat="46.71477" lon="-0.29204">
        <ele>159.72</ele>
        <time>2021-08-02T17:47:01Z</time>
      </trkpt>
      <trkpt lat="46.71265" lon="-0.29033">
        <ele>160.2</ele>
        <time>2021-08-02T17:47:13Z</time>
      </trkpt>
      <trkpt lat="46.70929" lon="-0.28759">
        <ele>148.66</ele>
        <time>2021-08-02T17:47:33Z</time>
      </trkpt>
      <trkpt lat="46.70674" lon="-0.28554">
        <ele>144.82</ele>
        <time>2021-08-02T17:47:47Z</time>
      </trkpt>
      <trkpt lat="46.70362" lon="-0.28302">
        <ele>147.7</ele>
        <time>2021-08-02T17:48:06Z</time>
      </trkpt>
      <trkpt lat="46.70152" lon="-0.28131">
        <ele>151.54</ele>
        <time>2021-08-02T17:48:19Z</time>
      </trkpt>
      <trkpt lat="46.69824" lon="-0.27863">
        <ele>162.6</ele>
        <time>2021-08-02T17:48:39Z</time>
      </trkpt>
      <trkpt lat="46.69455" lon="-0.27567">
        <ele>162.12</ele>
        <time>2021-08-02T17:49:00Z</time>
      </trkpt>
      <trkpt lat="46.69075" lon="-0.27257">
        <ele>165</ele>
        <time>2021-08-02T17:49:22Z</time>
      </trkpt>
      <trkpt lat="46.68761" lon="-0.27003">
        <ele>165.48</ele>
        <time>2021-08-02T17:49:40Z</time>
      </trkpt>
      <trkpt lat="46.68453" lon="-0.26751">
        <ele>166.45</ele>
        <time>2021-08-02T17:49:57Z</time>
      </trkpt>
      <trkpt lat="46.68176" lon="-0.26529">
        <ele>168.37</ele>
        <time>2021-08-02T17:50:14Z</time>
      </trkpt>
      <trkpt lat="46.67912" lon="-0.26315">
        <ele>163.56</ele>
        <time>2021-08-02T17:50:29Z</time>
      </trkpt>
      <trkpt lat="46.67618" lon="-0.26076">
        <ele>166.45</ele>
        <time>2021-08-02T17:50:46Z</time>
      </trkpt>
      <trkpt lat="46.67262" lon="-0.25788">
        <ele>168.37</ele>
        <time>2021-08-02T17:51:07Z</time>
      </trkpt>
      <trkpt lat="46.67181" lon="-0.25721">
        <ele>167.41</ele>
        <time>2021-08-02T17:51:13Z</time>
      </trkpt>
      <trkpt lat="46.67181" lon="-0.25721">
        <ele>166.93</ele>
        <time>2021-08-02T17:51:14Z</time>
      </trkpt>
      <trkpt lat="46.67174" lon="-0.25716">
        <ele>166.93</ele>
        <time>2021-08-02T17:51:15Z</time>
      </trkpt>
      <trkpt lat="46.6717" lon="-0.25713">
        <ele>166.93</ele>
        <time>2021-08-02T17:51:16Z</time>
      </trkpt>
      <trkpt lat="46.67158" lon="-0.25724">
        <ele>166.93</ele>
        <time>2021-08-02T17:51:17Z</time>
      </trkpt>
      <trkpt lat="46.67152" lon="-0.25724">
        <ele>166.93</ele>
        <time>2021-08-02T17:51:18Z</time>
      </trkpt>
      <trkpt lat="46.67146" lon="-0.25717">
        <ele>166.93</ele>
        <time>2021-08-02T17:51:19Z</time>
      </trkpt>
      <trkpt lat="46.67143" lon="-0.25711">
        <ele>167.41</ele>
        <time>2021-08-02T17:51:20Z</time>
      </trkpt>
      <trkpt lat="46.67139" lon="-0.25703">
        <ele>167.41</ele>
        <time>2021-08-02T17:51:21Z</time>
      </trkpt>
      <trkpt lat="46.67138" lon="-0.25702">
        <ele>166.93</ele>
        <time>2021-08-02T17:51:22Z</time>
      </trkpt>
      <trkpt lat="46.6713" lon="-0.25679">
        <ele>166.93</ele>
        <time>2021-08-02T17:51:23Z</time>
      </trkpt>
      <trkpt lat="46.67123" lon="-0.25674">
        <ele>166.93</ele>
        <time>2021-08-02T17:51:24Z</time>
      </trkpt>
      <trkpt lat="46.67022" lon="-0.25589">
        <ele>167.41</ele>
        <time>2021-08-02T17:51:33Z</time>
      </trkpt>
      <trkpt lat="46.66825" lon="-0.25433">
        <ele>168.85</ele>
        <time>2021-08-02T17:51:45Z</time>
      </trkpt>
      <trkpt lat="46.66591" lon="-0.25243">
        <ele>165.48</ele>
        <time>2021-08-02T17:52:01Z</time>
      </trkpt>
      <trkpt lat="46.6651" lon="-0.25178">
        <ele>163.56</ele>
        <time>2021-08-02T17:52:08Z</time>
      </trkpt>
      <trkpt lat="46.66492" lon="-0.25173">
        <ele>163.08</ele>
        <time>2021-08-02T17:52:10Z</time>
      </trkpt>
      <trkpt lat="46.66483" lon="-0.25171">
        <ele>162.6</ele>
        <time>2021-08-02T17:52:11Z</time>
      </trkpt>
      <trkpt lat="46.66467" lon="-0.25171">
        <ele>162.6</ele>
        <time>2021-08-02T17:52:12Z</time>
      </trkpt>
      <trkpt lat="46.66458" lon="-0.25171">
        <ele>162.6</ele>
        <time>2021-08-02T17:52:14Z</time>
      </trkpt>
      <trkpt lat="46.6645" lon="-0.25169">
        <ele>163.08</ele>
        <time>2021-08-02T17:52:15Z</time>
      </trkpt>
      <trkpt lat="46.66443" lon="-0.25168">
        <ele>163.56</ele>
        <time>2021-08-02T17:52:16Z</time>
      </trkpt>
      <trkpt lat="46.66437" lon="-0.25156">
        <ele>163.56</ele>
        <time>2021-08-02T17:52:17Z</time>
      </trkpt>
      <trkpt lat="46.66432" lon="-0.25147">
        <ele>163.56</ele>
        <time>2021-08-02T17:52:18Z</time>
      </trkpt>
      <trkpt lat="46.6643" lon="-0.25138">
        <ele>163.08</ele>
        <time>2021-08-02T17:52:19Z</time>
      </trkpt>
      <trkpt lat="46.66431" lon="-0.25127">
        <ele>162.6</ele>
        <time>2021-08-02T17:52:20Z</time>
      </trkpt>
      <trkpt lat="46.66432" lon="-0.25115">
        <ele>162.6</ele>
        <time>2021-08-02T17:52:21Z</time>
      </trkpt>
      <trkpt lat="46.66436" lon="-0.25107">
        <ele>162.6</ele>
        <time>2021-08-02T17:52:22Z</time>
      </trkpt>
      <trkpt lat="46.66443" lon="-0.25099">
        <ele>162.12</ele>
        <time>2021-08-02T17:52:23Z</time>
      </trkpt>
      <trkpt lat="46.66449" lon="-0.25084">
        <ele>161.64</ele>
        <time>2021-08-02T17:52:24Z</time>
      </trkpt>
      <trkpt lat="46.66452" lon="-0.2507">
        <ele>161.64</ele>
        <time>2021-08-02T17:52:25Z</time>
      </trkpt>
      <trkpt lat="46.66466" lon="-0.24914">
        <ele>160.68</ele>
        <time>2021-08-02T17:52:34Z</time>
      </trkpt>
      <trkpt lat="46.66472" lon="-0.24818">
        <ele>159.72</ele>
        <time>2021-08-02T17:52:42Z</time>
      </trkpt>
      <trkpt lat="46.66472" lon="-0.2481">
        <ele>159.72</ele>
        <time>2021-08-02T17:52:43Z</time>
      </trkpt>
      <trkpt lat="46.66465" lon="-0.24793">
        <ele>159.72</ele>
        <time>2021-08-02T17:52:44Z</time>
      </trkpt>
      <trkpt lat="46.66459" lon="-0.24788">
        <ele>159.72</ele>
        <time>2021-08-02T17:52:46Z</time>
      </trkpt>
      <trkpt lat="46.66458" lon="-0.24768">
        <ele>159.72</ele>
        <time>2021-08-02T17:52:47Z</time>
      </trkpt>
      <trkpt lat="46.66458" lon="-0.24768">
        <ele>159.72</ele>
        <time>2021-08-02T17:52:48Z</time>
      </trkpt>
      <trkpt lat="46.6646" lon="-0.24754">
        <ele>159.72</ele>
        <time>2021-08-02T17:52:49Z</time>
      </trkpt>
      <trkpt lat="46.66468" lon="-0.24749">
        <ele>159.24</ele>
        <time>2021-08-02T17:52:50Z</time>
      </trkpt>
      <trkpt lat="46.66468" lon="-0.24749">
        <ele>159.24</ele>
        <time>2021-08-02T17:52:51Z</time>
      </trkpt>
      <trkpt lat="46.66476" lon="-0.24731">
        <ele>159.24</ele>
        <time>2021-08-02T17:52:52Z</time>
      </trkpt>
      <trkpt lat="46.66476" lon="-0.24719">
        <ele>159.24</ele>
        <time>2021-08-02T17:52:53Z</time>
      </trkpt>
      <trkpt lat="46.66477" lon="-0.24705">
        <ele>159.72</ele>
        <time>2021-08-02T17:52:54Z</time>
      </trkpt>
      <trkpt lat="46.66477" lon="-0.24691">
        <ele>159.72</ele>
        <time>2021-08-02T17:52:55Z</time>
      </trkpt>
      <trkpt lat="46.66488" lon="-0.24486">
        <ele>158.75</ele>
        <time>2021-08-02T17:53:07Z</time>
      </trkpt>
      <trkpt lat="46.66507" lon="-0.24145">
        <ele>157.79</ele>
        <time>2021-08-02T17:53:23Z</time>
      </trkpt>
      <trkpt lat="46.66521" lon="-0.23867">
        <ele>159.72</ele>
        <time>2021-08-02T17:53:36Z</time>
      </trkpt>
      <trkpt lat="46.66531" lon="-0.2372">
        <ele>160.2</ele>
        <time>2021-08-02T17:53:45Z</time>
      </trkpt>
      <trkpt lat="46.66529" lon="-0.23709">
        <ele>160.2</ele>
        <time>2021-08-02T17:53:46Z</time>
      </trkpt>
      <trkpt lat="46.66527" lon="-0.23699">
        <ele>159.72</ele>
        <time>2021-08-02T17:53:47Z</time>
      </trkpt>
      <trkpt lat="46.66516" lon="-0.23691">
        <ele>159.24</ele>
        <time>2021-08-02T17:53:48Z</time>
      </trkpt>
      <trkpt lat="46.66516" lon="-0.23691">
        <ele>158.75</ele>
        <time>2021-08-02T17:53:49Z</time>
      </trkpt>
      <trkpt lat="46.66507" lon="-0.23694">
        <ele>157.79</ele>
        <time>2021-08-02T17:53:50Z</time>
      </trkpt>
      <trkpt lat="46.66507" lon="-0.23694">
        <ele>157.31</ele>
        <time>2021-08-02T17:53:51Z</time>
      </trkpt>
      <trkpt lat="46.6649" lon="-0.23696">
        <ele>156.83</ele>
        <time>2021-08-02T17:53:52Z</time>
      </trkpt>
      <trkpt lat="46.66484" lon="-0.23701">
        <ele>156.35</ele>
        <time>2021-08-02T17:53:53Z</time>
      </trkpt>
      <trkpt lat="46.66328" lon="-0.23819">
        <ele>148.18</ele>
        <time>2021-08-02T17:54:10Z</time>
      </trkpt>
      <trkpt lat="46.66276" lon="-0.23871">
        <ele>144.82</ele>
        <time>2021-08-02T17:54:20Z</time>
      </trkpt>
      <trkpt lat="46.66271" lon="-0.23879">
        <ele>144.34</ele>
        <time>2021-08-02T17:54:21Z</time>
      </trkpt>
      <trkpt lat="46.66263" lon="-0.23884">
        <ele>144.34</ele>
        <time>2021-08-02T17:54:22Z</time>
      </trkpt>
      <trkpt lat="46.6619" lon="-0.23897">
        <ele>143.85</ele>
        <time>2021-08-02T17:54:31Z</time>
      </trkpt>
      <trkpt lat="46.66015" lon="-0.23945">
        <ele>141.93</ele>
        <time>2021-08-02T17:54:44Z</time>
      </trkpt>
      <trkpt lat="46.65839" lon="-0.23975">
        <ele>138.09</ele>
        <time>2021-08-02T17:54:58Z</time>
      </trkpt>
      <trkpt lat="46.65628" lon="-0.23955">
        <ele>132.32</ele>
        <time>2021-08-02T17:55:14Z</time>
      </trkpt>
      <trkpt lat="46.65536" lon="-0.23896">
        <ele>140.49</ele>
        <time>2021-08-02T17:55:23Z</time>
      </trkpt>
      <trkpt lat="46.65459" lon="-0.23791">
        <ele>147.22</ele>
        <time>2021-08-02T17:55:32Z</time>
      </trkpt>
      <trkpt lat="46.65417" lon="-0.23667">
        <ele>151.54</ele>
        <time>2021-08-02T17:55:40Z</time>
      </trkpt>
      <trkpt lat="46.65401" lon="-0.23604">
        <ele>152.51</ele>
        <time>2021-08-02T17:55:45Z</time>
      </trkpt>
      <trkpt lat="46.65396" lon="-0.23595">
        <ele>152.51</ele>
        <time>2021-08-02T17:55:46Z</time>
      </trkpt>
      <trkpt lat="46.65384" lon="-0.23577">
        <ele>152.99</ele>
        <time>2021-08-02T17:55:47Z</time>
      </trkpt>
      <trkpt lat="46.65379" lon="-0.23569">
        <ele>152.99</ele>
        <time>2021-08-02T17:55:48Z</time>
      </trkpt>
      <trkpt lat="46.65379" lon="-0.23569">
        <ele>152.99</ele>
        <time>2021-08-02T17:55:49Z</time>
      </trkpt>
      <trkpt lat="46.65379" lon="-0.23556">
        <ele>152.99</ele>
        <time>2021-08-02T17:55:50Z</time>
      </trkpt>
      <trkpt lat="46.65379" lon="-0.23552">
        <ele>152.99</ele>
        <time>2021-08-02T17:55:51Z</time>
      </trkpt>
      <trkpt lat="46.65385" lon="-0.23534">
        <ele>152.51</ele>
        <time>2021-08-02T17:55:52Z</time>
      </trkpt>
      <trkpt lat="46.65384" lon="-0.23523">
        <ele>152.51</ele>
        <time>2021-08-02T17:55:53Z</time>
      </trkpt>
      <trkpt lat="46.65384" lon="-0.2351">
        <ele>152.51</ele>
        <time>2021-08-02T17:55:54Z</time>
      </trkpt>
      <trkpt lat="46.65383" lon="-0.23495">
        <ele>152.51</ele>
        <time>2021-08-02T17:55:55Z</time>
      </trkpt>
      <trkpt lat="46.65359" lon="-0.23313">
        <ele>155.39</ele>
        <time>2021-08-02T17:56:05Z</time>
      </trkpt>
      <trkpt lat="46.65312" lon="-0.23041">
        <ele>160.2</ele>
        <time>2021-08-02T17:56:18Z</time>
      </trkpt>
      <trkpt lat="46.6524" lon="-0.22844">
        <ele>160.68</ele>
        <time>2021-08-02T17:56:28Z</time>
      </trkpt>
      <trkpt lat="46.6515" lon="-0.22633">
        <ele>154.43</ele>
        <time>2021-08-02T17:56:39Z</time>
      </trkpt>
      <trkpt lat="46.65037" lon="-0.22381">
        <ele>155.87</ele>
        <time>2021-08-02T17:56:52Z</time>
      </trkpt>
      <trkpt lat="46.65009" lon="-0.22325">
        <ele>156.83</ele>
        <time>2021-08-02T17:56:58Z</time>
      </trkpt>
      <trkpt lat="46.64988" lon="-0.22287">
        <ele>157.79</ele>
        <time>2021-08-02T17:57:06Z</time>
      </trkpt>
      <trkpt lat="46.64984" lon="-0.22281">
        <ele>157.79</ele>
        <time>2021-08-02T17:57:07Z</time>
      </trkpt>
      <trkpt lat="46.64972" lon="-0.22273">
        <ele>157.79</ele>
        <time>2021-08-02T17:57:09Z</time>
      </trkpt>
      <trkpt lat="46.64969" lon="-0.22266">
        <ele>157.79</ele>
        <time>2021-08-02T17:57:10Z</time>
      </trkpt>
      <trkpt lat="46.64966" lon="-0.22258">
        <ele>157.79</ele>
        <time>2021-08-02T17:57:11Z</time>
      </trkpt>
      <trkpt lat="46.64958" lon="-0.22229">
        <ele>157.79</ele>
        <time>2021-08-02T17:57:14Z</time>
      </trkpt>
      <trkpt lat="46.64953" lon="-0.22219">
        <ele>157.79</ele>
        <time>2021-08-02T17:57:15Z</time>
      </trkpt>
      <trkpt lat="46.64948" lon="-0.2221">
        <ele>158.27</ele>
        <time>2021-08-02T17:57:16Z</time>
      </trkpt>
      <trkpt lat="46.64864" lon="-0.22102">
        <ele>160.68</ele>
        <time>2021-08-02T17:57:27Z</time>
      </trkpt>
      <trkpt lat="46.64782" lon="-0.22035">
        <ele>164.52</ele>
        <time>2021-08-02T17:57:36Z</time>
      </trkpt>
      <trkpt lat="46.64738" lon="-0.2201">
        <ele>166.45</ele>
        <time>2021-08-02T17:57:44Z</time>
      </trkpt>
      <trkpt lat="46.64715" lon="-0.22001">
        <ele>167.89</ele>
        <time>2021-08-02T17:57:53Z</time>
      </trkpt>
      <trkpt lat="46.64711" lon="-0.22">
        <ele>168.37</ele>
        <time>2021-08-02T17:57:54Z</time>
      </trkpt>
      <trkpt lat="46.64706" lon="-0.21999">
        <ele>168.37</ele>
        <time>2021-08-02T17:57:55Z</time>
      </trkpt>
      <trkpt lat="46.64701" lon="-0.22003">
        <ele>168.85</ele>
        <time>2021-08-02T17:57:56Z</time>
      </trkpt>
      <trkpt lat="46.64697" lon="-0.22007">
        <ele>168.85</ele>
        <time>2021-08-02T17:57:57Z</time>
      </trkpt>
      <trkpt lat="46.64692" lon="-0.22011">
        <ele>169.33</ele>
        <time>2021-08-02T17:57:58Z</time>
      </trkpt>
      <trkpt lat="46.64686" lon="-0.22014">
        <ele>169.81</ele>
        <time>2021-08-02T17:57:59Z</time>
      </trkpt>
      <trkpt lat="46.6468" lon="-0.22015">
        <ele>169.81</ele>
        <time>2021-08-02T17:58:00Z</time>
      </trkpt>
      <trkpt lat="46.64675" lon="-0.22013">
        <ele>170.29</ele>
        <time>2021-08-02T17:58:01Z</time>
      </trkpt>
      <trkpt lat="46.64668" lon="-0.22009">
        <ele>170.29</ele>
        <time>2021-08-02T17:58:02Z</time>
      </trkpt>
      <trkpt lat="46.64662" lon="-0.22005">
        <ele>170.29</ele>
        <time>2021-08-02T17:58:03Z</time>
      </trkpt>
      <trkpt lat="46.64657" lon="-0.22001">
        <ele>170.29</ele>
        <time>2021-08-02T17:58:04Z</time>
      </trkpt>
      <trkpt lat="46.64655" lon="-0.21993">
        <ele>170.29</ele>
        <time>2021-08-02T17:58:05Z</time>
      </trkpt>
      <trkpt lat="46.64652" lon="-0.21984">
        <ele>170.29</ele>
        <time>2021-08-02T17:58:06Z</time>
      </trkpt>
      <trkpt lat="46.6465" lon="-0.21975">
        <ele>169.81</ele>
        <time>2021-08-02T17:58:07Z</time>
      </trkpt>
      <trkpt lat="46.64651" lon="-0.21967">
        <ele>169.33</ele>
        <time>2021-08-02T17:58:08Z</time>
      </trkpt>
      <trkpt lat="46.64655" lon="-0.21958">
        <ele>168.85</ele>
        <time>2021-08-02T17:58:09Z</time>
      </trkpt>
      <trkpt lat="46.64658" lon="-0.21948">
        <ele>168.37</ele>
        <time>2021-08-02T17:58:10Z</time>
      </trkpt>
      <trkpt lat="46.64672" lon="-0.21935">
        <ele>167.89</ele>
        <time>2021-08-02T17:58:11Z</time>
      </trkpt>
      <trkpt lat="46.64672" lon="-0.21935">
        <ele>167.41</ele>
        <time>2021-08-02T17:58:12Z</time>
      </trkpt>
      <trkpt lat="46.64687" lon="-0.21913">
        <ele>166.93</ele>
        <time>2021-08-02T17:58:13Z</time>
      </trkpt>
      <trkpt lat="46.64687" lon="-0.21913">
        <ele>167.41</ele>
        <time>2021-08-02T17:58:14Z</time>
      </trkpt>
      <trkpt lat="46.64689" lon="-0.219">
        <ele>166.93</ele>
        <time>2021-08-02T17:58:15Z</time>
      </trkpt>
      <trkpt lat="46.6469" lon="-0.21885">
        <ele>166.93</ele>
        <time>2021-08-02T17:58:16Z</time>
      </trkpt>
      <trkpt lat="46.64703" lon="-0.2168">
        <ele>165</ele>
        <time>2021-08-02T17:58:28Z</time>
      </trkpt>
      <trkpt lat="46.64715" lon="-0.21458">
        <ele>159.24</ele>
        <time>2021-08-02T17:58:38Z</time>
      </trkpt>
      <trkpt lat="46.64733" lon="-0.2113">
        <ele>147.22</ele>
        <time>2021-08-02T17:58:50Z</time>
      </trkpt>
      <trkpt lat="46.64765" lon="-0.20589">
        <ele>126.55</ele>
        <time>2021-08-02T17:59:07Z</time>
      </trkpt>
      <trkpt lat="46.64791" lon="-0.20114">
        <ele>134.72</ele>
        <time>2021-08-02T17:59:22Z</time>
      </trkpt>
      <trkpt lat="46.64825" lon="-0.19505">
        <ele>142.41</ele>
        <time>2021-08-02T17:59:43Z</time>
      </trkpt>
      <trkpt lat="46.64852" lon="-0.19068">
        <ele>148.18</ele>
        <time>2021-08-02T17:59:59Z</time>
      </trkpt>
      <trkpt lat="46.6487" lon="-0.18636">
        <ele>144.34</ele>
        <time>2021-08-02T18:00:14Z</time>
      </trkpt>
      <trkpt lat="46.64894" lon="-0.18219">
        <ele>151.06</ele>
        <time>2021-08-02T18:00:28Z</time>
      </trkpt>
      <trkpt lat="46.64922" lon="-0.17725">
        <ele>148.18</ele>
        <time>2021-08-02T18:00:46Z</time>
      </trkpt>
      <trkpt lat="46.64952" lon="-0.17222">
        <ele>152.51</ele>
        <time>2021-08-02T18:01:04Z</time>
      </trkpt>
      <trkpt lat="46.64986" lon="-0.1665">
        <ele>153.47</ele>
        <time>2021-08-02T18:01:24Z</time>
      </trkpt>
      <trkpt lat="46.65" lon="-0.16431">
        <ele>154.43</ele>
        <time>2021-08-02T18:01:32Z</time>
      </trkpt>
      <trkpt lat="46.65002" lon="-0.16398">
        <ele>154.43</ele>
        <time>2021-08-02T18:01:35Z</time>
      </trkpt>
      <trkpt lat="46.65002" lon="-0.16383">
        <ele>154.43</ele>
        <time>2021-08-02T18:01:36Z</time>
      </trkpt>
      <trkpt lat="46.65003" lon="-0.1637">
        <ele>154.43</ele>
        <time>2021-08-02T18:01:37Z</time>
      </trkpt>
      <trkpt lat="46.6499" lon="-0.16359">
        <ele>154.43</ele>
        <time>2021-08-02T18:01:38Z</time>
      </trkpt>
      <trkpt lat="46.64988" lon="-0.16344">
        <ele>154.43</ele>
        <time>2021-08-02T18:01:39Z</time>
      </trkpt>
      <trkpt lat="46.64995" lon="-0.16324">
        <ele>154.43</ele>
        <time>2021-08-02T18:01:40Z</time>
      </trkpt>
      <trkpt lat="46.64995" lon="-0.16324">
        <ele>154.91</ele>
        <time>2021-08-02T18:01:41Z</time>
      </trkpt>
      <trkpt lat="46.65006" lon="-0.16311">
        <ele>154.91</ele>
        <time>2021-08-02T18:01:42Z</time>
      </trkpt>
      <trkpt lat="46.65008" lon="-0.16284">
        <ele>155.39</ele>
        <time>2021-08-02T18:01:43Z</time>
      </trkpt>
      <trkpt lat="46.65009" lon="-0.16269">
        <ele>155.39</ele>
        <time>2021-08-02T18:01:44Z</time>
      </trkpt>
      <trkpt lat="46.6501" lon="-0.16252">
        <ele>155.87</ele>
        <time>2021-08-02T18:01:45Z</time>
      </trkpt>
      <trkpt lat="46.65019" lon="-0.16086">
        <ele>157.79</ele>
        <time>2021-08-02T18:01:54Z</time>
      </trkpt>
      <trkpt lat="46.65035" lon="-0.15807">
        <ele>158.75</ele>
        <time>2021-08-02T18:02:06Z</time>
      </trkpt>
      <trkpt lat="46.6505" lon="-0.15554">
        <ele>159.24</ele>
        <time>2021-08-02T18:02:15Z</time>
      </trkpt>
      <trkpt lat="46.65072" lon="-0.15186">
        <ele>158.27</ele>
        <time>2021-08-02T18:02:26Z</time>
      </trkpt>
      <trkpt lat="46.6511" lon="-0.14506">
        <ele>153.95</ele>
        <time>2021-08-02T18:02:44Z</time>
      </trkpt>
      <trkpt lat="46.65154" lon="-0.13744">
        <ele>150.58</ele>
        <time>2021-08-02T18:03:04Z</time>
      </trkpt>
      <trkpt lat="46.65187" lon="-0.13168">
        <ele>157.31</ele>
        <time>2021-08-02T18:03:20Z</time>
      </trkpt>
      <trkpt lat="46.65208" lon="-0.12664">
        <ele>170.29</ele>
        <time>2021-08-02T18:03:35Z</time>
      </trkpt>
      <trkpt lat="46.65239" lon="-0.12093">
        <ele>157.31</ele>
        <time>2021-08-02T18:03:52Z</time>
      </trkpt>
      <trkpt lat="46.65265" lon="-0.11629">
        <ele>166.45</ele>
        <time>2021-08-02T18:04:05Z</time>
      </trkpt>
      <trkpt lat="46.65296" lon="-0.1107">
        <ele>168.37</ele>
        <time>2021-08-02T18:04:24Z</time>
      </trkpt>
      <trkpt lat="46.65319" lon="-0.10601">
        <ele>167.41</ele>
        <time>2021-08-02T18:04:39Z</time>
      </trkpt>
      <trkpt lat="46.6536" lon="-0.10029">
        <ele>172.69</ele>
        <time>2021-08-02T18:05:00Z</time>
      </trkpt>
      <trkpt lat="46.65383" lon="-0.09574">
        <ele>175.58</ele>
        <time>2021-08-02T18:05:17Z</time>
      </trkpt>
      <trkpt lat="46.65405" lon="-0.09172">
        <ele>173.66</ele>
        <time>2021-08-02T18:05:32Z</time>
      </trkpt>
      <trkpt lat="46.65413" lon="-0.0903">
        <ele>174.14</ele>
        <time>2021-08-02T18:05:39Z</time>
      </trkpt>
      <trkpt lat="46.65413" lon="-0.09017">
        <ele>174.14</ele>
        <time>2021-08-02T18:05:40Z</time>
      </trkpt>
      <trkpt lat="46.65415" lon="-0.09005">
        <ele>173.66</ele>
        <time>2021-08-02T18:05:41Z</time>
      </trkpt>
      <trkpt lat="46.654" lon="-0.08985">
        <ele>173.66</ele>
        <time>2021-08-02T18:05:43Z</time>
      </trkpt>
      <trkpt lat="46.65402" lon="-0.08968">
        <ele>173.17</ele>
        <time>2021-08-02T18:05:44Z</time>
      </trkpt>
      <trkpt lat="46.65406" lon="-0.08959">
        <ele>173.17</ele>
        <time>2021-08-02T18:05:45Z</time>
      </trkpt>
      <trkpt lat="46.65407" lon="-0.08959">
        <ele>172.69</ele>
        <time>2021-08-02T18:05:46Z</time>
      </trkpt>
      <trkpt lat="46.65416" lon="-0.08938">
        <ele>172.69</ele>
        <time>2021-08-02T18:05:47Z</time>
      </trkpt>
      <trkpt lat="46.65417" lon="-0.08925">
        <ele>172.21</ele>
        <time>2021-08-02T18:05:48Z</time>
      </trkpt>
      <trkpt lat="46.65417" lon="-0.08911">
        <ele>172.21</ele>
        <time>2021-08-02T18:05:49Z</time>
      </trkpt>
      <trkpt lat="46.65432" lon="-0.08655">
        <ele>170.29</ele>
        <time>2021-08-02T18:06:03Z</time>
      </trkpt>
      <trkpt lat="46.65454" lon="-0.08256">
        <ele>168.85</ele>
        <time>2021-08-02T18:06:24Z</time>
      </trkpt>
      <trkpt lat="46.65485" lon="-0.07695">
        <ele>162.6</ele>
        <time>2021-08-02T18:06:54Z</time>
      </trkpt>
      <trkpt lat="46.65507" lon="-0.07388">
        <ele>166.93</ele>
        <time>2021-08-02T18:07:11Z</time>
      </trkpt>
      <trkpt lat="46.65538" lon="-0.07069">
        <ele>165.96</ele>
        <time>2021-08-02T18:07:28Z</time>
      </trkpt>
      <trkpt lat="46.65566" lon="-0.06792">
        <ele>166.45</ele>
        <time>2021-08-02T18:07:39Z</time>
      </trkpt>
      <trkpt lat="46.65603" lon="-0.06411">
        <ele>163.08</ele>
        <time>2021-08-02T18:07:52Z</time>
      </trkpt>
      <trkpt lat="46.65669" lon="-0.05741">
        <ele>160.2</ele>
        <time>2021-08-02T18:08:14Z</time>
      </trkpt>
      <trkpt lat="46.65718" lon="-0.05243">
        <ele>168.37</ele>
        <time>2021-08-02T18:08:32Z</time>
      </trkpt>
      <trkpt lat="46.65771" lon="-0.04681">
        <ele>170.29</ele>
        <time>2021-08-02T18:08:52Z</time>
      </trkpt>
      <trkpt lat="46.65835" lon="-0.0403">
        <ele>165.96</ele>
        <time>2021-08-02T18:09:14Z</time>
      </trkpt>
      <trkpt lat="46.65899" lon="-0.03381">
        <ele>165.96</ele>
        <time>2021-08-02T18:09:36Z</time>
      </trkpt>
      <trkpt lat="46.65974" lon="-0.02607">
        <ele>163.56</ele>
        <time>2021-08-02T18:10:03Z</time>
      </trkpt>
      <trkpt lat="46.65999" lon="-0.02354">
        <ele>162.6</ele>
        <time>2021-08-02T18:10:12Z</time>
      </trkpt>
      <trkpt lat="46.66002" lon="-0.02325">
        <ele>162.12</ele>
        <time>2021-08-02T18:10:13Z</time>
      </trkpt>
      <trkpt lat="46.66041" lon="-0.01922">
        <ele>159.24</ele>
        <time>2021-08-02T18:10:27Z</time>
      </trkpt>
      <trkpt lat="46.6609" lon="-0.01448">
        <ele>157.31</ele>
        <time>2021-08-02T18:10:43Z</time>
      </trkpt>
      <trkpt lat="46.66126" lon="-0.01062">
        <ele>153.95</ele>
        <time>2021-08-02T18:10:57Z</time>
      </trkpt>
      <trkpt lat="46.66149" lon="-0.00844">
        <ele>160.2</ele>
        <time>2021-08-02T18:11:06Z</time>
      </trkpt>
      <trkpt lat="46.66152" lon="-0.00614">
        <ele>160.68</ele>
        <time>2021-08-02T18:11:18Z</time>
      </trkpt>
      <trkpt lat="46.66146" lon="-0.00297">
        <ele>159.24</ele>
        <time>2021-08-02T18:11:36Z</time>
      </trkpt>
      <trkpt lat="46.66137" lon="-0.00028">
        <ele>153.95</ele>
        <time>2021-08-02T18:11:51Z</time>
      </trkpt>
      <trkpt lat="46.66128" lon="0.00304">
        <ele>158.27</ele>
        <time>2021-08-02T18:12:07Z</time>
      </trkpt>
      <trkpt lat="46.66117" lon="0.00672">
        <ele>158.75</ele>
        <time>2021-08-02T18:12:20Z</time>
      </trkpt>
      <trkpt lat="46.66094" lon="0.0147">
        <ele>160.68</ele>
        <time>2021-08-02T18:12:48Z</time>
      </trkpt>
      <trkpt lat="46.66073" lon="0.02178">
        <ele>158.27</ele>
        <time>2021-08-02T18:13:12Z</time>
      </trkpt>
      <trkpt lat="46.6605" lon="0.02951">
        <ele>156.35</ele>
        <time>2021-08-02T18:13:39Z</time>
      </trkpt>
      <trkpt lat="46.66034" lon="0.03502">
        <ele>155.39</ele>
        <time>2021-08-02T18:13:59Z</time>
      </trkpt>
      <trkpt lat="46.66025" lon="0.03845">
        <ele>152.03</ele>
        <time>2021-08-02T18:14:11Z</time>
      </trkpt>
      <trkpt lat="46.66018" lon="0.0415">
        <ele>146.74</ele>
        <time>2021-08-02T18:14:22Z</time>
      </trkpt>
      <trkpt lat="46.66009" lon="0.04433">
        <ele>151.54</ele>
        <time>2021-08-02T18:14:32Z</time>
      </trkpt>
      <trkpt lat="46.66" lon="0.0474">
        <ele>146.74</ele>
        <time>2021-08-02T18:14:43Z</time>
      </trkpt>
      <trkpt lat="46.65988" lon="0.05202">
        <ele>143.37</ele>
        <time>2021-08-02T18:14:59Z</time>
      </trkpt>
      <trkpt lat="46.65976" lon="0.05533">
        <ele>140.49</ele>
        <time>2021-08-02T18:15:11Z</time>
      </trkpt>
      <trkpt lat="46.65971" lon="0.05817">
        <ele>144.34</ele>
        <time>2021-08-02T18:15:22Z</time>
      </trkpt>
      <trkpt lat="46.65963" lon="0.06084">
        <ele>141.93</ele>
        <time>2021-08-02T18:15:35Z</time>
      </trkpt>
      <trkpt lat="46.65954" lon="0.06341">
        <ele>135.2</ele>
        <time>2021-08-02T18:15:49Z</time>
      </trkpt>
      <trkpt lat="46.65948" lon="0.0656">
        <ele>134.72</ele>
        <time>2021-08-02T18:16:01Z</time>
      </trkpt>
      <trkpt lat="46.65941" lon="0.06813">
        <ele>140.49</ele>
        <time>2021-08-02T18:16:17Z</time>
      </trkpt>
      <trkpt lat="46.65934" lon="0.07088">
        <ele>142.41</ele>
        <time>2021-08-02T18:16:33Z</time>
      </trkpt>
      <trkpt lat="46.65945" lon="0.07271">
        <ele>139.53</ele>
        <time>2021-08-02T18:16:45Z</time>
      </trkpt>
      <trkpt lat="46.66004" lon="0.07496">
        <ele>136.16</ele>
        <time>2021-08-02T18:17:01Z</time>
      </trkpt>
      <trkpt lat="46.66008" lon="0.07658">
        <ele>132.8</ele>
        <time>2021-08-02T18:17:12Z</time>
      </trkpt>
      <trkpt lat="46.65986" lon="0.07907">
        <ele>142.41</ele>
        <time>2021-08-02T18:17:26Z</time>
      </trkpt>
      <trkpt lat="46.65949" lon="0.08142">
        <ele>143.85</ele>
        <time>2021-08-02T18:17:38Z</time>
      </trkpt>
      <trkpt lat="46.65907" lon="0.08405">
        <ele>141.45</ele>
        <time>2021-08-02T18:17:50Z</time>
      </trkpt>
      <trkpt lat="46.65866" lon="0.08662">
        <ele>140.01</ele>
        <time>2021-08-02T18:18:02Z</time>
      </trkpt>
      <trkpt lat="46.6581" lon="0.09022">
        <ele>143.37</ele>
        <time>2021-08-02T18:18:16Z</time>
      </trkpt>
      <trkpt lat="46.6573" lon="0.09521">
        <ele>144.82</ele>
        <time>2021-08-02T18:18:34Z</time>
      </trkpt>
      <trkpt lat="46.65626" lon="0.1017">
        <ele>146.74</ele>
        <time>2021-08-02T18:18:57Z</time>
      </trkpt>
      <trkpt lat="46.65529" lon="0.10781">
        <ele>144.82</ele>
        <time>2021-08-02T18:19:18Z</time>
      </trkpt>
      <trkpt lat="46.65437" lon="0.11354">
        <ele>137.13</ele>
        <time>2021-08-02T18:19:38Z</time>
      </trkpt>
      <trkpt lat="46.65354" lon="0.11865">
        <ele>123.19</ele>
        <time>2021-08-02T18:19:55Z</time>
      </trkpt>
      <trkpt lat="46.65283" lon="0.12318">
        <ele>140.01</ele>
        <time>2021-08-02T18:20:12Z</time>
      </trkpt>
      <trkpt lat="46.65223" lon="0.12709">
        <ele>141.45</ele>
        <time>2021-08-02T18:20:26Z</time>
      </trkpt>
      <trkpt lat="46.65167" lon="0.13116">
        <ele>137.61</ele>
        <time>2021-08-02T18:20:40Z</time>
      </trkpt>
      <trkpt lat="46.65126" lon="0.13428">
        <ele>135.2</ele>
        <time>2021-08-02T18:20:49Z</time>
      </trkpt>
      <trkpt lat="46.65048" lon="0.14033">
        <ele>130.4</ele>
        <time>2021-08-02T18:21:05Z</time>
      </trkpt>
      <trkpt lat="46.6499" lon="0.14492">
        <ele>125.11</ele>
        <time>2021-08-02T18:21:16Z</time>
      </trkpt>
      <trkpt lat="46.64946" lon="0.14833">
        <ele>125.11</ele>
        <time>2021-08-02T18:21:26Z</time>
      </trkpt>
      <trkpt lat="46.64885" lon="0.15316">
        <ele>126.07</ele>
        <time>2021-08-02T18:21:41Z</time>
      </trkpt>
      <trkpt lat="46.64814" lon="0.15857">
        <ele>122.22</ele>
        <time>2021-08-02T18:22:01Z</time>
      </trkpt>
      <trkpt lat="46.64737" lon="0.16434">
        <ele>119.82</ele>
        <time>2021-08-02T18:22:21Z</time>
      </trkpt>
      <trkpt lat="46.64709" lon="0.16642">
        <ele>126.07</ele>
        <time>2021-08-02T18:22:30Z</time>
      </trkpt>
      <trkpt lat="46.64703" lon="0.16699">
        <ele>127.51</ele>
        <time>2021-08-02T18:22:36Z</time>
      </trkpt>
      <trkpt lat="46.64702" lon="0.16706">
        <ele>127.99</ele>
        <time>2021-08-02T18:22:46Z</time>
      </trkpt>
      <trkpt lat="46.64698" lon="0.16737">
        <ele>128.95</ele>
        <time>2021-08-02T18:23:02Z</time>
      </trkpt>
      <trkpt lat="46.64688" lon="0.16823">
        <ele>132.32</ele>
        <time>2021-08-02T18:23:11Z</time>
      </trkpt>
      <trkpt lat="46.64684" lon="0.16853">
        <ele>133.28</ele>
        <time>2021-08-02T18:23:17Z</time>
      </trkpt>
      <trkpt lat="46.64684" lon="0.16855">
        <ele>133.28</ele>
        <time>2021-08-02T18:23:32Z</time>
      </trkpt>
      <trkpt lat="46.64684" lon="0.16855">
        <ele>133.28</ele>
        <time>2021-08-02T18:24:06Z</time>
      </trkpt>
      <trkpt lat="46.64676" lon="0.1691">
        <ele>135.2</ele>
        <time>2021-08-02T18:24:15Z</time>
      </trkpt>
      <trkpt lat="46.6466" lon="0.17037">
        <ele>135.68</ele>
        <time>2021-08-02T18:24:24Z</time>
      </trkpt>
      <trkpt lat="46.64643" lon="0.17153">
        <ele>134.24</ele>
        <time>2021-08-02T18:24:36Z</time>
      </trkpt>
      <trkpt lat="46.64619" lon="0.17333">
        <ele>130.4</ele>
        <time>2021-08-02T18:24:48Z</time>
      </trkpt>
      <trkpt lat="46.64566" lon="0.17739">
        <ele>125.11</ele>
        <time>2021-08-02T18:25:10Z</time>
      </trkpt>
      <trkpt lat="46.64541" lon="0.17929">
        <ele>122.71</ele>
        <time>2021-08-02T18:25:22Z</time>
      </trkpt>
      <trkpt lat="46.64523" lon="0.18062">
        <ele>122.71</ele>
        <time>2021-08-02T18:25:35Z</time>
      </trkpt>
      <trkpt lat="46.64521" lon="0.18072">
        <ele>123.67</ele>
        <time>2021-08-02T18:25:43Z</time>
      </trkpt>
      <trkpt lat="46.64519" lon="0.18089">
        <ele>124.15</ele>
        <time>2021-08-02T18:25:49Z</time>
      </trkpt>
      <trkpt lat="46.64506" lon="0.18099">
        <ele>125.11</ele>
        <time>2021-08-02T18:25:55Z</time>
      </trkpt>
      <trkpt lat="46.64503" lon="0.1811">
        <ele>125.11</ele>
        <time>2021-08-02T18:25:56Z</time>
      </trkpt>
      <trkpt lat="46.64503" lon="0.1811">
        <ele>125.11</ele>
        <time>2021-08-02T18:25:57Z</time>
      </trkpt>
      <trkpt lat="46.64507" lon="0.18121">
        <ele>125.11</ele>
        <time>2021-08-02T18:25:58Z</time>
      </trkpt>
      <trkpt lat="46.64509" lon="0.18129">
        <ele>125.11</ele>
        <time>2021-08-02T18:25:59Z</time>
      </trkpt>
      <trkpt lat="46.6451" lon="0.1813">
        <ele>125.11</ele>
        <time>2021-08-02T18:26:00Z</time>
      </trkpt>
      <trkpt lat="46.64514" lon="0.18152">
        <ele>125.59</ele>
        <time>2021-08-02T18:26:01Z</time>
      </trkpt>
      <trkpt lat="46.6451" lon="0.1818">
        <ele>126.55</ele>
        <time>2021-08-02T18:26:02Z</time>
      </trkpt>
      <trkpt lat="46.64487" lon="0.18351">
        <ele>131.84</ele>
        <time>2021-08-02T18:26:11Z</time>
      </trkpt>
      <trkpt lat="46.64453" lon="0.18608">
        <ele>135.68</ele>
        <time>2021-08-02T18:26:22Z</time>
      </trkpt>
      <trkpt lat="46.64392" lon="0.18991">
        <ele>130.88</ele>
        <time>2021-08-02T18:26:35Z</time>
      </trkpt>
      <trkpt lat="46.64236" lon="0.19632">
        <ele>116.46</ele>
        <time>2021-08-02T18:26:56Z</time>
      </trkpt>
      <trkpt lat="46.64132" lon="0.20062">
        <ele>118.38</ele>
        <time>2021-08-02T18:27:12Z</time>
      </trkpt>
      <trkpt lat="46.64039" lon="0.20443">
        <ele>129.43</ele>
        <time>2021-08-02T18:27:28Z</time>
      </trkpt>
      <trkpt lat="46.63935" lon="0.20871">
        <ele>137.61</ele>
        <time>2021-08-02T18:27:45Z</time>
      </trkpt>
      <trkpt lat="46.63828" lon="0.21312">
        <ele>139.53</ele>
        <time>2021-08-02T18:28:01Z</time>
      </trkpt>
      <trkpt lat="46.6373" lon="0.21718">
        <ele>127.51</ele>
        <time>2021-08-02T18:28:15Z</time>
      </trkpt>
      <trkpt lat="46.63597" lon="0.22276">
        <ele>131.36</ele>
        <time>2021-08-02T18:28:34Z</time>
      </trkpt>
      <trkpt lat="46.63472" lon="0.22785">
        <ele>134.24</ele>
        <time>2021-08-02T18:28:52Z</time>
      </trkpt>
      <trkpt lat="46.63383" lon="0.2315">
        <ele>139.05</ele>
        <time>2021-08-02T18:29:05Z</time>
      </trkpt>
      <trkpt lat="46.63265" lon="0.23639">
        <ele>146.74</ele>
        <time>2021-08-02T18:29:24Z</time>
      </trkpt>
      <trkpt lat="46.63141" lon="0.24175">
        <ele>147.7</ele>
        <time>2021-08-02T18:29:44Z</time>
      </trkpt>
      <trkpt lat="46.63084" lon="0.24594">
        <ele>143.37</ele>
        <time>2021-08-02T18:30:00Z</time>
      </trkpt>
      <trkpt lat="46.63049" lon="0.24965">
        <ele>133.76</ele>
        <time>2021-08-02T18:30:13Z</time>
      </trkpt>
      <trkpt lat="46.63018" lon="0.25577">
        <ele>119.82</ele>
        <time>2021-08-02T18:30:33Z</time>
      </trkpt>
      <trkpt lat="46.62968" lon="0.2594">
        <ele>115.01</ele>
        <time>2021-08-02T18:30:48Z</time>
      </trkpt>
      <trkpt lat="46.62941" lon="0.2619">
        <ele>110.69</ele>
        <time>2021-08-02T18:31:00Z</time>
      </trkpt>
      <trkpt lat="46.62935" lon="0.26254">
        <ele>110.69</ele>
        <time>2021-08-02T18:31:04Z</time>
      </trkpt>
      <trkpt lat="46.62933" lon="0.26265">
        <ele>111.65</ele>
        <time>2021-08-02T18:31:05Z</time>
      </trkpt>
      <trkpt lat="46.62929" lon="0.26275">
        <ele>113.09</ele>
        <time>2021-08-02T18:31:06Z</time>
      </trkpt>
      <trkpt lat="46.62917" lon="0.26296">
        <ele>113.09</ele>
        <time>2021-08-02T18:31:08Z</time>
      </trkpt>
      <trkpt lat="46.62914" lon="0.26309">
        <ele>113.09</ele>
        <time>2021-08-02T18:31:09Z</time>
      </trkpt>
      <trkpt lat="46.62913" lon="0.26322">
        <ele>112.13</ele>
        <time>2021-08-02T18:31:10Z</time>
      </trkpt>
      <trkpt lat="46.62916" lon="0.26333">
        <ele>112.61</ele>
        <time>2021-08-02T18:31:11Z</time>
      </trkpt>
      <trkpt lat="46.62919" lon="0.26346">
        <ele>113.09</ele>
        <time>2021-08-02T18:31:12Z</time>
      </trkpt>
      <trkpt lat="46.62928" lon="0.26366">
        <ele>113.57</ele>
        <time>2021-08-02T18:31:13Z</time>
      </trkpt>
      <trkpt lat="46.62928" lon="0.26366">
        <ele>114.05</ele>
        <time>2021-08-02T18:31:14Z</time>
      </trkpt>
      <trkpt lat="46.62933" lon="0.26375">
        <ele>114.05</ele>
        <time>2021-08-02T18:31:15Z</time>
      </trkpt>
      <trkpt lat="46.62937" lon="0.26385">
        <ele>113.57</ele>
        <time>2021-08-02T18:31:16Z</time>
      </trkpt>
      <trkpt lat="46.62941" lon="0.26394">
        <ele>113.57</ele>
        <time>2021-08-02T18:31:17Z</time>
      </trkpt>
      <trkpt lat="46.62966" lon="0.26528">
        <ele>115.01</ele>
        <time>2021-08-02T18:31:26Z</time>
      </trkpt>
      <trkpt lat="46.63014" lon="0.26761">
        <ele>113.09</ele>
        <time>2021-08-02T18:31:38Z</time>
      </trkpt>
      <trkpt lat="46.6308" lon="0.27145">
        <ele>110.21</ele>
        <time>2021-08-02T18:31:54Z</time>
      </trkpt>
      <trkpt lat="46.6316" lon="0.2759">
        <ele>106.84</ele>
        <time>2021-08-02T18:32:12Z</time>
      </trkpt>
      <trkpt lat="46.63256" lon="0.2807">
        <ele>103</ele>
        <time>2021-08-02T18:32:29Z</time>
      </trkpt>
      <trkpt lat="46.63305" lon="0.28465">
        <ele>100.11</ele>
        <time>2021-08-02T18:32:43Z</time>
      </trkpt>
      <trkpt lat="46.63315" lon="0.28933">
        <ele>91.46</ele>
        <time>2021-08-02T18:32:59Z</time>
      </trkpt>
      <trkpt lat="46.63266" lon="0.29112">
        <ele>98.67</ele>
        <time>2021-08-02T18:33:07Z</time>
      </trkpt>
      <trkpt lat="46.63148" lon="0.29294">
        <ele>92.9</ele>
        <time>2021-08-02T18:33:15Z</time>
      </trkpt>
      <trkpt lat="46.62926" lon="0.29504">
        <ele>89.06</ele>
        <time>2021-08-02T18:33:30Z</time>
      </trkpt>
      <trkpt lat="46.62744" lon="0.29684">
        <ele>87.14</ele>
        <time>2021-08-02T18:33:40Z</time>
      </trkpt>
      <trkpt lat="46.62401" lon="0.30022">
        <ele>94.83</ele>
        <time>2021-08-02T18:33:58Z</time>
      </trkpt>
      <trkpt lat="46.62115" lon="0.30347">
        <ele>106.84</ele>
        <time>2021-08-02T18:34:14Z</time>
      </trkpt>
      <trkpt lat="46.61943" lon="0.30626">
        <ele>114.53</ele>
        <time>2021-08-02T18:34:25Z</time>
      </trkpt>
      <trkpt lat="46.61819" lon="0.30913">
        <ele>118.86</ele>
        <time>2021-08-02T18:34:36Z</time>
      </trkpt>
      <trkpt lat="46.61738" lon="0.312">
        <ele>116.46</ele>
        <time>2021-08-02T18:34:46Z</time>
      </trkpt>
      <trkpt lat="46.61682" lon="0.31544">
        <ele>110.21</ele>
        <time>2021-08-02T18:34:57Z</time>
      </trkpt>
      <trkpt lat="46.61666" lon="0.31897">
        <ele>105.88</ele>
        <time>2021-08-02T18:35:07Z</time>
      </trkpt>
      <trkpt lat="46.61699" lon="0.32269">
        <ele>106.84</ele>
        <time>2021-08-02T18:35:17Z</time>
      </trkpt>
      <trkpt lat="46.61786" lon="0.32703">
        <ele>114.53</ele>
        <time>2021-08-02T18:35:29Z</time>
      </trkpt>
      <trkpt lat="46.61903" lon="0.33291">
        <ele>120.3</ele>
        <time>2021-08-02T18:35:48Z</time>
      </trkpt>
      <trkpt lat="46.61949" lon="0.33657">
        <ele>123.19</ele>
        <time>2021-08-02T18:35:59Z</time>
      </trkpt>
      <trkpt lat="46.61965" lon="0.341">
        <ele>121.26</ele>
        <time>2021-08-02T18:36:12Z</time>
      </trkpt>
      <trkpt lat="46.61972" lon="0.3457">
        <ele>111.17</ele>
        <time>2021-08-02T18:36:27Z</time>
      </trkpt>
      <trkpt lat="46.61973" lon="0.35038">
        <ele>96.75</ele>
        <time>2021-08-02T18:36:41Z</time>
      </trkpt>
      <trkpt lat="46.61949" lon="0.35285">
        <ele>85.69</ele>
        <time>2021-08-02T18:36:49Z</time>
      </trkpt>
      <trkpt lat="46.61864" lon="0.35631">
        <ele>80.89</ele>
        <time>2021-08-02T18:36:59Z</time>
      </trkpt>
      <trkpt lat="46.61709" lon="0.36127">
        <ele>97.71</ele>
        <time>2021-08-02T18:37:17Z</time>
      </trkpt>
      <trkpt lat="46.61588" lon="0.36318">
        <ele>99.15</ele>
        <time>2021-08-02T18:37:25Z</time>
      </trkpt>
      <trkpt lat="46.6144" lon="0.36578">
        <ele>104.44</ele>
        <time>2021-08-02T18:37:35Z</time>
      </trkpt>
      <trkpt lat="46.61401" lon="0.36772">
        <ele>105.4</ele>
        <time>2021-08-02T18:37:41Z</time>
      </trkpt>
      <trkpt lat="46.61403" lon="0.37015">
        <ele>102.04</ele>
        <time>2021-08-02T18:37:48Z</time>
      </trkpt>
      <trkpt lat="46.61465" lon="0.37246">
        <ele>98.19</ele>
        <time>2021-08-02T18:37:55Z</time>
      </trkpt>
      <trkpt lat="46.61583" lon="0.37606">
        <ele>96.75</ele>
        <time>2021-08-02T18:38:06Z</time>
      </trkpt>
      <trkpt lat="46.6161" lon="0.37888">
        <ele>101.08</ele>
        <time>2021-08-02T18:38:14Z</time>
      </trkpt>
      <trkpt lat="46.61584" lon="0.38171">
        <ele>105.4</ele>
        <time>2021-08-02T18:38:22Z</time>
      </trkpt>
      <trkpt lat="46.61505" lon="0.38436">
        <ele>105.4</ele>
        <time>2021-08-02T18:38:30Z</time>
      </trkpt>
      <trkpt lat="46.61394" lon="0.38638">
        <ele>99.63</ele>
        <time>2021-08-02T18:38:37Z</time>
      </trkpt>
      <trkpt lat="46.61266" lon="0.38779">
        <ele>101.08</ele>
        <time>2021-08-02T18:38:44Z</time>
      </trkpt>
      <trkpt lat="46.6106" lon="0.38958">
        <ele>108.29</ele>
        <time>2021-08-02T18:38:56Z</time>
      </trkpt>
      <trkpt lat="46.60871" lon="0.39177">
        <ele>114.05</ele>
        <time>2021-08-02T18:39:07Z</time>
      </trkpt>
      <trkpt lat="46.60725" lon="0.39287">
        <ele>113.09</ele>
        <time>2021-08-02T18:39:14Z</time>
      </trkpt>
      <trkpt lat="46.60556" lon="0.3934">
        <ele>107.32</ele>
        <time>2021-08-02T18:39:21Z</time>
      </trkpt>
      <trkpt lat="46.60374" lon="0.39323">
        <ele>94.83</ele>
        <time>2021-08-02T18:39:28Z</time>
      </trkpt>
      <trkpt lat="46.60179" lon="0.3924">
        <ele>99.15</ele>
        <time>2021-08-02T18:39:36Z</time>
      </trkpt>
      <trkpt lat="46.59923" lon="0.39099">
        <ele>106.36</ele>
        <time>2021-08-02T18:39:48Z</time>
      </trkpt>
      <trkpt lat="46.59725" lon="0.39058">
        <ele>109.73</ele>
        <time>2021-08-02T18:39:57Z</time>
      </trkpt>
      <trkpt lat="46.59476" lon="0.39087">
        <ele>113.57</ele>
        <time>2021-08-02T18:40:08Z</time>
      </trkpt>
      <trkpt lat="46.59009" lon="0.39171">
        <ele>115.98</ele>
        <time>2021-08-02T18:40:27Z</time>
      </trkpt>
      <trkpt lat="46.58477" lon="0.39296">
        <ele>122.22</ele>
        <time>2021-08-02T18:40:49Z</time>
      </trkpt>
      <trkpt lat="46.5815" lon="0.39431">
        <ele>122.71</ele>
        <time>2021-08-02T18:41:03Z</time>
      </trkpt>
      <trkpt lat="46.57811" lon="0.39611">
        <ele>131.84</ele>
        <time>2021-08-02T18:41:18Z</time>
      </trkpt>
      <trkpt lat="46.57443" lon="0.3978">
        <ele>133.76</ele>
        <time>2021-08-02T18:41:35Z</time>
      </trkpt>
      <trkpt lat="46.57113" lon="0.39855">
        <ele>128.47</ele>
        <time>2021-08-02T18:41:48Z</time>
      </trkpt>
      <trkpt lat="46.56822" lon="0.39862">
        <ele>127.03</ele>
        <time>2021-08-02T18:42:01Z</time>
      </trkpt>
      <trkpt lat="46.56538" lon="0.39824">
        <ele>127.51</ele>
        <time>2021-08-02T18:42:13Z</time>
      </trkpt>
      <trkpt lat="46.56296" lon="0.39786">
        <ele>131.36</ele>
        <time>2021-08-02T18:42:24Z</time>
      </trkpt>
      <trkpt lat="46.55967" lon="0.39767">
        <ele>135.68</ele>
        <time>2021-08-02T18:42:38Z</time>
      </trkpt>
      <trkpt lat="46.55698" lon="0.39818">
        <ele>137.61</ele>
        <time>2021-08-02T18:42:50Z</time>
      </trkpt>
      <trkpt lat="46.55505" lon="0.39886">
        <ele>137.13</ele>
        <time>2021-08-02T18:43:00Z</time>
      </trkpt>
      <trkpt lat="46.55393" lon="0.39933">
        <ele>134.24</ele>
        <time>2021-08-02T18:43:08Z</time>
      </trkpt>
      <trkpt lat="46.55367" lon="0.39939">
        <ele>135.68</ele>
        <time>2021-08-02T18:43:11Z</time>
      </trkpt>
      <trkpt lat="46.5536" lon="0.39938">
        <ele>136.16</ele>
        <time>2021-08-02T18:43:12Z</time>
      </trkpt>
      <trkpt lat="46.55353" lon="0.39937">
        <ele>136.16</ele>
        <time>2021-08-02T18:43:13Z</time>
      </trkpt>
      <trkpt lat="46.55331" lon="0.39924">
        <ele>136.16</ele>
        <time>2021-08-02T18:43:15Z</time>
      </trkpt>
      <trkpt lat="46.55331" lon="0.39924">
        <ele>135.68</ele>
        <time>2021-08-02T18:43:16Z</time>
      </trkpt>
      <trkpt lat="46.55324" lon="0.39927">
        <ele>135.68</ele>
        <time>2021-08-02T18:43:17Z</time>
      </trkpt>
      <trkpt lat="46.55316" lon="0.3993">
        <ele>135.68</ele>
        <time>2021-08-02T18:43:18Z</time>
      </trkpt>
      <trkpt lat="46.55311" lon="0.39937">
        <ele>135.2</ele>
        <time>2021-08-02T18:43:19Z</time>
      </trkpt>
      <trkpt lat="46.55306" lon="0.39947">
        <ele>135.2</ele>
        <time>2021-08-02T18:43:20Z</time>
      </trkpt>
      <trkpt lat="46.55304" lon="0.39957">
        <ele>134.24</ele>
        <time>2021-08-02T18:43:21Z</time>
      </trkpt>
      <trkpt lat="46.55299" lon="0.39975">
        <ele>133.76</ele>
        <time>2021-08-02T18:43:22Z</time>
      </trkpt>
      <trkpt lat="46.55293" lon="0.39987">
        <ele>133.76</ele>
        <time>2021-08-02T18:43:23Z</time>
      </trkpt>
      <trkpt lat="46.55286" lon="0.39999">
        <ele>133.28</ele>
        <time>2021-08-02T18:43:24Z</time>
      </trkpt>
      <trkpt lat="46.55279" lon="0.4001">
        <ele>133.28</ele>
        <time>2021-08-02T18:43:25Z</time>
      </trkpt>
      <trkpt lat="46.55269" lon="0.40019">
        <ele>133.28</ele>
        <time>2021-08-02T18:43:26Z</time>
      </trkpt>
      <trkpt lat="46.55148" lon="0.40152">
        <ele>130.88</ele>
        <time>2021-08-02T18:43:37Z</time>
      </trkpt>
      <trkpt lat="46.55004" lon="0.40385">
        <ele>127.03</ele>
        <time>2021-08-02T18:43:48Z</time>
      </trkpt>
      <trkpt lat="46.54863" lon="0.40614">
        <ele>124.63</ele>
        <time>2021-08-02T18:44:00Z</time>
      </trkpt>
      <trkpt lat="46.54717" lon="0.40853">
        <ele>127.51</ele>
        <time>2021-08-02T18:44:12Z</time>
      </trkpt>
      <trkpt lat="46.54671" lon="0.40926">
        <ele>126.55</ele>
        <time>2021-08-02T18:44:19Z</time>
      </trkpt>
      <trkpt lat="46.54663" lon="0.4094">
        <ele>124.63</ele>
        <time>2021-08-02T18:44:28Z</time>
      </trkpt>
      <trkpt lat="46.54651" lon="0.40959">
        <ele>125.59</ele>
        <time>2021-08-02T18:44:43Z</time>
      </trkpt>
      <trkpt lat="46.54602" lon="0.41041">
        <ele>127.03</ele>
        <time>2021-08-02T18:44:53Z</time>
      </trkpt>
      <trkpt lat="46.54537" lon="0.41149">
        <ele>126.55</ele>
        <time>2021-08-02T18:45:03Z</time>
      </trkpt>
      <trkpt lat="46.54512" lon="0.41191">
        <ele>125.59</ele>
        <time>2021-08-02T18:45:11Z</time>
      </trkpt>
      <trkpt lat="46.54497" lon="0.41216">
        <ele>124.63</ele>
        <time>2021-08-02T18:45:26Z</time>
      </trkpt>
      <trkpt lat="46.54458" lon="0.41279">
        <ele>123.67</ele>
        <time>2021-08-02T18:45:40Z</time>
      </trkpt>
      <trkpt lat="46.54431" lon="0.41323">
        <ele>122.22</ele>
        <time>2021-08-02T18:45:57Z</time>
      </trkpt>
      <trkpt lat="46.54417" lon="0.41345">
        <ele>122.22</ele>
        <time>2021-08-02T18:46:30Z</time>
      </trkpt>
      <trkpt lat="46.54368" lon="0.41423">
        <ele>122.22</ele>
        <time>2021-08-02T18:46:39Z</time>
      </trkpt>
      <trkpt lat="46.54291" lon="0.41548">
        <ele>125.11</ele>
        <time>2021-08-02T18:46:53Z</time>
      </trkpt>
      <trkpt lat="46.54234" lon="0.41643">
        <ele>126.55</ele>
        <time>2021-08-02T18:47:04Z</time>
      </trkpt>
      <trkpt lat="46.54095" lon="0.41869">
        <ele>122.22</ele>
        <time>2021-08-02T18:47:18Z</time>
      </trkpt>
      <trkpt lat="46.53985" lon="0.42049">
        <ele>123.19</ele>
        <time>2021-08-02T18:47:29Z</time>
      </trkpt>
      <trkpt lat="46.53764" lon="0.42404">
        <ele>135.68</ele>
        <time>2021-08-02T18:47:47Z</time>
      </trkpt>
      <trkpt lat="46.53534" lon="0.42776">
        <ele>138.57</ele>
        <time>2021-08-02T18:48:05Z</time>
      </trkpt>
      <trkpt lat="46.53307" lon="0.43152">
        <ele>137.13</ele>
        <time>2021-08-02T18:48:21Z</time>
      </trkpt>
      <trkpt lat="46.53057" lon="0.4356">
        <ele>128.47</ele>
        <time>2021-08-02T18:48:41Z</time>
      </trkpt>
      <trkpt lat="46.52817" lon="0.43955">
        <ele>127.51</ele>
        <time>2021-08-02T18:48:59Z</time>
      </trkpt>
      <trkpt lat="46.52673" lon="0.44192">
        <ele>129.43</ele>
        <time>2021-08-02T18:49:12Z</time>
      </trkpt>
      <trkpt lat="46.52572" lon="0.44354">
        <ele>126.07</ele>
        <time>2021-08-02T18:49:22Z</time>
      </trkpt>
      <trkpt lat="46.52424" lon="0.44594">
        <ele>124.63</ele>
        <time>2021-08-02T18:49:35Z</time>
      </trkpt>
      <trkpt lat="46.52122" lon="0.45087">
        <ele>127.99</ele>
        <time>2021-08-02T18:49:58Z</time>
      </trkpt>
      <trkpt lat="46.51805" lon="0.456">
        <ele>127.99</ele>
        <time>2021-08-02T18:50:21Z</time>
      </trkpt>
      <trkpt lat="46.51531" lon="0.46047">
        <ele>131.84</ele>
        <time>2021-08-02T18:50:41Z</time>
      </trkpt>
      <trkpt lat="46.51277" lon="0.46461">
        <ele>130.4</ele>
        <time>2021-08-02T18:51:00Z</time>
      </trkpt>
      <trkpt lat="46.51131" lon="0.46697">
        <ele>129.92</ele>
        <time>2021-08-02T18:51:12Z</time>
      </trkpt>
      <trkpt lat="46.51027" lon="0.46867">
        <ele>127.51</ele>
        <time>2021-08-02T18:51:27Z</time>
      </trkpt>
      <trkpt lat="46.50904" lon="0.4707">
        <ele>124.15</ele>
        <time>2021-08-02T18:51:42Z</time>
      </trkpt>
      <trkpt lat="46.50863" lon="0.47135">
        <ele>125.59</ele>
        <time>2021-08-02T18:51:54Z</time>
      </trkpt>
      <trkpt lat="46.50823" lon="0.47189">
        <ele>127.03</ele>
        <time>2021-08-02T18:52:02Z</time>
      </trkpt>
      <trkpt lat="46.50795" lon="0.47206">
        <ele>127.51</ele>
        <time>2021-08-02T18:52:05Z</time>
      </trkpt>
      <trkpt lat="46.50795" lon="0.47206">
        <ele>127.99</ele>
        <time>2021-08-02T18:52:06Z</time>
      </trkpt>
      <trkpt lat="46.50789" lon="0.47217">
        <ele>127.99</ele>
        <time>2021-08-02T18:52:07Z</time>
      </trkpt>
      <trkpt lat="46.50787" lon="0.47228">
        <ele>127.99</ele>
        <time>2021-08-02T18:52:08Z</time>
      </trkpt>
      <trkpt lat="46.50785" lon="0.47239">
        <ele>127.99</ele>
        <time>2021-08-02T18:52:09Z</time>
      </trkpt>
      <trkpt lat="46.50785" lon="0.47269">
        <ele>128.47</ele>
        <time>2021-08-02T18:52:10Z</time>
      </trkpt>
      <trkpt lat="46.50785" lon="0.47269">
        <ele>129.43</ele>
        <time>2021-08-02T18:52:11Z</time>
      </trkpt>
      <trkpt lat="46.50778" lon="0.4728">
        <ele>129.92</ele>
        <time>2021-08-02T18:52:12Z</time>
      </trkpt>
      <trkpt lat="46.50771" lon="0.47292">
        <ele>129.43</ele>
        <time>2021-08-02T18:52:13Z</time>
      </trkpt>
      <trkpt lat="46.50681" lon="0.47435">
        <ele>127.51</ele>
        <time>2021-08-02T18:52:21Z</time>
      </trkpt>
      <trkpt lat="46.50544" lon="0.4764">
        <ele>125.59</ele>
        <time>2021-08-02T18:52:33Z</time>
      </trkpt>
      <trkpt lat="46.50386" lon="0.47858">
        <ele>125.11</ele>
        <time>2021-08-02T18:52:45Z</time>
      </trkpt>
      <trkpt lat="46.50242" lon="0.4807">
        <ele>123.19</ele>
        <time>2021-08-02T18:52:55Z</time>
      </trkpt>
      <trkpt lat="46.50015" lon="0.48438">
        <ele>121.26</ele>
        <time>2021-08-02T18:53:09Z</time>
      </trkpt>
      <trkpt lat="46.49601" lon="0.49107">
        <ele>117.42</ele>
        <time>2021-08-02T18:53:33Z</time>
      </trkpt>
      <trkpt lat="46.494" lon="0.49434">
        <ele>119.82</ele>
        <time>2021-08-02T18:53:45Z</time>
      </trkpt>
      <trkpt lat="46.49079" lon="0.49929">
        <ele>122.71</ele>
        <time>2021-08-02T18:54:04Z</time>
      </trkpt>
      <trkpt lat="46.48827" lon="0.50332">
        <ele>124.63</ele>
        <time>2021-08-02T18:54:19Z</time>
      </trkpt>
      <trkpt lat="46.48708" lon="0.50647">
        <ele>127.51</ele>
        <time>2021-08-02T18:54:29Z</time>
      </trkpt>
      <trkpt lat="46.48641" lon="0.50961">
        <ele>127.03</ele>
        <time>2021-08-02T18:54:38Z</time>
      </trkpt>
      <trkpt lat="46.4862" lon="0.51328">
        <ele>124.63</ele>
        <time>2021-08-02T18:54:48Z</time>
      </trkpt>
      <trkpt lat="46.48595" lon="0.52203">
        <ele>121.74</ele>
        <time>2021-08-02T18:55:10Z</time>
      </trkpt>
      <trkpt lat="46.48559" lon="0.52566">
        <ele>121.26</ele>
        <time>2021-08-02T18:55:20Z</time>
      </trkpt>
      <trkpt lat="46.48486" lon="0.52874">
        <ele>121.74</ele>
        <time>2021-08-02T18:55:30Z</time>
      </trkpt>
      <trkpt lat="46.48364" lon="0.53186">
        <ele>121.74</ele>
        <time>2021-08-02T18:55:40Z</time>
      </trkpt>
      <trkpt lat="46.4818" lon="0.53503">
        <ele>120.3</ele>
        <time>2021-08-02T18:55:51Z</time>
      </trkpt>
      <trkpt lat="46.47997" lon="0.53712">
        <ele>121.74</ele>
        <time>2021-08-02T18:56:02Z</time>
      </trkpt>
      <trkpt lat="46.47744" lon="0.53905">
        <ele>119.82</ele>
        <time>2021-08-02T18:56:13Z</time>
      </trkpt>
      <trkpt lat="46.47292" lon="0.54188">
        <ele>122.71</ele>
        <time>2021-08-02T18:56:35Z</time>
      </trkpt>
      <trkpt lat="46.46861" lon="0.54456">
        <ele>121.26</ele>
        <time>2021-08-02T18:56:55Z</time>
      </trkpt>
      <trkpt lat="46.46484" lon="0.54715">
        <ele>119.82</ele>
        <time>2021-08-02T18:57:12Z</time>
      </trkpt>
      <trkpt lat="46.46228" lon="0.54966">
        <ele>119.34</ele>
        <time>2021-08-02T18:57:25Z</time>
      </trkpt>
      <trkpt lat="46.46015" lon="0.55239">
        <ele>112.61</ele>
        <time>2021-08-02T18:57:38Z</time>
      </trkpt>
      <trkpt lat="46.45806" lon="0.55552">
        <ele>113.57</ele>
        <time>2021-08-02T18:57:53Z</time>
      </trkpt>
      <trkpt lat="46.45673" lon="0.55705">
        <ele>119.82</ele>
        <time>2021-08-02T18:58:03Z</time>
      </trkpt>
      <trkpt lat="46.45615" lon="0.55769">
        <ele>121.26</ele>
        <time>2021-08-02T18:58:10Z</time>
      </trkpt>
      <trkpt lat="46.45605" lon="0.55779">
        <ele>122.22</ele>
        <time>2021-08-02T18:58:12Z</time>
      </trkpt>
      <trkpt lat="46.45601" lon="0.55785">
        <ele>122.71</ele>
        <time>2021-08-02T18:58:13Z</time>
      </trkpt>
      <trkpt lat="46.45597" lon="0.55791">
        <ele>123.19</ele>
        <time>2021-08-02T18:58:14Z</time>
      </trkpt>
      <trkpt lat="46.45581" lon="0.55785">
        <ele>123.67</ele>
        <time>2021-08-02T18:58:16Z</time>
      </trkpt>
      <trkpt lat="46.45572" lon="0.55793">
        <ele>124.15</ele>
        <time>2021-08-02T18:58:17Z</time>
      </trkpt>
      <trkpt lat="46.45569" lon="0.55801">
        <ele>124.15</ele>
        <time>2021-08-02T18:58:18Z</time>
      </trkpt>
      <trkpt lat="46.45567" lon="0.55807">
        <ele>124.15</ele>
        <time>2021-08-02T18:58:19Z</time>
      </trkpt>
      <trkpt lat="46.45571" lon="0.55819">
        <ele>123.67</ele>
        <time>2021-08-02T18:58:20Z</time>
      </trkpt>
      <trkpt lat="46.45571" lon="0.55835">
        <ele>123.19</ele>
        <time>2021-08-02T18:58:21Z</time>
      </trkpt>
      <trkpt lat="46.45567" lon="0.55847">
        <ele>122.71</ele>
        <time>2021-08-02T18:58:22Z</time>
      </trkpt>
      <trkpt lat="46.45563" lon="0.5586">
        <ele>122.71</ele>
        <time>2021-08-02T18:58:23Z</time>
      </trkpt>
      <trkpt lat="46.45508" lon="0.56023">
        <ele>121.74</ele>
        <time>2021-08-02T18:58:32Z</time>
      </trkpt>
      <trkpt lat="46.45427" lon="0.56184">
        <ele>118.38</ele>
        <time>2021-08-02T18:58:40Z</time>
      </trkpt>
      <trkpt lat="46.45249" lon="0.56496">
        <ele>115.5</ele>
        <time>2021-08-02T18:58:56Z</time>
      </trkpt>
      <trkpt lat="46.45069" lon="0.56813">
        <ele>102.52</ele>
        <time>2021-08-02T18:59:09Z</time>
      </trkpt>
      <trkpt lat="46.44945" lon="0.57031">
        <ele>108.77</ele>
        <time>2021-08-02T18:59:20Z</time>
      </trkpt>
      <trkpt lat="46.44761" lon="0.57357">
        <ele>104.92</ele>
        <time>2021-08-02T18:59:37Z</time>
      </trkpt>
      <trkpt lat="46.44584" lon="0.57669">
        <ele>106.84</ele>
        <time>2021-08-02T18:59:52Z</time>
      </trkpt>
      <trkpt lat="46.44428" lon="0.57944">
        <ele>113.09</ele>
        <time>2021-08-02T19:00:06Z</time>
      </trkpt>
      <trkpt lat="46.44256" lon="0.58245">
        <ele>124.63</ele>
        <time>2021-08-02T19:00:21Z</time>
      </trkpt>
      <trkpt lat="46.44099" lon="0.58523">
        <ele>118.38</ele>
        <time>2021-08-02T19:00:35Z</time>
      </trkpt>
      <trkpt lat="46.43875" lon="0.58916">
        <ele>105.4</ele>
        <time>2021-08-02T19:00:54Z</time>
      </trkpt>
      <trkpt lat="46.43729" lon="0.59171">
        <ele>105.88</ele>
        <time>2021-08-02T19:01:09Z</time>
      </trkpt>
      <trkpt lat="46.43618" lon="0.59366">
        <ele>102.52</ele>
        <time>2021-08-02T19:01:23Z</time>
      </trkpt>
      <trkpt lat="46.43577" lon="0.59446">
        <ele>98.19</ele>
        <time>2021-08-02T19:01:29Z</time>
      </trkpt>
      <trkpt lat="46.43577" lon="0.59446">
        <ele>96.75</ele>
        <time>2021-08-02T19:01:30Z</time>
      </trkpt>
      <trkpt lat="46.43574" lon="0.59462">
        <ele>96.27</ele>
        <time>2021-08-02T19:01:31Z</time>
      </trkpt>
      <trkpt lat="46.43575" lon="0.59479">
        <ele>97.71</ele>
        <time>2021-08-02T19:01:32Z</time>
      </trkpt>
      <trkpt lat="46.43579" lon="0.59494">
        <ele>97.71</ele>
        <time>2021-08-02T19:01:33Z</time>
      </trkpt>
      <trkpt lat="46.43588" lon="0.59525">
        <ele>97.71</ele>
        <time>2021-08-02T19:01:34Z</time>
      </trkpt>
      <trkpt lat="46.4359" lon="0.59537">
        <ele>97.23</ele>
        <time>2021-08-02T19:01:36Z</time>
      </trkpt>
      <trkpt lat="46.43593" lon="0.59547">
        <ele>95.79</ele>
        <time>2021-08-02T19:01:37Z</time>
      </trkpt>
      <trkpt lat="46.43591" lon="0.59559">
        <ele>95.31</ele>
        <time>2021-08-02T19:01:38Z</time>
      </trkpt>
      <trkpt lat="46.43588" lon="0.59571">
        <ele>94.83</ele>
        <time>2021-08-02T19:01:39Z</time>
      </trkpt>
      <trkpt lat="46.43586" lon="0.59583">
        <ele>94.83</ele>
        <time>2021-08-02T19:01:40Z</time>
      </trkpt>
      <trkpt lat="46.43566" lon="0.59696">
        <ele>95.79</ele>
        <time>2021-08-02T19:01:52Z</time>
      </trkpt>
      <trkpt lat="46.43561" lon="0.59725">
        <ele>96.27</ele>
        <time>2021-08-02T19:02:04Z</time>
      </trkpt>
      <trkpt lat="46.43554" lon="0.59762">
        <ele>97.23</ele>
        <time>2021-08-02T19:02:21Z</time>
      </trkpt>
      <trkpt lat="46.43528" lon="0.5984">
        <ele>99.63</ele>
        <time>2021-08-02T19:02:30Z</time>
      </trkpt>
      <trkpt lat="46.43464" lon="0.60013">
        <ele>107.81</ele>
        <time>2021-08-02T19:02:41Z</time>
      </trkpt>
      <trkpt lat="46.43368" lon="0.60277">
        <ele>115.01</ele>
        <time>2021-08-02T19:02:53Z</time>
      </trkpt>
      <trkpt lat="46.43249" lon="0.60606">
        <ele>128.47</ele>
        <time>2021-08-02T19:03:06Z</time>
      </trkpt>
      <trkpt lat="46.43076" lon="0.61084">
        <ele>123.19</ele>
        <time>2021-08-02T19:03:25Z</time>
      </trkpt>
      <trkpt lat="46.42921" lon="0.61506">
        <ele>115.5</ele>
        <time>2021-08-02T19:03:40Z</time>
      </trkpt>
      <trkpt lat="46.4276" lon="0.61942">
        <ele>115.98</ele>
        <time>2021-08-02T19:03:57Z</time>
      </trkpt>
      <trkpt lat="46.4262" lon="0.62324">
        <ele>129.43</ele>
        <time>2021-08-02T19:04:14Z</time>
      </trkpt>
      <trkpt lat="46.42478" lon="0.62713">
        <ele>132.32</ele>
        <time>2021-08-02T19:04:30Z</time>
      </trkpt>
      <trkpt lat="46.42329" lon="0.63122">
        <ele>129.92</ele>
        <time>2021-08-02T19:04:46Z</time>
      </trkpt>
      <trkpt lat="46.42281" lon="0.63243">
        <ele>134.72</ele>
        <time>2021-08-02T19:04:53Z</time>
      </trkpt>
      <trkpt lat="46.42277" lon="0.63254">
        <ele>134.72</ele>
        <time>2021-08-02T19:04:54Z</time>
      </trkpt>
      <trkpt lat="46.42257" lon="0.63264">
        <ele>135.2</ele>
        <time>2021-08-02T19:04:56Z</time>
      </trkpt>
      <trkpt lat="46.42252" lon="0.63273">
        <ele>135.2</ele>
        <time>2021-08-02T19:04:57Z</time>
      </trkpt>
      <trkpt lat="46.42248" lon="0.6328">
        <ele>135.2</ele>
        <time>2021-08-02T19:04:58Z</time>
      </trkpt>
      <trkpt lat="46.4225" lon="0.63295">
        <ele>135.2</ele>
        <time>2021-08-02T19:04:59Z</time>
      </trkpt>
      <trkpt lat="46.42252" lon="0.63304">
        <ele>135.2</ele>
        <time>2021-08-02T19:05:00Z</time>
      </trkpt>
      <trkpt lat="46.42255" lon="0.63321">
        <ele>134.72</ele>
        <time>2021-08-02T19:05:01Z</time>
      </trkpt>
      <trkpt lat="46.4225" lon="0.63331">
        <ele>135.2</ele>
        <time>2021-08-02T19:05:02Z</time>
      </trkpt>
      <trkpt lat="46.4224" lon="0.63359">
        <ele>135.2</ele>
        <time>2021-08-02T19:05:03Z</time>
      </trkpt>
      <trkpt lat="46.42234" lon="0.63375">
        <ele>134.72</ele>
        <time>2021-08-02T19:05:04Z</time>
      </trkpt>
      <trkpt lat="46.42185" lon="0.63512">
        <ele>135.68</ele>
        <time>2021-08-02T19:05:13Z</time>
      </trkpt>
      <trkpt lat="46.4209" lon="0.63774">
        <ele>132.32</ele>
        <time>2021-08-02T19:05:25Z</time>
      </trkpt>
      <trkpt lat="46.41933" lon="0.64205">
        <ele>140.49</ele>
        <time>2021-08-02T19:05:42Z</time>
      </trkpt>
      <trkpt lat="46.4173" lon="0.64758">
        <ele>143.37</ele>
        <time>2021-08-02T19:06:01Z</time>
      </trkpt>
      <trkpt lat="46.41484" lon="0.65437">
        <ele>142.41</ele>
        <time>2021-08-02T19:06:27Z</time>
      </trkpt>
      <trkpt lat="46.41445" lon="0.65628">
        <ele>142.41</ele>
        <time>2021-08-02T19:06:34Z</time>
      </trkpt>
      <trkpt lat="46.41388" lon="0.66224">
        <ele>131.36</ele>
        <time>2021-08-02T19:06:55Z</time>
      </trkpt>
      <trkpt lat="46.41395" lon="0.66409">
        <ele>123.19</ele>
        <time>2021-08-02T19:07:03Z</time>
      </trkpt>
      <trkpt lat="46.41399" lon="0.66433">
        <ele>122.71</ele>
        <time>2021-08-02T19:07:04Z</time>
      </trkpt>
      <trkpt lat="46.41404" lon="0.66455">
        <ele>122.71</ele>
        <time>2021-08-02T19:07:05Z</time>
      </trkpt>
      <trkpt lat="46.4141" lon="0.66476">
        <ele>123.19</ele>
        <time>2021-08-02T19:07:06Z</time>
      </trkpt>
      <trkpt lat="46.41417" lon="0.66497">
        <ele>122.71</ele>
        <time>2021-08-02T19:07:07Z</time>
      </trkpt>
      <trkpt lat="46.41425" lon="0.66514">
        <ele>121.74</ele>
        <time>2021-08-02T19:07:08Z</time>
      </trkpt>
      <trkpt lat="46.41448" lon="0.66548">
        <ele>119.82</ele>
        <time>2021-08-02T19:07:10Z</time>
      </trkpt>
      <trkpt lat="46.41544" lon="0.66692">
        <ele>114.53</ele>
        <time>2021-08-02T19:07:18Z</time>
      </trkpt>
      <trkpt lat="46.41554" lon="0.66714">
        <ele>114.05</ele>
        <time>2021-08-02T19:07:19Z</time>
      </trkpt>
      <trkpt lat="46.41561" lon="0.66736">
        <ele>114.05</ele>
        <time>2021-08-02T19:07:20Z</time>
      </trkpt>
      <trkpt lat="46.41625" lon="0.66916">
        <ele>105.4</ele>
        <time>2021-08-02T19:07:28Z</time>
      </trkpt>
      <trkpt lat="46.41634" lon="0.66938">
        <ele>103.96</ele>
        <time>2021-08-02T19:07:29Z</time>
      </trkpt>
      <trkpt lat="46.41641" lon="0.66961">
        <ele>102.52</ele>
        <time>2021-08-02T19:07:30Z</time>
      </trkpt>
      <trkpt lat="46.41646" lon="0.66983">
        <ele>102.52</ele>
        <time>2021-08-02T19:07:31Z</time>
      </trkpt>
      <trkpt lat="46.4165" lon="0.67005">
        <ele>102.04</ele>
        <time>2021-08-02T19:07:32Z</time>
      </trkpt>
      <trkpt lat="46.41653" lon="0.67027">
        <ele>100.6</ele>
        <time>2021-08-02T19:07:33Z</time>
      </trkpt>
      <trkpt lat="46.41652" lon="0.67051">
        <ele>100.11</ele>
        <time>2021-08-02T19:07:34Z</time>
      </trkpt>
      <trkpt lat="46.41641" lon="0.67197">
        <ele>95.31</ele>
        <time>2021-08-02T19:07:40Z</time>
      </trkpt>
      <trkpt lat="46.41637" lon="0.6722">
        <ele>94.83</ele>
        <time>2021-08-02T19:07:41Z</time>
      </trkpt>
      <trkpt lat="46.4163" lon="0.67243">
        <ele>94.35</ele>
        <time>2021-08-02T19:07:42Z</time>
      </trkpt>
      <trkpt lat="46.41604" lon="0.6733">
        <ele>91.46</ele>
        <time>2021-08-02T19:07:46Z</time>
      </trkpt>
      <trkpt lat="46.41601" lon="0.67352">
        <ele>90.02</ele>
        <time>2021-08-02T19:07:47Z</time>
      </trkpt>
      <trkpt lat="46.416" lon="0.67375">
        <ele>89.06</ele>
        <time>2021-08-02T19:07:48Z</time>
      </trkpt>
      <trkpt lat="46.41599" lon="0.67399">
        <ele>89.54</ele>
        <time>2021-08-02T19:07:49Z</time>
      </trkpt>
      <trkpt lat="46.41603" lon="0.67422">
        <ele>89.06</ele>
        <time>2021-08-02T19:07:50Z</time>
      </trkpt>
      <trkpt lat="46.41607" lon="0.67445">
        <ele>88.1</ele>
        <time>2021-08-02T19:07:51Z</time>
      </trkpt>
      <trkpt lat="46.41616" lon="0.67468">
        <ele>88.1</ele>
        <time>2021-08-02T19:07:52Z</time>
      </trkpt>
      <trkpt lat="46.41624" lon="0.67489">
        <ele>87.14</ele>
        <time>2021-08-02T19:07:53Z</time>
      </trkpt>
      <trkpt lat="46.41633" lon="0.67507">
        <ele>86.18</ele>
        <time>2021-08-02T19:07:54Z</time>
      </trkpt>
      <trkpt lat="46.41646" lon="0.67524">
        <ele>85.69</ele>
        <time>2021-08-02T19:07:55Z</time>
      </trkpt>
      <trkpt lat="46.41706" lon="0.67613">
        <ele>82.33</ele>
        <time>2021-08-02T19:08:00Z</time>
      </trkpt>
      <trkpt lat="46.41716" lon="0.67633">
        <ele>82.33</ele>
        <time>2021-08-02T19:08:01Z</time>
      </trkpt>
      <trkpt lat="46.41723" lon="0.67654">
        <ele>81.85</ele>
        <time>2021-08-02T19:08:02Z</time>
      </trkpt>
      <trkpt lat="46.41726" lon="0.67676">
        <ele>80.41</ele>
        <time>2021-08-02T19:08:03Z</time>
      </trkpt>
      <trkpt lat="46.4173" lon="0.67727">
        <ele>78.48</ele>
        <time>2021-08-02T19:08:04Z</time>
      </trkpt>
      <trkpt lat="46.4173" lon="0.67753">
        <ele>78</ele>
        <time>2021-08-02T19:08:05Z</time>
      </trkpt>
      <trkpt lat="46.41728" lon="0.68018">
        <ele>77.04</ele>
        <time>2021-08-02T19:08:16Z</time>
      </trkpt>
      <trkpt lat="46.41727" lon="0.68042">
        <ele>77.04</ele>
        <time>2021-08-02T19:08:17Z</time>
      </trkpt>
      <trkpt lat="46.41725" lon="0.68062">
        <ele>77.52</ele>
        <time>2021-08-02T19:08:18Z</time>
      </trkpt>
      <trkpt lat="46.4172" lon="0.68083">
        <ele>78.97</ele>
        <time>2021-08-02T19:08:19Z</time>
      </trkpt>
      <trkpt lat="46.41712" lon="0.68101">
        <ele>79.93</ele>
        <time>2021-08-02T19:08:20Z</time>
      </trkpt>
      <trkpt lat="46.41703" lon="0.6812">
        <ele>81.85</ele>
        <time>2021-08-02T19:08:21Z</time>
      </trkpt>
      <trkpt lat="46.41693" lon="0.68135">
        <ele>81.85</ele>
        <time>2021-08-02T19:08:22Z</time>
      </trkpt>
      <trkpt lat="46.41682" lon="0.68152">
        <ele>80.89</ele>
        <time>2021-08-02T19:08:23Z</time>
      </trkpt>
      <trkpt lat="46.41526" lon="0.68352">
        <ele>81.37</ele>
        <time>2021-08-02T19:08:34Z</time>
      </trkpt>
      <trkpt lat="46.41307" lon="0.68625">
        <ele>81.85</ele>
        <time>2021-08-02T19:08:48Z</time>
      </trkpt>
      <trkpt lat="46.41108" lon="0.68874">
        <ele>76.08</ele>
        <time>2021-08-02T19:09:01Z</time>
      </trkpt>
      <trkpt lat="46.40941" lon="0.69082">
        <ele>77.04</ele>
        <time>2021-08-02T19:09:14Z</time>
      </trkpt>
      <trkpt lat="46.40768" lon="0.69299">
        <ele>77.04</ele>
        <time>2021-08-02T19:09:28Z</time>
      </trkpt>
      <trkpt lat="46.40594" lon="0.69517">
        <ele>74.16</ele>
        <time>2021-08-02T19:09:47Z</time>
      </trkpt>
      <trkpt lat="46.40501" lon="0.69634">
        <ele>74.64</ele>
        <time>2021-08-02T19:09:57Z</time>
      </trkpt>
      <trkpt lat="46.40492" lon="0.69646">
        <ele>74.64</ele>
        <time>2021-08-02T19:09:58Z</time>
      </trkpt>
      <trkpt lat="46.40486" lon="0.69659">
        <ele>75.6</ele>
        <time>2021-08-02T19:09:59Z</time>
      </trkpt>
      <trkpt lat="46.40482" lon="0.69673">
        <ele>76.08</ele>
        <time>2021-08-02T19:10:00Z</time>
      </trkpt>
      <trkpt lat="46.40475" lon="0.69706">
        <ele>75.12</ele>
        <time>2021-08-02T19:10:01Z</time>
      </trkpt>
      <trkpt lat="46.40475" lon="0.69724">
        <ele>74.64</ele>
        <time>2021-08-02T19:10:02Z</time>
      </trkpt>
      <trkpt lat="46.40475" lon="0.69724">
        <ele>75.12</ele>
        <time>2021-08-02T19:10:03Z</time>
      </trkpt>
      <trkpt lat="46.40463" lon="0.69905">
        <ele>77.04</ele>
        <time>2021-08-02T19:10:15Z</time>
      </trkpt>
      <trkpt lat="46.40453" lon="0.7011">
        <ele>76.56</ele>
        <time>2021-08-02T19:10:28Z</time>
      </trkpt>
      <trkpt lat="46.40444" lon="0.70253">
        <ele>77.04</ele>
        <time>2021-08-02T19:10:38Z</time>
      </trkpt>
      <trkpt lat="46.40435" lon="0.70395">
        <ele>74.64</ele>
        <time>2021-08-02T19:10:47Z</time>
      </trkpt>
      <trkpt lat="46.40433" lon="0.70429">
        <ele>74.64</ele>
        <time>2021-08-02T19:10:49Z</time>
      </trkpt>
      <trkpt lat="46.4043" lon="0.70512">
        <ele>74.16</ele>
        <time>2021-08-02T19:10:57Z</time>
      </trkpt>
      <trkpt lat="46.40426" lon="0.70685">
        <ele>75.12</ele>
        <time>2021-08-02T19:11:07Z</time>
      </trkpt>
      <trkpt lat="46.40441" lon="0.70878">
        <ele>80.41</ele>
        <time>2021-08-02T19:11:18Z</time>
      </trkpt>
      <trkpt lat="46.40443" lon="0.70947">
        <ele>84.25</ele>
        <time>2021-08-02T19:11:22Z</time>
      </trkpt>
      <trkpt lat="46.40443" lon="0.70947">
        <ele>84.73</ele>
        <time>2021-08-02T19:11:23Z</time>
      </trkpt>
      <trkpt lat="46.4044" lon="0.70958">
        <ele>84.73</ele>
        <time>2021-08-02T19:11:24Z</time>
      </trkpt>
      <trkpt lat="46.40423" lon="0.71026">
        <ele>87.62</ele>
        <time>2021-08-02T19:11:29Z</time>
      </trkpt>
      <trkpt lat="46.40417" lon="0.71052">
        <ele>86.66</ele>
        <time>2021-08-02T19:11:30Z</time>
      </trkpt>
      <trkpt lat="46.40417" lon="0.71052">
        <ele>87.14</ele>
        <time>2021-08-02T19:11:31Z</time>
      </trkpt>
      <trkpt lat="46.40419" lon="0.71065">
        <ele>87.14</ele>
        <time>2021-08-02T19:11:32Z</time>
      </trkpt>
      <trkpt lat="46.40421" lon="0.71078">
        <ele>87.62</ele>
        <time>2021-08-02T19:11:33Z</time>
      </trkpt>
      <trkpt lat="46.40427" lon="0.71087">
        <ele>90.02</ele>
        <time>2021-08-02T19:11:34Z</time>
      </trkpt>
      <trkpt lat="46.40435" lon="0.711">
        <ele>90.02</ele>
        <time>2021-08-02T19:11:35Z</time>
      </trkpt>
      <trkpt lat="46.40441" lon="0.71109">
        <ele>90.02</ele>
        <time>2021-08-02T19:11:36Z</time>
      </trkpt>
      <trkpt lat="46.40453" lon="0.71127">
        <ele>90.5</ele>
        <time>2021-08-02T19:11:38Z</time>
      </trkpt>
      <trkpt lat="46.40457" lon="0.7114">
        <ele>90.98</ele>
        <time>2021-08-02T19:11:39Z</time>
      </trkpt>
      <trkpt lat="46.40458" lon="0.7115">
        <ele>90.5</ele>
        <time>2021-08-02T19:11:40Z</time>
      </trkpt>
      <trkpt lat="46.4046" lon="0.71163">
        <ele>90.02</ele>
        <time>2021-08-02T19:11:41Z</time>
      </trkpt>
      <trkpt lat="46.40462" lon="0.71176">
        <ele>90.02</ele>
        <time>2021-08-02T19:11:42Z</time>
      </trkpt>
      <trkpt lat="46.4047" lon="0.71262">
        <ele>93.39</ele>
        <time>2021-08-02T19:11:48Z</time>
      </trkpt>
      <trkpt lat="46.4047" lon="0.71276">
        <ele>93.39</ele>
        <time>2021-08-02T19:11:49Z</time>
      </trkpt>
      <trkpt lat="46.40468" lon="0.71289">
        <ele>93.87</ele>
        <time>2021-08-02T19:11:50Z</time>
      </trkpt>
      <trkpt lat="46.40466" lon="0.71304">
        <ele>93.87</ele>
        <time>2021-08-02T19:11:51Z</time>
      </trkpt>
      <trkpt lat="46.40461" lon="0.71318">
        <ele>93.87</ele>
        <time>2021-08-02T19:11:52Z</time>
      </trkpt>
      <trkpt lat="46.40455" lon="0.71331">
        <ele>94.35</ele>
        <time>2021-08-02T19:11:53Z</time>
      </trkpt>
      <trkpt lat="46.40448" lon="0.71342">
        <ele>94.35</ele>
        <time>2021-08-02T19:11:54Z</time>
      </trkpt>
      <trkpt lat="46.4044" lon="0.71352">
        <ele>94.35</ele>
        <time>2021-08-02T19:11:55Z</time>
      </trkpt>
      <trkpt lat="46.40391" lon="0.7142">
        <ele>94.83</ele>
        <time>2021-08-02T19:12:01Z</time>
      </trkpt>
      <trkpt lat="46.40385" lon="0.71435">
        <ele>95.31</ele>
        <time>2021-08-02T19:12:02Z</time>
      </trkpt>
      <trkpt lat="46.40381" lon="0.7145">
        <ele>94.35</ele>
        <time>2021-08-02T19:12:03Z</time>
      </trkpt>
      <trkpt lat="46.40377" lon="0.71467">
        <ele>93.87</ele>
        <time>2021-08-02T19:12:04Z</time>
      </trkpt>
      <trkpt lat="46.40374" lon="0.71485">
        <ele>93.87</ele>
        <time>2021-08-02T19:12:05Z</time>
      </trkpt>
      <trkpt lat="46.40371" lon="0.71501">
        <ele>94.35</ele>
        <time>2021-08-02T19:12:06Z</time>
      </trkpt>
      <trkpt lat="46.40362" lon="0.71636">
        <ele>98.67</ele>
        <time>2021-08-02T19:12:15Z</time>
      </trkpt>
      <trkpt lat="46.40357" lon="0.71731">
        <ele>101.56</ele>
        <time>2021-08-02T19:12:25Z</time>
      </trkpt>
      <trkpt lat="46.40344" lon="0.71916">
        <ele>103.48</ele>
        <time>2021-08-02T19:12:37Z</time>
      </trkpt>
      <trkpt lat="46.40333" lon="0.72117">
        <ele>106.84</ele>
        <time>2021-08-02T19:12:49Z</time>
      </trkpt>
      <trkpt lat="46.40318" lon="0.72327">
        <ele>109.25</ele>
        <time>2021-08-02T19:13:05Z</time>
      </trkpt>
      <trkpt lat="46.40289" lon="0.72406">
        <ele>107.81</ele>
        <time>2021-08-02T19:13:14Z</time>
      </trkpt>
      <trkpt lat="46.40265" lon="0.72443">
        <ele>105.88</ele>
        <time>2021-08-02T19:13:26Z</time>
      </trkpt>
      <trkpt lat="46.40254" lon="0.72456">
        <ele>104.92</ele>
        <time>2021-08-02T19:13:38Z</time>
      </trkpt>
      <trkpt lat="46.40212" lon="0.72502">
        <ele>104.44</ele>
        <time>2021-08-02T19:13:49Z</time>
      </trkpt>
      <trkpt lat="46.40136" lon="0.72597">
        <ele>103.96</ele>
        <time>2021-08-02T19:14:03Z</time>
      </trkpt>
      <trkpt lat="46.40032" lon="0.72719">
        <ele>103</ele>
        <time>2021-08-02T19:14:15Z</time>
      </trkpt>
      <trkpt lat="46.39926" lon="0.72846">
        <ele>106.84</ele>
        <time>2021-08-02T19:14:27Z</time>
      </trkpt>
      <trkpt lat="46.3978" lon="0.73024">
        <ele>108.29</ele>
        <time>2021-08-02T19:14:40Z</time>
      </trkpt>
      <trkpt lat="46.39658" lon="0.73164">
        <ele>107.32</ele>
        <time>2021-08-02T19:14:52Z</time>
      </trkpt>
      <trkpt lat="46.39616" lon="0.73202">
        <ele>108.29</ele>
        <time>2021-08-02T19:15:00Z</time>
      </trkpt>
      <trkpt lat="46.39609" lon="0.73205">
        <ele>108.29</ele>
        <time>2021-08-02T19:15:01Z</time>
      </trkpt>
      <trkpt lat="46.39602" lon="0.73208">
        <ele>108.29</ele>
        <time>2021-08-02T19:15:02Z</time>
      </trkpt>
      <trkpt lat="46.39595" lon="0.73209">
        <ele>108.77</ele>
        <time>2021-08-02T19:15:03Z</time>
      </trkpt>
      <trkpt lat="46.39586" lon="0.73213">
        <ele>108.77</ele>
        <time>2021-08-02T19:15:04Z</time>
      </trkpt>
      <trkpt lat="46.39579" lon="0.73232">
        <ele>108.77</ele>
        <time>2021-08-02T19:15:05Z</time>
      </trkpt>
      <trkpt lat="46.39579" lon="0.73232">
        <ele>108.77</ele>
        <time>2021-08-02T19:15:06Z</time>
      </trkpt>
      <trkpt lat="46.39577" lon="0.73243">
        <ele>108.77</ele>
        <time>2021-08-02T19:15:07Z</time>
      </trkpt>
      <trkpt lat="46.39576" lon="0.73255">
        <ele>108.77</ele>
        <time>2021-08-02T19:15:08Z</time>
      </trkpt>
      <trkpt lat="46.39569" lon="0.73267">
        <ele>108.77</ele>
        <time>2021-08-02T19:15:09Z</time>
      </trkpt>
      <trkpt lat="46.39563" lon="0.73277">
        <ele>108.77</ele>
        <time>2021-08-02T19:15:10Z</time>
      </trkpt>
      <trkpt lat="46.3946" lon="0.73409">
        <ele>108.77</ele>
        <time>2021-08-02T19:15:20Z</time>
      </trkpt>
      <trkpt lat="46.39317" lon="0.73583">
        <ele>109.25</ele>
        <time>2021-08-02T19:15:34Z</time>
      </trkpt>
      <trkpt lat="46.39108" lon="0.73837">
        <ele>106.36</ele>
        <time>2021-08-02T19:15:51Z</time>
      </trkpt>
      <trkpt lat="46.3888" lon="0.74114">
        <ele>110.69</ele>
        <time>2021-08-02T19:16:07Z</time>
      </trkpt>
      <trkpt lat="46.38641" lon="0.74406">
        <ele>114.05</ele>
        <time>2021-08-02T19:16:25Z</time>
      </trkpt>
      <trkpt lat="46.38436" lon="0.7466">
        <ele>109.73</ele>
        <time>2021-08-02T19:16:38Z</time>
      </trkpt>
      <trkpt lat="46.38034" lon="0.75157">
        <ele>114.05</ele>
        <time>2021-08-02T19:17:04Z</time>
      </trkpt>
      <trkpt lat="46.37713" lon="0.75557">
        <ele>116.94</ele>
        <time>2021-08-02T19:17:25Z</time>
      </trkpt>
      <trkpt lat="46.37406" lon="0.75932">
        <ele>110.69</ele>
        <time>2021-08-02T19:17:45Z</time>
      </trkpt>
      <trkpt lat="46.37162" lon="0.76229">
        <ele>110.21</ele>
        <time>2021-08-02T19:18:02Z</time>
      </trkpt>
      <trkpt lat="46.37037" lon="0.76382">
        <ele>112.61</ele>
        <time>2021-08-02T19:18:11Z</time>
      </trkpt>
      <trkpt lat="46.36851" lon="0.7661">
        <ele>116.46</ele>
        <time>2021-08-02T19:18:26Z</time>
      </trkpt>
      <trkpt lat="46.36624" lon="0.76885">
        <ele>113.57</ele>
        <time>2021-08-02T19:18:42Z</time>
      </trkpt>
      <trkpt lat="46.36368" lon="0.77193">
        <ele>116.46</ele>
        <time>2021-08-02T19:18:59Z</time>
      </trkpt>
      <trkpt lat="46.36061" lon="0.77567">
        <ele>124.15</ele>
        <time>2021-08-02T19:19:19Z</time>
      </trkpt>
      <trkpt lat="46.35804" lon="0.77881">
        <ele>129.43</ele>
        <time>2021-08-02T19:19:36Z</time>
      </trkpt>
      <trkpt lat="46.35587" lon="0.78146">
        <ele>140.97</ele>
        <time>2021-08-02T19:19:51Z</time>
      </trkpt>
      <trkpt lat="46.35391" lon="0.78382">
        <ele>148.66</ele>
        <time>2021-08-02T19:20:04Z</time>
      </trkpt>
      <trkpt lat="46.35126" lon="0.78702">
        <ele>140.01</ele>
        <time>2021-08-02T19:20:21Z</time>
      </trkpt>
      <trkpt lat="46.3488" lon="0.78996">
        <ele>142.41</ele>
        <time>2021-08-02T19:20:38Z</time>
      </trkpt>
      <trkpt lat="46.34684" lon="0.79228">
        <ele>144.34</ele>
        <time>2021-08-02T19:20:51Z</time>
      </trkpt>
      <trkpt lat="46.34441" lon="0.7952">
        <ele>149.62</ele>
        <time>2021-08-02T19:21:09Z</time>
      </trkpt>
      <trkpt lat="46.34216" lon="0.79789">
        <ele>155.39</ele>
        <time>2021-08-02T19:21:25Z</time>
      </trkpt>
      <trkpt lat="46.33986" lon="0.80065">
        <ele>164.04</ele>
        <time>2021-08-02T19:21:42Z</time>
      </trkpt>
      <trkpt lat="46.33722" lon="0.80382">
        <ele>165.96</ele>
        <time>2021-08-02T19:22:01Z</time>
      </trkpt>
      <trkpt lat="46.33549" lon="0.80593">
        <ele>160.68</ele>
        <time>2021-08-02T19:22:14Z</time>
      </trkpt>
      <trkpt lat="46.33439" lon="0.80728">
        <ele>153.95</ele>
        <time>2021-08-02T19:22:26Z</time>
      </trkpt>
      <trkpt lat="46.33296" lon="0.80898">
        <ele>149.14</ele>
        <time>2021-08-02T19:22:42Z</time>
      </trkpt>
      <trkpt lat="46.33169" lon="0.81053">
        <ele>150.1</ele>
        <time>2021-08-02T19:22:54Z</time>
      </trkpt>
      <trkpt lat="46.33113" lon="0.81121">
        <ele>152.99</ele>
        <time>2021-08-02T19:23:02Z</time>
      </trkpt>
      <trkpt lat="46.33063" lon="0.8118">
        <ele>156.83</ele>
        <time>2021-08-02T19:23:09Z</time>
      </trkpt>
      <trkpt lat="46.32975" lon="0.81291">
        <ele>163.08</ele>
        <time>2021-08-02T19:23:20Z</time>
      </trkpt>
      <trkpt lat="46.32822" lon="0.81473">
        <ele>157.31</ele>
        <time>2021-08-02T19:23:36Z</time>
      </trkpt>
      <trkpt lat="46.32692" lon="0.81617">
        <ele>149.62</ele>
        <time>2021-08-02T19:23:45Z</time>
      </trkpt>
      <trkpt lat="46.32491" lon="0.81777">
        <ele>144.34</ele>
        <time>2021-08-02T19:23:56Z</time>
      </trkpt>
      <trkpt lat="46.3218" lon="0.8203">
        <ele>166.93</ele>
        <time>2021-08-02T19:24:15Z</time>
      </trkpt>
      <trkpt lat="46.31824" lon="0.82317">
        <ele>177.5</ele>
        <time>2021-08-02T19:24:35Z</time>
      </trkpt>
      <trkpt lat="46.31513" lon="0.8257">
        <ele>184.71</ele>
        <time>2021-08-02T19:24:53Z</time>
      </trkpt>
      <trkpt lat="46.31119" lon="0.82894">
        <ele>185.67</ele>
        <time>2021-08-02T19:25:15Z</time>
      </trkpt>
      <trkpt lat="46.30787" lon="0.83167">
        <ele>186.63</ele>
        <time>2021-08-02T19:25:34Z</time>
      </trkpt>
      <trkpt lat="46.30395" lon="0.83489">
        <ele>191.44</ele>
        <time>2021-08-02T19:25:57Z</time>
      </trkpt>
      <trkpt lat="46.30015" lon="0.83805">
        <ele>192.4</ele>
        <time>2021-08-02T19:26:18Z</time>
      </trkpt>
      <trkpt lat="46.29651" lon="0.84111">
        <ele>193.84</ele>
        <time>2021-08-02T19:26:38Z</time>
      </trkpt>
      <trkpt lat="46.29294" lon="0.84417">
        <ele>187.59</ele>
        <time>2021-08-02T19:26:57Z</time>
      </trkpt>
      <trkpt lat="46.28995" lon="0.84669">
        <ele>196.25</ele>
        <time>2021-08-02T19:27:14Z</time>
      </trkpt>
      <trkpt lat="46.28718" lon="0.84908">
        <ele>191.92</ele>
        <time>2021-08-02T19:27:29Z</time>
      </trkpt>
      <trkpt lat="46.28452" lon="0.85135">
        <ele>194.32</ele>
        <time>2021-08-02T19:27:44Z</time>
      </trkpt>
      <trkpt lat="46.28164" lon="0.85379">
        <ele>199.61</ele>
        <time>2021-08-02T19:28:01Z</time>
      </trkpt>
      <trkpt lat="46.27952" lon="0.85559">
        <ele>200.57</ele>
        <time>2021-08-02T19:28:14Z</time>
      </trkpt>
      <trkpt lat="46.2773" lon="0.85747">
        <ele>204.9</ele>
        <time>2021-08-02T19:28:27Z</time>
      </trkpt>
      <trkpt lat="46.27465" lon="0.85974">
        <ele>206.82</ele>
        <time>2021-08-02T19:28:42Z</time>
      </trkpt>
      <trkpt lat="46.27223" lon="0.8618">
        <ele>214.03</ele>
        <time>2021-08-02T19:28:57Z</time>
      </trkpt>
      <trkpt lat="46.27102" lon="0.86284">
        <ele>212.59</ele>
        <time>2021-08-02T19:29:05Z</time>
      </trkpt>
      <trkpt lat="46.2704" lon="0.86337">
        <ele>208.74</ele>
        <time>2021-08-02T19:29:13Z</time>
      </trkpt>
      <trkpt lat="46.27018" lon="0.86356">
        <ele>209.22</ele>
        <time>2021-08-02T19:29:18Z</time>
      </trkpt>
      <trkpt lat="46.27013" lon="0.8636">
        <ele>209.7</ele>
        <time>2021-08-02T19:29:19Z</time>
      </trkpt>
      <trkpt lat="46.26997" lon="0.8635">
        <ele>210.19</ele>
        <time>2021-08-02T19:29:21Z</time>
      </trkpt>
      <trkpt lat="46.26991" lon="0.8635">
        <ele>210.19</ele>
        <time>2021-08-02T19:29:22Z</time>
      </trkpt>
      <trkpt lat="46.26985" lon="0.86357">
        <ele>210.67</ele>
        <time>2021-08-02T19:29:23Z</time>
      </trkpt>
      <trkpt lat="46.2698" lon="0.86364">
        <ele>210.67</ele>
        <time>2021-08-02T19:29:24Z</time>
      </trkpt>
      <trkpt lat="46.26978" lon="0.86367">
        <ele>210.19</ele>
        <time>2021-08-02T19:29:25Z</time>
      </trkpt>
      <trkpt lat="46.26975" lon="0.86391">
        <ele>209.7</ele>
        <time>2021-08-02T19:29:26Z</time>
      </trkpt>
      <trkpt lat="46.26968" lon="0.86397">
        <ele>209.22</ele>
        <time>2021-08-02T19:29:27Z</time>
      </trkpt>
      <trkpt lat="46.26961" lon="0.86404">
        <ele>209.22</ele>
        <time>2021-08-02T19:29:28Z</time>
      </trkpt>
      <trkpt lat="46.26953" lon="0.8641">
        <ele>209.7</ele>
        <time>2021-08-02T19:29:29Z</time>
      </trkpt>
      <trkpt lat="46.26934" lon="0.86425">
        <ele>209.7</ele>
        <time>2021-08-02T19:29:30Z</time>
      </trkpt>
      <trkpt lat="46.26831" lon="0.86511">
        <ele>216.43</ele>
        <time>2021-08-02T19:29:41Z</time>
      </trkpt>
      <trkpt lat="46.26726" lon="0.86607">
        <ele>217.4</ele>
        <time>2021-08-02T19:29:52Z</time>
      </trkpt>
      <trkpt lat="46.26553" lon="0.86763">
        <ele>217.88</ele>
        <time>2021-08-02T19:30:06Z</time>
      </trkpt>
      <trkpt lat="46.26337" lon="0.86966">
        <ele>214.51</ele>
        <time>2021-08-02T19:30:21Z</time>
      </trkpt>
      <trkpt lat="46.26116" lon="0.87187">
        <ele>214.03</ele>
        <time>2021-08-02T19:30:34Z</time>
      </trkpt>
      <trkpt lat="46.2575" lon="0.87555">
        <ele>214.51</ele>
        <time>2021-08-02T19:30:53Z</time>
      </trkpt>
      <trkpt lat="46.25458" lon="0.87848">
        <ele>219.32</ele>
        <time>2021-08-02T19:31:10Z</time>
      </trkpt>
      <trkpt lat="46.25163" lon="0.88145">
        <ele>221.24</ele>
        <time>2021-08-02T19:31:26Z</time>
      </trkpt>
      <trkpt lat="46.24944" lon="0.88366">
        <ele>215.95</ele>
        <time>2021-08-02T19:31:39Z</time>
      </trkpt>
      <trkpt lat="46.24735" lon="0.8858">
        <ele>217.4</ele>
        <time>2021-08-02T19:31:53Z</time>
      </trkpt>
      <trkpt lat="46.24481" lon="0.88837">
        <ele>222.68</ele>
        <time>2021-08-02T19:32:08Z</time>
      </trkpt>
      <trkpt lat="46.24218" lon="0.89102">
        <ele>232.78</ele>
        <time>2021-08-02T19:32:27Z</time>
      </trkpt>
      <trkpt lat="46.24106" lon="0.89218">
        <ele>233.26</ele>
        <time>2021-08-02T19:32:37Z</time>
      </trkpt>
      <trkpt lat="46.24034" lon="0.89283">
        <ele>230.85</ele>
        <time>2021-08-02T19:32:47Z</time>
      </trkpt>
      <trkpt lat="46.24031" lon="0.89286">
        <ele>230.85</ele>
        <time>2021-08-02T19:32:48Z</time>
      </trkpt>
      <trkpt lat="46.24032" lon="0.893">
        <ele>230.85</ele>
        <time>2021-08-02T19:32:49Z</time>
      </trkpt>
      <trkpt lat="46.24031" lon="0.89307">
        <ele>230.37</ele>
        <time>2021-08-02T19:32:50Z</time>
      </trkpt>
      <trkpt lat="46.24031" lon="0.89314">
        <ele>229.89</ele>
        <time>2021-08-02T19:32:51Z</time>
      </trkpt>
      <trkpt lat="46.2403" lon="0.89321">
        <ele>229.89</ele>
        <time>2021-08-02T19:32:52Z</time>
      </trkpt>
      <trkpt lat="46.2403" lon="0.89329">
        <ele>229.89</ele>
        <time>2021-08-02T19:32:53Z</time>
      </trkpt>
      <trkpt lat="46.24028" lon="0.89339">
        <ele>229.89</ele>
        <time>2021-08-02T19:32:54Z</time>
      </trkpt>
      <trkpt lat="46.24024" lon="0.89346">
        <ele>229.89</ele>
        <time>2021-08-02T19:32:55Z</time>
      </trkpt>
      <trkpt lat="46.2402" lon="0.89354">
        <ele>229.41</ele>
        <time>2021-08-02T19:32:56Z</time>
      </trkpt>
      <trkpt lat="46.24015" lon="0.89361">
        <ele>229.41</ele>
        <time>2021-08-02T19:32:57Z</time>
      </trkpt>
      <trkpt lat="46.23993" lon="0.89388">
        <ele>229.41</ele>
        <time>2021-08-02T19:33:01Z</time>
      </trkpt>
      <trkpt lat="46.23985" lon="0.89408">
        <ele>229.41</ele>
        <time>2021-08-02T19:33:02Z</time>
      </trkpt>
      <trkpt lat="46.23928" lon="0.89555">
        <ele>227.49</ele>
        <time>2021-08-02T19:33:15Z</time>
      </trkpt>
      <trkpt lat="46.23865" lon="0.89722">
        <ele>223.16</ele>
        <time>2021-08-02T19:33:25Z</time>
      </trkpt>
      <trkpt lat="46.23822" lon="0.89833">
        <ele>223.16</ele>
        <time>2021-08-02T19:33:32Z</time>
      </trkpt>
      <trkpt lat="46.23812" lon="0.89858">
        <ele>223.64</ele>
        <time>2021-08-02T19:33:39Z</time>
      </trkpt>
      <trkpt lat="46.23809" lon="0.89866">
        <ele>223.64</ele>
        <time>2021-08-02T19:34:13Z</time>
      </trkpt>
      <trkpt lat="46.23807" lon="0.89872">
        <ele>223.64</ele>
        <time>2021-08-02T19:34:14Z</time>
      </trkpt>
      <trkpt lat="46.23772" lon="0.89962">
        <ele>220.76</ele>
        <time>2021-08-02T19:34:21Z</time>
      </trkpt>
      <trkpt lat="46.23719" lon="0.90099">
        <ele>220.28</ele>
        <time>2021-08-02T19:34:32Z</time>
      </trkpt>
      <trkpt lat="46.23708" lon="0.9013">
        <ele>220.28</ele>
        <time>2021-08-02T19:34:36Z</time>
      </trkpt>
      <trkpt lat="46.23706" lon="0.90134">
        <ele>220.28</ele>
        <time>2021-08-02T19:34:37Z</time>
      </trkpt>
      <trkpt lat="46.23705" lon="0.90137">
        <ele>220.28</ele>
        <time>2021-08-02T19:34:38Z</time>
      </trkpt>
      <trkpt lat="46.23705" lon="0.90137">
        <ele>219.8</ele>
        <time>2021-08-02T19:34:39Z</time>
      </trkpt>
      <trkpt lat="46.23706" lon="0.90135">
        <ele>218.36</ele>
        <time>2021-08-02T19:34:42Z</time>
      </trkpt>
      <trkpt lat="46.23707" lon="0.90131">
        <ele>218.36</ele>
        <time>2021-08-02T19:34:43Z</time>
      </trkpt>
      <trkpt lat="46.23709" lon="0.90126">
        <ele>217.88</ele>
        <time>2021-08-02T19:34:44Z</time>
      </trkpt>
      <trkpt lat="46.23711" lon="0.90121">
        <ele>217.88</ele>
        <time>2021-08-02T19:34:45Z</time>
      </trkpt>
      <trkpt lat="46.23713" lon="0.90116">
        <ele>217.4</ele>
        <time>2021-08-02T19:34:46Z</time>
      </trkpt>
      <trkpt lat="46.23714" lon="0.90111">
        <ele>217.4</ele>
        <time>2021-08-02T19:34:47Z</time>
      </trkpt>
      <trkpt lat="46.23716" lon="0.90107">
        <ele>217.4</ele>
        <time>2021-08-02T19:34:48Z</time>
      </trkpt>
      <trkpt lat="46.23718" lon="0.90102">
        <ele>217.4</ele>
        <time>2021-08-02T19:34:49Z</time>
      </trkpt>
      <trkpt lat="46.2372" lon="0.90095">
        <ele>216.91</ele>
        <time>2021-08-02T19:34:50Z</time>
      </trkpt>
      <trkpt lat="46.23728" lon="0.90075">
        <ele>216.43</ele>
        <time>2021-08-02T19:34:51Z</time>
      </trkpt>
      <trkpt lat="46.23728" lon="0.90075">
        <ele>215.47</ele>
        <time>2021-08-02T19:34:52Z</time>
      </trkpt>
      <trkpt lat="46.23733" lon="0.90062">
        <ele>214.03</ele>
        <time>2021-08-02T19:34:53Z</time>
      </trkpt>
      <trkpt lat="46.23799" lon="0.89893">
        <ele>208.26</ele>
        <time>2021-08-02T19:35:01Z</time>
      </trkpt>
      <trkpt lat="46.23884" lon="0.89672">
        <ele>208.74</ele>
        <time>2021-08-02T19:35:11Z</time>
      </trkpt>
      <trkpt lat="46.23955" lon="0.89484">
        <ele>210.67</ele>
        <time>2021-08-02T19:35:20Z</time>
      </trkpt>
      <trkpt lat="46.23987" lon="0.89403">
        <ele>213.07</ele>
        <time>2021-08-02T19:35:25Z</time>
      </trkpt>
      <trkpt lat="46.23992" lon="0.89389">
        <ele>214.03</ele>
        <time>2021-08-02T19:35:26Z</time>
      </trkpt>
      <trkpt lat="46.24" lon="0.89379">
        <ele>214.03</ele>
        <time>2021-08-02T19:35:27Z</time>
      </trkpt>
      <trkpt lat="46.24023" lon="0.89349">
        <ele>215.47</ele>
        <time>2021-08-02T19:35:30Z</time>
      </trkpt>
      <trkpt lat="46.24027" lon="0.8934">
        <ele>216.43</ele>
        <time>2021-08-02T19:35:31Z</time>
      </trkpt>
      <trkpt lat="46.2403" lon="0.89332">
        <ele>216.91</ele>
        <time>2021-08-02T19:35:32Z</time>
      </trkpt>
      <trkpt lat="46.2403" lon="0.89323">
        <ele>217.4</ele>
        <time>2021-08-02T19:35:33Z</time>
      </trkpt>
      <trkpt lat="46.24031" lon="0.89315">
        <ele>218.84</ele>
        <time>2021-08-02T19:35:34Z</time>
      </trkpt>
      <trkpt lat="46.24031" lon="0.89308">
        <ele>219.32</ele>
        <time>2021-08-02T19:35:35Z</time>
      </trkpt>
      <trkpt lat="46.24031" lon="0.89304">
        <ele>219.8</ele>
        <time>2021-08-02T19:35:36Z</time>
      </trkpt>
      <trkpt lat="46.24032" lon="0.89301">
        <ele>220.28</ele>
        <time>2021-08-02T19:35:37Z</time>
      </trkpt>
      <trkpt lat="46.24032" lon="0.89299">
        <ele>220.76</ele>
        <time>2021-08-02T19:35:38Z</time>
      </trkpt>
      <trkpt lat="46.24032" lon="0.89297">
        <ele>221.24</ele>
        <time>2021-08-02T19:35:39Z</time>
      </trkpt>
      <trkpt lat="46.24025" lon="0.8929">
        <ele>221.24</ele>
        <time>2021-08-02T19:35:40Z</time>
      </trkpt>
      <trkpt lat="46.24025" lon="0.8929">
        <ele>221.24</ele>
        <time>2021-08-02T19:35:41Z</time>
      </trkpt>
      <trkpt lat="46.24019" lon="0.89293">
        <ele>220.76</ele>
        <time>2021-08-02T19:35:42Z</time>
      </trkpt>
      <trkpt lat="46.24012" lon="0.89297">
        <ele>221.24</ele>
        <time>2021-08-02T19:35:43Z</time>
      </trkpt>
      <trkpt lat="46.23928" lon="0.89348">
        <ele>222.68</ele>
        <time>2021-08-02T19:35:50Z</time>
      </trkpt>
      <trkpt lat="46.23722" lon="0.89453">
        <ele>221.24</ele>
        <time>2021-08-02T19:36:01Z</time>
      </trkpt>
      <trkpt lat="46.23462" lon="0.8959">
        <ele>224.12</ele>
        <time>2021-08-02T19:36:15Z</time>
      </trkpt>
      <trkpt lat="46.23142" lon="0.89752">
        <ele>228.45</ele>
        <time>2021-08-02T19:36:30Z</time>
      </trkpt>
      <trkpt lat="46.2297" lon="0.89875">
        <ele>224.61</ele>
        <time>2021-08-02T19:36:40Z</time>
      </trkpt>
      <trkpt lat="46.22614" lon="0.90155">
        <ele>224.12</ele>
        <time>2021-08-02T19:36:59Z</time>
      </trkpt>
      <trkpt lat="46.22312" lon="0.90393">
        <ele>227.49</ele>
        <time>2021-08-02T19:37:15Z</time>
      </trkpt>
      <trkpt lat="46.21894" lon="0.90721">
        <ele>228.93</ele>
        <time>2021-08-02T19:37:37Z</time>
      </trkpt>
      <trkpt lat="46.2157" lon="0.90975">
        <ele>223.64</ele>
        <time>2021-08-02T19:37:55Z</time>
      </trkpt>
      <trkpt lat="46.21209" lon="0.9126">
        <ele>222.68</ele>
        <time>2021-08-02T19:38:15Z</time>
      </trkpt>
      <trkpt lat="46.2097" lon="0.91445">
        <ele>223.64</ele>
        <time>2021-08-02T19:38:29Z</time>
      </trkpt>
      <trkpt lat="46.20711" lon="0.91646">
        <ele>231.81</ele>
        <time>2021-08-02T19:38:43Z</time>
      </trkpt>
      <trkpt lat="46.20449" lon="0.91851">
        <ele>236.14</ele>
        <time>2021-08-02T19:38:55Z</time>
      </trkpt>
      <trkpt lat="46.20131" lon="0.92099">
        <ele>239.02</ele>
        <time>2021-08-02T19:39:13Z</time>
      </trkpt>
      <trkpt lat="46.19859" lon="0.92311">
        <ele>238.54</ele>
        <time>2021-08-02T19:39:28Z</time>
      </trkpt>
      <trkpt lat="46.19505" lon="0.92587">
        <ele>236.62</ele>
        <time>2021-08-02T19:39:47Z</time>
      </trkpt>
      <trkpt lat="46.19202" lon="0.92823">
        <ele>242.87</ele>
        <time>2021-08-02T19:40:04Z</time>
      </trkpt>
      <trkpt lat="46.18761" lon="0.93166">
        <ele>248.16</ele>
        <time>2021-08-02T19:40:29Z</time>
      </trkpt>
      <trkpt lat="46.18506" lon="0.9337">
        <ele>247.68</ele>
        <time>2021-08-02T19:40:43Z</time>
      </trkpt>
      <trkpt lat="46.18344" lon="0.93556">
        <ele>245.75</ele>
        <time>2021-08-02T19:40:53Z</time>
      </trkpt>
      <trkpt lat="46.18132" lon="0.93815">
        <ele>235.18</ele>
        <time>2021-08-02T19:41:07Z</time>
      </trkpt>
      <trkpt lat="46.17937" lon="0.94057">
        <ele>220.76</ele>
        <time>2021-08-02T19:41:20Z</time>
      </trkpt>
      <trkpt lat="46.17743" lon="0.94296">
        <ele>226.53</ele>
        <time>2021-08-02T19:41:33Z</time>
      </trkpt>
      <trkpt lat="46.17521" lon="0.94569">
        <ele>234.22</ele>
        <time>2021-08-02T19:41:47Z</time>
      </trkpt>
      <trkpt lat="46.17309" lon="0.94831">
        <ele>212.59</ele>
        <time>2021-08-02T19:42:01Z</time>
      </trkpt>
      <trkpt lat="46.17185" lon="0.94984">
        <ele>198.65</ele>
        <time>2021-08-02T19:42:10Z</time>
      </trkpt>
      <trkpt lat="46.17064" lon="0.95133">
        <ele>205.38</ele>
        <time>2021-08-02T19:42:21Z</time>
      </trkpt>
      <trkpt lat="46.1699" lon="0.95225">
        <ele>208.26</ele>
        <time>2021-08-02T19:42:30Z</time>
      </trkpt>
      <trkpt lat="46.16959" lon="0.95261">
        <ele>209.22</ele>
        <time>2021-08-02T19:42:38Z</time>
      </trkpt>
      <trkpt lat="46.16955" lon="0.95265">
        <ele>208.74</ele>
        <time>2021-08-02T19:42:58Z</time>
      </trkpt>
      <trkpt lat="46.16912" lon="0.9532">
        <ele>207.78</ele>
        <time>2021-08-02T19:43:07Z</time>
      </trkpt>
      <trkpt lat="46.16826" lon="0.9542">
        <ele>204.42</ele>
        <time>2021-08-02T19:43:16Z</time>
      </trkpt>
      <trkpt lat="46.16816" lon="0.95431">
        <ele>203.94</ele>
        <time>2021-08-02T19:43:17Z</time>
      </trkpt>
      <trkpt lat="46.16806" lon="0.9544">
        <ele>202.49</ele>
        <time>2021-08-02T19:43:18Z</time>
      </trkpt>
      <trkpt lat="46.16783" lon="0.95448">
        <ele>202.98</ele>
        <time>2021-08-02T19:43:19Z</time>
      </trkpt>
      <trkpt lat="46.1677" lon="0.95448">
        <ele>203.46</ele>
        <time>2021-08-02T19:43:20Z</time>
      </trkpt>
      <trkpt lat="46.1677" lon="0.95448">
        <ele>204.9</ele>
        <time>2021-08-02T19:43:21Z</time>
      </trkpt>
      <trkpt lat="46.16744" lon="0.9544">
        <ele>203.94</ele>
        <time>2021-08-02T19:43:22Z</time>
      </trkpt>
      <trkpt lat="46.16717" lon="0.95431">
        <ele>201.05</ele>
        <time>2021-08-02T19:43:25Z</time>
      </trkpt>
      <trkpt lat="46.16704" lon="0.95429">
        <ele>200.09</ele>
        <time>2021-08-02T19:43:26Z</time>
      </trkpt>
      <trkpt lat="46.16691" lon="0.95429">
        <ele>198.17</ele>
        <time>2021-08-02T19:43:27Z</time>
      </trkpt>
      <trkpt lat="46.16676" lon="0.95429">
        <ele>196.73</ele>
        <time>2021-08-02T19:43:28Z</time>
      </trkpt>
      <trkpt lat="46.1665" lon="0.95446">
        <ele>196.73</ele>
        <time>2021-08-02T19:43:29Z</time>
      </trkpt>
      <trkpt lat="46.1665" lon="0.95446">
        <ele>195.28</ele>
        <time>2021-08-02T19:43:30Z</time>
      </trkpt>
      <trkpt lat="46.16639" lon="0.95457">
        <ele>194.8</ele>
        <time>2021-08-02T19:43:31Z</time>
      </trkpt>
      <trkpt lat="46.16628" lon="0.9547">
        <ele>194.32</ele>
        <time>2021-08-02T19:43:32Z</time>
      </trkpt>
      <trkpt lat="46.16618" lon="0.95482">
        <ele>194.32</ele>
        <time>2021-08-02T19:43:33Z</time>
      </trkpt>
      <trkpt lat="46.16611" lon="0.95501">
        <ele>193.36</ele>
        <time>2021-08-02T19:43:34Z</time>
      </trkpt>
      <trkpt lat="46.16605" lon="0.95519">
        <ele>192.88</ele>
        <time>2021-08-02T19:43:35Z</time>
      </trkpt>
      <trkpt lat="46.1658" lon="0.95596">
        <ele>189.04</ele>
        <time>2021-08-02T19:43:39Z</time>
      </trkpt>
      <trkpt lat="46.16578" lon="0.95615">
        <ele>187.59</ele>
        <time>2021-08-02T19:43:40Z</time>
      </trkpt>
      <trkpt lat="46.16576" lon="0.95636">
        <ele>186.63</ele>
        <time>2021-08-02T19:43:41Z</time>
      </trkpt>
      <trkpt lat="46.16574" lon="0.95655">
        <ele>186.15</ele>
        <time>2021-08-02T19:43:42Z</time>
      </trkpt>
      <trkpt lat="46.16573" lon="0.95676">
        <ele>186.15</ele>
        <time>2021-08-02T19:43:43Z</time>
      </trkpt>
      <trkpt lat="46.16573" lon="0.95697">
        <ele>185.19</ele>
        <time>2021-08-02T19:43:44Z</time>
      </trkpt>
      <trkpt lat="46.16576" lon="0.95717">
        <ele>184.71</ele>
        <time>2021-08-02T19:43:45Z</time>
      </trkpt>
      <trkpt lat="46.16581" lon="0.95739">
        <ele>184.23</ele>
        <time>2021-08-02T19:43:46Z</time>
      </trkpt>
      <trkpt lat="46.16589" lon="0.95781">
        <ele>183.27</ele>
        <time>2021-08-02T19:43:48Z</time>
      </trkpt>
      <trkpt lat="46.16591" lon="0.95801">
        <ele>181.35</ele>
        <time>2021-08-02T19:43:49Z</time>
      </trkpt>
      <trkpt lat="46.16592" lon="0.95822">
        <ele>179.42</ele>
        <time>2021-08-02T19:43:50Z</time>
      </trkpt>
      <trkpt lat="46.16589" lon="0.95842">
        <ele>179.42</ele>
        <time>2021-08-02T19:43:51Z</time>
      </trkpt>
      <trkpt lat="46.16584" lon="0.95859">
        <ele>179.42</ele>
        <time>2021-08-02T19:43:52Z</time>
      </trkpt>
      <trkpt lat="46.16577" lon="0.95876">
        <ele>179.42</ele>
        <time>2021-08-02T19:43:53Z</time>
      </trkpt>
      <trkpt lat="46.16565" lon="0.9591">
        <ele>178.94</ele>
        <time>2021-08-02T19:43:54Z</time>
      </trkpt>
      <trkpt lat="46.1655" lon="0.95943">
        <ele>179.42</ele>
        <time>2021-08-02T19:43:57Z</time>
      </trkpt>
      <trkpt lat="46.16541" lon="0.95959">
        <ele>177.98</ele>
        <time>2021-08-02T19:43:58Z</time>
      </trkpt>
      <trkpt lat="46.16532" lon="0.95975">
        <ele>177.02</ele>
        <time>2021-08-02T19:43:59Z</time>
      </trkpt>
      <trkpt lat="46.1652" lon="0.95986">
        <ele>176.06</ele>
        <time>2021-08-02T19:44:00Z</time>
      </trkpt>
      <trkpt lat="46.16508" lon="0.95997">
        <ele>176.06</ele>
        <time>2021-08-02T19:44:01Z</time>
      </trkpt>
      <trkpt lat="46.16477" lon="0.96002">
        <ele>174.62</ele>
        <time>2021-08-02T19:44:02Z</time>
      </trkpt>
      <trkpt lat="46.16477" lon="0.96002">
        <ele>174.14</ele>
        <time>2021-08-02T19:44:03Z</time>
      </trkpt>
      <trkpt lat="46.16303" lon="0.95994">
        <ele>179.42</ele>
        <time>2021-08-02T19:44:14Z</time>
      </trkpt>
      <trkpt lat="46.16288" lon="0.95989">
        <ele>179.9</ele>
        <time>2021-08-02T19:44:15Z</time>
      </trkpt>
      <trkpt lat="46.16225" lon="0.95969">
        <ele>182.31</ele>
        <time>2021-08-02T19:44:19Z</time>
      </trkpt>
      <trkpt lat="46.16209" lon="0.95964">
        <ele>182.79</ele>
        <time>2021-08-02T19:44:20Z</time>
      </trkpt>
      <trkpt lat="46.16192" lon="0.95961">
        <ele>182.79</ele>
        <time>2021-08-02T19:44:21Z</time>
      </trkpt>
      <trkpt lat="46.15991" lon="0.95997">
        <ele>189.04</ele>
        <time>2021-08-02T19:44:31Z</time>
      </trkpt>
      <trkpt lat="46.15937" lon="0.96021">
        <ele>193.84</ele>
        <time>2021-08-02T19:44:35Z</time>
      </trkpt>
      <trkpt lat="46.15917" lon="0.96021">
        <ele>195.28</ele>
        <time>2021-08-02T19:44:36Z</time>
      </trkpt>
      <trkpt lat="46.15898" lon="0.96019">
        <ele>196.25</ele>
        <time>2021-08-02T19:44:37Z</time>
      </trkpt>
      <trkpt lat="46.1584" lon="0.96006">
        <ele>199.13</ele>
        <time>2021-08-02T19:44:40Z</time>
      </trkpt>
      <trkpt lat="46.1582" lon="0.96008">
        <ele>200.09</ele>
        <time>2021-08-02T19:44:41Z</time>
      </trkpt>
      <trkpt lat="46.15781" lon="0.96015">
        <ele>201.53</ele>
        <time>2021-08-02T19:44:42Z</time>
      </trkpt>
      <trkpt lat="46.15781" lon="0.96015">
        <ele>202.49</ele>
        <time>2021-08-02T19:44:43Z</time>
      </trkpt>
      <trkpt lat="46.15743" lon="0.96034">
        <ele>202.98</ele>
        <time>2021-08-02T19:44:44Z</time>
      </trkpt>
      <trkpt lat="46.1546" lon="0.96182">
        <ele>215.95</ele>
        <time>2021-08-02T19:45:00Z</time>
      </trkpt>
      <trkpt lat="46.15212" lon="0.96378">
        <ele>230.85</ele>
        <time>2021-08-02T19:45:14Z</time>
      </trkpt>
      <trkpt lat="46.1509" lon="0.96473">
        <ele>234.22</ele>
        <time>2021-08-02T19:45:23Z</time>
      </trkpt>
      <trkpt lat="46.14899" lon="0.96626">
        <ele>238.54</ele>
        <time>2021-08-02T19:45:36Z</time>
      </trkpt>
      <trkpt lat="46.14868" lon="0.96652">
        <ele>241.43</ele>
        <time>2021-08-02T19:45:38Z</time>
      </trkpt>
      <trkpt lat="46.14839" lon="0.96682">
        <ele>242.39</ele>
        <time>2021-08-02T19:45:39Z</time>
      </trkpt>
      <trkpt lat="46.14732" lon="0.96845">
        <ele>240.47</ele>
        <time>2021-08-02T19:45:48Z</time>
      </trkpt>
      <trkpt lat="46.14413" lon="0.97339">
        <ele>243.83</ele>
        <time>2021-08-02T19:46:09Z</time>
      </trkpt>
      <trkpt lat="46.14262" lon="0.97538">
        <ele>242.87</ele>
        <time>2021-08-02T19:46:19Z</time>
      </trkpt>
      <trkpt lat="46.13924" lon="0.97965">
        <ele>248.64</ele>
        <time>2021-08-02T19:46:40Z</time>
      </trkpt>
      <trkpt lat="46.13661" lon="0.98298">
        <ele>243.83</ele>
        <time>2021-08-02T19:46:56Z</time>
      </trkpt>
      <trkpt lat="46.13447" lon="0.98566">
        <ele>256.81</ele>
        <time>2021-08-02T19:47:10Z</time>
      </trkpt>
      <trkpt lat="46.1324" lon="0.98828">
        <ele>258.73</ele>
        <time>2021-08-02T19:47:24Z</time>
      </trkpt>
      <trkpt lat="46.13078" lon="0.99025">
        <ele>257.29</ele>
        <time>2021-08-02T19:47:35Z</time>
      </trkpt>
      <trkpt lat="46.13001" lon="0.9907">
        <ele>257.77</ele>
        <time>2021-08-02T19:47:42Z</time>
      </trkpt>
      <trkpt lat="46.12994" lon="0.99072">
        <ele>257.29</ele>
        <time>2021-08-02T19:47:43Z</time>
      </trkpt>
      <trkpt lat="46.12988" lon="0.99073">
        <ele>257.29</ele>
        <time>2021-08-02T19:47:44Z</time>
      </trkpt>
      <trkpt lat="46.12982" lon="0.99074">
        <ele>257.29</ele>
        <time>2021-08-02T19:47:52Z</time>
      </trkpt>
      <trkpt lat="46.12968" lon="0.99062">
        <ele>258.25</ele>
        <time>2021-08-02T19:48:05Z</time>
      </trkpt>
      <trkpt lat="46.12963" lon="0.99062">
        <ele>258.25</ele>
        <time>2021-08-02T19:48:06Z</time>
      </trkpt>
      <trkpt lat="46.12957" lon="0.99065">
        <ele>258.25</ele>
        <time>2021-08-02T19:48:07Z</time>
      </trkpt>
      <trkpt lat="46.12952" lon="0.9907">
        <ele>257.77</ele>
        <time>2021-08-02T19:48:08Z</time>
      </trkpt>
      <trkpt lat="46.12949" lon="0.99074">
        <ele>257.77</ele>
        <time>2021-08-02T19:48:09Z</time>
      </trkpt>
      <trkpt lat="46.1295" lon="0.99085">
        <ele>257.29</ele>
        <time>2021-08-02T19:48:10Z</time>
      </trkpt>
      <trkpt lat="46.12949" lon="0.99108">
        <ele>257.29</ele>
        <time>2021-08-02T19:48:11Z</time>
      </trkpt>
      <trkpt lat="46.12942" lon="0.99118">
        <ele>257.29</ele>
        <time>2021-08-02T19:48:12Z</time>
      </trkpt>
      <trkpt lat="46.12871" lon="0.99254">
        <ele>255.37</ele>
        <time>2021-08-02T19:48:21Z</time>
      </trkpt>
      <trkpt lat="46.12827" lon="0.99446">
        <ele>250.08</ele>
        <time>2021-08-02T19:48:29Z</time>
      </trkpt>
      <trkpt lat="46.12754" lon="0.99825">
        <ele>244.79</ele>
        <time>2021-08-02T19:48:42Z</time>
      </trkpt>
      <trkpt lat="46.12715" lon="1.00194">
        <ele>231.33</ele>
        <time>2021-08-02T19:48:54Z</time>
      </trkpt>
      <trkpt lat="46.12728" lon="1.00522">
        <ele>214.99</ele>
        <time>2021-08-02T19:49:04Z</time>
      </trkpt>
      <trkpt lat="46.12785" lon="1.0087">
        <ele>200.09</ele>
        <time>2021-08-02T19:49:15Z</time>
      </trkpt>
      <trkpt lat="46.12832" lon="1.01128">
        <ele>197.21</ele>
        <time>2021-08-02T19:49:24Z</time>
      </trkpt>
      <trkpt lat="46.12927" lon="1.01675">
        <ele>203.94</ele>
        <time>2021-08-02T19:49:43Z</time>
      </trkpt>
      <trkpt lat="46.12931" lon="1.02002">
        <ele>202.98</ele>
        <time>2021-08-02T19:49:53Z</time>
      </trkpt>
      <trkpt lat="46.12885" lon="1.02359">
        <ele>198.17</ele>
        <time>2021-08-02T19:50:06Z</time>
      </trkpt>
      <trkpt lat="46.12819" lon="1.02857">
        <ele>202.98</ele>
        <time>2021-08-02T19:50:23Z</time>
      </trkpt>
      <trkpt lat="46.12838" lon="1.03118">
        <ele>208.26</ele>
        <time>2021-08-02T19:50:32Z</time>
      </trkpt>
      <trkpt lat="46.12897" lon="1.03336">
        <ele>215.95</ele>
        <time>2021-08-02T19:50:40Z</time>
      </trkpt>
      <trkpt lat="46.13" lon="1.03517">
        <ele>221.24</ele>
        <time>2021-08-02T19:50:48Z</time>
      </trkpt>
      <trkpt lat="46.13172" lon="1.03758">
        <ele>230.85</ele>
        <time>2021-08-02T19:50:59Z</time>
      </trkpt>
      <trkpt lat="46.13369" lon="1.04114">
        <ele>242.87</ele>
        <time>2021-08-02T19:51:13Z</time>
      </trkpt>
      <trkpt lat="46.13586" lon="1.04526">
        <ele>254.41</ele>
        <time>2021-08-02T19:51:28Z</time>
      </trkpt>
      <trkpt lat="46.13618" lon="1.04602">
        <ele>255.37</ele>
        <time>2021-08-02T19:51:31Z</time>
      </trkpt>
      <trkpt lat="46.137" lon="1.0488">
        <ele>258.73</ele>
        <time>2021-08-02T19:51:42Z</time>
      </trkpt>
      <trkpt lat="46.13798" lon="1.05347">
        <ele>256.81</ele>
        <time>2021-08-02T19:51:58Z</time>
      </trkpt>
      <trkpt lat="46.13839" lon="1.0554">
        <ele>257.77</ele>
        <time>2021-08-02T19:52:06Z</time>
      </trkpt>
      <trkpt lat="46.13843" lon="1.05557">
        <ele>258.25</ele>
        <time>2021-08-02T19:52:07Z</time>
      </trkpt>
      <trkpt lat="46.13847" lon="1.05571">
        <ele>257.77</ele>
        <time>2021-08-02T19:52:08Z</time>
      </trkpt>
      <trkpt lat="46.1385" lon="1.05583">
        <ele>258.25</ele>
        <time>2021-08-02T19:52:09Z</time>
      </trkpt>
      <trkpt lat="46.1384" lon="1.0565">
        <ele>259.21</ele>
        <time>2021-08-02T19:52:12Z</time>
      </trkpt>
      <trkpt lat="46.1384" lon="1.0565">
        <ele>258.73</ele>
        <time>2021-08-02T19:52:13Z</time>
      </trkpt>
      <trkpt lat="46.13834" lon="1.05664">
        <ele>257.77</ele>
        <time>2021-08-02T19:52:14Z</time>
      </trkpt>
      <trkpt lat="46.1376" lon="1.05864">
        <ele>254.41</ele>
        <time>2021-08-02T19:52:24Z</time>
      </trkpt>
      <trkpt lat="46.13642" lon="1.06185">
        <ele>255.37</ele>
        <time>2021-08-02T19:52:38Z</time>
      </trkpt>
      <trkpt lat="46.1352" lon="1.06459">
        <ele>259.21</ele>
        <time>2021-08-02T19:52:50Z</time>
      </trkpt>
      <trkpt lat="46.13359" lon="1.06696">
        <ele>258.73</ele>
        <time>2021-08-02T19:53:02Z</time>
      </trkpt>
      <trkpt lat="46.13152" lon="1.06901">
        <ele>257.77</ele>
        <time>2021-08-02T19:53:14Z</time>
      </trkpt>
      <trkpt lat="46.12863" lon="1.07118">
        <ele>256.81</ele>
        <time>2021-08-02T19:53:32Z</time>
      </trkpt>
      <trkpt lat="46.12715" lon="1.07271">
        <ele>257.77</ele>
        <time>2021-08-02T19:53:42Z</time>
      </trkpt>
      <trkpt lat="46.12647" lon="1.07343">
        <ele>259.21</ele>
        <time>2021-08-02T19:53:49Z</time>
      </trkpt>
      <trkpt lat="46.12605" lon="1.07389">
        <ele>260.17</ele>
        <time>2021-08-02T19:53:58Z</time>
      </trkpt>
      <trkpt lat="46.126" lon="1.07395">
        <ele>260.65</ele>
        <time>2021-08-02T19:53:59Z</time>
      </trkpt>
      <trkpt lat="46.12585" lon="1.07393">
        <ele>260.65</ele>
        <time>2021-08-02T19:54:00Z</time>
      </trkpt>
      <trkpt lat="46.12585" lon="1.07393">
        <ele>260.65</ele>
        <time>2021-08-02T19:54:01Z</time>
      </trkpt>
      <trkpt lat="46.12577" lon="1.07387">
        <ele>260.65</ele>
        <time>2021-08-02T19:54:02Z</time>
      </trkpt>
      <trkpt lat="46.12571" lon="1.07387">
        <ele>260.65</ele>
        <time>2021-08-02T19:54:03Z</time>
      </trkpt>
      <trkpt lat="46.12561" lon="1.07391">
        <ele>260.65</ele>
        <time>2021-08-02T19:54:04Z</time>
      </trkpt>
      <trkpt lat="46.12556" lon="1.07396">
        <ele>260.65</ele>
        <time>2021-08-02T19:54:05Z</time>
      </trkpt>
      <trkpt lat="46.12549" lon="1.07405">
        <ele>260.65</ele>
        <time>2021-08-02T19:54:06Z</time>
      </trkpt>
      <trkpt lat="46.12547" lon="1.07413">
        <ele>260.65</ele>
        <time>2021-08-02T19:54:07Z</time>
      </trkpt>
      <trkpt lat="46.12547" lon="1.07425">
        <ele>260.65</ele>
        <time>2021-08-02T19:54:08Z</time>
      </trkpt>
      <trkpt lat="46.1255" lon="1.07434">
        <ele>260.17</ele>
        <time>2021-08-02T19:54:09Z</time>
      </trkpt>
      <trkpt lat="46.12552" lon="1.07442">
        <ele>259.69</ele>
        <time>2021-08-02T19:54:10Z</time>
      </trkpt>
      <trkpt lat="46.12557" lon="1.0745">
        <ele>259.69</ele>
        <time>2021-08-02T19:54:11Z</time>
      </trkpt>
      <trkpt lat="46.12563" lon="1.07458">
        <ele>259.69</ele>
        <time>2021-08-02T19:54:12Z</time>
      </trkpt>
      <trkpt lat="46.1257" lon="1.07458">
        <ele>259.69</ele>
        <time>2021-08-02T19:54:13Z</time>
      </trkpt>
      <trkpt lat="46.12576" lon="1.07458">
        <ele>259.69</ele>
        <time>2021-08-02T19:54:14Z</time>
      </trkpt>
      <trkpt lat="46.12593" lon="1.07448">
        <ele>259.69</ele>
        <time>2021-08-02T19:54:15Z</time>
      </trkpt>
      <trkpt lat="46.12602" lon="1.07458">
        <ele>260.17</ele>
        <time>2021-08-02T19:54:16Z</time>
      </trkpt>
      <trkpt lat="46.12612" lon="1.07468">
        <ele>260.17</ele>
        <time>2021-08-02T19:54:17Z</time>
      </trkpt>
      <trkpt lat="46.12622" lon="1.07479">
        <ele>260.17</ele>
        <time>2021-08-02T19:54:18Z</time>
      </trkpt>
      <trkpt lat="46.1273" lon="1.07596">
        <ele>258.73</ele>
        <time>2021-08-02T19:54:27Z</time>
      </trkpt>
      <trkpt lat="46.12825" lon="1.07754">
        <ele>256.33</ele>
        <time>2021-08-02T19:54:35Z</time>
      </trkpt>
      <trkpt lat="46.12973" lon="1.08088">
        <ele>259.21</ele>
        <time>2021-08-02T19:54:51Z</time>
      </trkpt>
      <trkpt lat="46.1304" lon="1.08236">
        <ele>260.17</ele>
        <time>2021-08-02T19:55:01Z</time>
      </trkpt>
      <trkpt lat="46.13098" lon="1.08365">
        <ele>258.73</ele>
        <time>2021-08-02T19:55:11Z</time>
      </trkpt>
      <trkpt lat="46.13183" lon="1.08551">
        <ele>258.73</ele>
        <time>2021-08-02T19:55:21Z</time>
      </trkpt>
      <trkpt lat="46.13309" lon="1.08828">
        <ele>253.93</ele>
        <time>2021-08-02T19:55:35Z</time>
      </trkpt>
      <trkpt lat="46.13463" lon="1.09171">
        <ele>251.04</ele>
        <time>2021-08-02T19:55:49Z</time>
      </trkpt>
      <trkpt lat="46.13639" lon="1.0956">
        <ele>244.31</ele>
        <time>2021-08-02T19:56:05Z</time>
      </trkpt>
      <trkpt lat="46.13732" lon="1.09704">
        <ele>240.47</ele>
        <time>2021-08-02T19:56:13Z</time>
      </trkpt>
      <trkpt lat="46.1385" lon="1.09789">
        <ele>236.14</ele>
        <time>2021-08-02T19:56:20Z</time>
      </trkpt>
      <trkpt lat="46.14015" lon="1.09819">
        <ele>223.64</ele>
        <time>2021-08-02T19:56:29Z</time>
      </trkpt>
      <trkpt lat="46.14211" lon="1.09864">
        <ele>220.28</ele>
        <time>2021-08-02T19:56:40Z</time>
      </trkpt>
      <trkpt lat="46.14337" lon="1.09979">
        <ele>217.4</ele>
        <time>2021-08-02T19:56:48Z</time>
      </trkpt>
      <trkpt lat="46.14526" lon="1.10211">
        <ele>215.95</ele>
        <time>2021-08-02T19:57:01Z</time>
      </trkpt>
      <trkpt lat="46.1467" lon="1.1031">
        <ele>210.67</ele>
        <time>2021-08-02T19:57:09Z</time>
      </trkpt>
      <trkpt lat="46.14938" lon="1.10442">
        <ele>197.69</ele>
        <time>2021-08-02T19:57:23Z</time>
      </trkpt>
      <trkpt lat="46.15025" lon="1.10567">
        <ele>190</ele>
        <time>2021-08-02T19:57:29Z</time>
      </trkpt>
      <trkpt lat="46.15035" lon="1.10593">
        <ele>189.52</ele>
        <time>2021-08-02T19:57:30Z</time>
      </trkpt>
      <trkpt lat="46.15109" lon="1.10834">
        <ele>193.84</ele>
        <time>2021-08-02T19:57:39Z</time>
      </trkpt>
      <trkpt lat="46.15118" lon="1.1105">
        <ele>199.61</ele>
        <time>2021-08-02T19:57:47Z</time>
      </trkpt>
      <trkpt lat="46.15159" lon="1.11233">
        <ele>203.94</ele>
        <time>2021-08-02T19:57:54Z</time>
      </trkpt>
      <trkpt lat="46.15269" lon="1.11646">
        <ele>217.88</ele>
        <time>2021-08-02T19:58:08Z</time>
      </trkpt>
      <trkpt lat="46.15308" lon="1.11879">
        <ele>227.49</ele>
        <time>2021-08-02T19:58:17Z</time>
      </trkpt>
      <trkpt lat="46.15306" lon="1.12193">
        <ele>231.33</ele>
        <time>2021-08-02T19:58:28Z</time>
      </trkpt>
      <trkpt lat="46.15311" lon="1.12475">
        <ele>231.33</ele>
        <time>2021-08-02T19:58:39Z</time>
      </trkpt>
      <trkpt lat="46.15353" lon="1.12662">
        <ele>229.89</ele>
        <time>2021-08-02T19:58:46Z</time>
      </trkpt>
      <trkpt lat="46.15451" lon="1.12826">
        <ele>229.41</ele>
        <time>2021-08-02T19:58:54Z</time>
      </trkpt>
      <trkpt lat="46.15617" lon="1.12973">
        <ele>227.01</ele>
        <time>2021-08-02T19:59:04Z</time>
      </trkpt>
      <trkpt lat="46.15905" lon="1.132">
        <ele>225.57</ele>
        <time>2021-08-02T19:59:21Z</time>
      </trkpt>
      <trkpt lat="46.16058" lon="1.13271">
        <ele>231.33</ele>
        <time>2021-08-02T19:59:30Z</time>
      </trkpt>
      <trkpt lat="46.16127" lon="1.13298">
        <ele>232.3</ele>
        <time>2021-08-02T19:59:36Z</time>
      </trkpt>
      <trkpt lat="46.16211" lon="1.13332">
        <ele>232.3</ele>
        <time>2021-08-02T19:59:43Z</time>
      </trkpt>
      <trkpt lat="46.16339" lon="1.13435">
        <ele>232.78</ele>
        <time>2021-08-02T19:59:51Z</time>
      </trkpt>
      <trkpt lat="46.16435" lon="1.13618">
        <ele>233.26</ele>
        <time>2021-08-02T19:59:58Z</time>
      </trkpt>
      <trkpt lat="46.16502" lon="1.13868">
        <ele>236.14</ele>
        <time>2021-08-02T20:00:07Z</time>
      </trkpt>
      <trkpt lat="46.16555" lon="1.14074">
        <ele>240.47</ele>
        <time>2021-08-02T20:00:17Z</time>
      </trkpt>
      <trkpt lat="46.16597" lon="1.1424">
        <ele>243.83</ele>
        <time>2021-08-02T20:00:28Z</time>
      </trkpt>
      <trkpt lat="46.16654" lon="1.14387">
        <ele>245.75</ele>
        <time>2021-08-02T20:00:38Z</time>
      </trkpt>
      <trkpt lat="46.16738" lon="1.14458">
        <ele>246.72</ele>
        <time>2021-08-02T20:00:47Z</time>
      </trkpt>
      <trkpt lat="46.16853" lon="1.14542">
        <ele>251.04</ele>
        <time>2021-08-02T20:01:00Z</time>
      </trkpt>
      <trkpt lat="46.17006" lon="1.14686">
        <ele>258.25</ele>
        <time>2021-08-02T20:01:14Z</time>
      </trkpt>
      <trkpt lat="46.17139" lon="1.14813">
        <ele>263.54</ele>
        <time>2021-08-02T20:01:24Z</time>
      </trkpt>
      <trkpt lat="46.17354" lon="1.15021">
        <ele>272.19</ele>
        <time>2021-08-02T20:01:39Z</time>
      </trkpt>
      <trkpt lat="46.17556" lon="1.1523">
        <ele>276.04</ele>
        <time>2021-08-02T20:01:52Z</time>
      </trkpt>
      <trkpt lat="46.17705" lon="1.15464">
        <ele>281.32</ele>
        <time>2021-08-02T20:02:05Z</time>
      </trkpt>
      <trkpt lat="46.17901" lon="1.15784">
        <ele>289.97</ele>
        <time>2021-08-02T20:02:21Z</time>
      </trkpt>
      <trkpt lat="46.17978" lon="1.15957">
        <ele>293.34</ele>
        <time>2021-08-02T20:02:29Z</time>
      </trkpt>
      <trkpt lat="46.17994" lon="1.16115">
        <ele>294.78</ele>
        <time>2021-08-02T20:02:36Z</time>
      </trkpt>
      <trkpt lat="46.17992" lon="1.1634">
        <ele>296.7</ele>
        <time>2021-08-02T20:02:44Z</time>
      </trkpt>
      <trkpt lat="46.17989" lon="1.16677">
        <ele>303.91</ele>
        <time>2021-08-02T20:02:57Z</time>
      </trkpt>
      <trkpt lat="46.18049" lon="1.16913">
        <ele>308.24</ele>
        <time>2021-08-02T20:03:06Z</time>
      </trkpt>
      <trkpt lat="46.18166" lon="1.17332">
        <ele>306.32</ele>
        <time>2021-08-02T20:03:22Z</time>
      </trkpt>
      <trkpt lat="46.18243" lon="1.17608">
        <ele>303.91</ele>
        <time>2021-08-02T20:03:33Z</time>
      </trkpt>
      <trkpt lat="46.18299" lon="1.17807">
        <ele>304.39</ele>
        <time>2021-08-02T20:03:41Z</time>
      </trkpt>
      <trkpt lat="46.18408" lon="1.18209">
        <ele>303.43</ele>
        <time>2021-08-02T20:03:56Z</time>
      </trkpt>
      <trkpt lat="46.18424" lon="1.18411">
        <ele>302.95</ele>
        <time>2021-08-02T20:04:03Z</time>
      </trkpt>
      <trkpt lat="46.18388" lon="1.18803">
        <ele>294.78</ele>
        <time>2021-08-02T20:04:16Z</time>
      </trkpt>
      <trkpt lat="46.18352" lon="1.1925">
        <ele>294.3</ele>
        <time>2021-08-02T20:04:30Z</time>
      </trkpt>
      <trkpt lat="46.18387" lon="1.19521">
        <ele>295.26</ele>
        <time>2021-08-02T20:04:37Z</time>
      </trkpt>
      <trkpt lat="46.18455" lon="1.19947">
        <ele>293.82</ele>
        <time>2021-08-02T20:04:49Z</time>
      </trkpt>
      <trkpt lat="46.18493" lon="1.20186">
        <ele>294.78</ele>
        <time>2021-08-02T20:04:56Z</time>
      </trkpt>
      <trkpt lat="46.1853" lon="1.20518">
        <ele>295.26</ele>
        <time>2021-08-02T20:05:07Z</time>
      </trkpt>
      <trkpt lat="46.18503" lon="1.20691">
        <ele>293.34</ele>
        <time>2021-08-02T20:05:13Z</time>
      </trkpt>
      <trkpt lat="46.18389" lon="1.21053">
        <ele>304.39</ele>
        <time>2021-08-02T20:05:27Z</time>
      </trkpt>
      <trkpt lat="46.18371" lon="1.21248">
        <ele>309.68</ele>
        <time>2021-08-02T20:05:34Z</time>
      </trkpt>
      <trkpt lat="46.18356" lon="1.21863">
        <ele>322.66</ele>
        <time>2021-08-02T20:05:57Z</time>
      </trkpt>
      <trkpt lat="46.18365" lon="1.22242">
        <ele>329.39</ele>
        <time>2021-08-02T20:06:13Z</time>
      </trkpt>
      <trkpt lat="46.18443" lon="1.22414">
        <ele>331.79</ele>
        <time>2021-08-02T20:06:20Z</time>
      </trkpt>
      <trkpt lat="46.1857" lon="1.22541">
        <ele>328.91</ele>
        <time>2021-08-02T20:06:29Z</time>
      </trkpt>
      <trkpt lat="46.18758" lon="1.22755">
        <ele>327.47</ele>
        <time>2021-08-02T20:06:41Z</time>
      </trkpt>
      <trkpt lat="46.18855" lon="1.23006">
        <ele>327.95</ele>
        <time>2021-08-02T20:06:50Z</time>
      </trkpt>
      <trkpt lat="46.18957" lon="1.23235">
        <ele>323.14</ele>
        <time>2021-08-02T20:07:00Z</time>
      </trkpt>
      <trkpt lat="46.19104" lon="1.23439">
        <ele>317.85</ele>
        <time>2021-08-02T20:07:10Z</time>
      </trkpt>
      <trkpt lat="46.19189" lon="1.23632">
        <ele>316.89</ele>
        <time>2021-08-02T20:07:18Z</time>
      </trkpt>
      <trkpt lat="46.19239" lon="1.2387">
        <ele>315.93</ele>
        <time>2021-08-02T20:07:27Z</time>
      </trkpt>
      <trkpt lat="46.1924" lon="1.24125">
        <ele>309.68</ele>
        <time>2021-08-02T20:07:36Z</time>
      </trkpt>
      <trkpt lat="46.19213" lon="1.24489">
        <ele>300.07</ele>
        <time>2021-08-02T20:07:48Z</time>
      </trkpt>
      <trkpt lat="46.19178" lon="1.24998">
        <ele>301.99</ele>
        <time>2021-08-02T20:08:04Z</time>
      </trkpt>
      <trkpt lat="46.19156" lon="1.25303">
        <ele>308.72</ele>
        <time>2021-08-02T20:08:15Z</time>
      </trkpt>
      <trkpt lat="46.19166" lon="1.25535">
        <ele>312.09</ele>
        <time>2021-08-02T20:08:23Z</time>
      </trkpt>
      <trkpt lat="46.19228" lon="1.2579">
        <ele>314.49</ele>
        <time>2021-08-02T20:08:35Z</time>
      </trkpt>
      <trkpt lat="46.19327" lon="1.26173">
        <ele>316.89</ele>
        <time>2021-08-02T20:08:50Z</time>
      </trkpt>
      <trkpt lat="46.19448" lon="1.26642">
        <ele>323.62</ele>
        <time>2021-08-02T20:09:08Z</time>
      </trkpt>
      <trkpt lat="46.1957" lon="1.27115">
        <ele>326.5</ele>
        <time>2021-08-02T20:09:24Z</time>
      </trkpt>
      <trkpt lat="46.19686" lon="1.27584">
        <ele>334.2</ele>
        <time>2021-08-02T20:09:40Z</time>
      </trkpt>
      <trkpt lat="46.19691" lon="1.27613">
        <ele>334.68</ele>
        <time>2021-08-02T20:09:41Z</time>
      </trkpt>
      <trkpt lat="46.19692" lon="1.27644">
        <ele>334.68</ele>
        <time>2021-08-02T20:09:42Z</time>
      </trkpt>
      <trkpt lat="46.1968" lon="1.27999">
        <ele>331.79</ele>
        <time>2021-08-02T20:09:53Z</time>
      </trkpt>
      <trkpt lat="46.19669" lon="1.28468">
        <ele>326.5</ele>
        <time>2021-08-02T20:10:07Z</time>
      </trkpt>
      <trkpt lat="46.19669" lon="1.28468">
        <ele>325.54</ele>
        <time>2021-08-02T20:10:08Z</time>
      </trkpt>
      <trkpt lat="46.19679" lon="1.28525">
        <ele>325.54</ele>
        <time>2021-08-02T20:10:09Z</time>
      </trkpt>
      <trkpt lat="46.19713" lon="1.28672">
        <ele>327.47</ele>
        <time>2021-08-02T20:10:16Z</time>
      </trkpt>
      <trkpt lat="46.19775" lon="1.2892">
        <ele>323.62</ele>
        <time>2021-08-02T20:10:29Z</time>
      </trkpt>
      <trkpt lat="46.19836" lon="1.29158">
        <ele>328.91</ele>
        <time>2021-08-02T20:10:45Z</time>
      </trkpt>
      <trkpt lat="46.19891" lon="1.29374">
        <ele>330.35</ele>
        <time>2021-08-02T20:11:02Z</time>
      </trkpt>
      <trkpt lat="46.19919" lon="1.29558">
        <ele>332.75</ele>
        <time>2021-08-02T20:11:14Z</time>
      </trkpt>
      <trkpt lat="46.19916" lon="1.29814">
        <ele>332.27</ele>
        <time>2021-08-02T20:11:28Z</time>
      </trkpt>
      <trkpt lat="46.19924" lon="1.30173">
        <ele>331.31</ele>
        <time>2021-08-02T20:11:45Z</time>
      </trkpt>
      <trkpt lat="46.19921" lon="1.30216">
        <ele>329.87</ele>
        <time>2021-08-02T20:11:47Z</time>
      </trkpt>
      <trkpt lat="46.19918" lon="1.30235">
        <ele>328.43</ele>
        <time>2021-08-02T20:11:48Z</time>
      </trkpt>
      <trkpt lat="46.19914" lon="1.30254">
        <ele>328.43</ele>
        <time>2021-08-02T20:11:49Z</time>
      </trkpt>
      <trkpt lat="46.19844" lon="1.30459">
        <ele>320.26</ele>
        <time>2021-08-02T20:12:00Z</time>
      </trkpt>
      <trkpt lat="46.19828" lon="1.3065">
        <ele>316.41</ele>
        <time>2021-08-02T20:12:08Z</time>
      </trkpt>
      <trkpt lat="46.19822" lon="1.30917">
        <ele>312.09</ele>
        <time>2021-08-02T20:12:19Z</time>
      </trkpt>
      <trkpt lat="46.19865" lon="1.31156">
        <ele>314.97</ele>
        <time>2021-08-02T20:12:27Z</time>
      </trkpt>
      <trkpt lat="46.1996" lon="1.31554">
        <ele>319.78</ele>
        <time>2021-08-02T20:12:42Z</time>
      </trkpt>
      <trkpt lat="46.19998" lon="1.31795">
        <ele>326.5</ele>
        <time>2021-08-02T20:12:54Z</time>
      </trkpt>
      <trkpt lat="46.20032" lon="1.32083">
        <ele>321.7</ele>
        <time>2021-08-02T20:13:08Z</time>
      </trkpt>
      <trkpt lat="46.20076" lon="1.32434">
        <ele>308.24</ele>
        <time>2021-08-02T20:13:22Z</time>
      </trkpt>
      <trkpt lat="46.20145" lon="1.3281">
        <ele>306.32</ele>
        <time>2021-08-02T20:13:34Z</time>
      </trkpt>
      <trkpt lat="46.20214" lon="1.33234">
        <ele>317.85</ele>
        <time>2021-08-02T20:13:49Z</time>
      </trkpt>
      <trkpt lat="46.20246" lon="1.33496">
        <ele>329.87</ele>
        <time>2021-08-02T20:13:59Z</time>
      </trkpt>
      <trkpt lat="46.20286" lon="1.33856">
        <ele>335.16</ele>
        <time>2021-08-02T20:14:14Z</time>
      </trkpt>
      <trkpt lat="46.2034" lon="1.34318">
        <ele>345.25</ele>
        <time>2021-08-02T20:14:33Z</time>
      </trkpt>
      <trkpt lat="46.20353" lon="1.34589">
        <ele>348.13</ele>
        <time>2021-08-02T20:14:44Z</time>
      </trkpt>
      <trkpt lat="46.20306" lon="1.34804">
        <ele>347.17</ele>
        <time>2021-08-02T20:14:53Z</time>
      </trkpt>
      <trkpt lat="46.20252" lon="1.35062">
        <ele>347.65</ele>
        <time>2021-08-02T20:15:03Z</time>
      </trkpt>
      <trkpt lat="46.20152" lon="1.3551">
        <ele>350.06</ele>
        <time>2021-08-02T20:15:20Z</time>
      </trkpt>
      <trkpt lat="46.20068" lon="1.35888">
        <ele>364.96</ele>
        <time>2021-08-02T20:15:34Z</time>
      </trkpt>
      <trkpt lat="46.2001" lon="1.36148">
        <ele>372.17</ele>
        <time>2021-08-02T20:15:45Z</time>
      </trkpt>
      <trkpt lat="46.19985" lon="1.3639">
        <ele>374.57</ele>
        <time>2021-08-02T20:15:55Z</time>
      </trkpt>
      <trkpt lat="46.20018" lon="1.36596">
        <ele>376.49</ele>
        <time>2021-08-02T20:16:03Z</time>
      </trkpt>
      <trkpt lat="46.20115" lon="1.36984">
        <ele>380.34</ele>
        <time>2021-08-02T20:16:17Z</time>
      </trkpt>
      <trkpt lat="46.20209" lon="1.37441">
        <ele>384.18</ele>
        <time>2021-08-02T20:16:34Z</time>
      </trkpt>
      <trkpt lat="46.20265" lon="1.37707">
        <ele>383.22</ele>
        <time>2021-08-02T20:16:46Z</time>
      </trkpt>
      <trkpt lat="46.20293" lon="1.3784">
        <ele>382.74</ele>
        <time>2021-08-02T20:16:54Z</time>
      </trkpt>
      <trkpt lat="46.20308" lon="1.37926">
        <ele>382.26</ele>
        <time>2021-08-02T20:17:04Z</time>
      </trkpt>
      <trkpt lat="46.20314" lon="1.3796">
        <ele>381.78</ele>
        <time>2021-08-02T20:17:12Z</time>
      </trkpt>
      <trkpt lat="46.20315" lon="1.37966">
        <ele>381.78</ele>
        <time>2021-08-02T20:17:13Z</time>
      </trkpt>
      <trkpt lat="46.20315" lon="1.37969">
        <ele>381.78</ele>
        <time>2021-08-02T20:17:14Z</time>
      </trkpt>
      <trkpt lat="46.20311" lon="1.37987">
        <ele>381.3</ele>
        <time>2021-08-02T20:17:16Z</time>
      </trkpt>
      <trkpt lat="46.20311" lon="1.37995">
        <ele>381.3</ele>
        <time>2021-08-02T20:17:17Z</time>
      </trkpt>
      <trkpt lat="46.20311" lon="1.37996">
        <ele>380.82</ele>
        <time>2021-08-02T20:17:18Z</time>
      </trkpt>
      <trkpt lat="46.20316" lon="1.38006">
        <ele>380.34</ele>
        <time>2021-08-02T20:17:19Z</time>
      </trkpt>
      <trkpt lat="46.20319" lon="1.38012">
        <ele>379.86</ele>
        <time>2021-08-02T20:17:20Z</time>
      </trkpt>
      <trkpt lat="46.20323" lon="1.38018">
        <ele>379.86</ele>
        <time>2021-08-02T20:17:21Z</time>
      </trkpt>
      <trkpt lat="46.2033" lon="1.38033">
        <ele>379.86</ele>
        <time>2021-08-02T20:17:23Z</time>
      </trkpt>
      <trkpt lat="46.20333" lon="1.3804">
        <ele>379.86</ele>
        <time>2021-08-02T20:17:24Z</time>
      </trkpt>
      <trkpt lat="46.20335" lon="1.3805">
        <ele>379.86</ele>
        <time>2021-08-02T20:17:25Z</time>
      </trkpt>
      <trkpt lat="46.20368" lon="1.38206">
        <ele>379.38</ele>
        <time>2021-08-02T20:17:37Z</time>
      </trkpt>
      <trkpt lat="46.20398" lon="1.38349">
        <ele>378.9</ele>
        <time>2021-08-02T20:17:48Z</time>
      </trkpt>
      <trkpt lat="46.20414" lon="1.38426">
        <ele>375.53</ele>
        <time>2021-08-02T20:17:57Z</time>
      </trkpt>
      <trkpt lat="46.20449" lon="1.38605">
        <ele>373.61</ele>
        <time>2021-08-02T20:18:07Z</time>
      </trkpt>
      <trkpt lat="46.20508" lon="1.38806">
        <ele>369.28</ele>
        <time>2021-08-02T20:18:16Z</time>
      </trkpt>
      <trkpt lat="46.20546" lon="1.38988">
        <ele>367.84</ele>
        <time>2021-08-02T20:18:23Z</time>
      </trkpt>
      <trkpt lat="46.20547" lon="1.39">
        <ele>367.84</ele>
        <time>2021-08-02T20:18:24Z</time>
      </trkpt>
      <trkpt lat="46.20547" lon="1.39">
        <ele>367.84</ele>
        <time>2021-08-02T20:18:25Z</time>
      </trkpt>
      <trkpt lat="46.20544" lon="1.39014">
        <ele>368.32</ele>
        <time>2021-08-02T20:18:26Z</time>
      </trkpt>
      <trkpt lat="46.20538" lon="1.39037">
        <ele>368.8</ele>
        <time>2021-08-02T20:18:27Z</time>
      </trkpt>
      <trkpt lat="46.20531" lon="1.39046">
        <ele>368.8</ele>
        <time>2021-08-02T20:18:28Z</time>
      </trkpt>
      <trkpt lat="46.20531" lon="1.39046">
        <ele>368.8</ele>
        <time>2021-08-02T20:18:29Z</time>
      </trkpt>
      <trkpt lat="46.20525" lon="1.39059">
        <ele>367.84</ele>
        <time>2021-08-02T20:18:30Z</time>
      </trkpt>
      <trkpt lat="46.20526" lon="1.39075">
        <ele>366.4</ele>
        <time>2021-08-02T20:18:31Z</time>
      </trkpt>
      <trkpt lat="46.20531" lon="1.39089">
        <ele>365.92</ele>
        <time>2021-08-02T20:18:32Z</time>
      </trkpt>
      <trkpt lat="46.20534" lon="1.39106">
        <ele>366.4</ele>
        <time>2021-08-02T20:18:33Z</time>
      </trkpt>
      <trkpt lat="46.20539" lon="1.39143">
        <ele>365.92</ele>
        <time>2021-08-02T20:18:34Z</time>
      </trkpt>
      <trkpt lat="46.20539" lon="1.39143">
        <ele>364.96</ele>
        <time>2021-08-02T20:18:35Z</time>
      </trkpt>
      <trkpt lat="46.20575" lon="1.39309">
        <ele>364.48</ele>
        <time>2021-08-02T20:18:42Z</time>
      </trkpt>
      <trkpt lat="46.20659" lon="1.39512">
        <ele>363.52</ele>
        <time>2021-08-02T20:18:50Z</time>
      </trkpt>
      <trkpt lat="46.20798" lon="1.39766">
        <ele>355.83</ele>
        <time>2021-08-02T20:18:59Z</time>
      </trkpt>
      <trkpt lat="46.20985" lon="1.40152">
        <ele>355.83</ele>
        <time>2021-08-02T20:19:10Z</time>
      </trkpt>
      <trkpt lat="46.21226" lon="1.40669">
        <ele>359.19</ele>
        <time>2021-08-02T20:19:28Z</time>
      </trkpt>
      <trkpt lat="46.21469" lon="1.41194">
        <ele>366.88</ele>
        <time>2021-08-02T20:19:45Z</time>
      </trkpt>
      <trkpt lat="46.21572" lon="1.41512">
        <ele>369.76</ele>
        <time>2021-08-02T20:19:55Z</time>
      </trkpt>
      <trkpt lat="46.21716" lon="1.42095">
        <ele>366.88</ele>
        <time>2021-08-02T20:20:12Z</time>
      </trkpt>
      <trkpt lat="46.21751" lon="1.42468">
        <ele>362.07</ele>
        <time>2021-08-02T20:20:22Z</time>
      </trkpt>
      <trkpt lat="46.2173" lon="1.42834">
        <ele>356.79</ele>
        <time>2021-08-02T20:20:32Z</time>
      </trkpt>
      <trkpt lat="46.21646" lon="1.43339">
        <ele>357.27</ele>
        <time>2021-08-02T20:20:46Z</time>
      </trkpt>
      <trkpt lat="46.21568" lon="1.43828">
        <ele>364</ele>
        <time>2021-08-02T20:21:00Z</time>
      </trkpt>
      <trkpt lat="46.21565" lon="1.44115">
        <ele>364.48</ele>
        <time>2021-08-02T20:21:08Z</time>
      </trkpt>
      <trkpt lat="46.21633" lon="1.4447">
        <ele>362.55</ele>
        <time>2021-08-02T20:21:17Z</time>
      </trkpt>
      <trkpt lat="46.21765" lon="1.45009">
        <ele>363.04</ele>
        <time>2021-08-02T20:21:33Z</time>
      </trkpt>
      <trkpt lat="46.21882" lon="1.45267">
        <ele>364</ele>
        <time>2021-08-02T20:21:41Z</time>
      </trkpt>
      <trkpt lat="46.22035" lon="1.45485">
        <ele>365.44</ele>
        <time>2021-08-02T20:21:49Z</time>
      </trkpt>
      <trkpt lat="46.22354" lon="1.45828">
        <ele>370.73</ele>
        <time>2021-08-02T20:22:04Z</time>
      </trkpt>
      <trkpt lat="46.22461" lon="1.46034">
        <ele>376.01</ele>
        <time>2021-08-02T20:22:11Z</time>
      </trkpt>
      <trkpt lat="46.22538" lon="1.4631">
        <ele>379.38</ele>
        <time>2021-08-02T20:22:19Z</time>
      </trkpt>
      <trkpt lat="46.22631" lon="1.46895">
        <ele>380.34</ele>
        <time>2021-08-02T20:22:35Z</time>
      </trkpt>
      <trkpt lat="46.22641" lon="1.47264">
        <ele>379.86</ele>
        <time>2021-08-02T20:22:45Z</time>
      </trkpt>
      <trkpt lat="46.22614" lon="1.47599">
        <ele>374.57</ele>
        <time>2021-08-02T20:22:54Z</time>
      </trkpt>
      <trkpt lat="46.2253" lon="1.47883">
        <ele>376.49</ele>
        <time>2021-08-02T20:23:01Z</time>
      </trkpt>
      <trkpt lat="46.22361" lon="1.48372">
        <ele>380.34</ele>
        <time>2021-08-02T20:23:16Z</time>
      </trkpt>
      <trkpt lat="46.22305" lon="1.48616">
        <ele>381.3</ele>
        <time>2021-08-02T20:23:24Z</time>
      </trkpt>
      <trkpt lat="46.22286" lon="1.48918">
        <ele>385.15</ele>
        <time>2021-08-02T20:23:32Z</time>
      </trkpt>
      <trkpt lat="46.22315" lon="1.49222">
        <ele>385.15</ele>
        <time>2021-08-02T20:23:40Z</time>
      </trkpt>
      <trkpt lat="46.22395" lon="1.49514">
        <ele>378.9</ele>
        <time>2021-08-02T20:23:48Z</time>
      </trkpt>
      <trkpt lat="46.22589" lon="1.49972">
        <ele>364.48</ele>
        <time>2021-08-02T20:24:01Z</time>
      </trkpt>
      <trkpt lat="46.22819" lon="1.50503">
        <ele>368.8</ele>
        <time>2021-08-02T20:24:17Z</time>
      </trkpt>
      <trkpt lat="46.22975" lon="1.50752">
        <ele>372.65</ele>
        <time>2021-08-02T20:24:26Z</time>
      </trkpt>
      <trkpt lat="46.23278" lon="1.51193">
        <ele>385.15</ele>
        <time>2021-08-02T20:24:43Z</time>
      </trkpt>
      <trkpt lat="46.23491" lon="1.51474">
        <ele>384.18</ele>
        <time>2021-08-02T20:24:54Z</time>
      </trkpt>
      <trkpt lat="46.2364" lon="1.51759">
        <ele>389.47</ele>
        <time>2021-08-02T20:25:04Z</time>
      </trkpt>
      <trkpt lat="46.23753" lon="1.5208">
        <ele>395.24</ele>
        <time>2021-08-02T20:25:15Z</time>
      </trkpt>
      <trkpt lat="46.23849" lon="1.52526">
        <ele>403.89</ele>
        <time>2021-08-02T20:25:30Z</time>
      </trkpt>
      <trkpt lat="46.23864" lon="1.52829">
        <ele>408.7</ele>
        <time>2021-08-02T20:25:40Z</time>
      </trkpt>
      <trkpt lat="46.23831" lon="1.53098">
        <ele>413.02</ele>
        <time>2021-08-02T20:25:49Z</time>
      </trkpt>
      <trkpt lat="46.2371" lon="1.53668">
        <ele>417.35</ele>
        <time>2021-08-02T20:26:08Z</time>
      </trkpt>
      <trkpt lat="46.23611" lon="1.53916">
        <ele>424.08</ele>
        <time>2021-08-02T20:26:17Z</time>
      </trkpt>
      <trkpt lat="46.23449" lon="1.54266">
        <ele>429.85</ele>
        <time>2021-08-02T20:26:30Z</time>
      </trkpt>
      <trkpt lat="46.23319" lon="1.54617">
        <ele>427.44</ele>
        <time>2021-08-02T20:26:41Z</time>
      </trkpt>
      <trkpt lat="46.23185" lon="1.54849">
        <ele>425.52</ele>
        <time>2021-08-02T20:26:49Z</time>
      </trkpt>
      <trkpt lat="46.2301" lon="1.55018">
        <ele>425.04</ele>
        <time>2021-08-02T20:26:57Z</time>
      </trkpt>
      <trkpt lat="46.22767" lon="1.5523">
        <ele>429.37</ele>
        <time>2021-08-02T20:27:08Z</time>
      </trkpt>
      <trkpt lat="46.22641" lon="1.55433">
        <ele>427.44</ele>
        <time>2021-08-02T20:27:15Z</time>
      </trkpt>
      <trkpt lat="46.22554" lon="1.55687">
        <ele>422.64</ele>
        <time>2021-08-02T20:27:22Z</time>
      </trkpt>
      <trkpt lat="46.2244" lon="1.56269">
        <ele>418.31</ele>
        <time>2021-08-02T20:27:37Z</time>
      </trkpt>
      <trkpt lat="46.22312" lon="1.56984">
        <ele>413.02</ele>
        <time>2021-08-02T20:27:56Z</time>
      </trkpt>
      <trkpt lat="46.22292" lon="1.57443">
        <ele>409.18</ele>
        <time>2021-08-02T20:28:08Z</time>
      </trkpt>
      <trkpt lat="46.22272" lon="1.57934">
        <ele>407.26</ele>
        <time>2021-08-02T20:28:21Z</time>
      </trkpt>
      <trkpt lat="46.22213" lon="1.58323">
        <ele>412.06</ele>
        <time>2021-08-02T20:28:32Z</time>
      </trkpt>
      <trkpt lat="46.22126" lon="1.5877">
        <ele>413.98</ele>
        <time>2021-08-02T20:28:45Z</time>
      </trkpt>
      <trkpt lat="46.22086" lon="1.5928">
        <ele>412.06</ele>
        <time>2021-08-02T20:28:58Z</time>
      </trkpt>
      <trkpt lat="46.221" lon="1.59573">
        <ele>404.37</ele>
        <time>2021-08-02T20:29:07Z</time>
      </trkpt>
      <trkpt lat="46.22169" lon="1.6016">
        <ele>403.89</ele>
        <time>2021-08-02T20:29:23Z</time>
      </trkpt>
      <trkpt lat="46.22235" lon="1.60712">
        <ele>413.98</ele>
        <time>2021-08-02T20:29:39Z</time>
      </trkpt>
      <trkpt lat="46.22239" lon="1.61023">
        <ele>421.68</ele>
        <time>2021-08-02T20:29:48Z</time>
      </trkpt>
      <trkpt lat="46.2219" lon="1.61318">
        <ele>426.48</ele>
        <time>2021-08-02T20:29:57Z</time>
      </trkpt>
      <trkpt lat="46.22038" lon="1.6189">
        <ele>428.89</ele>
        <time>2021-08-02T20:30:15Z</time>
      </trkpt>
      <trkpt lat="46.21888" lon="1.62397">
        <ele>421.68</ele>
        <time>2021-08-02T20:30:30Z</time>
      </trkpt>
      <trkpt lat="46.2162" lon="1.63205">
        <ele>396.2</ele>
        <time>2021-08-02T20:30:53Z</time>
      </trkpt>
      <trkpt lat="46.21442" lon="1.63751">
        <ele>394.28</ele>
        <time>2021-08-02T20:31:09Z</time>
      </trkpt>
      <trkpt lat="46.21405" lon="1.63995">
        <ele>397.16</ele>
        <time>2021-08-02T20:31:16Z</time>
      </trkpt>
      <trkpt lat="46.21418" lon="1.64246">
        <ele>397.16</ele>
        <time>2021-08-02T20:31:23Z</time>
      </trkpt>
      <trkpt lat="46.21496" lon="1.64596">
        <ele>398.12</ele>
        <time>2021-08-02T20:31:33Z</time>
      </trkpt>
      <trkpt lat="46.21681" lon="1.65358">
        <ele>394.28</ele>
        <time>2021-08-02T20:31:54Z</time>
      </trkpt>
      <trkpt lat="46.21765" lon="1.6559">
        <ele>403.89</ele>
        <time>2021-08-02T20:32:01Z</time>
      </trkpt>
      <trkpt lat="46.21905" lon="1.65798">
        <ele>415.43</ele>
        <time>2021-08-02T20:32:09Z</time>
      </trkpt>
      <trkpt lat="46.22035" lon="1.6602">
        <ele>422.64</ele>
        <time>2021-08-02T20:32:17Z</time>
      </trkpt>
      <trkpt lat="46.22105" lon="1.6629">
        <ele>426.96</ele>
        <time>2021-08-02T20:32:25Z</time>
      </trkpt>
      <trkpt lat="46.22195" lon="1.66746">
        <ele>429.37</ele>
        <time>2021-08-02T20:32:38Z</time>
      </trkpt>
      <trkpt lat="46.22251" lon="1.67289">
        <ele>429.37</ele>
        <time>2021-08-02T20:32:53Z</time>
      </trkpt>
      <trkpt lat="46.22231" lon="1.6767">
        <ele>426.48</ele>
        <time>2021-08-02T20:33:02Z</time>
      </trkpt>
      <trkpt lat="46.22175" lon="1.6831">
        <ele>433.21</ele>
        <time>2021-08-02T20:33:20Z</time>
      </trkpt>
      <trkpt lat="46.2213" lon="1.6879">
        <ele>447.15</ele>
        <time>2021-08-02T20:33:34Z</time>
      </trkpt>
      <trkpt lat="46.22092" lon="1.69159">
        <ele>455.32</ele>
        <time>2021-08-02T20:33:45Z</time>
      </trkpt>
      <trkpt lat="46.22104" lon="1.69474">
        <ele>452.92</ele>
        <time>2021-08-02T20:33:54Z</time>
      </trkpt>
      <trkpt lat="46.22123" lon="1.69845">
        <ele>445.71</ele>
        <time>2021-08-02T20:34:04Z</time>
      </trkpt>
      <trkpt lat="46.22074" lon="1.70069">
        <ele>440.9</ele>
        <time>2021-08-02T20:34:10Z</time>
      </trkpt>
      <trkpt lat="46.21825" lon="1.70769">
        <ele>428.4</ele>
        <time>2021-08-02T20:34:30Z</time>
      </trkpt>
      <trkpt lat="46.21702" lon="1.7114">
        <ele>436.1</ele>
        <time>2021-08-02T20:34:41Z</time>
      </trkpt>
      <trkpt lat="46.21676" lon="1.71384">
        <ele>444.27</ele>
        <time>2021-08-02T20:34:48Z</time>
      </trkpt>
      <trkpt lat="46.21687" lon="1.71704">
        <ele>452.92</ele>
        <time>2021-08-02T20:34:57Z</time>
      </trkpt>
      <trkpt lat="46.2165" lon="1.71997">
        <ele>448.59</ele>
        <time>2021-08-02T20:35:05Z</time>
      </trkpt>
      <trkpt lat="46.21565" lon="1.72635">
        <ele>436.58</ele>
        <time>2021-08-02T20:35:21Z</time>
      </trkpt>
      <trkpt lat="46.21545" lon="1.73055">
        <ele>447.15</ele>
        <time>2021-08-02T20:35:33Z</time>
      </trkpt>
      <trkpt lat="46.21504" lon="1.73374">
        <ele>453.88</ele>
        <time>2021-08-02T20:35:42Z</time>
      </trkpt>
      <trkpt lat="46.21401" lon="1.73783">
        <ele>460.13</ele>
        <time>2021-08-02T20:35:54Z</time>
      </trkpt>
      <trkpt lat="46.21225" lon="1.74414">
        <ele>455.32</ele>
        <time>2021-08-02T20:36:11Z</time>
      </trkpt>
      <trkpt lat="46.21111" lon="1.74629">
        <ele>451.48</ele>
        <time>2021-08-02T20:36:18Z</time>
      </trkpt>
      <trkpt lat="46.20979" lon="1.74767">
        <ele>448.11</ele>
        <time>2021-08-02T20:36:25Z</time>
      </trkpt>
      <trkpt lat="46.20732" lon="1.74926">
        <ele>445.71</ele>
        <time>2021-08-02T20:36:35Z</time>
      </trkpt>
      <trkpt lat="46.2052" lon="1.74971">
        <ele>446.19</ele>
        <time>2021-08-02T20:36:43Z</time>
      </trkpt>
      <trkpt lat="46.20282" lon="1.75043">
        <ele>444.27</ele>
        <time>2021-08-02T20:36:52Z</time>
      </trkpt>
      <trkpt lat="46.2012" lon="1.75168">
        <ele>447.63</ele>
        <time>2021-08-02T20:36:59Z</time>
      </trkpt>
      <trkpt lat="46.19973" lon="1.75378">
        <ele>447.63</ele>
        <time>2021-08-02T20:37:06Z</time>
      </trkpt>
      <trkpt lat="46.19894" lon="1.75577">
        <ele>446.67</ele>
        <time>2021-08-02T20:37:13Z</time>
      </trkpt>
      <trkpt lat="46.19835" lon="1.75872">
        <ele>446.67</ele>
        <time>2021-08-02T20:37:21Z</time>
      </trkpt>
      <trkpt lat="46.1975" lon="1.76378">
        <ele>463.49</ele>
        <time>2021-08-02T20:37:35Z</time>
      </trkpt>
      <trkpt lat="46.19654" lon="1.76977">
        <ele>486.08</ele>
        <time>2021-08-02T20:37:53Z</time>
      </trkpt>
      <trkpt lat="46.19657" lon="1.77251">
        <ele>492.33</ele>
        <time>2021-08-02T20:38:01Z</time>
      </trkpt>
      <trkpt lat="46.19707" lon="1.77491">
        <ele>494.26</ele>
        <time>2021-08-02T20:38:08Z</time>
      </trkpt>
      <trkpt lat="46.19768" lon="1.77769">
        <ele>492.81</ele>
        <time>2021-08-02T20:38:16Z</time>
      </trkpt>
      <trkpt lat="46.19762" lon="1.78071">
        <ele>488.01</ele>
        <time>2021-08-02T20:38:23Z</time>
      </trkpt>
      <trkpt lat="46.19702" lon="1.78417">
        <ele>475.51</ele>
        <time>2021-08-02T20:38:33Z</time>
      </trkpt>
      <trkpt lat="46.19593" lon="1.78939">
        <ele>480.8</ele>
        <time>2021-08-02T20:38:46Z</time>
      </trkpt>
      <trkpt lat="46.19429" lon="1.79572">
        <ele>485.6</ele>
        <time>2021-08-02T20:39:05Z</time>
      </trkpt>
      <trkpt lat="46.19271" lon="1.8017">
        <ele>497.14</ele>
        <time>2021-08-02T20:39:22Z</time>
      </trkpt>
      <trkpt lat="46.19112" lon="1.80772">
        <ele>490.41</ele>
        <time>2021-08-02T20:39:39Z</time>
      </trkpt>
      <trkpt lat="46.19012" lon="1.81053">
        <ele>476.47</ele>
        <time>2021-08-02T20:39:47Z</time>
      </trkpt>
      <trkpt lat="46.18814" lon="1.81531">
        <ele>453.88</ele>
        <time>2021-08-02T20:40:00Z</time>
      </trkpt>
      <trkpt lat="46.18766" lon="1.81836">
        <ele>440.9</ele>
        <time>2021-08-02T20:40:08Z</time>
      </trkpt>
      <trkpt lat="46.18696" lon="1.82134">
        <ele>425.52</ele>
        <time>2021-08-02T20:40:17Z</time>
      </trkpt>
      <trkpt lat="46.18609" lon="1.82505">
        <ele>413.5</ele>
        <time>2021-08-02T20:40:27Z</time>
      </trkpt>
      <trkpt lat="46.18594" lon="1.82809">
        <ele>413.02</ele>
        <time>2021-08-02T20:40:35Z</time>
      </trkpt>
      <trkpt lat="46.18567" lon="1.83238">
        <ele>409.18</ele>
        <time>2021-08-02T20:40:46Z</time>
      </trkpt>
      <trkpt lat="46.18511" lon="1.83884">
        <ele>406.29</ele>
        <time>2021-08-02T20:41:06Z</time>
      </trkpt>
      <trkpt lat="46.18457" lon="1.84612">
        <ele>391.39</ele>
        <time>2021-08-02T20:41:26Z</time>
      </trkpt>
      <trkpt lat="46.1846" lon="1.85087">
        <ele>379.38</ele>
        <time>2021-08-02T20:41:40Z</time>
      </trkpt>
      <trkpt lat="46.18487" lon="1.85714">
        <ele>367.84</ele>
        <time>2021-08-02T20:41:57Z</time>
      </trkpt>
      <trkpt lat="46.18479" lon="1.86183">
        <ele>380.34</ele>
        <time>2021-08-02T20:42:10Z</time>
      </trkpt>
      <trkpt lat="46.18425" lon="1.8669">
        <ele>390.91</ele>
        <time>2021-08-02T20:42:24Z</time>
      </trkpt>
      <trkpt lat="46.18328" lon="1.87291">
        <ele>393.8</ele>
        <time>2021-08-02T20:42:40Z</time>
      </trkpt>
      <trkpt lat="46.1823" lon="1.87881">
        <ele>388.99</ele>
        <time>2021-08-02T20:42:56Z</time>
      </trkpt>
      <trkpt lat="46.18097" lon="1.88469">
        <ele>398.6</ele>
        <time>2021-08-02T20:43:13Z</time>
      </trkpt>
      <trkpt lat="46.17939" lon="1.89122">
        <ele>402.93</ele>
        <time>2021-08-02T20:43:32Z</time>
      </trkpt>
      <trkpt lat="46.17788" lon="1.89758">
        <ele>394.28</ele>
        <time>2021-08-02T20:43:50Z</time>
      </trkpt>
      <trkpt lat="46.17768" lon="1.90024">
        <ele>392.84</ele>
        <time>2021-08-02T20:43:57Z</time>
      </trkpt>
      <trkpt lat="46.17806" lon="1.90287">
        <ele>393.32</ele>
        <time>2021-08-02T20:44:04Z</time>
      </trkpt>
      <trkpt lat="46.17923" lon="1.90858">
        <ele>384.18</ele>
        <time>2021-08-02T20:44:20Z</time>
      </trkpt>
      <trkpt lat="46.18031" lon="1.91323">
        <ele>371.21</ele>
        <time>2021-08-02T20:44:34Z</time>
      </trkpt>
      <trkpt lat="46.18155" lon="1.91676">
        <ele>371.69</ele>
        <time>2021-08-02T20:44:46Z</time>
      </trkpt>
      <trkpt lat="46.1833" lon="1.92089">
        <ele>364</ele>
        <time>2021-08-02T20:45:01Z</time>
      </trkpt>
      <trkpt lat="46.18437" lon="1.92356">
        <ele>354.86</ele>
        <time>2021-08-02T20:45:13Z</time>
      </trkpt>
      <trkpt lat="46.18529" lon="1.92585">
        <ele>351.98</ele>
        <time>2021-08-02T20:45:25Z</time>
      </trkpt>
      <trkpt lat="46.18535" lon="1.92601">
        <ele>352.94</ele>
        <time>2021-08-02T20:45:26Z</time>
      </trkpt>
      <trkpt lat="46.18553" lon="1.92647">
        <ele>352.46</ele>
        <time>2021-08-02T20:45:29Z</time>
      </trkpt>
      <trkpt lat="46.18628" lon="1.92836">
        <ele>351.98</ele>
        <time>2021-08-02T20:45:40Z</time>
      </trkpt>
      <trkpt lat="46.18757" lon="1.93158">
        <ele>349.58</ele>
        <time>2021-08-02T20:45:56Z</time>
      </trkpt>
      <trkpt lat="46.18822" lon="1.93372">
        <ele>346.69</ele>
        <time>2021-08-02T20:46:06Z</time>
      </trkpt>
      <trkpt lat="46.18854" lon="1.93649">
        <ele>340.44</ele>
        <time>2021-08-02T20:46:18Z</time>
      </trkpt>
      <trkpt lat="46.18878" lon="1.94177">
        <ele>324.58</ele>
        <time>2021-08-02T20:46:42Z</time>
      </trkpt>
      <trkpt lat="46.18887" lon="1.94365">
        <ele>326.02</ele>
        <time>2021-08-02T20:46:51Z</time>
      </trkpt>
      <trkpt lat="46.18887" lon="1.9438">
        <ele>327.95</ele>
        <time>2021-08-02T20:46:53Z</time>
      </trkpt>
      <trkpt lat="46.18888" lon="1.94396">
        <ele>327.95</ele>
        <time>2021-08-02T20:46:54Z</time>
      </trkpt>
      <trkpt lat="46.18889" lon="1.94411">
        <ele>327.95</ele>
        <time>2021-08-02T20:46:55Z</time>
      </trkpt>
      <trkpt lat="46.1889" lon="1.94426">
        <ele>328.91</ele>
        <time>2021-08-02T20:46:56Z</time>
      </trkpt>
      <trkpt lat="46.1889" lon="1.9444">
        <ele>329.87</ele>
        <time>2021-08-02T20:46:57Z</time>
      </trkpt>
      <trkpt lat="46.18901" lon="1.9465">
        <ele>337.56</ele>
        <time>2021-08-02T20:47:08Z</time>
      </trkpt>
      <trkpt lat="46.18926" lon="1.94919">
        <ele>346.69</ele>
        <time>2021-08-02T20:47:19Z</time>
      </trkpt>
      <trkpt lat="46.18992" lon="1.95128">
        <ele>353.42</ele>
        <time>2021-08-02T20:47:29Z</time>
      </trkpt>
      <trkpt lat="46.19088" lon="1.9526">
        <ele>363.04</ele>
        <time>2021-08-02T20:47:37Z</time>
      </trkpt>
      <trkpt lat="46.19229" lon="1.95355">
        <ele>369.28</ele>
        <time>2021-08-02T20:47:45Z</time>
      </trkpt>
      <trkpt lat="46.19448" lon="1.95488">
        <ele>381.78</ele>
        <time>2021-08-02T20:47:56Z</time>
      </trkpt>
      <trkpt lat="46.19581" lon="1.95643">
        <ele>390.91</ele>
        <time>2021-08-02T20:48:04Z</time>
      </trkpt>
      <trkpt lat="46.1971" lon="1.95898">
        <ele>403.41</ele>
        <time>2021-08-02T20:48:14Z</time>
      </trkpt>
      <trkpt lat="46.19894" lon="1.96342">
        <ele>420.23</ele>
        <time>2021-08-02T20:48:30Z</time>
      </trkpt>
      <trkpt lat="46.19994" lon="1.96788">
        <ele>435.13</ele>
        <time>2021-08-02T20:48:44Z</time>
      </trkpt>
      <trkpt lat="46.20122" lon="1.97439">
        <ele>448.59</ele>
        <time>2021-08-02T20:49:03Z</time>
      </trkpt>
      <trkpt lat="46.20228" lon="1.97948">
        <ele>457.72</ele>
        <time>2021-08-02T20:49:17Z</time>
      </trkpt>
      <trkpt lat="46.20343" lon="1.98297">
        <ele>454.84</ele>
        <time>2021-08-02T20:49:27Z</time>
      </trkpt>
      <trkpt lat="46.20423" lon="1.98637">
        <ele>457.72</ele>
        <time>2021-08-02T20:49:36Z</time>
      </trkpt>
      <trkpt lat="46.20448" lon="1.99016">
        <ele>464.93</ele>
        <time>2021-08-02T20:49:45Z</time>
      </trkpt>
      <trkpt lat="46.20427" lon="1.99352">
        <ele>470.7</ele>
        <time>2021-08-02T20:49:55Z</time>
      </trkpt>
      <trkpt lat="46.20415" lon="1.99804">
        <ele>475.99</ele>
        <time>2021-08-02T20:50:07Z</time>
      </trkpt>
      <trkpt lat="46.20457" lon="2.0022">
        <ele>481.28</ele>
        <time>2021-08-02T20:50:18Z</time>
      </trkpt>
      <trkpt lat="46.20537" lon="2.00584">
        <ele>480.32</ele>
        <time>2021-08-02T20:50:28Z</time>
      </trkpt>
      <trkpt lat="46.20667" lon="2.01041">
        <ele>486.56</ele>
        <time>2021-08-02T20:50:41Z</time>
      </trkpt>
      <trkpt lat="46.20718" lon="2.01404">
        <ele>496.18</ele>
        <time>2021-08-02T20:50:51Z</time>
      </trkpt>
      <trkpt lat="46.20711" lon="2.01781">
        <ele>504.35</ele>
        <time>2021-08-02T20:51:01Z</time>
      </trkpt>
      <trkpt lat="46.20644" lon="2.02673">
        <ele>520.69</ele>
        <time>2021-08-02T20:51:25Z</time>
      </trkpt>
      <trkpt lat="46.20577" lon="2.03544">
        <ele>522.13</ele>
        <time>2021-08-02T20:51:48Z</time>
      </trkpt>
      <trkpt lat="46.20522" lon="2.03956">
        <ele>520.21</ele>
        <time>2021-08-02T20:51:59Z</time>
      </trkpt>
      <trkpt lat="46.20466" lon="2.04411">
        <ele>517.33</ele>
        <time>2021-08-02T20:52:11Z</time>
      </trkpt>
      <trkpt lat="46.20474" lon="2.04764">
        <ele>512.04</ele>
        <time>2021-08-02T20:52:20Z</time>
      </trkpt>
      <trkpt lat="46.20465" lon="2.05164">
        <ele>506.27</ele>
        <time>2021-08-02T20:52:30Z</time>
      </trkpt>
      <trkpt lat="46.20384" lon="2.06177">
        <ele>491.37</ele>
        <time>2021-08-02T20:52:55Z</time>
      </trkpt>
      <trkpt lat="46.20333" lon="2.06933">
        <ele>480.8</ele>
        <time>2021-08-02T20:53:16Z</time>
      </trkpt>
      <trkpt lat="46.20348" lon="2.07317">
        <ele>475.03</ele>
        <time>2021-08-02T20:53:26Z</time>
      </trkpt>
      <trkpt lat="46.20415" lon="2.07735">
        <ele>468.3</ele>
        <time>2021-08-02T20:53:37Z</time>
      </trkpt>
      <trkpt lat="46.20455" lon="2.08119">
        <ele>466.38</ele>
        <time>2021-08-02T20:53:46Z</time>
      </trkpt>
      <trkpt lat="46.20509" lon="2.08797">
        <ele>450.03</ele>
        <time>2021-08-02T20:54:04Z</time>
      </trkpt>
      <trkpt lat="46.2052" lon="2.09232">
        <ele>444.27</ele>
        <time>2021-08-02T20:54:15Z</time>
      </trkpt>
      <trkpt lat="46.20477" lon="2.09502">
        <ele>440.9</ele>
        <time>2021-08-02T20:54:22Z</time>
      </trkpt>
      <trkpt lat="46.20376" lon="2.09776">
        <ele>437.06</ele>
        <time>2021-08-02T20:54:30Z</time>
      </trkpt>
      <trkpt lat="46.20239" lon="2.10096">
        <ele>432.73</ele>
        <time>2021-08-02T20:54:40Z</time>
      </trkpt>
      <trkpt lat="46.20176" lon="2.10398">
        <ele>425.04</ele>
        <time>2021-08-02T20:54:47Z</time>
      </trkpt>
      <trkpt lat="46.2013" lon="2.10919">
        <ele>412.06</ele>
        <time>2021-08-02T20:55:01Z</time>
      </trkpt>
      <trkpt lat="46.20048" lon="2.11886">
        <ele>395.72</ele>
        <time>2021-08-02T20:55:26Z</time>
      </trkpt>
      <trkpt lat="46.19988" lon="2.12598">
        <ele>403.41</ele>
        <time>2021-08-02T20:55:45Z</time>
      </trkpt>
      <trkpt lat="46.19923" lon="2.13356">
        <ele>403.89</ele>
        <time>2021-08-02T20:56:05Z</time>
      </trkpt>
      <trkpt lat="46.19874" lon="2.1382">
        <ele>396.68</ele>
        <time>2021-08-02T20:56:17Z</time>
      </trkpt>
      <trkpt lat="46.19783" lon="2.14269">
        <ele>392.84</ele>
        <time>2021-08-02T20:56:29Z</time>
      </trkpt>
      <trkpt lat="46.19694" lon="2.14751">
        <ele>392.84</ele>
        <time>2021-08-02T20:56:42Z</time>
      </trkpt>
      <trkpt lat="46.19604" lon="2.1538">
        <ele>391.87</ele>
        <time>2021-08-02T20:56:59Z</time>
      </trkpt>
      <trkpt lat="46.19494" lon="2.16179">
        <ele>397.16</ele>
        <time>2021-08-02T20:57:21Z</time>
      </trkpt>
      <trkpt lat="46.19398" lon="2.16869">
        <ele>411.1</ele>
        <time>2021-08-02T20:57:40Z</time>
      </trkpt>
      <trkpt lat="46.19372" lon="2.17232">
        <ele>423.12</ele>
        <time>2021-08-02T20:57:50Z</time>
      </trkpt>
      <trkpt lat="46.19401" lon="2.17594">
        <ele>427.44</ele>
        <time>2021-08-02T20:58:00Z</time>
      </trkpt>
      <trkpt lat="46.19484" lon="2.17958">
        <ele>422.16</ele>
        <time>2021-08-02T20:58:10Z</time>
      </trkpt>
      <trkpt lat="46.19678" lon="2.18685">
        <ele>401.01</ele>
        <time>2021-08-02T20:58:28Z</time>
      </trkpt>
      <trkpt lat="46.19731" lon="2.19009">
        <ele>395.24</ele>
        <time>2021-08-02T20:58:36Z</time>
      </trkpt>
      <trkpt lat="46.19753" lon="2.19363">
        <ele>392.36</ele>
        <time>2021-08-02T20:58:46Z</time>
      </trkpt>
      <trkpt lat="46.19798" lon="2.20228">
        <ele>386.11</ele>
        <time>2021-08-02T20:59:08Z</time>
      </trkpt>
      <trkpt lat="46.19785" lon="2.20587">
        <ele>382.74</ele>
        <time>2021-08-02T20:59:17Z</time>
      </trkpt>
      <trkpt lat="46.19714" lon="2.20973">
        <ele>381.78</ele>
        <time>2021-08-02T20:59:27Z</time>
      </trkpt>
      <trkpt lat="46.19563" lon="2.21709">
        <ele>378.42</ele>
        <time>2021-08-02T20:59:47Z</time>
      </trkpt>
      <trkpt lat="46.19526" lon="2.22009">
        <ele>379.86</ele>
        <time>2021-08-02T20:59:55Z</time>
      </trkpt>
      <trkpt lat="46.19542" lon="2.22312">
        <ele>379.38</ele>
        <time>2021-08-02T21:00:03Z</time>
      </trkpt>
      <trkpt lat="46.19614" lon="2.22678">
        <ele>377.94</ele>
        <time>2021-08-02T21:00:13Z</time>
      </trkpt>
      <trkpt lat="46.19757" lon="2.23292">
        <ele>374.09</ele>
        <time>2021-08-02T21:00:30Z</time>
      </trkpt>
      <trkpt lat="46.19898" lon="2.23975">
        <ele>372.65</ele>
        <time>2021-08-02T21:00:49Z</time>
      </trkpt>
      <trkpt lat="46.19914" lon="2.2434">
        <ele>374.57</ele>
        <time>2021-08-02T21:00:59Z</time>
      </trkpt>
      <trkpt lat="46.19878" lon="2.24701">
        <ele>375.53</ele>
        <time>2021-08-02T21:01:08Z</time>
      </trkpt>
      <trkpt lat="46.19838" lon="2.2505">
        <ele>379.86</ele>
        <time>2021-08-02T21:01:19Z</time>
      </trkpt>
      <trkpt lat="46.19861" lon="2.25298">
        <ele>377.94</ele>
        <time>2021-08-02T21:01:26Z</time>
      </trkpt>
      <trkpt lat="46.19933" lon="2.25532">
        <ele>379.38</ele>
        <time>2021-08-02T21:01:33Z</time>
      </trkpt>
      <trkpt lat="46.20142" lon="2.25962">
        <ele>374.09</ele>
        <time>2021-08-02T21:01:47Z</time>
      </trkpt>
      <trkpt lat="46.20463" lon="2.26609">
        <ele>370.24</ele>
        <time>2021-08-02T21:02:08Z</time>
      </trkpt>
      <trkpt lat="46.20677" lon="2.27022">
        <ele>372.65</ele>
        <time>2021-08-02T21:02:22Z</time>
      </trkpt>
      <trkpt lat="46.21043" lon="2.27617">
        <ele>371.21</ele>
        <time>2021-08-02T21:02:44Z</time>
      </trkpt>
      <trkpt lat="46.21443" lon="2.28268">
        <ele>369.28</ele>
        <time>2021-08-02T21:03:08Z</time>
      </trkpt>
      <trkpt lat="46.21625" lon="2.28619">
        <ele>369.28</ele>
        <time>2021-08-02T21:03:19Z</time>
      </trkpt>
      <trkpt lat="46.21893" lon="2.29242">
        <ele>372.65</ele>
        <time>2021-08-02T21:03:40Z</time>
      </trkpt>
      <trkpt lat="46.22132" lon="2.29767">
        <ele>380.82</ele>
        <time>2021-08-02T21:03:57Z</time>
      </trkpt>
      <trkpt lat="46.22302" lon="2.30006">
        <ele>385.63</ele>
        <time>2021-08-02T21:04:06Z</time>
      </trkpt>
      <trkpt lat="46.22545" lon="2.30293">
        <ele>395.72</ele>
        <time>2021-08-02T21:04:17Z</time>
      </trkpt>
      <trkpt lat="46.22765" lon="2.30636">
        <ele>399.57</ele>
        <time>2021-08-02T21:04:31Z</time>
      </trkpt>
      <trkpt lat="46.23143" lon="2.31242">
        <ele>409.18</ele>
        <time>2021-08-02T21:04:53Z</time>
      </trkpt>
      <trkpt lat="46.23546" lon="2.31908">
        <ele>414.95</ele>
        <time>2021-08-02T21:05:16Z</time>
      </trkpt>
      <trkpt lat="46.23735" lon="2.3233">
        <ele>408.7</ele>
        <time>2021-08-02T21:05:28Z</time>
      </trkpt>
      <trkpt lat="46.23851" lon="2.3269">
        <ele>396.68</ele>
        <time>2021-08-02T21:05:39Z</time>
      </trkpt>
      <trkpt lat="46.24035" lon="2.33279">
        <ele>396.2</ele>
        <time>2021-08-02T21:05:55Z</time>
      </trkpt>
      <trkpt lat="46.24231" lon="2.33744">
        <ele>401.01</ele>
        <time>2021-08-02T21:06:08Z</time>
      </trkpt>
      <trkpt lat="46.24534" lon="2.34419">
        <ele>412.06</ele>
        <time>2021-08-02T21:06:30Z</time>
      </trkpt>
      <trkpt lat="46.2477" lon="2.34921">
        <ele>420.71</ele>
        <time>2021-08-02T21:06:45Z</time>
      </trkpt>
      <trkpt lat="46.24929" lon="2.35151">
        <ele>429.37</ele>
        <time>2021-08-02T21:06:53Z</time>
      </trkpt>
      <trkpt lat="46.25257" lon="2.35521">
        <ele>439.46</ele>
        <time>2021-08-02T21:07:07Z</time>
      </trkpt>
      <trkpt lat="46.25765" lon="2.36079">
        <ele>453.88</ele>
        <time>2021-08-02T21:07:31Z</time>
      </trkpt>
      <trkpt lat="46.26232" lon="2.36609">
        <ele>448.59</ele>
        <time>2021-08-02T21:07:52Z</time>
      </trkpt>
      <trkpt lat="46.2645" lon="2.36931">
        <ele>444.75</ele>
        <time>2021-08-02T21:08:03Z</time>
      </trkpt>
      <trkpt lat="46.26825" lon="2.37554">
        <ele>441.38</ele>
        <time>2021-08-02T21:08:22Z</time>
      </trkpt>
      <trkpt lat="46.27144" lon="2.38085">
        <ele>451.48</ele>
        <time>2021-08-02T21:08:41Z</time>
      </trkpt>
      <trkpt lat="46.27608" lon="2.38855">
        <ele>451.48</ele>
        <time>2021-08-02T21:09:07Z</time>
      </trkpt>
      <trkpt lat="46.27906" lon="2.39351">
        <ele>458.21</ele>
        <time>2021-08-02T21:09:25Z</time>
      </trkpt>
      <trkpt lat="46.28216" lon="2.39862">
        <ele>450.52</ele>
        <time>2021-08-02T21:09:43Z</time>
      </trkpt>
      <trkpt lat="46.28434" lon="2.40221">
        <ele>463.01</ele>
        <time>2021-08-02T21:09:56Z</time>
      </trkpt>
      <trkpt lat="46.28786" lon="2.40819">
        <ele>466.38</ele>
        <time>2021-08-02T21:10:18Z</time>
      </trkpt>
      <trkpt lat="46.28951" lon="2.41191">
        <ele>469.74</ele>
        <time>2021-08-02T21:10:30Z</time>
      </trkpt>
      <trkpt lat="46.29275" lon="2.42092">
        <ele>474.55</ele>
        <time>2021-08-02T21:10:57Z</time>
      </trkpt>
      <trkpt lat="46.29433" lon="2.42531">
        <ele>480.32</ele>
        <time>2021-08-02T21:11:10Z</time>
      </trkpt>
      <trkpt lat="46.29617" lon="2.43035">
        <ele>486.56</ele>
        <time>2021-08-02T21:11:25Z</time>
      </trkpt>
      <trkpt lat="46.29761" lon="2.43354">
        <ele>486.56</ele>
        <time>2021-08-02T21:11:35Z</time>
      </trkpt>
      <trkpt lat="46.29944" lon="2.43655">
        <ele>480.32</ele>
        <time>2021-08-02T21:11:45Z</time>
      </trkpt>
      <trkpt lat="46.30233" lon="2.44069">
        <ele>461.57</ele>
        <time>2021-08-02T21:11:59Z</time>
      </trkpt>
      <trkpt lat="46.30405" lon="2.44405">
        <ele>449.55</ele>
        <time>2021-08-02T21:12:09Z</time>
      </trkpt>
      <trkpt lat="46.3054" lon="2.44782">
        <ele>438.5</ele>
        <time>2021-08-02T21:12:19Z</time>
      </trkpt>
      <trkpt lat="46.30707" lon="2.45343">
        <ele>449.55</ele>
        <time>2021-08-02T21:12:34Z</time>
      </trkpt>
      <trkpt lat="46.30886" lon="2.45952">
        <ele>450.03</ele>
        <time>2021-08-02T21:12:51Z</time>
      </trkpt>
      <trkpt lat="46.31114" lon="2.46692">
        <ele>427.92</ele>
        <time>2021-08-02T21:13:10Z</time>
      </trkpt>
      <trkpt lat="46.31287" lon="2.47113">
        <ele>413.5</ele>
        <time>2021-08-02T21:13:23Z</time>
      </trkpt>
      <trkpt lat="46.31442" lon="2.47529">
        <ele>407.74</ele>
        <time>2021-08-02T21:13:35Z</time>
      </trkpt>
      <trkpt lat="46.31554" lon="2.47968">
        <ele>401.97</ele>
        <time>2021-08-02T21:13:47Z</time>
      </trkpt>
      <trkpt lat="46.31621" lon="2.48439">
        <ele>397.64</ele>
        <time>2021-08-02T21:13:59Z</time>
      </trkpt>
      <trkpt lat="46.31656" lon="2.49051">
        <ele>392.36</ele>
        <time>2021-08-02T21:14:14Z</time>
      </trkpt>
      <trkpt lat="46.31702" lon="2.49833">
        <ele>392.36</ele>
        <time>2021-08-02T21:14:34Z</time>
      </trkpt>
      <trkpt lat="46.31752" lon="2.50168">
        <ele>391.39</ele>
        <time>2021-08-02T21:14:43Z</time>
      </trkpt>
      <trkpt lat="46.31892" lon="2.50862">
        <ele>377.45</ele>
        <time>2021-08-02T21:15:00Z</time>
      </trkpt>
      <trkpt lat="46.32079" lon="2.51767">
        <ele>355.34</ele>
        <time>2021-08-02T21:15:25Z</time>
      </trkpt>
      <trkpt lat="46.32214" lon="2.52323">
        <ele>344.29</ele>
        <time>2021-08-02T21:15:39Z</time>
      </trkpt>
      <trkpt lat="46.32495" lon="2.53133">
        <ele>322.18</ele>
        <time>2021-08-02T21:16:03Z</time>
      </trkpt>
      <trkpt lat="46.32606" lon="2.53357">
        <ele>315.93</ele>
        <time>2021-08-02T21:16:10Z</time>
      </trkpt>
      <trkpt lat="46.32755" lon="2.53531">
        <ele>306.8</ele>
        <time>2021-08-02T21:16:17Z</time>
      </trkpt>
      <trkpt lat="46.32925" lon="2.53644">
        <ele>308.24</ele>
        <time>2021-08-02T21:16:24Z</time>
      </trkpt>
      <trkpt lat="46.3312" lon="2.53688">
        <ele>308.24</ele>
        <time>2021-08-02T21:16:31Z</time>
      </trkpt>
      <trkpt lat="46.33292" lon="2.53692">
        <ele>305.36</ele>
        <time>2021-08-02T21:16:40Z</time>
      </trkpt>
      <trkpt lat="46.33363" lon="2.53695">
        <ele>307.76</ele>
        <time>2021-08-02T21:16:44Z</time>
      </trkpt>
      <trkpt lat="46.33376" lon="2.537">
        <ele>309.2</ele>
        <time>2021-08-02T21:16:45Z</time>
      </trkpt>
      <trkpt lat="46.33391" lon="2.53708">
        <ele>308.72</ele>
        <time>2021-08-02T21:16:46Z</time>
      </trkpt>
      <trkpt lat="46.33405" lon="2.53717">
        <ele>308.72</ele>
        <time>2021-08-02T21:16:47Z</time>
      </trkpt>
      <trkpt lat="46.33416" lon="2.53727">
        <ele>309.2</ele>
        <time>2021-08-02T21:16:48Z</time>
      </trkpt>
      <trkpt lat="46.33428" lon="2.53739">
        <ele>308.24</ele>
        <time>2021-08-02T21:16:49Z</time>
      </trkpt>
      <trkpt lat="46.33439" lon="2.53754">
        <ele>307.76</ele>
        <time>2021-08-02T21:16:50Z</time>
      </trkpt>
      <trkpt lat="46.33451" lon="2.53769">
        <ele>307.76</ele>
        <time>2021-08-02T21:16:51Z</time>
      </trkpt>
      <trkpt lat="46.33462" lon="2.53785">
        <ele>306.8</ele>
        <time>2021-08-02T21:16:52Z</time>
      </trkpt>
      <trkpt lat="46.33473" lon="2.53803">
        <ele>306.8</ele>
        <time>2021-08-02T21:16:53Z</time>
      </trkpt>
      <trkpt lat="46.33479" lon="2.53825">
        <ele>306.32</ele>
        <time>2021-08-02T21:16:54Z</time>
      </trkpt>
      <trkpt lat="46.33485" lon="2.53848">
        <ele>305.84</ele>
        <time>2021-08-02T21:16:55Z</time>
      </trkpt>
      <trkpt lat="46.33489" lon="2.53872">
        <ele>305.84</ele>
        <time>2021-08-02T21:16:56Z</time>
      </trkpt>
      <trkpt lat="46.33492" lon="2.53897">
        <ele>306.32</ele>
        <time>2021-08-02T21:16:57Z</time>
      </trkpt>
      <trkpt lat="46.33492" lon="2.53922">
        <ele>306.8</ele>
        <time>2021-08-02T21:16:58Z</time>
      </trkpt>
      <trkpt lat="46.33491" lon="2.53946">
        <ele>306.8</ele>
        <time>2021-08-02T21:16:59Z</time>
      </trkpt>
      <trkpt lat="46.33487" lon="2.54045">
        <ele>309.2</ele>
        <time>2021-08-02T21:17:04Z</time>
      </trkpt>
      <trkpt lat="46.33486" lon="2.54063">
        <ele>309.2</ele>
        <time>2021-08-02T21:17:05Z</time>
      </trkpt>
      <trkpt lat="46.33472" lon="2.54072">
        <ele>309.68</ele>
        <time>2021-08-02T21:17:07Z</time>
      </trkpt>
      <trkpt lat="46.33471" lon="2.54093">
        <ele>309.68</ele>
        <time>2021-08-02T21:17:08Z</time>
      </trkpt>
      <trkpt lat="46.33474" lon="2.54122">
        <ele>309.68</ele>
        <time>2021-08-02T21:17:10Z</time>
      </trkpt>
      <trkpt lat="46.33474" lon="2.54122">
        <ele>310.16</ele>
        <time>2021-08-02T21:17:11Z</time>
      </trkpt>
      <trkpt lat="46.3347" lon="2.54135">
        <ele>310.16</ele>
        <time>2021-08-02T21:17:12Z</time>
      </trkpt>
      <trkpt lat="46.3346" lon="2.54177">
        <ele>310.16</ele>
        <time>2021-08-02T21:17:15Z</time>
      </trkpt>
      <trkpt lat="46.33457" lon="2.54191">
        <ele>310.64</ele>
        <time>2021-08-02T21:17:16Z</time>
      </trkpt>
      <trkpt lat="46.33458" lon="2.54205">
        <ele>310.64</ele>
        <time>2021-08-02T21:17:17Z</time>
      </trkpt>
      <trkpt lat="46.33461" lon="2.54221">
        <ele>309.68</ele>
        <time>2021-08-02T21:17:18Z</time>
      </trkpt>
      <trkpt lat="46.3347" lon="2.54251">
        <ele>308.24</ele>
        <time>2021-08-02T21:17:19Z</time>
      </trkpt>
      <trkpt lat="46.33535" lon="2.54411">
        <ele>305.36</ele>
        <time>2021-08-02T21:17:29Z</time>
      </trkpt>
      <trkpt lat="46.33662" lon="2.54733">
        <ele>290.94</ele>
        <time>2021-08-02T21:17:44Z</time>
      </trkpt>
      <trkpt lat="46.33723" lon="2.54987">
        <ele>283.73</ele>
        <time>2021-08-02T21:17:54Z</time>
      </trkpt>
      <trkpt lat="46.33751" lon="2.5532">
        <ele>274.59</ele>
        <time>2021-08-02T21:18:07Z</time>
      </trkpt>
      <trkpt lat="46.33773" lon="2.55897">
        <ele>257.29</ele>
        <time>2021-08-02T21:18:30Z</time>
      </trkpt>
      <trkpt lat="46.33782" lon="2.56068">
        <ele>252.48</ele>
        <time>2021-08-02T21:18:39Z</time>
      </trkpt>
      <trkpt lat="46.33784" lon="2.56176">
        <ele>249.6</ele>
        <time>2021-08-02T21:18:47Z</time>
      </trkpt>
      <trkpt lat="46.33784" lon="2.56215">
        <ele>249.12</ele>
        <time>2021-08-02T21:18:52Z</time>
      </trkpt>
      <trkpt lat="46.33784" lon="2.56215">
        <ele>249.12</ele>
        <time>2021-08-02T21:18:53Z</time>
      </trkpt>
      <trkpt lat="46.3378" lon="2.56221">
        <ele>249.12</ele>
        <time>2021-08-02T21:18:54Z</time>
      </trkpt>
      <trkpt lat="46.33777" lon="2.56227">
        <ele>248.64</ele>
        <time>2021-08-02T21:18:55Z</time>
      </trkpt>
      <trkpt lat="46.33763" lon="2.56219">
        <ele>247.68</ele>
        <time>2021-08-02T21:18:56Z</time>
      </trkpt>
      <trkpt lat="46.33763" lon="2.56219">
        <ele>247.2</ele>
        <time>2021-08-02T21:18:57Z</time>
      </trkpt>
      <trkpt lat="46.33749" lon="2.5621">
        <ele>246.23</ele>
        <time>2021-08-02T21:18:58Z</time>
      </trkpt>
      <trkpt lat="46.33749" lon="2.5621">
        <ele>245.75</ele>
        <time>2021-08-02T21:18:59Z</time>
      </trkpt>
      <trkpt lat="46.33741" lon="2.56203">
        <ele>245.75</ele>
        <time>2021-08-02T21:19:00Z</time>
      </trkpt>
      <trkpt lat="46.33734" lon="2.56192">
        <ele>245.27</ele>
        <time>2021-08-02T21:19:01Z</time>
      </trkpt>
      <trkpt lat="46.33727" lon="2.5618">
        <ele>245.27</ele>
        <time>2021-08-02T21:19:02Z</time>
      </trkpt>
      <trkpt lat="46.33706" lon="2.56145">
        <ele>244.31</ele>
        <time>2021-08-02T21:19:05Z</time>
      </trkpt>
      <trkpt lat="46.33699" lon="2.56136">
        <ele>243.83</ele>
        <time>2021-08-02T21:19:06Z</time>
      </trkpt>
      <trkpt lat="46.33689" lon="2.56126">
        <ele>243.83</ele>
        <time>2021-08-02T21:19:07Z</time>
      </trkpt>
      <trkpt lat="46.33679" lon="2.56117">
        <ele>244.31</ele>
        <time>2021-08-02T21:19:08Z</time>
      </trkpt>
      <trkpt lat="46.3367" lon="2.5611">
        <ele>243.83</ele>
        <time>2021-08-02T21:19:09Z</time>
      </trkpt>
      <trkpt lat="46.33658" lon="2.56108">
        <ele>243.35</ele>
        <time>2021-08-02T21:19:10Z</time>
      </trkpt>
      <trkpt lat="46.33646" lon="2.56106">
        <ele>242.87</ele>
        <time>2021-08-02T21:19:11Z</time>
      </trkpt>
      <trkpt lat="46.33634" lon="2.56104">
        <ele>243.35</ele>
        <time>2021-08-02T21:19:12Z</time>
      </trkpt>
      <trkpt lat="46.33557" lon="2.56089">
        <ele>241.43</ele>
        <time>2021-08-02T21:19:21Z</time>
      </trkpt>
      <trkpt lat="46.33519" lon="2.56067">
        <ele>240.95</ele>
        <time>2021-08-02T21:19:30Z</time>
      </trkpt>
      <trkpt lat="46.33516" lon="2.56064">
        <ele>240.95</ele>
        <time>2021-08-02T21:19:31Z</time>
      </trkpt>
      <trkpt lat="46.33513" lon="2.56062">
        <ele>240.95</ele>
        <time>2021-08-02T21:19:32Z</time>
      </trkpt>
      <trkpt lat="46.33511" lon="2.56057">
        <ele>240.95</ele>
        <time>2021-08-02T21:19:33Z</time>
      </trkpt>
      <trkpt lat="46.33508" lon="2.56052">
        <ele>240.47</ele>
        <time>2021-08-02T21:19:34Z</time>
      </trkpt>
      <trkpt lat="46.33505" lon="2.56046">
        <ele>240.47</ele>
        <time>2021-08-02T21:19:35Z</time>
      </trkpt>
      <trkpt lat="46.33501" lon="2.5604">
        <ele>240.47</ele>
        <time>2021-08-02T21:19:36Z</time>
      </trkpt>
      <trkpt lat="46.33499" lon="2.56032">
        <ele>240.95</ele>
        <time>2021-08-02T21:19:37Z</time>
      </trkpt>
      <trkpt lat="46.33457" lon="2.55888">
        <ele>241.91</ele>
        <time>2021-08-02T21:19:51Z</time>
      </trkpt>
      <trkpt lat="46.33443" lon="2.55861">
        <ele>241.43</ele>
        <time>2021-08-02T21:19:55Z</time>
      </trkpt>
      <trkpt lat="46.33438" lon="2.55854">
        <ele>241.43</ele>
        <time>2021-08-02T21:19:56Z</time>
      </trkpt>
      <trkpt lat="46.33431" lon="2.55847">
        <ele>241.43</ele>
        <time>2021-08-02T21:19:57Z</time>
      </trkpt>
      <trkpt lat="46.33425" lon="2.55841">
        <ele>241.43</ele>
        <time>2021-08-02T21:19:58Z</time>
      </trkpt>
      <trkpt lat="46.3342" lon="2.55836">
        <ele>241.91</ele>
        <time>2021-08-02T21:19:59Z</time>
      </trkpt>
      <trkpt lat="46.33415" lon="2.55833">
        <ele>241.91</ele>
        <time>2021-08-02T21:20:00Z</time>
      </trkpt>
      <trkpt lat="46.33408" lon="2.5583">
        <ele>241.91</ele>
        <time>2021-08-02T21:20:01Z</time>
      </trkpt>
      <trkpt lat="46.33401" lon="2.55826">
        <ele>241.91</ele>
        <time>2021-08-02T21:20:02Z</time>
      </trkpt>
      <trkpt lat="46.33335" lon="2.55792">
        <ele>239.51</ele>
        <time>2021-08-02T21:20:12Z</time>
      </trkpt>
      <trkpt lat="46.33224" lon="2.55734">
        <ele>239.02</ele>
        <time>2021-08-02T21:20:22Z</time>
      </trkpt>
      <trkpt lat="46.33146" lon="2.55677">
        <ele>239.51</ele>
        <time>2021-08-02T21:20:31Z</time>
      </trkpt>
      <trkpt lat="46.33108" lon="2.5565">
        <ele>240.47</ele>
        <time>2021-08-02T21:20:38Z</time>
      </trkpt>
      <trkpt lat="46.33039" lon="2.55552">
        <ele>239.02</ele>
        <time>2021-08-02T21:20:47Z</time>
      </trkpt>
      <trkpt lat="46.32979" lon="2.55464">
        <ele>239.02</ele>
        <time>2021-08-02T21:20:55Z</time>
      </trkpt>
      <trkpt lat="46.32975" lon="2.55458">
        <ele>239.02</ele>
        <time>2021-08-02T21:20:56Z</time>
      </trkpt>
      <trkpt lat="46.32975" lon="2.55458">
        <ele>239.02</ele>
        <time>2021-08-02T21:20:57Z</time>
      </trkpt>
      <trkpt lat="46.3297" lon="2.55454">
        <ele>239.02</ele>
        <time>2021-08-02T21:20:58Z</time>
      </trkpt>
      <trkpt lat="46.32963" lon="2.5545">
        <ele>239.02</ele>
        <time>2021-08-02T21:20:59Z</time>
      </trkpt>
      <trkpt lat="46.32956" lon="2.55447">
        <ele>239.02</ele>
        <time>2021-08-02T21:21:00Z</time>
      </trkpt>
      <trkpt lat="46.32949" lon="2.55446">
        <ele>239.51</ele>
        <time>2021-08-02T21:21:01Z</time>
      </trkpt>
      <trkpt lat="46.3294" lon="2.55445">
        <ele>239.02</ele>
        <time>2021-08-02T21:21:02Z</time>
      </trkpt>
      <trkpt lat="46.32932" lon="2.5545">
        <ele>239.51</ele>
        <time>2021-08-02T21:21:03Z</time>
      </trkpt>
      <trkpt lat="46.32923" lon="2.55455">
        <ele>239.99</ele>
        <time>2021-08-02T21:21:04Z</time>
      </trkpt>
      <trkpt lat="46.32914" lon="2.55461">
        <ele>239.99</ele>
        <time>2021-08-02T21:21:05Z</time>
      </trkpt>
      <trkpt lat="46.32838" lon="2.55527">
        <ele>242.87</ele>
        <time>2021-08-02T21:21:14Z</time>
      </trkpt>
      <trkpt lat="46.32774" lon="2.55562">
        <ele>245.75</ele>
        <time>2021-08-02T21:21:22Z</time>
      </trkpt>
      <trkpt lat="46.32766" lon="2.5557">
        <ele>246.72</ele>
        <time>2021-08-02T21:21:23Z</time>
      </trkpt>
      <trkpt lat="46.32757" lon="2.55579">
        <ele>243.83</ele>
        <time>2021-08-02T21:21:24Z</time>
      </trkpt>
      <trkpt lat="46.32748" lon="2.55592">
        <ele>243.83</ele>
        <time>2021-08-02T21:21:25Z</time>
      </trkpt>
      <trkpt lat="46.32743" lon="2.55608">
        <ele>243.83</ele>
        <time>2021-08-02T21:21:26Z</time>
      </trkpt>
      <trkpt lat="46.32678" lon="2.55784">
        <ele>248.16</ele>
        <time>2021-08-02T21:21:36Z</time>
      </trkpt>
      <trkpt lat="46.32633" lon="2.55885">
        <ele>251.52</ele>
        <time>2021-08-02T21:21:43Z</time>
      </trkpt>
      <trkpt lat="46.32619" lon="2.55915">
        <ele>250.08</ele>
        <time>2021-08-02T21:21:49Z</time>
      </trkpt>
      <trkpt lat="46.32612" lon="2.55912">
        <ele>250.08</ele>
        <time>2021-08-02T21:21:51Z</time>
      </trkpt>
      <trkpt lat="46.32609" lon="2.5591">
        <ele>249.6</ele>
        <time>2021-08-02T21:21:52Z</time>
      </trkpt>
      <trkpt lat="46.32604" lon="2.55908">
        <ele>250.08</ele>
        <time>2021-08-02T21:21:53Z</time>
      </trkpt>
      <trkpt lat="46.32561" lon="2.55889">
        <ele>251.52</ele>
        <time>2021-08-02T21:21:59Z</time>
      </trkpt>
      <trkpt lat="46.32543" lon="2.55891">
        <ele>252</ele>
        <time>2021-08-02T21:22:00Z</time>
      </trkpt>
      <trkpt lat="46.32543" lon="2.55891">
        <ele>252</ele>
        <time>2021-08-02T21:22:01Z</time>
      </trkpt>
      <trkpt lat="46.32501" lon="2.55906">
        <ele>252.48</ele>
        <time>2021-08-02T21:22:06Z</time>
      </trkpt>
      <trkpt lat="46.32496" lon="2.55907">
        <ele>252.48</ele>
        <time>2021-08-02T21:22:07Z</time>
      </trkpt>
      <trkpt lat="46.32496" lon="2.55907">
        <ele>252.48</ele>
        <time>2021-08-02T21:22:08Z</time>
      </trkpt>
      <trkpt lat="46.32485" lon="2.55902">
        <ele>252.96</ele>
        <time>2021-08-02T21:22:09Z</time>
      </trkpt>
      <trkpt lat="46.32483" lon="2.55906">
        <ele>252.96</ele>
        <time>2021-08-02T21:22:10Z</time>
      </trkpt>
      <trkpt lat="46.32482" lon="2.55914">
        <ele>253.44</ele>
        <time>2021-08-02T21:22:11Z</time>
      </trkpt>
      <trkpt lat="46.32483" lon="2.55915">
        <ele>253.93</ele>
        <time>2021-08-02T21:22:12Z</time>
      </trkpt>
      <trkpt lat="46.32483" lon="2.55915">
        <ele>254.41</ele>
        <time>2021-08-02T21:22:13Z</time>
      </trkpt>
      <trkpt lat="46.32495" lon="2.55929">
        <ele>254.89</ele>
        <time>2021-08-02T21:22:14Z</time>
      </trkpt>
      <trkpt lat="46.32495" lon="2.55929">
        <ele>254.89</ele>
        <time>2021-08-02T21:22:15Z</time>
      </trkpt>
      <trkpt lat="46.32498" lon="2.55937">
        <ele>255.37</ele>
        <time>2021-08-02T21:22:16Z</time>
      </trkpt>
      <trkpt lat="46.32501" lon="2.55947">
        <ele>255.85</ele>
        <time>2021-08-02T21:22:17Z</time>
      </trkpt>
      <trkpt lat="46.32538" lon="2.56055">
        <ele>262.1</ele>
        <time>2021-08-02T21:22:24Z</time>
      </trkpt>
      <trkpt lat="46.3257" lon="2.56271">
        <ele>267.86</ele>
        <time>2021-08-02T21:22:34Z</time>
      </trkpt>
      <trkpt lat="46.32655" lon="2.56577">
        <ele>268.83</ele>
        <time>2021-08-02T21:22:50Z</time>
      </trkpt>
      <trkpt lat="46.32761" lon="2.56863">
        <ele>263.54</ele>
        <time>2021-08-02T21:23:04Z</time>
      </trkpt>
      <trkpt lat="46.32774" lon="2.56897">
        <ele>262.1</ele>
        <time>2021-08-02T21:23:06Z</time>
      </trkpt>
      <trkpt lat="46.32798" lon="2.56989">
        <ele>254.41</ele>
        <time>2021-08-02T21:23:11Z</time>
      </trkpt>
      <trkpt lat="46.32802" lon="2.57009">
        <ele>254.41</ele>
        <time>2021-08-02T21:23:12Z</time>
      </trkpt>
      <trkpt lat="46.32807" lon="2.57027">
        <ele>254.89</ele>
        <time>2021-08-02T21:23:13Z</time>
      </trkpt>
      <trkpt lat="46.32907" lon="2.5725">
        <ele>245.75</ele>
        <time>2021-08-02T21:23:25Z</time>
      </trkpt>
      <trkpt lat="46.32914" lon="2.57267">
        <ele>245.27</ele>
        <time>2021-08-02T21:23:26Z</time>
      </trkpt>
      <trkpt lat="46.32934" lon="2.57321">
        <ele>243.83</ele>
        <time>2021-08-02T21:23:29Z</time>
      </trkpt>
      <trkpt lat="46.3294" lon="2.57338">
        <ele>244.31</ele>
        <time>2021-08-02T21:23:30Z</time>
      </trkpt>
      <trkpt lat="46.32947" lon="2.57355">
        <ele>243.83</ele>
        <time>2021-08-02T21:23:31Z</time>
      </trkpt>
      <trkpt lat="46.32957" lon="2.57368">
        <ele>244.31</ele>
        <time>2021-08-02T21:23:32Z</time>
      </trkpt>
      <trkpt lat="46.32967" lon="2.57382">
        <ele>244.31</ele>
        <time>2021-08-02T21:23:33Z</time>
      </trkpt>
      <trkpt lat="46.32977" lon="2.57392">
        <ele>243.83</ele>
        <time>2021-08-02T21:23:34Z</time>
      </trkpt>
      <trkpt lat="46.33065" lon="2.57467">
        <ele>243.35</ele>
        <time>2021-08-02T21:23:41Z</time>
      </trkpt>
      <trkpt lat="46.33083" lon="2.57495">
        <ele>244.79</ele>
        <time>2021-08-02T21:23:42Z</time>
      </trkpt>
      <trkpt lat="46.33083" lon="2.57495">
        <ele>245.27</ele>
        <time>2021-08-02T21:23:43Z</time>
      </trkpt>
      <trkpt lat="46.33091" lon="2.57507">
        <ele>245.27</ele>
        <time>2021-08-02T21:23:44Z</time>
      </trkpt>
      <trkpt lat="46.33099" lon="2.57524">
        <ele>245.27</ele>
        <time>2021-08-02T21:23:45Z</time>
      </trkpt>
      <trkpt lat="46.33146" lon="2.57637">
        <ele>247.2</ele>
        <time>2021-08-02T21:23:54Z</time>
      </trkpt>
      <trkpt lat="46.33156" lon="2.57662">
        <ele>246.72</ele>
        <time>2021-08-02T21:24:00Z</time>
      </trkpt>
      <trkpt lat="46.33153" lon="2.5767">
        <ele>246.72</ele>
        <time>2021-08-02T21:24:01Z</time>
      </trkpt>
      <trkpt lat="46.33149" lon="2.57675">
        <ele>246.72</ele>
        <time>2021-08-02T21:24:02Z</time>
      </trkpt>
      <trkpt lat="46.33144" lon="2.57679">
        <ele>246.23</ele>
        <time>2021-08-02T21:24:03Z</time>
      </trkpt>
      <trkpt lat="46.33139" lon="2.57685">
        <ele>246.23</ele>
        <time>2021-08-02T21:24:04Z</time>
      </trkpt>
      <trkpt lat="46.33133" lon="2.5769">
        <ele>246.23</ele>
        <time>2021-08-02T21:24:05Z</time>
      </trkpt>
      <trkpt lat="46.33063" lon="2.57773">
        <ele>242.39</ele>
        <time>2021-08-02T21:24:14Z</time>
      </trkpt>
      <trkpt lat="46.3305" lon="2.57794">
        <ele>241.43</ele>
        <time>2021-08-02T21:24:15Z</time>
      </trkpt>
      <trkpt lat="46.33037" lon="2.57824">
        <ele>240.95</ele>
        <time>2021-08-02T21:24:19Z</time>
      </trkpt>
      <trkpt lat="46.33027" lon="2.57842">
        <ele>240.95</ele>
        <time>2021-08-02T21:24:20Z</time>
      </trkpt>
      <trkpt lat="46.33023" lon="2.57855">
        <ele>240.47</ele>
        <time>2021-08-02T21:24:21Z</time>
      </trkpt>
      <trkpt lat="46.33023" lon="2.57855">
        <ele>239.99</ele>
        <time>2021-08-02T21:24:22Z</time>
      </trkpt>
      <trkpt lat="46.33021" lon="2.5786">
        <ele>239.99</ele>
        <time>2021-08-02T21:24:23Z</time>
      </trkpt>
      <trkpt lat="46.33015" lon="2.57882">
        <ele>239.51</ele>
        <time>2021-08-02T21:24:24Z</time>
      </trkpt>
      <trkpt lat="46.33015" lon="2.57882">
        <ele>238.54</ele>
        <time>2021-08-02T21:24:25Z</time>
      </trkpt>
      <trkpt lat="46.33011" lon="2.57895">
        <ele>237.58</ele>
        <time>2021-08-02T21:24:26Z</time>
      </trkpt>
      <trkpt lat="46.32954" lon="2.58077">
        <ele>231.33</ele>
        <time>2021-08-02T21:24:38Z</time>
      </trkpt>
      <trkpt lat="46.32951" lon="2.58087">
        <ele>231.33</ele>
        <time>2021-08-02T21:24:39Z</time>
      </trkpt>
      <trkpt lat="46.32943" lon="2.58103">
        <ele>231.33</ele>
        <time>2021-08-02T21:24:41Z</time>
      </trkpt>
      <trkpt lat="46.32943" lon="2.58114">
        <ele>231.33</ele>
        <time>2021-08-02T21:24:42Z</time>
      </trkpt>
      <trkpt lat="46.32941" lon="2.58121">
        <ele>231.33</ele>
        <time>2021-08-02T21:24:43Z</time>
      </trkpt>
      <trkpt lat="46.32939" lon="2.5813">
        <ele>231.33</ele>
        <time>2021-08-02T21:24:44Z</time>
      </trkpt>
      <trkpt lat="46.32936" lon="2.58141">
        <ele>230.85</ele>
        <time>2021-08-02T21:24:45Z</time>
      </trkpt>
      <trkpt lat="46.32929" lon="2.58165">
        <ele>230.37</ele>
        <time>2021-08-02T21:24:46Z</time>
      </trkpt>
      <trkpt lat="46.32917" lon="2.58199">
        <ele>229.41</ele>
        <time>2021-08-02T21:24:49Z</time>
      </trkpt>
      <trkpt lat="46.32913" lon="2.58209">
        <ele>229.89</ele>
        <time>2021-08-02T21:24:50Z</time>
      </trkpt>
      <trkpt lat="46.3291" lon="2.58216">
        <ele>229.89</ele>
        <time>2021-08-02T21:24:51Z</time>
      </trkpt>
      <trkpt lat="46.3291" lon="2.58216">
        <ele>230.37</ele>
        <time>2021-08-02T21:24:52Z</time>
      </trkpt>
      <trkpt lat="46.32896" lon="2.58211">
        <ele>230.85</ele>
        <time>2021-08-02T21:24:53Z</time>
      </trkpt>
      <trkpt lat="46.32889" lon="2.58222">
        <ele>230.85</ele>
        <time>2021-08-02T21:24:54Z</time>
      </trkpt>
      <trkpt lat="46.32889" lon="2.58229">
        <ele>231.81</ele>
        <time>2021-08-02T21:24:55Z</time>
      </trkpt>
      <trkpt lat="46.32892" lon="2.58235">
        <ele>232.3</ele>
        <time>2021-08-02T21:24:56Z</time>
      </trkpt>
      <trkpt lat="46.32892" lon="2.58235">
        <ele>232.78</ele>
        <time>2021-08-02T21:24:57Z</time>
      </trkpt>
      <trkpt lat="46.32887" lon="2.58249">
        <ele>233.26</ele>
        <time>2021-08-02T21:24:58Z</time>
      </trkpt>
      <trkpt lat="46.32877" lon="2.58261">
        <ele>233.74</ele>
        <time>2021-08-02T21:24:59Z</time>
      </trkpt>
      <trkpt lat="46.3287" lon="2.58268">
        <ele>233.74</ele>
        <time>2021-08-02T21:25:00Z</time>
      </trkpt>
      <trkpt lat="46.32863" lon="2.58276">
        <ele>234.22</ele>
        <time>2021-08-02T21:25:01Z</time>
      </trkpt>
      <trkpt lat="46.32815" lon="2.58346">
        <ele>237.1</ele>
        <time>2021-08-02T21:25:08Z</time>
      </trkpt>
      <trkpt lat="46.3281" lon="2.5836">
        <ele>238.06</ele>
        <time>2021-08-02T21:25:09Z</time>
      </trkpt>
      <trkpt lat="46.32804" lon="2.58374">
        <ele>239.99</ele>
        <time>2021-08-02T21:25:10Z</time>
      </trkpt>
      <trkpt lat="46.32795" lon="2.58403">
        <ele>240.47</ele>
        <time>2021-08-02T21:25:11Z</time>
      </trkpt>
      <trkpt lat="46.32795" lon="2.58403">
        <ele>240.95</ele>
        <time>2021-08-02T21:25:12Z</time>
      </trkpt>
      <trkpt lat="46.32795" lon="2.58419">
        <ele>241.91</ele>
        <time>2021-08-02T21:25:13Z</time>
      </trkpt>
      <trkpt lat="46.32795" lon="2.58434">
        <ele>242.39</ele>
        <time>2021-08-02T21:25:14Z</time>
      </trkpt>
      <trkpt lat="46.32795" lon="2.5845">
        <ele>242.87</ele>
        <time>2021-08-02T21:25:15Z</time>
      </trkpt>
      <trkpt lat="46.32795" lon="2.5848">
        <ele>243.83</ele>
        <time>2021-08-02T21:25:16Z</time>
      </trkpt>
      <trkpt lat="46.32795" lon="2.5848">
        <ele>245.27</ele>
        <time>2021-08-02T21:25:17Z</time>
      </trkpt>
      <trkpt lat="46.32799" lon="2.58498">
        <ele>247.68</ele>
        <time>2021-08-02T21:25:18Z</time>
      </trkpt>
      <trkpt lat="46.32804" lon="2.58514">
        <ele>249.12</ele>
        <time>2021-08-02T21:25:19Z</time>
      </trkpt>
      <trkpt lat="46.3281" lon="2.58533">
        <ele>251.04</ele>
        <time>2021-08-02T21:25:20Z</time>
      </trkpt>
      <trkpt lat="46.32817" lon="2.58552">
        <ele>252.48</ele>
        <time>2021-08-02T21:25:21Z</time>
      </trkpt>
      <trkpt lat="46.3283" lon="2.58589">
        <ele>253.93</ele>
        <time>2021-08-02T21:25:23Z</time>
      </trkpt>
      <trkpt lat="46.32837" lon="2.58609">
        <ele>254.89</ele>
        <time>2021-08-02T21:25:24Z</time>
      </trkpt>
      <trkpt lat="46.32844" lon="2.58628">
        <ele>254.89</ele>
        <time>2021-08-02T21:25:25Z</time>
      </trkpt>
      <trkpt lat="46.32845" lon="2.5865">
        <ele>255.85</ele>
        <time>2021-08-02T21:25:26Z</time>
      </trkpt>
      <trkpt lat="46.32843" lon="2.58691">
        <ele>256.81</ele>
        <time>2021-08-02T21:25:27Z</time>
      </trkpt>
      <trkpt lat="46.32837" lon="2.5871">
        <ele>256.81</ele>
        <time>2021-08-02T21:25:28Z</time>
      </trkpt>
      <trkpt lat="46.32837" lon="2.5871">
        <ele>257.77</ele>
        <time>2021-08-02T21:25:29Z</time>
      </trkpt>
      <trkpt lat="46.32827" lon="2.58747">
        <ele>258.73</ele>
        <time>2021-08-02T21:25:30Z</time>
      </trkpt>
      <trkpt lat="46.32827" lon="2.58747">
        <ele>259.69</ele>
        <time>2021-08-02T21:25:31Z</time>
      </trkpt>
      <trkpt lat="46.32809" lon="2.58778">
        <ele>260.65</ele>
        <time>2021-08-02T21:25:32Z</time>
      </trkpt>
      <trkpt lat="46.32809" lon="2.58778">
        <ele>262.1</ele>
        <time>2021-08-02T21:25:33Z</time>
      </trkpt>
      <trkpt lat="46.32788" lon="2.58808">
        <ele>262.58</ele>
        <time>2021-08-02T21:25:34Z</time>
      </trkpt>
      <trkpt lat="46.32775" lon="2.5882">
        <ele>263.54</ele>
        <time>2021-08-02T21:25:35Z</time>
      </trkpt>
      <trkpt lat="46.32763" lon="2.5883">
        <ele>264.5</ele>
        <time>2021-08-02T21:25:36Z</time>
      </trkpt>
      <trkpt lat="46.32763" lon="2.5883">
        <ele>265.46</ele>
        <time>2021-08-02T21:25:37Z</time>
      </trkpt>
      <trkpt lat="46.32665" lon="2.58892">
        <ele>266.9</ele>
        <time>2021-08-02T21:25:45Z</time>
      </trkpt>
      <trkpt lat="46.32658" lon="2.58897">
        <ele>267.38</ele>
        <time>2021-08-02T21:25:46Z</time>
      </trkpt>
      <trkpt lat="46.32654" lon="2.589">
        <ele>267.38</ele>
        <time>2021-08-02T21:25:47Z</time>
      </trkpt>
      <trkpt lat="46.3264" lon="2.58888">
        <ele>267.38</ele>
        <time>2021-08-02T21:25:48Z</time>
      </trkpt>
      <trkpt lat="46.32636" lon="2.58892">
        <ele>267.38</ele>
        <time>2021-08-02T21:25:49Z</time>
      </trkpt>
      <trkpt lat="46.32634" lon="2.58905">
        <ele>267.38</ele>
        <time>2021-08-02T21:25:50Z</time>
      </trkpt>
      <trkpt lat="46.32634" lon="2.5891">
        <ele>267.38</ele>
        <time>2021-08-02T21:25:51Z</time>
      </trkpt>
      <trkpt lat="46.3264" lon="2.58916">
        <ele>266.9</ele>
        <time>2021-08-02T21:25:52Z</time>
      </trkpt>
      <trkpt lat="46.32641" lon="2.58917">
        <ele>266.9</ele>
        <time>2021-08-02T21:25:53Z</time>
      </trkpt>
      <trkpt lat="46.32655" lon="2.58917">
        <ele>266.42</ele>
        <time>2021-08-02T21:25:54Z</time>
      </trkpt>
      <trkpt lat="46.32661" lon="2.58923">
        <ele>265.94</ele>
        <time>2021-08-02T21:25:55Z</time>
      </trkpt>
      <trkpt lat="46.32667" lon="2.5893">
        <ele>264.98</ele>
        <time>2021-08-02T21:25:56Z</time>
      </trkpt>
      <trkpt lat="46.32672" lon="2.58943">
        <ele>264.5</ele>
        <time>2021-08-02T21:25:57Z</time>
      </trkpt>
      <trkpt lat="46.32677" lon="2.58954">
        <ele>263.54</ele>
        <time>2021-08-02T21:25:58Z</time>
      </trkpt>
      <trkpt lat="46.32681" lon="2.58966">
        <ele>263.06</ele>
        <time>2021-08-02T21:25:59Z</time>
      </trkpt>
      <trkpt lat="46.32701" lon="2.59022">
        <ele>257.77</ele>
        <time>2021-08-02T21:26:03Z</time>
      </trkpt>
      <trkpt lat="46.32706" lon="2.59036">
        <ele>255.37</ele>
        <time>2021-08-02T21:26:04Z</time>
      </trkpt>
      <trkpt lat="46.32749" lon="2.59127">
        <ele>245.27</ele>
        <time>2021-08-02T21:26:09Z</time>
      </trkpt>
      <trkpt lat="46.3279" lon="2.59226">
        <ele>235.66</ele>
        <time>2021-08-02T21:26:16Z</time>
      </trkpt>
      <trkpt lat="46.32822" lon="2.5933">
        <ele>224.61</ele>
        <time>2021-08-02T21:26:22Z</time>
      </trkpt>
      <trkpt lat="46.32826" lon="2.59348">
        <ele>223.64</ele>
        <time>2021-08-02T21:26:23Z</time>
      </trkpt>
      <trkpt lat="46.32863" lon="2.59532">
        <ele>211.63</ele>
        <time>2021-08-02T21:26:33Z</time>
      </trkpt>
      <trkpt lat="46.32889" lon="2.59628">
        <ele>211.15</ele>
        <time>2021-08-02T21:26:39Z</time>
      </trkpt>
      <trkpt lat="46.32891" lon="2.59658">
        <ele>215.95</ele>
        <time>2021-08-02T21:26:45Z</time>
      </trkpt>
      <trkpt lat="46.32888" lon="2.59667">
        <ele>215.47</ele>
        <time>2021-08-02T21:27:15Z</time>
      </trkpt>
      <trkpt lat="46.32886" lon="2.59672">
        <ele>215.47</ele>
        <time>2021-08-02T21:27:16Z</time>
      </trkpt>
      <trkpt lat="46.32884" lon="2.59678">
        <ele>215.47</ele>
        <time>2021-08-02T21:27:17Z</time>
      </trkpt>
      <trkpt lat="46.32881" lon="2.59685">
        <ele>215.47</ele>
        <time>2021-08-02T21:27:18Z</time>
      </trkpt>
      <trkpt lat="46.32877" lon="2.59689">
        <ele>215.47</ele>
        <time>2021-08-02T21:27:19Z</time>
      </trkpt>
      <trkpt lat="46.32872" lon="2.59694">
        <ele>215.47</ele>
        <time>2021-08-02T21:27:20Z</time>
      </trkpt>
      <trkpt lat="46.32858" lon="2.59709">
        <ele>214.99</ele>
        <time>2021-08-02T21:27:22Z</time>
      </trkpt>
      <trkpt lat="46.32858" lon="2.59709">
        <ele>214.99</ele>
        <time>2021-08-02T21:27:23Z</time>
      </trkpt>
      <trkpt lat="46.32854" lon="2.59713">
        <ele>214.51</ele>
        <time>2021-08-02T21:27:24Z</time>
      </trkpt>
      <trkpt lat="46.32855" lon="2.59731">
        <ele>214.51</ele>
        <time>2021-08-02T21:27:25Z</time>
      </trkpt>
      <trkpt lat="46.32858" lon="2.59734">
        <ele>214.03</ele>
        <time>2021-08-02T21:27:26Z</time>
      </trkpt>
      <trkpt lat="46.32862" lon="2.59737">
        <ele>214.03</ele>
        <time>2021-08-02T21:27:27Z</time>
      </trkpt>
      <trkpt lat="46.32868" lon="2.59741">
        <ele>214.03</ele>
        <time>2021-08-02T21:27:28Z</time>
      </trkpt>
      <trkpt lat="46.32884" lon="2.59756">
        <ele>213.55</ele>
        <time>2021-08-02T21:27:29Z</time>
      </trkpt>
      <trkpt lat="46.32978" lon="2.59859">
        <ele>214.03</ele>
        <time>2021-08-02T21:27:40Z</time>
      </trkpt>
      <trkpt lat="46.33095" lon="2.59987">
        <ele>215.47</ele>
        <time>2021-08-02T21:27:53Z</time>
      </trkpt>
      <trkpt lat="46.33104" lon="2.60004">
        <ele>214.99</ele>
        <time>2021-08-02T21:27:57Z</time>
      </trkpt>
      <trkpt lat="46.33103" lon="2.60013">
        <ele>214.51</ele>
        <time>2021-08-02T21:27:58Z</time>
      </trkpt>
      <trkpt lat="46.33074" lon="2.60086">
        <ele>210.67</ele>
        <time>2021-08-02T21:28:05Z</time>
      </trkpt>
      <trkpt lat="46.32994" lon="2.60262">
        <ele>208.74</ele>
        <time>2021-08-02T21:28:16Z</time>
      </trkpt>
      <trkpt lat="46.32929" lon="2.6045">
        <ele>208.74</ele>
        <time>2021-08-02T21:28:27Z</time>
      </trkpt>
      <trkpt lat="46.32915" lon="2.60502">
        <ele>206.82</ele>
        <time>2021-08-02T21:28:33Z</time>
      </trkpt>
      <trkpt lat="46.32909" lon="2.60528">
        <ele>207.78</ele>
        <time>2021-08-02T21:29:01Z</time>
      </trkpt>
      <trkpt lat="46.32876" lon="2.60636">
        <ele>209.22</ele>
        <time>2021-08-02T21:29:13Z</time>
      </trkpt>
      <trkpt lat="46.3284" lon="2.60769">
        <ele>209.7</ele>
        <time>2021-08-02T21:29:23Z</time>
      </trkpt>
      <trkpt lat="46.32821" lon="2.60845">
        <ele>212.11</ele>
        <time>2021-08-02T21:29:29Z</time>
      </trkpt>
      <trkpt lat="46.3282" lon="2.60855">
        <ele>212.59</ele>
        <time>2021-08-02T21:29:30Z</time>
      </trkpt>
      <trkpt lat="46.3281" lon="2.60867">
        <ele>212.11</ele>
        <time>2021-08-02T21:29:31Z</time>
      </trkpt>
      <trkpt lat="46.32802" lon="2.60867">
        <ele>212.11</ele>
        <time>2021-08-02T21:29:32Z</time>
      </trkpt>
      <trkpt lat="46.32794" lon="2.60866">
        <ele>212.59</ele>
        <time>2021-08-02T21:29:33Z</time>
      </trkpt>
      <trkpt lat="46.32784" lon="2.60866">
        <ele>212.59</ele>
        <time>2021-08-02T21:29:34Z</time>
      </trkpt>
    </trkseg>
  </trk>
  <trk>
    <name><![CDATA[Journal actif: 2021-08-04 16:35]]></name>
    <trkseg>
      <trkpt lat="46.32795" lon="2.60856">
        <ele>216.43</ele>
        <time>2021-08-04T18:35:03Z</time>
      </trkpt>
      <trkpt lat="46.32801" lon="2.60857">
        <ele>221.24</ele>
        <time>2021-08-04T18:35:05Z</time>
      </trkpt>
      <trkpt lat="46.32829" lon="2.6091">
        <ele>298.15</ele>
        <time>2021-08-04T18:35:25Z</time>
      </trkpt>
      <trkpt lat="46.32808" lon="2.60867">
        <ele>212.11</ele>
        <time>2021-08-04T18:35:52Z</time>
      </trkpt>
      <trkpt lat="46.32816" lon="2.60867">
        <ele>212.11</ele>
        <time>2021-08-04T18:35:53Z</time>
      </trkpt>
      <trkpt lat="46.32816" lon="2.60867">
        <ele>212.11</ele>
        <time>2021-08-04T18:35:54Z</time>
      </trkpt>
      <trkpt lat="46.3282" lon="2.60861">
        <ele>212.11</ele>
        <time>2021-08-04T18:35:55Z</time>
      </trkpt>
      <trkpt lat="46.32821" lon="2.60852">
        <ele>212.59</ele>
        <time>2021-08-04T18:35:56Z</time>
      </trkpt>
      <trkpt lat="46.32822" lon="2.60842">
        <ele>212.59</ele>
        <time>2021-08-04T18:35:57Z</time>
      </trkpt>
      <trkpt lat="46.32824" lon="2.6083">
        <ele>213.07</ele>
        <time>2021-08-04T18:35:58Z</time>
      </trkpt>
      <trkpt lat="46.32827" lon="2.60818">
        <ele>213.07</ele>
        <time>2021-08-04T18:35:59Z</time>
      </trkpt>
      <trkpt lat="46.3283" lon="2.60805">
        <ele>213.55</ele>
        <time>2021-08-04T18:36:00Z</time>
      </trkpt>
      <trkpt lat="46.32868" lon="2.60669">
        <ele>213.07</ele>
        <time>2021-08-04T18:36:08Z</time>
      </trkpt>
      <trkpt lat="46.3294" lon="2.60414">
        <ele>212.11</ele>
        <time>2021-08-04T18:36:19Z</time>
      </trkpt>
      <trkpt lat="46.33007" lon="2.60231">
        <ele>211.63</ele>
        <time>2021-08-04T18:36:28Z</time>
      </trkpt>
      <trkpt lat="46.3309" lon="2.60049">
        <ele>212.11</ele>
        <time>2021-08-04T18:36:37Z</time>
      </trkpt>
      <trkpt lat="46.3309" lon="2.60049">
        <ele>211.63</ele>
        <time>2021-08-04T18:36:38Z</time>
      </trkpt>
      <trkpt lat="46.33103" lon="2.60044">
        <ele>211.63</ele>
        <time>2021-08-04T18:36:39Z</time>
      </trkpt>
      <trkpt lat="46.33103" lon="2.60044">
        <ele>211.63</ele>
        <time>2021-08-04T18:36:40Z</time>
      </trkpt>
      <trkpt lat="46.33122" lon="2.60048">
        <ele>211.15</ele>
        <time>2021-08-04T18:36:41Z</time>
      </trkpt>
      <trkpt lat="46.33122" lon="2.60048">
        <ele>211.15</ele>
        <time>2021-08-04T18:36:42Z</time>
      </trkpt>
      <trkpt lat="46.33128" lon="2.6006">
        <ele>211.15</ele>
        <time>2021-08-04T18:36:43Z</time>
      </trkpt>
      <trkpt lat="46.3316" lon="2.60128">
        <ele>208.26</ele>
        <time>2021-08-04T18:36:50Z</time>
      </trkpt>
      <trkpt lat="46.33179" lon="2.60176">
        <ele>210.19</ele>
        <time>2021-08-04T18:36:56Z</time>
      </trkpt>
      <trkpt lat="46.33224" lon="2.60282">
        <ele>208.74</ele>
        <time>2021-08-04T18:37:03Z</time>
      </trkpt>
      <trkpt lat="46.33243" lon="2.60325">
        <ele>207.78</ele>
        <time>2021-08-04T18:37:06Z</time>
      </trkpt>
      <trkpt lat="46.33247" lon="2.60333">
        <ele>206.82</ele>
        <time>2021-08-04T18:37:07Z</time>
      </trkpt>
      <trkpt lat="46.3325" lon="2.60338">
        <ele>206.34</ele>
        <time>2021-08-04T18:37:08Z</time>
      </trkpt>
      <trkpt lat="46.3325" lon="2.60338">
        <ele>206.34</ele>
        <time>2021-08-04T18:37:09Z</time>
      </trkpt>
      <trkpt lat="46.33265" lon="2.60285">
        <ele>206.34</ele>
        <time>2021-08-04T18:37:14Z</time>
      </trkpt>
      <trkpt lat="46.33243" lon="2.60263">
        <ele>206.82</ele>
        <time>2021-08-04T18:37:17Z</time>
      </trkpt>
      <trkpt lat="46.33244" lon="2.60257">
        <ele>206.82</ele>
        <time>2021-08-04T18:37:18Z</time>
      </trkpt>
      <trkpt lat="46.33249" lon="2.60244">
        <ele>206.82</ele>
        <time>2021-08-04T18:37:19Z</time>
      </trkpt>
      <trkpt lat="46.3325" lon="2.60241">
        <ele>207.3</ele>
        <time>2021-08-04T18:37:31Z</time>
      </trkpt>
      <trkpt lat="46.33253" lon="2.60235">
        <ele>207.3</ele>
        <time>2021-08-04T18:39:54Z</time>
      </trkpt>
      <trkpt lat="46.33255" lon="2.60232">
        <ele>207.3</ele>
        <time>2021-08-04T18:39:55Z</time>
      </trkpt>
      <trkpt lat="46.33264" lon="2.60222">
        <ele>207.3</ele>
        <time>2021-08-04T18:39:56Z</time>
      </trkpt>
      <trkpt lat="46.33267" lon="2.6022">
        <ele>207.3</ele>
        <time>2021-08-04T18:39:57Z</time>
      </trkpt>
      <trkpt lat="46.33269" lon="2.60219">
        <ele>207.3</ele>
        <time>2021-08-04T18:39:58Z</time>
      </trkpt>
      <trkpt lat="46.3327" lon="2.60218">
        <ele>207.3</ele>
        <time>2021-08-04T18:39:59Z</time>
      </trkpt>
      <trkpt lat="46.33272" lon="2.60217">
        <ele>207.3</ele>
        <time>2021-08-04T18:40:00Z</time>
      </trkpt>
      <trkpt lat="46.33275" lon="2.60215">
        <ele>207.3</ele>
        <time>2021-08-04T18:40:01Z</time>
      </trkpt>
      <trkpt lat="46.33278" lon="2.60213">
        <ele>207.3</ele>
        <time>2021-08-04T18:40:02Z</time>
      </trkpt>
      <trkpt lat="46.33281" lon="2.60211">
        <ele>207.3</ele>
        <time>2021-08-04T18:40:03Z</time>
      </trkpt>
      <trkpt lat="46.33284" lon="2.60209">
        <ele>207.3</ele>
        <time>2021-08-04T18:40:04Z</time>
      </trkpt>
      <trkpt lat="46.33286" lon="2.60208">
        <ele>207.3</ele>
        <time>2021-08-04T18:40:05Z</time>
      </trkpt>
      <trkpt lat="46.33293" lon="2.60273">
        <ele>207.3</ele>
        <time>2021-08-04T18:40:11Z</time>
      </trkpt>
      <trkpt lat="46.33265" lon="2.60313">
        <ele>206.82</ele>
        <time>2021-08-04T18:40:16Z</time>
      </trkpt>
      <trkpt lat="46.33244" lon="2.60327">
        <ele>206.82</ele>
        <time>2021-08-04T18:40:18Z</time>
      </trkpt>
      <trkpt lat="46.33244" lon="2.60327">
        <ele>206.34</ele>
        <time>2021-08-04T18:40:19Z</time>
      </trkpt>
      <trkpt lat="46.33235" lon="2.60305">
        <ele>205.38</ele>
        <time>2021-08-04T18:40:25Z</time>
      </trkpt>
      <trkpt lat="46.33231" lon="2.60298">
        <ele>205.38</ele>
        <time>2021-08-04T18:40:26Z</time>
      </trkpt>
      <trkpt lat="46.33193" lon="2.6021">
        <ele>203.46</ele>
        <time>2021-08-04T18:40:34Z</time>
      </trkpt>
      <trkpt lat="46.33132" lon="2.60067">
        <ele>204.42</ele>
        <time>2021-08-04T18:40:45Z</time>
      </trkpt>
      <trkpt lat="46.33123" lon="2.60048">
        <ele>204.42</ele>
        <time>2021-08-04T18:40:47Z</time>
      </trkpt>
      <trkpt lat="46.33119" lon="2.60041">
        <ele>204.42</ele>
        <time>2021-08-04T18:40:48Z</time>
      </trkpt>
      <trkpt lat="46.33121" lon="2.60026">
        <ele>204.42</ele>
        <time>2021-08-04T18:40:49Z</time>
      </trkpt>
      <trkpt lat="46.33119" lon="2.60015">
        <ele>204.42</ele>
        <time>2021-08-04T18:40:50Z</time>
      </trkpt>
      <trkpt lat="46.33114" lon="2.60012">
        <ele>204.42</ele>
        <time>2021-08-04T18:40:51Z</time>
      </trkpt>
      <trkpt lat="46.33109" lon="2.6001">
        <ele>204.9</ele>
        <time>2021-08-04T18:40:52Z</time>
      </trkpt>
      <trkpt lat="46.33106" lon="2.60009">
        <ele>204.9</ele>
        <time>2021-08-04T18:40:53Z</time>
      </trkpt>
      <trkpt lat="46.33102" lon="2.60014">
        <ele>204.9</ele>
        <time>2021-08-04T18:40:54Z</time>
      </trkpt>
      <trkpt lat="46.33096" lon="2.60019">
        <ele>204.9</ele>
        <time>2021-08-04T18:40:55Z</time>
      </trkpt>
      <trkpt lat="46.33096" lon="2.60026">
        <ele>204.9</ele>
        <time>2021-08-04T18:40:56Z</time>
      </trkpt>
      <trkpt lat="46.33046" lon="2.60147">
        <ele>202.49</ele>
        <time>2021-08-04T18:41:06Z</time>
      </trkpt>
      <trkpt lat="46.32979" lon="2.603">
        <ele>201.53</ele>
        <time>2021-08-04T18:41:18Z</time>
      </trkpt>
      <trkpt lat="46.32931" lon="2.60445">
        <ele>202.01</ele>
        <time>2021-08-04T18:41:29Z</time>
      </trkpt>
      <trkpt lat="46.32921" lon="2.60478">
        <ele>203.46</ele>
        <time>2021-08-04T18:41:36Z</time>
      </trkpt>
      <trkpt lat="46.32917" lon="2.60494">
        <ele>203.46</ele>
        <time>2021-08-04T18:41:50Z</time>
      </trkpt>
      <trkpt lat="46.32906" lon="2.60537">
        <ele>203.94</ele>
        <time>2021-08-04T18:42:03Z</time>
      </trkpt>
      <trkpt lat="46.32883" lon="2.60613">
        <ele>204.9</ele>
        <time>2021-08-04T18:42:17Z</time>
      </trkpt>
      <trkpt lat="46.32878" lon="2.60632">
        <ele>204.9</ele>
        <time>2021-08-04T18:42:20Z</time>
      </trkpt>
      <trkpt lat="46.32871" lon="2.60656">
        <ele>204.9</ele>
        <time>2021-08-04T18:42:22Z</time>
      </trkpt>
      <trkpt lat="46.32871" lon="2.60656">
        <ele>204.9</ele>
        <time>2021-08-04T18:42:23Z</time>
      </trkpt>
      <trkpt lat="46.32834" lon="2.60792">
        <ele>206.34</ele>
        <time>2021-08-04T18:42:38Z</time>
      </trkpt>
      <trkpt lat="46.32821" lon="2.60846">
        <ele>207.3</ele>
        <time>2021-08-04T18:42:45Z</time>
      </trkpt>
      <trkpt lat="46.32821" lon="2.60851">
        <ele>207.3</ele>
        <time>2021-08-04T18:42:46Z</time>
      </trkpt>
      <trkpt lat="46.3281" lon="2.60867">
        <ele>207.3</ele>
        <time>2021-08-04T18:42:47Z</time>
      </trkpt>
      <trkpt lat="46.3281" lon="2.60867">
        <ele>206.82</ele>
        <time>2021-08-04T18:42:48Z</time>
      </trkpt>
      <trkpt lat="46.32804" lon="2.60867">
        <ele>206.82</ele>
        <time>2021-08-04T18:42:49Z</time>
      </trkpt>
      <trkpt lat="46.32797" lon="2.60867">
        <ele>206.82</ele>
        <time>2021-08-04T18:42:50Z</time>
      </trkpt>
      <trkpt lat="46.32788" lon="2.60866">
        <ele>206.82</ele>
        <time>2021-08-04T18:42:51Z</time>
      </trkpt>
      <trkpt lat="46.32779" lon="2.60866">
        <ele>206.82</ele>
        <time>2021-08-04T18:42:52Z</time>
      </trkpt>
      <trkpt lat="46.32708" lon="2.60863">
        <ele>206.82</ele>
        <time>2021-08-04T18:43:01Z</time>
      </trkpt>
      <trkpt lat="46.32703" lon="2.60864">
        <ele>207.3</ele>
        <time>2021-08-04T18:43:13Z</time>
      </trkpt>
      <trkpt lat="46.32703" lon="2.60864">
        <ele>207.3</ele>
        <time>2021-08-04T18:43:41Z</time>
      </trkpt>
      <trkpt lat="46.32699" lon="2.60864">
        <ele>207.3</ele>
        <time>2021-08-04T18:43:42Z</time>
      </trkpt>
      <trkpt lat="46.32697" lon="2.60864">
        <ele>207.3</ele>
        <time>2021-08-04T18:43:43Z</time>
      </trkpt>
      <trkpt lat="46.32695" lon="2.60864">
        <ele>207.3</ele>
        <time>2021-08-04T18:43:44Z</time>
      </trkpt>
      <trkpt lat="46.32691" lon="2.60865">
        <ele>207.3</ele>
        <time>2021-08-04T18:43:45Z</time>
      </trkpt>
      <trkpt lat="46.32686" lon="2.60865">
        <ele>207.3</ele>
        <time>2021-08-04T18:43:46Z</time>
      </trkpt>
      <trkpt lat="46.32658" lon="2.60867">
        <ele>206.82</ele>
        <time>2021-08-04T18:43:55Z</time>
      </trkpt>
      <trkpt lat="46.32634" lon="2.60866">
        <ele>207.78</ele>
        <time>2021-08-04T18:44:02Z</time>
      </trkpt>
      <trkpt lat="46.32574" lon="2.60904">
        <ele>210.19</ele>
        <time>2021-08-04T18:44:11Z</time>
      </trkpt>
      <trkpt lat="46.32574" lon="2.60904">
        <ele>210.19</ele>
        <time>2021-08-04T18:44:12Z</time>
      </trkpt>
      <trkpt lat="46.32568" lon="2.60908">
        <ele>210.67</ele>
        <time>2021-08-04T18:44:13Z</time>
      </trkpt>
      <trkpt lat="46.32564" lon="2.6091">
        <ele>210.67</ele>
        <time>2021-08-04T18:44:14Z</time>
      </trkpt>
      <trkpt lat="46.32566" lon="2.60909">
        <ele>209.7</ele>
        <time>2021-08-04T18:44:17Z</time>
      </trkpt>
      <trkpt lat="46.32587" lon="2.60942">
        <ele>209.22</ele>
        <time>2021-08-04T18:44:23Z</time>
      </trkpt>
      <trkpt lat="46.32584" lon="2.60938">
        <ele>208.74</ele>
        <time>2021-08-04T18:59:47Z</time>
      </trkpt>
      <trkpt lat="46.32583" lon="2.60936">
        <ele>208.74</ele>
        <time>2021-08-04T18:59:58Z</time>
      </trkpt>
      <trkpt lat="46.32583" lon="2.60923">
        <ele>208.26</ele>
        <time>2021-08-04T19:00:10Z</time>
      </trkpt>
      <trkpt lat="46.32583" lon="2.60924">
        <ele>208.74</ele>
        <time>2021-08-04T19:00:15Z</time>
      </trkpt>
      <trkpt lat="46.32575" lon="2.60904">
        <ele>208.74</ele>
        <time>2021-08-04T19:00:18Z</time>
      </trkpt>
      <trkpt lat="46.3257" lon="2.60907">
        <ele>208.74</ele>
        <time>2021-08-04T19:00:19Z</time>
      </trkpt>
      <trkpt lat="46.3257" lon="2.60907">
        <ele>208.74</ele>
        <time>2021-08-04T19:00:20Z</time>
      </trkpt>
      <trkpt lat="46.32567" lon="2.60908">
        <ele>208.74</ele>
        <time>2021-08-04T19:00:21Z</time>
      </trkpt>
      <trkpt lat="46.32559" lon="2.60912">
        <ele>208.74</ele>
        <time>2021-08-04T19:00:22Z</time>
      </trkpt>
      <trkpt lat="46.32559" lon="2.60912">
        <ele>208.74</ele>
        <time>2021-08-04T19:00:23Z</time>
      </trkpt>
      <trkpt lat="46.32559" lon="2.60912">
        <ele>208.74</ele>
        <time>2021-08-04T19:00:24Z</time>
      </trkpt>
      <trkpt lat="46.32559" lon="2.60912">
        <ele>208.74</ele>
        <time>2021-08-04T19:00:25Z</time>
      </trkpt>
      <trkpt lat="46.32559" lon="2.60912">
        <ele>208.26</ele>
        <time>2021-08-04T19:00:28Z</time>
      </trkpt>
      <trkpt lat="46.32559" lon="2.60912">
        <ele>208.26</ele>
        <time>2021-08-04T19:00:29Z</time>
      </trkpt>
      <trkpt lat="46.32565" lon="2.60909">
        <ele>208.26</ele>
        <time>2021-08-04T19:00:30Z</time>
      </trkpt>
      <trkpt lat="46.32583" lon="2.609">
        <ele>208.26</ele>
        <time>2021-08-04T19:00:31Z</time>
      </trkpt>
      <trkpt lat="46.32583" lon="2.609">
        <ele>207.78</ele>
        <time>2021-08-04T19:00:32Z</time>
      </trkpt>
      <trkpt lat="46.32576" lon="2.60903">
        <ele>207.78</ele>
        <time>2021-08-04T19:00:33Z</time>
      </trkpt>
      <trkpt lat="46.32597" lon="2.60891">
        <ele>206.82</ele>
        <time>2021-08-04T19:00:48Z</time>
      </trkpt>
      <trkpt lat="46.3261" lon="2.60887">
        <ele>206.82</ele>
        <time>2021-08-04T19:01:21Z</time>
      </trkpt>
      <trkpt lat="46.32625" lon="2.60885">
        <ele>206.34</ele>
        <time>2021-08-04T19:01:40Z</time>
      </trkpt>
      <trkpt lat="46.32651" lon="2.60867">
        <ele>205.38</ele>
        <time>2021-08-04T19:01:44Z</time>
      </trkpt>
      <trkpt lat="46.32651" lon="2.60867">
        <ele>205.38</ele>
        <time>2021-08-04T19:01:45Z</time>
      </trkpt>
      <trkpt lat="46.32658" lon="2.60867">
        <ele>205.38</ele>
        <time>2021-08-04T19:01:46Z</time>
      </trkpt>
      <trkpt lat="46.32747" lon="2.60864">
        <ele>205.86</ele>
        <time>2021-08-04T19:01:59Z</time>
      </trkpt>
      <trkpt lat="46.32779" lon="2.60866">
        <ele>205.86</ele>
        <time>2021-08-04T19:02:07Z</time>
      </trkpt>
      <trkpt lat="46.32803" lon="2.60867">
        <ele>205.86</ele>
        <time>2021-08-04T19:02:28Z</time>
      </trkpt>
      <trkpt lat="46.32808" lon="2.60867">
        <ele>206.34</ele>
        <time>2021-08-04T19:02:29Z</time>
      </trkpt>
      <trkpt lat="46.32813" lon="2.60867">
        <ele>205.86</ele>
        <time>2021-08-04T19:02:30Z</time>
      </trkpt>
      <trkpt lat="46.32817" lon="2.60867">
        <ele>206.34</ele>
        <time>2021-08-04T19:02:31Z</time>
      </trkpt>
      <trkpt lat="46.3282" lon="2.60859">
        <ele>206.34</ele>
        <time>2021-08-04T19:02:32Z</time>
      </trkpt>
      <trkpt lat="46.3282" lon="2.60853">
        <ele>206.34</ele>
        <time>2021-08-04T19:02:33Z</time>
      </trkpt>
      <trkpt lat="46.32822" lon="2.60844">
        <ele>206.82</ele>
        <time>2021-08-04T19:02:34Z</time>
      </trkpt>
      <trkpt lat="46.32823" lon="2.60836">
        <ele>206.82</ele>
        <time>2021-08-04T19:02:35Z</time>
      </trkpt>
      <trkpt lat="46.32848" lon="2.60741">
        <ele>205.86</ele>
        <time>2021-08-04T19:02:47Z</time>
      </trkpt>
      <trkpt lat="46.32861" lon="2.60692">
        <ele>205.38</ele>
        <time>2021-08-04T19:03:01Z</time>
      </trkpt>
      <trkpt lat="46.32886" lon="2.60605">
        <ele>204.9</ele>
        <time>2021-08-04T19:03:11Z</time>
      </trkpt>
      <trkpt lat="46.32924" lon="2.6047">
        <ele>203.46</ele>
        <time>2021-08-04T19:03:21Z</time>
      </trkpt>
      <trkpt lat="46.33003" lon="2.60239">
        <ele>200.09</ele>
        <time>2021-08-04T19:03:35Z</time>
      </trkpt>
      <trkpt lat="46.33081" lon="2.60069">
        <ele>199.13</ele>
        <time>2021-08-04T19:03:48Z</time>
      </trkpt>
      <trkpt lat="46.3309" lon="2.60049">
        <ele>199.61</ele>
        <time>2021-08-04T19:03:55Z</time>
      </trkpt>
      <trkpt lat="46.33092" lon="2.60044">
        <ele>199.61</ele>
        <time>2021-08-04T19:03:56Z</time>
      </trkpt>
      <trkpt lat="46.33112" lon="2.60045">
        <ele>200.09</ele>
        <time>2021-08-04T19:03:59Z</time>
      </trkpt>
      <trkpt lat="46.33117" lon="2.60042">
        <ele>200.57</ele>
        <time>2021-08-04T19:04:00Z</time>
      </trkpt>
      <trkpt lat="46.33121" lon="2.60033">
        <ele>200.57</ele>
        <time>2021-08-04T19:04:01Z</time>
      </trkpt>
      <trkpt lat="46.33121" lon="2.60026">
        <ele>201.05</ele>
        <time>2021-08-04T19:04:02Z</time>
      </trkpt>
      <trkpt lat="46.3312" lon="2.60019">
        <ele>201.05</ele>
        <time>2021-08-04T19:04:03Z</time>
      </trkpt>
      <trkpt lat="46.33119" lon="2.60011">
        <ele>201.05</ele>
        <time>2021-08-04T19:04:04Z</time>
      </trkpt>
      <trkpt lat="46.33115" lon="2.60012">
        <ele>201.53</ele>
        <time>2021-08-04T19:04:05Z</time>
      </trkpt>
      <trkpt lat="46.33105" lon="2.60006">
        <ele>201.53</ele>
        <time>2021-08-04T19:04:06Z</time>
      </trkpt>
      <trkpt lat="46.33044" lon="2.59933">
        <ele>202.98</ele>
        <time>2021-08-04T19:04:18Z</time>
      </trkpt>
      <trkpt lat="46.33038" lon="2.59926">
        <ele>202.98</ele>
        <time>2021-08-04T19:04:20Z</time>
      </trkpt>
      <trkpt lat="46.33035" lon="2.59923">
        <ele>202.98</ele>
        <time>2021-08-04T19:04:21Z</time>
      </trkpt>
      <trkpt lat="46.33032" lon="2.5992">
        <ele>202.98</ele>
        <time>2021-08-04T19:04:22Z</time>
      </trkpt>
      <trkpt lat="46.33035" lon="2.5991">
        <ele>202.49</ele>
        <time>2021-08-04T19:04:23Z</time>
      </trkpt>
      <trkpt lat="46.33038" lon="2.59903">
        <ele>202.01</ele>
        <time>2021-08-04T19:04:24Z</time>
      </trkpt>
      <trkpt lat="46.33042" lon="2.59891">
        <ele>201.05</ele>
        <time>2021-08-04T19:04:25Z</time>
      </trkpt>
      <trkpt lat="46.33039" lon="2.59871">
        <ele>200.09</ele>
        <time>2021-08-04T19:04:26Z</time>
      </trkpt>
      <trkpt lat="46.33039" lon="2.59871">
        <ele>199.61</ele>
        <time>2021-08-04T19:04:27Z</time>
      </trkpt>
      <trkpt lat="46.33029" lon="2.59854">
        <ele>199.13</ele>
        <time>2021-08-04T19:04:28Z</time>
      </trkpt>
      <trkpt lat="46.33023" lon="2.59848">
        <ele>198.65</ele>
        <time>2021-08-04T19:04:29Z</time>
      </trkpt>
      <trkpt lat="46.32978" lon="2.59792">
        <ele>201.53</ele>
        <time>2021-08-04T19:04:36Z</time>
      </trkpt>
      <trkpt lat="46.32971" lon="2.5978">
        <ele>201.53</ele>
        <time>2021-08-04T19:04:37Z</time>
      </trkpt>
      <trkpt lat="46.32897" lon="2.59646">
        <ele>205.86</ele>
        <time>2021-08-04T19:04:51Z</time>
      </trkpt>
      <trkpt lat="46.32845" lon="2.59455">
        <ele>212.11</ele>
        <time>2021-08-04T19:05:03Z</time>
      </trkpt>
      <trkpt lat="46.32825" lon="2.59342">
        <ele>222.68</ele>
        <time>2021-08-04T19:05:11Z</time>
      </trkpt>
      <trkpt lat="46.32821" lon="2.59327">
        <ele>223.64</ele>
        <time>2021-08-04T19:05:12Z</time>
      </trkpt>
      <trkpt lat="46.32779" lon="2.59199">
        <ele>235.18</ele>
        <time>2021-08-04T19:05:21Z</time>
      </trkpt>
      <trkpt lat="46.3273" lon="2.59086">
        <ele>247.2</ele>
        <time>2021-08-04T19:05:32Z</time>
      </trkpt>
      <trkpt lat="46.32697" lon="2.59011">
        <ele>256.81</ele>
        <time>2021-08-04T19:05:42Z</time>
      </trkpt>
      <trkpt lat="46.32668" lon="2.58929">
        <ele>261.62</ele>
        <time>2021-08-04T19:05:53Z</time>
      </trkpt>
      <trkpt lat="46.32668" lon="2.5892">
        <ele>261.62</ele>
        <time>2021-08-04T19:05:54Z</time>
      </trkpt>
      <trkpt lat="46.32667" lon="2.58912">
        <ele>262.1</ele>
        <time>2021-08-04T19:05:55Z</time>
      </trkpt>
      <trkpt lat="46.32666" lon="2.58904">
        <ele>262.1</ele>
        <time>2021-08-04T19:05:56Z</time>
      </trkpt>
      <trkpt lat="46.32671" lon="2.58891">
        <ele>262.1</ele>
        <time>2021-08-04T19:05:57Z</time>
      </trkpt>
      <trkpt lat="46.32671" lon="2.58891">
        <ele>262.1</ele>
        <time>2021-08-04T19:05:58Z</time>
      </trkpt>
      <trkpt lat="46.32675" lon="2.58885">
        <ele>262.1</ele>
        <time>2021-08-04T19:05:59Z</time>
      </trkpt>
      <trkpt lat="46.32681" lon="2.58881">
        <ele>261.62</ele>
        <time>2021-08-04T19:06:00Z</time>
      </trkpt>
      <trkpt lat="46.32792" lon="2.58804">
        <ele>257.29</ele>
        <time>2021-08-04T19:06:13Z</time>
      </trkpt>
      <trkpt lat="46.32837" lon="2.58712">
        <ele>252</ele>
        <time>2021-08-04T19:06:21Z</time>
      </trkpt>
      <trkpt lat="46.32841" lon="2.58697">
        <ele>251.04</ele>
        <time>2021-08-04T19:06:22Z</time>
      </trkpt>
      <trkpt lat="46.32845" lon="2.58685">
        <ele>250.08</ele>
        <time>2021-08-04T19:06:23Z</time>
      </trkpt>
      <trkpt lat="46.32845" lon="2.5867">
        <ele>249.6</ele>
        <time>2021-08-04T19:06:24Z</time>
      </trkpt>
      <trkpt lat="46.32845" lon="2.58656">
        <ele>249.6</ele>
        <time>2021-08-04T19:06:25Z</time>
      </trkpt>
      <trkpt lat="46.32845" lon="2.58644">
        <ele>249.6</ele>
        <time>2021-08-04T19:06:26Z</time>
      </trkpt>
      <trkpt lat="46.32845" lon="2.5863">
        <ele>249.6</ele>
        <time>2021-08-04T19:06:27Z</time>
      </trkpt>
      <trkpt lat="46.32841" lon="2.58618">
        <ele>249.12</ele>
        <time>2021-08-04T19:06:28Z</time>
      </trkpt>
      <trkpt lat="46.32837" lon="2.58607">
        <ele>248.16</ele>
        <time>2021-08-04T19:06:29Z</time>
      </trkpt>
      <trkpt lat="46.32833" lon="2.58597">
        <ele>247.68</ele>
        <time>2021-08-04T19:06:30Z</time>
      </trkpt>
      <trkpt lat="46.32829" lon="2.58586">
        <ele>247.2</ele>
        <time>2021-08-04T19:06:31Z</time>
      </trkpt>
      <trkpt lat="46.32825" lon="2.58575">
        <ele>247.2</ele>
        <time>2021-08-04T19:06:32Z</time>
      </trkpt>
      <trkpt lat="46.32803" lon="2.58512">
        <ele>242.39</ele>
        <time>2021-08-04T19:06:37Z</time>
      </trkpt>
      <trkpt lat="46.32799" lon="2.58497">
        <ele>241.43</ele>
        <time>2021-08-04T19:06:38Z</time>
      </trkpt>
      <trkpt lat="46.32796" lon="2.58483">
        <ele>240.95</ele>
        <time>2021-08-04T19:06:39Z</time>
      </trkpt>
      <trkpt lat="46.32795" lon="2.5847">
        <ele>240.95</ele>
        <time>2021-08-04T19:06:40Z</time>
      </trkpt>
      <trkpt lat="46.32795" lon="2.5846">
        <ele>240.47</ele>
        <time>2021-08-04T19:06:41Z</time>
      </trkpt>
      <trkpt lat="46.32795" lon="2.58451">
        <ele>240.47</ele>
        <time>2021-08-04T19:06:42Z</time>
      </trkpt>
      <trkpt lat="46.32795" lon="2.58429">
        <ele>240.47</ele>
        <time>2021-08-04T19:06:49Z</time>
      </trkpt>
      <trkpt lat="46.32796" lon="2.58396">
        <ele>239.02</ele>
        <time>2021-08-04T19:07:16Z</time>
      </trkpt>
      <trkpt lat="46.32809" lon="2.5836">
        <ele>237.58</ele>
        <time>2021-08-04T19:07:20Z</time>
      </trkpt>
      <trkpt lat="46.32813" lon="2.58351">
        <ele>237.1</ele>
        <time>2021-08-04T19:07:21Z</time>
      </trkpt>
      <trkpt lat="46.32817" lon="2.5834">
        <ele>236.62</ele>
        <time>2021-08-04T19:07:22Z</time>
      </trkpt>
      <trkpt lat="46.32885" lon="2.58252">
        <ele>231.81</ele>
        <time>2021-08-04T19:07:33Z</time>
      </trkpt>
      <trkpt lat="46.32892" lon="2.58243">
        <ele>230.85</ele>
        <time>2021-08-04T19:07:35Z</time>
      </trkpt>
      <trkpt lat="46.32899" lon="2.58239">
        <ele>230.85</ele>
        <time>2021-08-04T19:07:36Z</time>
      </trkpt>
      <trkpt lat="46.32905" lon="2.58237">
        <ele>230.37</ele>
        <time>2021-08-04T19:07:37Z</time>
      </trkpt>
      <trkpt lat="46.32907" lon="2.58231">
        <ele>229.89</ele>
        <time>2021-08-04T19:07:38Z</time>
      </trkpt>
      <trkpt lat="46.32908" lon="2.58224">
        <ele>229.41</ele>
        <time>2021-08-04T19:07:39Z</time>
      </trkpt>
      <trkpt lat="46.32911" lon="2.58213">
        <ele>229.41</ele>
        <time>2021-08-04T19:07:40Z</time>
      </trkpt>
      <trkpt lat="46.32915" lon="2.58205">
        <ele>229.41</ele>
        <time>2021-08-04T19:07:41Z</time>
      </trkpt>
      <trkpt lat="46.32922" lon="2.58186">
        <ele>229.41</ele>
        <time>2021-08-04T19:07:42Z</time>
      </trkpt>
    </trkseg>
  </trk>
  <trk>
    <name><![CDATA[Journal actif: 2021-08-04 17:07]]></name>
    <trkseg>
      <trkpt lat="46.32936" lon="2.58142">
        <ele>229.89</ele>
        <time>2021-08-04T19:07:47Z</time>
      </trkpt>
      <trkpt lat="46.32987" lon="2.57999">
        <ele>231.81</ele>
        <time>2021-08-04T19:08:00Z</time>
      </trkpt>
      <trkpt lat="46.3304" lon="2.57818">
        <ele>235.66</ele>
        <time>2021-08-04T19:08:15Z</time>
      </trkpt>
      <trkpt lat="46.33095" lon="2.57732">
        <ele>237.1</ele>
        <time>2021-08-04T19:08:23Z</time>
      </trkpt>
      <trkpt lat="46.33139" lon="2.57684">
        <ele>237.1</ele>
        <time>2021-08-04T19:08:30Z</time>
      </trkpt>
      <trkpt lat="46.33141" lon="2.57682">
        <ele>236.62</ele>
        <time>2021-08-04T19:08:42Z</time>
      </trkpt>
      <trkpt lat="46.33156" lon="2.57668">
        <ele>236.14</ele>
        <time>2021-08-04T19:08:55Z</time>
      </trkpt>
      <trkpt lat="46.33232" lon="2.57598">
        <ele>230.85</ele>
        <time>2021-08-04T19:09:03Z</time>
      </trkpt>
      <trkpt lat="46.33379" lon="2.57459">
        <ele>221.72</ele>
        <time>2021-08-04T19:09:15Z</time>
      </trkpt>
      <trkpt lat="46.33387" lon="2.57452">
        <ele>220.76</ele>
        <time>2021-08-04T19:09:16Z</time>
      </trkpt>
      <trkpt lat="46.33396" lon="2.57445">
        <ele>221.24</ele>
        <time>2021-08-04T19:09:17Z</time>
      </trkpt>
      <trkpt lat="46.33405" lon="2.57441">
        <ele>221.72</ele>
        <time>2021-08-04T19:09:18Z</time>
      </trkpt>
      <trkpt lat="46.33417" lon="2.57436">
        <ele>220.76</ele>
        <time>2021-08-04T19:09:20Z</time>
      </trkpt>
      <trkpt lat="46.3343" lon="2.57434">
        <ele>220.76</ele>
        <time>2021-08-04T19:09:21Z</time>
      </trkpt>
      <trkpt lat="46.33438" lon="2.57433">
        <ele>220.76</ele>
        <time>2021-08-04T19:09:22Z</time>
      </trkpt>
      <trkpt lat="46.33447" lon="2.57433">
        <ele>220.76</ele>
        <time>2021-08-04T19:09:23Z</time>
      </trkpt>
      <trkpt lat="46.33457" lon="2.57434">
        <ele>220.28</ele>
        <time>2021-08-04T19:09:24Z</time>
      </trkpt>
      <trkpt lat="46.33468" lon="2.57435">
        <ele>220.28</ele>
        <time>2021-08-04T19:09:25Z</time>
      </trkpt>
      <trkpt lat="46.3348" lon="2.57436">
        <ele>219.8</ele>
        <time>2021-08-04T19:09:26Z</time>
      </trkpt>
      <trkpt lat="46.33614" lon="2.57447">
        <ele>216.43</ele>
        <time>2021-08-04T19:09:36Z</time>
      </trkpt>
      <trkpt lat="46.33665" lon="2.57447">
        <ele>215.95</ele>
        <time>2021-08-04T19:09:42Z</time>
      </trkpt>
      <trkpt lat="46.33677" lon="2.57447">
        <ele>215.95</ele>
        <time>2021-08-04T19:09:48Z</time>
      </trkpt>
      <trkpt lat="46.33741" lon="2.57446">
        <ele>215.95</ele>
        <time>2021-08-04T19:09:57Z</time>
      </trkpt>
      <trkpt lat="46.33793" lon="2.57444">
        <ele>216.91</ele>
        <time>2021-08-04T19:10:07Z</time>
      </trkpt>
      <trkpt lat="46.33793" lon="2.57444">
        <ele>216.91</ele>
        <time>2021-08-04T19:10:28Z</time>
      </trkpt>
      <trkpt lat="46.33814" lon="2.57443">
        <ele>217.4</ele>
        <time>2021-08-04T19:11:20Z</time>
      </trkpt>
      <trkpt lat="46.33819" lon="2.57443">
        <ele>217.4</ele>
        <time>2021-08-04T19:11:21Z</time>
      </trkpt>
      <trkpt lat="46.33831" lon="2.57441">
        <ele>217.4</ele>
        <time>2021-08-04T19:11:22Z</time>
      </trkpt>
      <trkpt lat="46.33831" lon="2.57441">
        <ele>217.4</ele>
        <time>2021-08-04T19:11:23Z</time>
      </trkpt>
      <trkpt lat="46.33836" lon="2.57441">
        <ele>217.4</ele>
        <time>2021-08-04T19:11:24Z</time>
      </trkpt>
      <trkpt lat="46.33838" lon="2.57428">
        <ele>217.88</ele>
        <time>2021-08-04T19:11:25Z</time>
      </trkpt>
      <trkpt lat="46.33837" lon="2.57419">
        <ele>217.88</ele>
        <time>2021-08-04T19:11:26Z</time>
      </trkpt>
      <trkpt lat="46.33837" lon="2.57408">
        <ele>217.88</ele>
        <time>2021-08-04T19:11:27Z</time>
      </trkpt>
      <trkpt lat="46.33836" lon="2.57395">
        <ele>217.88</ele>
        <time>2021-08-04T19:11:28Z</time>
      </trkpt>
      <trkpt lat="46.33829" lon="2.5723">
        <ele>217.4</ele>
        <time>2021-08-04T19:11:37Z</time>
      </trkpt>
      <trkpt lat="46.33817" lon="2.56961">
        <ele>226.05</ele>
        <time>2021-08-04T19:11:51Z</time>
      </trkpt>
      <trkpt lat="46.33814" lon="2.569">
        <ele>227.97</ele>
        <time>2021-08-04T19:11:55Z</time>
      </trkpt>
      <trkpt lat="46.33814" lon="2.56887">
        <ele>228.93</ele>
        <time>2021-08-04T19:11:56Z</time>
      </trkpt>
      <trkpt lat="46.33826" lon="2.56866">
        <ele>229.89</ele>
        <time>2021-08-04T19:11:58Z</time>
      </trkpt>
      <trkpt lat="46.33827" lon="2.56859">
        <ele>230.37</ele>
        <time>2021-08-04T19:11:59Z</time>
      </trkpt>
      <trkpt lat="46.33822" lon="2.56846">
        <ele>230.85</ele>
        <time>2021-08-04T19:12:00Z</time>
      </trkpt>
      <trkpt lat="46.33821" lon="2.56844">
        <ele>230.85</ele>
        <time>2021-08-04T19:12:01Z</time>
      </trkpt>
      <trkpt lat="46.33812" lon="2.56824">
        <ele>230.85</ele>
        <time>2021-08-04T19:12:02Z</time>
      </trkpt>
      <trkpt lat="46.3381" lon="2.56809">
        <ele>230.85</ele>
        <time>2021-08-04T19:12:03Z</time>
      </trkpt>
      <trkpt lat="46.3381" lon="2.56794">
        <ele>231.33</ele>
        <time>2021-08-04T19:12:04Z</time>
      </trkpt>
      <trkpt lat="46.3381" lon="2.56779">
        <ele>231.81</ele>
        <time>2021-08-04T19:12:05Z</time>
      </trkpt>
      <trkpt lat="46.338" lon="2.56536">
        <ele>240.95</ele>
        <time>2021-08-04T19:12:19Z</time>
      </trkpt>
      <trkpt lat="46.33791" lon="2.56299">
        <ele>244.79</ele>
        <time>2021-08-04T19:12:32Z</time>
      </trkpt>
      <trkpt lat="46.33789" lon="2.56256">
        <ele>245.27</ele>
        <time>2021-08-04T19:12:37Z</time>
      </trkpt>
      <trkpt lat="46.33795" lon="2.56234">
        <ele>246.23</ele>
        <time>2021-08-04T19:12:42Z</time>
      </trkpt>
      <trkpt lat="46.33795" lon="2.56226">
        <ele>246.23</ele>
        <time>2021-08-04T19:12:43Z</time>
      </trkpt>
      <trkpt lat="46.33795" lon="2.56224">
        <ele>246.72</ele>
        <time>2021-08-04T19:12:44Z</time>
      </trkpt>
      <trkpt lat="46.33784" lon="2.562">
        <ele>246.72</ele>
        <time>2021-08-04T19:12:45Z</time>
      </trkpt>
      <trkpt lat="46.33784" lon="2.562">
        <ele>246.72</ele>
        <time>2021-08-04T19:12:46Z</time>
      </trkpt>
      <trkpt lat="46.33784" lon="2.5619">
        <ele>247.2</ele>
        <time>2021-08-04T19:12:47Z</time>
      </trkpt>
      <trkpt lat="46.33781" lon="2.56045">
        <ele>250.08</ele>
        <time>2021-08-04T19:12:56Z</time>
      </trkpt>
      <trkpt lat="46.33766" lon="2.55718">
        <ele>261.14</ele>
        <time>2021-08-04T19:13:11Z</time>
      </trkpt>
      <trkpt lat="46.3375" lon="2.55299">
        <ele>274.59</ele>
        <time>2021-08-04T19:13:28Z</time>
      </trkpt>
      <trkpt lat="46.33713" lon="2.54933">
        <ele>284.21</ele>
        <time>2021-08-04T19:13:41Z</time>
      </trkpt>
      <trkpt lat="46.33658" lon="2.54721">
        <ele>293.34</ele>
        <time>2021-08-04T19:13:51Z</time>
      </trkpt>
      <trkpt lat="46.33547" lon="2.54442">
        <ele>302.47</ele>
        <time>2021-08-04T19:14:03Z</time>
      </trkpt>
      <trkpt lat="46.33462" lon="2.54226">
        <ele>306.32</ele>
        <time>2021-08-04T19:14:14Z</time>
      </trkpt>
      <trkpt lat="46.33459" lon="2.54209">
        <ele>306.32</ele>
        <time>2021-08-04T19:14:15Z</time>
      </trkpt>
      <trkpt lat="46.3346" lon="2.54176">
        <ele>305.36</ele>
        <time>2021-08-04T19:14:16Z</time>
      </trkpt>
      <trkpt lat="46.3346" lon="2.54176">
        <ele>304.88</ele>
        <time>2021-08-04T19:14:17Z</time>
      </trkpt>
      <trkpt lat="46.33464" lon="2.54159">
        <ele>304.88</ele>
        <time>2021-08-04T19:14:18Z</time>
      </trkpt>
      <trkpt lat="46.33468" lon="2.54144">
        <ele>304.39</ele>
        <time>2021-08-04T19:14:19Z</time>
      </trkpt>
      <trkpt lat="46.33472" lon="2.5413">
        <ele>303.43</ele>
        <time>2021-08-04T19:14:20Z</time>
      </trkpt>
      <trkpt lat="46.33476" lon="2.54117">
        <ele>303.43</ele>
        <time>2021-08-04T19:14:21Z</time>
      </trkpt>
      <trkpt lat="46.3348" lon="2.54105">
        <ele>303.43</ele>
        <time>2021-08-04T19:14:22Z</time>
      </trkpt>
      <trkpt lat="46.33499" lon="2.54094">
        <ele>302.95</ele>
        <time>2021-08-04T19:14:23Z</time>
      </trkpt>
      <trkpt lat="46.33499" lon="2.54094">
        <ele>302.95</ele>
        <time>2021-08-04T19:14:24Z</time>
      </trkpt>
      <trkpt lat="46.335" lon="2.54076">
        <ele>303.43</ele>
        <time>2021-08-04T19:14:25Z</time>
      </trkpt>
      <trkpt lat="46.33499" lon="2.54072">
        <ele>303.43</ele>
        <time>2021-08-04T19:14:26Z</time>
      </trkpt>
      <trkpt lat="46.33487" lon="2.54054">
        <ele>303.43</ele>
        <time>2021-08-04T19:14:27Z</time>
      </trkpt>
      <trkpt lat="46.33488" lon="2.54028">
        <ele>303.43</ele>
        <time>2021-08-04T19:14:28Z</time>
      </trkpt>
      <trkpt lat="46.33488" lon="2.54028">
        <ele>302.47</ele>
        <time>2021-08-04T19:14:29Z</time>
      </trkpt>
      <trkpt lat="46.33488" lon="2.54012">
        <ele>302.95</ele>
        <time>2021-08-04T19:14:30Z</time>
      </trkpt>
      <trkpt lat="46.33492" lon="2.53888">
        <ele>300.55</ele>
        <time>2021-08-04T19:14:36Z</time>
      </trkpt>
      <trkpt lat="46.33488" lon="2.53866">
        <ele>300.07</ele>
        <time>2021-08-04T19:14:37Z</time>
      </trkpt>
      <trkpt lat="46.33484" lon="2.53842">
        <ele>300.07</ele>
        <time>2021-08-04T19:14:38Z</time>
      </trkpt>
      <trkpt lat="46.33478" lon="2.5382">
        <ele>300.07</ele>
        <time>2021-08-04T19:14:39Z</time>
      </trkpt>
      <trkpt lat="46.33471" lon="2.53797">
        <ele>300.07</ele>
        <time>2021-08-04T19:14:40Z</time>
      </trkpt>
      <trkpt lat="46.33461" lon="2.53778">
        <ele>301.03</ele>
        <time>2021-08-04T19:14:41Z</time>
      </trkpt>
      <trkpt lat="46.3345" lon="2.53759">
        <ele>301.99</ele>
        <time>2021-08-04T19:14:42Z</time>
      </trkpt>
      <trkpt lat="46.33439" lon="2.5374">
        <ele>302.95</ele>
        <time>2021-08-04T19:14:43Z</time>
      </trkpt>
      <trkpt lat="46.33314" lon="2.53538">
        <ele>311.12</ele>
        <time>2021-08-04T19:14:55Z</time>
      </trkpt>
      <trkpt lat="46.33286" lon="2.53494">
        <ele>310.64</ele>
        <time>2021-08-04T19:14:59Z</time>
      </trkpt>
      <trkpt lat="46.33282" lon="2.53487">
        <ele>310.64</ele>
        <time>2021-08-04T19:15:00Z</time>
      </trkpt>
      <trkpt lat="46.33278" lon="2.5348">
        <ele>310.64</ele>
        <time>2021-08-04T19:15:01Z</time>
      </trkpt>
      <trkpt lat="46.33282" lon="2.53466">
        <ele>310.16</ele>
        <time>2021-08-04T19:15:02Z</time>
      </trkpt>
      <trkpt lat="46.33286" lon="2.53459">
        <ele>309.68</ele>
        <time>2021-08-04T19:15:03Z</time>
      </trkpt>
      <trkpt lat="46.33289" lon="2.53454">
        <ele>309.68</ele>
        <time>2021-08-04T19:15:04Z</time>
      </trkpt>
      <trkpt lat="46.33289" lon="2.53454">
        <ele>309.68</ele>
        <time>2021-08-04T19:15:05Z</time>
      </trkpt>
      <trkpt lat="46.33304" lon="2.53433">
        <ele>308.24</ele>
        <time>2021-08-04T19:15:06Z</time>
      </trkpt>
      <trkpt lat="46.33315" lon="2.53435">
        <ele>306.8</ele>
        <time>2021-08-04T19:15:07Z</time>
      </trkpt>
      <trkpt lat="46.33327" lon="2.53438">
        <ele>305.84</ele>
        <time>2021-08-04T19:15:08Z</time>
      </trkpt>
      <trkpt lat="46.33337" lon="2.53447">
        <ele>305.36</ele>
        <time>2021-08-04T19:15:09Z</time>
      </trkpt>
      <trkpt lat="46.33356" lon="2.53467">
        <ele>303.91</ele>
        <time>2021-08-04T19:15:10Z</time>
      </trkpt>
      <trkpt lat="46.33382" lon="2.53502">
        <ele>299.59</ele>
        <time>2021-08-04T19:15:14Z</time>
      </trkpt>
      <trkpt lat="46.33388" lon="2.53516">
        <ele>300.07</ele>
        <time>2021-08-04T19:15:15Z</time>
      </trkpt>
      <trkpt lat="46.33394" lon="2.53529">
        <ele>299.59</ele>
        <time>2021-08-04T19:15:16Z</time>
      </trkpt>
      <trkpt lat="46.33395" lon="2.53548">
        <ele>299.11</ele>
        <time>2021-08-04T19:15:17Z</time>
      </trkpt>
      <trkpt lat="46.33396" lon="2.53563">
        <ele>298.63</ele>
        <time>2021-08-04T19:15:18Z</time>
      </trkpt>
      <trkpt lat="46.33392" lon="2.53579">
        <ele>298.63</ele>
        <time>2021-08-04T19:15:19Z</time>
      </trkpt>
      <trkpt lat="46.33387" lon="2.53595">
        <ele>298.63</ele>
        <time>2021-08-04T19:15:20Z</time>
      </trkpt>
      <trkpt lat="46.33367" lon="2.53617">
        <ele>297.18</ele>
        <time>2021-08-04T19:15:21Z</time>
      </trkpt>
      <trkpt lat="46.33355" lon="2.53625">
        <ele>297.67</ele>
        <time>2021-08-04T19:15:22Z</time>
      </trkpt>
      <trkpt lat="46.3334" lon="2.53632">
        <ele>297.67</ele>
        <time>2021-08-04T19:15:23Z</time>
      </trkpt>
      <trkpt lat="46.3334" lon="2.53632">
        <ele>297.18</ele>
        <time>2021-08-04T19:15:24Z</time>
      </trkpt>
      <trkpt lat="46.33179" lon="2.53672">
        <ele>299.11</ele>
        <time>2021-08-04T19:15:33Z</time>
      </trkpt>
      <trkpt lat="46.33005" lon="2.53656">
        <ele>300.55</ele>
        <time>2021-08-04T19:15:41Z</time>
      </trkpt>
      <trkpt lat="46.3284" lon="2.53583">
        <ele>301.99</ele>
        <time>2021-08-04T19:15:48Z</time>
      </trkpt>
      <trkpt lat="46.32685" lon="2.53444">
        <ele>307.28</ele>
        <time>2021-08-04T19:15:55Z</time>
      </trkpt>
      <trkpt lat="46.32564" lon="2.5326">
        <ele>313.53</ele>
        <time>2021-08-04T19:16:02Z</time>
      </trkpt>
      <trkpt lat="46.32442" lon="2.52954">
        <ele>322.18</ele>
        <time>2021-08-04T19:16:11Z</time>
      </trkpt>
      <trkpt lat="46.32249" lon="2.52392">
        <ele>338.04</ele>
        <time>2021-08-04T19:16:30Z</time>
      </trkpt>
      <trkpt lat="46.32125" lon="2.51938">
        <ele>351.02</ele>
        <time>2021-08-04T19:16:44Z</time>
      </trkpt>
      <trkpt lat="46.31881" lon="2.50758">
        <ele>380.34</ele>
        <time>2021-08-04T19:17:19Z</time>
      </trkpt>
      <trkpt lat="46.31769" lon="2.50209">
        <ele>389.47</ele>
        <time>2021-08-04T19:17:35Z</time>
      </trkpt>
      <trkpt lat="46.31714" lon="2.49844">
        <ele>388.51</ele>
        <time>2021-08-04T19:17:45Z</time>
      </trkpt>
      <trkpt lat="46.31668" lon="2.49076">
        <ele>389.47</ele>
        <time>2021-08-04T19:18:05Z</time>
      </trkpt>
      <trkpt lat="46.31606" lon="2.48216">
        <ele>399.08</ele>
        <time>2021-08-04T19:18:28Z</time>
      </trkpt>
      <trkpt lat="46.31512" lon="2.47747">
        <ele>403.41</ele>
        <time>2021-08-04T19:18:41Z</time>
      </trkpt>
      <trkpt lat="46.31387" lon="2.47335">
        <ele>406.29</ele>
        <time>2021-08-04T19:18:53Z</time>
      </trkpt>
      <trkpt lat="46.31234" lon="2.46958">
        <ele>418.31</ele>
        <time>2021-08-04T19:19:05Z</time>
      </trkpt>
      <trkpt lat="46.31059" lon="2.46505">
        <ele>431.29</ele>
        <time>2021-08-04T19:19:20Z</time>
      </trkpt>
      <trkpt lat="46.30918" lon="2.46026">
        <ele>444.27</ele>
        <time>2021-08-04T19:19:36Z</time>
      </trkpt>
      <trkpt lat="46.30781" lon="2.45563">
        <ele>447.63</ele>
        <time>2021-08-04T19:19:51Z</time>
      </trkpt>
      <trkpt lat="46.30569" lon="2.44845">
        <ele>435.13</ele>
        <time>2021-08-04T19:20:12Z</time>
      </trkpt>
      <trkpt lat="46.30434" lon="2.4445">
        <ele>446.67</ele>
        <time>2021-08-04T19:20:24Z</time>
      </trkpt>
      <trkpt lat="46.30271" lon="2.44114">
        <ele>459.65</ele>
        <time>2021-08-04T19:20:36Z</time>
      </trkpt>
      <trkpt lat="46.30067" lon="2.43805">
        <ele>471.66</ele>
        <time>2021-08-04T19:20:49Z</time>
      </trkpt>
      <trkpt lat="46.29789" lon="2.43385">
        <ele>480.32</ele>
        <time>2021-08-04T19:21:07Z</time>
      </trkpt>
      <trkpt lat="46.29647" lon="2.43085">
        <ele>478.39</ele>
        <time>2021-08-04T19:21:17Z</time>
      </trkpt>
      <trkpt lat="46.29465" lon="2.42583">
        <ele>471.18</ele>
        <time>2021-08-04T19:21:32Z</time>
      </trkpt>
      <trkpt lat="46.2913" lon="2.41658">
        <ele>464.45</ele>
        <time>2021-08-04T19:22:00Z</time>
      </trkpt>
      <trkpt lat="46.28851" lon="2.40925">
        <ele>462.53</ele>
        <time>2021-08-04T19:22:22Z</time>
      </trkpt>
      <trkpt lat="46.28658" lon="2.40572">
        <ele>459.65</ele>
        <time>2021-08-04T19:22:34Z</time>
      </trkpt>
      <trkpt lat="46.28397" lon="2.40134">
        <ele>452.44</ele>
        <time>2021-08-04T19:22:49Z</time>
      </trkpt>
      <trkpt lat="46.28043" lon="2.39548">
        <ele>450.52</ele>
        <time>2021-08-04T19:23:09Z</time>
      </trkpt>
      <trkpt lat="46.27699" lon="2.38982">
        <ele>448.11</ele>
        <time>2021-08-04T19:23:29Z</time>
      </trkpt>
      <trkpt lat="46.27373" lon="2.38441">
        <ele>445.71</ele>
        <time>2021-08-04T19:23:47Z</time>
      </trkpt>
      <trkpt lat="46.26932" lon="2.37711">
        <ele>440.42</ele>
        <time>2021-08-04T19:24:12Z</time>
      </trkpt>
      <trkpt lat="46.26552" lon="2.37082">
        <ele>439.94</ele>
        <time>2021-08-04T19:24:33Z</time>
      </trkpt>
      <trkpt lat="46.26244" lon="2.36606">
        <ele>446.67</ele>
        <time>2021-08-04T19:24:50Z</time>
      </trkpt>
      <trkpt lat="46.25971" lon="2.36282">
        <ele>451.96</ele>
        <time>2021-08-04T19:25:03Z</time>
      </trkpt>
      <trkpt lat="46.25533" lon="2.35805">
        <ele>445.71</ele>
        <time>2021-08-04T19:25:23Z</time>
      </trkpt>
      <trkpt lat="46.25138" lon="2.35368">
        <ele>431.29</ele>
        <time>2021-08-04T19:25:41Z</time>
      </trkpt>
      <trkpt lat="46.24862" lon="2.35046">
        <ele>422.16</ele>
        <time>2021-08-04T19:25:53Z</time>
      </trkpt>
      <trkpt lat="46.2471" lon="2.34775">
        <ele>413.98</ele>
        <time>2021-08-04T19:26:02Z</time>
      </trkpt>
      <trkpt lat="46.2452" lon="2.34359">
        <ele>407.74</ele>
        <time>2021-08-04T19:26:16Z</time>
      </trkpt>
      <trkpt lat="46.24176" lon="2.33591">
        <ele>395.72</ele>
        <time>2021-08-04T19:26:40Z</time>
      </trkpt>
      <trkpt lat="46.23985" lon="2.33096">
        <ele>390.91</ele>
        <time>2021-08-04T19:26:55Z</time>
      </trkpt>
      <trkpt lat="46.23832" lon="2.32579">
        <ele>402.93</ele>
        <time>2021-08-04T19:27:10Z</time>
      </trkpt>
      <trkpt lat="46.23693" lon="2.32197">
        <ele>415.91</ele>
        <time>2021-08-04T19:27:22Z</time>
      </trkpt>
      <trkpt lat="46.23508" lon="2.31809">
        <ele>421.68</ele>
        <time>2021-08-04T19:27:35Z</time>
      </trkpt>
      <trkpt lat="46.23263" lon="2.31409">
        <ele>412.54</ele>
        <time>2021-08-04T19:27:49Z</time>
      </trkpt>
      <trkpt lat="46.22755" lon="2.30593">
        <ele>395.72</ele>
        <time>2021-08-04T19:28:18Z</time>
      </trkpt>
      <trkpt lat="46.22459" lon="2.30163">
        <ele>388.03</ele>
        <time>2021-08-04T19:28:33Z</time>
      </trkpt>
      <trkpt lat="46.22207" lon="2.29863">
        <ele>378.9</ele>
        <time>2021-08-04T19:28:46Z</time>
      </trkpt>
      <trkpt lat="46.22056" lon="2.29596">
        <ele>376.01</ele>
        <time>2021-08-04T19:28:55Z</time>
      </trkpt>
      <trkpt lat="46.21882" lon="2.29185">
        <ele>368.32</ele>
        <time>2021-08-04T19:29:08Z</time>
      </trkpt>
      <trkpt lat="46.21794" lon="2.28979">
        <ele>366.88</ele>
        <time>2021-08-04T19:29:16Z</time>
      </trkpt>
      <trkpt lat="46.21689" lon="2.28734">
        <ele>366.4</ele>
        <time>2021-08-04T19:29:25Z</time>
      </trkpt>
      <trkpt lat="46.21538" lon="2.28406">
        <ele>366.88</ele>
        <time>2021-08-04T19:29:38Z</time>
      </trkpt>
      <trkpt lat="46.21339" lon="2.2807">
        <ele>366.4</ele>
        <time>2021-08-04T19:29:50Z</time>
      </trkpt>
      <trkpt lat="46.20852" lon="2.27281">
        <ele>368.32</ele>
        <time>2021-08-04T19:30:17Z</time>
      </trkpt>
      <trkpt lat="46.20523" lon="2.26706">
        <ele>365.44</ele>
        <time>2021-08-04T19:30:35Z</time>
      </trkpt>
      <trkpt lat="46.20192" lon="2.26038">
        <ele>369.76</ele>
        <time>2021-08-04T19:30:57Z</time>
      </trkpt>
      <trkpt lat="46.199" lon="2.25418">
        <ele>372.65</ele>
        <time>2021-08-04T19:31:16Z</time>
      </trkpt>
      <trkpt lat="46.19852" lon="2.2519">
        <ele>372.65</ele>
        <time>2021-08-04T19:31:22Z</time>
      </trkpt>
      <trkpt lat="46.19854" lon="2.24915">
        <ele>372.65</ele>
        <time>2021-08-04T19:31:29Z</time>
      </trkpt>
      <trkpt lat="46.19902" lon="2.24595">
        <ele>372.17</ele>
        <time>2021-08-04T19:31:37Z</time>
      </trkpt>
      <trkpt lat="46.19927" lon="2.24271">
        <ele>369.76</ele>
        <time>2021-08-04T19:31:45Z</time>
      </trkpt>
      <trkpt lat="46.19904" lon="2.23945">
        <ele>367.84</ele>
        <time>2021-08-04T19:31:53Z</time>
      </trkpt>
      <trkpt lat="46.19826" lon="2.23553">
        <ele>370.24</ele>
        <time>2021-08-04T19:32:03Z</time>
      </trkpt>
      <trkpt lat="46.19636" lon="2.2273">
        <ele>373.61</ele>
        <time>2021-08-04T19:32:25Z</time>
      </trkpt>
      <trkpt lat="46.19543" lon="2.22241">
        <ele>374.57</ele>
        <time>2021-08-04T19:32:38Z</time>
      </trkpt>
      <trkpt lat="46.1954" lon="2.21931">
        <ele>376.01</ele>
        <time>2021-08-04T19:32:46Z</time>
      </trkpt>
      <trkpt lat="46.19596" lon="2.21595">
        <ele>376.97</ele>
        <time>2021-08-04T19:32:55Z</time>
      </trkpt>
      <trkpt lat="46.19783" lon="2.20675">
        <ele>379.86</ele>
        <time>2021-08-04T19:33:20Z</time>
      </trkpt>
      <trkpt lat="46.19809" lon="2.20333">
        <ele>381.78</ele>
        <time>2021-08-04T19:33:29Z</time>
      </trkpt>
      <trkpt lat="46.19789" lon="2.19844">
        <ele>385.15</ele>
        <time>2021-08-04T19:33:42Z</time>
      </trkpt>
      <trkpt lat="46.19735" lon="2.18955">
        <ele>390.91</ele>
        <time>2021-08-04T19:34:06Z</time>
      </trkpt>
      <trkpt lat="46.19675" lon="2.1864">
        <ele>399.08</ele>
        <time>2021-08-04T19:34:15Z</time>
      </trkpt>
      <trkpt lat="46.19549" lon="2.18159">
        <ele>416.39</ele>
        <time>2021-08-04T19:34:30Z</time>
      </trkpt>
      <trkpt lat="46.19412" lon="2.17605">
        <ele>422.64</ele>
        <time>2021-08-04T19:34:46Z</time>
      </trkpt>
      <trkpt lat="46.19382" lon="2.17275">
        <ele>418.31</ele>
        <time>2021-08-04T19:34:56Z</time>
      </trkpt>
      <trkpt lat="46.19401" lon="2.16921">
        <ele>408.22</ele>
        <time>2021-08-04T19:35:05Z</time>
      </trkpt>
      <trkpt lat="46.19486" lon="2.16297">
        <ele>394.28</ele>
        <time>2021-08-04T19:35:20Z</time>
      </trkpt>
      <trkpt lat="46.19617" lon="2.15383">
        <ele>385.63</ele>
        <time>2021-08-04T19:35:44Z</time>
      </trkpt>
      <trkpt lat="46.19707" lon="2.14738">
        <ele>381.78</ele>
        <time>2021-08-04T19:36:02Z</time>
      </trkpt>
      <trkpt lat="46.19782" lon="2.14312">
        <ele>388.03</ele>
        <time>2021-08-04T19:36:14Z</time>
      </trkpt>
      <trkpt lat="46.19894" lon="2.13753">
        <ele>388.51</ele>
        <time>2021-08-04T19:36:30Z</time>
      </trkpt>
      <trkpt lat="46.19938" lon="2.13264">
        <ele>399.08</ele>
        <time>2021-08-04T19:36:44Z</time>
      </trkpt>
      <trkpt lat="46.19987" lon="2.12692">
        <ele>398.6</ele>
        <time>2021-08-04T19:37:00Z</time>
      </trkpt>
      <trkpt lat="46.20043" lon="2.1204">
        <ele>387.07</ele>
        <time>2021-08-04T19:37:17Z</time>
      </trkpt>
      <trkpt lat="46.20088" lon="2.11523">
        <ele>394.28</ele>
        <time>2021-08-04T19:37:31Z</time>
      </trkpt>
      <trkpt lat="46.2015" lon="2.10799">
        <ele>408.7</ele>
        <time>2021-08-04T19:37:52Z</time>
      </trkpt>
      <trkpt lat="46.202" lon="2.10292">
        <ele>424.08</ele>
        <time>2021-08-04T19:38:07Z</time>
      </trkpt>
      <trkpt lat="46.20275" lon="2.10022">
        <ele>432.25</ele>
        <time>2021-08-04T19:38:16Z</time>
      </trkpt>
      <trkpt lat="46.20388" lon="2.09773">
        <ele>434.65</ele>
        <time>2021-08-04T19:38:25Z</time>
      </trkpt>
      <trkpt lat="46.20477" lon="2.09524">
        <ele>435.13</ele>
        <time>2021-08-04T19:38:33Z</time>
      </trkpt>
      <trkpt lat="46.20528" lon="2.09252">
        <ele>438.02</ele>
        <time>2021-08-04T19:38:41Z</time>
      </trkpt>
      <trkpt lat="46.2053" lon="2.0896">
        <ele>440.9</ele>
        <time>2021-08-04T19:38:49Z</time>
      </trkpt>
      <trkpt lat="46.20481" lon="2.08321">
        <ele>458.69</ele>
        <time>2021-08-04T19:39:06Z</time>
      </trkpt>
      <trkpt lat="46.20432" lon="2.0778">
        <ele>464.45</ele>
        <time>2021-08-04T19:39:22Z</time>
      </trkpt>
      <trkpt lat="46.2036" lon="2.07358">
        <ele>470.7</ele>
        <time>2021-08-04T19:39:34Z</time>
      </trkpt>
      <trkpt lat="46.20341" lon="2.06948">
        <ele>475.03</ele>
        <time>2021-08-04T19:39:45Z</time>
      </trkpt>
      <trkpt lat="46.20369" lon="2.06496">
        <ele>480.32</ele>
        <time>2021-08-04T19:39:57Z</time>
      </trkpt>
      <trkpt lat="46.20455" lon="2.05419">
        <ele>494.26</ele>
        <time>2021-08-04T19:40:25Z</time>
      </trkpt>
      <trkpt lat="46.20484" lon="2.0476">
        <ele>504.83</ele>
        <time>2021-08-04T19:40:43Z</time>
      </trkpt>
      <trkpt lat="46.20481" lon="2.04327">
        <ele>511.08</ele>
        <time>2021-08-04T19:40:55Z</time>
      </trkpt>
      <trkpt lat="46.2052" lon="2.04031">
        <ele>512.04</ele>
        <time>2021-08-04T19:41:04Z</time>
      </trkpt>
      <trkpt lat="46.2059" lon="2.03516">
        <ele>517.81</ele>
        <time>2021-08-04T19:41:18Z</time>
      </trkpt>
      <trkpt lat="46.20646" lon="2.02783">
        <ele>516.85</ele>
        <time>2021-08-04T19:41:37Z</time>
      </trkpt>
      <trkpt lat="46.20694" lon="2.0213">
        <ele>503.39</ele>
        <time>2021-08-04T19:41:54Z</time>
      </trkpt>
      <trkpt lat="46.20727" lon="2.01393">
        <ele>490.89</ele>
        <time>2021-08-04T19:42:12Z</time>
      </trkpt>
      <trkpt lat="46.20687" lon="2.01081">
        <ele>482.72</ele>
        <time>2021-08-04T19:42:21Z</time>
      </trkpt>
      <trkpt lat="46.20592" lon="2.0073">
        <ele>479.84</ele>
        <time>2021-08-04T19:42:31Z</time>
      </trkpt>
      <trkpt lat="46.20486" lon="2.00323">
        <ele>476.95</ele>
        <time>2021-08-04T19:42:43Z</time>
      </trkpt>
      <trkpt lat="46.20433" lon="1.99901">
        <ele>474.07</ele>
        <time>2021-08-04T19:42:55Z</time>
      </trkpt>
      <trkpt lat="46.2043" lon="1.99488">
        <ele>466.86</ele>
        <time>2021-08-04T19:43:06Z</time>
      </trkpt>
      <trkpt lat="46.20459" lon="1.99031">
        <ele>459.65</ele>
        <time>2021-08-04T19:43:18Z</time>
      </trkpt>
      <trkpt lat="46.20441" lon="1.98705">
        <ele>456.76</ele>
        <time>2021-08-04T19:43:27Z</time>
      </trkpt>
      <trkpt lat="46.20387" lon="1.98412">
        <ele>455.32</ele>
        <time>2021-08-04T19:43:36Z</time>
      </trkpt>
      <trkpt lat="46.20271" lon="1.98049">
        <ele>456.28</ele>
        <time>2021-08-04T19:43:48Z</time>
      </trkpt>
      <trkpt lat="46.20193" lon="1.97744">
        <ele>451.96</ele>
        <time>2021-08-04T19:43:58Z</time>
      </trkpt>
      <trkpt lat="46.20078" lon="1.97157">
        <ele>441.38</ele>
        <time>2021-08-04T19:44:17Z</time>
      </trkpt>
      <trkpt lat="46.19981" lon="1.96665">
        <ele>430.81</ele>
        <time>2021-08-04T19:44:33Z</time>
      </trkpt>
      <trkpt lat="46.19893" lon="1.96304">
        <ele>418.79</ele>
        <time>2021-08-04T19:44:46Z</time>
      </trkpt>
      <trkpt lat="46.19752" lon="1.95956">
        <ele>405.33</ele>
        <time>2021-08-04T19:44:58Z</time>
      </trkpt>
      <trkpt lat="46.19558" lon="1.95585">
        <ele>388.51</ele>
        <time>2021-08-04T19:45:12Z</time>
      </trkpt>
      <trkpt lat="46.19391" lon="1.95422">
        <ele>379.86</ele>
        <time>2021-08-04T19:45:20Z</time>
      </trkpt>
      <trkpt lat="46.192" lon="1.95321">
        <ele>367.36</ele>
        <time>2021-08-04T19:45:30Z</time>
      </trkpt>
      <trkpt lat="46.1906" lon="1.95209">
        <ele>356.79</ele>
        <time>2021-08-04T19:45:37Z</time>
      </trkpt>
      <trkpt lat="46.18977" lon="1.95056">
        <ele>350.54</ele>
        <time>2021-08-04T19:45:43Z</time>
      </trkpt>
      <trkpt lat="46.18926" lon="1.94841">
        <ele>340.92</ele>
        <time>2021-08-04T19:45:50Z</time>
      </trkpt>
      <trkpt lat="46.18903" lon="1.94486">
        <ele>326.99</ele>
        <time>2021-08-04T19:46:01Z</time>
      </trkpt>
      <trkpt lat="46.18883" lon="1.94056">
        <ele>327.95</ele>
        <time>2021-08-04T19:46:15Z</time>
      </trkpt>
      <trkpt lat="46.18846" lon="1.93446">
        <ele>343.81</ele>
        <time>2021-08-04T19:46:36Z</time>
      </trkpt>
      <trkpt lat="46.18793" lon="1.93227">
        <ele>348.62</ele>
        <time>2021-08-04T19:46:45Z</time>
      </trkpt>
      <trkpt lat="46.18694" lon="1.92964">
        <ele>349.58</ele>
        <time>2021-08-04T19:46:56Z</time>
      </trkpt>
      <trkpt lat="46.18531" lon="1.92564">
        <ele>350.06</ele>
        <time>2021-08-04T19:47:13Z</time>
      </trkpt>
      <trkpt lat="46.1832" lon="1.92034">
        <ele>359.67</ele>
        <time>2021-08-04T19:47:31Z</time>
      </trkpt>
      <trkpt lat="46.18145" lon="1.91625">
        <ele>363.04</ele>
        <time>2021-08-04T19:47:46Z</time>
      </trkpt>
      <trkpt lat="46.1802" lon="1.91241">
        <ele>369.76</ele>
        <time>2021-08-04T19:47:58Z</time>
      </trkpt>
      <trkpt lat="46.17914" lon="1.90759">
        <ele>380.82</ele>
        <time>2021-08-04T19:48:13Z</time>
      </trkpt>
      <trkpt lat="46.17783" lon="1.9008">
        <ele>386.59</ele>
        <time>2021-08-04T19:48:34Z</time>
      </trkpt>
      <trkpt lat="46.17785" lon="1.89833">
        <ele>386.11</ele>
        <time>2021-08-04T19:48:41Z</time>
      </trkpt>
      <trkpt lat="46.17851" lon="1.89522">
        <ele>391.39</ele>
        <time>2021-08-04T19:48:50Z</time>
      </trkpt>
      <trkpt lat="46.1803" lon="1.88789">
        <ele>392.36</ele>
        <time>2021-08-04T19:49:11Z</time>
      </trkpt>
      <trkpt lat="46.18176" lon="1.88182">
        <ele>383.22</ele>
        <time>2021-08-04T19:49:27Z</time>
      </trkpt>
      <trkpt lat="46.18286" lon="1.87616">
        <ele>382.26</ele>
        <time>2021-08-04T19:49:42Z</time>
      </trkpt>
      <trkpt lat="46.18394" lon="1.86957">
        <ele>384.66</ele>
        <time>2021-08-04T19:50:00Z</time>
      </trkpt>
      <trkpt lat="46.18472" lon="1.86369">
        <ele>375.05</ele>
        <time>2021-08-04T19:50:15Z</time>
      </trkpt>
      <trkpt lat="46.18498" lon="1.85919">
        <ele>363.52</ele>
        <time>2021-08-04T19:50:26Z</time>
      </trkpt>
      <trkpt lat="46.18487" lon="1.85447">
        <ele>366.4</ele>
        <time>2021-08-04T19:50:38Z</time>
      </trkpt>
      <trkpt lat="46.18458" lon="1.84775">
        <ele>381.78</ele>
        <time>2021-08-04T19:50:56Z</time>
      </trkpt>
      <trkpt lat="46.18483" lon="1.84318">
        <ele>392.36</ele>
        <time>2021-08-04T19:51:09Z</time>
      </trkpt>
      <trkpt lat="46.18546" lon="1.83597">
        <ele>403.41</ele>
        <time>2021-08-04T19:51:30Z</time>
      </trkpt>
      <trkpt lat="46.18605" lon="1.82867">
        <ele>406.77</ele>
        <time>2021-08-04T19:51:50Z</time>
      </trkpt>
      <trkpt lat="46.18625" lon="1.82459">
        <ele>410.62</ele>
        <time>2021-08-04T19:52:01Z</time>
      </trkpt>
      <trkpt lat="46.18691" lon="1.82193">
        <ele>422.16</ele>
        <time>2021-08-04T19:52:09Z</time>
      </trkpt>
      <trkpt lat="46.18779" lon="1.81816">
        <ele>437.06</ele>
        <time>2021-08-04T19:52:21Z</time>
      </trkpt>
      <trkpt lat="46.18846" lon="1.81451">
        <ele>454.36</ele>
        <time>2021-08-04T19:52:33Z</time>
      </trkpt>
      <trkpt lat="46.18946" lon="1.81223">
        <ele>467.34</ele>
        <time>2021-08-04T19:52:42Z</time>
      </trkpt>
      <trkpt lat="46.19094" lon="1.80872">
        <ele>481.28</ele>
        <time>2021-08-04T19:52:56Z</time>
      </trkpt>
      <trkpt lat="46.19199" lon="1.80482">
        <ele>489.45</ele>
        <time>2021-08-04T19:53:10Z</time>
      </trkpt>
      <trkpt lat="46.1931" lon="1.80061">
        <ele>485.12</ele>
        <time>2021-08-04T19:53:23Z</time>
      </trkpt>
      <trkpt lat="46.19444" lon="1.79553">
        <ele>477.43</ele>
        <time>2021-08-04T19:53:37Z</time>
      </trkpt>
      <trkpt lat="46.19614" lon="1.78897">
        <ele>474.07</ele>
        <time>2021-08-04T19:53:56Z</time>
      </trkpt>
      <trkpt lat="46.19703" lon="1.78476">
        <ele>470.22</ele>
        <time>2021-08-04T19:54:08Z</time>
      </trkpt>
      <trkpt lat="46.19783" lon="1.77998">
        <ele>485.12</ele>
        <time>2021-08-04T19:54:22Z</time>
      </trkpt>
      <trkpt lat="46.19778" lon="1.77724">
        <ele>491.85</ele>
        <time>2021-08-04T19:54:30Z</time>
      </trkpt>
      <trkpt lat="46.19723" lon="1.77481">
        <ele>494.26</ele>
        <time>2021-08-04T19:54:37Z</time>
      </trkpt>
      <trkpt lat="46.19671" lon="1.77214">
        <ele>489.45</ele>
        <time>2021-08-04T19:54:44Z</time>
      </trkpt>
      <trkpt lat="46.19673" lon="1.76925">
        <ele>478.39</ele>
        <time>2021-08-04T19:54:51Z</time>
      </trkpt>
      <trkpt lat="46.19739" lon="1.76511">
        <ele>462.53</ele>
        <time>2021-08-04T19:55:01Z</time>
      </trkpt>
      <trkpt lat="46.19843" lon="1.75875">
        <ele>443.31</ele>
        <time>2021-08-04T19:55:17Z</time>
      </trkpt>
      <trkpt lat="46.19943" lon="1.75471">
        <ele>445.71</ele>
        <time>2021-08-04T19:55:28Z</time>
      </trkpt>
      <trkpt lat="46.20045" lon="1.75278">
        <ele>444.27</ele>
        <time>2021-08-04T19:55:34Z</time>
      </trkpt>
      <trkpt lat="46.20202" lon="1.75108">
        <ele>442.34</ele>
        <time>2021-08-04T19:55:40Z</time>
      </trkpt>
      <trkpt lat="46.20362" lon="1.75021">
        <ele>439.46</ele>
        <time>2021-08-04T19:55:47Z</time>
      </trkpt>
      <trkpt lat="46.20613" lon="1.74971">
        <ele>440.42</ele>
        <time>2021-08-04T19:55:56Z</time>
      </trkpt>
      <trkpt lat="46.20808" lon="1.74907">
        <ele>444.75</ele>
        <time>2021-08-04T19:56:03Z</time>
      </trkpt>
      <trkpt lat="46.2103" lon="1.74738">
        <ele>448.59</ele>
        <time>2021-08-04T19:56:11Z</time>
      </trkpt>
      <trkpt lat="46.21154" lon="1.7458">
        <ele>452.92</ele>
        <time>2021-08-04T19:56:18Z</time>
      </trkpt>
      <trkpt lat="46.21258" lon="1.74347">
        <ele>456.76</ele>
        <time>2021-08-04T19:56:25Z</time>
      </trkpt>
      <trkpt lat="46.21387" lon="1.73879">
        <ele>458.69</ele>
        <time>2021-08-04T19:56:38Z</time>
      </trkpt>
      <trkpt lat="46.21529" lon="1.73296">
        <ele>450.03</ele>
        <time>2021-08-04T19:56:54Z</time>
      </trkpt>
      <trkpt lat="46.21561" lon="1.72939">
        <ele>438.98</ele>
        <time>2021-08-04T19:57:03Z</time>
      </trkpt>
      <trkpt lat="46.21606" lon="1.72361">
        <ele>439.94</ele>
        <time>2021-08-04T19:57:18Z</time>
      </trkpt>
      <trkpt lat="46.21689" lon="1.71777">
        <ele>450.03</ele>
        <time>2021-08-04T19:57:35Z</time>
      </trkpt>
      <trkpt lat="46.2169" lon="1.71524">
        <ele>446.19</ele>
        <time>2021-08-04T19:57:42Z</time>
      </trkpt>
      <trkpt lat="46.21685" lon="1.71318">
        <ele>438.5</ele>
        <time>2021-08-04T19:57:49Z</time>
      </trkpt>
      <trkpt lat="46.21733" lon="1.71063">
        <ele>431.29</ele>
        <time>2021-08-04T19:57:56Z</time>
      </trkpt>
      <trkpt lat="46.21888" lon="1.70618">
        <ele>430.33</ele>
        <time>2021-08-04T19:58:09Z</time>
      </trkpt>
      <trkpt lat="46.22097" lon="1.70032">
        <ele>438.5</ele>
        <time>2021-08-04T19:58:26Z</time>
      </trkpt>
      <trkpt lat="46.22134" lon="1.69858">
        <ele>444.27</ele>
        <time>2021-08-04T19:58:32Z</time>
      </trkpt>
      <trkpt lat="46.22131" lon="1.69647">
        <ele>447.15</ele>
        <time>2021-08-04T19:58:38Z</time>
      </trkpt>
      <trkpt lat="46.22101" lon="1.6917">
        <ele>449.55</ele>
        <time>2021-08-04T19:58:51Z</time>
      </trkpt>
      <trkpt lat="46.22137" lon="1.68805">
        <ele>442.34</ele>
        <time>2021-08-04T19:58:59Z</time>
      </trkpt>
      <trkpt lat="46.22176" lon="1.68445">
        <ele>430.81</ele>
        <time>2021-08-04T19:59:09Z</time>
      </trkpt>
      <trkpt lat="46.22234" lon="1.67763">
        <ele>421.68</ele>
        <time>2021-08-04T19:59:26Z</time>
      </trkpt>
      <trkpt lat="46.22262" lon="1.67261">
        <ele>426.48</ele>
        <time>2021-08-04T19:59:39Z</time>
      </trkpt>
      <trkpt lat="46.22228" lon="1.66919">
        <ele>428.4</ele>
        <time>2021-08-04T19:59:48Z</time>
      </trkpt>
      <trkpt lat="46.22146" lon="1.66434">
        <ele>426.48</ele>
        <time>2021-08-04T20:00:00Z</time>
      </trkpt>
      <trkpt lat="46.22039" lon="1.66005">
        <ele>417.35</ele>
        <time>2021-08-04T20:00:13Z</time>
      </trkpt>
      <trkpt lat="46.21939" lon="1.65822">
        <ele>410.14</ele>
        <time>2021-08-04T20:00:19Z</time>
      </trkpt>
      <trkpt lat="46.2174" lon="1.65508">
        <ele>397.16</ele>
        <time>2021-08-04T20:00:30Z</time>
      </trkpt>
      <trkpt lat="46.21676" lon="1.65288">
        <ele>391.87</ele>
        <time>2021-08-04T20:00:36Z</time>
      </trkpt>
      <trkpt lat="46.2154" lon="1.6473">
        <ele>396.2</ele>
        <time>2021-08-04T20:00:51Z</time>
      </trkpt>
      <trkpt lat="46.2142" lon="1.64194">
        <ele>394.28</ele>
        <time>2021-08-04T20:01:07Z</time>
      </trkpt>
      <trkpt lat="46.21423" lon="1.63927">
        <ele>393.8</ele>
        <time>2021-08-04T20:01:14Z</time>
      </trkpt>
      <trkpt lat="46.2149" lon="1.63631">
        <ele>392.84</ele>
        <time>2021-08-04T20:01:21Z</time>
      </trkpt>
      <trkpt lat="46.2165" lon="1.63143">
        <ele>395.24</ele>
        <time>2021-08-04T20:01:36Z</time>
      </trkpt>
      <trkpt lat="46.21798" lon="1.62705">
        <ele>410.14</ele>
        <time>2021-08-04T20:01:50Z</time>
      </trkpt>
      <trkpt lat="46.22003" lon="1.62053">
        <ele>426.96</ele>
        <time>2021-08-04T20:02:11Z</time>
      </trkpt>
      <trkpt lat="46.22138" lon="1.61558">
        <ele>426.48</ele>
        <time>2021-08-04T20:02:25Z</time>
      </trkpt>
      <trkpt lat="46.22237" lon="1.61112">
        <ele>417.83</ele>
        <time>2021-08-04T20:02:37Z</time>
      </trkpt>
      <trkpt lat="46.22254" lon="1.60833">
        <ele>412.54</ele>
        <time>2021-08-04T20:02:44Z</time>
      </trkpt>
      <trkpt lat="46.2222" lon="1.60472">
        <ele>403.41</ele>
        <time>2021-08-04T20:02:53Z</time>
      </trkpt>
      <trkpt lat="46.22131" lon="1.59755">
        <ele>399.57</ele>
        <time>2021-08-04T20:03:12Z</time>
      </trkpt>
      <trkpt lat="46.22096" lon="1.59322">
        <ele>406.77</ele>
        <time>2021-08-04T20:03:24Z</time>
      </trkpt>
      <trkpt lat="46.22122" lon="1.58909">
        <ele>410.62</ele>
        <time>2021-08-04T20:03:35Z</time>
      </trkpt>
      <trkpt lat="46.2219" lon="1.58478">
        <ele>411.1</ele>
        <time>2021-08-04T20:03:45Z</time>
      </trkpt>
      <trkpt lat="46.22274" lon="1.58054">
        <ele>405.33</ele>
        <time>2021-08-04T20:03:56Z</time>
      </trkpt>
      <trkpt lat="46.22303" lon="1.57701">
        <ele>404.85</ele>
        <time>2021-08-04T20:04:06Z</time>
      </trkpt>
      <trkpt lat="46.22306" lon="1.57238">
        <ele>408.7</ele>
        <time>2021-08-04T20:04:18Z</time>
      </trkpt>
      <trkpt lat="46.22345" lon="1.56816">
        <ele>413.02</ele>
        <time>2021-08-04T20:04:29Z</time>
      </trkpt>
      <trkpt lat="46.22474" lon="1.56147">
        <ele>417.83</ele>
        <time>2021-08-04T20:04:47Z</time>
      </trkpt>
      <trkpt lat="46.22612" lon="1.55523">
        <ele>421.68</ele>
        <time>2021-08-04T20:05:04Z</time>
      </trkpt>
      <trkpt lat="46.22722" lon="1.55308">
        <ele>425.04</ele>
        <time>2021-08-04T20:05:11Z</time>
      </trkpt>
      <trkpt lat="46.22869" lon="1.55144">
        <ele>422.16</ele>
        <time>2021-08-04T20:05:18Z</time>
      </trkpt>
      <trkpt lat="46.23115" lon="1.54948">
        <ele>421.19</ele>
        <time>2021-08-04T20:05:28Z</time>
      </trkpt>
      <trkpt lat="46.23291" lon="1.54696">
        <ele>425.52</ele>
        <time>2021-08-04T20:05:36Z</time>
      </trkpt>
      <trkpt lat="46.23401" lon="1.54426">
        <ele>426.96</ele>
        <time>2021-08-04T20:05:44Z</time>
      </trkpt>
      <trkpt lat="46.23553" lon="1.54044">
        <ele>423.12</ele>
        <time>2021-08-04T20:05:56Z</time>
      </trkpt>
      <trkpt lat="46.23711" lon="1.53703">
        <ele>414.95</ele>
        <time>2021-08-04T20:06:06Z</time>
      </trkpt>
      <trkpt lat="46.23782" lon="1.53403">
        <ele>413.02</ele>
        <time>2021-08-04T20:06:14Z</time>
      </trkpt>
      <trkpt lat="46.23864" lon="1.52933">
        <ele>407.74</ele>
        <time>2021-08-04T20:06:27Z</time>
      </trkpt>
      <trkpt lat="46.23867" lon="1.52622">
        <ele>401.97</ele>
        <time>2021-08-04T20:06:35Z</time>
      </trkpt>
      <trkpt lat="46.2382" lon="1.5232">
        <ele>394.76</ele>
        <time>2021-08-04T20:06:43Z</time>
      </trkpt>
      <trkpt lat="46.23708" lon="1.51899">
        <ele>388.03</ele>
        <time>2021-08-04T20:06:55Z</time>
      </trkpt>
      <trkpt lat="46.23567" lon="1.51576">
        <ele>386.11</ele>
        <time>2021-08-04T20:07:05Z</time>
      </trkpt>
      <trkpt lat="46.23401" lon="1.5133">
        <ele>382.74</ele>
        <time>2021-08-04T20:07:14Z</time>
      </trkpt>
      <trkpt lat="46.2319" lon="1.51047">
        <ele>377.45</ele>
        <time>2021-08-04T20:07:25Z</time>
      </trkpt>
      <trkpt lat="46.22891" lon="1.50602">
        <ele>368.8</ele>
        <time>2021-08-04T20:07:40Z</time>
      </trkpt>
      <trkpt lat="46.22766" lon="1.50356">
        <ele>365.44</ele>
        <time>2021-08-04T20:07:49Z</time>
      </trkpt>
      <trkpt lat="46.22449" lon="1.49618">
        <ele>375.05</ele>
        <time>2021-08-04T20:08:12Z</time>
      </trkpt>
      <trkpt lat="46.2235" lon="1.49325">
        <ele>379.38</ele>
        <time>2021-08-04T20:08:21Z</time>
      </trkpt>
      <trkpt lat="46.22301" lon="1.49036">
        <ele>382.26</ele>
        <time>2021-08-04T20:08:29Z</time>
      </trkpt>
      <trkpt lat="46.22302" lon="1.48742">
        <ele>381.3</ele>
        <time>2021-08-04T20:08:37Z</time>
      </trkpt>
      <trkpt lat="46.22353" lon="1.4845">
        <ele>377.94</ele>
        <time>2021-08-04T20:08:45Z</time>
      </trkpt>
      <trkpt lat="46.22476" lon="1.48074">
        <ele>374.09</ele>
        <time>2021-08-04T20:08:55Z</time>
      </trkpt>
      <trkpt lat="46.22631" lon="1.47551">
        <ele>375.53</ele>
        <time>2021-08-04T20:09:11Z</time>
      </trkpt>
      <trkpt lat="46.2265" lon="1.47299">
        <ele>378.9</ele>
        <time>2021-08-04T20:09:18Z</time>
      </trkpt>
      <trkpt lat="46.2263" lon="1.46824">
        <ele>378.42</ele>
        <time>2021-08-04T20:09:31Z</time>
      </trkpt>
      <trkpt lat="46.22553" lon="1.4635">
        <ele>375.53</ele>
        <time>2021-08-04T20:09:44Z</time>
      </trkpt>
      <trkpt lat="46.22457" lon="1.46003">
        <ele>371.69</ele>
        <time>2021-08-04T20:09:54Z</time>
      </trkpt>
      <trkpt lat="46.22323" lon="1.45769">
        <ele>367.36</ele>
        <time>2021-08-04T20:10:01Z</time>
      </trkpt>
      <trkpt lat="46.22149" lon="1.45585">
        <ele>363.52</ele>
        <time>2021-08-04T20:10:10Z</time>
      </trkpt>
      <trkpt lat="46.21923" lon="1.45315">
        <ele>363.52</ele>
        <time>2021-08-04T20:10:21Z</time>
      </trkpt>
      <trkpt lat="46.21785" lon="1.45034">
        <ele>360.15</ele>
        <time>2021-08-04T20:10:30Z</time>
      </trkpt>
      <trkpt lat="46.21701" lon="1.44722">
        <ele>360.63</ele>
        <time>2021-08-04T20:10:39Z</time>
      </trkpt>
      <trkpt lat="46.21577" lon="1.44126">
        <ele>361.59</ele>
        <time>2021-08-04T20:10:56Z</time>
      </trkpt>
      <trkpt lat="46.21573" lon="1.43868">
        <ele>360.63</ele>
        <time>2021-08-04T20:11:03Z</time>
      </trkpt>
      <trkpt lat="46.21623" lon="1.43527">
        <ele>355.34</ele>
        <time>2021-08-04T20:11:12Z</time>
      </trkpt>
      <trkpt lat="46.21757" lon="1.42667">
        <ele>356.79</ele>
        <time>2021-08-04T20:11:34Z</time>
      </trkpt>
      <trkpt lat="46.21754" lon="1.42332">
        <ele>361.11</ele>
        <time>2021-08-04T20:11:44Z</time>
      </trkpt>
      <trkpt lat="46.21721" lon="1.42065">
        <ele>362.55</ele>
        <time>2021-08-04T20:11:52Z</time>
      </trkpt>
      <trkpt lat="46.21634" lon="1.41714">
        <ele>365.44</ele>
        <time>2021-08-04T20:12:03Z</time>
      </trkpt>
      <trkpt lat="46.21516" lon="1.4129">
        <ele>364</ele>
        <time>2021-08-04T20:12:16Z</time>
      </trkpt>
      <trkpt lat="46.21384" lon="1.40977">
        <ele>357.27</ele>
        <time>2021-08-04T20:12:26Z</time>
      </trkpt>
      <trkpt lat="46.21204" lon="1.4059">
        <ele>357.75</ele>
        <time>2021-08-04T20:12:39Z</time>
      </trkpt>
      <trkpt lat="46.20975" lon="1.40102">
        <ele>351.5</ele>
        <time>2021-08-04T20:12:56Z</time>
      </trkpt>
      <trkpt lat="46.20787" lon="1.39718">
        <ele>357.27</ele>
        <time>2021-08-04T20:13:09Z</time>
      </trkpt>
      <trkpt lat="46.20685" lon="1.39542">
        <ele>363.52</ele>
        <time>2021-08-04T20:13:17Z</time>
      </trkpt>
      <trkpt lat="46.20635" lon="1.39451">
        <ele>364.48</ele>
        <time>2021-08-04T20:13:25Z</time>
      </trkpt>
      <trkpt lat="46.20582" lon="1.39314">
        <ele>361.11</ele>
        <time>2021-08-04T20:13:35Z</time>
      </trkpt>
      <trkpt lat="46.20548" lon="1.3918">
        <ele>360.63</ele>
        <time>2021-08-04T20:13:47Z</time>
      </trkpt>
      <trkpt lat="46.20546" lon="1.39145">
        <ele>361.59</ele>
        <time>2021-08-04T20:13:54Z</time>
      </trkpt>
      <trkpt lat="46.20545" lon="1.39127">
        <ele>362.55</ele>
        <time>2021-08-04T20:13:58Z</time>
      </trkpt>
      <trkpt lat="46.20548" lon="1.3912">
        <ele>362.55</ele>
        <time>2021-08-04T20:13:59Z</time>
      </trkpt>
      <trkpt lat="46.2055" lon="1.39114">
        <ele>362.55</ele>
        <time>2021-08-04T20:14:00Z</time>
      </trkpt>
      <trkpt lat="46.20553" lon="1.39106">
        <ele>363.04</ele>
        <time>2021-08-04T20:14:01Z</time>
      </trkpt>
      <trkpt lat="46.20556" lon="1.39102">
        <ele>363.04</ele>
        <time>2021-08-04T20:14:02Z</time>
      </trkpt>
      <trkpt lat="46.20562" lon="1.39098">
        <ele>363.04</ele>
        <time>2021-08-04T20:14:03Z</time>
      </trkpt>
      <trkpt lat="46.20569" lon="1.39094">
        <ele>363.52</ele>
        <time>2021-08-04T20:14:04Z</time>
      </trkpt>
      <trkpt lat="46.20575" lon="1.3908">
        <ele>363.52</ele>
        <time>2021-08-04T20:14:05Z</time>
      </trkpt>
      <trkpt lat="46.20577" lon="1.39072">
        <ele>363.52</ele>
        <time>2021-08-04T20:14:06Z</time>
      </trkpt>
      <trkpt lat="46.20575" lon="1.39059">
        <ele>364</ele>
        <time>2021-08-04T20:14:07Z</time>
      </trkpt>
      <trkpt lat="46.20572" lon="1.39049">
        <ele>363.52</ele>
        <time>2021-08-04T20:14:08Z</time>
      </trkpt>
      <trkpt lat="46.20571" lon="1.39041">
        <ele>364</ele>
        <time>2021-08-04T20:14:09Z</time>
      </trkpt>
      <trkpt lat="46.20565" lon="1.39036">
        <ele>364.48</ele>
        <time>2021-08-04T20:14:10Z</time>
      </trkpt>
      <trkpt lat="46.20559" lon="1.39024">
        <ele>364.48</ele>
        <time>2021-08-04T20:14:11Z</time>
      </trkpt>
      <trkpt lat="46.20558" lon="1.39016">
        <ele>364</ele>
        <time>2021-08-04T20:14:12Z</time>
      </trkpt>
      <trkpt lat="46.20556" lon="1.39007">
        <ele>363.52</ele>
        <time>2021-08-04T20:14:13Z</time>
      </trkpt>
      <trkpt lat="46.20538" lon="1.38906">
        <ele>362.07</ele>
        <time>2021-08-04T20:14:20Z</time>
      </trkpt>
      <trkpt lat="46.20492" lon="1.38758">
        <ele>364</ele>
        <time>2021-08-04T20:14:30Z</time>
      </trkpt>
      <trkpt lat="46.20443" lon="1.38572">
        <ele>369.28</ele>
        <time>2021-08-04T20:14:42Z</time>
      </trkpt>
      <trkpt lat="46.20396" lon="1.38342">
        <ele>371.21</ele>
        <time>2021-08-04T20:14:55Z</time>
      </trkpt>
      <trkpt lat="46.20371" lon="1.38223">
        <ele>370.73</ele>
        <time>2021-08-04T20:15:03Z</time>
      </trkpt>
      <trkpt lat="46.20357" lon="1.38153">
        <ele>371.21</ele>
        <time>2021-08-04T20:15:16Z</time>
      </trkpt>
      <trkpt lat="46.20344" lon="1.3809">
        <ele>371.21</ele>
        <time>2021-08-04T20:15:36Z</time>
      </trkpt>
      <trkpt lat="46.2034" lon="1.38044">
        <ele>371.69</ele>
        <time>2021-08-04T20:15:46Z</time>
      </trkpt>
      <trkpt lat="46.2034" lon="1.38036">
        <ele>371.69</ele>
        <time>2021-08-04T20:15:47Z</time>
      </trkpt>
      <trkpt lat="46.20341" lon="1.38027">
        <ele>371.69</ele>
        <time>2021-08-04T20:15:48Z</time>
      </trkpt>
      <trkpt lat="46.20352" lon="1.38007">
        <ele>371.69</ele>
        <time>2021-08-04T20:15:50Z</time>
      </trkpt>
      <trkpt lat="46.20352" lon="1.38007">
        <ele>371.69</ele>
        <time>2021-08-04T20:15:51Z</time>
      </trkpt>
      <trkpt lat="46.20351" lon="1.37998">
        <ele>371.69</ele>
        <time>2021-08-04T20:15:52Z</time>
      </trkpt>
      <trkpt lat="46.20351" lon="1.37989">
        <ele>371.69</ele>
        <time>2021-08-04T20:15:53Z</time>
      </trkpt>
      <trkpt lat="46.20347" lon="1.37973">
        <ele>371.69</ele>
        <time>2021-08-04T20:15:54Z</time>
      </trkpt>
      <trkpt lat="46.20347" lon="1.37973">
        <ele>372.17</ele>
        <time>2021-08-04T20:15:55Z</time>
      </trkpt>
      <trkpt lat="46.20341" lon="1.37967">
        <ele>372.17</ele>
        <time>2021-08-04T20:15:56Z</time>
      </trkpt>
      <trkpt lat="46.20334" lon="1.37961">
        <ele>372.65</ele>
        <time>2021-08-04T20:15:57Z</time>
      </trkpt>
      <trkpt lat="46.20328" lon="1.37951">
        <ele>372.65</ele>
        <time>2021-08-04T20:15:58Z</time>
      </trkpt>
      <trkpt lat="46.20323" lon="1.3794">
        <ele>372.65</ele>
        <time>2021-08-04T20:15:59Z</time>
      </trkpt>
      <trkpt lat="46.20316" lon="1.37927">
        <ele>372.65</ele>
        <time>2021-08-04T20:16:00Z</time>
      </trkpt>
      <trkpt lat="46.20311" lon="1.37909">
        <ele>372.17</ele>
        <time>2021-08-04T20:16:01Z</time>
      </trkpt>
      <trkpt lat="46.20271" lon="1.37738">
        <ele>373.61</ele>
        <time>2021-08-04T20:16:09Z</time>
      </trkpt>
      <trkpt lat="46.20207" lon="1.37433">
        <ele>373.13</ele>
        <time>2021-08-04T20:16:20Z</time>
      </trkpt>
      <trkpt lat="46.20104" lon="1.36932">
        <ele>370.24</ele>
        <time>2021-08-04T20:16:37Z</time>
      </trkpt>
      <trkpt lat="46.19994" lon="1.36483">
        <ele>367.36</ele>
        <time>2021-08-04T20:16:52Z</time>
      </trkpt>
      <trkpt lat="46.19985" lon="1.36296">
        <ele>367.36</ele>
        <time>2021-08-04T20:16:58Z</time>
      </trkpt>
      <trkpt lat="46.20043" lon="1.36003">
        <ele>363.52</ele>
        <time>2021-08-04T20:17:07Z</time>
      </trkpt>
      <trkpt lat="46.2014" lon="1.35566">
        <ele>347.65</ele>
        <time>2021-08-04T20:17:21Z</time>
      </trkpt>
      <trkpt lat="46.20274" lon="1.34956">
        <ele>349.58</ele>
        <time>2021-08-04T20:17:42Z</time>
      </trkpt>
      <trkpt lat="46.20352" lon="1.34596">
        <ele>348.13</ele>
        <time>2021-08-04T20:17:54Z</time>
      </trkpt>
      <trkpt lat="46.20349" lon="1.34394">
        <ele>341.89</ele>
        <time>2021-08-04T20:18:01Z</time>
      </trkpt>
      <trkpt lat="46.20289" lon="1.33877">
        <ele>330.83</ele>
        <time>2021-08-04T20:18:19Z</time>
      </trkpt>
      <trkpt lat="46.2023" lon="1.33359">
        <ele>315.93</ele>
        <time>2021-08-04T20:18:36Z</time>
      </trkpt>
      <trkpt lat="46.20163" lon="1.32902">
        <ele>299.11</ele>
        <time>2021-08-04T20:18:50Z</time>
      </trkpt>
      <trkpt lat="46.20096" lon="1.32567">
        <ele>301.03</ele>
        <time>2021-08-04T20:19:01Z</time>
      </trkpt>
      <trkpt lat="46.20046" lon="1.32203">
        <ele>312.57</ele>
        <time>2021-08-04T20:19:14Z</time>
      </trkpt>
      <trkpt lat="46.19987" lon="1.3171">
        <ele>318.81</ele>
        <time>2021-08-04T20:19:32Z</time>
      </trkpt>
      <trkpt lat="46.19909" lon="1.31326">
        <ele>311.6</ele>
        <time>2021-08-04T20:19:45Z</time>
      </trkpt>
      <trkpt lat="46.19824" lon="1.30961">
        <ele>307.28</ele>
        <time>2021-08-04T20:19:58Z</time>
      </trkpt>
      <trkpt lat="46.19824" lon="1.30752">
        <ele>314.01</ele>
        <time>2021-08-04T20:20:06Z</time>
      </trkpt>
      <trkpt lat="46.19837" lon="1.30504">
        <ele>319.3</ele>
        <time>2021-08-04T20:20:17Z</time>
      </trkpt>
      <trkpt lat="46.19882" lon="1.30348">
        <ele>324.58</ele>
        <time>2021-08-04T20:20:24Z</time>
      </trkpt>
      <trkpt lat="46.19919" lon="1.30228">
        <ele>326.5</ele>
        <time>2021-08-04T20:20:31Z</time>
      </trkpt>
      <trkpt lat="46.19923" lon="1.30194">
        <ele>326.5</ele>
        <time>2021-08-04T20:20:32Z</time>
      </trkpt>
      <trkpt lat="46.19923" lon="1.30194">
        <ele>327.47</ele>
        <time>2021-08-04T20:20:33Z</time>
      </trkpt>
      <trkpt lat="46.1992" lon="1.29979">
        <ele>327.47</ele>
        <time>2021-08-04T20:20:46Z</time>
      </trkpt>
      <trkpt lat="46.19916" lon="1.29656">
        <ele>328.43</ele>
        <time>2021-08-04T20:21:06Z</time>
      </trkpt>
      <trkpt lat="46.19916" lon="1.29475">
        <ele>325.06</ele>
        <time>2021-08-04T20:21:15Z</time>
      </trkpt>
      <trkpt lat="46.19916" lon="1.29475">
        <ele>324.1</ele>
        <time>2021-08-04T20:21:16Z</time>
      </trkpt>
      <trkpt lat="46.19836" lon="1.29156">
        <ele>322.18</ele>
        <time>2021-08-04T20:21:33Z</time>
      </trkpt>
      <trkpt lat="46.19766" lon="1.28885">
        <ele>316.41</ele>
        <time>2021-08-04T20:21:45Z</time>
      </trkpt>
      <trkpt lat="46.19688" lon="1.28567">
        <ele>320.26</ele>
        <time>2021-08-04T20:21:58Z</time>
      </trkpt>
      <trkpt lat="46.19668" lon="1.28453">
        <ele>322.66</ele>
        <time>2021-08-04T20:22:02Z</time>
      </trkpt>
      <trkpt lat="46.19666" lon="1.28424">
        <ele>323.14</ele>
        <time>2021-08-04T20:22:03Z</time>
      </trkpt>
      <trkpt lat="46.19679" lon="1.28013">
        <ele>327.47</ele>
        <time>2021-08-04T20:22:16Z</time>
      </trkpt>
      <trkpt lat="46.19688" lon="1.27598">
        <ele>327.95</ele>
        <time>2021-08-04T20:22:30Z</time>
      </trkpt>
      <trkpt lat="46.19629" lon="1.27344">
        <ele>323.14</ele>
        <time>2021-08-04T20:22:38Z</time>
      </trkpt>
      <trkpt lat="46.19502" lon="1.26853">
        <ele>317.85</ele>
        <time>2021-08-04T20:22:56Z</time>
      </trkpt>
      <trkpt lat="46.19361" lon="1.26306">
        <ele>312.57</ele>
        <time>2021-08-04T20:23:15Z</time>
      </trkpt>
      <trkpt lat="46.19227" lon="1.25788">
        <ele>311.6</ele>
        <time>2021-08-04T20:23:34Z</time>
      </trkpt>
      <trkpt lat="46.1915" lon="1.25439">
        <ele>306.8</ele>
        <time>2021-08-04T20:23:47Z</time>
      </trkpt>
      <trkpt lat="46.19151" lon="1.25411">
        <ele>306.8</ele>
        <time>2021-08-04T20:23:48Z</time>
      </trkpt>
      <trkpt lat="46.1917" lon="1.25095">
        <ele>301.51</ele>
        <time>2021-08-04T20:23:59Z</time>
      </trkpt>
      <trkpt lat="46.19211" lon="1.24515">
        <ele>300.55</ele>
        <time>2021-08-04T20:24:17Z</time>
      </trkpt>
      <trkpt lat="46.19245" lon="1.24048">
        <ele>313.05</ele>
        <time>2021-08-04T20:24:33Z</time>
      </trkpt>
      <trkpt lat="46.19243" lon="1.23884">
        <ele>314.01</ele>
        <time>2021-08-04T20:24:40Z</time>
      </trkpt>
      <trkpt lat="46.19216" lon="1.23705">
        <ele>314.97</ele>
        <time>2021-08-04T20:24:48Z</time>
      </trkpt>
      <trkpt lat="46.19139" lon="1.23501">
        <ele>317.37</ele>
        <time>2021-08-04T20:24:56Z</time>
      </trkpt>
      <trkpt lat="46.19011" lon="1.23309">
        <ele>323.62</ele>
        <time>2021-08-04T20:25:05Z</time>
      </trkpt>
      <trkpt lat="46.18899" lon="1.23123">
        <ele>326.02</ele>
        <time>2021-08-04T20:25:13Z</time>
      </trkpt>
      <trkpt lat="46.18762" lon="1.22761">
        <ele>331.31</ele>
        <time>2021-08-04T20:25:26Z</time>
      </trkpt>
      <trkpt lat="46.18664" lon="1.22632">
        <ele>331.79</ele>
        <time>2021-08-04T20:25:32Z</time>
      </trkpt>
      <trkpt lat="46.18444" lon="1.22415">
        <ele>334.68</ele>
        <time>2021-08-04T20:25:44Z</time>
      </trkpt>
      <trkpt lat="46.18428" lon="1.22393">
        <ele>334.2</ele>
        <time>2021-08-04T20:25:45Z</time>
      </trkpt>
      <trkpt lat="46.18414" lon="1.22369">
        <ele>334.2</ele>
        <time>2021-08-04T20:25:46Z</time>
      </trkpt>
      <trkpt lat="46.184" lon="1.22343">
        <ele>332.75</ele>
        <time>2021-08-04T20:25:47Z</time>
      </trkpt>
      <trkpt lat="46.18386" lon="1.22317">
        <ele>331.31</ele>
        <time>2021-08-04T20:25:48Z</time>
      </trkpt>
      <trkpt lat="46.18378" lon="1.22287">
        <ele>329.87</ele>
        <time>2021-08-04T20:25:49Z</time>
      </trkpt>
      <trkpt lat="46.18369" lon="1.22255">
        <ele>328.43</ele>
        <time>2021-08-04T20:25:50Z</time>
      </trkpt>
      <trkpt lat="46.1836" lon="1.22223">
        <ele>328.43</ele>
        <time>2021-08-04T20:25:51Z</time>
      </trkpt>
      <trkpt lat="46.18357" lon="1.22189">
        <ele>328.43</ele>
        <time>2021-08-04T20:25:52Z</time>
      </trkpt>
      <trkpt lat="46.18354" lon="1.22157">
        <ele>328.91</ele>
        <time>2021-08-04T20:25:53Z</time>
      </trkpt>
      <trkpt lat="46.18351" lon="1.22122">
        <ele>328.91</ele>
        <time>2021-08-04T20:25:54Z</time>
      </trkpt>
      <trkpt lat="46.1835" lon="1.22088">
        <ele>328.43</ele>
        <time>2021-08-04T20:25:55Z</time>
      </trkpt>
      <trkpt lat="46.1836" lon="1.21627">
        <ele>316.89</ele>
        <time>2021-08-04T20:26:09Z</time>
      </trkpt>
      <trkpt lat="46.1839" lon="1.21049">
        <ele>301.99</ele>
        <time>2021-08-04T20:26:27Z</time>
      </trkpt>
      <trkpt lat="46.18494" lon="1.2072">
        <ele>295.74</ele>
        <time>2021-08-04T20:26:38Z</time>
      </trkpt>
      <trkpt lat="46.1853" lon="1.20506">
        <ele>293.34</ele>
        <time>2021-08-04T20:26:45Z</time>
      </trkpt>
      <trkpt lat="46.18505" lon="1.20264">
        <ele>293.34</ele>
        <time>2021-08-04T20:26:53Z</time>
      </trkpt>
      <trkpt lat="46.18397" lon="1.19581">
        <ele>288.53</ele>
        <time>2021-08-04T20:27:15Z</time>
      </trkpt>
      <trkpt lat="46.18353" lon="1.19185">
        <ele>289.49</ele>
        <time>2021-08-04T20:27:28Z</time>
      </trkpt>
      <trkpt lat="46.1839" lon="1.18776">
        <ele>291.9</ele>
        <time>2021-08-04T20:27:41Z</time>
      </trkpt>
      <trkpt lat="46.18421" lon="1.18289">
        <ele>300.07</ele>
        <time>2021-08-04T20:27:56Z</time>
      </trkpt>
      <trkpt lat="46.18385" lon="1.18117">
        <ele>300.55</ele>
        <time>2021-08-04T20:28:03Z</time>
      </trkpt>
      <trkpt lat="46.18233" lon="1.17571">
        <ele>301.99</ele>
        <time>2021-08-04T20:28:22Z</time>
      </trkpt>
      <trkpt lat="46.18056" lon="1.16938">
        <ele>308.24</ele>
        <time>2021-08-04T20:28:44Z</time>
      </trkpt>
      <trkpt lat="46.17985" lon="1.16633">
        <ele>301.51</ele>
        <time>2021-08-04T20:28:54Z</time>
      </trkpt>
      <trkpt lat="46.1799" lon="1.16382">
        <ele>298.15</ele>
        <time>2021-08-04T20:29:02Z</time>
      </trkpt>
      <trkpt lat="46.17988" lon="1.16005">
        <ele>290.94</ele>
        <time>2021-08-04T20:29:14Z</time>
      </trkpt>
      <trkpt lat="46.17934" lon="1.15837">
        <ele>290.94</ele>
        <time>2021-08-04T20:29:20Z</time>
      </trkpt>
      <trkpt lat="46.17713" lon="1.15478">
        <ele>281.8</ele>
        <time>2021-08-04T20:29:35Z</time>
      </trkpt>
      <trkpt lat="46.17483" lon="1.15147">
        <ele>277</ele>
        <time>2021-08-04T20:29:50Z</time>
      </trkpt>
      <trkpt lat="46.17135" lon="1.1481">
        <ele>261.14</ele>
        <time>2021-08-04T20:30:09Z</time>
      </trkpt>
      <trkpt lat="46.16862" lon="1.1455">
        <ele>251.04</ele>
        <time>2021-08-04T20:30:25Z</time>
      </trkpt>
      <trkpt lat="46.16767" lon="1.14479">
        <ele>247.68</ele>
        <time>2021-08-04T20:30:33Z</time>
      </trkpt>
      <trkpt lat="46.1664" lon="1.14363">
        <ele>247.2</ele>
        <time>2021-08-04T20:30:45Z</time>
      </trkpt>
      <trkpt lat="46.1659" lon="1.14211">
        <ele>239.51</ele>
        <time>2021-08-04T20:30:54Z</time>
      </trkpt>
      <trkpt lat="46.16516" lon="1.13921">
        <ele>229.41</ele>
        <time>2021-08-04T20:31:09Z</time>
      </trkpt>
      <trkpt lat="46.16438" lon="1.13625">
        <ele>227.97</ele>
        <time>2021-08-04T20:31:19Z</time>
      </trkpt>
      <trkpt lat="46.16366" lon="1.13471">
        <ele>227.01</ele>
        <time>2021-08-04T20:31:26Z</time>
      </trkpt>
      <trkpt lat="46.16236" lon="1.13346">
        <ele>224.61</ele>
        <time>2021-08-04T20:31:33Z</time>
      </trkpt>
      <trkpt lat="46.16033" lon="1.13262">
        <ele>218.84</ele>
        <time>2021-08-04T20:31:42Z</time>
      </trkpt>
      <trkpt lat="46.15849" lon="1.13161">
        <ele>218.36</ele>
        <time>2021-08-04T20:31:51Z</time>
      </trkpt>
      <trkpt lat="46.15468" lon="1.12845">
        <ele>225.57</ele>
        <time>2021-08-04T20:32:11Z</time>
      </trkpt>
      <trkpt lat="46.15375" lon="1.12714">
        <ele>228.45</ele>
        <time>2021-08-04T20:32:17Z</time>
      </trkpt>
      <trkpt lat="46.15321" lon="1.12545">
        <ele>225.57</ele>
        <time>2021-08-04T20:32:23Z</time>
      </trkpt>
      <trkpt lat="46.15305" lon="1.12332">
        <ele>228.45</ele>
        <time>2021-08-04T20:32:30Z</time>
      </trkpt>
      <trkpt lat="46.1531" lon="1.1191">
        <ele>224.61</ele>
        <time>2021-08-04T20:32:43Z</time>
      </trkpt>
      <trkpt lat="46.15272" lon="1.11659">
        <ele>216.91</ele>
        <time>2021-08-04T20:32:51Z</time>
      </trkpt>
      <trkpt lat="46.1513" lon="1.1114">
        <ele>200.57</ele>
        <time>2021-08-04T20:33:09Z</time>
      </trkpt>
      <trkpt lat="46.1512" lon="1.11082">
        <ele>198.17</ele>
        <time>2021-08-04T20:33:11Z</time>
      </trkpt>
      <trkpt lat="46.15119" lon="1.11053">
        <ele>196.25</ele>
        <time>2021-08-04T20:33:12Z</time>
      </trkpt>
      <trkpt lat="46.151" lon="1.10783">
        <ele>189.52</ele>
        <time>2021-08-04T20:33:21Z</time>
      </trkpt>
      <trkpt lat="46.15021" lon="1.10556">
        <ele>192.4</ele>
        <time>2021-08-04T20:33:29Z</time>
      </trkpt>
      <trkpt lat="46.14964" lon="1.10467">
        <ele>195.77</ele>
        <time>2021-08-04T20:33:33Z</time>
      </trkpt>
      <trkpt lat="46.14837" lon="1.10383">
        <ele>201.53</ele>
        <time>2021-08-04T20:33:40Z</time>
      </trkpt>
      <trkpt lat="46.1456" lon="1.10241">
        <ele>212.59</ele>
        <time>2021-08-04T20:33:54Z</time>
      </trkpt>
      <trkpt lat="46.14426" lon="1.10089">
        <ele>214.03</ele>
        <time>2021-08-04T20:34:02Z</time>
      </trkpt>
      <trkpt lat="46.14235" lon="1.09879">
        <ele>218.36</ele>
        <time>2021-08-04T20:34:13Z</time>
      </trkpt>
      <trkpt lat="46.14091" lon="1.09826">
        <ele>223.16</ele>
        <time>2021-08-04T20:34:20Z</time>
      </trkpt>
      <trkpt lat="46.13853" lon="1.0979">
        <ele>231.81</ele>
        <time>2021-08-04T20:34:32Z</time>
      </trkpt>
      <trkpt lat="46.13735" lon="1.09706">
        <ele>238.06</ele>
        <time>2021-08-04T20:34:40Z</time>
      </trkpt>
      <trkpt lat="46.13645" lon="1.09573">
        <ele>241.91</ele>
        <time>2021-08-04T20:34:47Z</time>
      </trkpt>
      <trkpt lat="46.13507" lon="1.09269">
        <ele>248.16</ele>
        <time>2021-08-04T20:35:00Z</time>
      </trkpt>
      <trkpt lat="46.13328" lon="1.08871">
        <ele>253.44</ele>
        <time>2021-08-04T20:35:18Z</time>
      </trkpt>
      <trkpt lat="46.13158" lon="1.08497">
        <ele>260.17</ele>
        <time>2021-08-04T20:35:35Z</time>
      </trkpt>
      <trkpt lat="46.12962" lon="1.08062">
        <ele>260.17</ele>
        <time>2021-08-04T20:35:53Z</time>
      </trkpt>
      <trkpt lat="46.1281" lon="1.07723">
        <ele>258.73</ele>
        <time>2021-08-04T20:36:07Z</time>
      </trkpt>
      <trkpt lat="46.12737" lon="1.07605">
        <ele>259.21</ele>
        <time>2021-08-04T20:36:15Z</time>
      </trkpt>
      <trkpt lat="46.12684" lon="1.07546">
        <ele>259.21</ele>
        <time>2021-08-04T20:36:23Z</time>
      </trkpt>
      <trkpt lat="46.1268" lon="1.07542">
        <ele>259.21</ele>
        <time>2021-08-04T20:36:32Z</time>
      </trkpt>
      <trkpt lat="46.12647" lon="1.07506">
        <ele>260.17</ele>
        <time>2021-08-04T20:36:44Z</time>
      </trkpt>
      <trkpt lat="46.126" lon="1.07455">
        <ele>261.14</ele>
        <time>2021-08-04T20:36:57Z</time>
      </trkpt>
      <trkpt lat="46.12595" lon="1.0745">
        <ele>261.62</ele>
        <time>2021-08-04T20:37:00Z</time>
      </trkpt>
      <trkpt lat="46.12592" lon="1.07446">
        <ele>261.62</ele>
        <time>2021-08-04T20:37:01Z</time>
      </trkpt>
      <trkpt lat="46.12591" lon="1.07445">
        <ele>261.62</ele>
        <time>2021-08-04T20:37:02Z</time>
      </trkpt>
      <trkpt lat="46.12596" lon="1.07423">
        <ele>261.62</ele>
        <time>2021-08-04T20:37:04Z</time>
      </trkpt>
      <trkpt lat="46.12594" lon="1.07408">
        <ele>261.62</ele>
        <time>2021-08-04T20:37:05Z</time>
      </trkpt>
      <trkpt lat="46.12588" lon="1.07397">
        <ele>262.1</ele>
        <time>2021-08-04T20:37:06Z</time>
      </trkpt>
      <trkpt lat="46.12584" lon="1.07392">
        <ele>262.1</ele>
        <time>2021-08-04T20:37:07Z</time>
      </trkpt>
      <trkpt lat="46.12575" lon="1.07387">
        <ele>262.1</ele>
        <time>2021-08-04T20:37:08Z</time>
      </trkpt>
      <trkpt lat="46.12569" lon="1.07387">
        <ele>261.62</ele>
        <time>2021-08-04T20:37:09Z</time>
      </trkpt>
      <trkpt lat="46.12562" lon="1.0739">
        <ele>261.62</ele>
        <time>2021-08-04T20:37:10Z</time>
      </trkpt>
      <trkpt lat="46.12556" lon="1.07396">
        <ele>261.62</ele>
        <time>2021-08-04T20:37:11Z</time>
      </trkpt>
      <trkpt lat="46.1255" lon="1.07403">
        <ele>261.14</ele>
        <time>2021-08-04T20:37:12Z</time>
      </trkpt>
      <trkpt lat="46.12547" lon="1.07414">
        <ele>261.14</ele>
        <time>2021-08-04T20:37:13Z</time>
      </trkpt>
      <trkpt lat="46.12547" lon="1.07426">
        <ele>260.65</ele>
        <time>2021-08-04T20:37:14Z</time>
      </trkpt>
      <trkpt lat="46.1255" lon="1.07437">
        <ele>260.65</ele>
        <time>2021-08-04T20:37:15Z</time>
      </trkpt>
      <trkpt lat="46.12563" lon="1.07458">
        <ele>260.17</ele>
        <time>2021-08-04T20:37:16Z</time>
      </trkpt>
      <trkpt lat="46.12571" lon="1.07458">
        <ele>259.21</ele>
        <time>2021-08-04T20:37:17Z</time>
      </trkpt>
      <trkpt lat="46.1258" lon="1.07454">
        <ele>258.25</ele>
        <time>2021-08-04T20:37:18Z</time>
      </trkpt>
      <trkpt lat="46.1258" lon="1.07454">
        <ele>257.77</ele>
        <time>2021-08-04T20:37:19Z</time>
      </trkpt>
      <trkpt lat="46.12593" lon="1.07437">
        <ele>257.29</ele>
        <time>2021-08-04T20:37:20Z</time>
      </trkpt>
      <trkpt lat="46.12595" lon="1.07426">
        <ele>256.81</ele>
        <time>2021-08-04T20:37:21Z</time>
      </trkpt>
      <trkpt lat="46.12595" lon="1.07426">
        <ele>256.81</ele>
        <time>2021-08-04T20:37:22Z</time>
      </trkpt>
      <trkpt lat="46.12597" lon="1.07419">
        <ele>256.33</ele>
        <time>2021-08-04T20:37:23Z</time>
      </trkpt>
      <trkpt lat="46.12597" lon="1.07397">
        <ele>255.37</ele>
        <time>2021-08-04T20:37:24Z</time>
      </trkpt>
      <trkpt lat="46.12605" lon="1.07389">
        <ele>254.89</ele>
        <time>2021-08-04T20:37:25Z</time>
      </trkpt>
      <trkpt lat="46.12615" lon="1.07379">
        <ele>253.44</ele>
        <time>2021-08-04T20:37:26Z</time>
      </trkpt>
      <trkpt lat="46.12736" lon="1.07247">
        <ele>248.16</ele>
        <time>2021-08-04T20:37:37Z</time>
      </trkpt>
      <trkpt lat="46.12886" lon="1.07101">
        <ele>250.56</ele>
        <time>2021-08-04T20:37:47Z</time>
      </trkpt>
      <trkpt lat="46.13148" lon="1.06904">
        <ele>248.16</ele>
        <time>2021-08-04T20:38:01Z</time>
      </trkpt>
      <trkpt lat="46.13339" lon="1.06721">
        <ele>244.79</ele>
        <time>2021-08-04T20:38:11Z</time>
      </trkpt>
      <trkpt lat="46.13514" lon="1.0647">
        <ele>245.27</ele>
        <time>2021-08-04T20:38:22Z</time>
      </trkpt>
      <trkpt lat="46.13645" lon="1.06175">
        <ele>245.27</ele>
        <time>2021-08-04T20:38:33Z</time>
      </trkpt>
      <trkpt lat="46.13764" lon="1.05855">
        <ele>249.6</ele>
        <time>2021-08-04T20:38:45Z</time>
      </trkpt>
      <trkpt lat="46.13809" lon="1.05731">
        <ele>252.96</ele>
        <time>2021-08-04T20:38:53Z</time>
      </trkpt>
      <trkpt lat="46.13834" lon="1.05662">
        <ele>255.37</ele>
        <time>2021-08-04T20:39:01Z</time>
      </trkpt>
      <trkpt lat="46.13841" lon="1.05646">
        <ele>255.85</ele>
        <time>2021-08-04T20:39:06Z</time>
      </trkpt>
      <trkpt lat="46.13844" lon="1.0564">
        <ele>255.85</ele>
        <time>2021-08-04T20:39:07Z</time>
      </trkpt>
      <trkpt lat="46.13847" lon="1.05634">
        <ele>255.85</ele>
        <time>2021-08-04T20:39:08Z</time>
      </trkpt>
      <trkpt lat="46.13859" lon="1.05626">
        <ele>254.89</ele>
        <time>2021-08-04T20:39:10Z</time>
      </trkpt>
      <trkpt lat="46.13864" lon="1.05624">
        <ele>253.93</ele>
        <time>2021-08-04T20:39:11Z</time>
      </trkpt>
      <trkpt lat="46.13865" lon="1.05609">
        <ele>253.93</ele>
        <time>2021-08-04T20:39:12Z</time>
      </trkpt>
      <trkpt lat="46.13865" lon="1.056">
        <ele>253.44</ele>
        <time>2021-08-04T20:39:13Z</time>
      </trkpt>
      <trkpt lat="46.13863" lon="1.05594">
        <ele>253.44</ele>
        <time>2021-08-04T20:39:14Z</time>
      </trkpt>
      <trkpt lat="46.1386" lon="1.05589">
        <ele>253.44</ele>
        <time>2021-08-04T20:39:15Z</time>
      </trkpt>
      <trkpt lat="46.13859" lon="1.05587">
        <ele>253.44</ele>
        <time>2021-08-04T20:39:16Z</time>
      </trkpt>
      <trkpt lat="46.13846" lon="1.05569">
        <ele>253.44</ele>
        <time>2021-08-04T20:39:17Z</time>
      </trkpt>
      <trkpt lat="46.13846" lon="1.05569">
        <ele>253.44</ele>
        <time>2021-08-04T20:39:18Z</time>
      </trkpt>
      <trkpt lat="46.13843" lon="1.05558">
        <ele>253.93</ele>
        <time>2021-08-04T20:39:19Z</time>
      </trkpt>
      <trkpt lat="46.1384" lon="1.05544">
        <ele>253.44</ele>
        <time>2021-08-04T20:39:20Z</time>
      </trkpt>
      <trkpt lat="46.13804" lon="1.05375">
        <ele>252</ele>
        <time>2021-08-04T20:39:28Z</time>
      </trkpt>
      <trkpt lat="46.13752" lon="1.05125">
        <ele>252.48</ele>
        <time>2021-08-04T20:39:39Z</time>
      </trkpt>
      <trkpt lat="46.1366" lon="1.04727">
        <ele>252</ele>
        <time>2021-08-04T20:39:53Z</time>
      </trkpt>
      <trkpt lat="46.13543" lon="1.04432">
        <ele>246.72</ele>
        <time>2021-08-04T20:40:04Z</time>
      </trkpt>
      <trkpt lat="46.13295" lon="1.0398">
        <ele>232.3</ele>
        <time>2021-08-04T20:40:21Z</time>
      </trkpt>
      <trkpt lat="46.13072" lon="1.03616">
        <ele>215.95</ele>
        <time>2021-08-04T20:40:37Z</time>
      </trkpt>
      <trkpt lat="46.12909" lon="1.03361">
        <ele>205.86</ele>
        <time>2021-08-04T20:40:48Z</time>
      </trkpt>
      <trkpt lat="46.12839" lon="1.03128">
        <ele>197.21</ele>
        <time>2021-08-04T20:40:56Z</time>
      </trkpt>
      <trkpt lat="46.12819" lon="1.02878">
        <ele>189.04</ele>
        <time>2021-08-04T20:41:04Z</time>
      </trkpt>
      <trkpt lat="46.12852" lon="1.02589">
        <ele>185.19</ele>
        <time>2021-08-04T20:41:13Z</time>
      </trkpt>
      <trkpt lat="46.12914" lon="1.02153">
        <ele>195.77</ele>
        <time>2021-08-04T20:41:28Z</time>
      </trkpt>
      <trkpt lat="46.12938" lon="1.0185">
        <ele>200.57</ele>
        <time>2021-08-04T20:41:38Z</time>
      </trkpt>
      <trkpt lat="46.1291" lon="1.0156">
        <ele>199.61</ele>
        <time>2021-08-04T20:41:47Z</time>
      </trkpt>
      <trkpt lat="46.12839" lon="1.01168">
        <ele>192.4</ele>
        <time>2021-08-04T20:41:59Z</time>
      </trkpt>
      <trkpt lat="46.12753" lon="1.0069">
        <ele>206.82</ele>
        <time>2021-08-04T20:42:12Z</time>
      </trkpt>
      <trkpt lat="46.12715" lon="1.00362">
        <ele>223.64</ele>
        <time>2021-08-04T20:42:22Z</time>
      </trkpt>
      <trkpt lat="46.12727" lon="1.00017">
        <ele>236.62</ele>
        <time>2021-08-04T20:42:33Z</time>
      </trkpt>
      <trkpt lat="46.12772" lon="0.99719">
        <ele>246.72</ele>
        <time>2021-08-04T20:42:43Z</time>
      </trkpt>
      <trkpt lat="46.12833" lon="0.99416">
        <ele>251.52</ele>
        <time>2021-08-04T20:42:55Z</time>
      </trkpt>
      <trkpt lat="46.12859" lon="0.99295">
        <ele>253.44</ele>
        <time>2021-08-04T20:43:02Z</time>
      </trkpt>
      <trkpt lat="46.12894" lon="0.99203">
        <ele>253.93</ele>
        <time>2021-08-04T20:43:13Z</time>
      </trkpt>
      <trkpt lat="46.12936" lon="0.99126">
        <ele>256.33</ele>
        <time>2021-08-04T20:43:24Z</time>
      </trkpt>
      <trkpt lat="46.12941" lon="0.99119">
        <ele>256.33</ele>
        <time>2021-08-04T20:43:25Z</time>
      </trkpt>
      <trkpt lat="46.12946" lon="0.99112">
        <ele>256.33</ele>
        <time>2021-08-04T20:43:26Z</time>
      </trkpt>
      <trkpt lat="46.12969" lon="0.99113">
        <ele>255.85</ele>
        <time>2021-08-04T20:43:29Z</time>
      </trkpt>
      <trkpt lat="46.12977" lon="0.99107">
        <ele>254.89</ele>
        <time>2021-08-04T20:43:30Z</time>
      </trkpt>
      <trkpt lat="46.12981" lon="0.99101">
        <ele>254.89</ele>
        <time>2021-08-04T20:43:31Z</time>
      </trkpt>
      <trkpt lat="46.12981" lon="0.99089">
        <ele>254.89</ele>
        <time>2021-08-04T20:43:32Z</time>
      </trkpt>
      <trkpt lat="46.12981" lon="0.99079">
        <ele>254.41</ele>
        <time>2021-08-04T20:43:33Z</time>
      </trkpt>
      <trkpt lat="46.12979" lon="0.99071">
        <ele>253.93</ele>
        <time>2021-08-04T20:43:34Z</time>
      </trkpt>
      <trkpt lat="46.12974" lon="0.99065">
        <ele>253.93</ele>
        <time>2021-08-04T20:43:35Z</time>
      </trkpt>
      <trkpt lat="46.1297" lon="0.99062">
        <ele>253.93</ele>
        <time>2021-08-04T20:43:36Z</time>
      </trkpt>
      <trkpt lat="46.12957" lon="0.99054">
        <ele>253.93</ele>
        <time>2021-08-04T20:43:37Z</time>
      </trkpt>
      <trkpt lat="46.12954" lon="0.99043">
        <ele>254.41</ele>
        <time>2021-08-04T20:43:38Z</time>
      </trkpt>
      <trkpt lat="46.1295" lon="0.9903">
        <ele>255.37</ele>
        <time>2021-08-04T20:43:39Z</time>
      </trkpt>
      <trkpt lat="46.12946" lon="0.99015">
        <ele>255.85</ele>
        <time>2021-08-04T20:43:40Z</time>
      </trkpt>
      <trkpt lat="46.12892" lon="0.98831">
        <ele>259.69</ele>
        <time>2021-08-04T20:43:51Z</time>
      </trkpt>
      <trkpt lat="46.12825" lon="0.98597">
        <ele>260.65</ele>
        <time>2021-08-04T20:44:02Z</time>
      </trkpt>
      <trkpt lat="46.12733" lon="0.98274">
        <ele>259.69</ele>
        <time>2021-08-04T20:44:14Z</time>
      </trkpt>
      <trkpt lat="46.126" lon="0.97808">
        <ele>252</ele>
        <time>2021-08-04T20:44:31Z</time>
      </trkpt>
      <trkpt lat="46.12473" lon="0.97365">
        <ele>251.52</ele>
        <time>2021-08-04T20:44:46Z</time>
      </trkpt>
      <trkpt lat="46.12348" lon="0.96927">
        <ele>262.1</ele>
        <time>2021-08-04T20:45:02Z</time>
      </trkpt>
      <trkpt lat="46.1215" lon="0.96238">
        <ele>262.1</ele>
        <time>2021-08-04T20:45:26Z</time>
      </trkpt>
      <trkpt lat="46.11983" lon="0.95659">
        <ele>258.25</ele>
        <time>2021-08-04T20:45:47Z</time>
      </trkpt>
      <trkpt lat="46.11815" lon="0.95083">
        <ele>243.35</ele>
        <time>2021-08-04T20:46:07Z</time>
      </trkpt>
      <trkpt lat="46.11672" lon="0.94583">
        <ele>248.16</ele>
        <time>2021-08-04T20:46:24Z</time>
      </trkpt>
      <trkpt lat="46.11569" lon="0.94219">
        <ele>252</ele>
        <time>2021-08-04T20:46:37Z</time>
      </trkpt>
      <trkpt lat="46.11477" lon="0.93906">
        <ele>258.73</ele>
        <time>2021-08-04T20:46:48Z</time>
      </trkpt>
      <trkpt lat="46.11335" lon="0.93401">
        <ele>250.08</ele>
        <time>2021-08-04T20:47:05Z</time>
      </trkpt>
      <trkpt lat="46.11185" lon="0.92879">
        <ele>243.83</ele>
        <time>2021-08-04T20:47:22Z</time>
      </trkpt>
      <trkpt lat="46.11149" lon="0.92747">
        <ele>244.31</ele>
        <time>2021-08-04T20:47:29Z</time>
      </trkpt>
      <trkpt lat="46.11136" lon="0.92681">
        <ele>245.75</ele>
        <time>2021-08-04T20:47:33Z</time>
      </trkpt>
      <trkpt lat="46.11138" lon="0.92658">
        <ele>245.27</ele>
        <time>2021-08-04T20:47:34Z</time>
      </trkpt>
      <trkpt lat="46.11138" lon="0.92658">
        <ele>243.83</ele>
        <time>2021-08-04T20:47:35Z</time>
      </trkpt>
      <trkpt lat="46.11145" lon="0.92618">
        <ele>242.87</ele>
        <time>2021-08-04T20:47:37Z</time>
      </trkpt>
      <trkpt lat="46.11142" lon="0.92603">
        <ele>242.39</ele>
        <time>2021-08-04T20:47:38Z</time>
      </trkpt>
      <trkpt lat="46.11142" lon="0.92603">
        <ele>242.39</ele>
        <time>2021-08-04T20:47:39Z</time>
      </trkpt>
      <trkpt lat="46.11144" lon="0.92588">
        <ele>242.39</ele>
        <time>2021-08-04T20:47:40Z</time>
      </trkpt>
      <trkpt lat="46.1115" lon="0.92575">
        <ele>242.39</ele>
        <time>2021-08-04T20:47:41Z</time>
      </trkpt>
      <trkpt lat="46.11156" lon="0.9256">
        <ele>242.87</ele>
        <time>2021-08-04T20:47:42Z</time>
      </trkpt>
      <trkpt lat="46.11242" lon="0.92408">
        <ele>241.43</ele>
        <time>2021-08-04T20:47:51Z</time>
      </trkpt>
      <trkpt lat="46.11386" lon="0.92161">
        <ele>239.51</ele>
        <time>2021-08-04T20:48:01Z</time>
      </trkpt>
      <trkpt lat="46.11555" lon="0.91844">
        <ele>236.62</ele>
        <time>2021-08-04T20:48:15Z</time>
      </trkpt>
      <trkpt lat="46.11636" lon="0.91569">
        <ele>232.78</ele>
        <time>2021-08-04T20:48:24Z</time>
      </trkpt>
      <trkpt lat="46.11672" lon="0.9127">
        <ele>229.89</ele>
        <time>2021-08-04T20:48:33Z</time>
      </trkpt>
      <trkpt lat="46.11689" lon="0.90841">
        <ele>224.61</ele>
        <time>2021-08-04T20:48:47Z</time>
      </trkpt>
      <trkpt lat="46.11657" lon="0.90531">
        <ele>213.07</ele>
        <time>2021-08-04T20:48:57Z</time>
      </trkpt>
      <trkpt lat="46.11577" lon="0.90259">
        <ele>208.26</ele>
        <time>2021-08-04T20:49:06Z</time>
      </trkpt>
      <trkpt lat="46.11456" lon="0.90024">
        <ele>210.67</ele>
        <time>2021-08-04T20:49:15Z</time>
      </trkpt>
      <trkpt lat="46.11262" lon="0.89774">
        <ele>211.15</ele>
        <time>2021-08-04T20:49:27Z</time>
      </trkpt>
      <trkpt lat="46.10988" lon="0.89436">
        <ele>203.94</ele>
        <time>2021-08-04T20:49:44Z</time>
      </trkpt>
      <trkpt lat="46.10937" lon="0.89375">
        <ele>204.42</ele>
        <time>2021-08-04T20:49:50Z</time>
      </trkpt>
      <trkpt lat="46.10936" lon="0.89373">
        <ele>204.42</ele>
        <time>2021-08-04T20:49:51Z</time>
      </trkpt>
      <trkpt lat="46.10936" lon="0.89373">
        <ele>204.9</ele>
        <time>2021-08-04T20:49:52Z</time>
      </trkpt>
      <trkpt lat="46.10941" lon="0.89346">
        <ele>204.9</ele>
        <time>2021-08-04T20:49:53Z</time>
      </trkpt>
      <trkpt lat="46.10938" lon="0.89336">
        <ele>204.42</ele>
        <time>2021-08-04T20:49:54Z</time>
      </trkpt>
      <trkpt lat="46.10929" lon="0.89325">
        <ele>203.94</ele>
        <time>2021-08-04T20:49:55Z</time>
      </trkpt>
      <trkpt lat="46.10923" lon="0.89322">
        <ele>203.46</ele>
        <time>2021-08-04T20:49:56Z</time>
      </trkpt>
      <trkpt lat="46.10908" lon="0.89322">
        <ele>202.49</ele>
        <time>2021-08-04T20:49:57Z</time>
      </trkpt>
      <trkpt lat="46.10903" lon="0.89312">
        <ele>202.49</ele>
        <time>2021-08-04T20:49:58Z</time>
      </trkpt>
      <trkpt lat="46.10898" lon="0.893">
        <ele>202.49</ele>
        <time>2021-08-04T20:49:59Z</time>
      </trkpt>
      <trkpt lat="46.10893" lon="0.89288">
        <ele>201.53</ele>
        <time>2021-08-04T20:50:00Z</time>
      </trkpt>
      <trkpt lat="46.10887" lon="0.89275">
        <ele>200.57</ele>
        <time>2021-08-04T20:50:01Z</time>
      </trkpt>
      <trkpt lat="46.10826" lon="0.89113">
        <ele>191.92</ele>
        <time>2021-08-04T20:50:11Z</time>
      </trkpt>
      <trkpt lat="46.10753" lon="0.88865">
        <ele>200.09</ele>
        <time>2021-08-04T20:50:23Z</time>
      </trkpt>
      <trkpt lat="46.10636" lon="0.88467">
        <ele>220.28</ele>
        <time>2021-08-04T20:50:40Z</time>
      </trkpt>
      <trkpt lat="46.10542" lon="0.8815">
        <ele>220.76</ele>
        <time>2021-08-04T20:50:53Z</time>
      </trkpt>
      <trkpt lat="46.10448" lon="0.87826">
        <ele>209.7</ele>
        <time>2021-08-04T20:51:05Z</time>
      </trkpt>
      <trkpt lat="46.10382" lon="0.87599">
        <ele>206.34</ele>
        <time>2021-08-04T20:51:13Z</time>
      </trkpt>
      <trkpt lat="46.1028" lon="0.87253">
        <ele>215.47</ele>
        <time>2021-08-04T20:51:27Z</time>
      </trkpt>
      <trkpt lat="46.10178" lon="0.86913">
        <ele>223.64</ele>
        <time>2021-08-04T20:51:41Z</time>
      </trkpt>
      <trkpt lat="46.10068" lon="0.86539">
        <ele>221.72</ele>
        <time>2021-08-04T20:51:55Z</time>
      </trkpt>
      <trkpt lat="46.09976" lon="0.86229">
        <ele>225.57</ele>
        <time>2021-08-04T20:52:06Z</time>
      </trkpt>
      <trkpt lat="46.09871" lon="0.85875">
        <ele>222.2</ele>
        <time>2021-08-04T20:52:18Z</time>
      </trkpt>
      <trkpt lat="46.09737" lon="0.85432">
        <ele>223.16</ele>
        <time>2021-08-04T20:52:33Z</time>
      </trkpt>
      <trkpt lat="46.09626" lon="0.85041">
        <ele>221.72</ele>
        <time>2021-08-04T20:52:45Z</time>
      </trkpt>
      <trkpt lat="46.09491" lon="0.84582">
        <ele>224.12</ele>
        <time>2021-08-04T20:53:01Z</time>
      </trkpt>
      <trkpt lat="46.09394" lon="0.84289">
        <ele>227.97</ele>
        <time>2021-08-04T20:53:11Z</time>
      </trkpt>
      <trkpt lat="46.09321" lon="0.84109">
        <ele>230.37</ele>
        <time>2021-08-04T20:53:21Z</time>
      </trkpt>
      <trkpt lat="46.09239" lon="0.83908">
        <ele>232.78</ele>
        <time>2021-08-04T20:53:34Z</time>
      </trkpt>
      <trkpt lat="46.09142" lon="0.83668">
        <ele>235.66</ele>
        <time>2021-08-04T20:53:50Z</time>
      </trkpt>
      <trkpt lat="46.09039" lon="0.83415">
        <ele>235.66</ele>
        <time>2021-08-04T20:54:05Z</time>
      </trkpt>
      <trkpt lat="46.08947" lon="0.83188">
        <ele>234.22</ele>
        <time>2021-08-04T20:54:16Z</time>
      </trkpt>
      <trkpt lat="46.08845" lon="0.82937">
        <ele>230.85</ele>
        <time>2021-08-04T20:54:26Z</time>
      </trkpt>
      <trkpt lat="46.08693" lon="0.82564">
        <ele>229.41</ele>
        <time>2021-08-04T20:54:40Z</time>
      </trkpt>
      <trkpt lat="46.08529" lon="0.82161">
        <ele>225.57</ele>
        <time>2021-08-04T20:54:54Z</time>
      </trkpt>
      <trkpt lat="46.08327" lon="0.81659">
        <ele>232.3</ele>
        <time>2021-08-04T20:55:14Z</time>
      </trkpt>
      <trkpt lat="46.08152" lon="0.8123">
        <ele>228.45</ele>
        <time>2021-08-04T20:55:30Z</time>
      </trkpt>
      <trkpt lat="46.08066" lon="0.80963">
        <ele>224.61</ele>
        <time>2021-08-04T20:55:39Z</time>
      </trkpt>
      <trkpt lat="46.07886" lon="0.80316">
        <ele>218.84</ele>
        <time>2021-08-04T20:56:01Z</time>
      </trkpt>
      <trkpt lat="46.07774" lon="0.79861">
        <ele>218.36</ele>
        <time>2021-08-04T20:56:17Z</time>
      </trkpt>
      <trkpt lat="46.07767" lon="0.79621">
        <ele>216.91</ele>
        <time>2021-08-04T20:56:26Z</time>
      </trkpt>
      <trkpt lat="46.07794" lon="0.79098">
        <ele>219.8</ele>
        <time>2021-08-04T20:56:45Z</time>
      </trkpt>
      <trkpt lat="46.07815" lon="0.78687">
        <ele>220.28</ele>
        <time>2021-08-04T20:57:00Z</time>
      </trkpt>
      <trkpt lat="46.07827" lon="0.78435">
        <ele>222.68</ele>
        <time>2021-08-04T20:57:09Z</time>
      </trkpt>
      <trkpt lat="46.07849" lon="0.78019">
        <ele>225.09</ele>
        <time>2021-08-04T20:57:22Z</time>
      </trkpt>
      <trkpt lat="46.07863" lon="0.77744">
        <ele>226.53</ele>
        <time>2021-08-04T20:57:31Z</time>
      </trkpt>
      <trkpt lat="46.07878" lon="0.77457">
        <ele>224.61</ele>
        <time>2021-08-04T20:57:42Z</time>
      </trkpt>
      <trkpt lat="46.07897" lon="0.77076">
        <ele>225.57</ele>
        <time>2021-08-04T20:57:54Z</time>
      </trkpt>
      <trkpt lat="46.07912" lon="0.76708">
        <ele>226.53</ele>
        <time>2021-08-04T20:58:08Z</time>
      </trkpt>
      <trkpt lat="46.07922" lon="0.76418">
        <ele>229.89</ele>
        <time>2021-08-04T20:58:19Z</time>
      </trkpt>
      <trkpt lat="46.07931" lon="0.76127">
        <ele>225.57</ele>
        <time>2021-08-04T20:58:32Z</time>
      </trkpt>
      <trkpt lat="46.07944" lon="0.75779">
        <ele>229.89</ele>
        <time>2021-08-04T20:58:46Z</time>
      </trkpt>
      <trkpt lat="46.07939" lon="0.75567">
        <ele>236.14</ele>
        <time>2021-08-04T20:58:55Z</time>
      </trkpt>
      <trkpt lat="46.07886" lon="0.75364">
        <ele>233.26</ele>
        <time>2021-08-04T20:59:05Z</time>
      </trkpt>
      <trkpt lat="46.07787" lon="0.75021">
        <ele>228.93</ele>
        <time>2021-08-04T20:59:20Z</time>
      </trkpt>
      <trkpt lat="46.07667" lon="0.74601">
        <ele>229.41</ele>
        <time>2021-08-04T20:59:37Z</time>
      </trkpt>
      <trkpt lat="46.07555" lon="0.74221">
        <ele>230.85</ele>
        <time>2021-08-04T20:59:52Z</time>
      </trkpt>
      <trkpt lat="46.07468" lon="0.73936">
        <ele>224.61</ele>
        <time>2021-08-04T21:00:03Z</time>
      </trkpt>
      <trkpt lat="46.07367" lon="0.73605">
        <ele>222.2</ele>
        <time>2021-08-04T21:00:14Z</time>
      </trkpt>
      <trkpt lat="46.07228" lon="0.73156">
        <ele>222.2</ele>
        <time>2021-08-04T21:00:30Z</time>
      </trkpt>
      <trkpt lat="46.0709" lon="0.72702">
        <ele>218.84</ele>
        <time>2021-08-04T21:00:46Z</time>
      </trkpt>
      <trkpt lat="46.07036" lon="0.7253">
        <ele>219.8</ele>
        <time>2021-08-04T21:00:53Z</time>
      </trkpt>
      <trkpt lat="46.06978" lon="0.7235">
        <ele>216.91</ele>
        <time>2021-08-04T21:01:03Z</time>
      </trkpt>
      <trkpt lat="46.06918" lon="0.72188">
        <ele>210.19</ele>
        <time>2021-08-04T21:01:10Z</time>
      </trkpt>
      <trkpt lat="46.06805" lon="0.71922">
        <ele>207.3</ele>
        <time>2021-08-04T21:01:19Z</time>
      </trkpt>
      <trkpt lat="46.0667" lon="0.71617">
        <ele>212.59</ele>
        <time>2021-08-04T21:01:29Z</time>
      </trkpt>
      <trkpt lat="46.06518" lon="0.71262">
        <ele>213.55</ele>
        <time>2021-08-04T21:01:40Z</time>
      </trkpt>
      <trkpt lat="46.06314" lon="0.70803">
        <ele>213.07</ele>
        <time>2021-08-04T21:01:56Z</time>
      </trkpt>
      <trkpt lat="46.06239" lon="0.70605">
        <ele>213.07</ele>
        <time>2021-08-04T21:02:03Z</time>
      </trkpt>
      <trkpt lat="46.06232" lon="0.70575">
        <ele>212.11</ele>
        <time>2021-08-04T21:02:04Z</time>
      </trkpt>
      <trkpt lat="46.06206" lon="0.70209">
        <ele>203.94</ele>
        <time>2021-08-04T21:02:16Z</time>
      </trkpt>
      <trkpt lat="46.06197" lon="0.70059">
        <ele>197.69</ele>
        <time>2021-08-04T21:02:22Z</time>
      </trkpt>
      <trkpt lat="46.06195" lon="0.69872">
        <ele>188.08</ele>
        <time>2021-08-04T21:02:30Z</time>
      </trkpt>
      <trkpt lat="46.06255" lon="0.69577">
        <ele>178.46</ele>
        <time>2021-08-04T21:02:42Z</time>
      </trkpt>
      <trkpt lat="46.06329" lon="0.69226">
        <ele>171.73</ele>
        <time>2021-08-04T21:02:57Z</time>
      </trkpt>
      <trkpt lat="46.06414" lon="0.68939">
        <ele>158.27</ele>
        <time>2021-08-04T21:03:08Z</time>
      </trkpt>
      <trkpt lat="46.06502" lon="0.68614">
        <ele>143.85</ele>
        <time>2021-08-04T21:03:19Z</time>
      </trkpt>
      <trkpt lat="46.06528" lon="0.683">
        <ele>133.28</ele>
        <time>2021-08-04T21:03:29Z</time>
      </trkpt>
      <trkpt lat="46.06552" lon="0.67809">
        <ele>140.01</ele>
        <time>2021-08-04T21:03:45Z</time>
      </trkpt>
      <trkpt lat="46.06542" lon="0.67635">
        <ele>146.26</ele>
        <time>2021-08-04T21:03:51Z</time>
      </trkpt>
      <trkpt lat="46.06494" lon="0.67398">
        <ele>156.35</ele>
        <time>2021-08-04T21:04:01Z</time>
      </trkpt>
      <trkpt lat="46.06423" lon="0.67189">
        <ele>169.33</ele>
        <time>2021-08-04T21:04:11Z</time>
      </trkpt>
      <trkpt lat="46.06298" lon="0.66963">
        <ele>174.62</ele>
        <time>2021-08-04T21:04:21Z</time>
      </trkpt>
      <trkpt lat="46.06109" lon="0.66768">
        <ele>180.87</ele>
        <time>2021-08-04T21:04:32Z</time>
      </trkpt>
      <trkpt lat="46.05957" lon="0.66672">
        <ele>174.14</ele>
        <time>2021-08-04T21:04:39Z</time>
      </trkpt>
      <trkpt lat="46.05751" lon="0.66614">
        <ele>168.85</ele>
        <time>2021-08-04T21:04:47Z</time>
      </trkpt>
      <trkpt lat="46.05572" lon="0.66627">
        <ele>167.89</ele>
        <time>2021-08-04T21:04:56Z</time>
      </trkpt>
      <trkpt lat="46.05155" lon="0.66709">
        <ele>157.79</ele>
        <time>2021-08-04T21:05:15Z</time>
      </trkpt>
      <trkpt lat="46.04934" lon="0.66724">
        <ele>149.62</ele>
        <time>2021-08-04T21:05:25Z</time>
      </trkpt>
      <trkpt lat="46.04761" lon="0.66659">
        <ele>152.03</ele>
        <time>2021-08-04T21:05:33Z</time>
      </trkpt>
      <trkpt lat="46.04623" lon="0.66534">
        <ele>159.72</ele>
        <time>2021-08-04T21:05:41Z</time>
      </trkpt>
      <trkpt lat="46.04309" lon="0.6616">
        <ele>162.6</ele>
        <time>2021-08-04T21:05:59Z</time>
      </trkpt>
      <trkpt lat="46.04089" lon="0.65926">
        <ele>155.39</ele>
        <time>2021-08-04T21:06:12Z</time>
      </trkpt>
      <trkpt lat="46.03939" lon="0.6586">
        <ele>154.91</ele>
        <time>2021-08-04T21:06:19Z</time>
      </trkpt>
      <trkpt lat="46.03717" lon="0.65862">
        <ele>156.35</ele>
        <time>2021-08-04T21:06:28Z</time>
      </trkpt>
      <trkpt lat="46.03418" lon="0.65874">
        <ele>169.81</ele>
        <time>2021-08-04T21:06:43Z</time>
      </trkpt>
      <trkpt lat="46.03024" lon="0.65876">
        <ele>185.67</ele>
        <time>2021-08-04T21:07:02Z</time>
      </trkpt>
      <trkpt lat="46.02841" lon="0.6582">
        <ele>186.15</ele>
        <time>2021-08-04T21:07:11Z</time>
      </trkpt>
      <trkpt lat="46.02664" lon="0.65708">
        <ele>186.63</ele>
        <time>2021-08-04T21:07:20Z</time>
      </trkpt>
      <trkpt lat="46.02469" lon="0.65502">
        <ele>187.11</ele>
        <time>2021-08-04T21:07:31Z</time>
      </trkpt>
      <trkpt lat="46.02207" lon="0.65198">
        <ele>185.19</ele>
        <time>2021-08-04T21:07:46Z</time>
      </trkpt>
      <trkpt lat="46.01932" lon="0.64886">
        <ele>174.62</ele>
        <time>2021-08-04T21:08:01Z</time>
      </trkpt>
      <trkpt lat="46.01721" lon="0.64682">
        <ele>162.6</ele>
        <time>2021-08-04T21:08:12Z</time>
      </trkpt>
      <trkpt lat="46.01486" lon="0.64527">
        <ele>152.99</ele>
        <time>2021-08-04T21:08:23Z</time>
      </trkpt>
      <trkpt lat="46.01165" lon="0.64351">
        <ele>165</ele>
        <time>2021-08-04T21:08:38Z</time>
      </trkpt>
      <trkpt lat="46.00827" lon="0.64147">
        <ele>177.98</ele>
        <time>2021-08-04T21:08:54Z</time>
      </trkpt>
      <trkpt lat="46.00642" lon="0.63952">
        <ele>176.54</ele>
        <time>2021-08-04T21:09:04Z</time>
      </trkpt>
      <trkpt lat="46.00352" lon="0.63644">
        <ele>160.68</ele>
        <time>2021-08-04T21:09:20Z</time>
      </trkpt>
      <trkpt lat="46.00077" lon="0.63417">
        <ele>159.72</ele>
        <time>2021-08-04T21:09:34Z</time>
      </trkpt>
      <trkpt lat="45.998" lon="0.63201">
        <ele>175.58</ele>
        <time>2021-08-04T21:09:49Z</time>
      </trkpt>
      <trkpt lat="45.99441" lon="0.62917">
        <ele>193.36</ele>
        <time>2021-08-04T21:10:08Z</time>
      </trkpt>
      <trkpt lat="45.99182" lon="0.62689">
        <ele>201.05</ele>
        <time>2021-08-04T21:10:22Z</time>
      </trkpt>
      <trkpt lat="45.99065" lon="0.62494">
        <ele>208.26</ele>
        <time>2021-08-04T21:10:30Z</time>
      </trkpt>
      <trkpt lat="45.98985" lon="0.62267">
        <ele>207.78</ele>
        <time>2021-08-04T21:10:38Z</time>
      </trkpt>
      <trkpt lat="45.98934" lon="0.61932">
        <ele>209.22</ele>
        <time>2021-08-04T21:10:49Z</time>
      </trkpt>
      <trkpt lat="45.98847" lon="0.61257">
        <ele>212.11</ele>
        <time>2021-08-04T21:11:11Z</time>
      </trkpt>
      <trkpt lat="45.98787" lon="0.61019">
        <ele>213.55</ele>
        <time>2021-08-04T21:11:19Z</time>
      </trkpt>
      <trkpt lat="45.98653" lon="0.6075">
        <ele>214.99</ele>
        <time>2021-08-04T21:11:29Z</time>
      </trkpt>
      <trkpt lat="45.98435" lon="0.60434">
        <ele>215.47</ele>
        <time>2021-08-04T21:11:42Z</time>
      </trkpt>
      <trkpt lat="45.98217" lon="0.602">
        <ele>217.88</ele>
        <time>2021-08-04T21:11:55Z</time>
      </trkpt>
      <trkpt lat="45.97851" lon="0.59842">
        <ele>221.72</ele>
        <time>2021-08-04T21:12:15Z</time>
      </trkpt>
      <trkpt lat="45.97389" lon="0.59394">
        <ele>217.4</ele>
        <time>2021-08-04T21:12:38Z</time>
      </trkpt>
      <trkpt lat="45.96992" lon="0.59005">
        <ele>214.99</ele>
        <time>2021-08-04T21:13:00Z</time>
      </trkpt>
      <trkpt lat="45.9674" lon="0.58722">
        <ele>205.86</ele>
        <time>2021-08-04T21:13:14Z</time>
      </trkpt>
      <trkpt lat="45.96424" lon="0.58277">
        <ele>190.96</ele>
        <time>2021-08-04T21:13:33Z</time>
      </trkpt>
      <trkpt lat="45.96227" lon="0.58037">
        <ele>179.42</ele>
        <time>2021-08-04T21:13:44Z</time>
      </trkpt>
      <trkpt lat="45.96001" lon="0.57785">
        <ele>190</ele>
        <time>2021-08-04T21:13:57Z</time>
      </trkpt>
      <trkpt lat="45.95778" lon="0.57537">
        <ele>197.21</ele>
        <time>2021-08-04T21:14:10Z</time>
      </trkpt>
      <trkpt lat="45.95508" lon="0.57232">
        <ele>202.49</ele>
        <time>2021-08-04T21:14:25Z</time>
      </trkpt>
      <trkpt lat="45.95366" lon="0.57005">
        <ele>201.05</ele>
        <time>2021-08-04T21:14:35Z</time>
      </trkpt>
      <trkpt lat="45.95161" lon="0.56574">
        <ele>208.26</ele>
        <time>2021-08-04T21:14:51Z</time>
      </trkpt>
      <trkpt lat="45.94961" lon="0.56132">
        <ele>200.57</ele>
        <time>2021-08-04T21:15:06Z</time>
      </trkpt>
      <trkpt lat="45.94719" lon="0.55605">
        <ele>195.77</ele>
        <time>2021-08-04T21:15:25Z</time>
      </trkpt>
      <trkpt lat="45.9452" lon="0.55184">
        <ele>188.56</ele>
        <time>2021-08-04T21:15:41Z</time>
      </trkpt>
      <trkpt lat="45.94364" lon="0.54913">
        <ele>177.98</ele>
        <time>2021-08-04T21:15:52Z</time>
      </trkpt>
      <trkpt lat="45.94247" lon="0.54641">
        <ele>168.37</ele>
        <time>2021-08-04T21:16:02Z</time>
      </trkpt>
      <trkpt lat="45.94186" lon="0.54364">
        <ele>158.27</ele>
        <time>2021-08-04T21:16:11Z</time>
      </trkpt>
      <trkpt lat="45.94131" lon="0.54126">
        <ele>160.68</ele>
        <time>2021-08-04T21:16:19Z</time>
      </trkpt>
      <trkpt lat="45.94038" lon="0.53966">
        <ele>164.04</ele>
        <time>2021-08-04T21:16:26Z</time>
      </trkpt>
      <trkpt lat="45.93925" lon="0.53867">
        <ele>169.81</ele>
        <time>2021-08-04T21:16:33Z</time>
      </trkpt>
      <trkpt lat="45.93677" lon="0.53705">
        <ele>177.98</ele>
        <time>2021-08-04T21:16:49Z</time>
      </trkpt>
      <trkpt lat="45.93564" lon="0.53592">
        <ele>178.94</ele>
        <time>2021-08-04T21:16:56Z</time>
      </trkpt>
      <trkpt lat="45.93448" lon="0.53424">
        <ele>177.02</ele>
        <time>2021-08-04T21:17:05Z</time>
      </trkpt>
      <trkpt lat="45.93122" lon="0.52944">
        <ele>177.02</ele>
        <time>2021-08-04T21:17:26Z</time>
      </trkpt>
      <trkpt lat="45.92817" lon="0.52499">
        <ele>179.9</ele>
        <time>2021-08-04T21:17:45Z</time>
      </trkpt>
      <trkpt lat="45.92489" lon="0.52018">
        <ele>182.79</ele>
        <time>2021-08-04T21:18:05Z</time>
      </trkpt>
      <trkpt lat="45.92133" lon="0.51497">
        <ele>183.27</ele>
        <time>2021-08-04T21:18:29Z</time>
      </trkpt>
      <trkpt lat="45.91849" lon="0.5107">
        <ele>179.9</ele>
        <time>2021-08-04T21:18:47Z</time>
      </trkpt>
      <trkpt lat="45.91739" lon="0.50796">
        <ele>170.77</ele>
        <time>2021-08-04T21:18:56Z</time>
      </trkpt>
      <trkpt lat="45.91646" lon="0.50446">
        <ele>178.94</ele>
        <time>2021-08-04T21:19:09Z</time>
      </trkpt>
      <trkpt lat="45.915" lon="0.49884">
        <ele>189.04</ele>
        <time>2021-08-04T21:19:28Z</time>
      </trkpt>
      <trkpt lat="45.91405" lon="0.49619">
        <ele>203.46</ele>
        <time>2021-08-04T21:19:38Z</time>
      </trkpt>
      <trkpt lat="45.91289" lon="0.49419">
        <ele>211.15</ele>
        <time>2021-08-04T21:19:46Z</time>
      </trkpt>
      <trkpt lat="45.91099" lon="0.49217">
        <ele>214.03</ele>
        <time>2021-08-04T21:19:57Z</time>
      </trkpt>
      <trkpt lat="45.90856" lon="0.48959">
        <ele>209.7</ele>
        <time>2021-08-04T21:20:10Z</time>
      </trkpt>
      <trkpt lat="45.90708" lon="0.48737">
        <ele>213.07</ele>
        <time>2021-08-04T21:20:19Z</time>
      </trkpt>
      <trkpt lat="45.90526" lon="0.48528">
        <ele>206.34</ele>
        <time>2021-08-04T21:20:29Z</time>
      </trkpt>
      <trkpt lat="45.90143" lon="0.48089">
        <ele>178.94</ele>
        <time>2021-08-04T21:20:50Z</time>
      </trkpt>
      <trkpt lat="45.89958" lon="0.47911">
        <ele>168.85</ele>
        <time>2021-08-04T21:21:00Z</time>
      </trkpt>
      <trkpt lat="45.89762" lon="0.47819">
        <ele>161.64</ele>
        <time>2021-08-04T21:21:09Z</time>
      </trkpt>
      <trkpt lat="45.894" lon="0.47674">
        <ele>153.47</ele>
        <time>2021-08-04T21:21:25Z</time>
      </trkpt>
      <trkpt lat="45.89146" lon="0.47544">
        <ele>138.57</ele>
        <time>2021-08-04T21:21:38Z</time>
      </trkpt>
      <trkpt lat="45.89045" lon="0.47412">
        <ele>130.4</ele>
        <time>2021-08-04T21:21:44Z</time>
      </trkpt>
      <trkpt lat="45.88987" lon="0.47256">
        <ele>123.19</ele>
        <time>2021-08-04T21:21:50Z</time>
      </trkpt>
      <trkpt lat="45.88967" lon="0.47156">
        <ele>121.26</ele>
        <time>2021-08-04T21:21:55Z</time>
      </trkpt>
      <trkpt lat="45.88966" lon="0.47148">
        <ele>121.74</ele>
        <time>2021-08-04T21:21:56Z</time>
      </trkpt>
      <trkpt lat="45.88966" lon="0.47148">
        <ele>121.74</ele>
        <time>2021-08-04T21:21:57Z</time>
      </trkpt>
      <trkpt lat="45.88972" lon="0.47137">
        <ele>121.74</ele>
        <time>2021-08-04T21:21:58Z</time>
      </trkpt>
      <trkpt lat="45.88981" lon="0.47126">
        <ele>121.74</ele>
        <time>2021-08-04T21:21:59Z</time>
      </trkpt>
      <trkpt lat="45.88982" lon="0.47111">
        <ele>122.22</ele>
        <time>2021-08-04T21:22:00Z</time>
      </trkpt>
      <trkpt lat="45.88981" lon="0.47101">
        <ele>121.74</ele>
        <time>2021-08-04T21:22:01Z</time>
      </trkpt>
      <trkpt lat="45.88981" lon="0.47095">
        <ele>121.74</ele>
        <time>2021-08-04T21:22:02Z</time>
      </trkpt>
      <trkpt lat="45.88981" lon="0.47095">
        <ele>121.26</ele>
        <time>2021-08-04T21:22:03Z</time>
      </trkpt>
      <trkpt lat="45.88972" lon="0.47087">
        <ele>120.78</ele>
        <time>2021-08-04T21:22:04Z</time>
      </trkpt>
      <trkpt lat="45.88965" lon="0.47081">
        <ele>120.3</ele>
        <time>2021-08-04T21:22:05Z</time>
      </trkpt>
      <trkpt lat="45.88958" lon="0.47081">
        <ele>119.82</ele>
        <time>2021-08-04T21:22:06Z</time>
      </trkpt>
      <trkpt lat="45.88951" lon="0.47082">
        <ele>119.34</ele>
        <time>2021-08-04T21:22:07Z</time>
      </trkpt>
      <trkpt lat="45.88935" lon="0.4709">
        <ele>118.86</ele>
        <time>2021-08-04T21:22:08Z</time>
      </trkpt>
      <trkpt lat="45.88926" lon="0.47083">
        <ele>118.38</ele>
        <time>2021-08-04T21:22:09Z</time>
      </trkpt>
      <trkpt lat="45.88916" lon="0.47075">
        <ele>117.9</ele>
        <time>2021-08-04T21:22:10Z</time>
      </trkpt>
      <trkpt lat="45.88818" lon="0.47006">
        <ele>117.9</ele>
        <time>2021-08-04T21:22:17Z</time>
      </trkpt>
      <trkpt lat="45.88652" lon="0.46919">
        <ele>126.55</ele>
        <time>2021-08-04T21:22:26Z</time>
      </trkpt>
      <trkpt lat="45.88509" lon="0.46911">
        <ele>134.72</ele>
        <time>2021-08-04T21:22:33Z</time>
      </trkpt>
      <trkpt lat="45.88117" lon="0.46988">
        <ele>144.82</ele>
        <time>2021-08-04T21:22:52Z</time>
      </trkpt>
      <trkpt lat="45.87932" lon="0.46957">
        <ele>149.62</ele>
        <time>2021-08-04T21:22:59Z</time>
      </trkpt>
      <trkpt lat="45.87508" lon="0.4681">
        <ele>160.68</ele>
        <time>2021-08-04T21:23:18Z</time>
      </trkpt>
      <trkpt lat="45.87194" lon="0.46704">
        <ele>153.95</ele>
        <time>2021-08-04T21:23:30Z</time>
      </trkpt>
      <trkpt lat="45.86977" lon="0.46632">
        <ele>152.03</ele>
        <time>2021-08-04T21:23:38Z</time>
      </trkpt>
      <trkpt lat="45.86713" lon="0.46558">
        <ele>145.3</ele>
        <time>2021-08-04T21:23:52Z</time>
      </trkpt>
      <trkpt lat="45.86563" lon="0.4659">
        <ele>144.82</ele>
        <time>2021-08-04T21:23:59Z</time>
      </trkpt>
      <trkpt lat="45.86249" lon="0.46704">
        <ele>148.18</ele>
        <time>2021-08-04T21:24:14Z</time>
      </trkpt>
      <trkpt lat="45.86099" lon="0.46724">
        <ele>149.14</ele>
        <time>2021-08-04T21:24:21Z</time>
      </trkpt>
      <trkpt lat="45.85975" lon="0.46671">
        <ele>150.1</ele>
        <time>2021-08-04T21:24:27Z</time>
      </trkpt>
      <trkpt lat="45.85765" lon="0.46506">
        <ele>147.7</ele>
        <time>2021-08-04T21:24:38Z</time>
      </trkpt>
      <trkpt lat="45.85616" lon="0.46434">
        <ele>146.74</ele>
        <time>2021-08-04T21:24:45Z</time>
      </trkpt>
      <trkpt lat="45.85239" lon="0.46314">
        <ele>148.66</ele>
        <time>2021-08-04T21:25:02Z</time>
      </trkpt>
      <trkpt lat="45.8491" lon="0.46209">
        <ele>146.26</ele>
        <time>2021-08-04T21:25:18Z</time>
      </trkpt>
      <trkpt lat="45.84432" lon="0.46056">
        <ele>131.36</ele>
        <time>2021-08-04T21:25:41Z</time>
      </trkpt>
      <trkpt lat="45.84239" lon="0.4605">
        <ele>128.95</ele>
        <time>2021-08-04T21:25:50Z</time>
      </trkpt>
      <trkpt lat="45.84052" lon="0.46104">
        <ele>129.43</ele>
        <time>2021-08-04T21:25:58Z</time>
      </trkpt>
      <trkpt lat="45.83867" lon="0.46234">
        <ele>128.95</ele>
        <time>2021-08-04T21:26:06Z</time>
      </trkpt>
      <trkpt lat="45.83641" lon="0.46476">
        <ele>124.15</ele>
        <time>2021-08-04T21:26:17Z</time>
      </trkpt>
      <trkpt lat="45.83382" lon="0.4676">
        <ele>123.67</ele>
        <time>2021-08-04T21:26:31Z</time>
      </trkpt>
      <trkpt lat="45.83286" lon="0.46857">
        <ele>127.51</ele>
        <time>2021-08-04T21:26:37Z</time>
      </trkpt>
      <trkpt lat="45.83266" lon="0.46872">
        <ele>127.51</ele>
        <time>2021-08-04T21:26:39Z</time>
      </trkpt>
      <trkpt lat="45.83266" lon="0.46872">
        <ele>127.51</ele>
        <time>2021-08-04T21:26:40Z</time>
      </trkpt>
      <trkpt lat="45.83256" lon="0.46878">
        <ele>126.55</ele>
        <time>2021-08-04T21:26:41Z</time>
      </trkpt>
      <trkpt lat="45.83249" lon="0.46882">
        <ele>126.07</ele>
        <time>2021-08-04T21:26:42Z</time>
      </trkpt>
      <trkpt lat="45.83243" lon="0.46886">
        <ele>125.59</ele>
        <time>2021-08-04T21:26:43Z</time>
      </trkpt>
      <trkpt lat="45.83235" lon="0.46878">
        <ele>126.07</ele>
        <time>2021-08-04T21:26:44Z</time>
      </trkpt>
      <trkpt lat="45.83231" lon="0.46872">
        <ele>125.59</ele>
        <time>2021-08-04T21:26:45Z</time>
      </trkpt>
      <trkpt lat="45.8321" lon="0.46864">
        <ele>124.63</ele>
        <time>2021-08-04T21:26:48Z</time>
      </trkpt>
      <trkpt lat="45.832" lon="0.46859">
        <ele>124.15</ele>
        <time>2021-08-04T21:26:49Z</time>
      </trkpt>
      <trkpt lat="45.83197" lon="0.46848">
        <ele>125.11</ele>
        <time>2021-08-04T21:26:50Z</time>
      </trkpt>
      <trkpt lat="45.83144" lon="0.46694">
        <ele>126.55</ele>
        <time>2021-08-04T21:27:00Z</time>
      </trkpt>
      <trkpt lat="45.8311" lon="0.46624">
        <ele>125.11</ele>
        <time>2021-08-04T21:27:04Z</time>
      </trkpt>
      <trkpt lat="45.82995" lon="0.46477">
        <ele>126.07</ele>
        <time>2021-08-04T21:27:13Z</time>
      </trkpt>
      <trkpt lat="45.8279" lon="0.46247">
        <ele>124.15</ele>
        <time>2021-08-04T21:27:26Z</time>
      </trkpt>
      <trkpt lat="45.82611" lon="0.46038">
        <ele>123.67</ele>
        <time>2021-08-04T21:27:36Z</time>
      </trkpt>
      <trkpt lat="45.82373" lon="0.45796">
        <ele>121.26</ele>
        <time>2021-08-04T21:27:46Z</time>
      </trkpt>
      <trkpt lat="45.82198" lon="0.45697">
        <ele>118.86</ele>
        <time>2021-08-04T21:27:54Z</time>
      </trkpt>
      <trkpt lat="45.8186" lon="0.45582">
        <ele>118.86</ele>
        <time>2021-08-04T21:28:07Z</time>
      </trkpt>
      <trkpt lat="45.81621" lon="0.45418">
        <ele>118.38</ele>
        <time>2021-08-04T21:28:16Z</time>
      </trkpt>
      <trkpt lat="45.81407" lon="0.45202">
        <ele>119.34</ele>
        <time>2021-08-04T21:28:27Z</time>
      </trkpt>
      <trkpt lat="45.81031" lon="0.44806">
        <ele>128.95</ele>
        <time>2021-08-04T21:28:45Z</time>
      </trkpt>
      <trkpt lat="45.80676" lon="0.4443">
        <ele>121.74</ele>
        <time>2021-08-04T21:29:01Z</time>
      </trkpt>
      <trkpt lat="45.80282" lon="0.4401">
        <ele>119.34</ele>
        <time>2021-08-04T21:29:19Z</time>
      </trkpt>
      <trkpt lat="45.79859" lon="0.43561">
        <ele>126.07</ele>
        <time>2021-08-04T21:29:39Z</time>
      </trkpt>
      <trkpt lat="45.79511" lon="0.4317">
        <ele>135.2</ele>
        <time>2021-08-04T21:29:56Z</time>
      </trkpt>
      <trkpt lat="45.79362" lon="0.4291">
        <ele>134.24</ele>
        <time>2021-08-04T21:30:05Z</time>
      </trkpt>
      <trkpt lat="45.7925" lon="0.42603">
        <ele>125.59</ele>
        <time>2021-08-04T21:30:14Z</time>
      </trkpt>
      <trkpt lat="45.79069" lon="0.41996">
        <ele>117.42</ele>
        <time>2021-08-04T21:30:30Z</time>
      </trkpt>
      <trkpt lat="45.78948" lon="0.41742">
        <ele>114.05</ele>
        <time>2021-08-04T21:30:39Z</time>
      </trkpt>
      <trkpt lat="45.78774" lon="0.415">
        <ele>110.21</ele>
        <time>2021-08-04T21:30:48Z</time>
      </trkpt>
      <trkpt lat="45.78496" lon="0.4114">
        <ele>103</ele>
        <time>2021-08-04T21:31:02Z</time>
      </trkpt>
      <trkpt lat="45.78279" lon="0.40862">
        <ele>101.56</ele>
        <time>2021-08-04T21:31:13Z</time>
      </trkpt>
      <trkpt lat="45.78075" lon="0.40693">
        <ele>97.71</ele>
        <time>2021-08-04T21:31:22Z</time>
      </trkpt>
      <trkpt lat="45.77555" lon="0.40353">
        <ele>106.84</ele>
        <time>2021-08-04T21:31:44Z</time>
      </trkpt>
      <trkpt lat="45.76951" lon="0.39962">
        <ele>129.92</ele>
        <time>2021-08-04T21:32:09Z</time>
      </trkpt>
      <trkpt lat="45.7654" lon="0.39694">
        <ele>132.8</ele>
        <time>2021-08-04T21:32:26Z</time>
      </trkpt>
      <trkpt lat="45.76127" lon="0.39418">
        <ele>130.4</ele>
        <time>2021-08-04T21:32:43Z</time>
      </trkpt>
      <trkpt lat="45.75803" lon="0.39138">
        <ele>127.51</ele>
        <time>2021-08-04T21:32:57Z</time>
      </trkpt>
      <trkpt lat="45.75626" lon="0.38908">
        <ele>120.3</ele>
        <time>2021-08-04T21:33:06Z</time>
      </trkpt>
      <trkpt lat="45.75484" lon="0.38621">
        <ele>108.29</ele>
        <time>2021-08-04T21:33:15Z</time>
      </trkpt>
      <trkpt lat="45.75387" lon="0.38305">
        <ele>94.83</ele>
        <time>2021-08-04T21:33:24Z</time>
      </trkpt>
      <trkpt lat="45.75301" lon="0.37825">
        <ele>82.33</ele>
        <time>2021-08-04T21:33:37Z</time>
      </trkpt>
      <trkpt lat="45.75216" lon="0.37369">
        <ele>84.25</ele>
        <time>2021-08-04T21:33:50Z</time>
      </trkpt>
      <trkpt lat="45.75111" lon="0.37091">
        <ele>87.62</ele>
        <time>2021-08-04T21:33:59Z</time>
      </trkpt>
      <trkpt lat="45.74973" lon="0.36871">
        <ele>87.14</ele>
        <time>2021-08-04T21:34:07Z</time>
      </trkpt>
      <trkpt lat="45.748" lon="0.36696">
        <ele>88.58</ele>
        <time>2021-08-04T21:34:15Z</time>
      </trkpt>
      <trkpt lat="45.74535" lon="0.36473">
        <ele>95.31</ele>
        <time>2021-08-04T21:34:27Z</time>
      </trkpt>
      <trkpt lat="45.74391" lon="0.36268">
        <ele>102.04</ele>
        <time>2021-08-04T21:34:35Z</time>
      </trkpt>
      <trkpt lat="45.74284" lon="0.36027">
        <ele>106.84</ele>
        <time>2021-08-04T21:34:43Z</time>
      </trkpt>
      <trkpt lat="45.74195" lon="0.35682">
        <ele>106.36</ele>
        <time>2021-08-04T21:34:53Z</time>
      </trkpt>
      <trkpt lat="45.74053" lon="0.35096">
        <ele>103.48</ele>
        <time>2021-08-04T21:35:10Z</time>
      </trkpt>
      <trkpt lat="45.73946" lon="0.34722">
        <ele>102.52</ele>
        <time>2021-08-04T21:35:21Z</time>
      </trkpt>
      <trkpt lat="45.73824" lon="0.34481">
        <ele>96.75</ele>
        <time>2021-08-04T21:35:29Z</time>
      </trkpt>
      <trkpt lat="45.73537" lon="0.34029">
        <ele>84.25</ele>
        <time>2021-08-04T21:35:45Z</time>
      </trkpt>
      <trkpt lat="45.73349" lon="0.33774">
        <ele>87.14</ele>
        <time>2021-08-04T21:35:55Z</time>
      </trkpt>
      <trkpt lat="45.73101" lon="0.33433">
        <ele>95.79</ele>
        <time>2021-08-04T21:36:09Z</time>
      </trkpt>
      <trkpt lat="45.72813" lon="0.32962">
        <ele>111.17</ele>
        <time>2021-08-04T21:36:26Z</time>
      </trkpt>
      <trkpt lat="45.72523" lon="0.32474">
        <ele>115.01</ele>
        <time>2021-08-04T21:36:45Z</time>
      </trkpt>
      <trkpt lat="45.72355" lon="0.32077">
        <ele>123.19</ele>
        <time>2021-08-04T21:36:58Z</time>
      </trkpt>
      <trkpt lat="45.7207" lon="0.31392">
        <ele>121.26</ele>
        <time>2021-08-04T21:37:20Z</time>
      </trkpt>
      <trkpt lat="45.71822" lon="0.30796">
        <ele>120.3</ele>
        <time>2021-08-04T21:37:38Z</time>
      </trkpt>
      <trkpt lat="45.71613" lon="0.303">
        <ele>126.55</ele>
        <time>2021-08-04T21:37:54Z</time>
      </trkpt>
      <trkpt lat="45.71387" lon="0.29758">
        <ele>131.36</ele>
        <time>2021-08-04T21:38:12Z</time>
      </trkpt>
      <trkpt lat="45.71133" lon="0.29147">
        <ele>131.84</ele>
        <time>2021-08-04T21:38:31Z</time>
      </trkpt>
      <trkpt lat="45.71016" lon="0.28782">
        <ele>141.93</ele>
        <time>2021-08-04T21:38:42Z</time>
      </trkpt>
      <trkpt lat="45.70938" lon="0.28401">
        <ele>149.14</ele>
        <time>2021-08-04T21:38:53Z</time>
      </trkpt>
      <trkpt lat="45.70897" lon="0.28">
        <ele>145.3</ele>
        <time>2021-08-04T21:39:04Z</time>
      </trkpt>
      <trkpt lat="45.70846" lon="0.27657">
        <ele>139.05</ele>
        <time>2021-08-04T21:39:13Z</time>
      </trkpt>
      <trkpt lat="45.70747" lon="0.2734">
        <ele>139.53</ele>
        <time>2021-08-04T21:39:22Z</time>
      </trkpt>
      <trkpt lat="45.70508" lon="0.26761">
        <ele>141.45</ele>
        <time>2021-08-04T21:39:39Z</time>
      </trkpt>
      <trkpt lat="45.70328" lon="0.26455">
        <ele>142.41</ele>
        <time>2021-08-04T21:39:51Z</time>
      </trkpt>
      <trkpt lat="45.7014" lon="0.26108">
        <ele>149.14</ele>
        <time>2021-08-04T21:40:03Z</time>
      </trkpt>
      <trkpt lat="45.7002" lon="0.2575">
        <ele>151.06</ele>
        <time>2021-08-04T21:40:14Z</time>
      </trkpt>
      <trkpt lat="45.69837" lon="0.25128">
        <ele>145.3</ele>
        <time>2021-08-04T21:40:32Z</time>
      </trkpt>
      <trkpt lat="45.696" lon="0.24484">
        <ele>135.68</ele>
        <time>2021-08-04T21:40:51Z</time>
      </trkpt>
      <trkpt lat="45.69354" lon="0.2382">
        <ele>115.01</ele>
        <time>2021-08-04T21:41:10Z</time>
      </trkpt>
      <trkpt lat="45.69104" lon="0.23115">
        <ele>91.46</ele>
        <time>2021-08-04T21:41:30Z</time>
      </trkpt>
      <trkpt lat="45.68954" lon="0.22569">
        <ele>80.41</ele>
        <time>2021-08-04T21:41:45Z</time>
      </trkpt>
      <trkpt lat="45.68806" lon="0.21877">
        <ele>87.62</ele>
        <time>2021-08-04T21:42:04Z</time>
      </trkpt>
      <trkpt lat="45.68647" lon="0.21059">
        <ele>90.98</ele>
        <time>2021-08-04T21:42:25Z</time>
      </trkpt>
      <trkpt lat="45.68618" lon="0.20706">
        <ele>87.14</ele>
        <time>2021-08-04T21:42:35Z</time>
      </trkpt>
      <trkpt lat="45.68631" lon="0.20314">
        <ele>84.73</ele>
        <time>2021-08-04T21:42:45Z</time>
      </trkpt>
      <trkpt lat="45.68706" lon="0.19785">
        <ele>74.16</ele>
        <time>2021-08-04T21:42:59Z</time>
      </trkpt>
      <trkpt lat="45.68818" lon="0.19511">
        <ele>64.07</ele>
        <time>2021-08-04T21:43:06Z</time>
      </trkpt>
      <trkpt lat="45.68935" lon="0.19332">
        <ele>61.18</ele>
        <time>2021-08-04T21:43:13Z</time>
      </trkpt>
      <trkpt lat="45.69095" lon="0.19182">
        <ele>70.79</ele>
        <time>2021-08-04T21:43:20Z</time>
      </trkpt>
      <trkpt lat="45.69357" lon="0.18985">
        <ele>83.77</ele>
        <time>2021-08-04T21:43:32Z</time>
      </trkpt>
      <trkpt lat="45.69538" lon="0.1882">
        <ele>85.69</ele>
        <time>2021-08-04T21:43:41Z</time>
      </trkpt>
      <trkpt lat="45.69583" lon="0.18747">
        <ele>85.21</ele>
        <time>2021-08-04T21:43:44Z</time>
      </trkpt>
      <trkpt lat="45.69596" lon="0.18717">
        <ele>85.69</ele>
        <time>2021-08-04T21:43:45Z</time>
      </trkpt>
      <trkpt lat="45.69649" lon="0.18515">
        <ele>82.81</ele>
        <time>2021-08-04T21:43:52Z</time>
      </trkpt>
      <trkpt lat="45.69643" lon="0.18291">
        <ele>78.48</ele>
        <time>2021-08-04T21:43:58Z</time>
      </trkpt>
      <trkpt lat="45.69581" lon="0.18072">
        <ele>74.64</ele>
        <time>2021-08-04T21:44:05Z</time>
      </trkpt>
      <trkpt lat="45.69553" lon="0.17916">
        <ele>71.27</ele>
        <time>2021-08-04T21:44:11Z</time>
      </trkpt>
      <trkpt lat="45.69539" lon="0.17489">
        <ele>61.66</ele>
        <time>2021-08-04T21:44:24Z</time>
      </trkpt>
      <trkpt lat="45.69532" lon="0.17458">
        <ele>61.18</ele>
        <time>2021-08-04T21:44:25Z</time>
      </trkpt>
      <trkpt lat="45.69514" lon="0.17398">
        <ele>60.7</ele>
        <time>2021-08-04T21:44:26Z</time>
      </trkpt>
      <trkpt lat="45.69424" lon="0.17183">
        <ele>56.37</ele>
        <time>2021-08-04T21:44:35Z</time>
      </trkpt>
      <trkpt lat="45.69379" lon="0.16935">
        <ele>53.49</ele>
        <time>2021-08-04T21:44:42Z</time>
      </trkpt>
      <trkpt lat="45.69329" lon="0.1664">
        <ele>54.93</ele>
        <time>2021-08-04T21:44:52Z</time>
      </trkpt>
      <trkpt lat="45.69254" lon="0.16326">
        <ele>58.78</ele>
        <time>2021-08-04T21:45:02Z</time>
      </trkpt>
      <trkpt lat="45.69148" lon="0.16123">
        <ele>61.66</ele>
        <time>2021-08-04T21:45:10Z</time>
      </trkpt>
      <trkpt lat="45.69003" lon="0.15966">
        <ele>63.1</ele>
        <time>2021-08-04T21:45:18Z</time>
      </trkpt>
      <trkpt lat="45.68664" lon="0.15696">
        <ele>49.65</ele>
        <time>2021-08-04T21:45:34Z</time>
      </trkpt>
      <trkpt lat="45.68403" lon="0.1546">
        <ele>40.03</ele>
        <time>2021-08-04T21:45:46Z</time>
      </trkpt>
      <trkpt lat="45.68147" lon="0.15194">
        <ele>39.55</ele>
        <time>2021-08-04T21:45:58Z</time>
      </trkpt>
      <trkpt lat="45.67921" lon="0.14922">
        <ele>43.4</ele>
        <time>2021-08-04T21:46:10Z</time>
      </trkpt>
      <trkpt lat="45.67722" lon="0.14657">
        <ele>47.24</ele>
        <time>2021-08-04T21:46:23Z</time>
      </trkpt>
      <trkpt lat="45.67499" lon="0.14336">
        <ele>49.16</ele>
        <time>2021-08-04T21:46:38Z</time>
      </trkpt>
      <trkpt lat="45.67456" lon="0.14262">
        <ele>49.16</ele>
        <time>2021-08-04T21:46:43Z</time>
      </trkpt>
      <trkpt lat="45.67448" lon="0.1424">
        <ele>49.65</ele>
        <time>2021-08-04T21:46:44Z</time>
      </trkpt>
      <trkpt lat="45.67442" lon="0.14218">
        <ele>51.09</ele>
        <time>2021-08-04T21:46:45Z</time>
      </trkpt>
      <trkpt lat="45.67438" lon="0.14197">
        <ele>51.57</ele>
        <time>2021-08-04T21:46:46Z</time>
      </trkpt>
      <trkpt lat="45.67436" lon="0.14175">
        <ele>53.01</ele>
        <time>2021-08-04T21:46:47Z</time>
      </trkpt>
      <trkpt lat="45.67438" lon="0.14135">
        <ele>53.97</ele>
        <time>2021-08-04T21:46:48Z</time>
      </trkpt>
      <trkpt lat="45.67438" lon="0.14135">
        <ele>54.45</ele>
        <time>2021-08-04T21:46:49Z</time>
      </trkpt>
      <trkpt lat="45.6744" lon="0.14115">
        <ele>54.93</ele>
        <time>2021-08-04T21:46:50Z</time>
      </trkpt>
      <trkpt lat="45.67441" lon="0.14096">
        <ele>55.41</ele>
        <time>2021-08-04T21:46:51Z</time>
      </trkpt>
      <trkpt lat="45.67446" lon="0.1408">
        <ele>56.86</ele>
        <time>2021-08-04T21:46:52Z</time>
      </trkpt>
      <trkpt lat="45.67452" lon="0.14063">
        <ele>56.86</ele>
        <time>2021-08-04T21:46:53Z</time>
      </trkpt>
      <trkpt lat="45.67458" lon="0.14046">
        <ele>56.86</ele>
        <time>2021-08-04T21:46:54Z</time>
      </trkpt>
      <trkpt lat="45.67524" lon="0.13886">
        <ele>56.86</ele>
        <time>2021-08-04T21:47:02Z</time>
      </trkpt>
      <trkpt lat="45.67646" lon="0.13691">
        <ele>59.26</ele>
        <time>2021-08-04T21:47:12Z</time>
      </trkpt>
      <trkpt lat="45.6782" lon="0.13449">
        <ele>62.62</ele>
        <time>2021-08-04T21:47:25Z</time>
      </trkpt>
      <trkpt lat="45.67952" lon="0.13318">
        <ele>70.31</ele>
        <time>2021-08-04T21:47:35Z</time>
      </trkpt>
      <trkpt lat="45.67962" lon="0.13311">
        <ele>71.27</ele>
        <time>2021-08-04T21:47:36Z</time>
      </trkpt>
      <trkpt lat="45.6797" lon="0.13305">
        <ele>71.27</ele>
        <time>2021-08-04T21:47:37Z</time>
      </trkpt>
      <trkpt lat="45.67977" lon="0.133">
        <ele>71.27</ele>
        <time>2021-08-04T21:47:38Z</time>
      </trkpt>
      <trkpt lat="45.67982" lon="0.13303">
        <ele>70.79</ele>
        <time>2021-08-04T21:47:39Z</time>
      </trkpt>
      <trkpt lat="45.67989" lon="0.13308">
        <ele>69.83</ele>
        <time>2021-08-04T21:47:40Z</time>
      </trkpt>
      <trkpt lat="45.68001" lon="0.13315">
        <ele>68.87</ele>
        <time>2021-08-04T21:47:41Z</time>
      </trkpt>
      <trkpt lat="45.68002" lon="0.13327">
        <ele>67.91</ele>
        <time>2021-08-04T21:47:42Z</time>
      </trkpt>
      <trkpt lat="45.68002" lon="0.13327">
        <ele>66.47</ele>
        <time>2021-08-04T21:47:43Z</time>
      </trkpt>
      <trkpt lat="45.68003" lon="0.13341">
        <ele>65.51</ele>
        <time>2021-08-04T21:47:44Z</time>
      </trkpt>
      <trkpt lat="45.68005" lon="0.13358">
        <ele>63.58</ele>
        <time>2021-08-04T21:47:45Z</time>
      </trkpt>
      <trkpt lat="45.68003" lon="0.13375">
        <ele>63.58</ele>
        <time>2021-08-04T21:47:46Z</time>
      </trkpt>
      <trkpt lat="45.68" lon="0.1339">
        <ele>62.62</ele>
        <time>2021-08-04T21:47:47Z</time>
      </trkpt>
      <trkpt lat="45.67983" lon="0.13418">
        <ele>62.14</ele>
        <time>2021-08-04T21:47:48Z</time>
      </trkpt>
      <trkpt lat="45.6797" lon="0.13429">
        <ele>61.18</ele>
        <time>2021-08-04T21:47:49Z</time>
      </trkpt>
      <trkpt lat="45.6797" lon="0.13429">
        <ele>62.14</ele>
        <time>2021-08-04T21:47:50Z</time>
      </trkpt>
      <trkpt lat="45.67957" lon="0.13437">
        <ele>62.62</ele>
        <time>2021-08-04T21:47:51Z</time>
      </trkpt>
      <trkpt lat="45.67846" lon="0.13492">
        <ele>60.22</ele>
        <time>2021-08-04T21:47:59Z</time>
      </trkpt>
      <trkpt lat="45.67723" lon="0.1365">
        <ele>58.3</ele>
        <time>2021-08-04T21:48:08Z</time>
      </trkpt>
      <trkpt lat="45.67691" lon="0.13726">
        <ele>56.86</ele>
        <time>2021-08-04T21:48:14Z</time>
      </trkpt>
      <trkpt lat="45.67679" lon="0.13749">
        <ele>57.34</ele>
        <time>2021-08-04T21:48:15Z</time>
      </trkpt>
      <trkpt lat="45.67679" lon="0.13749">
        <ele>58.3</ele>
        <time>2021-08-04T21:48:16Z</time>
      </trkpt>
      <trkpt lat="45.67673" lon="0.13755">
        <ele>57.82</ele>
        <time>2021-08-04T21:48:17Z</time>
      </trkpt>
      <trkpt lat="45.67666" lon="0.1376">
        <ele>58.3</ele>
        <time>2021-08-04T21:48:18Z</time>
      </trkpt>
      <trkpt lat="45.67655" lon="0.13781">
        <ele>58.3</ele>
        <time>2021-08-04T21:48:19Z</time>
      </trkpt>
      <trkpt lat="45.67655" lon="0.13781">
        <ele>57.82</ele>
        <time>2021-08-04T21:48:20Z</time>
      </trkpt>
      <trkpt lat="45.67655" lon="0.13792">
        <ele>57.34</ele>
        <time>2021-08-04T21:48:21Z</time>
      </trkpt>
      <trkpt lat="45.67657" lon="0.13803">
        <ele>57.34</ele>
        <time>2021-08-04T21:48:22Z</time>
      </trkpt>
      <trkpt lat="45.67668" lon="0.13824">
        <ele>56.86</ele>
        <time>2021-08-04T21:48:23Z</time>
      </trkpt>
      <trkpt lat="45.67668" lon="0.13824">
        <ele>55.89</ele>
        <time>2021-08-04T21:48:24Z</time>
      </trkpt>
      <trkpt lat="45.6767" lon="0.13837">
        <ele>55.89</ele>
        <time>2021-08-04T21:48:25Z</time>
      </trkpt>
      <trkpt lat="45.67671" lon="0.13851">
        <ele>56.37</ele>
        <time>2021-08-04T21:48:26Z</time>
      </trkpt>
      <trkpt lat="45.67671" lon="0.13865">
        <ele>55.89</ele>
        <time>2021-08-04T21:48:27Z</time>
      </trkpt>
      <trkpt lat="45.67671" lon="0.13881">
        <ele>55.41</ele>
        <time>2021-08-04T21:48:28Z</time>
      </trkpt>
      <trkpt lat="45.67669" lon="0.13917">
        <ele>54.45</ele>
        <time>2021-08-04T21:48:30Z</time>
      </trkpt>
      <trkpt lat="45.67668" lon="0.13935">
        <ele>53.49</ele>
        <time>2021-08-04T21:48:31Z</time>
      </trkpt>
      <trkpt lat="45.67668" lon="0.13954">
        <ele>53.01</ele>
        <time>2021-08-04T21:48:32Z</time>
      </trkpt>
      <trkpt lat="45.67672" lon="0.13974">
        <ele>52.53</ele>
        <time>2021-08-04T21:48:33Z</time>
      </trkpt>
      <trkpt lat="45.67675" lon="0.13994">
        <ele>52.05</ele>
        <time>2021-08-04T21:48:34Z</time>
      </trkpt>
      <trkpt lat="45.67748" lon="0.14261">
        <ele>35.23</ele>
        <time>2021-08-04T21:48:46Z</time>
      </trkpt>
      <trkpt lat="45.6777" lon="0.14357">
        <ele>30.9</ele>
        <time>2021-08-04T21:48:52Z</time>
      </trkpt>
      <trkpt lat="45.67771" lon="0.14369">
        <ele>30.9</ele>
        <time>2021-08-04T21:48:53Z</time>
      </trkpt>
      <trkpt lat="45.67771" lon="0.1438">
        <ele>31.38</ele>
        <time>2021-08-04T21:48:54Z</time>
      </trkpt>
      <trkpt lat="45.67772" lon="0.14391">
        <ele>31.86</ele>
        <time>2021-08-04T21:48:55Z</time>
      </trkpt>
      <trkpt lat="45.67771" lon="0.14411">
        <ele>31.38</ele>
        <time>2021-08-04T21:48:57Z</time>
      </trkpt>
      <trkpt lat="45.6777" lon="0.14422">
        <ele>30.9</ele>
        <time>2021-08-04T21:48:58Z</time>
      </trkpt>
      <trkpt lat="45.67774" lon="0.14434">
        <ele>29.94</ele>
        <time>2021-08-04T21:48:59Z</time>
      </trkpt>
      <trkpt lat="45.67778" lon="0.14441">
        <ele>29.46</ele>
        <time>2021-08-04T21:49:00Z</time>
      </trkpt>
      <trkpt lat="45.67778" lon="0.14441">
        <ele>28.5</ele>
        <time>2021-08-04T21:49:01Z</time>
      </trkpt>
      <trkpt lat="45.67796" lon="0.14463">
        <ele>27.53</ele>
        <time>2021-08-04T21:49:02Z</time>
      </trkpt>
      <trkpt lat="45.67799" lon="0.14494">
        <ele>28.02</ele>
        <time>2021-08-04T21:49:03Z</time>
      </trkpt>
      <trkpt lat="45.678" lon="0.14512">
        <ele>29.46</ele>
        <time>2021-08-04T21:49:04Z</time>
      </trkpt>
      <trkpt lat="45.67813" lon="0.14709">
        <ele>30.42</ele>
        <time>2021-08-04T21:49:14Z</time>
      </trkpt>
      <trkpt lat="45.6782" lon="0.14876">
        <ele>31.38</ele>
        <time>2021-08-04T21:49:22Z</time>
      </trkpt>
      <trkpt lat="45.67821" lon="0.14888">
        <ele>31.38</ele>
        <time>2021-08-04T21:49:23Z</time>
      </trkpt>
      <trkpt lat="45.67821" lon="0.14898">
        <ele>30.9</ele>
        <time>2021-08-04T21:49:24Z</time>
      </trkpt>
      <trkpt lat="45.6781" lon="0.14907">
        <ele>30.42</ele>
        <time>2021-08-04T21:49:25Z</time>
      </trkpt>
      <trkpt lat="45.67809" lon="0.1493">
        <ele>29.94</ele>
        <time>2021-08-04T21:49:26Z</time>
      </trkpt>
      <trkpt lat="45.67812" lon="0.1494">
        <ele>29.94</ele>
        <time>2021-08-04T21:49:27Z</time>
      </trkpt>
      <trkpt lat="45.67812" lon="0.1494">
        <ele>29.46</ele>
        <time>2021-08-04T21:49:28Z</time>
      </trkpt>
      <trkpt lat="45.67813" lon="0.14941">
        <ele>29.46</ele>
        <time>2021-08-04T21:49:29Z</time>
      </trkpt>
      <trkpt lat="45.67826" lon="0.14962">
        <ele>29.46</ele>
        <time>2021-08-04T21:49:30Z</time>
      </trkpt>
      <trkpt lat="45.67827" lon="0.14975">
        <ele>29.46</ele>
        <time>2021-08-04T21:49:31Z</time>
      </trkpt>
      <trkpt lat="45.67836" lon="0.15135">
        <ele>29.94</ele>
        <time>2021-08-04T21:49:39Z</time>
      </trkpt>
      <trkpt lat="45.67852" lon="0.15449">
        <ele>34.26</ele>
        <time>2021-08-04T21:49:53Z</time>
      </trkpt>
      <trkpt lat="45.67857" lon="0.15533">
        <ele>32.34</ele>
        <time>2021-08-04T21:50:00Z</time>
      </trkpt>
      <trkpt lat="45.67864" lon="0.15649">
        <ele>38.11</ele>
        <time>2021-08-04T21:50:11Z</time>
      </trkpt>
      <trkpt lat="45.67866" lon="0.15688">
        <ele>39.07</ele>
        <time>2021-08-04T21:50:15Z</time>
      </trkpt>
      <trkpt lat="45.67865" lon="0.15702">
        <ele>38.59</ele>
        <time>2021-08-04T21:50:16Z</time>
      </trkpt>
      <trkpt lat="45.67865" lon="0.15702">
        <ele>38.59</ele>
        <time>2021-08-04T21:50:17Z</time>
      </trkpt>
      <trkpt lat="45.67863" lon="0.15708">
        <ele>38.11</ele>
        <time>2021-08-04T21:50:18Z</time>
      </trkpt>
      <trkpt lat="45.67856" lon="0.15712">
        <ele>37.63</ele>
        <time>2021-08-04T21:50:19Z</time>
      </trkpt>
      <trkpt lat="45.6785" lon="0.15714">
        <ele>37.63</ele>
        <time>2021-08-04T21:50:20Z</time>
      </trkpt>
      <trkpt lat="45.67843" lon="0.15716">
        <ele>36.67</ele>
        <time>2021-08-04T21:50:21Z</time>
      </trkpt>
      <trkpt lat="45.67735" lon="0.15754">
        <ele>31.86</ele>
        <time>2021-08-04T21:50:32Z</time>
      </trkpt>
      <trkpt lat="45.67649" lon="0.15783">
        <ele>32.34</ele>
        <time>2021-08-04T21:50:42Z</time>
      </trkpt>
      <trkpt lat="45.67574" lon="0.15808">
        <ele>30.42</ele>
        <time>2021-08-04T21:50:53Z</time>
      </trkpt>
      <trkpt lat="45.67458" lon="0.15844">
        <ele>29.94</ele>
        <time>2021-08-04T21:51:07Z</time>
      </trkpt>
      <trkpt lat="45.67346" lon="0.15882">
        <ele>28.98</ele>
        <time>2021-08-04T21:51:21Z</time>
      </trkpt>
      <trkpt lat="45.67316" lon="0.15891">
        <ele>28.98</ele>
        <time>2021-08-04T21:51:28Z</time>
      </trkpt>
      <trkpt lat="45.67299" lon="0.15897">
        <ele>29.46</ele>
        <time>2021-08-04T21:51:37Z</time>
      </trkpt>
      <trkpt lat="45.67232" lon="0.1592">
        <ele>27.05</ele>
        <time>2021-08-04T21:51:48Z</time>
      </trkpt>
      <trkpt lat="45.67186" lon="0.15935">
        <ele>28.5</ele>
        <time>2021-08-04T21:51:56Z</time>
      </trkpt>
      <trkpt lat="45.67182" lon="0.15942">
        <ele>28.98</ele>
        <time>2021-08-04T21:51:58Z</time>
      </trkpt>
      <trkpt lat="45.67182" lon="0.15947">
        <ele>28.98</ele>
        <time>2021-08-04T21:51:59Z</time>
      </trkpt>
      <trkpt lat="45.67182" lon="0.15953">
        <ele>28.98</ele>
        <time>2021-08-04T21:52:00Z</time>
      </trkpt>
      <trkpt lat="45.67192" lon="0.16047">
        <ele>31.38</ele>
        <time>2021-08-04T21:52:10Z</time>
      </trkpt>
      <trkpt lat="45.67198" lon="0.16085">
        <ele>32.82</ele>
        <time>2021-08-04T21:52:21Z</time>
      </trkpt>
      <trkpt lat="45.67214" lon="0.16171">
        <ele>33.78</ele>
        <time>2021-08-04T21:52:30Z</time>
      </trkpt>
      <trkpt lat="45.67235" lon="0.16231">
        <ele>31.38</ele>
        <time>2021-08-04T21:52:39Z</time>
      </trkpt>
      <trkpt lat="45.67283" lon="0.16349">
        <ele>29.46</ele>
        <time>2021-08-04T21:52:49Z</time>
      </trkpt>
      <trkpt lat="45.67286" lon="0.16358">
        <ele>28.98</ele>
        <time>2021-08-04T21:52:51Z</time>
      </trkpt>
      <trkpt lat="45.67286" lon="0.16358">
        <ele>28.98</ele>
        <time>2021-08-04T21:52:52Z</time>
      </trkpt>
      <trkpt lat="45.67291" lon="0.16358">
        <ele>28.02</ele>
        <time>2021-08-04T21:52:53Z</time>
      </trkpt>
      <trkpt lat="45.67294" lon="0.16358">
        <ele>27.05</ele>
        <time>2021-08-04T21:52:54Z</time>
      </trkpt>
      <trkpt lat="45.67297" lon="0.16357">
        <ele>27.05</ele>
        <time>2021-08-04T21:52:55Z</time>
      </trkpt>
      <trkpt lat="45.67301" lon="0.16356">
        <ele>27.53</ele>
        <time>2021-08-04T21:52:56Z</time>
      </trkpt>
      <trkpt lat="45.67371" lon="0.16339">
        <ele>32.34</ele>
        <time>2021-08-04T21:53:05Z</time>
      </trkpt>
      <trkpt lat="45.67455" lon="0.16327">
        <ele>35.23</ele>
        <time>2021-08-04T21:53:16Z</time>
      </trkpt>
      <trkpt lat="45.67459" lon="0.16326">
        <ele>36.19</ele>
        <time>2021-08-04T21:53:24Z</time>
      </trkpt>
      <trkpt lat="45.67462" lon="0.16325">
        <ele>36.19</ele>
        <time>2021-08-04T21:53:25Z</time>
      </trkpt>
      <trkpt lat="45.67464" lon="0.16325">
        <ele>36.19</ele>
        <time>2021-08-04T21:53:26Z</time>
      </trkpt>
      <trkpt lat="45.67464" lon="0.1632">
        <ele>35.71</ele>
        <time>2021-08-04T21:53:27Z</time>
      </trkpt>
      <trkpt lat="45.67463" lon="0.16317">
        <ele>35.71</ele>
        <time>2021-08-04T21:53:28Z</time>
      </trkpt>
      <trkpt lat="45.67461" lon="0.16312">
        <ele>35.23</ele>
        <time>2021-08-04T21:53:29Z</time>
      </trkpt>
      <trkpt lat="45.67447" lon="0.16268">
        <ele>34.26</ele>
        <time>2021-08-04T21:53:40Z</time>
      </trkpt>
      <trkpt lat="45.67442" lon="0.16251">
        <ele>33.78</ele>
        <time>2021-08-04T21:53:52Z</time>
      </trkpt>
      <trkpt lat="45.67419" lon="0.16182">
        <ele>33.3</ele>
        <time>2021-08-04T21:54:01Z</time>
      </trkpt>
      <trkpt lat="45.67393" lon="0.16118">
        <ele>33.3</ele>
        <time>2021-08-04T21:54:11Z</time>
      </trkpt>
      <trkpt lat="45.67382" lon="0.16076">
        <ele>33.3</ele>
        <time>2021-08-04T21:54:21Z</time>
      </trkpt>
      <trkpt lat="45.67381" lon="0.16071">
        <ele>33.3</ele>
        <time>2021-08-04T21:54:23Z</time>
      </trkpt>
      <trkpt lat="45.67381" lon="0.1607">
        <ele>33.3</ele>
        <time>2021-08-04T21:54:24Z</time>
      </trkpt>
    </trkseg>
  </trk>
  <trk>
    <name><![CDATA[Journal actif: 2021-08-05 15:56]]></name>
    <trkseg>
      <trkpt lat="45.67449" lon="0.16036">
        <ele>24.65</ele>
        <time>2021-08-05T17:56:16Z</time>
      </trkpt>
      <trkpt lat="45.67449" lon="0.16036">
        <ele>24.65</ele>
        <time>2021-08-05T17:58:09Z</time>
      </trkpt>
      <trkpt lat="45.6745" lon="0.16038">
        <ele>24.17</ele>
        <time>2021-08-05T18:01:07Z</time>
      </trkpt>
      <trkpt lat="45.6745" lon="0.1604">
        <ele>23.69</ele>
        <time>2021-08-05T18:01:54Z</time>
      </trkpt>
      <trkpt lat="45.67456" lon="0.16046">
        <ele>23.21</ele>
        <time>2021-08-05T18:01:59Z</time>
      </trkpt>
      <trkpt lat="45.67456" lon="0.16046">
        <ele>23.21</ele>
        <time>2021-08-05T18:02:00Z</time>
      </trkpt>
      <trkpt lat="45.67459" lon="0.16046">
        <ele>23.21</ele>
        <time>2021-08-05T18:02:01Z</time>
      </trkpt>
      <trkpt lat="45.67512" lon="0.16045">
        <ele>26.09</ele>
        <time>2021-08-05T18:02:12Z</time>
      </trkpt>
      <trkpt lat="45.67599" lon="0.16">
        <ele>27.53</ele>
        <time>2021-08-05T18:02:25Z</time>
      </trkpt>
      <trkpt lat="45.67626" lon="0.1598">
        <ele>27.53</ele>
        <time>2021-08-05T18:02:32Z</time>
      </trkpt>
      <trkpt lat="45.6763" lon="0.15982">
        <ele>27.53</ele>
        <time>2021-08-05T18:02:33Z</time>
      </trkpt>
      <trkpt lat="45.67633" lon="0.15984">
        <ele>27.05</ele>
        <time>2021-08-05T18:02:34Z</time>
      </trkpt>
      <trkpt lat="45.6766" lon="0.16044">
        <ele>28.98</ele>
        <time>2021-08-05T18:02:43Z</time>
      </trkpt>
      <trkpt lat="45.67663" lon="0.1605">
        <ele>28.98</ele>
        <time>2021-08-05T18:02:44Z</time>
      </trkpt>
      <trkpt lat="45.67665" lon="0.16055">
        <ele>28.98</ele>
        <time>2021-08-05T18:02:45Z</time>
      </trkpt>
      <trkpt lat="45.67672" lon="0.16057">
        <ele>28.98</ele>
        <time>2021-08-05T18:02:46Z</time>
      </trkpt>
      <trkpt lat="45.67677" lon="0.16054">
        <ele>28.98</ele>
        <time>2021-08-05T18:02:47Z</time>
      </trkpt>
      <trkpt lat="45.67688" lon="0.16049">
        <ele>29.46</ele>
        <time>2021-08-05T18:02:48Z</time>
      </trkpt>
      <trkpt lat="45.67688" lon="0.16049">
        <ele>29.46</ele>
        <time>2021-08-05T18:02:49Z</time>
      </trkpt>
      <trkpt lat="45.67788" lon="0.16011">
        <ele>30.42</ele>
        <time>2021-08-05T18:03:03Z</time>
      </trkpt>
      <trkpt lat="45.67798" lon="0.16003">
        <ele>30.42</ele>
        <time>2021-08-05T18:03:04Z</time>
      </trkpt>
      <trkpt lat="45.67798" lon="0.16003">
        <ele>30.42</ele>
        <time>2021-08-05T18:03:05Z</time>
      </trkpt>
      <trkpt lat="45.67799" lon="0.15999">
        <ele>30.42</ele>
        <time>2021-08-05T18:03:06Z</time>
      </trkpt>
      <trkpt lat="45.67801" lon="0.15992">
        <ele>30.42</ele>
        <time>2021-08-05T18:03:07Z</time>
      </trkpt>
      <trkpt lat="45.67804" lon="0.15977">
        <ele>30.42</ele>
        <time>2021-08-05T18:03:09Z</time>
      </trkpt>
      <trkpt lat="45.67806" lon="0.15969">
        <ele>30.42</ele>
        <time>2021-08-05T18:03:10Z</time>
      </trkpt>
      <trkpt lat="45.67806" lon="0.15952">
        <ele>29.94</ele>
        <time>2021-08-05T18:03:11Z</time>
      </trkpt>
      <trkpt lat="45.67806" lon="0.15952">
        <ele>29.94</ele>
        <time>2021-08-05T18:03:12Z</time>
      </trkpt>
      <trkpt lat="45.67806" lon="0.15938">
        <ele>29.94</ele>
        <time>2021-08-05T18:03:13Z</time>
      </trkpt>
      <trkpt lat="45.67809" lon="0.15931">
        <ele>29.94</ele>
        <time>2021-08-05T18:03:16Z</time>
      </trkpt>
      <trkpt lat="45.6781" lon="0.15927">
        <ele>29.46</ele>
        <time>2021-08-05T18:03:17Z</time>
      </trkpt>
      <trkpt lat="45.67811" lon="0.15926">
        <ele>29.46</ele>
        <time>2021-08-05T18:03:18Z</time>
      </trkpt>
      <trkpt lat="45.67814" lon="0.15926">
        <ele>29.94</ele>
        <time>2021-08-05T18:03:19Z</time>
      </trkpt>
      <trkpt lat="45.67817" lon="0.15926">
        <ele>29.94</ele>
        <time>2021-08-05T18:03:20Z</time>
      </trkpt>
      <trkpt lat="45.67821" lon="0.15926">
        <ele>29.94</ele>
        <time>2021-08-05T18:03:21Z</time>
      </trkpt>
      <trkpt lat="45.67872" lon="0.15924">
        <ele>31.86</ele>
        <time>2021-08-05T18:03:31Z</time>
      </trkpt>
      <trkpt lat="45.67874" lon="0.15924">
        <ele>32.34</ele>
        <time>2021-08-05T18:03:47Z</time>
      </trkpt>
      <trkpt lat="45.67874" lon="0.15924">
        <ele>32.34</ele>
        <time>2021-08-05T18:04:09Z</time>
      </trkpt>
      <trkpt lat="45.67877" lon="0.15924">
        <ele>32.34</ele>
        <time>2021-08-05T18:04:10Z</time>
      </trkpt>
      <trkpt lat="45.67877" lon="0.15921">
        <ele>32.34</ele>
        <time>2021-08-05T18:04:11Z</time>
      </trkpt>
      <trkpt lat="45.67877" lon="0.15919">
        <ele>32.34</ele>
        <time>2021-08-05T18:04:12Z</time>
      </trkpt>
      <trkpt lat="45.67877" lon="0.15916">
        <ele>31.86</ele>
        <time>2021-08-05T18:04:13Z</time>
      </trkpt>
      <trkpt lat="45.67877" lon="0.15911">
        <ele>31.86</ele>
        <time>2021-08-05T18:04:14Z</time>
      </trkpt>
      <trkpt lat="45.67873" lon="0.15815">
        <ele>30.42</ele>
        <time>2021-08-05T18:04:26Z</time>
      </trkpt>
      <trkpt lat="45.67869" lon="0.15726">
        <ele>28.98</ele>
        <time>2021-08-05T18:04:37Z</time>
      </trkpt>
      <trkpt lat="45.67876" lon="0.15711">
        <ele>28.98</ele>
        <time>2021-08-05T18:04:40Z</time>
      </trkpt>
      <trkpt lat="45.67877" lon="0.15703">
        <ele>28.98</ele>
        <time>2021-08-05T18:04:41Z</time>
      </trkpt>
      <trkpt lat="45.67875" lon="0.15697">
        <ele>28.98</ele>
        <time>2021-08-05T18:04:42Z</time>
      </trkpt>
      <trkpt lat="45.67866" lon="0.15683">
        <ele>28.5</ele>
        <time>2021-08-05T18:04:43Z</time>
      </trkpt>
      <trkpt lat="45.67865" lon="0.15673">
        <ele>28.02</ele>
        <time>2021-08-05T18:04:44Z</time>
      </trkpt>
      <trkpt lat="45.67864" lon="0.15662">
        <ele>28.02</ele>
        <time>2021-08-05T18:04:45Z</time>
      </trkpt>
      <trkpt lat="45.67864" lon="0.15662">
        <ele>27.53</ele>
        <time>2021-08-05T18:04:46Z</time>
      </trkpt>
      <trkpt lat="45.67864" lon="0.15651">
        <ele>27.05</ele>
        <time>2021-08-05T18:04:47Z</time>
      </trkpt>
      <trkpt lat="45.67857" lon="0.15531">
        <ele>25.13</ele>
        <time>2021-08-05T18:04:58Z</time>
      </trkpt>
      <trkpt lat="45.67853" lon="0.15459">
        <ele>27.05</ele>
        <time>2021-08-05T18:05:07Z</time>
      </trkpt>
      <trkpt lat="45.67846" lon="0.15311">
        <ele>25.61</ele>
        <time>2021-08-05T18:05:16Z</time>
      </trkpt>
      <trkpt lat="45.67829" lon="0.15">
        <ele>24.17</ele>
        <time>2021-08-05T18:05:33Z</time>
      </trkpt>
      <trkpt lat="45.67827" lon="0.14971">
        <ele>24.17</ele>
        <time>2021-08-05T18:05:35Z</time>
      </trkpt>
      <trkpt lat="45.67826" lon="0.14957">
        <ele>24.17</ele>
        <time>2021-08-05T18:05:36Z</time>
      </trkpt>
      <trkpt lat="45.67838" lon="0.14934">
        <ele>23.69</ele>
        <time>2021-08-05T18:05:38Z</time>
      </trkpt>
      <trkpt lat="45.6784" lon="0.14922">
        <ele>23.69</ele>
        <time>2021-08-05T18:05:39Z</time>
      </trkpt>
      <trkpt lat="45.67838" lon="0.1491">
        <ele>23.69</ele>
        <time>2021-08-05T18:05:40Z</time>
      </trkpt>
      <trkpt lat="45.67834" lon="0.14902">
        <ele>23.69</ele>
        <time>2021-08-05T18:05:42Z</time>
      </trkpt>
      <trkpt lat="45.6782" lon="0.14878">
        <ele>23.21</ele>
        <time>2021-08-05T18:05:43Z</time>
      </trkpt>
      <trkpt lat="45.6782" lon="0.14865">
        <ele>23.69</ele>
        <time>2021-08-05T18:05:44Z</time>
      </trkpt>
      <trkpt lat="45.67812" lon="0.14698">
        <ele>23.21</ele>
        <time>2021-08-05T18:05:53Z</time>
      </trkpt>
      <trkpt lat="45.67797" lon="0.14471">
        <ele>28.5</ele>
        <time>2021-08-05T18:06:05Z</time>
      </trkpt>
      <trkpt lat="45.67795" lon="0.14452">
        <ele>28.98</ele>
        <time>2021-08-05T18:06:07Z</time>
      </trkpt>
      <trkpt lat="45.67794" lon="0.14444">
        <ele>29.46</ele>
        <time>2021-08-05T18:06:08Z</time>
      </trkpt>
      <trkpt lat="45.67793" lon="0.14441">
        <ele>29.94</ele>
        <time>2021-08-05T18:06:09Z</time>
      </trkpt>
      <trkpt lat="45.67805" lon="0.14426">
        <ele>30.42</ele>
        <time>2021-08-05T18:06:11Z</time>
      </trkpt>
      <trkpt lat="45.67808" lon="0.14418">
        <ele>30.9</ele>
        <time>2021-08-05T18:06:12Z</time>
      </trkpt>
      <trkpt lat="45.67805" lon="0.14402">
        <ele>31.38</ele>
        <time>2021-08-05T18:06:13Z</time>
      </trkpt>
      <trkpt lat="45.67795" lon="0.14388">
        <ele>31.86</ele>
        <time>2021-08-05T18:06:14Z</time>
      </trkpt>
      <trkpt lat="45.67788" lon="0.14382">
        <ele>32.34</ele>
        <time>2021-08-05T18:06:15Z</time>
      </trkpt>
      <trkpt lat="45.67783" lon="0.14373">
        <ele>32.34</ele>
        <time>2021-08-05T18:06:16Z</time>
      </trkpt>
      <trkpt lat="45.67783" lon="0.14373">
        <ele>32.82</ele>
        <time>2021-08-05T18:06:17Z</time>
      </trkpt>
      <trkpt lat="45.67779" lon="0.14363">
        <ele>31.38</ele>
        <time>2021-08-05T18:06:18Z</time>
      </trkpt>
      <trkpt lat="45.67736" lon="0.14217">
        <ele>38.59</ele>
        <time>2021-08-05T18:06:27Z</time>
      </trkpt>
      <trkpt lat="45.67668" lon="0.13952">
        <ele>53.01</ele>
        <time>2021-08-05T18:06:40Z</time>
      </trkpt>
      <trkpt lat="45.67668" lon="0.1393">
        <ele>54.45</ele>
        <time>2021-08-05T18:06:41Z</time>
      </trkpt>
      <trkpt lat="45.67669" lon="0.1391">
        <ele>55.41</ele>
        <time>2021-08-05T18:06:42Z</time>
      </trkpt>
      <trkpt lat="45.67671" lon="0.13891">
        <ele>55.89</ele>
        <time>2021-08-05T18:06:43Z</time>
      </trkpt>
      <trkpt lat="45.67674" lon="0.13876">
        <ele>56.86</ele>
        <time>2021-08-05T18:06:44Z</time>
      </trkpt>
      <trkpt lat="45.67678" lon="0.1386">
        <ele>57.34</ele>
        <time>2021-08-05T18:06:45Z</time>
      </trkpt>
      <trkpt lat="45.67687" lon="0.13832">
        <ele>56.37</ele>
        <time>2021-08-05T18:06:48Z</time>
      </trkpt>
      <trkpt lat="45.67689" lon="0.13825">
        <ele>55.89</ele>
        <time>2021-08-05T18:06:49Z</time>
      </trkpt>
      <trkpt lat="45.67691" lon="0.13819">
        <ele>55.89</ele>
        <time>2021-08-05T18:06:50Z</time>
      </trkpt>
      <trkpt lat="45.67698" lon="0.13805">
        <ele>55.89</ele>
        <time>2021-08-05T18:06:52Z</time>
      </trkpt>
      <trkpt lat="45.67701" lon="0.13784">
        <ele>55.89</ele>
        <time>2021-08-05T18:06:53Z</time>
      </trkpt>
      <trkpt lat="45.67701" lon="0.13784">
        <ele>56.37</ele>
        <time>2021-08-05T18:06:54Z</time>
      </trkpt>
      <trkpt lat="45.67696" lon="0.13749">
        <ele>56.37</ele>
        <time>2021-08-05T18:06:56Z</time>
      </trkpt>
      <trkpt lat="45.67696" lon="0.13749">
        <ele>56.86</ele>
        <time>2021-08-05T18:06:57Z</time>
      </trkpt>
      <trkpt lat="45.67697" lon="0.13735">
        <ele>57.34</ele>
        <time>2021-08-05T18:06:58Z</time>
      </trkpt>
      <trkpt lat="45.67698" lon="0.13721">
        <ele>56.86</ele>
        <time>2021-08-05T18:06:59Z</time>
      </trkpt>
      <trkpt lat="45.677" lon="0.13706">
        <ele>56.37</ele>
        <time>2021-08-05T18:07:00Z</time>
      </trkpt>
      <trkpt lat="45.67706" lon="0.13689">
        <ele>56.86</ele>
        <time>2021-08-05T18:07:01Z</time>
      </trkpt>
      <trkpt lat="45.67712" lon="0.13674">
        <ele>56.86</ele>
        <time>2021-08-05T18:07:02Z</time>
      </trkpt>
      <trkpt lat="45.67718" lon="0.13658">
        <ele>56.37</ele>
        <time>2021-08-05T18:07:03Z</time>
      </trkpt>
      <trkpt lat="45.67727" lon="0.13643">
        <ele>56.37</ele>
        <time>2021-08-05T18:07:04Z</time>
      </trkpt>
      <trkpt lat="45.67738" lon="0.13628">
        <ele>56.86</ele>
        <time>2021-08-05T18:07:05Z</time>
      </trkpt>
      <trkpt lat="45.67861" lon="0.13479">
        <ele>58.78</ele>
        <time>2021-08-05T18:07:15Z</time>
      </trkpt>
      <trkpt lat="45.67967" lon="0.13431">
        <ele>59.26</ele>
        <time>2021-08-05T18:07:22Z</time>
      </trkpt>
      <trkpt lat="45.67979" lon="0.13422">
        <ele>59.74</ele>
        <time>2021-08-05T18:07:23Z</time>
      </trkpt>
      <trkpt lat="45.6799" lon="0.13413">
        <ele>60.7</ele>
        <time>2021-08-05T18:07:24Z</time>
      </trkpt>
      <trkpt lat="45.67995" lon="0.13409">
        <ele>61.18</ele>
        <time>2021-08-05T18:07:25Z</time>
      </trkpt>
      <trkpt lat="45.68" lon="0.13388">
        <ele>62.14</ele>
        <time>2021-08-05T18:07:26Z</time>
      </trkpt>
      <trkpt lat="45.68004" lon="0.13371">
        <ele>63.1</ele>
        <time>2021-08-05T18:07:27Z</time>
      </trkpt>
      <trkpt lat="45.68005" lon="0.13355">
        <ele>64.07</ele>
        <time>2021-08-05T18:07:28Z</time>
      </trkpt>
      <trkpt lat="45.68003" lon="0.13338">
        <ele>65.03</ele>
        <time>2021-08-05T18:07:29Z</time>
      </trkpt>
      <trkpt lat="45.68002" lon="0.13324">
        <ele>65.03</ele>
        <time>2021-08-05T18:07:30Z</time>
      </trkpt>
      <trkpt lat="45.68" lon="0.13311">
        <ele>65.03</ele>
        <time>2021-08-05T18:07:31Z</time>
      </trkpt>
      <trkpt lat="45.67999" lon="0.13306">
        <ele>65.51</ele>
        <time>2021-08-05T18:07:32Z</time>
      </trkpt>
      <trkpt lat="45.68009" lon="0.13277">
        <ele>65.99</ele>
        <time>2021-08-05T18:07:34Z</time>
      </trkpt>
      <trkpt lat="45.68006" lon="0.13269">
        <ele>65.99</ele>
        <time>2021-08-05T18:07:35Z</time>
      </trkpt>
      <trkpt lat="45.68006" lon="0.13267">
        <ele>65.51</ele>
        <time>2021-08-05T18:07:36Z</time>
      </trkpt>
      <trkpt lat="45.67996" lon="0.13261">
        <ele>65.51</ele>
        <time>2021-08-05T18:07:37Z</time>
      </trkpt>
      <trkpt lat="45.67992" lon="0.13261">
        <ele>65.03</ele>
        <time>2021-08-05T18:07:38Z</time>
      </trkpt>
      <trkpt lat="45.67987" lon="0.13261">
        <ele>65.03</ele>
        <time>2021-08-05T18:07:39Z</time>
      </trkpt>
      <trkpt lat="45.67984" lon="0.13263">
        <ele>65.03</ele>
        <time>2021-08-05T18:07:40Z</time>
      </trkpt>
      <trkpt lat="45.6798" lon="0.13266">
        <ele>65.03</ele>
        <time>2021-08-05T18:07:41Z</time>
      </trkpt>
      <trkpt lat="45.67969" lon="0.13264">
        <ele>65.03</ele>
        <time>2021-08-05T18:07:42Z</time>
      </trkpt>
      <trkpt lat="45.67965" lon="0.1326">
        <ele>65.03</ele>
        <time>2021-08-05T18:07:43Z</time>
      </trkpt>
      <trkpt lat="45.67959" lon="0.13256">
        <ele>65.03</ele>
        <time>2021-08-05T18:07:44Z</time>
      </trkpt>
      <trkpt lat="45.6789" lon="0.13199">
        <ele>64.55</ele>
        <time>2021-08-05T18:07:53Z</time>
      </trkpt>
      <trkpt lat="45.67883" lon="0.13192">
        <ele>64.55</ele>
        <time>2021-08-05T18:07:54Z</time>
      </trkpt>
      <trkpt lat="45.67877" lon="0.13185">
        <ele>64.55</ele>
        <time>2021-08-05T18:07:55Z</time>
      </trkpt>
      <trkpt lat="45.67871" lon="0.13144">
        <ele>64.07</ele>
        <time>2021-08-05T18:07:57Z</time>
      </trkpt>
      <trkpt lat="45.67862" lon="0.13137">
        <ele>64.07</ele>
        <time>2021-08-05T18:07:58Z</time>
      </trkpt>
      <trkpt lat="45.67862" lon="0.13137">
        <ele>64.07</ele>
        <time>2021-08-05T18:07:59Z</time>
      </trkpt>
      <trkpt lat="45.67847" lon="0.13135">
        <ele>63.58</ele>
        <time>2021-08-05T18:08:00Z</time>
      </trkpt>
      <trkpt lat="45.67839" lon="0.13137">
        <ele>63.1</ele>
        <time>2021-08-05T18:08:01Z</time>
      </trkpt>
      <trkpt lat="45.67839" lon="0.13137">
        <ele>63.1</ele>
        <time>2021-08-05T18:08:02Z</time>
      </trkpt>
      <trkpt lat="45.67828" lon="0.13157">
        <ele>63.1</ele>
        <time>2021-08-05T18:08:03Z</time>
      </trkpt>
      <trkpt lat="45.67828" lon="0.13157">
        <ele>63.1</ele>
        <time>2021-08-05T18:08:04Z</time>
      </trkpt>
      <trkpt lat="45.67829" lon="0.13169">
        <ele>63.1</ele>
        <time>2021-08-05T18:08:05Z</time>
      </trkpt>
      <trkpt lat="45.67831" lon="0.1318">
        <ele>62.62</ele>
        <time>2021-08-05T18:08:06Z</time>
      </trkpt>
      <trkpt lat="45.67836" lon="0.1319">
        <ele>62.62</ele>
        <time>2021-08-05T18:08:07Z</time>
      </trkpt>
      <trkpt lat="45.6784" lon="0.13213">
        <ele>62.14</ele>
        <time>2021-08-05T18:08:08Z</time>
      </trkpt>
      <trkpt lat="45.6784" lon="0.13213">
        <ele>61.66</ele>
        <time>2021-08-05T18:08:09Z</time>
      </trkpt>
      <trkpt lat="45.67842" lon="0.13227">
        <ele>61.66</ele>
        <time>2021-08-05T18:08:10Z</time>
      </trkpt>
      <trkpt lat="45.67842" lon="0.13242">
        <ele>60.7</ele>
        <time>2021-08-05T18:08:11Z</time>
      </trkpt>
      <trkpt lat="45.67839" lon="0.13259">
        <ele>59.74</ele>
        <time>2021-08-05T18:08:12Z</time>
      </trkpt>
      <trkpt lat="45.67806" lon="0.13411">
        <ele>53.97</ele>
        <time>2021-08-05T18:08:20Z</time>
      </trkpt>
      <trkpt lat="45.67715" lon="0.13567">
        <ele>51.57</ele>
        <time>2021-08-05T18:08:27Z</time>
      </trkpt>
      <trkpt lat="45.67538" lon="0.1384">
        <ele>49.65</ele>
        <time>2021-08-05T18:08:41Z</time>
      </trkpt>
      <trkpt lat="45.67433" lon="0.1408">
        <ele>48.68</ele>
        <time>2021-08-05T18:08:51Z</time>
      </trkpt>
      <trkpt lat="45.67346" lon="0.1431">
        <ele>49.16</ele>
        <time>2021-08-05T18:09:01Z</time>
      </trkpt>
      <trkpt lat="45.67342" lon="0.14329">
        <ele>49.16</ele>
        <time>2021-08-05T18:09:02Z</time>
      </trkpt>
      <trkpt lat="45.6734" lon="0.14349">
        <ele>48.68</ele>
        <time>2021-08-05T18:09:03Z</time>
      </trkpt>
      <trkpt lat="45.67339" lon="0.14364">
        <ele>48.2</ele>
        <time>2021-08-05T18:09:04Z</time>
      </trkpt>
      <trkpt lat="45.67344" lon="0.14382">
        <ele>47.24</ele>
        <time>2021-08-05T18:09:05Z</time>
      </trkpt>
      <trkpt lat="45.6735" lon="0.144">
        <ele>46.28</ele>
        <time>2021-08-05T18:09:06Z</time>
      </trkpt>
      <trkpt lat="45.67354" lon="0.14412">
        <ele>45.8</ele>
        <time>2021-08-05T18:09:07Z</time>
      </trkpt>
      <trkpt lat="45.67365" lon="0.14423">
        <ele>44.36</ele>
        <time>2021-08-05T18:09:08Z</time>
      </trkpt>
      <trkpt lat="45.67376" lon="0.14429">
        <ele>44.36</ele>
        <time>2021-08-05T18:09:09Z</time>
      </trkpt>
      <trkpt lat="45.6739" lon="0.14437">
        <ele>43.88</ele>
        <time>2021-08-05T18:09:10Z</time>
      </trkpt>
      <trkpt lat="45.6742" lon="0.14439">
        <ele>42.92</ele>
        <time>2021-08-05T18:09:11Z</time>
      </trkpt>
      <trkpt lat="45.67436" lon="0.14437">
        <ele>42.44</ele>
        <time>2021-08-05T18:09:12Z</time>
      </trkpt>
      <trkpt lat="45.67503" lon="0.14431">
        <ele>39.07</ele>
        <time>2021-08-05T18:09:17Z</time>
      </trkpt>
      <trkpt lat="45.6752" lon="0.14434">
        <ele>39.55</ele>
        <time>2021-08-05T18:09:18Z</time>
      </trkpt>
      <trkpt lat="45.67535" lon="0.14444">
        <ele>40.03</ele>
        <time>2021-08-05T18:09:19Z</time>
      </trkpt>
      <trkpt lat="45.67551" lon="0.14454">
        <ele>40.51</ele>
        <time>2021-08-05T18:09:20Z</time>
      </trkpt>
      <trkpt lat="45.67563" lon="0.14468">
        <ele>39.07</ele>
        <time>2021-08-05T18:09:21Z</time>
      </trkpt>
      <trkpt lat="45.67577" lon="0.14485">
        <ele>38.11</ele>
        <time>2021-08-05T18:09:22Z</time>
      </trkpt>
      <trkpt lat="45.67732" lon="0.1469">
        <ele>35.71</ele>
        <time>2021-08-05T18:09:32Z</time>
      </trkpt>
      <trkpt lat="45.68017" lon="0.15058">
        <ele>32.34</ele>
        <time>2021-08-05T18:09:48Z</time>
      </trkpt>
      <trkpt lat="45.68318" lon="0.15391">
        <ele>34.26</ele>
        <time>2021-08-05T18:10:03Z</time>
      </trkpt>
      <trkpt lat="45.68656" lon="0.15705">
        <ele>47.72</ele>
        <time>2021-08-05T18:10:19Z</time>
      </trkpt>
      <trkpt lat="45.6906" lon="0.16034">
        <ele>57.82</ele>
        <time>2021-08-05T18:10:38Z</time>
      </trkpt>
      <trkpt lat="45.69187" lon="0.1621">
        <ele>53.01</ele>
        <time>2021-08-05T18:10:45Z</time>
      </trkpt>
      <trkpt lat="45.69272" lon="0.16426">
        <ele>47.24</ele>
        <time>2021-08-05T18:10:52Z</time>
      </trkpt>
      <trkpt lat="45.69342" lon="0.16764">
        <ele>44.36</ele>
        <time>2021-08-05T18:11:02Z</time>
      </trkpt>
      <trkpt lat="45.69372" lon="0.17117">
        <ele>46.28</ele>
        <time>2021-08-05T18:11:12Z</time>
      </trkpt>
      <trkpt lat="45.69401" lon="0.17347">
        <ele>48.68</ele>
        <time>2021-08-05T18:11:20Z</time>
      </trkpt>
      <trkpt lat="45.69473" lon="0.17557">
        <ele>60.22</ele>
        <time>2021-08-05T18:11:27Z</time>
      </trkpt>
      <trkpt lat="45.69596" lon="0.17755">
        <ele>70.79</ele>
        <time>2021-08-05T18:11:35Z</time>
      </trkpt>
      <trkpt lat="45.69743" lon="0.17882">
        <ele>73.68</ele>
        <time>2021-08-05T18:11:42Z</time>
      </trkpt>
      <trkpt lat="45.69903" lon="0.17941">
        <ele>77.04</ele>
        <time>2021-08-05T18:11:49Z</time>
      </trkpt>
      <trkpt lat="45.7007" lon="0.17936">
        <ele>80.89</ele>
        <time>2021-08-05T18:11:56Z</time>
      </trkpt>
      <trkpt lat="45.70235" lon="0.17865">
        <ele>82.81</ele>
        <time>2021-08-05T18:12:03Z</time>
      </trkpt>
      <trkpt lat="45.70484" lon="0.17662">
        <ele>87.14</ele>
        <time>2021-08-05T18:12:15Z</time>
      </trkpt>
      <trkpt lat="45.70668" lon="0.17563">
        <ele>80.41</ele>
        <time>2021-08-05T18:12:23Z</time>
      </trkpt>
      <trkpt lat="45.70864" lon="0.17529">
        <ele>74.64</ele>
        <time>2021-08-05T18:12:31Z</time>
      </trkpt>
      <trkpt lat="45.71069" lon="0.17568">
        <ele>70.31</ele>
        <time>2021-08-05T18:12:39Z</time>
      </trkpt>
      <trkpt lat="45.71262" lon="0.17688">
        <ele>63.58</ele>
        <time>2021-08-05T18:12:47Z</time>
      </trkpt>
      <trkpt lat="45.71425" lon="0.17875">
        <ele>59.74</ele>
        <time>2021-08-05T18:12:55Z</time>
      </trkpt>
      <trkpt lat="45.71616" lon="0.1818">
        <ele>59.74</ele>
        <time>2021-08-05T18:13:06Z</time>
      </trkpt>
      <trkpt lat="45.71797" lon="0.18379">
        <ele>66.47</ele>
        <time>2021-08-05T18:13:15Z</time>
      </trkpt>
      <trkpt lat="45.72036" lon="0.18545">
        <ele>78.97</ele>
        <time>2021-08-05T18:13:26Z</time>
      </trkpt>
      <trkpt lat="45.72263" lon="0.18626">
        <ele>85.69</ele>
        <time>2021-08-05T18:13:36Z</time>
      </trkpt>
      <trkpt lat="45.72732" lon="0.18728">
        <ele>90.98</ele>
        <time>2021-08-05T18:13:56Z</time>
      </trkpt>
      <trkpt lat="45.73181" lon="0.18826">
        <ele>90.02</ele>
        <time>2021-08-05T18:14:15Z</time>
      </trkpt>
      <trkpt lat="45.73557" lon="0.189">
        <ele>88.58</ele>
        <time>2021-08-05T18:14:30Z</time>
      </trkpt>
      <trkpt lat="45.7382" lon="0.18886">
        <ele>85.69</ele>
        <time>2021-08-05T18:14:40Z</time>
      </trkpt>
      <trkpt lat="45.74095" lon="0.18848">
        <ele>80.41</ele>
        <time>2021-08-05T18:14:51Z</time>
      </trkpt>
      <trkpt lat="45.74397" lon="0.18806">
        <ele>65.99</ele>
        <time>2021-08-05T18:15:02Z</time>
      </trkpt>
      <trkpt lat="45.74726" lon="0.18784">
        <ele>65.51</ele>
        <time>2021-08-05T18:15:14Z</time>
      </trkpt>
      <trkpt lat="45.74961" lon="0.18847">
        <ele>73.2</ele>
        <time>2021-08-05T18:15:23Z</time>
      </trkpt>
      <trkpt lat="45.75179" lon="0.18965">
        <ele>78.48</ele>
        <time>2021-08-05T18:15:32Z</time>
      </trkpt>
      <trkpt lat="45.75542" lon="0.19202">
        <ele>82.81</ele>
        <time>2021-08-05T18:15:47Z</time>
      </trkpt>
      <trkpt lat="45.75769" lon="0.19283">
        <ele>88.58</ele>
        <time>2021-08-05T18:15:56Z</time>
      </trkpt>
      <trkpt lat="45.76014" lon="0.19297">
        <ele>97.71</ele>
        <time>2021-08-05T18:16:06Z</time>
      </trkpt>
      <trkpt lat="45.76269" lon="0.19228">
        <ele>105.4</ele>
        <time>2021-08-05T18:16:16Z</time>
      </trkpt>
      <trkpt lat="45.76749" lon="0.19028">
        <ele>114.05</ele>
        <time>2021-08-05T18:16:38Z</time>
      </trkpt>
      <trkpt lat="45.77095" lon="0.18924">
        <ele>115.5</ele>
        <time>2021-08-05T18:16:52Z</time>
      </trkpt>
      <trkpt lat="45.77263" lon="0.18954">
        <ele>115.98</ele>
        <time>2021-08-05T18:17:00Z</time>
      </trkpt>
      <trkpt lat="45.77542" lon="0.19001">
        <ele>103</ele>
        <time>2021-08-05T18:17:11Z</time>
      </trkpt>
      <trkpt lat="45.78059" lon="0.19038">
        <ele>96.75</ele>
        <time>2021-08-05T18:17:29Z</time>
      </trkpt>
      <trkpt lat="45.78465" lon="0.19053">
        <ele>103.96</ele>
        <time>2021-08-05T18:17:46Z</time>
      </trkpt>
      <trkpt lat="45.78688" lon="0.19006">
        <ele>105.4</ele>
        <time>2021-08-05T18:17:55Z</time>
      </trkpt>
      <trkpt lat="45.78922" lon="0.18884">
        <ele>102.04</ele>
        <time>2021-08-05T18:18:05Z</time>
      </trkpt>
      <trkpt lat="45.79229" lon="0.18705">
        <ele>99.63</ele>
        <time>2021-08-05T18:18:18Z</time>
      </trkpt>
      <trkpt lat="45.79471" lon="0.18649">
        <ele>107.81</ele>
        <time>2021-08-05T18:18:28Z</time>
      </trkpt>
      <trkpt lat="45.79693" lon="0.18661">
        <ele>112.13</ele>
        <time>2021-08-05T18:18:37Z</time>
      </trkpt>
      <trkpt lat="45.79918" lon="0.1874">
        <ele>107.81</ele>
        <time>2021-08-05T18:18:46Z</time>
      </trkpt>
      <trkpt lat="45.80228" lon="0.18916">
        <ele>111.65</ele>
        <time>2021-08-05T18:18:58Z</time>
      </trkpt>
      <trkpt lat="45.80577" lon="0.19114">
        <ele>124.63</ele>
        <time>2021-08-05T18:19:14Z</time>
      </trkpt>
      <trkpt lat="45.80864" lon="0.19217">
        <ele>137.61</ele>
        <time>2021-08-05T18:19:26Z</time>
      </trkpt>
      <trkpt lat="45.81169" lon="0.19268">
        <ele>142.89</ele>
        <time>2021-08-05T18:19:38Z</time>
      </trkpt>
      <trkpt lat="45.81528" lon="0.19295">
        <ele>146.74</ele>
        <time>2021-08-05T18:19:51Z</time>
      </trkpt>
      <trkpt lat="45.8177" lon="0.19312">
        <ele>148.66</ele>
        <time>2021-08-05T18:20:04Z</time>
      </trkpt>
      <trkpt lat="45.81923" lon="0.19323">
        <ele>147.7</ele>
        <time>2021-08-05T18:20:13Z</time>
      </trkpt>
      <trkpt lat="45.82079" lon="0.19334">
        <ele>142.41</ele>
        <time>2021-08-05T18:20:22Z</time>
      </trkpt>
      <trkpt lat="45.82317" lon="0.19333">
        <ele>132.32</ele>
        <time>2021-08-05T18:20:33Z</time>
      </trkpt>
      <trkpt lat="45.82582" lon="0.19269">
        <ele>124.15</ele>
        <time>2021-08-05T18:20:45Z</time>
      </trkpt>
      <trkpt lat="45.83023" lon="0.19148">
        <ele>114.53</ele>
        <time>2021-08-05T18:21:05Z</time>
      </trkpt>
      <trkpt lat="45.83423" lon="0.19039">
        <ele>110.21</ele>
        <time>2021-08-05T18:21:22Z</time>
      </trkpt>
      <trkpt lat="45.83958" lon="0.18893">
        <ele>109.73</ele>
        <time>2021-08-05T18:21:44Z</time>
      </trkpt>
      <trkpt lat="45.84637" lon="0.18706">
        <ele>103</ele>
        <time>2021-08-05T18:22:11Z</time>
      </trkpt>
      <trkpt lat="45.85016" lon="0.18603">
        <ele>95.79</ele>
        <time>2021-08-05T18:22:26Z</time>
      </trkpt>
      <trkpt lat="45.85411" lon="0.18495">
        <ele>102.04</ele>
        <time>2021-08-05T18:22:42Z</time>
      </trkpt>
      <trkpt lat="45.85835" lon="0.18369">
        <ele>100.11</ele>
        <time>2021-08-05T18:22:59Z</time>
      </trkpt>
      <trkpt lat="45.86138" lon="0.18317">
        <ele>103.96</ele>
        <time>2021-08-05T18:23:11Z</time>
      </trkpt>
      <trkpt lat="45.86335" lon="0.18357">
        <ele>106.84</ele>
        <time>2021-08-05T18:23:19Z</time>
      </trkpt>
      <trkpt lat="45.86613" lon="0.18503">
        <ele>102.04</ele>
        <time>2021-08-05T18:23:31Z</time>
      </trkpt>
      <trkpt lat="45.86988" lon="0.18695">
        <ele>82.33</ele>
        <time>2021-08-05T18:23:46Z</time>
      </trkpt>
      <trkpt lat="45.87226" lon="0.18753">
        <ele>66.95</ele>
        <time>2021-08-05T18:23:55Z</time>
      </trkpt>
      <trkpt lat="45.8758" lon="0.18813">
        <ele>61.18</ele>
        <time>2021-08-05T18:24:08Z</time>
      </trkpt>
      <trkpt lat="45.88113" lon="0.189">
        <ele>63.1</ele>
        <time>2021-08-05T18:24:28Z</time>
      </trkpt>
      <trkpt lat="45.88497" lon="0.18965">
        <ele>78.97</ele>
        <time>2021-08-05T18:24:45Z</time>
      </trkpt>
      <trkpt lat="45.88826" lon="0.19021">
        <ele>102.04</ele>
        <time>2021-08-05T18:25:00Z</time>
      </trkpt>
      <trkpt lat="45.89029" lon="0.19054">
        <ele>111.65</ele>
        <time>2021-08-05T18:25:11Z</time>
      </trkpt>
      <trkpt lat="45.89182" lon="0.1908">
        <ele>115.98</ele>
        <time>2021-08-05T18:25:20Z</time>
      </trkpt>
      <trkpt lat="45.89422" lon="0.19116">
        <ele>118.38</ele>
        <time>2021-08-05T18:25:30Z</time>
      </trkpt>
      <trkpt lat="45.89714" lon="0.19205">
        <ele>113.09</ele>
        <time>2021-08-05T18:25:43Z</time>
      </trkpt>
      <trkpt lat="45.89976" lon="0.1929">
        <ele>104.92</ele>
        <time>2021-08-05T18:25:55Z</time>
      </trkpt>
      <trkpt lat="45.90295" lon="0.19389">
        <ele>99.63</ele>
        <time>2021-08-05T18:26:08Z</time>
      </trkpt>
      <trkpt lat="45.90656" lon="0.19478">
        <ele>104.44</ele>
        <time>2021-08-05T18:26:22Z</time>
      </trkpt>
      <trkpt lat="45.91033" lon="0.19555">
        <ele>107.32</ele>
        <time>2021-08-05T18:26:36Z</time>
      </trkpt>
      <trkpt lat="45.9137" lon="0.19604">
        <ele>115.01</ele>
        <time>2021-08-05T18:26:49Z</time>
      </trkpt>
      <trkpt lat="45.91905" lon="0.19666">
        <ele>120.3</ele>
        <time>2021-08-05T18:27:10Z</time>
      </trkpt>
      <trkpt lat="45.9236" lon="0.19724">
        <ele>119.34</ele>
        <time>2021-08-05T18:27:28Z</time>
      </trkpt>
      <trkpt lat="45.92707" lon="0.19769">
        <ele>125.59</ele>
        <time>2021-08-05T18:27:42Z</time>
      </trkpt>
      <trkpt lat="45.93094" lon="0.1982">
        <ele>118.38</ele>
        <time>2021-08-05T18:27:57Z</time>
      </trkpt>
      <trkpt lat="45.93626" lon="0.19883">
        <ele>109.73</ele>
        <time>2021-08-05T18:28:18Z</time>
      </trkpt>
      <trkpt lat="45.93973" lon="0.1995">
        <ele>110.21</ele>
        <time>2021-08-05T18:28:31Z</time>
      </trkpt>
      <trkpt lat="45.94255" lon="0.19991">
        <ele>103.96</ele>
        <time>2021-08-05T18:28:43Z</time>
      </trkpt>
      <trkpt lat="45.94762" lon="0.20057">
        <ele>100.6</ele>
        <time>2021-08-05T18:29:03Z</time>
      </trkpt>
      <trkpt lat="45.95156" lon="0.20108">
        <ele>105.4</ele>
        <time>2021-08-05T18:29:19Z</time>
      </trkpt>
      <trkpt lat="45.95516" lon="0.20156">
        <ele>102.52</ele>
        <time>2021-08-05T18:29:35Z</time>
      </trkpt>
      <trkpt lat="45.9578" lon="0.20189">
        <ele>107.32</ele>
        <time>2021-08-05T18:29:48Z</time>
      </trkpt>
      <trkpt lat="45.96094" lon="0.2024">
        <ele>107.32</ele>
        <time>2021-08-05T18:30:03Z</time>
      </trkpt>
      <trkpt lat="45.9637" lon="0.20339">
        <ele>106.84</ele>
        <time>2021-08-05T18:30:16Z</time>
      </trkpt>
      <trkpt lat="45.96695" lon="0.20487">
        <ele>100.11</ele>
        <time>2021-08-05T18:30:31Z</time>
      </trkpt>
      <trkpt lat="45.96919" lon="0.20517">
        <ele>92.9</ele>
        <time>2021-08-05T18:30:41Z</time>
      </trkpt>
      <trkpt lat="45.97153" lon="0.20482">
        <ele>89.54</ele>
        <time>2021-08-05T18:30:52Z</time>
      </trkpt>
      <trkpt lat="45.97401" lon="0.20366">
        <ele>90.5</ele>
        <time>2021-08-05T18:31:04Z</time>
      </trkpt>
      <trkpt lat="45.97683" lon="0.20244">
        <ele>99.63</ele>
        <time>2021-08-05T18:31:18Z</time>
      </trkpt>
      <trkpt lat="45.98028" lon="0.20188">
        <ele>111.17</ele>
        <time>2021-08-05T18:31:34Z</time>
      </trkpt>
      <trkpt lat="45.9844" lon="0.20142">
        <ele>124.15</ele>
        <time>2021-08-05T18:31:53Z</time>
      </trkpt>
      <trkpt lat="45.98759" lon="0.20108">
        <ele>125.11</ele>
        <time>2021-08-05T18:32:07Z</time>
      </trkpt>
      <trkpt lat="45.99132" lon="0.20069">
        <ele>119.82</ele>
        <time>2021-08-05T18:32:24Z</time>
      </trkpt>
      <trkpt lat="45.99537" lon="0.20041">
        <ele>125.59</ele>
        <time>2021-08-05T18:32:43Z</time>
      </trkpt>
      <trkpt lat="45.99947" lon="0.20026">
        <ele>121.74</ele>
        <time>2021-08-05T18:33:00Z</time>
      </trkpt>
      <trkpt lat="46.00303" lon="0.20005">
        <ele>130.4</ele>
        <time>2021-08-05T18:33:15Z</time>
      </trkpt>
      <trkpt lat="46.00531" lon="0.1994">
        <ele>120.78</ele>
        <time>2021-08-05T18:33:26Z</time>
      </trkpt>
      <trkpt lat="46.00804" lon="0.19804">
        <ele>109.73</ele>
        <time>2021-08-05T18:33:38Z</time>
      </trkpt>
      <trkpt lat="46.01022" lon="0.19627">
        <ele>105.88</ele>
        <time>2021-08-05T18:33:49Z</time>
      </trkpt>
      <trkpt lat="46.01216" lon="0.19423">
        <ele>111.65</ele>
        <time>2021-08-05T18:33:59Z</time>
      </trkpt>
      <trkpt lat="46.01422" lon="0.19124">
        <ele>120.78</ele>
        <time>2021-08-05T18:34:11Z</time>
      </trkpt>
      <trkpt lat="46.01717" lon="0.18654">
        <ele>124.63</ele>
        <time>2021-08-05T18:34:29Z</time>
      </trkpt>
      <trkpt lat="46.01932" lon="0.18345">
        <ele>122.22</ele>
        <time>2021-08-05T18:34:41Z</time>
      </trkpt>
      <trkpt lat="46.02134" lon="0.18144">
        <ele>119.34</ele>
        <time>2021-08-05T18:34:51Z</time>
      </trkpt>
      <trkpt lat="46.02358" lon="0.18">
        <ele>116.46</ele>
        <time>2021-08-05T18:35:01Z</time>
      </trkpt>
      <trkpt lat="46.0263" lon="0.17914">
        <ele>115.98</ele>
        <time>2021-08-05T18:35:11Z</time>
      </trkpt>
      <trkpt lat="46.0289" lon="0.17904">
        <ele>113.09</ele>
        <time>2021-08-05T18:35:22Z</time>
      </trkpt>
      <trkpt lat="46.03172" lon="0.17977">
        <ele>109.73</ele>
        <time>2021-08-05T18:35:32Z</time>
      </trkpt>
      <trkpt lat="46.03391" lon="0.18102">
        <ele>104.44</ele>
        <time>2021-08-05T18:35:42Z</time>
      </trkpt>
      <trkpt lat="46.03644" lon="0.18324">
        <ele>98.19</ele>
        <time>2021-08-05T18:35:53Z</time>
      </trkpt>
      <trkpt lat="46.03923" lon="0.18655">
        <ele>94.35</ele>
        <time>2021-08-05T18:36:07Z</time>
      </trkpt>
      <trkpt lat="46.0417" lon="0.1904">
        <ele>95.31</ele>
        <time>2021-08-05T18:36:21Z</time>
      </trkpt>
      <trkpt lat="46.04392" lon="0.19418">
        <ele>104.44</ele>
        <time>2021-08-05T18:36:35Z</time>
      </trkpt>
      <trkpt lat="46.04583" lon="0.19636">
        <ele>113.57</ele>
        <time>2021-08-05T18:36:45Z</time>
      </trkpt>
      <trkpt lat="46.04765" lon="0.19767">
        <ele>120.3</ele>
        <time>2021-08-05T18:36:53Z</time>
      </trkpt>
      <trkpt lat="46.04985" lon="0.19838">
        <ele>123.67</ele>
        <time>2021-08-05T18:37:02Z</time>
      </trkpt>
      <trkpt lat="46.05388" lon="0.19888">
        <ele>126.55</ele>
        <time>2021-08-05T18:37:18Z</time>
      </trkpt>
      <trkpt lat="46.05871" lon="0.19948">
        <ele>128.47</ele>
        <time>2021-08-05T18:37:37Z</time>
      </trkpt>
      <trkpt lat="46.06217" lon="0.19981">
        <ele>136.16</ele>
        <time>2021-08-05T18:37:51Z</time>
      </trkpt>
      <trkpt lat="46.06515" lon="0.19946">
        <ele>135.68</ele>
        <time>2021-08-05T18:38:03Z</time>
      </trkpt>
      <trkpt lat="46.06816" lon="0.19843">
        <ele>133.76</ele>
        <time>2021-08-05T18:38:15Z</time>
      </trkpt>
      <trkpt lat="46.07431" lon="0.19585">
        <ele>131.36</ele>
        <time>2021-08-05T18:38:40Z</time>
      </trkpt>
      <trkpt lat="46.07662" lon="0.1942">
        <ele>130.4</ele>
        <time>2021-08-05T18:38:50Z</time>
      </trkpt>
      <trkpt lat="46.07954" lon="0.19138">
        <ele>134.24</ele>
        <time>2021-08-05T18:39:04Z</time>
      </trkpt>
      <trkpt lat="46.0813" lon="0.19018">
        <ele>140.49</ele>
        <time>2021-08-05T18:39:12Z</time>
      </trkpt>
      <trkpt lat="46.08323" lon="0.18962">
        <ele>145.3</ele>
        <time>2021-08-05T18:39:20Z</time>
      </trkpt>
      <trkpt lat="46.08532" lon="0.18982">
        <ele>147.22</ele>
        <time>2021-08-05T18:39:28Z</time>
      </trkpt>
      <trkpt lat="46.08715" lon="0.19064">
        <ele>145.3</ele>
        <time>2021-08-05T18:39:35Z</time>
      </trkpt>
      <trkpt lat="46.08957" lon="0.19204">
        <ele>155.39</ele>
        <time>2021-08-05T18:39:45Z</time>
      </trkpt>
      <trkpt lat="46.09155" lon="0.19248">
        <ele>164.04</ele>
        <time>2021-08-05T18:39:53Z</time>
      </trkpt>
      <trkpt lat="46.09353" lon="0.19222">
        <ele>167.41</ele>
        <time>2021-08-05T18:40:01Z</time>
      </trkpt>
      <trkpt lat="46.0974" lon="0.19096">
        <ele>158.75</ele>
        <time>2021-08-05T18:40:16Z</time>
      </trkpt>
      <trkpt lat="46.09965" lon="0.19026">
        <ele>153.95</ele>
        <time>2021-08-05T18:40:26Z</time>
      </trkpt>
      <trkpt lat="46.1025" lon="0.18936">
        <ele>135.68</ele>
        <time>2021-08-05T18:40:37Z</time>
      </trkpt>
      <trkpt lat="46.1062" lon="0.1882">
        <ele>128.95</ele>
        <time>2021-08-05T18:40:53Z</time>
      </trkpt>
      <trkpt lat="46.11193" lon="0.18644">
        <ele>128.95</ele>
        <time>2021-08-05T18:41:16Z</time>
      </trkpt>
      <trkpt lat="46.11743" lon="0.18477">
        <ele>125.11</ele>
        <time>2021-08-05T18:41:38Z</time>
      </trkpt>
      <trkpt lat="46.12233" lon="0.18328">
        <ele>125.11</ele>
        <time>2021-08-05T18:41:58Z</time>
      </trkpt>
      <trkpt lat="46.12591" lon="0.18205">
        <ele>125.59</ele>
        <time>2021-08-05T18:42:13Z</time>
      </trkpt>
      <trkpt lat="46.13056" lon="0.17978">
        <ele>121.74</ele>
        <time>2021-08-05T18:42:32Z</time>
      </trkpt>
      <trkpt lat="46.13283" lon="0.17834">
        <ele>124.63</ele>
        <time>2021-08-05T18:42:43Z</time>
      </trkpt>
      <trkpt lat="46.13542" lon="0.1761">
        <ele>122.22</ele>
        <time>2021-08-05T18:42:55Z</time>
      </trkpt>
      <trkpt lat="46.13757" lon="0.17489">
        <ele>119.34</ele>
        <time>2021-08-05T18:43:04Z</time>
      </trkpt>
      <trkpt lat="46.14014" lon="0.17428">
        <ele>121.26</ele>
        <time>2021-08-05T18:43:14Z</time>
      </trkpt>
      <trkpt lat="46.14265" lon="0.17449">
        <ele>124.63</ele>
        <time>2021-08-05T18:43:24Z</time>
      </trkpt>
      <trkpt lat="46.14608" lon="0.17516">
        <ele>124.63</ele>
        <time>2021-08-05T18:43:38Z</time>
      </trkpt>
      <trkpt lat="46.14862" lon="0.17505">
        <ele>122.22</ele>
        <time>2021-08-05T18:43:48Z</time>
      </trkpt>
      <trkpt lat="46.15161" lon="0.17421">
        <ele>124.15</ele>
        <time>2021-08-05T18:44:00Z</time>
      </trkpt>
      <trkpt lat="46.15689" lon="0.1726">
        <ele>124.15</ele>
        <time>2021-08-05T18:44:22Z</time>
      </trkpt>
      <trkpt lat="46.16173" lon="0.17113">
        <ele>125.11</ele>
        <time>2021-08-05T18:44:42Z</time>
      </trkpt>
      <trkpt lat="46.1672" lon="0.16947">
        <ele>127.03</ele>
        <time>2021-08-05T18:45:04Z</time>
      </trkpt>
      <trkpt lat="46.17228" lon="0.1679">
        <ele>127.51</ele>
        <time>2021-08-05T18:45:24Z</time>
      </trkpt>
      <trkpt lat="46.17662" lon="0.1666">
        <ele>132.32</ele>
        <time>2021-08-05T18:45:42Z</time>
      </trkpt>
      <trkpt lat="46.18141" lon="0.16512">
        <ele>132.32</ele>
        <time>2021-08-05T18:46:01Z</time>
      </trkpt>
      <trkpt lat="46.18608" lon="0.16373">
        <ele>140.01</ele>
        <time>2021-08-05T18:46:19Z</time>
      </trkpt>
      <trkpt lat="46.18899" lon="0.16336">
        <ele>136.64</ele>
        <time>2021-08-05T18:46:31Z</time>
      </trkpt>
      <trkpt lat="46.19356" lon="0.16304">
        <ele>138.57</ele>
        <time>2021-08-05T18:46:50Z</time>
      </trkpt>
      <trkpt lat="46.1985" lon="0.16264">
        <ele>133.76</ele>
        <time>2021-08-05T18:47:10Z</time>
      </trkpt>
      <trkpt lat="46.20064" lon="0.16193">
        <ele>131.84</ele>
        <time>2021-08-05T18:47:19Z</time>
      </trkpt>
      <trkpt lat="46.20444" lon="0.1603">
        <ele>127.51</ele>
        <time>2021-08-05T18:47:34Z</time>
      </trkpt>
      <trkpt lat="46.20683" lon="0.15985">
        <ele>129.92</ele>
        <time>2021-08-05T18:47:45Z</time>
      </trkpt>
      <trkpt lat="46.20971" lon="0.15996">
        <ele>132.8</ele>
        <time>2021-08-05T18:47:57Z</time>
      </trkpt>
      <trkpt lat="46.21284" lon="0.16055">
        <ele>131.36</ele>
        <time>2021-08-05T18:48:10Z</time>
      </trkpt>
      <trkpt lat="46.21763" lon="0.16157">
        <ele>130.88</ele>
        <time>2021-08-05T18:48:30Z</time>
      </trkpt>
      <trkpt lat="46.22147" lon="0.16236">
        <ele>136.16</ele>
        <time>2021-08-05T18:48:46Z</time>
      </trkpt>
      <trkpt lat="46.22571" lon="0.16324">
        <ele>136.64</ele>
        <time>2021-08-05T18:49:04Z</time>
      </trkpt>
      <trkpt lat="46.23004" lon="0.16413">
        <ele>129.92</ele>
        <time>2021-08-05T18:49:21Z</time>
      </trkpt>
      <trkpt lat="46.23579" lon="0.16529">
        <ele>127.03</ele>
        <time>2021-08-05T18:49:44Z</time>
      </trkpt>
      <trkpt lat="46.24033" lon="0.16609">
        <ele>130.88</ele>
        <time>2021-08-05T18:50:03Z</time>
      </trkpt>
      <trkpt lat="46.24273" lon="0.16591">
        <ele>127.51</ele>
        <time>2021-08-05T18:50:13Z</time>
      </trkpt>
      <trkpt lat="46.24745" lon="0.16512">
        <ele>124.15</ele>
        <time>2021-08-05T18:50:32Z</time>
      </trkpt>
      <trkpt lat="46.24972" lon="0.16517">
        <ele>124.63</ele>
        <time>2021-08-05T18:50:41Z</time>
      </trkpt>
      <trkpt lat="46.25213" lon="0.16592">
        <ele>125.59</ele>
        <time>2021-08-05T18:50:50Z</time>
      </trkpt>
      <trkpt lat="46.2543" lon="0.16728">
        <ele>132.32</ele>
        <time>2021-08-05T18:51:01Z</time>
      </trkpt>
      <trkpt lat="46.2578" lon="0.16948">
        <ele>141.93</ele>
        <time>2021-08-05T18:51:17Z</time>
      </trkpt>
      <trkpt lat="46.26029" lon="0.17023">
        <ele>143.85</ele>
        <time>2021-08-05T18:51:27Z</time>
      </trkpt>
      <trkpt lat="46.26537" lon="0.17127">
        <ele>147.22</ele>
        <time>2021-08-05T18:51:47Z</time>
      </trkpt>
      <trkpt lat="46.27008" lon="0.17221">
        <ele>143.37</ele>
        <time>2021-08-05T18:52:05Z</time>
      </trkpt>
      <trkpt lat="46.27539" lon="0.17327">
        <ele>145.3</ele>
        <time>2021-08-05T18:52:26Z</time>
      </trkpt>
      <trkpt lat="46.28038" lon="0.17426">
        <ele>146.74</ele>
        <time>2021-08-05T18:52:46Z</time>
      </trkpt>
      <trkpt lat="46.28485" lon="0.17496">
        <ele>144.82</ele>
        <time>2021-08-05T18:53:04Z</time>
      </trkpt>
      <trkpt lat="46.28828" lon="0.17487">
        <ele>143.85</ele>
        <time>2021-08-05T18:53:18Z</time>
      </trkpt>
      <trkpt lat="46.29306" lon="0.17405">
        <ele>131.36</ele>
        <time>2021-08-05T18:53:37Z</time>
      </trkpt>
      <trkpt lat="46.29594" lon="0.1739">
        <ele>119.34</ele>
        <time>2021-08-05T18:53:48Z</time>
      </trkpt>
      <trkpt lat="46.29838" lon="0.17435">
        <ele>112.13</ele>
        <time>2021-08-05T18:53:58Z</time>
      </trkpt>
      <trkpt lat="46.30075" lon="0.17549">
        <ele>109.25</ele>
        <time>2021-08-05T18:54:08Z</time>
      </trkpt>
      <trkpt lat="46.30504" lon="0.17808">
        <ele>118.86</ele>
        <time>2021-08-05T18:54:26Z</time>
      </trkpt>
      <trkpt lat="46.30773" lon="0.18022">
        <ele>127.51</ele>
        <time>2021-08-05T18:54:37Z</time>
      </trkpt>
      <trkpt lat="46.30932" lon="0.18239">
        <ele>127.99</ele>
        <time>2021-08-05T18:54:46Z</time>
      </trkpt>
      <trkpt lat="46.3114" lon="0.18512">
        <ele>115.98</ele>
        <time>2021-08-05T18:54:56Z</time>
      </trkpt>
      <trkpt lat="46.31313" lon="0.18636">
        <ele>112.13</ele>
        <time>2021-08-05T18:55:03Z</time>
      </trkpt>
      <trkpt lat="46.31492" lon="0.1869">
        <ele>121.26</ele>
        <time>2021-08-05T18:55:10Z</time>
      </trkpt>
      <trkpt lat="46.31809" lon="0.18691">
        <ele>134.24</ele>
        <time>2021-08-05T18:55:23Z</time>
      </trkpt>
      <trkpt lat="46.32244" lon="0.18673">
        <ele>137.13</ele>
        <time>2021-08-05T18:55:41Z</time>
      </trkpt>
      <trkpt lat="46.32785" lon="0.18652">
        <ele>142.41</ele>
        <time>2021-08-05T18:56:03Z</time>
      </trkpt>
      <trkpt lat="46.33227" lon="0.18634">
        <ele>140.01</ele>
        <time>2021-08-05T18:56:21Z</time>
      </trkpt>
      <trkpt lat="46.33666" lon="0.18616">
        <ele>131.84</ele>
        <time>2021-08-05T18:56:38Z</time>
      </trkpt>
      <trkpt lat="46.34191" lon="0.18595">
        <ele>130.4</ele>
        <time>2021-08-05T18:56:59Z</time>
      </trkpt>
      <trkpt lat="46.34722" lon="0.18583">
        <ele>126.07</ele>
        <time>2021-08-05T18:57:20Z</time>
      </trkpt>
      <trkpt lat="46.34924" lon="0.18647">
        <ele>124.15</ele>
        <time>2021-08-05T18:57:28Z</time>
      </trkpt>
      <trkpt lat="46.35107" lon="0.18781">
        <ele>125.11</ele>
        <time>2021-08-05T18:57:36Z</time>
      </trkpt>
      <trkpt lat="46.35494" lon="0.19208">
        <ele>124.63</ele>
        <time>2021-08-05T18:57:55Z</time>
      </trkpt>
      <trkpt lat="46.35871" lon="0.19638">
        <ele>127.03</ele>
        <time>2021-08-05T18:58:14Z</time>
      </trkpt>
      <trkpt lat="46.36058" lon="0.19944">
        <ele>127.51</ele>
        <time>2021-08-05T18:58:25Z</time>
      </trkpt>
      <trkpt lat="46.36304" lon="0.20364">
        <ele>125.11</ele>
        <time>2021-08-05T18:58:40Z</time>
      </trkpt>
      <trkpt lat="46.36477" lon="0.20571">
        <ele>124.63</ele>
        <time>2021-08-05T18:58:49Z</time>
      </trkpt>
      <trkpt lat="46.36689" lon="0.20741">
        <ele>125.11</ele>
        <time>2021-08-05T18:58:59Z</time>
      </trkpt>
      <trkpt lat="46.3692" lon="0.20844">
        <ele>127.03</ele>
        <time>2021-08-05T18:59:09Z</time>
      </trkpt>
      <trkpt lat="46.37235" lon="0.20915">
        <ele>127.99</ele>
        <time>2021-08-05T18:59:22Z</time>
      </trkpt>
      <trkpt lat="46.37489" lon="0.21034">
        <ele>128.95</ele>
        <time>2021-08-05T18:59:33Z</time>
      </trkpt>
      <trkpt lat="46.37755" lon="0.21247">
        <ele>133.76</ele>
        <time>2021-08-05T18:59:46Z</time>
      </trkpt>
      <trkpt lat="46.38065" lon="0.21524">
        <ele>127.99</ele>
        <time>2021-08-05T19:00:02Z</time>
      </trkpt>
      <trkpt lat="46.38506" lon="0.21922">
        <ele>112.13</ele>
        <time>2021-08-05T19:00:24Z</time>
      </trkpt>
      <trkpt lat="46.38786" lon="0.22176">
        <ele>104.44</ele>
        <time>2021-08-05T19:00:40Z</time>
      </trkpt>
      <trkpt lat="46.39128" lon="0.22486">
        <ele>103.96</ele>
        <time>2021-08-05T19:00:59Z</time>
      </trkpt>
      <trkpt lat="46.39474" lon="0.22799">
        <ele>106.36</ele>
        <time>2021-08-05T19:01:18Z</time>
      </trkpt>
      <trkpt lat="46.39826" lon="0.23116">
        <ele>102.52</ele>
        <time>2021-08-05T19:01:36Z</time>
      </trkpt>
      <trkpt lat="46.40281" lon="0.23527">
        <ele>105.4</ele>
        <time>2021-08-05T19:02:00Z</time>
      </trkpt>
      <trkpt lat="46.40664" lon="0.23873">
        <ele>100.11</ele>
        <time>2021-08-05T19:02:20Z</time>
      </trkpt>
      <trkpt lat="46.40988" lon="0.24167">
        <ele>106.84</ele>
        <time>2021-08-05T19:02:37Z</time>
      </trkpt>
      <trkpt lat="46.41335" lon="0.24475">
        <ele>103.96</ele>
        <time>2021-08-05T19:02:54Z</time>
      </trkpt>
      <trkpt lat="46.41708" lon="0.24818">
        <ele>102.52</ele>
        <time>2021-08-05T19:03:13Z</time>
      </trkpt>
      <trkpt lat="46.4224" lon="0.25306">
        <ele>97.71</ele>
        <time>2021-08-05T19:03:39Z</time>
      </trkpt>
      <trkpt lat="46.42697" lon="0.2572">
        <ele>82.81</ele>
        <time>2021-08-05T19:04:01Z</time>
      </trkpt>
      <trkpt lat="46.4297" lon="0.25987">
        <ele>100.6</ele>
        <time>2021-08-05T19:04:15Z</time>
      </trkpt>
      <trkpt lat="46.43212" lon="0.26256">
        <ele>114.05</ele>
        <time>2021-08-05T19:04:29Z</time>
      </trkpt>
      <trkpt lat="46.43388" lon="0.2638">
        <ele>116.46</ele>
        <time>2021-08-05T19:04:38Z</time>
      </trkpt>
      <trkpt lat="46.43581" lon="0.26444">
        <ele>120.3</ele>
        <time>2021-08-05T19:04:47Z</time>
      </trkpt>
      <trkpt lat="46.43925" lon="0.26487">
        <ele>121.74</ele>
        <time>2021-08-05T19:05:02Z</time>
      </trkpt>
      <trkpt lat="46.44297" lon="0.26533">
        <ele>125.11</ele>
        <time>2021-08-05T19:05:17Z</time>
      </trkpt>
      <trkpt lat="46.44883" lon="0.26602">
        <ele>131.36</ele>
        <time>2021-08-05T19:05:41Z</time>
      </trkpt>
      <trkpt lat="46.45309" lon="0.26652">
        <ele>125.59</ele>
        <time>2021-08-05T19:05:58Z</time>
      </trkpt>
      <trkpt lat="46.45565" lon="0.2668">
        <ele>122.71</ele>
        <time>2021-08-05T19:06:09Z</time>
      </trkpt>
      <trkpt lat="46.45963" lon="0.26726">
        <ele>125.11</ele>
        <time>2021-08-05T19:06:28Z</time>
      </trkpt>
      <trkpt lat="46.46317" lon="0.26765">
        <ele>127.51</ele>
        <time>2021-08-05T19:06:45Z</time>
      </trkpt>
      <trkpt lat="46.46704" lon="0.2681">
        <ele>135.68</ele>
        <time>2021-08-05T19:07:02Z</time>
      </trkpt>
      <trkpt lat="46.47079" lon="0.26857">
        <ele>139.53</ele>
        <time>2021-08-05T19:07:18Z</time>
      </trkpt>
      <trkpt lat="46.47339" lon="0.26928">
        <ele>138.09</ele>
        <time>2021-08-05T19:07:31Z</time>
      </trkpt>
      <trkpt lat="46.47717" lon="0.27038">
        <ele>127.51</ele>
        <time>2021-08-05T19:07:48Z</time>
      </trkpt>
      <trkpt lat="46.48083" lon="0.27143">
        <ele>126.55</ele>
        <time>2021-08-05T19:08:05Z</time>
      </trkpt>
      <trkpt lat="46.48495" lon="0.27261">
        <ele>135.2</ele>
        <time>2021-08-05T19:08:24Z</time>
      </trkpt>
      <trkpt lat="46.48881" lon="0.27372">
        <ele>124.63</ele>
        <time>2021-08-05T19:08:39Z</time>
      </trkpt>
      <trkpt lat="46.49181" lon="0.27494">
        <ele>120.3</ele>
        <time>2021-08-05T19:08:52Z</time>
      </trkpt>
      <trkpt lat="46.49503" lon="0.27715">
        <ele>125.11</ele>
        <time>2021-08-05T19:09:05Z</time>
      </trkpt>
      <trkpt lat="46.49685" lon="0.27812">
        <ele>131.84</ele>
        <time>2021-08-05T19:09:14Z</time>
      </trkpt>
      <trkpt lat="46.49899" lon="0.27849">
        <ele>135.68</ele>
        <time>2021-08-05T19:09:23Z</time>
      </trkpt>
      <trkpt lat="46.50162" lon="0.27793">
        <ele>134.24</ele>
        <time>2021-08-05T19:09:33Z</time>
      </trkpt>
      <trkpt lat="46.50405" lon="0.27757">
        <ele>131.36</ele>
        <time>2021-08-05T19:09:44Z</time>
      </trkpt>
      <trkpt lat="46.50694" lon="0.2781">
        <ele>128.95</ele>
        <time>2021-08-05T19:09:56Z</time>
      </trkpt>
      <trkpt lat="46.51175" lon="0.27901">
        <ele>117.9</ele>
        <time>2021-08-05T19:10:16Z</time>
      </trkpt>
      <trkpt lat="46.51441" lon="0.27887">
        <ele>108.77</ele>
        <time>2021-08-05T19:10:27Z</time>
      </trkpt>
    </trkseg>
  </trk>
  <trk>
    <name><![CDATA[Journal actif: 2021-08-05 17:10]]></name>
    <trkseg>
      <trkpt lat="46.51684" lon="0.27864">
        <ele>105.88</ele>
        <time>2021-08-05T19:10:37Z</time>
      </trkpt>
      <trkpt lat="46.5189" lon="0.27897">
        <ele>112.61</ele>
        <time>2021-08-05T19:10:46Z</time>
      </trkpt>
      <trkpt lat="46.52123" lon="0.27998">
        <ele>120.3</ele>
        <time>2021-08-05T19:10:57Z</time>
      </trkpt>
      <trkpt lat="46.52404" lon="0.28153">
        <ele>127.99</ele>
        <time>2021-08-05T19:11:11Z</time>
      </trkpt>
      <trkpt lat="46.52605" lon="0.28201">
        <ele>133.76</ele>
        <time>2021-08-05T19:11:21Z</time>
      </trkpt>
      <trkpt lat="46.5296" lon="0.2827">
        <ele>129.92</ele>
        <time>2021-08-05T19:11:40Z</time>
      </trkpt>
      <trkpt lat="46.53249" lon="0.28331">
        <ele>120.3</ele>
        <time>2021-08-05T19:11:55Z</time>
      </trkpt>
      <trkpt lat="46.53544" lon="0.28412">
        <ele>110.21</ele>
        <time>2021-08-05T19:12:09Z</time>
      </trkpt>
      <trkpt lat="46.53701" lon="0.28526">
        <ele>115.98</ele>
        <time>2021-08-05T19:12:17Z</time>
      </trkpt>
      <trkpt lat="46.53816" lon="0.28686">
        <ele>122.71</ele>
        <time>2021-08-05T19:12:25Z</time>
      </trkpt>
      <trkpt lat="46.5399" lon="0.29005">
        <ele>130.4</ele>
        <time>2021-08-05T19:12:39Z</time>
      </trkpt>
      <trkpt lat="46.54131" lon="0.29183">
        <ele>135.68</ele>
        <time>2021-08-05T19:12:48Z</time>
      </trkpt>
      <trkpt lat="46.54244" lon="0.29343">
        <ele>141.45</ele>
        <time>2021-08-05T19:12:59Z</time>
      </trkpt>
      <trkpt lat="46.54249" lon="0.2936">
        <ele>140.97</ele>
        <time>2021-08-05T19:13:00Z</time>
      </trkpt>
      <trkpt lat="46.54259" lon="0.29396">
        <ele>140.97</ele>
        <time>2021-08-05T19:13:01Z</time>
      </trkpt>
      <trkpt lat="46.54322" lon="0.2962">
        <ele>141.45</ele>
        <time>2021-08-05T19:13:12Z</time>
      </trkpt>
      <trkpt lat="46.54366" lon="0.29787">
        <ele>141.93</ele>
        <time>2021-08-05T19:13:22Z</time>
      </trkpt>
      <trkpt lat="46.54373" lon="0.29801">
        <ele>141.93</ele>
        <time>2021-08-05T19:13:23Z</time>
      </trkpt>
      <trkpt lat="46.54379" lon="0.29814">
        <ele>141.93</ele>
        <time>2021-08-05T19:13:24Z</time>
      </trkpt>
      <trkpt lat="46.54387" lon="0.29822">
        <ele>140.97</ele>
        <time>2021-08-05T19:13:25Z</time>
      </trkpt>
      <trkpt lat="46.54396" lon="0.29828">
        <ele>140.49</ele>
        <time>2021-08-05T19:13:26Z</time>
      </trkpt>
      <trkpt lat="46.54417" lon="0.29839">
        <ele>140.97</ele>
        <time>2021-08-05T19:13:27Z</time>
      </trkpt>
      <trkpt lat="46.54417" lon="0.29839">
        <ele>140.49</ele>
        <time>2021-08-05T19:13:28Z</time>
      </trkpt>
      <trkpt lat="46.54436" lon="0.29839">
        <ele>140.97</ele>
        <time>2021-08-05T19:13:29Z</time>
      </trkpt>
      <trkpt lat="46.54446" lon="0.29839">
        <ele>141.93</ele>
        <time>2021-08-05T19:13:30Z</time>
      </trkpt>
      <trkpt lat="46.54446" lon="0.29839">
        <ele>141.93</ele>
        <time>2021-08-05T19:13:31Z</time>
      </trkpt>
      <trkpt lat="46.54456" lon="0.29833">
        <ele>141.45</ele>
        <time>2021-08-05T19:13:32Z</time>
      </trkpt>
      <trkpt lat="46.54465" lon="0.29825">
        <ele>140.97</ele>
        <time>2021-08-05T19:13:33Z</time>
      </trkpt>
      <trkpt lat="46.54474" lon="0.29818">
        <ele>140.49</ele>
        <time>2021-08-05T19:13:34Z</time>
      </trkpt>
      <trkpt lat="46.54481" lon="0.29808">
        <ele>140.97</ele>
        <time>2021-08-05T19:13:35Z</time>
      </trkpt>
      <trkpt lat="46.54496" lon="0.29787">
        <ele>141.45</ele>
        <time>2021-08-05T19:13:36Z</time>
      </trkpt>
      <trkpt lat="46.54503" lon="0.29774">
        <ele>141.93</ele>
        <time>2021-08-05T19:13:37Z</time>
      </trkpt>
      <trkpt lat="46.54581" lon="0.29612">
        <ele>143.37</ele>
        <time>2021-08-05T19:13:48Z</time>
      </trkpt>
      <trkpt lat="46.54718" lon="0.29316">
        <ele>138.57</ele>
        <time>2021-08-05T19:14:03Z</time>
      </trkpt>
      <trkpt lat="46.54838" lon="0.29059">
        <ele>134.72</ele>
        <time>2021-08-05T19:14:17Z</time>
      </trkpt>
      <trkpt lat="46.54879" lon="0.28966">
        <ele>132.8</ele>
        <time>2021-08-05T19:14:26Z</time>
      </trkpt>
      <trkpt lat="46.54889" lon="0.28943">
        <ele>132.8</ele>
        <time>2021-08-05T19:14:35Z</time>
      </trkpt>
      <trkpt lat="46.54907" lon="0.289">
        <ele>131.36</ele>
        <time>2021-08-05T19:14:45Z</time>
      </trkpt>
      <trkpt lat="46.54955" lon="0.28797">
        <ele>126.55</ele>
        <time>2021-08-05T19:14:54Z</time>
      </trkpt>
      <trkpt lat="46.55049" lon="0.28614">
        <ele>121.74</ele>
        <time>2021-08-05T19:15:06Z</time>
      </trkpt>
      <trkpt lat="46.55171" lon="0.28449">
        <ele>123.19</ele>
        <time>2021-08-05T19:15:17Z</time>
      </trkpt>
      <trkpt lat="46.55298" lon="0.28382">
        <ele>125.11</ele>
        <time>2021-08-05T19:15:24Z</time>
      </trkpt>
      <trkpt lat="46.55451" lon="0.28387">
        <ele>129.43</ele>
        <time>2021-08-05T19:15:33Z</time>
      </trkpt>
      <trkpt lat="46.55708" lon="0.28486">
        <ele>123.19</ele>
        <time>2021-08-05T19:15:46Z</time>
      </trkpt>
      <trkpt lat="46.55998" lon="0.28596">
        <ele>116.46</ele>
        <time>2021-08-05T19:15:59Z</time>
      </trkpt>
      <trkpt lat="46.56337" lon="0.28701">
        <ele>110.69</ele>
        <time>2021-08-05T19:16:13Z</time>
      </trkpt>
      <trkpt lat="46.56855" lon="0.28837">
        <ele>102.52</ele>
        <time>2021-08-05T19:16:33Z</time>
      </trkpt>
      <trkpt lat="46.57281" lon="0.28946">
        <ele>103</ele>
        <time>2021-08-05T19:16:52Z</time>
      </trkpt>
      <trkpt lat="46.57569" lon="0.29023">
        <ele>104.92</ele>
        <time>2021-08-05T19:17:05Z</time>
      </trkpt>
      <trkpt lat="46.57845" lon="0.29115">
        <ele>107.81</ele>
        <time>2021-08-05T19:17:16Z</time>
      </trkpt>
      <trkpt lat="46.58172" lon="0.29293">
        <ele>111.17</ele>
        <time>2021-08-05T19:17:29Z</time>
      </trkpt>
      <trkpt lat="46.58471" lon="0.29522">
        <ele>115.98</ele>
        <time>2021-08-05T19:17:42Z</time>
      </trkpt>
      <trkpt lat="46.5887" lon="0.29902">
        <ele>113.57</ele>
        <time>2021-08-05T19:18:00Z</time>
      </trkpt>
      <trkpt lat="46.59304" lon="0.3035">
        <ele>110.69</ele>
        <time>2021-08-05T19:18:21Z</time>
      </trkpt>
      <trkpt lat="46.59725" lon="0.30829">
        <ele>115.5</ele>
        <time>2021-08-05T19:18:43Z</time>
      </trkpt>
      <trkpt lat="46.60147" lon="0.31384">
        <ele>124.15</ele>
        <time>2021-08-05T19:19:07Z</time>
      </trkpt>
      <trkpt lat="46.60484" lon="0.31878">
        <ele>125.11</ele>
        <time>2021-08-05T19:19:26Z</time>
      </trkpt>
      <trkpt lat="46.60767" lon="0.32342">
        <ele>121.74</ele>
        <time>2021-08-05T19:19:43Z</time>
      </trkpt>
      <trkpt lat="46.61062" lon="0.32884">
        <ele>115.98</ele>
        <time>2021-08-05T19:20:03Z</time>
      </trkpt>
      <trkpt lat="46.61271" lon="0.33302">
        <ele>112.61</ele>
        <time>2021-08-05T19:20:18Z</time>
      </trkpt>
      <trkpt lat="46.61516" lon="0.33801">
        <ele>106.36</ele>
        <time>2021-08-05T19:20:35Z</time>
      </trkpt>
      <trkpt lat="46.61721" lon="0.34162">
        <ele>107.32</ele>
        <time>2021-08-05T19:20:48Z</time>
      </trkpt>
      <trkpt lat="46.6195" lon="0.34468">
        <ele>111.17</ele>
        <time>2021-08-05T19:21:01Z</time>
      </trkpt>
      <trkpt lat="46.62195" lon="0.34717">
        <ele>107.81</ele>
        <time>2021-08-05T19:21:13Z</time>
      </trkpt>
      <trkpt lat="46.62482" lon="0.34931">
        <ele>104.44</ele>
        <time>2021-08-05T19:21:26Z</time>
      </trkpt>
      <trkpt lat="46.62807" lon="0.35089">
        <ele>97.23</ele>
        <time>2021-08-05T19:21:40Z</time>
      </trkpt>
      <trkpt lat="46.6315" lon="0.35182">
        <ele>87.14</ele>
        <time>2021-08-05T19:21:54Z</time>
      </trkpt>
      <trkpt lat="46.63683" lon="0.3532">
        <ele>65.51</ele>
        <time>2021-08-05T19:22:15Z</time>
      </trkpt>
      <trkpt lat="46.64118" lon="0.35453">
        <ele>76.08</ele>
        <time>2021-08-05T19:22:33Z</time>
      </trkpt>
      <trkpt lat="46.64495" lon="0.35537">
        <ele>86.18</ele>
        <time>2021-08-05T19:22:48Z</time>
      </trkpt>
      <trkpt lat="46.64886" lon="0.35568">
        <ele>96.75</ele>
        <time>2021-08-05T19:23:03Z</time>
      </trkpt>
      <trkpt lat="46.65315" lon="0.35546">
        <ele>101.56</ele>
        <time>2021-08-05T19:23:20Z</time>
      </trkpt>
      <trkpt lat="46.65762" lon="0.35536">
        <ele>93.87</ele>
        <time>2021-08-05T19:23:38Z</time>
      </trkpt>
      <trkpt lat="46.66213" lon="0.35599">
        <ele>88.1</ele>
        <time>2021-08-05T19:23:55Z</time>
      </trkpt>
      <trkpt lat="46.66758" lon="0.35708">
        <ele>78.97</ele>
        <time>2021-08-05T19:24:18Z</time>
      </trkpt>
      <trkpt lat="46.67057" lon="0.35777">
        <ele>77.04</ele>
        <time>2021-08-05T19:24:30Z</time>
      </trkpt>
      <trkpt lat="46.67088" lon="0.35784">
        <ele>77.52</ele>
        <time>2021-08-05T19:24:33Z</time>
      </trkpt>
      <trkpt lat="46.67101" lon="0.35788">
        <ele>77.52</ele>
        <time>2021-08-05T19:24:34Z</time>
      </trkpt>
      <trkpt lat="46.67113" lon="0.35799">
        <ele>78</ele>
        <time>2021-08-05T19:24:35Z</time>
      </trkpt>
      <trkpt lat="46.67122" lon="0.3581">
        <ele>78</ele>
        <time>2021-08-05T19:24:36Z</time>
      </trkpt>
      <trkpt lat="46.6713" lon="0.35822">
        <ele>78.97</ele>
        <time>2021-08-05T19:24:37Z</time>
      </trkpt>
      <trkpt lat="46.67138" lon="0.35834">
        <ele>79.45</ele>
        <time>2021-08-05T19:24:38Z</time>
      </trkpt>
      <trkpt lat="46.67139" lon="0.3586">
        <ele>79.93</ele>
        <time>2021-08-05T19:24:39Z</time>
      </trkpt>
      <trkpt lat="46.6714" lon="0.35875">
        <ele>81.37</ele>
        <time>2021-08-05T19:24:40Z</time>
      </trkpt>
      <trkpt lat="46.67137" lon="0.3589">
        <ele>81.37</ele>
        <time>2021-08-05T19:24:41Z</time>
      </trkpt>
      <trkpt lat="46.67133" lon="0.35907">
        <ele>80.89</ele>
        <time>2021-08-05T19:24:42Z</time>
      </trkpt>
      <trkpt lat="46.67128" lon="0.3592">
        <ele>80.41</ele>
        <time>2021-08-05T19:24:43Z</time>
      </trkpt>
      <trkpt lat="46.67119" lon="0.35931">
        <ele>81.37</ele>
        <time>2021-08-05T19:24:44Z</time>
      </trkpt>
      <trkpt lat="46.67119" lon="0.35931">
        <ele>81.37</ele>
        <time>2021-08-05T19:24:45Z</time>
      </trkpt>
      <trkpt lat="46.671" lon="0.35953">
        <ele>80.89</ele>
        <time>2021-08-05T19:24:46Z</time>
      </trkpt>
      <trkpt lat="46.671" lon="0.35953">
        <ele>79.93</ele>
        <time>2021-08-05T19:24:47Z</time>
      </trkpt>
      <trkpt lat="46.67088" lon="0.3596">
        <ele>79.93</ele>
        <time>2021-08-05T19:24:48Z</time>
      </trkpt>
      <trkpt lat="46.67012" lon="0.35993">
        <ele>78.97</ele>
        <time>2021-08-05T19:24:57Z</time>
      </trkpt>
    </trkseg>
  </trk>
  <trk>
    <name><![CDATA[Journal actif: 2021-08-05 17:25]]></name>
    <trkseg>
      <trkpt lat="46.66996" lon="0.35999">
        <ele>78.97</ele>
        <time>2021-08-05T19:25:06Z</time>
      </trkpt>
      <trkpt lat="46.66938" lon="0.36029">
        <ele>80.41</ele>
        <time>2021-08-05T19:25:16Z</time>
      </trkpt>
      <trkpt lat="46.66904" lon="0.36053">
        <ele>82.33</ele>
        <time>2021-08-05T19:25:22Z</time>
      </trkpt>
      <trkpt lat="46.669" lon="0.36055">
        <ele>82.33</ele>
        <time>2021-08-05T19:25:23Z</time>
      </trkpt>
      <trkpt lat="46.66895" lon="0.36048">
        <ele>81.85</ele>
        <time>2021-08-05T19:25:24Z</time>
      </trkpt>
      <trkpt lat="46.66878" lon="0.36035">
        <ele>82.33</ele>
        <time>2021-08-05T19:25:27Z</time>
      </trkpt>
      <trkpt lat="46.66872" lon="0.36035">
        <ele>82.33</ele>
        <time>2021-08-05T19:25:28Z</time>
      </trkpt>
      <trkpt lat="46.66865" lon="0.36034">
        <ele>82.81</ele>
        <time>2021-08-05T19:25:29Z</time>
      </trkpt>
      <trkpt lat="46.66856" lon="0.36038">
        <ele>82.81</ele>
        <time>2021-08-05T19:25:30Z</time>
      </trkpt>
      <trkpt lat="46.66851" lon="0.36043">
        <ele>83.29</ele>
        <time>2021-08-05T19:25:31Z</time>
      </trkpt>
      <trkpt lat="46.66845" lon="0.36053">
        <ele>83.77</ele>
        <time>2021-08-05T19:25:32Z</time>
      </trkpt>
      <trkpt lat="46.66827" lon="0.3606">
        <ele>84.25</ele>
        <time>2021-08-05T19:25:33Z</time>
      </trkpt>
      <trkpt lat="46.66827" lon="0.3606">
        <ele>84.25</ele>
        <time>2021-08-05T19:25:34Z</time>
      </trkpt>
      <trkpt lat="46.66809" lon="0.36054">
        <ele>83.77</ele>
        <time>2021-08-05T19:25:35Z</time>
      </trkpt>
      <trkpt lat="46.66809" lon="0.36054">
        <ele>83.77</ele>
        <time>2021-08-05T19:25:36Z</time>
      </trkpt>
      <trkpt lat="46.66698" lon="0.36024">
        <ele>86.66</ele>
        <time>2021-08-05T19:25:47Z</time>
      </trkpt>
      <trkpt lat="46.66528" lon="0.36022">
        <ele>90.5</ele>
        <time>2021-08-05T19:26:01Z</time>
      </trkpt>
      <trkpt lat="46.66414" lon="0.36061">
        <ele>94.83</ele>
        <time>2021-08-05T19:26:11Z</time>
      </trkpt>
      <trkpt lat="46.66346" lon="0.36108">
        <ele>97.23</ele>
        <time>2021-08-05T19:26:22Z</time>
      </trkpt>
      <trkpt lat="46.66343" lon="0.36111">
        <ele>97.23</ele>
        <time>2021-08-05T19:26:23Z</time>
      </trkpt>
      <trkpt lat="46.66339" lon="0.36108">
        <ele>96.75</ele>
        <time>2021-08-05T19:26:24Z</time>
      </trkpt>
      <trkpt lat="46.66336" lon="0.36105">
        <ele>96.75</ele>
        <time>2021-08-05T19:26:25Z</time>
      </trkpt>
      <trkpt lat="46.66331" lon="0.361">
        <ele>96.75</ele>
        <time>2021-08-05T19:26:26Z</time>
      </trkpt>
      <trkpt lat="46.66323" lon="0.36094">
        <ele>95.79</ele>
        <time>2021-08-05T19:26:27Z</time>
      </trkpt>
      <trkpt lat="46.66316" lon="0.36093">
        <ele>95.31</ele>
        <time>2021-08-05T19:26:28Z</time>
      </trkpt>
      <trkpt lat="46.66306" lon="0.36093">
        <ele>95.31</ele>
        <time>2021-08-05T19:26:29Z</time>
      </trkpt>
      <trkpt lat="46.66299" lon="0.36098">
        <ele>95.31</ele>
        <time>2021-08-05T19:26:30Z</time>
      </trkpt>
      <trkpt lat="46.66293" lon="0.36103">
        <ele>95.79</ele>
        <time>2021-08-05T19:26:31Z</time>
      </trkpt>
      <trkpt lat="46.66285" lon="0.36125">
        <ele>95.79</ele>
        <time>2021-08-05T19:26:32Z</time>
      </trkpt>
      <trkpt lat="46.66282" lon="0.36134">
        <ele>94.83</ele>
        <time>2021-08-05T19:26:33Z</time>
      </trkpt>
      <trkpt lat="46.66285" lon="0.36145">
        <ele>93.87</ele>
        <time>2021-08-05T19:26:34Z</time>
      </trkpt>
      <trkpt lat="46.66285" lon="0.36145">
        <ele>93.39</ele>
        <time>2021-08-05T19:26:35Z</time>
      </trkpt>
      <trkpt lat="46.66284" lon="0.36176">
        <ele>92.9</ele>
        <time>2021-08-05T19:26:36Z</time>
      </trkpt>
      <trkpt lat="46.66279" lon="0.36183">
        <ele>92.9</ele>
        <time>2021-08-05T19:26:37Z</time>
      </trkpt>
      <trkpt lat="46.66272" lon="0.3619">
        <ele>92.42</ele>
        <time>2021-08-05T19:26:38Z</time>
      </trkpt>
      <trkpt lat="46.66207" lon="0.363">
        <ele>90.02</ele>
        <time>2021-08-05T19:26:48Z</time>
      </trkpt>
      <trkpt lat="46.66144" lon="0.36475">
        <ele>85.21</ele>
        <time>2021-08-05T19:26:59Z</time>
      </trkpt>
      <trkpt lat="46.6613" lon="0.36525">
        <ele>83.29</ele>
        <time>2021-08-05T19:27:04Z</time>
      </trkpt>
      <trkpt lat="46.66128" lon="0.36538">
        <ele>84.25</ele>
        <time>2021-08-05T19:27:05Z</time>
      </trkpt>
      <trkpt lat="46.66128" lon="0.36538">
        <ele>84.25</ele>
        <time>2021-08-05T19:27:06Z</time>
      </trkpt>
      <trkpt lat="46.66115" lon="0.36538">
        <ele>84.73</ele>
        <time>2021-08-05T19:27:07Z</time>
      </trkpt>
      <trkpt lat="46.66109" lon="0.36538">
        <ele>85.21</ele>
        <time>2021-08-05T19:27:08Z</time>
      </trkpt>
      <trkpt lat="46.66086" lon="0.36558">
        <ele>85.21</ele>
        <time>2021-08-05T19:27:12Z</time>
      </trkpt>
      <trkpt lat="46.6608" lon="0.36558">
        <ele>85.21</ele>
        <time>2021-08-05T19:27:13Z</time>
      </trkpt>
      <trkpt lat="46.6608" lon="0.36558">
        <ele>84.73</ele>
        <time>2021-08-05T19:27:14Z</time>
      </trkpt>
      <trkpt lat="46.66076" lon="0.36556">
        <ele>84.25</ele>
        <time>2021-08-05T19:27:15Z</time>
      </trkpt>
      <trkpt lat="46.66071" lon="0.36554">
        <ele>83.77</ele>
        <time>2021-08-05T19:27:16Z</time>
      </trkpt>
      <trkpt lat="46.66066" lon="0.36553">
        <ele>84.73</ele>
        <time>2021-08-05T19:27:17Z</time>
      </trkpt>
      <trkpt lat="46.66062" lon="0.36551">
        <ele>84.25</ele>
        <time>2021-08-05T19:27:18Z</time>
      </trkpt>
      <trkpt lat="46.66052" lon="0.36546">
        <ele>84.25</ele>
        <time>2021-08-05T19:27:19Z</time>
      </trkpt>
      <trkpt lat="46.66011" lon="0.36522">
        <ele>85.69</ele>
        <time>2021-08-05T19:27:27Z</time>
      </trkpt>
      <trkpt lat="46.66006" lon="0.36519">
        <ele>86.18</ele>
        <time>2021-08-05T19:27:28Z</time>
      </trkpt>
      <trkpt lat="46.66002" lon="0.36516">
        <ele>86.18</ele>
        <time>2021-08-05T19:27:29Z</time>
      </trkpt>
      <trkpt lat="46.65999" lon="0.36515">
        <ele>86.18</ele>
        <time>2021-08-05T19:27:30Z</time>
      </trkpt>
      <trkpt lat="46.65994" lon="0.36512">
        <ele>85.21</ele>
        <time>2021-08-05T19:27:42Z</time>
      </trkpt>
      <trkpt lat="46.65994" lon="0.36512">
        <ele>85.21</ele>
        <time>2021-08-05T19:27:43Z</time>
      </trkpt>
      <trkpt lat="46.65991" lon="0.3651">
        <ele>85.21</ele>
        <time>2021-08-05T19:27:44Z</time>
      </trkpt>
      <trkpt lat="46.65989" lon="0.36509">
        <ele>85.21</ele>
        <time>2021-08-05T19:27:45Z</time>
      </trkpt>
      <trkpt lat="46.65987" lon="0.36508">
        <ele>84.73</ele>
        <time>2021-08-05T19:27:46Z</time>
      </trkpt>
      <trkpt lat="46.65985" lon="0.36507">
        <ele>84.73</ele>
        <time>2021-08-05T19:27:47Z</time>
      </trkpt>
      <trkpt lat="46.65946" lon="0.36483">
        <ele>86.66</ele>
        <time>2021-08-05T19:28:01Z</time>
      </trkpt>
      <trkpt lat="46.65932" lon="0.36475">
        <ele>86.66</ele>
        <time>2021-08-05T19:28:02Z</time>
      </trkpt>
      <trkpt lat="46.65931" lon="0.36478">
        <ele>86.66</ele>
        <time>2021-08-05T19:28:13Z</time>
      </trkpt>
      <trkpt lat="46.65931" lon="0.36481">
        <ele>86.66</ele>
        <time>2021-08-05T19:28:14Z</time>
      </trkpt>
      <trkpt lat="46.65945" lon="0.36482">
        <ele>86.66</ele>
        <time>2021-08-05T19:28:15Z</time>
      </trkpt>
      <trkpt lat="46.65947" lon="0.36484">
        <ele>86.18</ele>
        <time>2021-08-05T19:28:16Z</time>
      </trkpt>
      <trkpt lat="46.65951" lon="0.36487">
        <ele>86.66</ele>
        <time>2021-08-05T19:28:17Z</time>
      </trkpt>
      <trkpt lat="46.65956" lon="0.3649">
        <ele>86.66</ele>
        <time>2021-08-05T19:28:18Z</time>
      </trkpt>
      <trkpt lat="46.6604" lon="0.36539">
        <ele>85.21</ele>
        <time>2021-08-05T19:28:28Z</time>
      </trkpt>
      <trkpt lat="46.66075" lon="0.36556">
        <ele>84.73</ele>
        <time>2021-08-05T19:28:33Z</time>
      </trkpt>
      <trkpt lat="46.6608" lon="0.36558">
        <ele>84.73</ele>
        <time>2021-08-05T19:28:34Z</time>
      </trkpt>
      <trkpt lat="46.66084" lon="0.36574">
        <ele>84.73</ele>
        <time>2021-08-05T19:28:35Z</time>
      </trkpt>
      <trkpt lat="46.66083" lon="0.36581">
        <ele>84.73</ele>
        <time>2021-08-05T19:28:36Z</time>
      </trkpt>
      <trkpt lat="46.66083" lon="0.3659">
        <ele>84.73</ele>
        <time>2021-08-05T19:28:37Z</time>
      </trkpt>
      <trkpt lat="46.66091" lon="0.36618">
        <ele>84.25</ele>
        <time>2021-08-05T19:28:40Z</time>
      </trkpt>
      <trkpt lat="46.66103" lon="0.36637">
        <ele>84.25</ele>
        <time>2021-08-05T19:28:41Z</time>
      </trkpt>
      <trkpt lat="46.661" lon="0.36648">
        <ele>84.25</ele>
        <time>2021-08-05T19:28:42Z</time>
      </trkpt>
      <trkpt lat="46.66097" lon="0.3666">
        <ele>83.29</ele>
        <time>2021-08-05T19:28:43Z</time>
      </trkpt>
      <trkpt lat="46.66093" lon="0.36674">
        <ele>82.81</ele>
        <time>2021-08-05T19:28:44Z</time>
      </trkpt>
      <trkpt lat="46.66055" lon="0.3681">
        <ele>82.81</ele>
        <time>2021-08-05T19:28:54Z</time>
      </trkpt>
      <trkpt lat="46.66053" lon="0.36816">
        <ele>82.81</ele>
        <time>2021-08-05T19:28:55Z</time>
      </trkpt>
      <trkpt lat="46.66051" lon="0.36821">
        <ele>83.29</ele>
        <time>2021-08-05T19:28:56Z</time>
      </trkpt>
      <trkpt lat="46.66044" lon="0.36823">
        <ele>83.77</ele>
        <time>2021-08-05T19:28:57Z</time>
      </trkpt>
      <trkpt lat="46.66034" lon="0.36822">
        <ele>84.25</ele>
        <time>2021-08-05T19:28:58Z</time>
      </trkpt>
      <trkpt lat="46.66034" lon="0.36822">
        <ele>84.25</ele>
        <time>2021-08-05T19:28:59Z</time>
      </trkpt>
      <trkpt lat="46.66022" lon="0.36823">
        <ele>84.25</ele>
        <time>2021-08-05T19:29:00Z</time>
      </trkpt>
      <trkpt lat="46.66016" lon="0.36826">
        <ele>84.73</ele>
        <time>2021-08-05T19:29:01Z</time>
      </trkpt>
      <trkpt lat="46.66007" lon="0.3683">
        <ele>84.73</ele>
        <time>2021-08-05T19:29:02Z</time>
      </trkpt>
      <trkpt lat="46.65991" lon="0.36833">
        <ele>85.21</ele>
        <time>2021-08-05T19:29:05Z</time>
      </trkpt>
      <trkpt lat="46.65991" lon="0.36833">
        <ele>85.69</ele>
        <time>2021-08-05T19:29:06Z</time>
      </trkpt>
      <trkpt lat="46.65985" lon="0.36834">
        <ele>85.69</ele>
        <time>2021-08-05T19:29:07Z</time>
      </trkpt>
      <trkpt lat="46.65977" lon="0.36832">
        <ele>86.18</ele>
        <time>2021-08-05T19:29:08Z</time>
      </trkpt>
      <trkpt lat="46.65959" lon="0.36829">
        <ele>86.66</ele>
        <time>2021-08-05T19:29:09Z</time>
      </trkpt>
      <trkpt lat="46.65845" lon="0.36784">
        <ele>92.42</ele>
        <time>2021-08-05T19:29:21Z</time>
      </trkpt>
      <trkpt lat="46.65694" lon="0.36714">
        <ele>95.31</ele>
        <time>2021-08-05T19:29:32Z</time>
      </trkpt>
      <trkpt lat="46.65509" lon="0.366">
        <ele>94.83</ele>
        <time>2021-08-05T19:29:46Z</time>
      </trkpt>
      <trkpt lat="46.65495" lon="0.36582">
        <ele>94.83</ele>
        <time>2021-08-05T19:29:48Z</time>
      </trkpt>
      <trkpt lat="46.65488" lon="0.36574">
        <ele>94.35</ele>
        <time>2021-08-05T19:29:49Z</time>
      </trkpt>
      <trkpt lat="46.65481" lon="0.36562">
        <ele>93.87</ele>
        <time>2021-08-05T19:29:50Z</time>
      </trkpt>
      <trkpt lat="46.65468" lon="0.36539">
        <ele>92.9</ele>
        <time>2021-08-05T19:29:51Z</time>
      </trkpt>
      <trkpt lat="46.65468" lon="0.36539">
        <ele>91.94</ele>
        <time>2021-08-05T19:29:52Z</time>
      </trkpt>
      <trkpt lat="46.65461" lon="0.36527">
        <ele>90.98</ele>
        <time>2021-08-05T19:29:53Z</time>
      </trkpt>
      <trkpt lat="46.65448" lon="0.36504">
        <ele>91.46</ele>
        <time>2021-08-05T19:29:55Z</time>
      </trkpt>
      <trkpt lat="46.65428" lon="0.36462">
        <ele>90.5</ele>
        <time>2021-08-05T19:29:59Z</time>
      </trkpt>
      <trkpt lat="46.65426" lon="0.36453">
        <ele>90.02</ele>
        <time>2021-08-05T19:30:00Z</time>
      </trkpt>
      <trkpt lat="46.65424" lon="0.36444">
        <ele>90.02</ele>
        <time>2021-08-05T19:30:01Z</time>
      </trkpt>
      <trkpt lat="46.65422" lon="0.36429">
        <ele>90.02</ele>
        <time>2021-08-05T19:30:03Z</time>
      </trkpt>
      <trkpt lat="46.65419" lon="0.36421">
        <ele>90.02</ele>
        <time>2021-08-05T19:30:04Z</time>
      </trkpt>
      <trkpt lat="46.65416" lon="0.36415">
        <ele>90.02</ele>
        <time>2021-08-05T19:30:05Z</time>
      </trkpt>
      <trkpt lat="46.65414" lon="0.36408">
        <ele>90.5</ele>
        <time>2021-08-05T19:30:06Z</time>
      </trkpt>
      <trkpt lat="46.65409" lon="0.36407">
        <ele>90.98</ele>
        <time>2021-08-05T19:30:07Z</time>
      </trkpt>
      <trkpt lat="46.65404" lon="0.36407">
        <ele>90.98</ele>
        <time>2021-08-05T19:30:08Z</time>
      </trkpt>
      <trkpt lat="46.654" lon="0.36408">
        <ele>90.98</ele>
        <time>2021-08-05T19:30:09Z</time>
      </trkpt>
      <trkpt lat="46.65396" lon="0.36413">
        <ele>90.98</ele>
        <time>2021-08-05T19:30:10Z</time>
      </trkpt>
      <trkpt lat="46.65392" lon="0.36417">
        <ele>90.98</ele>
        <time>2021-08-05T19:30:11Z</time>
      </trkpt>
      <trkpt lat="46.65389" lon="0.36423">
        <ele>90.98</ele>
        <time>2021-08-05T19:30:12Z</time>
      </trkpt>
      <trkpt lat="46.65389" lon="0.36431">
        <ele>90.98</ele>
        <time>2021-08-05T19:30:13Z</time>
      </trkpt>
      <trkpt lat="46.65389" lon="0.36439">
        <ele>90.5</ele>
        <time>2021-08-05T19:30:14Z</time>
      </trkpt>
      <trkpt lat="46.65389" lon="0.36439">
        <ele>90.98</ele>
        <time>2021-08-05T19:30:15Z</time>
      </trkpt>
      <trkpt lat="46.65397" lon="0.36461">
        <ele>90.98</ele>
        <time>2021-08-05T19:30:16Z</time>
      </trkpt>
      <trkpt lat="46.65395" lon="0.36469">
        <ele>90.98</ele>
        <time>2021-08-05T19:30:17Z</time>
      </trkpt>
      <trkpt lat="46.65371" lon="0.36555">
        <ele>86.66</ele>
        <time>2021-08-05T19:30:25Z</time>
      </trkpt>
      <trkpt lat="46.6537" lon="0.36563">
        <ele>86.18</ele>
        <time>2021-08-05T19:30:26Z</time>
      </trkpt>
      <trkpt lat="46.65369" lon="0.3657">
        <ele>86.18</ele>
        <time>2021-08-05T19:30:27Z</time>
      </trkpt>
      <trkpt lat="46.65365" lon="0.36571">
        <ele>85.69</ele>
        <time>2021-08-05T19:30:28Z</time>
      </trkpt>
      <trkpt lat="46.65361" lon="0.3657">
        <ele>85.69</ele>
        <time>2021-08-05T19:30:29Z</time>
      </trkpt>
      <trkpt lat="46.65353" lon="0.36572">
        <ele>85.69</ele>
        <time>2021-08-05T19:30:30Z</time>
      </trkpt>
      <trkpt lat="46.65347" lon="0.36584">
        <ele>86.18</ele>
        <time>2021-08-05T19:30:31Z</time>
      </trkpt>
      <trkpt lat="46.65346" lon="0.3659">
        <ele>86.18</ele>
        <time>2021-08-05T19:30:32Z</time>
      </trkpt>
      <trkpt lat="46.65353" lon="0.366">
        <ele>86.18</ele>
        <time>2021-08-05T19:30:33Z</time>
      </trkpt>
      <trkpt lat="46.65352" lon="0.36611">
        <ele>86.66</ele>
        <time>2021-08-05T19:30:34Z</time>
      </trkpt>
      <trkpt lat="46.65349" lon="0.3662">
        <ele>86.66</ele>
        <time>2021-08-05T19:30:35Z</time>
      </trkpt>
      <trkpt lat="46.65346" lon="0.36629">
        <ele>87.14</ele>
        <time>2021-08-05T19:30:36Z</time>
      </trkpt>
      <trkpt lat="46.65343" lon="0.36639">
        <ele>86.66</ele>
        <time>2021-08-05T19:30:37Z</time>
      </trkpt>
      <trkpt lat="46.65308" lon="0.3674">
        <ele>88.1</ele>
        <time>2021-08-05T19:30:47Z</time>
      </trkpt>
      <trkpt lat="46.65306" lon="0.36747">
        <ele>87.62</ele>
        <time>2021-08-05T19:30:48Z</time>
      </trkpt>
      <trkpt lat="46.65305" lon="0.36752">
        <ele>87.62</ele>
        <time>2021-08-05T19:30:49Z</time>
      </trkpt>
      <trkpt lat="46.65298" lon="0.36754">
        <ele>87.14</ele>
        <time>2021-08-05T19:30:50Z</time>
      </trkpt>
      <trkpt lat="46.65296" lon="0.36751">
        <ele>86.66</ele>
        <time>2021-08-05T19:30:51Z</time>
      </trkpt>
      <trkpt lat="46.65286" lon="0.36749">
        <ele>86.18</ele>
        <time>2021-08-05T19:30:52Z</time>
      </trkpt>
      <trkpt lat="46.65286" lon="0.36749">
        <ele>85.69</ele>
        <time>2021-08-05T19:30:53Z</time>
      </trkpt>
      <trkpt lat="46.65276" lon="0.36747">
        <ele>86.18</ele>
        <time>2021-08-05T19:30:54Z</time>
      </trkpt>
      <trkpt lat="46.65271" lon="0.36743">
        <ele>86.18</ele>
        <time>2021-08-05T19:30:55Z</time>
      </trkpt>
      <trkpt lat="46.65271" lon="0.36743">
        <ele>85.69</ele>
        <time>2021-08-05T19:30:56Z</time>
      </trkpt>
      <trkpt lat="46.65253" lon="0.3672">
        <ele>85.69</ele>
        <time>2021-08-05T19:31:04Z</time>
      </trkpt>
      <trkpt lat="46.65253" lon="0.3672">
        <ele>85.69</ele>
        <time>2021-08-05T19:31:08Z</time>
      </trkpt>
      <trkpt lat="46.65256" lon="0.36713">
        <ele>85.69</ele>
        <time>2021-08-05T19:31:09Z</time>
      </trkpt>
      <trkpt lat="46.65257" lon="0.36711">
        <ele>85.69</ele>
        <time>2021-08-05T19:31:10Z</time>
      </trkpt>
      <trkpt lat="46.65273" lon="0.36646">
        <ele>87.62</ele>
        <time>2021-08-05T19:31:24Z</time>
      </trkpt>
    </trkseg>
  </trk>
  <trk>
    <name><![CDATA[Journal actif: 2021-08-05 17:33]]></name>
    <trkseg>
      <trkpt lat="46.65245" lon="0.36661">
        <ele>88.1</ele>
        <time>2021-08-05T19:33:18Z</time>
      </trkpt>
      <trkpt lat="46.65245" lon="0.36661">
        <ele>87.14</ele>
        <time>2021-08-05T19:33:34Z</time>
      </trkpt>
      <trkpt lat="46.65234" lon="0.36681">
        <ele>85.69</ele>
        <time>2021-08-05T19:33:45Z</time>
      </trkpt>
      <trkpt lat="46.65232" lon="0.36695">
        <ele>85.69</ele>
        <time>2021-08-05T19:33:48Z</time>
      </trkpt>
      <trkpt lat="46.65235" lon="0.36698">
        <ele>86.18</ele>
        <time>2021-08-05T19:33:49Z</time>
      </trkpt>
      <trkpt lat="46.65239" lon="0.36703">
        <ele>86.18</ele>
        <time>2021-08-05T19:33:50Z</time>
      </trkpt>
      <trkpt lat="46.65279" lon="0.36752">
        <ele>87.62</ele>
        <time>2021-08-05T19:33:59Z</time>
      </trkpt>
      <trkpt lat="46.65284" lon="0.36756">
        <ele>87.62</ele>
        <time>2021-08-05T19:34:00Z</time>
      </trkpt>
      <trkpt lat="46.65288" lon="0.36761">
        <ele>87.62</ele>
        <time>2021-08-05T19:34:01Z</time>
      </trkpt>
      <trkpt lat="46.65292" lon="0.36761">
        <ele>87.62</ele>
        <time>2021-08-05T19:34:02Z</time>
      </trkpt>
      <trkpt lat="46.65296" lon="0.3676">
        <ele>87.62</ele>
        <time>2021-08-05T19:34:03Z</time>
      </trkpt>
      <trkpt lat="46.65301" lon="0.3676">
        <ele>87.62</ele>
        <time>2021-08-05T19:34:14Z</time>
      </trkpt>
      <trkpt lat="46.65301" lon="0.3676">
        <ele>87.62</ele>
        <time>2021-08-05T19:34:15Z</time>
      </trkpt>
      <trkpt lat="46.65304" lon="0.36759">
        <ele>87.62</ele>
        <time>2021-08-05T19:34:16Z</time>
      </trkpt>
      <trkpt lat="46.65304" lon="0.36758">
        <ele>87.62</ele>
        <time>2021-08-05T19:34:17Z</time>
      </trkpt>
      <trkpt lat="46.65305" lon="0.36752">
        <ele>87.62</ele>
        <time>2021-08-05T19:34:18Z</time>
      </trkpt>
      <trkpt lat="46.65307" lon="0.36744">
        <ele>87.62</ele>
        <time>2021-08-05T19:34:19Z</time>
      </trkpt>
      <trkpt lat="46.65336" lon="0.36658">
        <ele>90.02</ele>
        <time>2021-08-05T19:34:28Z</time>
      </trkpt>
      <trkpt lat="46.65351" lon="0.36616">
        <ele>89.54</ele>
        <time>2021-08-05T19:34:32Z</time>
      </trkpt>
      <trkpt lat="46.65353" lon="0.36607">
        <ele>89.54</ele>
        <time>2021-08-05T19:34:33Z</time>
      </trkpt>
      <trkpt lat="46.65373" lon="0.36587">
        <ele>89.06</ele>
        <time>2021-08-05T19:34:37Z</time>
      </trkpt>
      <trkpt lat="46.65377" lon="0.36582">
        <ele>89.06</ele>
        <time>2021-08-05T19:34:38Z</time>
      </trkpt>
      <trkpt lat="46.65381" lon="0.36577">
        <ele>89.54</ele>
        <time>2021-08-05T19:34:39Z</time>
      </trkpt>
      <trkpt lat="46.65386" lon="0.36576">
        <ele>89.54</ele>
        <time>2021-08-05T19:34:40Z</time>
      </trkpt>
      <trkpt lat="46.65393" lon="0.36575">
        <ele>90.02</ele>
        <time>2021-08-05T19:34:41Z</time>
      </trkpt>
      <trkpt lat="46.65399" lon="0.36577">
        <ele>90.02</ele>
        <time>2021-08-05T19:34:42Z</time>
      </trkpt>
      <trkpt lat="46.65486" lon="0.36611">
        <ele>93.87</ele>
        <time>2021-08-05T19:34:51Z</time>
      </trkpt>
      <trkpt lat="46.65606" lon="0.36665">
        <ele>93.87</ele>
        <time>2021-08-05T19:34:59Z</time>
      </trkpt>
      <trkpt lat="46.65847" lon="0.36816">
        <ele>89.06</ele>
        <time>2021-08-05T19:35:14Z</time>
      </trkpt>
      <trkpt lat="46.65957" lon="0.36908">
        <ele>82.33</ele>
        <time>2021-08-05T19:35:25Z</time>
      </trkpt>
      <trkpt lat="46.65973" lon="0.36928">
        <ele>82.81</ele>
        <time>2021-08-05T19:35:28Z</time>
      </trkpt>
      <trkpt lat="46.65977" lon="0.36933">
        <ele>82.81</ele>
        <time>2021-08-05T19:35:29Z</time>
      </trkpt>
      <trkpt lat="46.6598" lon="0.3694">
        <ele>83.29</ele>
        <time>2021-08-05T19:35:30Z</time>
      </trkpt>
      <trkpt lat="46.65983" lon="0.36949">
        <ele>83.29</ele>
        <time>2021-08-05T19:35:31Z</time>
      </trkpt>
      <trkpt lat="46.65991" lon="0.36968">
        <ele>83.77</ele>
        <time>2021-08-05T19:35:32Z</time>
      </trkpt>
      <trkpt lat="46.65991" lon="0.36968">
        <ele>83.77</ele>
        <time>2021-08-05T19:35:33Z</time>
      </trkpt>
      <trkpt lat="46.65997" lon="0.36975">
        <ele>83.77</ele>
        <time>2021-08-05T19:35:34Z</time>
      </trkpt>
      <trkpt lat="46.66003" lon="0.36982">
        <ele>83.77</ele>
        <time>2021-08-05T19:35:35Z</time>
      </trkpt>
      <trkpt lat="46.6601" lon="0.36984">
        <ele>83.29</ele>
        <time>2021-08-05T19:35:36Z</time>
      </trkpt>
      <trkpt lat="46.66018" lon="0.36985">
        <ele>83.29</ele>
        <time>2021-08-05T19:35:37Z</time>
      </trkpt>
      <trkpt lat="46.66027" lon="0.36986">
        <ele>82.81</ele>
        <time>2021-08-05T19:35:38Z</time>
      </trkpt>
      <trkpt lat="46.66033" lon="0.36983">
        <ele>82.33</ele>
        <time>2021-08-05T19:35:39Z</time>
      </trkpt>
      <trkpt lat="46.66042" lon="0.36976">
        <ele>81.85</ele>
        <time>2021-08-05T19:35:40Z</time>
      </trkpt>
      <trkpt lat="46.66057" lon="0.36958">
        <ele>81.37</ele>
        <time>2021-08-05T19:35:41Z</time>
      </trkpt>
      <trkpt lat="46.66057" lon="0.36958">
        <ele>80.41</ele>
        <time>2021-08-05T19:35:42Z</time>
      </trkpt>
      <trkpt lat="46.66062" lon="0.36946">
        <ele>79.45</ele>
        <time>2021-08-05T19:35:43Z</time>
      </trkpt>
      <trkpt lat="46.66067" lon="0.36934">
        <ele>78.97</ele>
        <time>2021-08-05T19:35:44Z</time>
      </trkpt>
      <trkpt lat="46.66071" lon="0.36922">
        <ele>78.48</ele>
        <time>2021-08-05T19:35:45Z</time>
      </trkpt>
      <trkpt lat="46.66075" lon="0.36908">
        <ele>78.97</ele>
        <time>2021-08-05T19:35:46Z</time>
      </trkpt>
      <trkpt lat="46.66075" lon="0.36891">
        <ele>79.45</ele>
        <time>2021-08-05T19:35:47Z</time>
      </trkpt>
      <trkpt lat="46.66075" lon="0.36875">
        <ele>78.48</ele>
        <time>2021-08-05T19:35:48Z</time>
      </trkpt>
      <trkpt lat="46.66074" lon="0.3686">
        <ele>78</ele>
        <time>2021-08-05T19:35:49Z</time>
      </trkpt>
      <trkpt lat="46.66061" lon="0.3684">
        <ele>78.48</ele>
        <time>2021-08-05T19:35:50Z</time>
      </trkpt>
      <trkpt lat="46.66061" lon="0.3684">
        <ele>78</ele>
        <time>2021-08-05T19:35:51Z</time>
      </trkpt>
      <trkpt lat="46.66055" lon="0.36831">
        <ele>78</ele>
        <time>2021-08-05T19:35:52Z</time>
      </trkpt>
      <trkpt lat="46.6605" lon="0.36824">
        <ele>78.48</ele>
        <time>2021-08-05T19:35:53Z</time>
      </trkpt>
      <trkpt lat="46.66058" lon="0.36804">
        <ele>78</ele>
        <time>2021-08-05T19:35:54Z</time>
      </trkpt>
      <trkpt lat="46.66064" lon="0.36778">
        <ele>78.48</ele>
        <time>2021-08-05T19:35:55Z</time>
      </trkpt>
      <trkpt lat="46.66068" lon="0.36764">
        <ele>78.97</ele>
        <time>2021-08-05T19:35:56Z</time>
      </trkpt>
      <trkpt lat="46.66098" lon="0.36657">
        <ele>79.93</ele>
        <time>2021-08-05T19:36:05Z</time>
      </trkpt>
      <trkpt lat="46.661" lon="0.36648">
        <ele>79.93</ele>
        <time>2021-08-05T19:36:06Z</time>
      </trkpt>
      <trkpt lat="46.66102" lon="0.3664">
        <ele>79.93</ele>
        <time>2021-08-05T19:36:07Z</time>
      </trkpt>
      <trkpt lat="46.66104" lon="0.36633">
        <ele>80.41</ele>
        <time>2021-08-05T19:36:08Z</time>
      </trkpt>
      <trkpt lat="46.66112" lon="0.36627">
        <ele>80.41</ele>
        <time>2021-08-05T19:36:09Z</time>
      </trkpt>
      <trkpt lat="46.66118" lon="0.36628">
        <ele>80.41</ele>
        <time>2021-08-05T19:36:10Z</time>
      </trkpt>
      <trkpt lat="46.66138" lon="0.36618">
        <ele>80.41</ele>
        <time>2021-08-05T19:36:13Z</time>
      </trkpt>
      <trkpt lat="46.66145" lon="0.36615">
        <ele>80.89</ele>
        <time>2021-08-05T19:36:14Z</time>
      </trkpt>
      <trkpt lat="46.66153" lon="0.36613">
        <ele>80.41</ele>
        <time>2021-08-05T19:36:15Z</time>
      </trkpt>
      <trkpt lat="46.6616" lon="0.36614">
        <ele>80.41</ele>
        <time>2021-08-05T19:36:16Z</time>
      </trkpt>
      <trkpt lat="46.66168" lon="0.36615">
        <ele>80.41</ele>
        <time>2021-08-05T19:36:17Z</time>
      </trkpt>
      <trkpt lat="46.66192" lon="0.36627">
        <ele>80.41</ele>
        <time>2021-08-05T19:36:20Z</time>
      </trkpt>
      <trkpt lat="46.66194" lon="0.36628">
        <ele>81.37</ele>
        <time>2021-08-05T19:36:22Z</time>
      </trkpt>
      <trkpt lat="46.66202" lon="0.3664">
        <ele>80.89</ele>
        <time>2021-08-05T19:36:23Z</time>
      </trkpt>
      <trkpt lat="46.66213" lon="0.36643">
        <ele>81.37</ele>
        <time>2021-08-05T19:36:25Z</time>
      </trkpt>
      <trkpt lat="46.66219" lon="0.36646">
        <ele>81.37</ele>
        <time>2021-08-05T19:36:26Z</time>
      </trkpt>
      <trkpt lat="46.66322" lon="0.36705">
        <ele>79.93</ele>
        <time>2021-08-05T19:36:42Z</time>
      </trkpt>
      <trkpt lat="46.66335" lon="0.36712">
        <ele>79.93</ele>
        <time>2021-08-05T19:36:50Z</time>
      </trkpt>
      <trkpt lat="46.66358" lon="0.36724">
        <ele>78.97</ele>
        <time>2021-08-05T19:37:21Z</time>
      </trkpt>
      <trkpt lat="46.66378" lon="0.36735">
        <ele>78.97</ele>
        <time>2021-08-05T19:37:27Z</time>
      </trkpt>
      <trkpt lat="46.66377" lon="0.3674">
        <ele>78.97</ele>
        <time>2021-08-05T19:37:28Z</time>
      </trkpt>
      <trkpt lat="46.66376" lon="0.36744">
        <ele>78.97</ele>
        <time>2021-08-05T19:37:29Z</time>
      </trkpt>
      <trkpt lat="46.66375" lon="0.36748">
        <ele>78.97</ele>
        <time>2021-08-05T19:37:30Z</time>
      </trkpt>
      <trkpt lat="46.66374" lon="0.36752">
        <ele>78.97</ele>
        <time>2021-08-05T19:37:31Z</time>
      </trkpt>
      <trkpt lat="46.66373" lon="0.36756">
        <ele>78.97</ele>
        <time>2021-08-05T19:37:32Z</time>
      </trkpt>
      <trkpt lat="46.66372" lon="0.36759">
        <ele>78.97</ele>
        <time>2021-08-05T19:37:33Z</time>
      </trkpt>
      <trkpt lat="46.6637" lon="0.3676">
        <ele>78.97</ele>
        <time>2021-08-05T19:37:34Z</time>
      </trkpt>
      <trkpt lat="46.66367" lon="0.3676">
        <ele>78.48</ele>
        <time>2021-08-05T19:37:35Z</time>
      </trkpt>
      <trkpt lat="46.66361" lon="0.36762">
        <ele>79.45</ele>
        <time>2021-08-05T19:37:50Z</time>
      </trkpt>
      <trkpt lat="46.66372" lon="0.36759">
        <ele>79.45</ele>
        <time>2021-08-05T19:37:51Z</time>
      </trkpt>
      <trkpt lat="46.66372" lon="0.36759">
        <ele>79.45</ele>
        <time>2021-08-05T19:37:52Z</time>
      </trkpt>
      <trkpt lat="46.66355" lon="0.36818">
        <ele>79.93</ele>
        <time>2021-08-05T19:38:06Z</time>
      </trkpt>
      <trkpt lat="46.66351" lon="0.36824">
        <ele>80.41</ele>
        <time>2021-08-05T19:38:19Z</time>
      </trkpt>
      <trkpt lat="46.66351" lon="0.36825">
        <ele>80.41</ele>
        <time>2021-08-05T19:40:09Z</time>
      </trkpt>
      <trkpt lat="46.66344" lon="0.36834">
        <ele>79.93</ele>
        <time>2021-08-05T19:44:46Z</time>
      </trkpt>
      <trkpt lat="46.66315" lon="0.36824">
        <ele>80.89</ele>
        <time>2021-08-05T19:44:58Z</time>
      </trkpt>
      <trkpt lat="46.66262" lon="0.3678">
        <ele>81.85</ele>
        <time>2021-08-05T19:45:19Z</time>
      </trkpt>
      <trkpt lat="46.66255" lon="0.36714">
        <ele>82.81</ele>
        <time>2021-08-05T19:45:34Z</time>
      </trkpt>
      <trkpt lat="46.66238" lon="0.36704">
        <ele>83.29</ele>
        <time>2021-08-05T19:45:47Z</time>
      </trkpt>
      <trkpt lat="46.66237" lon="0.36703">
        <ele>83.77</ele>
        <time>2021-08-05T19:45:59Z</time>
      </trkpt>
      <trkpt lat="46.66237" lon="0.36703">
        <ele>83.77</ele>
        <time>2021-08-05T19:46:06Z</time>
      </trkpt>
      <trkpt lat="46.66237" lon="0.36703">
        <ele>83.77</ele>
        <time>2021-08-05T19:46:07Z</time>
      </trkpt>
      <trkpt lat="46.66237" lon="0.36703">
        <ele>83.77</ele>
        <time>2021-08-05T19:46:08Z</time>
      </trkpt>
      <trkpt lat="46.66237" lon="0.36703">
        <ele>83.77</ele>
        <time>2021-08-05T19:46:09Z</time>
      </trkpt>
      <trkpt lat="46.66237" lon="0.36703">
        <ele>83.77</ele>
        <time>2021-08-05T19:46:10Z</time>
      </trkpt>
      <trkpt lat="46.66232" lon="0.36724">
        <ele>83.77</ele>
        <time>2021-08-05T19:46:11Z</time>
      </trkpt>
      <trkpt lat="46.66232" lon="0.36727">
        <ele>83.77</ele>
        <time>2021-08-05T19:46:12Z</time>
      </trkpt>
      <trkpt lat="46.6623" lon="0.36733">
        <ele>83.77</ele>
        <time>2021-08-05T19:46:13Z</time>
      </trkpt>
      <trkpt lat="46.66229" lon="0.36736">
        <ele>83.29</ele>
        <time>2021-08-05T19:46:14Z</time>
      </trkpt>
      <trkpt lat="46.66229" lon="0.36736">
        <ele>83.29</ele>
        <time>2021-08-05T19:46:15Z</time>
      </trkpt>
      <trkpt lat="46.66228" lon="0.36738">
        <ele>83.29</ele>
        <time>2021-08-05T19:46:16Z</time>
      </trkpt>
      <trkpt lat="46.66228" lon="0.36741">
        <ele>83.29</ele>
        <time>2021-08-05T19:46:17Z</time>
      </trkpt>
      <trkpt lat="46.66225" lon="0.3675">
        <ele>83.77</ele>
        <time>2021-08-05T19:46:32Z</time>
      </trkpt>
    </trkseg>
  </trk>
  <trk>
    <name><![CDATA[Journal actif: 2021-08-06 17:50]]></name>
    <trkseg>
      <trkpt lat="46.66286" lon="0.36839">
        <ele>94.35</ele>
        <time>2021-08-06T19:50:21Z</time>
      </trkpt>
      <trkpt lat="46.66285" lon="0.3683">
        <ele>84.73</ele>
        <time>2021-08-06T19:51:10Z</time>
      </trkpt>
      <trkpt lat="46.6631" lon="0.36853">
        <ele>83.29</ele>
        <time>2021-08-06T19:51:23Z</time>
      </trkpt>
      <trkpt lat="46.66335" lon="0.36844">
        <ele>82.81</ele>
        <time>2021-08-06T19:51:35Z</time>
      </trkpt>
      <trkpt lat="46.6634" lon="0.36834">
        <ele>81.37</ele>
        <time>2021-08-06T19:51:54Z</time>
      </trkpt>
      <trkpt lat="46.66345" lon="0.36827">
        <ele>81.37</ele>
        <time>2021-08-06T19:53:42Z</time>
      </trkpt>
      <trkpt lat="46.66355" lon="0.36812">
        <ele>80.89</ele>
        <time>2021-08-06T19:59:57Z</time>
      </trkpt>
      <trkpt lat="46.66357" lon="0.36783">
        <ele>81.37</ele>
        <time>2021-08-06T20:00:09Z</time>
      </trkpt>
      <trkpt lat="46.66375" lon="0.36736">
        <ele>81.85</ele>
        <time>2021-08-06T20:00:18Z</time>
      </trkpt>
      <trkpt lat="46.6637" lon="0.36731">
        <ele>81.85</ele>
        <time>2021-08-06T20:00:21Z</time>
      </trkpt>
      <trkpt lat="46.66367" lon="0.36729">
        <ele>81.85</ele>
        <time>2021-08-06T20:00:22Z</time>
      </trkpt>
      <trkpt lat="46.66342" lon="0.36715">
        <ele>81.85</ele>
        <time>2021-08-06T20:00:33Z</time>
      </trkpt>
      <trkpt lat="46.66328" lon="0.36708">
        <ele>78.48</ele>
        <time>2021-08-06T20:01:00Z</time>
      </trkpt>
      <trkpt lat="46.66273" lon="0.36677">
        <ele>80.89</ele>
        <time>2021-08-06T20:01:10Z</time>
      </trkpt>
      <trkpt lat="46.66208" lon="0.3664">
        <ele>81.37</ele>
        <time>2021-08-06T20:01:20Z</time>
      </trkpt>
      <trkpt lat="46.66207" lon="0.36639">
        <ele>81.37</ele>
        <time>2021-08-06T20:01:21Z</time>
      </trkpt>
      <trkpt lat="46.6615" lon="0.36596">
        <ele>82.33</ele>
        <time>2021-08-06T20:01:32Z</time>
      </trkpt>
      <trkpt lat="46.66149" lon="0.36591">
        <ele>82.33</ele>
        <time>2021-08-06T20:01:33Z</time>
      </trkpt>
      <trkpt lat="46.66142" lon="0.36563">
        <ele>82.81</ele>
        <time>2021-08-06T20:01:37Z</time>
      </trkpt>
      <trkpt lat="46.66139" lon="0.36553">
        <ele>82.81</ele>
        <time>2021-08-06T20:01:38Z</time>
      </trkpt>
      <trkpt lat="46.66134" lon="0.36547">
        <ele>82.81</ele>
        <time>2021-08-06T20:01:39Z</time>
      </trkpt>
      <trkpt lat="46.6613" lon="0.36541">
        <ele>82.81</ele>
        <time>2021-08-06T20:01:40Z</time>
      </trkpt>
      <trkpt lat="46.66115" lon="0.36538">
        <ele>82.81</ele>
        <time>2021-08-06T20:01:41Z</time>
      </trkpt>
      <trkpt lat="46.66115" lon="0.36538">
        <ele>82.33</ele>
        <time>2021-08-06T20:01:42Z</time>
      </trkpt>
      <trkpt lat="46.66101" lon="0.36541">
        <ele>82.33</ele>
        <time>2021-08-06T20:01:43Z</time>
      </trkpt>
      <trkpt lat="46.66101" lon="0.36541">
        <ele>81.85</ele>
        <time>2021-08-06T20:01:44Z</time>
      </trkpt>
      <trkpt lat="46.66096" lon="0.36547">
        <ele>81.85</ele>
        <time>2021-08-06T20:01:45Z</time>
      </trkpt>
      <trkpt lat="46.66084" lon="0.36563">
        <ele>81.85</ele>
        <time>2021-08-06T20:01:46Z</time>
      </trkpt>
      <trkpt lat="46.66084" lon="0.36563">
        <ele>81.37</ele>
        <time>2021-08-06T20:01:47Z</time>
      </trkpt>
      <trkpt lat="46.66083" lon="0.36582">
        <ele>81.37</ele>
        <time>2021-08-06T20:01:48Z</time>
      </trkpt>
      <trkpt lat="46.66083" lon="0.36592">
        <ele>80.89</ele>
        <time>2021-08-06T20:01:49Z</time>
      </trkpt>
      <trkpt lat="46.66083" lon="0.36592">
        <ele>80.41</ele>
        <time>2021-08-06T20:01:50Z</time>
      </trkpt>
      <trkpt lat="46.66086" lon="0.36604">
        <ele>80.41</ele>
        <time>2021-08-06T20:01:51Z</time>
      </trkpt>
      <trkpt lat="46.66091" lon="0.36618">
        <ele>80.41</ele>
        <time>2021-08-06T20:01:53Z</time>
      </trkpt>
      <trkpt lat="46.66091" lon="0.36618">
        <ele>80.41</ele>
        <time>2021-08-06T20:01:54Z</time>
      </trkpt>
      <trkpt lat="46.66101" lon="0.36646">
        <ele>79.93</ele>
        <time>2021-08-06T20:01:55Z</time>
      </trkpt>
      <trkpt lat="46.66094" lon="0.36669">
        <ele>79.93</ele>
        <time>2021-08-06T20:01:56Z</time>
      </trkpt>
      <trkpt lat="46.66094" lon="0.36669">
        <ele>79.93</ele>
        <time>2021-08-06T20:01:57Z</time>
      </trkpt>
      <trkpt lat="46.66059" lon="0.36798">
        <ele>77.52</ele>
        <time>2021-08-06T20:02:07Z</time>
      </trkpt>
      <trkpt lat="46.66054" lon="0.36815">
        <ele>79.45</ele>
        <time>2021-08-06T20:02:10Z</time>
      </trkpt>
      <trkpt lat="46.66052" lon="0.3682">
        <ele>79.93</ele>
        <time>2021-08-06T20:02:11Z</time>
      </trkpt>
      <trkpt lat="46.66044" lon="0.36823">
        <ele>79.93</ele>
        <time>2021-08-06T20:02:12Z</time>
      </trkpt>
      <trkpt lat="46.66032" lon="0.36822">
        <ele>80.41</ele>
        <time>2021-08-06T20:02:14Z</time>
      </trkpt>
      <trkpt lat="46.66025" lon="0.36822">
        <ele>80.89</ele>
        <time>2021-08-06T20:02:15Z</time>
      </trkpt>
      <trkpt lat="46.66018" lon="0.36825">
        <ele>80.89</ele>
        <time>2021-08-06T20:02:16Z</time>
      </trkpt>
      <trkpt lat="46.66007" lon="0.3683">
        <ele>81.37</ele>
        <time>2021-08-06T20:02:17Z</time>
      </trkpt>
      <trkpt lat="46.65998" lon="0.36849">
        <ele>81.37</ele>
        <time>2021-08-06T20:02:18Z</time>
      </trkpt>
      <trkpt lat="46.65998" lon="0.36849">
        <ele>81.85</ele>
        <time>2021-08-06T20:02:19Z</time>
      </trkpt>
      <trkpt lat="46.65994" lon="0.36859">
        <ele>81.85</ele>
        <time>2021-08-06T20:02:20Z</time>
      </trkpt>
      <trkpt lat="46.65989" lon="0.36868">
        <ele>82.33</ele>
        <time>2021-08-06T20:02:21Z</time>
      </trkpt>
      <trkpt lat="46.65982" lon="0.36891">
        <ele>82.81</ele>
        <time>2021-08-06T20:02:22Z</time>
      </trkpt>
      <trkpt lat="46.65981" lon="0.36904">
        <ele>82.81</ele>
        <time>2021-08-06T20:02:23Z</time>
      </trkpt>
      <trkpt lat="46.65981" lon="0.36904">
        <ele>82.81</ele>
        <time>2021-08-06T20:02:24Z</time>
      </trkpt>
      <trkpt lat="46.65979" lon="0.3692">
        <ele>81.85</ele>
        <time>2021-08-06T20:02:25Z</time>
      </trkpt>
      <trkpt lat="46.65977" lon="0.36933">
        <ele>80.89</ele>
        <time>2021-08-06T20:02:27Z</time>
      </trkpt>
      <trkpt lat="46.65985" lon="0.36953">
        <ele>80.89</ele>
        <time>2021-08-06T20:02:28Z</time>
      </trkpt>
      <trkpt lat="46.65989" lon="0.36963">
        <ele>80.41</ele>
        <time>2021-08-06T20:02:29Z</time>
      </trkpt>
      <trkpt lat="46.65999" lon="0.36978">
        <ele>80.41</ele>
        <time>2021-08-06T20:02:30Z</time>
      </trkpt>
      <trkpt lat="46.65999" lon="0.36978">
        <ele>80.41</ele>
        <time>2021-08-06T20:02:31Z</time>
      </trkpt>
      <trkpt lat="46.66005" lon="0.36983">
        <ele>80.89</ele>
        <time>2021-08-06T20:02:32Z</time>
      </trkpt>
      <trkpt lat="46.66013" lon="0.36984">
        <ele>80.89</ele>
        <time>2021-08-06T20:02:33Z</time>
      </trkpt>
      <trkpt lat="46.66022" lon="0.36985">
        <ele>80.89</ele>
        <time>2021-08-06T20:02:34Z</time>
      </trkpt>
      <trkpt lat="46.66031" lon="0.36985">
        <ele>80.89</ele>
        <time>2021-08-06T20:02:35Z</time>
      </trkpt>
      <trkpt lat="46.6604" lon="0.36978">
        <ele>79.93</ele>
        <time>2021-08-06T20:02:36Z</time>
      </trkpt>
      <trkpt lat="46.66049" lon="0.3697">
        <ele>78.97</ele>
        <time>2021-08-06T20:02:37Z</time>
      </trkpt>
      <trkpt lat="46.66059" lon="0.36967">
        <ele>78.48</ele>
        <time>2021-08-06T20:02:38Z</time>
      </trkpt>
      <trkpt lat="46.66068" lon="0.36966">
        <ele>78.97</ele>
        <time>2021-08-06T20:02:39Z</time>
      </trkpt>
      <trkpt lat="46.66088" lon="0.36965">
        <ele>79.93</ele>
        <time>2021-08-06T20:02:40Z</time>
      </trkpt>
      <trkpt lat="46.66098" lon="0.36968">
        <ele>80.41</ele>
        <time>2021-08-06T20:02:41Z</time>
      </trkpt>
      <trkpt lat="46.66098" lon="0.36968">
        <ele>81.37</ele>
        <time>2021-08-06T20:02:42Z</time>
      </trkpt>
      <trkpt lat="46.6623" lon="0.37028">
        <ele>80.89</ele>
        <time>2021-08-06T20:02:54Z</time>
      </trkpt>
      <trkpt lat="46.66422" lon="0.37126">
        <ele>73.68</ele>
        <time>2021-08-06T20:03:07Z</time>
      </trkpt>
      <trkpt lat="46.66604" lon="0.37228">
        <ele>65.51</ele>
        <time>2021-08-06T20:03:20Z</time>
      </trkpt>
      <trkpt lat="46.6673" lon="0.37299">
        <ele>63.58</ele>
        <time>2021-08-06T20:03:32Z</time>
      </trkpt>
      <trkpt lat="46.66739" lon="0.37304">
        <ele>63.1</ele>
        <time>2021-08-06T20:03:33Z</time>
      </trkpt>
      <trkpt lat="46.66747" lon="0.37308">
        <ele>62.62</ele>
        <time>2021-08-06T20:03:34Z</time>
      </trkpt>
      <trkpt lat="46.66746" lon="0.37332">
        <ele>62.14</ele>
        <time>2021-08-06T20:03:35Z</time>
      </trkpt>
      <trkpt lat="46.6675" lon="0.37343">
        <ele>61.66</ele>
        <time>2021-08-06T20:03:36Z</time>
      </trkpt>
      <trkpt lat="46.66754" lon="0.37354">
        <ele>61.66</ele>
        <time>2021-08-06T20:03:37Z</time>
      </trkpt>
      <trkpt lat="46.66758" lon="0.37364">
        <ele>60.7</ele>
        <time>2021-08-06T20:03:38Z</time>
      </trkpt>
      <trkpt lat="46.66758" lon="0.37376">
        <ele>60.22</ele>
        <time>2021-08-06T20:03:39Z</time>
      </trkpt>
      <trkpt lat="46.66757" lon="0.37391">
        <ele>60.22</ele>
        <time>2021-08-06T20:03:40Z</time>
      </trkpt>
      <trkpt lat="46.66755" lon="0.37418">
        <ele>60.7</ele>
        <time>2021-08-06T20:03:42Z</time>
      </trkpt>
      <trkpt lat="46.66753" lon="0.37442">
        <ele>61.18</ele>
        <time>2021-08-06T20:03:44Z</time>
      </trkpt>
      <trkpt lat="46.66751" lon="0.37453">
        <ele>61.66</ele>
        <time>2021-08-06T20:03:45Z</time>
      </trkpt>
      <trkpt lat="46.66748" lon="0.37463">
        <ele>62.14</ele>
        <time>2021-08-06T20:03:46Z</time>
      </trkpt>
      <trkpt lat="46.6673" lon="0.37504">
        <ele>63.58</ele>
        <time>2021-08-06T20:03:50Z</time>
      </trkpt>
      <trkpt lat="46.6672" lon="0.37553">
        <ele>62.62</ele>
        <time>2021-08-06T20:03:54Z</time>
      </trkpt>
      <trkpt lat="46.66722" lon="0.37564">
        <ele>62.62</ele>
        <time>2021-08-06T20:03:55Z</time>
      </trkpt>
      <trkpt lat="46.66727" lon="0.37571">
        <ele>62.14</ele>
        <time>2021-08-06T20:03:56Z</time>
      </trkpt>
      <trkpt lat="46.66731" lon="0.37577">
        <ele>62.14</ele>
        <time>2021-08-06T20:03:57Z</time>
      </trkpt>
      <trkpt lat="46.66745" lon="0.37579">
        <ele>62.14</ele>
        <time>2021-08-06T20:03:58Z</time>
      </trkpt>
      <trkpt lat="46.66751" lon="0.37573">
        <ele>62.14</ele>
        <time>2021-08-06T20:03:59Z</time>
      </trkpt>
      <trkpt lat="46.66757" lon="0.37566">
        <ele>62.14</ele>
        <time>2021-08-06T20:04:00Z</time>
      </trkpt>
      <trkpt lat="46.66763" lon="0.37559">
        <ele>61.66</ele>
        <time>2021-08-06T20:04:01Z</time>
      </trkpt>
      <trkpt lat="46.66763" lon="0.37559">
        <ele>61.18</ele>
        <time>2021-08-06T20:04:02Z</time>
      </trkpt>
      <trkpt lat="46.66766" lon="0.37552">
        <ele>61.18</ele>
        <time>2021-08-06T20:04:03Z</time>
      </trkpt>
      <trkpt lat="46.66772" lon="0.37527">
        <ele>60.7</ele>
        <time>2021-08-06T20:04:04Z</time>
      </trkpt>
      <trkpt lat="46.66772" lon="0.37527">
        <ele>60.7</ele>
        <time>2021-08-06T20:04:05Z</time>
      </trkpt>
      <trkpt lat="46.66772" lon="0.375">
        <ele>60.22</ele>
        <time>2021-08-06T20:04:06Z</time>
      </trkpt>
      <trkpt lat="46.66771" lon="0.37486">
        <ele>59.74</ele>
        <time>2021-08-06T20:04:07Z</time>
      </trkpt>
      <trkpt lat="46.66771" lon="0.37486">
        <ele>59.26</ele>
        <time>2021-08-06T20:04:08Z</time>
      </trkpt>
      <trkpt lat="46.66769" lon="0.37473">
        <ele>59.26</ele>
        <time>2021-08-06T20:04:09Z</time>
      </trkpt>
      <trkpt lat="46.66767" lon="0.37461">
        <ele>58.78</ele>
        <time>2021-08-06T20:04:10Z</time>
      </trkpt>
      <trkpt lat="46.66766" lon="0.3745">
        <ele>58.78</ele>
        <time>2021-08-06T20:04:11Z</time>
      </trkpt>
      <trkpt lat="46.66764" lon="0.37439">
        <ele>58.78</ele>
        <time>2021-08-06T20:04:12Z</time>
      </trkpt>
      <trkpt lat="46.66763" lon="0.37429">
        <ele>58.3</ele>
        <time>2021-08-06T20:04:13Z</time>
      </trkpt>
      <trkpt lat="46.66765" lon="0.37416">
        <ele>58.3</ele>
        <time>2021-08-06T20:04:14Z</time>
      </trkpt>
      <trkpt lat="46.66767" lon="0.37402">
        <ele>57.82</ele>
        <time>2021-08-06T20:04:15Z</time>
      </trkpt>
      <trkpt lat="46.66769" lon="0.37385">
        <ele>57.82</ele>
        <time>2021-08-06T20:04:16Z</time>
      </trkpt>
      <trkpt lat="46.66773" lon="0.37369">
        <ele>57.82</ele>
        <time>2021-08-06T20:04:17Z</time>
      </trkpt>
      <trkpt lat="46.66792" lon="0.37286">
        <ele>57.34</ele>
        <time>2021-08-06T20:04:22Z</time>
      </trkpt>
      <trkpt lat="46.66793" lon="0.37271">
        <ele>58.3</ele>
        <time>2021-08-06T20:04:23Z</time>
      </trkpt>
      <trkpt lat="46.66795" lon="0.37255">
        <ele>59.26</ele>
        <time>2021-08-06T20:04:24Z</time>
      </trkpt>
      <trkpt lat="46.668" lon="0.37226">
        <ele>62.14</ele>
        <time>2021-08-06T20:04:26Z</time>
      </trkpt>
      <trkpt lat="46.66802" lon="0.37217">
        <ele>62.62</ele>
        <time>2021-08-06T20:04:27Z</time>
      </trkpt>
      <trkpt lat="46.66806" lon="0.372">
        <ele>63.1</ele>
        <time>2021-08-06T20:04:28Z</time>
      </trkpt>
      <trkpt lat="46.66806" lon="0.372">
        <ele>62.62</ele>
        <time>2021-08-06T20:04:29Z</time>
      </trkpt>
      <trkpt lat="46.6681" lon="0.37196">
        <ele>62.14</ele>
        <time>2021-08-06T20:04:30Z</time>
      </trkpt>
      <trkpt lat="46.66823" lon="0.37176">
        <ele>62.14</ele>
        <time>2021-08-06T20:04:31Z</time>
      </trkpt>
      <trkpt lat="46.66828" lon="0.37164">
        <ele>62.62</ele>
        <time>2021-08-06T20:04:32Z</time>
      </trkpt>
      <trkpt lat="46.66829" lon="0.37149">
        <ele>63.1</ele>
        <time>2021-08-06T20:04:33Z</time>
      </trkpt>
      <trkpt lat="46.66829" lon="0.37149">
        <ele>63.1</ele>
        <time>2021-08-06T20:04:34Z</time>
      </trkpt>
      <trkpt lat="46.66825" lon="0.37123">
        <ele>63.1</ele>
        <time>2021-08-06T20:04:35Z</time>
      </trkpt>
      <trkpt lat="46.66825" lon="0.37123">
        <ele>62.62</ele>
        <time>2021-08-06T20:04:36Z</time>
      </trkpt>
      <trkpt lat="46.66821" lon="0.37113">
        <ele>62.62</ele>
        <time>2021-08-06T20:04:37Z</time>
      </trkpt>
      <trkpt lat="46.66814" lon="0.37103">
        <ele>62.62</ele>
        <time>2021-08-06T20:04:38Z</time>
      </trkpt>
      <trkpt lat="46.66807" lon="0.37098">
        <ele>63.1</ele>
        <time>2021-08-06T20:04:39Z</time>
      </trkpt>
      <trkpt lat="46.66798" lon="0.37092">
        <ele>62.62</ele>
        <time>2021-08-06T20:04:40Z</time>
      </trkpt>
      <trkpt lat="46.6679" lon="0.37092">
        <ele>61.66</ele>
        <time>2021-08-06T20:04:41Z</time>
      </trkpt>
      <trkpt lat="46.66783" lon="0.37092">
        <ele>61.66</ele>
        <time>2021-08-06T20:04:42Z</time>
      </trkpt>
      <trkpt lat="46.66773" lon="0.37098">
        <ele>62.14</ele>
        <time>2021-08-06T20:04:43Z</time>
      </trkpt>
      <trkpt lat="46.66769" lon="0.371">
        <ele>62.14</ele>
        <time>2021-08-06T20:04:44Z</time>
      </trkpt>
      <trkpt lat="46.66761" lon="0.37114">
        <ele>63.1</ele>
        <time>2021-08-06T20:04:45Z</time>
      </trkpt>
      <trkpt lat="46.66757" lon="0.37121">
        <ele>63.58</ele>
        <time>2021-08-06T20:04:46Z</time>
      </trkpt>
      <trkpt lat="46.66734" lon="0.37113">
        <ele>63.58</ele>
        <time>2021-08-06T20:04:47Z</time>
      </trkpt>
      <trkpt lat="46.66734" lon="0.37113">
        <ele>63.58</ele>
        <time>2021-08-06T20:04:48Z</time>
      </trkpt>
      <trkpt lat="46.66729" lon="0.37109">
        <ele>63.58</ele>
        <time>2021-08-06T20:04:49Z</time>
      </trkpt>
      <trkpt lat="46.66724" lon="0.37106">
        <ele>63.58</ele>
        <time>2021-08-06T20:04:50Z</time>
      </trkpt>
      <trkpt lat="46.66666" lon="0.37073">
        <ele>66.95</ele>
        <time>2021-08-06T20:05:01Z</time>
      </trkpt>
      <trkpt lat="46.66658" lon="0.37072">
        <ele>67.43</ele>
        <time>2021-08-06T20:05:04Z</time>
      </trkpt>
      <trkpt lat="46.66655" lon="0.37075">
        <ele>67.43</ele>
        <time>2021-08-06T20:05:05Z</time>
      </trkpt>
      <trkpt lat="46.66646" lon="0.3709">
        <ele>67.43</ele>
        <time>2021-08-06T20:05:06Z</time>
      </trkpt>
      <trkpt lat="46.66646" lon="0.3709">
        <ele>67.91</ele>
        <time>2021-08-06T20:05:07Z</time>
      </trkpt>
      <trkpt lat="46.66644" lon="0.37098">
        <ele>67.91</ele>
        <time>2021-08-06T20:05:08Z</time>
      </trkpt>
      <trkpt lat="46.66631" lon="0.37125">
        <ele>68.39</ele>
        <time>2021-08-06T20:05:15Z</time>
      </trkpt>
      <trkpt lat="46.66628" lon="0.37126">
        <ele>68.39</ele>
        <time>2021-08-06T20:05:18Z</time>
      </trkpt>
      <trkpt lat="46.66634" lon="0.37133">
        <ele>68.87</ele>
        <time>2021-08-06T20:05:19Z</time>
      </trkpt>
      <trkpt lat="46.66633" lon="0.37136">
        <ele>68.87</ele>
        <time>2021-08-06T20:05:20Z</time>
      </trkpt>
      <trkpt lat="46.66628" lon="0.37151">
        <ele>68.39</ele>
        <time>2021-08-06T20:05:23Z</time>
      </trkpt>
      <trkpt lat="46.66626" lon="0.37157">
        <ele>68.39</ele>
        <time>2021-08-06T20:05:24Z</time>
      </trkpt>
      <trkpt lat="46.66624" lon="0.37163">
        <ele>68.87</ele>
        <time>2021-08-06T20:05:25Z</time>
      </trkpt>
      <trkpt lat="46.66616" lon="0.37189">
        <ele>68.39</ele>
        <time>2021-08-06T20:05:30Z</time>
      </trkpt>
      <trkpt lat="46.66618" lon="0.37196">
        <ele>68.39</ele>
        <time>2021-08-06T20:05:31Z</time>
      </trkpt>
      <trkpt lat="46.66618" lon="0.37196">
        <ele>68.39</ele>
        <time>2021-08-06T20:05:33Z</time>
      </trkpt>
      <trkpt lat="46.66624" lon="0.37199">
        <ele>67.91</ele>
        <time>2021-08-06T20:05:34Z</time>
      </trkpt>
      <trkpt lat="46.66636" lon="0.37201">
        <ele>67.91</ele>
        <time>2021-08-06T20:05:35Z</time>
      </trkpt>
      <trkpt lat="46.66642" lon="0.37184">
        <ele>67.91</ele>
        <time>2021-08-06T20:05:38Z</time>
      </trkpt>
      <trkpt lat="46.66645" lon="0.37171">
        <ele>67.91</ele>
        <time>2021-08-06T20:05:40Z</time>
      </trkpt>
      <trkpt lat="46.66646" lon="0.37171">
        <ele>67.91</ele>
        <time>2021-08-06T20:05:41Z</time>
      </trkpt>
      <trkpt lat="46.6665" lon="0.37168">
        <ele>67.43</ele>
        <time>2021-08-06T20:05:42Z</time>
      </trkpt>
      <trkpt lat="46.66654" lon="0.37166">
        <ele>67.43</ele>
        <time>2021-08-06T20:05:43Z</time>
      </trkpt>
      <trkpt lat="46.66658" lon="0.37164">
        <ele>67.43</ele>
        <time>2021-08-06T20:05:44Z</time>
      </trkpt>
      <trkpt lat="46.66661" lon="0.37162">
        <ele>67.43</ele>
        <time>2021-08-06T20:05:45Z</time>
      </trkpt>
      <trkpt lat="46.66662" lon="0.37161">
        <ele>67.43</ele>
        <time>2021-08-06T20:05:46Z</time>
      </trkpt>
      <trkpt lat="46.66664" lon="0.3716">
        <ele>67.91</ele>
        <time>2021-08-06T20:05:47Z</time>
      </trkpt>
      <trkpt lat="46.66643" lon="0.37149">
        <ele>67.91</ele>
        <time>2021-08-06T20:05:48Z</time>
      </trkpt>
      <trkpt lat="46.66645" lon="0.37134">
        <ele>67.91</ele>
        <time>2021-08-06T20:05:49Z</time>
      </trkpt>
      <trkpt lat="46.66646" lon="0.3713">
        <ele>67.91</ele>
        <time>2021-08-06T20:05:50Z</time>
      </trkpt>
      <trkpt lat="46.66646" lon="0.37127">
        <ele>67.91</ele>
        <time>2021-08-06T20:05:51Z</time>
      </trkpt>
      <trkpt lat="46.66647" lon="0.37124">
        <ele>67.91</ele>
        <time>2021-08-06T20:06:08Z</time>
      </trkpt>
      <trkpt lat="46.66647" lon="0.37124">
        <ele>67.91</ele>
        <time>2021-08-06T20:07:54Z</time>
      </trkpt>
      <trkpt lat="46.66648" lon="0.37121">
        <ele>68.39</ele>
        <time>2021-08-06T20:07:57Z</time>
      </trkpt>
      <trkpt lat="46.66648" lon="0.3712">
        <ele>68.39</ele>
        <time>2021-08-06T20:07:58Z</time>
      </trkpt>
      <trkpt lat="46.66648" lon="0.37118">
        <ele>68.39</ele>
        <time>2021-08-06T20:08:16Z</time>
      </trkpt>
      <trkpt lat="46.66648" lon="0.37118">
        <ele>67.91</ele>
        <time>2021-08-06T20:09:59Z</time>
      </trkpt>
      <trkpt lat="46.66657" lon="0.371">
        <ele>67.91</ele>
        <time>2021-08-06T20:10:36Z</time>
      </trkpt>
      <trkpt lat="46.66659" lon="0.37097">
        <ele>67.91</ele>
        <time>2021-08-06T20:10:52Z</time>
      </trkpt>
      <trkpt lat="46.66659" lon="0.37097">
        <ele>67.91</ele>
        <time>2021-08-06T20:11:13Z</time>
      </trkpt>
      <trkpt lat="46.66659" lon="0.37097">
        <ele>67.91</ele>
        <time>2021-08-06T20:11:29Z</time>
      </trkpt>
      <trkpt lat="46.66659" lon="0.37097">
        <ele>67.91</ele>
        <time>2021-08-06T20:12:13Z</time>
      </trkpt>
      <trkpt lat="46.66674" lon="0.37087">
        <ele>67.91</ele>
        <time>2021-08-06T20:12:50Z</time>
      </trkpt>
      <trkpt lat="46.66689" lon="0.37088">
        <ele>67.43</ele>
        <time>2021-08-06T20:13:03Z</time>
      </trkpt>
      <trkpt lat="46.66693" lon="0.37089">
        <ele>66.95</ele>
        <time>2021-08-06T20:13:04Z</time>
      </trkpt>
      <trkpt lat="46.66732" lon="0.37111">
        <ele>64.55</ele>
        <time>2021-08-06T20:13:11Z</time>
      </trkpt>
      <trkpt lat="46.66737" lon="0.37115">
        <ele>64.55</ele>
        <time>2021-08-06T20:13:12Z</time>
      </trkpt>
      <trkpt lat="46.66742" lon="0.37118">
        <ele>64.07</ele>
        <time>2021-08-06T20:13:13Z</time>
      </trkpt>
      <trkpt lat="46.66745" lon="0.3712">
        <ele>64.07</ele>
        <time>2021-08-06T20:13:14Z</time>
      </trkpt>
      <trkpt lat="46.66748" lon="0.37122">
        <ele>63.58</ele>
        <time>2021-08-06T20:13:15Z</time>
      </trkpt>
      <trkpt lat="46.66753" lon="0.37136">
        <ele>63.58</ele>
        <time>2021-08-06T20:13:16Z</time>
      </trkpt>
      <trkpt lat="46.66753" lon="0.37142">
        <ele>63.58</ele>
        <time>2021-08-06T20:13:17Z</time>
      </trkpt>
      <trkpt lat="46.66751" lon="0.37157">
        <ele>63.1</ele>
        <time>2021-08-06T20:13:18Z</time>
      </trkpt>
      <trkpt lat="46.66751" lon="0.37157">
        <ele>63.1</ele>
        <time>2021-08-06T20:13:19Z</time>
      </trkpt>
      <trkpt lat="46.6675" lon="0.37165">
        <ele>63.1</ele>
        <time>2021-08-06T20:13:20Z</time>
      </trkpt>
      <trkpt lat="46.66748" lon="0.37172">
        <ele>63.1</ele>
        <time>2021-08-06T20:13:21Z</time>
      </trkpt>
      <trkpt lat="46.66747" lon="0.37181">
        <ele>63.1</ele>
        <time>2021-08-06T20:13:22Z</time>
      </trkpt>
      <trkpt lat="46.66743" lon="0.37203">
        <ele>63.1</ele>
        <time>2021-08-06T20:13:24Z</time>
      </trkpt>
      <trkpt lat="46.66741" lon="0.37215">
        <ele>63.1</ele>
        <time>2021-08-06T20:13:25Z</time>
      </trkpt>
      <trkpt lat="46.66738" lon="0.37229">
        <ele>63.1</ele>
        <time>2021-08-06T20:13:26Z</time>
      </trkpt>
      <trkpt lat="46.66731" lon="0.37238">
        <ele>62.62</ele>
        <time>2021-08-06T20:13:27Z</time>
      </trkpt>
      <trkpt lat="46.66712" lon="0.37253">
        <ele>63.1</ele>
        <time>2021-08-06T20:13:28Z</time>
      </trkpt>
      <trkpt lat="46.66712" lon="0.37253">
        <ele>63.1</ele>
        <time>2021-08-06T20:13:29Z</time>
      </trkpt>
      <trkpt lat="46.66701" lon="0.37254">
        <ele>63.58</ele>
        <time>2021-08-06T20:13:30Z</time>
      </trkpt>
      <trkpt lat="46.66692" lon="0.37254">
        <ele>64.07</ele>
        <time>2021-08-06T20:13:31Z</time>
      </trkpt>
      <trkpt lat="46.66681" lon="0.37253">
        <ele>64.07</ele>
        <time>2021-08-06T20:13:32Z</time>
      </trkpt>
      <trkpt lat="46.6667" lon="0.37249">
        <ele>64.55</ele>
        <time>2021-08-06T20:13:33Z</time>
      </trkpt>
      <trkpt lat="46.66658" lon="0.37244">
        <ele>65.03</ele>
        <time>2021-08-06T20:13:34Z</time>
      </trkpt>
      <trkpt lat="46.66529" lon="0.37184">
        <ele>70.79</ele>
        <time>2021-08-06T20:13:44Z</time>
      </trkpt>
      <trkpt lat="46.66297" lon="0.37055">
        <ele>81.37</ele>
        <time>2021-08-06T20:14:02Z</time>
      </trkpt>
      <trkpt lat="46.66026" lon="0.36904">
        <ele>87.14</ele>
        <time>2021-08-06T20:14:20Z</time>
      </trkpt>
      <trkpt lat="46.65691" lon="0.36713">
        <ele>92.9</ele>
        <time>2021-08-06T20:14:42Z</time>
      </trkpt>
      <trkpt lat="46.65343" lon="0.36525">
        <ele>90.02</ele>
        <time>2021-08-06T20:15:05Z</time>
      </trkpt>
      <trkpt lat="46.65063" lon="0.36401">
        <ele>78.48</ele>
        <time>2021-08-06T20:15:23Z</time>
      </trkpt>
      <trkpt lat="46.6488" lon="0.36319">
        <ele>76.08</ele>
        <time>2021-08-06T20:15:36Z</time>
      </trkpt>
      <trkpt lat="46.64755" lon="0.36262">
        <ele>75.12</ele>
        <time>2021-08-06T20:15:49Z</time>
      </trkpt>
      <trkpt lat="46.6472" lon="0.36237">
        <ele>75.12</ele>
        <time>2021-08-06T20:15:58Z</time>
      </trkpt>
      <trkpt lat="46.64711" lon="0.36208">
        <ele>74.64</ele>
        <time>2021-08-06T20:16:02Z</time>
      </trkpt>
      <trkpt lat="46.64707" lon="0.36199">
        <ele>74.16</ele>
        <time>2021-08-06T20:16:03Z</time>
      </trkpt>
      <trkpt lat="46.647" lon="0.36197">
        <ele>74.16</ele>
        <time>2021-08-06T20:16:04Z</time>
      </trkpt>
      <trkpt lat="46.64693" lon="0.36194">
        <ele>74.16</ele>
        <time>2021-08-06T20:16:05Z</time>
      </trkpt>
      <trkpt lat="46.64685" lon="0.36191">
        <ele>74.16</ele>
        <time>2021-08-06T20:16:06Z</time>
      </trkpt>
      <trkpt lat="46.64685" lon="0.36191">
        <ele>74.16</ele>
        <time>2021-08-06T20:16:07Z</time>
      </trkpt>
      <trkpt lat="46.64672" lon="0.36198">
        <ele>74.16</ele>
        <time>2021-08-06T20:16:08Z</time>
      </trkpt>
      <trkpt lat="46.64665" lon="0.36203">
        <ele>73.68</ele>
        <time>2021-08-06T20:16:09Z</time>
      </trkpt>
      <trkpt lat="46.64665" lon="0.36203">
        <ele>73.68</ele>
        <time>2021-08-06T20:16:10Z</time>
      </trkpt>
      <trkpt lat="46.64656" lon="0.36206">
        <ele>73.68</ele>
        <time>2021-08-06T20:16:11Z</time>
      </trkpt>
      <trkpt lat="46.64647" lon="0.36207">
        <ele>73.68</ele>
        <time>2021-08-06T20:16:12Z</time>
      </trkpt>
      <trkpt lat="46.64627" lon="0.36203">
        <ele>73.2</ele>
        <time>2021-08-06T20:16:13Z</time>
      </trkpt>
      <trkpt lat="46.64627" lon="0.36203">
        <ele>73.2</ele>
        <time>2021-08-06T20:16:14Z</time>
      </trkpt>
      <trkpt lat="46.64487" lon="0.36146">
        <ele>73.2</ele>
        <time>2021-08-06T20:16:25Z</time>
      </trkpt>
      <trkpt lat="46.6421" lon="0.3602">
        <ele>71.27</ele>
        <time>2021-08-06T20:16:46Z</time>
      </trkpt>
      <trkpt lat="46.63944" lon="0.35898">
        <ele>67.91</ele>
        <time>2021-08-06T20:17:06Z</time>
      </trkpt>
      <trkpt lat="46.6379" lon="0.35813">
        <ele>65.99</ele>
        <time>2021-08-06T20:17:17Z</time>
      </trkpt>
      <trkpt lat="46.63665" lon="0.35768">
        <ele>65.51</ele>
        <time>2021-08-06T20:17:27Z</time>
      </trkpt>
      <trkpt lat="46.635" lon="0.35764">
        <ele>65.51</ele>
        <time>2021-08-06T20:17:39Z</time>
      </trkpt>
      <trkpt lat="46.63311" lon="0.35746">
        <ele>74.16</ele>
        <time>2021-08-06T20:17:50Z</time>
      </trkpt>
      <trkpt lat="46.63064" lon="0.35645">
        <ele>77.52</ele>
        <time>2021-08-06T20:18:06Z</time>
      </trkpt>
      <trkpt lat="46.62776" lon="0.35521">
        <ele>72.72</ele>
        <time>2021-08-06T20:18:24Z</time>
      </trkpt>
      <trkpt lat="46.62546" lon="0.35432">
        <ele>71.76</ele>
        <time>2021-08-06T20:18:39Z</time>
      </trkpt>
      <trkpt lat="46.62331" lon="0.3531">
        <ele>73.2</ele>
        <time>2021-08-06T20:18:53Z</time>
      </trkpt>
      <trkpt lat="46.62252" lon="0.35237">
        <ele>74.16</ele>
        <time>2021-08-06T20:18:59Z</time>
      </trkpt>
      <trkpt lat="46.62252" lon="0.35237">
        <ele>74.16</ele>
        <time>2021-08-06T20:19:00Z</time>
      </trkpt>
      <trkpt lat="46.62243" lon="0.35228">
        <ele>73.68</ele>
        <time>2021-08-06T20:19:01Z</time>
      </trkpt>
      <trkpt lat="46.62242" lon="0.35213">
        <ele>74.64</ele>
        <time>2021-08-06T20:19:02Z</time>
      </trkpt>
      <trkpt lat="46.62242" lon="0.35202">
        <ele>74.64</ele>
        <time>2021-08-06T20:19:03Z</time>
      </trkpt>
      <trkpt lat="46.62237" lon="0.35187">
        <ele>75.12</ele>
        <time>2021-08-06T20:19:04Z</time>
      </trkpt>
      <trkpt lat="46.62231" lon="0.3518">
        <ele>75.6</ele>
        <time>2021-08-06T20:19:05Z</time>
      </trkpt>
      <trkpt lat="46.62225" lon="0.35172">
        <ele>76.56</ele>
        <time>2021-08-06T20:19:06Z</time>
      </trkpt>
      <trkpt lat="46.62215" lon="0.35171">
        <ele>77.04</ele>
        <time>2021-08-06T20:19:07Z</time>
      </trkpt>
      <trkpt lat="46.62207" lon="0.35171">
        <ele>78</ele>
        <time>2021-08-06T20:19:08Z</time>
      </trkpt>
      <trkpt lat="46.62196" lon="0.3518">
        <ele>78.97</ele>
        <time>2021-08-06T20:19:09Z</time>
      </trkpt>
      <trkpt lat="46.62188" lon="0.35178">
        <ele>78.97</ele>
        <time>2021-08-06T20:19:10Z</time>
      </trkpt>
      <trkpt lat="46.62178" lon="0.35176">
        <ele>78.48</ele>
        <time>2021-08-06T20:19:11Z</time>
      </trkpt>
      <trkpt lat="46.62167" lon="0.35174">
        <ele>77.52</ele>
        <time>2021-08-06T20:19:12Z</time>
      </trkpt>
      <trkpt lat="46.62157" lon="0.35169">
        <ele>77.04</ele>
        <time>2021-08-06T20:19:13Z</time>
      </trkpt>
      <trkpt lat="46.62053" lon="0.35122">
        <ele>77.52</ele>
        <time>2021-08-06T20:19:21Z</time>
      </trkpt>
      <trkpt lat="46.61956" lon="0.35116">
        <ele>78</ele>
        <time>2021-08-06T20:19:28Z</time>
      </trkpt>
      <trkpt lat="46.61932" lon="0.35116">
        <ele>78</ele>
        <time>2021-08-06T20:19:31Z</time>
      </trkpt>
      <trkpt lat="46.61918" lon="0.35116">
        <ele>78.48</ele>
        <time>2021-08-06T20:19:32Z</time>
      </trkpt>
      <trkpt lat="46.61918" lon="0.35116">
        <ele>78.97</ele>
        <time>2021-08-06T20:19:33Z</time>
      </trkpt>
      <trkpt lat="46.61905" lon="0.35097">
        <ele>78.97</ele>
        <time>2021-08-06T20:19:34Z</time>
      </trkpt>
      <trkpt lat="46.61905" lon="0.35097">
        <ele>78.97</ele>
        <time>2021-08-06T20:19:35Z</time>
      </trkpt>
      <trkpt lat="46.61893" lon="0.35085">
        <ele>78.48</ele>
        <time>2021-08-06T20:19:36Z</time>
      </trkpt>
      <trkpt lat="46.61893" lon="0.35085">
        <ele>78</ele>
        <time>2021-08-06T20:19:37Z</time>
      </trkpt>
      <trkpt lat="46.6189" lon="0.35073">
        <ele>78.48</ele>
        <time>2021-08-06T20:19:38Z</time>
      </trkpt>
      <trkpt lat="46.61888" lon="0.35061">
        <ele>78.48</ele>
        <time>2021-08-06T20:19:39Z</time>
      </trkpt>
      <trkpt lat="46.61891" lon="0.35032">
        <ele>77.52</ele>
        <time>2021-08-06T20:19:40Z</time>
      </trkpt>
      <trkpt lat="46.61891" lon="0.35032">
        <ele>78</ele>
        <time>2021-08-06T20:19:41Z</time>
      </trkpt>
      <trkpt lat="46.61893" lon="0.35015">
        <ele>78.97</ele>
        <time>2021-08-06T20:19:42Z</time>
      </trkpt>
      <trkpt lat="46.61897" lon="0.34999">
        <ele>79.45</ele>
        <time>2021-08-06T20:19:43Z</time>
      </trkpt>
      <trkpt lat="46.61904" lon="0.34985">
        <ele>79.93</ele>
        <time>2021-08-06T20:19:44Z</time>
      </trkpt>
      <trkpt lat="46.61912" lon="0.34978">
        <ele>79.45</ele>
        <time>2021-08-06T20:19:45Z</time>
      </trkpt>
      <trkpt lat="46.6192" lon="0.3497">
        <ele>78.97</ele>
        <time>2021-08-06T20:19:46Z</time>
      </trkpt>
      <trkpt lat="46.6193" lon="0.34971">
        <ele>79.93</ele>
        <time>2021-08-06T20:19:47Z</time>
      </trkpt>
      <trkpt lat="46.61941" lon="0.34972">
        <ele>78.97</ele>
        <time>2021-08-06T20:19:48Z</time>
      </trkpt>
      <trkpt lat="46.6195" lon="0.34982">
        <ele>78.48</ele>
        <time>2021-08-06T20:19:49Z</time>
      </trkpt>
      <trkpt lat="46.61959" lon="0.34994">
        <ele>78.48</ele>
        <time>2021-08-06T20:19:50Z</time>
      </trkpt>
      <trkpt lat="46.61963" lon="0.35006">
        <ele>77.52</ele>
        <time>2021-08-06T20:19:51Z</time>
      </trkpt>
      <trkpt lat="46.61965" lon="0.35021">
        <ele>77.52</ele>
        <time>2021-08-06T20:19:52Z</time>
      </trkpt>
      <trkpt lat="46.61967" lon="0.35038">
        <ele>77.04</ele>
        <time>2021-08-06T20:19:53Z</time>
      </trkpt>
      <trkpt lat="46.61968" lon="0.35057">
        <ele>77.52</ele>
        <time>2021-08-06T20:19:54Z</time>
      </trkpt>
      <trkpt lat="46.6197" lon="0.35077">
        <ele>76.56</ele>
        <time>2021-08-06T20:19:55Z</time>
      </trkpt>
      <trkpt lat="46.61943" lon="0.35315">
        <ele>68.39</ele>
        <time>2021-08-06T20:20:03Z</time>
      </trkpt>
      <trkpt lat="46.61879" lon="0.35577">
        <ele>63.1</ele>
        <time>2021-08-06T20:20:13Z</time>
      </trkpt>
      <trkpt lat="46.6173" lon="0.36083">
        <ele>83.77</ele>
        <time>2021-08-06T20:20:31Z</time>
      </trkpt>
      <trkpt lat="46.61635" lon="0.36252">
        <ele>88.58</ele>
        <time>2021-08-06T20:20:38Z</time>
      </trkpt>
      <trkpt lat="46.61465" lon="0.36521">
        <ele>90.98</ele>
        <time>2021-08-06T20:20:49Z</time>
      </trkpt>
      <trkpt lat="46.61404" lon="0.3674">
        <ele>92.42</ele>
        <time>2021-08-06T20:20:56Z</time>
      </trkpt>
      <trkpt lat="46.61397" lon="0.36978">
        <ele>91.94</ele>
        <time>2021-08-06T20:21:03Z</time>
      </trkpt>
      <trkpt lat="46.61444" lon="0.37185">
        <ele>86.66</ele>
        <time>2021-08-06T20:21:09Z</time>
      </trkpt>
      <trkpt lat="46.61564" lon="0.37533">
        <ele>84.25</ele>
        <time>2021-08-06T20:21:19Z</time>
      </trkpt>
      <trkpt lat="46.61605" lon="0.37788">
        <ele>87.62</ele>
        <time>2021-08-06T20:21:26Z</time>
      </trkpt>
      <trkpt lat="46.61598" lon="0.38082">
        <ele>94.35</ele>
        <time>2021-08-06T20:21:34Z</time>
      </trkpt>
      <trkpt lat="46.61534" lon="0.38356">
        <ele>91.46</ele>
        <time>2021-08-06T20:21:42Z</time>
      </trkpt>
      <trkpt lat="46.61423" lon="0.3859">
        <ele>86.18</ele>
        <time>2021-08-06T20:21:50Z</time>
      </trkpt>
      <trkpt lat="46.61272" lon="0.38774">
        <ele>91.46</ele>
        <time>2021-08-06T20:21:58Z</time>
      </trkpt>
      <trkpt lat="46.60989" lon="0.39042">
        <ele>99.15</ele>
        <time>2021-08-06T20:22:11Z</time>
      </trkpt>
      <trkpt lat="46.60817" lon="0.39226">
        <ele>103</ele>
        <time>2021-08-06T20:22:21Z</time>
      </trkpt>
      <trkpt lat="46.60696" lon="0.39301">
        <ele>101.56</ele>
        <time>2021-08-06T20:22:28Z</time>
      </trkpt>
      <trkpt lat="46.60537" lon="0.39342">
        <ele>97.71</ele>
        <time>2021-08-06T20:22:35Z</time>
      </trkpt>
      <trkpt lat="46.60376" lon="0.39324">
        <ele>85.21</ele>
        <time>2021-08-06T20:22:41Z</time>
      </trkpt>
      <trkpt lat="46.60182" lon="0.39242">
        <ele>84.25</ele>
        <time>2021-08-06T20:22:48Z</time>
      </trkpt>
      <trkpt lat="46.59917" lon="0.39097">
        <ele>94.35</ele>
        <time>2021-08-06T20:22:58Z</time>
      </trkpt>
      <trkpt lat="46.59745" lon="0.39058">
        <ele>98.67</ele>
        <time>2021-08-06T20:23:06Z</time>
      </trkpt>
      <trkpt lat="46.59541" lon="0.39075">
        <ele>101.08</ele>
        <time>2021-08-06T20:23:14Z</time>
      </trkpt>
      <trkpt lat="46.59024" lon="0.39169">
        <ele>105.4</ele>
        <time>2021-08-06T20:23:34Z</time>
      </trkpt>
      <trkpt lat="46.58555" lon="0.39273">
        <ele>114.05</ele>
        <time>2021-08-06T20:23:52Z</time>
      </trkpt>
      <trkpt lat="46.58191" lon="0.39411">
        <ele>115.01</ele>
        <time>2021-08-06T20:24:07Z</time>
      </trkpt>
      <trkpt lat="46.57782" lon="0.39627">
        <ele>125.11</ele>
        <time>2021-08-06T20:24:24Z</time>
      </trkpt>
      <trkpt lat="46.57406" lon="0.39792">
        <ele>127.51</ele>
        <time>2021-08-06T20:24:38Z</time>
      </trkpt>
      <trkpt lat="46.57114" lon="0.39855">
        <ele>121.26</ele>
        <time>2021-08-06T20:24:50Z</time>
      </trkpt>
      <trkpt lat="46.5679" lon="0.39861">
        <ele>119.82</ele>
        <time>2021-08-06T20:25:02Z</time>
      </trkpt>
      <trkpt lat="46.56354" lon="0.39794">
        <ele>121.26</ele>
        <time>2021-08-06T20:25:18Z</time>
      </trkpt>
      <trkpt lat="46.56031" lon="0.39765">
        <ele>124.15</ele>
        <time>2021-08-06T20:25:30Z</time>
      </trkpt>
      <trkpt lat="46.55712" lon="0.39815">
        <ele>126.07</ele>
        <time>2021-08-06T20:25:42Z</time>
      </trkpt>
      <trkpt lat="46.55494" lon="0.3989">
        <ele>127.51</ele>
        <time>2021-08-06T20:25:51Z</time>
      </trkpt>
      <trkpt lat="46.554" lon="0.39931">
        <ele>127.03</ele>
        <time>2021-08-06T20:25:57Z</time>
      </trkpt>
      <trkpt lat="46.55368" lon="0.39939">
        <ele>125.59</ele>
        <time>2021-08-06T20:26:00Z</time>
      </trkpt>
      <trkpt lat="46.5536" lon="0.39938">
        <ele>126.55</ele>
        <time>2021-08-06T20:26:01Z</time>
      </trkpt>
      <trkpt lat="46.55345" lon="0.39931">
        <ele>126.55</ele>
        <time>2021-08-06T20:26:02Z</time>
      </trkpt>
      <trkpt lat="46.55338" lon="0.39924">
        <ele>127.03</ele>
        <time>2021-08-06T20:26:04Z</time>
      </trkpt>
      <trkpt lat="46.55326" lon="0.39926">
        <ele>125.59</ele>
        <time>2021-08-06T20:26:05Z</time>
      </trkpt>
      <trkpt lat="46.55317" lon="0.3993">
        <ele>124.63</ele>
        <time>2021-08-06T20:26:06Z</time>
      </trkpt>
      <trkpt lat="46.5531" lon="0.3994">
        <ele>124.63</ele>
        <time>2021-08-06T20:26:07Z</time>
      </trkpt>
      <trkpt lat="46.55304" lon="0.39965">
        <ele>124.63</ele>
        <time>2021-08-06T20:26:08Z</time>
      </trkpt>
      <trkpt lat="46.55304" lon="0.39965">
        <ele>124.15</ele>
        <time>2021-08-06T20:26:09Z</time>
      </trkpt>
      <trkpt lat="46.55297" lon="0.39978">
        <ele>123.19</ele>
        <time>2021-08-06T20:26:10Z</time>
      </trkpt>
      <trkpt lat="46.55284" lon="0.40003">
        <ele>121.74</ele>
        <time>2021-08-06T20:26:11Z</time>
      </trkpt>
      <trkpt lat="46.55284" lon="0.40003">
        <ele>121.74</ele>
        <time>2021-08-06T20:26:12Z</time>
      </trkpt>
      <trkpt lat="46.55276" lon="0.40012">
        <ele>121.74</ele>
        <time>2021-08-06T20:26:13Z</time>
      </trkpt>
      <trkpt lat="46.55266" lon="0.40023">
        <ele>121.74</ele>
        <time>2021-08-06T20:26:14Z</time>
      </trkpt>
      <trkpt lat="46.55255" lon="0.40033">
        <ele>122.22</ele>
        <time>2021-08-06T20:26:15Z</time>
      </trkpt>
      <trkpt lat="46.55211" lon="0.40078">
        <ele>121.26</ele>
        <time>2021-08-06T20:26:21Z</time>
      </trkpt>
      <trkpt lat="46.55199" lon="0.4009">
        <ele>121.26</ele>
        <time>2021-08-06T20:26:30Z</time>
      </trkpt>
      <trkpt lat="46.55179" lon="0.40112">
        <ele>120.78</ele>
        <time>2021-08-06T20:26:59Z</time>
      </trkpt>
      <trkpt lat="46.55131" lon="0.40179">
        <ele>118.38</ele>
        <time>2021-08-06T20:27:06Z</time>
      </trkpt>
      <trkpt lat="46.5504" lon="0.40326">
        <ele>113.09</ele>
        <time>2021-08-06T20:27:15Z</time>
      </trkpt>
      <trkpt lat="46.54911" lon="0.40533">
        <ele>111.17</ele>
        <time>2021-08-06T20:27:25Z</time>
      </trkpt>
      <trkpt lat="46.54785" lon="0.40747">
        <ele>111.17</ele>
        <time>2021-08-06T20:27:34Z</time>
      </trkpt>
      <trkpt lat="46.54717" lon="0.40854">
        <ele>112.61</ele>
        <time>2021-08-06T20:27:42Z</time>
      </trkpt>
      <trkpt lat="46.54687" lon="0.40901">
        <ele>113.09</ele>
        <time>2021-08-06T20:27:50Z</time>
      </trkpt>
      <trkpt lat="46.54679" lon="0.40915">
        <ele>114.05</ele>
        <time>2021-08-06T20:27:59Z</time>
      </trkpt>
      <trkpt lat="46.54641" lon="0.40977">
        <ele>115.01</ele>
        <time>2021-08-06T20:28:10Z</time>
      </trkpt>
      <trkpt lat="46.54587" lon="0.41065">
        <ele>115.5</ele>
        <time>2021-08-06T20:28:20Z</time>
      </trkpt>
      <trkpt lat="46.5451" lon="0.41194">
        <ele>111.65</ele>
        <time>2021-08-06T20:28:33Z</time>
      </trkpt>
      <trkpt lat="46.54469" lon="0.41262">
        <ele>108.29</ele>
        <time>2021-08-06T20:28:47Z</time>
      </trkpt>
      <trkpt lat="46.54444" lon="0.41302">
        <ele>108.77</ele>
        <time>2021-08-06T20:28:59Z</time>
      </trkpt>
      <trkpt lat="46.54444" lon="0.41302">
        <ele>109.73</ele>
        <time>2021-08-06T20:29:26Z</time>
      </trkpt>
      <trkpt lat="46.54429" lon="0.41325">
        <ele>109.73</ele>
        <time>2021-08-06T20:29:44Z</time>
      </trkpt>
      <trkpt lat="46.54368" lon="0.41424">
        <ele>112.13</ele>
        <time>2021-08-06T20:29:56Z</time>
      </trkpt>
      <trkpt lat="46.54297" lon="0.41539">
        <ele>116.46</ele>
        <time>2021-08-06T20:30:05Z</time>
      </trkpt>
      <trkpt lat="46.54211" lon="0.4168">
        <ele>115.5</ele>
        <time>2021-08-06T20:30:16Z</time>
      </trkpt>
      <trkpt lat="46.5411" lon="0.41846">
        <ele>110.69</ele>
        <time>2021-08-06T20:30:25Z</time>
      </trkpt>
      <trkpt lat="46.53947" lon="0.4211">
        <ele>115.01</ele>
        <time>2021-08-06T20:30:40Z</time>
      </trkpt>
      <trkpt lat="46.53814" lon="0.42326">
        <ele>125.59</ele>
        <time>2021-08-06T20:30:52Z</time>
      </trkpt>
      <trkpt lat="46.53665" lon="0.42561">
        <ele>131.84</ele>
        <time>2021-08-06T20:31:08Z</time>
      </trkpt>
      <trkpt lat="46.53519" lon="0.428">
        <ele>134.24</ele>
        <time>2021-08-06T20:31:22Z</time>
      </trkpt>
      <trkpt lat="46.53368" lon="0.43054">
        <ele>130.88</ele>
        <time>2021-08-06T20:31:36Z</time>
      </trkpt>
      <trkpt lat="46.53211" lon="0.43308">
        <ele>126.55</ele>
        <time>2021-08-06T20:31:49Z</time>
      </trkpt>
      <trkpt lat="46.53032" lon="0.43601">
        <ele>122.71</ele>
        <time>2021-08-06T20:32:03Z</time>
      </trkpt>
      <trkpt lat="46.52819" lon="0.43951">
        <ele>122.71</ele>
        <time>2021-08-06T20:32:19Z</time>
      </trkpt>
      <trkpt lat="46.52705" lon="0.44139">
        <ele>125.59</ele>
        <time>2021-08-06T20:32:30Z</time>
      </trkpt>
      <trkpt lat="46.52542" lon="0.44403">
        <ele>120.78</ele>
        <time>2021-08-06T20:32:45Z</time>
      </trkpt>
      <trkpt lat="46.52361" lon="0.44699">
        <ele>121.74</ele>
        <time>2021-08-06T20:32:59Z</time>
      </trkpt>
      <trkpt lat="46.52126" lon="0.45082">
        <ele>123.19</ele>
        <time>2021-08-06T20:33:17Z</time>
      </trkpt>
      <trkpt lat="46.51849" lon="0.45529">
        <ele>122.22</ele>
        <time>2021-08-06T20:33:38Z</time>
      </trkpt>
      <trkpt lat="46.51619" lon="0.45903">
        <ele>122.71</ele>
        <time>2021-08-06T20:33:55Z</time>
      </trkpt>
      <trkpt lat="46.51433" lon="0.46207">
        <ele>128.47</ele>
        <time>2021-08-06T20:34:09Z</time>
      </trkpt>
      <trkpt lat="46.51266" lon="0.46478">
        <ele>124.63</ele>
        <time>2021-08-06T20:34:21Z</time>
      </trkpt>
      <trkpt lat="46.51004" lon="0.46906">
        <ele>123.19</ele>
        <time>2021-08-06T20:34:41Z</time>
      </trkpt>
      <trkpt lat="46.50923" lon="0.47039">
        <ele>123.19</ele>
        <time>2021-08-06T20:34:49Z</time>
      </trkpt>
      <trkpt lat="46.50831" lon="0.47181">
        <ele>127.03</ele>
        <time>2021-08-06T20:35:00Z</time>
      </trkpt>
      <trkpt lat="46.50817" lon="0.47196">
        <ele>127.03</ele>
        <time>2021-08-06T20:35:01Z</time>
      </trkpt>
      <trkpt lat="46.50817" lon="0.47196">
        <ele>126.55</ele>
        <time>2021-08-06T20:35:02Z</time>
      </trkpt>
      <trkpt lat="46.50794" lon="0.47207">
        <ele>126.55</ele>
        <time>2021-08-06T20:35:04Z</time>
      </trkpt>
      <trkpt lat="46.50788" lon="0.47219">
        <ele>126.07</ele>
        <time>2021-08-06T20:35:05Z</time>
      </trkpt>
      <trkpt lat="46.50788" lon="0.47219">
        <ele>126.07</ele>
        <time>2021-08-06T20:35:06Z</time>
      </trkpt>
      <trkpt lat="46.50787" lon="0.4723">
        <ele>125.59</ele>
        <time>2021-08-06T20:35:07Z</time>
      </trkpt>
      <trkpt lat="46.50785" lon="0.47239">
        <ele>125.59</ele>
        <time>2021-08-06T20:35:08Z</time>
      </trkpt>
      <trkpt lat="46.50785" lon="0.47239">
        <ele>125.59</ele>
        <time>2021-08-06T20:35:09Z</time>
      </trkpt>
      <trkpt lat="46.50778" lon="0.47279">
        <ele>125.59</ele>
        <time>2021-08-06T20:35:10Z</time>
      </trkpt>
      <trkpt lat="46.50778" lon="0.47279">
        <ele>125.11</ele>
        <time>2021-08-06T20:35:11Z</time>
      </trkpt>
      <trkpt lat="46.50773" lon="0.47289">
        <ele>125.59</ele>
        <time>2021-08-06T20:35:12Z</time>
      </trkpt>
      <trkpt lat="46.50697" lon="0.47409">
        <ele>126.55</ele>
        <time>2021-08-06T20:35:24Z</time>
      </trkpt>
      <trkpt lat="46.50574" lon="0.47601">
        <ele>126.07</ele>
        <time>2021-08-06T20:35:38Z</time>
      </trkpt>
      <trkpt lat="46.50432" lon="0.47788">
        <ele>124.15</ele>
        <time>2021-08-06T20:35:49Z</time>
      </trkpt>
      <trkpt lat="46.5026" lon="0.48039">
        <ele>121.26</ele>
        <time>2021-08-06T20:36:00Z</time>
      </trkpt>
      <trkpt lat="46.50095" lon="0.48308">
        <ele>120.78</ele>
        <time>2021-08-06T20:36:11Z</time>
      </trkpt>
      <trkpt lat="46.49859" lon="0.48691">
        <ele>116.46</ele>
        <time>2021-08-06T20:36:24Z</time>
      </trkpt>
      <trkpt lat="46.49524" lon="0.49232">
        <ele>115.98</ele>
        <time>2021-08-06T20:36:43Z</time>
      </trkpt>
      <trkpt lat="46.49196" lon="0.49754">
        <ele>118.38</ele>
        <time>2021-08-06T20:37:02Z</time>
      </trkpt>
      <trkpt lat="46.48863" lon="0.5026">
        <ele>120.3</ele>
        <time>2021-08-06T20:37:21Z</time>
      </trkpt>
      <trkpt lat="46.48741" lon="0.50541">
        <ele>121.74</ele>
        <time>2021-08-06T20:37:30Z</time>
      </trkpt>
      <trkpt lat="46.4866" lon="0.50852">
        <ele>124.63</ele>
        <time>2021-08-06T20:37:39Z</time>
      </trkpt>
      <trkpt lat="46.48622" lon="0.51217">
        <ele>122.71</ele>
        <time>2021-08-06T20:37:48Z</time>
      </trkpt>
      <trkpt lat="46.48605" lon="0.51904">
        <ele>118.86</ele>
        <time>2021-08-06T20:38:07Z</time>
      </trkpt>
      <trkpt lat="46.48571" lon="0.5248">
        <ele>116.94</ele>
        <time>2021-08-06T20:38:22Z</time>
      </trkpt>
      <trkpt lat="46.48492" lon="0.52851">
        <ele>115.98</ele>
        <time>2021-08-06T20:38:32Z</time>
      </trkpt>
      <trkpt lat="46.48365" lon="0.53183">
        <ele>118.38</ele>
        <time>2021-08-06T20:38:42Z</time>
      </trkpt>
      <trkpt lat="46.48205" lon="0.53466">
        <ele>119.82</ele>
        <time>2021-08-06T20:38:52Z</time>
      </trkpt>
      <trkpt lat="46.48006" lon="0.53704">
        <ele>115.98</ele>
        <time>2021-08-06T20:39:02Z</time>
      </trkpt>
      <trkpt lat="46.4778" lon="0.53881">
        <ele>114.05</ele>
        <time>2021-08-06T20:39:12Z</time>
      </trkpt>
      <trkpt lat="46.47248" lon="0.54215">
        <ele>118.86</ele>
        <time>2021-08-06T20:39:35Z</time>
      </trkpt>
      <trkpt lat="46.4678" lon="0.54506">
        <ele>113.57</ele>
        <time>2021-08-06T20:39:55Z</time>
      </trkpt>
      <trkpt lat="46.46453" lon="0.54742">
        <ele>112.13</ele>
        <time>2021-08-06T20:40:09Z</time>
      </trkpt>
      <trkpt lat="46.46227" lon="0.54967">
        <ele>113.57</ele>
        <time>2021-08-06T20:40:20Z</time>
      </trkpt>
      <trkpt lat="46.45989" lon="0.55278">
        <ele>107.32</ele>
        <time>2021-08-06T20:40:34Z</time>
      </trkpt>
      <trkpt lat="46.45803" lon="0.55557">
        <ele>111.65</ele>
        <time>2021-08-06T20:40:46Z</time>
      </trkpt>
      <trkpt lat="46.45652" lon="0.55729">
        <ele>116.46</ele>
        <time>2021-08-06T20:40:57Z</time>
      </trkpt>
      <trkpt lat="46.45605" lon="0.5578">
        <ele>117.42</ele>
        <time>2021-08-06T20:41:03Z</time>
      </trkpt>
      <trkpt lat="46.45597" lon="0.55792">
        <ele>117.9</ele>
        <time>2021-08-06T20:41:04Z</time>
      </trkpt>
      <trkpt lat="46.45582" lon="0.55784">
        <ele>119.34</ele>
        <time>2021-08-06T20:41:06Z</time>
      </trkpt>
      <trkpt lat="46.45575" lon="0.55786">
        <ele>119.34</ele>
        <time>2021-08-06T20:41:07Z</time>
      </trkpt>
      <trkpt lat="46.4557" lon="0.55799">
        <ele>118.86</ele>
        <time>2021-08-06T20:41:08Z</time>
      </trkpt>
      <trkpt lat="46.45567" lon="0.55807">
        <ele>118.86</ele>
        <time>2021-08-06T20:41:09Z</time>
      </trkpt>
      <trkpt lat="46.4557" lon="0.55815">
        <ele>118.38</ele>
        <time>2021-08-06T20:41:10Z</time>
      </trkpt>
      <trkpt lat="46.45572" lon="0.55832">
        <ele>117.9</ele>
        <time>2021-08-06T20:41:11Z</time>
      </trkpt>
      <trkpt lat="46.45568" lon="0.55844">
        <ele>115.98</ele>
        <time>2021-08-06T20:41:12Z</time>
      </trkpt>
      <trkpt lat="46.45563" lon="0.55859">
        <ele>115.98</ele>
        <time>2021-08-06T20:41:13Z</time>
      </trkpt>
      <trkpt lat="46.45496" lon="0.56055">
        <ele>115.5</ele>
        <time>2021-08-06T20:41:23Z</time>
      </trkpt>
      <trkpt lat="46.45401" lon="0.56229">
        <ele>113.57</ele>
        <time>2021-08-06T20:41:33Z</time>
      </trkpt>
      <trkpt lat="46.45204" lon="0.56575">
        <ele>104.92</ele>
        <time>2021-08-06T20:41:49Z</time>
      </trkpt>
      <trkpt lat="46.44952" lon="0.57019">
        <ele>101.08</ele>
        <time>2021-08-06T20:42:07Z</time>
      </trkpt>
      <trkpt lat="46.44729" lon="0.57413">
        <ele>97.71</ele>
        <time>2021-08-06T20:42:24Z</time>
      </trkpt>
      <trkpt lat="46.44559" lon="0.57714">
        <ele>102.04</ele>
        <time>2021-08-06T20:42:36Z</time>
      </trkpt>
      <trkpt lat="46.44307" lon="0.58156">
        <ele>117.42</ele>
        <time>2021-08-06T20:42:57Z</time>
      </trkpt>
      <trkpt lat="46.44161" lon="0.58416">
        <ele>115.5</ele>
        <time>2021-08-06T20:43:10Z</time>
      </trkpt>
      <trkpt lat="46.4396" lon="0.58767">
        <ele>102.52</ele>
        <time>2021-08-06T20:43:26Z</time>
      </trkpt>
      <trkpt lat="46.43921" lon="0.58836">
        <ele>100.11</ele>
        <time>2021-08-06T20:43:32Z</time>
      </trkpt>
      <trkpt lat="46.43886" lon="0.58898">
        <ele>98.19</ele>
        <time>2021-08-06T20:43:41Z</time>
      </trkpt>
      <trkpt lat="46.43815" lon="0.59021">
        <ele>92.9</ele>
        <time>2021-08-06T20:43:49Z</time>
      </trkpt>
      <trkpt lat="46.43713" lon="0.59197">
        <ele>98.19</ele>
        <time>2021-08-06T20:44:01Z</time>
      </trkpt>
      <trkpt lat="46.43587" lon="0.5942">
        <ele>88.1</ele>
        <time>2021-08-06T20:44:16Z</time>
      </trkpt>
      <trkpt lat="46.43581" lon="0.59434">
        <ele>88.1</ele>
        <time>2021-08-06T20:44:17Z</time>
      </trkpt>
      <trkpt lat="46.43577" lon="0.59446">
        <ele>89.54</ele>
        <time>2021-08-06T20:44:18Z</time>
      </trkpt>
      <trkpt lat="46.43574" lon="0.59456">
        <ele>90.02</ele>
        <time>2021-08-06T20:44:19Z</time>
      </trkpt>
      <trkpt lat="46.43574" lon="0.59468">
        <ele>89.54</ele>
        <time>2021-08-06T20:44:20Z</time>
      </trkpt>
      <trkpt lat="46.43576" lon="0.59483">
        <ele>87.62</ele>
        <time>2021-08-06T20:44:21Z</time>
      </trkpt>
      <trkpt lat="46.43579" lon="0.59495">
        <ele>86.18</ele>
        <time>2021-08-06T20:44:22Z</time>
      </trkpt>
      <trkpt lat="46.43584" lon="0.5951">
        <ele>85.21</ele>
        <time>2021-08-06T20:44:23Z</time>
      </trkpt>
      <trkpt lat="46.43588" lon="0.59526">
        <ele>84.25</ele>
        <time>2021-08-06T20:44:24Z</time>
      </trkpt>
      <trkpt lat="46.43591" lon="0.59542">
        <ele>83.77</ele>
        <time>2021-08-06T20:44:25Z</time>
      </trkpt>
      <trkpt lat="46.43591" lon="0.59556">
        <ele>83.29</ele>
        <time>2021-08-06T20:44:26Z</time>
      </trkpt>
      <trkpt lat="46.43588" lon="0.59572">
        <ele>82.81</ele>
        <time>2021-08-06T20:44:27Z</time>
      </trkpt>
      <trkpt lat="46.43585" lon="0.59589">
        <ele>83.29</ele>
        <time>2021-08-06T20:44:28Z</time>
      </trkpt>
      <trkpt lat="46.43567" lon="0.5969">
        <ele>87.62</ele>
        <time>2021-08-06T20:44:36Z</time>
      </trkpt>
      <trkpt lat="46.43561" lon="0.59726">
        <ele>89.06</ele>
        <time>2021-08-06T20:44:45Z</time>
      </trkpt>
      <trkpt lat="46.43553" lon="0.59765">
        <ele>90.5</ele>
        <time>2021-08-06T20:44:55Z</time>
      </trkpt>
      <trkpt lat="46.43514" lon="0.59878">
        <ele>98.67</ele>
        <time>2021-08-06T20:45:05Z</time>
      </trkpt>
      <trkpt lat="46.43444" lon="0.60068">
        <ele>106.36</ele>
        <time>2021-08-06T20:45:18Z</time>
      </trkpt>
      <trkpt lat="46.43363" lon="0.6029">
        <ele>111.65</ele>
        <time>2021-08-06T20:45:30Z</time>
      </trkpt>
      <trkpt lat="46.43245" lon="0.60619">
        <ele>127.51</ele>
        <time>2021-08-06T20:45:46Z</time>
      </trkpt>
      <trkpt lat="46.43145" lon="0.60887">
        <ele>124.63</ele>
        <time>2021-08-06T20:45:58Z</time>
      </trkpt>
      <trkpt lat="46.42965" lon="0.61384">
        <ele>109.25</ele>
        <time>2021-08-06T20:46:16Z</time>
      </trkpt>
      <trkpt lat="46.42838" lon="0.6173">
        <ele>103.48</ele>
        <time>2021-08-06T20:46:31Z</time>
      </trkpt>
      <trkpt lat="46.42689" lon="0.62135">
        <ele>118.38</ele>
        <time>2021-08-06T20:46:48Z</time>
      </trkpt>
      <trkpt lat="46.42548" lon="0.62522">
        <ele>132.32</ele>
        <time>2021-08-06T20:47:05Z</time>
      </trkpt>
      <trkpt lat="46.42433" lon="0.62834">
        <ele>124.63</ele>
        <time>2021-08-06T20:47:18Z</time>
      </trkpt>
      <trkpt lat="46.42311" lon="0.63166">
        <ele>127.99</ele>
        <time>2021-08-06T20:47:33Z</time>
      </trkpt>
      <trkpt lat="46.42277" lon="0.63254">
        <ele>131.36</ele>
        <time>2021-08-06T20:47:39Z</time>
      </trkpt>
      <trkpt lat="46.42277" lon="0.63254">
        <ele>132.32</ele>
        <time>2021-08-06T20:47:40Z</time>
      </trkpt>
      <trkpt lat="46.42275" lon="0.63257">
        <ele>132.8</ele>
        <time>2021-08-06T20:47:41Z</time>
      </trkpt>
      <trkpt lat="46.42265" lon="0.63259">
        <ele>133.76</ele>
        <time>2021-08-06T20:47:42Z</time>
      </trkpt>
      <trkpt lat="46.42256" lon="0.63266">
        <ele>133.76</ele>
        <time>2021-08-06T20:47:43Z</time>
      </trkpt>
      <trkpt lat="46.42252" lon="0.63274">
        <ele>134.24</ele>
        <time>2021-08-06T20:47:44Z</time>
      </trkpt>
      <trkpt lat="46.42249" lon="0.6329">
        <ele>134.24</ele>
        <time>2021-08-06T20:47:45Z</time>
      </trkpt>
      <trkpt lat="46.42251" lon="0.63299">
        <ele>133.76</ele>
        <time>2021-08-06T20:47:46Z</time>
      </trkpt>
      <trkpt lat="46.42252" lon="0.63304">
        <ele>133.28</ele>
        <time>2021-08-06T20:47:47Z</time>
      </trkpt>
      <trkpt lat="46.42252" lon="0.63327">
        <ele>131.84</ele>
        <time>2021-08-06T20:47:48Z</time>
      </trkpt>
      <trkpt lat="46.42247" lon="0.6334">
        <ele>132.32</ele>
        <time>2021-08-06T20:47:49Z</time>
      </trkpt>
      <trkpt lat="46.42192" lon="0.63491">
        <ele>132.32</ele>
        <time>2021-08-06T20:47:58Z</time>
      </trkpt>
      <trkpt lat="46.42105" lon="0.63734">
        <ele>129.92</ele>
        <time>2021-08-06T20:48:08Z</time>
      </trkpt>
      <trkpt lat="46.41947" lon="0.64169">
        <ele>137.13</ele>
        <time>2021-08-06T20:48:25Z</time>
      </trkpt>
      <trkpt lat="46.41698" lon="0.64848">
        <ele>138.09</ele>
        <time>2021-08-06T20:48:52Z</time>
      </trkpt>
      <trkpt lat="46.41458" lon="0.65535">
        <ele>138.09</ele>
        <time>2021-08-06T20:49:18Z</time>
      </trkpt>
      <trkpt lat="46.41452" lon="0.65564">
        <ele>138.09</ele>
        <time>2021-08-06T20:49:19Z</time>
      </trkpt>
      <trkpt lat="46.41406" lon="0.66025">
        <ele>128.47</ele>
        <time>2021-08-06T20:49:35Z</time>
      </trkpt>
      <trkpt lat="46.41391" lon="0.66334">
        <ele>120.3</ele>
        <time>2021-08-06T20:49:47Z</time>
      </trkpt>
      <trkpt lat="46.41399" lon="0.66432">
        <ele>117.9</ele>
        <time>2021-08-06T20:49:51Z</time>
      </trkpt>
      <trkpt lat="46.41404" lon="0.66455">
        <ele>117.42</ele>
        <time>2021-08-06T20:49:52Z</time>
      </trkpt>
      <trkpt lat="46.4141" lon="0.66477">
        <ele>117.42</ele>
        <time>2021-08-06T20:49:53Z</time>
      </trkpt>
      <trkpt lat="46.41418" lon="0.66499">
        <ele>116.94</ele>
        <time>2021-08-06T20:49:54Z</time>
      </trkpt>
      <trkpt lat="46.41429" lon="0.66519">
        <ele>115.98</ele>
        <time>2021-08-06T20:49:55Z</time>
      </trkpt>
      <trkpt lat="46.41441" lon="0.66538">
        <ele>115.5</ele>
        <time>2021-08-06T20:49:56Z</time>
      </trkpt>
      <trkpt lat="46.41542" lon="0.66688">
        <ele>106.84</ele>
        <time>2021-08-06T20:50:04Z</time>
      </trkpt>
      <trkpt lat="46.41551" lon="0.66709">
        <ele>105.4</ele>
        <time>2021-08-06T20:50:05Z</time>
      </trkpt>
      <trkpt lat="46.41559" lon="0.66731">
        <ele>103.96</ele>
        <time>2021-08-06T20:50:06Z</time>
      </trkpt>
      <trkpt lat="46.41579" lon="0.66804">
        <ele>102.04</ele>
        <time>2021-08-06T20:50:09Z</time>
      </trkpt>
      <trkpt lat="46.41585" lon="0.66829">
        <ele>101.08</ele>
        <time>2021-08-06T20:50:10Z</time>
      </trkpt>
      <trkpt lat="46.41635" lon="0.66939">
        <ele>99.15</ele>
        <time>2021-08-06T20:50:14Z</time>
      </trkpt>
      <trkpt lat="46.41646" lon="0.66983">
        <ele>97.71</ele>
        <time>2021-08-06T20:50:16Z</time>
      </trkpt>
      <trkpt lat="46.41646" lon="0.66983">
        <ele>96.27</ele>
        <time>2021-08-06T20:50:17Z</time>
      </trkpt>
      <trkpt lat="46.41653" lon="0.67029">
        <ele>96.75</ele>
        <time>2021-08-06T20:50:18Z</time>
      </trkpt>
      <trkpt lat="46.41652" lon="0.67054">
        <ele>96.75</ele>
        <time>2021-08-06T20:50:19Z</time>
      </trkpt>
      <trkpt lat="46.41652" lon="0.67054">
        <ele>96.75</ele>
        <time>2021-08-06T20:50:20Z</time>
      </trkpt>
      <trkpt lat="46.41651" lon="0.6708">
        <ele>95.79</ele>
        <time>2021-08-06T20:50:21Z</time>
      </trkpt>
      <trkpt lat="46.41641" lon="0.672">
        <ele>91.94</ele>
        <time>2021-08-06T20:50:26Z</time>
      </trkpt>
      <trkpt lat="46.41636" lon="0.67222">
        <ele>91.94</ele>
        <time>2021-08-06T20:50:27Z</time>
      </trkpt>
      <trkpt lat="46.4163" lon="0.67242">
        <ele>91.46</ele>
        <time>2021-08-06T20:50:28Z</time>
      </trkpt>
      <trkpt lat="46.41605" lon="0.6733">
        <ele>89.54</ele>
        <time>2021-08-06T20:50:32Z</time>
      </trkpt>
      <trkpt lat="46.41601" lon="0.67352">
        <ele>88.58</ele>
        <time>2021-08-06T20:50:33Z</time>
      </trkpt>
      <trkpt lat="46.416" lon="0.67375">
        <ele>87.62</ele>
        <time>2021-08-06T20:50:34Z</time>
      </trkpt>
      <trkpt lat="46.41599" lon="0.67397">
        <ele>86.66</ele>
        <time>2021-08-06T20:50:35Z</time>
      </trkpt>
      <trkpt lat="46.41603" lon="0.67419">
        <ele>85.21</ele>
        <time>2021-08-06T20:50:36Z</time>
      </trkpt>
      <trkpt lat="46.41607" lon="0.67442">
        <ele>85.21</ele>
        <time>2021-08-06T20:50:37Z</time>
      </trkpt>
      <trkpt lat="46.41614" lon="0.67463">
        <ele>85.21</ele>
        <time>2021-08-06T20:50:38Z</time>
      </trkpt>
      <trkpt lat="46.41622" lon="0.67484">
        <ele>84.25</ele>
        <time>2021-08-06T20:50:39Z</time>
      </trkpt>
      <trkpt lat="46.41631" lon="0.67504">
        <ele>83.77</ele>
        <time>2021-08-06T20:50:40Z</time>
      </trkpt>
      <trkpt lat="46.41642" lon="0.6752">
        <ele>83.29</ele>
        <time>2021-08-06T20:50:41Z</time>
      </trkpt>
      <trkpt lat="46.41654" lon="0.67536">
        <ele>83.29</ele>
        <time>2021-08-06T20:50:42Z</time>
      </trkpt>
      <trkpt lat="46.41723" lon="0.67656">
        <ele>77.52</ele>
        <time>2021-08-06T20:50:48Z</time>
      </trkpt>
      <trkpt lat="46.41723" lon="0.67656">
        <ele>76.56</ele>
        <time>2021-08-06T20:50:49Z</time>
      </trkpt>
      <trkpt lat="46.41729" lon="0.67699">
        <ele>76.08</ele>
        <time>2021-08-06T20:50:50Z</time>
      </trkpt>
      <trkpt lat="46.41729" lon="0.67699">
        <ele>75.6</ele>
        <time>2021-08-06T20:50:51Z</time>
      </trkpt>
      <trkpt lat="46.4173" lon="0.67746">
        <ele>74.64</ele>
        <time>2021-08-06T20:50:52Z</time>
      </trkpt>
      <trkpt lat="46.41727" lon="0.68037">
        <ele>72.24</ele>
        <time>2021-08-06T20:51:05Z</time>
      </trkpt>
      <trkpt lat="46.41726" lon="0.68059">
        <ele>73.2</ele>
        <time>2021-08-06T20:51:06Z</time>
      </trkpt>
      <trkpt lat="46.41721" lon="0.6808">
        <ele>74.16</ele>
        <time>2021-08-06T20:51:07Z</time>
      </trkpt>
      <trkpt lat="46.41715" lon="0.68097">
        <ele>75.6</ele>
        <time>2021-08-06T20:51:08Z</time>
      </trkpt>
      <trkpt lat="46.41706" lon="0.68114">
        <ele>77.04</ele>
        <time>2021-08-06T20:51:09Z</time>
      </trkpt>
      <trkpt lat="46.41697" lon="0.68129">
        <ele>78</ele>
        <time>2021-08-06T20:51:10Z</time>
      </trkpt>
      <trkpt lat="46.41677" lon="0.68159">
        <ele>78.48</ele>
        <time>2021-08-06T20:51:11Z</time>
      </trkpt>
      <trkpt lat="46.4156" lon="0.6831">
        <ele>79.93</ele>
        <time>2021-08-06T20:51:21Z</time>
      </trkpt>
      <trkpt lat="46.41216" lon="0.68739">
        <ele>75.6</ele>
        <time>2021-08-06T20:51:44Z</time>
      </trkpt>
      <trkpt lat="46.40926" lon="0.69101">
        <ele>73.68</ele>
        <time>2021-08-06T20:52:04Z</time>
      </trkpt>
      <trkpt lat="46.40685" lon="0.69401">
        <ele>74.16</ele>
        <time>2021-08-06T20:52:21Z</time>
      </trkpt>
      <trkpt lat="46.40543" lon="0.69579">
        <ele>71.76</ele>
        <time>2021-08-06T20:52:37Z</time>
      </trkpt>
      <trkpt lat="46.40498" lon="0.69638">
        <ele>72.24</ele>
        <time>2021-08-06T20:52:42Z</time>
      </trkpt>
      <trkpt lat="46.40485" lon="0.69664">
        <ele>71.27</ele>
        <time>2021-08-06T20:52:43Z</time>
      </trkpt>
      <trkpt lat="46.40485" lon="0.69664">
        <ele>71.76</ele>
        <time>2021-08-06T20:52:44Z</time>
      </trkpt>
      <trkpt lat="46.40481" lon="0.69679">
        <ele>69.83</ele>
        <time>2021-08-06T20:52:45Z</time>
      </trkpt>
      <trkpt lat="46.40477" lon="0.69696">
        <ele>68.87</ele>
        <time>2021-08-06T20:52:46Z</time>
      </trkpt>
      <trkpt lat="46.40475" lon="0.69711">
        <ele>67.91</ele>
        <time>2021-08-06T20:52:47Z</time>
      </trkpt>
      <trkpt lat="46.40474" lon="0.6973">
        <ele>68.39</ele>
        <time>2021-08-06T20:52:48Z</time>
      </trkpt>
      <trkpt lat="46.40461" lon="0.69944">
        <ele>69.83</ele>
        <time>2021-08-06T20:53:00Z</time>
      </trkpt>
      <trkpt lat="46.40448" lon="0.70188">
        <ele>69.83</ele>
        <time>2021-08-06T20:53:13Z</time>
      </trkpt>
      <trkpt lat="46.40434" lon="0.70409">
        <ele>66.47</ele>
        <time>2021-08-06T20:53:25Z</time>
      </trkpt>
      <trkpt lat="46.40432" lon="0.70471">
        <ele>65.99</ele>
        <time>2021-08-06T20:53:31Z</time>
      </trkpt>
      <trkpt lat="46.40431" lon="0.70478">
        <ele>65.99</ele>
        <time>2021-08-06T20:53:32Z</time>
      </trkpt>
      <trkpt lat="46.40431" lon="0.70496">
        <ele>65.51</ele>
        <time>2021-08-06T20:53:34Z</time>
      </trkpt>
      <trkpt lat="46.4043" lon="0.70506">
        <ele>65.03</ele>
        <time>2021-08-06T20:53:35Z</time>
      </trkpt>
      <trkpt lat="46.4043" lon="0.70517">
        <ele>64.55</ele>
        <time>2021-08-06T20:53:36Z</time>
      </trkpt>
      <trkpt lat="46.40429" lon="0.70529">
        <ele>63.58</ele>
        <time>2021-08-06T20:53:37Z</time>
      </trkpt>
      <trkpt lat="46.40428" lon="0.70542">
        <ele>64.55</ele>
        <time>2021-08-06T20:53:38Z</time>
      </trkpt>
      <trkpt lat="46.40428" lon="0.70557">
        <ele>65.51</ele>
        <time>2021-08-06T20:53:39Z</time>
      </trkpt>
      <trkpt lat="46.4043" lon="0.70731">
        <ele>68.87</ele>
        <time>2021-08-06T20:53:48Z</time>
      </trkpt>
      <trkpt lat="46.40444" lon="0.70911">
        <ele>75.6</ele>
        <time>2021-08-06T20:53:58Z</time>
      </trkpt>
      <trkpt lat="46.40444" lon="0.70938">
        <ele>76.56</ele>
        <time>2021-08-06T20:54:01Z</time>
      </trkpt>
      <trkpt lat="46.40443" lon="0.7095">
        <ele>77.52</ele>
        <time>2021-08-06T20:54:02Z</time>
      </trkpt>
      <trkpt lat="46.40439" lon="0.70964">
        <ele>78.48</ele>
        <time>2021-08-06T20:54:03Z</time>
      </trkpt>
      <trkpt lat="46.40422" lon="0.71027">
        <ele>79.93</ele>
        <time>2021-08-06T20:54:07Z</time>
      </trkpt>
      <trkpt lat="46.40418" lon="0.71058">
        <ele>81.85</ele>
        <time>2021-08-06T20:54:08Z</time>
      </trkpt>
      <trkpt lat="46.40421" lon="0.71074">
        <ele>83.77</ele>
        <time>2021-08-06T20:54:09Z</time>
      </trkpt>
      <trkpt lat="46.40421" lon="0.71074">
        <ele>84.73</ele>
        <time>2021-08-06T20:54:10Z</time>
      </trkpt>
      <trkpt lat="46.40426" lon="0.71086">
        <ele>86.66</ele>
        <time>2021-08-06T20:54:11Z</time>
      </trkpt>
      <trkpt lat="46.40434" lon="0.71098">
        <ele>86.18</ele>
        <time>2021-08-06T20:54:12Z</time>
      </trkpt>
      <trkpt lat="46.40442" lon="0.7111">
        <ele>87.62</ele>
        <time>2021-08-06T20:54:13Z</time>
      </trkpt>
      <trkpt lat="46.40456" lon="0.71136">
        <ele>88.58</ele>
        <time>2021-08-06T20:54:14Z</time>
      </trkpt>
      <trkpt lat="46.40456" lon="0.71136">
        <ele>89.06</ele>
        <time>2021-08-06T20:54:15Z</time>
      </trkpt>
      <trkpt lat="46.40458" lon="0.71151">
        <ele>89.54</ele>
        <time>2021-08-06T20:54:16Z</time>
      </trkpt>
      <trkpt lat="46.4047" lon="0.71268">
        <ele>89.54</ele>
        <time>2021-08-06T20:54:23Z</time>
      </trkpt>
      <trkpt lat="46.40469" lon="0.71284">
        <ele>90.02</ele>
        <time>2021-08-06T20:54:24Z</time>
      </trkpt>
      <trkpt lat="46.40466" lon="0.71299">
        <ele>91.94</ele>
        <time>2021-08-06T20:54:25Z</time>
      </trkpt>
      <trkpt lat="46.40463" lon="0.71315">
        <ele>93.87</ele>
        <time>2021-08-06T20:54:26Z</time>
      </trkpt>
      <trkpt lat="46.40456" lon="0.71329">
        <ele>95.31</ele>
        <time>2021-08-06T20:54:27Z</time>
      </trkpt>
      <trkpt lat="46.40449" lon="0.71341">
        <ele>97.23</ele>
        <time>2021-08-06T20:54:28Z</time>
      </trkpt>
      <trkpt lat="46.40441" lon="0.71351">
        <ele>97.23</ele>
        <time>2021-08-06T20:54:29Z</time>
      </trkpt>
      <trkpt lat="46.40398" lon="0.71409">
        <ele>98.19</ele>
        <time>2021-08-06T20:54:34Z</time>
      </trkpt>
      <trkpt lat="46.4039" lon="0.71422">
        <ele>97.23</ele>
        <time>2021-08-06T20:54:35Z</time>
      </trkpt>
      <trkpt lat="46.40384" lon="0.71437">
        <ele>97.23</ele>
        <time>2021-08-06T20:54:36Z</time>
      </trkpt>
      <trkpt lat="46.4038" lon="0.71451">
        <ele>97.23</ele>
        <time>2021-08-06T20:54:37Z</time>
      </trkpt>
      <trkpt lat="46.40377" lon="0.71467">
        <ele>95.31</ele>
        <time>2021-08-06T20:54:38Z</time>
      </trkpt>
      <trkpt lat="46.40362" lon="0.71633">
        <ele>99.15</ele>
        <time>2021-08-06T20:54:48Z</time>
      </trkpt>
      <trkpt lat="46.40345" lon="0.71908">
        <ele>101.56</ele>
        <time>2021-08-06T20:55:04Z</time>
      </trkpt>
      <trkpt lat="46.40331" lon="0.72162">
        <ele>103.48</ele>
        <time>2021-08-06T20:55:20Z</time>
      </trkpt>
      <trkpt lat="46.40322" lon="0.72302">
        <ele>103.96</ele>
        <time>2021-08-06T20:55:33Z</time>
      </trkpt>
      <trkpt lat="46.40303" lon="0.72375">
        <ele>103.48</ele>
        <time>2021-08-06T20:55:43Z</time>
      </trkpt>
      <trkpt lat="46.4025" lon="0.7246">
        <ele>102.04</ele>
        <time>2021-08-06T20:55:54Z</time>
      </trkpt>
      <trkpt lat="46.40172" lon="0.72553">
        <ele>102.04</ele>
        <time>2021-08-06T20:56:06Z</time>
      </trkpt>
      <trkpt lat="46.40051" lon="0.72697">
        <ele>101.56</ele>
        <time>2021-08-06T20:56:20Z</time>
      </trkpt>
      <trkpt lat="46.39917" lon="0.72858">
        <ele>105.88</ele>
        <time>2021-08-06T20:56:33Z</time>
      </trkpt>
      <trkpt lat="46.3979" lon="0.73011">
        <ele>109.25</ele>
        <time>2021-08-06T20:56:45Z</time>
      </trkpt>
      <trkpt lat="46.3969" lon="0.73129">
        <ele>107.81</ele>
        <time>2021-08-06T20:56:56Z</time>
      </trkpt>
      <trkpt lat="46.39618" lon="0.73201">
        <ele>107.32</ele>
        <time>2021-08-06T20:57:05Z</time>
      </trkpt>
      <trkpt lat="46.3961" lon="0.73205">
        <ele>107.32</ele>
        <time>2021-08-06T20:57:06Z</time>
      </trkpt>
      <trkpt lat="46.39603" lon="0.73208">
        <ele>107.81</ele>
        <time>2021-08-06T20:57:07Z</time>
      </trkpt>
      <trkpt lat="46.39586" lon="0.73213">
        <ele>107.81</ele>
        <time>2021-08-06T20:57:08Z</time>
      </trkpt>
      <trkpt lat="46.3958" lon="0.7322">
        <ele>107.81</ele>
        <time>2021-08-06T20:57:09Z</time>
      </trkpt>
      <trkpt lat="46.3958" lon="0.7322">
        <ele>107.81</ele>
        <time>2021-08-06T20:57:10Z</time>
      </trkpt>
      <trkpt lat="46.39579" lon="0.73232">
        <ele>107.81</ele>
        <time>2021-08-06T20:57:11Z</time>
      </trkpt>
      <trkpt lat="46.39577" lon="0.73244">
        <ele>107.81</ele>
        <time>2021-08-06T20:57:12Z</time>
      </trkpt>
      <trkpt lat="46.39576" lon="0.73257">
        <ele>107.81</ele>
        <time>2021-08-06T20:57:13Z</time>
      </trkpt>
      <trkpt lat="46.39561" lon="0.7328">
        <ele>107.81</ele>
        <time>2021-08-06T20:57:14Z</time>
      </trkpt>
      <trkpt lat="46.39553" lon="0.73293">
        <ele>108.29</ele>
        <time>2021-08-06T20:57:15Z</time>
      </trkpt>
      <trkpt lat="46.39478" lon="0.73387">
        <ele>110.69</ele>
        <time>2021-08-06T20:57:23Z</time>
      </trkpt>
      <trkpt lat="46.39299" lon="0.73604">
        <ele>110.21</ele>
        <time>2021-08-06T20:57:35Z</time>
      </trkpt>
      <trkpt lat="46.39041" lon="0.73918">
        <ele>107.81</ele>
        <time>2021-08-06T20:57:51Z</time>
      </trkpt>
      <trkpt lat="46.38734" lon="0.74292">
        <ele>115.98</ele>
        <time>2021-08-06T20:58:11Z</time>
      </trkpt>
      <trkpt lat="46.38371" lon="0.74742">
        <ele>110.21</ele>
        <time>2021-08-06T20:58:34Z</time>
      </trkpt>
      <trkpt lat="46.38111" lon="0.75063">
        <ele>113.57</ele>
        <time>2021-08-06T20:58:51Z</time>
      </trkpt>
      <trkpt lat="46.37831" lon="0.7541">
        <ele>116.94</ele>
        <time>2021-08-06T20:59:09Z</time>
      </trkpt>
      <trkpt lat="46.37486" lon="0.75835">
        <ele>110.69</ele>
        <time>2021-08-06T20:59:31Z</time>
      </trkpt>
      <trkpt lat="46.3721" lon="0.76171">
        <ele>110.21</ele>
        <time>2021-08-06T20:59:48Z</time>
      </trkpt>
      <trkpt lat="46.36904" lon="0.76545">
        <ele>115.98</ele>
        <time>2021-08-06T21:00:09Z</time>
      </trkpt>
      <trkpt lat="46.3657" lon="0.76948">
        <ele>115.01</ele>
        <time>2021-08-06T21:00:30Z</time>
      </trkpt>
      <trkpt lat="46.36276" lon="0.77305">
        <ele>115.98</ele>
        <time>2021-08-06T21:00:49Z</time>
      </trkpt>
      <trkpt lat="46.35977" lon="0.77671">
        <ele>126.07</ele>
        <time>2021-08-06T21:01:09Z</time>
      </trkpt>
      <trkpt lat="46.35721" lon="0.77984">
        <ele>133.76</ele>
        <time>2021-08-06T21:01:26Z</time>
      </trkpt>
      <trkpt lat="46.35501" lon="0.7825">
        <ele>144.34</ele>
        <time>2021-08-06T21:01:41Z</time>
      </trkpt>
      <trkpt lat="46.35309" lon="0.78482">
        <ele>140.97</ele>
        <time>2021-08-06T21:01:54Z</time>
      </trkpt>
      <trkpt lat="46.35048" lon="0.78796">
        <ele>136.64</ele>
        <time>2021-08-06T21:02:11Z</time>
      </trkpt>
      <trkpt lat="46.34824" lon="0.79062">
        <ele>137.13</ele>
        <time>2021-08-06T21:02:26Z</time>
      </trkpt>
      <trkpt lat="46.34641" lon="0.7928">
        <ele>140.49</ele>
        <time>2021-08-06T21:02:38Z</time>
      </trkpt>
      <trkpt lat="46.34287" lon="0.79705">
        <ele>149.62</ele>
        <time>2021-08-06T21:03:02Z</time>
      </trkpt>
      <trkpt lat="46.33927" lon="0.80136">
        <ele>162.6</ele>
        <time>2021-08-06T21:03:25Z</time>
      </trkpt>
      <trkpt lat="46.33558" lon="0.8058">
        <ele>155.87</ele>
        <time>2021-08-06T21:03:51Z</time>
      </trkpt>
      <trkpt lat="46.33393" lon="0.80784">
        <ele>147.7</ele>
        <time>2021-08-06T21:04:04Z</time>
      </trkpt>
      <trkpt lat="46.33219" lon="0.80994">
        <ele>144.82</ele>
        <time>2021-08-06T21:04:20Z</time>
      </trkpt>
      <trkpt lat="46.33066" lon="0.81178">
        <ele>153.47</ele>
        <time>2021-08-06T21:04:35Z</time>
      </trkpt>
      <trkpt lat="46.32926" lon="0.81351">
        <ele>157.79</ele>
        <time>2021-08-06T21:04:50Z</time>
      </trkpt>
      <trkpt lat="46.32806" lon="0.81494">
        <ele>149.62</ele>
        <time>2021-08-06T21:05:01Z</time>
      </trkpt>
      <trkpt lat="46.32653" lon="0.81648">
        <ele>140.01</ele>
        <time>2021-08-06T21:05:10Z</time>
      </trkpt>
      <trkpt lat="46.32423" lon="0.81832">
        <ele>146.74</ele>
        <time>2021-08-06T21:05:24Z</time>
      </trkpt>
      <trkpt lat="46.32155" lon="0.82051">
        <ele>160.68</ele>
        <time>2021-08-06T21:05:40Z</time>
      </trkpt>
      <trkpt lat="46.3182" lon="0.82321">
        <ele>169.33</ele>
        <time>2021-08-06T21:05:59Z</time>
      </trkpt>
      <trkpt lat="46.31588" lon="0.82509">
        <ele>175.1</ele>
        <time>2021-08-06T21:06:13Z</time>
      </trkpt>
      <trkpt lat="46.31292" lon="0.82751">
        <ele>176.06</ele>
        <time>2021-08-06T21:06:30Z</time>
      </trkpt>
      <trkpt lat="46.30843" lon="0.83121">
        <ele>179.42</ele>
        <time>2021-08-06T21:06:56Z</time>
      </trkpt>
      <trkpt lat="46.30435" lon="0.83456">
        <ele>184.23</ele>
        <time>2021-08-06T21:07:20Z</time>
      </trkpt>
      <trkpt lat="46.30042" lon="0.83783">
        <ele>186.63</ele>
        <time>2021-08-06T21:07:42Z</time>
      </trkpt>
      <trkpt lat="46.29684" lon="0.84083">
        <ele>191.92</ele>
        <time>2021-08-06T21:08:03Z</time>
      </trkpt>
      <trkpt lat="46.29435" lon="0.84295">
        <ele>187.11</ele>
        <time>2021-08-06T21:08:17Z</time>
      </trkpt>
      <trkpt lat="46.29117" lon="0.84566">
        <ele>188.56</ele>
        <time>2021-08-06T21:08:36Z</time>
      </trkpt>
      <trkpt lat="46.28832" lon="0.84809">
        <ele>188.56</ele>
        <time>2021-08-06T21:08:53Z</time>
      </trkpt>
      <trkpt lat="46.28565" lon="0.85039">
        <ele>191.44</ele>
        <time>2021-08-06T21:09:09Z</time>
      </trkpt>
      <trkpt lat="46.28293" lon="0.85269">
        <ele>192.88</ele>
        <time>2021-08-06T21:09:25Z</time>
      </trkpt>
      <trkpt lat="46.28059" lon="0.85467">
        <ele>199.61</ele>
        <time>2021-08-06T21:09:39Z</time>
      </trkpt>
      <trkpt lat="46.27804" lon="0.85686">
        <ele>197.21</ele>
        <time>2021-08-06T21:09:53Z</time>
      </trkpt>
      <trkpt lat="46.27583" lon="0.85873">
        <ele>194.8</ele>
        <time>2021-08-06T21:10:07Z</time>
      </trkpt>
      <trkpt lat="46.27396" lon="0.86033">
        <ele>207.78</ele>
        <time>2021-08-06T21:10:18Z</time>
      </trkpt>
      <trkpt lat="46.27173" lon="0.86223">
        <ele>209.7</ele>
        <time>2021-08-06T21:10:32Z</time>
      </trkpt>
      <trkpt lat="46.27034" lon="0.86342">
        <ele>204.9</ele>
        <time>2021-08-06T21:10:42Z</time>
      </trkpt>
      <trkpt lat="46.27026" lon="0.86349">
        <ele>205.38</ele>
        <time>2021-08-06T21:10:43Z</time>
      </trkpt>
      <trkpt lat="46.27018" lon="0.86356">
        <ele>206.34</ele>
        <time>2021-08-06T21:10:44Z</time>
      </trkpt>
      <trkpt lat="46.27011" lon="0.86362">
        <ele>207.3</ele>
        <time>2021-08-06T21:10:45Z</time>
      </trkpt>
      <trkpt lat="46.27" lon="0.86351">
        <ele>207.3</ele>
        <time>2021-08-06T21:10:46Z</time>
      </trkpt>
      <trkpt lat="46.26983" lon="0.86359">
        <ele>207.3</ele>
        <time>2021-08-06T21:10:47Z</time>
      </trkpt>
      <trkpt lat="46.26983" lon="0.86359">
        <ele>206.82</ele>
        <time>2021-08-06T21:10:48Z</time>
      </trkpt>
      <trkpt lat="46.26978" lon="0.86367">
        <ele>205.86</ele>
        <time>2021-08-06T21:10:49Z</time>
      </trkpt>
      <trkpt lat="46.26978" lon="0.86379">
        <ele>205.38</ele>
        <time>2021-08-06T21:10:50Z</time>
      </trkpt>
      <trkpt lat="46.2697" lon="0.86396">
        <ele>205.86</ele>
        <time>2021-08-06T21:10:51Z</time>
      </trkpt>
      <trkpt lat="46.26962" lon="0.86403">
        <ele>206.82</ele>
        <time>2021-08-06T21:10:52Z</time>
      </trkpt>
      <trkpt lat="46.26952" lon="0.86411">
        <ele>207.3</ele>
        <time>2021-08-06T21:10:53Z</time>
      </trkpt>
      <trkpt lat="46.26942" lon="0.86419">
        <ele>206.34</ele>
        <time>2021-08-06T21:10:54Z</time>
      </trkpt>
      <trkpt lat="46.26786" lon="0.86551">
        <ele>212.59</ele>
        <time>2021-08-06T21:11:05Z</time>
      </trkpt>
      <trkpt lat="46.26609" lon="0.86712">
        <ele>214.51</ele>
        <time>2021-08-06T21:11:18Z</time>
      </trkpt>
      <trkpt lat="46.26388" lon="0.86916">
        <ele>213.07</ele>
        <time>2021-08-06T21:11:31Z</time>
      </trkpt>
      <trkpt lat="46.26022" lon="0.87282">
        <ele>214.51</ele>
        <time>2021-08-06T21:11:52Z</time>
      </trkpt>
      <trkpt lat="46.25682" lon="0.87624">
        <ele>213.55</ele>
        <time>2021-08-06T21:12:12Z</time>
      </trkpt>
      <trkpt lat="46.25407" lon="0.87899">
        <ele>219.32</ele>
        <time>2021-08-06T21:12:29Z</time>
      </trkpt>
      <trkpt lat="46.25126" lon="0.88182">
        <ele>219.8</ele>
        <time>2021-08-06T21:12:46Z</time>
      </trkpt>
      <trkpt lat="46.24825" lon="0.88488">
        <ele>216.91</ele>
        <time>2021-08-06T21:13:04Z</time>
      </trkpt>
      <trkpt lat="46.24579" lon="0.88738">
        <ele>218.84</ele>
        <time>2021-08-06T21:13:19Z</time>
      </trkpt>
      <trkpt lat="46.24307" lon="0.89013">
        <ele>225.09</ele>
        <time>2021-08-06T21:13:36Z</time>
      </trkpt>
      <trkpt lat="46.24192" lon="0.89128">
        <ele>226.05</ele>
        <time>2021-08-06T21:13:44Z</time>
      </trkpt>
      <trkpt lat="46.24057" lon="0.89263">
        <ele>224.61</ele>
        <time>2021-08-06T21:13:56Z</time>
      </trkpt>
      <trkpt lat="46.23933" lon="0.89345">
        <ele>225.09</ele>
        <time>2021-08-06T21:14:06Z</time>
      </trkpt>
      <trkpt lat="46.23756" lon="0.89437">
        <ele>223.64</ele>
        <time>2021-08-06T21:14:17Z</time>
      </trkpt>
      <trkpt lat="46.23548" lon="0.89545">
        <ele>224.12</ele>
        <time>2021-08-06T21:14:30Z</time>
      </trkpt>
      <trkpt lat="46.23226" lon="0.89708">
        <ele>227.01</ele>
        <time>2021-08-06T21:14:47Z</time>
      </trkpt>
      <trkpt lat="46.23008" lon="0.89846">
        <ele>219.32</ele>
        <time>2021-08-06T21:14:59Z</time>
      </trkpt>
      <trkpt lat="46.22706" lon="0.90083">
        <ele>218.84</ele>
        <time>2021-08-06T21:15:16Z</time>
      </trkpt>
      <trkpt lat="46.22416" lon="0.90311">
        <ele>223.64</ele>
        <time>2021-08-06T21:15:32Z</time>
      </trkpt>
      <trkpt lat="46.22052" lon="0.90597">
        <ele>224.61</ele>
        <time>2021-08-06T21:15:50Z</time>
      </trkpt>
      <trkpt lat="46.2173" lon="0.90849">
        <ele>223.16</ele>
        <time>2021-08-06T21:16:08Z</time>
      </trkpt>
      <trkpt lat="46.21307" lon="0.91183">
        <ele>221.24</ele>
        <time>2021-08-06T21:16:31Z</time>
      </trkpt>
      <trkpt lat="46.20992" lon="0.91429">
        <ele>220.28</ele>
        <time>2021-08-06T21:16:48Z</time>
      </trkpt>
      <trkpt lat="46.20577" lon="0.91751">
        <ele>230.37</ele>
        <time>2021-08-06T21:17:11Z</time>
      </trkpt>
      <trkpt lat="46.20192" lon="0.92052">
        <ele>232.78</ele>
        <time>2021-08-06T21:17:33Z</time>
      </trkpt>
      <trkpt lat="46.19886" lon="0.9229">
        <ele>236.62</ele>
        <time>2021-08-06T21:17:50Z</time>
      </trkpt>
      <trkpt lat="46.19519" lon="0.92575">
        <ele>232.78</ele>
        <time>2021-08-06T21:18:10Z</time>
      </trkpt>
      <trkpt lat="46.19194" lon="0.92829">
        <ele>240.47</ele>
        <time>2021-08-06T21:18:29Z</time>
      </trkpt>
      <trkpt lat="46.18764" lon="0.93164">
        <ele>250.08</ele>
        <time>2021-08-06T21:18:54Z</time>
      </trkpt>
      <trkpt lat="46.18485" lon="0.93389">
        <ele>248.64</ele>
        <time>2021-08-06T21:19:09Z</time>
      </trkpt>
      <trkpt lat="46.18311" lon="0.93597">
        <ele>242.87</ele>
        <time>2021-08-06T21:19:20Z</time>
      </trkpt>
      <trkpt lat="46.18006" lon="0.93971">
        <ele>224.12</ele>
        <time>2021-08-06T21:19:40Z</time>
      </trkpt>
      <trkpt lat="46.17734" lon="0.94308">
        <ele>218.84</ele>
        <time>2021-08-06T21:19:57Z</time>
      </trkpt>
      <trkpt lat="46.17462" lon="0.94641">
        <ele>220.28</ele>
        <time>2021-08-06T21:20:16Z</time>
      </trkpt>
      <trkpt lat="46.17269" lon="0.9488">
        <ele>205.86</ele>
        <time>2021-08-06T21:20:29Z</time>
      </trkpt>
      <trkpt lat="46.17096" lon="0.95094">
        <ele>200.57</ele>
        <time>2021-08-06T21:20:41Z</time>
      </trkpt>
      <trkpt lat="46.16986" lon="0.95229">
        <ele>203.94</ele>
        <time>2021-08-06T21:20:51Z</time>
      </trkpt>
      <trkpt lat="46.16849" lon="0.95394">
        <ele>199.13</ele>
        <time>2021-08-06T21:21:04Z</time>
      </trkpt>
      <trkpt lat="46.16812" lon="0.95436">
        <ele>198.17</ele>
        <time>2021-08-06T21:21:07Z</time>
      </trkpt>
      <trkpt lat="46.16791" lon="0.95448">
        <ele>198.65</ele>
        <time>2021-08-06T21:21:08Z</time>
      </trkpt>
      <trkpt lat="46.16781" lon="0.95448">
        <ele>198.17</ele>
        <time>2021-08-06T21:21:09Z</time>
      </trkpt>
      <trkpt lat="46.16769" lon="0.95448">
        <ele>197.69</ele>
        <time>2021-08-06T21:21:10Z</time>
      </trkpt>
      <trkpt lat="46.16769" lon="0.95448">
        <ele>196.25</ele>
        <time>2021-08-06T21:21:11Z</time>
      </trkpt>
      <trkpt lat="46.16757" lon="0.95444">
        <ele>195.77</ele>
        <time>2021-08-06T21:21:12Z</time>
      </trkpt>
      <trkpt lat="46.16745" lon="0.9544">
        <ele>194.8</ele>
        <time>2021-08-06T21:21:13Z</time>
      </trkpt>
      <trkpt lat="46.16708" lon="0.95429">
        <ele>192.88</ele>
        <time>2021-08-06T21:21:16Z</time>
      </trkpt>
      <trkpt lat="46.16694" lon="0.95429">
        <ele>191.92</ele>
        <time>2021-08-06T21:21:17Z</time>
      </trkpt>
      <trkpt lat="46.16667" lon="0.95435">
        <ele>191.92</ele>
        <time>2021-08-06T21:21:18Z</time>
      </trkpt>
      <trkpt lat="46.16667" lon="0.95435">
        <ele>191.92</ele>
        <time>2021-08-06T21:21:19Z</time>
      </trkpt>
      <trkpt lat="46.16653" lon="0.95444">
        <ele>191.44</ele>
        <time>2021-08-06T21:21:20Z</time>
      </trkpt>
      <trkpt lat="46.16641" lon="0.95455">
        <ele>190.96</ele>
        <time>2021-08-06T21:21:21Z</time>
      </trkpt>
      <trkpt lat="46.16628" lon="0.9547">
        <ele>190.48</ele>
        <time>2021-08-06T21:21:22Z</time>
      </trkpt>
      <trkpt lat="46.16609" lon="0.95505">
        <ele>188.08</ele>
        <time>2021-08-06T21:21:23Z</time>
      </trkpt>
      <trkpt lat="46.16609" lon="0.95505">
        <ele>186.15</ele>
        <time>2021-08-06T21:21:24Z</time>
      </trkpt>
      <trkpt lat="46.16603" lon="0.95526">
        <ele>184.71</ele>
        <time>2021-08-06T21:21:25Z</time>
      </trkpt>
      <trkpt lat="46.16578" lon="0.95611">
        <ele>180.38</ele>
        <time>2021-08-06T21:21:29Z</time>
      </trkpt>
      <trkpt lat="46.16576" lon="0.95634">
        <ele>180.38</ele>
        <time>2021-08-06T21:21:30Z</time>
      </trkpt>
      <trkpt lat="46.16574" lon="0.95657">
        <ele>179.9</ele>
        <time>2021-08-06T21:21:31Z</time>
      </trkpt>
      <trkpt lat="46.16573" lon="0.95679">
        <ele>179.42</ele>
        <time>2021-08-06T21:21:32Z</time>
      </trkpt>
      <trkpt lat="46.16573" lon="0.957">
        <ele>178.94</ele>
        <time>2021-08-06T21:21:33Z</time>
      </trkpt>
      <trkpt lat="46.16577" lon="0.95721">
        <ele>178.46</ele>
        <time>2021-08-06T21:21:34Z</time>
      </trkpt>
      <trkpt lat="46.16589" lon="0.95782">
        <ele>176.06</ele>
        <time>2021-08-06T21:21:37Z</time>
      </trkpt>
      <trkpt lat="46.16591" lon="0.95803">
        <ele>174.14</ele>
        <time>2021-08-06T21:21:38Z</time>
      </trkpt>
      <trkpt lat="46.16591" lon="0.95824">
        <ele>173.66</ele>
        <time>2021-08-06T21:21:39Z</time>
      </trkpt>
      <trkpt lat="46.16588" lon="0.95846">
        <ele>172.21</ele>
        <time>2021-08-06T21:21:40Z</time>
      </trkpt>
      <trkpt lat="46.16582" lon="0.95865">
        <ele>170.77</ele>
        <time>2021-08-06T21:21:41Z</time>
      </trkpt>
      <trkpt lat="46.16575" lon="0.95884">
        <ele>169.81</ele>
        <time>2021-08-06T21:21:42Z</time>
      </trkpt>
      <trkpt lat="46.1654" lon="0.9596">
        <ele>168.85</ele>
        <time>2021-08-06T21:21:46Z</time>
      </trkpt>
      <trkpt lat="46.1653" lon="0.95978">
        <ele>166.93</ele>
        <time>2021-08-06T21:21:47Z</time>
      </trkpt>
      <trkpt lat="46.16517" lon="0.95989">
        <ele>167.41</ele>
        <time>2021-08-06T21:21:48Z</time>
      </trkpt>
      <trkpt lat="46.16505" lon="0.95999">
        <ele>167.41</ele>
        <time>2021-08-06T21:21:49Z</time>
      </trkpt>
      <trkpt lat="46.16493" lon="0.96001">
        <ele>166.45</ele>
        <time>2021-08-06T21:21:50Z</time>
      </trkpt>
      <trkpt lat="46.16481" lon="0.96002">
        <ele>165</ele>
        <time>2021-08-06T21:21:51Z</time>
      </trkpt>
      <trkpt lat="46.16466" lon="0.96002">
        <ele>165</ele>
        <time>2021-08-06T21:21:52Z</time>
      </trkpt>
      <trkpt lat="46.16258" lon="0.9598">
        <ele>174.62</ele>
        <time>2021-08-06T21:22:05Z</time>
      </trkpt>
      <trkpt lat="46.16137" lon="0.95962">
        <ele>182.79</ele>
        <time>2021-08-06T21:22:12Z</time>
      </trkpt>
      <trkpt lat="46.15988" lon="0.95998">
        <ele>190</ele>
        <time>2021-08-06T21:22:20Z</time>
      </trkpt>
      <trkpt lat="46.15951" lon="0.96014">
        <ele>192.88</ele>
        <time>2021-08-06T21:22:22Z</time>
      </trkpt>
      <trkpt lat="46.15934" lon="0.96021">
        <ele>192.88</ele>
        <time>2021-08-06T21:22:23Z</time>
      </trkpt>
      <trkpt lat="46.15916" lon="0.96021">
        <ele>192.4</ele>
        <time>2021-08-06T21:22:24Z</time>
      </trkpt>
      <trkpt lat="46.15897" lon="0.96019">
        <ele>193.36</ele>
        <time>2021-08-06T21:22:25Z</time>
      </trkpt>
      <trkpt lat="46.15879" lon="0.96015">
        <ele>194.32</ele>
        <time>2021-08-06T21:22:26Z</time>
      </trkpt>
      <trkpt lat="46.15824" lon="0.96008">
        <ele>197.69</ele>
        <time>2021-08-06T21:22:29Z</time>
      </trkpt>
      <trkpt lat="46.15806" lon="0.9601">
        <ele>198.17</ele>
        <time>2021-08-06T21:22:30Z</time>
      </trkpt>
      <trkpt lat="46.15786" lon="0.96012">
        <ele>199.13</ele>
        <time>2021-08-06T21:22:31Z</time>
      </trkpt>
      <trkpt lat="46.15512" lon="0.96154">
        <ele>215.95</ele>
        <time>2021-08-06T21:22:46Z</time>
      </trkpt>
      <trkpt lat="46.15336" lon="0.9628">
        <ele>223.64</ele>
        <time>2021-08-06T21:22:56Z</time>
      </trkpt>
      <trkpt lat="46.15142" lon="0.96433">
        <ele>235.18</ele>
        <time>2021-08-06T21:23:08Z</time>
      </trkpt>
      <trkpt lat="46.14936" lon="0.96595">
        <ele>238.54</ele>
        <time>2021-08-06T21:23:23Z</time>
      </trkpt>
      <trkpt lat="46.14862" lon="0.96657">
        <ele>240.47</ele>
        <time>2021-08-06T21:23:28Z</time>
      </trkpt>
      <trkpt lat="46.14848" lon="0.96672">
        <ele>240.47</ele>
        <time>2021-08-06T21:23:29Z</time>
      </trkpt>
      <trkpt lat="46.14704" lon="0.96892">
        <ele>237.1</ele>
        <time>2021-08-06T21:23:40Z</time>
      </trkpt>
      <trkpt lat="46.14416" lon="0.97334">
        <ele>239.51</ele>
        <time>2021-08-06T21:24:01Z</time>
      </trkpt>
      <trkpt lat="46.1423" lon="0.97578">
        <ele>238.06</ele>
        <time>2021-08-06T21:24:13Z</time>
      </trkpt>
      <trkpt lat="46.13888" lon="0.98011">
        <ele>244.31</ele>
        <time>2021-08-06T21:24:35Z</time>
      </trkpt>
      <trkpt lat="46.13515" lon="0.9848">
        <ele>248.64</ele>
        <time>2021-08-06T21:24:59Z</time>
      </trkpt>
      <trkpt lat="46.13366" lon="0.98667">
        <ele>255.37</ele>
        <time>2021-08-06T21:25:09Z</time>
      </trkpt>
      <trkpt lat="46.1311" lon="0.98992">
        <ele>253.44</ele>
        <time>2021-08-06T21:25:26Z</time>
      </trkpt>
      <trkpt lat="46.13018" lon="0.99062">
        <ele>255.85</ele>
        <time>2021-08-06T21:25:32Z</time>
      </trkpt>
      <trkpt lat="46.12987" lon="0.99073">
        <ele>256.33</ele>
        <time>2021-08-06T21:25:38Z</time>
      </trkpt>
      <trkpt lat="46.12973" lon="0.99065">
        <ele>255.85</ele>
        <time>2021-08-06T21:25:44Z</time>
      </trkpt>
      <trkpt lat="46.12967" lon="0.99062">
        <ele>255.85</ele>
        <time>2021-08-06T21:25:45Z</time>
      </trkpt>
      <trkpt lat="46.12962" lon="0.99062">
        <ele>256.33</ele>
        <time>2021-08-06T21:25:46Z</time>
      </trkpt>
      <trkpt lat="46.12956" lon="0.99066">
        <ele>256.33</ele>
        <time>2021-08-06T21:25:47Z</time>
      </trkpt>
      <trkpt lat="46.12951" lon="0.99072">
        <ele>255.85</ele>
        <time>2021-08-06T21:25:48Z</time>
      </trkpt>
      <trkpt lat="46.12949" lon="0.99074">
        <ele>254.89</ele>
        <time>2021-08-06T21:25:49Z</time>
      </trkpt>
      <trkpt lat="46.1295" lon="0.99089">
        <ele>254.41</ele>
        <time>2021-08-06T21:25:50Z</time>
      </trkpt>
      <trkpt lat="46.12947" lon="0.9911">
        <ele>253.93</ele>
        <time>2021-08-06T21:25:51Z</time>
      </trkpt>
      <trkpt lat="46.12935" lon="0.99127">
        <ele>253.44</ele>
        <time>2021-08-06T21:25:52Z</time>
      </trkpt>
      <trkpt lat="46.12928" lon="0.99139">
        <ele>253.44</ele>
        <time>2021-08-06T21:25:53Z</time>
      </trkpt>
      <trkpt lat="46.12874" lon="0.99246">
        <ele>249.6</ele>
        <time>2021-08-06T21:26:01Z</time>
      </trkpt>
      <trkpt lat="46.12831" lon="0.99423">
        <ele>247.68</ele>
        <time>2021-08-06T21:26:09Z</time>
      </trkpt>
      <trkpt lat="46.1276" lon="0.99781">
        <ele>240.95</ele>
        <time>2021-08-06T21:26:22Z</time>
      </trkpt>
      <trkpt lat="46.12718" lon="1.00134">
        <ele>227.49</ele>
        <time>2021-08-06T21:26:33Z</time>
      </trkpt>
      <trkpt lat="46.12725" lon="1.00488">
        <ele>210.67</ele>
        <time>2021-08-06T21:26:44Z</time>
      </trkpt>
      <trkpt lat="46.12778" lon="1.00831">
        <ele>194.8</ele>
        <time>2021-08-06T21:26:54Z</time>
      </trkpt>
      <trkpt lat="46.1289" lon="1.01453">
        <ele>195.28</ele>
        <time>2021-08-06T21:27:12Z</time>
      </trkpt>
      <trkpt lat="46.12937" lon="1.01835">
        <ele>194.8</ele>
        <time>2021-08-06T21:27:24Z</time>
      </trkpt>
      <trkpt lat="46.12918" lon="1.02123">
        <ele>190.96</ele>
        <time>2021-08-06T21:27:33Z</time>
      </trkpt>
      <trkpt lat="46.1285" lon="1.02604">
        <ele>184.23</ele>
        <time>2021-08-06T21:27:48Z</time>
      </trkpt>
      <trkpt lat="46.12822" lon="1.02944">
        <ele>191.92</ele>
        <time>2021-08-06T21:27:59Z</time>
      </trkpt>
      <trkpt lat="46.12855" lon="1.03201">
        <ele>200.09</ele>
        <time>2021-08-06T21:28:08Z</time>
      </trkpt>
      <trkpt lat="46.12934" lon="1.03412">
        <ele>207.78</ele>
        <time>2021-08-06T21:28:16Z</time>
      </trkpt>
      <trkpt lat="46.13057" lon="1.03597">
        <ele>217.88</ele>
        <time>2021-08-06T21:28:24Z</time>
      </trkpt>
      <trkpt lat="46.13216" lon="1.03839">
        <ele>225.57</ele>
        <time>2021-08-06T21:28:34Z</time>
      </trkpt>
      <trkpt lat="46.134" lon="1.0417">
        <ele>239.02</ele>
        <time>2021-08-06T21:28:47Z</time>
      </trkpt>
      <trkpt lat="46.13611" lon="1.04583">
        <ele>251.04</ele>
        <time>2021-08-06T21:29:02Z</time>
      </trkpt>
      <trkpt lat="46.13701" lon="1.04885">
        <ele>252.48</ele>
        <time>2021-08-06T21:29:11Z</time>
      </trkpt>
      <trkpt lat="46.13778" lon="1.05248">
        <ele>250.08</ele>
        <time>2021-08-06T21:29:22Z</time>
      </trkpt>
      <trkpt lat="46.13834" lon="1.05521">
        <ele>249.12</ele>
        <time>2021-08-06T21:29:32Z</time>
      </trkpt>
      <trkpt lat="46.13843" lon="1.05558">
        <ele>249.12</ele>
        <time>2021-08-06T21:29:34Z</time>
      </trkpt>
      <trkpt lat="46.13847" lon="1.05573">
        <ele>250.08</ele>
        <time>2021-08-06T21:29:35Z</time>
      </trkpt>
      <trkpt lat="46.13833" lon="1.05604">
        <ele>250.08</ele>
        <time>2021-08-06T21:29:36Z</time>
      </trkpt>
      <trkpt lat="46.13835" lon="1.05621">
        <ele>250.08</ele>
        <time>2021-08-06T21:29:39Z</time>
      </trkpt>
      <trkpt lat="46.13831" lon="1.05671">
        <ele>250.08</ele>
        <time>2021-08-06T21:29:40Z</time>
      </trkpt>
      <trkpt lat="46.13831" lon="1.05671">
        <ele>250.08</ele>
        <time>2021-08-06T21:29:41Z</time>
      </trkpt>
      <trkpt lat="46.13761" lon="1.05861">
        <ele>245.75</ele>
        <time>2021-08-06T21:29:50Z</time>
      </trkpt>
      <trkpt lat="46.13653" lon="1.06155">
        <ele>246.23</ele>
        <time>2021-08-06T21:30:01Z</time>
      </trkpt>
      <trkpt lat="46.13519" lon="1.0646">
        <ele>249.12</ele>
        <time>2021-08-06T21:30:13Z</time>
      </trkpt>
      <trkpt lat="46.13362" lon="1.06693">
        <ele>251.04</ele>
        <time>2021-08-06T21:30:24Z</time>
      </trkpt>
      <trkpt lat="46.13169" lon="1.06888">
        <ele>253.44</ele>
        <time>2021-08-06T21:30:36Z</time>
      </trkpt>
      <trkpt lat="46.12854" lon="1.07127">
        <ele>256.33</ele>
        <time>2021-08-06T21:30:54Z</time>
      </trkpt>
      <trkpt lat="46.12681" lon="1.07307">
        <ele>256.81</ele>
        <time>2021-08-06T21:31:05Z</time>
      </trkpt>
      <trkpt lat="46.1261" lon="1.07384">
        <ele>258.73</ele>
        <time>2021-08-06T21:31:11Z</time>
      </trkpt>
      <trkpt lat="46.12604" lon="1.0739">
        <ele>259.21</ele>
        <time>2021-08-06T21:31:13Z</time>
      </trkpt>
      <trkpt lat="46.12598" lon="1.07397">
        <ele>259.21</ele>
        <time>2021-08-06T21:31:14Z</time>
      </trkpt>
      <trkpt lat="46.12593" lon="1.07402">
        <ele>259.69</ele>
        <time>2021-08-06T21:31:15Z</time>
      </trkpt>
      <trkpt lat="46.12576" lon="1.07387">
        <ele>259.69</ele>
        <time>2021-08-06T21:31:16Z</time>
      </trkpt>
      <trkpt lat="46.12576" lon="1.07387">
        <ele>260.17</ele>
        <time>2021-08-06T21:31:17Z</time>
      </trkpt>
      <trkpt lat="46.12558" lon="1.07394">
        <ele>260.17</ele>
        <time>2021-08-06T21:31:18Z</time>
      </trkpt>
      <trkpt lat="46.12558" lon="1.07394">
        <ele>259.69</ele>
        <time>2021-08-06T21:31:19Z</time>
      </trkpt>
      <trkpt lat="46.12552" lon="1.074">
        <ele>259.69</ele>
        <time>2021-08-06T21:31:20Z</time>
      </trkpt>
      <trkpt lat="46.12547" lon="1.07412">
        <ele>259.21</ele>
        <time>2021-08-06T21:31:21Z</time>
      </trkpt>
      <trkpt lat="46.12546" lon="1.07419">
        <ele>259.21</ele>
        <time>2021-08-06T21:31:22Z</time>
      </trkpt>
      <trkpt lat="46.12549" lon="1.07433">
        <ele>258.73</ele>
        <time>2021-08-06T21:31:23Z</time>
      </trkpt>
      <trkpt lat="46.12552" lon="1.07443">
        <ele>258.73</ele>
        <time>2021-08-06T21:31:24Z</time>
      </trkpt>
      <trkpt lat="46.12557" lon="1.07449">
        <ele>258.25</ele>
        <time>2021-08-06T21:31:25Z</time>
      </trkpt>
      <trkpt lat="46.12563" lon="1.07458">
        <ele>257.77</ele>
        <time>2021-08-06T21:31:26Z</time>
      </trkpt>
      <trkpt lat="46.12571" lon="1.07458">
        <ele>257.29</ele>
        <time>2021-08-06T21:31:27Z</time>
      </trkpt>
      <trkpt lat="46.12595" lon="1.0745">
        <ele>257.29</ele>
        <time>2021-08-06T21:31:28Z</time>
      </trkpt>
      <trkpt lat="46.12595" lon="1.0745">
        <ele>258.25</ele>
        <time>2021-08-06T21:31:29Z</time>
      </trkpt>
      <trkpt lat="46.12603" lon="1.07459">
        <ele>257.77</ele>
        <time>2021-08-06T21:31:30Z</time>
      </trkpt>
      <trkpt lat="46.12613" lon="1.0747">
        <ele>257.29</ele>
        <time>2021-08-06T21:31:31Z</time>
      </trkpt>
      <trkpt lat="46.12624" lon="1.07481">
        <ele>256.81</ele>
        <time>2021-08-06T21:31:32Z</time>
      </trkpt>
      <trkpt lat="46.12725" lon="1.07591">
        <ele>253.93</ele>
        <time>2021-08-06T21:31:40Z</time>
      </trkpt>
      <trkpt lat="46.12816" lon="1.07734">
        <ele>251.52</ele>
        <time>2021-08-06T21:31:47Z</time>
      </trkpt>
      <trkpt lat="46.13022" lon="1.08196">
        <ele>255.37</ele>
        <time>2021-08-06T21:32:05Z</time>
      </trkpt>
      <trkpt lat="46.13243" lon="1.08684">
        <ele>252</ele>
        <time>2021-08-06T21:32:24Z</time>
      </trkpt>
      <trkpt lat="46.13416" lon="1.09068">
        <ele>246.23</ele>
        <time>2021-08-06T21:32:39Z</time>
      </trkpt>
      <trkpt lat="46.13646" lon="1.09573">
        <ele>238.54</ele>
        <time>2021-08-06T21:32:59Z</time>
      </trkpt>
      <trkpt lat="46.13747" lon="1.09716">
        <ele>235.66</ele>
        <time>2021-08-06T21:33:06Z</time>
      </trkpt>
      <trkpt lat="46.138" lon="1.09762">
        <ele>234.22</ele>
        <time>2021-08-06T21:33:09Z</time>
      </trkpt>
      <trkpt lat="46.1382" lon="1.09773">
        <ele>234.22</ele>
        <time>2021-08-06T21:33:10Z</time>
      </trkpt>
      <trkpt lat="46.13983" lon="1.09817">
        <ele>227.49</ele>
        <time>2021-08-06T21:33:18Z</time>
      </trkpt>
      <trkpt lat="46.14206" lon="1.09861">
        <ele>218.84</ele>
        <time>2021-08-06T21:33:29Z</time>
      </trkpt>
      <trkpt lat="46.14325" lon="1.09965">
        <ele>215.47</ele>
        <time>2021-08-06T21:33:36Z</time>
      </trkpt>
      <trkpt lat="46.14574" lon="1.10252">
        <ele>210.19</ele>
        <time>2021-08-06T21:33:52Z</time>
      </trkpt>
      <trkpt lat="46.14741" lon="1.1034">
        <ele>205.38</ele>
        <time>2021-08-06T21:34:01Z</time>
      </trkpt>
      <trkpt lat="46.1493" lon="1.10435">
        <ele>196.73</ele>
        <time>2021-08-06T21:34:11Z</time>
      </trkpt>
      <trkpt lat="46.14947" lon="1.1045">
        <ele>195.77</ele>
        <time>2021-08-06T21:34:12Z</time>
      </trkpt>
      <trkpt lat="46.14963" lon="1.10466">
        <ele>193.84</ele>
        <time>2021-08-06T21:34:13Z</time>
      </trkpt>
      <trkpt lat="46.14979" lon="1.10484">
        <ele>192.88</ele>
        <time>2021-08-06T21:34:14Z</time>
      </trkpt>
      <trkpt lat="46.14993" lon="1.10504">
        <ele>191.44</ele>
        <time>2021-08-06T21:34:15Z</time>
      </trkpt>
      <trkpt lat="46.15006" lon="1.10525">
        <ele>189.04</ele>
        <time>2021-08-06T21:34:16Z</time>
      </trkpt>
      <trkpt lat="46.15018" lon="1.10549">
        <ele>187.11</ele>
        <time>2021-08-06T21:34:17Z</time>
      </trkpt>
      <trkpt lat="46.15028" lon="1.10575">
        <ele>187.11</ele>
        <time>2021-08-06T21:34:18Z</time>
      </trkpt>
      <trkpt lat="46.15108" lon="1.10827">
        <ele>186.63</ele>
        <time>2021-08-06T21:34:28Z</time>
      </trkpt>
      <trkpt lat="46.15121" lon="1.11084">
        <ele>197.69</ele>
        <time>2021-08-06T21:34:37Z</time>
      </trkpt>
      <trkpt lat="46.15158" lon="1.1123">
        <ele>201.05</ele>
        <time>2021-08-06T21:34:44Z</time>
      </trkpt>
      <trkpt lat="46.15253" lon="1.11575">
        <ele>212.11</ele>
        <time>2021-08-06T21:34:56Z</time>
      </trkpt>
      <trkpt lat="46.15308" lon="1.11879">
        <ele>221.72</ele>
        <time>2021-08-06T21:35:08Z</time>
      </trkpt>
      <trkpt lat="46.15306" lon="1.12181">
        <ele>224.12</ele>
        <time>2021-08-06T21:35:18Z</time>
      </trkpt>
      <trkpt lat="46.15321" lon="1.12549">
        <ele>225.09</ele>
        <time>2021-08-06T21:35:30Z</time>
      </trkpt>
      <trkpt lat="46.1539" lon="1.12741">
        <ele>225.09</ele>
        <time>2021-08-06T21:35:37Z</time>
      </trkpt>
      <trkpt lat="46.15504" lon="1.12877">
        <ele>224.61</ele>
        <time>2021-08-06T21:35:44Z</time>
      </trkpt>
      <trkpt lat="46.1586" lon="1.13169">
        <ele>219.8</ele>
        <time>2021-08-06T21:36:03Z</time>
      </trkpt>
      <trkpt lat="46.16034" lon="1.13262">
        <ele>222.2</ele>
        <time>2021-08-06T21:36:13Z</time>
      </trkpt>
      <trkpt lat="46.16271" lon="1.13368">
        <ele>225.57</ele>
        <time>2021-08-06T21:36:26Z</time>
      </trkpt>
      <trkpt lat="46.1639" lon="1.13515">
        <ele>226.53</ele>
        <time>2021-08-06T21:36:33Z</time>
      </trkpt>
      <trkpt lat="46.16451" lon="1.13669">
        <ele>228.45</ele>
        <time>2021-08-06T21:36:40Z</time>
      </trkpt>
      <trkpt lat="46.16533" lon="1.13986">
        <ele>233.74</ele>
        <time>2021-08-06T21:36:52Z</time>
      </trkpt>
      <trkpt lat="46.16581" lon="1.14174">
        <ele>239.51</ele>
        <time>2021-08-06T21:37:01Z</time>
      </trkpt>
      <trkpt lat="46.16609" lon="1.14286">
        <ele>243.35</ele>
        <time>2021-08-06T21:37:07Z</time>
      </trkpt>
      <trkpt lat="46.16614" lon="1.14303">
        <ele>243.83</ele>
        <time>2021-08-06T21:37:08Z</time>
      </trkpt>
      <trkpt lat="46.1662" lon="1.14319">
        <ele>244.31</ele>
        <time>2021-08-06T21:37:09Z</time>
      </trkpt>
      <trkpt lat="46.16626" lon="1.14335">
        <ele>244.79</ele>
        <time>2021-08-06T21:37:10Z</time>
      </trkpt>
      <trkpt lat="46.16632" lon="1.14349">
        <ele>244.79</ele>
        <time>2021-08-06T21:37:11Z</time>
      </trkpt>
      <trkpt lat="46.1664" lon="1.14363">
        <ele>246.23</ele>
        <time>2021-08-06T21:37:12Z</time>
      </trkpt>
      <trkpt lat="46.16649" lon="1.14378">
        <ele>247.2</ele>
        <time>2021-08-06T21:37:13Z</time>
      </trkpt>
      <trkpt lat="46.16657" lon="1.14392">
        <ele>248.16</ele>
        <time>2021-08-06T21:37:14Z</time>
      </trkpt>
      <trkpt lat="46.16667" lon="1.14405">
        <ele>248.16</ele>
        <time>2021-08-06T21:37:15Z</time>
      </trkpt>
      <trkpt lat="46.16679" lon="1.14414">
        <ele>247.2</ele>
        <time>2021-08-06T21:37:16Z</time>
      </trkpt>
      <trkpt lat="46.16691" lon="1.14424">
        <ele>246.72</ele>
        <time>2021-08-06T21:37:17Z</time>
      </trkpt>
      <trkpt lat="46.16702" lon="1.14433">
        <ele>247.68</ele>
        <time>2021-08-06T21:37:18Z</time>
      </trkpt>
      <trkpt lat="46.1684" lon="1.14532">
        <ele>250.56</ele>
        <time>2021-08-06T21:37:29Z</time>
      </trkpt>
      <trkpt lat="46.16965" lon="1.14646">
        <ele>254.41</ele>
        <time>2021-08-06T21:37:38Z</time>
      </trkpt>
      <trkpt lat="46.17158" lon="1.14831">
        <ele>261.14</ele>
        <time>2021-08-06T21:37:50Z</time>
      </trkpt>
      <trkpt lat="46.17437" lon="1.15102">
        <ele>272.19</ele>
        <time>2021-08-06T21:38:07Z</time>
      </trkpt>
      <trkpt lat="46.17593" lon="1.15288">
        <ele>275.56</ele>
        <time>2021-08-06T21:38:17Z</time>
      </trkpt>
      <trkpt lat="46.17931" lon="1.15834">
        <ele>289.01</ele>
        <time>2021-08-06T21:38:41Z</time>
      </trkpt>
      <trkpt lat="46.17978" lon="1.15956">
        <ele>291.42</ele>
        <time>2021-08-06T21:38:47Z</time>
      </trkpt>
      <trkpt lat="46.17993" lon="1.16153">
        <ele>293.82</ele>
        <time>2021-08-06T21:38:54Z</time>
      </trkpt>
      <trkpt lat="46.17991" lon="1.16686">
        <ele>304.39</ele>
        <time>2021-08-06T21:39:13Z</time>
      </trkpt>
      <trkpt lat="46.18061" lon="1.16956">
        <ele>307.76</ele>
        <time>2021-08-06T21:39:23Z</time>
      </trkpt>
      <trkpt lat="46.18208" lon="1.17483">
        <ele>298.15</ele>
        <time>2021-08-06T21:39:41Z</time>
      </trkpt>
      <trkpt lat="46.18347" lon="1.17979">
        <ele>296.7</ele>
        <time>2021-08-06T21:39:59Z</time>
      </trkpt>
      <trkpt lat="46.18426" lon="1.18337">
        <ele>297.67</ele>
        <time>2021-08-06T21:40:12Z</time>
      </trkpt>
      <trkpt lat="46.18407" lon="1.18601">
        <ele>295.74</ele>
        <time>2021-08-06T21:40:21Z</time>
      </trkpt>
      <trkpt lat="46.18374" lon="1.18942">
        <ele>294.78</ele>
        <time>2021-08-06T21:40:33Z</time>
      </trkpt>
      <trkpt lat="46.18361" lon="1.19333">
        <ele>292.38</ele>
        <time>2021-08-06T21:40:46Z</time>
      </trkpt>
      <trkpt lat="46.18438" lon="1.19839">
        <ele>291.9</ele>
        <time>2021-08-06T21:41:04Z</time>
      </trkpt>
      <trkpt lat="46.18527" lon="1.20456">
        <ele>293.82</ele>
        <time>2021-08-06T21:41:26Z</time>
      </trkpt>
      <trkpt lat="46.18517" lon="1.20634">
        <ele>295.74</ele>
        <time>2021-08-06T21:41:33Z</time>
      </trkpt>
      <trkpt lat="46.18447" lon="1.20872">
        <ele>301.51</ele>
        <time>2021-08-06T21:41:42Z</time>
      </trkpt>
      <trkpt lat="46.18374" lon="1.21152">
        <ele>308.72</ele>
        <time>2021-08-06T21:41:53Z</time>
      </trkpt>
      <trkpt lat="46.18361" lon="1.21605">
        <ele>320.26</ele>
        <time>2021-08-06T21:42:08Z</time>
      </trkpt>
      <trkpt lat="46.18362" lon="1.22231">
        <ele>331.79</ele>
        <time>2021-08-06T21:42:30Z</time>
      </trkpt>
      <trkpt lat="46.18362" lon="1.22231">
        <ele>331.79</ele>
        <time>2021-08-06T21:42:31Z</time>
      </trkpt>
      <trkpt lat="46.1837" lon="1.22259">
        <ele>332.27</ele>
        <time>2021-08-06T21:42:32Z</time>
      </trkpt>
      <trkpt lat="46.18378" lon="1.22288">
        <ele>333.23</ele>
        <time>2021-08-06T21:42:33Z</time>
      </trkpt>
      <trkpt lat="46.18398" lon="1.22339">
        <ele>334.68</ele>
        <time>2021-08-06T21:42:34Z</time>
      </trkpt>
      <trkpt lat="46.18398" lon="1.22339">
        <ele>334.68</ele>
        <time>2021-08-06T21:42:35Z</time>
      </trkpt>
      <trkpt lat="46.18411" lon="1.22363">
        <ele>333.71</ele>
        <time>2021-08-06T21:42:36Z</time>
      </trkpt>
      <trkpt lat="46.18425" lon="1.22388">
        <ele>332.75</ele>
        <time>2021-08-06T21:42:37Z</time>
      </trkpt>
      <trkpt lat="46.1844" lon="1.2241">
        <ele>333.23</ele>
        <time>2021-08-06T21:42:38Z</time>
      </trkpt>
      <trkpt lat="46.18473" lon="1.22449">
        <ele>333.71</ele>
        <time>2021-08-06T21:42:39Z</time>
      </trkpt>
      <trkpt lat="46.18473" lon="1.22449">
        <ele>333.71</ele>
        <time>2021-08-06T21:42:40Z</time>
      </trkpt>
      <trkpt lat="46.18725" lon="1.22702">
        <ele>330.83</ele>
        <time>2021-08-06T21:42:54Z</time>
      </trkpt>
      <trkpt lat="46.18799" lon="1.22852">
        <ele>328.91</ele>
        <time>2021-08-06T21:43:00Z</time>
      </trkpt>
      <trkpt lat="46.18962" lon="1.23242">
        <ele>326.5</ele>
        <time>2021-08-06T21:43:14Z</time>
      </trkpt>
      <trkpt lat="46.19097" lon="1.23427">
        <ele>323.62</ele>
        <time>2021-08-06T21:43:24Z</time>
      </trkpt>
      <trkpt lat="46.19201" lon="1.23668">
        <ele>317.37</ele>
        <time>2021-08-06T21:43:33Z</time>
      </trkpt>
      <trkpt lat="46.19243" lon="1.23903">
        <ele>317.85</ele>
        <time>2021-08-06T21:43:42Z</time>
      </trkpt>
      <trkpt lat="46.1924" lon="1.2412">
        <ele>312.09</ele>
        <time>2021-08-06T21:43:51Z</time>
      </trkpt>
      <trkpt lat="46.19205" lon="1.24601">
        <ele>302.95</ele>
        <time>2021-08-06T21:44:07Z</time>
      </trkpt>
      <trkpt lat="46.19173" lon="1.25065">
        <ele>308.24</ele>
        <time>2021-08-06T21:44:23Z</time>
      </trkpt>
      <trkpt lat="46.1916" lon="1.25502">
        <ele>313.53</ele>
        <time>2021-08-06T21:44:38Z</time>
      </trkpt>
      <trkpt lat="46.1916" lon="1.25502">
        <ele>313.05</ele>
        <time>2021-08-06T21:44:39Z</time>
      </trkpt>
      <trkpt lat="46.19245" lon="1.25856">
        <ele>315.45</ele>
        <time>2021-08-06T21:44:53Z</time>
      </trkpt>
      <trkpt lat="46.19356" lon="1.26287">
        <ele>319.78</ele>
        <time>2021-08-06T21:45:08Z</time>
      </trkpt>
      <trkpt lat="46.19507" lon="1.26872">
        <ele>323.62</ele>
        <time>2021-08-06T21:45:29Z</time>
      </trkpt>
      <trkpt lat="46.19655" lon="1.27444">
        <ele>332.27</ele>
        <time>2021-08-06T21:45:50Z</time>
      </trkpt>
      <trkpt lat="46.19693" lon="1.27668">
        <ele>334.68</ele>
        <time>2021-08-06T21:45:58Z</time>
      </trkpt>
      <trkpt lat="46.19674" lon="1.28155">
        <ele>332.75</ele>
        <time>2021-08-06T21:46:14Z</time>
      </trkpt>
      <trkpt lat="46.19675" lon="1.28509">
        <ele>327.95</ele>
        <time>2021-08-06T21:46:26Z</time>
      </trkpt>
      <trkpt lat="46.1977" lon="1.28902">
        <ele>322.66</ele>
        <time>2021-08-06T21:46:41Z</time>
      </trkpt>
      <trkpt lat="46.19817" lon="1.29082">
        <ele>329.39</ele>
        <time>2021-08-06T21:46:49Z</time>
      </trkpt>
      <trkpt lat="46.1987" lon="1.29291">
        <ele>332.27</ele>
        <time>2021-08-06T21:47:01Z</time>
      </trkpt>
      <trkpt lat="46.19917" lon="1.29482">
        <ele>336.6</ele>
        <time>2021-08-06T21:47:13Z</time>
      </trkpt>
      <trkpt lat="46.1992" lon="1.2952">
        <ele>337.56</ele>
        <time>2021-08-06T21:47:14Z</time>
      </trkpt>
      <trkpt lat="46.1992" lon="1.29539">
        <ele>338.04</ele>
        <time>2021-08-06T21:47:15Z</time>
      </trkpt>
      <trkpt lat="46.1992" lon="1.29539">
        <ele>338.52</ele>
        <time>2021-08-06T21:47:16Z</time>
      </trkpt>
      <trkpt lat="46.19919" lon="1.29557">
        <ele>339</ele>
        <time>2021-08-06T21:47:17Z</time>
      </trkpt>
      <trkpt lat="46.19916" lon="1.29852">
        <ele>336.6</ele>
        <time>2021-08-06T21:47:33Z</time>
      </trkpt>
      <trkpt lat="46.19924" lon="1.30153">
        <ele>333.71</ele>
        <time>2021-08-06T21:47:50Z</time>
      </trkpt>
      <trkpt lat="46.19923" lon="1.30204">
        <ele>333.23</ele>
        <time>2021-08-06T21:47:54Z</time>
      </trkpt>
      <trkpt lat="46.1992" lon="1.3022">
        <ele>332.75</ele>
        <time>2021-08-06T21:47:55Z</time>
      </trkpt>
      <trkpt lat="46.19918" lon="1.30237">
        <ele>332.75</ele>
        <time>2021-08-06T21:47:56Z</time>
      </trkpt>
      <trkpt lat="46.19844" lon="1.30463">
        <ele>323.62</ele>
        <time>2021-08-06T21:48:08Z</time>
      </trkpt>
      <trkpt lat="46.19829" lon="1.30619">
        <ele>322.66</ele>
        <time>2021-08-06T21:48:16Z</time>
      </trkpt>
      <trkpt lat="46.19822" lon="1.309">
        <ele>316.89</ele>
        <time>2021-08-06T21:48:28Z</time>
      </trkpt>
      <trkpt lat="46.19853" lon="1.3111">
        <ele>317.37</ele>
        <time>2021-08-06T21:48:37Z</time>
      </trkpt>
      <trkpt lat="46.19934" lon="1.31425">
        <ele>321.7</ele>
        <time>2021-08-06T21:48:50Z</time>
      </trkpt>
      <trkpt lat="46.2" lon="1.31812">
        <ele>330.83</ele>
        <time>2021-08-06T21:49:04Z</time>
      </trkpt>
      <trkpt lat="46.20053" lon="1.32258">
        <ele>319.78</ele>
        <time>2021-08-06T21:49:19Z</time>
      </trkpt>
      <trkpt lat="46.20107" lon="1.32618">
        <ele>309.2</ele>
        <time>2021-08-06T21:49:31Z</time>
      </trkpt>
      <trkpt lat="46.2018" lon="1.32991">
        <ele>312.09</ele>
        <time>2021-08-06T21:49:44Z</time>
      </trkpt>
      <trkpt lat="46.20232" lon="1.3338">
        <ele>330.83</ele>
        <time>2021-08-06T21:49:58Z</time>
      </trkpt>
      <trkpt lat="46.20289" lon="1.33883">
        <ele>340.92</ele>
        <time>2021-08-06T21:50:16Z</time>
      </trkpt>
      <trkpt lat="46.20347" lon="1.34373">
        <ele>351.02</ele>
        <time>2021-08-06T21:50:33Z</time>
      </trkpt>
      <trkpt lat="46.20347" lon="1.34628">
        <ele>354.38</ele>
        <time>2021-08-06T21:50:41Z</time>
      </trkpt>
      <trkpt lat="46.20248" lon="1.35078">
        <ele>355.83</ele>
        <time>2021-08-06T21:50:57Z</time>
      </trkpt>
      <trkpt lat="46.20131" lon="1.35607">
        <ele>354.38</ele>
        <time>2021-08-06T21:51:17Z</time>
      </trkpt>
      <trkpt lat="46.20034" lon="1.36046">
        <ele>375.05</ele>
        <time>2021-08-06T21:51:33Z</time>
      </trkpt>
      <trkpt lat="46.19984" lon="1.36338">
        <ele>380.34</ele>
        <time>2021-08-06T21:51:45Z</time>
      </trkpt>
      <trkpt lat="46.20002" lon="1.36525">
        <ele>379.38</ele>
        <time>2021-08-06T21:51:52Z</time>
      </trkpt>
      <trkpt lat="46.20098" lon="1.36904">
        <ele>383.22</ele>
        <time>2021-08-06T21:52:06Z</time>
      </trkpt>
      <trkpt lat="46.20183" lon="1.3731">
        <ele>384.18</ele>
        <time>2021-08-06T21:52:20Z</time>
      </trkpt>
      <trkpt lat="46.20273" lon="1.37745">
        <ele>382.74</ele>
        <time>2021-08-06T21:52:36Z</time>
      </trkpt>
      <trkpt lat="46.20298" lon="1.37871">
        <ele>382.74</ele>
        <time>2021-08-06T21:52:42Z</time>
      </trkpt>
      <trkpt lat="46.20311" lon="1.37946">
        <ele>382.74</ele>
        <time>2021-08-06T21:52:47Z</time>
      </trkpt>
      <trkpt lat="46.20313" lon="1.37958">
        <ele>383.22</ele>
        <time>2021-08-06T21:52:48Z</time>
      </trkpt>
      <trkpt lat="46.20315" lon="1.37967">
        <ele>382.74</ele>
        <time>2021-08-06T21:52:49Z</time>
      </trkpt>
      <trkpt lat="46.20311" lon="1.37984">
        <ele>382.26</ele>
        <time>2021-08-06T21:52:51Z</time>
      </trkpt>
      <trkpt lat="46.20311" lon="1.37996">
        <ele>382.26</ele>
        <time>2021-08-06T21:52:52Z</time>
      </trkpt>
      <trkpt lat="46.20311" lon="1.37996">
        <ele>382.26</ele>
        <time>2021-08-06T21:52:53Z</time>
      </trkpt>
      <trkpt lat="46.20323" lon="1.38019">
        <ele>382.26</ele>
        <time>2021-08-06T21:52:54Z</time>
      </trkpt>
      <trkpt lat="46.20323" lon="1.38019">
        <ele>382.74</ele>
        <time>2021-08-06T21:52:55Z</time>
      </trkpt>
      <trkpt lat="46.20328" lon="1.38029">
        <ele>383.22</ele>
        <time>2021-08-06T21:52:56Z</time>
      </trkpt>
      <trkpt lat="46.20333" lon="1.38039">
        <ele>383.7</ele>
        <time>2021-08-06T21:52:57Z</time>
      </trkpt>
      <trkpt lat="46.20336" lon="1.38053">
        <ele>383.22</ele>
        <time>2021-08-06T21:52:58Z</time>
      </trkpt>
      <trkpt lat="46.2034" lon="1.3807">
        <ele>383.22</ele>
        <time>2021-08-06T21:52:59Z</time>
      </trkpt>
      <trkpt lat="46.20386" lon="1.38298">
        <ele>381.3</ele>
        <time>2021-08-06T21:53:11Z</time>
      </trkpt>
      <trkpt lat="46.20468" lon="1.38691">
        <ele>377.94</ele>
        <time>2021-08-06T21:53:30Z</time>
      </trkpt>
      <trkpt lat="46.20541" lon="1.38937">
        <ele>371.21</ele>
        <time>2021-08-06T21:53:41Z</time>
      </trkpt>
      <trkpt lat="46.20546" lon="1.3899">
        <ele>372.65</ele>
        <time>2021-08-06T21:53:44Z</time>
      </trkpt>
      <trkpt lat="46.20547" lon="1.39001">
        <ele>372.65</ele>
        <time>2021-08-06T21:53:45Z</time>
      </trkpt>
      <trkpt lat="46.20542" lon="1.39025">
        <ele>372.65</ele>
        <time>2021-08-06T21:53:46Z</time>
      </trkpt>
      <trkpt lat="46.20542" lon="1.39025">
        <ele>372.65</ele>
        <time>2021-08-06T21:53:47Z</time>
      </trkpt>
      <trkpt lat="46.20539" lon="1.39035">
        <ele>372.65</ele>
        <time>2021-08-06T21:53:48Z</time>
      </trkpt>
      <trkpt lat="46.20533" lon="1.39043">
        <ele>373.13</ele>
        <time>2021-08-06T21:53:49Z</time>
      </trkpt>
      <trkpt lat="46.20528" lon="1.39052">
        <ele>372.65</ele>
        <time>2021-08-06T21:53:50Z</time>
      </trkpt>
      <trkpt lat="46.20524" lon="1.39067">
        <ele>372.17</ele>
        <time>2021-08-06T21:53:51Z</time>
      </trkpt>
      <trkpt lat="46.20533" lon="1.39096">
        <ele>372.17</ele>
        <time>2021-08-06T21:53:52Z</time>
      </trkpt>
      <trkpt lat="46.20533" lon="1.39096">
        <ele>371.69</ele>
        <time>2021-08-06T21:53:53Z</time>
      </trkpt>
      <trkpt lat="46.20556" lon="1.39245">
        <ele>370.24</ele>
        <time>2021-08-06T21:54:01Z</time>
      </trkpt>
      <trkpt lat="46.20626" lon="1.39444">
        <ele>373.13</ele>
        <time>2021-08-06T21:54:10Z</time>
      </trkpt>
      <trkpt lat="46.20755" lon="1.39688">
        <ele>369.28</ele>
        <time>2021-08-06T21:54:20Z</time>
      </trkpt>
      <trkpt lat="46.20909" lon="1.39989">
        <ele>359.67</ele>
        <time>2021-08-06T21:54:30Z</time>
      </trkpt>
      <trkpt lat="46.21188" lon="1.40587">
        <ele>367.84</ele>
        <time>2021-08-06T21:54:49Z</time>
      </trkpt>
      <trkpt lat="46.21463" lon="1.41181">
        <ele>375.53</ele>
        <time>2021-08-06T21:55:08Z</time>
      </trkpt>
      <trkpt lat="46.21563" lon="1.41476">
        <ele>377.45</ele>
        <time>2021-08-06T21:55:17Z</time>
      </trkpt>
      <trkpt lat="46.21706" lon="1.42049">
        <ele>374.09</ele>
        <time>2021-08-06T21:55:33Z</time>
      </trkpt>
      <trkpt lat="46.21748" lon="1.4239">
        <ele>371.21</ele>
        <time>2021-08-06T21:55:42Z</time>
      </trkpt>
      <trkpt lat="46.21741" lon="1.42737">
        <ele>366.4</ele>
        <time>2021-08-06T21:55:51Z</time>
      </trkpt>
      <trkpt lat="46.2168" lon="1.43143">
        <ele>362.07</ele>
        <time>2021-08-06T21:56:02Z</time>
      </trkpt>
      <trkpt lat="46.21561" lon="1.43892">
        <ele>370.24</ele>
        <time>2021-08-06T21:56:22Z</time>
      </trkpt>
      <trkpt lat="46.21569" lon="1.44147">
        <ele>372.65</ele>
        <time>2021-08-06T21:56:30Z</time>
      </trkpt>
      <trkpt lat="46.21641" lon="1.44502">
        <ele>369.76</ele>
        <time>2021-08-06T21:56:40Z</time>
      </trkpt>
      <trkpt lat="46.21777" lon="1.45044">
        <ele>370.73</ele>
        <time>2021-08-06T21:56:55Z</time>
      </trkpt>
      <trkpt lat="46.21914" lon="1.45323">
        <ele>374.09</ele>
        <time>2021-08-06T21:57:03Z</time>
      </trkpt>
      <trkpt lat="46.22053" lon="1.45504">
        <ele>374.57</ele>
        <time>2021-08-06T21:57:11Z</time>
      </trkpt>
      <trkpt lat="46.22346" lon="1.45818">
        <ele>381.3</ele>
        <time>2021-08-06T21:57:25Z</time>
      </trkpt>
      <trkpt lat="46.22473" lon="1.46072">
        <ele>383.7</ele>
        <time>2021-08-06T21:57:33Z</time>
      </trkpt>
      <trkpt lat="46.22542" lon="1.46326">
        <ele>387.07</ele>
        <time>2021-08-06T21:57:42Z</time>
      </trkpt>
      <trkpt lat="46.22626" lon="1.46853">
        <ele>389.47</ele>
        <time>2021-08-06T21:57:56Z</time>
      </trkpt>
      <trkpt lat="46.22641" lon="1.47187">
        <ele>388.03</ele>
        <time>2021-08-06T21:58:06Z</time>
      </trkpt>
      <trkpt lat="46.22621" lon="1.47568">
        <ele>381.78</ele>
        <time>2021-08-06T21:58:16Z</time>
      </trkpt>
      <trkpt lat="46.22548" lon="1.47827">
        <ele>381.3</ele>
        <time>2021-08-06T21:58:23Z</time>
      </trkpt>
      <trkpt lat="46.22365" lon="1.48359">
        <ele>387.55</ele>
        <time>2021-08-06T21:58:39Z</time>
      </trkpt>
      <trkpt lat="46.22302" lon="1.4864">
        <ele>391.39</ele>
        <time>2021-08-06T21:58:47Z</time>
      </trkpt>
      <trkpt lat="46.22286" lon="1.48948">
        <ele>393.32</ele>
        <time>2021-08-06T21:58:55Z</time>
      </trkpt>
      <trkpt lat="46.22328" lon="1.49292">
        <ele>391.39</ele>
        <time>2021-08-06T21:59:03Z</time>
      </trkpt>
      <trkpt lat="46.22409" lon="1.4955">
        <ele>386.59</ele>
        <time>2021-08-06T21:59:11Z</time>
      </trkpt>
      <trkpt lat="46.2264" lon="1.5009">
        <ele>373.13</ele>
        <time>2021-08-06T21:59:27Z</time>
      </trkpt>
      <trkpt lat="46.22869" lon="1.50591">
        <ele>378.9</ele>
        <time>2021-08-06T21:59:43Z</time>
      </trkpt>
      <trkpt lat="46.23089" lon="1.50926">
        <ele>384.18</ele>
        <time>2021-08-06T21:59:57Z</time>
      </trkpt>
      <trkpt lat="46.23334" lon="1.51262">
        <ele>392.84</ele>
        <time>2021-08-06T22:00:11Z</time>
      </trkpt>
      <trkpt lat="46.23529" lon="1.51535">
        <ele>395.72</ele>
        <time>2021-08-06T22:00:22Z</time>
      </trkpt>
      <trkpt lat="46.23667" lon="1.51824">
        <ele>397.16</ele>
        <time>2021-08-06T22:00:32Z</time>
      </trkpt>
      <trkpt lat="46.23776" lon="1.5217">
        <ele>403.89</ele>
        <time>2021-08-06T22:00:43Z</time>
      </trkpt>
      <trkpt lat="46.23855" lon="1.52589">
        <ele>410.62</ele>
        <time>2021-08-06T22:00:56Z</time>
      </trkpt>
      <trkpt lat="46.23857" lon="1.52924">
        <ele>414.47</ele>
        <time>2021-08-06T22:01:06Z</time>
      </trkpt>
      <trkpt lat="46.23803" lon="1.53248">
        <ele>418.79</ele>
        <time>2021-08-06T22:01:16Z</time>
      </trkpt>
      <trkpt lat="46.237" lon="1.53699">
        <ele>421.19</ele>
        <time>2021-08-06T22:01:31Z</time>
      </trkpt>
      <trkpt lat="46.2359" lon="1.53957">
        <ele>431.77</ele>
        <time>2021-08-06T22:01:40Z</time>
      </trkpt>
      <trkpt lat="46.23429" lon="1.54321">
        <ele>436.58</ele>
        <time>2021-08-06T22:01:52Z</time>
      </trkpt>
      <trkpt lat="46.23288" lon="1.54684">
        <ele>433.21</ele>
        <time>2021-08-06T22:02:05Z</time>
      </trkpt>
      <trkpt lat="46.23148" lon="1.54894">
        <ele>429.85</ele>
        <time>2021-08-06T22:02:13Z</time>
      </trkpt>
      <trkpt lat="46.22971" lon="1.55048">
        <ele>430.81</ele>
        <time>2021-08-06T22:02:21Z</time>
      </trkpt>
      <trkpt lat="46.22782" lon="1.55214">
        <ele>433.69</ele>
        <time>2021-08-06T22:02:30Z</time>
      </trkpt>
      <trkpt lat="46.22647" lon="1.55422">
        <ele>434.17</ele>
        <time>2021-08-06T22:02:38Z</time>
      </trkpt>
      <trkpt lat="46.22563" lon="1.55652">
        <ele>430.33</ele>
        <time>2021-08-06T22:02:45Z</time>
      </trkpt>
      <trkpt lat="46.22467" lon="1.56127">
        <ele>425.04</ele>
        <time>2021-08-06T22:02:58Z</time>
      </trkpt>
      <trkpt lat="46.22312" lon="1.56988">
        <ele>417.83</ele>
        <time>2021-08-06T22:03:20Z</time>
      </trkpt>
      <trkpt lat="46.22292" lon="1.5736">
        <ele>414.47</ele>
        <time>2021-08-06T22:03:31Z</time>
      </trkpt>
      <trkpt lat="46.22281" lon="1.57856">
        <ele>412.06</ele>
        <time>2021-08-06T22:03:44Z</time>
      </trkpt>
      <trkpt lat="46.22225" lon="1.58269">
        <ele>415.91</ele>
        <time>2021-08-06T22:03:55Z</time>
      </trkpt>
      <trkpt lat="46.22151" lon="1.58623">
        <ele>419.75</ele>
        <time>2021-08-06T22:04:05Z</time>
      </trkpt>
      <trkpt lat="46.22103" lon="1.58989">
        <ele>417.83</ele>
        <time>2021-08-06T22:04:15Z</time>
      </trkpt>
      <trkpt lat="46.22092" lon="1.59492">
        <ele>413.02</ele>
        <time>2021-08-06T22:04:27Z</time>
      </trkpt>
      <trkpt lat="46.22125" lon="1.59805">
        <ele>406.29</ele>
        <time>2021-08-06T22:04:36Z</time>
      </trkpt>
      <trkpt lat="46.22206" lon="1.60461">
        <ele>412.54</ele>
        <time>2021-08-06T22:04:54Z</time>
      </trkpt>
      <trkpt lat="46.22246" lon="1.609">
        <ele>420.23</ele>
        <time>2021-08-06T22:05:07Z</time>
      </trkpt>
      <trkpt lat="46.22215" lon="1.61203">
        <ele>426</ele>
        <time>2021-08-06T22:05:16Z</time>
      </trkpt>
      <trkpt lat="46.22126" lon="1.61561">
        <ele>433.21</ele>
        <time>2021-08-06T22:05:27Z</time>
      </trkpt>
      <trkpt lat="46.2198" lon="1.62105">
        <ele>432.25</ele>
        <time>2021-08-06T22:05:43Z</time>
      </trkpt>
      <trkpt lat="46.21812" lon="1.6263">
        <ele>418.31</ele>
        <time>2021-08-06T22:05:58Z</time>
      </trkpt>
      <trkpt lat="46.21588" lon="1.63304">
        <ele>400.53</ele>
        <time>2021-08-06T22:06:17Z</time>
      </trkpt>
      <trkpt lat="46.21425" lon="1.63823">
        <ele>401.97</ele>
        <time>2021-08-06T22:06:32Z</time>
      </trkpt>
      <trkpt lat="46.21405" lon="1.64113">
        <ele>403.41</ele>
        <time>2021-08-06T22:06:39Z</time>
      </trkpt>
      <trkpt lat="46.21442" lon="1.64371">
        <ele>405.33</ele>
        <time>2021-08-06T22:06:46Z</time>
      </trkpt>
      <trkpt lat="46.21591" lon="1.64985">
        <ele>401.97</ele>
        <time>2021-08-06T22:07:03Z</time>
      </trkpt>
      <trkpt lat="46.21726" lon="1.6551">
        <ele>405.33</ele>
        <time>2021-08-06T22:07:19Z</time>
      </trkpt>
      <trkpt lat="46.21835" lon="1.65698">
        <ele>413.5</ele>
        <time>2021-08-06T22:07:26Z</time>
      </trkpt>
      <trkpt lat="46.2204" lon="1.66037">
        <ele>426.96</ele>
        <time>2021-08-06T22:07:38Z</time>
      </trkpt>
      <trkpt lat="46.22091" lon="1.6623">
        <ele>432.25</ele>
        <time>2021-08-06T22:07:45Z</time>
      </trkpt>
      <trkpt lat="46.22195" lon="1.66749">
        <ele>434.17</ele>
        <time>2021-08-06T22:08:00Z</time>
      </trkpt>
      <trkpt lat="46.22251" lon="1.67298">
        <ele>432.73</ele>
        <time>2021-08-06T22:08:15Z</time>
      </trkpt>
      <trkpt lat="46.2223" lon="1.67684">
        <ele>427.92</ele>
        <time>2021-08-06T22:08:25Z</time>
      </trkpt>
      <trkpt lat="46.2218" lon="1.68248">
        <ele>435.13</ele>
        <time>2021-08-06T22:08:40Z</time>
      </trkpt>
      <trkpt lat="46.22128" lon="1.68808">
        <ele>450.52</ele>
        <time>2021-08-06T22:08:56Z</time>
      </trkpt>
      <trkpt lat="46.22092" lon="1.69188">
        <ele>457.24</ele>
        <time>2021-08-06T22:09:07Z</time>
      </trkpt>
      <trkpt lat="46.22111" lon="1.69545">
        <ele>455.8</ele>
        <time>2021-08-06T22:09:17Z</time>
      </trkpt>
      <trkpt lat="46.22122" lon="1.69867">
        <ele>446.67</ele>
        <time>2021-08-06T22:09:26Z</time>
      </trkpt>
      <trkpt lat="46.2207" lon="1.70083">
        <ele>442.82</ele>
        <time>2021-08-06T22:09:32Z</time>
      </trkpt>
      <trkpt lat="46.21848" lon="1.70705">
        <ele>431.77</ele>
        <time>2021-08-06T22:09:50Z</time>
      </trkpt>
      <trkpt lat="46.21709" lon="1.71108">
        <ele>442.34</ele>
        <time>2021-08-06T22:10:02Z</time>
      </trkpt>
      <trkpt lat="46.21676" lon="1.71368">
        <ele>449.07</ele>
        <time>2021-08-06T22:10:10Z</time>
      </trkpt>
      <trkpt lat="46.21687" lon="1.71659">
        <ele>454.84</ele>
        <time>2021-08-06T22:10:19Z</time>
      </trkpt>
      <trkpt lat="46.21666" lon="1.71893">
        <ele>451.96</ele>
        <time>2021-08-06T22:10:26Z</time>
      </trkpt>
      <trkpt lat="46.21579" lon="1.72476">
        <ele>439.46</ele>
        <time>2021-08-06T22:10:43Z</time>
      </trkpt>
      <trkpt lat="46.21553" lon="1.72877">
        <ele>442.82</ele>
        <time>2021-08-06T22:10:54Z</time>
      </trkpt>
      <trkpt lat="46.21511" lon="1.73332">
        <ele>455.32</ele>
        <time>2021-08-06T22:11:07Z</time>
      </trkpt>
      <trkpt lat="46.21433" lon="1.73661">
        <ele>459.65</ele>
        <time>2021-08-06T22:11:17Z</time>
      </trkpt>
      <trkpt lat="46.21269" lon="1.74277">
        <ele>459.17</ele>
        <time>2021-08-06T22:11:36Z</time>
      </trkpt>
      <trkpt lat="46.21188" lon="1.745">
        <ele>457.24</ele>
        <time>2021-08-06T22:11:43Z</time>
      </trkpt>
      <trkpt lat="46.21045" lon="1.74705">
        <ele>453.88</ele>
        <time>2021-08-06T22:11:50Z</time>
      </trkpt>
      <trkpt lat="46.20868" lon="1.74855">
        <ele>452.44</ele>
        <time>2021-08-06T22:11:59Z</time>
      </trkpt>
      <trkpt lat="46.20694" lon="1.74939">
        <ele>451</ele>
        <time>2021-08-06T22:12:06Z</time>
      </trkpt>
      <trkpt lat="46.20415" lon="1.74993">
        <ele>449.07</ele>
        <time>2021-08-06T22:12:17Z</time>
      </trkpt>
      <trkpt lat="46.20225" lon="1.75075">
        <ele>451.96</ele>
        <time>2021-08-06T22:12:25Z</time>
      </trkpt>
      <trkpt lat="46.20069" lon="1.75226">
        <ele>454.84</ele>
        <time>2021-08-06T22:12:33Z</time>
      </trkpt>
      <trkpt lat="46.19947" lon="1.75434">
        <ele>454.84</ele>
        <time>2021-08-06T22:12:41Z</time>
      </trkpt>
      <trkpt lat="46.19865" lon="1.75689">
        <ele>450.52</ele>
        <time>2021-08-06T22:12:49Z</time>
      </trkpt>
      <trkpt lat="46.19784" lon="1.76178">
        <ele>458.69</ele>
        <time>2021-08-06T22:13:03Z</time>
      </trkpt>
      <trkpt lat="46.19707" lon="1.76642">
        <ele>478.39</ele>
        <time>2021-08-06T22:13:18Z</time>
      </trkpt>
      <trkpt lat="46.19648" lon="1.77118">
        <ele>494.74</ele>
        <time>2021-08-06T22:13:34Z</time>
      </trkpt>
      <trkpt lat="46.19682" lon="1.77404">
        <ele>499.06</ele>
        <time>2021-08-06T22:13:42Z</time>
      </trkpt>
      <trkpt lat="46.19752" lon="1.77669">
        <ele>499.54</ele>
        <time>2021-08-06T22:13:51Z</time>
      </trkpt>
      <trkpt lat="46.19772" lon="1.77892">
        <ele>495.7</ele>
        <time>2021-08-06T22:13:57Z</time>
      </trkpt>
      <trkpt lat="46.19749" lon="1.78154">
        <ele>487.05</ele>
        <time>2021-08-06T22:14:04Z</time>
      </trkpt>
      <trkpt lat="46.19622" lon="1.78825">
        <ele>481.76</ele>
        <time>2021-08-06T22:14:23Z</time>
      </trkpt>
      <trkpt lat="46.19442" lon="1.79521">
        <ele>486.08</ele>
        <time>2021-08-06T22:14:44Z</time>
      </trkpt>
      <trkpt lat="46.19322" lon="1.79977">
        <ele>493.77</ele>
        <time>2021-08-06T22:14:58Z</time>
      </trkpt>
      <trkpt lat="46.19148" lon="1.80636">
        <ele>494.26</ele>
        <time>2021-08-06T22:15:18Z</time>
      </trkpt>
      <trkpt lat="46.19027" lon="1.81016">
        <ele>480.32</ele>
        <time>2021-08-06T22:15:29Z</time>
      </trkpt>
      <trkpt lat="46.18833" lon="1.81454">
        <ele>459.65</ele>
        <time>2021-08-06T22:15:41Z</time>
      </trkpt>
      <trkpt lat="46.18794" lon="1.81645">
        <ele>447.63</ele>
        <time>2021-08-06T22:15:47Z</time>
      </trkpt>
      <trkpt lat="46.18706" lon="1.82097">
        <ele>429.85</ele>
        <time>2021-08-06T22:15:59Z</time>
      </trkpt>
      <trkpt lat="46.18614" lon="1.82462">
        <ele>414.47</ele>
        <time>2021-08-06T22:16:09Z</time>
      </trkpt>
      <trkpt lat="46.18594" lon="1.82807">
        <ele>412.54</ele>
        <time>2021-08-06T22:16:17Z</time>
      </trkpt>
      <trkpt lat="46.18576" lon="1.8314">
        <ele>408.7</ele>
        <time>2021-08-06T22:16:27Z</time>
      </trkpt>
      <trkpt lat="46.18513" lon="1.83858">
        <ele>405.33</ele>
        <time>2021-08-06T22:16:47Z</time>
      </trkpt>
      <trkpt lat="46.18461" lon="1.84526">
        <ele>389.95</ele>
        <time>2021-08-06T22:17:05Z</time>
      </trkpt>
      <trkpt lat="46.18456" lon="1.85">
        <ele>380.34</ele>
        <time>2021-08-06T22:17:18Z</time>
      </trkpt>
      <trkpt lat="46.18483" lon="1.85526">
        <ele>369.28</ele>
        <time>2021-08-06T22:17:32Z</time>
      </trkpt>
      <trkpt lat="46.18487" lon="1.85986">
        <ele>374.09</ele>
        <time>2021-08-06T22:17:44Z</time>
      </trkpt>
      <trkpt lat="46.18455" lon="1.86473">
        <ele>387.07</ele>
        <time>2021-08-06T22:17:58Z</time>
      </trkpt>
      <trkpt lat="46.18376" lon="1.87012">
        <ele>392.36</ele>
        <time>2021-08-06T22:18:14Z</time>
      </trkpt>
      <trkpt lat="46.18288" lon="1.8754">
        <ele>387.55</ele>
        <time>2021-08-06T22:18:30Z</time>
      </trkpt>
      <trkpt lat="46.18177" lon="1.8814">
        <ele>387.07</ele>
        <time>2021-08-06T22:18:47Z</time>
      </trkpt>
      <trkpt lat="46.1804" lon="1.88707">
        <ele>397.16</ele>
        <time>2021-08-06T22:19:04Z</time>
      </trkpt>
      <trkpt lat="46.17858" lon="1.89447">
        <ele>395.24</ele>
        <time>2021-08-06T22:19:26Z</time>
      </trkpt>
      <trkpt lat="46.17773" lon="1.89862">
        <ele>391.87</ele>
        <time>2021-08-06T22:19:38Z</time>
      </trkpt>
      <trkpt lat="46.17777" lon="1.90117">
        <ele>393.32</ele>
        <time>2021-08-06T22:19:45Z</time>
      </trkpt>
      <trkpt lat="46.17851" lon="1.90507">
        <ele>392.84</ele>
        <time>2021-08-06T22:19:56Z</time>
      </trkpt>
      <trkpt lat="46.17969" lon="1.91077">
        <ele>380.34</ele>
        <time>2021-08-06T22:20:13Z</time>
      </trkpt>
      <trkpt lat="46.1807" lon="1.91448">
        <ele>371.21</ele>
        <time>2021-08-06T22:20:25Z</time>
      </trkpt>
      <trkpt lat="46.18217" lon="1.9182">
        <ele>371.69</ele>
        <time>2021-08-06T22:20:38Z</time>
      </trkpt>
      <trkpt lat="46.18417" lon="1.92305">
        <ele>358.71</ele>
        <time>2021-08-06T22:20:56Z</time>
      </trkpt>
      <trkpt lat="46.18497" lon="1.92507">
        <ele>352.94</ele>
        <time>2021-08-06T22:21:05Z</time>
      </trkpt>
      <trkpt lat="46.18533" lon="1.92596">
        <ele>353.9</ele>
        <time>2021-08-06T22:21:10Z</time>
      </trkpt>
      <trkpt lat="46.18552" lon="1.92643">
        <ele>354.86</ele>
        <time>2021-08-06T22:21:12Z</time>
      </trkpt>
      <trkpt lat="46.18552" lon="1.92643">
        <ele>354.86</ele>
        <time>2021-08-06T22:21:13Z</time>
      </trkpt>
      <trkpt lat="46.1861" lon="1.9279">
        <ele>354.86</ele>
        <time>2021-08-06T22:21:21Z</time>
      </trkpt>
      <trkpt lat="46.18728" lon="1.93084">
        <ele>352.94</ele>
        <time>2021-08-06T22:21:34Z</time>
      </trkpt>
      <trkpt lat="46.18823" lon="1.93375">
        <ele>349.58</ele>
        <time>2021-08-06T22:21:45Z</time>
      </trkpt>
      <trkpt lat="46.18854" lon="1.93662">
        <ele>342.85</ele>
        <time>2021-08-06T22:21:55Z</time>
      </trkpt>
      <trkpt lat="46.18877" lon="1.94157">
        <ele>328.43</ele>
        <time>2021-08-06T22:22:12Z</time>
      </trkpt>
      <trkpt lat="46.18887" lon="1.94375">
        <ele>329.87</ele>
        <time>2021-08-06T22:22:22Z</time>
      </trkpt>
      <trkpt lat="46.18895" lon="1.94536">
        <ele>336.12</ele>
        <time>2021-08-06T22:22:30Z</time>
      </trkpt>
      <trkpt lat="46.18909" lon="1.94785">
        <ele>345.25</ele>
        <time>2021-08-06T22:22:40Z</time>
      </trkpt>
      <trkpt lat="46.18954" lon="1.95033">
        <ele>354.86</ele>
        <time>2021-08-06T22:22:49Z</time>
      </trkpt>
      <trkpt lat="46.19039" lon="1.95207">
        <ele>362.07</ele>
        <time>2021-08-06T22:22:56Z</time>
      </trkpt>
      <trkpt lat="46.19163" lon="1.95322">
        <ele>368.32</ele>
        <time>2021-08-06T22:23:03Z</time>
      </trkpt>
      <trkpt lat="46.19404" lon="1.95451">
        <ele>382.74</ele>
        <time>2021-08-06T22:23:15Z</time>
      </trkpt>
      <trkpt lat="46.19543" lon="1.95589">
        <ele>391.87</ele>
        <time>2021-08-06T22:23:23Z</time>
      </trkpt>
      <trkpt lat="46.19665" lon="1.95801">
        <ele>401.01</ele>
        <time>2021-08-06T22:23:32Z</time>
      </trkpt>
      <trkpt lat="46.19887" lon="1.96321">
        <ele>423.12</ele>
        <time>2021-08-06T22:23:52Z</time>
      </trkpt>
      <trkpt lat="46.19966" lon="1.96647">
        <ele>430.81</ele>
        <time>2021-08-06T22:24:03Z</time>
      </trkpt>
      <trkpt lat="46.20103" lon="1.97344">
        <ele>450.03</ele>
        <time>2021-08-06T22:24:25Z</time>
      </trkpt>
      <trkpt lat="46.20222" lon="1.97926">
        <ele>463.97</ele>
        <time>2021-08-06T22:24:42Z</time>
      </trkpt>
      <trkpt lat="46.20354" lon="1.98328">
        <ele>464.93</ele>
        <time>2021-08-06T22:24:54Z</time>
      </trkpt>
      <trkpt lat="46.20425" lon="1.98657">
        <ele>464.45</ele>
        <time>2021-08-06T22:25:03Z</time>
      </trkpt>
      <trkpt lat="46.20448" lon="1.9899">
        <ele>465.42</ele>
        <time>2021-08-06T22:25:12Z</time>
      </trkpt>
      <trkpt lat="46.20428" lon="1.99347">
        <ele>468.78</ele>
        <time>2021-08-06T22:25:22Z</time>
      </trkpt>
      <trkpt lat="46.20414" lon="1.99785">
        <ele>475.99</ele>
        <time>2021-08-06T22:25:35Z</time>
      </trkpt>
      <trkpt lat="46.20453" lon="2.00189">
        <ele>482.72</ele>
        <time>2021-08-06T22:25:47Z</time>
      </trkpt>
      <trkpt lat="46.20539" lon="2.00591">
        <ele>486.08</ele>
        <time>2021-08-06T22:25:59Z</time>
      </trkpt>
      <trkpt lat="46.20669" lon="2.0105">
        <ele>488.97</ele>
        <time>2021-08-06T22:26:13Z</time>
      </trkpt>
      <trkpt lat="46.20716" lon="2.0138">
        <ele>496.18</ele>
        <time>2021-08-06T22:26:23Z</time>
      </trkpt>
      <trkpt lat="46.20715" lon="2.01718">
        <ele>499.06</ele>
        <time>2021-08-06T22:26:33Z</time>
      </trkpt>
      <trkpt lat="46.20655" lon="2.02537">
        <ele>516.37</ele>
        <time>2021-08-06T22:26:58Z</time>
      </trkpt>
      <trkpt lat="46.20599" lon="2.03263">
        <ele>523.58</ele>
        <time>2021-08-06T22:27:19Z</time>
      </trkpt>
      <trkpt lat="46.20543" lon="2.03824">
        <ele>520.21</ele>
        <time>2021-08-06T22:27:34Z</time>
      </trkpt>
      <trkpt lat="46.20471" lon="2.04328">
        <ele>514.92</ele>
        <time>2021-08-06T22:27:47Z</time>
      </trkpt>
      <trkpt lat="46.20473" lon="2.04731">
        <ele>510.6</ele>
        <time>2021-08-06T22:27:56Z</time>
      </trkpt>
      <trkpt lat="46.2047" lon="2.05098">
        <ele>503.39</ele>
        <time>2021-08-06T22:28:06Z</time>
      </trkpt>
      <trkpt lat="46.20408" lon="2.05877">
        <ele>492.33</ele>
        <time>2021-08-06T22:28:26Z</time>
      </trkpt>
      <trkpt lat="46.20338" lon="2.06781">
        <ele>481.28</ele>
        <time>2021-08-06T22:28:50Z</time>
      </trkpt>
      <trkpt lat="46.20337" lon="2.07184">
        <ele>475.99</ele>
        <time>2021-08-06T22:29:01Z</time>
      </trkpt>
      <trkpt lat="46.20394" lon="2.07619">
        <ele>471.18</ele>
        <time>2021-08-06T22:29:13Z</time>
      </trkpt>
      <trkpt lat="46.20447" lon="2.08024">
        <ele>465.9</ele>
        <time>2021-08-06T22:29:24Z</time>
      </trkpt>
      <trkpt lat="46.20522" lon="2.0898">
        <ele>443.79</ele>
        <time>2021-08-06T22:29:49Z</time>
      </trkpt>
      <trkpt lat="46.20516" lon="2.0928">
        <ele>439.94</ele>
        <time>2021-08-06T22:29:57Z</time>
      </trkpt>
      <trkpt lat="46.2046" lon="2.09558">
        <ele>438.5</ele>
        <time>2021-08-06T22:30:05Z</time>
      </trkpt>
      <trkpt lat="46.20343" lon="2.09846">
        <ele>434.65</ele>
        <time>2021-08-06T22:30:13Z</time>
      </trkpt>
      <trkpt lat="46.20228" lon="2.10139">
        <ele>427.92</ele>
        <time>2021-08-06T22:30:23Z</time>
      </trkpt>
      <trkpt lat="46.20175" lon="2.10405">
        <ele>418.79</ele>
        <time>2021-08-06T22:30:30Z</time>
      </trkpt>
      <trkpt lat="46.20114" lon="2.11108">
        <ele>403.89</ele>
        <time>2021-08-06T22:30:48Z</time>
      </trkpt>
      <trkpt lat="46.20048" lon="2.11884">
        <ele>390.91</ele>
        <time>2021-08-06T22:31:08Z</time>
      </trkpt>
      <trkpt lat="46.19972" lon="2.12776">
        <ele>402.45</ele>
        <time>2021-08-06T22:31:31Z</time>
      </trkpt>
      <trkpt lat="46.19909" lon="2.13512">
        <ele>398.12</ele>
        <time>2021-08-06T22:31:49Z</time>
      </trkpt>
      <trkpt lat="46.19856" lon="2.13937">
        <ele>392.84</ele>
        <time>2021-08-06T22:32:00Z</time>
      </trkpt>
      <trkpt lat="46.19738" lon="2.1448">
        <ele>391.39</ele>
        <time>2021-08-06T22:32:14Z</time>
      </trkpt>
      <trkpt lat="46.19665" lon="2.14952">
        <ele>388.51</ele>
        <time>2021-08-06T22:32:28Z</time>
      </trkpt>
      <trkpt lat="46.19579" lon="2.15568">
        <ele>394.76</ele>
        <time>2021-08-06T22:32:45Z</time>
      </trkpt>
      <trkpt lat="46.19472" lon="2.16338">
        <ele>401.01</ele>
        <time>2021-08-06T22:33:06Z</time>
      </trkpt>
      <trkpt lat="46.19375" lon="2.17101">
        <ele>421.19</ele>
        <time>2021-08-06T22:33:27Z</time>
      </trkpt>
      <trkpt lat="46.1938" lon="2.17429">
        <ele>425.04</ele>
        <time>2021-08-06T22:33:36Z</time>
      </trkpt>
      <trkpt lat="46.19436" lon="2.17765">
        <ele>425.52</ele>
        <time>2021-08-06T22:33:45Z</time>
      </trkpt>
      <trkpt lat="46.19603" lon="2.18399">
        <ele>412.06</ele>
        <time>2021-08-06T22:34:03Z</time>
      </trkpt>
      <trkpt lat="46.19725" lon="2.18942">
        <ele>396.68</ele>
        <time>2021-08-06T22:34:15Z</time>
      </trkpt>
      <trkpt lat="46.19749" lon="2.19291">
        <ele>392.36</ele>
        <time>2021-08-06T22:34:25Z</time>
      </trkpt>
      <trkpt lat="46.19782" lon="2.19916">
        <ele>388.03</ele>
        <time>2021-08-06T22:34:41Z</time>
      </trkpt>
      <trkpt lat="46.19798" lon="2.20435">
        <ele>384.18</ele>
        <time>2021-08-06T22:34:56Z</time>
      </trkpt>
      <trkpt lat="46.19756" lon="2.20767">
        <ele>385.15</ele>
        <time>2021-08-06T22:35:05Z</time>
      </trkpt>
      <trkpt lat="46.19597" lon="2.21539">
        <ele>382.74</ele>
        <time>2021-08-06T22:35:26Z</time>
      </trkpt>
      <trkpt lat="46.19531" lon="2.21946">
        <ele>381.78</ele>
        <time>2021-08-06T22:35:37Z</time>
      </trkpt>
      <trkpt lat="46.19533" lon="2.22244">
        <ele>380.34</ele>
        <time>2021-08-06T22:35:45Z</time>
      </trkpt>
      <trkpt lat="46.19588" lon="2.22567">
        <ele>378.9</ele>
        <time>2021-08-06T22:35:54Z</time>
      </trkpt>
      <trkpt lat="46.19723" lon="2.23149">
        <ele>375.53</ele>
        <time>2021-08-06T22:36:10Z</time>
      </trkpt>
      <trkpt lat="46.19831" lon="2.23617">
        <ele>373.13</ele>
        <time>2021-08-06T22:36:25Z</time>
      </trkpt>
      <trkpt lat="46.19905" lon="2.24039">
        <ele>372.65</ele>
        <time>2021-08-06T22:36:36Z</time>
      </trkpt>
      <trkpt lat="46.19914" lon="2.24332">
        <ele>375.53</ele>
        <time>2021-08-06T22:36:45Z</time>
      </trkpt>
      <trkpt lat="46.19886" lon="2.24654">
        <ele>379.38</ele>
        <time>2021-08-06T22:36:54Z</time>
      </trkpt>
      <trkpt lat="46.19837" lon="2.25042">
        <ele>380.34</ele>
        <time>2021-08-06T22:37:05Z</time>
      </trkpt>
      <trkpt lat="46.19859" lon="2.2529">
        <ele>379.38</ele>
        <time>2021-08-06T22:37:12Z</time>
      </trkpt>
      <trkpt lat="46.19931" lon="2.25527">
        <ele>378.9</ele>
        <time>2021-08-06T22:37:19Z</time>
      </trkpt>
      <trkpt lat="46.20187" lon="2.26053">
        <ele>378.9</ele>
        <time>2021-08-06T22:37:36Z</time>
      </trkpt>
      <trkpt lat="46.20605" lon="2.26894">
        <ele>377.94</ele>
        <time>2021-08-06T22:38:04Z</time>
      </trkpt>
      <trkpt lat="46.20847" lon="2.27296">
        <ele>377.45</ele>
        <time>2021-08-06T22:38:19Z</time>
      </trkpt>
      <trkpt lat="46.2126" lon="2.2797">
        <ele>375.05</ele>
        <time>2021-08-06T22:38:43Z</time>
      </trkpt>
      <trkpt lat="46.21578" lon="2.28522">
        <ele>376.01</ele>
        <time>2021-08-06T22:39:02Z</time>
      </trkpt>
      <trkpt lat="46.21791" lon="2.29003">
        <ele>374.57</ele>
        <time>2021-08-06T22:39:17Z</time>
      </trkpt>
      <trkpt lat="46.22067" lon="2.29647">
        <ele>384.18</ele>
        <time>2021-08-06T22:39:37Z</time>
      </trkpt>
      <trkpt lat="46.22242" lon="2.29933">
        <ele>388.51</ele>
        <time>2021-08-06T22:39:47Z</time>
      </trkpt>
      <trkpt lat="46.22483" lon="2.30212">
        <ele>398.12</ele>
        <time>2021-08-06T22:39:59Z</time>
      </trkpt>
      <trkpt lat="46.22694" lon="2.30522">
        <ele>403.89</ele>
        <time>2021-08-06T22:40:11Z</time>
      </trkpt>
      <trkpt lat="46.23162" lon="2.31273">
        <ele>414.47</ele>
        <time>2021-08-06T22:40:38Z</time>
      </trkpt>
      <trkpt lat="46.23586" lon="2.31987">
        <ele>422.64</ele>
        <time>2021-08-06T22:41:02Z</time>
      </trkpt>
      <trkpt lat="46.23744" lon="2.32354">
        <ele>413.5</ele>
        <time>2021-08-06T22:41:14Z</time>
      </trkpt>
      <trkpt lat="46.23887" lon="2.32811">
        <ele>400.53</ele>
        <time>2021-08-06T22:41:27Z</time>
      </trkpt>
      <trkpt lat="46.2405" lon="2.33317">
        <ele>399.57</ele>
        <time>2021-08-06T22:41:42Z</time>
      </trkpt>
      <trkpt lat="46.24231" lon="2.33742">
        <ele>406.29</ele>
        <time>2021-08-06T22:41:56Z</time>
      </trkpt>
      <trkpt lat="46.24564" lon="2.34487">
        <ele>415.91</ele>
        <time>2021-08-06T22:42:21Z</time>
      </trkpt>
      <trkpt lat="46.24799" lon="2.3497">
        <ele>424.08</ele>
        <time>2021-08-06T22:42:37Z</time>
      </trkpt>
      <trkpt lat="46.24983" lon="2.35215">
        <ele>431.29</ele>
        <time>2021-08-06T22:42:47Z</time>
      </trkpt>
      <trkpt lat="46.25411" lon="2.35691">
        <ele>445.71</ele>
        <time>2021-08-06T22:43:08Z</time>
      </trkpt>
      <trkpt lat="46.2592" lon="2.36254">
        <ele>456.28</ele>
        <time>2021-08-06T22:43:35Z</time>
      </trkpt>
      <trkpt lat="46.26261" lon="2.36647">
        <ele>450.03</ele>
        <time>2021-08-06T22:43:51Z</time>
      </trkpt>
      <trkpt lat="46.26497" lon="2.37009">
        <ele>445.23</ele>
        <time>2021-08-06T22:44:03Z</time>
      </trkpt>
      <trkpt lat="46.26842" lon="2.37583">
        <ele>441.38</ele>
        <time>2021-08-06T22:44:22Z</time>
      </trkpt>
      <trkpt lat="46.27263" lon="2.38282">
        <ele>449.55</ele>
        <time>2021-08-06T22:44:46Z</time>
      </trkpt>
      <trkpt lat="46.27664" lon="2.38948">
        <ele>451.48</ele>
        <time>2021-08-06T22:45:08Z</time>
      </trkpt>
      <trkpt lat="46.27985" lon="2.39481">
        <ele>455.32</ele>
        <time>2021-08-06T22:45:28Z</time>
      </trkpt>
      <trkpt lat="46.28334" lon="2.40056">
        <ele>455.32</ele>
        <time>2021-08-06T22:45:48Z</time>
      </trkpt>
      <trkpt lat="46.28674" lon="2.40623">
        <ele>462.05</ele>
        <time>2021-08-06T22:46:09Z</time>
      </trkpt>
      <trkpt lat="46.28865" lon="2.40982">
        <ele>465.42</ele>
        <time>2021-08-06T22:46:21Z</time>
      </trkpt>
      <trkpt lat="46.29032" lon="2.41418">
        <ele>466.86</ele>
        <time>2021-08-06T22:46:34Z</time>
      </trkpt>
      <trkpt lat="46.29295" lon="2.42148">
        <ele>471.66</ele>
        <time>2021-08-06T22:46:56Z</time>
      </trkpt>
      <trkpt lat="46.29577" lon="2.42926">
        <ele>482.72</ele>
        <time>2021-08-06T22:47:20Z</time>
      </trkpt>
      <trkpt lat="46.29737" lon="2.43307">
        <ele>488.01</ele>
        <time>2021-08-06T22:47:32Z</time>
      </trkpt>
      <trkpt lat="46.29911" lon="2.43606">
        <ele>484.64</ele>
        <time>2021-08-06T22:47:42Z</time>
      </trkpt>
      <trkpt lat="46.30201" lon="2.44017">
        <ele>468.78</ele>
        <time>2021-08-06T22:47:56Z</time>
      </trkpt>
      <trkpt lat="46.30377" lon="2.44341">
        <ele>457.72</ele>
        <time>2021-08-06T22:48:06Z</time>
      </trkpt>
      <trkpt lat="46.30514" lon="2.44695">
        <ele>441.86</ele>
        <time>2021-08-06T22:48:16Z</time>
      </trkpt>
      <trkpt lat="46.30665" lon="2.45203">
        <ele>448.59</ele>
        <time>2021-08-06T22:48:30Z</time>
      </trkpt>
      <trkpt lat="46.30869" lon="2.45895">
        <ele>451.48</ele>
        <time>2021-08-06T22:48:50Z</time>
      </trkpt>
      <trkpt lat="46.31038" lon="2.46469">
        <ele>434.65</ele>
        <time>2021-08-06T22:49:06Z</time>
      </trkpt>
      <trkpt lat="46.3119" lon="2.46886">
        <ele>424.08</ele>
        <time>2021-08-06T22:49:17Z</time>
      </trkpt>
      <trkpt lat="46.31359" lon="2.47286">
        <ele>409.66</ele>
        <time>2021-08-06T22:49:30Z</time>
      </trkpt>
      <trkpt lat="46.31496" lon="2.47716">
        <ele>401.49</ele>
        <time>2021-08-06T22:49:42Z</time>
      </trkpt>
      <trkpt lat="46.31587" lon="2.48162">
        <ele>399.57</ele>
        <time>2021-08-06T22:49:54Z</time>
      </trkpt>
      <trkpt lat="46.31634" lon="2.48662">
        <ele>398.12</ele>
        <time>2021-08-06T22:50:07Z</time>
      </trkpt>
      <trkpt lat="46.3169" lon="2.49636">
        <ele>395.72</ele>
        <time>2021-08-06T22:50:32Z</time>
      </trkpt>
      <trkpt lat="46.31738" lon="2.50089">
        <ele>393.8</ele>
        <time>2021-08-06T22:50:44Z</time>
      </trkpt>
      <trkpt lat="46.31848" lon="2.50648">
        <ele>383.22</ele>
        <time>2021-08-06T22:50:59Z</time>
      </trkpt>
      <trkpt lat="46.32018" lon="2.51465">
        <ele>362.55</ele>
        <time>2021-08-06T22:51:21Z</time>
      </trkpt>
      <trkpt lat="46.32189" lon="2.52241">
        <ele>340.92</ele>
        <time>2021-08-06T22:51:43Z</time>
      </trkpt>
      <trkpt lat="46.32331" lon="2.52662">
        <ele>331.31</ele>
        <time>2021-08-06T22:51:56Z</time>
      </trkpt>
      <trkpt lat="46.325" lon="2.53145">
        <ele>317.85</ele>
        <time>2021-08-06T22:52:12Z</time>
      </trkpt>
      <trkpt lat="46.32602" lon="2.53351">
        <ele>312.09</ele>
        <time>2021-08-06T22:52:19Z</time>
      </trkpt>
      <trkpt lat="46.32745" lon="2.53523">
        <ele>304.88</ele>
        <time>2021-08-06T22:52:26Z</time>
      </trkpt>
      <trkpt lat="46.32936" lon="2.53648">
        <ele>302.47</ele>
        <time>2021-08-06T22:52:33Z</time>
      </trkpt>
      <trkpt lat="46.33075" lon="2.53684">
        <ele>302.47</ele>
        <time>2021-08-06T22:52:40Z</time>
      </trkpt>
      <trkpt lat="46.33252" lon="2.53692">
        <ele>304.88</ele>
        <time>2021-08-06T22:52:49Z</time>
      </trkpt>
      <trkpt lat="46.33378" lon="2.53701">
        <ele>303.43</ele>
        <time>2021-08-06T22:52:56Z</time>
      </trkpt>
      <trkpt lat="46.33378" lon="2.53701">
        <ele>302.95</ele>
        <time>2021-08-06T22:52:57Z</time>
      </trkpt>
      <trkpt lat="46.33391" lon="2.53708">
        <ele>302.95</ele>
        <time>2021-08-06T22:52:58Z</time>
      </trkpt>
      <trkpt lat="46.33403" lon="2.53715">
        <ele>303.91</ele>
        <time>2021-08-06T22:52:59Z</time>
      </trkpt>
      <trkpt lat="46.33414" lon="2.53725">
        <ele>304.39</ele>
        <time>2021-08-06T22:53:00Z</time>
      </trkpt>
      <trkpt lat="46.33425" lon="2.53736">
        <ele>304.88</ele>
        <time>2021-08-06T22:53:01Z</time>
      </trkpt>
      <trkpt lat="46.33435" lon="2.53748">
        <ele>305.36</ele>
        <time>2021-08-06T22:53:02Z</time>
      </trkpt>
      <trkpt lat="46.33445" lon="2.53762">
        <ele>305.36</ele>
        <time>2021-08-06T22:53:03Z</time>
      </trkpt>
      <trkpt lat="46.33456" lon="2.53776">
        <ele>305.36</ele>
        <time>2021-08-06T22:53:04Z</time>
      </trkpt>
      <trkpt lat="46.33467" lon="2.53791">
        <ele>304.88</ele>
        <time>2021-08-06T22:53:05Z</time>
      </trkpt>
      <trkpt lat="46.33481" lon="2.53831">
        <ele>304.88</ele>
        <time>2021-08-06T22:53:06Z</time>
      </trkpt>
      <trkpt lat="46.33481" lon="2.53831">
        <ele>303.91</ele>
        <time>2021-08-06T22:53:07Z</time>
      </trkpt>
      <trkpt lat="46.33486" lon="2.53854">
        <ele>303.43</ele>
        <time>2021-08-06T22:53:08Z</time>
      </trkpt>
      <trkpt lat="46.3349" lon="2.53877">
        <ele>303.43</ele>
        <time>2021-08-06T22:53:09Z</time>
      </trkpt>
      <trkpt lat="46.33492" lon="2.53902">
        <ele>304.39</ele>
        <time>2021-08-06T22:53:10Z</time>
      </trkpt>
      <trkpt lat="46.33492" lon="2.53925">
        <ele>304.88</ele>
        <time>2021-08-06T22:53:11Z</time>
      </trkpt>
      <trkpt lat="46.33491" lon="2.53948">
        <ele>305.36</ele>
        <time>2021-08-06T22:53:12Z</time>
      </trkpt>
      <trkpt lat="46.33488" lon="2.54029">
        <ele>307.76</ele>
        <time>2021-08-06T22:53:16Z</time>
      </trkpt>
      <trkpt lat="46.33487" lon="2.54044">
        <ele>308.72</ele>
        <time>2021-08-06T22:53:17Z</time>
      </trkpt>
      <trkpt lat="46.33471" lon="2.5408">
        <ele>310.16</ele>
        <time>2021-08-06T22:53:19Z</time>
      </trkpt>
      <trkpt lat="46.33471" lon="2.54085">
        <ele>310.16</ele>
        <time>2021-08-06T22:53:20Z</time>
      </trkpt>
      <trkpt lat="46.33471" lon="2.54093">
        <ele>309.68</ele>
        <time>2021-08-06T22:53:21Z</time>
      </trkpt>
      <trkpt lat="46.33476" lon="2.54115">
        <ele>310.64</ele>
        <time>2021-08-06T22:53:22Z</time>
      </trkpt>
      <trkpt lat="46.33472" lon="2.54129">
        <ele>310.64</ele>
        <time>2021-08-06T22:53:23Z</time>
      </trkpt>
      <trkpt lat="46.33468" lon="2.54145">
        <ele>311.6</ele>
        <time>2021-08-06T22:53:24Z</time>
      </trkpt>
      <trkpt lat="46.3346" lon="2.54178">
        <ele>311.6</ele>
        <time>2021-08-06T22:53:26Z</time>
      </trkpt>
      <trkpt lat="46.33459" lon="2.54207">
        <ele>311.12</ele>
        <time>2021-08-06T22:53:27Z</time>
      </trkpt>
      <trkpt lat="46.33459" lon="2.54207">
        <ele>310.64</ele>
        <time>2021-08-06T22:53:28Z</time>
      </trkpt>
      <trkpt lat="46.33461" lon="2.54221">
        <ele>310.64</ele>
        <time>2021-08-06T22:53:29Z</time>
      </trkpt>
      <trkpt lat="46.33468" lon="2.54247">
        <ele>309.68</ele>
        <time>2021-08-06T22:53:30Z</time>
      </trkpt>
      <trkpt lat="46.33468" lon="2.54247">
        <ele>310.16</ele>
        <time>2021-08-06T22:53:31Z</time>
      </trkpt>
      <trkpt lat="46.33543" lon="2.5443">
        <ele>305.84</ele>
        <time>2021-08-06T22:53:41Z</time>
      </trkpt>
      <trkpt lat="46.33643" lon="2.54679">
        <ele>297.67</ele>
        <time>2021-08-06T22:53:54Z</time>
      </trkpt>
      <trkpt lat="46.33714" lon="2.54936">
        <ele>283.73</ele>
        <time>2021-08-06T22:54:04Z</time>
      </trkpt>
      <trkpt lat="46.33749" lon="2.55241">
        <ele>276.52</ele>
        <time>2021-08-06T22:54:15Z</time>
      </trkpt>
      <trkpt lat="46.33768" lon="2.5576">
        <ele>260.17</ele>
        <time>2021-08-06T22:54:35Z</time>
      </trkpt>
      <trkpt lat="46.33782" lon="2.56086">
        <ele>250.56</ele>
        <time>2021-08-06T22:54:49Z</time>
      </trkpt>
      <trkpt lat="46.33784" lon="2.56208">
        <ele>250.08</ele>
        <time>2021-08-06T22:54:57Z</time>
      </trkpt>
      <trkpt lat="46.33784" lon="2.56208">
        <ele>249.6</ele>
        <time>2021-08-06T22:54:58Z</time>
      </trkpt>
      <trkpt lat="46.33784" lon="2.56216">
        <ele>249.12</ele>
        <time>2021-08-06T22:54:59Z</time>
      </trkpt>
      <trkpt lat="46.33781" lon="2.5622">
        <ele>248.16</ele>
        <time>2021-08-06T22:55:00Z</time>
      </trkpt>
      <trkpt lat="46.33769" lon="2.56224">
        <ele>247.68</ele>
        <time>2021-08-06T22:55:01Z</time>
      </trkpt>
      <trkpt lat="46.33769" lon="2.56224">
        <ele>246.72</ele>
        <time>2021-08-06T22:55:02Z</time>
      </trkpt>
      <trkpt lat="46.33763" lon="2.5622">
        <ele>245.75</ele>
        <time>2021-08-06T22:55:03Z</time>
      </trkpt>
      <trkpt lat="46.33757" lon="2.56215">
        <ele>244.79</ele>
        <time>2021-08-06T22:55:04Z</time>
      </trkpt>
      <trkpt lat="46.33749" lon="2.5621">
        <ele>244.31</ele>
        <time>2021-08-06T22:55:05Z</time>
      </trkpt>
      <trkpt lat="46.33741" lon="2.56204">
        <ele>245.27</ele>
        <time>2021-08-06T22:55:06Z</time>
      </trkpt>
      <trkpt lat="46.33735" lon="2.56193">
        <ele>244.79</ele>
        <time>2021-08-06T22:55:07Z</time>
      </trkpt>
      <trkpt lat="46.33727" lon="2.56181">
        <ele>244.31</ele>
        <time>2021-08-06T22:55:08Z</time>
      </trkpt>
      <trkpt lat="46.33706" lon="2.56144">
        <ele>242.39</ele>
        <time>2021-08-06T22:55:11Z</time>
      </trkpt>
      <trkpt lat="46.33698" lon="2.56135">
        <ele>242.87</ele>
        <time>2021-08-06T22:55:12Z</time>
      </trkpt>
      <trkpt lat="46.33689" lon="2.56126">
        <ele>242.39</ele>
        <time>2021-08-06T22:55:13Z</time>
      </trkpt>
      <trkpt lat="46.33671" lon="2.5611">
        <ele>241.91</ele>
        <time>2021-08-06T22:55:14Z</time>
      </trkpt>
      <trkpt lat="46.33671" lon="2.5611">
        <ele>241.91</ele>
        <time>2021-08-06T22:55:15Z</time>
      </trkpt>
      <trkpt lat="46.33651" lon="2.56107">
        <ele>242.39</ele>
        <time>2021-08-06T22:55:16Z</time>
      </trkpt>
      <trkpt lat="46.33651" lon="2.56107">
        <ele>243.35</ele>
        <time>2021-08-06T22:55:17Z</time>
      </trkpt>
      <trkpt lat="46.33628" lon="2.56103">
        <ele>243.35</ele>
        <time>2021-08-06T22:55:18Z</time>
      </trkpt>
      <trkpt lat="46.33575" lon="2.56095">
        <ele>241.91</ele>
        <time>2021-08-06T22:55:23Z</time>
      </trkpt>
      <trkpt lat="46.33567" lon="2.56093">
        <ele>240.95</ele>
        <time>2021-08-06T22:55:24Z</time>
      </trkpt>
      <trkpt lat="46.33515" lon="2.56063">
        <ele>240.95</ele>
        <time>2021-08-06T22:55:31Z</time>
      </trkpt>
      <trkpt lat="46.33511" lon="2.56058">
        <ele>240.95</ele>
        <time>2021-08-06T22:55:32Z</time>
      </trkpt>
      <trkpt lat="46.33511" lon="2.56058">
        <ele>241.43</ele>
        <time>2021-08-06T22:55:33Z</time>
      </trkpt>
      <trkpt lat="46.33505" lon="2.56046">
        <ele>241.43</ele>
        <time>2021-08-06T22:55:34Z</time>
      </trkpt>
      <trkpt lat="46.33505" lon="2.56046">
        <ele>241.43</ele>
        <time>2021-08-06T22:55:35Z</time>
      </trkpt>
      <trkpt lat="46.33502" lon="2.5604">
        <ele>241.43</ele>
        <time>2021-08-06T22:55:36Z</time>
      </trkpt>
      <trkpt lat="46.335" lon="2.56034">
        <ele>241.43</ele>
        <time>2021-08-06T22:55:37Z</time>
      </trkpt>
      <trkpt lat="46.33497" lon="2.56027">
        <ele>241.43</ele>
        <time>2021-08-06T22:55:38Z</time>
      </trkpt>
      <trkpt lat="46.33465" lon="2.55916">
        <ele>241.91</ele>
        <time>2021-08-06T22:55:49Z</time>
      </trkpt>
      <trkpt lat="46.33455" lon="2.55881">
        <ele>241.91</ele>
        <time>2021-08-06T22:55:52Z</time>
      </trkpt>
      <trkpt lat="46.33449" lon="2.55871">
        <ele>241.91</ele>
        <time>2021-08-06T22:55:53Z</time>
      </trkpt>
      <trkpt lat="46.33443" lon="2.55861">
        <ele>241.91</ele>
        <time>2021-08-06T22:55:54Z</time>
      </trkpt>
      <trkpt lat="46.33436" lon="2.55852">
        <ele>242.39</ele>
        <time>2021-08-06T22:55:55Z</time>
      </trkpt>
      <trkpt lat="46.3342" lon="2.55836">
        <ele>242.39</ele>
        <time>2021-08-06T22:55:56Z</time>
      </trkpt>
      <trkpt lat="46.3342" lon="2.55836">
        <ele>242.39</ele>
        <time>2021-08-06T22:55:57Z</time>
      </trkpt>
      <trkpt lat="46.33412" lon="2.55832">
        <ele>242.39</ele>
        <time>2021-08-06T22:55:58Z</time>
      </trkpt>
      <trkpt lat="46.33403" lon="2.55827">
        <ele>242.39</ele>
        <time>2021-08-06T22:55:59Z</time>
      </trkpt>
      <trkpt lat="46.33387" lon="2.55819">
        <ele>242.39</ele>
        <time>2021-08-06T22:56:00Z</time>
      </trkpt>
      <trkpt lat="46.33335" lon="2.55792">
        <ele>242.39</ele>
        <time>2021-08-06T22:56:10Z</time>
      </trkpt>
      <trkpt lat="46.33258" lon="2.55753">
        <ele>241.43</ele>
        <time>2021-08-06T22:56:19Z</time>
      </trkpt>
      <trkpt lat="46.33155" lon="2.55684">
        <ele>242.39</ele>
        <time>2021-08-06T22:56:29Z</time>
      </trkpt>
      <trkpt lat="46.33131" lon="2.55667">
        <ele>243.83</ele>
        <time>2021-08-06T22:56:35Z</time>
      </trkpt>
      <trkpt lat="46.33092" lon="2.55631">
        <ele>244.79</ele>
        <time>2021-08-06T22:56:42Z</time>
      </trkpt>
      <trkpt lat="46.33018" lon="2.55518">
        <ele>243.83</ele>
        <time>2021-08-06T22:56:52Z</time>
      </trkpt>
      <trkpt lat="46.32981" lon="2.55466">
        <ele>243.35</ele>
        <time>2021-08-06T22:56:59Z</time>
      </trkpt>
      <trkpt lat="46.32969" lon="2.55454">
        <ele>243.83</ele>
        <time>2021-08-06T22:57:08Z</time>
      </trkpt>
      <trkpt lat="46.32965" lon="2.55451">
        <ele>243.83</ele>
        <time>2021-08-06T22:57:14Z</time>
      </trkpt>
      <trkpt lat="46.32963" lon="2.5545">
        <ele>243.35</ele>
        <time>2021-08-06T22:57:15Z</time>
      </trkpt>
      <trkpt lat="46.32951" lon="2.55446">
        <ele>243.35</ele>
        <time>2021-08-06T22:57:19Z</time>
      </trkpt>
      <trkpt lat="46.32946" lon="2.55446">
        <ele>242.87</ele>
        <time>2021-08-06T22:57:20Z</time>
      </trkpt>
      <trkpt lat="46.32934" lon="2.55448">
        <ele>242.87</ele>
        <time>2021-08-06T22:57:21Z</time>
      </trkpt>
      <trkpt lat="46.32934" lon="2.55448">
        <ele>242.87</ele>
        <time>2021-08-06T22:57:22Z</time>
      </trkpt>
      <trkpt lat="46.32928" lon="2.55452">
        <ele>242.39</ele>
        <time>2021-08-06T22:57:23Z</time>
      </trkpt>
      <trkpt lat="46.32921" lon="2.55456">
        <ele>242.39</ele>
        <time>2021-08-06T22:57:24Z</time>
      </trkpt>
      <trkpt lat="46.32914" lon="2.55461">
        <ele>242.39</ele>
        <time>2021-08-06T22:57:25Z</time>
      </trkpt>
      <trkpt lat="46.32844" lon="2.55523">
        <ele>242.39</ele>
        <time>2021-08-06T22:57:37Z</time>
      </trkpt>
      <trkpt lat="46.32777" lon="2.5556">
        <ele>243.83</ele>
        <time>2021-08-06T22:57:47Z</time>
      </trkpt>
      <trkpt lat="46.32769" lon="2.55566">
        <ele>243.83</ele>
        <time>2021-08-06T22:57:48Z</time>
      </trkpt>
      <trkpt lat="46.32762" lon="2.55573">
        <ele>244.31</ele>
        <time>2021-08-06T22:57:49Z</time>
      </trkpt>
      <trkpt lat="46.32755" lon="2.55582">
        <ele>244.79</ele>
        <time>2021-08-06T22:57:50Z</time>
      </trkpt>
      <trkpt lat="46.32748" lon="2.55591">
        <ele>245.27</ele>
        <time>2021-08-06T22:57:51Z</time>
      </trkpt>
      <trkpt lat="46.32743" lon="2.55606">
        <ele>245.27</ele>
        <time>2021-08-06T22:57:52Z</time>
      </trkpt>
      <trkpt lat="46.32676" lon="2.55791">
        <ele>250.56</ele>
        <time>2021-08-06T22:58:03Z</time>
      </trkpt>
      <trkpt lat="46.32632" lon="2.55888">
        <ele>252.48</ele>
        <time>2021-08-06T22:58:10Z</time>
      </trkpt>
      <trkpt lat="46.32624" lon="2.55904">
        <ele>252.48</ele>
        <time>2021-08-06T22:58:11Z</time>
      </trkpt>
      <trkpt lat="46.32622" lon="2.55909">
        <ele>252.96</ele>
        <time>2021-08-06T22:58:12Z</time>
      </trkpt>
      <trkpt lat="46.32622" lon="2.55909">
        <ele>252.96</ele>
        <time>2021-08-06T22:58:13Z</time>
      </trkpt>
      <trkpt lat="46.32611" lon="2.55911">
        <ele>252.96</ele>
        <time>2021-08-06T22:58:14Z</time>
      </trkpt>
      <trkpt lat="46.32607" lon="2.5591">
        <ele>253.44</ele>
        <time>2021-08-06T22:58:15Z</time>
      </trkpt>
      <trkpt lat="46.32602" lon="2.55907">
        <ele>253.44</ele>
        <time>2021-08-06T22:58:16Z</time>
      </trkpt>
      <trkpt lat="46.32595" lon="2.55904">
        <ele>253.44</ele>
        <time>2021-08-06T22:58:17Z</time>
      </trkpt>
      <trkpt lat="46.32563" lon="2.5589">
        <ele>252.96</ele>
        <time>2021-08-06T22:58:21Z</time>
      </trkpt>
      <trkpt lat="46.32552" lon="2.5589">
        <ele>252</ele>
        <time>2021-08-06T22:58:22Z</time>
      </trkpt>
      <trkpt lat="46.32541" lon="2.55891">
        <ele>252.48</ele>
        <time>2021-08-06T22:58:23Z</time>
      </trkpt>
      <trkpt lat="46.32532" lon="2.55894">
        <ele>253.44</ele>
        <time>2021-08-06T22:58:24Z</time>
      </trkpt>
      <trkpt lat="46.32523" lon="2.55898">
        <ele>253.44</ele>
        <time>2021-08-06T22:58:25Z</time>
      </trkpt>
      <trkpt lat="46.32514" lon="2.55901">
        <ele>253.44</ele>
        <time>2021-08-06T22:58:26Z</time>
      </trkpt>
      <trkpt lat="46.32507" lon="2.55903">
        <ele>253.93</ele>
        <time>2021-08-06T22:58:27Z</time>
      </trkpt>
      <trkpt lat="46.32494" lon="2.55908">
        <ele>252.96</ele>
        <time>2021-08-06T22:58:28Z</time>
      </trkpt>
      <trkpt lat="46.32494" lon="2.55908">
        <ele>252.96</ele>
        <time>2021-08-06T22:58:29Z</time>
      </trkpt>
      <trkpt lat="46.32488" lon="2.55902">
        <ele>252</ele>
        <time>2021-08-06T22:58:30Z</time>
      </trkpt>
      <trkpt lat="46.32484" lon="2.55902">
        <ele>250.08</ele>
        <time>2021-08-06T22:58:31Z</time>
      </trkpt>
      <trkpt lat="46.32483" lon="2.55907">
        <ele>249.6</ele>
        <time>2021-08-06T22:58:32Z</time>
      </trkpt>
      <trkpt lat="46.32482" lon="2.55914">
        <ele>248.64</ele>
        <time>2021-08-06T22:58:33Z</time>
      </trkpt>
      <trkpt lat="46.32491" lon="2.55917">
        <ele>249.6</ele>
        <time>2021-08-06T22:58:34Z</time>
      </trkpt>
      <trkpt lat="46.32489" lon="2.55917">
        <ele>250.56</ele>
        <time>2021-08-06T22:58:35Z</time>
      </trkpt>
      <trkpt lat="46.32494" lon="2.55927">
        <ele>250.56</ele>
        <time>2021-08-06T22:58:36Z</time>
      </trkpt>
      <trkpt lat="46.32497" lon="2.55934">
        <ele>251.04</ele>
        <time>2021-08-06T22:58:37Z</time>
      </trkpt>
      <trkpt lat="46.325" lon="2.55944">
        <ele>252</ele>
        <time>2021-08-06T22:58:38Z</time>
      </trkpt>
      <trkpt lat="46.32504" lon="2.55954">
        <ele>252.48</ele>
        <time>2021-08-06T22:58:39Z</time>
      </trkpt>
      <trkpt lat="46.32542" lon="2.56077">
        <ele>263.54</ele>
        <time>2021-08-06T22:58:47Z</time>
      </trkpt>
      <trkpt lat="46.3257" lon="2.56268">
        <ele>270.75</ele>
        <time>2021-08-06T22:58:57Z</time>
      </trkpt>
      <trkpt lat="46.32639" lon="2.56517">
        <ele>269.31</ele>
        <time>2021-08-06T22:59:10Z</time>
      </trkpt>
      <trkpt lat="46.32714" lon="2.5674">
        <ele>259.69</ele>
        <time>2021-08-06T22:59:21Z</time>
      </trkpt>
      <trkpt lat="46.32776" lon="2.56903">
        <ele>255.85</ele>
        <time>2021-08-06T22:59:30Z</time>
      </trkpt>
      <trkpt lat="46.32781" lon="2.56919">
        <ele>255.37</ele>
        <time>2021-08-06T22:59:31Z</time>
      </trkpt>
      <trkpt lat="46.32802" lon="2.57008">
        <ele>249.6</ele>
        <time>2021-08-06T22:59:35Z</time>
      </trkpt>
      <trkpt lat="46.32802" lon="2.57008">
        <ele>249.6</ele>
        <time>2021-08-06T22:59:36Z</time>
      </trkpt>
      <trkpt lat="46.32806" lon="2.57025">
        <ele>248.64</ele>
        <time>2021-08-06T22:59:37Z</time>
      </trkpt>
      <trkpt lat="46.32903" lon="2.5724">
        <ele>237.58</ele>
        <time>2021-08-06T22:59:49Z</time>
      </trkpt>
      <trkpt lat="46.3291" lon="2.57257">
        <ele>237.58</ele>
        <time>2021-08-06T22:59:50Z</time>
      </trkpt>
      <trkpt lat="46.32936" lon="2.57326">
        <ele>234.7</ele>
        <time>2021-08-06T22:59:54Z</time>
      </trkpt>
      <trkpt lat="46.32942" lon="2.57343">
        <ele>234.22</ele>
        <time>2021-08-06T22:59:55Z</time>
      </trkpt>
      <trkpt lat="46.3295" lon="2.57359">
        <ele>234.7</ele>
        <time>2021-08-06T22:59:56Z</time>
      </trkpt>
      <trkpt lat="46.32959" lon="2.57371">
        <ele>235.66</ele>
        <time>2021-08-06T22:59:57Z</time>
      </trkpt>
      <trkpt lat="46.32968" lon="2.57384">
        <ele>235.66</ele>
        <time>2021-08-06T22:59:58Z</time>
      </trkpt>
      <trkpt lat="46.3298" lon="2.57394">
        <ele>235.66</ele>
        <time>2021-08-06T22:59:59Z</time>
      </trkpt>
      <trkpt lat="46.33062" lon="2.57463">
        <ele>235.66</ele>
        <time>2021-08-06T23:00:06Z</time>
      </trkpt>
      <trkpt lat="46.3307" lon="2.57475">
        <ele>235.66</ele>
        <time>2021-08-06T23:00:07Z</time>
      </trkpt>
      <trkpt lat="46.33078" lon="2.57488">
        <ele>236.14</ele>
        <time>2021-08-06T23:00:08Z</time>
      </trkpt>
      <trkpt lat="46.33087" lon="2.57501">
        <ele>236.62</ele>
        <time>2021-08-06T23:00:09Z</time>
      </trkpt>
      <trkpt lat="46.33094" lon="2.57513">
        <ele>237.1</ele>
        <time>2021-08-06T23:00:10Z</time>
      </trkpt>
      <trkpt lat="46.33144" lon="2.57634">
        <ele>237.58</ele>
        <time>2021-08-06T23:00:20Z</time>
      </trkpt>
      <trkpt lat="46.33152" lon="2.57651">
        <ele>237.58</ele>
        <time>2021-08-06T23:00:27Z</time>
      </trkpt>
      <trkpt lat="46.33154" lon="2.57658">
        <ele>237.58</ele>
        <time>2021-08-06T23:00:36Z</time>
      </trkpt>
      <trkpt lat="46.33155" lon="2.57669">
        <ele>238.06</ele>
        <time>2021-08-06T23:00:37Z</time>
      </trkpt>
      <trkpt lat="46.33151" lon="2.57673">
        <ele>238.06</ele>
        <time>2021-08-06T23:00:38Z</time>
      </trkpt>
      <trkpt lat="46.33147" lon="2.57677">
        <ele>238.06</ele>
        <time>2021-08-06T23:00:39Z</time>
      </trkpt>
      <trkpt lat="46.33141" lon="2.57682">
        <ele>238.54</ele>
        <time>2021-08-06T23:00:40Z</time>
      </trkpt>
      <trkpt lat="46.33069" lon="2.57762">
        <ele>239.51</ele>
        <time>2021-08-06T23:00:49Z</time>
      </trkpt>
      <trkpt lat="46.33036" lon="2.57827">
        <ele>239.02</ele>
        <time>2021-08-06T23:00:55Z</time>
      </trkpt>
      <trkpt lat="46.33033" lon="2.57836">
        <ele>239.02</ele>
        <time>2021-08-06T23:00:56Z</time>
      </trkpt>
      <trkpt lat="46.33026" lon="2.57842">
        <ele>239.02</ele>
        <time>2021-08-06T23:00:57Z</time>
      </trkpt>
      <trkpt lat="46.33023" lon="2.57855">
        <ele>239.02</ele>
        <time>2021-08-06T23:00:58Z</time>
      </trkpt>
      <trkpt lat="46.33021" lon="2.57859">
        <ele>238.54</ele>
        <time>2021-08-06T23:00:59Z</time>
      </trkpt>
      <trkpt lat="46.33018" lon="2.5787">
        <ele>238.06</ele>
        <time>2021-08-06T23:01:00Z</time>
      </trkpt>
      <trkpt lat="46.33015" lon="2.57881">
        <ele>238.54</ele>
        <time>2021-08-06T23:01:01Z</time>
      </trkpt>
      <trkpt lat="46.33011" lon="2.57894">
        <ele>237.1</ele>
        <time>2021-08-06T23:01:02Z</time>
      </trkpt>
      <trkpt lat="46.32955" lon="2.58075">
        <ele>230.85</ele>
        <time>2021-08-06T23:01:13Z</time>
      </trkpt>
      <trkpt lat="46.32952" lon="2.58084">
        <ele>230.85</ele>
        <time>2021-08-06T23:01:15Z</time>
      </trkpt>
      <trkpt lat="46.32949" lon="2.58093">
        <ele>230.85</ele>
        <time>2021-08-06T23:01:16Z</time>
      </trkpt>
      <trkpt lat="46.32945" lon="2.58101">
        <ele>231.33</ele>
        <time>2021-08-06T23:01:17Z</time>
      </trkpt>
      <trkpt lat="46.32943" lon="2.58114">
        <ele>231.33</ele>
        <time>2021-08-06T23:01:18Z</time>
      </trkpt>
      <trkpt lat="46.32942" lon="2.5812">
        <ele>231.33</ele>
        <time>2021-08-06T23:01:19Z</time>
      </trkpt>
      <trkpt lat="46.32939" lon="2.5813">
        <ele>231.33</ele>
        <time>2021-08-06T23:01:20Z</time>
      </trkpt>
      <trkpt lat="46.32936" lon="2.58141">
        <ele>231.33</ele>
        <time>2021-08-06T23:01:21Z</time>
      </trkpt>
      <trkpt lat="46.32922" lon="2.58185">
        <ele>230.85</ele>
        <time>2021-08-06T23:01:25Z</time>
      </trkpt>
      <trkpt lat="46.32919" lon="2.58196">
        <ele>230.37</ele>
        <time>2021-08-06T23:01:26Z</time>
      </trkpt>
      <trkpt lat="46.32915" lon="2.58204">
        <ele>229.89</ele>
        <time>2021-08-06T23:01:27Z</time>
      </trkpt>
      <trkpt lat="46.32912" lon="2.58211">
        <ele>230.37</ele>
        <time>2021-08-06T23:01:28Z</time>
      </trkpt>
      <trkpt lat="46.32896" lon="2.58212">
        <ele>230.37</ele>
        <time>2021-08-06T23:01:29Z</time>
      </trkpt>
      <trkpt lat="46.32892" lon="2.58218">
        <ele>230.85</ele>
        <time>2021-08-06T23:01:30Z</time>
      </trkpt>
      <trkpt lat="46.32888" lon="2.58223">
        <ele>230.37</ele>
        <time>2021-08-06T23:01:31Z</time>
      </trkpt>
      <trkpt lat="46.32888" lon="2.58223">
        <ele>229.89</ele>
        <time>2021-08-06T23:01:32Z</time>
      </trkpt>
      <trkpt lat="46.32893" lon="2.58238">
        <ele>229.89</ele>
        <time>2021-08-06T23:01:33Z</time>
      </trkpt>
      <trkpt lat="46.32893" lon="2.58238">
        <ele>229.41</ele>
        <time>2021-08-06T23:01:34Z</time>
      </trkpt>
      <trkpt lat="46.32885" lon="2.58251">
        <ele>229.41</ele>
        <time>2021-08-06T23:01:35Z</time>
      </trkpt>
      <trkpt lat="46.3288" lon="2.58257">
        <ele>229.41</ele>
        <time>2021-08-06T23:01:36Z</time>
      </trkpt>
      <trkpt lat="46.32873" lon="2.58264">
        <ele>229.89</ele>
        <time>2021-08-06T23:01:37Z</time>
      </trkpt>
      <trkpt lat="46.32815" lon="2.58346">
        <ele>236.14</ele>
        <time>2021-08-06T23:01:44Z</time>
      </trkpt>
      <trkpt lat="46.32809" lon="2.58362">
        <ele>237.1</ele>
        <time>2021-08-06T23:01:45Z</time>
      </trkpt>
      <trkpt lat="46.32803" lon="2.58377">
        <ele>238.06</ele>
        <time>2021-08-06T23:01:46Z</time>
      </trkpt>
      <trkpt lat="46.32797" lon="2.58392">
        <ele>238.54</ele>
        <time>2021-08-06T23:01:47Z</time>
      </trkpt>
      <trkpt lat="46.32795" lon="2.5841">
        <ele>239.99</ele>
        <time>2021-08-06T23:01:48Z</time>
      </trkpt>
      <trkpt lat="46.32795" lon="2.58426">
        <ele>240.95</ele>
        <time>2021-08-06T23:01:49Z</time>
      </trkpt>
      <trkpt lat="46.32795" lon="2.58444">
        <ele>241.43</ele>
        <time>2021-08-06T23:01:50Z</time>
      </trkpt>
      <trkpt lat="46.32795" lon="2.5846">
        <ele>242.39</ele>
        <time>2021-08-06T23:01:51Z</time>
      </trkpt>
      <trkpt lat="46.32795" lon="2.58476">
        <ele>243.83</ele>
        <time>2021-08-06T23:01:52Z</time>
      </trkpt>
      <trkpt lat="46.32802" lon="2.58509">
        <ele>245.75</ele>
        <time>2021-08-06T23:01:53Z</time>
      </trkpt>
      <trkpt lat="46.32802" lon="2.58509">
        <ele>246.23</ele>
        <time>2021-08-06T23:01:54Z</time>
      </trkpt>
      <trkpt lat="46.32807" lon="2.58525">
        <ele>245.27</ele>
        <time>2021-08-06T23:01:55Z</time>
      </trkpt>
      <trkpt lat="46.32813" lon="2.58542">
        <ele>244.79</ele>
        <time>2021-08-06T23:01:56Z</time>
      </trkpt>
      <trkpt lat="46.32843" lon="2.58626">
        <ele>250.56</ele>
        <time>2021-08-06T23:02:00Z</time>
      </trkpt>
      <trkpt lat="46.32843" lon="2.58626">
        <ele>251.52</ele>
        <time>2021-08-06T23:02:01Z</time>
      </trkpt>
      <trkpt lat="46.32845" lon="2.58644">
        <ele>252</ele>
        <time>2021-08-06T23:02:02Z</time>
      </trkpt>
      <trkpt lat="46.32845" lon="2.58664">
        <ele>253.93</ele>
        <time>2021-08-06T23:02:03Z</time>
      </trkpt>
      <trkpt lat="46.32845" lon="2.58685">
        <ele>254.89</ele>
        <time>2021-08-06T23:02:04Z</time>
      </trkpt>
      <trkpt lat="46.32834" lon="2.58723">
        <ele>255.85</ele>
        <time>2021-08-06T23:02:05Z</time>
      </trkpt>
      <trkpt lat="46.32834" lon="2.58723">
        <ele>256.33</ele>
        <time>2021-08-06T23:02:06Z</time>
      </trkpt>
      <trkpt lat="46.32828" lon="2.58742">
        <ele>257.29</ele>
        <time>2021-08-06T23:02:07Z</time>
      </trkpt>
      <trkpt lat="46.32812" lon="2.58773">
        <ele>257.29</ele>
        <time>2021-08-06T23:02:08Z</time>
      </trkpt>
      <trkpt lat="46.32812" lon="2.58773">
        <ele>258.25</ele>
        <time>2021-08-06T23:02:09Z</time>
      </trkpt>
      <trkpt lat="46.32794" lon="2.58802">
        <ele>258.73</ele>
        <time>2021-08-06T23:02:10Z</time>
      </trkpt>
      <trkpt lat="46.32782" lon="2.58813">
        <ele>259.69</ele>
        <time>2021-08-06T23:02:11Z</time>
      </trkpt>
      <trkpt lat="46.32771" lon="2.58824">
        <ele>260.17</ele>
        <time>2021-08-06T23:02:12Z</time>
      </trkpt>
      <trkpt lat="46.32771" lon="2.58824">
        <ele>260.65</ele>
        <time>2021-08-06T23:02:13Z</time>
      </trkpt>
      <trkpt lat="46.32758" lon="2.58833">
        <ele>261.14</ele>
        <time>2021-08-06T23:02:14Z</time>
      </trkpt>
      <trkpt lat="46.32655" lon="2.58899">
        <ele>263.54</ele>
        <time>2021-08-06T23:02:24Z</time>
      </trkpt>
      <trkpt lat="46.32643" lon="2.58886">
        <ele>263.06</ele>
        <time>2021-08-06T23:02:25Z</time>
      </trkpt>
      <trkpt lat="46.32639" lon="2.5889">
        <ele>262.58</ele>
        <time>2021-08-06T23:02:26Z</time>
      </trkpt>
      <trkpt lat="46.32636" lon="2.58892">
        <ele>262.1</ele>
        <time>2021-08-06T23:02:27Z</time>
      </trkpt>
      <trkpt lat="46.32634" lon="2.58903">
        <ele>262.1</ele>
        <time>2021-08-06T23:02:28Z</time>
      </trkpt>
      <trkpt lat="46.32639" lon="2.58915">
        <ele>262.1</ele>
        <time>2021-08-06T23:02:29Z</time>
      </trkpt>
      <trkpt lat="46.32639" lon="2.58915">
        <ele>261.62</ele>
        <time>2021-08-06T23:02:30Z</time>
      </trkpt>
      <trkpt lat="46.32641" lon="2.58917">
        <ele>261.62</ele>
        <time>2021-08-06T23:02:31Z</time>
      </trkpt>
      <trkpt lat="46.32653" lon="2.58915">
        <ele>261.14</ele>
        <time>2021-08-06T23:02:32Z</time>
      </trkpt>
      <trkpt lat="46.32659" lon="2.58921">
        <ele>260.65</ele>
        <time>2021-08-06T23:02:33Z</time>
      </trkpt>
      <trkpt lat="46.32665" lon="2.58928">
        <ele>260.17</ele>
        <time>2021-08-06T23:02:34Z</time>
      </trkpt>
      <trkpt lat="46.32671" lon="2.58938">
        <ele>259.69</ele>
        <time>2021-08-06T23:02:35Z</time>
      </trkpt>
      <trkpt lat="46.32675" lon="2.58949">
        <ele>258.25</ele>
        <time>2021-08-06T23:02:36Z</time>
      </trkpt>
      <trkpt lat="46.32679" lon="2.58961">
        <ele>257.77</ele>
        <time>2021-08-06T23:02:37Z</time>
      </trkpt>
      <trkpt lat="46.32707" lon="2.59038">
        <ele>250.08</ele>
        <time>2021-08-06T23:02:43Z</time>
      </trkpt>
      <trkpt lat="46.32766" lon="2.59167">
        <ele>233.26</ele>
        <time>2021-08-06T23:02:52Z</time>
      </trkpt>
      <trkpt lat="46.32819" lon="2.59318">
        <ele>221.24</ele>
        <time>2021-08-06T23:03:01Z</time>
      </trkpt>
      <trkpt lat="46.32824" lon="2.59334">
        <ele>220.76</ele>
        <time>2021-08-06T23:03:02Z</time>
      </trkpt>
      <trkpt lat="46.32826" lon="2.59352">
        <ele>217.88</ele>
        <time>2021-08-06T23:03:03Z</time>
      </trkpt>
      <trkpt lat="46.32857" lon="2.59507">
        <ele>208.26</ele>
        <time>2021-08-06T23:03:12Z</time>
      </trkpt>
      <trkpt lat="46.32891" lon="2.59658">
        <ele>202.49</ele>
        <time>2021-08-06T23:03:23Z</time>
      </trkpt>
      <trkpt lat="46.32885" lon="2.59674">
        <ele>202.98</ele>
        <time>2021-08-06T23:03:24Z</time>
      </trkpt>
      <trkpt lat="46.32882" lon="2.59682">
        <ele>204.42</ele>
        <time>2021-08-06T23:03:25Z</time>
      </trkpt>
      <trkpt lat="46.32882" lon="2.59682">
        <ele>204.9</ele>
        <time>2021-08-06T23:03:26Z</time>
      </trkpt>
      <trkpt lat="46.32879" lon="2.59688">
        <ele>205.38</ele>
        <time>2021-08-06T23:03:27Z</time>
      </trkpt>
      <trkpt lat="46.32873" lon="2.59693">
        <ele>205.86</ele>
        <time>2021-08-06T23:03:28Z</time>
      </trkpt>
      <trkpt lat="46.32868" lon="2.59699">
        <ele>206.34</ele>
        <time>2021-08-06T23:03:29Z</time>
      </trkpt>
      <trkpt lat="46.32863" lon="2.59704">
        <ele>206.82</ele>
        <time>2021-08-06T23:03:30Z</time>
      </trkpt>
      <trkpt lat="46.32859" lon="2.59709">
        <ele>206.34</ele>
        <time>2021-08-06T23:03:31Z</time>
      </trkpt>
      <trkpt lat="46.32855" lon="2.59712">
        <ele>205.86</ele>
        <time>2021-08-06T23:03:32Z</time>
      </trkpt>
      <trkpt lat="46.32853" lon="2.59715">
        <ele>205.38</ele>
        <time>2021-08-06T23:03:33Z</time>
      </trkpt>
      <trkpt lat="46.32855" lon="2.59731">
        <ele>205.38</ele>
        <time>2021-08-06T23:03:34Z</time>
      </trkpt>
      <trkpt lat="46.32859" lon="2.59734">
        <ele>204.9</ele>
        <time>2021-08-06T23:03:35Z</time>
      </trkpt>
      <trkpt lat="46.32864" lon="2.59738">
        <ele>204.42</ele>
        <time>2021-08-06T23:03:36Z</time>
      </trkpt>
      <trkpt lat="46.3287" lon="2.59743">
        <ele>203.94</ele>
        <time>2021-08-06T23:03:37Z</time>
      </trkpt>
      <trkpt lat="46.32954" lon="2.59834">
        <ele>204.9</ele>
        <time>2021-08-06T23:03:47Z</time>
      </trkpt>
      <trkpt lat="46.33057" lon="2.59947">
        <ele>205.38</ele>
        <time>2021-08-06T23:03:58Z</time>
      </trkpt>
      <trkpt lat="46.33097" lon="2.59989">
        <ele>205.38</ele>
        <time>2021-08-06T23:04:04Z</time>
      </trkpt>
      <trkpt lat="46.331" lon="2.59994">
        <ele>205.38</ele>
        <time>2021-08-06T23:04:05Z</time>
      </trkpt>
      <trkpt lat="46.33102" lon="2.59999">
        <ele>205.38</ele>
        <time>2021-08-06T23:04:06Z</time>
      </trkpt>
      <trkpt lat="46.33104" lon="2.60004">
        <ele>205.38</ele>
        <time>2021-08-06T23:04:07Z</time>
      </trkpt>
      <trkpt lat="46.33102" lon="2.60013">
        <ele>205.38</ele>
        <time>2021-08-06T23:04:08Z</time>
      </trkpt>
      <trkpt lat="46.33098" lon="2.60018">
        <ele>205.38</ele>
        <time>2021-08-06T23:04:09Z</time>
      </trkpt>
      <trkpt lat="46.33043" lon="2.60152">
        <ele>204.9</ele>
        <time>2021-08-06T23:04:19Z</time>
      </trkpt>
      <trkpt lat="46.32965" lon="2.60335">
        <ele>204.42</ele>
        <time>2021-08-06T23:04:31Z</time>
      </trkpt>
      <trkpt lat="46.32923" lon="2.60472">
        <ele>206.82</ele>
        <time>2021-08-06T23:04:42Z</time>
      </trkpt>
      <trkpt lat="46.32897" lon="2.60569">
        <ele>208.26</ele>
        <time>2021-08-06T23:04:53Z</time>
      </trkpt>
      <trkpt lat="46.32853" lon="2.60726">
        <ele>210.19</ele>
        <time>2021-08-06T23:05:05Z</time>
      </trkpt>
      <trkpt lat="46.32823" lon="2.60835">
        <ele>211.63</ele>
        <time>2021-08-06T23:05:14Z</time>
      </trkpt>
      <trkpt lat="46.32821" lon="2.60845">
        <ele>211.15</ele>
        <time>2021-08-06T23:05:15Z</time>
      </trkpt>
      <trkpt lat="46.3282" lon="2.60855">
        <ele>210.67</ele>
        <time>2021-08-06T23:05:16Z</time>
      </trkpt>
      <trkpt lat="46.32809" lon="2.60867">
        <ele>210.19</ele>
        <time>2021-08-06T23:05:17Z</time>
      </trkpt>
      <trkpt lat="46.32802" lon="2.60867">
        <ele>209.7</ele>
        <time>2021-08-06T23:05:18Z</time>
      </trkpt>
      <trkpt lat="46.32793" lon="2.60866">
        <ele>209.7</ele>
        <time>2021-08-06T23:05:19Z</time>
      </trkpt>
      <trkpt lat="46.32783" lon="2.60866">
        <ele>209.22</ele>
        <time>2021-08-06T23:05:20Z</time>
      </trkpt>
    </trkseg>
  </trk>
</gpx>